<?xml version="1.0" encoding="UTF-8" standalone="no" ?>
<gpx xmlns="http://www.topografix.com/GPX/1/1" xmlns:xsi="http://www.w3.org/2001/XMLSchema-instance" xsi:schemaLocation="http://www.topografix.com/GPX/1/1 http://www.topografix.com/GPX/1/1/gpx.xsd" version="1.1" creator="VisuGPX - https://www.visugpx.com">
  <metadata>
    <name>&quot;Le Pacte des loups&quot; en boucle à partir d'Esparros (65130)</name>
    <desc><![CDATA[Belle incursion dans les Baronnies de Bigorre, sans difficulté par beau temps sur terrain sec. Beaucoup de forêt (hêtres à la montée, résineux à la descente). Des estives, belle vue sur la crête de Bassia (qu'on pourrait aussi rejoindre...). C'est le lieu de tournage (pluvieux) du bon film de baston de Christophe Gans, Le Pacte des loups (2001), avec Monica Bellucci. Parking pratique au village d'Esparros. 
La descente finale par la route est fastidieuse, même s'il y a pas mal d'ombre et que je n'ai rencontré aucun véhicule. Il y a une piste qui permet de rejoindre (en montant) l'itinéraire de montée, mais cela ajouterait de la distance.]]></desc>
  </metadata>
  <trk>
    <name><![CDATA[Esparros 08 07 26]]></name>
    <trkseg>
      <trkpt lat="43.03166" lon="0.3198">
        <ele>464.5</ele>
        <time>2026-07-08T06:06:48Z</time>
      </trkpt>
      <trkpt lat="43.03166" lon="0.3198">
        <ele>464.5</ele>
        <time>2026-07-08T06:06:49Z</time>
      </trkpt>
      <trkpt lat="43.03166" lon="0.3198">
        <ele>464.5</ele>
        <time>2026-07-08T06:06:50Z</time>
      </trkpt>
      <trkpt lat="43.03166" lon="0.3198">
        <ele>462.5</ele>
        <time>2026-07-08T06:06:51Z</time>
      </trkpt>
      <trkpt lat="43.03166" lon="0.3198">
        <ele>458.5</ele>
        <time>2026-07-08T06:06:52Z</time>
      </trkpt>
      <trkpt lat="43.03166" lon="0.3198">
        <ele>458.5</ele>
        <time>2026-07-08T06:06:53Z</time>
      </trkpt>
      <trkpt lat="43.03166" lon="0.3198">
        <ele>458.5</ele>
        <time>2026-07-08T06:06:54Z</time>
      </trkpt>
      <trkpt lat="43.03166" lon="0.3198">
        <ele>458.5</ele>
        <time>2026-07-08T06:06:55Z</time>
      </trkpt>
      <trkpt lat="43.03165" lon="0.31979">
        <ele>458.5</ele>
        <time>2026-07-08T06:06:56Z</time>
      </trkpt>
      <trkpt lat="43.03166" lon="0.31979">
        <ele>458.5</ele>
        <time>2026-07-08T06:06:57Z</time>
      </trkpt>
      <trkpt lat="43.03166" lon="0.3198">
        <ele>458.5</ele>
        <time>2026-07-08T06:06:58Z</time>
      </trkpt>
      <trkpt lat="43.03166" lon="0.3198">
        <ele>459.5</ele>
        <time>2026-07-08T06:06:59Z</time>
      </trkpt>
      <trkpt lat="43.03166" lon="0.3198">
        <ele>458.5</ele>
        <time>2026-07-08T06:07:00Z</time>
      </trkpt>
      <trkpt lat="43.03166" lon="0.31981">
        <ele>458.5</ele>
        <time>2026-07-08T06:07:01Z</time>
      </trkpt>
      <trkpt lat="43.03165" lon="0.31981">
        <ele>458.5</ele>
        <time>2026-07-08T06:07:02Z</time>
      </trkpt>
      <trkpt lat="43.03165" lon="0.31981">
        <ele>457.5</ele>
        <time>2026-07-08T06:07:03Z</time>
      </trkpt>
      <trkpt lat="43.03166" lon="0.31981">
        <ele>458.5</ele>
        <time>2026-07-08T06:07:04Z</time>
      </trkpt>
      <trkpt lat="43.03166" lon="0.31981">
        <ele>458.5</ele>
        <time>2026-07-08T06:07:05Z</time>
      </trkpt>
      <trkpt lat="43.03167" lon="0.3198">
        <ele>459.5</ele>
        <time>2026-07-08T06:07:06Z</time>
      </trkpt>
      <trkpt lat="43.03168" lon="0.31979">
        <ele>459.5</ele>
        <time>2026-07-08T06:07:07Z</time>
      </trkpt>
      <trkpt lat="43.03168" lon="0.31979">
        <ele>458.5</ele>
        <time>2026-07-08T06:07:08Z</time>
      </trkpt>
      <trkpt lat="43.03168" lon="0.31978">
        <ele>458.5</ele>
        <time>2026-07-08T06:07:09Z</time>
      </trkpt>
      <trkpt lat="43.03169" lon="0.31977">
        <ele>458.5</ele>
        <time>2026-07-08T06:07:10Z</time>
      </trkpt>
      <trkpt lat="43.0317" lon="0.31976">
        <ele>458.5</ele>
        <time>2026-07-08T06:07:11Z</time>
      </trkpt>
      <trkpt lat="43.03171" lon="0.31975">
        <ele>458.5</ele>
        <time>2026-07-08T06:07:12Z</time>
      </trkpt>
      <trkpt lat="43.03171" lon="0.31974">
        <ele>457.5</ele>
        <time>2026-07-08T06:07:12Z</time>
      </trkpt>
      <trkpt lat="43.03172" lon="0.31973">
        <ele>457.5</ele>
        <time>2026-07-08T06:07:13Z</time>
      </trkpt>
      <trkpt lat="43.03172" lon="0.31972">
        <ele>457.5</ele>
        <time>2026-07-08T06:07:14Z</time>
      </trkpt>
      <trkpt lat="43.03172" lon="0.31971">
        <ele>457.5</ele>
        <time>2026-07-08T06:07:14Z</time>
      </trkpt>
      <trkpt lat="43.03172" lon="0.3197">
        <ele>457.5</ele>
        <time>2026-07-08T06:07:15Z</time>
      </trkpt>
      <trkpt lat="43.03172" lon="0.31969">
        <ele>457.5</ele>
        <time>2026-07-08T06:07:15Z</time>
      </trkpt>
      <trkpt lat="43.03172" lon="0.31968">
        <ele>457.5</ele>
        <time>2026-07-08T06:07:16Z</time>
      </trkpt>
      <trkpt lat="43.03173" lon="0.31967">
        <ele>457.5</ele>
        <time>2026-07-08T06:07:17Z</time>
      </trkpt>
      <trkpt lat="43.03173" lon="0.31966">
        <ele>457.5</ele>
        <time>2026-07-08T06:07:17Z</time>
      </trkpt>
      <trkpt lat="43.03173" lon="0.31966">
        <ele>457.5</ele>
        <time>2026-07-08T06:07:18Z</time>
      </trkpt>
      <trkpt lat="43.03173" lon="0.31965">
        <ele>456.5</ele>
        <time>2026-07-08T06:07:18Z</time>
      </trkpt>
      <trkpt lat="43.03173" lon="0.31964">
        <ele>456.5</ele>
        <time>2026-07-08T06:07:19Z</time>
      </trkpt>
      <trkpt lat="43.03174" lon="0.31963">
        <ele>457.5</ele>
        <time>2026-07-08T06:07:19Z</time>
      </trkpt>
      <trkpt lat="43.03174" lon="0.31962">
        <ele>457.5</ele>
        <time>2026-07-08T06:07:20Z</time>
      </trkpt>
      <trkpt lat="43.03174" lon="0.31961">
        <ele>457.5</ele>
        <time>2026-07-08T06:07:21Z</time>
      </trkpt>
      <trkpt lat="43.03174" lon="0.3196">
        <ele>457.5</ele>
        <time>2026-07-08T06:07:22Z</time>
      </trkpt>
      <trkpt lat="43.03174" lon="0.31959">
        <ele>457.5</ele>
        <time>2026-07-08T06:07:23Z</time>
      </trkpt>
      <trkpt lat="43.03174" lon="0.31958">
        <ele>458.5</ele>
        <time>2026-07-08T06:07:23Z</time>
      </trkpt>
      <trkpt lat="43.03174" lon="0.31958">
        <ele>458.5</ele>
        <time>2026-07-08T06:07:24Z</time>
      </trkpt>
      <trkpt lat="43.03174" lon="0.31956">
        <ele>459.5</ele>
        <time>2026-07-08T06:07:25Z</time>
      </trkpt>
      <trkpt lat="43.03174" lon="0.31955">
        <ele>459.5</ele>
        <time>2026-07-08T06:07:26Z</time>
      </trkpt>
      <trkpt lat="43.03174" lon="0.31955">
        <ele>459.5</ele>
        <time>2026-07-08T06:07:26Z</time>
      </trkpt>
      <trkpt lat="43.03174" lon="0.31954">
        <ele>459.5</ele>
        <time>2026-07-08T06:07:27Z</time>
      </trkpt>
      <trkpt lat="43.03174" lon="0.31952">
        <ele>458.5</ele>
        <time>2026-07-08T06:07:28Z</time>
      </trkpt>
      <trkpt lat="43.03174" lon="0.31951">
        <ele>458.5</ele>
        <time>2026-07-08T06:07:28Z</time>
      </trkpt>
      <trkpt lat="43.03175" lon="0.3195">
        <ele>458.5</ele>
        <time>2026-07-08T06:07:29Z</time>
      </trkpt>
      <trkpt lat="43.03175" lon="0.31949">
        <ele>458.5</ele>
        <time>2026-07-08T06:07:30Z</time>
      </trkpt>
      <trkpt lat="43.03176" lon="0.31948">
        <ele>458.5</ele>
        <time>2026-07-08T06:07:30Z</time>
      </trkpt>
      <trkpt lat="43.03176" lon="0.31947">
        <ele>458.5</ele>
        <time>2026-07-08T06:07:31Z</time>
      </trkpt>
      <trkpt lat="43.03176" lon="0.31946">
        <ele>458.5</ele>
        <time>2026-07-08T06:07:32Z</time>
      </trkpt>
      <trkpt lat="43.03176" lon="0.31944">
        <ele>458.5</ele>
        <time>2026-07-08T06:07:33Z</time>
      </trkpt>
      <trkpt lat="43.03176" lon="0.31943">
        <ele>458.5</ele>
        <time>2026-07-08T06:07:33Z</time>
      </trkpt>
      <trkpt lat="43.03176" lon="0.31942">
        <ele>458.5</ele>
        <time>2026-07-08T06:07:34Z</time>
      </trkpt>
      <trkpt lat="43.03176" lon="0.31941">
        <ele>458.5</ele>
        <time>2026-07-08T06:07:35Z</time>
      </trkpt>
      <trkpt lat="43.03176" lon="0.3194">
        <ele>458.5</ele>
        <time>2026-07-08T06:07:36Z</time>
      </trkpt>
      <trkpt lat="43.03176" lon="0.31939">
        <ele>458.5</ele>
        <time>2026-07-08T06:07:37Z</time>
      </trkpt>
      <trkpt lat="43.03176" lon="0.31938">
        <ele>458.5</ele>
        <time>2026-07-08T06:07:37Z</time>
      </trkpt>
      <trkpt lat="43.03176" lon="0.31937">
        <ele>458.5</ele>
        <time>2026-07-08T06:07:38Z</time>
      </trkpt>
      <trkpt lat="43.03176" lon="0.31937">
        <ele>458.5</ele>
        <time>2026-07-08T06:07:38Z</time>
      </trkpt>
      <trkpt lat="43.03176" lon="0.31936">
        <ele>458.5</ele>
        <time>2026-07-08T06:07:39Z</time>
      </trkpt>
      <trkpt lat="43.03176" lon="0.31935">
        <ele>459.5</ele>
        <time>2026-07-08T06:07:40Z</time>
      </trkpt>
      <trkpt lat="43.03176" lon="0.31935">
        <ele>458.5</ele>
        <time>2026-07-08T06:07:40Z</time>
      </trkpt>
      <trkpt lat="43.03176" lon="0.31933">
        <ele>458.5</ele>
        <time>2026-07-08T06:07:41Z</time>
      </trkpt>
      <trkpt lat="43.03176" lon="0.31933">
        <ele>458.5</ele>
        <time>2026-07-08T06:07:42Z</time>
      </trkpt>
      <trkpt lat="43.03177" lon="0.31932">
        <ele>458.5</ele>
        <time>2026-07-08T06:07:43Z</time>
      </trkpt>
      <trkpt lat="43.03177" lon="0.31932">
        <ele>458.5</ele>
        <time>2026-07-08T06:07:44Z</time>
      </trkpt>
      <trkpt lat="43.03177" lon="0.31929">
        <ele>458.5</ele>
        <time>2026-07-08T06:07:45Z</time>
      </trkpt>
      <trkpt lat="43.03178" lon="0.31927">
        <ele>458.5</ele>
        <time>2026-07-08T06:07:46Z</time>
      </trkpt>
      <trkpt lat="43.03178" lon="0.31925">
        <ele>458.5</ele>
        <time>2026-07-08T06:07:47Z</time>
      </trkpt>
      <trkpt lat="43.03178" lon="0.31924">
        <ele>458.5</ele>
        <time>2026-07-08T06:07:48Z</time>
      </trkpt>
      <trkpt lat="43.03178" lon="0.31923">
        <ele>457.5</ele>
        <time>2026-07-08T06:07:48Z</time>
      </trkpt>
      <trkpt lat="43.03178" lon="0.31922">
        <ele>457.5</ele>
        <time>2026-07-08T06:07:49Z</time>
      </trkpt>
      <trkpt lat="43.03179" lon="0.31921">
        <ele>457.5</ele>
        <time>2026-07-08T06:07:49Z</time>
      </trkpt>
      <trkpt lat="43.03179" lon="0.3192">
        <ele>457.5</ele>
        <time>2026-07-08T06:07:50Z</time>
      </trkpt>
      <trkpt lat="43.03179" lon="0.31919">
        <ele>457.5</ele>
        <time>2026-07-08T06:07:51Z</time>
      </trkpt>
      <trkpt lat="43.0318" lon="0.31918">
        <ele>457.5</ele>
        <time>2026-07-08T06:07:51Z</time>
      </trkpt>
      <trkpt lat="43.0318" lon="0.31917">
        <ele>457.5</ele>
        <time>2026-07-08T06:07:52Z</time>
      </trkpt>
      <trkpt lat="43.03181" lon="0.31916">
        <ele>457.5</ele>
        <time>2026-07-08T06:07:52Z</time>
      </trkpt>
      <trkpt lat="43.03181" lon="0.31915">
        <ele>456.5</ele>
        <time>2026-07-08T06:07:53Z</time>
      </trkpt>
      <trkpt lat="43.03181" lon="0.31915">
        <ele>456.5</ele>
        <time>2026-07-08T06:07:54Z</time>
      </trkpt>
      <trkpt lat="43.03182" lon="0.31914">
        <ele>456.5</ele>
        <time>2026-07-08T06:07:54Z</time>
      </trkpt>
      <trkpt lat="43.03182" lon="0.31913">
        <ele>456.5</ele>
        <time>2026-07-08T06:07:55Z</time>
      </trkpt>
      <trkpt lat="43.03183" lon="0.31912">
        <ele>456.5</ele>
        <time>2026-07-08T06:07:56Z</time>
      </trkpt>
      <trkpt lat="43.03182" lon="0.31912">
        <ele>456.5</ele>
        <time>2026-07-08T06:07:56Z</time>
      </trkpt>
      <trkpt lat="43.03182" lon="0.3191">
        <ele>456.5</ele>
        <time>2026-07-08T06:07:57Z</time>
      </trkpt>
      <trkpt lat="43.03182" lon="0.31909">
        <ele>456.5</ele>
        <time>2026-07-08T06:07:58Z</time>
      </trkpt>
      <trkpt lat="43.03182" lon="0.31907">
        <ele>455.5</ele>
        <time>2026-07-08T06:07:59Z</time>
      </trkpt>
      <trkpt lat="43.03181" lon="0.31906">
        <ele>455.5</ele>
        <time>2026-07-08T06:08:00Z</time>
      </trkpt>
      <trkpt lat="43.03181" lon="0.31904">
        <ele>455.5</ele>
        <time>2026-07-08T06:08:01Z</time>
      </trkpt>
      <trkpt lat="43.03181" lon="0.31904">
        <ele>455.5</ele>
        <time>2026-07-08T06:08:02Z</time>
      </trkpt>
      <trkpt lat="43.03181" lon="0.31902">
        <ele>455.5</ele>
        <time>2026-07-08T06:08:03Z</time>
      </trkpt>
      <trkpt lat="43.0318" lon="0.319">
        <ele>454.5</ele>
        <time>2026-07-08T06:08:04Z</time>
      </trkpt>
      <trkpt lat="43.03179" lon="0.31899">
        <ele>455.5</ele>
        <time>2026-07-08T06:08:05Z</time>
      </trkpt>
      <trkpt lat="43.03179" lon="0.31898">
        <ele>455.5</ele>
        <time>2026-07-08T06:08:06Z</time>
      </trkpt>
      <trkpt lat="43.03178" lon="0.31897">
        <ele>455.5</ele>
        <time>2026-07-08T06:08:07Z</time>
      </trkpt>
      <trkpt lat="43.03178" lon="0.31896">
        <ele>455.5</ele>
        <time>2026-07-08T06:08:07Z</time>
      </trkpt>
      <trkpt lat="43.03177" lon="0.31896">
        <ele>456.5</ele>
        <time>2026-07-08T06:08:08Z</time>
      </trkpt>
      <trkpt lat="43.03177" lon="0.31895">
        <ele>456.5</ele>
        <time>2026-07-08T06:08:09Z</time>
      </trkpt>
      <trkpt lat="43.03177" lon="0.31894">
        <ele>457.5</ele>
        <time>2026-07-08T06:08:10Z</time>
      </trkpt>
      <trkpt lat="43.03177" lon="0.31894">
        <ele>457.5</ele>
        <time>2026-07-08T06:08:10Z</time>
      </trkpt>
      <trkpt lat="43.03177" lon="0.31893">
        <ele>457.5</ele>
        <time>2026-07-08T06:08:11Z</time>
      </trkpt>
      <trkpt lat="43.03177" lon="0.31893">
        <ele>457.5</ele>
        <time>2026-07-08T06:08:11Z</time>
      </trkpt>
      <trkpt lat="43.03176" lon="0.31892">
        <ele>457.5</ele>
        <time>2026-07-08T06:08:12Z</time>
      </trkpt>
      <trkpt lat="43.03176" lon="0.31891">
        <ele>457.5</ele>
        <time>2026-07-08T06:08:13Z</time>
      </trkpt>
      <trkpt lat="43.03176" lon="0.3189">
        <ele>457.5</ele>
        <time>2026-07-08T06:08:13Z</time>
      </trkpt>
      <trkpt lat="43.03176" lon="0.31889">
        <ele>457.5</ele>
        <time>2026-07-08T06:08:14Z</time>
      </trkpt>
      <trkpt lat="43.03176" lon="0.31888">
        <ele>457.5</ele>
        <time>2026-07-08T06:08:15Z</time>
      </trkpt>
      <trkpt lat="43.03176" lon="0.31887">
        <ele>457.5</ele>
        <time>2026-07-08T06:08:16Z</time>
      </trkpt>
      <trkpt lat="43.03176" lon="0.31885">
        <ele>458.5</ele>
        <time>2026-07-08T06:08:17Z</time>
      </trkpt>
      <trkpt lat="43.03176" lon="0.31883">
        <ele>458.5</ele>
        <time>2026-07-08T06:08:18Z</time>
      </trkpt>
      <trkpt lat="43.03176" lon="0.31882">
        <ele>458.5</ele>
        <time>2026-07-08T06:08:18Z</time>
      </trkpt>
      <trkpt lat="43.03176" lon="0.31881">
        <ele>458.5</ele>
        <time>2026-07-08T06:08:19Z</time>
      </trkpt>
      <trkpt lat="43.03176" lon="0.3188">
        <ele>457.5</ele>
        <time>2026-07-08T06:08:19Z</time>
      </trkpt>
      <trkpt lat="43.03176" lon="0.31879">
        <ele>457.5</ele>
        <time>2026-07-08T06:08:20Z</time>
      </trkpt>
      <trkpt lat="43.03176" lon="0.31878">
        <ele>457.5</ele>
        <time>2026-07-08T06:08:21Z</time>
      </trkpt>
      <trkpt lat="43.03177" lon="0.31877">
        <ele>457.5</ele>
        <time>2026-07-08T06:08:21Z</time>
      </trkpt>
      <trkpt lat="43.03177" lon="0.31876">
        <ele>457.5</ele>
        <time>2026-07-08T06:08:22Z</time>
      </trkpt>
      <trkpt lat="43.03177" lon="0.31875">
        <ele>457.5</ele>
        <time>2026-07-08T06:08:22Z</time>
      </trkpt>
      <trkpt lat="43.03177" lon="0.31875">
        <ele>457.5</ele>
        <time>2026-07-08T06:08:23Z</time>
      </trkpt>
      <trkpt lat="43.03178" lon="0.31873">
        <ele>458.5</ele>
        <time>2026-07-08T06:08:23Z</time>
      </trkpt>
      <trkpt lat="43.03178" lon="0.31872">
        <ele>458.5</ele>
        <time>2026-07-08T06:08:24Z</time>
      </trkpt>
      <trkpt lat="43.03178" lon="0.31872">
        <ele>458.5</ele>
        <time>2026-07-08T06:08:25Z</time>
      </trkpt>
      <trkpt lat="43.03178" lon="0.31871">
        <ele>457.5</ele>
        <time>2026-07-08T06:08:25Z</time>
      </trkpt>
      <trkpt lat="43.03179" lon="0.3187">
        <ele>457.5</ele>
        <time>2026-07-08T06:08:26Z</time>
      </trkpt>
      <trkpt lat="43.03179" lon="0.31869">
        <ele>457.5</ele>
        <time>2026-07-08T06:08:26Z</time>
      </trkpt>
      <trkpt lat="43.03179" lon="0.31868">
        <ele>457.5</ele>
        <time>2026-07-08T06:08:27Z</time>
      </trkpt>
      <trkpt lat="43.03179" lon="0.31868">
        <ele>458.5</ele>
        <time>2026-07-08T06:08:27Z</time>
      </trkpt>
      <trkpt lat="43.03179" lon="0.31868">
        <ele>458.5</ele>
        <time>2026-07-08T06:08:28Z</time>
      </trkpt>
      <trkpt lat="43.03179" lon="0.31867">
        <ele>457.5</ele>
        <time>2026-07-08T06:08:29Z</time>
      </trkpt>
      <trkpt lat="43.0318" lon="0.31866">
        <ele>457.5</ele>
        <time>2026-07-08T06:08:29Z</time>
      </trkpt>
      <trkpt lat="43.0318" lon="0.31865">
        <ele>457.5</ele>
        <time>2026-07-08T06:08:30Z</time>
      </trkpt>
      <trkpt lat="43.0318" lon="0.31865">
        <ele>457.5</ele>
        <time>2026-07-08T06:08:30Z</time>
      </trkpt>
      <trkpt lat="43.0318" lon="0.31864">
        <ele>457.5</ele>
        <time>2026-07-08T06:08:31Z</time>
      </trkpt>
      <trkpt lat="43.0318" lon="0.31863">
        <ele>457.5</ele>
        <time>2026-07-08T06:08:31Z</time>
      </trkpt>
      <trkpt lat="43.0318" lon="0.31863">
        <ele>457.5</ele>
        <time>2026-07-08T06:08:32Z</time>
      </trkpt>
      <trkpt lat="43.0318" lon="0.31862">
        <ele>457.5</ele>
        <time>2026-07-08T06:08:32Z</time>
      </trkpt>
      <trkpt lat="43.0318" lon="0.31861">
        <ele>457.5</ele>
        <time>2026-07-08T06:08:33Z</time>
      </trkpt>
      <trkpt lat="43.0318" lon="0.3186">
        <ele>457.5</ele>
        <time>2026-07-08T06:08:33Z</time>
      </trkpt>
      <trkpt lat="43.03181" lon="0.31859">
        <ele>457.5</ele>
        <time>2026-07-08T06:08:34Z</time>
      </trkpt>
      <trkpt lat="43.0318" lon="0.31858">
        <ele>457.5</ele>
        <time>2026-07-08T06:08:34Z</time>
      </trkpt>
      <trkpt lat="43.0318" lon="0.31857">
        <ele>457.5</ele>
        <time>2026-07-08T06:08:35Z</time>
      </trkpt>
      <trkpt lat="43.0318" lon="0.31856">
        <ele>457.5</ele>
        <time>2026-07-08T06:08:36Z</time>
      </trkpt>
      <trkpt lat="43.0318" lon="0.31856">
        <ele>457.5</ele>
        <time>2026-07-08T06:08:36Z</time>
      </trkpt>
      <trkpt lat="43.0318" lon="0.31855">
        <ele>457.5</ele>
        <time>2026-07-08T06:08:37Z</time>
      </trkpt>
      <trkpt lat="43.03181" lon="0.31854">
        <ele>457.5</ele>
        <time>2026-07-08T06:08:37Z</time>
      </trkpt>
      <trkpt lat="43.03181" lon="0.31854">
        <ele>457.5</ele>
        <time>2026-07-08T06:08:38Z</time>
      </trkpt>
      <trkpt lat="43.03181" lon="0.31853">
        <ele>457.5</ele>
        <time>2026-07-08T06:08:38Z</time>
      </trkpt>
      <trkpt lat="43.03181" lon="0.31852">
        <ele>457.5</ele>
        <time>2026-07-08T06:08:39Z</time>
      </trkpt>
      <trkpt lat="43.0318" lon="0.31851">
        <ele>456.5</ele>
        <time>2026-07-08T06:08:40Z</time>
      </trkpt>
      <trkpt lat="43.0318" lon="0.3185">
        <ele>456.5</ele>
        <time>2026-07-08T06:08:40Z</time>
      </trkpt>
      <trkpt lat="43.0318" lon="0.3185">
        <ele>456.5</ele>
        <time>2026-07-08T06:08:41Z</time>
      </trkpt>
      <trkpt lat="43.0318" lon="0.31849">
        <ele>456.5</ele>
        <time>2026-07-08T06:08:41Z</time>
      </trkpt>
      <trkpt lat="43.0318" lon="0.31848">
        <ele>456.5</ele>
        <time>2026-07-08T06:08:42Z</time>
      </trkpt>
      <trkpt lat="43.0318" lon="0.31847">
        <ele>455.5</ele>
        <time>2026-07-08T06:08:42Z</time>
      </trkpt>
      <trkpt lat="43.0318" lon="0.31846">
        <ele>455.5</ele>
        <time>2026-07-08T06:08:43Z</time>
      </trkpt>
      <trkpt lat="43.03179" lon="0.31846">
        <ele>456.5</ele>
        <time>2026-07-08T06:08:43Z</time>
      </trkpt>
      <trkpt lat="43.03179" lon="0.31845">
        <ele>456.5</ele>
        <time>2026-07-08T06:08:44Z</time>
      </trkpt>
      <trkpt lat="43.03179" lon="0.31844">
        <ele>456.5</ele>
        <time>2026-07-08T06:08:45Z</time>
      </trkpt>
      <trkpt lat="43.03179" lon="0.31844">
        <ele>455.5</ele>
        <time>2026-07-08T06:08:45Z</time>
      </trkpt>
      <trkpt lat="43.03178" lon="0.31843">
        <ele>455.5</ele>
        <time>2026-07-08T06:08:46Z</time>
      </trkpt>
      <trkpt lat="43.03178" lon="0.31842">
        <ele>455.5</ele>
        <time>2026-07-08T06:08:46Z</time>
      </trkpt>
      <trkpt lat="43.03178" lon="0.31841">
        <ele>455.5</ele>
        <time>2026-07-08T06:08:47Z</time>
      </trkpt>
      <trkpt lat="43.03178" lon="0.3184">
        <ele>456.5</ele>
        <time>2026-07-08T06:08:47Z</time>
      </trkpt>
      <trkpt lat="43.03178" lon="0.31839">
        <ele>456.5</ele>
        <time>2026-07-08T06:08:48Z</time>
      </trkpt>
      <trkpt lat="43.03178" lon="0.31838">
        <ele>456.5</ele>
        <time>2026-07-08T06:08:48Z</time>
      </trkpt>
      <trkpt lat="43.03178" lon="0.31838">
        <ele>456.5</ele>
        <time>2026-07-08T06:08:49Z</time>
      </trkpt>
      <trkpt lat="43.03178" lon="0.31836">
        <ele>455.5</ele>
        <time>2026-07-08T06:08:50Z</time>
      </trkpt>
      <trkpt lat="43.03178" lon="0.31835">
        <ele>455.5</ele>
        <time>2026-07-08T06:08:51Z</time>
      </trkpt>
      <trkpt lat="43.03178" lon="0.31834">
        <ele>455.5</ele>
        <time>2026-07-08T06:08:51Z</time>
      </trkpt>
      <trkpt lat="43.03178" lon="0.31833">
        <ele>455.5</ele>
        <time>2026-07-08T06:08:52Z</time>
      </trkpt>
      <trkpt lat="43.03178" lon="0.31832">
        <ele>455.5</ele>
        <time>2026-07-08T06:08:52Z</time>
      </trkpt>
      <trkpt lat="43.03178" lon="0.31831">
        <ele>455.5</ele>
        <time>2026-07-08T06:08:53Z</time>
      </trkpt>
      <trkpt lat="43.03178" lon="0.3183">
        <ele>455.5</ele>
        <time>2026-07-08T06:08:53Z</time>
      </trkpt>
      <trkpt lat="43.03178" lon="0.31829">
        <ele>455.5</ele>
        <time>2026-07-08T06:08:54Z</time>
      </trkpt>
      <trkpt lat="43.03178" lon="0.31828">
        <ele>455.5</ele>
        <time>2026-07-08T06:08:54Z</time>
      </trkpt>
      <trkpt lat="43.03178" lon="0.31827">
        <ele>455.5</ele>
        <time>2026-07-08T06:08:55Z</time>
      </trkpt>
      <trkpt lat="43.03178" lon="0.31826">
        <ele>455.5</ele>
        <time>2026-07-08T06:08:56Z</time>
      </trkpt>
      <trkpt lat="43.03178" lon="0.31826">
        <ele>455.5</ele>
        <time>2026-07-08T06:08:56Z</time>
      </trkpt>
      <trkpt lat="43.03178" lon="0.31825">
        <ele>455.5</ele>
        <time>2026-07-08T06:08:57Z</time>
      </trkpt>
      <trkpt lat="43.03178" lon="0.31824">
        <ele>456.5</ele>
        <time>2026-07-08T06:08:57Z</time>
      </trkpt>
      <trkpt lat="43.03178" lon="0.31823">
        <ele>456.5</ele>
        <time>2026-07-08T06:08:58Z</time>
      </trkpt>
      <trkpt lat="43.03178" lon="0.31821">
        <ele>456.5</ele>
        <time>2026-07-08T06:08:58Z</time>
      </trkpt>
      <trkpt lat="43.03178" lon="0.3182">
        <ele>456.5</ele>
        <time>2026-07-08T06:08:59Z</time>
      </trkpt>
      <trkpt lat="43.03178" lon="0.3182">
        <ele>456.5</ele>
        <time>2026-07-08T06:08:59Z</time>
      </trkpt>
      <trkpt lat="43.03178" lon="0.31819">
        <ele>456.5</ele>
        <time>2026-07-08T06:09:00Z</time>
      </trkpt>
      <trkpt lat="43.03178" lon="0.31818">
        <ele>456.5</ele>
        <time>2026-07-08T06:09:00Z</time>
      </trkpt>
      <trkpt lat="43.03178" lon="0.31817">
        <ele>456.5</ele>
        <time>2026-07-08T06:09:01Z</time>
      </trkpt>
      <trkpt lat="43.03178" lon="0.31816">
        <ele>455.5</ele>
        <time>2026-07-08T06:09:02Z</time>
      </trkpt>
      <trkpt lat="43.03178" lon="0.31815">
        <ele>455.5</ele>
        <time>2026-07-08T06:09:02Z</time>
      </trkpt>
      <trkpt lat="43.03178" lon="0.31814">
        <ele>455.5</ele>
        <time>2026-07-08T06:09:03Z</time>
      </trkpt>
      <trkpt lat="43.03178" lon="0.31813">
        <ele>456.5</ele>
        <time>2026-07-08T06:09:03Z</time>
      </trkpt>
      <trkpt lat="43.03178" lon="0.31812">
        <ele>456.5</ele>
        <time>2026-07-08T06:09:04Z</time>
      </trkpt>
      <trkpt lat="43.03178" lon="0.31811">
        <ele>456.5</ele>
        <time>2026-07-08T06:09:05Z</time>
      </trkpt>
      <trkpt lat="43.03179" lon="0.3181">
        <ele>456.5</ele>
        <time>2026-07-08T06:09:05Z</time>
      </trkpt>
      <trkpt lat="43.03179" lon="0.31809">
        <ele>456.5</ele>
        <time>2026-07-08T06:09:06Z</time>
      </trkpt>
      <trkpt lat="43.03179" lon="0.31808">
        <ele>456.5</ele>
        <time>2026-07-08T06:09:06Z</time>
      </trkpt>
      <trkpt lat="43.03179" lon="0.31807">
        <ele>456.5</ele>
        <time>2026-07-08T06:09:07Z</time>
      </trkpt>
      <trkpt lat="43.03179" lon="0.31806">
        <ele>456.5</ele>
        <time>2026-07-08T06:09:07Z</time>
      </trkpt>
      <trkpt lat="43.03179" lon="0.31806">
        <ele>456.5</ele>
        <time>2026-07-08T06:09:08Z</time>
      </trkpt>
      <trkpt lat="43.03179" lon="0.31805">
        <ele>456.5</ele>
        <time>2026-07-08T06:09:09Z</time>
      </trkpt>
      <trkpt lat="43.03179" lon="0.31804">
        <ele>456.5</ele>
        <time>2026-07-08T06:09:09Z</time>
      </trkpt>
      <trkpt lat="43.03179" lon="0.31803">
        <ele>456.5</ele>
        <time>2026-07-08T06:09:10Z</time>
      </trkpt>
      <trkpt lat="43.03179" lon="0.31802">
        <ele>457.5</ele>
        <time>2026-07-08T06:09:10Z</time>
      </trkpt>
      <trkpt lat="43.03179" lon="0.31801">
        <ele>457.5</ele>
        <time>2026-07-08T06:09:11Z</time>
      </trkpt>
      <trkpt lat="43.0318" lon="0.318">
        <ele>457.5</ele>
        <time>2026-07-08T06:09:11Z</time>
      </trkpt>
      <trkpt lat="43.0318" lon="0.31799">
        <ele>457.5</ele>
        <time>2026-07-08T06:09:12Z</time>
      </trkpt>
      <trkpt lat="43.0318" lon="0.31798">
        <ele>457.5</ele>
        <time>2026-07-08T06:09:12Z</time>
      </trkpt>
      <trkpt lat="43.0318" lon="0.31797">
        <ele>457.5</ele>
        <time>2026-07-08T06:09:13Z</time>
      </trkpt>
      <trkpt lat="43.0318" lon="0.31796">
        <ele>457.5</ele>
        <time>2026-07-08T06:09:14Z</time>
      </trkpt>
      <trkpt lat="43.0318" lon="0.31795">
        <ele>457.5</ele>
        <time>2026-07-08T06:09:14Z</time>
      </trkpt>
      <trkpt lat="43.0318" lon="0.31794">
        <ele>457.5</ele>
        <time>2026-07-08T06:09:15Z</time>
      </trkpt>
      <trkpt lat="43.0318" lon="0.31792">
        <ele>457.5</ele>
        <time>2026-07-08T06:09:16Z</time>
      </trkpt>
      <trkpt lat="43.0318" lon="0.31791">
        <ele>457.5</ele>
        <time>2026-07-08T06:09:16Z</time>
      </trkpt>
      <trkpt lat="43.0318" lon="0.3179">
        <ele>457.5</ele>
        <time>2026-07-08T06:09:17Z</time>
      </trkpt>
      <trkpt lat="43.0318" lon="0.31789">
        <ele>457.5</ele>
        <time>2026-07-08T06:09:17Z</time>
      </trkpt>
      <trkpt lat="43.03181" lon="0.31788">
        <ele>457.5</ele>
        <time>2026-07-08T06:09:18Z</time>
      </trkpt>
      <trkpt lat="43.03181" lon="0.31787">
        <ele>457.5</ele>
        <time>2026-07-08T06:09:18Z</time>
      </trkpt>
      <trkpt lat="43.03181" lon="0.31786">
        <ele>457.5</ele>
        <time>2026-07-08T06:09:19Z</time>
      </trkpt>
      <trkpt lat="43.03181" lon="0.31785">
        <ele>457.5</ele>
        <time>2026-07-08T06:09:19Z</time>
      </trkpt>
      <trkpt lat="43.03181" lon="0.31784">
        <ele>457.5</ele>
        <time>2026-07-08T06:09:20Z</time>
      </trkpt>
      <trkpt lat="43.03181" lon="0.31783">
        <ele>457.5</ele>
        <time>2026-07-08T06:09:20Z</time>
      </trkpt>
      <trkpt lat="43.03181" lon="0.31782">
        <ele>457.5</ele>
        <time>2026-07-08T06:09:21Z</time>
      </trkpt>
      <trkpt lat="43.03182" lon="0.3178">
        <ele>457.5</ele>
        <time>2026-07-08T06:09:22Z</time>
      </trkpt>
      <trkpt lat="43.03182" lon="0.31779">
        <ele>457.5</ele>
        <time>2026-07-08T06:09:23Z</time>
      </trkpt>
      <trkpt lat="43.03182" lon="0.31778">
        <ele>457.5</ele>
        <time>2026-07-08T06:09:23Z</time>
      </trkpt>
      <trkpt lat="43.03182" lon="0.31777">
        <ele>457.5</ele>
        <time>2026-07-08T06:09:24Z</time>
      </trkpt>
      <trkpt lat="43.03183" lon="0.31776">
        <ele>456.5</ele>
        <time>2026-07-08T06:09:24Z</time>
      </trkpt>
      <trkpt lat="43.03183" lon="0.31775">
        <ele>456.5</ele>
        <time>2026-07-08T06:09:25Z</time>
      </trkpt>
      <trkpt lat="43.03183" lon="0.31775">
        <ele>456.5</ele>
        <time>2026-07-08T06:09:25Z</time>
      </trkpt>
      <trkpt lat="43.03183" lon="0.31774">
        <ele>456.5</ele>
        <time>2026-07-08T06:09:26Z</time>
      </trkpt>
      <trkpt lat="43.03183" lon="0.31773">
        <ele>456.5</ele>
        <time>2026-07-08T06:09:26Z</time>
      </trkpt>
      <trkpt lat="43.03184" lon="0.31772">
        <ele>456.5</ele>
        <time>2026-07-08T06:09:27Z</time>
      </trkpt>
      <trkpt lat="43.03184" lon="0.31771">
        <ele>456.5</ele>
        <time>2026-07-08T06:09:28Z</time>
      </trkpt>
      <trkpt lat="43.03184" lon="0.3177">
        <ele>456.5</ele>
        <time>2026-07-08T06:09:28Z</time>
      </trkpt>
      <trkpt lat="43.03184" lon="0.31769">
        <ele>456.5</ele>
        <time>2026-07-08T06:09:29Z</time>
      </trkpt>
      <trkpt lat="43.03185" lon="0.31768">
        <ele>457.5</ele>
        <time>2026-07-08T06:09:29Z</time>
      </trkpt>
      <trkpt lat="43.03185" lon="0.31767">
        <ele>457.5</ele>
        <time>2026-07-08T06:09:30Z</time>
      </trkpt>
      <trkpt lat="43.03185" lon="0.31767">
        <ele>457.5</ele>
        <time>2026-07-08T06:09:30Z</time>
      </trkpt>
      <trkpt lat="43.03185" lon="0.31766">
        <ele>457.5</ele>
        <time>2026-07-08T06:09:31Z</time>
      </trkpt>
      <trkpt lat="43.03186" lon="0.31765">
        <ele>458.5</ele>
        <time>2026-07-08T06:09:31Z</time>
      </trkpt>
      <trkpt lat="43.03186" lon="0.31764">
        <ele>458.5</ele>
        <time>2026-07-08T06:09:32Z</time>
      </trkpt>
      <trkpt lat="43.03186" lon="0.31763">
        <ele>458.5</ele>
        <time>2026-07-08T06:09:33Z</time>
      </trkpt>
      <trkpt lat="43.03186" lon="0.31762">
        <ele>458.5</ele>
        <time>2026-07-08T06:09:33Z</time>
      </trkpt>
      <trkpt lat="43.03186" lon="0.31761">
        <ele>458.5</ele>
        <time>2026-07-08T06:09:34Z</time>
      </trkpt>
      <trkpt lat="43.03186" lon="0.3176">
        <ele>458.5</ele>
        <time>2026-07-08T06:09:34Z</time>
      </trkpt>
      <trkpt lat="43.03187" lon="0.31759">
        <ele>458.5</ele>
        <time>2026-07-08T06:09:35Z</time>
      </trkpt>
      <trkpt lat="43.03187" lon="0.31759">
        <ele>458.5</ele>
        <time>2026-07-08T06:09:35Z</time>
      </trkpt>
      <trkpt lat="43.03187" lon="0.31758">
        <ele>458.5</ele>
        <time>2026-07-08T06:09:36Z</time>
      </trkpt>
      <trkpt lat="43.03187" lon="0.31757">
        <ele>458.5</ele>
        <time>2026-07-08T06:09:37Z</time>
      </trkpt>
      <trkpt lat="43.03188" lon="0.31756">
        <ele>458.5</ele>
        <time>2026-07-08T06:09:37Z</time>
      </trkpt>
      <trkpt lat="43.03188" lon="0.31755">
        <ele>458.5</ele>
        <time>2026-07-08T06:09:38Z</time>
      </trkpt>
      <trkpt lat="43.03188" lon="0.31755">
        <ele>458.5</ele>
        <time>2026-07-08T06:09:38Z</time>
      </trkpt>
      <trkpt lat="43.03188" lon="0.31754">
        <ele>458.5</ele>
        <time>2026-07-08T06:09:39Z</time>
      </trkpt>
      <trkpt lat="43.03188" lon="0.31753">
        <ele>458.5</ele>
        <time>2026-07-08T06:09:39Z</time>
      </trkpt>
      <trkpt lat="43.03189" lon="0.31752">
        <ele>458.5</ele>
        <time>2026-07-08T06:09:40Z</time>
      </trkpt>
      <trkpt lat="43.03189" lon="0.31752">
        <ele>458.5</ele>
        <time>2026-07-08T06:09:40Z</time>
      </trkpt>
      <trkpt lat="43.03189" lon="0.31751">
        <ele>458.5</ele>
        <time>2026-07-08T06:09:41Z</time>
      </trkpt>
      <trkpt lat="43.03189" lon="0.3175">
        <ele>458.5</ele>
        <time>2026-07-08T06:09:42Z</time>
      </trkpt>
      <trkpt lat="43.0319" lon="0.3175">
        <ele>459.5</ele>
        <time>2026-07-08T06:09:42Z</time>
      </trkpt>
      <trkpt lat="43.0319" lon="0.31749">
        <ele>459.5</ele>
        <time>2026-07-08T06:09:43Z</time>
      </trkpt>
      <trkpt lat="43.0319" lon="0.31748">
        <ele>458.5</ele>
        <time>2026-07-08T06:09:43Z</time>
      </trkpt>
      <trkpt lat="43.0319" lon="0.31747">
        <ele>458.5</ele>
        <time>2026-07-08T06:09:44Z</time>
      </trkpt>
      <trkpt lat="43.03191" lon="0.31747">
        <ele>458.5</ele>
        <time>2026-07-08T06:09:44Z</time>
      </trkpt>
      <trkpt lat="43.03191" lon="0.31746">
        <ele>458.5</ele>
        <time>2026-07-08T06:09:45Z</time>
      </trkpt>
      <trkpt lat="43.03191" lon="0.31745">
        <ele>458.5</ele>
        <time>2026-07-08T06:09:46Z</time>
      </trkpt>
      <trkpt lat="43.03191" lon="0.31745">
        <ele>459.5</ele>
        <time>2026-07-08T06:09:46Z</time>
      </trkpt>
      <trkpt lat="43.03191" lon="0.31744">
        <ele>459.5</ele>
        <time>2026-07-08T06:09:47Z</time>
      </trkpt>
      <trkpt lat="43.03192" lon="0.31743">
        <ele>459.5</ele>
        <time>2026-07-08T06:09:47Z</time>
      </trkpt>
      <trkpt lat="43.03192" lon="0.31742">
        <ele>459.5</ele>
        <time>2026-07-08T06:09:48Z</time>
      </trkpt>
      <trkpt lat="43.03192" lon="0.31741">
        <ele>459.5</ele>
        <time>2026-07-08T06:09:48Z</time>
      </trkpt>
      <trkpt lat="43.03192" lon="0.3174">
        <ele>459.5</ele>
        <time>2026-07-08T06:09:49Z</time>
      </trkpt>
      <trkpt lat="43.03193" lon="0.31739">
        <ele>458.5</ele>
        <time>2026-07-08T06:09:49Z</time>
      </trkpt>
      <trkpt lat="43.03193" lon="0.31738">
        <ele>458.5</ele>
        <time>2026-07-08T06:09:50Z</time>
      </trkpt>
      <trkpt lat="43.03193" lon="0.31738">
        <ele>458.5</ele>
        <time>2026-07-08T06:09:50Z</time>
      </trkpt>
      <trkpt lat="43.03193" lon="0.31737">
        <ele>458.5</ele>
        <time>2026-07-08T06:09:51Z</time>
      </trkpt>
      <trkpt lat="43.03193" lon="0.31736">
        <ele>458.5</ele>
        <time>2026-07-08T06:09:52Z</time>
      </trkpt>
      <trkpt lat="43.03193" lon="0.31735">
        <ele>458.5</ele>
        <time>2026-07-08T06:09:52Z</time>
      </trkpt>
      <trkpt lat="43.03194" lon="0.31734">
        <ele>458.5</ele>
        <time>2026-07-08T06:09:53Z</time>
      </trkpt>
      <trkpt lat="43.03194" lon="0.31733">
        <ele>458.5</ele>
        <time>2026-07-08T06:09:53Z</time>
      </trkpt>
      <trkpt lat="43.03194" lon="0.31732">
        <ele>458.5</ele>
        <time>2026-07-08T06:09:54Z</time>
      </trkpt>
      <trkpt lat="43.03194" lon="0.31731">
        <ele>458.5</ele>
        <time>2026-07-08T06:09:54Z</time>
      </trkpt>
      <trkpt lat="43.03194" lon="0.3173">
        <ele>458.5</ele>
        <time>2026-07-08T06:09:55Z</time>
      </trkpt>
      <trkpt lat="43.03194" lon="0.31729">
        <ele>458.5</ele>
        <time>2026-07-08T06:09:56Z</time>
      </trkpt>
      <trkpt lat="43.03194" lon="0.31728">
        <ele>458.5</ele>
        <time>2026-07-08T06:09:56Z</time>
      </trkpt>
      <trkpt lat="43.03195" lon="0.31727">
        <ele>458.5</ele>
        <time>2026-07-08T06:09:57Z</time>
      </trkpt>
      <trkpt lat="43.03195" lon="0.31726">
        <ele>458.5</ele>
        <time>2026-07-08T06:09:57Z</time>
      </trkpt>
      <trkpt lat="43.03195" lon="0.31725">
        <ele>458.5</ele>
        <time>2026-07-08T06:09:58Z</time>
      </trkpt>
      <trkpt lat="43.03195" lon="0.31725">
        <ele>458.5</ele>
        <time>2026-07-08T06:09:58Z</time>
      </trkpt>
      <trkpt lat="43.03195" lon="0.31723">
        <ele>458.5</ele>
        <time>2026-07-08T06:09:59Z</time>
      </trkpt>
      <trkpt lat="43.03196" lon="0.31723">
        <ele>458.5</ele>
        <time>2026-07-08T06:09:59Z</time>
      </trkpt>
      <trkpt lat="43.03196" lon="0.31722">
        <ele>458.5</ele>
        <time>2026-07-08T06:10:00Z</time>
      </trkpt>
      <trkpt lat="43.03196" lon="0.31721">
        <ele>458.5</ele>
        <time>2026-07-08T06:10:00Z</time>
      </trkpt>
      <trkpt lat="43.03196" lon="0.3172">
        <ele>458.5</ele>
        <time>2026-07-08T06:10:01Z</time>
      </trkpt>
      <trkpt lat="43.03197" lon="0.31719">
        <ele>459.5</ele>
        <time>2026-07-08T06:10:02Z</time>
      </trkpt>
      <trkpt lat="43.03197" lon="0.31719">
        <ele>458.5</ele>
        <time>2026-07-08T06:10:02Z</time>
      </trkpt>
      <trkpt lat="43.03197" lon="0.31718">
        <ele>458.5</ele>
        <time>2026-07-08T06:10:03Z</time>
      </trkpt>
      <trkpt lat="43.03197" lon="0.31717">
        <ele>459.5</ele>
        <time>2026-07-08T06:10:03Z</time>
      </trkpt>
      <trkpt lat="43.03198" lon="0.31716">
        <ele>459.5</ele>
        <time>2026-07-08T06:10:04Z</time>
      </trkpt>
      <trkpt lat="43.03198" lon="0.31715">
        <ele>459.5</ele>
        <time>2026-07-08T06:10:04Z</time>
      </trkpt>
      <trkpt lat="43.03198" lon="0.31714">
        <ele>459.5</ele>
        <time>2026-07-08T06:10:05Z</time>
      </trkpt>
      <trkpt lat="43.03198" lon="0.31714">
        <ele>459.5</ele>
        <time>2026-07-08T06:10:05Z</time>
      </trkpt>
      <trkpt lat="43.03198" lon="0.31713">
        <ele>459.5</ele>
        <time>2026-07-08T06:10:06Z</time>
      </trkpt>
      <trkpt lat="43.03198" lon="0.31712">
        <ele>458.5</ele>
        <time>2026-07-08T06:10:07Z</time>
      </trkpt>
      <trkpt lat="43.03198" lon="0.31711">
        <ele>457.5</ele>
        <time>2026-07-08T06:10:07Z</time>
      </trkpt>
      <trkpt lat="43.03198" lon="0.3171">
        <ele>457.5</ele>
        <time>2026-07-08T06:10:08Z</time>
      </trkpt>
      <trkpt lat="43.03198" lon="0.31709">
        <ele>457.5</ele>
        <time>2026-07-08T06:10:08Z</time>
      </trkpt>
      <trkpt lat="43.03198" lon="0.31708">
        <ele>457.5</ele>
        <time>2026-07-08T06:10:09Z</time>
      </trkpt>
      <trkpt lat="43.03198" lon="0.31706">
        <ele>457.5</ele>
        <time>2026-07-08T06:10:10Z</time>
      </trkpt>
      <trkpt lat="43.03198" lon="0.31705">
        <ele>457.5</ele>
        <time>2026-07-08T06:10:10Z</time>
      </trkpt>
      <trkpt lat="43.03198" lon="0.31704">
        <ele>458.5</ele>
        <time>2026-07-08T06:10:11Z</time>
      </trkpt>
      <trkpt lat="43.03198" lon="0.31703">
        <ele>458.5</ele>
        <time>2026-07-08T06:10:12Z</time>
      </trkpt>
      <trkpt lat="43.03198" lon="0.31702">
        <ele>458.5</ele>
        <time>2026-07-08T06:10:12Z</time>
      </trkpt>
      <trkpt lat="43.03198" lon="0.31701">
        <ele>458.5</ele>
        <time>2026-07-08T06:10:13Z</time>
      </trkpt>
      <trkpt lat="43.03198" lon="0.317">
        <ele>458.5</ele>
        <time>2026-07-08T06:10:13Z</time>
      </trkpt>
      <trkpt lat="43.03198" lon="0.31699">
        <ele>458.5</ele>
        <time>2026-07-08T06:10:14Z</time>
      </trkpt>
      <trkpt lat="43.03198" lon="0.31698">
        <ele>457.5</ele>
        <time>2026-07-08T06:10:14Z</time>
      </trkpt>
      <trkpt lat="43.03199" lon="0.31698">
        <ele>457.5</ele>
        <time>2026-07-08T06:10:15Z</time>
      </trkpt>
      <trkpt lat="43.03199" lon="0.31697">
        <ele>458.5</ele>
        <time>2026-07-08T06:10:15Z</time>
      </trkpt>
      <trkpt lat="43.03199" lon="0.31696">
        <ele>458.5</ele>
        <time>2026-07-08T06:10:16Z</time>
      </trkpt>
      <trkpt lat="43.03199" lon="0.31695">
        <ele>458.5</ele>
        <time>2026-07-08T06:10:17Z</time>
      </trkpt>
      <trkpt lat="43.03199" lon="0.31694">
        <ele>458.5</ele>
        <time>2026-07-08T06:10:17Z</time>
      </trkpt>
      <trkpt lat="43.03199" lon="0.31693">
        <ele>458.5</ele>
        <time>2026-07-08T06:10:18Z</time>
      </trkpt>
      <trkpt lat="43.03199" lon="0.31692">
        <ele>458.5</ele>
        <time>2026-07-08T06:10:18Z</time>
      </trkpt>
      <trkpt lat="43.032" lon="0.31691">
        <ele>458.5</ele>
        <time>2026-07-08T06:10:19Z</time>
      </trkpt>
      <trkpt lat="43.032" lon="0.3169">
        <ele>458.5</ele>
        <time>2026-07-08T06:10:19Z</time>
      </trkpt>
      <trkpt lat="43.032" lon="0.31689">
        <ele>458.5</ele>
        <time>2026-07-08T06:10:20Z</time>
      </trkpt>
      <trkpt lat="43.032" lon="0.31689">
        <ele>458.5</ele>
        <time>2026-07-08T06:10:20Z</time>
      </trkpt>
      <trkpt lat="43.032" lon="0.31687">
        <ele>458.5</ele>
        <time>2026-07-08T06:10:21Z</time>
      </trkpt>
      <trkpt lat="43.03201" lon="0.31687">
        <ele>459.5</ele>
        <time>2026-07-08T06:10:21Z</time>
      </trkpt>
      <trkpt lat="43.03201" lon="0.31686">
        <ele>459.5</ele>
        <time>2026-07-08T06:10:22Z</time>
      </trkpt>
      <trkpt lat="43.03201" lon="0.31685">
        <ele>458.5</ele>
        <time>2026-07-08T06:10:23Z</time>
      </trkpt>
      <trkpt lat="43.03201" lon="0.31684">
        <ele>459.5</ele>
        <time>2026-07-08T06:10:23Z</time>
      </trkpt>
      <trkpt lat="43.03202" lon="0.31683">
        <ele>459.5</ele>
        <time>2026-07-08T06:10:24Z</time>
      </trkpt>
      <trkpt lat="43.03202" lon="0.31683">
        <ele>459.5</ele>
        <time>2026-07-08T06:10:24Z</time>
      </trkpt>
      <trkpt lat="43.03202" lon="0.31682">
        <ele>459.5</ele>
        <time>2026-07-08T06:10:25Z</time>
      </trkpt>
      <trkpt lat="43.03203" lon="0.31681">
        <ele>459.5</ele>
        <time>2026-07-08T06:10:25Z</time>
      </trkpt>
      <trkpt lat="43.03203" lon="0.3168">
        <ele>459.5</ele>
        <time>2026-07-08T06:10:26Z</time>
      </trkpt>
      <trkpt lat="43.03203" lon="0.31679">
        <ele>459.5</ele>
        <time>2026-07-08T06:10:27Z</time>
      </trkpt>
      <trkpt lat="43.03203" lon="0.31678">
        <ele>459.5</ele>
        <time>2026-07-08T06:10:27Z</time>
      </trkpt>
      <trkpt lat="43.03204" lon="0.31677">
        <ele>459.5</ele>
        <time>2026-07-08T06:10:28Z</time>
      </trkpt>
      <trkpt lat="43.03204" lon="0.31676">
        <ele>460.5</ele>
        <time>2026-07-08T06:10:28Z</time>
      </trkpt>
      <trkpt lat="43.03204" lon="0.31676">
        <ele>460.5</ele>
        <time>2026-07-08T06:10:29Z</time>
      </trkpt>
      <trkpt lat="43.03204" lon="0.31675">
        <ele>460.5</ele>
        <time>2026-07-08T06:10:29Z</time>
      </trkpt>
      <trkpt lat="43.03205" lon="0.31674">
        <ele>460.5</ele>
        <time>2026-07-08T06:10:30Z</time>
      </trkpt>
      <trkpt lat="43.03205" lon="0.31673">
        <ele>460.5</ele>
        <time>2026-07-08T06:10:31Z</time>
      </trkpt>
      <trkpt lat="43.03205" lon="0.31672">
        <ele>459.5</ele>
        <time>2026-07-08T06:10:31Z</time>
      </trkpt>
      <trkpt lat="43.03206" lon="0.31671">
        <ele>459.5</ele>
        <time>2026-07-08T06:10:32Z</time>
      </trkpt>
      <trkpt lat="43.03206" lon="0.31669">
        <ele>459.5</ele>
        <time>2026-07-08T06:10:33Z</time>
      </trkpt>
      <trkpt lat="43.03206" lon="0.31668">
        <ele>459.5</ele>
        <time>2026-07-08T06:10:34Z</time>
      </trkpt>
      <trkpt lat="43.03206" lon="0.31667">
        <ele>459.5</ele>
        <time>2026-07-08T06:10:34Z</time>
      </trkpt>
      <trkpt lat="43.03206" lon="0.31666">
        <ele>459.5</ele>
        <time>2026-07-08T06:10:35Z</time>
      </trkpt>
      <trkpt lat="43.03206" lon="0.31665">
        <ele>459.5</ele>
        <time>2026-07-08T06:10:35Z</time>
      </trkpt>
      <trkpt lat="43.03206" lon="0.31665">
        <ele>459.5</ele>
        <time>2026-07-08T06:10:36Z</time>
      </trkpt>
      <trkpt lat="43.03206" lon="0.31664">
        <ele>459.5</ele>
        <time>2026-07-08T06:10:36Z</time>
      </trkpt>
      <trkpt lat="43.03206" lon="0.31663">
        <ele>459.5</ele>
        <time>2026-07-08T06:10:37Z</time>
      </trkpt>
      <trkpt lat="43.03207" lon="0.31662">
        <ele>460.5</ele>
        <time>2026-07-08T06:10:37Z</time>
      </trkpt>
      <trkpt lat="43.03207" lon="0.31661">
        <ele>460.5</ele>
        <time>2026-07-08T06:10:38Z</time>
      </trkpt>
      <trkpt lat="43.03207" lon="0.3166">
        <ele>460.5</ele>
        <time>2026-07-08T06:10:39Z</time>
      </trkpt>
      <trkpt lat="43.03207" lon="0.31659">
        <ele>460.5</ele>
        <time>2026-07-08T06:10:39Z</time>
      </trkpt>
      <trkpt lat="43.03207" lon="0.31658">
        <ele>461.5</ele>
        <time>2026-07-08T06:10:40Z</time>
      </trkpt>
      <trkpt lat="43.03207" lon="0.31657">
        <ele>460.5</ele>
        <time>2026-07-08T06:10:40Z</time>
      </trkpt>
      <trkpt lat="43.03207" lon="0.31656">
        <ele>460.5</ele>
        <time>2026-07-08T06:10:41Z</time>
      </trkpt>
      <trkpt lat="43.03207" lon="0.31655">
        <ele>460.5</ele>
        <time>2026-07-08T06:10:41Z</time>
      </trkpt>
      <trkpt lat="43.03207" lon="0.31654">
        <ele>460.5</ele>
        <time>2026-07-08T06:10:42Z</time>
      </trkpt>
      <trkpt lat="43.03207" lon="0.31653">
        <ele>460.5</ele>
        <time>2026-07-08T06:10:42Z</time>
      </trkpt>
      <trkpt lat="43.03207" lon="0.31652">
        <ele>460.5</ele>
        <time>2026-07-08T06:10:43Z</time>
      </trkpt>
      <trkpt lat="43.03207" lon="0.31651">
        <ele>460.5</ele>
        <time>2026-07-08T06:10:43Z</time>
      </trkpt>
      <trkpt lat="43.03207" lon="0.3165">
        <ele>460.5</ele>
        <time>2026-07-08T06:10:44Z</time>
      </trkpt>
      <trkpt lat="43.03207" lon="0.31649">
        <ele>461.5</ele>
        <time>2026-07-08T06:10:45Z</time>
      </trkpt>
      <trkpt lat="43.03207" lon="0.31648">
        <ele>461.5</ele>
        <time>2026-07-08T06:10:46Z</time>
      </trkpt>
      <trkpt lat="43.03207" lon="0.31647">
        <ele>461.5</ele>
        <time>2026-07-08T06:10:46Z</time>
      </trkpt>
      <trkpt lat="43.03207" lon="0.31646">
        <ele>461.5</ele>
        <time>2026-07-08T06:10:47Z</time>
      </trkpt>
      <trkpt lat="43.03207" lon="0.31645">
        <ele>461.5</ele>
        <time>2026-07-08T06:10:47Z</time>
      </trkpt>
      <trkpt lat="43.03207" lon="0.31644">
        <ele>461.5</ele>
        <time>2026-07-08T06:10:48Z</time>
      </trkpt>
      <trkpt lat="43.03207" lon="0.31643">
        <ele>461.5</ele>
        <time>2026-07-08T06:10:48Z</time>
      </trkpt>
      <trkpt lat="43.03207" lon="0.31642">
        <ele>461.5</ele>
        <time>2026-07-08T06:10:49Z</time>
      </trkpt>
      <trkpt lat="43.03207" lon="0.31641">
        <ele>461.5</ele>
        <time>2026-07-08T06:10:50Z</time>
      </trkpt>
      <trkpt lat="43.03207" lon="0.31639">
        <ele>462.5</ele>
        <time>2026-07-08T06:10:51Z</time>
      </trkpt>
      <trkpt lat="43.03207" lon="0.31638">
        <ele>463.5</ele>
        <time>2026-07-08T06:10:51Z</time>
      </trkpt>
      <trkpt lat="43.03207" lon="0.31637">
        <ele>463.5</ele>
        <time>2026-07-08T06:10:52Z</time>
      </trkpt>
      <trkpt lat="43.03207" lon="0.31637">
        <ele>463.5</ele>
        <time>2026-07-08T06:10:52Z</time>
      </trkpt>
      <trkpt lat="43.03207" lon="0.31636">
        <ele>463.5</ele>
        <time>2026-07-08T06:10:53Z</time>
      </trkpt>
      <trkpt lat="43.03207" lon="0.31635">
        <ele>463.5</ele>
        <time>2026-07-08T06:10:53Z</time>
      </trkpt>
      <trkpt lat="43.03207" lon="0.31634">
        <ele>463.5</ele>
        <time>2026-07-08T06:10:54Z</time>
      </trkpt>
      <trkpt lat="43.03208" lon="0.31633">
        <ele>463.5</ele>
        <time>2026-07-08T06:10:54Z</time>
      </trkpt>
      <trkpt lat="43.03208" lon="0.31632">
        <ele>463.5</ele>
        <time>2026-07-08T06:10:55Z</time>
      </trkpt>
      <trkpt lat="43.03208" lon="0.31632">
        <ele>463.5</ele>
        <time>2026-07-08T06:10:55Z</time>
      </trkpt>
      <trkpt lat="43.03209" lon="0.31631">
        <ele>463.5</ele>
        <time>2026-07-08T06:10:56Z</time>
      </trkpt>
      <trkpt lat="43.03209" lon="0.3163">
        <ele>463.5</ele>
        <time>2026-07-08T06:10:57Z</time>
      </trkpt>
      <trkpt lat="43.03209" lon="0.3163">
        <ele>463.5</ele>
        <time>2026-07-08T06:10:57Z</time>
      </trkpt>
      <trkpt lat="43.03209" lon="0.31629">
        <ele>463.5</ele>
        <time>2026-07-08T06:10:58Z</time>
      </trkpt>
      <trkpt lat="43.03209" lon="0.31628">
        <ele>463.5</ele>
        <time>2026-07-08T06:10:58Z</time>
      </trkpt>
      <trkpt lat="43.03209" lon="0.31627">
        <ele>463.5</ele>
        <time>2026-07-08T06:10:59Z</time>
      </trkpt>
      <trkpt lat="43.03209" lon="0.31626">
        <ele>463.5</ele>
        <time>2026-07-08T06:10:59Z</time>
      </trkpt>
      <trkpt lat="43.0321" lon="0.31625">
        <ele>463.5</ele>
        <time>2026-07-08T06:11:00Z</time>
      </trkpt>
      <trkpt lat="43.0321" lon="0.31624">
        <ele>463.5</ele>
        <time>2026-07-08T06:11:00Z</time>
      </trkpt>
      <trkpt lat="43.0321" lon="0.31623">
        <ele>463.5</ele>
        <time>2026-07-08T06:11:01Z</time>
      </trkpt>
      <trkpt lat="43.0321" lon="0.31623">
        <ele>463.5</ele>
        <time>2026-07-08T06:11:02Z</time>
      </trkpt>
      <trkpt lat="43.0321" lon="0.31622">
        <ele>463.5</ele>
        <time>2026-07-08T06:11:02Z</time>
      </trkpt>
      <trkpt lat="43.03211" lon="0.31621">
        <ele>463.5</ele>
        <time>2026-07-08T06:11:03Z</time>
      </trkpt>
      <trkpt lat="43.03211" lon="0.3162">
        <ele>463.5</ele>
        <time>2026-07-08T06:11:03Z</time>
      </trkpt>
      <trkpt lat="43.03211" lon="0.31619">
        <ele>463.5</ele>
        <time>2026-07-08T06:11:04Z</time>
      </trkpt>
      <trkpt lat="43.03211" lon="0.31618">
        <ele>463.5</ele>
        <time>2026-07-08T06:11:04Z</time>
      </trkpt>
      <trkpt lat="43.03211" lon="0.31617">
        <ele>463.5</ele>
        <time>2026-07-08T06:11:05Z</time>
      </trkpt>
      <trkpt lat="43.03212" lon="0.31615">
        <ele>463.5</ele>
        <time>2026-07-08T06:11:06Z</time>
      </trkpt>
      <trkpt lat="43.03212" lon="0.31613">
        <ele>462.5</ele>
        <time>2026-07-08T06:11:07Z</time>
      </trkpt>
      <trkpt lat="43.03212" lon="0.31612">
        <ele>462.5</ele>
        <time>2026-07-08T06:11:07Z</time>
      </trkpt>
      <trkpt lat="43.03212" lon="0.31611">
        <ele>462.5</ele>
        <time>2026-07-08T06:11:08Z</time>
      </trkpt>
      <trkpt lat="43.03212" lon="0.3161">
        <ele>462.5</ele>
        <time>2026-07-08T06:11:09Z</time>
      </trkpt>
      <trkpt lat="43.03212" lon="0.31609">
        <ele>462.5</ele>
        <time>2026-07-08T06:11:09Z</time>
      </trkpt>
      <trkpt lat="43.03212" lon="0.31608">
        <ele>462.5</ele>
        <time>2026-07-08T06:11:10Z</time>
      </trkpt>
      <trkpt lat="43.03212" lon="0.31607">
        <ele>462.5</ele>
        <time>2026-07-08T06:11:10Z</time>
      </trkpt>
      <trkpt lat="43.03212" lon="0.31606">
        <ele>462.5</ele>
        <time>2026-07-08T06:11:11Z</time>
      </trkpt>
      <trkpt lat="43.03213" lon="0.31605">
        <ele>462.5</ele>
        <time>2026-07-08T06:11:11Z</time>
      </trkpt>
      <trkpt lat="43.03213" lon="0.31604">
        <ele>462.5</ele>
        <time>2026-07-08T06:11:12Z</time>
      </trkpt>
      <trkpt lat="43.03213" lon="0.31603">
        <ele>462.5</ele>
        <time>2026-07-08T06:11:12Z</time>
      </trkpt>
      <trkpt lat="43.03213" lon="0.31602">
        <ele>462.5</ele>
        <time>2026-07-08T06:11:13Z</time>
      </trkpt>
      <trkpt lat="43.03213" lon="0.31601">
        <ele>461.5</ele>
        <time>2026-07-08T06:11:14Z</time>
      </trkpt>
      <trkpt lat="43.03213" lon="0.316">
        <ele>460.5</ele>
        <time>2026-07-08T06:11:14Z</time>
      </trkpt>
      <trkpt lat="43.03213" lon="0.31599">
        <ele>460.5</ele>
        <time>2026-07-08T06:11:15Z</time>
      </trkpt>
      <trkpt lat="43.03213" lon="0.31598">
        <ele>460.5</ele>
        <time>2026-07-08T06:11:15Z</time>
      </trkpt>
      <trkpt lat="43.03213" lon="0.31597">
        <ele>460.5</ele>
        <time>2026-07-08T06:11:16Z</time>
      </trkpt>
      <trkpt lat="43.03213" lon="0.31596">
        <ele>460.5</ele>
        <time>2026-07-08T06:11:16Z</time>
      </trkpt>
      <trkpt lat="43.03214" lon="0.31595">
        <ele>460.5</ele>
        <time>2026-07-08T06:11:17Z</time>
      </trkpt>
      <trkpt lat="43.03214" lon="0.31593">
        <ele>460.5</ele>
        <time>2026-07-08T06:11:18Z</time>
      </trkpt>
      <trkpt lat="43.03214" lon="0.31592">
        <ele>460.5</ele>
        <time>2026-07-08T06:11:18Z</time>
      </trkpt>
      <trkpt lat="43.03214" lon="0.31591">
        <ele>460.5</ele>
        <time>2026-07-08T06:11:19Z</time>
      </trkpt>
      <trkpt lat="43.03214" lon="0.31591">
        <ele>460.5</ele>
        <time>2026-07-08T06:11:20Z</time>
      </trkpt>
      <trkpt lat="43.03214" lon="0.3159">
        <ele>461.5</ele>
        <time>2026-07-08T06:11:20Z</time>
      </trkpt>
      <trkpt lat="43.03215" lon="0.31589">
        <ele>461.5</ele>
        <time>2026-07-08T06:11:21Z</time>
      </trkpt>
      <trkpt lat="43.03215" lon="0.31588">
        <ele>460.5</ele>
        <time>2026-07-08T06:11:21Z</time>
      </trkpt>
      <trkpt lat="43.03215" lon="0.31587">
        <ele>460.5</ele>
        <time>2026-07-08T06:11:22Z</time>
      </trkpt>
      <trkpt lat="43.03215" lon="0.31586">
        <ele>461.5</ele>
        <time>2026-07-08T06:11:22Z</time>
      </trkpt>
      <trkpt lat="43.03216" lon="0.31585">
        <ele>461.5</ele>
        <time>2026-07-08T06:11:23Z</time>
      </trkpt>
      <trkpt lat="43.03216" lon="0.31584">
        <ele>461.5</ele>
        <time>2026-07-08T06:11:23Z</time>
      </trkpt>
      <trkpt lat="43.03216" lon="0.31583">
        <ele>461.5</ele>
        <time>2026-07-08T06:11:24Z</time>
      </trkpt>
      <trkpt lat="43.03216" lon="0.31582">
        <ele>460.5</ele>
        <time>2026-07-08T06:11:25Z</time>
      </trkpt>
      <trkpt lat="43.03216" lon="0.31581">
        <ele>460.5</ele>
        <time>2026-07-08T06:11:25Z</time>
      </trkpt>
      <trkpt lat="43.03217" lon="0.3158">
        <ele>460.5</ele>
        <time>2026-07-08T06:11:26Z</time>
      </trkpt>
      <trkpt lat="43.03217" lon="0.3158">
        <ele>461.5</ele>
        <time>2026-07-08T06:11:26Z</time>
      </trkpt>
      <trkpt lat="43.03217" lon="0.31579">
        <ele>461.5</ele>
        <time>2026-07-08T06:11:27Z</time>
      </trkpt>
      <trkpt lat="43.03217" lon="0.31578">
        <ele>461.5</ele>
        <time>2026-07-08T06:11:27Z</time>
      </trkpt>
      <trkpt lat="43.03217" lon="0.31577">
        <ele>461.5</ele>
        <time>2026-07-08T06:11:28Z</time>
      </trkpt>
      <trkpt lat="43.03218" lon="0.31576">
        <ele>460.5</ele>
        <time>2026-07-08T06:11:28Z</time>
      </trkpt>
      <trkpt lat="43.03218" lon="0.31575">
        <ele>460.5</ele>
        <time>2026-07-08T06:11:29Z</time>
      </trkpt>
      <trkpt lat="43.03218" lon="0.31574">
        <ele>460.5</ele>
        <time>2026-07-08T06:11:29Z</time>
      </trkpt>
      <trkpt lat="43.03218" lon="0.31573">
        <ele>460.5</ele>
        <time>2026-07-08T06:11:30Z</time>
      </trkpt>
      <trkpt lat="43.03218" lon="0.31572">
        <ele>460.5</ele>
        <time>2026-07-08T06:11:31Z</time>
      </trkpt>
      <trkpt lat="43.03218" lon="0.31571">
        <ele>460.5</ele>
        <time>2026-07-08T06:11:31Z</time>
      </trkpt>
      <trkpt lat="43.03218" lon="0.3157">
        <ele>460.5</ele>
        <time>2026-07-08T06:11:32Z</time>
      </trkpt>
      <trkpt lat="43.03218" lon="0.31569">
        <ele>459.5</ele>
        <time>2026-07-08T06:11:32Z</time>
      </trkpt>
      <trkpt lat="43.03218" lon="0.31568">
        <ele>459.5</ele>
        <time>2026-07-08T06:11:33Z</time>
      </trkpt>
      <trkpt lat="43.03218" lon="0.31567">
        <ele>459.5</ele>
        <time>2026-07-08T06:11:33Z</time>
      </trkpt>
      <trkpt lat="43.03218" lon="0.31566">
        <ele>459.5</ele>
        <time>2026-07-08T06:11:34Z</time>
      </trkpt>
      <trkpt lat="43.03218" lon="0.31565">
        <ele>458.5</ele>
        <time>2026-07-08T06:11:35Z</time>
      </trkpt>
      <trkpt lat="43.03218" lon="0.31564">
        <ele>458.5</ele>
        <time>2026-07-08T06:11:35Z</time>
      </trkpt>
      <trkpt lat="43.03218" lon="0.31564">
        <ele>459.5</ele>
        <time>2026-07-08T06:11:36Z</time>
      </trkpt>
      <trkpt lat="43.03218" lon="0.31563">
        <ele>459.5</ele>
        <time>2026-07-08T06:11:36Z</time>
      </trkpt>
      <trkpt lat="43.03218" lon="0.31562">
        <ele>459.5</ele>
        <time>2026-07-08T06:11:37Z</time>
      </trkpt>
      <trkpt lat="43.03218" lon="0.31561">
        <ele>459.5</ele>
        <time>2026-07-08T06:11:37Z</time>
      </trkpt>
      <trkpt lat="43.03218" lon="0.3156">
        <ele>459.5</ele>
        <time>2026-07-08T06:11:38Z</time>
      </trkpt>
      <trkpt lat="43.03218" lon="0.31559">
        <ele>459.5</ele>
        <time>2026-07-08T06:11:38Z</time>
      </trkpt>
      <trkpt lat="43.03218" lon="0.31558">
        <ele>459.5</ele>
        <time>2026-07-08T06:11:39Z</time>
      </trkpt>
      <trkpt lat="43.03218" lon="0.31556">
        <ele>459.5</ele>
        <time>2026-07-08T06:11:40Z</time>
      </trkpt>
      <trkpt lat="43.03218" lon="0.31556">
        <ele>459.5</ele>
        <time>2026-07-08T06:11:41Z</time>
      </trkpt>
      <trkpt lat="43.03218" lon="0.31555">
        <ele>459.5</ele>
        <time>2026-07-08T06:11:41Z</time>
      </trkpt>
      <trkpt lat="43.03218" lon="0.31554">
        <ele>458.5</ele>
        <time>2026-07-08T06:11:42Z</time>
      </trkpt>
      <trkpt lat="43.03218" lon="0.31553">
        <ele>458.5</ele>
        <time>2026-07-08T06:11:42Z</time>
      </trkpt>
      <trkpt lat="43.03218" lon="0.31552">
        <ele>458.5</ele>
        <time>2026-07-08T06:11:43Z</time>
      </trkpt>
      <trkpt lat="43.03217" lon="0.31552">
        <ele>458.5</ele>
        <time>2026-07-08T06:11:43Z</time>
      </trkpt>
      <trkpt lat="43.03217" lon="0.31551">
        <ele>458.5</ele>
        <time>2026-07-08T06:11:44Z</time>
      </trkpt>
      <trkpt lat="43.03217" lon="0.3155">
        <ele>458.5</ele>
        <time>2026-07-08T06:11:44Z</time>
      </trkpt>
      <trkpt lat="43.03217" lon="0.31549">
        <ele>458.5</ele>
        <time>2026-07-08T06:11:45Z</time>
      </trkpt>
      <trkpt lat="43.03217" lon="0.31548">
        <ele>458.5</ele>
        <time>2026-07-08T06:11:46Z</time>
      </trkpt>
      <trkpt lat="43.03217" lon="0.31547">
        <ele>458.5</ele>
        <time>2026-07-08T06:11:46Z</time>
      </trkpt>
      <trkpt lat="43.03217" lon="0.31547">
        <ele>458.5</ele>
        <time>2026-07-08T06:11:47Z</time>
      </trkpt>
      <trkpt lat="43.03217" lon="0.31546">
        <ele>458.5</ele>
        <time>2026-07-08T06:11:47Z</time>
      </trkpt>
      <trkpt lat="43.03217" lon="0.31545">
        <ele>458.5</ele>
        <time>2026-07-08T06:11:48Z</time>
      </trkpt>
      <trkpt lat="43.03217" lon="0.31544">
        <ele>457.5</ele>
        <time>2026-07-08T06:11:48Z</time>
      </trkpt>
      <trkpt lat="43.03217" lon="0.31543">
        <ele>457.5</ele>
        <time>2026-07-08T06:11:49Z</time>
      </trkpt>
      <trkpt lat="43.03217" lon="0.31542">
        <ele>458.5</ele>
        <time>2026-07-08T06:11:49Z</time>
      </trkpt>
      <trkpt lat="43.03217" lon="0.31541">
        <ele>458.5</ele>
        <time>2026-07-08T06:11:50Z</time>
      </trkpt>
      <trkpt lat="43.03217" lon="0.3154">
        <ele>458.5</ele>
        <time>2026-07-08T06:11:50Z</time>
      </trkpt>
      <trkpt lat="43.03218" lon="0.31539">
        <ele>458.5</ele>
        <time>2026-07-08T06:11:51Z</time>
      </trkpt>
      <trkpt lat="43.03218" lon="0.31539">
        <ele>458.5</ele>
        <time>2026-07-08T06:11:51Z</time>
      </trkpt>
      <trkpt lat="43.03218" lon="0.31537">
        <ele>457.5</ele>
        <time>2026-07-08T06:11:52Z</time>
      </trkpt>
      <trkpt lat="43.03218" lon="0.31536">
        <ele>457.5</ele>
        <time>2026-07-08T06:11:53Z</time>
      </trkpt>
      <trkpt lat="43.03218" lon="0.31536">
        <ele>457.5</ele>
        <time>2026-07-08T06:11:53Z</time>
      </trkpt>
      <trkpt lat="43.03218" lon="0.31535">
        <ele>457.5</ele>
        <time>2026-07-08T06:11:54Z</time>
      </trkpt>
      <trkpt lat="43.03218" lon="0.31534">
        <ele>457.5</ele>
        <time>2026-07-08T06:11:54Z</time>
      </trkpt>
      <trkpt lat="43.03218" lon="0.31533">
        <ele>457.5</ele>
        <time>2026-07-08T06:11:55Z</time>
      </trkpt>
      <trkpt lat="43.03218" lon="0.31532">
        <ele>457.5</ele>
        <time>2026-07-08T06:11:55Z</time>
      </trkpt>
      <trkpt lat="43.03218" lon="0.31531">
        <ele>456.5</ele>
        <time>2026-07-08T06:11:56Z</time>
      </trkpt>
      <trkpt lat="43.03218" lon="0.31529">
        <ele>456.5</ele>
        <time>2026-07-08T06:11:57Z</time>
      </trkpt>
      <trkpt lat="43.03218" lon="0.31528">
        <ele>456.5</ele>
        <time>2026-07-08T06:11:57Z</time>
      </trkpt>
      <trkpt lat="43.03218" lon="0.31527">
        <ele>456.5</ele>
        <time>2026-07-08T06:11:58Z</time>
      </trkpt>
      <trkpt lat="43.03218" lon="0.31526">
        <ele>457.5</ele>
        <time>2026-07-08T06:11:59Z</time>
      </trkpt>
      <trkpt lat="43.03218" lon="0.31526">
        <ele>457.5</ele>
        <time>2026-07-08T06:11:59Z</time>
      </trkpt>
      <trkpt lat="43.03219" lon="0.31525">
        <ele>456.5</ele>
        <time>2026-07-08T06:12:00Z</time>
      </trkpt>
      <trkpt lat="43.03219" lon="0.31524">
        <ele>456.5</ele>
        <time>2026-07-08T06:12:00Z</time>
      </trkpt>
      <trkpt lat="43.03219" lon="0.31523">
        <ele>456.5</ele>
        <time>2026-07-08T06:12:01Z</time>
      </trkpt>
      <trkpt lat="43.03219" lon="0.31522">
        <ele>458.5</ele>
        <time>2026-07-08T06:12:01Z</time>
      </trkpt>
      <trkpt lat="43.03219" lon="0.31521">
        <ele>458.5</ele>
        <time>2026-07-08T06:12:02Z</time>
      </trkpt>
      <trkpt lat="43.03219" lon="0.3152">
        <ele>459.5</ele>
        <time>2026-07-08T06:12:03Z</time>
      </trkpt>
      <trkpt lat="43.03218" lon="0.31519">
        <ele>458.5</ele>
        <time>2026-07-08T06:12:03Z</time>
      </trkpt>
      <trkpt lat="43.03218" lon="0.31519">
        <ele>457.5</ele>
        <time>2026-07-08T06:12:04Z</time>
      </trkpt>
      <trkpt lat="43.03218" lon="0.31518">
        <ele>457.5</ele>
        <time>2026-07-08T06:12:05Z</time>
      </trkpt>
      <trkpt lat="43.03219" lon="0.31516">
        <ele>457.5</ele>
        <time>2026-07-08T06:12:06Z</time>
      </trkpt>
      <trkpt lat="43.03219" lon="0.31515">
        <ele>456.5</ele>
        <time>2026-07-08T06:12:06Z</time>
      </trkpt>
      <trkpt lat="43.03219" lon="0.31514">
        <ele>456.5</ele>
        <time>2026-07-08T06:12:07Z</time>
      </trkpt>
      <trkpt lat="43.0322" lon="0.31513">
        <ele>457.5</ele>
        <time>2026-07-08T06:12:07Z</time>
      </trkpt>
      <trkpt lat="43.0322" lon="0.31512">
        <ele>457.5</ele>
        <time>2026-07-08T06:12:08Z</time>
      </trkpt>
      <trkpt lat="43.0322" lon="0.31511">
        <ele>456.5</ele>
        <time>2026-07-08T06:12:09Z</time>
      </trkpt>
      <trkpt lat="43.03219" lon="0.3151">
        <ele>456.5</ele>
        <time>2026-07-08T06:12:09Z</time>
      </trkpt>
      <trkpt lat="43.0322" lon="0.31509">
        <ele>456.5</ele>
        <time>2026-07-08T06:12:10Z</time>
      </trkpt>
      <trkpt lat="43.0322" lon="0.31508">
        <ele>456.5</ele>
        <time>2026-07-08T06:12:10Z</time>
      </trkpt>
      <trkpt lat="43.0322" lon="0.31507">
        <ele>456.5</ele>
        <time>2026-07-08T06:12:11Z</time>
      </trkpt>
      <trkpt lat="43.0322" lon="0.31506">
        <ele>455.5</ele>
        <time>2026-07-08T06:12:12Z</time>
      </trkpt>
      <trkpt lat="43.0322" lon="0.31506">
        <ele>455.5</ele>
        <time>2026-07-08T06:12:12Z</time>
      </trkpt>
      <trkpt lat="43.0322" lon="0.31505">
        <ele>455.5</ele>
        <time>2026-07-08T06:12:13Z</time>
      </trkpt>
      <trkpt lat="43.0322" lon="0.31504">
        <ele>455.5</ele>
        <time>2026-07-08T06:12:13Z</time>
      </trkpt>
      <trkpt lat="43.0322" lon="0.31503">
        <ele>455.5</ele>
        <time>2026-07-08T06:12:14Z</time>
      </trkpt>
      <trkpt lat="43.0322" lon="0.31503">
        <ele>455.5</ele>
        <time>2026-07-08T06:12:15Z</time>
      </trkpt>
      <trkpt lat="43.03221" lon="0.31501">
        <ele>456.5</ele>
        <time>2026-07-08T06:12:16Z</time>
      </trkpt>
      <trkpt lat="43.03221" lon="0.31499">
        <ele>457.5</ele>
        <time>2026-07-08T06:12:17Z</time>
      </trkpt>
      <trkpt lat="43.03221" lon="0.31498">
        <ele>458.5</ele>
        <time>2026-07-08T06:12:17Z</time>
      </trkpt>
      <trkpt lat="43.03221" lon="0.31497">
        <ele>458.5</ele>
        <time>2026-07-08T06:12:18Z</time>
      </trkpt>
      <trkpt lat="43.03221" lon="0.31494">
        <ele>459.5</ele>
        <time>2026-07-08T06:12:19Z</time>
      </trkpt>
      <trkpt lat="43.0322" lon="0.31492">
        <ele>460.5</ele>
        <time>2026-07-08T06:12:19Z</time>
      </trkpt>
      <trkpt lat="43.0322" lon="0.31491">
        <ele>460.5</ele>
        <time>2026-07-08T06:12:20Z</time>
      </trkpt>
      <trkpt lat="43.0322" lon="0.3149">
        <ele>460.5</ele>
        <time>2026-07-08T06:12:21Z</time>
      </trkpt>
      <trkpt lat="43.03219" lon="0.31489">
        <ele>459.5</ele>
        <time>2026-07-08T06:12:21Z</time>
      </trkpt>
      <trkpt lat="43.03219" lon="0.31488">
        <ele>459.5</ele>
        <time>2026-07-08T06:12:22Z</time>
      </trkpt>
      <trkpt lat="43.03218" lon="0.31487">
        <ele>459.5</ele>
        <time>2026-07-08T06:12:22Z</time>
      </trkpt>
      <trkpt lat="43.03218" lon="0.31486">
        <ele>459.5</ele>
        <time>2026-07-08T06:12:23Z</time>
      </trkpt>
      <trkpt lat="43.03218" lon="0.31485">
        <ele>459.5</ele>
        <time>2026-07-08T06:12:23Z</time>
      </trkpt>
      <trkpt lat="43.03218" lon="0.31485">
        <ele>459.5</ele>
        <time>2026-07-08T06:12:24Z</time>
      </trkpt>
      <trkpt lat="43.03217" lon="0.31484">
        <ele>459.5</ele>
        <time>2026-07-08T06:12:24Z</time>
      </trkpt>
      <trkpt lat="43.03217" lon="0.31483">
        <ele>459.5</ele>
        <time>2026-07-08T06:12:25Z</time>
      </trkpt>
      <trkpt lat="43.03217" lon="0.31482">
        <ele>459.5</ele>
        <time>2026-07-08T06:12:26Z</time>
      </trkpt>
      <trkpt lat="43.03217" lon="0.31481">
        <ele>459.5</ele>
        <time>2026-07-08T06:12:26Z</time>
      </trkpt>
      <trkpt lat="43.03217" lon="0.31481">
        <ele>458.5</ele>
        <time>2026-07-08T06:12:27Z</time>
      </trkpt>
      <trkpt lat="43.03216" lon="0.3148">
        <ele>458.5</ele>
        <time>2026-07-08T06:12:27Z</time>
      </trkpt>
      <trkpt lat="43.03216" lon="0.31479">
        <ele>458.5</ele>
        <time>2026-07-08T06:12:28Z</time>
      </trkpt>
      <trkpt lat="43.03216" lon="0.31478">
        <ele>458.5</ele>
        <time>2026-07-08T06:12:28Z</time>
      </trkpt>
      <trkpt lat="43.03216" lon="0.31477">
        <ele>458.5</ele>
        <time>2026-07-08T06:12:29Z</time>
      </trkpt>
      <trkpt lat="43.03216" lon="0.31477">
        <ele>458.5</ele>
        <time>2026-07-08T06:12:29Z</time>
      </trkpt>
      <trkpt lat="43.03216" lon="0.31475">
        <ele>458.5</ele>
        <time>2026-07-08T06:12:30Z</time>
      </trkpt>
      <trkpt lat="43.03217" lon="0.31474">
        <ele>458.5</ele>
        <time>2026-07-08T06:12:31Z</time>
      </trkpt>
      <trkpt lat="43.03217" lon="0.31473">
        <ele>458.5</ele>
        <time>2026-07-08T06:12:31Z</time>
      </trkpt>
      <trkpt lat="43.03217" lon="0.31472">
        <ele>458.5</ele>
        <time>2026-07-08T06:12:32Z</time>
      </trkpt>
      <trkpt lat="43.03217" lon="0.31471">
        <ele>458.5</ele>
        <time>2026-07-08T06:12:33Z</time>
      </trkpt>
      <trkpt lat="43.03218" lon="0.31471">
        <ele>458.5</ele>
        <time>2026-07-08T06:12:33Z</time>
      </trkpt>
      <trkpt lat="43.03218" lon="0.3147">
        <ele>458.5</ele>
        <time>2026-07-08T06:12:34Z</time>
      </trkpt>
      <trkpt lat="43.03218" lon="0.31469">
        <ele>458.5</ele>
        <time>2026-07-08T06:12:34Z</time>
      </trkpt>
      <trkpt lat="43.03218" lon="0.31468">
        <ele>458.5</ele>
        <time>2026-07-08T06:12:35Z</time>
      </trkpt>
      <trkpt lat="43.03219" lon="0.31467">
        <ele>457.5</ele>
        <time>2026-07-08T06:12:35Z</time>
      </trkpt>
      <trkpt lat="43.03219" lon="0.31466">
        <ele>457.5</ele>
        <time>2026-07-08T06:12:36Z</time>
      </trkpt>
      <trkpt lat="43.03219" lon="0.31465">
        <ele>457.5</ele>
        <time>2026-07-08T06:12:36Z</time>
      </trkpt>
      <trkpt lat="43.03219" lon="0.31464">
        <ele>457.5</ele>
        <time>2026-07-08T06:12:37Z</time>
      </trkpt>
      <trkpt lat="43.03219" lon="0.31463">
        <ele>457.5</ele>
        <time>2026-07-08T06:12:37Z</time>
      </trkpt>
      <trkpt lat="43.03219" lon="0.31462">
        <ele>457.5</ele>
        <time>2026-07-08T06:12:38Z</time>
      </trkpt>
      <trkpt lat="43.03219" lon="0.3146">
        <ele>457.5</ele>
        <time>2026-07-08T06:12:39Z</time>
      </trkpt>
      <trkpt lat="43.03219" lon="0.31459">
        <ele>456.5</ele>
        <time>2026-07-08T06:12:40Z</time>
      </trkpt>
      <trkpt lat="43.03219" lon="0.31458">
        <ele>456.5</ele>
        <time>2026-07-08T06:12:40Z</time>
      </trkpt>
      <trkpt lat="43.03219" lon="0.31457">
        <ele>456.5</ele>
        <time>2026-07-08T06:12:41Z</time>
      </trkpt>
      <trkpt lat="43.03219" lon="0.31457">
        <ele>456.5</ele>
        <time>2026-07-08T06:12:41Z</time>
      </trkpt>
      <trkpt lat="43.03219" lon="0.31455">
        <ele>456.5</ele>
        <time>2026-07-08T06:12:42Z</time>
      </trkpt>
      <trkpt lat="43.03219" lon="0.31454">
        <ele>455.5</ele>
        <time>2026-07-08T06:12:43Z</time>
      </trkpt>
      <trkpt lat="43.03219" lon="0.31453">
        <ele>455.5</ele>
        <time>2026-07-08T06:12:43Z</time>
      </trkpt>
      <trkpt lat="43.03219" lon="0.31452">
        <ele>455.5</ele>
        <time>2026-07-08T06:12:44Z</time>
      </trkpt>
      <trkpt lat="43.03219" lon="0.3145">
        <ele>455.5</ele>
        <time>2026-07-08T06:12:45Z</time>
      </trkpt>
      <trkpt lat="43.03219" lon="0.31449">
        <ele>455.5</ele>
        <time>2026-07-08T06:12:45Z</time>
      </trkpt>
      <trkpt lat="43.03219" lon="0.31448">
        <ele>455.5</ele>
        <time>2026-07-08T06:12:46Z</time>
      </trkpt>
      <trkpt lat="43.03219" lon="0.31448">
        <ele>455.5</ele>
        <time>2026-07-08T06:12:47Z</time>
      </trkpt>
      <trkpt lat="43.03219" lon="0.31447">
        <ele>455.5</ele>
        <time>2026-07-08T06:12:47Z</time>
      </trkpt>
      <trkpt lat="43.03219" lon="0.31446">
        <ele>455.5</ele>
        <time>2026-07-08T06:12:48Z</time>
      </trkpt>
      <trkpt lat="43.03219" lon="0.31445">
        <ele>455.5</ele>
        <time>2026-07-08T06:12:48Z</time>
      </trkpt>
      <trkpt lat="43.03219" lon="0.31444">
        <ele>455.5</ele>
        <time>2026-07-08T06:12:49Z</time>
      </trkpt>
      <trkpt lat="43.03218" lon="0.31443">
        <ele>455.5</ele>
        <time>2026-07-08T06:12:49Z</time>
      </trkpt>
      <trkpt lat="43.03218" lon="0.31442">
        <ele>455.5</ele>
        <time>2026-07-08T06:12:50Z</time>
      </trkpt>
      <trkpt lat="43.03218" lon="0.31442">
        <ele>455.5</ele>
        <time>2026-07-08T06:12:50Z</time>
      </trkpt>
      <trkpt lat="43.03218" lon="0.31441">
        <ele>455.5</ele>
        <time>2026-07-08T06:12:51Z</time>
      </trkpt>
      <trkpt lat="43.03218" lon="0.3144">
        <ele>455.5</ele>
        <time>2026-07-08T06:12:51Z</time>
      </trkpt>
      <trkpt lat="43.03218" lon="0.31439">
        <ele>455.5</ele>
        <time>2026-07-08T06:12:52Z</time>
      </trkpt>
      <trkpt lat="43.03217" lon="0.31438">
        <ele>455.5</ele>
        <time>2026-07-08T06:12:53Z</time>
      </trkpt>
      <trkpt lat="43.03217" lon="0.31437">
        <ele>455.5</ele>
        <time>2026-07-08T06:12:53Z</time>
      </trkpt>
      <trkpt lat="43.03217" lon="0.31436">
        <ele>455.5</ele>
        <time>2026-07-08T06:12:54Z</time>
      </trkpt>
      <trkpt lat="43.03217" lon="0.31435">
        <ele>454.5</ele>
        <time>2026-07-08T06:12:54Z</time>
      </trkpt>
      <trkpt lat="43.03216" lon="0.31434">
        <ele>454.5</ele>
        <time>2026-07-08T06:12:55Z</time>
      </trkpt>
      <trkpt lat="43.03216" lon="0.31432">
        <ele>453.5</ele>
        <time>2026-07-08T06:12:56Z</time>
      </trkpt>
      <trkpt lat="43.03216" lon="0.31431">
        <ele>453.5</ele>
        <time>2026-07-08T06:12:57Z</time>
      </trkpt>
      <trkpt lat="43.03216" lon="0.3143">
        <ele>453.5</ele>
        <time>2026-07-08T06:12:57Z</time>
      </trkpt>
      <trkpt lat="43.03216" lon="0.31429">
        <ele>453.5</ele>
        <time>2026-07-08T06:12:58Z</time>
      </trkpt>
      <trkpt lat="43.03216" lon="0.31428">
        <ele>453.5</ele>
        <time>2026-07-08T06:12:58Z</time>
      </trkpt>
      <trkpt lat="43.03215" lon="0.31427">
        <ele>453.5</ele>
        <time>2026-07-08T06:12:59Z</time>
      </trkpt>
      <trkpt lat="43.03215" lon="0.31426">
        <ele>453.5</ele>
        <time>2026-07-08T06:13:00Z</time>
      </trkpt>
      <trkpt lat="43.03215" lon="0.31425">
        <ele>453.5</ele>
        <time>2026-07-08T06:13:01Z</time>
      </trkpt>
      <trkpt lat="43.03215" lon="0.31424">
        <ele>453.5</ele>
        <time>2026-07-08T06:13:01Z</time>
      </trkpt>
      <trkpt lat="43.03215" lon="0.31423">
        <ele>453.5</ele>
        <time>2026-07-08T06:13:02Z</time>
      </trkpt>
      <trkpt lat="43.03215" lon="0.31422">
        <ele>453.5</ele>
        <time>2026-07-08T06:13:02Z</time>
      </trkpt>
      <trkpt lat="43.03215" lon="0.31421">
        <ele>453.5</ele>
        <time>2026-07-08T06:13:03Z</time>
      </trkpt>
      <trkpt lat="43.03215" lon="0.31421">
        <ele>453.5</ele>
        <time>2026-07-08T06:13:03Z</time>
      </trkpt>
      <trkpt lat="43.03214" lon="0.31419">
        <ele>453.5</ele>
        <time>2026-07-08T06:13:04Z</time>
      </trkpt>
      <trkpt lat="43.03214" lon="0.31418">
        <ele>453.5</ele>
        <time>2026-07-08T06:13:04Z</time>
      </trkpt>
      <trkpt lat="43.03214" lon="0.31418">
        <ele>453.5</ele>
        <time>2026-07-08T06:13:05Z</time>
      </trkpt>
      <trkpt lat="43.03214" lon="0.31417">
        <ele>454.5</ele>
        <time>2026-07-08T06:13:05Z</time>
      </trkpt>
      <trkpt lat="43.03214" lon="0.31416">
        <ele>454.5</ele>
        <time>2026-07-08T06:13:06Z</time>
      </trkpt>
      <trkpt lat="43.03214" lon="0.31415">
        <ele>454.5</ele>
        <time>2026-07-08T06:13:07Z</time>
      </trkpt>
      <trkpt lat="43.03214" lon="0.31413">
        <ele>454.5</ele>
        <time>2026-07-08T06:13:08Z</time>
      </trkpt>
      <trkpt lat="43.03214" lon="0.31412">
        <ele>454.5</ele>
        <time>2026-07-08T06:13:08Z</time>
      </trkpt>
      <trkpt lat="43.03214" lon="0.31411">
        <ele>454.5</ele>
        <time>2026-07-08T06:13:09Z</time>
      </trkpt>
      <trkpt lat="43.03214" lon="0.31411">
        <ele>454.5</ele>
        <time>2026-07-08T06:13:09Z</time>
      </trkpt>
      <trkpt lat="43.03215" lon="0.3141">
        <ele>454.5</ele>
        <time>2026-07-08T06:13:10Z</time>
      </trkpt>
      <trkpt lat="43.03215" lon="0.31409">
        <ele>454.5</ele>
        <time>2026-07-08T06:13:10Z</time>
      </trkpt>
      <trkpt lat="43.03215" lon="0.31407">
        <ele>454.5</ele>
        <time>2026-07-08T06:13:11Z</time>
      </trkpt>
      <trkpt lat="43.03215" lon="0.31406">
        <ele>454.5</ele>
        <time>2026-07-08T06:13:12Z</time>
      </trkpt>
      <trkpt lat="43.03215" lon="0.31405">
        <ele>453.5</ele>
        <time>2026-07-08T06:13:12Z</time>
      </trkpt>
      <trkpt lat="43.03216" lon="0.31404">
        <ele>453.5</ele>
        <time>2026-07-08T06:13:13Z</time>
      </trkpt>
      <trkpt lat="43.03216" lon="0.31403">
        <ele>453.5</ele>
        <time>2026-07-08T06:13:14Z</time>
      </trkpt>
      <trkpt lat="43.03216" lon="0.31402">
        <ele>453.5</ele>
        <time>2026-07-08T06:13:14Z</time>
      </trkpt>
      <trkpt lat="43.03216" lon="0.31401">
        <ele>453.5</ele>
        <time>2026-07-08T06:13:15Z</time>
      </trkpt>
      <trkpt lat="43.03217" lon="0.31401">
        <ele>453.5</ele>
        <time>2026-07-08T06:13:15Z</time>
      </trkpt>
      <trkpt lat="43.03217" lon="0.314">
        <ele>453.5</ele>
        <time>2026-07-08T06:13:16Z</time>
      </trkpt>
      <trkpt lat="43.03217" lon="0.31399">
        <ele>453.5</ele>
        <time>2026-07-08T06:13:16Z</time>
      </trkpt>
      <trkpt lat="43.03217" lon="0.31398">
        <ele>453.5</ele>
        <time>2026-07-08T06:13:17Z</time>
      </trkpt>
      <trkpt lat="43.03217" lon="0.31397">
        <ele>453.5</ele>
        <time>2026-07-08T06:13:17Z</time>
      </trkpt>
      <trkpt lat="43.03217" lon="0.31396">
        <ele>453.5</ele>
        <time>2026-07-08T06:13:18Z</time>
      </trkpt>
      <trkpt lat="43.03217" lon="0.31395">
        <ele>453.5</ele>
        <time>2026-07-08T06:13:18Z</time>
      </trkpt>
      <trkpt lat="43.03217" lon="0.31394">
        <ele>453.5</ele>
        <time>2026-07-08T06:13:19Z</time>
      </trkpt>
      <trkpt lat="43.03217" lon="0.31393">
        <ele>453.5</ele>
        <time>2026-07-08T06:13:19Z</time>
      </trkpt>
      <trkpt lat="43.03217" lon="0.31392">
        <ele>453.5</ele>
        <time>2026-07-08T06:13:20Z</time>
      </trkpt>
      <trkpt lat="43.03217" lon="0.31392">
        <ele>453.5</ele>
        <time>2026-07-08T06:13:21Z</time>
      </trkpt>
      <trkpt lat="43.03217" lon="0.31391">
        <ele>453.5</ele>
        <time>2026-07-08T06:13:21Z</time>
      </trkpt>
      <trkpt lat="43.03217" lon="0.3139">
        <ele>452.5</ele>
        <time>2026-07-08T06:13:22Z</time>
      </trkpt>
      <trkpt lat="43.03217" lon="0.31389">
        <ele>452.5</ele>
        <time>2026-07-08T06:13:22Z</time>
      </trkpt>
      <trkpt lat="43.03217" lon="0.31388">
        <ele>452.5</ele>
        <time>2026-07-08T06:13:23Z</time>
      </trkpt>
      <trkpt lat="43.03216" lon="0.31387">
        <ele>453.5</ele>
        <time>2026-07-08T06:13:23Z</time>
      </trkpt>
      <trkpt lat="43.03216" lon="0.31386">
        <ele>453.5</ele>
        <time>2026-07-08T06:13:24Z</time>
      </trkpt>
      <trkpt lat="43.03216" lon="0.31386">
        <ele>453.5</ele>
        <time>2026-07-08T06:13:24Z</time>
      </trkpt>
      <trkpt lat="43.03216" lon="0.31385">
        <ele>453.5</ele>
        <time>2026-07-08T06:13:25Z</time>
      </trkpt>
      <trkpt lat="43.03216" lon="0.31384">
        <ele>452.5</ele>
        <time>2026-07-08T06:13:25Z</time>
      </trkpt>
      <trkpt lat="43.03216" lon="0.31383">
        <ele>452.5</ele>
        <time>2026-07-08T06:13:26Z</time>
      </trkpt>
      <trkpt lat="43.03216" lon="0.31382">
        <ele>452.5</ele>
        <time>2026-07-08T06:13:26Z</time>
      </trkpt>
      <trkpt lat="43.03216" lon="0.31381">
        <ele>452.5</ele>
        <time>2026-07-08T06:13:27Z</time>
      </trkpt>
      <trkpt lat="43.03216" lon="0.3138">
        <ele>452.5</ele>
        <time>2026-07-08T06:13:28Z</time>
      </trkpt>
      <trkpt lat="43.03215" lon="0.3138">
        <ele>452.5</ele>
        <time>2026-07-08T06:13:28Z</time>
      </trkpt>
      <trkpt lat="43.03215" lon="0.31379">
        <ele>452.5</ele>
        <time>2026-07-08T06:13:29Z</time>
      </trkpt>
      <trkpt lat="43.03215" lon="0.31378">
        <ele>451.5</ele>
        <time>2026-07-08T06:13:29Z</time>
      </trkpt>
      <trkpt lat="43.03215" lon="0.31377">
        <ele>451.5</ele>
        <time>2026-07-08T06:13:30Z</time>
      </trkpt>
      <trkpt lat="43.03214" lon="0.31376">
        <ele>451.5</ele>
        <time>2026-07-08T06:13:30Z</time>
      </trkpt>
      <trkpt lat="43.03214" lon="0.31375">
        <ele>451.5</ele>
        <time>2026-07-08T06:13:31Z</time>
      </trkpt>
      <trkpt lat="43.03214" lon="0.31374">
        <ele>452.5</ele>
        <time>2026-07-08T06:13:31Z</time>
      </trkpt>
      <trkpt lat="43.03214" lon="0.31373">
        <ele>452.5</ele>
        <time>2026-07-08T06:13:32Z</time>
      </trkpt>
      <trkpt lat="43.03214" lon="0.31372">
        <ele>452.5</ele>
        <time>2026-07-08T06:13:32Z</time>
      </trkpt>
      <trkpt lat="43.03214" lon="0.31372">
        <ele>452.5</ele>
        <time>2026-07-08T06:13:33Z</time>
      </trkpt>
      <trkpt lat="43.03213" lon="0.31371">
        <ele>452.5</ele>
        <time>2026-07-08T06:13:34Z</time>
      </trkpt>
      <trkpt lat="43.03213" lon="0.3137">
        <ele>451.5</ele>
        <time>2026-07-08T06:13:34Z</time>
      </trkpt>
      <trkpt lat="43.03213" lon="0.31369">
        <ele>451.5</ele>
        <time>2026-07-08T06:13:35Z</time>
      </trkpt>
      <trkpt lat="43.03213" lon="0.31368">
        <ele>451.5</ele>
        <time>2026-07-08T06:13:35Z</time>
      </trkpt>
      <trkpt lat="43.03213" lon="0.31367">
        <ele>451.5</ele>
        <time>2026-07-08T06:13:36Z</time>
      </trkpt>
      <trkpt lat="43.03213" lon="0.31366">
        <ele>451.5</ele>
        <time>2026-07-08T06:13:36Z</time>
      </trkpt>
      <trkpt lat="43.03213" lon="0.31366">
        <ele>451.5</ele>
        <time>2026-07-08T06:13:37Z</time>
      </trkpt>
      <trkpt lat="43.03214" lon="0.31365">
        <ele>452.5</ele>
        <time>2026-07-08T06:13:37Z</time>
      </trkpt>
      <trkpt lat="43.03213" lon="0.31364">
        <ele>452.5</ele>
        <time>2026-07-08T06:13:38Z</time>
      </trkpt>
      <trkpt lat="43.03213" lon="0.31363">
        <ele>452.5</ele>
        <time>2026-07-08T06:13:38Z</time>
      </trkpt>
      <trkpt lat="43.03213" lon="0.31362">
        <ele>452.5</ele>
        <time>2026-07-08T06:13:39Z</time>
      </trkpt>
      <trkpt lat="43.03213" lon="0.31361">
        <ele>453.5</ele>
        <time>2026-07-08T06:13:39Z</time>
      </trkpt>
      <trkpt lat="43.03213" lon="0.3136">
        <ele>453.5</ele>
        <time>2026-07-08T06:13:40Z</time>
      </trkpt>
      <trkpt lat="43.03213" lon="0.31359">
        <ele>452.5</ele>
        <time>2026-07-08T06:13:40Z</time>
      </trkpt>
      <trkpt lat="43.03213" lon="0.31358">
        <ele>452.5</ele>
        <time>2026-07-08T06:13:41Z</time>
      </trkpt>
      <trkpt lat="43.03213" lon="0.31358">
        <ele>452.5</ele>
        <time>2026-07-08T06:13:42Z</time>
      </trkpt>
      <trkpt lat="43.03213" lon="0.31357">
        <ele>452.5</ele>
        <time>2026-07-08T06:13:42Z</time>
      </trkpt>
      <trkpt lat="43.03214" lon="0.31356">
        <ele>452.5</ele>
        <time>2026-07-08T06:13:43Z</time>
      </trkpt>
      <trkpt lat="43.03214" lon="0.31355">
        <ele>452.5</ele>
        <time>2026-07-08T06:13:43Z</time>
      </trkpt>
      <trkpt lat="43.03214" lon="0.31354">
        <ele>452.5</ele>
        <time>2026-07-08T06:13:44Z</time>
      </trkpt>
      <trkpt lat="43.03214" lon="0.31353">
        <ele>451.5</ele>
        <time>2026-07-08T06:13:44Z</time>
      </trkpt>
      <trkpt lat="43.03214" lon="0.31352">
        <ele>451.5</ele>
        <time>2026-07-08T06:13:45Z</time>
      </trkpt>
      <trkpt lat="43.03214" lon="0.31351">
        <ele>452.5</ele>
        <time>2026-07-08T06:13:45Z</time>
      </trkpt>
      <trkpt lat="43.03214" lon="0.3135">
        <ele>452.5</ele>
        <time>2026-07-08T06:13:46Z</time>
      </trkpt>
      <trkpt lat="43.03214" lon="0.31349">
        <ele>451.5</ele>
        <time>2026-07-08T06:13:46Z</time>
      </trkpt>
      <trkpt lat="43.03214" lon="0.31348">
        <ele>451.5</ele>
        <time>2026-07-08T06:13:47Z</time>
      </trkpt>
      <trkpt lat="43.03214" lon="0.31347">
        <ele>452.5</ele>
        <time>2026-07-08T06:13:48Z</time>
      </trkpt>
      <trkpt lat="43.03214" lon="0.31346">
        <ele>452.5</ele>
        <time>2026-07-08T06:13:48Z</time>
      </trkpt>
      <trkpt lat="43.03214" lon="0.31345">
        <ele>452.5</ele>
        <time>2026-07-08T06:13:49Z</time>
      </trkpt>
      <trkpt lat="43.03215" lon="0.31344">
        <ele>452.5</ele>
        <time>2026-07-08T06:13:49Z</time>
      </trkpt>
      <trkpt lat="43.03215" lon="0.31343">
        <ele>452.5</ele>
        <time>2026-07-08T06:13:50Z</time>
      </trkpt>
      <trkpt lat="43.03215" lon="0.31343">
        <ele>452.5</ele>
        <time>2026-07-08T06:13:50Z</time>
      </trkpt>
      <trkpt lat="43.03215" lon="0.31342">
        <ele>452.5</ele>
        <time>2026-07-08T06:13:51Z</time>
      </trkpt>
      <trkpt lat="43.03215" lon="0.31341">
        <ele>452.5</ele>
        <time>2026-07-08T06:13:51Z</time>
      </trkpt>
      <trkpt lat="43.03215" lon="0.3134">
        <ele>452.5</ele>
        <time>2026-07-08T06:13:52Z</time>
      </trkpt>
      <trkpt lat="43.03215" lon="0.31339">
        <ele>452.5</ele>
        <time>2026-07-08T06:13:52Z</time>
      </trkpt>
      <trkpt lat="43.03216" lon="0.31338">
        <ele>452.5</ele>
        <time>2026-07-08T06:13:53Z</time>
      </trkpt>
      <trkpt lat="43.03216" lon="0.31337">
        <ele>453.5</ele>
        <time>2026-07-08T06:13:54Z</time>
      </trkpt>
      <trkpt lat="43.03216" lon="0.31336">
        <ele>453.5</ele>
        <time>2026-07-08T06:13:54Z</time>
      </trkpt>
      <trkpt lat="43.03216" lon="0.31335">
        <ele>453.5</ele>
        <time>2026-07-08T06:13:55Z</time>
      </trkpt>
      <trkpt lat="43.03217" lon="0.31335">
        <ele>453.5</ele>
        <time>2026-07-08T06:13:55Z</time>
      </trkpt>
      <trkpt lat="43.03217" lon="0.31334">
        <ele>453.5</ele>
        <time>2026-07-08T06:13:56Z</time>
      </trkpt>
      <trkpt lat="43.03217" lon="0.31333">
        <ele>452.5</ele>
        <time>2026-07-08T06:13:56Z</time>
      </trkpt>
      <trkpt lat="43.03217" lon="0.31332">
        <ele>452.5</ele>
        <time>2026-07-08T06:13:57Z</time>
      </trkpt>
      <trkpt lat="43.03217" lon="0.31331">
        <ele>452.5</ele>
        <time>2026-07-08T06:13:57Z</time>
      </trkpt>
      <trkpt lat="43.03217" lon="0.31331">
        <ele>452.5</ele>
        <time>2026-07-08T06:13:58Z</time>
      </trkpt>
      <trkpt lat="43.03218" lon="0.3133">
        <ele>452.5</ele>
        <time>2026-07-08T06:13:58Z</time>
      </trkpt>
      <trkpt lat="43.03218" lon="0.31329">
        <ele>452.5</ele>
        <time>2026-07-08T06:13:59Z</time>
      </trkpt>
      <trkpt lat="43.03218" lon="0.31329">
        <ele>452.5</ele>
        <time>2026-07-08T06:13:59Z</time>
      </trkpt>
      <trkpt lat="43.03218" lon="0.31328">
        <ele>452.5</ele>
        <time>2026-07-08T06:14:00Z</time>
      </trkpt>
      <trkpt lat="43.03218" lon="0.31327">
        <ele>452.5</ele>
        <time>2026-07-08T06:14:01Z</time>
      </trkpt>
      <trkpt lat="43.03219" lon="0.31326">
        <ele>452.5</ele>
        <time>2026-07-08T06:14:01Z</time>
      </trkpt>
      <trkpt lat="43.03219" lon="0.31325">
        <ele>452.5</ele>
        <time>2026-07-08T06:14:02Z</time>
      </trkpt>
      <trkpt lat="43.03219" lon="0.31325">
        <ele>452.5</ele>
        <time>2026-07-08T06:14:02Z</time>
      </trkpt>
      <trkpt lat="43.0322" lon="0.31324">
        <ele>452.5</ele>
        <time>2026-07-08T06:14:03Z</time>
      </trkpt>
      <trkpt lat="43.0322" lon="0.31323">
        <ele>452.5</ele>
        <time>2026-07-08T06:14:03Z</time>
      </trkpt>
      <trkpt lat="43.0322" lon="0.31322">
        <ele>452.5</ele>
        <time>2026-07-08T06:14:04Z</time>
      </trkpt>
      <trkpt lat="43.03221" lon="0.31321">
        <ele>452.5</ele>
        <time>2026-07-08T06:14:04Z</time>
      </trkpt>
      <trkpt lat="43.03221" lon="0.3132">
        <ele>452.5</ele>
        <time>2026-07-08T06:14:05Z</time>
      </trkpt>
      <trkpt lat="43.03221" lon="0.3132">
        <ele>452.5</ele>
        <time>2026-07-08T06:14:05Z</time>
      </trkpt>
      <trkpt lat="43.03222" lon="0.31319">
        <ele>452.5</ele>
        <time>2026-07-08T06:14:06Z</time>
      </trkpt>
      <trkpt lat="43.03222" lon="0.31318">
        <ele>454.5</ele>
        <time>2026-07-08T06:14:07Z</time>
      </trkpt>
      <trkpt lat="43.03223" lon="0.31317">
        <ele>454.5</ele>
        <time>2026-07-08T06:14:07Z</time>
      </trkpt>
      <trkpt lat="43.03223" lon="0.31316">
        <ele>454.5</ele>
        <time>2026-07-08T06:14:08Z</time>
      </trkpt>
      <trkpt lat="43.03224" lon="0.31315">
        <ele>454.5</ele>
        <time>2026-07-08T06:14:09Z</time>
      </trkpt>
      <trkpt lat="43.03224" lon="0.31313">
        <ele>454.5</ele>
        <time>2026-07-08T06:14:10Z</time>
      </trkpt>
      <trkpt lat="43.03225" lon="0.31312">
        <ele>454.5</ele>
        <time>2026-07-08T06:14:10Z</time>
      </trkpt>
      <trkpt lat="43.03225" lon="0.31312">
        <ele>454.5</ele>
        <time>2026-07-08T06:14:11Z</time>
      </trkpt>
      <trkpt lat="43.03225" lon="0.31311">
        <ele>454.5</ele>
        <time>2026-07-08T06:14:12Z</time>
      </trkpt>
      <trkpt lat="43.03226" lon="0.3131">
        <ele>454.5</ele>
        <time>2026-07-08T06:14:12Z</time>
      </trkpt>
      <trkpt lat="43.03226" lon="0.31309">
        <ele>454.5</ele>
        <time>2026-07-08T06:14:13Z</time>
      </trkpt>
      <trkpt lat="43.03226" lon="0.31308">
        <ele>454.5</ele>
        <time>2026-07-08T06:14:13Z</time>
      </trkpt>
      <trkpt lat="43.03227" lon="0.31307">
        <ele>454.5</ele>
        <time>2026-07-08T06:14:14Z</time>
      </trkpt>
      <trkpt lat="43.03227" lon="0.31307">
        <ele>453.5</ele>
        <time>2026-07-08T06:14:14Z</time>
      </trkpt>
      <trkpt lat="43.03227" lon="0.31306">
        <ele>453.5</ele>
        <time>2026-07-08T06:14:15Z</time>
      </trkpt>
      <trkpt lat="43.03228" lon="0.31305">
        <ele>453.5</ele>
        <time>2026-07-08T06:14:15Z</time>
      </trkpt>
      <trkpt lat="43.03228" lon="0.31304">
        <ele>453.5</ele>
        <time>2026-07-08T06:14:16Z</time>
      </trkpt>
      <trkpt lat="43.03229" lon="0.31304">
        <ele>453.5</ele>
        <time>2026-07-08T06:14:16Z</time>
      </trkpt>
      <trkpt lat="43.0323" lon="0.31303">
        <ele>453.5</ele>
        <time>2026-07-08T06:14:17Z</time>
      </trkpt>
      <trkpt lat="43.0323" lon="0.31302">
        <ele>453.5</ele>
        <time>2026-07-08T06:14:18Z</time>
      </trkpt>
      <trkpt lat="43.03231" lon="0.31301">
        <ele>453.5</ele>
        <time>2026-07-08T06:14:18Z</time>
      </trkpt>
      <trkpt lat="43.03231" lon="0.31301">
        <ele>452.5</ele>
        <time>2026-07-08T06:14:19Z</time>
      </trkpt>
      <trkpt lat="43.03232" lon="0.313">
        <ele>452.5</ele>
        <time>2026-07-08T06:14:19Z</time>
      </trkpt>
      <trkpt lat="43.03232" lon="0.31299">
        <ele>452.5</ele>
        <time>2026-07-08T06:14:20Z</time>
      </trkpt>
      <trkpt lat="43.03233" lon="0.31299">
        <ele>453.5</ele>
        <time>2026-07-08T06:14:20Z</time>
      </trkpt>
      <trkpt lat="43.03234" lon="0.31298">
        <ele>453.5</ele>
        <time>2026-07-08T06:14:21Z</time>
      </trkpt>
      <trkpt lat="43.03234" lon="0.31298">
        <ele>453.5</ele>
        <time>2026-07-08T06:14:21Z</time>
      </trkpt>
      <trkpt lat="43.03235" lon="0.31297">
        <ele>453.5</ele>
        <time>2026-07-08T06:14:22Z</time>
      </trkpt>
      <trkpt lat="43.03236" lon="0.31297">
        <ele>453.5</ele>
        <time>2026-07-08T06:14:23Z</time>
      </trkpt>
      <trkpt lat="43.03236" lon="0.31297">
        <ele>453.5</ele>
        <time>2026-07-08T06:14:23Z</time>
      </trkpt>
      <trkpt lat="43.03237" lon="0.31296">
        <ele>453.5</ele>
        <time>2026-07-08T06:14:24Z</time>
      </trkpt>
      <trkpt lat="43.03238" lon="0.31296">
        <ele>453.5</ele>
        <time>2026-07-08T06:14:24Z</time>
      </trkpt>
      <trkpt lat="43.03238" lon="0.31295">
        <ele>452.5</ele>
        <time>2026-07-08T06:14:25Z</time>
      </trkpt>
      <trkpt lat="43.03239" lon="0.31295">
        <ele>453.5</ele>
        <time>2026-07-08T06:14:25Z</time>
      </trkpt>
      <trkpt lat="43.0324" lon="0.31295">
        <ele>453.5</ele>
        <time>2026-07-08T06:14:26Z</time>
      </trkpt>
      <trkpt lat="43.0324" lon="0.31294">
        <ele>453.5</ele>
        <time>2026-07-08T06:14:26Z</time>
      </trkpt>
      <trkpt lat="43.03241" lon="0.31294">
        <ele>453.5</ele>
        <time>2026-07-08T06:14:27Z</time>
      </trkpt>
      <trkpt lat="43.03241" lon="0.31294">
        <ele>454.5</ele>
        <time>2026-07-08T06:14:27Z</time>
      </trkpt>
      <trkpt lat="43.03242" lon="0.31293">
        <ele>454.5</ele>
        <time>2026-07-08T06:14:28Z</time>
      </trkpt>
      <trkpt lat="43.03243" lon="0.31293">
        <ele>454.5</ele>
        <time>2026-07-08T06:14:28Z</time>
      </trkpt>
      <trkpt lat="43.03243" lon="0.31292">
        <ele>454.5</ele>
        <time>2026-07-08T06:14:29Z</time>
      </trkpt>
      <trkpt lat="43.03244" lon="0.31292">
        <ele>454.5</ele>
        <time>2026-07-08T06:14:30Z</time>
      </trkpt>
      <trkpt lat="43.03245" lon="0.31292">
        <ele>454.5</ele>
        <time>2026-07-08T06:14:30Z</time>
      </trkpt>
      <trkpt lat="43.03245" lon="0.31291">
        <ele>454.5</ele>
        <time>2026-07-08T06:14:31Z</time>
      </trkpt>
      <trkpt lat="43.03245" lon="0.31291">
        <ele>454.5</ele>
        <time>2026-07-08T06:14:31Z</time>
      </trkpt>
      <trkpt lat="43.03246" lon="0.3129">
        <ele>454.5</ele>
        <time>2026-07-08T06:14:32Z</time>
      </trkpt>
      <trkpt lat="43.03247" lon="0.31289">
        <ele>454.5</ele>
        <time>2026-07-08T06:14:33Z</time>
      </trkpt>
      <trkpt lat="43.03248" lon="0.31289">
        <ele>454.5</ele>
        <time>2026-07-08T06:14:33Z</time>
      </trkpt>
      <trkpt lat="43.03248" lon="0.31288">
        <ele>454.5</ele>
        <time>2026-07-08T06:14:34Z</time>
      </trkpt>
      <trkpt lat="43.03249" lon="0.31288">
        <ele>454.5</ele>
        <time>2026-07-08T06:14:34Z</time>
      </trkpt>
      <trkpt lat="43.03249" lon="0.31287">
        <ele>454.5</ele>
        <time>2026-07-08T06:14:35Z</time>
      </trkpt>
      <trkpt lat="43.0325" lon="0.31287">
        <ele>454.5</ele>
        <time>2026-07-08T06:14:35Z</time>
      </trkpt>
      <trkpt lat="43.0325" lon="0.31286">
        <ele>454.5</ele>
        <time>2026-07-08T06:14:36Z</time>
      </trkpt>
      <trkpt lat="43.03251" lon="0.31286">
        <ele>454.5</ele>
        <time>2026-07-08T06:14:36Z</time>
      </trkpt>
      <trkpt lat="43.03251" lon="0.31285">
        <ele>454.5</ele>
        <time>2026-07-08T06:14:37Z</time>
      </trkpt>
      <trkpt lat="43.03252" lon="0.31285">
        <ele>454.5</ele>
        <time>2026-07-08T06:14:38Z</time>
      </trkpt>
      <trkpt lat="43.03252" lon="0.31284">
        <ele>454.5</ele>
        <time>2026-07-08T06:14:38Z</time>
      </trkpt>
      <trkpt lat="43.03253" lon="0.31284">
        <ele>454.5</ele>
        <time>2026-07-08T06:14:39Z</time>
      </trkpt>
      <trkpt lat="43.03253" lon="0.31284">
        <ele>454.5</ele>
        <time>2026-07-08T06:14:39Z</time>
      </trkpt>
      <trkpt lat="43.03254" lon="0.31283">
        <ele>454.5</ele>
        <time>2026-07-08T06:14:40Z</time>
      </trkpt>
      <trkpt lat="43.03254" lon="0.31283">
        <ele>454.5</ele>
        <time>2026-07-08T06:14:40Z</time>
      </trkpt>
      <trkpt lat="43.03255" lon="0.31283">
        <ele>454.5</ele>
        <time>2026-07-08T06:14:41Z</time>
      </trkpt>
      <trkpt lat="43.03255" lon="0.31282">
        <ele>454.5</ele>
        <time>2026-07-08T06:14:41Z</time>
      </trkpt>
      <trkpt lat="43.03256" lon="0.31282">
        <ele>454.5</ele>
        <time>2026-07-08T06:14:42Z</time>
      </trkpt>
      <trkpt lat="43.03256" lon="0.31281">
        <ele>453.5</ele>
        <time>2026-07-08T06:14:43Z</time>
      </trkpt>
      <trkpt lat="43.03257" lon="0.31281">
        <ele>453.5</ele>
        <time>2026-07-08T06:14:43Z</time>
      </trkpt>
      <trkpt lat="43.03257" lon="0.3128">
        <ele>453.5</ele>
        <time>2026-07-08T06:14:44Z</time>
      </trkpt>
      <trkpt lat="43.03257" lon="0.3128">
        <ele>453.5</ele>
        <time>2026-07-08T06:14:44Z</time>
      </trkpt>
      <trkpt lat="43.03258" lon="0.31279">
        <ele>453.5</ele>
        <time>2026-07-08T06:14:45Z</time>
      </trkpt>
      <trkpt lat="43.03258" lon="0.31279">
        <ele>454.5</ele>
        <time>2026-07-08T06:14:45Z</time>
      </trkpt>
      <trkpt lat="43.03258" lon="0.31278">
        <ele>454.5</ele>
        <time>2026-07-08T06:14:46Z</time>
      </trkpt>
      <trkpt lat="43.03259" lon="0.31277">
        <ele>454.5</ele>
        <time>2026-07-08T06:14:46Z</time>
      </trkpt>
      <trkpt lat="43.03259" lon="0.31277">
        <ele>454.5</ele>
        <time>2026-07-08T06:14:47Z</time>
      </trkpt>
      <trkpt lat="43.03259" lon="0.31276">
        <ele>454.5</ele>
        <time>2026-07-08T06:14:47Z</time>
      </trkpt>
      <trkpt lat="43.0326" lon="0.31276">
        <ele>454.5</ele>
        <time>2026-07-08T06:14:48Z</time>
      </trkpt>
      <trkpt lat="43.0326" lon="0.31275">
        <ele>454.5</ele>
        <time>2026-07-08T06:14:49Z</time>
      </trkpt>
      <trkpt lat="43.0326" lon="0.31274">
        <ele>454.5</ele>
        <time>2026-07-08T06:14:49Z</time>
      </trkpt>
      <trkpt lat="43.03261" lon="0.31274">
        <ele>454.5</ele>
        <time>2026-07-08T06:14:50Z</time>
      </trkpt>
      <trkpt lat="43.03261" lon="0.31273">
        <ele>454.5</ele>
        <time>2026-07-08T06:14:50Z</time>
      </trkpt>
      <trkpt lat="43.03261" lon="0.31272">
        <ele>454.5</ele>
        <time>2026-07-08T06:14:51Z</time>
      </trkpt>
      <trkpt lat="43.03261" lon="0.31271">
        <ele>454.5</ele>
        <time>2026-07-08T06:14:51Z</time>
      </trkpt>
      <trkpt lat="43.03261" lon="0.3127">
        <ele>454.5</ele>
        <time>2026-07-08T06:14:52Z</time>
      </trkpt>
      <trkpt lat="43.03261" lon="0.3127">
        <ele>454.5</ele>
        <time>2026-07-08T06:14:52Z</time>
      </trkpt>
      <trkpt lat="43.03261" lon="0.31269">
        <ele>454.5</ele>
        <time>2026-07-08T06:14:53Z</time>
      </trkpt>
      <trkpt lat="43.03261" lon="0.31268">
        <ele>453.5</ele>
        <time>2026-07-08T06:14:54Z</time>
      </trkpt>
      <trkpt lat="43.03261" lon="0.31267">
        <ele>453.5</ele>
        <time>2026-07-08T06:14:54Z</time>
      </trkpt>
      <trkpt lat="43.03261" lon="0.31266">
        <ele>454.5</ele>
        <time>2026-07-08T06:14:55Z</time>
      </trkpt>
      <trkpt lat="43.0326" lon="0.31265">
        <ele>455.5</ele>
        <time>2026-07-08T06:14:55Z</time>
      </trkpt>
      <trkpt lat="43.0326" lon="0.31264">
        <ele>455.5</ele>
        <time>2026-07-08T06:14:56Z</time>
      </trkpt>
      <trkpt lat="43.0326" lon="0.31263">
        <ele>455.5</ele>
        <time>2026-07-08T06:14:56Z</time>
      </trkpt>
      <trkpt lat="43.0326" lon="0.31262">
        <ele>455.5</ele>
        <time>2026-07-08T06:14:57Z</time>
      </trkpt>
      <trkpt lat="43.0326" lon="0.31261">
        <ele>455.5</ele>
        <time>2026-07-08T06:14:57Z</time>
      </trkpt>
      <trkpt lat="43.03259" lon="0.31261">
        <ele>455.5</ele>
        <time>2026-07-08T06:14:58Z</time>
      </trkpt>
      <trkpt lat="43.03259" lon="0.3126">
        <ele>455.5</ele>
        <time>2026-07-08T06:14:58Z</time>
      </trkpt>
      <trkpt lat="43.03259" lon="0.31259">
        <ele>455.5</ele>
        <time>2026-07-08T06:14:59Z</time>
      </trkpt>
      <trkpt lat="43.03259" lon="0.31258">
        <ele>455.5</ele>
        <time>2026-07-08T06:15:00Z</time>
      </trkpt>
      <trkpt lat="43.03259" lon="0.31258">
        <ele>455.5</ele>
        <time>2026-07-08T06:15:00Z</time>
      </trkpt>
      <trkpt lat="43.03259" lon="0.31257">
        <ele>455.5</ele>
        <time>2026-07-08T06:15:01Z</time>
      </trkpt>
      <trkpt lat="43.03259" lon="0.31256">
        <ele>455.5</ele>
        <time>2026-07-08T06:15:01Z</time>
      </trkpt>
      <trkpt lat="43.03258" lon="0.31255">
        <ele>455.5</ele>
        <time>2026-07-08T06:15:02Z</time>
      </trkpt>
      <trkpt lat="43.03258" lon="0.31255">
        <ele>455.5</ele>
        <time>2026-07-08T06:15:02Z</time>
      </trkpt>
      <trkpt lat="43.03258" lon="0.31254">
        <ele>455.5</ele>
        <time>2026-07-08T06:15:03Z</time>
      </trkpt>
      <trkpt lat="43.03258" lon="0.31253">
        <ele>455.5</ele>
        <time>2026-07-08T06:15:03Z</time>
      </trkpt>
      <trkpt lat="43.03258" lon="0.31252">
        <ele>455.5</ele>
        <time>2026-07-08T06:15:04Z</time>
      </trkpt>
      <trkpt lat="43.03258" lon="0.31251">
        <ele>455.5</ele>
        <time>2026-07-08T06:15:05Z</time>
      </trkpt>
      <trkpt lat="43.03258" lon="0.3125">
        <ele>455.5</ele>
        <time>2026-07-08T06:15:05Z</time>
      </trkpt>
      <trkpt lat="43.03258" lon="0.31249">
        <ele>455.5</ele>
        <time>2026-07-08T06:15:06Z</time>
      </trkpt>
      <trkpt lat="43.03258" lon="0.31248">
        <ele>455.5</ele>
        <time>2026-07-08T06:15:06Z</time>
      </trkpt>
      <trkpt lat="43.03258" lon="0.31247">
        <ele>455.5</ele>
        <time>2026-07-08T06:15:07Z</time>
      </trkpt>
      <trkpt lat="43.03258" lon="0.31247">
        <ele>454.5</ele>
        <time>2026-07-08T06:15:07Z</time>
      </trkpt>
      <trkpt lat="43.03258" lon="0.31246">
        <ele>454.5</ele>
        <time>2026-07-08T06:15:08Z</time>
      </trkpt>
      <trkpt lat="43.03258" lon="0.31245">
        <ele>454.5</ele>
        <time>2026-07-08T06:15:08Z</time>
      </trkpt>
      <trkpt lat="43.03258" lon="0.31244">
        <ele>454.5</ele>
        <time>2026-07-08T06:15:09Z</time>
      </trkpt>
      <trkpt lat="43.03258" lon="0.31243">
        <ele>455.5</ele>
        <time>2026-07-08T06:15:10Z</time>
      </trkpt>
      <trkpt lat="43.03258" lon="0.31242">
        <ele>455.5</ele>
        <time>2026-07-08T06:15:10Z</time>
      </trkpt>
      <trkpt lat="43.03258" lon="0.31241">
        <ele>455.5</ele>
        <time>2026-07-08T06:15:11Z</time>
      </trkpt>
      <trkpt lat="43.03258" lon="0.3124">
        <ele>455.5</ele>
        <time>2026-07-08T06:15:11Z</time>
      </trkpt>
      <trkpt lat="43.03258" lon="0.31239">
        <ele>455.5</ele>
        <time>2026-07-08T06:15:12Z</time>
      </trkpt>
      <trkpt lat="43.03258" lon="0.31239">
        <ele>454.5</ele>
        <time>2026-07-08T06:15:12Z</time>
      </trkpt>
      <trkpt lat="43.03258" lon="0.31238">
        <ele>454.5</ele>
        <time>2026-07-08T06:15:13Z</time>
      </trkpt>
      <trkpt lat="43.03258" lon="0.31237">
        <ele>454.5</ele>
        <time>2026-07-08T06:15:14Z</time>
      </trkpt>
      <trkpt lat="43.03258" lon="0.31237">
        <ele>454.5</ele>
        <time>2026-07-08T06:15:14Z</time>
      </trkpt>
      <trkpt lat="43.03258" lon="0.31236">
        <ele>454.5</ele>
        <time>2026-07-08T06:15:15Z</time>
      </trkpt>
      <trkpt lat="43.03258" lon="0.31236">
        <ele>453.5</ele>
        <time>2026-07-08T06:15:15Z</time>
      </trkpt>
      <trkpt lat="43.03258" lon="0.31235">
        <ele>453.5</ele>
        <time>2026-07-08T06:15:16Z</time>
      </trkpt>
      <trkpt lat="43.03258" lon="0.31235">
        <ele>452.5</ele>
        <time>2026-07-08T06:15:16Z</time>
      </trkpt>
      <trkpt lat="43.03257" lon="0.31234">
        <ele>452.5</ele>
        <time>2026-07-08T06:15:17Z</time>
      </trkpt>
      <trkpt lat="43.03257" lon="0.31233">
        <ele>453.5</ele>
        <time>2026-07-08T06:15:17Z</time>
      </trkpt>
      <trkpt lat="43.03257" lon="0.31232">
        <ele>453.5</ele>
        <time>2026-07-08T06:15:18Z</time>
      </trkpt>
      <trkpt lat="43.03256" lon="0.31231">
        <ele>453.5</ele>
        <time>2026-07-08T06:15:19Z</time>
      </trkpt>
      <trkpt lat="43.03256" lon="0.31231">
        <ele>453.5</ele>
        <time>2026-07-08T06:15:19Z</time>
      </trkpt>
      <trkpt lat="43.03256" lon="0.3123">
        <ele>453.5</ele>
        <time>2026-07-08T06:15:20Z</time>
      </trkpt>
      <trkpt lat="43.03256" lon="0.31229">
        <ele>453.5</ele>
        <time>2026-07-08T06:15:20Z</time>
      </trkpt>
      <trkpt lat="43.03256" lon="0.31228">
        <ele>453.5</ele>
        <time>2026-07-08T06:15:21Z</time>
      </trkpt>
      <trkpt lat="43.03256" lon="0.31227">
        <ele>453.5</ele>
        <time>2026-07-08T06:15:21Z</time>
      </trkpt>
      <trkpt lat="43.03255" lon="0.31226">
        <ele>453.5</ele>
        <time>2026-07-08T06:15:22Z</time>
      </trkpt>
      <trkpt lat="43.03255" lon="0.31226">
        <ele>453.5</ele>
        <time>2026-07-08T06:15:22Z</time>
      </trkpt>
      <trkpt lat="43.03255" lon="0.31225">
        <ele>453.5</ele>
        <time>2026-07-08T06:15:23Z</time>
      </trkpt>
      <trkpt lat="43.03255" lon="0.31224">
        <ele>453.5</ele>
        <time>2026-07-08T06:15:24Z</time>
      </trkpt>
      <trkpt lat="43.03255" lon="0.31223">
        <ele>453.5</ele>
        <time>2026-07-08T06:15:24Z</time>
      </trkpt>
      <trkpt lat="43.03255" lon="0.31222">
        <ele>453.5</ele>
        <time>2026-07-08T06:15:25Z</time>
      </trkpt>
      <trkpt lat="43.03255" lon="0.31221">
        <ele>453.5</ele>
        <time>2026-07-08T06:15:25Z</time>
      </trkpt>
      <trkpt lat="43.03255" lon="0.3122">
        <ele>453.5</ele>
        <time>2026-07-08T06:15:26Z</time>
      </trkpt>
      <trkpt lat="43.03255" lon="0.31219">
        <ele>453.5</ele>
        <time>2026-07-08T06:15:26Z</time>
      </trkpt>
      <trkpt lat="43.03255" lon="0.31218">
        <ele>453.5</ele>
        <time>2026-07-08T06:15:27Z</time>
      </trkpt>
      <trkpt lat="43.03255" lon="0.31217">
        <ele>453.5</ele>
        <time>2026-07-08T06:15:28Z</time>
      </trkpt>
      <trkpt lat="43.03254" lon="0.31216">
        <ele>453.5</ele>
        <time>2026-07-08T06:15:28Z</time>
      </trkpt>
      <trkpt lat="43.03254" lon="0.31215">
        <ele>453.5</ele>
        <time>2026-07-08T06:15:29Z</time>
      </trkpt>
      <trkpt lat="43.03255" lon="0.31214">
        <ele>454.5</ele>
        <time>2026-07-08T06:15:29Z</time>
      </trkpt>
      <trkpt lat="43.03254" lon="0.31213">
        <ele>454.5</ele>
        <time>2026-07-08T06:15:30Z</time>
      </trkpt>
      <trkpt lat="43.03255" lon="0.31212">
        <ele>454.5</ele>
        <time>2026-07-08T06:15:30Z</time>
      </trkpt>
      <trkpt lat="43.03255" lon="0.31211">
        <ele>454.5</ele>
        <time>2026-07-08T06:15:31Z</time>
      </trkpt>
      <trkpt lat="43.03255" lon="0.3121">
        <ele>455.5</ele>
        <time>2026-07-08T06:15:31Z</time>
      </trkpt>
      <trkpt lat="43.03255" lon="0.31209">
        <ele>455.5</ele>
        <time>2026-07-08T06:15:32Z</time>
      </trkpt>
      <trkpt lat="43.03255" lon="0.31207">
        <ele>455.5</ele>
        <time>2026-07-08T06:15:33Z</time>
      </trkpt>
      <trkpt lat="43.03256" lon="0.31206">
        <ele>455.5</ele>
        <time>2026-07-08T06:15:33Z</time>
      </trkpt>
      <trkpt lat="43.03255" lon="0.31205">
        <ele>455.5</ele>
        <time>2026-07-08T06:15:34Z</time>
      </trkpt>
      <trkpt lat="43.03256" lon="0.31204">
        <ele>455.5</ele>
        <time>2026-07-08T06:15:34Z</time>
      </trkpt>
      <trkpt lat="43.03256" lon="0.31203">
        <ele>455.5</ele>
        <time>2026-07-08T06:15:35Z</time>
      </trkpt>
      <trkpt lat="43.03256" lon="0.31203">
        <ele>455.5</ele>
        <time>2026-07-08T06:15:36Z</time>
      </trkpt>
      <trkpt lat="43.03255" lon="0.31202">
        <ele>454.5</ele>
        <time>2026-07-08T06:15:36Z</time>
      </trkpt>
      <trkpt lat="43.03255" lon="0.31201">
        <ele>454.5</ele>
        <time>2026-07-08T06:15:37Z</time>
      </trkpt>
      <trkpt lat="43.03255" lon="0.312">
        <ele>455.5</ele>
        <time>2026-07-08T06:15:37Z</time>
      </trkpt>
      <trkpt lat="43.03255" lon="0.31199">
        <ele>455.5</ele>
        <time>2026-07-08T06:15:38Z</time>
      </trkpt>
      <trkpt lat="43.03255" lon="0.31198">
        <ele>454.5</ele>
        <time>2026-07-08T06:15:38Z</time>
      </trkpt>
      <trkpt lat="43.03254" lon="0.31198">
        <ele>454.5</ele>
        <time>2026-07-08T06:15:39Z</time>
      </trkpt>
      <trkpt lat="43.03254" lon="0.31197">
        <ele>454.5</ele>
        <time>2026-07-08T06:15:39Z</time>
      </trkpt>
      <trkpt lat="43.03254" lon="0.31196">
        <ele>454.5</ele>
        <time>2026-07-08T06:15:40Z</time>
      </trkpt>
      <trkpt lat="43.03254" lon="0.31195">
        <ele>454.5</ele>
        <time>2026-07-08T06:15:40Z</time>
      </trkpt>
      <trkpt lat="43.03253" lon="0.31194">
        <ele>454.5</ele>
        <time>2026-07-08T06:15:41Z</time>
      </trkpt>
      <trkpt lat="43.03253" lon="0.31193">
        <ele>454.5</ele>
        <time>2026-07-08T06:15:41Z</time>
      </trkpt>
      <trkpt lat="43.03253" lon="0.31192">
        <ele>454.5</ele>
        <time>2026-07-08T06:15:42Z</time>
      </trkpt>
      <trkpt lat="43.03252" lon="0.31192">
        <ele>454.5</ele>
        <time>2026-07-08T06:15:43Z</time>
      </trkpt>
      <trkpt lat="43.03252" lon="0.31191">
        <ele>454.5</ele>
        <time>2026-07-08T06:15:43Z</time>
      </trkpt>
      <trkpt lat="43.03251" lon="0.3119">
        <ele>453.5</ele>
        <time>2026-07-08T06:15:44Z</time>
      </trkpt>
      <trkpt lat="43.03251" lon="0.31189">
        <ele>453.5</ele>
        <time>2026-07-08T06:15:44Z</time>
      </trkpt>
      <trkpt lat="43.03251" lon="0.31188">
        <ele>453.5</ele>
        <time>2026-07-08T06:15:45Z</time>
      </trkpt>
      <trkpt lat="43.0325" lon="0.31186">
        <ele>453.5</ele>
        <time>2026-07-08T06:15:46Z</time>
      </trkpt>
      <trkpt lat="43.03249" lon="0.31186">
        <ele>453.5</ele>
        <time>2026-07-08T06:15:46Z</time>
      </trkpt>
      <trkpt lat="43.03249" lon="0.31185">
        <ele>453.5</ele>
        <time>2026-07-08T06:15:47Z</time>
      </trkpt>
      <trkpt lat="43.03249" lon="0.31184">
        <ele>452.5</ele>
        <time>2026-07-08T06:15:47Z</time>
      </trkpt>
      <trkpt lat="43.03248" lon="0.31183">
        <ele>452.5</ele>
        <time>2026-07-08T06:15:48Z</time>
      </trkpt>
      <trkpt lat="43.03248" lon="0.31183">
        <ele>452.5</ele>
        <time>2026-07-08T06:15:48Z</time>
      </trkpt>
      <trkpt lat="43.03247" lon="0.31182">
        <ele>452.5</ele>
        <time>2026-07-08T06:15:49Z</time>
      </trkpt>
      <trkpt lat="43.03246" lon="0.31182">
        <ele>452.5</ele>
        <time>2026-07-08T06:15:49Z</time>
      </trkpt>
      <trkpt lat="43.03246" lon="0.31181">
        <ele>452.5</ele>
        <time>2026-07-08T06:15:50Z</time>
      </trkpt>
      <trkpt lat="43.03245" lon="0.3118">
        <ele>452.5</ele>
        <time>2026-07-08T06:15:51Z</time>
      </trkpt>
      <trkpt lat="43.03244" lon="0.31179">
        <ele>452.5</ele>
        <time>2026-07-08T06:15:52Z</time>
      </trkpt>
      <trkpt lat="43.03244" lon="0.31178">
        <ele>452.5</ele>
        <time>2026-07-08T06:15:52Z</time>
      </trkpt>
      <trkpt lat="43.03243" lon="0.31178">
        <ele>452.5</ele>
        <time>2026-07-08T06:15:53Z</time>
      </trkpt>
      <trkpt lat="43.03243" lon="0.31177">
        <ele>451.5</ele>
        <time>2026-07-08T06:15:53Z</time>
      </trkpt>
      <trkpt lat="43.03242" lon="0.31177">
        <ele>451.5</ele>
        <time>2026-07-08T06:15:54Z</time>
      </trkpt>
      <trkpt lat="43.03242" lon="0.31176">
        <ele>451.5</ele>
        <time>2026-07-08T06:15:54Z</time>
      </trkpt>
      <trkpt lat="43.03241" lon="0.31175">
        <ele>451.5</ele>
        <time>2026-07-08T06:15:55Z</time>
      </trkpt>
      <trkpt lat="43.03241" lon="0.31175">
        <ele>451.5</ele>
        <time>2026-07-08T06:15:55Z</time>
      </trkpt>
      <trkpt lat="43.0324" lon="0.31174">
        <ele>451.5</ele>
        <time>2026-07-08T06:15:56Z</time>
      </trkpt>
      <trkpt lat="43.0324" lon="0.31173">
        <ele>451.5</ele>
        <time>2026-07-08T06:15:56Z</time>
      </trkpt>
      <trkpt lat="43.03239" lon="0.31173">
        <ele>451.5</ele>
        <time>2026-07-08T06:15:57Z</time>
      </trkpt>
      <trkpt lat="43.03239" lon="0.31172">
        <ele>451.5</ele>
        <time>2026-07-08T06:15:57Z</time>
      </trkpt>
      <trkpt lat="43.03238" lon="0.31171">
        <ele>451.5</ele>
        <time>2026-07-08T06:15:58Z</time>
      </trkpt>
      <trkpt lat="43.03238" lon="0.3117">
        <ele>450.5</ele>
        <time>2026-07-08T06:15:59Z</time>
      </trkpt>
      <trkpt lat="43.03237" lon="0.31169">
        <ele>450.5</ele>
        <time>2026-07-08T06:15:59Z</time>
      </trkpt>
      <trkpt lat="43.03237" lon="0.31169">
        <ele>450.5</ele>
        <time>2026-07-08T06:16:00Z</time>
      </trkpt>
      <trkpt lat="43.03236" lon="0.31167">
        <ele>450.5</ele>
        <time>2026-07-08T06:16:01Z</time>
      </trkpt>
      <trkpt lat="43.03236" lon="0.31167">
        <ele>450.5</ele>
        <time>2026-07-08T06:16:01Z</time>
      </trkpt>
      <trkpt lat="43.03236" lon="0.31166">
        <ele>450.5</ele>
        <time>2026-07-08T06:16:02Z</time>
      </trkpt>
      <trkpt lat="43.03235" lon="0.31165">
        <ele>450.5</ele>
        <time>2026-07-08T06:16:02Z</time>
      </trkpt>
      <trkpt lat="43.03235" lon="0.31164">
        <ele>450.5</ele>
        <time>2026-07-08T06:16:03Z</time>
      </trkpt>
      <trkpt lat="43.03235" lon="0.31163">
        <ele>451.5</ele>
        <time>2026-07-08T06:16:03Z</time>
      </trkpt>
      <trkpt lat="43.03234" lon="0.31162">
        <ele>451.5</ele>
        <time>2026-07-08T06:16:04Z</time>
      </trkpt>
      <trkpt lat="43.03234" lon="0.31162">
        <ele>450.5</ele>
        <time>2026-07-08T06:16:04Z</time>
      </trkpt>
      <trkpt lat="43.03234" lon="0.31161">
        <ele>450.5</ele>
        <time>2026-07-08T06:16:05Z</time>
      </trkpt>
      <trkpt lat="43.03233" lon="0.3116">
        <ele>450.5</ele>
        <time>2026-07-08T06:16:05Z</time>
      </trkpt>
      <trkpt lat="43.03233" lon="0.31159">
        <ele>450.5</ele>
        <time>2026-07-08T06:16:06Z</time>
      </trkpt>
      <trkpt lat="43.03233" lon="0.31159">
        <ele>449.5</ele>
        <time>2026-07-08T06:16:06Z</time>
      </trkpt>
      <trkpt lat="43.03232" lon="0.31158">
        <ele>449.5</ele>
        <time>2026-07-08T06:16:07Z</time>
      </trkpt>
      <trkpt lat="43.03232" lon="0.31157">
        <ele>449.5</ele>
        <time>2026-07-08T06:16:07Z</time>
      </trkpt>
      <trkpt lat="43.03232" lon="0.31156">
        <ele>449.5</ele>
        <time>2026-07-08T06:16:08Z</time>
      </trkpt>
      <trkpt lat="43.03231" lon="0.31156">
        <ele>449.5</ele>
        <time>2026-07-08T06:16:09Z</time>
      </trkpt>
      <trkpt lat="43.03231" lon="0.31155">
        <ele>449.5</ele>
        <time>2026-07-08T06:16:09Z</time>
      </trkpt>
      <trkpt lat="43.03231" lon="0.31154">
        <ele>449.5</ele>
        <time>2026-07-08T06:16:10Z</time>
      </trkpt>
      <trkpt lat="43.03231" lon="0.31153">
        <ele>448.5</ele>
        <time>2026-07-08T06:16:10Z</time>
      </trkpt>
      <trkpt lat="43.0323" lon="0.31152">
        <ele>448.5</ele>
        <time>2026-07-08T06:16:11Z</time>
      </trkpt>
      <trkpt lat="43.0323" lon="0.31151">
        <ele>449.5</ele>
        <time>2026-07-08T06:16:11Z</time>
      </trkpt>
      <trkpt lat="43.0323" lon="0.3115">
        <ele>449.5</ele>
        <time>2026-07-08T06:16:12Z</time>
      </trkpt>
      <trkpt lat="43.03229" lon="0.31148">
        <ele>449.5</ele>
        <time>2026-07-08T06:16:13Z</time>
      </trkpt>
      <trkpt lat="43.03229" lon="0.31148">
        <ele>449.5</ele>
        <time>2026-07-08T06:16:13Z</time>
      </trkpt>
      <trkpt lat="43.03229" lon="0.31146">
        <ele>449.5</ele>
        <time>2026-07-08T06:16:14Z</time>
      </trkpt>
      <trkpt lat="43.03228" lon="0.31145">
        <ele>450.5</ele>
        <time>2026-07-08T06:16:15Z</time>
      </trkpt>
      <trkpt lat="43.03228" lon="0.31144">
        <ele>450.5</ele>
        <time>2026-07-08T06:16:15Z</time>
      </trkpt>
      <trkpt lat="43.03228" lon="0.31144">
        <ele>450.5</ele>
        <time>2026-07-08T06:16:16Z</time>
      </trkpt>
      <trkpt lat="43.03227" lon="0.31143">
        <ele>450.5</ele>
        <time>2026-07-08T06:16:17Z</time>
      </trkpt>
      <trkpt lat="43.03227" lon="0.31141">
        <ele>450.5</ele>
        <time>2026-07-08T06:16:18Z</time>
      </trkpt>
      <trkpt lat="43.03226" lon="0.3114">
        <ele>451.5</ele>
        <time>2026-07-08T06:16:19Z</time>
      </trkpt>
      <trkpt lat="43.03226" lon="0.31139">
        <ele>451.5</ele>
        <time>2026-07-08T06:16:19Z</time>
      </trkpt>
      <trkpt lat="43.03225" lon="0.31138">
        <ele>451.5</ele>
        <time>2026-07-08T06:16:20Z</time>
      </trkpt>
      <trkpt lat="43.03224" lon="0.31137">
        <ele>450.5</ele>
        <time>2026-07-08T06:16:21Z</time>
      </trkpt>
      <trkpt lat="43.03223" lon="0.31135">
        <ele>450.5</ele>
        <time>2026-07-08T06:16:22Z</time>
      </trkpt>
      <trkpt lat="43.03223" lon="0.31135">
        <ele>450.5</ele>
        <time>2026-07-08T06:16:22Z</time>
      </trkpt>
      <trkpt lat="43.03223" lon="0.31134">
        <ele>450.5</ele>
        <time>2026-07-08T06:16:23Z</time>
      </trkpt>
      <trkpt lat="43.03222" lon="0.31133">
        <ele>451.5</ele>
        <time>2026-07-08T06:16:23Z</time>
      </trkpt>
      <trkpt lat="43.03222" lon="0.31132">
        <ele>451.5</ele>
        <time>2026-07-08T06:16:24Z</time>
      </trkpt>
      <trkpt lat="43.03222" lon="0.31132">
        <ele>450.5</ele>
        <time>2026-07-08T06:16:24Z</time>
      </trkpt>
      <trkpt lat="43.03221" lon="0.31131">
        <ele>450.5</ele>
        <time>2026-07-08T06:16:25Z</time>
      </trkpt>
      <trkpt lat="43.03221" lon="0.31129">
        <ele>450.5</ele>
        <time>2026-07-08T06:16:26Z</time>
      </trkpt>
      <trkpt lat="43.0322" lon="0.31128">
        <ele>450.5</ele>
        <time>2026-07-08T06:16:27Z</time>
      </trkpt>
      <trkpt lat="43.0322" lon="0.31128">
        <ele>451.5</ele>
        <time>2026-07-08T06:16:27Z</time>
      </trkpt>
      <trkpt lat="43.0322" lon="0.31127">
        <ele>451.5</ele>
        <time>2026-07-08T06:16:28Z</time>
      </trkpt>
      <trkpt lat="43.0322" lon="0.31126">
        <ele>451.5</ele>
        <time>2026-07-08T06:16:28Z</time>
      </trkpt>
      <trkpt lat="43.0322" lon="0.31125">
        <ele>451.5</ele>
        <time>2026-07-08T06:16:29Z</time>
      </trkpt>
      <trkpt lat="43.03219" lon="0.31124">
        <ele>450.5</ele>
        <time>2026-07-08T06:16:29Z</time>
      </trkpt>
      <trkpt lat="43.03219" lon="0.31123">
        <ele>450.5</ele>
        <time>2026-07-08T06:16:30Z</time>
      </trkpt>
      <trkpt lat="43.03219" lon="0.31121">
        <ele>450.5</ele>
        <time>2026-07-08T06:16:31Z</time>
      </trkpt>
      <trkpt lat="43.03218" lon="0.3112">
        <ele>451.5</ele>
        <time>2026-07-08T06:16:31Z</time>
      </trkpt>
      <trkpt lat="43.03218" lon="0.31119">
        <ele>451.5</ele>
        <time>2026-07-08T06:16:32Z</time>
      </trkpt>
      <trkpt lat="43.03218" lon="0.31118">
        <ele>451.5</ele>
        <time>2026-07-08T06:16:33Z</time>
      </trkpt>
      <trkpt lat="43.03218" lon="0.31117">
        <ele>451.5</ele>
        <time>2026-07-08T06:16:33Z</time>
      </trkpt>
      <trkpt lat="43.03217" lon="0.31116">
        <ele>451.5</ele>
        <time>2026-07-08T06:16:34Z</time>
      </trkpt>
      <trkpt lat="43.03217" lon="0.31115">
        <ele>451.5</ele>
        <time>2026-07-08T06:16:35Z</time>
      </trkpt>
      <trkpt lat="43.03217" lon="0.31114">
        <ele>451.5</ele>
        <time>2026-07-08T06:16:35Z</time>
      </trkpt>
      <trkpt lat="43.03217" lon="0.31113">
        <ele>450.5</ele>
        <time>2026-07-08T06:16:36Z</time>
      </trkpt>
      <trkpt lat="43.03216" lon="0.31111">
        <ele>450.5</ele>
        <time>2026-07-08T06:16:37Z</time>
      </trkpt>
      <trkpt lat="43.03216" lon="0.3111">
        <ele>449.5</ele>
        <time>2026-07-08T06:16:37Z</time>
      </trkpt>
      <trkpt lat="43.03216" lon="0.31109">
        <ele>449.5</ele>
        <time>2026-07-08T06:16:38Z</time>
      </trkpt>
      <trkpt lat="43.03216" lon="0.31108">
        <ele>449.5</ele>
        <time>2026-07-08T06:16:38Z</time>
      </trkpt>
      <trkpt lat="43.03215" lon="0.31107">
        <ele>449.5</ele>
        <time>2026-07-08T06:16:39Z</time>
      </trkpt>
      <trkpt lat="43.03215" lon="0.31105">
        <ele>450.5</ele>
        <time>2026-07-08T06:16:40Z</time>
      </trkpt>
      <trkpt lat="43.03214" lon="0.31104">
        <ele>449.5</ele>
        <time>2026-07-08T06:16:41Z</time>
      </trkpt>
      <trkpt lat="43.03214" lon="0.31103">
        <ele>449.5</ele>
        <time>2026-07-08T06:16:41Z</time>
      </trkpt>
      <trkpt lat="43.03214" lon="0.31102">
        <ele>449.5</ele>
        <time>2026-07-08T06:16:42Z</time>
      </trkpt>
      <trkpt lat="43.03214" lon="0.31101">
        <ele>449.5</ele>
        <time>2026-07-08T06:16:43Z</time>
      </trkpt>
      <trkpt lat="43.03214" lon="0.311">
        <ele>449.5</ele>
        <time>2026-07-08T06:16:43Z</time>
      </trkpt>
      <trkpt lat="43.03213" lon="0.31099">
        <ele>449.5</ele>
        <time>2026-07-08T06:16:44Z</time>
      </trkpt>
      <trkpt lat="43.03213" lon="0.31098">
        <ele>449.5</ele>
        <time>2026-07-08T06:16:44Z</time>
      </trkpt>
      <trkpt lat="43.03213" lon="0.31097">
        <ele>449.5</ele>
        <time>2026-07-08T06:16:45Z</time>
      </trkpt>
      <trkpt lat="43.03212" lon="0.31096">
        <ele>449.5</ele>
        <time>2026-07-08T06:16:45Z</time>
      </trkpt>
      <trkpt lat="43.03212" lon="0.31096">
        <ele>449.5</ele>
        <time>2026-07-08T06:16:46Z</time>
      </trkpt>
      <trkpt lat="43.03212" lon="0.31095">
        <ele>449.5</ele>
        <time>2026-07-08T06:16:46Z</time>
      </trkpt>
      <trkpt lat="43.03212" lon="0.31094">
        <ele>449.5</ele>
        <time>2026-07-08T06:16:47Z</time>
      </trkpt>
      <trkpt lat="43.03212" lon="0.31093">
        <ele>449.5</ele>
        <time>2026-07-08T06:16:47Z</time>
      </trkpt>
      <trkpt lat="43.03211" lon="0.31092">
        <ele>449.5</ele>
        <time>2026-07-08T06:16:48Z</time>
      </trkpt>
      <trkpt lat="43.03211" lon="0.31091">
        <ele>449.5</ele>
        <time>2026-07-08T06:16:48Z</time>
      </trkpt>
      <trkpt lat="43.03211" lon="0.3109">
        <ele>449.5</ele>
        <time>2026-07-08T06:16:49Z</time>
      </trkpt>
      <trkpt lat="43.03211" lon="0.3109">
        <ele>449.5</ele>
        <time>2026-07-08T06:16:49Z</time>
      </trkpt>
      <trkpt lat="43.03211" lon="0.31089">
        <ele>449.5</ele>
        <time>2026-07-08T06:16:50Z</time>
      </trkpt>
      <trkpt lat="43.03211" lon="0.31088">
        <ele>449.5</ele>
        <time>2026-07-08T06:16:50Z</time>
      </trkpt>
      <trkpt lat="43.03211" lon="0.31087">
        <ele>449.5</ele>
        <time>2026-07-08T06:16:51Z</time>
      </trkpt>
      <trkpt lat="43.03211" lon="0.31086">
        <ele>449.5</ele>
        <time>2026-07-08T06:16:52Z</time>
      </trkpt>
      <trkpt lat="43.03211" lon="0.31085">
        <ele>449.5</ele>
        <time>2026-07-08T06:16:52Z</time>
      </trkpt>
      <trkpt lat="43.03211" lon="0.31084">
        <ele>448.5</ele>
        <time>2026-07-08T06:16:53Z</time>
      </trkpt>
      <trkpt lat="43.0321" lon="0.31084">
        <ele>448.5</ele>
        <time>2026-07-08T06:16:53Z</time>
      </trkpt>
      <trkpt lat="43.0321" lon="0.31083">
        <ele>448.5</ele>
        <time>2026-07-08T06:16:54Z</time>
      </trkpt>
      <trkpt lat="43.0321" lon="0.31081">
        <ele>448.5</ele>
        <time>2026-07-08T06:16:55Z</time>
      </trkpt>
      <trkpt lat="43.0321" lon="0.3108">
        <ele>449.5</ele>
        <time>2026-07-08T06:16:56Z</time>
      </trkpt>
      <trkpt lat="43.0321" lon="0.31078">
        <ele>449.5</ele>
        <time>2026-07-08T06:16:56Z</time>
      </trkpt>
      <trkpt lat="43.0321" lon="0.31077">
        <ele>449.5</ele>
        <time>2026-07-08T06:16:57Z</time>
      </trkpt>
      <trkpt lat="43.0321" lon="0.31077">
        <ele>449.5</ele>
        <time>2026-07-08T06:16:57Z</time>
      </trkpt>
      <trkpt lat="43.0321" lon="0.31075">
        <ele>449.5</ele>
        <time>2026-07-08T06:16:58Z</time>
      </trkpt>
      <trkpt lat="43.0321" lon="0.31074">
        <ele>448.5</ele>
        <time>2026-07-08T06:16:59Z</time>
      </trkpt>
      <trkpt lat="43.0321" lon="0.31073">
        <ele>448.5</ele>
        <time>2026-07-08T06:16:59Z</time>
      </trkpt>
      <trkpt lat="43.0321" lon="0.31072">
        <ele>448.5</ele>
        <time>2026-07-08T06:17:00Z</time>
      </trkpt>
      <trkpt lat="43.03209" lon="0.31071">
        <ele>449.5</ele>
        <time>2026-07-08T06:17:00Z</time>
      </trkpt>
      <trkpt lat="43.03209" lon="0.3107">
        <ele>449.5</ele>
        <time>2026-07-08T06:17:01Z</time>
      </trkpt>
      <trkpt lat="43.03209" lon="0.31069">
        <ele>449.5</ele>
        <time>2026-07-08T06:17:02Z</time>
      </trkpt>
      <trkpt lat="43.03209" lon="0.31069">
        <ele>449.5</ele>
        <time>2026-07-08T06:17:02Z</time>
      </trkpt>
      <trkpt lat="43.03209" lon="0.31068">
        <ele>449.5</ele>
        <time>2026-07-08T06:17:03Z</time>
      </trkpt>
      <trkpt lat="43.03209" lon="0.31067">
        <ele>449.5</ele>
        <time>2026-07-08T06:17:03Z</time>
      </trkpt>
      <trkpt lat="43.03209" lon="0.31066">
        <ele>449.5</ele>
        <time>2026-07-08T06:17:04Z</time>
      </trkpt>
      <trkpt lat="43.03208" lon="0.31064">
        <ele>448.5</ele>
        <time>2026-07-08T06:17:05Z</time>
      </trkpt>
      <trkpt lat="43.03208" lon="0.31063">
        <ele>448.5</ele>
        <time>2026-07-08T06:17:05Z</time>
      </trkpt>
      <trkpt lat="43.03207" lon="0.31062">
        <ele>448.5</ele>
        <time>2026-07-08T06:17:06Z</time>
      </trkpt>
      <trkpt lat="43.03207" lon="0.31061">
        <ele>449.5</ele>
        <time>2026-07-08T06:17:06Z</time>
      </trkpt>
      <trkpt lat="43.03207" lon="0.31061">
        <ele>449.5</ele>
        <time>2026-07-08T06:17:07Z</time>
      </trkpt>
      <trkpt lat="43.03207" lon="0.3106">
        <ele>449.5</ele>
        <time>2026-07-08T06:17:07Z</time>
      </trkpt>
      <trkpt lat="43.03207" lon="0.31059">
        <ele>449.5</ele>
        <time>2026-07-08T06:17:08Z</time>
      </trkpt>
      <trkpt lat="43.03206" lon="0.31058">
        <ele>449.5</ele>
        <time>2026-07-08T06:17:08Z</time>
      </trkpt>
      <trkpt lat="43.03206" lon="0.31057">
        <ele>449.5</ele>
        <time>2026-07-08T06:17:09Z</time>
      </trkpt>
      <trkpt lat="43.03206" lon="0.31056">
        <ele>449.5</ele>
        <time>2026-07-08T06:17:10Z</time>
      </trkpt>
      <trkpt lat="43.03206" lon="0.31055">
        <ele>449.5</ele>
        <time>2026-07-08T06:17:10Z</time>
      </trkpt>
      <trkpt lat="43.03206" lon="0.31055">
        <ele>449.5</ele>
        <time>2026-07-08T06:17:11Z</time>
      </trkpt>
      <trkpt lat="43.03205" lon="0.31052">
        <ele>449.5</ele>
        <time>2026-07-08T06:17:12Z</time>
      </trkpt>
      <trkpt lat="43.03205" lon="0.3105">
        <ele>449.5</ele>
        <time>2026-07-08T06:17:13Z</time>
      </trkpt>
      <trkpt lat="43.03205" lon="0.31049">
        <ele>449.5</ele>
        <time>2026-07-08T06:17:14Z</time>
      </trkpt>
      <trkpt lat="43.03205" lon="0.31048">
        <ele>449.5</ele>
        <time>2026-07-08T06:17:14Z</time>
      </trkpt>
      <trkpt lat="43.03205" lon="0.31047">
        <ele>449.5</ele>
        <time>2026-07-08T06:17:15Z</time>
      </trkpt>
      <trkpt lat="43.03205" lon="0.31047">
        <ele>448.5</ele>
        <time>2026-07-08T06:17:15Z</time>
      </trkpt>
      <trkpt lat="43.03205" lon="0.31046">
        <ele>448.5</ele>
        <time>2026-07-08T06:17:16Z</time>
      </trkpt>
      <trkpt lat="43.03204" lon="0.31044">
        <ele>448.5</ele>
        <time>2026-07-08T06:17:17Z</time>
      </trkpt>
      <trkpt lat="43.03204" lon="0.31043">
        <ele>448.5</ele>
        <time>2026-07-08T06:17:17Z</time>
      </trkpt>
      <trkpt lat="43.03204" lon="0.31042">
        <ele>448.5</ele>
        <time>2026-07-08T06:17:18Z</time>
      </trkpt>
      <trkpt lat="43.03203" lon="0.31042">
        <ele>448.5</ele>
        <time>2026-07-08T06:17:18Z</time>
      </trkpt>
      <trkpt lat="43.03203" lon="0.31041">
        <ele>448.5</ele>
        <time>2026-07-08T06:17:19Z</time>
      </trkpt>
      <trkpt lat="43.03203" lon="0.31039">
        <ele>447.5</ele>
        <time>2026-07-08T06:17:20Z</time>
      </trkpt>
      <trkpt lat="43.03202" lon="0.31038">
        <ele>447.5</ele>
        <time>2026-07-08T06:17:21Z</time>
      </trkpt>
      <trkpt lat="43.03202" lon="0.31037">
        <ele>447.5</ele>
        <time>2026-07-08T06:17:21Z</time>
      </trkpt>
      <trkpt lat="43.03202" lon="0.31036">
        <ele>447.5</ele>
        <time>2026-07-08T06:17:22Z</time>
      </trkpt>
      <trkpt lat="43.03201" lon="0.31035">
        <ele>446.5</ele>
        <time>2026-07-08T06:17:22Z</time>
      </trkpt>
      <trkpt lat="43.03201" lon="0.31035">
        <ele>446.5</ele>
        <time>2026-07-08T06:17:23Z</time>
      </trkpt>
      <trkpt lat="43.03201" lon="0.31033">
        <ele>446.5</ele>
        <time>2026-07-08T06:17:23Z</time>
      </trkpt>
      <trkpt lat="43.032" lon="0.31032">
        <ele>446.5</ele>
        <time>2026-07-08T06:17:24Z</time>
      </trkpt>
      <trkpt lat="43.032" lon="0.31031">
        <ele>446.5</ele>
        <time>2026-07-08T06:17:25Z</time>
      </trkpt>
      <trkpt lat="43.03199" lon="0.3103">
        <ele>446.5</ele>
        <time>2026-07-08T06:17:25Z</time>
      </trkpt>
      <trkpt lat="43.03199" lon="0.31029">
        <ele>446.5</ele>
        <time>2026-07-08T06:17:26Z</time>
      </trkpt>
      <trkpt lat="43.03198" lon="0.31028">
        <ele>445.5</ele>
        <time>2026-07-08T06:17:26Z</time>
      </trkpt>
      <trkpt lat="43.03198" lon="0.31027">
        <ele>446.5</ele>
        <time>2026-07-08T06:17:27Z</time>
      </trkpt>
      <trkpt lat="43.03198" lon="0.31025">
        <ele>446.5</ele>
        <time>2026-07-08T06:17:28Z</time>
      </trkpt>
      <trkpt lat="43.03198" lon="0.31024">
        <ele>446.5</ele>
        <time>2026-07-08T06:17:29Z</time>
      </trkpt>
      <trkpt lat="43.03198" lon="0.31024">
        <ele>446.5</ele>
        <time>2026-07-08T06:17:29Z</time>
      </trkpt>
      <trkpt lat="43.03197" lon="0.31023">
        <ele>446.5</ele>
        <time>2026-07-08T06:17:30Z</time>
      </trkpt>
      <trkpt lat="43.03197" lon="0.31022">
        <ele>446.5</ele>
        <time>2026-07-08T06:17:30Z</time>
      </trkpt>
      <trkpt lat="43.03197" lon="0.31021">
        <ele>446.5</ele>
        <time>2026-07-08T06:17:31Z</time>
      </trkpt>
      <trkpt lat="43.03197" lon="0.3102">
        <ele>446.5</ele>
        <time>2026-07-08T06:17:31Z</time>
      </trkpt>
      <trkpt lat="43.03197" lon="0.31019">
        <ele>446.5</ele>
        <time>2026-07-08T06:17:32Z</time>
      </trkpt>
      <trkpt lat="43.03197" lon="0.31018">
        <ele>446.5</ele>
        <time>2026-07-08T06:17:32Z</time>
      </trkpt>
      <trkpt lat="43.03196" lon="0.31017">
        <ele>446.5</ele>
        <time>2026-07-08T06:17:33Z</time>
      </trkpt>
      <trkpt lat="43.03196" lon="0.31016">
        <ele>445.5</ele>
        <time>2026-07-08T06:17:34Z</time>
      </trkpt>
      <trkpt lat="43.03196" lon="0.31015">
        <ele>444.5</ele>
        <time>2026-07-08T06:17:34Z</time>
      </trkpt>
      <trkpt lat="43.03196" lon="0.31014">
        <ele>444.5</ele>
        <time>2026-07-08T06:17:35Z</time>
      </trkpt>
      <trkpt lat="43.03196" lon="0.31012">
        <ele>444.5</ele>
        <time>2026-07-08T06:17:36Z</time>
      </trkpt>
      <trkpt lat="43.03196" lon="0.31011">
        <ele>444.5</ele>
        <time>2026-07-08T06:17:37Z</time>
      </trkpt>
      <trkpt lat="43.03196" lon="0.3101">
        <ele>445.5</ele>
        <time>2026-07-08T06:17:37Z</time>
      </trkpt>
      <trkpt lat="43.03196" lon="0.3101">
        <ele>445.5</ele>
        <time>2026-07-08T06:17:38Z</time>
      </trkpt>
      <trkpt lat="43.03196" lon="0.31009">
        <ele>445.5</ele>
        <time>2026-07-08T06:17:38Z</time>
      </trkpt>
      <trkpt lat="43.03196" lon="0.31008">
        <ele>445.5</ele>
        <time>2026-07-08T06:17:39Z</time>
      </trkpt>
      <trkpt lat="43.03195" lon="0.31007">
        <ele>445.5</ele>
        <time>2026-07-08T06:17:39Z</time>
      </trkpt>
      <trkpt lat="43.03195" lon="0.31006">
        <ele>445.5</ele>
        <time>2026-07-08T06:17:40Z</time>
      </trkpt>
      <trkpt lat="43.03195" lon="0.31005">
        <ele>445.5</ele>
        <time>2026-07-08T06:17:40Z</time>
      </trkpt>
      <trkpt lat="43.03195" lon="0.31004">
        <ele>445.5</ele>
        <time>2026-07-08T06:17:41Z</time>
      </trkpt>
      <trkpt lat="43.03195" lon="0.31004">
        <ele>445.5</ele>
        <time>2026-07-08T06:17:41Z</time>
      </trkpt>
      <trkpt lat="43.03195" lon="0.31003">
        <ele>445.5</ele>
        <time>2026-07-08T06:17:42Z</time>
      </trkpt>
      <trkpt lat="43.03195" lon="0.31002">
        <ele>445.5</ele>
        <time>2026-07-08T06:17:42Z</time>
      </trkpt>
      <trkpt lat="43.03194" lon="0.31001">
        <ele>445.5</ele>
        <time>2026-07-08T06:17:43Z</time>
      </trkpt>
      <trkpt lat="43.03194" lon="0.30999">
        <ele>445.5</ele>
        <time>2026-07-08T06:17:44Z</time>
      </trkpt>
      <trkpt lat="43.03194" lon="0.30998">
        <ele>444.5</ele>
        <time>2026-07-08T06:17:45Z</time>
      </trkpt>
      <trkpt lat="43.03194" lon="0.30997">
        <ele>444.5</ele>
        <time>2026-07-08T06:17:45Z</time>
      </trkpt>
      <trkpt lat="43.03194" lon="0.30996">
        <ele>444.5</ele>
        <time>2026-07-08T06:17:46Z</time>
      </trkpt>
      <trkpt lat="43.03194" lon="0.30996">
        <ele>445.5</ele>
        <time>2026-07-08T06:17:46Z</time>
      </trkpt>
      <trkpt lat="43.03194" lon="0.30994">
        <ele>445.5</ele>
        <time>2026-07-08T06:17:47Z</time>
      </trkpt>
      <trkpt lat="43.03194" lon="0.30994">
        <ele>445.5</ele>
        <time>2026-07-08T06:17:47Z</time>
      </trkpt>
      <trkpt lat="43.03194" lon="0.30993">
        <ele>445.5</ele>
        <time>2026-07-08T06:17:48Z</time>
      </trkpt>
      <trkpt lat="43.03194" lon="0.30992">
        <ele>445.5</ele>
        <time>2026-07-08T06:17:48Z</time>
      </trkpt>
      <trkpt lat="43.03194" lon="0.3099">
        <ele>445.5</ele>
        <time>2026-07-08T06:17:49Z</time>
      </trkpt>
      <trkpt lat="43.03194" lon="0.3099">
        <ele>444.5</ele>
        <time>2026-07-08T06:17:49Z</time>
      </trkpt>
      <trkpt lat="43.03194" lon="0.30988">
        <ele>444.5</ele>
        <time>2026-07-08T06:17:50Z</time>
      </trkpt>
      <trkpt lat="43.03194" lon="0.30987">
        <ele>444.5</ele>
        <time>2026-07-08T06:17:51Z</time>
      </trkpt>
      <trkpt lat="43.03194" lon="0.30986">
        <ele>444.5</ele>
        <time>2026-07-08T06:17:51Z</time>
      </trkpt>
      <trkpt lat="43.03194" lon="0.30985">
        <ele>444.5</ele>
        <time>2026-07-08T06:17:52Z</time>
      </trkpt>
      <trkpt lat="43.03194" lon="0.30984">
        <ele>445.5</ele>
        <time>2026-07-08T06:17:52Z</time>
      </trkpt>
      <trkpt lat="43.03194" lon="0.30983">
        <ele>445.5</ele>
        <time>2026-07-08T06:17:53Z</time>
      </trkpt>
      <trkpt lat="43.03194" lon="0.30982">
        <ele>446.5</ele>
        <time>2026-07-08T06:17:54Z</time>
      </trkpt>
      <trkpt lat="43.03195" lon="0.30981">
        <ele>446.5</ele>
        <time>2026-07-08T06:17:54Z</time>
      </trkpt>
      <trkpt lat="43.03195" lon="0.30981">
        <ele>446.5</ele>
        <time>2026-07-08T06:17:55Z</time>
      </trkpt>
      <trkpt lat="43.03195" lon="0.30979">
        <ele>446.5</ele>
        <time>2026-07-08T06:17:56Z</time>
      </trkpt>
      <trkpt lat="43.03195" lon="0.30978">
        <ele>445.5</ele>
        <time>2026-07-08T06:17:56Z</time>
      </trkpt>
      <trkpt lat="43.03195" lon="0.30977">
        <ele>445.5</ele>
        <time>2026-07-08T06:17:57Z</time>
      </trkpt>
      <trkpt lat="43.03195" lon="0.30976">
        <ele>445.5</ele>
        <time>2026-07-08T06:17:57Z</time>
      </trkpt>
      <trkpt lat="43.03195" lon="0.30975">
        <ele>445.5</ele>
        <time>2026-07-08T06:17:58Z</time>
      </trkpt>
      <trkpt lat="43.03195" lon="0.30973">
        <ele>445.5</ele>
        <time>2026-07-08T06:17:59Z</time>
      </trkpt>
      <trkpt lat="43.03195" lon="0.30972">
        <ele>446.5</ele>
        <time>2026-07-08T06:18:00Z</time>
      </trkpt>
      <trkpt lat="43.03195" lon="0.30971">
        <ele>446.5</ele>
        <time>2026-07-08T06:18:00Z</time>
      </trkpt>
      <trkpt lat="43.03194" lon="0.3097">
        <ele>446.5</ele>
        <time>2026-07-08T06:18:01Z</time>
      </trkpt>
      <trkpt lat="43.03194" lon="0.3097">
        <ele>446.5</ele>
        <time>2026-07-08T06:18:01Z</time>
      </trkpt>
      <trkpt lat="43.03194" lon="0.30968">
        <ele>445.5</ele>
        <time>2026-07-08T06:18:02Z</time>
      </trkpt>
      <trkpt lat="43.03194" lon="0.30967">
        <ele>445.5</ele>
        <time>2026-07-08T06:18:02Z</time>
      </trkpt>
      <trkpt lat="43.03194" lon="0.30966">
        <ele>445.5</ele>
        <time>2026-07-08T06:18:03Z</time>
      </trkpt>
      <trkpt lat="43.03194" lon="0.30966">
        <ele>445.5</ele>
        <time>2026-07-08T06:18:03Z</time>
      </trkpt>
      <trkpt lat="43.03194" lon="0.30964">
        <ele>445.5</ele>
        <time>2026-07-08T06:18:04Z</time>
      </trkpt>
      <trkpt lat="43.03194" lon="0.30963">
        <ele>445.5</ele>
        <time>2026-07-08T06:18:04Z</time>
      </trkpt>
      <trkpt lat="43.03194" lon="0.30962">
        <ele>445.5</ele>
        <time>2026-07-08T06:18:05Z</time>
      </trkpt>
      <trkpt lat="43.03194" lon="0.30962">
        <ele>445.5</ele>
        <time>2026-07-08T06:18:05Z</time>
      </trkpt>
      <trkpt lat="43.03194" lon="0.3096">
        <ele>445.5</ele>
        <time>2026-07-08T06:18:06Z</time>
      </trkpt>
      <trkpt lat="43.03194" lon="0.30958">
        <ele>444.5</ele>
        <time>2026-07-08T06:18:07Z</time>
      </trkpt>
      <trkpt lat="43.03194" lon="0.30957">
        <ele>444.5</ele>
        <time>2026-07-08T06:18:07Z</time>
      </trkpt>
      <trkpt lat="43.03194" lon="0.30956">
        <ele>444.5</ele>
        <time>2026-07-08T06:18:08Z</time>
      </trkpt>
      <trkpt lat="43.03194" lon="0.30956">
        <ele>444.5</ele>
        <time>2026-07-08T06:18:09Z</time>
      </trkpt>
      <trkpt lat="43.03193" lon="0.30954">
        <ele>444.5</ele>
        <time>2026-07-08T06:18:09Z</time>
      </trkpt>
      <trkpt lat="43.03193" lon="0.30954">
        <ele>444.5</ele>
        <time>2026-07-08T06:18:10Z</time>
      </trkpt>
      <trkpt lat="43.03193" lon="0.30953">
        <ele>444.5</ele>
        <time>2026-07-08T06:18:10Z</time>
      </trkpt>
      <trkpt lat="43.03193" lon="0.30952">
        <ele>444.5</ele>
        <time>2026-07-08T06:18:11Z</time>
      </trkpt>
      <trkpt lat="43.03192" lon="0.30951">
        <ele>444.5</ele>
        <time>2026-07-08T06:18:11Z</time>
      </trkpt>
      <trkpt lat="43.03192" lon="0.3095">
        <ele>444.5</ele>
        <time>2026-07-08T06:18:12Z</time>
      </trkpt>
      <trkpt lat="43.03192" lon="0.30949">
        <ele>444.5</ele>
        <time>2026-07-08T06:18:12Z</time>
      </trkpt>
      <trkpt lat="43.03192" lon="0.30948">
        <ele>444.5</ele>
        <time>2026-07-08T06:18:13Z</time>
      </trkpt>
      <trkpt lat="43.03191" lon="0.30946">
        <ele>444.5</ele>
        <time>2026-07-08T06:18:14Z</time>
      </trkpt>
      <trkpt lat="43.03191" lon="0.30945">
        <ele>444.5</ele>
        <time>2026-07-08T06:18:15Z</time>
      </trkpt>
      <trkpt lat="43.03191" lon="0.30944">
        <ele>444.5</ele>
        <time>2026-07-08T06:18:15Z</time>
      </trkpt>
      <trkpt lat="43.03191" lon="0.30943">
        <ele>445.5</ele>
        <time>2026-07-08T06:18:16Z</time>
      </trkpt>
      <trkpt lat="43.0319" lon="0.30943">
        <ele>445.5</ele>
        <time>2026-07-08T06:18:16Z</time>
      </trkpt>
      <trkpt lat="43.0319" lon="0.30942">
        <ele>445.5</ele>
        <time>2026-07-08T06:18:17Z</time>
      </trkpt>
      <trkpt lat="43.0319" lon="0.30941">
        <ele>445.5</ele>
        <time>2026-07-08T06:18:17Z</time>
      </trkpt>
      <trkpt lat="43.03189" lon="0.3094">
        <ele>445.5</ele>
        <time>2026-07-08T06:18:18Z</time>
      </trkpt>
      <trkpt lat="43.03189" lon="0.30939">
        <ele>445.5</ele>
        <time>2026-07-08T06:18:18Z</time>
      </trkpt>
      <trkpt lat="43.03189" lon="0.30938">
        <ele>445.5</ele>
        <time>2026-07-08T06:18:19Z</time>
      </trkpt>
      <trkpt lat="43.03189" lon="0.30938">
        <ele>446.5</ele>
        <time>2026-07-08T06:18:19Z</time>
      </trkpt>
      <trkpt lat="43.03188" lon="0.30937">
        <ele>446.5</ele>
        <time>2026-07-08T06:18:20Z</time>
      </trkpt>
      <trkpt lat="43.03188" lon="0.30936">
        <ele>446.5</ele>
        <time>2026-07-08T06:18:20Z</time>
      </trkpt>
      <trkpt lat="43.03188" lon="0.30935">
        <ele>446.5</ele>
        <time>2026-07-08T06:18:21Z</time>
      </trkpt>
      <trkpt lat="43.03188" lon="0.30934">
        <ele>446.5</ele>
        <time>2026-07-08T06:18:22Z</time>
      </trkpt>
      <trkpt lat="43.03187" lon="0.30934">
        <ele>446.5</ele>
        <time>2026-07-08T06:18:22Z</time>
      </trkpt>
      <trkpt lat="43.03187" lon="0.30933">
        <ele>446.5</ele>
        <time>2026-07-08T06:18:23Z</time>
      </trkpt>
      <trkpt lat="43.03187" lon="0.30933">
        <ele>445.5</ele>
        <time>2026-07-08T06:18:23Z</time>
      </trkpt>
      <trkpt lat="43.03187" lon="0.30932">
        <ele>446.5</ele>
        <time>2026-07-08T06:18:24Z</time>
      </trkpt>
      <trkpt lat="43.03186" lon="0.30931">
        <ele>446.5</ele>
        <time>2026-07-08T06:18:25Z</time>
      </trkpt>
      <trkpt lat="43.03186" lon="0.30931">
        <ele>445.5</ele>
        <time>2026-07-08T06:18:25Z</time>
      </trkpt>
      <trkpt lat="43.03186" lon="0.30931">
        <ele>445.5</ele>
        <time>2026-07-08T06:18:26Z</time>
      </trkpt>
      <trkpt lat="43.03186" lon="0.30931">
        <ele>445.5</ele>
        <time>2026-07-08T06:18:26Z</time>
      </trkpt>
      <trkpt lat="43.03186" lon="0.30931">
        <ele>445.5</ele>
        <time>2026-07-08T06:18:27Z</time>
      </trkpt>
      <trkpt lat="43.03186" lon="0.30932">
        <ele>445.5</ele>
        <time>2026-07-08T06:18:27Z</time>
      </trkpt>
      <trkpt lat="43.03186" lon="0.30932">
        <ele>445.5</ele>
        <time>2026-07-08T06:18:28Z</time>
      </trkpt>
      <trkpt lat="43.03186" lon="0.30932">
        <ele>445.5</ele>
        <time>2026-07-08T06:18:28Z</time>
      </trkpt>
      <trkpt lat="43.03186" lon="0.30931">
        <ele>445.5</ele>
        <time>2026-07-08T06:18:29Z</time>
      </trkpt>
      <trkpt lat="43.03185" lon="0.3093">
        <ele>445.5</ele>
        <time>2026-07-08T06:18:29Z</time>
      </trkpt>
      <trkpt lat="43.03185" lon="0.3093">
        <ele>445.5</ele>
        <time>2026-07-08T06:18:30Z</time>
      </trkpt>
      <trkpt lat="43.03184" lon="0.30929">
        <ele>445.5</ele>
        <time>2026-07-08T06:18:31Z</time>
      </trkpt>
      <trkpt lat="43.03183" lon="0.30929">
        <ele>444.5</ele>
        <time>2026-07-08T06:18:31Z</time>
      </trkpt>
      <trkpt lat="43.03181" lon="0.30928">
        <ele>444.5</ele>
        <time>2026-07-08T06:18:32Z</time>
      </trkpt>
      <trkpt lat="43.0318" lon="0.30928">
        <ele>445.5</ele>
        <time>2026-07-08T06:18:32Z</time>
      </trkpt>
      <trkpt lat="43.03179" lon="0.30928">
        <ele>445.5</ele>
        <time>2026-07-08T06:18:33Z</time>
      </trkpt>
      <trkpt lat="43.03178" lon="0.30928">
        <ele>444.5</ele>
        <time>2026-07-08T06:18:33Z</time>
      </trkpt>
      <trkpt lat="43.03177" lon="0.30928">
        <ele>444.5</ele>
        <time>2026-07-08T06:18:34Z</time>
      </trkpt>
      <trkpt lat="43.03176" lon="0.30929">
        <ele>445.5</ele>
        <time>2026-07-08T06:18:34Z</time>
      </trkpt>
      <trkpt lat="43.03175" lon="0.30929">
        <ele>445.5</ele>
        <time>2026-07-08T06:18:35Z</time>
      </trkpt>
      <trkpt lat="43.03173" lon="0.3093">
        <ele>445.5</ele>
        <time>2026-07-08T06:18:36Z</time>
      </trkpt>
      <trkpt lat="43.03172" lon="0.3093">
        <ele>444.5</ele>
        <time>2026-07-08T06:18:37Z</time>
      </trkpt>
      <trkpt lat="43.03171" lon="0.30931">
        <ele>444.5</ele>
        <time>2026-07-08T06:18:38Z</time>
      </trkpt>
      <trkpt lat="43.03171" lon="0.30931">
        <ele>445.5</ele>
        <time>2026-07-08T06:18:38Z</time>
      </trkpt>
      <trkpt lat="43.0317" lon="0.30931">
        <ele>445.5</ele>
        <time>2026-07-08T06:18:39Z</time>
      </trkpt>
      <trkpt lat="43.0317" lon="0.30931">
        <ele>445.5</ele>
        <time>2026-07-08T06:18:40Z</time>
      </trkpt>
      <trkpt lat="43.03169" lon="0.30931">
        <ele>445.5</ele>
        <time>2026-07-08T06:18:40Z</time>
      </trkpt>
      <trkpt lat="43.03168" lon="0.30931">
        <ele>445.5</ele>
        <time>2026-07-08T06:18:41Z</time>
      </trkpt>
      <trkpt lat="43.03168" lon="0.30931">
        <ele>446.5</ele>
        <time>2026-07-08T06:18:41Z</time>
      </trkpt>
      <trkpt lat="43.03167" lon="0.30931">
        <ele>446.5</ele>
        <time>2026-07-08T06:18:42Z</time>
      </trkpt>
      <trkpt lat="43.03167" lon="0.30931">
        <ele>446.5</ele>
        <time>2026-07-08T06:18:42Z</time>
      </trkpt>
      <trkpt lat="43.03166" lon="0.30931">
        <ele>446.5</ele>
        <time>2026-07-08T06:18:43Z</time>
      </trkpt>
      <trkpt lat="43.03165" lon="0.30931">
        <ele>446.5</ele>
        <time>2026-07-08T06:18:43Z</time>
      </trkpt>
      <trkpt lat="43.03165" lon="0.30931">
        <ele>446.5</ele>
        <time>2026-07-08T06:18:44Z</time>
      </trkpt>
      <trkpt lat="43.03164" lon="0.3093">
        <ele>446.5</ele>
        <time>2026-07-08T06:18:45Z</time>
      </trkpt>
      <trkpt lat="43.03163" lon="0.3093">
        <ele>446.5</ele>
        <time>2026-07-08T06:18:45Z</time>
      </trkpt>
      <trkpt lat="43.03163" lon="0.3093">
        <ele>446.5</ele>
        <time>2026-07-08T06:18:46Z</time>
      </trkpt>
      <trkpt lat="43.03162" lon="0.3093">
        <ele>446.5</ele>
        <time>2026-07-08T06:18:46Z</time>
      </trkpt>
      <trkpt lat="43.03161" lon="0.3093">
        <ele>446.5</ele>
        <time>2026-07-08T06:18:47Z</time>
      </trkpt>
      <trkpt lat="43.03161" lon="0.3093">
        <ele>446.5</ele>
        <time>2026-07-08T06:18:47Z</time>
      </trkpt>
      <trkpt lat="43.0316" lon="0.3093">
        <ele>446.5</ele>
        <time>2026-07-08T06:18:48Z</time>
      </trkpt>
      <trkpt lat="43.03159" lon="0.3093">
        <ele>446.5</ele>
        <time>2026-07-08T06:18:48Z</time>
      </trkpt>
      <trkpt lat="43.03158" lon="0.3093">
        <ele>446.5</ele>
        <time>2026-07-08T06:18:49Z</time>
      </trkpt>
      <trkpt lat="43.03157" lon="0.3093">
        <ele>447.5</ele>
        <time>2026-07-08T06:18:50Z</time>
      </trkpt>
      <trkpt lat="43.03156" lon="0.3093">
        <ele>447.5</ele>
        <time>2026-07-08T06:18:51Z</time>
      </trkpt>
      <trkpt lat="43.03156" lon="0.3093">
        <ele>447.5</ele>
        <time>2026-07-08T06:18:51Z</time>
      </trkpt>
      <trkpt lat="43.03155" lon="0.3093">
        <ele>447.5</ele>
        <time>2026-07-08T06:18:52Z</time>
      </trkpt>
      <trkpt lat="43.03155" lon="0.3093">
        <ele>447.5</ele>
        <time>2026-07-08T06:18:52Z</time>
      </trkpt>
      <trkpt lat="43.03154" lon="0.3093">
        <ele>447.5</ele>
        <time>2026-07-08T06:18:53Z</time>
      </trkpt>
      <trkpt lat="43.03153" lon="0.3093">
        <ele>447.5</ele>
        <time>2026-07-08T06:18:53Z</time>
      </trkpt>
      <trkpt lat="43.03152" lon="0.3093">
        <ele>447.5</ele>
        <time>2026-07-08T06:18:54Z</time>
      </trkpt>
      <trkpt lat="43.03152" lon="0.3093">
        <ele>447.5</ele>
        <time>2026-07-08T06:18:55Z</time>
      </trkpt>
      <trkpt lat="43.03151" lon="0.3093">
        <ele>447.5</ele>
        <time>2026-07-08T06:18:55Z</time>
      </trkpt>
      <trkpt lat="43.03151" lon="0.3093">
        <ele>447.5</ele>
        <time>2026-07-08T06:18:56Z</time>
      </trkpt>
      <trkpt lat="43.0315" lon="0.3093">
        <ele>447.5</ele>
        <time>2026-07-08T06:18:56Z</time>
      </trkpt>
      <trkpt lat="43.03149" lon="0.30929">
        <ele>447.5</ele>
        <time>2026-07-08T06:18:57Z</time>
      </trkpt>
      <trkpt lat="43.03149" lon="0.30929">
        <ele>447.5</ele>
        <time>2026-07-08T06:18:57Z</time>
      </trkpt>
      <trkpt lat="43.03148" lon="0.30929">
        <ele>447.5</ele>
        <time>2026-07-08T06:18:58Z</time>
      </trkpt>
      <trkpt lat="43.03147" lon="0.30929">
        <ele>447.5</ele>
        <time>2026-07-08T06:18:58Z</time>
      </trkpt>
      <trkpt lat="43.03147" lon="0.30928">
        <ele>447.5</ele>
        <time>2026-07-08T06:18:59Z</time>
      </trkpt>
      <trkpt lat="43.03146" lon="0.30928">
        <ele>447.5</ele>
        <time>2026-07-08T06:19:00Z</time>
      </trkpt>
      <trkpt lat="43.03145" lon="0.30928">
        <ele>447.5</ele>
        <time>2026-07-08T06:19:00Z</time>
      </trkpt>
      <trkpt lat="43.03145" lon="0.30927">
        <ele>447.5</ele>
        <time>2026-07-08T06:19:01Z</time>
      </trkpt>
      <trkpt lat="43.03144" lon="0.30927">
        <ele>447.5</ele>
        <time>2026-07-08T06:19:01Z</time>
      </trkpt>
      <trkpt lat="43.03144" lon="0.30926">
        <ele>447.5</ele>
        <time>2026-07-08T06:19:02Z</time>
      </trkpt>
      <trkpt lat="43.03143" lon="0.30926">
        <ele>447.5</ele>
        <time>2026-07-08T06:19:02Z</time>
      </trkpt>
      <trkpt lat="43.03142" lon="0.30926">
        <ele>447.5</ele>
        <time>2026-07-08T06:19:03Z</time>
      </trkpt>
      <trkpt lat="43.03142" lon="0.30925">
        <ele>446.5</ele>
        <time>2026-07-08T06:19:04Z</time>
      </trkpt>
      <trkpt lat="43.03141" lon="0.30925">
        <ele>446.5</ele>
        <time>2026-07-08T06:19:04Z</time>
      </trkpt>
      <trkpt lat="43.03141" lon="0.30925">
        <ele>446.5</ele>
        <time>2026-07-08T06:19:05Z</time>
      </trkpt>
      <trkpt lat="43.0314" lon="0.30924">
        <ele>446.5</ele>
        <time>2026-07-08T06:19:05Z</time>
      </trkpt>
      <trkpt lat="43.0314" lon="0.30924">
        <ele>446.5</ele>
        <time>2026-07-08T06:19:06Z</time>
      </trkpt>
      <trkpt lat="43.03139" lon="0.30923">
        <ele>447.5</ele>
        <time>2026-07-08T06:19:06Z</time>
      </trkpt>
      <trkpt lat="43.03139" lon="0.30923">
        <ele>447.5</ele>
        <time>2026-07-08T06:19:07Z</time>
      </trkpt>
      <trkpt lat="43.03138" lon="0.30922">
        <ele>447.5</ele>
        <time>2026-07-08T06:19:08Z</time>
      </trkpt>
      <trkpt lat="43.03137" lon="0.30921">
        <ele>447.5</ele>
        <time>2026-07-08T06:19:09Z</time>
      </trkpt>
      <trkpt lat="43.03137" lon="0.30921">
        <ele>447.5</ele>
        <time>2026-07-08T06:19:09Z</time>
      </trkpt>
      <trkpt lat="43.03136" lon="0.3092">
        <ele>447.5</ele>
        <time>2026-07-08T06:19:10Z</time>
      </trkpt>
      <trkpt lat="43.03135" lon="0.3092">
        <ele>448.5</ele>
        <time>2026-07-08T06:19:10Z</time>
      </trkpt>
      <trkpt lat="43.03135" lon="0.30919">
        <ele>448.5</ele>
        <time>2026-07-08T06:19:11Z</time>
      </trkpt>
      <trkpt lat="43.03134" lon="0.30919">
        <ele>449.5</ele>
        <time>2026-07-08T06:19:12Z</time>
      </trkpt>
      <trkpt lat="43.03134" lon="0.30919">
        <ele>449.5</ele>
        <time>2026-07-08T06:19:12Z</time>
      </trkpt>
      <trkpt lat="43.03134" lon="0.30918">
        <ele>449.5</ele>
        <time>2026-07-08T06:19:13Z</time>
      </trkpt>
      <trkpt lat="43.03133" lon="0.30918">
        <ele>449.5</ele>
        <time>2026-07-08T06:19:13Z</time>
      </trkpt>
      <trkpt lat="43.03133" lon="0.30917">
        <ele>449.5</ele>
        <time>2026-07-08T06:19:14Z</time>
      </trkpt>
      <trkpt lat="43.03132" lon="0.30917">
        <ele>449.5</ele>
        <time>2026-07-08T06:19:14Z</time>
      </trkpt>
      <trkpt lat="43.03132" lon="0.30916">
        <ele>449.5</ele>
        <time>2026-07-08T06:19:15Z</time>
      </trkpt>
      <trkpt lat="43.03131" lon="0.30915">
        <ele>450.5</ele>
        <time>2026-07-08T06:19:16Z</time>
      </trkpt>
      <trkpt lat="43.03131" lon="0.30915">
        <ele>450.5</ele>
        <time>2026-07-08T06:19:16Z</time>
      </trkpt>
      <trkpt lat="43.03131" lon="0.30914">
        <ele>450.5</ele>
        <time>2026-07-08T06:19:17Z</time>
      </trkpt>
      <trkpt lat="43.03131" lon="0.30913">
        <ele>451.5</ele>
        <time>2026-07-08T06:19:17Z</time>
      </trkpt>
      <trkpt lat="43.0313" lon="0.30912">
        <ele>451.5</ele>
        <time>2026-07-08T06:19:18Z</time>
      </trkpt>
      <trkpt lat="43.0313" lon="0.30911">
        <ele>450.5</ele>
        <time>2026-07-08T06:19:19Z</time>
      </trkpt>
      <trkpt lat="43.0313" lon="0.3091">
        <ele>450.5</ele>
        <time>2026-07-08T06:19:19Z</time>
      </trkpt>
      <trkpt lat="43.0313" lon="0.3091">
        <ele>450.5</ele>
        <time>2026-07-08T06:19:20Z</time>
      </trkpt>
      <trkpt lat="43.0313" lon="0.30909">
        <ele>451.5</ele>
        <time>2026-07-08T06:19:20Z</time>
      </trkpt>
      <trkpt lat="43.0313" lon="0.30908">
        <ele>451.5</ele>
        <time>2026-07-08T06:19:21Z</time>
      </trkpt>
      <trkpt lat="43.0313" lon="0.30908">
        <ele>451.5</ele>
        <time>2026-07-08T06:19:21Z</time>
      </trkpt>
      <trkpt lat="43.0313" lon="0.30907">
        <ele>451.5</ele>
        <time>2026-07-08T06:19:22Z</time>
      </trkpt>
      <trkpt lat="43.0313" lon="0.30906">
        <ele>451.5</ele>
        <time>2026-07-08T06:19:23Z</time>
      </trkpt>
      <trkpt lat="43.0313" lon="0.30905">
        <ele>451.5</ele>
        <time>2026-07-08T06:19:23Z</time>
      </trkpt>
      <trkpt lat="43.03131" lon="0.30904">
        <ele>452.5</ele>
        <time>2026-07-08T06:19:24Z</time>
      </trkpt>
      <trkpt lat="43.03131" lon="0.30904">
        <ele>452.5</ele>
        <time>2026-07-08T06:19:24Z</time>
      </trkpt>
      <trkpt lat="43.03131" lon="0.30903">
        <ele>452.5</ele>
        <time>2026-07-08T06:19:25Z</time>
      </trkpt>
      <trkpt lat="43.03131" lon="0.30902">
        <ele>452.5</ele>
        <time>2026-07-08T06:19:25Z</time>
      </trkpt>
      <trkpt lat="43.03131" lon="0.30901">
        <ele>452.5</ele>
        <time>2026-07-08T06:19:26Z</time>
      </trkpt>
      <trkpt lat="43.03132" lon="0.309">
        <ele>452.5</ele>
        <time>2026-07-08T06:19:27Z</time>
      </trkpt>
      <trkpt lat="43.03132" lon="0.309">
        <ele>453.5</ele>
        <time>2026-07-08T06:19:27Z</time>
      </trkpt>
      <trkpt lat="43.03133" lon="0.30899">
        <ele>453.5</ele>
        <time>2026-07-08T06:19:28Z</time>
      </trkpt>
      <trkpt lat="43.03133" lon="0.30898">
        <ele>454.5</ele>
        <time>2026-07-08T06:19:28Z</time>
      </trkpt>
      <trkpt lat="43.03133" lon="0.30897">
        <ele>454.5</ele>
        <time>2026-07-08T06:19:29Z</time>
      </trkpt>
      <trkpt lat="43.03134" lon="0.30897">
        <ele>453.5</ele>
        <time>2026-07-08T06:19:29Z</time>
      </trkpt>
      <trkpt lat="43.03134" lon="0.30896">
        <ele>453.5</ele>
        <time>2026-07-08T06:19:30Z</time>
      </trkpt>
      <trkpt lat="43.03135" lon="0.30895">
        <ele>453.5</ele>
        <time>2026-07-08T06:19:31Z</time>
      </trkpt>
      <trkpt lat="43.03135" lon="0.30894">
        <ele>453.5</ele>
        <time>2026-07-08T06:19:31Z</time>
      </trkpt>
      <trkpt lat="43.03136" lon="0.30894">
        <ele>453.5</ele>
        <time>2026-07-08T06:19:32Z</time>
      </trkpt>
      <trkpt lat="43.03136" lon="0.30893">
        <ele>454.5</ele>
        <time>2026-07-08T06:19:32Z</time>
      </trkpt>
      <trkpt lat="43.03137" lon="0.30892">
        <ele>454.5</ele>
        <time>2026-07-08T06:19:33Z</time>
      </trkpt>
      <trkpt lat="43.03137" lon="0.30892">
        <ele>454.5</ele>
        <time>2026-07-08T06:19:33Z</time>
      </trkpt>
      <trkpt lat="43.03137" lon="0.30891">
        <ele>454.5</ele>
        <time>2026-07-08T06:19:34Z</time>
      </trkpt>
      <trkpt lat="43.03138" lon="0.3089">
        <ele>454.5</ele>
        <time>2026-07-08T06:19:35Z</time>
      </trkpt>
      <trkpt lat="43.03138" lon="0.30889">
        <ele>454.5</ele>
        <time>2026-07-08T06:19:35Z</time>
      </trkpt>
      <trkpt lat="43.03139" lon="0.30889">
        <ele>454.5</ele>
        <time>2026-07-08T06:19:36Z</time>
      </trkpt>
      <trkpt lat="43.03139" lon="0.30888">
        <ele>454.5</ele>
        <time>2026-07-08T06:19:36Z</time>
      </trkpt>
      <trkpt lat="43.03139" lon="0.30887">
        <ele>454.5</ele>
        <time>2026-07-08T06:19:37Z</time>
      </trkpt>
      <trkpt lat="43.03139" lon="0.30886">
        <ele>453.5</ele>
        <time>2026-07-08T06:19:37Z</time>
      </trkpt>
      <trkpt lat="43.0314" lon="0.30885">
        <ele>453.5</ele>
        <time>2026-07-08T06:19:38Z</time>
      </trkpt>
      <trkpt lat="43.0314" lon="0.30884">
        <ele>453.5</ele>
        <time>2026-07-08T06:19:39Z</time>
      </trkpt>
      <trkpt lat="43.0314" lon="0.30884">
        <ele>454.5</ele>
        <time>2026-07-08T06:19:39Z</time>
      </trkpt>
      <trkpt lat="43.0314" lon="0.30883">
        <ele>454.5</ele>
        <time>2026-07-08T06:19:40Z</time>
      </trkpt>
      <trkpt lat="43.0314" lon="0.30882">
        <ele>455.5</ele>
        <time>2026-07-08T06:19:40Z</time>
      </trkpt>
      <trkpt lat="43.0314" lon="0.30881">
        <ele>455.5</ele>
        <time>2026-07-08T06:19:41Z</time>
      </trkpt>
      <trkpt lat="43.0314" lon="0.3088">
        <ele>455.5</ele>
        <time>2026-07-08T06:19:42Z</time>
      </trkpt>
      <trkpt lat="43.0314" lon="0.30879">
        <ele>456.5</ele>
        <time>2026-07-08T06:19:42Z</time>
      </trkpt>
      <trkpt lat="43.0314" lon="0.30879">
        <ele>456.5</ele>
        <time>2026-07-08T06:19:43Z</time>
      </trkpt>
      <trkpt lat="43.03139" lon="0.30878">
        <ele>456.5</ele>
        <time>2026-07-08T06:19:43Z</time>
      </trkpt>
      <trkpt lat="43.03139" lon="0.30878">
        <ele>456.5</ele>
        <time>2026-07-08T06:19:44Z</time>
      </trkpt>
      <trkpt lat="43.03139" lon="0.30877">
        <ele>456.5</ele>
        <time>2026-07-08T06:19:45Z</time>
      </trkpt>
      <trkpt lat="43.03139" lon="0.30876">
        <ele>455.5</ele>
        <time>2026-07-08T06:19:45Z</time>
      </trkpt>
      <trkpt lat="43.03139" lon="0.30875">
        <ele>455.5</ele>
        <time>2026-07-08T06:19:46Z</time>
      </trkpt>
      <trkpt lat="43.03139" lon="0.30874">
        <ele>456.5</ele>
        <time>2026-07-08T06:19:46Z</time>
      </trkpt>
      <trkpt lat="43.03139" lon="0.30873">
        <ele>456.5</ele>
        <time>2026-07-08T06:19:47Z</time>
      </trkpt>
      <trkpt lat="43.03139" lon="0.30873">
        <ele>456.5</ele>
        <time>2026-07-08T06:19:47Z</time>
      </trkpt>
      <trkpt lat="43.03139" lon="0.30872">
        <ele>456.5</ele>
        <time>2026-07-08T06:19:48Z</time>
      </trkpt>
      <trkpt lat="43.03139" lon="0.30871">
        <ele>456.5</ele>
        <time>2026-07-08T06:19:49Z</time>
      </trkpt>
      <trkpt lat="43.0314" lon="0.3087">
        <ele>457.5</ele>
        <time>2026-07-08T06:19:49Z</time>
      </trkpt>
      <trkpt lat="43.0314" lon="0.3087">
        <ele>457.5</ele>
        <time>2026-07-08T06:19:50Z</time>
      </trkpt>
      <trkpt lat="43.0314" lon="0.30869">
        <ele>457.5</ele>
        <time>2026-07-08T06:19:50Z</time>
      </trkpt>
      <trkpt lat="43.0314" lon="0.30868">
        <ele>457.5</ele>
        <time>2026-07-08T06:19:51Z</time>
      </trkpt>
      <trkpt lat="43.0314" lon="0.30867">
        <ele>457.5</ele>
        <time>2026-07-08T06:19:52Z</time>
      </trkpt>
      <trkpt lat="43.0314" lon="0.30867">
        <ele>457.5</ele>
        <time>2026-07-08T06:19:52Z</time>
      </trkpt>
      <trkpt lat="43.0314" lon="0.30866">
        <ele>457.5</ele>
        <time>2026-07-08T06:19:53Z</time>
      </trkpt>
      <trkpt lat="43.0314" lon="0.30865">
        <ele>458.5</ele>
        <time>2026-07-08T06:19:53Z</time>
      </trkpt>
      <trkpt lat="43.0314" lon="0.30864">
        <ele>458.5</ele>
        <time>2026-07-08T06:19:54Z</time>
      </trkpt>
      <trkpt lat="43.0314" lon="0.30863">
        <ele>458.5</ele>
        <time>2026-07-08T06:19:55Z</time>
      </trkpt>
      <trkpt lat="43.0314" lon="0.30862">
        <ele>458.5</ele>
        <time>2026-07-08T06:19:55Z</time>
      </trkpt>
      <trkpt lat="43.0314" lon="0.30862">
        <ele>458.5</ele>
        <time>2026-07-08T06:19:56Z</time>
      </trkpt>
      <trkpt lat="43.0314" lon="0.30861">
        <ele>459.5</ele>
        <time>2026-07-08T06:19:56Z</time>
      </trkpt>
      <trkpt lat="43.03139" lon="0.3086">
        <ele>459.5</ele>
        <time>2026-07-08T06:19:57Z</time>
      </trkpt>
      <trkpt lat="43.03139" lon="0.30859">
        <ele>459.5</ele>
        <time>2026-07-08T06:19:57Z</time>
      </trkpt>
      <trkpt lat="43.03139" lon="0.30858">
        <ele>459.5</ele>
        <time>2026-07-08T06:19:58Z</time>
      </trkpt>
      <trkpt lat="43.03139" lon="0.30857">
        <ele>459.5</ele>
        <time>2026-07-08T06:19:59Z</time>
      </trkpt>
      <trkpt lat="43.03139" lon="0.30857">
        <ele>458.5</ele>
        <time>2026-07-08T06:19:59Z</time>
      </trkpt>
      <trkpt lat="43.03139" lon="0.30856">
        <ele>458.5</ele>
        <time>2026-07-08T06:20:00Z</time>
      </trkpt>
      <trkpt lat="43.03139" lon="0.30855">
        <ele>459.5</ele>
        <time>2026-07-08T06:20:00Z</time>
      </trkpt>
      <trkpt lat="43.03138" lon="0.30854">
        <ele>459.5</ele>
        <time>2026-07-08T06:20:01Z</time>
      </trkpt>
      <trkpt lat="43.03138" lon="0.30853">
        <ele>459.5</ele>
        <time>2026-07-08T06:20:01Z</time>
      </trkpt>
      <trkpt lat="43.03138" lon="0.30853">
        <ele>459.5</ele>
        <time>2026-07-08T06:20:02Z</time>
      </trkpt>
      <trkpt lat="43.03138" lon="0.30852">
        <ele>459.5</ele>
        <time>2026-07-08T06:20:03Z</time>
      </trkpt>
      <trkpt lat="43.03138" lon="0.30851">
        <ele>460.5</ele>
        <time>2026-07-08T06:20:03Z</time>
      </trkpt>
      <trkpt lat="43.03137" lon="0.3085">
        <ele>460.5</ele>
        <time>2026-07-08T06:20:04Z</time>
      </trkpt>
      <trkpt lat="43.03137" lon="0.3085">
        <ele>460.5</ele>
        <time>2026-07-08T06:20:04Z</time>
      </trkpt>
      <trkpt lat="43.03137" lon="0.30849">
        <ele>460.5</ele>
        <time>2026-07-08T06:20:05Z</time>
      </trkpt>
      <trkpt lat="43.03137" lon="0.30848">
        <ele>460.5</ele>
        <time>2026-07-08T06:20:06Z</time>
      </trkpt>
      <trkpt lat="43.03137" lon="0.30847">
        <ele>460.5</ele>
        <time>2026-07-08T06:20:06Z</time>
      </trkpt>
      <trkpt lat="43.03136" lon="0.30847">
        <ele>460.5</ele>
        <time>2026-07-08T06:20:07Z</time>
      </trkpt>
      <trkpt lat="43.03136" lon="0.30846">
        <ele>460.5</ele>
        <time>2026-07-08T06:20:07Z</time>
      </trkpt>
      <trkpt lat="43.03135" lon="0.30845">
        <ele>460.5</ele>
        <time>2026-07-08T06:20:08Z</time>
      </trkpt>
      <trkpt lat="43.03135" lon="0.30845">
        <ele>460.5</ele>
        <time>2026-07-08T06:20:08Z</time>
      </trkpt>
      <trkpt lat="43.03134" lon="0.30844">
        <ele>460.5</ele>
        <time>2026-07-08T06:20:09Z</time>
      </trkpt>
      <trkpt lat="43.03134" lon="0.30843">
        <ele>460.5</ele>
        <time>2026-07-08T06:20:10Z</time>
      </trkpt>
      <trkpt lat="43.03133" lon="0.30843">
        <ele>460.5</ele>
        <time>2026-07-08T06:20:10Z</time>
      </trkpt>
      <trkpt lat="43.03133" lon="0.30842">
        <ele>460.5</ele>
        <time>2026-07-08T06:20:11Z</time>
      </trkpt>
      <trkpt lat="43.03132" lon="0.30842">
        <ele>460.5</ele>
        <time>2026-07-08T06:20:11Z</time>
      </trkpt>
      <trkpt lat="43.03132" lon="0.30841">
        <ele>460.5</ele>
        <time>2026-07-08T06:20:12Z</time>
      </trkpt>
      <trkpt lat="43.03131" lon="0.3084">
        <ele>459.5</ele>
        <time>2026-07-08T06:20:12Z</time>
      </trkpt>
      <trkpt lat="43.03131" lon="0.3084">
        <ele>459.5</ele>
        <time>2026-07-08T06:20:13Z</time>
      </trkpt>
      <trkpt lat="43.0313" lon="0.30839">
        <ele>459.5</ele>
        <time>2026-07-08T06:20:14Z</time>
      </trkpt>
      <trkpt lat="43.0313" lon="0.30839">
        <ele>459.5</ele>
        <time>2026-07-08T06:20:14Z</time>
      </trkpt>
      <trkpt lat="43.03129" lon="0.30838">
        <ele>459.5</ele>
        <time>2026-07-08T06:20:15Z</time>
      </trkpt>
      <trkpt lat="43.03129" lon="0.30838">
        <ele>459.5</ele>
        <time>2026-07-08T06:20:15Z</time>
      </trkpt>
      <trkpt lat="43.03128" lon="0.30837">
        <ele>459.5</ele>
        <time>2026-07-08T06:20:16Z</time>
      </trkpt>
      <trkpt lat="43.03128" lon="0.30837">
        <ele>459.5</ele>
        <time>2026-07-08T06:20:16Z</time>
      </trkpt>
      <trkpt lat="43.03127" lon="0.30836">
        <ele>459.5</ele>
        <time>2026-07-08T06:20:17Z</time>
      </trkpt>
      <trkpt lat="43.03126" lon="0.30836">
        <ele>459.5</ele>
        <time>2026-07-08T06:20:18Z</time>
      </trkpt>
      <trkpt lat="43.03126" lon="0.30836">
        <ele>459.5</ele>
        <time>2026-07-08T06:20:18Z</time>
      </trkpt>
      <trkpt lat="43.03125" lon="0.30835">
        <ele>459.5</ele>
        <time>2026-07-08T06:20:19Z</time>
      </trkpt>
      <trkpt lat="43.03125" lon="0.30835">
        <ele>459.5</ele>
        <time>2026-07-08T06:20:19Z</time>
      </trkpt>
      <trkpt lat="43.03124" lon="0.30834">
        <ele>459.5</ele>
        <time>2026-07-08T06:20:20Z</time>
      </trkpt>
      <trkpt lat="43.03124" lon="0.30834">
        <ele>460.5</ele>
        <time>2026-07-08T06:20:20Z</time>
      </trkpt>
      <trkpt lat="43.03123" lon="0.30833">
        <ele>460.5</ele>
        <time>2026-07-08T06:20:21Z</time>
      </trkpt>
      <trkpt lat="43.03122" lon="0.30833">
        <ele>460.5</ele>
        <time>2026-07-08T06:20:22Z</time>
      </trkpt>
      <trkpt lat="43.03122" lon="0.30833">
        <ele>460.5</ele>
        <time>2026-07-08T06:20:22Z</time>
      </trkpt>
      <trkpt lat="43.03121" lon="0.30832">
        <ele>460.5</ele>
        <time>2026-07-08T06:20:23Z</time>
      </trkpt>
      <trkpt lat="43.03121" lon="0.30832">
        <ele>460.5</ele>
        <time>2026-07-08T06:20:23Z</time>
      </trkpt>
      <trkpt lat="43.0312" lon="0.30831">
        <ele>460.5</ele>
        <time>2026-07-08T06:20:24Z</time>
      </trkpt>
      <trkpt lat="43.03119" lon="0.30831">
        <ele>460.5</ele>
        <time>2026-07-08T06:20:24Z</time>
      </trkpt>
      <trkpt lat="43.03119" lon="0.3083">
        <ele>460.5</ele>
        <time>2026-07-08T06:20:25Z</time>
      </trkpt>
      <trkpt lat="43.03118" lon="0.3083">
        <ele>460.5</ele>
        <time>2026-07-08T06:20:26Z</time>
      </trkpt>
      <trkpt lat="43.03117" lon="0.30829">
        <ele>460.5</ele>
        <time>2026-07-08T06:20:26Z</time>
      </trkpt>
      <trkpt lat="43.03117" lon="0.30829">
        <ele>461.5</ele>
        <time>2026-07-08T06:20:27Z</time>
      </trkpt>
      <trkpt lat="43.03116" lon="0.30828">
        <ele>461.5</ele>
        <time>2026-07-08T06:20:27Z</time>
      </trkpt>
      <trkpt lat="43.03116" lon="0.30828">
        <ele>461.5</ele>
        <time>2026-07-08T06:20:28Z</time>
      </trkpt>
      <trkpt lat="43.03115" lon="0.30827">
        <ele>461.5</ele>
        <time>2026-07-08T06:20:28Z</time>
      </trkpt>
      <trkpt lat="43.03115" lon="0.30826">
        <ele>461.5</ele>
        <time>2026-07-08T06:20:29Z</time>
      </trkpt>
      <trkpt lat="43.03114" lon="0.30826">
        <ele>462.5</ele>
        <time>2026-07-08T06:20:29Z</time>
      </trkpt>
      <trkpt lat="43.03114" lon="0.30825">
        <ele>462.5</ele>
        <time>2026-07-08T06:20:30Z</time>
      </trkpt>
      <trkpt lat="43.03113" lon="0.30824">
        <ele>462.5</ele>
        <time>2026-07-08T06:20:31Z</time>
      </trkpt>
      <trkpt lat="43.03112" lon="0.30823">
        <ele>462.5</ele>
        <time>2026-07-08T06:20:32Z</time>
      </trkpt>
      <trkpt lat="43.03112" lon="0.30822">
        <ele>462.5</ele>
        <time>2026-07-08T06:20:32Z</time>
      </trkpt>
      <trkpt lat="43.03111" lon="0.30821">
        <ele>462.5</ele>
        <time>2026-07-08T06:20:33Z</time>
      </trkpt>
      <trkpt lat="43.03111" lon="0.30821">
        <ele>462.5</ele>
        <time>2026-07-08T06:20:33Z</time>
      </trkpt>
      <trkpt lat="43.0311" lon="0.3082">
        <ele>462.5</ele>
        <time>2026-07-08T06:20:34Z</time>
      </trkpt>
      <trkpt lat="43.0311" lon="0.3082">
        <ele>461.5</ele>
        <time>2026-07-08T06:20:35Z</time>
      </trkpt>
      <trkpt lat="43.03109" lon="0.30819">
        <ele>461.5</ele>
        <time>2026-07-08T06:20:35Z</time>
      </trkpt>
      <trkpt lat="43.03109" lon="0.30819">
        <ele>461.5</ele>
        <time>2026-07-08T06:20:36Z</time>
      </trkpt>
      <trkpt lat="43.03108" lon="0.30818">
        <ele>461.5</ele>
        <time>2026-07-08T06:20:36Z</time>
      </trkpt>
      <trkpt lat="43.03108" lon="0.30817">
        <ele>461.5</ele>
        <time>2026-07-08T06:20:37Z</time>
      </trkpt>
      <trkpt lat="43.03107" lon="0.30817">
        <ele>461.5</ele>
        <time>2026-07-08T06:20:37Z</time>
      </trkpt>
      <trkpt lat="43.03106" lon="0.30816">
        <ele>461.5</ele>
        <time>2026-07-08T06:20:38Z</time>
      </trkpt>
      <trkpt lat="43.03106" lon="0.30816">
        <ele>461.5</ele>
        <time>2026-07-08T06:20:39Z</time>
      </trkpt>
      <trkpt lat="43.03105" lon="0.30815">
        <ele>461.5</ele>
        <time>2026-07-08T06:20:39Z</time>
      </trkpt>
      <trkpt lat="43.03105" lon="0.30815">
        <ele>461.5</ele>
        <time>2026-07-08T06:20:40Z</time>
      </trkpt>
      <trkpt lat="43.03104" lon="0.30814">
        <ele>462.5</ele>
        <time>2026-07-08T06:20:40Z</time>
      </trkpt>
      <trkpt lat="43.03103" lon="0.30814">
        <ele>462.5</ele>
        <time>2026-07-08T06:20:41Z</time>
      </trkpt>
      <trkpt lat="43.03103" lon="0.30814">
        <ele>462.5</ele>
        <time>2026-07-08T06:20:41Z</time>
      </trkpt>
      <trkpt lat="43.03102" lon="0.30813">
        <ele>462.5</ele>
        <time>2026-07-08T06:20:42Z</time>
      </trkpt>
      <trkpt lat="43.03102" lon="0.30813">
        <ele>462.5</ele>
        <time>2026-07-08T06:20:43Z</time>
      </trkpt>
      <trkpt lat="43.03101" lon="0.30812">
        <ele>462.5</ele>
        <time>2026-07-08T06:20:43Z</time>
      </trkpt>
      <trkpt lat="43.03101" lon="0.30812">
        <ele>462.5</ele>
        <time>2026-07-08T06:20:44Z</time>
      </trkpt>
      <trkpt lat="43.031" lon="0.30811">
        <ele>463.5</ele>
        <time>2026-07-08T06:20:44Z</time>
      </trkpt>
      <trkpt lat="43.03099" lon="0.30811">
        <ele>463.5</ele>
        <time>2026-07-08T06:20:45Z</time>
      </trkpt>
      <trkpt lat="43.03099" lon="0.3081">
        <ele>463.5</ele>
        <time>2026-07-08T06:20:45Z</time>
      </trkpt>
      <trkpt lat="43.03098" lon="0.3081">
        <ele>463.5</ele>
        <time>2026-07-08T06:20:46Z</time>
      </trkpt>
      <trkpt lat="43.03098" lon="0.30809">
        <ele>464.5</ele>
        <time>2026-07-08T06:20:47Z</time>
      </trkpt>
      <trkpt lat="43.03097" lon="0.30809">
        <ele>464.5</ele>
        <time>2026-07-08T06:20:47Z</time>
      </trkpt>
      <trkpt lat="43.03097" lon="0.30808">
        <ele>464.5</ele>
        <time>2026-07-08T06:20:48Z</time>
      </trkpt>
      <trkpt lat="43.03096" lon="0.30808">
        <ele>464.5</ele>
        <time>2026-07-08T06:20:48Z</time>
      </trkpt>
      <trkpt lat="43.03095" lon="0.30807">
        <ele>464.5</ele>
        <time>2026-07-08T06:20:49Z</time>
      </trkpt>
      <trkpt lat="43.03095" lon="0.30807">
        <ele>464.5</ele>
        <time>2026-07-08T06:20:49Z</time>
      </trkpt>
      <trkpt lat="43.03094" lon="0.30806">
        <ele>464.5</ele>
        <time>2026-07-08T06:20:50Z</time>
      </trkpt>
      <trkpt lat="43.03094" lon="0.30806">
        <ele>464.5</ele>
        <time>2026-07-08T06:20:51Z</time>
      </trkpt>
      <trkpt lat="43.03093" lon="0.30805">
        <ele>464.5</ele>
        <time>2026-07-08T06:20:51Z</time>
      </trkpt>
      <trkpt lat="43.03092" lon="0.30805">
        <ele>464.5</ele>
        <time>2026-07-08T06:20:52Z</time>
      </trkpt>
      <trkpt lat="43.03092" lon="0.30804">
        <ele>464.5</ele>
        <time>2026-07-08T06:20:52Z</time>
      </trkpt>
      <trkpt lat="43.03091" lon="0.30804">
        <ele>464.5</ele>
        <time>2026-07-08T06:20:53Z</time>
      </trkpt>
      <trkpt lat="43.03091" lon="0.30803">
        <ele>465.5</ele>
        <time>2026-07-08T06:20:53Z</time>
      </trkpt>
      <trkpt lat="43.0309" lon="0.30803">
        <ele>465.5</ele>
        <time>2026-07-08T06:20:54Z</time>
      </trkpt>
      <trkpt lat="43.0309" lon="0.30802">
        <ele>465.5</ele>
        <time>2026-07-08T06:20:55Z</time>
      </trkpt>
      <trkpt lat="43.03089" lon="0.30801">
        <ele>464.5</ele>
        <time>2026-07-08T06:20:55Z</time>
      </trkpt>
      <trkpt lat="43.03089" lon="0.30801">
        <ele>464.5</ele>
        <time>2026-07-08T06:20:56Z</time>
      </trkpt>
      <trkpt lat="43.03088" lon="0.308">
        <ele>465.5</ele>
        <time>2026-07-08T06:20:56Z</time>
      </trkpt>
      <trkpt lat="43.03088" lon="0.308">
        <ele>465.5</ele>
        <time>2026-07-08T06:20:57Z</time>
      </trkpt>
      <trkpt lat="43.03087" lon="0.30799">
        <ele>465.5</ele>
        <time>2026-07-08T06:20:57Z</time>
      </trkpt>
      <trkpt lat="43.03087" lon="0.30798">
        <ele>465.5</ele>
        <time>2026-07-08T06:20:58Z</time>
      </trkpt>
      <trkpt lat="43.03086" lon="0.30798">
        <ele>465.5</ele>
        <time>2026-07-08T06:20:59Z</time>
      </trkpt>
      <trkpt lat="43.03086" lon="0.30798">
        <ele>465.5</ele>
        <time>2026-07-08T06:20:59Z</time>
      </trkpt>
      <trkpt lat="43.03085" lon="0.30797">
        <ele>465.5</ele>
        <time>2026-07-08T06:21:00Z</time>
      </trkpt>
      <trkpt lat="43.03084" lon="0.30797">
        <ele>466.5</ele>
        <time>2026-07-08T06:21:00Z</time>
      </trkpt>
      <trkpt lat="43.03084" lon="0.30797">
        <ele>466.5</ele>
        <time>2026-07-08T06:21:01Z</time>
      </trkpt>
      <trkpt lat="43.03083" lon="0.30796">
        <ele>466.5</ele>
        <time>2026-07-08T06:21:01Z</time>
      </trkpt>
      <trkpt lat="43.03083" lon="0.30796">
        <ele>466.5</ele>
        <time>2026-07-08T06:21:02Z</time>
      </trkpt>
      <trkpt lat="43.03082" lon="0.30795">
        <ele>466.5</ele>
        <time>2026-07-08T06:21:02Z</time>
      </trkpt>
      <trkpt lat="43.03081" lon="0.30795">
        <ele>466.5</ele>
        <time>2026-07-08T06:21:03Z</time>
      </trkpt>
      <trkpt lat="43.03081" lon="0.30795">
        <ele>466.5</ele>
        <time>2026-07-08T06:21:04Z</time>
      </trkpt>
      <trkpt lat="43.0308" lon="0.30795">
        <ele>466.5</ele>
        <time>2026-07-08T06:21:04Z</time>
      </trkpt>
      <trkpt lat="43.03079" lon="0.30794">
        <ele>466.5</ele>
        <time>2026-07-08T06:21:05Z</time>
      </trkpt>
      <trkpt lat="43.03078" lon="0.30794">
        <ele>466.5</ele>
        <time>2026-07-08T06:21:05Z</time>
      </trkpt>
      <trkpt lat="43.03078" lon="0.30793">
        <ele>466.5</ele>
        <time>2026-07-08T06:21:06Z</time>
      </trkpt>
      <trkpt lat="43.03077" lon="0.30793">
        <ele>466.5</ele>
        <time>2026-07-08T06:21:06Z</time>
      </trkpt>
      <trkpt lat="43.03076" lon="0.30793">
        <ele>466.5</ele>
        <time>2026-07-08T06:21:07Z</time>
      </trkpt>
      <trkpt lat="43.03076" lon="0.30792">
        <ele>467.5</ele>
        <time>2026-07-08T06:21:08Z</time>
      </trkpt>
      <trkpt lat="43.03075" lon="0.30792">
        <ele>467.5</ele>
        <time>2026-07-08T06:21:08Z</time>
      </trkpt>
      <trkpt lat="43.03074" lon="0.30792">
        <ele>467.5</ele>
        <time>2026-07-08T06:21:09Z</time>
      </trkpt>
      <trkpt lat="43.03073" lon="0.30791">
        <ele>467.5</ele>
        <time>2026-07-08T06:21:09Z</time>
      </trkpt>
      <trkpt lat="43.03073" lon="0.30791">
        <ele>467.5</ele>
        <time>2026-07-08T06:21:10Z</time>
      </trkpt>
      <trkpt lat="43.03072" lon="0.3079">
        <ele>467.5</ele>
        <time>2026-07-08T06:21:10Z</time>
      </trkpt>
      <trkpt lat="43.03071" lon="0.3079">
        <ele>467.5</ele>
        <time>2026-07-08T06:21:11Z</time>
      </trkpt>
      <trkpt lat="43.03071" lon="0.30789">
        <ele>467.5</ele>
        <time>2026-07-08T06:21:12Z</time>
      </trkpt>
      <trkpt lat="43.0307" lon="0.30789">
        <ele>467.5</ele>
        <time>2026-07-08T06:21:12Z</time>
      </trkpt>
      <trkpt lat="43.03069" lon="0.30789">
        <ele>467.5</ele>
        <time>2026-07-08T06:21:13Z</time>
      </trkpt>
      <trkpt lat="43.03068" lon="0.30788">
        <ele>467.5</ele>
        <time>2026-07-08T06:21:13Z</time>
      </trkpt>
      <trkpt lat="43.03068" lon="0.30788">
        <ele>467.5</ele>
        <time>2026-07-08T06:21:14Z</time>
      </trkpt>
      <trkpt lat="43.03067" lon="0.30787">
        <ele>467.5</ele>
        <time>2026-07-08T06:21:14Z</time>
      </trkpt>
      <trkpt lat="43.03066" lon="0.30787">
        <ele>467.5</ele>
        <time>2026-07-08T06:21:15Z</time>
      </trkpt>
      <trkpt lat="43.03066" lon="0.30786">
        <ele>466.5</ele>
        <time>2026-07-08T06:21:15Z</time>
      </trkpt>
      <trkpt lat="43.03065" lon="0.30786">
        <ele>466.5</ele>
        <time>2026-07-08T06:21:16Z</time>
      </trkpt>
      <trkpt lat="43.03065" lon="0.30785">
        <ele>466.5</ele>
        <time>2026-07-08T06:21:17Z</time>
      </trkpt>
      <trkpt lat="43.03064" lon="0.30785">
        <ele>465.5</ele>
        <time>2026-07-08T06:21:17Z</time>
      </trkpt>
      <trkpt lat="43.03063" lon="0.30784">
        <ele>465.5</ele>
        <time>2026-07-08T06:21:18Z</time>
      </trkpt>
      <trkpt lat="43.03063" lon="0.30784">
        <ele>466.5</ele>
        <time>2026-07-08T06:21:18Z</time>
      </trkpt>
      <trkpt lat="43.03062" lon="0.30783">
        <ele>466.5</ele>
        <time>2026-07-08T06:21:19Z</time>
      </trkpt>
      <trkpt lat="43.03062" lon="0.30783">
        <ele>466.5</ele>
        <time>2026-07-08T06:21:19Z</time>
      </trkpt>
      <trkpt lat="43.03061" lon="0.30783">
        <ele>466.5</ele>
        <time>2026-07-08T06:21:20Z</time>
      </trkpt>
      <trkpt lat="43.03061" lon="0.30782">
        <ele>466.5</ele>
        <time>2026-07-08T06:21:20Z</time>
      </trkpt>
      <trkpt lat="43.0306" lon="0.30782">
        <ele>466.5</ele>
        <time>2026-07-08T06:21:21Z</time>
      </trkpt>
      <trkpt lat="43.03059" lon="0.30781">
        <ele>466.5</ele>
        <time>2026-07-08T06:21:22Z</time>
      </trkpt>
      <trkpt lat="43.03059" lon="0.30781">
        <ele>467.5</ele>
        <time>2026-07-08T06:21:22Z</time>
      </trkpt>
      <trkpt lat="43.03058" lon="0.3078">
        <ele>467.5</ele>
        <time>2026-07-08T06:21:23Z</time>
      </trkpt>
      <trkpt lat="43.03057" lon="0.3078">
        <ele>467.5</ele>
        <time>2026-07-08T06:21:23Z</time>
      </trkpt>
      <trkpt lat="43.03057" lon="0.3078">
        <ele>467.5</ele>
        <time>2026-07-08T06:21:24Z</time>
      </trkpt>
      <trkpt lat="43.03056" lon="0.30779">
        <ele>467.5</ele>
        <time>2026-07-08T06:21:24Z</time>
      </trkpt>
      <trkpt lat="43.03055" lon="0.30779">
        <ele>467.5</ele>
        <time>2026-07-08T06:21:25Z</time>
      </trkpt>
      <trkpt lat="43.03055" lon="0.30778">
        <ele>467.5</ele>
        <time>2026-07-08T06:21:25Z</time>
      </trkpt>
      <trkpt lat="43.03054" lon="0.30778">
        <ele>467.5</ele>
        <time>2026-07-08T06:21:26Z</time>
      </trkpt>
      <trkpt lat="43.03053" lon="0.30777">
        <ele>467.5</ele>
        <time>2026-07-08T06:21:27Z</time>
      </trkpt>
      <trkpt lat="43.03053" lon="0.30777">
        <ele>467.5</ele>
        <time>2026-07-08T06:21:27Z</time>
      </trkpt>
      <trkpt lat="43.03052" lon="0.30776">
        <ele>467.5</ele>
        <time>2026-07-08T06:21:28Z</time>
      </trkpt>
      <trkpt lat="43.03052" lon="0.30776">
        <ele>467.5</ele>
        <time>2026-07-08T06:21:28Z</time>
      </trkpt>
      <trkpt lat="43.03051" lon="0.30776">
        <ele>467.5</ele>
        <time>2026-07-08T06:21:29Z</time>
      </trkpt>
      <trkpt lat="43.0305" lon="0.30776">
        <ele>467.5</ele>
        <time>2026-07-08T06:21:29Z</time>
      </trkpt>
      <trkpt lat="43.0305" lon="0.30776">
        <ele>467.5</ele>
        <time>2026-07-08T06:21:30Z</time>
      </trkpt>
      <trkpt lat="43.03049" lon="0.30775">
        <ele>467.5</ele>
        <time>2026-07-08T06:21:30Z</time>
      </trkpt>
      <trkpt lat="43.03048" lon="0.30775">
        <ele>467.5</ele>
        <time>2026-07-08T06:21:31Z</time>
      </trkpt>
      <trkpt lat="43.03048" lon="0.30775">
        <ele>467.5</ele>
        <time>2026-07-08T06:21:32Z</time>
      </trkpt>
      <trkpt lat="43.03047" lon="0.30775">
        <ele>467.5</ele>
        <time>2026-07-08T06:21:32Z</time>
      </trkpt>
      <trkpt lat="43.03046" lon="0.30774">
        <ele>467.5</ele>
        <time>2026-07-08T06:21:33Z</time>
      </trkpt>
      <trkpt lat="43.03045" lon="0.30774">
        <ele>466.5</ele>
        <time>2026-07-08T06:21:33Z</time>
      </trkpt>
      <trkpt lat="43.03045" lon="0.30774">
        <ele>466.5</ele>
        <time>2026-07-08T06:21:34Z</time>
      </trkpt>
      <trkpt lat="43.03044" lon="0.30773">
        <ele>467.5</ele>
        <time>2026-07-08T06:21:34Z</time>
      </trkpt>
      <trkpt lat="43.03043" lon="0.30773">
        <ele>467.5</ele>
        <time>2026-07-08T06:21:35Z</time>
      </trkpt>
      <trkpt lat="43.03043" lon="0.30773">
        <ele>467.5</ele>
        <time>2026-07-08T06:21:36Z</time>
      </trkpt>
      <trkpt lat="43.03042" lon="0.30773">
        <ele>467.5</ele>
        <time>2026-07-08T06:21:36Z</time>
      </trkpt>
      <trkpt lat="43.03041" lon="0.30772">
        <ele>467.5</ele>
        <time>2026-07-08T06:21:37Z</time>
      </trkpt>
      <trkpt lat="43.03041" lon="0.30772">
        <ele>467.5</ele>
        <time>2026-07-08T06:21:37Z</time>
      </trkpt>
      <trkpt lat="43.0304" lon="0.30772">
        <ele>467.5</ele>
        <time>2026-07-08T06:21:38Z</time>
      </trkpt>
      <trkpt lat="43.03039" lon="0.30771">
        <ele>467.5</ele>
        <time>2026-07-08T06:21:38Z</time>
      </trkpt>
      <trkpt lat="43.03039" lon="0.30771">
        <ele>467.5</ele>
        <time>2026-07-08T06:21:39Z</time>
      </trkpt>
      <trkpt lat="43.03038" lon="0.30771">
        <ele>467.5</ele>
        <time>2026-07-08T06:21:39Z</time>
      </trkpt>
      <trkpt lat="43.03037" lon="0.3077">
        <ele>467.5</ele>
        <time>2026-07-08T06:21:40Z</time>
      </trkpt>
      <trkpt lat="43.03037" lon="0.3077">
        <ele>467.5</ele>
        <time>2026-07-08T06:21:41Z</time>
      </trkpt>
      <trkpt lat="43.03036" lon="0.3077">
        <ele>467.5</ele>
        <time>2026-07-08T06:21:41Z</time>
      </trkpt>
      <trkpt lat="43.03035" lon="0.30769">
        <ele>467.5</ele>
        <time>2026-07-08T06:21:42Z</time>
      </trkpt>
      <trkpt lat="43.03035" lon="0.30769">
        <ele>468.5</ele>
        <time>2026-07-08T06:21:42Z</time>
      </trkpt>
      <trkpt lat="43.03034" lon="0.30768">
        <ele>468.5</ele>
        <time>2026-07-08T06:21:43Z</time>
      </trkpt>
      <trkpt lat="43.03033" lon="0.30768">
        <ele>467.5</ele>
        <time>2026-07-08T06:21:43Z</time>
      </trkpt>
      <trkpt lat="43.03033" lon="0.30768">
        <ele>467.5</ele>
        <time>2026-07-08T06:21:44Z</time>
      </trkpt>
      <trkpt lat="43.03032" lon="0.30767">
        <ele>468.5</ele>
        <time>2026-07-08T06:21:45Z</time>
      </trkpt>
      <trkpt lat="43.03032" lon="0.30767">
        <ele>468.5</ele>
        <time>2026-07-08T06:21:45Z</time>
      </trkpt>
      <trkpt lat="43.03031" lon="0.30766">
        <ele>468.5</ele>
        <time>2026-07-08T06:21:46Z</time>
      </trkpt>
      <trkpt lat="43.0303" lon="0.30766">
        <ele>469.5</ele>
        <time>2026-07-08T06:21:46Z</time>
      </trkpt>
      <trkpt lat="43.0303" lon="0.30766">
        <ele>469.5</ele>
        <time>2026-07-08T06:21:47Z</time>
      </trkpt>
      <trkpt lat="43.03029" lon="0.30765">
        <ele>469.5</ele>
        <time>2026-07-08T06:21:47Z</time>
      </trkpt>
      <trkpt lat="43.03028" lon="0.30765">
        <ele>469.5</ele>
        <time>2026-07-08T06:21:48Z</time>
      </trkpt>
      <trkpt lat="43.03028" lon="0.30765">
        <ele>469.5</ele>
        <time>2026-07-08T06:21:49Z</time>
      </trkpt>
      <trkpt lat="43.03027" lon="0.30765">
        <ele>469.5</ele>
        <time>2026-07-08T06:21:49Z</time>
      </trkpt>
      <trkpt lat="43.03027" lon="0.30765">
        <ele>469.5</ele>
        <time>2026-07-08T06:21:50Z</time>
      </trkpt>
      <trkpt lat="43.03026" lon="0.30765">
        <ele>469.5</ele>
        <time>2026-07-08T06:21:50Z</time>
      </trkpt>
      <trkpt lat="43.03025" lon="0.30764">
        <ele>469.5</ele>
        <time>2026-07-08T06:21:51Z</time>
      </trkpt>
      <trkpt lat="43.03025" lon="0.30764">
        <ele>469.5</ele>
        <time>2026-07-08T06:21:51Z</time>
      </trkpt>
      <trkpt lat="43.03024" lon="0.30764">
        <ele>469.5</ele>
        <time>2026-07-08T06:21:52Z</time>
      </trkpt>
      <trkpt lat="43.03024" lon="0.30763">
        <ele>469.5</ele>
        <time>2026-07-08T06:21:52Z</time>
      </trkpt>
      <trkpt lat="43.03023" lon="0.30763">
        <ele>469.5</ele>
        <time>2026-07-08T06:21:53Z</time>
      </trkpt>
      <trkpt lat="43.03022" lon="0.30763">
        <ele>469.5</ele>
        <time>2026-07-08T06:21:54Z</time>
      </trkpt>
      <trkpt lat="43.03022" lon="0.30763">
        <ele>469.5</ele>
        <time>2026-07-08T06:21:54Z</time>
      </trkpt>
      <trkpt lat="43.03021" lon="0.30762">
        <ele>469.5</ele>
        <time>2026-07-08T06:21:55Z</time>
      </trkpt>
      <trkpt lat="43.03021" lon="0.30762">
        <ele>469.5</ele>
        <time>2026-07-08T06:21:55Z</time>
      </trkpt>
      <trkpt lat="43.0302" lon="0.30762">
        <ele>469.5</ele>
        <time>2026-07-08T06:21:56Z</time>
      </trkpt>
      <trkpt lat="43.0302" lon="0.30761">
        <ele>469.5</ele>
        <time>2026-07-08T06:21:56Z</time>
      </trkpt>
      <trkpt lat="43.03019" lon="0.30761">
        <ele>469.5</ele>
        <time>2026-07-08T06:21:57Z</time>
      </trkpt>
      <trkpt lat="43.03019" lon="0.30761">
        <ele>469.5</ele>
        <time>2026-07-08T06:21:57Z</time>
      </trkpt>
      <trkpt lat="43.03018" lon="0.3076">
        <ele>469.5</ele>
        <time>2026-07-08T06:21:58Z</time>
      </trkpt>
      <trkpt lat="43.03017" lon="0.3076">
        <ele>469.5</ele>
        <time>2026-07-08T06:21:59Z</time>
      </trkpt>
      <trkpt lat="43.03016" lon="0.3076">
        <ele>469.5</ele>
        <time>2026-07-08T06:21:59Z</time>
      </trkpt>
      <trkpt lat="43.03016" lon="0.30759">
        <ele>469.5</ele>
        <time>2026-07-08T06:22:00Z</time>
      </trkpt>
      <trkpt lat="43.03015" lon="0.30759">
        <ele>470.5</ele>
        <time>2026-07-08T06:22:00Z</time>
      </trkpt>
      <trkpt lat="43.03014" lon="0.30758">
        <ele>470.5</ele>
        <time>2026-07-08T06:22:01Z</time>
      </trkpt>
      <trkpt lat="43.03014" lon="0.30758">
        <ele>470.5</ele>
        <time>2026-07-08T06:22:02Z</time>
      </trkpt>
      <trkpt lat="43.03013" lon="0.30757">
        <ele>470.5</ele>
        <time>2026-07-08T06:22:02Z</time>
      </trkpt>
      <trkpt lat="43.03013" lon="0.30757">
        <ele>470.5</ele>
        <time>2026-07-08T06:22:03Z</time>
      </trkpt>
      <trkpt lat="43.03012" lon="0.30757">
        <ele>470.5</ele>
        <time>2026-07-08T06:22:03Z</time>
      </trkpt>
      <trkpt lat="43.03011" lon="0.30756">
        <ele>470.5</ele>
        <time>2026-07-08T06:22:04Z</time>
      </trkpt>
      <trkpt lat="43.03011" lon="0.30756">
        <ele>470.5</ele>
        <time>2026-07-08T06:22:04Z</time>
      </trkpt>
      <trkpt lat="43.0301" lon="0.30755">
        <ele>470.5</ele>
        <time>2026-07-08T06:22:05Z</time>
      </trkpt>
      <trkpt lat="43.0301" lon="0.30755">
        <ele>469.5</ele>
        <time>2026-07-08T06:22:06Z</time>
      </trkpt>
      <trkpt lat="43.03009" lon="0.30755">
        <ele>469.5</ele>
        <time>2026-07-08T06:22:06Z</time>
      </trkpt>
      <trkpt lat="43.03008" lon="0.30754">
        <ele>469.5</ele>
        <time>2026-07-08T06:22:07Z</time>
      </trkpt>
      <trkpt lat="43.03008" lon="0.30754">
        <ele>470.5</ele>
        <time>2026-07-08T06:22:07Z</time>
      </trkpt>
      <trkpt lat="43.03007" lon="0.30753">
        <ele>470.5</ele>
        <time>2026-07-08T06:22:08Z</time>
      </trkpt>
      <trkpt lat="43.03006" lon="0.30753">
        <ele>470.5</ele>
        <time>2026-07-08T06:22:08Z</time>
      </trkpt>
      <trkpt lat="43.03006" lon="0.30752">
        <ele>470.5</ele>
        <time>2026-07-08T06:22:09Z</time>
      </trkpt>
      <trkpt lat="43.03005" lon="0.30752">
        <ele>470.5</ele>
        <time>2026-07-08T06:22:10Z</time>
      </trkpt>
      <trkpt lat="43.03005" lon="0.30752">
        <ele>470.5</ele>
        <time>2026-07-08T06:22:10Z</time>
      </trkpt>
      <trkpt lat="43.03004" lon="0.30751">
        <ele>470.5</ele>
        <time>2026-07-08T06:22:11Z</time>
      </trkpt>
      <trkpt lat="43.03004" lon="0.3075">
        <ele>470.5</ele>
        <time>2026-07-08T06:22:11Z</time>
      </trkpt>
      <trkpt lat="43.03003" lon="0.3075">
        <ele>470.5</ele>
        <time>2026-07-08T06:22:12Z</time>
      </trkpt>
      <trkpt lat="43.03002" lon="0.30749">
        <ele>471.5</ele>
        <time>2026-07-08T06:22:13Z</time>
      </trkpt>
      <trkpt lat="43.03002" lon="0.30749">
        <ele>471.5</ele>
        <time>2026-07-08T06:22:13Z</time>
      </trkpt>
      <trkpt lat="43.03001" lon="0.30748">
        <ele>470.5</ele>
        <time>2026-07-08T06:22:14Z</time>
      </trkpt>
      <trkpt lat="43.03001" lon="0.30748">
        <ele>470.5</ele>
        <time>2026-07-08T06:22:14Z</time>
      </trkpt>
      <trkpt lat="43.03" lon="0.30747">
        <ele>470.5</ele>
        <time>2026-07-08T06:22:15Z</time>
      </trkpt>
      <trkpt lat="43.03" lon="0.30747">
        <ele>470.5</ele>
        <time>2026-07-08T06:22:15Z</time>
      </trkpt>
      <trkpt lat="43.03" lon="0.30746">
        <ele>470.5</ele>
        <time>2026-07-08T06:22:16Z</time>
      </trkpt>
      <trkpt lat="43.02999" lon="0.30746">
        <ele>471.5</ele>
        <time>2026-07-08T06:22:16Z</time>
      </trkpt>
      <trkpt lat="43.02999" lon="0.30745">
        <ele>471.5</ele>
        <time>2026-07-08T06:22:17Z</time>
      </trkpt>
      <trkpt lat="43.02998" lon="0.30744">
        <ele>471.5</ele>
        <time>2026-07-08T06:22:18Z</time>
      </trkpt>
      <trkpt lat="43.02998" lon="0.30744">
        <ele>471.5</ele>
        <time>2026-07-08T06:22:18Z</time>
      </trkpt>
      <trkpt lat="43.02997" lon="0.30743">
        <ele>471.5</ele>
        <time>2026-07-08T06:22:19Z</time>
      </trkpt>
      <trkpt lat="43.02997" lon="0.30743">
        <ele>470.5</ele>
        <time>2026-07-08T06:22:19Z</time>
      </trkpt>
      <trkpt lat="43.02996" lon="0.30742">
        <ele>470.5</ele>
        <time>2026-07-08T06:22:20Z</time>
      </trkpt>
      <trkpt lat="43.02996" lon="0.30741">
        <ele>471.5</ele>
        <time>2026-07-08T06:22:20Z</time>
      </trkpt>
      <trkpt lat="43.02995" lon="0.30741">
        <ele>471.5</ele>
        <time>2026-07-08T06:22:21Z</time>
      </trkpt>
      <trkpt lat="43.02995" lon="0.3074">
        <ele>471.5</ele>
        <time>2026-07-08T06:22:22Z</time>
      </trkpt>
      <trkpt lat="43.02994" lon="0.30739">
        <ele>471.5</ele>
        <time>2026-07-08T06:22:22Z</time>
      </trkpt>
      <trkpt lat="43.02994" lon="0.30739">
        <ele>471.5</ele>
        <time>2026-07-08T06:22:23Z</time>
      </trkpt>
      <trkpt lat="43.02993" lon="0.30739">
        <ele>472.5</ele>
        <time>2026-07-08T06:22:23Z</time>
      </trkpt>
      <trkpt lat="43.02993" lon="0.30738">
        <ele>472.5</ele>
        <time>2026-07-08T06:22:24Z</time>
      </trkpt>
      <trkpt lat="43.02992" lon="0.30738">
        <ele>472.5</ele>
        <time>2026-07-08T06:22:24Z</time>
      </trkpt>
      <trkpt lat="43.02991" lon="0.30737">
        <ele>472.5</ele>
        <time>2026-07-08T06:22:25Z</time>
      </trkpt>
      <trkpt lat="43.02991" lon="0.30737">
        <ele>472.5</ele>
        <time>2026-07-08T06:22:26Z</time>
      </trkpt>
      <trkpt lat="43.0299" lon="0.30737">
        <ele>472.5</ele>
        <time>2026-07-08T06:22:26Z</time>
      </trkpt>
      <trkpt lat="43.02989" lon="0.30736">
        <ele>472.5</ele>
        <time>2026-07-08T06:22:27Z</time>
      </trkpt>
      <trkpt lat="43.02989" lon="0.30736">
        <ele>472.5</ele>
        <time>2026-07-08T06:22:27Z</time>
      </trkpt>
      <trkpt lat="43.02988" lon="0.30735">
        <ele>472.5</ele>
        <time>2026-07-08T06:22:28Z</time>
      </trkpt>
      <trkpt lat="43.02987" lon="0.30735">
        <ele>473.5</ele>
        <time>2026-07-08T06:22:28Z</time>
      </trkpt>
      <trkpt lat="43.02987" lon="0.30735">
        <ele>473.5</ele>
        <time>2026-07-08T06:22:29Z</time>
      </trkpt>
      <trkpt lat="43.02986" lon="0.30735">
        <ele>473.5</ele>
        <time>2026-07-08T06:22:30Z</time>
      </trkpt>
      <trkpt lat="43.02985" lon="0.30734">
        <ele>473.5</ele>
        <time>2026-07-08T06:22:30Z</time>
      </trkpt>
      <trkpt lat="43.02985" lon="0.30734">
        <ele>473.5</ele>
        <time>2026-07-08T06:22:31Z</time>
      </trkpt>
      <trkpt lat="43.02984" lon="0.30734">
        <ele>473.5</ele>
        <time>2026-07-08T06:22:31Z</time>
      </trkpt>
      <trkpt lat="43.02983" lon="0.30734">
        <ele>473.5</ele>
        <time>2026-07-08T06:22:32Z</time>
      </trkpt>
      <trkpt lat="43.02983" lon="0.30734">
        <ele>474.5</ele>
        <time>2026-07-08T06:22:32Z</time>
      </trkpt>
      <trkpt lat="43.02982" lon="0.30733">
        <ele>474.5</ele>
        <time>2026-07-08T06:22:33Z</time>
      </trkpt>
      <trkpt lat="43.02982" lon="0.30733">
        <ele>473.5</ele>
        <time>2026-07-08T06:22:33Z</time>
      </trkpt>
      <trkpt lat="43.02981" lon="0.30733">
        <ele>473.5</ele>
        <time>2026-07-08T06:22:34Z</time>
      </trkpt>
      <trkpt lat="43.02981" lon="0.30733">
        <ele>473.5</ele>
        <time>2026-07-08T06:22:35Z</time>
      </trkpt>
      <trkpt lat="43.0298" lon="0.30733">
        <ele>474.5</ele>
        <time>2026-07-08T06:22:35Z</time>
      </trkpt>
      <trkpt lat="43.02979" lon="0.30732">
        <ele>474.5</ele>
        <time>2026-07-08T06:22:36Z</time>
      </trkpt>
      <trkpt lat="43.02979" lon="0.30732">
        <ele>474.5</ele>
        <time>2026-07-08T06:22:36Z</time>
      </trkpt>
      <trkpt lat="43.02978" lon="0.30731">
        <ele>474.5</ele>
        <time>2026-07-08T06:22:37Z</time>
      </trkpt>
      <trkpt lat="43.02978" lon="0.30731">
        <ele>474.5</ele>
        <time>2026-07-08T06:22:37Z</time>
      </trkpt>
      <trkpt lat="43.02977" lon="0.30731">
        <ele>474.5</ele>
        <time>2026-07-08T06:22:38Z</time>
      </trkpt>
      <trkpt lat="43.02977" lon="0.3073">
        <ele>473.5</ele>
        <time>2026-07-08T06:22:38Z</time>
      </trkpt>
      <trkpt lat="43.02976" lon="0.3073">
        <ele>473.5</ele>
        <time>2026-07-08T06:22:39Z</time>
      </trkpt>
      <trkpt lat="43.02975" lon="0.3073">
        <ele>473.5</ele>
        <time>2026-07-08T06:22:40Z</time>
      </trkpt>
      <trkpt lat="43.02974" lon="0.30729">
        <ele>473.5</ele>
        <time>2026-07-08T06:22:40Z</time>
      </trkpt>
      <trkpt lat="43.02974" lon="0.30729">
        <ele>473.5</ele>
        <time>2026-07-08T06:22:41Z</time>
      </trkpt>
      <trkpt lat="43.02973" lon="0.30729">
        <ele>473.5</ele>
        <time>2026-07-08T06:22:41Z</time>
      </trkpt>
      <trkpt lat="43.02972" lon="0.30728">
        <ele>473.5</ele>
        <time>2026-07-08T06:22:42Z</time>
      </trkpt>
      <trkpt lat="43.02972" lon="0.30728">
        <ele>473.5</ele>
        <time>2026-07-08T06:22:43Z</time>
      </trkpt>
      <trkpt lat="43.02971" lon="0.30727">
        <ele>473.5</ele>
        <time>2026-07-08T06:22:43Z</time>
      </trkpt>
      <trkpt lat="43.0297" lon="0.30727">
        <ele>473.5</ele>
        <time>2026-07-08T06:22:44Z</time>
      </trkpt>
      <trkpt lat="43.0297" lon="0.30726">
        <ele>474.5</ele>
        <time>2026-07-08T06:22:44Z</time>
      </trkpt>
      <trkpt lat="43.02969" lon="0.30726">
        <ele>474.5</ele>
        <time>2026-07-08T06:22:45Z</time>
      </trkpt>
      <trkpt lat="43.02968" lon="0.30726">
        <ele>474.5</ele>
        <time>2026-07-08T06:22:45Z</time>
      </trkpt>
      <trkpt lat="43.02968" lon="0.30725">
        <ele>474.5</ele>
        <time>2026-07-08T06:22:46Z</time>
      </trkpt>
      <trkpt lat="43.02967" lon="0.30725">
        <ele>474.5</ele>
        <time>2026-07-08T06:22:46Z</time>
      </trkpt>
      <trkpt lat="43.02966" lon="0.30725">
        <ele>475.5</ele>
        <time>2026-07-08T06:22:47Z</time>
      </trkpt>
      <trkpt lat="43.02966" lon="0.30724">
        <ele>475.5</ele>
        <time>2026-07-08T06:22:48Z</time>
      </trkpt>
      <trkpt lat="43.02965" lon="0.30724">
        <ele>475.5</ele>
        <time>2026-07-08T06:22:48Z</time>
      </trkpt>
      <trkpt lat="43.02965" lon="0.30723">
        <ele>475.5</ele>
        <time>2026-07-08T06:22:49Z</time>
      </trkpt>
      <trkpt lat="43.02964" lon="0.30722">
        <ele>475.5</ele>
        <time>2026-07-08T06:22:49Z</time>
      </trkpt>
      <trkpt lat="43.02963" lon="0.30722">
        <ele>475.5</ele>
        <time>2026-07-08T06:22:50Z</time>
      </trkpt>
      <trkpt lat="43.02963" lon="0.30721">
        <ele>474.5</ele>
        <time>2026-07-08T06:22:50Z</time>
      </trkpt>
      <trkpt lat="43.02962" lon="0.30721">
        <ele>474.5</ele>
        <time>2026-07-08T06:22:51Z</time>
      </trkpt>
      <trkpt lat="43.02962" lon="0.3072">
        <ele>474.5</ele>
        <time>2026-07-08T06:22:52Z</time>
      </trkpt>
      <trkpt lat="43.02961" lon="0.3072">
        <ele>474.5</ele>
        <time>2026-07-08T06:22:52Z</time>
      </trkpt>
      <trkpt lat="43.02961" lon="0.30719">
        <ele>475.5</ele>
        <time>2026-07-08T06:22:53Z</time>
      </trkpt>
      <trkpt lat="43.0296" lon="0.30719">
        <ele>475.5</ele>
        <time>2026-07-08T06:22:53Z</time>
      </trkpt>
      <trkpt lat="43.02959" lon="0.30718">
        <ele>475.5</ele>
        <time>2026-07-08T06:22:54Z</time>
      </trkpt>
      <trkpt lat="43.02959" lon="0.30718">
        <ele>474.5</ele>
        <time>2026-07-08T06:22:54Z</time>
      </trkpt>
      <trkpt lat="43.02958" lon="0.30717">
        <ele>474.5</ele>
        <time>2026-07-08T06:22:55Z</time>
      </trkpt>
      <trkpt lat="43.02957" lon="0.30717">
        <ele>475.5</ele>
        <time>2026-07-08T06:22:56Z</time>
      </trkpt>
      <trkpt lat="43.02957" lon="0.30716">
        <ele>475.5</ele>
        <time>2026-07-08T06:22:56Z</time>
      </trkpt>
      <trkpt lat="43.02956" lon="0.30716">
        <ele>475.5</ele>
        <time>2026-07-08T06:22:57Z</time>
      </trkpt>
      <trkpt lat="43.02955" lon="0.30715">
        <ele>475.5</ele>
        <time>2026-07-08T06:22:57Z</time>
      </trkpt>
      <trkpt lat="43.02955" lon="0.30715">
        <ele>475.5</ele>
        <time>2026-07-08T06:22:58Z</time>
      </trkpt>
      <trkpt lat="43.02954" lon="0.30714">
        <ele>476.5</ele>
        <time>2026-07-08T06:22:58Z</time>
      </trkpt>
      <trkpt lat="43.02953" lon="0.30714">
        <ele>476.5</ele>
        <time>2026-07-08T06:22:59Z</time>
      </trkpt>
      <trkpt lat="43.02953" lon="0.30713">
        <ele>475.5</ele>
        <time>2026-07-08T06:23:00Z</time>
      </trkpt>
      <trkpt lat="43.02952" lon="0.30713">
        <ele>475.5</ele>
        <time>2026-07-08T06:23:00Z</time>
      </trkpt>
      <trkpt lat="43.02951" lon="0.30712">
        <ele>475.5</ele>
        <time>2026-07-08T06:23:01Z</time>
      </trkpt>
      <trkpt lat="43.02951" lon="0.30712">
        <ele>475.5</ele>
        <time>2026-07-08T06:23:01Z</time>
      </trkpt>
      <trkpt lat="43.0295" lon="0.30711">
        <ele>475.5</ele>
        <time>2026-07-08T06:23:02Z</time>
      </trkpt>
      <trkpt lat="43.0295" lon="0.30711">
        <ele>475.5</ele>
        <time>2026-07-08T06:23:02Z</time>
      </trkpt>
      <trkpt lat="43.02949" lon="0.3071">
        <ele>475.5</ele>
        <time>2026-07-08T06:23:03Z</time>
      </trkpt>
      <trkpt lat="43.02948" lon="0.3071">
        <ele>475.5</ele>
        <time>2026-07-08T06:23:03Z</time>
      </trkpt>
      <trkpt lat="43.02948" lon="0.30709">
        <ele>475.5</ele>
        <time>2026-07-08T06:23:04Z</time>
      </trkpt>
      <trkpt lat="43.02947" lon="0.30709">
        <ele>476.5</ele>
        <time>2026-07-08T06:23:05Z</time>
      </trkpt>
      <trkpt lat="43.02947" lon="0.30708">
        <ele>475.5</ele>
        <time>2026-07-08T06:23:05Z</time>
      </trkpt>
      <trkpt lat="43.02946" lon="0.30708">
        <ele>475.5</ele>
        <time>2026-07-08T06:23:06Z</time>
      </trkpt>
      <trkpt lat="43.02945" lon="0.30707">
        <ele>475.5</ele>
        <time>2026-07-08T06:23:06Z</time>
      </trkpt>
      <trkpt lat="43.02945" lon="0.30707">
        <ele>475.5</ele>
        <time>2026-07-08T06:23:07Z</time>
      </trkpt>
      <trkpt lat="43.02944" lon="0.30706">
        <ele>475.5</ele>
        <time>2026-07-08T06:23:07Z</time>
      </trkpt>
      <trkpt lat="43.02943" lon="0.30706">
        <ele>475.5</ele>
        <time>2026-07-08T06:23:08Z</time>
      </trkpt>
      <trkpt lat="43.02943" lon="0.30705">
        <ele>475.5</ele>
        <time>2026-07-08T06:23:09Z</time>
      </trkpt>
      <trkpt lat="43.02942" lon="0.30705">
        <ele>476.5</ele>
        <time>2026-07-08T06:23:09Z</time>
      </trkpt>
      <trkpt lat="43.02941" lon="0.30705">
        <ele>476.5</ele>
        <time>2026-07-08T06:23:10Z</time>
      </trkpt>
      <trkpt lat="43.02941" lon="0.30704">
        <ele>476.5</ele>
        <time>2026-07-08T06:23:10Z</time>
      </trkpt>
      <trkpt lat="43.0294" lon="0.30704">
        <ele>476.5</ele>
        <time>2026-07-08T06:23:11Z</time>
      </trkpt>
      <trkpt lat="43.02939" lon="0.30703">
        <ele>475.5</ele>
        <time>2026-07-08T06:23:11Z</time>
      </trkpt>
      <trkpt lat="43.02939" lon="0.30703">
        <ele>475.5</ele>
        <time>2026-07-08T06:23:12Z</time>
      </trkpt>
      <trkpt lat="43.02938" lon="0.30702">
        <ele>475.5</ele>
        <time>2026-07-08T06:23:13Z</time>
      </trkpt>
      <trkpt lat="43.02938" lon="0.30702">
        <ele>475.5</ele>
        <time>2026-07-08T06:23:13Z</time>
      </trkpt>
      <trkpt lat="43.02937" lon="0.30702">
        <ele>475.5</ele>
        <time>2026-07-08T06:23:14Z</time>
      </trkpt>
      <trkpt lat="43.02937" lon="0.30702">
        <ele>475.5</ele>
        <time>2026-07-08T06:23:14Z</time>
      </trkpt>
      <trkpt lat="43.02936" lon="0.30701">
        <ele>475.5</ele>
        <time>2026-07-08T06:23:15Z</time>
      </trkpt>
      <trkpt lat="43.02936" lon="0.30701">
        <ele>474.5</ele>
        <time>2026-07-08T06:23:15Z</time>
      </trkpt>
      <trkpt lat="43.02935" lon="0.307">
        <ele>474.5</ele>
        <time>2026-07-08T06:23:16Z</time>
      </trkpt>
      <trkpt lat="43.02934" lon="0.307">
        <ele>475.5</ele>
        <time>2026-07-08T06:23:17Z</time>
      </trkpt>
      <trkpt lat="43.02934" lon="0.307">
        <ele>475.5</ele>
        <time>2026-07-08T06:23:17Z</time>
      </trkpt>
      <trkpt lat="43.02933" lon="0.307">
        <ele>475.5</ele>
        <time>2026-07-08T06:23:18Z</time>
      </trkpt>
      <trkpt lat="43.02933" lon="0.30699">
        <ele>475.5</ele>
        <time>2026-07-08T06:23:18Z</time>
      </trkpt>
      <trkpt lat="43.02932" lon="0.30699">
        <ele>475.5</ele>
        <time>2026-07-08T06:23:19Z</time>
      </trkpt>
      <trkpt lat="43.02932" lon="0.30699">
        <ele>476.5</ele>
        <time>2026-07-08T06:23:19Z</time>
      </trkpt>
      <trkpt lat="43.02931" lon="0.30698">
        <ele>476.5</ele>
        <time>2026-07-08T06:23:20Z</time>
      </trkpt>
      <trkpt lat="43.02931" lon="0.30698">
        <ele>475.5</ele>
        <time>2026-07-08T06:23:21Z</time>
      </trkpt>
      <trkpt lat="43.0293" lon="0.30698">
        <ele>476.5</ele>
        <time>2026-07-08T06:23:21Z</time>
      </trkpt>
      <trkpt lat="43.0293" lon="0.30697">
        <ele>476.5</ele>
        <time>2026-07-08T06:23:22Z</time>
      </trkpt>
      <trkpt lat="43.02929" lon="0.30697">
        <ele>477.5</ele>
        <time>2026-07-08T06:23:22Z</time>
      </trkpt>
      <trkpt lat="43.02929" lon="0.30697">
        <ele>477.5</ele>
        <time>2026-07-08T06:23:23Z</time>
      </trkpt>
      <trkpt lat="43.02928" lon="0.30696">
        <ele>477.5</ele>
        <time>2026-07-08T06:23:23Z</time>
      </trkpt>
      <trkpt lat="43.02928" lon="0.30696">
        <ele>477.5</ele>
        <time>2026-07-08T06:23:24Z</time>
      </trkpt>
      <trkpt lat="43.02927" lon="0.30696">
        <ele>478.5</ele>
        <time>2026-07-08T06:23:24Z</time>
      </trkpt>
      <trkpt lat="43.02927" lon="0.30695">
        <ele>478.5</ele>
        <time>2026-07-08T06:23:25Z</time>
      </trkpt>
      <trkpt lat="43.02926" lon="0.30695">
        <ele>478.5</ele>
        <time>2026-07-08T06:23:26Z</time>
      </trkpt>
      <trkpt lat="43.02926" lon="0.30695">
        <ele>478.5</ele>
        <time>2026-07-08T06:23:26Z</time>
      </trkpt>
      <trkpt lat="43.02925" lon="0.30695">
        <ele>478.5</ele>
        <time>2026-07-08T06:23:27Z</time>
      </trkpt>
      <trkpt lat="43.02925" lon="0.30695">
        <ele>478.5</ele>
        <time>2026-07-08T06:23:27Z</time>
      </trkpt>
      <trkpt lat="43.02924" lon="0.30695">
        <ele>478.5</ele>
        <time>2026-07-08T06:23:28Z</time>
      </trkpt>
      <trkpt lat="43.02923" lon="0.30695">
        <ele>478.5</ele>
        <time>2026-07-08T06:23:28Z</time>
      </trkpt>
      <trkpt lat="43.02923" lon="0.30695">
        <ele>478.5</ele>
        <time>2026-07-08T06:23:29Z</time>
      </trkpt>
      <trkpt lat="43.02922" lon="0.30696">
        <ele>478.5</ele>
        <time>2026-07-08T06:23:30Z</time>
      </trkpt>
      <trkpt lat="43.02921" lon="0.30696">
        <ele>478.5</ele>
        <time>2026-07-08T06:23:30Z</time>
      </trkpt>
      <trkpt lat="43.02921" lon="0.30695">
        <ele>478.5</ele>
        <time>2026-07-08T06:23:31Z</time>
      </trkpt>
      <trkpt lat="43.0292" lon="0.30695">
        <ele>478.5</ele>
        <time>2026-07-08T06:23:31Z</time>
      </trkpt>
      <trkpt lat="43.02919" lon="0.30695">
        <ele>478.5</ele>
        <time>2026-07-08T06:23:32Z</time>
      </trkpt>
      <trkpt lat="43.02918" lon="0.30695">
        <ele>479.5</ele>
        <time>2026-07-08T06:23:32Z</time>
      </trkpt>
      <trkpt lat="43.02918" lon="0.30695">
        <ele>479.5</ele>
        <time>2026-07-08T06:23:33Z</time>
      </trkpt>
      <trkpt lat="43.02917" lon="0.30695">
        <ele>479.5</ele>
        <time>2026-07-08T06:23:33Z</time>
      </trkpt>
      <trkpt lat="43.02916" lon="0.30695">
        <ele>479.5</ele>
        <time>2026-07-08T06:23:34Z</time>
      </trkpt>
      <trkpt lat="43.02916" lon="0.30695">
        <ele>479.5</ele>
        <time>2026-07-08T06:23:35Z</time>
      </trkpt>
      <trkpt lat="43.02915" lon="0.30695">
        <ele>479.5</ele>
        <time>2026-07-08T06:23:35Z</time>
      </trkpt>
      <trkpt lat="43.02914" lon="0.30695">
        <ele>480.5</ele>
        <time>2026-07-08T06:23:36Z</time>
      </trkpt>
      <trkpt lat="43.02913" lon="0.30695">
        <ele>480.5</ele>
        <time>2026-07-08T06:23:36Z</time>
      </trkpt>
      <trkpt lat="43.02913" lon="0.30695">
        <ele>480.5</ele>
        <time>2026-07-08T06:23:37Z</time>
      </trkpt>
      <trkpt lat="43.02912" lon="0.30696">
        <ele>480.5</ele>
        <time>2026-07-08T06:23:37Z</time>
      </trkpt>
      <trkpt lat="43.02911" lon="0.30696">
        <ele>480.5</ele>
        <time>2026-07-08T06:23:38Z</time>
      </trkpt>
      <trkpt lat="43.0291" lon="0.30696">
        <ele>480.5</ele>
        <time>2026-07-08T06:23:39Z</time>
      </trkpt>
      <trkpt lat="43.0291" lon="0.30696">
        <ele>480.5</ele>
        <time>2026-07-08T06:23:39Z</time>
      </trkpt>
      <trkpt lat="43.02909" lon="0.30696">
        <ele>480.5</ele>
        <time>2026-07-08T06:23:40Z</time>
      </trkpt>
      <trkpt lat="43.02908" lon="0.30696">
        <ele>480.5</ele>
        <time>2026-07-08T06:23:40Z</time>
      </trkpt>
      <trkpt lat="43.02907" lon="0.30696">
        <ele>480.5</ele>
        <time>2026-07-08T06:23:41Z</time>
      </trkpt>
      <trkpt lat="43.02907" lon="0.30696">
        <ele>480.5</ele>
        <time>2026-07-08T06:23:41Z</time>
      </trkpt>
      <trkpt lat="43.02906" lon="0.30696">
        <ele>480.5</ele>
        <time>2026-07-08T06:23:42Z</time>
      </trkpt>
      <trkpt lat="43.02905" lon="0.30696">
        <ele>480.5</ele>
        <time>2026-07-08T06:23:42Z</time>
      </trkpt>
      <trkpt lat="43.02904" lon="0.30696">
        <ele>480.5</ele>
        <time>2026-07-08T06:23:43Z</time>
      </trkpt>
      <trkpt lat="43.02904" lon="0.30697">
        <ele>480.5</ele>
        <time>2026-07-08T06:23:44Z</time>
      </trkpt>
      <trkpt lat="43.02903" lon="0.30697">
        <ele>480.5</ele>
        <time>2026-07-08T06:23:44Z</time>
      </trkpt>
      <trkpt lat="43.02902" lon="0.30697">
        <ele>480.5</ele>
        <time>2026-07-08T06:23:45Z</time>
      </trkpt>
      <trkpt lat="43.02902" lon="0.30697">
        <ele>480.5</ele>
        <time>2026-07-08T06:23:45Z</time>
      </trkpt>
      <trkpt lat="43.02901" lon="0.30697">
        <ele>480.5</ele>
        <time>2026-07-08T06:23:46Z</time>
      </trkpt>
      <trkpt lat="43.029" lon="0.30697">
        <ele>479.5</ele>
        <time>2026-07-08T06:23:46Z</time>
      </trkpt>
      <trkpt lat="43.029" lon="0.30697">
        <ele>479.5</ele>
        <time>2026-07-08T06:23:47Z</time>
      </trkpt>
      <trkpt lat="43.02899" lon="0.30697">
        <ele>479.5</ele>
        <time>2026-07-08T06:23:48Z</time>
      </trkpt>
      <trkpt lat="43.02898" lon="0.30697">
        <ele>479.5</ele>
        <time>2026-07-08T06:23:48Z</time>
      </trkpt>
      <trkpt lat="43.02898" lon="0.30697">
        <ele>479.5</ele>
        <time>2026-07-08T06:23:49Z</time>
      </trkpt>
      <trkpt lat="43.02897" lon="0.30698">
        <ele>480.5</ele>
        <time>2026-07-08T06:23:49Z</time>
      </trkpt>
      <trkpt lat="43.02896" lon="0.30698">
        <ele>480.5</ele>
        <time>2026-07-08T06:23:50Z</time>
      </trkpt>
      <trkpt lat="43.02896" lon="0.30698">
        <ele>480.5</ele>
        <time>2026-07-08T06:23:50Z</time>
      </trkpt>
      <trkpt lat="43.02895" lon="0.30698">
        <ele>480.5</ele>
        <time>2026-07-08T06:23:51Z</time>
      </trkpt>
      <trkpt lat="43.02894" lon="0.30698">
        <ele>481.5</ele>
        <time>2026-07-08T06:23:51Z</time>
      </trkpt>
      <trkpt lat="43.02894" lon="0.30698">
        <ele>481.5</ele>
        <time>2026-07-08T06:23:52Z</time>
      </trkpt>
      <trkpt lat="43.02893" lon="0.30698">
        <ele>481.5</ele>
        <time>2026-07-08T06:23:53Z</time>
      </trkpt>
      <trkpt lat="43.02892" lon="0.30698">
        <ele>481.5</ele>
        <time>2026-07-08T06:23:53Z</time>
      </trkpt>
      <trkpt lat="43.02891" lon="0.30698">
        <ele>481.5</ele>
        <time>2026-07-08T06:23:54Z</time>
      </trkpt>
      <trkpt lat="43.02891" lon="0.30698">
        <ele>481.5</ele>
        <time>2026-07-08T06:23:54Z</time>
      </trkpt>
      <trkpt lat="43.0289" lon="0.30698">
        <ele>481.5</ele>
        <time>2026-07-08T06:23:55Z</time>
      </trkpt>
      <trkpt lat="43.02889" lon="0.30699">
        <ele>481.5</ele>
        <time>2026-07-08T06:23:55Z</time>
      </trkpt>
      <trkpt lat="43.02889" lon="0.30699">
        <ele>481.5</ele>
        <time>2026-07-08T06:23:56Z</time>
      </trkpt>
      <trkpt lat="43.02888" lon="0.30699">
        <ele>481.5</ele>
        <time>2026-07-08T06:23:57Z</time>
      </trkpt>
      <trkpt lat="43.02887" lon="0.30699">
        <ele>481.5</ele>
        <time>2026-07-08T06:23:57Z</time>
      </trkpt>
      <trkpt lat="43.02886" lon="0.30699">
        <ele>481.5</ele>
        <time>2026-07-08T06:23:58Z</time>
      </trkpt>
      <trkpt lat="43.02886" lon="0.30699">
        <ele>481.5</ele>
        <time>2026-07-08T06:23:58Z</time>
      </trkpt>
      <trkpt lat="43.02885" lon="0.30699">
        <ele>481.5</ele>
        <time>2026-07-08T06:23:59Z</time>
      </trkpt>
      <trkpt lat="43.02884" lon="0.30699">
        <ele>481.5</ele>
        <time>2026-07-08T06:23:59Z</time>
      </trkpt>
      <trkpt lat="43.02883" lon="0.30699">
        <ele>481.5</ele>
        <time>2026-07-08T06:24:00Z</time>
      </trkpt>
      <trkpt lat="43.02883" lon="0.30699">
        <ele>481.5</ele>
        <time>2026-07-08T06:24:00Z</time>
      </trkpt>
      <trkpt lat="43.02882" lon="0.30699">
        <ele>481.5</ele>
        <time>2026-07-08T06:24:01Z</time>
      </trkpt>
      <trkpt lat="43.02881" lon="0.30698">
        <ele>481.5</ele>
        <time>2026-07-08T06:24:02Z</time>
      </trkpt>
      <trkpt lat="43.02881" lon="0.30698">
        <ele>481.5</ele>
        <time>2026-07-08T06:24:02Z</time>
      </trkpt>
      <trkpt lat="43.0288" lon="0.30698">
        <ele>481.5</ele>
        <time>2026-07-08T06:24:03Z</time>
      </trkpt>
      <trkpt lat="43.02879" lon="0.30698">
        <ele>481.5</ele>
        <time>2026-07-08T06:24:03Z</time>
      </trkpt>
      <trkpt lat="43.02879" lon="0.30698">
        <ele>481.5</ele>
        <time>2026-07-08T06:24:04Z</time>
      </trkpt>
      <trkpt lat="43.02878" lon="0.30697">
        <ele>481.5</ele>
        <time>2026-07-08T06:24:04Z</time>
      </trkpt>
      <trkpt lat="43.02877" lon="0.30697">
        <ele>481.5</ele>
        <time>2026-07-08T06:24:05Z</time>
      </trkpt>
      <trkpt lat="43.02877" lon="0.30697">
        <ele>482.5</ele>
        <time>2026-07-08T06:24:06Z</time>
      </trkpt>
      <trkpt lat="43.02876" lon="0.30696">
        <ele>481.5</ele>
        <time>2026-07-08T06:24:06Z</time>
      </trkpt>
      <trkpt lat="43.02876" lon="0.30696">
        <ele>481.5</ele>
        <time>2026-07-08T06:24:07Z</time>
      </trkpt>
      <trkpt lat="43.02875" lon="0.30696">
        <ele>481.5</ele>
        <time>2026-07-08T06:24:07Z</time>
      </trkpt>
      <trkpt lat="43.02874" lon="0.30695">
        <ele>481.5</ele>
        <time>2026-07-08T06:24:08Z</time>
      </trkpt>
      <trkpt lat="43.02874" lon="0.30695">
        <ele>481.5</ele>
        <time>2026-07-08T06:24:08Z</time>
      </trkpt>
      <trkpt lat="43.02873" lon="0.30695">
        <ele>481.5</ele>
        <time>2026-07-08T06:24:09Z</time>
      </trkpt>
      <trkpt lat="43.02872" lon="0.30695">
        <ele>481.5</ele>
        <time>2026-07-08T06:24:10Z</time>
      </trkpt>
      <trkpt lat="43.02872" lon="0.30694">
        <ele>481.5</ele>
        <time>2026-07-08T06:24:10Z</time>
      </trkpt>
      <trkpt lat="43.02871" lon="0.30694">
        <ele>482.5</ele>
        <time>2026-07-08T06:24:11Z</time>
      </trkpt>
      <trkpt lat="43.0287" lon="0.30694">
        <ele>482.5</ele>
        <time>2026-07-08T06:24:11Z</time>
      </trkpt>
      <trkpt lat="43.0287" lon="0.30694">
        <ele>482.5</ele>
        <time>2026-07-08T06:24:12Z</time>
      </trkpt>
      <trkpt lat="43.02869" lon="0.30693">
        <ele>482.5</ele>
        <time>2026-07-08T06:24:12Z</time>
      </trkpt>
      <trkpt lat="43.02868" lon="0.30693">
        <ele>482.5</ele>
        <time>2026-07-08T06:24:13Z</time>
      </trkpt>
      <trkpt lat="43.02868" lon="0.30693">
        <ele>481.5</ele>
        <time>2026-07-08T06:24:13Z</time>
      </trkpt>
      <trkpt lat="43.02867" lon="0.30693">
        <ele>481.5</ele>
        <time>2026-07-08T06:24:14Z</time>
      </trkpt>
      <trkpt lat="43.02866" lon="0.30692">
        <ele>481.5</ele>
        <time>2026-07-08T06:24:15Z</time>
      </trkpt>
      <trkpt lat="43.02866" lon="0.30692">
        <ele>482.5</ele>
        <time>2026-07-08T06:24:15Z</time>
      </trkpt>
      <trkpt lat="43.02865" lon="0.30692">
        <ele>482.5</ele>
        <time>2026-07-08T06:24:16Z</time>
      </trkpt>
      <trkpt lat="43.02864" lon="0.30692">
        <ele>482.5</ele>
        <time>2026-07-08T06:24:16Z</time>
      </trkpt>
      <trkpt lat="43.02864" lon="0.30691">
        <ele>482.5</ele>
        <time>2026-07-08T06:24:17Z</time>
      </trkpt>
      <trkpt lat="43.02863" lon="0.30691">
        <ele>482.5</ele>
        <time>2026-07-08T06:24:17Z</time>
      </trkpt>
      <trkpt lat="43.02862" lon="0.30691">
        <ele>482.5</ele>
        <time>2026-07-08T06:24:18Z</time>
      </trkpt>
      <trkpt lat="43.02862" lon="0.3069">
        <ele>482.5</ele>
        <time>2026-07-08T06:24:19Z</time>
      </trkpt>
      <trkpt lat="43.02861" lon="0.3069">
        <ele>482.5</ele>
        <time>2026-07-08T06:24:19Z</time>
      </trkpt>
      <trkpt lat="43.02861" lon="0.3069">
        <ele>482.5</ele>
        <time>2026-07-08T06:24:20Z</time>
      </trkpt>
      <trkpt lat="43.0286" lon="0.3069">
        <ele>482.5</ele>
        <time>2026-07-08T06:24:20Z</time>
      </trkpt>
      <trkpt lat="43.02859" lon="0.30689">
        <ele>482.5</ele>
        <time>2026-07-08T06:24:21Z</time>
      </trkpt>
      <trkpt lat="43.02859" lon="0.30689">
        <ele>482.5</ele>
        <time>2026-07-08T06:24:21Z</time>
      </trkpt>
      <trkpt lat="43.02858" lon="0.30689">
        <ele>482.5</ele>
        <time>2026-07-08T06:24:22Z</time>
      </trkpt>
      <trkpt lat="43.02858" lon="0.30689">
        <ele>482.5</ele>
        <time>2026-07-08T06:24:22Z</time>
      </trkpt>
      <trkpt lat="43.02857" lon="0.30688">
        <ele>482.5</ele>
        <time>2026-07-08T06:24:23Z</time>
      </trkpt>
      <trkpt lat="43.02857" lon="0.30688">
        <ele>482.5</ele>
        <time>2026-07-08T06:24:24Z</time>
      </trkpt>
      <trkpt lat="43.02856" lon="0.30688">
        <ele>482.5</ele>
        <time>2026-07-08T06:24:24Z</time>
      </trkpt>
      <trkpt lat="43.02855" lon="0.30687">
        <ele>482.5</ele>
        <time>2026-07-08T06:24:25Z</time>
      </trkpt>
      <trkpt lat="43.02855" lon="0.30687">
        <ele>482.5</ele>
        <time>2026-07-08T06:24:25Z</time>
      </trkpt>
      <trkpt lat="43.02854" lon="0.30687">
        <ele>482.5</ele>
        <time>2026-07-08T06:24:26Z</time>
      </trkpt>
      <trkpt lat="43.02853" lon="0.30687">
        <ele>481.5</ele>
        <time>2026-07-08T06:24:26Z</time>
      </trkpt>
      <trkpt lat="43.02853" lon="0.30686">
        <ele>481.5</ele>
        <time>2026-07-08T06:24:27Z</time>
      </trkpt>
      <trkpt lat="43.02852" lon="0.30686">
        <ele>481.5</ele>
        <time>2026-07-08T06:24:28Z</time>
      </trkpt>
      <trkpt lat="43.02852" lon="0.30686">
        <ele>482.5</ele>
        <time>2026-07-08T06:24:28Z</time>
      </trkpt>
      <trkpt lat="43.02851" lon="0.30686">
        <ele>482.5</ele>
        <time>2026-07-08T06:24:29Z</time>
      </trkpt>
      <trkpt lat="43.0285" lon="0.30686">
        <ele>482.5</ele>
        <time>2026-07-08T06:24:29Z</time>
      </trkpt>
      <trkpt lat="43.0285" lon="0.30686">
        <ele>482.5</ele>
        <time>2026-07-08T06:24:30Z</time>
      </trkpt>
      <trkpt lat="43.02849" lon="0.30685">
        <ele>482.5</ele>
        <time>2026-07-08T06:24:30Z</time>
      </trkpt>
      <trkpt lat="43.02848" lon="0.30685">
        <ele>482.5</ele>
        <time>2026-07-08T06:24:31Z</time>
      </trkpt>
      <trkpt lat="43.02848" lon="0.30685">
        <ele>482.5</ele>
        <time>2026-07-08T06:24:32Z</time>
      </trkpt>
      <trkpt lat="43.02847" lon="0.30685">
        <ele>483.5</ele>
        <time>2026-07-08T06:24:32Z</time>
      </trkpt>
      <trkpt lat="43.02846" lon="0.30684">
        <ele>483.5</ele>
        <time>2026-07-08T06:24:33Z</time>
      </trkpt>
      <trkpt lat="43.02846" lon="0.30684">
        <ele>483.5</ele>
        <time>2026-07-08T06:24:33Z</time>
      </trkpt>
      <trkpt lat="43.02845" lon="0.30684">
        <ele>483.5</ele>
        <time>2026-07-08T06:24:34Z</time>
      </trkpt>
      <trkpt lat="43.02845" lon="0.30684">
        <ele>482.5</ele>
        <time>2026-07-08T06:24:35Z</time>
      </trkpt>
      <trkpt lat="43.02844" lon="0.30683">
        <ele>482.5</ele>
        <time>2026-07-08T06:24:35Z</time>
      </trkpt>
      <trkpt lat="43.02844" lon="0.30683">
        <ele>482.5</ele>
        <time>2026-07-08T06:24:36Z</time>
      </trkpt>
      <trkpt lat="43.02843" lon="0.30683">
        <ele>482.5</ele>
        <time>2026-07-08T06:24:36Z</time>
      </trkpt>
      <trkpt lat="43.02842" lon="0.30682">
        <ele>482.5</ele>
        <time>2026-07-08T06:24:37Z</time>
      </trkpt>
      <trkpt lat="43.02842" lon="0.30682">
        <ele>483.5</ele>
        <time>2026-07-08T06:24:37Z</time>
      </trkpt>
      <trkpt lat="43.02841" lon="0.30682">
        <ele>483.5</ele>
        <time>2026-07-08T06:24:38Z</time>
      </trkpt>
      <trkpt lat="43.0284" lon="0.30682">
        <ele>484.5</ele>
        <time>2026-07-08T06:24:39Z</time>
      </trkpt>
      <trkpt lat="43.0284" lon="0.30682">
        <ele>483.5</ele>
        <time>2026-07-08T06:24:39Z</time>
      </trkpt>
      <trkpt lat="43.02839" lon="0.30682">
        <ele>483.5</ele>
        <time>2026-07-08T06:24:40Z</time>
      </trkpt>
      <trkpt lat="43.02838" lon="0.30682">
        <ele>483.5</ele>
        <time>2026-07-08T06:24:40Z</time>
      </trkpt>
      <trkpt lat="43.02838" lon="0.30681">
        <ele>483.5</ele>
        <time>2026-07-08T06:24:41Z</time>
      </trkpt>
      <trkpt lat="43.02837" lon="0.30681">
        <ele>483.5</ele>
        <time>2026-07-08T06:24:41Z</time>
      </trkpt>
      <trkpt lat="43.02836" lon="0.30681">
        <ele>483.5</ele>
        <time>2026-07-08T06:24:42Z</time>
      </trkpt>
      <trkpt lat="43.02836" lon="0.30681">
        <ele>483.5</ele>
        <time>2026-07-08T06:24:43Z</time>
      </trkpt>
      <trkpt lat="43.02835" lon="0.30681">
        <ele>483.5</ele>
        <time>2026-07-08T06:24:43Z</time>
      </trkpt>
      <trkpt lat="43.02834" lon="0.30681">
        <ele>483.5</ele>
        <time>2026-07-08T06:24:44Z</time>
      </trkpt>
      <trkpt lat="43.02834" lon="0.30681">
        <ele>483.5</ele>
        <time>2026-07-08T06:24:44Z</time>
      </trkpt>
      <trkpt lat="43.02833" lon="0.3068">
        <ele>483.5</ele>
        <time>2026-07-08T06:24:45Z</time>
      </trkpt>
      <trkpt lat="43.02832" lon="0.3068">
        <ele>484.5</ele>
        <time>2026-07-08T06:24:45Z</time>
      </trkpt>
      <trkpt lat="43.02832" lon="0.30679">
        <ele>484.5</ele>
        <time>2026-07-08T06:24:46Z</time>
      </trkpt>
      <trkpt lat="43.02831" lon="0.30679">
        <ele>483.5</ele>
        <time>2026-07-08T06:24:47Z</time>
      </trkpt>
      <trkpt lat="43.0283" lon="0.30678">
        <ele>483.5</ele>
        <time>2026-07-08T06:24:47Z</time>
      </trkpt>
      <trkpt lat="43.02829" lon="0.30678">
        <ele>483.5</ele>
        <time>2026-07-08T06:24:48Z</time>
      </trkpt>
      <trkpt lat="43.02829" lon="0.30677">
        <ele>483.5</ele>
        <time>2026-07-08T06:24:48Z</time>
      </trkpt>
      <trkpt lat="43.02828" lon="0.30677">
        <ele>483.5</ele>
        <time>2026-07-08T06:24:49Z</time>
      </trkpt>
      <trkpt lat="43.02827" lon="0.30677">
        <ele>484.5</ele>
        <time>2026-07-08T06:24:49Z</time>
      </trkpt>
      <trkpt lat="43.02826" lon="0.30676">
        <ele>484.5</ele>
        <time>2026-07-08T06:24:50Z</time>
      </trkpt>
      <trkpt lat="43.02826" lon="0.30676">
        <ele>484.5</ele>
        <time>2026-07-08T06:24:51Z</time>
      </trkpt>
      <trkpt lat="43.02825" lon="0.30676">
        <ele>484.5</ele>
        <time>2026-07-08T06:24:51Z</time>
      </trkpt>
      <trkpt lat="43.02824" lon="0.30676">
        <ele>484.5</ele>
        <time>2026-07-08T06:24:52Z</time>
      </trkpt>
      <trkpt lat="43.02824" lon="0.30676">
        <ele>484.5</ele>
        <time>2026-07-08T06:24:52Z</time>
      </trkpt>
      <trkpt lat="43.02823" lon="0.30675">
        <ele>484.5</ele>
        <time>2026-07-08T06:24:53Z</time>
      </trkpt>
      <trkpt lat="43.02822" lon="0.30675">
        <ele>485.5</ele>
        <time>2026-07-08T06:24:53Z</time>
      </trkpt>
      <trkpt lat="43.02822" lon="0.30675">
        <ele>485.5</ele>
        <time>2026-07-08T06:24:54Z</time>
      </trkpt>
      <trkpt lat="43.02821" lon="0.30675">
        <ele>485.5</ele>
        <time>2026-07-08T06:24:55Z</time>
      </trkpt>
      <trkpt lat="43.0282" lon="0.30675">
        <ele>485.5</ele>
        <time>2026-07-08T06:24:55Z</time>
      </trkpt>
      <trkpt lat="43.02819" lon="0.30675">
        <ele>485.5</ele>
        <time>2026-07-08T06:24:56Z</time>
      </trkpt>
      <trkpt lat="43.02819" lon="0.30675">
        <ele>485.5</ele>
        <time>2026-07-08T06:24:56Z</time>
      </trkpt>
      <trkpt lat="43.02818" lon="0.30674">
        <ele>485.5</ele>
        <time>2026-07-08T06:24:57Z</time>
      </trkpt>
      <trkpt lat="43.02817" lon="0.30674">
        <ele>487.5</ele>
        <time>2026-07-08T06:24:57Z</time>
      </trkpt>
      <trkpt lat="43.02816" lon="0.30674">
        <ele>487.5</ele>
        <time>2026-07-08T06:24:58Z</time>
      </trkpt>
      <trkpt lat="43.02816" lon="0.30674">
        <ele>487.5</ele>
        <time>2026-07-08T06:24:59Z</time>
      </trkpt>
      <trkpt lat="43.02815" lon="0.30673">
        <ele>487.5</ele>
        <time>2026-07-08T06:24:59Z</time>
      </trkpt>
      <trkpt lat="43.02814" lon="0.30673">
        <ele>487.5</ele>
        <time>2026-07-08T06:25:00Z</time>
      </trkpt>
      <trkpt lat="43.02814" lon="0.30673">
        <ele>488.5</ele>
        <time>2026-07-08T06:25:00Z</time>
      </trkpt>
      <trkpt lat="43.02813" lon="0.30673">
        <ele>488.5</ele>
        <time>2026-07-08T06:25:01Z</time>
      </trkpt>
      <trkpt lat="43.02812" lon="0.30672">
        <ele>488.5</ele>
        <time>2026-07-08T06:25:01Z</time>
      </trkpt>
      <trkpt lat="43.02811" lon="0.30672">
        <ele>488.5</ele>
        <time>2026-07-08T06:25:02Z</time>
      </trkpt>
      <trkpt lat="43.02811" lon="0.30672">
        <ele>489.5</ele>
        <time>2026-07-08T06:25:03Z</time>
      </trkpt>
      <trkpt lat="43.0281" lon="0.30672">
        <ele>489.5</ele>
        <time>2026-07-08T06:25:03Z</time>
      </trkpt>
      <trkpt lat="43.02809" lon="0.30671">
        <ele>489.5</ele>
        <time>2026-07-08T06:25:04Z</time>
      </trkpt>
      <trkpt lat="43.02809" lon="0.30671">
        <ele>489.5</ele>
        <time>2026-07-08T06:25:04Z</time>
      </trkpt>
      <trkpt lat="43.02808" lon="0.30671">
        <ele>489.5</ele>
        <time>2026-07-08T06:25:05Z</time>
      </trkpt>
      <trkpt lat="43.02807" lon="0.3067">
        <ele>489.5</ele>
        <time>2026-07-08T06:25:05Z</time>
      </trkpt>
      <trkpt lat="43.02807" lon="0.3067">
        <ele>489.5</ele>
        <time>2026-07-08T06:25:06Z</time>
      </trkpt>
      <trkpt lat="43.02806" lon="0.3067">
        <ele>489.5</ele>
        <time>2026-07-08T06:25:06Z</time>
      </trkpt>
      <trkpt lat="43.02805" lon="0.30669">
        <ele>489.5</ele>
        <time>2026-07-08T06:25:07Z</time>
      </trkpt>
      <trkpt lat="43.02805" lon="0.30669">
        <ele>489.5</ele>
        <time>2026-07-08T06:25:08Z</time>
      </trkpt>
      <trkpt lat="43.02804" lon="0.30669">
        <ele>489.5</ele>
        <time>2026-07-08T06:25:08Z</time>
      </trkpt>
      <trkpt lat="43.02803" lon="0.30668">
        <ele>489.5</ele>
        <time>2026-07-08T06:25:09Z</time>
      </trkpt>
      <trkpt lat="43.02803" lon="0.30668">
        <ele>489.5</ele>
        <time>2026-07-08T06:25:09Z</time>
      </trkpt>
      <trkpt lat="43.02802" lon="0.30668">
        <ele>489.5</ele>
        <time>2026-07-08T06:25:10Z</time>
      </trkpt>
      <trkpt lat="43.02801" lon="0.30667">
        <ele>489.5</ele>
        <time>2026-07-08T06:25:10Z</time>
      </trkpt>
      <trkpt lat="43.02801" lon="0.30667">
        <ele>489.5</ele>
        <time>2026-07-08T06:25:11Z</time>
      </trkpt>
      <trkpt lat="43.028" lon="0.30667">
        <ele>489.5</ele>
        <time>2026-07-08T06:25:12Z</time>
      </trkpt>
      <trkpt lat="43.028" lon="0.30666">
        <ele>489.5</ele>
        <time>2026-07-08T06:25:12Z</time>
      </trkpt>
      <trkpt lat="43.02799" lon="0.30666">
        <ele>489.5</ele>
        <time>2026-07-08T06:25:13Z</time>
      </trkpt>
      <trkpt lat="43.02798" lon="0.30665">
        <ele>489.5</ele>
        <time>2026-07-08T06:25:13Z</time>
      </trkpt>
      <trkpt lat="43.02798" lon="0.30665">
        <ele>489.5</ele>
        <time>2026-07-08T06:25:14Z</time>
      </trkpt>
      <trkpt lat="43.02797" lon="0.30665">
        <ele>489.5</ele>
        <time>2026-07-08T06:25:15Z</time>
      </trkpt>
      <trkpt lat="43.02796" lon="0.30664">
        <ele>489.5</ele>
        <time>2026-07-08T06:25:15Z</time>
      </trkpt>
      <trkpt lat="43.02795" lon="0.30664">
        <ele>489.5</ele>
        <time>2026-07-08T06:25:16Z</time>
      </trkpt>
      <trkpt lat="43.02795" lon="0.30664">
        <ele>489.5</ele>
        <time>2026-07-08T06:25:16Z</time>
      </trkpt>
      <trkpt lat="43.02794" lon="0.30663">
        <ele>489.5</ele>
        <time>2026-07-08T06:25:17Z</time>
      </trkpt>
      <trkpt lat="43.02793" lon="0.30663">
        <ele>490.5</ele>
        <time>2026-07-08T06:25:17Z</time>
      </trkpt>
      <trkpt lat="43.02793" lon="0.30663">
        <ele>490.5</ele>
        <time>2026-07-08T06:25:18Z</time>
      </trkpt>
      <trkpt lat="43.02792" lon="0.30663">
        <ele>490.5</ele>
        <time>2026-07-08T06:25:19Z</time>
      </trkpt>
      <trkpt lat="43.02792" lon="0.30662">
        <ele>490.5</ele>
        <time>2026-07-08T06:25:19Z</time>
      </trkpt>
      <trkpt lat="43.02791" lon="0.30662">
        <ele>490.5</ele>
        <time>2026-07-08T06:25:20Z</time>
      </trkpt>
      <trkpt lat="43.0279" lon="0.30662">
        <ele>490.5</ele>
        <time>2026-07-08T06:25:20Z</time>
      </trkpt>
      <trkpt lat="43.0279" lon="0.30661">
        <ele>490.5</ele>
        <time>2026-07-08T06:25:21Z</time>
      </trkpt>
      <trkpt lat="43.02789" lon="0.30661">
        <ele>490.5</ele>
        <time>2026-07-08T06:25:21Z</time>
      </trkpt>
      <trkpt lat="43.02788" lon="0.30661">
        <ele>490.5</ele>
        <time>2026-07-08T06:25:22Z</time>
      </trkpt>
      <trkpt lat="43.02788" lon="0.30661">
        <ele>490.5</ele>
        <time>2026-07-08T06:25:23Z</time>
      </trkpt>
      <trkpt lat="43.02787" lon="0.3066">
        <ele>490.5</ele>
        <time>2026-07-08T06:25:23Z</time>
      </trkpt>
      <trkpt lat="43.02787" lon="0.3066">
        <ele>490.5</ele>
        <time>2026-07-08T06:25:24Z</time>
      </trkpt>
      <trkpt lat="43.02786" lon="0.3066">
        <ele>490.5</ele>
        <time>2026-07-08T06:25:24Z</time>
      </trkpt>
      <trkpt lat="43.02786" lon="0.3066">
        <ele>490.5</ele>
        <time>2026-07-08T06:25:25Z</time>
      </trkpt>
      <trkpt lat="43.02785" lon="0.30659">
        <ele>490.5</ele>
        <time>2026-07-08T06:25:25Z</time>
      </trkpt>
      <trkpt lat="43.02784" lon="0.30659">
        <ele>490.5</ele>
        <time>2026-07-08T06:25:26Z</time>
      </trkpt>
      <trkpt lat="43.02784" lon="0.30658">
        <ele>490.5</ele>
        <time>2026-07-08T06:25:27Z</time>
      </trkpt>
      <trkpt lat="43.02784" lon="0.30658">
        <ele>490.5</ele>
        <time>2026-07-08T06:25:27Z</time>
      </trkpt>
      <trkpt lat="43.02783" lon="0.30658">
        <ele>490.5</ele>
        <time>2026-07-08T06:25:28Z</time>
      </trkpt>
      <trkpt lat="43.02782" lon="0.30658">
        <ele>490.5</ele>
        <time>2026-07-08T06:25:28Z</time>
      </trkpt>
      <trkpt lat="43.02781" lon="0.30657">
        <ele>490.5</ele>
        <time>2026-07-08T06:25:29Z</time>
      </trkpt>
      <trkpt lat="43.02781" lon="0.30657">
        <ele>490.5</ele>
        <time>2026-07-08T06:25:29Z</time>
      </trkpt>
      <trkpt lat="43.0278" lon="0.30656">
        <ele>490.5</ele>
        <time>2026-07-08T06:25:30Z</time>
      </trkpt>
      <trkpt lat="43.0278" lon="0.30656">
        <ele>490.5</ele>
        <time>2026-07-08T06:25:30Z</time>
      </trkpt>
      <trkpt lat="43.02779" lon="0.30656">
        <ele>490.5</ele>
        <time>2026-07-08T06:25:31Z</time>
      </trkpt>
      <trkpt lat="43.02778" lon="0.30655">
        <ele>490.5</ele>
        <time>2026-07-08T06:25:32Z</time>
      </trkpt>
      <trkpt lat="43.02778" lon="0.30655">
        <ele>490.5</ele>
        <time>2026-07-08T06:25:32Z</time>
      </trkpt>
      <trkpt lat="43.02777" lon="0.30655">
        <ele>490.5</ele>
        <time>2026-07-08T06:25:33Z</time>
      </trkpt>
      <trkpt lat="43.02776" lon="0.30654">
        <ele>490.5</ele>
        <time>2026-07-08T06:25:33Z</time>
      </trkpt>
      <trkpt lat="43.02776" lon="0.30654">
        <ele>490.5</ele>
        <time>2026-07-08T06:25:34Z</time>
      </trkpt>
      <trkpt lat="43.02775" lon="0.30654">
        <ele>490.5</ele>
        <time>2026-07-08T06:25:35Z</time>
      </trkpt>
      <trkpt lat="43.02774" lon="0.30654">
        <ele>490.5</ele>
        <time>2026-07-08T06:25:35Z</time>
      </trkpt>
      <trkpt lat="43.02774" lon="0.30653">
        <ele>490.5</ele>
        <time>2026-07-08T06:25:36Z</time>
      </trkpt>
      <trkpt lat="43.02773" lon="0.30653">
        <ele>491.5</ele>
        <time>2026-07-08T06:25:36Z</time>
      </trkpt>
      <trkpt lat="43.02772" lon="0.30653">
        <ele>491.5</ele>
        <time>2026-07-08T06:25:37Z</time>
      </trkpt>
      <trkpt lat="43.02772" lon="0.30652">
        <ele>491.5</ele>
        <time>2026-07-08T06:25:37Z</time>
      </trkpt>
      <trkpt lat="43.02771" lon="0.30652">
        <ele>491.5</ele>
        <time>2026-07-08T06:25:38Z</time>
      </trkpt>
      <trkpt lat="43.02771" lon="0.30652">
        <ele>490.5</ele>
        <time>2026-07-08T06:25:39Z</time>
      </trkpt>
      <trkpt lat="43.0277" lon="0.30652">
        <ele>490.5</ele>
        <time>2026-07-08T06:25:39Z</time>
      </trkpt>
      <trkpt lat="43.02769" lon="0.30652">
        <ele>490.5</ele>
        <time>2026-07-08T06:25:40Z</time>
      </trkpt>
      <trkpt lat="43.02769" lon="0.30652">
        <ele>490.5</ele>
        <time>2026-07-08T06:25:40Z</time>
      </trkpt>
      <trkpt lat="43.02768" lon="0.30651">
        <ele>490.5</ele>
        <time>2026-07-08T06:25:41Z</time>
      </trkpt>
      <trkpt lat="43.02768" lon="0.30651">
        <ele>490.5</ele>
        <time>2026-07-08T06:25:41Z</time>
      </trkpt>
      <trkpt lat="43.02767" lon="0.30651">
        <ele>490.5</ele>
        <time>2026-07-08T06:25:42Z</time>
      </trkpt>
      <trkpt lat="43.02766" lon="0.30651">
        <ele>489.5</ele>
        <time>2026-07-08T06:25:43Z</time>
      </trkpt>
      <trkpt lat="43.02766" lon="0.30651">
        <ele>488.5</ele>
        <time>2026-07-08T06:25:43Z</time>
      </trkpt>
      <trkpt lat="43.02765" lon="0.3065">
        <ele>488.5</ele>
        <time>2026-07-08T06:25:44Z</time>
      </trkpt>
      <trkpt lat="43.02764" lon="0.3065">
        <ele>488.5</ele>
        <time>2026-07-08T06:25:44Z</time>
      </trkpt>
      <trkpt lat="43.02764" lon="0.3065">
        <ele>488.5</ele>
        <time>2026-07-08T06:25:45Z</time>
      </trkpt>
      <trkpt lat="43.02763" lon="0.3065">
        <ele>489.5</ele>
        <time>2026-07-08T06:25:45Z</time>
      </trkpt>
      <trkpt lat="43.02762" lon="0.3065">
        <ele>489.5</ele>
        <time>2026-07-08T06:25:46Z</time>
      </trkpt>
      <trkpt lat="43.02762" lon="0.3065">
        <ele>489.5</ele>
        <time>2026-07-08T06:25:47Z</time>
      </trkpt>
      <trkpt lat="43.02761" lon="0.3065">
        <ele>490.5</ele>
        <time>2026-07-08T06:25:47Z</time>
      </trkpt>
      <trkpt lat="43.0276" lon="0.30649">
        <ele>490.5</ele>
        <time>2026-07-08T06:25:48Z</time>
      </trkpt>
      <trkpt lat="43.0276" lon="0.30649">
        <ele>490.5</ele>
        <time>2026-07-08T06:25:48Z</time>
      </trkpt>
      <trkpt lat="43.02759" lon="0.30649">
        <ele>490.5</ele>
        <time>2026-07-08T06:25:49Z</time>
      </trkpt>
      <trkpt lat="43.02758" lon="0.30649">
        <ele>491.5</ele>
        <time>2026-07-08T06:25:49Z</time>
      </trkpt>
      <trkpt lat="43.02758" lon="0.30649">
        <ele>491.5</ele>
        <time>2026-07-08T06:25:50Z</time>
      </trkpt>
      <trkpt lat="43.02757" lon="0.30649">
        <ele>491.5</ele>
        <time>2026-07-08T06:25:51Z</time>
      </trkpt>
      <trkpt lat="43.02757" lon="0.30649">
        <ele>491.5</ele>
        <time>2026-07-08T06:25:51Z</time>
      </trkpt>
      <trkpt lat="43.02756" lon="0.30648">
        <ele>491.5</ele>
        <time>2026-07-08T06:25:52Z</time>
      </trkpt>
      <trkpt lat="43.02756" lon="0.30648">
        <ele>491.5</ele>
        <time>2026-07-08T06:25:52Z</time>
      </trkpt>
      <trkpt lat="43.02755" lon="0.30648">
        <ele>491.5</ele>
        <time>2026-07-08T06:25:53Z</time>
      </trkpt>
      <trkpt lat="43.02755" lon="0.30647">
        <ele>491.5</ele>
        <time>2026-07-08T06:25:53Z</time>
      </trkpt>
      <trkpt lat="43.02754" lon="0.30647">
        <ele>491.5</ele>
        <time>2026-07-08T06:25:54Z</time>
      </trkpt>
      <trkpt lat="43.02753" lon="0.30647">
        <ele>491.5</ele>
        <time>2026-07-08T06:25:55Z</time>
      </trkpt>
      <trkpt lat="43.02753" lon="0.30647">
        <ele>491.5</ele>
        <time>2026-07-08T06:25:55Z</time>
      </trkpt>
      <trkpt lat="43.02752" lon="0.30646">
        <ele>491.5</ele>
        <time>2026-07-08T06:25:56Z</time>
      </trkpt>
      <trkpt lat="43.02752" lon="0.30646">
        <ele>491.5</ele>
        <time>2026-07-08T06:25:56Z</time>
      </trkpt>
      <trkpt lat="43.02751" lon="0.30646">
        <ele>491.5</ele>
        <time>2026-07-08T06:25:57Z</time>
      </trkpt>
      <trkpt lat="43.0275" lon="0.30646">
        <ele>492.5</ele>
        <time>2026-07-08T06:25:57Z</time>
      </trkpt>
      <trkpt lat="43.0275" lon="0.30646">
        <ele>492.5</ele>
        <time>2026-07-08T06:25:58Z</time>
      </trkpt>
      <trkpt lat="43.02749" lon="0.30645">
        <ele>492.5</ele>
        <time>2026-07-08T06:25:59Z</time>
      </trkpt>
      <trkpt lat="43.02749" lon="0.30645">
        <ele>492.5</ele>
        <time>2026-07-08T06:25:59Z</time>
      </trkpt>
      <trkpt lat="43.02748" lon="0.30644">
        <ele>492.5</ele>
        <time>2026-07-08T06:26:00Z</time>
      </trkpt>
      <trkpt lat="43.02747" lon="0.30644">
        <ele>492.5</ele>
        <time>2026-07-08T06:26:00Z</time>
      </trkpt>
      <trkpt lat="43.02747" lon="0.30644">
        <ele>492.5</ele>
        <time>2026-07-08T06:26:01Z</time>
      </trkpt>
      <trkpt lat="43.02746" lon="0.30643">
        <ele>492.5</ele>
        <time>2026-07-08T06:26:01Z</time>
      </trkpt>
      <trkpt lat="43.02745" lon="0.30643">
        <ele>492.5</ele>
        <time>2026-07-08T06:26:02Z</time>
      </trkpt>
      <trkpt lat="43.02745" lon="0.30643">
        <ele>492.5</ele>
        <time>2026-07-08T06:26:03Z</time>
      </trkpt>
      <trkpt lat="43.02744" lon="0.30643">
        <ele>492.5</ele>
        <time>2026-07-08T06:26:03Z</time>
      </trkpt>
      <trkpt lat="43.02744" lon="0.30642">
        <ele>492.5</ele>
        <time>2026-07-08T06:26:04Z</time>
      </trkpt>
      <trkpt lat="43.02743" lon="0.30642">
        <ele>492.5</ele>
        <time>2026-07-08T06:26:04Z</time>
      </trkpt>
      <trkpt lat="43.02742" lon="0.30642">
        <ele>492.5</ele>
        <time>2026-07-08T06:26:05Z</time>
      </trkpt>
      <trkpt lat="43.02742" lon="0.30641">
        <ele>492.5</ele>
        <time>2026-07-08T06:26:05Z</time>
      </trkpt>
      <trkpt lat="43.02741" lon="0.30641">
        <ele>492.5</ele>
        <time>2026-07-08T06:26:06Z</time>
      </trkpt>
      <trkpt lat="43.02741" lon="0.30641">
        <ele>492.5</ele>
        <time>2026-07-08T06:26:07Z</time>
      </trkpt>
      <trkpt lat="43.0274" lon="0.30641">
        <ele>492.5</ele>
        <time>2026-07-08T06:26:07Z</time>
      </trkpt>
      <trkpt lat="43.02739" lon="0.3064">
        <ele>492.5</ele>
        <time>2026-07-08T06:26:08Z</time>
      </trkpt>
      <trkpt lat="43.02739" lon="0.3064">
        <ele>493.5</ele>
        <time>2026-07-08T06:26:08Z</time>
      </trkpt>
      <trkpt lat="43.02738" lon="0.3064">
        <ele>493.5</ele>
        <time>2026-07-08T06:26:09Z</time>
      </trkpt>
      <trkpt lat="43.02737" lon="0.30639">
        <ele>493.5</ele>
        <time>2026-07-08T06:26:09Z</time>
      </trkpt>
      <trkpt lat="43.02737" lon="0.30639">
        <ele>494.5</ele>
        <time>2026-07-08T06:26:10Z</time>
      </trkpt>
      <trkpt lat="43.02736" lon="0.30639">
        <ele>494.5</ele>
        <time>2026-07-08T06:26:11Z</time>
      </trkpt>
      <trkpt lat="43.02736" lon="0.30638">
        <ele>493.5</ele>
        <time>2026-07-08T06:26:11Z</time>
      </trkpt>
      <trkpt lat="43.02735" lon="0.30638">
        <ele>493.5</ele>
        <time>2026-07-08T06:26:12Z</time>
      </trkpt>
      <trkpt lat="43.02734" lon="0.30638">
        <ele>493.5</ele>
        <time>2026-07-08T06:26:12Z</time>
      </trkpt>
      <trkpt lat="43.02733" lon="0.30638">
        <ele>493.5</ele>
        <time>2026-07-08T06:26:13Z</time>
      </trkpt>
      <trkpt lat="43.02733" lon="0.30637">
        <ele>494.5</ele>
        <time>2026-07-08T06:26:13Z</time>
      </trkpt>
      <trkpt lat="43.02732" lon="0.30637">
        <ele>494.5</ele>
        <time>2026-07-08T06:26:14Z</time>
      </trkpt>
      <trkpt lat="43.02731" lon="0.30637">
        <ele>494.5</ele>
        <time>2026-07-08T06:26:15Z</time>
      </trkpt>
      <trkpt lat="43.02731" lon="0.30637">
        <ele>494.5</ele>
        <time>2026-07-08T06:26:15Z</time>
      </trkpt>
      <trkpt lat="43.0273" lon="0.30636">
        <ele>494.5</ele>
        <time>2026-07-08T06:26:16Z</time>
      </trkpt>
      <trkpt lat="43.02729" lon="0.30636">
        <ele>494.5</ele>
        <time>2026-07-08T06:26:16Z</time>
      </trkpt>
      <trkpt lat="43.02729" lon="0.30636">
        <ele>494.5</ele>
        <time>2026-07-08T06:26:17Z</time>
      </trkpt>
      <trkpt lat="43.02728" lon="0.30635">
        <ele>494.5</ele>
        <time>2026-07-08T06:26:17Z</time>
      </trkpt>
      <trkpt lat="43.02727" lon="0.30635">
        <ele>494.5</ele>
        <time>2026-07-08T06:26:18Z</time>
      </trkpt>
      <trkpt lat="43.02727" lon="0.30635">
        <ele>493.5</ele>
        <time>2026-07-08T06:26:19Z</time>
      </trkpt>
      <trkpt lat="43.02726" lon="0.30635">
        <ele>493.5</ele>
        <time>2026-07-08T06:26:19Z</time>
      </trkpt>
      <trkpt lat="43.02725" lon="0.30634">
        <ele>494.5</ele>
        <time>2026-07-08T06:26:20Z</time>
      </trkpt>
      <trkpt lat="43.02725" lon="0.30634">
        <ele>494.5</ele>
        <time>2026-07-08T06:26:20Z</time>
      </trkpt>
      <trkpt lat="43.02724" lon="0.30634">
        <ele>494.5</ele>
        <time>2026-07-08T06:26:21Z</time>
      </trkpt>
      <trkpt lat="43.02723" lon="0.30634">
        <ele>493.5</ele>
        <time>2026-07-08T06:26:21Z</time>
      </trkpt>
      <trkpt lat="43.02723" lon="0.30633">
        <ele>493.5</ele>
        <time>2026-07-08T06:26:22Z</time>
      </trkpt>
      <trkpt lat="43.02722" lon="0.30633">
        <ele>493.5</ele>
        <time>2026-07-08T06:26:22Z</time>
      </trkpt>
      <trkpt lat="43.02722" lon="0.30632">
        <ele>493.5</ele>
        <time>2026-07-08T06:26:23Z</time>
      </trkpt>
      <trkpt lat="43.02721" lon="0.30632">
        <ele>493.5</ele>
        <time>2026-07-08T06:26:24Z</time>
      </trkpt>
      <trkpt lat="43.02721" lon="0.30631">
        <ele>493.5</ele>
        <time>2026-07-08T06:26:24Z</time>
      </trkpt>
      <trkpt lat="43.0272" lon="0.30631">
        <ele>493.5</ele>
        <time>2026-07-08T06:26:25Z</time>
      </trkpt>
      <trkpt lat="43.02719" lon="0.3063">
        <ele>493.5</ele>
        <time>2026-07-08T06:26:25Z</time>
      </trkpt>
      <trkpt lat="43.02719" lon="0.3063">
        <ele>493.5</ele>
        <time>2026-07-08T06:26:26Z</time>
      </trkpt>
      <trkpt lat="43.02718" lon="0.30629">
        <ele>493.5</ele>
        <time>2026-07-08T06:26:26Z</time>
      </trkpt>
      <trkpt lat="43.02718" lon="0.30629">
        <ele>493.5</ele>
        <time>2026-07-08T06:26:27Z</time>
      </trkpt>
      <trkpt lat="43.02717" lon="0.30628">
        <ele>493.5</ele>
        <time>2026-07-08T06:26:28Z</time>
      </trkpt>
      <trkpt lat="43.02717" lon="0.30628">
        <ele>493.5</ele>
        <time>2026-07-08T06:26:28Z</time>
      </trkpt>
      <trkpt lat="43.02716" lon="0.30627">
        <ele>493.5</ele>
        <time>2026-07-08T06:26:29Z</time>
      </trkpt>
      <trkpt lat="43.02715" lon="0.30628">
        <ele>493.5</ele>
        <time>2026-07-08T06:26:30Z</time>
      </trkpt>
      <trkpt lat="43.02715" lon="0.30628">
        <ele>492.5</ele>
        <time>2026-07-08T06:26:31Z</time>
      </trkpt>
      <trkpt lat="43.02715" lon="0.30629">
        <ele>492.5</ele>
        <time>2026-07-08T06:26:32Z</time>
      </trkpt>
      <trkpt lat="43.02715" lon="0.30629">
        <ele>492.5</ele>
        <time>2026-07-08T06:26:33Z</time>
      </trkpt>
      <trkpt lat="43.02716" lon="0.30629">
        <ele>492.5</ele>
        <time>2026-07-08T06:26:34Z</time>
      </trkpt>
      <trkpt lat="43.02717" lon="0.30629">
        <ele>493.5</ele>
        <time>2026-07-08T06:26:35Z</time>
      </trkpt>
      <trkpt lat="43.02717" lon="0.30629">
        <ele>493.5</ele>
        <time>2026-07-08T06:26:36Z</time>
      </trkpt>
      <trkpt lat="43.02717" lon="0.30629">
        <ele>493.5</ele>
        <time>2026-07-08T06:26:37Z</time>
      </trkpt>
      <trkpt lat="43.02717" lon="0.30629">
        <ele>493.5</ele>
        <time>2026-07-08T06:26:38Z</time>
      </trkpt>
      <trkpt lat="43.02718" lon="0.30629">
        <ele>493.5</ele>
        <time>2026-07-08T06:26:39Z</time>
      </trkpt>
      <trkpt lat="43.02718" lon="0.30629">
        <ele>492.5</ele>
        <time>2026-07-08T06:26:40Z</time>
      </trkpt>
      <trkpt lat="43.02718" lon="0.30629">
        <ele>492.5</ele>
        <time>2026-07-08T06:26:40Z</time>
      </trkpt>
      <trkpt lat="43.02718" lon="0.30628">
        <ele>492.5</ele>
        <time>2026-07-08T06:26:41Z</time>
      </trkpt>
      <trkpt lat="43.02718" lon="0.30628">
        <ele>492.5</ele>
        <time>2026-07-08T06:26:42Z</time>
      </trkpt>
      <trkpt lat="43.02718" lon="0.30628">
        <ele>492.5</ele>
        <time>2026-07-08T06:26:42Z</time>
      </trkpt>
      <trkpt lat="43.02718" lon="0.30629">
        <ele>492.5</ele>
        <time>2026-07-08T06:26:43Z</time>
      </trkpt>
      <trkpt lat="43.02718" lon="0.30629">
        <ele>492.5</ele>
        <time>2026-07-08T06:26:44Z</time>
      </trkpt>
      <trkpt lat="43.02718" lon="0.30629">
        <ele>492.5</ele>
        <time>2026-07-08T06:26:44Z</time>
      </trkpt>
      <trkpt lat="43.02718" lon="0.30629">
        <ele>492.5</ele>
        <time>2026-07-08T06:26:45Z</time>
      </trkpt>
      <trkpt lat="43.02718" lon="0.3063">
        <ele>493.5</ele>
        <time>2026-07-08T06:26:46Z</time>
      </trkpt>
      <trkpt lat="43.02718" lon="0.30631">
        <ele>493.5</ele>
        <time>2026-07-08T06:26:46Z</time>
      </trkpt>
      <trkpt lat="43.02719" lon="0.30632">
        <ele>493.5</ele>
        <time>2026-07-08T06:26:47Z</time>
      </trkpt>
      <trkpt lat="43.02719" lon="0.30634">
        <ele>493.5</ele>
        <time>2026-07-08T06:26:47Z</time>
      </trkpt>
      <trkpt lat="43.02719" lon="0.30634">
        <ele>493.5</ele>
        <time>2026-07-08T06:26:48Z</time>
      </trkpt>
      <trkpt lat="43.0272" lon="0.30635">
        <ele>493.5</ele>
        <time>2026-07-08T06:26:49Z</time>
      </trkpt>
      <trkpt lat="43.0272" lon="0.30636">
        <ele>493.5</ele>
        <time>2026-07-08T06:26:49Z</time>
      </trkpt>
      <trkpt lat="43.0272" lon="0.30637">
        <ele>493.5</ele>
        <time>2026-07-08T06:26:50Z</time>
      </trkpt>
      <trkpt lat="43.02721" lon="0.30637">
        <ele>493.5</ele>
        <time>2026-07-08T06:26:50Z</time>
      </trkpt>
      <trkpt lat="43.02721" lon="0.30638">
        <ele>493.5</ele>
        <time>2026-07-08T06:26:51Z</time>
      </trkpt>
      <trkpt lat="43.02721" lon="0.30639">
        <ele>493.5</ele>
        <time>2026-07-08T06:26:52Z</time>
      </trkpt>
      <trkpt lat="43.02721" lon="0.3064">
        <ele>493.5</ele>
        <time>2026-07-08T06:26:52Z</time>
      </trkpt>
      <trkpt lat="43.02722" lon="0.30641">
        <ele>493.5</ele>
        <time>2026-07-08T06:26:53Z</time>
      </trkpt>
      <trkpt lat="43.02722" lon="0.30642">
        <ele>493.5</ele>
        <time>2026-07-08T06:26:54Z</time>
      </trkpt>
      <trkpt lat="43.02722" lon="0.30642">
        <ele>494.5</ele>
        <time>2026-07-08T06:26:54Z</time>
      </trkpt>
      <trkpt lat="43.02722" lon="0.30643">
        <ele>494.5</ele>
        <time>2026-07-08T06:26:55Z</time>
      </trkpt>
      <trkpt lat="43.02722" lon="0.30644">
        <ele>493.5</ele>
        <time>2026-07-08T06:26:55Z</time>
      </trkpt>
      <trkpt lat="43.02723" lon="0.30645">
        <ele>493.5</ele>
        <time>2026-07-08T06:26:56Z</time>
      </trkpt>
      <trkpt lat="43.02723" lon="0.30646">
        <ele>493.5</ele>
        <time>2026-07-08T06:26:56Z</time>
      </trkpt>
      <trkpt lat="43.02723" lon="0.30647">
        <ele>493.5</ele>
        <time>2026-07-08T06:26:57Z</time>
      </trkpt>
      <trkpt lat="43.02724" lon="0.30648">
        <ele>494.5</ele>
        <time>2026-07-08T06:26:57Z</time>
      </trkpt>
      <trkpt lat="43.02724" lon="0.30649">
        <ele>494.5</ele>
        <time>2026-07-08T06:26:58Z</time>
      </trkpt>
      <trkpt lat="43.02724" lon="0.30649">
        <ele>494.5</ele>
        <time>2026-07-08T06:26:58Z</time>
      </trkpt>
      <trkpt lat="43.02724" lon="0.3065">
        <ele>495.5</ele>
        <time>2026-07-08T06:26:59Z</time>
      </trkpt>
      <trkpt lat="43.02724" lon="0.30651">
        <ele>495.5</ele>
        <time>2026-07-08T06:27:00Z</time>
      </trkpt>
      <trkpt lat="43.02724" lon="0.30651">
        <ele>495.5</ele>
        <time>2026-07-08T06:27:00Z</time>
      </trkpt>
      <trkpt lat="43.02724" lon="0.30652">
        <ele>495.5</ele>
        <time>2026-07-08T06:27:01Z</time>
      </trkpt>
      <trkpt lat="43.02725" lon="0.30653">
        <ele>495.5</ele>
        <time>2026-07-08T06:27:01Z</time>
      </trkpt>
      <trkpt lat="43.02725" lon="0.30654">
        <ele>495.5</ele>
        <time>2026-07-08T06:27:02Z</time>
      </trkpt>
      <trkpt lat="43.02725" lon="0.30654">
        <ele>495.5</ele>
        <time>2026-07-08T06:27:03Z</time>
      </trkpt>
      <trkpt lat="43.02725" lon="0.30655">
        <ele>495.5</ele>
        <time>2026-07-08T06:27:03Z</time>
      </trkpt>
      <trkpt lat="43.02725" lon="0.30656">
        <ele>495.5</ele>
        <time>2026-07-08T06:27:04Z</time>
      </trkpt>
      <trkpt lat="43.02726" lon="0.30657">
        <ele>496.5</ele>
        <time>2026-07-08T06:27:04Z</time>
      </trkpt>
      <trkpt lat="43.02726" lon="0.30657">
        <ele>496.5</ele>
        <time>2026-07-08T06:27:05Z</time>
      </trkpt>
      <trkpt lat="43.02726" lon="0.30658">
        <ele>496.5</ele>
        <time>2026-07-08T06:27:05Z</time>
      </trkpt>
      <trkpt lat="43.02726" lon="0.30659">
        <ele>496.5</ele>
        <time>2026-07-08T06:27:06Z</time>
      </trkpt>
      <trkpt lat="43.02726" lon="0.3066">
        <ele>495.5</ele>
        <time>2026-07-08T06:27:06Z</time>
      </trkpt>
      <trkpt lat="43.02726" lon="0.30661">
        <ele>495.5</ele>
        <time>2026-07-08T06:27:07Z</time>
      </trkpt>
      <trkpt lat="43.02727" lon="0.30662">
        <ele>495.5</ele>
        <time>2026-07-08T06:27:08Z</time>
      </trkpt>
      <trkpt lat="43.02727" lon="0.30662">
        <ele>495.5</ele>
        <time>2026-07-08T06:27:08Z</time>
      </trkpt>
      <trkpt lat="43.02727" lon="0.30663">
        <ele>495.5</ele>
        <time>2026-07-08T06:27:09Z</time>
      </trkpt>
      <trkpt lat="43.02728" lon="0.30664">
        <ele>495.5</ele>
        <time>2026-07-08T06:27:09Z</time>
      </trkpt>
      <trkpt lat="43.02728" lon="0.30665">
        <ele>495.5</ele>
        <time>2026-07-08T06:27:10Z</time>
      </trkpt>
      <trkpt lat="43.02728" lon="0.30666">
        <ele>495.5</ele>
        <time>2026-07-08T06:27:10Z</time>
      </trkpt>
      <trkpt lat="43.02729" lon="0.30666">
        <ele>495.5</ele>
        <time>2026-07-08T06:27:11Z</time>
      </trkpt>
      <trkpt lat="43.02729" lon="0.30667">
        <ele>495.5</ele>
        <time>2026-07-08T06:27:12Z</time>
      </trkpt>
      <trkpt lat="43.02729" lon="0.30668">
        <ele>495.5</ele>
        <time>2026-07-08T06:27:12Z</time>
      </trkpt>
      <trkpt lat="43.0273" lon="0.30669">
        <ele>495.5</ele>
        <time>2026-07-08T06:27:13Z</time>
      </trkpt>
      <trkpt lat="43.0273" lon="0.30669">
        <ele>495.5</ele>
        <time>2026-07-08T06:27:13Z</time>
      </trkpt>
      <trkpt lat="43.0273" lon="0.3067">
        <ele>495.5</ele>
        <time>2026-07-08T06:27:14Z</time>
      </trkpt>
      <trkpt lat="43.02731" lon="0.30671">
        <ele>495.5</ele>
        <time>2026-07-08T06:27:14Z</time>
      </trkpt>
      <trkpt lat="43.02731" lon="0.30672">
        <ele>495.5</ele>
        <time>2026-07-08T06:27:15Z</time>
      </trkpt>
      <trkpt lat="43.02731" lon="0.30672">
        <ele>495.5</ele>
        <time>2026-07-08T06:27:16Z</time>
      </trkpt>
      <trkpt lat="43.02732" lon="0.30673">
        <ele>495.5</ele>
        <time>2026-07-08T06:27:16Z</time>
      </trkpt>
      <trkpt lat="43.02732" lon="0.30673">
        <ele>495.5</ele>
        <time>2026-07-08T06:27:17Z</time>
      </trkpt>
      <trkpt lat="43.02733" lon="0.30674">
        <ele>495.5</ele>
        <time>2026-07-08T06:27:17Z</time>
      </trkpt>
      <trkpt lat="43.02733" lon="0.30675">
        <ele>495.5</ele>
        <time>2026-07-08T06:27:18Z</time>
      </trkpt>
      <trkpt lat="43.02734" lon="0.30675">
        <ele>495.5</ele>
        <time>2026-07-08T06:27:18Z</time>
      </trkpt>
      <trkpt lat="43.02734" lon="0.30676">
        <ele>495.5</ele>
        <time>2026-07-08T06:27:19Z</time>
      </trkpt>
      <trkpt lat="43.02735" lon="0.30677">
        <ele>495.5</ele>
        <time>2026-07-08T06:27:19Z</time>
      </trkpt>
      <trkpt lat="43.02735" lon="0.30677">
        <ele>495.5</ele>
        <time>2026-07-08T06:27:20Z</time>
      </trkpt>
      <trkpt lat="43.02736" lon="0.30678">
        <ele>496.5</ele>
        <time>2026-07-08T06:27:21Z</time>
      </trkpt>
      <trkpt lat="43.02736" lon="0.30678">
        <ele>497.5</ele>
        <time>2026-07-08T06:27:21Z</time>
      </trkpt>
      <trkpt lat="43.02737" lon="0.30679">
        <ele>497.5</ele>
        <time>2026-07-08T06:27:22Z</time>
      </trkpt>
      <trkpt lat="43.02738" lon="0.3068">
        <ele>497.5</ele>
        <time>2026-07-08T06:27:22Z</time>
      </trkpt>
      <trkpt lat="43.02738" lon="0.3068">
        <ele>497.5</ele>
        <time>2026-07-08T06:27:23Z</time>
      </trkpt>
      <trkpt lat="43.02739" lon="0.30681">
        <ele>497.5</ele>
        <time>2026-07-08T06:27:23Z</time>
      </trkpt>
      <trkpt lat="43.02739" lon="0.30682">
        <ele>497.5</ele>
        <time>2026-07-08T06:27:24Z</time>
      </trkpt>
      <trkpt lat="43.0274" lon="0.30682">
        <ele>498.5</ele>
        <time>2026-07-08T06:27:25Z</time>
      </trkpt>
      <trkpt lat="43.0274" lon="0.30683">
        <ele>498.5</ele>
        <time>2026-07-08T06:27:25Z</time>
      </trkpt>
      <trkpt lat="43.0274" lon="0.30684">
        <ele>498.5</ele>
        <time>2026-07-08T06:27:26Z</time>
      </trkpt>
      <trkpt lat="43.02741" lon="0.30685">
        <ele>498.5</ele>
        <time>2026-07-08T06:27:26Z</time>
      </trkpt>
      <trkpt lat="43.02741" lon="0.30685">
        <ele>498.5</ele>
        <time>2026-07-08T06:27:27Z</time>
      </trkpt>
      <trkpt lat="43.02742" lon="0.30686">
        <ele>499.5</ele>
        <time>2026-07-08T06:27:27Z</time>
      </trkpt>
      <trkpt lat="43.02742" lon="0.30687">
        <ele>499.5</ele>
        <time>2026-07-08T06:27:28Z</time>
      </trkpt>
      <trkpt lat="43.02743" lon="0.30687">
        <ele>499.5</ele>
        <time>2026-07-08T06:27:29Z</time>
      </trkpt>
      <trkpt lat="43.02743" lon="0.30688">
        <ele>499.5</ele>
        <time>2026-07-08T06:27:29Z</time>
      </trkpt>
      <trkpt lat="43.02743" lon="0.30689">
        <ele>499.5</ele>
        <time>2026-07-08T06:27:30Z</time>
      </trkpt>
      <trkpt lat="43.02744" lon="0.30689">
        <ele>499.5</ele>
        <time>2026-07-08T06:27:30Z</time>
      </trkpt>
      <trkpt lat="43.02744" lon="0.3069">
        <ele>499.5</ele>
        <time>2026-07-08T06:27:31Z</time>
      </trkpt>
      <trkpt lat="43.02744" lon="0.30691">
        <ele>499.5</ele>
        <time>2026-07-08T06:27:32Z</time>
      </trkpt>
      <trkpt lat="43.02745" lon="0.30692">
        <ele>499.5</ele>
        <time>2026-07-08T06:27:32Z</time>
      </trkpt>
      <trkpt lat="43.02745" lon="0.30692">
        <ele>499.5</ele>
        <time>2026-07-08T06:27:33Z</time>
      </trkpt>
      <trkpt lat="43.02745" lon="0.30693">
        <ele>499.5</ele>
        <time>2026-07-08T06:27:33Z</time>
      </trkpt>
      <trkpt lat="43.02746" lon="0.30694">
        <ele>499.5</ele>
        <time>2026-07-08T06:27:34Z</time>
      </trkpt>
      <trkpt lat="43.02746" lon="0.30695">
        <ele>499.5</ele>
        <time>2026-07-08T06:27:34Z</time>
      </trkpt>
      <trkpt lat="43.02746" lon="0.30696">
        <ele>498.5</ele>
        <time>2026-07-08T06:27:35Z</time>
      </trkpt>
      <trkpt lat="43.02747" lon="0.30697">
        <ele>498.5</ele>
        <time>2026-07-08T06:27:36Z</time>
      </trkpt>
      <trkpt lat="43.02747" lon="0.30698">
        <ele>498.5</ele>
        <time>2026-07-08T06:27:37Z</time>
      </trkpt>
      <trkpt lat="43.02748" lon="0.30699">
        <ele>498.5</ele>
        <time>2026-07-08T06:27:37Z</time>
      </trkpt>
      <trkpt lat="43.02748" lon="0.307">
        <ele>498.5</ele>
        <time>2026-07-08T06:27:38Z</time>
      </trkpt>
      <trkpt lat="43.02748" lon="0.30701">
        <ele>499.5</ele>
        <time>2026-07-08T06:27:38Z</time>
      </trkpt>
      <trkpt lat="43.02748" lon="0.30702">
        <ele>499.5</ele>
        <time>2026-07-08T06:27:39Z</time>
      </trkpt>
      <trkpt lat="43.02748" lon="0.30703">
        <ele>498.5</ele>
        <time>2026-07-08T06:27:39Z</time>
      </trkpt>
      <trkpt lat="43.02748" lon="0.30704">
        <ele>498.5</ele>
        <time>2026-07-08T06:27:40Z</time>
      </trkpt>
      <trkpt lat="43.02748" lon="0.30705">
        <ele>499.5</ele>
        <time>2026-07-08T06:27:41Z</time>
      </trkpt>
      <trkpt lat="43.02748" lon="0.30706">
        <ele>498.5</ele>
        <time>2026-07-08T06:27:41Z</time>
      </trkpt>
      <trkpt lat="43.02749" lon="0.30707">
        <ele>498.5</ele>
        <time>2026-07-08T06:27:42Z</time>
      </trkpt>
      <trkpt lat="43.02749" lon="0.30707">
        <ele>498.5</ele>
        <time>2026-07-08T06:27:42Z</time>
      </trkpt>
      <trkpt lat="43.02749" lon="0.30708">
        <ele>498.5</ele>
        <time>2026-07-08T06:27:43Z</time>
      </trkpt>
      <trkpt lat="43.02749" lon="0.30709">
        <ele>498.5</ele>
        <time>2026-07-08T06:27:44Z</time>
      </trkpt>
      <trkpt lat="43.02749" lon="0.30709">
        <ele>498.5</ele>
        <time>2026-07-08T06:27:44Z</time>
      </trkpt>
      <trkpt lat="43.0275" lon="0.3071">
        <ele>498.5</ele>
        <time>2026-07-08T06:27:45Z</time>
      </trkpt>
      <trkpt lat="43.0275" lon="0.30711">
        <ele>498.5</ele>
        <time>2026-07-08T06:27:45Z</time>
      </trkpt>
      <trkpt lat="43.0275" lon="0.30712">
        <ele>498.5</ele>
        <time>2026-07-08T06:27:46Z</time>
      </trkpt>
      <trkpt lat="43.0275" lon="0.30712">
        <ele>498.5</ele>
        <time>2026-07-08T06:27:46Z</time>
      </trkpt>
      <trkpt lat="43.02751" lon="0.30713">
        <ele>498.5</ele>
        <time>2026-07-08T06:27:47Z</time>
      </trkpt>
      <trkpt lat="43.02751" lon="0.30714">
        <ele>499.5</ele>
        <time>2026-07-08T06:27:48Z</time>
      </trkpt>
      <trkpt lat="43.02751" lon="0.30714">
        <ele>499.5</ele>
        <time>2026-07-08T06:27:48Z</time>
      </trkpt>
      <trkpt lat="43.02751" lon="0.30715">
        <ele>499.5</ele>
        <time>2026-07-08T06:27:49Z</time>
      </trkpt>
      <trkpt lat="43.02752" lon="0.30716">
        <ele>500.5</ele>
        <time>2026-07-08T06:27:49Z</time>
      </trkpt>
      <trkpt lat="43.02752" lon="0.30717">
        <ele>500.5</ele>
        <time>2026-07-08T06:27:50Z</time>
      </trkpt>
      <trkpt lat="43.02752" lon="0.30718">
        <ele>500.5</ele>
        <time>2026-07-08T06:27:51Z</time>
      </trkpt>
      <trkpt lat="43.02752" lon="0.30719">
        <ele>500.5</ele>
        <time>2026-07-08T06:27:51Z</time>
      </trkpt>
      <trkpt lat="43.02753" lon="0.30719">
        <ele>500.5</ele>
        <time>2026-07-08T06:27:52Z</time>
      </trkpt>
      <trkpt lat="43.02753" lon="0.3072">
        <ele>500.5</ele>
        <time>2026-07-08T06:27:53Z</time>
      </trkpt>
      <trkpt lat="43.02753" lon="0.30721">
        <ele>500.5</ele>
        <time>2026-07-08T06:27:53Z</time>
      </trkpt>
      <trkpt lat="43.02753" lon="0.30722">
        <ele>500.5</ele>
        <time>2026-07-08T06:27:54Z</time>
      </trkpt>
      <trkpt lat="43.02753" lon="0.30723">
        <ele>500.5</ele>
        <time>2026-07-08T06:27:55Z</time>
      </trkpt>
      <trkpt lat="43.02753" lon="0.30723">
        <ele>500.5</ele>
        <time>2026-07-08T06:27:55Z</time>
      </trkpt>
      <trkpt lat="43.02753" lon="0.30724">
        <ele>500.5</ele>
        <time>2026-07-08T06:27:56Z</time>
      </trkpt>
      <trkpt lat="43.02753" lon="0.30725">
        <ele>500.5</ele>
        <time>2026-07-08T06:27:57Z</time>
      </trkpt>
      <trkpt lat="43.02754" lon="0.30726">
        <ele>500.5</ele>
        <time>2026-07-08T06:27:57Z</time>
      </trkpt>
      <trkpt lat="43.02754" lon="0.30727">
        <ele>500.5</ele>
        <time>2026-07-08T06:27:58Z</time>
      </trkpt>
      <trkpt lat="43.02754" lon="0.30727">
        <ele>499.5</ele>
        <time>2026-07-08T06:27:59Z</time>
      </trkpt>
      <trkpt lat="43.02753" lon="0.30728">
        <ele>499.5</ele>
        <time>2026-07-08T06:27:59Z</time>
      </trkpt>
      <trkpt lat="43.02753" lon="0.30728">
        <ele>499.5</ele>
        <time>2026-07-08T06:28:00Z</time>
      </trkpt>
      <trkpt lat="43.02753" lon="0.30729">
        <ele>500.5</ele>
        <time>2026-07-08T06:28:01Z</time>
      </trkpt>
      <trkpt lat="43.02753" lon="0.3073">
        <ele>500.5</ele>
        <time>2026-07-08T06:28:01Z</time>
      </trkpt>
      <trkpt lat="43.02753" lon="0.3073">
        <ele>500.5</ele>
        <time>2026-07-08T06:28:02Z</time>
      </trkpt>
      <trkpt lat="43.02753" lon="0.30731">
        <ele>500.5</ele>
        <time>2026-07-08T06:28:03Z</time>
      </trkpt>
      <trkpt lat="43.02753" lon="0.30732">
        <ele>500.5</ele>
        <time>2026-07-08T06:28:04Z</time>
      </trkpt>
      <trkpt lat="43.02753" lon="0.30732">
        <ele>500.5</ele>
        <time>2026-07-08T06:28:04Z</time>
      </trkpt>
      <trkpt lat="43.02752" lon="0.30733">
        <ele>500.5</ele>
        <time>2026-07-08T06:28:05Z</time>
      </trkpt>
      <trkpt lat="43.02752" lon="0.30734">
        <ele>500.5</ele>
        <time>2026-07-08T06:28:06Z</time>
      </trkpt>
      <trkpt lat="43.02752" lon="0.30735">
        <ele>500.5</ele>
        <time>2026-07-08T06:28:07Z</time>
      </trkpt>
      <trkpt lat="43.02752" lon="0.30736">
        <ele>500.5</ele>
        <time>2026-07-08T06:28:07Z</time>
      </trkpt>
      <trkpt lat="43.02752" lon="0.30737">
        <ele>500.5</ele>
        <time>2026-07-08T06:28:08Z</time>
      </trkpt>
      <trkpt lat="43.02752" lon="0.30738">
        <ele>500.5</ele>
        <time>2026-07-08T06:28:09Z</time>
      </trkpt>
      <trkpt lat="43.02752" lon="0.30739">
        <ele>499.5</ele>
        <time>2026-07-08T06:28:09Z</time>
      </trkpt>
      <trkpt lat="43.02752" lon="0.30739">
        <ele>499.5</ele>
        <time>2026-07-08T06:28:10Z</time>
      </trkpt>
      <trkpt lat="43.02752" lon="0.3074">
        <ele>499.5</ele>
        <time>2026-07-08T06:28:11Z</time>
      </trkpt>
      <trkpt lat="43.02752" lon="0.30741">
        <ele>499.5</ele>
        <time>2026-07-08T06:28:12Z</time>
      </trkpt>
      <trkpt lat="43.02752" lon="0.30742">
        <ele>499.5</ele>
        <time>2026-07-08T06:28:13Z</time>
      </trkpt>
      <trkpt lat="43.02752" lon="0.30742">
        <ele>498.5</ele>
        <time>2026-07-08T06:28:14Z</time>
      </trkpt>
      <trkpt lat="43.02752" lon="0.30742">
        <ele>499.5</ele>
        <time>2026-07-08T06:28:14Z</time>
      </trkpt>
      <trkpt lat="43.02752" lon="0.30742">
        <ele>499.5</ele>
        <time>2026-07-08T06:28:15Z</time>
      </trkpt>
      <trkpt lat="43.02752" lon="0.30743">
        <ele>499.5</ele>
        <time>2026-07-08T06:28:16Z</time>
      </trkpt>
      <trkpt lat="43.02753" lon="0.30742">
        <ele>499.5</ele>
        <time>2026-07-08T06:28:16Z</time>
      </trkpt>
      <trkpt lat="43.02753" lon="0.30742">
        <ele>498.5</ele>
        <time>2026-07-08T06:28:17Z</time>
      </trkpt>
      <trkpt lat="43.02753" lon="0.30743">
        <ele>498.5</ele>
        <time>2026-07-08T06:28:18Z</time>
      </trkpt>
      <trkpt lat="43.02753" lon="0.30743">
        <ele>498.5</ele>
        <time>2026-07-08T06:28:19Z</time>
      </trkpt>
      <trkpt lat="43.02753" lon="0.30744">
        <ele>498.5</ele>
        <time>2026-07-08T06:28:19Z</time>
      </trkpt>
      <trkpt lat="43.02754" lon="0.30745">
        <ele>498.5</ele>
        <time>2026-07-08T06:28:20Z</time>
      </trkpt>
      <trkpt lat="43.02754" lon="0.30745">
        <ele>498.5</ele>
        <time>2026-07-08T06:28:21Z</time>
      </trkpt>
      <trkpt lat="43.02754" lon="0.30746">
        <ele>498.5</ele>
        <time>2026-07-08T06:28:21Z</time>
      </trkpt>
      <trkpt lat="43.02753" lon="0.30747">
        <ele>498.5</ele>
        <time>2026-07-08T06:28:22Z</time>
      </trkpt>
      <trkpt lat="43.02753" lon="0.30748">
        <ele>498.5</ele>
        <time>2026-07-08T06:28:23Z</time>
      </trkpt>
      <trkpt lat="43.02753" lon="0.30749">
        <ele>498.5</ele>
        <time>2026-07-08T06:28:23Z</time>
      </trkpt>
      <trkpt lat="43.02753" lon="0.30749">
        <ele>498.5</ele>
        <time>2026-07-08T06:28:24Z</time>
      </trkpt>
      <trkpt lat="43.02753" lon="0.3075">
        <ele>498.5</ele>
        <time>2026-07-08T06:28:25Z</time>
      </trkpt>
      <trkpt lat="43.02753" lon="0.30751">
        <ele>498.5</ele>
        <time>2026-07-08T06:28:25Z</time>
      </trkpt>
      <trkpt lat="43.02753" lon="0.30751">
        <ele>498.5</ele>
        <time>2026-07-08T06:28:26Z</time>
      </trkpt>
      <trkpt lat="43.02753" lon="0.30752">
        <ele>498.5</ele>
        <time>2026-07-08T06:28:27Z</time>
      </trkpt>
      <trkpt lat="43.02754" lon="0.30752">
        <ele>498.5</ele>
        <time>2026-07-08T06:28:27Z</time>
      </trkpt>
      <trkpt lat="43.02754" lon="0.30752">
        <ele>498.5</ele>
        <time>2026-07-08T06:28:28Z</time>
      </trkpt>
      <trkpt lat="43.02755" lon="0.30752">
        <ele>498.5</ele>
        <time>2026-07-08T06:28:29Z</time>
      </trkpt>
      <trkpt lat="43.02755" lon="0.30751">
        <ele>499.5</ele>
        <time>2026-07-08T06:28:29Z</time>
      </trkpt>
      <trkpt lat="43.02756" lon="0.3075">
        <ele>498.5</ele>
        <time>2026-07-08T06:28:30Z</time>
      </trkpt>
      <trkpt lat="43.02756" lon="0.30749">
        <ele>498.5</ele>
        <time>2026-07-08T06:28:31Z</time>
      </trkpt>
      <trkpt lat="43.02757" lon="0.30748">
        <ele>498.5</ele>
        <time>2026-07-08T06:28:31Z</time>
      </trkpt>
      <trkpt lat="43.02757" lon="0.30748">
        <ele>498.5</ele>
        <time>2026-07-08T06:28:32Z</time>
      </trkpt>
      <trkpt lat="43.02758" lon="0.30747">
        <ele>498.5</ele>
        <time>2026-07-08T06:28:33Z</time>
      </trkpt>
      <trkpt lat="43.02759" lon="0.30747">
        <ele>499.5</ele>
        <time>2026-07-08T06:28:33Z</time>
      </trkpt>
      <trkpt lat="43.0276" lon="0.30746">
        <ele>499.5</ele>
        <time>2026-07-08T06:28:34Z</time>
      </trkpt>
      <trkpt lat="43.02761" lon="0.30746">
        <ele>499.5</ele>
        <time>2026-07-08T06:28:35Z</time>
      </trkpt>
      <trkpt lat="43.02762" lon="0.30746">
        <ele>498.5</ele>
        <time>2026-07-08T06:28:35Z</time>
      </trkpt>
      <trkpt lat="43.02763" lon="0.30746">
        <ele>498.5</ele>
        <time>2026-07-08T06:28:36Z</time>
      </trkpt>
      <trkpt lat="43.02764" lon="0.30746">
        <ele>498.5</ele>
        <time>2026-07-08T06:28:36Z</time>
      </trkpt>
      <trkpt lat="43.02765" lon="0.30747">
        <ele>498.5</ele>
        <time>2026-07-08T06:28:37Z</time>
      </trkpt>
      <trkpt lat="43.02766" lon="0.30748">
        <ele>498.5</ele>
        <time>2026-07-08T06:28:38Z</time>
      </trkpt>
      <trkpt lat="43.02767" lon="0.30749">
        <ele>499.5</ele>
        <time>2026-07-08T06:28:38Z</time>
      </trkpt>
      <trkpt lat="43.02768" lon="0.30749">
        <ele>499.5</ele>
        <time>2026-07-08T06:28:39Z</time>
      </trkpt>
      <trkpt lat="43.02768" lon="0.3075">
        <ele>499.5</ele>
        <time>2026-07-08T06:28:40Z</time>
      </trkpt>
      <trkpt lat="43.02769" lon="0.30751">
        <ele>500.5</ele>
        <time>2026-07-08T06:28:40Z</time>
      </trkpt>
      <trkpt lat="43.0277" lon="0.30752">
        <ele>500.5</ele>
        <time>2026-07-08T06:28:41Z</time>
      </trkpt>
      <trkpt lat="43.0277" lon="0.30754">
        <ele>500.5</ele>
        <time>2026-07-08T06:28:42Z</time>
      </trkpt>
      <trkpt lat="43.02771" lon="0.30755">
        <ele>500.5</ele>
        <time>2026-07-08T06:28:43Z</time>
      </trkpt>
      <trkpt lat="43.02771" lon="0.30756">
        <ele>500.5</ele>
        <time>2026-07-08T06:28:43Z</time>
      </trkpt>
      <trkpt lat="43.02771" lon="0.30757">
        <ele>500.5</ele>
        <time>2026-07-08T06:28:44Z</time>
      </trkpt>
      <trkpt lat="43.02772" lon="0.30758">
        <ele>500.5</ele>
        <time>2026-07-08T06:28:45Z</time>
      </trkpt>
      <trkpt lat="43.02772" lon="0.30759">
        <ele>500.5</ele>
        <time>2026-07-08T06:28:45Z</time>
      </trkpt>
      <trkpt lat="43.02773" lon="0.3076">
        <ele>500.5</ele>
        <time>2026-07-08T06:28:46Z</time>
      </trkpt>
      <trkpt lat="43.02773" lon="0.3076">
        <ele>501.5</ele>
        <time>2026-07-08T06:28:47Z</time>
      </trkpt>
      <trkpt lat="43.02773" lon="0.30761">
        <ele>501.5</ele>
        <time>2026-07-08T06:28:47Z</time>
      </trkpt>
      <trkpt lat="43.02773" lon="0.30762">
        <ele>501.5</ele>
        <time>2026-07-08T06:28:48Z</time>
      </trkpt>
      <trkpt lat="43.02773" lon="0.30762">
        <ele>501.5</ele>
        <time>2026-07-08T06:28:49Z</time>
      </trkpt>
      <trkpt lat="43.02774" lon="0.30763">
        <ele>501.5</ele>
        <time>2026-07-08T06:28:50Z</time>
      </trkpt>
      <trkpt lat="43.02774" lon="0.30763">
        <ele>501.5</ele>
        <time>2026-07-08T06:28:50Z</time>
      </trkpt>
      <trkpt lat="43.02774" lon="0.30764">
        <ele>501.5</ele>
        <time>2026-07-08T06:28:51Z</time>
      </trkpt>
      <trkpt lat="43.02774" lon="0.30765">
        <ele>501.5</ele>
        <time>2026-07-08T06:28:52Z</time>
      </trkpt>
      <trkpt lat="43.02775" lon="0.30766">
        <ele>501.5</ele>
        <time>2026-07-08T06:28:53Z</time>
      </trkpt>
      <trkpt lat="43.02775" lon="0.30766">
        <ele>501.5</ele>
        <time>2026-07-08T06:28:53Z</time>
      </trkpt>
      <trkpt lat="43.02775" lon="0.30767">
        <ele>501.5</ele>
        <time>2026-07-08T06:28:54Z</time>
      </trkpt>
      <trkpt lat="43.02776" lon="0.30768">
        <ele>501.5</ele>
        <time>2026-07-08T06:28:55Z</time>
      </trkpt>
      <trkpt lat="43.02776" lon="0.30768">
        <ele>501.5</ele>
        <time>2026-07-08T06:28:55Z</time>
      </trkpt>
      <trkpt lat="43.02777" lon="0.30768">
        <ele>501.5</ele>
        <time>2026-07-08T06:28:56Z</time>
      </trkpt>
      <trkpt lat="43.02777" lon="0.30769">
        <ele>501.5</ele>
        <time>2026-07-08T06:28:57Z</time>
      </trkpt>
      <trkpt lat="43.02778" lon="0.30769">
        <ele>501.5</ele>
        <time>2026-07-08T06:28:58Z</time>
      </trkpt>
      <trkpt lat="43.02779" lon="0.30769">
        <ele>502.5</ele>
        <time>2026-07-08T06:28:58Z</time>
      </trkpt>
      <trkpt lat="43.02779" lon="0.3077">
        <ele>502.5</ele>
        <time>2026-07-08T06:28:59Z</time>
      </trkpt>
      <trkpt lat="43.02779" lon="0.30771">
        <ele>502.5</ele>
        <time>2026-07-08T06:29:00Z</time>
      </trkpt>
      <trkpt lat="43.0278" lon="0.30771">
        <ele>502.5</ele>
        <time>2026-07-08T06:29:01Z</time>
      </trkpt>
      <trkpt lat="43.0278" lon="0.30772">
        <ele>503.5</ele>
        <time>2026-07-08T06:29:01Z</time>
      </trkpt>
      <trkpt lat="43.0278" lon="0.30772">
        <ele>504.5</ele>
        <time>2026-07-08T06:29:02Z</time>
      </trkpt>
      <trkpt lat="43.02781" lon="0.30773">
        <ele>504.5</ele>
        <time>2026-07-08T06:29:03Z</time>
      </trkpt>
      <trkpt lat="43.02781" lon="0.30774">
        <ele>503.5</ele>
        <time>2026-07-08T06:29:04Z</time>
      </trkpt>
      <trkpt lat="43.0278" lon="0.30775">
        <ele>503.5</ele>
        <time>2026-07-08T06:29:04Z</time>
      </trkpt>
      <trkpt lat="43.0278" lon="0.30776">
        <ele>503.5</ele>
        <time>2026-07-08T06:29:05Z</time>
      </trkpt>
      <trkpt lat="43.0278" lon="0.30776">
        <ele>503.5</ele>
        <time>2026-07-08T06:29:06Z</time>
      </trkpt>
      <trkpt lat="43.0278" lon="0.30777">
        <ele>503.5</ele>
        <time>2026-07-08T06:29:07Z</time>
      </trkpt>
      <trkpt lat="43.0278" lon="0.30778">
        <ele>503.5</ele>
        <time>2026-07-08T06:29:07Z</time>
      </trkpt>
      <trkpt lat="43.02779" lon="0.30778">
        <ele>503.5</ele>
        <time>2026-07-08T06:29:08Z</time>
      </trkpt>
      <trkpt lat="43.02779" lon="0.30778">
        <ele>502.5</ele>
        <time>2026-07-08T06:29:09Z</time>
      </trkpt>
      <trkpt lat="43.02778" lon="0.30779">
        <ele>503.5</ele>
        <time>2026-07-08T06:29:09Z</time>
      </trkpt>
      <trkpt lat="43.02778" lon="0.30779">
        <ele>503.5</ele>
        <time>2026-07-08T06:29:10Z</time>
      </trkpt>
      <trkpt lat="43.02777" lon="0.30779">
        <ele>503.5</ele>
        <time>2026-07-08T06:29:11Z</time>
      </trkpt>
      <trkpt lat="43.02777" lon="0.30779">
        <ele>503.5</ele>
        <time>2026-07-08T06:29:12Z</time>
      </trkpt>
      <trkpt lat="43.02776" lon="0.30778">
        <ele>503.5</ele>
        <time>2026-07-08T06:29:12Z</time>
      </trkpt>
      <trkpt lat="43.02776" lon="0.30778">
        <ele>503.5</ele>
        <time>2026-07-08T06:29:13Z</time>
      </trkpt>
      <trkpt lat="43.02776" lon="0.30779">
        <ele>503.5</ele>
        <time>2026-07-08T06:29:14Z</time>
      </trkpt>
      <trkpt lat="43.02776" lon="0.30779">
        <ele>503.5</ele>
        <time>2026-07-08T06:29:15Z</time>
      </trkpt>
      <trkpt lat="43.02776" lon="0.30779">
        <ele>503.5</ele>
        <time>2026-07-08T06:29:15Z</time>
      </trkpt>
      <trkpt lat="43.02776" lon="0.30779">
        <ele>503.5</ele>
        <time>2026-07-08T06:29:16Z</time>
      </trkpt>
      <trkpt lat="43.02776" lon="0.3078">
        <ele>504.5</ele>
        <time>2026-07-08T06:29:17Z</time>
      </trkpt>
      <trkpt lat="43.02777" lon="0.30779">
        <ele>504.5</ele>
        <time>2026-07-08T06:29:18Z</time>
      </trkpt>
      <trkpt lat="43.02777" lon="0.30779">
        <ele>504.5</ele>
        <time>2026-07-08T06:29:19Z</time>
      </trkpt>
      <trkpt lat="43.02778" lon="0.3078">
        <ele>504.5</ele>
        <time>2026-07-08T06:29:19Z</time>
      </trkpt>
      <trkpt lat="43.02778" lon="0.3078">
        <ele>504.5</ele>
        <time>2026-07-08T06:29:20Z</time>
      </trkpt>
      <trkpt lat="43.02778" lon="0.30781">
        <ele>503.5</ele>
        <time>2026-07-08T06:29:21Z</time>
      </trkpt>
      <trkpt lat="43.02778" lon="0.30782">
        <ele>504.5</ele>
        <time>2026-07-08T06:29:22Z</time>
      </trkpt>
      <trkpt lat="43.02778" lon="0.30783">
        <ele>503.5</ele>
        <time>2026-07-08T06:29:22Z</time>
      </trkpt>
      <trkpt lat="43.02779" lon="0.30784">
        <ele>503.5</ele>
        <time>2026-07-08T06:29:23Z</time>
      </trkpt>
      <trkpt lat="43.02779" lon="0.30785">
        <ele>503.5</ele>
        <time>2026-07-08T06:29:24Z</time>
      </trkpt>
      <trkpt lat="43.02779" lon="0.30787">
        <ele>502.5</ele>
        <time>2026-07-08T06:29:24Z</time>
      </trkpt>
      <trkpt lat="43.0278" lon="0.30788">
        <ele>502.5</ele>
        <time>2026-07-08T06:29:25Z</time>
      </trkpt>
      <trkpt lat="43.0278" lon="0.30789">
        <ele>502.5</ele>
        <time>2026-07-08T06:29:26Z</time>
      </trkpt>
      <trkpt lat="43.02781" lon="0.3079">
        <ele>502.5</ele>
        <time>2026-07-08T06:29:26Z</time>
      </trkpt>
      <trkpt lat="43.02781" lon="0.30791">
        <ele>502.5</ele>
        <time>2026-07-08T06:29:27Z</time>
      </trkpt>
      <trkpt lat="43.02781" lon="0.30793">
        <ele>502.5</ele>
        <time>2026-07-08T06:29:28Z</time>
      </trkpt>
      <trkpt lat="43.02781" lon="0.30794">
        <ele>502.5</ele>
        <time>2026-07-08T06:29:29Z</time>
      </trkpt>
      <trkpt lat="43.02781" lon="0.30795">
        <ele>502.5</ele>
        <time>2026-07-08T06:29:29Z</time>
      </trkpt>
      <trkpt lat="43.02781" lon="0.30796">
        <ele>502.5</ele>
        <time>2026-07-08T06:29:30Z</time>
      </trkpt>
      <trkpt lat="43.02781" lon="0.30798">
        <ele>502.5</ele>
        <time>2026-07-08T06:29:31Z</time>
      </trkpt>
      <trkpt lat="43.02781" lon="0.30799">
        <ele>502.5</ele>
        <time>2026-07-08T06:29:32Z</time>
      </trkpt>
      <trkpt lat="43.02781" lon="0.308">
        <ele>502.5</ele>
        <time>2026-07-08T06:29:32Z</time>
      </trkpt>
      <trkpt lat="43.02781" lon="0.30801">
        <ele>502.5</ele>
        <time>2026-07-08T06:29:33Z</time>
      </trkpt>
      <trkpt lat="43.02781" lon="0.30802">
        <ele>502.5</ele>
        <time>2026-07-08T06:29:34Z</time>
      </trkpt>
      <trkpt lat="43.02781" lon="0.30803">
        <ele>502.5</ele>
        <time>2026-07-08T06:29:35Z</time>
      </trkpt>
      <trkpt lat="43.02781" lon="0.30804">
        <ele>502.5</ele>
        <time>2026-07-08T06:29:35Z</time>
      </trkpt>
      <trkpt lat="43.02781" lon="0.30805">
        <ele>502.5</ele>
        <time>2026-07-08T06:29:36Z</time>
      </trkpt>
      <trkpt lat="43.02781" lon="0.30806">
        <ele>502.5</ele>
        <time>2026-07-08T06:29:37Z</time>
      </trkpt>
      <trkpt lat="43.02782" lon="0.30807">
        <ele>501.5</ele>
        <time>2026-07-08T06:29:37Z</time>
      </trkpt>
      <trkpt lat="43.02782" lon="0.30808">
        <ele>502.5</ele>
        <time>2026-07-08T06:29:38Z</time>
      </trkpt>
      <trkpt lat="43.02783" lon="0.30809">
        <ele>502.5</ele>
        <time>2026-07-08T06:29:39Z</time>
      </trkpt>
      <trkpt lat="43.02783" lon="0.3081">
        <ele>502.5</ele>
        <time>2026-07-08T06:29:40Z</time>
      </trkpt>
      <trkpt lat="43.02783" lon="0.30811">
        <ele>502.5</ele>
        <time>2026-07-08T06:29:41Z</time>
      </trkpt>
      <trkpt lat="43.02784" lon="0.30811">
        <ele>503.5</ele>
        <time>2026-07-08T06:29:41Z</time>
      </trkpt>
      <trkpt lat="43.02784" lon="0.30812">
        <ele>503.5</ele>
        <time>2026-07-08T06:29:42Z</time>
      </trkpt>
      <trkpt lat="43.02785" lon="0.30812">
        <ele>503.5</ele>
        <time>2026-07-08T06:29:43Z</time>
      </trkpt>
      <trkpt lat="43.02786" lon="0.30813">
        <ele>503.5</ele>
        <time>2026-07-08T06:29:44Z</time>
      </trkpt>
      <trkpt lat="43.02786" lon="0.30814">
        <ele>503.5</ele>
        <time>2026-07-08T06:29:44Z</time>
      </trkpt>
      <trkpt lat="43.02786" lon="0.30814">
        <ele>503.5</ele>
        <time>2026-07-08T06:29:45Z</time>
      </trkpt>
      <trkpt lat="43.02787" lon="0.30815">
        <ele>503.5</ele>
        <time>2026-07-08T06:29:46Z</time>
      </trkpt>
      <trkpt lat="43.02787" lon="0.30816">
        <ele>504.5</ele>
        <time>2026-07-08T06:29:46Z</time>
      </trkpt>
      <trkpt lat="43.02788" lon="0.30816">
        <ele>504.5</ele>
        <time>2026-07-08T06:29:47Z</time>
      </trkpt>
      <trkpt lat="43.02788" lon="0.30817">
        <ele>504.5</ele>
        <time>2026-07-08T06:29:48Z</time>
      </trkpt>
      <trkpt lat="43.02789" lon="0.30817">
        <ele>504.5</ele>
        <time>2026-07-08T06:29:48Z</time>
      </trkpt>
      <trkpt lat="43.02789" lon="0.30818">
        <ele>504.5</ele>
        <time>2026-07-08T06:29:49Z</time>
      </trkpt>
      <trkpt lat="43.02789" lon="0.30818">
        <ele>504.5</ele>
        <time>2026-07-08T06:29:50Z</time>
      </trkpt>
      <trkpt lat="43.0279" lon="0.30819">
        <ele>505.5</ele>
        <time>2026-07-08T06:29:51Z</time>
      </trkpt>
      <trkpt lat="43.0279" lon="0.3082">
        <ele>505.5</ele>
        <time>2026-07-08T06:29:52Z</time>
      </trkpt>
      <trkpt lat="43.0279" lon="0.3082">
        <ele>505.5</ele>
        <time>2026-07-08T06:29:52Z</time>
      </trkpt>
      <trkpt lat="43.0279" lon="0.30822">
        <ele>505.5</ele>
        <time>2026-07-08T06:29:53Z</time>
      </trkpt>
      <trkpt lat="43.02791" lon="0.30823">
        <ele>505.5</ele>
        <time>2026-07-08T06:29:54Z</time>
      </trkpt>
      <trkpt lat="43.02791" lon="0.30823">
        <ele>504.5</ele>
        <time>2026-07-08T06:29:55Z</time>
      </trkpt>
      <trkpt lat="43.02791" lon="0.30824">
        <ele>505.5</ele>
        <time>2026-07-08T06:29:55Z</time>
      </trkpt>
      <trkpt lat="43.02791" lon="0.30824">
        <ele>505.5</ele>
        <time>2026-07-08T06:29:56Z</time>
      </trkpt>
      <trkpt lat="43.02792" lon="0.30825">
        <ele>505.5</ele>
        <time>2026-07-08T06:29:57Z</time>
      </trkpt>
      <trkpt lat="43.02792" lon="0.30826">
        <ele>505.5</ele>
        <time>2026-07-08T06:29:58Z</time>
      </trkpt>
      <trkpt lat="43.02792" lon="0.30827">
        <ele>505.5</ele>
        <time>2026-07-08T06:29:59Z</time>
      </trkpt>
      <trkpt lat="43.02792" lon="0.30827">
        <ele>505.5</ele>
        <time>2026-07-08T06:29:59Z</time>
      </trkpt>
      <trkpt lat="43.02793" lon="0.30828">
        <ele>505.5</ele>
        <time>2026-07-08T06:30:00Z</time>
      </trkpt>
      <trkpt lat="43.02793" lon="0.30829">
        <ele>505.5</ele>
        <time>2026-07-08T06:30:01Z</time>
      </trkpt>
      <trkpt lat="43.02793" lon="0.3083">
        <ele>505.5</ele>
        <time>2026-07-08T06:30:02Z</time>
      </trkpt>
      <trkpt lat="43.02793" lon="0.30831">
        <ele>505.5</ele>
        <time>2026-07-08T06:30:02Z</time>
      </trkpt>
      <trkpt lat="43.02793" lon="0.30831">
        <ele>505.5</ele>
        <time>2026-07-08T06:30:03Z</time>
      </trkpt>
      <trkpt lat="43.02793" lon="0.30831">
        <ele>505.5</ele>
        <time>2026-07-08T06:30:04Z</time>
      </trkpt>
      <trkpt lat="43.02793" lon="0.30831">
        <ele>505.5</ele>
        <time>2026-07-08T06:30:05Z</time>
      </trkpt>
      <trkpt lat="43.02793" lon="0.3083">
        <ele>505.5</ele>
        <time>2026-07-08T06:30:05Z</time>
      </trkpt>
      <trkpt lat="43.02792" lon="0.30829">
        <ele>505.5</ele>
        <time>2026-07-08T06:30:06Z</time>
      </trkpt>
      <trkpt lat="43.02792" lon="0.30829">
        <ele>505.5</ele>
        <time>2026-07-08T06:30:07Z</time>
      </trkpt>
      <trkpt lat="43.02792" lon="0.30829">
        <ele>505.5</ele>
        <time>2026-07-08T06:30:08Z</time>
      </trkpt>
      <trkpt lat="43.02792" lon="0.30828">
        <ele>505.5</ele>
        <time>2026-07-08T06:30:08Z</time>
      </trkpt>
      <trkpt lat="43.02791" lon="0.30828">
        <ele>506.5</ele>
        <time>2026-07-08T06:30:09Z</time>
      </trkpt>
      <trkpt lat="43.02791" lon="0.30828">
        <ele>506.5</ele>
        <time>2026-07-08T06:30:10Z</time>
      </trkpt>
      <trkpt lat="43.02791" lon="0.30828">
        <ele>506.5</ele>
        <time>2026-07-08T06:30:11Z</time>
      </trkpt>
      <trkpt lat="43.0279" lon="0.30827">
        <ele>506.5</ele>
        <time>2026-07-08T06:30:11Z</time>
      </trkpt>
      <trkpt lat="43.0279" lon="0.30827">
        <ele>506.5</ele>
        <time>2026-07-08T06:30:12Z</time>
      </trkpt>
      <trkpt lat="43.02789" lon="0.30827">
        <ele>506.5</ele>
        <time>2026-07-08T06:30:13Z</time>
      </trkpt>
      <trkpt lat="43.02789" lon="0.30826">
        <ele>507.5</ele>
        <time>2026-07-08T06:30:14Z</time>
      </trkpt>
      <trkpt lat="43.02788" lon="0.30826">
        <ele>507.5</ele>
        <time>2026-07-08T06:30:14Z</time>
      </trkpt>
      <trkpt lat="43.02788" lon="0.30826">
        <ele>507.5</ele>
        <time>2026-07-08T06:30:15Z</time>
      </trkpt>
      <trkpt lat="43.02787" lon="0.30826">
        <ele>507.5</ele>
        <time>2026-07-08T06:30:16Z</time>
      </trkpt>
      <trkpt lat="43.02787" lon="0.30826">
        <ele>507.5</ele>
        <time>2026-07-08T06:30:17Z</time>
      </trkpt>
      <trkpt lat="43.02787" lon="0.30825">
        <ele>507.5</ele>
        <time>2026-07-08T06:30:17Z</time>
      </trkpt>
      <trkpt lat="43.02786" lon="0.30826">
        <ele>507.5</ele>
        <time>2026-07-08T06:30:18Z</time>
      </trkpt>
      <trkpt lat="43.02786" lon="0.30826">
        <ele>507.5</ele>
        <time>2026-07-08T06:30:19Z</time>
      </trkpt>
      <trkpt lat="43.02785" lon="0.30826">
        <ele>508.5</ele>
        <time>2026-07-08T06:30:20Z</time>
      </trkpt>
      <trkpt lat="43.02784" lon="0.30827">
        <ele>508.5</ele>
        <time>2026-07-08T06:30:21Z</time>
      </trkpt>
      <trkpt lat="43.02784" lon="0.30827">
        <ele>508.5</ele>
        <time>2026-07-08T06:30:22Z</time>
      </trkpt>
      <trkpt lat="43.02783" lon="0.30827">
        <ele>509.5</ele>
        <time>2026-07-08T06:30:22Z</time>
      </trkpt>
      <trkpt lat="43.02783" lon="0.30829">
        <ele>509.5</ele>
        <time>2026-07-08T06:30:23Z</time>
      </trkpt>
      <trkpt lat="43.02782" lon="0.30831">
        <ele>509.5</ele>
        <time>2026-07-08T06:30:24Z</time>
      </trkpt>
      <trkpt lat="43.02782" lon="0.30832">
        <ele>510.5</ele>
        <time>2026-07-08T06:30:25Z</time>
      </trkpt>
      <trkpt lat="43.02782" lon="0.30834">
        <ele>509.5</ele>
        <time>2026-07-08T06:30:26Z</time>
      </trkpt>
      <trkpt lat="43.02782" lon="0.30837">
        <ele>509.5</ele>
        <time>2026-07-08T06:30:26Z</time>
      </trkpt>
      <trkpt lat="43.02781" lon="0.30838">
        <ele>510.5</ele>
        <time>2026-07-08T06:30:27Z</time>
      </trkpt>
      <trkpt lat="43.02781" lon="0.3084">
        <ele>510.5</ele>
        <time>2026-07-08T06:30:28Z</time>
      </trkpt>
      <trkpt lat="43.02781" lon="0.30841">
        <ele>510.5</ele>
        <time>2026-07-08T06:30:29Z</time>
      </trkpt>
      <trkpt lat="43.02781" lon="0.30842">
        <ele>510.5</ele>
        <time>2026-07-08T06:30:29Z</time>
      </trkpt>
      <trkpt lat="43.0278" lon="0.30843">
        <ele>510.5</ele>
        <time>2026-07-08T06:30:30Z</time>
      </trkpt>
      <trkpt lat="43.0278" lon="0.30845">
        <ele>510.5</ele>
        <time>2026-07-08T06:30:31Z</time>
      </trkpt>
      <trkpt lat="43.0278" lon="0.30846">
        <ele>510.5</ele>
        <time>2026-07-08T06:30:32Z</time>
      </trkpt>
      <trkpt lat="43.02781" lon="0.30847">
        <ele>510.5</ele>
        <time>2026-07-08T06:30:32Z</time>
      </trkpt>
      <trkpt lat="43.02781" lon="0.30849">
        <ele>510.5</ele>
        <time>2026-07-08T06:30:33Z</time>
      </trkpt>
      <trkpt lat="43.02782" lon="0.30851">
        <ele>510.5</ele>
        <time>2026-07-08T06:30:34Z</time>
      </trkpt>
      <trkpt lat="43.02783" lon="0.30852">
        <ele>509.5</ele>
        <time>2026-07-08T06:30:35Z</time>
      </trkpt>
      <trkpt lat="43.02785" lon="0.30854">
        <ele>509.5</ele>
        <time>2026-07-08T06:30:35Z</time>
      </trkpt>
      <trkpt lat="43.02785" lon="0.30855">
        <ele>509.5</ele>
        <time>2026-07-08T06:30:36Z</time>
      </trkpt>
      <trkpt lat="43.02788" lon="0.30857">
        <ele>509.5</ele>
        <time>2026-07-08T06:30:37Z</time>
      </trkpt>
      <trkpt lat="43.02789" lon="0.30858">
        <ele>509.5</ele>
        <time>2026-07-08T06:30:38Z</time>
      </trkpt>
      <trkpt lat="43.0279" lon="0.30859">
        <ele>509.5</ele>
        <time>2026-07-08T06:30:39Z</time>
      </trkpt>
      <trkpt lat="43.0279" lon="0.3086">
        <ele>509.5</ele>
        <time>2026-07-08T06:30:39Z</time>
      </trkpt>
      <trkpt lat="43.0279" lon="0.30861">
        <ele>509.5</ele>
        <time>2026-07-08T06:30:40Z</time>
      </trkpt>
      <trkpt lat="43.0279" lon="0.30862">
        <ele>509.5</ele>
        <time>2026-07-08T06:30:41Z</time>
      </trkpt>
      <trkpt lat="43.0279" lon="0.30863">
        <ele>509.5</ele>
        <time>2026-07-08T06:30:42Z</time>
      </trkpt>
      <trkpt lat="43.02791" lon="0.30865">
        <ele>509.5</ele>
        <time>2026-07-08T06:30:43Z</time>
      </trkpt>
      <trkpt lat="43.02792" lon="0.30865">
        <ele>509.5</ele>
        <time>2026-07-08T06:30:43Z</time>
      </trkpt>
      <trkpt lat="43.02793" lon="0.30866">
        <ele>510.5</ele>
        <time>2026-07-08T06:30:44Z</time>
      </trkpt>
      <trkpt lat="43.02793" lon="0.30866">
        <ele>510.5</ele>
        <time>2026-07-08T06:30:45Z</time>
      </trkpt>
      <trkpt lat="43.02794" lon="0.30865">
        <ele>509.5</ele>
        <time>2026-07-08T06:30:46Z</time>
      </trkpt>
      <trkpt lat="43.02794" lon="0.30865">
        <ele>509.5</ele>
        <time>2026-07-08T06:30:46Z</time>
      </trkpt>
      <trkpt lat="43.02794" lon="0.30864">
        <ele>510.5</ele>
        <time>2026-07-08T06:30:47Z</time>
      </trkpt>
      <trkpt lat="43.02794" lon="0.30863">
        <ele>510.5</ele>
        <time>2026-07-08T06:30:48Z</time>
      </trkpt>
      <trkpt lat="43.02794" lon="0.30863">
        <ele>510.5</ele>
        <time>2026-07-08T06:30:49Z</time>
      </trkpt>
      <trkpt lat="43.02794" lon="0.30862">
        <ele>510.5</ele>
        <time>2026-07-08T06:30:49Z</time>
      </trkpt>
      <trkpt lat="43.02794" lon="0.30862">
        <ele>510.5</ele>
        <time>2026-07-08T06:30:50Z</time>
      </trkpt>
      <trkpt lat="43.02794" lon="0.3086">
        <ele>510.5</ele>
        <time>2026-07-08T06:30:51Z</time>
      </trkpt>
      <trkpt lat="43.02794" lon="0.30859">
        <ele>511.5</ele>
        <time>2026-07-08T06:30:52Z</time>
      </trkpt>
      <trkpt lat="43.02794" lon="0.30859">
        <ele>511.5</ele>
        <time>2026-07-08T06:30:52Z</time>
      </trkpt>
      <trkpt lat="43.02794" lon="0.30858">
        <ele>511.5</ele>
        <time>2026-07-08T06:30:53Z</time>
      </trkpt>
      <trkpt lat="43.02794" lon="0.30859">
        <ele>511.5</ele>
        <time>2026-07-08T06:30:54Z</time>
      </trkpt>
      <trkpt lat="43.02794" lon="0.30859">
        <ele>511.5</ele>
        <time>2026-07-08T06:30:55Z</time>
      </trkpt>
      <trkpt lat="43.02795" lon="0.3086">
        <ele>511.5</ele>
        <time>2026-07-08T06:30:56Z</time>
      </trkpt>
      <trkpt lat="43.02795" lon="0.3086">
        <ele>512.5</ele>
        <time>2026-07-08T06:30:56Z</time>
      </trkpt>
      <trkpt lat="43.02795" lon="0.3086">
        <ele>512.5</ele>
        <time>2026-07-08T06:30:57Z</time>
      </trkpt>
      <trkpt lat="43.02794" lon="0.3086">
        <ele>512.5</ele>
        <time>2026-07-08T06:30:58Z</time>
      </trkpt>
      <trkpt lat="43.02794" lon="0.3086">
        <ele>511.5</ele>
        <time>2026-07-08T06:30:58Z</time>
      </trkpt>
      <trkpt lat="43.02793" lon="0.30861">
        <ele>511.5</ele>
        <time>2026-07-08T06:30:59Z</time>
      </trkpt>
      <trkpt lat="43.02793" lon="0.30861">
        <ele>511.5</ele>
        <time>2026-07-08T06:31:00Z</time>
      </trkpt>
      <trkpt lat="43.02792" lon="0.30861">
        <ele>511.5</ele>
        <time>2026-07-08T06:31:01Z</time>
      </trkpt>
      <trkpt lat="43.02792" lon="0.30862">
        <ele>511.5</ele>
        <time>2026-07-08T06:31:01Z</time>
      </trkpt>
      <trkpt lat="43.02792" lon="0.30862">
        <ele>511.5</ele>
        <time>2026-07-08T06:31:02Z</time>
      </trkpt>
      <trkpt lat="43.02792" lon="0.30863">
        <ele>511.5</ele>
        <time>2026-07-08T06:31:03Z</time>
      </trkpt>
      <trkpt lat="43.02792" lon="0.30865">
        <ele>511.5</ele>
        <time>2026-07-08T06:31:04Z</time>
      </trkpt>
      <trkpt lat="43.02792" lon="0.30866">
        <ele>511.5</ele>
        <time>2026-07-08T06:31:04Z</time>
      </trkpt>
      <trkpt lat="43.02791" lon="0.30867">
        <ele>511.5</ele>
        <time>2026-07-08T06:31:05Z</time>
      </trkpt>
      <trkpt lat="43.02791" lon="0.30868">
        <ele>511.5</ele>
        <time>2026-07-08T06:31:06Z</time>
      </trkpt>
      <trkpt lat="43.02791" lon="0.30869">
        <ele>511.5</ele>
        <time>2026-07-08T06:31:07Z</time>
      </trkpt>
      <trkpt lat="43.02791" lon="0.3087">
        <ele>511.5</ele>
        <time>2026-07-08T06:31:07Z</time>
      </trkpt>
      <trkpt lat="43.0279" lon="0.30871">
        <ele>511.5</ele>
        <time>2026-07-08T06:31:08Z</time>
      </trkpt>
      <trkpt lat="43.0279" lon="0.30871">
        <ele>511.5</ele>
        <time>2026-07-08T06:31:09Z</time>
      </trkpt>
      <trkpt lat="43.02789" lon="0.30873">
        <ele>511.5</ele>
        <time>2026-07-08T06:31:09Z</time>
      </trkpt>
      <trkpt lat="43.02789" lon="0.30874">
        <ele>511.5</ele>
        <time>2026-07-08T06:31:10Z</time>
      </trkpt>
      <trkpt lat="43.02788" lon="0.30875">
        <ele>511.5</ele>
        <time>2026-07-08T06:31:11Z</time>
      </trkpt>
      <trkpt lat="43.02788" lon="0.30877">
        <ele>511.5</ele>
        <time>2026-07-08T06:31:12Z</time>
      </trkpt>
      <trkpt lat="43.02787" lon="0.30878">
        <ele>511.5</ele>
        <time>2026-07-08T06:31:12Z</time>
      </trkpt>
      <trkpt lat="43.02787" lon="0.30879">
        <ele>511.5</ele>
        <time>2026-07-08T06:31:13Z</time>
      </trkpt>
      <trkpt lat="43.02786" lon="0.3088">
        <ele>511.5</ele>
        <time>2026-07-08T06:31:14Z</time>
      </trkpt>
      <trkpt lat="43.02786" lon="0.30881">
        <ele>511.5</ele>
        <time>2026-07-08T06:31:14Z</time>
      </trkpt>
      <trkpt lat="43.02786" lon="0.30881">
        <ele>511.5</ele>
        <time>2026-07-08T06:31:15Z</time>
      </trkpt>
      <trkpt lat="43.02785" lon="0.30882">
        <ele>511.5</ele>
        <time>2026-07-08T06:31:16Z</time>
      </trkpt>
      <trkpt lat="43.02784" lon="0.30883">
        <ele>511.5</ele>
        <time>2026-07-08T06:31:17Z</time>
      </trkpt>
      <trkpt lat="43.02784" lon="0.30884">
        <ele>511.5</ele>
        <time>2026-07-08T06:31:17Z</time>
      </trkpt>
      <trkpt lat="43.02784" lon="0.30885">
        <ele>512.5</ele>
        <time>2026-07-08T06:31:18Z</time>
      </trkpt>
      <trkpt lat="43.02783" lon="0.30886">
        <ele>512.5</ele>
        <time>2026-07-08T06:31:19Z</time>
      </trkpt>
      <trkpt lat="43.02783" lon="0.30887">
        <ele>512.5</ele>
        <time>2026-07-08T06:31:20Z</time>
      </trkpt>
      <trkpt lat="43.02783" lon="0.30888">
        <ele>512.5</ele>
        <time>2026-07-08T06:31:21Z</time>
      </trkpt>
      <trkpt lat="43.02783" lon="0.30889">
        <ele>512.5</ele>
        <time>2026-07-08T06:31:21Z</time>
      </trkpt>
      <trkpt lat="43.02782" lon="0.3089">
        <ele>512.5</ele>
        <time>2026-07-08T06:31:22Z</time>
      </trkpt>
      <trkpt lat="43.02782" lon="0.30891">
        <ele>512.5</ele>
        <time>2026-07-08T06:31:23Z</time>
      </trkpt>
      <trkpt lat="43.02783" lon="0.30891">
        <ele>512.5</ele>
        <time>2026-07-08T06:31:23Z</time>
      </trkpt>
      <trkpt lat="43.02783" lon="0.30892">
        <ele>512.5</ele>
        <time>2026-07-08T06:31:24Z</time>
      </trkpt>
      <trkpt lat="43.02783" lon="0.30893">
        <ele>512.5</ele>
        <time>2026-07-08T06:31:25Z</time>
      </trkpt>
      <trkpt lat="43.02783" lon="0.30894">
        <ele>512.5</ele>
        <time>2026-07-08T06:31:26Z</time>
      </trkpt>
      <trkpt lat="43.02783" lon="0.30895">
        <ele>512.5</ele>
        <time>2026-07-08T06:31:27Z</time>
      </trkpt>
      <trkpt lat="43.02783" lon="0.30896">
        <ele>512.5</ele>
        <time>2026-07-08T06:31:27Z</time>
      </trkpt>
      <trkpt lat="43.02783" lon="0.30897">
        <ele>512.5</ele>
        <time>2026-07-08T06:31:28Z</time>
      </trkpt>
      <trkpt lat="43.02783" lon="0.30898">
        <ele>513.5</ele>
        <time>2026-07-08T06:31:29Z</time>
      </trkpt>
      <trkpt lat="43.02784" lon="0.30899">
        <ele>513.5</ele>
        <time>2026-07-08T06:31:29Z</time>
      </trkpt>
      <trkpt lat="43.02784" lon="0.309">
        <ele>513.5</ele>
        <time>2026-07-08T06:31:30Z</time>
      </trkpt>
      <trkpt lat="43.02784" lon="0.30901">
        <ele>512.5</ele>
        <time>2026-07-08T06:31:31Z</time>
      </trkpt>
      <trkpt lat="43.02784" lon="0.30902">
        <ele>512.5</ele>
        <time>2026-07-08T06:31:32Z</time>
      </trkpt>
      <trkpt lat="43.02784" lon="0.30902">
        <ele>512.5</ele>
        <time>2026-07-08T06:31:33Z</time>
      </trkpt>
      <trkpt lat="43.02784" lon="0.30903">
        <ele>512.5</ele>
        <time>2026-07-08T06:31:33Z</time>
      </trkpt>
      <trkpt lat="43.02784" lon="0.30904">
        <ele>512.5</ele>
        <time>2026-07-08T06:31:34Z</time>
      </trkpt>
      <trkpt lat="43.02784" lon="0.30905">
        <ele>513.5</ele>
        <time>2026-07-08T06:31:35Z</time>
      </trkpt>
      <trkpt lat="43.02784" lon="0.30906">
        <ele>513.5</ele>
        <time>2026-07-08T06:31:36Z</time>
      </trkpt>
      <trkpt lat="43.02785" lon="0.30907">
        <ele>514.5</ele>
        <time>2026-07-08T06:31:36Z</time>
      </trkpt>
      <trkpt lat="43.02785" lon="0.30907">
        <ele>514.5</ele>
        <time>2026-07-08T06:31:37Z</time>
      </trkpt>
      <trkpt lat="43.02785" lon="0.30909">
        <ele>514.5</ele>
        <time>2026-07-08T06:31:38Z</time>
      </trkpt>
      <trkpt lat="43.02785" lon="0.30909">
        <ele>514.5</ele>
        <time>2026-07-08T06:31:39Z</time>
      </trkpt>
      <trkpt lat="43.02786" lon="0.3091">
        <ele>514.5</ele>
        <time>2026-07-08T06:31:40Z</time>
      </trkpt>
      <trkpt lat="43.02786" lon="0.30911">
        <ele>514.5</ele>
        <time>2026-07-08T06:31:40Z</time>
      </trkpt>
      <trkpt lat="43.02786" lon="0.30912">
        <ele>514.5</ele>
        <time>2026-07-08T06:31:41Z</time>
      </trkpt>
      <trkpt lat="43.02786" lon="0.30913">
        <ele>514.5</ele>
        <time>2026-07-08T06:31:42Z</time>
      </trkpt>
      <trkpt lat="43.02787" lon="0.30914">
        <ele>515.5</ele>
        <time>2026-07-08T06:31:43Z</time>
      </trkpt>
      <trkpt lat="43.02787" lon="0.30914">
        <ele>515.5</ele>
        <time>2026-07-08T06:31:43Z</time>
      </trkpt>
      <trkpt lat="43.02788" lon="0.30915">
        <ele>515.5</ele>
        <time>2026-07-08T06:31:44Z</time>
      </trkpt>
      <trkpt lat="43.02788" lon="0.30915">
        <ele>515.5</ele>
        <time>2026-07-08T06:31:45Z</time>
      </trkpt>
      <trkpt lat="43.02789" lon="0.30915">
        <ele>515.5</ele>
        <time>2026-07-08T06:31:46Z</time>
      </trkpt>
      <trkpt lat="43.0279" lon="0.30915">
        <ele>516.5</ele>
        <time>2026-07-08T06:31:47Z</time>
      </trkpt>
      <trkpt lat="43.0279" lon="0.30915">
        <ele>515.5</ele>
        <time>2026-07-08T06:31:47Z</time>
      </trkpt>
      <trkpt lat="43.0279" lon="0.30916">
        <ele>515.5</ele>
        <time>2026-07-08T06:31:48Z</time>
      </trkpt>
      <trkpt lat="43.02791" lon="0.30916">
        <ele>515.5</ele>
        <time>2026-07-08T06:31:48Z</time>
      </trkpt>
      <trkpt lat="43.02791" lon="0.30917">
        <ele>516.5</ele>
        <time>2026-07-08T06:31:49Z</time>
      </trkpt>
      <trkpt lat="43.02791" lon="0.30918">
        <ele>516.5</ele>
        <time>2026-07-08T06:31:50Z</time>
      </trkpt>
      <trkpt lat="43.02791" lon="0.30918">
        <ele>516.5</ele>
        <time>2026-07-08T06:31:51Z</time>
      </trkpt>
      <trkpt lat="43.02791" lon="0.30919">
        <ele>516.5</ele>
        <time>2026-07-08T06:31:52Z</time>
      </trkpt>
      <trkpt lat="43.02791" lon="0.30919">
        <ele>516.5</ele>
        <time>2026-07-08T06:31:52Z</time>
      </trkpt>
      <trkpt lat="43.02791" lon="0.3092">
        <ele>516.5</ele>
        <time>2026-07-08T06:31:53Z</time>
      </trkpt>
      <trkpt lat="43.02791" lon="0.30921">
        <ele>516.5</ele>
        <time>2026-07-08T06:31:54Z</time>
      </trkpt>
      <trkpt lat="43.02791" lon="0.30922">
        <ele>517.5</ele>
        <time>2026-07-08T06:31:54Z</time>
      </trkpt>
      <trkpt lat="43.0279" lon="0.30922">
        <ele>517.5</ele>
        <time>2026-07-08T06:31:55Z</time>
      </trkpt>
      <trkpt lat="43.0279" lon="0.30923">
        <ele>517.5</ele>
        <time>2026-07-08T06:31:56Z</time>
      </trkpt>
      <trkpt lat="43.0279" lon="0.30924">
        <ele>517.5</ele>
        <time>2026-07-08T06:31:57Z</time>
      </trkpt>
      <trkpt lat="43.0279" lon="0.30925">
        <ele>517.5</ele>
        <time>2026-07-08T06:31:57Z</time>
      </trkpt>
      <trkpt lat="43.0279" lon="0.30926">
        <ele>517.5</ele>
        <time>2026-07-08T06:31:58Z</time>
      </trkpt>
      <trkpt lat="43.0279" lon="0.30927">
        <ele>517.5</ele>
        <time>2026-07-08T06:31:59Z</time>
      </trkpt>
      <trkpt lat="43.02789" lon="0.30927">
        <ele>517.5</ele>
        <time>2026-07-08T06:32:00Z</time>
      </trkpt>
      <trkpt lat="43.02789" lon="0.30928">
        <ele>517.5</ele>
        <time>2026-07-08T06:32:00Z</time>
      </trkpt>
      <trkpt lat="43.02788" lon="0.30929">
        <ele>517.5</ele>
        <time>2026-07-08T06:32:01Z</time>
      </trkpt>
      <trkpt lat="43.02788" lon="0.3093">
        <ele>517.5</ele>
        <time>2026-07-08T06:32:02Z</time>
      </trkpt>
      <trkpt lat="43.02787" lon="0.3093">
        <ele>516.5</ele>
        <time>2026-07-08T06:32:02Z</time>
      </trkpt>
      <trkpt lat="43.02787" lon="0.30931">
        <ele>517.5</ele>
        <time>2026-07-08T06:32:03Z</time>
      </trkpt>
      <trkpt lat="43.02787" lon="0.30932">
        <ele>517.5</ele>
        <time>2026-07-08T06:32:04Z</time>
      </trkpt>
      <trkpt lat="43.02786" lon="0.30933">
        <ele>517.5</ele>
        <time>2026-07-08T06:32:05Z</time>
      </trkpt>
      <trkpt lat="43.02786" lon="0.30933">
        <ele>518.5</ele>
        <time>2026-07-08T06:32:06Z</time>
      </trkpt>
      <trkpt lat="43.02785" lon="0.30934">
        <ele>518.5</ele>
        <time>2026-07-08T06:32:06Z</time>
      </trkpt>
      <trkpt lat="43.02785" lon="0.30935">
        <ele>518.5</ele>
        <time>2026-07-08T06:32:07Z</time>
      </trkpt>
      <trkpt lat="43.02784" lon="0.30935">
        <ele>518.5</ele>
        <time>2026-07-08T06:32:08Z</time>
      </trkpt>
      <trkpt lat="43.02783" lon="0.30935">
        <ele>518.5</ele>
        <time>2026-07-08T06:32:08Z</time>
      </trkpt>
      <trkpt lat="43.02783" lon="0.30936">
        <ele>518.5</ele>
        <time>2026-07-08T06:32:09Z</time>
      </trkpt>
      <trkpt lat="43.02782" lon="0.30936">
        <ele>518.5</ele>
        <time>2026-07-08T06:32:10Z</time>
      </trkpt>
      <trkpt lat="43.02782" lon="0.30938">
        <ele>518.5</ele>
        <time>2026-07-08T06:32:11Z</time>
      </trkpt>
      <trkpt lat="43.02782" lon="0.30938">
        <ele>518.5</ele>
        <time>2026-07-08T06:32:12Z</time>
      </trkpt>
      <trkpt lat="43.02782" lon="0.30939">
        <ele>518.5</ele>
        <time>2026-07-08T06:32:12Z</time>
      </trkpt>
      <trkpt lat="43.02781" lon="0.3094">
        <ele>518.5</ele>
        <time>2026-07-08T06:32:13Z</time>
      </trkpt>
      <trkpt lat="43.02781" lon="0.30941">
        <ele>518.5</ele>
        <time>2026-07-08T06:32:14Z</time>
      </trkpt>
      <trkpt lat="43.02781" lon="0.30941">
        <ele>518.5</ele>
        <time>2026-07-08T06:32:14Z</time>
      </trkpt>
      <trkpt lat="43.0278" lon="0.30942">
        <ele>518.5</ele>
        <time>2026-07-08T06:32:15Z</time>
      </trkpt>
      <trkpt lat="43.0278" lon="0.30942">
        <ele>518.5</ele>
        <time>2026-07-08T06:32:16Z</time>
      </trkpt>
      <trkpt lat="43.0278" lon="0.30943">
        <ele>519.5</ele>
        <time>2026-07-08T06:32:17Z</time>
      </trkpt>
      <trkpt lat="43.0278" lon="0.30943">
        <ele>520.5</ele>
        <time>2026-07-08T06:32:17Z</time>
      </trkpt>
      <trkpt lat="43.0278" lon="0.30944">
        <ele>520.5</ele>
        <time>2026-07-08T06:32:18Z</time>
      </trkpt>
      <trkpt lat="43.0278" lon="0.30944">
        <ele>520.5</ele>
        <time>2026-07-08T06:32:19Z</time>
      </trkpt>
      <trkpt lat="43.0278" lon="0.30945">
        <ele>520.5</ele>
        <time>2026-07-08T06:32:19Z</time>
      </trkpt>
      <trkpt lat="43.02779" lon="0.30945">
        <ele>520.5</ele>
        <time>2026-07-08T06:32:20Z</time>
      </trkpt>
      <trkpt lat="43.02779" lon="0.30946">
        <ele>520.5</ele>
        <time>2026-07-08T06:32:21Z</time>
      </trkpt>
      <trkpt lat="43.02779" lon="0.30946">
        <ele>520.5</ele>
        <time>2026-07-08T06:32:21Z</time>
      </trkpt>
      <trkpt lat="43.02779" lon="0.30946">
        <ele>520.5</ele>
        <time>2026-07-08T06:32:22Z</time>
      </trkpt>
      <trkpt lat="43.02779" lon="0.30946">
        <ele>520.5</ele>
        <time>2026-07-08T06:32:23Z</time>
      </trkpt>
      <trkpt lat="43.02779" lon="0.30946">
        <ele>520.5</ele>
        <time>2026-07-08T06:32:24Z</time>
      </trkpt>
      <trkpt lat="43.02779" lon="0.30945">
        <ele>520.5</ele>
        <time>2026-07-08T06:32:25Z</time>
      </trkpt>
      <trkpt lat="43.0278" lon="0.30943">
        <ele>520.5</ele>
        <time>2026-07-08T06:32:25Z</time>
      </trkpt>
      <trkpt lat="43.0278" lon="0.30943">
        <ele>521.5</ele>
        <time>2026-07-08T06:32:26Z</time>
      </trkpt>
      <trkpt lat="43.0278" lon="0.30942">
        <ele>521.5</ele>
        <time>2026-07-08T06:32:27Z</time>
      </trkpt>
      <trkpt lat="43.0278" lon="0.3094">
        <ele>522.5</ele>
        <time>2026-07-08T06:32:28Z</time>
      </trkpt>
      <trkpt lat="43.0278" lon="0.30941">
        <ele>522.5</ele>
        <time>2026-07-08T06:32:29Z</time>
      </trkpt>
      <trkpt lat="43.0278" lon="0.30941">
        <ele>522.5</ele>
        <time>2026-07-08T06:32:30Z</time>
      </trkpt>
      <trkpt lat="43.0278" lon="0.30941">
        <ele>522.5</ele>
        <time>2026-07-08T06:32:31Z</time>
      </trkpt>
      <trkpt lat="43.0278" lon="0.30941">
        <ele>522.5</ele>
        <time>2026-07-08T06:32:32Z</time>
      </trkpt>
      <trkpt lat="43.0278" lon="0.30941">
        <ele>522.5</ele>
        <time>2026-07-08T06:32:32Z</time>
      </trkpt>
      <trkpt lat="43.02779" lon="0.30941">
        <ele>522.5</ele>
        <time>2026-07-08T06:32:33Z</time>
      </trkpt>
      <trkpt lat="43.02779" lon="0.30942">
        <ele>522.5</ele>
        <time>2026-07-08T06:32:34Z</time>
      </trkpt>
      <trkpt lat="43.02779" lon="0.30942">
        <ele>522.5</ele>
        <time>2026-07-08T06:32:34Z</time>
      </trkpt>
      <trkpt lat="43.02778" lon="0.30943">
        <ele>522.5</ele>
        <time>2026-07-08T06:32:35Z</time>
      </trkpt>
      <trkpt lat="43.02778" lon="0.30944">
        <ele>522.5</ele>
        <time>2026-07-08T06:32:36Z</time>
      </trkpt>
      <trkpt lat="43.02778" lon="0.30945">
        <ele>523.5</ele>
        <time>2026-07-08T06:32:36Z</time>
      </trkpt>
      <trkpt lat="43.02778" lon="0.30946">
        <ele>523.5</ele>
        <time>2026-07-08T06:32:37Z</time>
      </trkpt>
      <trkpt lat="43.02778" lon="0.30947">
        <ele>523.5</ele>
        <time>2026-07-08T06:32:38Z</time>
      </trkpt>
      <trkpt lat="43.02778" lon="0.30948">
        <ele>523.5</ele>
        <time>2026-07-08T06:32:39Z</time>
      </trkpt>
      <trkpt lat="43.02778" lon="0.30949">
        <ele>522.5</ele>
        <time>2026-07-08T06:32:39Z</time>
      </trkpt>
      <trkpt lat="43.02777" lon="0.3095">
        <ele>522.5</ele>
        <time>2026-07-08T06:32:40Z</time>
      </trkpt>
      <trkpt lat="43.02777" lon="0.30951">
        <ele>522.5</ele>
        <time>2026-07-08T06:32:41Z</time>
      </trkpt>
      <trkpt lat="43.02777" lon="0.30951">
        <ele>522.5</ele>
        <time>2026-07-08T06:32:41Z</time>
      </trkpt>
      <trkpt lat="43.02777" lon="0.30952">
        <ele>522.5</ele>
        <time>2026-07-08T06:32:42Z</time>
      </trkpt>
      <trkpt lat="43.02776" lon="0.30952">
        <ele>522.5</ele>
        <time>2026-07-08T06:32:43Z</time>
      </trkpt>
      <trkpt lat="43.02776" lon="0.30953">
        <ele>523.5</ele>
        <time>2026-07-08T06:32:44Z</time>
      </trkpt>
      <trkpt lat="43.02777" lon="0.30953">
        <ele>524.5</ele>
        <time>2026-07-08T06:32:44Z</time>
      </trkpt>
      <trkpt lat="43.02777" lon="0.30953">
        <ele>524.5</ele>
        <time>2026-07-08T06:32:45Z</time>
      </trkpt>
      <trkpt lat="43.02777" lon="0.30952">
        <ele>524.5</ele>
        <time>2026-07-08T06:32:46Z</time>
      </trkpt>
      <trkpt lat="43.02777" lon="0.30952">
        <ele>524.5</ele>
        <time>2026-07-08T06:32:46Z</time>
      </trkpt>
      <trkpt lat="43.02777" lon="0.30952">
        <ele>524.5</ele>
        <time>2026-07-08T06:32:47Z</time>
      </trkpt>
      <trkpt lat="43.02777" lon="0.30952">
        <ele>524.5</ele>
        <time>2026-07-08T06:32:48Z</time>
      </trkpt>
      <trkpt lat="43.02777" lon="0.30952">
        <ele>525.5</ele>
        <time>2026-07-08T06:32:48Z</time>
      </trkpt>
      <trkpt lat="43.02777" lon="0.30952">
        <ele>525.5</ele>
        <time>2026-07-08T06:32:49Z</time>
      </trkpt>
      <trkpt lat="43.02777" lon="0.30952">
        <ele>525.5</ele>
        <time>2026-07-08T06:32:50Z</time>
      </trkpt>
      <trkpt lat="43.02777" lon="0.30953">
        <ele>525.5</ele>
        <time>2026-07-08T06:32:50Z</time>
      </trkpt>
      <trkpt lat="43.02778" lon="0.30953">
        <ele>526.5</ele>
        <time>2026-07-08T06:32:51Z</time>
      </trkpt>
      <trkpt lat="43.02778" lon="0.30955">
        <ele>526.5</ele>
        <time>2026-07-08T06:32:52Z</time>
      </trkpt>
      <trkpt lat="43.02778" lon="0.30956">
        <ele>525.5</ele>
        <time>2026-07-08T06:32:52Z</time>
      </trkpt>
      <trkpt lat="43.02778" lon="0.30956">
        <ele>525.5</ele>
        <time>2026-07-08T06:32:53Z</time>
      </trkpt>
      <trkpt lat="43.02778" lon="0.30958">
        <ele>525.5</ele>
        <time>2026-07-08T06:32:54Z</time>
      </trkpt>
      <trkpt lat="43.02778" lon="0.3096">
        <ele>525.5</ele>
        <time>2026-07-08T06:32:54Z</time>
      </trkpt>
      <trkpt lat="43.02778" lon="0.30961">
        <ele>525.5</ele>
        <time>2026-07-08T06:32:55Z</time>
      </trkpt>
      <trkpt lat="43.02778" lon="0.30962">
        <ele>525.5</ele>
        <time>2026-07-08T06:32:56Z</time>
      </trkpt>
      <trkpt lat="43.02778" lon="0.30964">
        <ele>525.5</ele>
        <time>2026-07-08T06:32:57Z</time>
      </trkpt>
      <trkpt lat="43.02777" lon="0.30965">
        <ele>525.5</ele>
        <time>2026-07-08T06:32:57Z</time>
      </trkpt>
      <trkpt lat="43.02777" lon="0.30965">
        <ele>525.5</ele>
        <time>2026-07-08T06:32:58Z</time>
      </trkpt>
      <trkpt lat="43.02777" lon="0.30966">
        <ele>525.5</ele>
        <time>2026-07-08T06:32:59Z</time>
      </trkpt>
      <trkpt lat="43.02776" lon="0.30967">
        <ele>525.5</ele>
        <time>2026-07-08T06:32:59Z</time>
      </trkpt>
      <trkpt lat="43.02776" lon="0.30968">
        <ele>525.5</ele>
        <time>2026-07-08T06:33:00Z</time>
      </trkpt>
      <trkpt lat="43.02776" lon="0.30969">
        <ele>525.5</ele>
        <time>2026-07-08T06:33:01Z</time>
      </trkpt>
      <trkpt lat="43.02775" lon="0.30969">
        <ele>525.5</ele>
        <time>2026-07-08T06:33:01Z</time>
      </trkpt>
      <trkpt lat="43.02775" lon="0.30969">
        <ele>524.5</ele>
        <time>2026-07-08T06:33:02Z</time>
      </trkpt>
      <trkpt lat="43.02774" lon="0.3097">
        <ele>524.5</ele>
        <time>2026-07-08T06:33:03Z</time>
      </trkpt>
      <trkpt lat="43.02774" lon="0.3097">
        <ele>524.5</ele>
        <time>2026-07-08T06:33:04Z</time>
      </trkpt>
      <trkpt lat="43.02774" lon="0.3097">
        <ele>526.5</ele>
        <time>2026-07-08T06:33:04Z</time>
      </trkpt>
      <trkpt lat="43.02774" lon="0.30971">
        <ele>526.5</ele>
        <time>2026-07-08T06:33:05Z</time>
      </trkpt>
      <trkpt lat="43.02774" lon="0.30971">
        <ele>525.5</ele>
        <time>2026-07-08T06:33:06Z</time>
      </trkpt>
      <trkpt lat="43.02775" lon="0.30972">
        <ele>526.5</ele>
        <time>2026-07-08T06:33:06Z</time>
      </trkpt>
      <trkpt lat="43.02775" lon="0.30972">
        <ele>526.5</ele>
        <time>2026-07-08T06:33:07Z</time>
      </trkpt>
      <trkpt lat="43.02775" lon="0.30973">
        <ele>525.5</ele>
        <time>2026-07-08T06:33:07Z</time>
      </trkpt>
      <trkpt lat="43.02775" lon="0.30973">
        <ele>525.5</ele>
        <time>2026-07-08T06:33:08Z</time>
      </trkpt>
      <trkpt lat="43.02775" lon="0.30974">
        <ele>525.5</ele>
        <time>2026-07-08T06:33:09Z</time>
      </trkpt>
      <trkpt lat="43.02775" lon="0.30974">
        <ele>525.5</ele>
        <time>2026-07-08T06:33:09Z</time>
      </trkpt>
      <trkpt lat="43.02775" lon="0.30975">
        <ele>525.5</ele>
        <time>2026-07-08T06:33:10Z</time>
      </trkpt>
      <trkpt lat="43.02774" lon="0.30975">
        <ele>525.5</ele>
        <time>2026-07-08T06:33:11Z</time>
      </trkpt>
      <trkpt lat="43.02773" lon="0.30977">
        <ele>525.5</ele>
        <time>2026-07-08T06:33:12Z</time>
      </trkpt>
      <trkpt lat="43.02772" lon="0.30977">
        <ele>525.5</ele>
        <time>2026-07-08T06:33:13Z</time>
      </trkpt>
      <trkpt lat="43.02772" lon="0.30978">
        <ele>525.5</ele>
        <time>2026-07-08T06:33:13Z</time>
      </trkpt>
      <trkpt lat="43.02771" lon="0.30979">
        <ele>525.5</ele>
        <time>2026-07-08T06:33:14Z</time>
      </trkpt>
      <trkpt lat="43.02771" lon="0.3098">
        <ele>525.5</ele>
        <time>2026-07-08T06:33:15Z</time>
      </trkpt>
      <trkpt lat="43.02771" lon="0.30981">
        <ele>525.5</ele>
        <time>2026-07-08T06:33:16Z</time>
      </trkpt>
      <trkpt lat="43.0277" lon="0.30982">
        <ele>525.5</ele>
        <time>2026-07-08T06:33:16Z</time>
      </trkpt>
      <trkpt lat="43.0277" lon="0.30983">
        <ele>525.5</ele>
        <time>2026-07-08T06:33:17Z</time>
      </trkpt>
      <trkpt lat="43.02769" lon="0.30984">
        <ele>525.5</ele>
        <time>2026-07-08T06:33:17Z</time>
      </trkpt>
      <trkpt lat="43.02769" lon="0.30986">
        <ele>525.5</ele>
        <time>2026-07-08T06:33:18Z</time>
      </trkpt>
      <trkpt lat="43.02769" lon="0.30987">
        <ele>525.5</ele>
        <time>2026-07-08T06:33:19Z</time>
      </trkpt>
      <trkpt lat="43.02769" lon="0.30988">
        <ele>525.5</ele>
        <time>2026-07-08T06:33:19Z</time>
      </trkpt>
      <trkpt lat="43.02769" lon="0.30989">
        <ele>525.5</ele>
        <time>2026-07-08T06:33:20Z</time>
      </trkpt>
      <trkpt lat="43.02769" lon="0.3099">
        <ele>525.5</ele>
        <time>2026-07-08T06:33:21Z</time>
      </trkpt>
      <trkpt lat="43.02769" lon="0.3099">
        <ele>525.5</ele>
        <time>2026-07-08T06:33:21Z</time>
      </trkpt>
      <trkpt lat="43.02769" lon="0.30992">
        <ele>525.5</ele>
        <time>2026-07-08T06:33:22Z</time>
      </trkpt>
      <trkpt lat="43.02769" lon="0.30993">
        <ele>525.5</ele>
        <time>2026-07-08T06:33:23Z</time>
      </trkpt>
      <trkpt lat="43.02769" lon="0.30993">
        <ele>526.5</ele>
        <time>2026-07-08T06:33:23Z</time>
      </trkpt>
      <trkpt lat="43.02769" lon="0.30995">
        <ele>526.5</ele>
        <time>2026-07-08T06:33:24Z</time>
      </trkpt>
      <trkpt lat="43.02769" lon="0.30996">
        <ele>526.5</ele>
        <time>2026-07-08T06:33:25Z</time>
      </trkpt>
      <trkpt lat="43.0277" lon="0.30997">
        <ele>526.5</ele>
        <time>2026-07-08T06:33:25Z</time>
      </trkpt>
      <trkpt lat="43.0277" lon="0.30998">
        <ele>526.5</ele>
        <time>2026-07-08T06:33:26Z</time>
      </trkpt>
      <trkpt lat="43.0277" lon="0.30999">
        <ele>526.5</ele>
        <time>2026-07-08T06:33:27Z</time>
      </trkpt>
      <trkpt lat="43.0277" lon="0.31">
        <ele>526.5</ele>
        <time>2026-07-08T06:33:27Z</time>
      </trkpt>
      <trkpt lat="43.0277" lon="0.31001">
        <ele>526.5</ele>
        <time>2026-07-08T06:33:28Z</time>
      </trkpt>
      <trkpt lat="43.0277" lon="0.31003">
        <ele>526.5</ele>
        <time>2026-07-08T06:33:29Z</time>
      </trkpt>
      <trkpt lat="43.0277" lon="0.31004">
        <ele>526.5</ele>
        <time>2026-07-08T06:33:30Z</time>
      </trkpt>
      <trkpt lat="43.0277" lon="0.31004">
        <ele>525.5</ele>
        <time>2026-07-08T06:33:30Z</time>
      </trkpt>
      <trkpt lat="43.0277" lon="0.31005">
        <ele>525.5</ele>
        <time>2026-07-08T06:33:31Z</time>
      </trkpt>
      <trkpt lat="43.0277" lon="0.31006">
        <ele>525.5</ele>
        <time>2026-07-08T06:33:32Z</time>
      </trkpt>
      <trkpt lat="43.0277" lon="0.31007">
        <ele>525.5</ele>
        <time>2026-07-08T06:33:32Z</time>
      </trkpt>
      <trkpt lat="43.02769" lon="0.31008">
        <ele>525.5</ele>
        <time>2026-07-08T06:33:33Z</time>
      </trkpt>
      <trkpt lat="43.02769" lon="0.31008">
        <ele>525.5</ele>
        <time>2026-07-08T06:33:34Z</time>
      </trkpt>
      <trkpt lat="43.02769" lon="0.31009">
        <ele>525.5</ele>
        <time>2026-07-08T06:33:35Z</time>
      </trkpt>
      <trkpt lat="43.0277" lon="0.31008">
        <ele>525.5</ele>
        <time>2026-07-08T06:33:35Z</time>
      </trkpt>
      <trkpt lat="43.0277" lon="0.31009">
        <ele>525.5</ele>
        <time>2026-07-08T06:33:36Z</time>
      </trkpt>
      <trkpt lat="43.0277" lon="0.31009">
        <ele>525.5</ele>
        <time>2026-07-08T06:33:37Z</time>
      </trkpt>
      <trkpt lat="43.0277" lon="0.31008">
        <ele>525.5</ele>
        <time>2026-07-08T06:33:37Z</time>
      </trkpt>
      <trkpt lat="43.0277" lon="0.31007">
        <ele>525.5</ele>
        <time>2026-07-08T06:33:38Z</time>
      </trkpt>
      <trkpt lat="43.0277" lon="0.31008">
        <ele>525.5</ele>
        <time>2026-07-08T06:33:39Z</time>
      </trkpt>
      <trkpt lat="43.0277" lon="0.31008">
        <ele>525.5</ele>
        <time>2026-07-08T06:33:39Z</time>
      </trkpt>
      <trkpt lat="43.0277" lon="0.31009">
        <ele>525.5</ele>
        <time>2026-07-08T06:33:40Z</time>
      </trkpt>
      <trkpt lat="43.0277" lon="0.3101">
        <ele>525.5</ele>
        <time>2026-07-08T06:33:41Z</time>
      </trkpt>
      <trkpt lat="43.02769" lon="0.3101">
        <ele>525.5</ele>
        <time>2026-07-08T06:33:41Z</time>
      </trkpt>
      <trkpt lat="43.02769" lon="0.3101">
        <ele>525.5</ele>
        <time>2026-07-08T06:33:42Z</time>
      </trkpt>
      <trkpt lat="43.02768" lon="0.31011">
        <ele>525.5</ele>
        <time>2026-07-08T06:33:43Z</time>
      </trkpt>
      <trkpt lat="43.02768" lon="0.31012">
        <ele>525.5</ele>
        <time>2026-07-08T06:33:43Z</time>
      </trkpt>
      <trkpt lat="43.02768" lon="0.31013">
        <ele>525.5</ele>
        <time>2026-07-08T06:33:44Z</time>
      </trkpt>
      <trkpt lat="43.02768" lon="0.31013">
        <ele>525.5</ele>
        <time>2026-07-08T06:33:45Z</time>
      </trkpt>
      <trkpt lat="43.02768" lon="0.31014">
        <ele>525.5</ele>
        <time>2026-07-08T06:33:46Z</time>
      </trkpt>
      <trkpt lat="43.02768" lon="0.31014">
        <ele>525.5</ele>
        <time>2026-07-08T06:33:46Z</time>
      </trkpt>
      <trkpt lat="43.02769" lon="0.31016">
        <ele>525.5</ele>
        <time>2026-07-08T06:33:47Z</time>
      </trkpt>
      <trkpt lat="43.02769" lon="0.31017">
        <ele>525.5</ele>
        <time>2026-07-08T06:33:48Z</time>
      </trkpt>
      <trkpt lat="43.02769" lon="0.31018">
        <ele>525.5</ele>
        <time>2026-07-08T06:33:49Z</time>
      </trkpt>
      <trkpt lat="43.02769" lon="0.31018">
        <ele>526.5</ele>
        <time>2026-07-08T06:33:50Z</time>
      </trkpt>
      <trkpt lat="43.02769" lon="0.31019">
        <ele>526.5</ele>
        <time>2026-07-08T06:33:50Z</time>
      </trkpt>
      <trkpt lat="43.02769" lon="0.3102">
        <ele>526.5</ele>
        <time>2026-07-08T06:33:51Z</time>
      </trkpt>
      <trkpt lat="43.02769" lon="0.31021">
        <ele>526.5</ele>
        <time>2026-07-08T06:33:52Z</time>
      </trkpt>
      <trkpt lat="43.02769" lon="0.31022">
        <ele>526.5</ele>
        <time>2026-07-08T06:33:52Z</time>
      </trkpt>
      <trkpt lat="43.02769" lon="0.31023">
        <ele>526.5</ele>
        <time>2026-07-08T06:33:53Z</time>
      </trkpt>
      <trkpt lat="43.02769" lon="0.31024">
        <ele>526.5</ele>
        <time>2026-07-08T06:33:54Z</time>
      </trkpt>
      <trkpt lat="43.02768" lon="0.31025">
        <ele>526.5</ele>
        <time>2026-07-08T06:33:54Z</time>
      </trkpt>
      <trkpt lat="43.02768" lon="0.31026">
        <ele>526.5</ele>
        <time>2026-07-08T06:33:55Z</time>
      </trkpt>
      <trkpt lat="43.02768" lon="0.31028">
        <ele>526.5</ele>
        <time>2026-07-08T06:33:56Z</time>
      </trkpt>
      <trkpt lat="43.02767" lon="0.31029">
        <ele>526.5</ele>
        <time>2026-07-08T06:33:57Z</time>
      </trkpt>
      <trkpt lat="43.02767" lon="0.3103">
        <ele>527.5</ele>
        <time>2026-07-08T06:33:57Z</time>
      </trkpt>
      <trkpt lat="43.02767" lon="0.31031">
        <ele>527.5</ele>
        <time>2026-07-08T06:33:58Z</time>
      </trkpt>
      <trkpt lat="43.02767" lon="0.31032">
        <ele>526.5</ele>
        <time>2026-07-08T06:33:59Z</time>
      </trkpt>
      <trkpt lat="43.02766" lon="0.31034">
        <ele>527.5</ele>
        <time>2026-07-08T06:33:59Z</time>
      </trkpt>
      <trkpt lat="43.02766" lon="0.31035">
        <ele>527.5</ele>
        <time>2026-07-08T06:34:00Z</time>
      </trkpt>
      <trkpt lat="43.02766" lon="0.31036">
        <ele>527.5</ele>
        <time>2026-07-08T06:34:01Z</time>
      </trkpt>
      <trkpt lat="43.02766" lon="0.31038">
        <ele>527.5</ele>
        <time>2026-07-08T06:34:01Z</time>
      </trkpt>
      <trkpt lat="43.02766" lon="0.31039">
        <ele>527.5</ele>
        <time>2026-07-08T06:34:02Z</time>
      </trkpt>
      <trkpt lat="43.02766" lon="0.3104">
        <ele>527.5</ele>
        <time>2026-07-08T06:34:03Z</time>
      </trkpt>
      <trkpt lat="43.02766" lon="0.31041">
        <ele>528.5</ele>
        <time>2026-07-08T06:34:04Z</time>
      </trkpt>
      <trkpt lat="43.02766" lon="0.31042">
        <ele>528.5</ele>
        <time>2026-07-08T06:34:04Z</time>
      </trkpt>
      <trkpt lat="43.02767" lon="0.31043">
        <ele>528.5</ele>
        <time>2026-07-08T06:34:05Z</time>
      </trkpt>
      <trkpt lat="43.02767" lon="0.31044">
        <ele>529.5</ele>
        <time>2026-07-08T06:34:06Z</time>
      </trkpt>
      <trkpt lat="43.02767" lon="0.31044">
        <ele>530.5</ele>
        <time>2026-07-08T06:34:06Z</time>
      </trkpt>
      <trkpt lat="43.02767" lon="0.31045">
        <ele>530.5</ele>
        <time>2026-07-08T06:34:07Z</time>
      </trkpt>
      <trkpt lat="43.02768" lon="0.31046">
        <ele>530.5</ele>
        <time>2026-07-08T06:34:08Z</time>
      </trkpt>
      <trkpt lat="43.02768" lon="0.31047">
        <ele>530.5</ele>
        <time>2026-07-08T06:34:08Z</time>
      </trkpt>
      <trkpt lat="43.02768" lon="0.31048">
        <ele>530.5</ele>
        <time>2026-07-08T06:34:09Z</time>
      </trkpt>
      <trkpt lat="43.02768" lon="0.31049">
        <ele>530.5</ele>
        <time>2026-07-08T06:34:10Z</time>
      </trkpt>
      <trkpt lat="43.02768" lon="0.3105">
        <ele>529.5</ele>
        <time>2026-07-08T06:34:10Z</time>
      </trkpt>
      <trkpt lat="43.02768" lon="0.3105">
        <ele>530.5</ele>
        <time>2026-07-08T06:34:11Z</time>
      </trkpt>
      <trkpt lat="43.02768" lon="0.31051">
        <ele>530.5</ele>
        <time>2026-07-08T06:34:12Z</time>
      </trkpt>
      <trkpt lat="43.02767" lon="0.31052">
        <ele>531.5</ele>
        <time>2026-07-08T06:34:13Z</time>
      </trkpt>
      <trkpt lat="43.02767" lon="0.31053">
        <ele>531.5</ele>
        <time>2026-07-08T06:34:13Z</time>
      </trkpt>
      <trkpt lat="43.02767" lon="0.31054">
        <ele>531.5</ele>
        <time>2026-07-08T06:34:14Z</time>
      </trkpt>
      <trkpt lat="43.02767" lon="0.31055">
        <ele>532.5</ele>
        <time>2026-07-08T06:34:15Z</time>
      </trkpt>
      <trkpt lat="43.02766" lon="0.31055">
        <ele>531.5</ele>
        <time>2026-07-08T06:34:15Z</time>
      </trkpt>
      <trkpt lat="43.02766" lon="0.31056">
        <ele>531.5</ele>
        <time>2026-07-08T06:34:16Z</time>
      </trkpt>
      <trkpt lat="43.02765" lon="0.31057">
        <ele>532.5</ele>
        <time>2026-07-08T06:34:17Z</time>
      </trkpt>
      <trkpt lat="43.02765" lon="0.31057">
        <ele>532.5</ele>
        <time>2026-07-08T06:34:18Z</time>
      </trkpt>
      <trkpt lat="43.02764" lon="0.31058">
        <ele>532.5</ele>
        <time>2026-07-08T06:34:18Z</time>
      </trkpt>
      <trkpt lat="43.02764" lon="0.31059">
        <ele>532.5</ele>
        <time>2026-07-08T06:34:19Z</time>
      </trkpt>
      <trkpt lat="43.02764" lon="0.31059">
        <ele>532.5</ele>
        <time>2026-07-08T06:34:20Z</time>
      </trkpt>
      <trkpt lat="43.02763" lon="0.31059">
        <ele>533.5</ele>
        <time>2026-07-08T06:34:20Z</time>
      </trkpt>
      <trkpt lat="43.02763" lon="0.3106">
        <ele>533.5</ele>
        <time>2026-07-08T06:34:21Z</time>
      </trkpt>
      <trkpt lat="43.02763" lon="0.31061">
        <ele>532.5</ele>
        <time>2026-07-08T06:34:22Z</time>
      </trkpt>
      <trkpt lat="43.02763" lon="0.31061">
        <ele>532.5</ele>
        <time>2026-07-08T06:34:22Z</time>
      </trkpt>
      <trkpt lat="43.02763" lon="0.31062">
        <ele>532.5</ele>
        <time>2026-07-08T06:34:23Z</time>
      </trkpt>
      <trkpt lat="43.02762" lon="0.31062">
        <ele>533.5</ele>
        <time>2026-07-08T06:34:24Z</time>
      </trkpt>
      <trkpt lat="43.02762" lon="0.31063">
        <ele>533.5</ele>
        <time>2026-07-08T06:34:24Z</time>
      </trkpt>
      <trkpt lat="43.02761" lon="0.31063">
        <ele>533.5</ele>
        <time>2026-07-08T06:34:25Z</time>
      </trkpt>
      <trkpt lat="43.02761" lon="0.31064">
        <ele>533.5</ele>
        <time>2026-07-08T06:34:26Z</time>
      </trkpt>
      <trkpt lat="43.02761" lon="0.31064">
        <ele>534.5</ele>
        <time>2026-07-08T06:34:26Z</time>
      </trkpt>
      <trkpt lat="43.0276" lon="0.31065">
        <ele>534.5</ele>
        <time>2026-07-08T06:34:27Z</time>
      </trkpt>
      <trkpt lat="43.0276" lon="0.31066">
        <ele>534.5</ele>
        <time>2026-07-08T06:34:28Z</time>
      </trkpt>
      <trkpt lat="43.0276" lon="0.31066">
        <ele>534.5</ele>
        <time>2026-07-08T06:34:29Z</time>
      </trkpt>
      <trkpt lat="43.0276" lon="0.31066">
        <ele>534.5</ele>
        <time>2026-07-08T06:34:29Z</time>
      </trkpt>
      <trkpt lat="43.0276" lon="0.31066">
        <ele>534.5</ele>
        <time>2026-07-08T06:34:30Z</time>
      </trkpt>
      <trkpt lat="43.0276" lon="0.31066">
        <ele>534.5</ele>
        <time>2026-07-08T06:34:31Z</time>
      </trkpt>
      <trkpt lat="43.0276" lon="0.31066">
        <ele>534.5</ele>
        <time>2026-07-08T06:34:31Z</time>
      </trkpt>
      <trkpt lat="43.0276" lon="0.31066">
        <ele>534.5</ele>
        <time>2026-07-08T06:34:32Z</time>
      </trkpt>
      <trkpt lat="43.0276" lon="0.31066">
        <ele>534.5</ele>
        <time>2026-07-08T06:34:33Z</time>
      </trkpt>
      <trkpt lat="43.02761" lon="0.31066">
        <ele>534.5</ele>
        <time>2026-07-08T06:34:33Z</time>
      </trkpt>
      <trkpt lat="43.02761" lon="0.31067">
        <ele>534.5</ele>
        <time>2026-07-08T06:34:34Z</time>
      </trkpt>
      <trkpt lat="43.02761" lon="0.31067">
        <ele>534.5</ele>
        <time>2026-07-08T06:34:35Z</time>
      </trkpt>
      <trkpt lat="43.02761" lon="0.31067">
        <ele>534.5</ele>
        <time>2026-07-08T06:34:36Z</time>
      </trkpt>
      <trkpt lat="43.02761" lon="0.31068">
        <ele>535.5</ele>
        <time>2026-07-08T06:34:36Z</time>
      </trkpt>
      <trkpt lat="43.02761" lon="0.31068">
        <ele>535.5</ele>
        <time>2026-07-08T06:34:37Z</time>
      </trkpt>
      <trkpt lat="43.02761" lon="0.31068">
        <ele>535.5</ele>
        <time>2026-07-08T06:34:38Z</time>
      </trkpt>
      <trkpt lat="43.02761" lon="0.31068">
        <ele>535.5</ele>
        <time>2026-07-08T06:34:38Z</time>
      </trkpt>
      <trkpt lat="43.02761" lon="0.31069">
        <ele>535.5</ele>
        <time>2026-07-08T06:34:39Z</time>
      </trkpt>
      <trkpt lat="43.02761" lon="0.3107">
        <ele>535.5</ele>
        <time>2026-07-08T06:34:40Z</time>
      </trkpt>
      <trkpt lat="43.02762" lon="0.31072">
        <ele>535.5</ele>
        <time>2026-07-08T06:34:41Z</time>
      </trkpt>
      <trkpt lat="43.02761" lon="0.31073">
        <ele>535.5</ele>
        <time>2026-07-08T06:34:41Z</time>
      </trkpt>
      <trkpt lat="43.02761" lon="0.31074">
        <ele>535.5</ele>
        <time>2026-07-08T06:34:42Z</time>
      </trkpt>
      <trkpt lat="43.02761" lon="0.31075">
        <ele>535.5</ele>
        <time>2026-07-08T06:34:43Z</time>
      </trkpt>
      <trkpt lat="43.02761" lon="0.31076">
        <ele>535.5</ele>
        <time>2026-07-08T06:34:44Z</time>
      </trkpt>
      <trkpt lat="43.02761" lon="0.31076">
        <ele>535.5</ele>
        <time>2026-07-08T06:34:44Z</time>
      </trkpt>
      <trkpt lat="43.02761" lon="0.31076">
        <ele>535.5</ele>
        <time>2026-07-08T06:34:45Z</time>
      </trkpt>
      <trkpt lat="43.0276" lon="0.31077">
        <ele>535.5</ele>
        <time>2026-07-08T06:34:46Z</time>
      </trkpt>
      <trkpt lat="43.02761" lon="0.31079">
        <ele>536.5</ele>
        <time>2026-07-08T06:34:47Z</time>
      </trkpt>
      <trkpt lat="43.02761" lon="0.3108">
        <ele>535.5</ele>
        <time>2026-07-08T06:34:47Z</time>
      </trkpt>
      <trkpt lat="43.02762" lon="0.31082">
        <ele>535.5</ele>
        <time>2026-07-08T06:34:48Z</time>
      </trkpt>
      <trkpt lat="43.02762" lon="0.31083">
        <ele>536.5</ele>
        <time>2026-07-08T06:34:49Z</time>
      </trkpt>
      <trkpt lat="43.02763" lon="0.31085">
        <ele>536.5</ele>
        <time>2026-07-08T06:34:49Z</time>
      </trkpt>
      <trkpt lat="43.02763" lon="0.31086">
        <ele>536.5</ele>
        <time>2026-07-08T06:34:50Z</time>
      </trkpt>
      <trkpt lat="43.02764" lon="0.31087">
        <ele>536.5</ele>
        <time>2026-07-08T06:34:51Z</time>
      </trkpt>
      <trkpt lat="43.02764" lon="0.31088">
        <ele>535.5</ele>
        <time>2026-07-08T06:34:52Z</time>
      </trkpt>
      <trkpt lat="43.02764" lon="0.31088">
        <ele>536.5</ele>
        <time>2026-07-08T06:34:52Z</time>
      </trkpt>
      <trkpt lat="43.02764" lon="0.31089">
        <ele>536.5</ele>
        <time>2026-07-08T06:34:53Z</time>
      </trkpt>
      <trkpt lat="43.02763" lon="0.3109">
        <ele>537.5</ele>
        <time>2026-07-08T06:34:54Z</time>
      </trkpt>
      <trkpt lat="43.02763" lon="0.31091">
        <ele>537.5</ele>
        <time>2026-07-08T06:34:54Z</time>
      </trkpt>
      <trkpt lat="43.02763" lon="0.31092">
        <ele>537.5</ele>
        <time>2026-07-08T06:34:55Z</time>
      </trkpt>
      <trkpt lat="43.02763" lon="0.31093">
        <ele>537.5</ele>
        <time>2026-07-08T06:34:56Z</time>
      </trkpt>
      <trkpt lat="43.02763" lon="0.31094">
        <ele>537.5</ele>
        <time>2026-07-08T06:34:57Z</time>
      </trkpt>
      <trkpt lat="43.02762" lon="0.31094">
        <ele>538.5</ele>
        <time>2026-07-08T06:34:57Z</time>
      </trkpt>
      <trkpt lat="43.02762" lon="0.31095">
        <ele>538.5</ele>
        <time>2026-07-08T06:34:58Z</time>
      </trkpt>
      <trkpt lat="43.02762" lon="0.31096">
        <ele>538.5</ele>
        <time>2026-07-08T06:34:59Z</time>
      </trkpt>
      <trkpt lat="43.02762" lon="0.31097">
        <ele>538.5</ele>
        <time>2026-07-08T06:34:59Z</time>
      </trkpt>
      <trkpt lat="43.02761" lon="0.31097">
        <ele>538.5</ele>
        <time>2026-07-08T06:35:00Z</time>
      </trkpt>
      <trkpt lat="43.02761" lon="0.31098">
        <ele>538.5</ele>
        <time>2026-07-08T06:35:01Z</time>
      </trkpt>
      <trkpt lat="43.02761" lon="0.31099">
        <ele>538.5</ele>
        <time>2026-07-08T06:35:01Z</time>
      </trkpt>
      <trkpt lat="43.0276" lon="0.311">
        <ele>538.5</ele>
        <time>2026-07-08T06:35:02Z</time>
      </trkpt>
      <trkpt lat="43.0276" lon="0.311">
        <ele>538.5</ele>
        <time>2026-07-08T06:35:03Z</time>
      </trkpt>
      <trkpt lat="43.02759" lon="0.31101">
        <ele>539.5</ele>
        <time>2026-07-08T06:35:03Z</time>
      </trkpt>
      <trkpt lat="43.02759" lon="0.31101">
        <ele>539.5</ele>
        <time>2026-07-08T06:35:04Z</time>
      </trkpt>
      <trkpt lat="43.02758" lon="0.31102">
        <ele>539.5</ele>
        <time>2026-07-08T06:35:05Z</time>
      </trkpt>
      <trkpt lat="43.02758" lon="0.31103">
        <ele>539.5</ele>
        <time>2026-07-08T06:35:06Z</time>
      </trkpt>
      <trkpt lat="43.02757" lon="0.31104">
        <ele>540.5</ele>
        <time>2026-07-08T06:35:06Z</time>
      </trkpt>
      <trkpt lat="43.02757" lon="0.31105">
        <ele>540.5</ele>
        <time>2026-07-08T06:35:07Z</time>
      </trkpt>
      <trkpt lat="43.02757" lon="0.31105">
        <ele>541.5</ele>
        <time>2026-07-08T06:35:08Z</time>
      </trkpt>
      <trkpt lat="43.02757" lon="0.31106">
        <ele>541.5</ele>
        <time>2026-07-08T06:35:08Z</time>
      </trkpt>
      <trkpt lat="43.02757" lon="0.31107">
        <ele>541.5</ele>
        <time>2026-07-08T06:35:09Z</time>
      </trkpt>
      <trkpt lat="43.02756" lon="0.31108">
        <ele>541.5</ele>
        <time>2026-07-08T06:35:10Z</time>
      </trkpt>
      <trkpt lat="43.02756" lon="0.31108">
        <ele>542.5</ele>
        <time>2026-07-08T06:35:11Z</time>
      </trkpt>
      <trkpt lat="43.02755" lon="0.31109">
        <ele>542.5</ele>
        <time>2026-07-08T06:35:11Z</time>
      </trkpt>
      <trkpt lat="43.02755" lon="0.31109">
        <ele>542.5</ele>
        <time>2026-07-08T06:35:12Z</time>
      </trkpt>
      <trkpt lat="43.02754" lon="0.3111">
        <ele>543.5</ele>
        <time>2026-07-08T06:35:13Z</time>
      </trkpt>
      <trkpt lat="43.02754" lon="0.31111">
        <ele>543.5</ele>
        <time>2026-07-08T06:35:13Z</time>
      </trkpt>
      <trkpt lat="43.02754" lon="0.31111">
        <ele>543.5</ele>
        <time>2026-07-08T06:35:14Z</time>
      </trkpt>
      <trkpt lat="43.02754" lon="0.31112">
        <ele>543.5</ele>
        <time>2026-07-08T06:35:15Z</time>
      </trkpt>
      <trkpt lat="43.02754" lon="0.31113">
        <ele>544.5</ele>
        <time>2026-07-08T06:35:15Z</time>
      </trkpt>
      <trkpt lat="43.02754" lon="0.31113">
        <ele>544.5</ele>
        <time>2026-07-08T06:35:16Z</time>
      </trkpt>
      <trkpt lat="43.02753" lon="0.31115">
        <ele>544.5</ele>
        <time>2026-07-08T06:35:17Z</time>
      </trkpt>
      <trkpt lat="43.02753" lon="0.31115">
        <ele>544.5</ele>
        <time>2026-07-08T06:35:18Z</time>
      </trkpt>
      <trkpt lat="43.02753" lon="0.31116">
        <ele>545.5</ele>
        <time>2026-07-08T06:35:18Z</time>
      </trkpt>
      <trkpt lat="43.02752" lon="0.31117">
        <ele>545.5</ele>
        <time>2026-07-08T06:35:19Z</time>
      </trkpt>
      <trkpt lat="43.02752" lon="0.31117">
        <ele>546.5</ele>
        <time>2026-07-08T06:35:20Z</time>
      </trkpt>
      <trkpt lat="43.02752" lon="0.31118">
        <ele>546.5</ele>
        <time>2026-07-08T06:35:20Z</time>
      </trkpt>
      <trkpt lat="43.02752" lon="0.31119">
        <ele>546.5</ele>
        <time>2026-07-08T06:35:21Z</time>
      </trkpt>
      <trkpt lat="43.02751" lon="0.3112">
        <ele>546.5</ele>
        <time>2026-07-08T06:35:22Z</time>
      </trkpt>
      <trkpt lat="43.02751" lon="0.3112">
        <ele>546.5</ele>
        <time>2026-07-08T06:35:22Z</time>
      </trkpt>
      <trkpt lat="43.02751" lon="0.31121">
        <ele>546.5</ele>
        <time>2026-07-08T06:35:23Z</time>
      </trkpt>
      <trkpt lat="43.02751" lon="0.31122">
        <ele>546.5</ele>
        <time>2026-07-08T06:35:24Z</time>
      </trkpt>
      <trkpt lat="43.0275" lon="0.31123">
        <ele>546.5</ele>
        <time>2026-07-08T06:35:25Z</time>
      </trkpt>
      <trkpt lat="43.0275" lon="0.31123">
        <ele>547.5</ele>
        <time>2026-07-08T06:35:25Z</time>
      </trkpt>
      <trkpt lat="43.0275" lon="0.31124">
        <ele>547.5</ele>
        <time>2026-07-08T06:35:26Z</time>
      </trkpt>
      <trkpt lat="43.0275" lon="0.31125">
        <ele>547.5</ele>
        <time>2026-07-08T06:35:27Z</time>
      </trkpt>
      <trkpt lat="43.02749" lon="0.31125">
        <ele>547.5</ele>
        <time>2026-07-08T06:35:27Z</time>
      </trkpt>
      <trkpt lat="43.02749" lon="0.31125">
        <ele>548.5</ele>
        <time>2026-07-08T06:35:28Z</time>
      </trkpt>
      <trkpt lat="43.02749" lon="0.31126">
        <ele>548.5</ele>
        <time>2026-07-08T06:35:29Z</time>
      </trkpt>
      <trkpt lat="43.02749" lon="0.31127">
        <ele>548.5</ele>
        <time>2026-07-08T06:35:30Z</time>
      </trkpt>
      <trkpt lat="43.02749" lon="0.31127">
        <ele>548.5</ele>
        <time>2026-07-08T06:35:30Z</time>
      </trkpt>
      <trkpt lat="43.02748" lon="0.31128">
        <ele>548.5</ele>
        <time>2026-07-08T06:35:31Z</time>
      </trkpt>
      <trkpt lat="43.02748" lon="0.31129">
        <ele>548.5</ele>
        <time>2026-07-08T06:35:32Z</time>
      </trkpt>
      <trkpt lat="43.02748" lon="0.31129">
        <ele>548.5</ele>
        <time>2026-07-08T06:35:32Z</time>
      </trkpt>
      <trkpt lat="43.02748" lon="0.3113">
        <ele>548.5</ele>
        <time>2026-07-08T06:35:33Z</time>
      </trkpt>
      <trkpt lat="43.02748" lon="0.31131">
        <ele>548.5</ele>
        <time>2026-07-08T06:35:34Z</time>
      </trkpt>
      <trkpt lat="43.02748" lon="0.31131">
        <ele>548.5</ele>
        <time>2026-07-08T06:35:34Z</time>
      </trkpt>
      <trkpt lat="43.02748" lon="0.31132">
        <ele>548.5</ele>
        <time>2026-07-08T06:35:35Z</time>
      </trkpt>
      <trkpt lat="43.02747" lon="0.31133">
        <ele>548.5</ele>
        <time>2026-07-08T06:35:36Z</time>
      </trkpt>
      <trkpt lat="43.02747" lon="0.31134">
        <ele>548.5</ele>
        <time>2026-07-08T06:35:36Z</time>
      </trkpt>
      <trkpt lat="43.02747" lon="0.31135">
        <ele>548.5</ele>
        <time>2026-07-08T06:35:37Z</time>
      </trkpt>
      <trkpt lat="43.02747" lon="0.31136">
        <ele>548.5</ele>
        <time>2026-07-08T06:35:38Z</time>
      </trkpt>
      <trkpt lat="43.02747" lon="0.31136">
        <ele>548.5</ele>
        <time>2026-07-08T06:35:39Z</time>
      </trkpt>
      <trkpt lat="43.02747" lon="0.31137">
        <ele>548.5</ele>
        <time>2026-07-08T06:35:39Z</time>
      </trkpt>
      <trkpt lat="43.02747" lon="0.31137">
        <ele>548.5</ele>
        <time>2026-07-08T06:35:40Z</time>
      </trkpt>
      <trkpt lat="43.02747" lon="0.31138">
        <ele>548.5</ele>
        <time>2026-07-08T06:35:41Z</time>
      </trkpt>
      <trkpt lat="43.02746" lon="0.31138">
        <ele>549.5</ele>
        <time>2026-07-08T06:35:41Z</time>
      </trkpt>
      <trkpt lat="43.02746" lon="0.31139">
        <ele>549.5</ele>
        <time>2026-07-08T06:35:42Z</time>
      </trkpt>
      <trkpt lat="43.02746" lon="0.3114">
        <ele>549.5</ele>
        <time>2026-07-08T06:35:43Z</time>
      </trkpt>
      <trkpt lat="43.02746" lon="0.31141">
        <ele>549.5</ele>
        <time>2026-07-08T06:35:44Z</time>
      </trkpt>
      <trkpt lat="43.02746" lon="0.31141">
        <ele>549.5</ele>
        <time>2026-07-08T06:35:44Z</time>
      </trkpt>
      <trkpt lat="43.02745" lon="0.31142">
        <ele>549.5</ele>
        <time>2026-07-08T06:35:45Z</time>
      </trkpt>
      <trkpt lat="43.02745" lon="0.31143">
        <ele>549.5</ele>
        <time>2026-07-08T06:35:46Z</time>
      </trkpt>
      <trkpt lat="43.02745" lon="0.31143">
        <ele>550.5</ele>
        <time>2026-07-08T06:35:47Z</time>
      </trkpt>
      <trkpt lat="43.02745" lon="0.31143">
        <ele>550.5</ele>
        <time>2026-07-08T06:35:47Z</time>
      </trkpt>
      <trkpt lat="43.02744" lon="0.31144">
        <ele>550.5</ele>
        <time>2026-07-08T06:35:48Z</time>
      </trkpt>
      <trkpt lat="43.02744" lon="0.31143">
        <ele>550.5</ele>
        <time>2026-07-08T06:35:49Z</time>
      </trkpt>
      <trkpt lat="43.02744" lon="0.31143">
        <ele>550.5</ele>
        <time>2026-07-08T06:35:49Z</time>
      </trkpt>
      <trkpt lat="43.02743" lon="0.31142">
        <ele>550.5</ele>
        <time>2026-07-08T06:35:50Z</time>
      </trkpt>
      <trkpt lat="43.02743" lon="0.31141">
        <ele>550.5</ele>
        <time>2026-07-08T06:35:51Z</time>
      </trkpt>
      <trkpt lat="43.02743" lon="0.31141">
        <ele>551.5</ele>
        <time>2026-07-08T06:35:51Z</time>
      </trkpt>
      <trkpt lat="43.02742" lon="0.3114">
        <ele>551.5</ele>
        <time>2026-07-08T06:35:52Z</time>
      </trkpt>
      <trkpt lat="43.02742" lon="0.31139">
        <ele>551.5</ele>
        <time>2026-07-08T06:35:53Z</time>
      </trkpt>
      <trkpt lat="43.02742" lon="0.31138">
        <ele>552.5</ele>
        <time>2026-07-08T06:35:54Z</time>
      </trkpt>
      <trkpt lat="43.02742" lon="0.31138">
        <ele>552.5</ele>
        <time>2026-07-08T06:35:54Z</time>
      </trkpt>
      <trkpt lat="43.02741" lon="0.31137">
        <ele>552.5</ele>
        <time>2026-07-08T06:35:55Z</time>
      </trkpt>
      <trkpt lat="43.02741" lon="0.31136">
        <ele>552.5</ele>
        <time>2026-07-08T06:35:56Z</time>
      </trkpt>
      <trkpt lat="43.02741" lon="0.31135">
        <ele>552.5</ele>
        <time>2026-07-08T06:35:56Z</time>
      </trkpt>
      <trkpt lat="43.02741" lon="0.31135">
        <ele>553.5</ele>
        <time>2026-07-08T06:35:57Z</time>
      </trkpt>
      <trkpt lat="43.02741" lon="0.31134">
        <ele>553.5</ele>
        <time>2026-07-08T06:35:58Z</time>
      </trkpt>
      <trkpt lat="43.02741" lon="0.31133">
        <ele>554.5</ele>
        <time>2026-07-08T06:35:59Z</time>
      </trkpt>
      <trkpt lat="43.02741" lon="0.31133">
        <ele>555.5</ele>
        <time>2026-07-08T06:36:00Z</time>
      </trkpt>
      <trkpt lat="43.02741" lon="0.31132">
        <ele>557.5</ele>
        <time>2026-07-08T06:36:00Z</time>
      </trkpt>
      <trkpt lat="43.0274" lon="0.31131">
        <ele>557.5</ele>
        <time>2026-07-08T06:36:01Z</time>
      </trkpt>
      <trkpt lat="43.0274" lon="0.31131">
        <ele>557.5</ele>
        <time>2026-07-08T06:36:02Z</time>
      </trkpt>
      <trkpt lat="43.0274" lon="0.3113">
        <ele>558.5</ele>
        <time>2026-07-08T06:36:03Z</time>
      </trkpt>
      <trkpt lat="43.0274" lon="0.3113">
        <ele>558.5</ele>
        <time>2026-07-08T06:36:03Z</time>
      </trkpt>
      <trkpt lat="43.0274" lon="0.31129">
        <ele>558.5</ele>
        <time>2026-07-08T06:36:04Z</time>
      </trkpt>
      <trkpt lat="43.02741" lon="0.3113">
        <ele>559.5</ele>
        <time>2026-07-08T06:36:05Z</time>
      </trkpt>
      <trkpt lat="43.0274" lon="0.31129">
        <ele>560.5</ele>
        <time>2026-07-08T06:36:05Z</time>
      </trkpt>
      <trkpt lat="43.0274" lon="0.31128">
        <ele>560.5</ele>
        <time>2026-07-08T06:36:06Z</time>
      </trkpt>
      <trkpt lat="43.0274" lon="0.31128">
        <ele>560.5</ele>
        <time>2026-07-08T06:36:07Z</time>
      </trkpt>
      <trkpt lat="43.0274" lon="0.31128">
        <ele>561.5</ele>
        <time>2026-07-08T06:36:07Z</time>
      </trkpt>
      <trkpt lat="43.0274" lon="0.31127">
        <ele>561.5</ele>
        <time>2026-07-08T06:36:08Z</time>
      </trkpt>
      <trkpt lat="43.0274" lon="0.31127">
        <ele>561.5</ele>
        <time>2026-07-08T06:36:09Z</time>
      </trkpt>
      <trkpt lat="43.02741" lon="0.31127">
        <ele>561.5</ele>
        <time>2026-07-08T06:36:09Z</time>
      </trkpt>
      <trkpt lat="43.02741" lon="0.31126">
        <ele>561.5</ele>
        <time>2026-07-08T06:36:10Z</time>
      </trkpt>
      <trkpt lat="43.02741" lon="0.31125">
        <ele>561.5</ele>
        <time>2026-07-08T06:36:11Z</time>
      </trkpt>
      <trkpt lat="43.02742" lon="0.31125">
        <ele>561.5</ele>
        <time>2026-07-08T06:36:12Z</time>
      </trkpt>
      <trkpt lat="43.02742" lon="0.31125">
        <ele>562.5</ele>
        <time>2026-07-08T06:36:12Z</time>
      </trkpt>
      <trkpt lat="43.02742" lon="0.31125">
        <ele>562.5</ele>
        <time>2026-07-08T06:36:13Z</time>
      </trkpt>
      <trkpt lat="43.02742" lon="0.31124">
        <ele>562.5</ele>
        <time>2026-07-08T06:36:14Z</time>
      </trkpt>
      <trkpt lat="43.02743" lon="0.31124">
        <ele>562.5</ele>
        <time>2026-07-08T06:36:14Z</time>
      </trkpt>
      <trkpt lat="43.02743" lon="0.31124">
        <ele>562.5</ele>
        <time>2026-07-08T06:36:15Z</time>
      </trkpt>
      <trkpt lat="43.02743" lon="0.31123">
        <ele>562.5</ele>
        <time>2026-07-08T06:36:16Z</time>
      </trkpt>
      <trkpt lat="43.02743" lon="0.31123">
        <ele>561.5</ele>
        <time>2026-07-08T06:36:17Z</time>
      </trkpt>
      <trkpt lat="43.02743" lon="0.31122">
        <ele>561.5</ele>
        <time>2026-07-08T06:36:17Z</time>
      </trkpt>
      <trkpt lat="43.02743" lon="0.31122">
        <ele>561.5</ele>
        <time>2026-07-08T06:36:18Z</time>
      </trkpt>
      <trkpt lat="43.02742" lon="0.31121">
        <ele>562.5</ele>
        <time>2026-07-08T06:36:19Z</time>
      </trkpt>
      <trkpt lat="43.02742" lon="0.31121">
        <ele>562.5</ele>
        <time>2026-07-08T06:36:19Z</time>
      </trkpt>
      <trkpt lat="43.02742" lon="0.31121">
        <ele>562.5</ele>
        <time>2026-07-08T06:36:20Z</time>
      </trkpt>
      <trkpt lat="43.02742" lon="0.3112">
        <ele>562.5</ele>
        <time>2026-07-08T06:36:21Z</time>
      </trkpt>
      <trkpt lat="43.02741" lon="0.3112">
        <ele>563.5</ele>
        <time>2026-07-08T06:36:22Z</time>
      </trkpt>
      <trkpt lat="43.0274" lon="0.31119">
        <ele>563.5</ele>
        <time>2026-07-08T06:36:22Z</time>
      </trkpt>
      <trkpt lat="43.0274" lon="0.31119">
        <ele>563.5</ele>
        <time>2026-07-08T06:36:23Z</time>
      </trkpt>
      <trkpt lat="43.02739" lon="0.31119">
        <ele>563.5</ele>
        <time>2026-07-08T06:36:24Z</time>
      </trkpt>
      <trkpt lat="43.02738" lon="0.31118">
        <ele>563.5</ele>
        <time>2026-07-08T06:36:24Z</time>
      </trkpt>
      <trkpt lat="43.02738" lon="0.31118">
        <ele>563.5</ele>
        <time>2026-07-08T06:36:25Z</time>
      </trkpt>
      <trkpt lat="43.02737" lon="0.31118">
        <ele>563.5</ele>
        <time>2026-07-08T06:36:26Z</time>
      </trkpt>
      <trkpt lat="43.02736" lon="0.31118">
        <ele>563.5</ele>
        <time>2026-07-08T06:36:26Z</time>
      </trkpt>
      <trkpt lat="43.02735" lon="0.31118">
        <ele>563.5</ele>
        <time>2026-07-08T06:36:27Z</time>
      </trkpt>
      <trkpt lat="43.02735" lon="0.31117">
        <ele>563.5</ele>
        <time>2026-07-08T06:36:28Z</time>
      </trkpt>
      <trkpt lat="43.02735" lon="0.31117">
        <ele>563.5</ele>
        <time>2026-07-08T06:36:28Z</time>
      </trkpt>
      <trkpt lat="43.02735" lon="0.31116">
        <ele>563.5</ele>
        <time>2026-07-08T06:36:29Z</time>
      </trkpt>
      <trkpt lat="43.02734" lon="0.31116">
        <ele>563.5</ele>
        <time>2026-07-08T06:36:30Z</time>
      </trkpt>
      <trkpt lat="43.02734" lon="0.31115">
        <ele>563.5</ele>
        <time>2026-07-08T06:36:31Z</time>
      </trkpt>
      <trkpt lat="43.02734" lon="0.31115">
        <ele>563.5</ele>
        <time>2026-07-08T06:36:31Z</time>
      </trkpt>
      <trkpt lat="43.02733" lon="0.31115">
        <ele>563.5</ele>
        <time>2026-07-08T06:36:32Z</time>
      </trkpt>
      <trkpt lat="43.02733" lon="0.31115">
        <ele>564.5</ele>
        <time>2026-07-08T06:36:33Z</time>
      </trkpt>
      <trkpt lat="43.02732" lon="0.31114">
        <ele>564.5</ele>
        <time>2026-07-08T06:36:33Z</time>
      </trkpt>
      <trkpt lat="43.02732" lon="0.31114">
        <ele>564.5</ele>
        <time>2026-07-08T06:36:34Z</time>
      </trkpt>
      <trkpt lat="43.02731" lon="0.31114">
        <ele>564.5</ele>
        <time>2026-07-08T06:36:35Z</time>
      </trkpt>
      <trkpt lat="43.02731" lon="0.31114">
        <ele>564.5</ele>
        <time>2026-07-08T06:36:35Z</time>
      </trkpt>
      <trkpt lat="43.0273" lon="0.31114">
        <ele>564.5</ele>
        <time>2026-07-08T06:36:36Z</time>
      </trkpt>
      <trkpt lat="43.02729" lon="0.31114">
        <ele>565.5</ele>
        <time>2026-07-08T06:36:37Z</time>
      </trkpt>
      <trkpt lat="43.02728" lon="0.31113">
        <ele>565.5</ele>
        <time>2026-07-08T06:36:37Z</time>
      </trkpt>
      <trkpt lat="43.02728" lon="0.31113">
        <ele>565.5</ele>
        <time>2026-07-08T06:36:38Z</time>
      </trkpt>
      <trkpt lat="43.02727" lon="0.31113">
        <ele>565.5</ele>
        <time>2026-07-08T06:36:39Z</time>
      </trkpt>
      <trkpt lat="43.02727" lon="0.31112">
        <ele>566.5</ele>
        <time>2026-07-08T06:36:40Z</time>
      </trkpt>
      <trkpt lat="43.02727" lon="0.31112">
        <ele>565.5</ele>
        <time>2026-07-08T06:36:40Z</time>
      </trkpt>
      <trkpt lat="43.02726" lon="0.31111">
        <ele>565.5</ele>
        <time>2026-07-08T06:36:41Z</time>
      </trkpt>
      <trkpt lat="43.02726" lon="0.3111">
        <ele>566.5</ele>
        <time>2026-07-08T06:36:42Z</time>
      </trkpt>
      <trkpt lat="43.02726" lon="0.3111">
        <ele>565.5</ele>
        <time>2026-07-08T06:36:42Z</time>
      </trkpt>
      <trkpt lat="43.02725" lon="0.31109">
        <ele>565.5</ele>
        <time>2026-07-08T06:36:43Z</time>
      </trkpt>
      <trkpt lat="43.02725" lon="0.31109">
        <ele>565.5</ele>
        <time>2026-07-08T06:36:44Z</time>
      </trkpt>
      <trkpt lat="43.02725" lon="0.31108">
        <ele>566.5</ele>
        <time>2026-07-08T06:36:45Z</time>
      </trkpt>
      <trkpt lat="43.02724" lon="0.31107">
        <ele>567.5</ele>
        <time>2026-07-08T06:36:45Z</time>
      </trkpt>
      <trkpt lat="43.02724" lon="0.31107">
        <ele>567.5</ele>
        <time>2026-07-08T06:36:46Z</time>
      </trkpt>
      <trkpt lat="43.02724" lon="0.31106">
        <ele>567.5</ele>
        <time>2026-07-08T06:36:47Z</time>
      </trkpt>
      <trkpt lat="43.02724" lon="0.31105">
        <ele>567.5</ele>
        <time>2026-07-08T06:36:48Z</time>
      </trkpt>
      <trkpt lat="43.02725" lon="0.31104">
        <ele>568.5</ele>
        <time>2026-07-08T06:36:48Z</time>
      </trkpt>
      <trkpt lat="43.02725" lon="0.31103">
        <ele>569.5</ele>
        <time>2026-07-08T06:36:49Z</time>
      </trkpt>
      <trkpt lat="43.02724" lon="0.31103">
        <ele>569.5</ele>
        <time>2026-07-08T06:36:50Z</time>
      </trkpt>
      <trkpt lat="43.02724" lon="0.31102">
        <ele>569.5</ele>
        <time>2026-07-08T06:36:51Z</time>
      </trkpt>
      <trkpt lat="43.02724" lon="0.31102">
        <ele>570.5</ele>
        <time>2026-07-08T06:36:51Z</time>
      </trkpt>
      <trkpt lat="43.02725" lon="0.31102">
        <ele>569.5</ele>
        <time>2026-07-08T06:36:52Z</time>
      </trkpt>
      <trkpt lat="43.02725" lon="0.31102">
        <ele>569.5</ele>
        <time>2026-07-08T06:36:53Z</time>
      </trkpt>
      <trkpt lat="43.02725" lon="0.31102">
        <ele>570.5</ele>
        <time>2026-07-08T06:36:53Z</time>
      </trkpt>
      <trkpt lat="43.02724" lon="0.31102">
        <ele>570.5</ele>
        <time>2026-07-08T06:36:54Z</time>
      </trkpt>
      <trkpt lat="43.02724" lon="0.31102">
        <ele>570.5</ele>
        <time>2026-07-08T06:36:55Z</time>
      </trkpt>
      <trkpt lat="43.02723" lon="0.31102">
        <ele>570.5</ele>
        <time>2026-07-08T06:36:56Z</time>
      </trkpt>
      <trkpt lat="43.02723" lon="0.31102">
        <ele>571.5</ele>
        <time>2026-07-08T06:36:57Z</time>
      </trkpt>
      <trkpt lat="43.02723" lon="0.31101">
        <ele>571.5</ele>
        <time>2026-07-08T06:36:57Z</time>
      </trkpt>
      <trkpt lat="43.02722" lon="0.31101">
        <ele>571.5</ele>
        <time>2026-07-08T06:36:58Z</time>
      </trkpt>
      <trkpt lat="43.02722" lon="0.311">
        <ele>571.5</ele>
        <time>2026-07-08T06:36:59Z</time>
      </trkpt>
      <trkpt lat="43.02722" lon="0.31099">
        <ele>571.5</ele>
        <time>2026-07-08T06:37:00Z</time>
      </trkpt>
      <trkpt lat="43.02722" lon="0.31099">
        <ele>571.5</ele>
        <time>2026-07-08T06:37:00Z</time>
      </trkpt>
      <trkpt lat="43.02721" lon="0.31099">
        <ele>571.5</ele>
        <time>2026-07-08T06:37:01Z</time>
      </trkpt>
      <trkpt lat="43.02721" lon="0.31098">
        <ele>571.5</ele>
        <time>2026-07-08T06:37:02Z</time>
      </trkpt>
      <trkpt lat="43.02721" lon="0.31098">
        <ele>572.5</ele>
        <time>2026-07-08T06:37:02Z</time>
      </trkpt>
      <trkpt lat="43.02721" lon="0.31098">
        <ele>571.5</ele>
        <time>2026-07-08T06:37:03Z</time>
      </trkpt>
      <trkpt lat="43.0272" lon="0.31098">
        <ele>571.5</ele>
        <time>2026-07-08T06:37:04Z</time>
      </trkpt>
      <trkpt lat="43.0272" lon="0.31099">
        <ele>571.5</ele>
        <time>2026-07-08T06:37:05Z</time>
      </trkpt>
      <trkpt lat="43.02719" lon="0.31099">
        <ele>571.5</ele>
        <time>2026-07-08T06:37:05Z</time>
      </trkpt>
      <trkpt lat="43.02719" lon="0.31099">
        <ele>571.5</ele>
        <time>2026-07-08T06:37:06Z</time>
      </trkpt>
      <trkpt lat="43.02718" lon="0.31099">
        <ele>571.5</ele>
        <time>2026-07-08T06:37:07Z</time>
      </trkpt>
      <trkpt lat="43.02717" lon="0.31099">
        <ele>572.5</ele>
        <time>2026-07-08T06:37:07Z</time>
      </trkpt>
      <trkpt lat="43.02717" lon="0.31099">
        <ele>573.5</ele>
        <time>2026-07-08T06:37:08Z</time>
      </trkpt>
      <trkpt lat="43.02717" lon="0.31098">
        <ele>573.5</ele>
        <time>2026-07-08T06:37:09Z</time>
      </trkpt>
      <trkpt lat="43.02716" lon="0.31098">
        <ele>573.5</ele>
        <time>2026-07-08T06:37:10Z</time>
      </trkpt>
      <trkpt lat="43.02715" lon="0.31098">
        <ele>574.5</ele>
        <time>2026-07-08T06:37:10Z</time>
      </trkpt>
      <trkpt lat="43.02715" lon="0.31098">
        <ele>574.5</ele>
        <time>2026-07-08T06:37:11Z</time>
      </trkpt>
      <trkpt lat="43.02714" lon="0.31097">
        <ele>574.5</ele>
        <time>2026-07-08T06:37:12Z</time>
      </trkpt>
      <trkpt lat="43.02714" lon="0.31097">
        <ele>574.5</ele>
        <time>2026-07-08T06:37:13Z</time>
      </trkpt>
      <trkpt lat="43.02713" lon="0.31096">
        <ele>574.5</ele>
        <time>2026-07-08T06:37:13Z</time>
      </trkpt>
      <trkpt lat="43.02713" lon="0.31095">
        <ele>574.5</ele>
        <time>2026-07-08T06:37:14Z</time>
      </trkpt>
      <trkpt lat="43.02713" lon="0.31094">
        <ele>573.5</ele>
        <time>2026-07-08T06:37:15Z</time>
      </trkpt>
      <trkpt lat="43.02713" lon="0.31093">
        <ele>574.5</ele>
        <time>2026-07-08T06:37:15Z</time>
      </trkpt>
      <trkpt lat="43.02712" lon="0.31093">
        <ele>574.5</ele>
        <time>2026-07-08T06:37:16Z</time>
      </trkpt>
      <trkpt lat="43.02712" lon="0.31092">
        <ele>574.5</ele>
        <time>2026-07-08T06:37:17Z</time>
      </trkpt>
      <trkpt lat="43.02712" lon="0.31092">
        <ele>574.5</ele>
        <time>2026-07-08T06:37:18Z</time>
      </trkpt>
      <trkpt lat="43.02711" lon="0.31091">
        <ele>574.5</ele>
        <time>2026-07-08T06:37:18Z</time>
      </trkpt>
      <trkpt lat="43.02711" lon="0.31091">
        <ele>574.5</ele>
        <time>2026-07-08T06:37:19Z</time>
      </trkpt>
      <trkpt lat="43.0271" lon="0.3109">
        <ele>574.5</ele>
        <time>2026-07-08T06:37:20Z</time>
      </trkpt>
      <trkpt lat="43.0271" lon="0.3109">
        <ele>574.5</ele>
        <time>2026-07-08T06:37:21Z</time>
      </trkpt>
      <trkpt lat="43.02709" lon="0.31089">
        <ele>575.5</ele>
        <time>2026-07-08T06:37:21Z</time>
      </trkpt>
      <trkpt lat="43.02709" lon="0.31088">
        <ele>575.5</ele>
        <time>2026-07-08T06:37:22Z</time>
      </trkpt>
      <trkpt lat="43.02709" lon="0.31087">
        <ele>575.5</ele>
        <time>2026-07-08T06:37:23Z</time>
      </trkpt>
      <trkpt lat="43.0271" lon="0.31086">
        <ele>575.5</ele>
        <time>2026-07-08T06:37:23Z</time>
      </trkpt>
      <trkpt lat="43.0271" lon="0.31086">
        <ele>575.5</ele>
        <time>2026-07-08T06:37:24Z</time>
      </trkpt>
      <trkpt lat="43.0271" lon="0.31085">
        <ele>575.5</ele>
        <time>2026-07-08T06:37:25Z</time>
      </trkpt>
      <trkpt lat="43.02711" lon="0.31085">
        <ele>575.5</ele>
        <time>2026-07-08T06:37:25Z</time>
      </trkpt>
      <trkpt lat="43.02711" lon="0.31084">
        <ele>575.5</ele>
        <time>2026-07-08T06:37:26Z</time>
      </trkpt>
      <trkpt lat="43.02711" lon="0.31084">
        <ele>575.5</ele>
        <time>2026-07-08T06:37:27Z</time>
      </trkpt>
      <trkpt lat="43.02712" lon="0.31084">
        <ele>575.5</ele>
        <time>2026-07-08T06:37:27Z</time>
      </trkpt>
      <trkpt lat="43.02712" lon="0.31084">
        <ele>575.5</ele>
        <time>2026-07-08T06:37:28Z</time>
      </trkpt>
      <trkpt lat="43.02712" lon="0.31083">
        <ele>575.5</ele>
        <time>2026-07-08T06:37:29Z</time>
      </trkpt>
      <trkpt lat="43.02711" lon="0.31082">
        <ele>576.5</ele>
        <time>2026-07-08T06:37:29Z</time>
      </trkpt>
      <trkpt lat="43.02711" lon="0.31081">
        <ele>576.5</ele>
        <time>2026-07-08T06:37:30Z</time>
      </trkpt>
      <trkpt lat="43.02711" lon="0.31081">
        <ele>576.5</ele>
        <time>2026-07-08T06:37:31Z</time>
      </trkpt>
      <trkpt lat="43.0271" lon="0.3108">
        <ele>576.5</ele>
        <time>2026-07-08T06:37:32Z</time>
      </trkpt>
      <trkpt lat="43.0271" lon="0.3108">
        <ele>576.5</ele>
        <time>2026-07-08T06:37:32Z</time>
      </trkpt>
      <trkpt lat="43.02709" lon="0.31079">
        <ele>576.5</ele>
        <time>2026-07-08T06:37:33Z</time>
      </trkpt>
      <trkpt lat="43.02708" lon="0.31079">
        <ele>576.5</ele>
        <time>2026-07-08T06:37:34Z</time>
      </trkpt>
      <trkpt lat="43.02708" lon="0.31079">
        <ele>576.5</ele>
        <time>2026-07-08T06:37:34Z</time>
      </trkpt>
      <trkpt lat="43.02708" lon="0.31078">
        <ele>577.5</ele>
        <time>2026-07-08T06:37:35Z</time>
      </trkpt>
      <trkpt lat="43.02708" lon="0.31078">
        <ele>577.5</ele>
        <time>2026-07-08T06:37:36Z</time>
      </trkpt>
      <trkpt lat="43.02708" lon="0.31077">
        <ele>577.5</ele>
        <time>2026-07-08T06:37:37Z</time>
      </trkpt>
      <trkpt lat="43.02708" lon="0.31077">
        <ele>576.5</ele>
        <time>2026-07-08T06:37:37Z</time>
      </trkpt>
      <trkpt lat="43.02707" lon="0.31076">
        <ele>576.5</ele>
        <time>2026-07-08T06:37:38Z</time>
      </trkpt>
      <trkpt lat="43.02708" lon="0.31076">
        <ele>577.5</ele>
        <time>2026-07-08T06:37:39Z</time>
      </trkpt>
      <trkpt lat="43.02708" lon="0.31075">
        <ele>577.5</ele>
        <time>2026-07-08T06:37:39Z</time>
      </trkpt>
      <trkpt lat="43.02708" lon="0.31075">
        <ele>577.5</ele>
        <time>2026-07-08T06:37:40Z</time>
      </trkpt>
      <trkpt lat="43.02708" lon="0.31074">
        <ele>577.5</ele>
        <time>2026-07-08T06:37:41Z</time>
      </trkpt>
      <trkpt lat="43.02708" lon="0.31073">
        <ele>577.5</ele>
        <time>2026-07-08T06:37:42Z</time>
      </trkpt>
      <trkpt lat="43.02707" lon="0.31073">
        <ele>577.5</ele>
        <time>2026-07-08T06:37:42Z</time>
      </trkpt>
      <trkpt lat="43.02707" lon="0.31071">
        <ele>577.5</ele>
        <time>2026-07-08T06:37:43Z</time>
      </trkpt>
      <trkpt lat="43.02707" lon="0.31071">
        <ele>577.5</ele>
        <time>2026-07-08T06:37:44Z</time>
      </trkpt>
      <trkpt lat="43.02707" lon="0.3107">
        <ele>577.5</ele>
        <time>2026-07-08T06:37:45Z</time>
      </trkpt>
      <trkpt lat="43.02708" lon="0.31069">
        <ele>577.5</ele>
        <time>2026-07-08T06:37:45Z</time>
      </trkpt>
      <trkpt lat="43.02707" lon="0.31068">
        <ele>577.5</ele>
        <time>2026-07-08T06:37:46Z</time>
      </trkpt>
      <trkpt lat="43.02707" lon="0.31067">
        <ele>577.5</ele>
        <time>2026-07-08T06:37:47Z</time>
      </trkpt>
      <trkpt lat="43.02707" lon="0.31067">
        <ele>577.5</ele>
        <time>2026-07-08T06:37:48Z</time>
      </trkpt>
      <trkpt lat="43.02707" lon="0.31066">
        <ele>577.5</ele>
        <time>2026-07-08T06:37:48Z</time>
      </trkpt>
      <trkpt lat="43.02707" lon="0.31065">
        <ele>576.5</ele>
        <time>2026-07-08T06:37:49Z</time>
      </trkpt>
      <trkpt lat="43.02707" lon="0.31064">
        <ele>576.5</ele>
        <time>2026-07-08T06:37:50Z</time>
      </trkpt>
      <trkpt lat="43.02707" lon="0.31064">
        <ele>576.5</ele>
        <time>2026-07-08T06:37:50Z</time>
      </trkpt>
      <trkpt lat="43.02707" lon="0.31063">
        <ele>576.5</ele>
        <time>2026-07-08T06:37:51Z</time>
      </trkpt>
      <trkpt lat="43.02707" lon="0.31062">
        <ele>576.5</ele>
        <time>2026-07-08T06:37:52Z</time>
      </trkpt>
      <trkpt lat="43.02707" lon="0.31061">
        <ele>577.5</ele>
        <time>2026-07-08T06:37:53Z</time>
      </trkpt>
      <trkpt lat="43.02707" lon="0.31061">
        <ele>576.5</ele>
        <time>2026-07-08T06:37:53Z</time>
      </trkpt>
      <trkpt lat="43.02707" lon="0.3106">
        <ele>576.5</ele>
        <time>2026-07-08T06:37:54Z</time>
      </trkpt>
      <trkpt lat="43.02707" lon="0.31059">
        <ele>577.5</ele>
        <time>2026-07-08T06:37:55Z</time>
      </trkpt>
      <trkpt lat="43.02707" lon="0.31059">
        <ele>577.5</ele>
        <time>2026-07-08T06:37:55Z</time>
      </trkpt>
      <trkpt lat="43.02707" lon="0.31058">
        <ele>577.5</ele>
        <time>2026-07-08T06:37:56Z</time>
      </trkpt>
      <trkpt lat="43.02707" lon="0.31058">
        <ele>578.5</ele>
        <time>2026-07-08T06:37:57Z</time>
      </trkpt>
      <trkpt lat="43.02707" lon="0.31058">
        <ele>577.5</ele>
        <time>2026-07-08T06:37:57Z</time>
      </trkpt>
      <trkpt lat="43.02707" lon="0.31057">
        <ele>577.5</ele>
        <time>2026-07-08T06:37:58Z</time>
      </trkpt>
      <trkpt lat="43.02707" lon="0.31056">
        <ele>577.5</ele>
        <time>2026-07-08T06:37:59Z</time>
      </trkpt>
      <trkpt lat="43.02707" lon="0.31056">
        <ele>578.5</ele>
        <time>2026-07-08T06:37:59Z</time>
      </trkpt>
      <trkpt lat="43.02707" lon="0.31055">
        <ele>578.5</ele>
        <time>2026-07-08T06:38:00Z</time>
      </trkpt>
      <trkpt lat="43.02707" lon="0.31055">
        <ele>578.5</ele>
        <time>2026-07-08T06:38:01Z</time>
      </trkpt>
      <trkpt lat="43.02707" lon="0.31054">
        <ele>579.5</ele>
        <time>2026-07-08T06:38:01Z</time>
      </trkpt>
      <trkpt lat="43.02707" lon="0.31054">
        <ele>580.5</ele>
        <time>2026-07-08T06:38:02Z</time>
      </trkpt>
      <trkpt lat="43.02707" lon="0.31053">
        <ele>580.5</ele>
        <time>2026-07-08T06:38:03Z</time>
      </trkpt>
      <trkpt lat="43.02707" lon="0.31053">
        <ele>580.5</ele>
        <time>2026-07-08T06:38:03Z</time>
      </trkpt>
      <trkpt lat="43.02707" lon="0.31052">
        <ele>580.5</ele>
        <time>2026-07-08T06:38:04Z</time>
      </trkpt>
      <trkpt lat="43.02707" lon="0.31052">
        <ele>580.5</ele>
        <time>2026-07-08T06:38:05Z</time>
      </trkpt>
      <trkpt lat="43.02707" lon="0.31051">
        <ele>581.5</ele>
        <time>2026-07-08T06:38:05Z</time>
      </trkpt>
      <trkpt lat="43.02707" lon="0.31051">
        <ele>581.5</ele>
        <time>2026-07-08T06:38:06Z</time>
      </trkpt>
      <trkpt lat="43.02706" lon="0.31051">
        <ele>581.5</ele>
        <time>2026-07-08T06:38:07Z</time>
      </trkpt>
      <trkpt lat="43.02706" lon="0.3105">
        <ele>581.5</ele>
        <time>2026-07-08T06:38:08Z</time>
      </trkpt>
      <trkpt lat="43.02706" lon="0.31049">
        <ele>581.5</ele>
        <time>2026-07-08T06:38:08Z</time>
      </trkpt>
      <trkpt lat="43.02705" lon="0.31049">
        <ele>582.5</ele>
        <time>2026-07-08T06:38:09Z</time>
      </trkpt>
      <trkpt lat="43.02705" lon="0.31048">
        <ele>582.5</ele>
        <time>2026-07-08T06:38:10Z</time>
      </trkpt>
      <trkpt lat="43.02704" lon="0.31048">
        <ele>581.5</ele>
        <time>2026-07-08T06:38:10Z</time>
      </trkpt>
      <trkpt lat="43.02704" lon="0.31047">
        <ele>581.5</ele>
        <time>2026-07-08T06:38:11Z</time>
      </trkpt>
      <trkpt lat="43.02704" lon="0.31046">
        <ele>581.5</ele>
        <time>2026-07-08T06:38:12Z</time>
      </trkpt>
      <trkpt lat="43.02703" lon="0.31046">
        <ele>581.5</ele>
        <time>2026-07-08T06:38:12Z</time>
      </trkpt>
      <trkpt lat="43.02703" lon="0.31045">
        <ele>582.5</ele>
        <time>2026-07-08T06:38:13Z</time>
      </trkpt>
      <trkpt lat="43.02702" lon="0.31044">
        <ele>582.5</ele>
        <time>2026-07-08T06:38:14Z</time>
      </trkpt>
      <trkpt lat="43.02702" lon="0.31044">
        <ele>582.5</ele>
        <time>2026-07-08T06:38:15Z</time>
      </trkpt>
      <trkpt lat="43.02702" lon="0.31043">
        <ele>583.5</ele>
        <time>2026-07-08T06:38:15Z</time>
      </trkpt>
      <trkpt lat="43.02701" lon="0.31043">
        <ele>583.5</ele>
        <time>2026-07-08T06:38:16Z</time>
      </trkpt>
      <trkpt lat="43.02701" lon="0.31042">
        <ele>582.5</ele>
        <time>2026-07-08T06:38:16Z</time>
      </trkpt>
      <trkpt lat="43.02701" lon="0.31042">
        <ele>582.5</ele>
        <time>2026-07-08T06:38:17Z</time>
      </trkpt>
      <trkpt lat="43.027" lon="0.31041">
        <ele>582.5</ele>
        <time>2026-07-08T06:38:18Z</time>
      </trkpt>
      <trkpt lat="43.027" lon="0.3104">
        <ele>583.5</ele>
        <time>2026-07-08T06:38:18Z</time>
      </trkpt>
      <trkpt lat="43.027" lon="0.3104">
        <ele>583.5</ele>
        <time>2026-07-08T06:38:19Z</time>
      </trkpt>
      <trkpt lat="43.027" lon="0.31039">
        <ele>582.5</ele>
        <time>2026-07-08T06:38:20Z</time>
      </trkpt>
      <trkpt lat="43.027" lon="0.31039">
        <ele>583.5</ele>
        <time>2026-07-08T06:38:20Z</time>
      </trkpt>
      <trkpt lat="43.027" lon="0.31038">
        <ele>583.5</ele>
        <time>2026-07-08T06:38:21Z</time>
      </trkpt>
      <trkpt lat="43.02699" lon="0.31037">
        <ele>583.5</ele>
        <time>2026-07-08T06:38:22Z</time>
      </trkpt>
      <trkpt lat="43.02699" lon="0.31037">
        <ele>583.5</ele>
        <time>2026-07-08T06:38:22Z</time>
      </trkpt>
      <trkpt lat="43.02699" lon="0.31036">
        <ele>582.5</ele>
        <time>2026-07-08T06:38:23Z</time>
      </trkpt>
      <trkpt lat="43.02699" lon="0.31035">
        <ele>582.5</ele>
        <time>2026-07-08T06:38:24Z</time>
      </trkpt>
      <trkpt lat="43.02699" lon="0.31035">
        <ele>583.5</ele>
        <time>2026-07-08T06:38:24Z</time>
      </trkpt>
      <trkpt lat="43.02699" lon="0.31034">
        <ele>583.5</ele>
        <time>2026-07-08T06:38:25Z</time>
      </trkpt>
      <trkpt lat="43.02699" lon="0.31034">
        <ele>583.5</ele>
        <time>2026-07-08T06:38:26Z</time>
      </trkpt>
      <trkpt lat="43.02699" lon="0.31034">
        <ele>582.5</ele>
        <time>2026-07-08T06:38:26Z</time>
      </trkpt>
      <trkpt lat="43.02699" lon="0.31033">
        <ele>582.5</ele>
        <time>2026-07-08T06:38:27Z</time>
      </trkpt>
      <trkpt lat="43.02699" lon="0.31033">
        <ele>582.5</ele>
        <time>2026-07-08T06:38:28Z</time>
      </trkpt>
      <trkpt lat="43.02698" lon="0.31033">
        <ele>582.5</ele>
        <time>2026-07-08T06:38:28Z</time>
      </trkpt>
      <trkpt lat="43.02698" lon="0.31032">
        <ele>582.5</ele>
        <time>2026-07-08T06:38:29Z</time>
      </trkpt>
      <trkpt lat="43.02698" lon="0.31032">
        <ele>583.5</ele>
        <time>2026-07-08T06:38:30Z</time>
      </trkpt>
      <trkpt lat="43.02698" lon="0.31033">
        <ele>583.5</ele>
        <time>2026-07-08T06:38:30Z</time>
      </trkpt>
      <trkpt lat="43.02697" lon="0.31032">
        <ele>583.5</ele>
        <time>2026-07-08T06:38:31Z</time>
      </trkpt>
      <trkpt lat="43.02697" lon="0.31031">
        <ele>583.5</ele>
        <time>2026-07-08T06:38:32Z</time>
      </trkpt>
      <trkpt lat="43.02696" lon="0.31031">
        <ele>583.5</ele>
        <time>2026-07-08T06:38:33Z</time>
      </trkpt>
      <trkpt lat="43.02696" lon="0.31031">
        <ele>583.5</ele>
        <time>2026-07-08T06:38:33Z</time>
      </trkpt>
      <trkpt lat="43.02695" lon="0.3103">
        <ele>583.5</ele>
        <time>2026-07-08T06:38:34Z</time>
      </trkpt>
      <trkpt lat="43.02695" lon="0.3103">
        <ele>583.5</ele>
        <time>2026-07-08T06:38:35Z</time>
      </trkpt>
      <trkpt lat="43.02695" lon="0.31029">
        <ele>583.5</ele>
        <time>2026-07-08T06:38:35Z</time>
      </trkpt>
      <trkpt lat="43.02694" lon="0.31029">
        <ele>583.5</ele>
        <time>2026-07-08T06:38:36Z</time>
      </trkpt>
      <trkpt lat="43.02694" lon="0.31029">
        <ele>583.5</ele>
        <time>2026-07-08T06:38:36Z</time>
      </trkpt>
      <trkpt lat="43.02693" lon="0.31029">
        <ele>583.5</ele>
        <time>2026-07-08T06:38:37Z</time>
      </trkpt>
      <trkpt lat="43.02693" lon="0.31028">
        <ele>584.5</ele>
        <time>2026-07-08T06:38:38Z</time>
      </trkpt>
      <trkpt lat="43.02693" lon="0.31028">
        <ele>584.5</ele>
        <time>2026-07-08T06:38:38Z</time>
      </trkpt>
      <trkpt lat="43.02693" lon="0.31028">
        <ele>584.5</ele>
        <time>2026-07-08T06:38:39Z</time>
      </trkpt>
      <trkpt lat="43.02693" lon="0.31028">
        <ele>584.5</ele>
        <time>2026-07-08T06:38:39Z</time>
      </trkpt>
      <trkpt lat="43.02693" lon="0.31027">
        <ele>585.5</ele>
        <time>2026-07-08T06:38:40Z</time>
      </trkpt>
      <trkpt lat="43.02692" lon="0.31027">
        <ele>585.5</ele>
        <time>2026-07-08T06:38:41Z</time>
      </trkpt>
      <trkpt lat="43.02692" lon="0.31026">
        <ele>585.5</ele>
        <time>2026-07-08T06:38:42Z</time>
      </trkpt>
      <trkpt lat="43.02692" lon="0.31026">
        <ele>585.5</ele>
        <time>2026-07-08T06:38:42Z</time>
      </trkpt>
      <trkpt lat="43.02692" lon="0.31026">
        <ele>585.5</ele>
        <time>2026-07-08T06:38:43Z</time>
      </trkpt>
      <trkpt lat="43.02691" lon="0.31026">
        <ele>585.5</ele>
        <time>2026-07-08T06:38:43Z</time>
      </trkpt>
      <trkpt lat="43.02691" lon="0.31026">
        <ele>585.5</ele>
        <time>2026-07-08T06:38:44Z</time>
      </trkpt>
      <trkpt lat="43.02691" lon="0.31025">
        <ele>585.5</ele>
        <time>2026-07-08T06:38:45Z</time>
      </trkpt>
      <trkpt lat="43.02691" lon="0.31024">
        <ele>585.5</ele>
        <time>2026-07-08T06:38:45Z</time>
      </trkpt>
      <trkpt lat="43.02691" lon="0.31023">
        <ele>586.5</ele>
        <time>2026-07-08T06:38:46Z</time>
      </trkpt>
      <trkpt lat="43.02691" lon="0.31021">
        <ele>586.5</ele>
        <time>2026-07-08T06:38:47Z</time>
      </trkpt>
      <trkpt lat="43.02692" lon="0.3102">
        <ele>586.5</ele>
        <time>2026-07-08T06:38:47Z</time>
      </trkpt>
      <trkpt lat="43.02692" lon="0.31019">
        <ele>586.5</ele>
        <time>2026-07-08T06:38:48Z</time>
      </trkpt>
      <trkpt lat="43.02692" lon="0.31018">
        <ele>586.5</ele>
        <time>2026-07-08T06:38:49Z</time>
      </trkpt>
      <trkpt lat="43.02692" lon="0.31017">
        <ele>587.5</ele>
        <time>2026-07-08T06:38:50Z</time>
      </trkpt>
      <trkpt lat="43.02693" lon="0.31016">
        <ele>587.5</ele>
        <time>2026-07-08T06:38:50Z</time>
      </trkpt>
      <trkpt lat="43.02693" lon="0.31014">
        <ele>587.5</ele>
        <time>2026-07-08T06:38:51Z</time>
      </trkpt>
      <trkpt lat="43.02692" lon="0.31013">
        <ele>587.5</ele>
        <time>2026-07-08T06:38:52Z</time>
      </trkpt>
      <trkpt lat="43.02693" lon="0.31012">
        <ele>587.5</ele>
        <time>2026-07-08T06:38:53Z</time>
      </trkpt>
      <trkpt lat="43.02693" lon="0.31012">
        <ele>587.5</ele>
        <time>2026-07-08T06:38:53Z</time>
      </trkpt>
      <trkpt lat="43.02693" lon="0.31011">
        <ele>587.5</ele>
        <time>2026-07-08T06:38:54Z</time>
      </trkpt>
      <trkpt lat="43.02693" lon="0.3101">
        <ele>588.5</ele>
        <time>2026-07-08T06:38:55Z</time>
      </trkpt>
      <trkpt lat="43.02694" lon="0.3101">
        <ele>587.5</ele>
        <time>2026-07-08T06:38:55Z</time>
      </trkpt>
      <trkpt lat="43.02694" lon="0.31009">
        <ele>587.5</ele>
        <time>2026-07-08T06:38:56Z</time>
      </trkpt>
      <trkpt lat="43.02693" lon="0.31009">
        <ele>587.5</ele>
        <time>2026-07-08T06:38:57Z</time>
      </trkpt>
      <trkpt lat="43.02693" lon="0.31009">
        <ele>587.5</ele>
        <time>2026-07-08T06:38:57Z</time>
      </trkpt>
      <trkpt lat="43.02692" lon="0.31008">
        <ele>587.5</ele>
        <time>2026-07-08T06:38:58Z</time>
      </trkpt>
      <trkpt lat="43.02692" lon="0.31008">
        <ele>587.5</ele>
        <time>2026-07-08T06:38:59Z</time>
      </trkpt>
      <trkpt lat="43.02691" lon="0.31008">
        <ele>586.5</ele>
        <time>2026-07-08T06:39:00Z</time>
      </trkpt>
      <trkpt lat="43.02691" lon="0.31008">
        <ele>586.5</ele>
        <time>2026-07-08T06:39:00Z</time>
      </trkpt>
      <trkpt lat="43.0269" lon="0.31008">
        <ele>586.5</ele>
        <time>2026-07-08T06:39:01Z</time>
      </trkpt>
      <trkpt lat="43.0269" lon="0.31008">
        <ele>587.5</ele>
        <time>2026-07-08T06:39:02Z</time>
      </trkpt>
      <trkpt lat="43.02689" lon="0.31008">
        <ele>588.5</ele>
        <time>2026-07-08T06:39:02Z</time>
      </trkpt>
      <trkpt lat="43.02689" lon="0.31007">
        <ele>588.5</ele>
        <time>2026-07-08T06:39:03Z</time>
      </trkpt>
      <trkpt lat="43.02688" lon="0.31007">
        <ele>588.5</ele>
        <time>2026-07-08T06:39:04Z</time>
      </trkpt>
      <trkpt lat="43.02688" lon="0.31007">
        <ele>588.5</ele>
        <time>2026-07-08T06:39:04Z</time>
      </trkpt>
      <trkpt lat="43.02687" lon="0.31006">
        <ele>588.5</ele>
        <time>2026-07-08T06:39:05Z</time>
      </trkpt>
      <trkpt lat="43.02687" lon="0.31005">
        <ele>587.5</ele>
        <time>2026-07-08T06:39:06Z</time>
      </trkpt>
      <trkpt lat="43.02687" lon="0.31004">
        <ele>587.5</ele>
        <time>2026-07-08T06:39:07Z</time>
      </trkpt>
      <trkpt lat="43.02686" lon="0.31003">
        <ele>588.5</ele>
        <time>2026-07-08T06:39:08Z</time>
      </trkpt>
      <trkpt lat="43.02686" lon="0.31003">
        <ele>588.5</ele>
        <time>2026-07-08T06:39:08Z</time>
      </trkpt>
      <trkpt lat="43.02686" lon="0.31002">
        <ele>588.5</ele>
        <time>2026-07-08T06:39:09Z</time>
      </trkpt>
      <trkpt lat="43.02686" lon="0.31001">
        <ele>588.5</ele>
        <time>2026-07-08T06:39:09Z</time>
      </trkpt>
      <trkpt lat="43.02685" lon="0.31">
        <ele>588.5</ele>
        <time>2026-07-08T06:39:10Z</time>
      </trkpt>
      <trkpt lat="43.02685" lon="0.30999">
        <ele>588.5</ele>
        <time>2026-07-08T06:39:11Z</time>
      </trkpt>
      <trkpt lat="43.02684" lon="0.30998">
        <ele>588.5</ele>
        <time>2026-07-08T06:39:11Z</time>
      </trkpt>
      <trkpt lat="43.02684" lon="0.30998">
        <ele>588.5</ele>
        <time>2026-07-08T06:39:12Z</time>
      </trkpt>
      <trkpt lat="43.02684" lon="0.30997">
        <ele>588.5</ele>
        <time>2026-07-08T06:39:13Z</time>
      </trkpt>
      <trkpt lat="43.02683" lon="0.30997">
        <ele>588.5</ele>
        <time>2026-07-08T06:39:13Z</time>
      </trkpt>
      <trkpt lat="43.02683" lon="0.30996">
        <ele>588.5</ele>
        <time>2026-07-08T06:39:14Z</time>
      </trkpt>
      <trkpt lat="43.02683" lon="0.30995">
        <ele>588.5</ele>
        <time>2026-07-08T06:39:15Z</time>
      </trkpt>
      <trkpt lat="43.02682" lon="0.30995">
        <ele>588.5</ele>
        <time>2026-07-08T06:39:15Z</time>
      </trkpt>
      <trkpt lat="43.02682" lon="0.30994">
        <ele>589.5</ele>
        <time>2026-07-08T06:39:16Z</time>
      </trkpt>
      <trkpt lat="43.02682" lon="0.30993">
        <ele>590.5</ele>
        <time>2026-07-08T06:39:17Z</time>
      </trkpt>
      <trkpt lat="43.02682" lon="0.30992">
        <ele>590.5</ele>
        <time>2026-07-08T06:39:18Z</time>
      </trkpt>
      <trkpt lat="43.02682" lon="0.30992">
        <ele>590.5</ele>
        <time>2026-07-08T06:39:19Z</time>
      </trkpt>
      <trkpt lat="43.02682" lon="0.30991">
        <ele>590.5</ele>
        <time>2026-07-08T06:39:19Z</time>
      </trkpt>
      <trkpt lat="43.02682" lon="0.3099">
        <ele>590.5</ele>
        <time>2026-07-08T06:39:20Z</time>
      </trkpt>
      <trkpt lat="43.02682" lon="0.30989">
        <ele>590.5</ele>
        <time>2026-07-08T06:39:21Z</time>
      </trkpt>
      <trkpt lat="43.02682" lon="0.30989">
        <ele>590.5</ele>
        <time>2026-07-08T06:39:21Z</time>
      </trkpt>
      <trkpt lat="43.02682" lon="0.30988">
        <ele>590.5</ele>
        <time>2026-07-08T06:39:22Z</time>
      </trkpt>
      <trkpt lat="43.02681" lon="0.30988">
        <ele>590.5</ele>
        <time>2026-07-08T06:39:23Z</time>
      </trkpt>
      <trkpt lat="43.02681" lon="0.30987">
        <ele>590.5</ele>
        <time>2026-07-08T06:39:24Z</time>
      </trkpt>
      <trkpt lat="43.0268" lon="0.30987">
        <ele>590.5</ele>
        <time>2026-07-08T06:39:24Z</time>
      </trkpt>
      <trkpt lat="43.0268" lon="0.30986">
        <ele>590.5</ele>
        <time>2026-07-08T06:39:25Z</time>
      </trkpt>
      <trkpt lat="43.0268" lon="0.30985">
        <ele>590.5</ele>
        <time>2026-07-08T06:39:26Z</time>
      </trkpt>
      <trkpt lat="43.02679" lon="0.30985">
        <ele>591.5</ele>
        <time>2026-07-08T06:39:26Z</time>
      </trkpt>
      <trkpt lat="43.02679" lon="0.30985">
        <ele>591.5</ele>
        <time>2026-07-08T06:39:27Z</time>
      </trkpt>
      <trkpt lat="43.02679" lon="0.30984">
        <ele>591.5</ele>
        <time>2026-07-08T06:39:28Z</time>
      </trkpt>
      <trkpt lat="43.02679" lon="0.30983">
        <ele>591.5</ele>
        <time>2026-07-08T06:39:29Z</time>
      </trkpt>
      <trkpt lat="43.02678" lon="0.30983">
        <ele>591.5</ele>
        <time>2026-07-08T06:39:30Z</time>
      </trkpt>
      <trkpt lat="43.02678" lon="0.30982">
        <ele>591.5</ele>
        <time>2026-07-08T06:39:30Z</time>
      </trkpt>
      <trkpt lat="43.02678" lon="0.30982">
        <ele>591.5</ele>
        <time>2026-07-08T06:39:31Z</time>
      </trkpt>
      <trkpt lat="43.02678" lon="0.30981">
        <ele>592.5</ele>
        <time>2026-07-08T06:39:32Z</time>
      </trkpt>
      <trkpt lat="43.02677" lon="0.30981">
        <ele>592.5</ele>
        <time>2026-07-08T06:39:33Z</time>
      </trkpt>
      <trkpt lat="43.02677" lon="0.3098">
        <ele>592.5</ele>
        <time>2026-07-08T06:39:33Z</time>
      </trkpt>
      <trkpt lat="43.02677" lon="0.3098">
        <ele>592.5</ele>
        <time>2026-07-08T06:39:34Z</time>
      </trkpt>
      <trkpt lat="43.02677" lon="0.30979">
        <ele>593.5</ele>
        <time>2026-07-08T06:39:35Z</time>
      </trkpt>
      <trkpt lat="43.02677" lon="0.30979">
        <ele>593.5</ele>
        <time>2026-07-08T06:39:36Z</time>
      </trkpt>
      <trkpt lat="43.02677" lon="0.30978">
        <ele>593.5</ele>
        <time>2026-07-08T06:39:37Z</time>
      </trkpt>
      <trkpt lat="43.02677" lon="0.30978">
        <ele>593.5</ele>
        <time>2026-07-08T06:39:38Z</time>
      </trkpt>
      <trkpt lat="43.02678" lon="0.30977">
        <ele>593.5</ele>
        <time>2026-07-08T06:39:38Z</time>
      </trkpt>
      <trkpt lat="43.02678" lon="0.30977">
        <ele>593.5</ele>
        <time>2026-07-08T06:39:39Z</time>
      </trkpt>
      <trkpt lat="43.02679" lon="0.30977">
        <ele>594.5</ele>
        <time>2026-07-08T06:39:40Z</time>
      </trkpt>
      <trkpt lat="43.02679" lon="0.30976">
        <ele>593.5</ele>
        <time>2026-07-08T06:39:41Z</time>
      </trkpt>
      <trkpt lat="43.02679" lon="0.30976">
        <ele>593.5</ele>
        <time>2026-07-08T06:39:42Z</time>
      </trkpt>
      <trkpt lat="43.02679" lon="0.30975">
        <ele>594.5</ele>
        <time>2026-07-08T06:39:43Z</time>
      </trkpt>
      <trkpt lat="43.02679" lon="0.30975">
        <ele>594.5</ele>
        <time>2026-07-08T06:39:44Z</time>
      </trkpt>
      <trkpt lat="43.02679" lon="0.30976">
        <ele>594.5</ele>
        <time>2026-07-08T06:39:45Z</time>
      </trkpt>
      <trkpt lat="43.02679" lon="0.30976">
        <ele>594.5</ele>
        <time>2026-07-08T06:39:46Z</time>
      </trkpt>
      <trkpt lat="43.02679" lon="0.30977">
        <ele>594.5</ele>
        <time>2026-07-08T06:39:47Z</time>
      </trkpt>
      <trkpt lat="43.02679" lon="0.30977">
        <ele>596.5</ele>
        <time>2026-07-08T06:39:48Z</time>
      </trkpt>
      <trkpt lat="43.02679" lon="0.30977">
        <ele>596.5</ele>
        <time>2026-07-08T06:39:49Z</time>
      </trkpt>
      <trkpt lat="43.02679" lon="0.30976">
        <ele>598.5</ele>
        <time>2026-07-08T06:39:50Z</time>
      </trkpt>
      <trkpt lat="43.02679" lon="0.30976">
        <ele>598.5</ele>
        <time>2026-07-08T06:39:51Z</time>
      </trkpt>
      <trkpt lat="43.02679" lon="0.30976">
        <ele>598.5</ele>
        <time>2026-07-08T06:39:52Z</time>
      </trkpt>
      <trkpt lat="43.02679" lon="0.30976">
        <ele>598.5</ele>
        <time>2026-07-08T06:39:53Z</time>
      </trkpt>
      <trkpt lat="43.02679" lon="0.30976">
        <ele>598.5</ele>
        <time>2026-07-08T06:39:54Z</time>
      </trkpt>
      <trkpt lat="43.02679" lon="0.30976">
        <ele>598.5</ele>
        <time>2026-07-08T06:39:55Z</time>
      </trkpt>
      <trkpt lat="43.02679" lon="0.30976">
        <ele>598.5</ele>
        <time>2026-07-08T06:39:56Z</time>
      </trkpt>
      <trkpt lat="43.02679" lon="0.30975">
        <ele>598.5</ele>
        <time>2026-07-08T06:39:57Z</time>
      </trkpt>
      <trkpt lat="43.0268" lon="0.30975">
        <ele>598.5</ele>
        <time>2026-07-08T06:39:58Z</time>
      </trkpt>
      <trkpt lat="43.0268" lon="0.30975">
        <ele>599.5</ele>
        <time>2026-07-08T06:39:58Z</time>
      </trkpt>
      <trkpt lat="43.0268" lon="0.30975">
        <ele>598.5</ele>
        <time>2026-07-08T06:39:59Z</time>
      </trkpt>
      <trkpt lat="43.0268" lon="0.30975">
        <ele>599.5</ele>
        <time>2026-07-08T06:40:00Z</time>
      </trkpt>
      <trkpt lat="43.0268" lon="0.30974">
        <ele>599.5</ele>
        <time>2026-07-08T06:40:01Z</time>
      </trkpt>
      <trkpt lat="43.0268" lon="0.30973">
        <ele>599.5</ele>
        <time>2026-07-08T06:40:02Z</time>
      </trkpt>
      <trkpt lat="43.02679" lon="0.30973">
        <ele>599.5</ele>
        <time>2026-07-08T06:40:03Z</time>
      </trkpt>
      <trkpt lat="43.02679" lon="0.30972">
        <ele>599.5</ele>
        <time>2026-07-08T06:40:04Z</time>
      </trkpt>
      <trkpt lat="43.02678" lon="0.30972">
        <ele>599.5</ele>
        <time>2026-07-08T06:40:05Z</time>
      </trkpt>
      <trkpt lat="43.02678" lon="0.30971">
        <ele>599.5</ele>
        <time>2026-07-08T06:40:05Z</time>
      </trkpt>
      <trkpt lat="43.02678" lon="0.3097">
        <ele>599.5</ele>
        <time>2026-07-08T06:40:06Z</time>
      </trkpt>
      <trkpt lat="43.02678" lon="0.30969">
        <ele>599.5</ele>
        <time>2026-07-08T06:40:07Z</time>
      </trkpt>
      <trkpt lat="43.02678" lon="0.30968">
        <ele>599.5</ele>
        <time>2026-07-08T06:40:08Z</time>
      </trkpt>
      <trkpt lat="43.02678" lon="0.30967">
        <ele>599.5</ele>
        <time>2026-07-08T06:40:08Z</time>
      </trkpt>
      <trkpt lat="43.02678" lon="0.30967">
        <ele>599.5</ele>
        <time>2026-07-08T06:40:09Z</time>
      </trkpt>
      <trkpt lat="43.02678" lon="0.30965">
        <ele>599.5</ele>
        <time>2026-07-08T06:40:10Z</time>
      </trkpt>
      <trkpt lat="43.02678" lon="0.30964">
        <ele>600.5</ele>
        <time>2026-07-08T06:40:11Z</time>
      </trkpt>
      <trkpt lat="43.02678" lon="0.30964">
        <ele>600.5</ele>
        <time>2026-07-08T06:40:11Z</time>
      </trkpt>
      <trkpt lat="43.02678" lon="0.30963">
        <ele>600.5</ele>
        <time>2026-07-08T06:40:12Z</time>
      </trkpt>
      <trkpt lat="43.02678" lon="0.30963">
        <ele>600.5</ele>
        <time>2026-07-08T06:40:13Z</time>
      </trkpt>
      <trkpt lat="43.02679" lon="0.30962">
        <ele>600.5</ele>
        <time>2026-07-08T06:40:14Z</time>
      </trkpt>
      <trkpt lat="43.02679" lon="0.30962">
        <ele>600.5</ele>
        <time>2026-07-08T06:40:14Z</time>
      </trkpt>
      <trkpt lat="43.02679" lon="0.30961">
        <ele>600.5</ele>
        <time>2026-07-08T06:40:15Z</time>
      </trkpt>
      <trkpt lat="43.02679" lon="0.3096">
        <ele>600.5</ele>
        <time>2026-07-08T06:40:16Z</time>
      </trkpt>
      <trkpt lat="43.02679" lon="0.30959">
        <ele>600.5</ele>
        <time>2026-07-08T06:40:16Z</time>
      </trkpt>
      <trkpt lat="43.02678" lon="0.30958">
        <ele>600.5</ele>
        <time>2026-07-08T06:40:17Z</time>
      </trkpt>
      <trkpt lat="43.02678" lon="0.30957">
        <ele>600.5</ele>
        <time>2026-07-08T06:40:18Z</time>
      </trkpt>
      <trkpt lat="43.02678" lon="0.30956">
        <ele>600.5</ele>
        <time>2026-07-08T06:40:19Z</time>
      </trkpt>
      <trkpt lat="43.02678" lon="0.30956">
        <ele>600.5</ele>
        <time>2026-07-08T06:40:19Z</time>
      </trkpt>
      <trkpt lat="43.02678" lon="0.30956">
        <ele>600.5</ele>
        <time>2026-07-08T06:40:20Z</time>
      </trkpt>
      <trkpt lat="43.02677" lon="0.30956">
        <ele>600.5</ele>
        <time>2026-07-08T06:40:21Z</time>
      </trkpt>
      <trkpt lat="43.02676" lon="0.30955">
        <ele>600.5</ele>
        <time>2026-07-08T06:40:22Z</time>
      </trkpt>
      <trkpt lat="43.02676" lon="0.30955">
        <ele>601.5</ele>
        <time>2026-07-08T06:40:22Z</time>
      </trkpt>
      <trkpt lat="43.02676" lon="0.30955">
        <ele>601.5</ele>
        <time>2026-07-08T06:40:23Z</time>
      </trkpt>
      <trkpt lat="43.02675" lon="0.30954">
        <ele>600.5</ele>
        <time>2026-07-08T06:40:24Z</time>
      </trkpt>
      <trkpt lat="43.02675" lon="0.30954">
        <ele>600.5</ele>
        <time>2026-07-08T06:40:25Z</time>
      </trkpt>
      <trkpt lat="43.02675" lon="0.30953">
        <ele>600.5</ele>
        <time>2026-07-08T06:40:26Z</time>
      </trkpt>
      <trkpt lat="43.02674" lon="0.30952">
        <ele>600.5</ele>
        <time>2026-07-08T06:40:26Z</time>
      </trkpt>
      <trkpt lat="43.02674" lon="0.30951">
        <ele>600.5</ele>
        <time>2026-07-08T06:40:27Z</time>
      </trkpt>
      <trkpt lat="43.02674" lon="0.30951">
        <ele>600.5</ele>
        <time>2026-07-08T06:40:28Z</time>
      </trkpt>
      <trkpt lat="43.02673" lon="0.3095">
        <ele>600.5</ele>
        <time>2026-07-08T06:40:29Z</time>
      </trkpt>
      <trkpt lat="43.02673" lon="0.3095">
        <ele>600.5</ele>
        <time>2026-07-08T06:40:29Z</time>
      </trkpt>
      <trkpt lat="43.02672" lon="0.30949">
        <ele>599.5</ele>
        <time>2026-07-08T06:40:30Z</time>
      </trkpt>
      <trkpt lat="43.02672" lon="0.30949">
        <ele>599.5</ele>
        <time>2026-07-08T06:40:31Z</time>
      </trkpt>
      <trkpt lat="43.02671" lon="0.30948">
        <ele>599.5</ele>
        <time>2026-07-08T06:40:32Z</time>
      </trkpt>
      <trkpt lat="43.02671" lon="0.30948">
        <ele>599.5</ele>
        <time>2026-07-08T06:40:32Z</time>
      </trkpt>
      <trkpt lat="43.0267" lon="0.30947">
        <ele>600.5</ele>
        <time>2026-07-08T06:40:33Z</time>
      </trkpt>
      <trkpt lat="43.02669" lon="0.30947">
        <ele>600.5</ele>
        <time>2026-07-08T06:40:34Z</time>
      </trkpt>
      <trkpt lat="43.02669" lon="0.30947">
        <ele>600.5</ele>
        <time>2026-07-08T06:40:35Z</time>
      </trkpt>
      <trkpt lat="43.02669" lon="0.30946">
        <ele>601.5</ele>
        <time>2026-07-08T06:40:35Z</time>
      </trkpt>
      <trkpt lat="43.02668" lon="0.30946">
        <ele>601.5</ele>
        <time>2026-07-08T06:40:36Z</time>
      </trkpt>
      <trkpt lat="43.02668" lon="0.30946">
        <ele>601.5</ele>
        <time>2026-07-08T06:40:37Z</time>
      </trkpt>
      <trkpt lat="43.02668" lon="0.30946">
        <ele>600.5</ele>
        <time>2026-07-08T06:40:37Z</time>
      </trkpt>
      <trkpt lat="43.02667" lon="0.30945">
        <ele>600.5</ele>
        <time>2026-07-08T06:40:38Z</time>
      </trkpt>
      <trkpt lat="43.02667" lon="0.30945">
        <ele>600.5</ele>
        <time>2026-07-08T06:40:39Z</time>
      </trkpt>
      <trkpt lat="43.02666" lon="0.30944">
        <ele>601.5</ele>
        <time>2026-07-08T06:40:40Z</time>
      </trkpt>
      <trkpt lat="43.02666" lon="0.30944">
        <ele>601.5</ele>
        <time>2026-07-08T06:40:40Z</time>
      </trkpt>
      <trkpt lat="43.02665" lon="0.30944">
        <ele>601.5</ele>
        <time>2026-07-08T06:40:41Z</time>
      </trkpt>
      <trkpt lat="43.02664" lon="0.30943">
        <ele>602.5</ele>
        <time>2026-07-08T06:40:42Z</time>
      </trkpt>
      <trkpt lat="43.02664" lon="0.30943">
        <ele>602.5</ele>
        <time>2026-07-08T06:40:43Z</time>
      </trkpt>
      <trkpt lat="43.02663" lon="0.30943">
        <ele>602.5</ele>
        <time>2026-07-08T06:40:44Z</time>
      </trkpt>
      <trkpt lat="43.02663" lon="0.30944">
        <ele>601.5</ele>
        <time>2026-07-08T06:40:44Z</time>
      </trkpt>
      <trkpt lat="43.02662" lon="0.30944">
        <ele>601.5</ele>
        <time>2026-07-08T06:40:45Z</time>
      </trkpt>
      <trkpt lat="43.02661" lon="0.30944">
        <ele>601.5</ele>
        <time>2026-07-08T06:40:46Z</time>
      </trkpt>
      <trkpt lat="43.02661" lon="0.30944">
        <ele>601.5</ele>
        <time>2026-07-08T06:40:47Z</time>
      </trkpt>
      <trkpt lat="43.0266" lon="0.30943">
        <ele>601.5</ele>
        <time>2026-07-08T06:40:47Z</time>
      </trkpt>
      <trkpt lat="43.0266" lon="0.30944">
        <ele>601.5</ele>
        <time>2026-07-08T06:40:48Z</time>
      </trkpt>
      <trkpt lat="43.02659" lon="0.30943">
        <ele>602.5</ele>
        <time>2026-07-08T06:40:49Z</time>
      </trkpt>
      <trkpt lat="43.02659" lon="0.30943">
        <ele>602.5</ele>
        <time>2026-07-08T06:40:50Z</time>
      </trkpt>
      <trkpt lat="43.02658" lon="0.30943">
        <ele>603.5</ele>
        <time>2026-07-08T06:40:51Z</time>
      </trkpt>
      <trkpt lat="43.02658" lon="0.30943">
        <ele>603.5</ele>
        <time>2026-07-08T06:40:51Z</time>
      </trkpt>
      <trkpt lat="43.02657" lon="0.30943">
        <ele>602.5</ele>
        <time>2026-07-08T06:40:52Z</time>
      </trkpt>
      <trkpt lat="43.02656" lon="0.30944">
        <ele>602.5</ele>
        <time>2026-07-08T06:40:53Z</time>
      </trkpt>
      <trkpt lat="43.02656" lon="0.30945">
        <ele>602.5</ele>
        <time>2026-07-08T06:40:54Z</time>
      </trkpt>
      <trkpt lat="43.02655" lon="0.30945">
        <ele>602.5</ele>
        <time>2026-07-08T06:40:55Z</time>
      </trkpt>
      <trkpt lat="43.02655" lon="0.30946">
        <ele>602.5</ele>
        <time>2026-07-08T06:40:55Z</time>
      </trkpt>
      <trkpt lat="43.02654" lon="0.30946">
        <ele>602.5</ele>
        <time>2026-07-08T06:40:56Z</time>
      </trkpt>
      <trkpt lat="43.02653" lon="0.30946">
        <ele>603.5</ele>
        <time>2026-07-08T06:40:57Z</time>
      </trkpt>
      <trkpt lat="43.02653" lon="0.30946">
        <ele>603.5</ele>
        <time>2026-07-08T06:40:57Z</time>
      </trkpt>
      <trkpt lat="43.02652" lon="0.30946">
        <ele>603.5</ele>
        <time>2026-07-08T06:40:58Z</time>
      </trkpt>
      <trkpt lat="43.02651" lon="0.30945">
        <ele>603.5</ele>
        <time>2026-07-08T06:40:59Z</time>
      </trkpt>
      <trkpt lat="43.02651" lon="0.30945">
        <ele>603.5</ele>
        <time>2026-07-08T06:41:00Z</time>
      </trkpt>
      <trkpt lat="43.0265" lon="0.30945">
        <ele>603.5</ele>
        <time>2026-07-08T06:41:01Z</time>
      </trkpt>
      <trkpt lat="43.0265" lon="0.30945">
        <ele>603.5</ele>
        <time>2026-07-08T06:41:01Z</time>
      </trkpt>
      <trkpt lat="43.0265" lon="0.30945">
        <ele>604.5</ele>
        <time>2026-07-08T06:41:02Z</time>
      </trkpt>
      <trkpt lat="43.02649" lon="0.30944">
        <ele>604.5</ele>
        <time>2026-07-08T06:41:03Z</time>
      </trkpt>
      <trkpt lat="43.02648" lon="0.30944">
        <ele>604.5</ele>
        <time>2026-07-08T06:41:04Z</time>
      </trkpt>
      <trkpt lat="43.02648" lon="0.30944">
        <ele>604.5</ele>
        <time>2026-07-08T06:41:04Z</time>
      </trkpt>
      <trkpt lat="43.02648" lon="0.30944">
        <ele>604.5</ele>
        <time>2026-07-08T06:41:05Z</time>
      </trkpt>
      <trkpt lat="43.02647" lon="0.30944">
        <ele>604.5</ele>
        <time>2026-07-08T06:41:06Z</time>
      </trkpt>
      <trkpt lat="43.02647" lon="0.30944">
        <ele>604.5</ele>
        <time>2026-07-08T06:41:07Z</time>
      </trkpt>
      <trkpt lat="43.02646" lon="0.30944">
        <ele>605.5</ele>
        <time>2026-07-08T06:41:07Z</time>
      </trkpt>
      <trkpt lat="43.02646" lon="0.30944">
        <ele>605.5</ele>
        <time>2026-07-08T06:41:08Z</time>
      </trkpt>
      <trkpt lat="43.02646" lon="0.30944">
        <ele>605.5</ele>
        <time>2026-07-08T06:41:09Z</time>
      </trkpt>
      <trkpt lat="43.02645" lon="0.30944">
        <ele>606.5</ele>
        <time>2026-07-08T06:41:10Z</time>
      </trkpt>
      <trkpt lat="43.02645" lon="0.30944">
        <ele>606.5</ele>
        <time>2026-07-08T06:41:11Z</time>
      </trkpt>
      <trkpt lat="43.02644" lon="0.30944">
        <ele>607.5</ele>
        <time>2026-07-08T06:41:11Z</time>
      </trkpt>
      <trkpt lat="43.02644" lon="0.30944">
        <ele>607.5</ele>
        <time>2026-07-08T06:41:12Z</time>
      </trkpt>
      <trkpt lat="43.02643" lon="0.30943">
        <ele>607.5</ele>
        <time>2026-07-08T06:41:13Z</time>
      </trkpt>
      <trkpt lat="43.02642" lon="0.30943">
        <ele>607.5</ele>
        <time>2026-07-08T06:41:14Z</time>
      </trkpt>
      <trkpt lat="43.02642" lon="0.30943">
        <ele>607.5</ele>
        <time>2026-07-08T06:41:15Z</time>
      </trkpt>
      <trkpt lat="43.02642" lon="0.30942">
        <ele>606.5</ele>
        <time>2026-07-08T06:41:15Z</time>
      </trkpt>
      <trkpt lat="43.02641" lon="0.30941">
        <ele>606.5</ele>
        <time>2026-07-08T06:41:16Z</time>
      </trkpt>
      <trkpt lat="43.02641" lon="0.30941">
        <ele>606.5</ele>
        <time>2026-07-08T06:41:17Z</time>
      </trkpt>
      <trkpt lat="43.02641" lon="0.3094">
        <ele>606.5</ele>
        <time>2026-07-08T06:41:18Z</time>
      </trkpt>
      <trkpt lat="43.0264" lon="0.30939">
        <ele>606.5</ele>
        <time>2026-07-08T06:41:18Z</time>
      </trkpt>
      <trkpt lat="43.0264" lon="0.30938">
        <ele>606.5</ele>
        <time>2026-07-08T06:41:19Z</time>
      </trkpt>
      <trkpt lat="43.02639" lon="0.30938">
        <ele>607.5</ele>
        <time>2026-07-08T06:41:20Z</time>
      </trkpt>
      <trkpt lat="43.02639" lon="0.30937">
        <ele>608.5</ele>
        <time>2026-07-08T06:41:20Z</time>
      </trkpt>
      <trkpt lat="43.02638" lon="0.30937">
        <ele>608.5</ele>
        <time>2026-07-08T06:41:21Z</time>
      </trkpt>
      <trkpt lat="43.02638" lon="0.30937">
        <ele>608.5</ele>
        <time>2026-07-08T06:41:22Z</time>
      </trkpt>
      <trkpt lat="43.02638" lon="0.30938">
        <ele>608.5</ele>
        <time>2026-07-08T06:41:22Z</time>
      </trkpt>
      <trkpt lat="43.02638" lon="0.30938">
        <ele>609.5</ele>
        <time>2026-07-08T06:41:23Z</time>
      </trkpt>
      <trkpt lat="43.02638" lon="0.30938">
        <ele>609.5</ele>
        <time>2026-07-08T06:41:24Z</time>
      </trkpt>
      <trkpt lat="43.02637" lon="0.30938">
        <ele>609.5</ele>
        <time>2026-07-08T06:41:25Z</time>
      </trkpt>
      <trkpt lat="43.02637" lon="0.30938">
        <ele>610.5</ele>
        <time>2026-07-08T06:41:26Z</time>
      </trkpt>
      <trkpt lat="43.02637" lon="0.30938">
        <ele>610.5</ele>
        <time>2026-07-08T06:41:26Z</time>
      </trkpt>
      <trkpt lat="43.02636" lon="0.30938">
        <ele>610.5</ele>
        <time>2026-07-08T06:41:27Z</time>
      </trkpt>
      <trkpt lat="43.02636" lon="0.30937">
        <ele>610.5</ele>
        <time>2026-07-08T06:41:28Z</time>
      </trkpt>
      <trkpt lat="43.02636" lon="0.30937">
        <ele>610.5</ele>
        <time>2026-07-08T06:41:28Z</time>
      </trkpt>
      <trkpt lat="43.02635" lon="0.30937">
        <ele>610.5</ele>
        <time>2026-07-08T06:41:29Z</time>
      </trkpt>
      <trkpt lat="43.02635" lon="0.30937">
        <ele>611.5</ele>
        <time>2026-07-08T06:41:29Z</time>
      </trkpt>
      <trkpt lat="43.02634" lon="0.30936">
        <ele>611.5</ele>
        <time>2026-07-08T06:41:30Z</time>
      </trkpt>
      <trkpt lat="43.02634" lon="0.30936">
        <ele>611.5</ele>
        <time>2026-07-08T06:41:31Z</time>
      </trkpt>
      <trkpt lat="43.02634" lon="0.30935">
        <ele>611.5</ele>
        <time>2026-07-08T06:41:31Z</time>
      </trkpt>
      <trkpt lat="43.02634" lon="0.30935">
        <ele>611.5</ele>
        <time>2026-07-08T06:41:32Z</time>
      </trkpt>
      <trkpt lat="43.02634" lon="0.30935">
        <ele>611.5</ele>
        <time>2026-07-08T06:41:33Z</time>
      </trkpt>
      <trkpt lat="43.02634" lon="0.30935">
        <ele>611.5</ele>
        <time>2026-07-08T06:41:33Z</time>
      </trkpt>
      <trkpt lat="43.02634" lon="0.30934">
        <ele>611.5</ele>
        <time>2026-07-08T06:41:34Z</time>
      </trkpt>
      <trkpt lat="43.02635" lon="0.30934">
        <ele>611.5</ele>
        <time>2026-07-08T06:41:35Z</time>
      </trkpt>
      <trkpt lat="43.02635" lon="0.30934">
        <ele>611.5</ele>
        <time>2026-07-08T06:41:35Z</time>
      </trkpt>
      <trkpt lat="43.02635" lon="0.30934">
        <ele>611.5</ele>
        <time>2026-07-08T06:41:36Z</time>
      </trkpt>
      <trkpt lat="43.02635" lon="0.30934">
        <ele>611.5</ele>
        <time>2026-07-08T06:41:37Z</time>
      </trkpt>
      <trkpt lat="43.02635" lon="0.30935">
        <ele>611.5</ele>
        <time>2026-07-08T06:41:37Z</time>
      </trkpt>
      <trkpt lat="43.02635" lon="0.30935">
        <ele>611.5</ele>
        <time>2026-07-08T06:41:38Z</time>
      </trkpt>
      <trkpt lat="43.02635" lon="0.30936">
        <ele>611.5</ele>
        <time>2026-07-08T06:41:39Z</time>
      </trkpt>
      <trkpt lat="43.02636" lon="0.30936">
        <ele>611.5</ele>
        <time>2026-07-08T06:41:40Z</time>
      </trkpt>
      <trkpt lat="43.02636" lon="0.30937">
        <ele>611.5</ele>
        <time>2026-07-08T06:41:41Z</time>
      </trkpt>
      <trkpt lat="43.02636" lon="0.30937">
        <ele>611.5</ele>
        <time>2026-07-08T06:41:42Z</time>
      </trkpt>
      <trkpt lat="43.02636" lon="0.30937">
        <ele>610.5</ele>
        <time>2026-07-08T06:41:43Z</time>
      </trkpt>
      <trkpt lat="43.02636" lon="0.30937">
        <ele>610.5</ele>
        <time>2026-07-08T06:41:44Z</time>
      </trkpt>
      <trkpt lat="43.02636" lon="0.30937">
        <ele>610.5</ele>
        <time>2026-07-08T06:41:45Z</time>
      </trkpt>
      <trkpt lat="43.02636" lon="0.30937">
        <ele>609.5</ele>
        <time>2026-07-08T06:41:45Z</time>
      </trkpt>
      <trkpt lat="43.02636" lon="0.30938">
        <ele>609.5</ele>
        <time>2026-07-08T06:41:46Z</time>
      </trkpt>
      <trkpt lat="43.02636" lon="0.30938">
        <ele>609.5</ele>
        <time>2026-07-08T06:41:47Z</time>
      </trkpt>
      <trkpt lat="43.02636" lon="0.30938">
        <ele>609.5</ele>
        <time>2026-07-08T06:41:47Z</time>
      </trkpt>
      <trkpt lat="43.02636" lon="0.30938">
        <ele>609.5</ele>
        <time>2026-07-08T06:41:48Z</time>
      </trkpt>
      <trkpt lat="43.02636" lon="0.30938">
        <ele>609.5</ele>
        <time>2026-07-08T06:41:49Z</time>
      </trkpt>
      <trkpt lat="43.02635" lon="0.30938">
        <ele>609.5</ele>
        <time>2026-07-08T06:41:49Z</time>
      </trkpt>
      <trkpt lat="43.02635" lon="0.30937">
        <ele>609.5</ele>
        <time>2026-07-08T06:41:50Z</time>
      </trkpt>
      <trkpt lat="43.02634" lon="0.30937">
        <ele>609.5</ele>
        <time>2026-07-08T06:41:50Z</time>
      </trkpt>
      <trkpt lat="43.02633" lon="0.30936">
        <ele>609.5</ele>
        <time>2026-07-08T06:41:51Z</time>
      </trkpt>
      <trkpt lat="43.02631" lon="0.30936">
        <ele>609.5</ele>
        <time>2026-07-08T06:41:52Z</time>
      </trkpt>
      <trkpt lat="43.0263" lon="0.30936">
        <ele>609.5</ele>
        <time>2026-07-08T06:41:52Z</time>
      </trkpt>
      <trkpt lat="43.02629" lon="0.30935">
        <ele>609.5</ele>
        <time>2026-07-08T06:41:53Z</time>
      </trkpt>
      <trkpt lat="43.02628" lon="0.30936">
        <ele>610.5</ele>
        <time>2026-07-08T06:41:54Z</time>
      </trkpt>
      <trkpt lat="43.02627" lon="0.30936">
        <ele>609.5</ele>
        <time>2026-07-08T06:41:54Z</time>
      </trkpt>
      <trkpt lat="43.02626" lon="0.30936">
        <ele>609.5</ele>
        <time>2026-07-08T06:41:55Z</time>
      </trkpt>
      <trkpt lat="43.02625" lon="0.30936">
        <ele>609.5</ele>
        <time>2026-07-08T06:41:56Z</time>
      </trkpt>
      <trkpt lat="43.02625" lon="0.30936">
        <ele>610.5</ele>
        <time>2026-07-08T06:41:56Z</time>
      </trkpt>
      <trkpt lat="43.02624" lon="0.30936">
        <ele>610.5</ele>
        <time>2026-07-08T06:41:57Z</time>
      </trkpt>
      <trkpt lat="43.02623" lon="0.30936">
        <ele>610.5</ele>
        <time>2026-07-08T06:41:58Z</time>
      </trkpt>
      <trkpt lat="43.02623" lon="0.30936">
        <ele>610.5</ele>
        <time>2026-07-08T06:41:58Z</time>
      </trkpt>
      <trkpt lat="43.02622" lon="0.30936">
        <ele>610.5</ele>
        <time>2026-07-08T06:41:59Z</time>
      </trkpt>
      <trkpt lat="43.02621" lon="0.30936">
        <ele>610.5</ele>
        <time>2026-07-08T06:42:00Z</time>
      </trkpt>
      <trkpt lat="43.02621" lon="0.30936">
        <ele>610.5</ele>
        <time>2026-07-08T06:42:01Z</time>
      </trkpt>
      <trkpt lat="43.0262" lon="0.30936">
        <ele>610.5</ele>
        <time>2026-07-08T06:42:01Z</time>
      </trkpt>
      <trkpt lat="43.0262" lon="0.30936">
        <ele>610.5</ele>
        <time>2026-07-08T06:42:02Z</time>
      </trkpt>
      <trkpt lat="43.02619" lon="0.30936">
        <ele>610.5</ele>
        <time>2026-07-08T06:42:03Z</time>
      </trkpt>
      <trkpt lat="43.02619" lon="0.30936">
        <ele>611.5</ele>
        <time>2026-07-08T06:42:03Z</time>
      </trkpt>
      <trkpt lat="43.02618" lon="0.30936">
        <ele>611.5</ele>
        <time>2026-07-08T06:42:04Z</time>
      </trkpt>
      <trkpt lat="43.02617" lon="0.30935">
        <ele>611.5</ele>
        <time>2026-07-08T06:42:05Z</time>
      </trkpt>
      <trkpt lat="43.02617" lon="0.30935">
        <ele>611.5</ele>
        <time>2026-07-08T06:42:05Z</time>
      </trkpt>
      <trkpt lat="43.02616" lon="0.30935">
        <ele>611.5</ele>
        <time>2026-07-08T06:42:06Z</time>
      </trkpt>
      <trkpt lat="43.02616" lon="0.30935">
        <ele>611.5</ele>
        <time>2026-07-08T06:42:07Z</time>
      </trkpt>
      <trkpt lat="43.02615" lon="0.30936">
        <ele>611.5</ele>
        <time>2026-07-08T06:42:07Z</time>
      </trkpt>
      <trkpt lat="43.02615" lon="0.30936">
        <ele>612.5</ele>
        <time>2026-07-08T06:42:08Z</time>
      </trkpt>
      <trkpt lat="43.02614" lon="0.30936">
        <ele>612.5</ele>
        <time>2026-07-08T06:42:09Z</time>
      </trkpt>
      <trkpt lat="43.02613" lon="0.30937">
        <ele>612.5</ele>
        <time>2026-07-08T06:42:10Z</time>
      </trkpt>
      <trkpt lat="43.02613" lon="0.30937">
        <ele>612.5</ele>
        <time>2026-07-08T06:42:11Z</time>
      </trkpt>
      <trkpt lat="43.02612" lon="0.30937">
        <ele>612.5</ele>
        <time>2026-07-08T06:42:11Z</time>
      </trkpt>
      <trkpt lat="43.02612" lon="0.30936">
        <ele>612.5</ele>
        <time>2026-07-08T06:42:12Z</time>
      </trkpt>
      <trkpt lat="43.02611" lon="0.30936">
        <ele>612.5</ele>
        <time>2026-07-08T06:42:13Z</time>
      </trkpt>
      <trkpt lat="43.02611" lon="0.30936">
        <ele>611.5</ele>
        <time>2026-07-08T06:42:14Z</time>
      </trkpt>
      <trkpt lat="43.0261" lon="0.30936">
        <ele>612.5</ele>
        <time>2026-07-08T06:42:15Z</time>
      </trkpt>
      <trkpt lat="43.02609" lon="0.30936">
        <ele>612.5</ele>
        <time>2026-07-08T06:42:16Z</time>
      </trkpt>
      <trkpt lat="43.02609" lon="0.30935">
        <ele>611.5</ele>
        <time>2026-07-08T06:42:16Z</time>
      </trkpt>
      <trkpt lat="43.02608" lon="0.30935">
        <ele>611.5</ele>
        <time>2026-07-08T06:42:17Z</time>
      </trkpt>
      <trkpt lat="43.02608" lon="0.30934">
        <ele>611.5</ele>
        <time>2026-07-08T06:42:18Z</time>
      </trkpt>
      <trkpt lat="43.02607" lon="0.30934">
        <ele>611.5</ele>
        <time>2026-07-08T06:42:19Z</time>
      </trkpt>
      <trkpt lat="43.02606" lon="0.30934">
        <ele>611.5</ele>
        <time>2026-07-08T06:42:20Z</time>
      </trkpt>
      <trkpt lat="43.02606" lon="0.30933">
        <ele>611.5</ele>
        <time>2026-07-08T06:42:20Z</time>
      </trkpt>
      <trkpt lat="43.02605" lon="0.30933">
        <ele>611.5</ele>
        <time>2026-07-08T06:42:21Z</time>
      </trkpt>
      <trkpt lat="43.02604" lon="0.30933">
        <ele>612.5</ele>
        <time>2026-07-08T06:42:22Z</time>
      </trkpt>
      <trkpt lat="43.02604" lon="0.30933">
        <ele>612.5</ele>
        <time>2026-07-08T06:42:23Z</time>
      </trkpt>
      <trkpt lat="43.02603" lon="0.30933">
        <ele>613.5</ele>
        <time>2026-07-08T06:42:23Z</time>
      </trkpt>
      <trkpt lat="43.02604" lon="0.30933">
        <ele>613.5</ele>
        <time>2026-07-08T06:42:24Z</time>
      </trkpt>
      <trkpt lat="43.02603" lon="0.30932">
        <ele>613.5</ele>
        <time>2026-07-08T06:42:25Z</time>
      </trkpt>
      <trkpt lat="43.02603" lon="0.30932">
        <ele>613.5</ele>
        <time>2026-07-08T06:42:26Z</time>
      </trkpt>
      <trkpt lat="43.02603" lon="0.30932">
        <ele>614.5</ele>
        <time>2026-07-08T06:42:26Z</time>
      </trkpt>
      <trkpt lat="43.02603" lon="0.30932">
        <ele>614.5</ele>
        <time>2026-07-08T06:42:27Z</time>
      </trkpt>
      <trkpt lat="43.02602" lon="0.30931">
        <ele>614.5</ele>
        <time>2026-07-08T06:42:28Z</time>
      </trkpt>
      <trkpt lat="43.02602" lon="0.30931">
        <ele>615.5</ele>
        <time>2026-07-08T06:42:28Z</time>
      </trkpt>
      <trkpt lat="43.02602" lon="0.3093">
        <ele>615.5</ele>
        <time>2026-07-08T06:42:29Z</time>
      </trkpt>
      <trkpt lat="43.02601" lon="0.30929">
        <ele>615.5</ele>
        <time>2026-07-08T06:42:30Z</time>
      </trkpt>
      <trkpt lat="43.02601" lon="0.30928">
        <ele>616.5</ele>
        <time>2026-07-08T06:42:31Z</time>
      </trkpt>
      <trkpt lat="43.02601" lon="0.30928">
        <ele>615.5</ele>
        <time>2026-07-08T06:42:31Z</time>
      </trkpt>
      <trkpt lat="43.02601" lon="0.30927">
        <ele>615.5</ele>
        <time>2026-07-08T06:42:32Z</time>
      </trkpt>
      <trkpt lat="43.026" lon="0.30927">
        <ele>615.5</ele>
        <time>2026-07-08T06:42:33Z</time>
      </trkpt>
      <trkpt lat="43.02599" lon="0.30927">
        <ele>616.5</ele>
        <time>2026-07-08T06:42:34Z</time>
      </trkpt>
      <trkpt lat="43.02599" lon="0.30926">
        <ele>616.5</ele>
        <time>2026-07-08T06:42:34Z</time>
      </trkpt>
      <trkpt lat="43.02599" lon="0.30926">
        <ele>616.5</ele>
        <time>2026-07-08T06:42:35Z</time>
      </trkpt>
      <trkpt lat="43.02598" lon="0.30925">
        <ele>616.5</ele>
        <time>2026-07-08T06:42:36Z</time>
      </trkpt>
      <trkpt lat="43.02598" lon="0.30925">
        <ele>616.5</ele>
        <time>2026-07-08T06:42:37Z</time>
      </trkpt>
      <trkpt lat="43.02597" lon="0.30925">
        <ele>616.5</ele>
        <time>2026-07-08T06:42:37Z</time>
      </trkpt>
      <trkpt lat="43.02597" lon="0.30924">
        <ele>616.5</ele>
        <time>2026-07-08T06:42:38Z</time>
      </trkpt>
      <trkpt lat="43.02596" lon="0.30924">
        <ele>616.5</ele>
        <time>2026-07-08T06:42:39Z</time>
      </trkpt>
      <trkpt lat="43.02596" lon="0.30924">
        <ele>616.5</ele>
        <time>2026-07-08T06:42:39Z</time>
      </trkpt>
      <trkpt lat="43.02595" lon="0.30923">
        <ele>616.5</ele>
        <time>2026-07-08T06:42:40Z</time>
      </trkpt>
      <trkpt lat="43.02595" lon="0.30923">
        <ele>616.5</ele>
        <time>2026-07-08T06:42:41Z</time>
      </trkpt>
      <trkpt lat="43.02594" lon="0.30923">
        <ele>617.5</ele>
        <time>2026-07-08T06:42:42Z</time>
      </trkpt>
      <trkpt lat="43.02594" lon="0.30923">
        <ele>617.5</ele>
        <time>2026-07-08T06:42:42Z</time>
      </trkpt>
      <trkpt lat="43.02593" lon="0.30923">
        <ele>617.5</ele>
        <time>2026-07-08T06:42:43Z</time>
      </trkpt>
      <trkpt lat="43.02592" lon="0.30923">
        <ele>617.5</ele>
        <time>2026-07-08T06:42:44Z</time>
      </trkpt>
      <trkpt lat="43.02592" lon="0.30923">
        <ele>617.5</ele>
        <time>2026-07-08T06:42:44Z</time>
      </trkpt>
      <trkpt lat="43.02591" lon="0.30923">
        <ele>617.5</ele>
        <time>2026-07-08T06:42:45Z</time>
      </trkpt>
      <trkpt lat="43.02591" lon="0.30923">
        <ele>617.5</ele>
        <time>2026-07-08T06:42:46Z</time>
      </trkpt>
      <trkpt lat="43.0259" lon="0.30923">
        <ele>617.5</ele>
        <time>2026-07-08T06:42:46Z</time>
      </trkpt>
      <trkpt lat="43.02589" lon="0.30923">
        <ele>618.5</ele>
        <time>2026-07-08T06:42:47Z</time>
      </trkpt>
      <trkpt lat="43.02589" lon="0.30923">
        <ele>618.5</ele>
        <time>2026-07-08T06:42:48Z</time>
      </trkpt>
      <trkpt lat="43.02588" lon="0.30924">
        <ele>618.5</ele>
        <time>2026-07-08T06:42:48Z</time>
      </trkpt>
      <trkpt lat="43.02587" lon="0.30924">
        <ele>618.5</ele>
        <time>2026-07-08T06:42:49Z</time>
      </trkpt>
      <trkpt lat="43.02587" lon="0.30924">
        <ele>618.5</ele>
        <time>2026-07-08T06:42:50Z</time>
      </trkpt>
      <trkpt lat="43.02586" lon="0.30923">
        <ele>618.5</ele>
        <time>2026-07-08T06:42:51Z</time>
      </trkpt>
      <trkpt lat="43.02586" lon="0.30923">
        <ele>618.5</ele>
        <time>2026-07-08T06:42:51Z</time>
      </trkpt>
      <trkpt lat="43.02585" lon="0.30923">
        <ele>618.5</ele>
        <time>2026-07-08T06:42:52Z</time>
      </trkpt>
      <trkpt lat="43.02584" lon="0.30923">
        <ele>618.5</ele>
        <time>2026-07-08T06:42:53Z</time>
      </trkpt>
      <trkpt lat="43.02584" lon="0.30922">
        <ele>618.5</ele>
        <time>2026-07-08T06:42:53Z</time>
      </trkpt>
      <trkpt lat="43.02583" lon="0.30922">
        <ele>618.5</ele>
        <time>2026-07-08T06:42:54Z</time>
      </trkpt>
      <trkpt lat="43.02582" lon="0.30922">
        <ele>618.5</ele>
        <time>2026-07-08T06:42:55Z</time>
      </trkpt>
      <trkpt lat="43.02582" lon="0.30922">
        <ele>618.5</ele>
        <time>2026-07-08T06:42:55Z</time>
      </trkpt>
      <trkpt lat="43.02581" lon="0.30922">
        <ele>618.5</ele>
        <time>2026-07-08T06:42:56Z</time>
      </trkpt>
      <trkpt lat="43.02581" lon="0.30922">
        <ele>619.5</ele>
        <time>2026-07-08T06:42:57Z</time>
      </trkpt>
      <trkpt lat="43.0258" lon="0.30922">
        <ele>619.5</ele>
        <time>2026-07-08T06:42:57Z</time>
      </trkpt>
      <trkpt lat="43.02579" lon="0.30922">
        <ele>619.5</ele>
        <time>2026-07-08T06:42:58Z</time>
      </trkpt>
      <trkpt lat="43.02579" lon="0.30922">
        <ele>618.5</ele>
        <time>2026-07-08T06:42:59Z</time>
      </trkpt>
      <trkpt lat="43.02578" lon="0.30922">
        <ele>618.5</ele>
        <time>2026-07-08T06:42:59Z</time>
      </trkpt>
      <trkpt lat="43.02578" lon="0.30921">
        <ele>618.5</ele>
        <time>2026-07-08T06:43:00Z</time>
      </trkpt>
      <trkpt lat="43.02577" lon="0.30921">
        <ele>618.5</ele>
        <time>2026-07-08T06:43:01Z</time>
      </trkpt>
      <trkpt lat="43.02577" lon="0.30921">
        <ele>619.5</ele>
        <time>2026-07-08T06:43:01Z</time>
      </trkpt>
      <trkpt lat="43.02576" lon="0.30921">
        <ele>619.5</ele>
        <time>2026-07-08T06:43:02Z</time>
      </trkpt>
      <trkpt lat="43.02576" lon="0.30921">
        <ele>619.5</ele>
        <time>2026-07-08T06:43:03Z</time>
      </trkpt>
      <trkpt lat="43.02575" lon="0.30921">
        <ele>619.5</ele>
        <time>2026-07-08T06:43:03Z</time>
      </trkpt>
      <trkpt lat="43.02575" lon="0.30921">
        <ele>619.5</ele>
        <time>2026-07-08T06:43:04Z</time>
      </trkpt>
      <trkpt lat="43.02574" lon="0.30922">
        <ele>619.5</ele>
        <time>2026-07-08T06:43:05Z</time>
      </trkpt>
      <trkpt lat="43.02574" lon="0.30922">
        <ele>619.5</ele>
        <time>2026-07-08T06:43:05Z</time>
      </trkpt>
      <trkpt lat="43.02573" lon="0.30922">
        <ele>619.5</ele>
        <time>2026-07-08T06:43:06Z</time>
      </trkpt>
      <trkpt lat="43.02573" lon="0.30922">
        <ele>620.5</ele>
        <time>2026-07-08T06:43:06Z</time>
      </trkpt>
      <trkpt lat="43.02572" lon="0.30922">
        <ele>620.5</ele>
        <time>2026-07-08T06:43:07Z</time>
      </trkpt>
      <trkpt lat="43.02571" lon="0.30923">
        <ele>620.5</ele>
        <time>2026-07-08T06:43:08Z</time>
      </trkpt>
      <trkpt lat="43.02571" lon="0.30923">
        <ele>620.5</ele>
        <time>2026-07-08T06:43:08Z</time>
      </trkpt>
      <trkpt lat="43.0257" lon="0.30923">
        <ele>620.5</ele>
        <time>2026-07-08T06:43:09Z</time>
      </trkpt>
      <trkpt lat="43.02569" lon="0.30923">
        <ele>621.5</ele>
        <time>2026-07-08T06:43:10Z</time>
      </trkpt>
      <trkpt lat="43.02569" lon="0.30923">
        <ele>622.5</ele>
        <time>2026-07-08T06:43:10Z</time>
      </trkpt>
      <trkpt lat="43.02568" lon="0.30924">
        <ele>622.5</ele>
        <time>2026-07-08T06:43:11Z</time>
      </trkpt>
      <trkpt lat="43.02568" lon="0.30924">
        <ele>622.5</ele>
        <time>2026-07-08T06:43:12Z</time>
      </trkpt>
      <trkpt lat="43.02567" lon="0.30924">
        <ele>623.5</ele>
        <time>2026-07-08T06:43:12Z</time>
      </trkpt>
      <trkpt lat="43.02567" lon="0.30924">
        <ele>623.5</ele>
        <time>2026-07-08T06:43:13Z</time>
      </trkpt>
      <trkpt lat="43.02566" lon="0.30924">
        <ele>623.5</ele>
        <time>2026-07-08T06:43:14Z</time>
      </trkpt>
      <trkpt lat="43.02566" lon="0.30924">
        <ele>623.5</ele>
        <time>2026-07-08T06:43:14Z</time>
      </trkpt>
      <trkpt lat="43.02565" lon="0.30924">
        <ele>623.5</ele>
        <time>2026-07-08T06:43:15Z</time>
      </trkpt>
      <trkpt lat="43.02564" lon="0.30925">
        <ele>623.5</ele>
        <time>2026-07-08T06:43:16Z</time>
      </trkpt>
      <trkpt lat="43.02564" lon="0.30925">
        <ele>623.5</ele>
        <time>2026-07-08T06:43:16Z</time>
      </trkpt>
      <trkpt lat="43.02563" lon="0.30925">
        <ele>623.5</ele>
        <time>2026-07-08T06:43:17Z</time>
      </trkpt>
      <trkpt lat="43.02563" lon="0.30925">
        <ele>624.5</ele>
        <time>2026-07-08T06:43:18Z</time>
      </trkpt>
      <trkpt lat="43.02563" lon="0.30925">
        <ele>625.5</ele>
        <time>2026-07-08T06:43:18Z</time>
      </trkpt>
      <trkpt lat="43.02562" lon="0.30925">
        <ele>625.5</ele>
        <time>2026-07-08T06:43:19Z</time>
      </trkpt>
      <trkpt lat="43.02562" lon="0.30925">
        <ele>625.5</ele>
        <time>2026-07-08T06:43:20Z</time>
      </trkpt>
      <trkpt lat="43.02562" lon="0.30925">
        <ele>625.5</ele>
        <time>2026-07-08T06:43:20Z</time>
      </trkpt>
      <trkpt lat="43.02561" lon="0.30925">
        <ele>625.5</ele>
        <time>2026-07-08T06:43:21Z</time>
      </trkpt>
      <trkpt lat="43.0256" lon="0.30925">
        <ele>626.5</ele>
        <time>2026-07-08T06:43:22Z</time>
      </trkpt>
      <trkpt lat="43.0256" lon="0.30925">
        <ele>626.5</ele>
        <time>2026-07-08T06:43:22Z</time>
      </trkpt>
      <trkpt lat="43.02559" lon="0.30925">
        <ele>625.5</ele>
        <time>2026-07-08T06:43:23Z</time>
      </trkpt>
      <trkpt lat="43.02559" lon="0.30926">
        <ele>625.5</ele>
        <time>2026-07-08T06:43:24Z</time>
      </trkpt>
      <trkpt lat="43.02558" lon="0.30926">
        <ele>626.5</ele>
        <time>2026-07-08T06:43:24Z</time>
      </trkpt>
      <trkpt lat="43.02558" lon="0.30926">
        <ele>626.5</ele>
        <time>2026-07-08T06:43:25Z</time>
      </trkpt>
      <trkpt lat="43.02558" lon="0.30926">
        <ele>626.5</ele>
        <time>2026-07-08T06:43:26Z</time>
      </trkpt>
      <trkpt lat="43.02558" lon="0.30926">
        <ele>626.5</ele>
        <time>2026-07-08T06:43:26Z</time>
      </trkpt>
      <trkpt lat="43.02558" lon="0.30926">
        <ele>626.5</ele>
        <time>2026-07-08T06:43:27Z</time>
      </trkpt>
      <trkpt lat="43.02558" lon="0.30927">
        <ele>627.5</ele>
        <time>2026-07-08T06:43:28Z</time>
      </trkpt>
      <trkpt lat="43.02557" lon="0.30927">
        <ele>627.5</ele>
        <time>2026-07-08T06:43:29Z</time>
      </trkpt>
      <trkpt lat="43.02557" lon="0.30927">
        <ele>628.5</ele>
        <time>2026-07-08T06:43:29Z</time>
      </trkpt>
      <trkpt lat="43.02557" lon="0.30927">
        <ele>628.5</ele>
        <time>2026-07-08T06:43:30Z</time>
      </trkpt>
      <trkpt lat="43.02557" lon="0.30927">
        <ele>628.5</ele>
        <time>2026-07-08T06:43:31Z</time>
      </trkpt>
      <trkpt lat="43.02556" lon="0.30927">
        <ele>628.5</ele>
        <time>2026-07-08T06:43:31Z</time>
      </trkpt>
      <trkpt lat="43.02556" lon="0.30927">
        <ele>628.5</ele>
        <time>2026-07-08T06:43:32Z</time>
      </trkpt>
      <trkpt lat="43.02555" lon="0.30928">
        <ele>628.5</ele>
        <time>2026-07-08T06:43:33Z</time>
      </trkpt>
      <trkpt lat="43.02554" lon="0.30928">
        <ele>628.5</ele>
        <time>2026-07-08T06:43:33Z</time>
      </trkpt>
      <trkpt lat="43.02554" lon="0.30928">
        <ele>628.5</ele>
        <time>2026-07-08T06:43:34Z</time>
      </trkpt>
      <trkpt lat="43.02553" lon="0.30928">
        <ele>628.5</ele>
        <time>2026-07-08T06:43:35Z</time>
      </trkpt>
      <trkpt lat="43.02553" lon="0.30928">
        <ele>628.5</ele>
        <time>2026-07-08T06:43:36Z</time>
      </trkpt>
      <trkpt lat="43.02552" lon="0.30929">
        <ele>628.5</ele>
        <time>2026-07-08T06:43:36Z</time>
      </trkpt>
      <trkpt lat="43.02552" lon="0.30929">
        <ele>628.5</ele>
        <time>2026-07-08T06:43:37Z</time>
      </trkpt>
      <trkpt lat="43.02551" lon="0.30929">
        <ele>628.5</ele>
        <time>2026-07-08T06:43:37Z</time>
      </trkpt>
      <trkpt lat="43.02551" lon="0.30929">
        <ele>628.5</ele>
        <time>2026-07-08T06:43:38Z</time>
      </trkpt>
      <trkpt lat="43.0255" lon="0.30929">
        <ele>628.5</ele>
        <time>2026-07-08T06:43:39Z</time>
      </trkpt>
      <trkpt lat="43.0255" lon="0.30929">
        <ele>628.5</ele>
        <time>2026-07-08T06:43:39Z</time>
      </trkpt>
      <trkpt lat="43.02549" lon="0.30929">
        <ele>628.5</ele>
        <time>2026-07-08T06:43:40Z</time>
      </trkpt>
      <trkpt lat="43.02548" lon="0.30929">
        <ele>628.5</ele>
        <time>2026-07-08T06:43:41Z</time>
      </trkpt>
      <trkpt lat="43.02548" lon="0.30929">
        <ele>628.5</ele>
        <time>2026-07-08T06:43:41Z</time>
      </trkpt>
      <trkpt lat="43.02547" lon="0.3093">
        <ele>628.5</ele>
        <time>2026-07-08T06:43:42Z</time>
      </trkpt>
      <trkpt lat="43.02547" lon="0.3093">
        <ele>628.5</ele>
        <time>2026-07-08T06:43:43Z</time>
      </trkpt>
      <trkpt lat="43.02546" lon="0.30931">
        <ele>628.5</ele>
        <time>2026-07-08T06:43:43Z</time>
      </trkpt>
      <trkpt lat="43.02546" lon="0.30931">
        <ele>629.5</ele>
        <time>2026-07-08T06:43:44Z</time>
      </trkpt>
      <trkpt lat="43.02546" lon="0.30931">
        <ele>629.5</ele>
        <time>2026-07-08T06:43:45Z</time>
      </trkpt>
      <trkpt lat="43.02545" lon="0.30932">
        <ele>629.5</ele>
        <time>2026-07-08T06:43:46Z</time>
      </trkpt>
      <trkpt lat="43.02545" lon="0.30932">
        <ele>629.5</ele>
        <time>2026-07-08T06:43:46Z</time>
      </trkpt>
      <trkpt lat="43.02545" lon="0.30932">
        <ele>629.5</ele>
        <time>2026-07-08T06:43:47Z</time>
      </trkpt>
      <trkpt lat="43.02544" lon="0.30932">
        <ele>629.5</ele>
        <time>2026-07-08T06:43:48Z</time>
      </trkpt>
      <trkpt lat="43.02544" lon="0.30932">
        <ele>630.5</ele>
        <time>2026-07-08T06:43:48Z</time>
      </trkpt>
      <trkpt lat="43.02543" lon="0.30932">
        <ele>630.5</ele>
        <time>2026-07-08T06:43:49Z</time>
      </trkpt>
      <trkpt lat="43.02542" lon="0.30932">
        <ele>630.5</ele>
        <time>2026-07-08T06:43:50Z</time>
      </trkpt>
      <trkpt lat="43.02542" lon="0.30933">
        <ele>630.5</ele>
        <time>2026-07-08T06:43:51Z</time>
      </trkpt>
      <trkpt lat="43.02541" lon="0.30934">
        <ele>629.5</ele>
        <time>2026-07-08T06:43:51Z</time>
      </trkpt>
      <trkpt lat="43.02541" lon="0.30934">
        <ele>630.5</ele>
        <time>2026-07-08T06:43:52Z</time>
      </trkpt>
      <trkpt lat="43.0254" lon="0.30934">
        <ele>630.5</ele>
        <time>2026-07-08T06:43:53Z</time>
      </trkpt>
      <trkpt lat="43.0254" lon="0.30934">
        <ele>630.5</ele>
        <time>2026-07-08T06:43:54Z</time>
      </trkpt>
      <trkpt lat="43.02539" lon="0.30934">
        <ele>631.5</ele>
        <time>2026-07-08T06:43:54Z</time>
      </trkpt>
      <trkpt lat="43.02539" lon="0.30935">
        <ele>631.5</ele>
        <time>2026-07-08T06:43:55Z</time>
      </trkpt>
      <trkpt lat="43.02538" lon="0.30935">
        <ele>631.5</ele>
        <time>2026-07-08T06:43:56Z</time>
      </trkpt>
      <trkpt lat="43.02538" lon="0.30935">
        <ele>630.5</ele>
        <time>2026-07-08T06:43:57Z</time>
      </trkpt>
      <trkpt lat="43.02537" lon="0.30935">
        <ele>630.5</ele>
        <time>2026-07-08T06:43:57Z</time>
      </trkpt>
      <trkpt lat="43.02537" lon="0.30936">
        <ele>630.5</ele>
        <time>2026-07-08T06:43:58Z</time>
      </trkpt>
      <trkpt lat="43.02536" lon="0.30936">
        <ele>630.5</ele>
        <time>2026-07-08T06:43:59Z</time>
      </trkpt>
      <trkpt lat="43.02535" lon="0.30936">
        <ele>630.5</ele>
        <time>2026-07-08T06:43:59Z</time>
      </trkpt>
      <trkpt lat="43.02535" lon="0.30937">
        <ele>630.5</ele>
        <time>2026-07-08T06:44:00Z</time>
      </trkpt>
      <trkpt lat="43.02534" lon="0.30937">
        <ele>630.5</ele>
        <time>2026-07-08T06:44:01Z</time>
      </trkpt>
      <trkpt lat="43.02534" lon="0.30937">
        <ele>630.5</ele>
        <time>2026-07-08T06:44:02Z</time>
      </trkpt>
      <trkpt lat="43.02533" lon="0.30938">
        <ele>630.5</ele>
        <time>2026-07-08T06:44:02Z</time>
      </trkpt>
      <trkpt lat="43.02532" lon="0.30938">
        <ele>630.5</ele>
        <time>2026-07-08T06:44:03Z</time>
      </trkpt>
      <trkpt lat="43.02532" lon="0.30939">
        <ele>630.5</ele>
        <time>2026-07-08T06:44:04Z</time>
      </trkpt>
      <trkpt lat="43.02532" lon="0.30939">
        <ele>629.5</ele>
        <time>2026-07-08T06:44:04Z</time>
      </trkpt>
      <trkpt lat="43.02532" lon="0.3094">
        <ele>630.5</ele>
        <time>2026-07-08T06:44:05Z</time>
      </trkpt>
      <trkpt lat="43.02531" lon="0.30941">
        <ele>630.5</ele>
        <time>2026-07-08T06:44:06Z</time>
      </trkpt>
      <trkpt lat="43.02531" lon="0.30941">
        <ele>630.5</ele>
        <time>2026-07-08T06:44:07Z</time>
      </trkpt>
      <trkpt lat="43.02531" lon="0.30942">
        <ele>630.5</ele>
        <time>2026-07-08T06:44:07Z</time>
      </trkpt>
      <trkpt lat="43.02531" lon="0.30943">
        <ele>630.5</ele>
        <time>2026-07-08T06:44:08Z</time>
      </trkpt>
      <trkpt lat="43.02531" lon="0.30943">
        <ele>631.5</ele>
        <time>2026-07-08T06:44:09Z</time>
      </trkpt>
      <trkpt lat="43.02531" lon="0.30944">
        <ele>631.5</ele>
        <time>2026-07-08T06:44:09Z</time>
      </trkpt>
      <trkpt lat="43.02531" lon="0.30945">
        <ele>632.5</ele>
        <time>2026-07-08T06:44:10Z</time>
      </trkpt>
      <trkpt lat="43.02531" lon="0.30945">
        <ele>632.5</ele>
        <time>2026-07-08T06:44:11Z</time>
      </trkpt>
      <trkpt lat="43.02531" lon="0.30946">
        <ele>632.5</ele>
        <time>2026-07-08T06:44:12Z</time>
      </trkpt>
      <trkpt lat="43.0253" lon="0.30947">
        <ele>631.5</ele>
        <time>2026-07-08T06:44:13Z</time>
      </trkpt>
      <trkpt lat="43.0253" lon="0.30947">
        <ele>632.5</ele>
        <time>2026-07-08T06:44:13Z</time>
      </trkpt>
      <trkpt lat="43.02529" lon="0.30948">
        <ele>632.5</ele>
        <time>2026-07-08T06:44:14Z</time>
      </trkpt>
      <trkpt lat="43.02529" lon="0.30949">
        <ele>632.5</ele>
        <time>2026-07-08T06:44:15Z</time>
      </trkpt>
      <trkpt lat="43.02529" lon="0.30949">
        <ele>632.5</ele>
        <time>2026-07-08T06:44:16Z</time>
      </trkpt>
      <trkpt lat="43.02528" lon="0.3095">
        <ele>631.5</ele>
        <time>2026-07-08T06:44:17Z</time>
      </trkpt>
      <trkpt lat="43.02528" lon="0.3095">
        <ele>631.5</ele>
        <time>2026-07-08T06:44:17Z</time>
      </trkpt>
      <trkpt lat="43.02528" lon="0.3095">
        <ele>631.5</ele>
        <time>2026-07-08T06:44:18Z</time>
      </trkpt>
      <trkpt lat="43.02527" lon="0.30951">
        <ele>631.5</ele>
        <time>2026-07-08T06:44:19Z</time>
      </trkpt>
      <trkpt lat="43.02527" lon="0.30951">
        <ele>631.5</ele>
        <time>2026-07-08T06:44:20Z</time>
      </trkpt>
      <trkpt lat="43.02527" lon="0.30952">
        <ele>630.5</ele>
        <time>2026-07-08T06:44:21Z</time>
      </trkpt>
      <trkpt lat="43.02527" lon="0.30952">
        <ele>630.5</ele>
        <time>2026-07-08T06:44:21Z</time>
      </trkpt>
      <trkpt lat="43.02526" lon="0.30952">
        <ele>630.5</ele>
        <time>2026-07-08T06:44:22Z</time>
      </trkpt>
      <trkpt lat="43.02526" lon="0.30953">
        <ele>630.5</ele>
        <time>2026-07-08T06:44:23Z</time>
      </trkpt>
      <trkpt lat="43.02527" lon="0.30954">
        <ele>630.5</ele>
        <time>2026-07-08T06:44:24Z</time>
      </trkpt>
      <trkpt lat="43.02527" lon="0.30954">
        <ele>630.5</ele>
        <time>2026-07-08T06:44:24Z</time>
      </trkpt>
      <trkpt lat="43.02527" lon="0.30955">
        <ele>630.5</ele>
        <time>2026-07-08T06:44:25Z</time>
      </trkpt>
      <trkpt lat="43.02527" lon="0.30956">
        <ele>630.5</ele>
        <time>2026-07-08T06:44:26Z</time>
      </trkpt>
      <trkpt lat="43.02527" lon="0.30957">
        <ele>631.5</ele>
        <time>2026-07-08T06:44:27Z</time>
      </trkpt>
      <trkpt lat="43.02527" lon="0.30957">
        <ele>632.5</ele>
        <time>2026-07-08T06:44:27Z</time>
      </trkpt>
      <trkpt lat="43.02527" lon="0.30957">
        <ele>632.5</ele>
        <time>2026-07-08T06:44:28Z</time>
      </trkpt>
      <trkpt lat="43.02527" lon="0.30957">
        <ele>632.5</ele>
        <time>2026-07-08T06:44:29Z</time>
      </trkpt>
      <trkpt lat="43.02526" lon="0.30958">
        <ele>632.5</ele>
        <time>2026-07-08T06:44:30Z</time>
      </trkpt>
      <trkpt lat="43.02526" lon="0.30959">
        <ele>631.5</ele>
        <time>2026-07-08T06:44:31Z</time>
      </trkpt>
      <trkpt lat="43.02525" lon="0.30959">
        <ele>632.5</ele>
        <time>2026-07-08T06:44:31Z</time>
      </trkpt>
      <trkpt lat="43.02525" lon="0.30959">
        <ele>632.5</ele>
        <time>2026-07-08T06:44:32Z</time>
      </trkpt>
      <trkpt lat="43.02524" lon="0.3096">
        <ele>632.5</ele>
        <time>2026-07-08T06:44:33Z</time>
      </trkpt>
      <trkpt lat="43.02524" lon="0.3096">
        <ele>632.5</ele>
        <time>2026-07-08T06:44:33Z</time>
      </trkpt>
      <trkpt lat="43.02524" lon="0.3096">
        <ele>632.5</ele>
        <time>2026-07-08T06:44:34Z</time>
      </trkpt>
      <trkpt lat="43.02524" lon="0.30961">
        <ele>632.5</ele>
        <time>2026-07-08T06:44:35Z</time>
      </trkpt>
      <trkpt lat="43.02524" lon="0.30961">
        <ele>632.5</ele>
        <time>2026-07-08T06:44:35Z</time>
      </trkpt>
      <trkpt lat="43.02523" lon="0.30961">
        <ele>632.5</ele>
        <time>2026-07-08T06:44:36Z</time>
      </trkpt>
      <trkpt lat="43.02523" lon="0.30962">
        <ele>632.5</ele>
        <time>2026-07-08T06:44:37Z</time>
      </trkpt>
      <trkpt lat="43.02523" lon="0.30962">
        <ele>632.5</ele>
        <time>2026-07-08T06:44:38Z</time>
      </trkpt>
      <trkpt lat="43.02522" lon="0.30962">
        <ele>632.5</ele>
        <time>2026-07-08T06:44:38Z</time>
      </trkpt>
      <trkpt lat="43.02522" lon="0.30963">
        <ele>632.5</ele>
        <time>2026-07-08T06:44:39Z</time>
      </trkpt>
      <trkpt lat="43.02521" lon="0.30964">
        <ele>632.5</ele>
        <time>2026-07-08T06:44:40Z</time>
      </trkpt>
      <trkpt lat="43.02521" lon="0.30964">
        <ele>632.5</ele>
        <time>2026-07-08T06:44:41Z</time>
      </trkpt>
      <trkpt lat="43.0252" lon="0.30964">
        <ele>632.5</ele>
        <time>2026-07-08T06:44:41Z</time>
      </trkpt>
      <trkpt lat="43.0252" lon="0.30965">
        <ele>633.5</ele>
        <time>2026-07-08T06:44:42Z</time>
      </trkpt>
      <trkpt lat="43.02519" lon="0.30965">
        <ele>633.5</ele>
        <time>2026-07-08T06:44:43Z</time>
      </trkpt>
      <trkpt lat="43.02519" lon="0.30965">
        <ele>633.5</ele>
        <time>2026-07-08T06:44:44Z</time>
      </trkpt>
      <trkpt lat="43.02519" lon="0.30965">
        <ele>633.5</ele>
        <time>2026-07-08T06:44:45Z</time>
      </trkpt>
      <trkpt lat="43.02519" lon="0.30965">
        <ele>633.5</ele>
        <time>2026-07-08T06:44:46Z</time>
      </trkpt>
      <trkpt lat="43.02519" lon="0.30966">
        <ele>633.5</ele>
        <time>2026-07-08T06:44:47Z</time>
      </trkpt>
      <trkpt lat="43.02519" lon="0.30966">
        <ele>633.5</ele>
        <time>2026-07-08T06:44:48Z</time>
      </trkpt>
      <trkpt lat="43.02519" lon="0.30966">
        <ele>633.5</ele>
        <time>2026-07-08T06:44:49Z</time>
      </trkpt>
      <trkpt lat="43.02518" lon="0.30967">
        <ele>633.5</ele>
        <time>2026-07-08T06:44:49Z</time>
      </trkpt>
      <trkpt lat="43.02517" lon="0.30967">
        <ele>633.5</ele>
        <time>2026-07-08T06:44:50Z</time>
      </trkpt>
      <trkpt lat="43.02517" lon="0.30967">
        <ele>633.5</ele>
        <time>2026-07-08T06:44:51Z</time>
      </trkpt>
      <trkpt lat="43.02517" lon="0.30967">
        <ele>633.5</ele>
        <time>2026-07-08T06:44:52Z</time>
      </trkpt>
      <trkpt lat="43.02517" lon="0.30968">
        <ele>633.5</ele>
        <time>2026-07-08T06:44:53Z</time>
      </trkpt>
      <trkpt lat="43.02516" lon="0.30968">
        <ele>633.5</ele>
        <time>2026-07-08T06:44:54Z</time>
      </trkpt>
      <trkpt lat="43.02516" lon="0.30968">
        <ele>633.5</ele>
        <time>2026-07-08T06:44:54Z</time>
      </trkpt>
      <trkpt lat="43.02516" lon="0.30969">
        <ele>633.5</ele>
        <time>2026-07-08T06:44:55Z</time>
      </trkpt>
      <trkpt lat="43.02516" lon="0.30969">
        <ele>632.5</ele>
        <time>2026-07-08T06:44:56Z</time>
      </trkpt>
      <trkpt lat="43.02516" lon="0.30969">
        <ele>632.5</ele>
        <time>2026-07-08T06:44:56Z</time>
      </trkpt>
      <trkpt lat="43.02516" lon="0.30969">
        <ele>632.5</ele>
        <time>2026-07-08T06:44:57Z</time>
      </trkpt>
      <trkpt lat="43.02515" lon="0.30969">
        <ele>632.5</ele>
        <time>2026-07-08T06:44:58Z</time>
      </trkpt>
      <trkpt lat="43.02515" lon="0.3097">
        <ele>631.5</ele>
        <time>2026-07-08T06:44:59Z</time>
      </trkpt>
      <trkpt lat="43.02514" lon="0.3097">
        <ele>632.5</ele>
        <time>2026-07-08T06:44:59Z</time>
      </trkpt>
      <trkpt lat="43.02514" lon="0.3097">
        <ele>632.5</ele>
        <time>2026-07-08T06:45:00Z</time>
      </trkpt>
      <trkpt lat="43.02514" lon="0.30971">
        <ele>632.5</ele>
        <time>2026-07-08T06:45:01Z</time>
      </trkpt>
      <trkpt lat="43.02514" lon="0.30971">
        <ele>632.5</ele>
        <time>2026-07-08T06:45:02Z</time>
      </trkpt>
      <trkpt lat="43.02514" lon="0.30972">
        <ele>632.5</ele>
        <time>2026-07-08T06:45:03Z</time>
      </trkpt>
      <trkpt lat="43.02514" lon="0.30972">
        <ele>632.5</ele>
        <time>2026-07-08T06:45:03Z</time>
      </trkpt>
      <trkpt lat="43.02513" lon="0.30973">
        <ele>631.5</ele>
        <time>2026-07-08T06:45:04Z</time>
      </trkpt>
      <trkpt lat="43.02513" lon="0.30974">
        <ele>631.5</ele>
        <time>2026-07-08T06:45:05Z</time>
      </trkpt>
      <trkpt lat="43.02513" lon="0.30974">
        <ele>631.5</ele>
        <time>2026-07-08T06:45:06Z</time>
      </trkpt>
      <trkpt lat="43.02512" lon="0.30974">
        <ele>631.5</ele>
        <time>2026-07-08T06:45:07Z</time>
      </trkpt>
      <trkpt lat="43.02512" lon="0.30975">
        <ele>631.5</ele>
        <time>2026-07-08T06:45:07Z</time>
      </trkpt>
      <trkpt lat="43.02512" lon="0.30975">
        <ele>631.5</ele>
        <time>2026-07-08T06:45:08Z</time>
      </trkpt>
      <trkpt lat="43.02511" lon="0.30976">
        <ele>631.5</ele>
        <time>2026-07-08T06:45:09Z</time>
      </trkpt>
      <trkpt lat="43.02511" lon="0.30976">
        <ele>631.5</ele>
        <time>2026-07-08T06:45:10Z</time>
      </trkpt>
      <trkpt lat="43.02511" lon="0.30977">
        <ele>631.5</ele>
        <time>2026-07-08T06:45:10Z</time>
      </trkpt>
      <trkpt lat="43.0251" lon="0.30977">
        <ele>631.5</ele>
        <time>2026-07-08T06:45:11Z</time>
      </trkpt>
      <trkpt lat="43.0251" lon="0.30978">
        <ele>631.5</ele>
        <time>2026-07-08T06:45:12Z</time>
      </trkpt>
      <trkpt lat="43.0251" lon="0.30979">
        <ele>632.5</ele>
        <time>2026-07-08T06:45:12Z</time>
      </trkpt>
      <trkpt lat="43.0251" lon="0.3098">
        <ele>632.5</ele>
        <time>2026-07-08T06:45:13Z</time>
      </trkpt>
      <trkpt lat="43.0251" lon="0.30981">
        <ele>632.5</ele>
        <time>2026-07-08T06:45:14Z</time>
      </trkpt>
      <trkpt lat="43.0251" lon="0.30982">
        <ele>632.5</ele>
        <time>2026-07-08T06:45:15Z</time>
      </trkpt>
      <trkpt lat="43.0251" lon="0.30983">
        <ele>633.5</ele>
        <time>2026-07-08T06:45:15Z</time>
      </trkpt>
      <trkpt lat="43.0251" lon="0.30984">
        <ele>632.5</ele>
        <time>2026-07-08T06:45:16Z</time>
      </trkpt>
      <trkpt lat="43.0251" lon="0.30985">
        <ele>633.5</ele>
        <time>2026-07-08T06:45:17Z</time>
      </trkpt>
      <trkpt lat="43.0251" lon="0.30986">
        <ele>633.5</ele>
        <time>2026-07-08T06:45:18Z</time>
      </trkpt>
      <trkpt lat="43.0251" lon="0.30987">
        <ele>633.5</ele>
        <time>2026-07-08T06:45:19Z</time>
      </trkpt>
      <trkpt lat="43.0251" lon="0.30988">
        <ele>633.5</ele>
        <time>2026-07-08T06:45:20Z</time>
      </trkpt>
      <trkpt lat="43.0251" lon="0.30989">
        <ele>633.5</ele>
        <time>2026-07-08T06:45:20Z</time>
      </trkpt>
      <trkpt lat="43.0251" lon="0.3099">
        <ele>633.5</ele>
        <time>2026-07-08T06:45:21Z</time>
      </trkpt>
      <trkpt lat="43.0251" lon="0.30991">
        <ele>633.5</ele>
        <time>2026-07-08T06:45:22Z</time>
      </trkpt>
      <trkpt lat="43.0251" lon="0.30991">
        <ele>632.5</ele>
        <time>2026-07-08T06:45:23Z</time>
      </trkpt>
      <trkpt lat="43.02511" lon="0.30992">
        <ele>633.5</ele>
        <time>2026-07-08T06:45:24Z</time>
      </trkpt>
      <trkpt lat="43.02511" lon="0.30993">
        <ele>633.5</ele>
        <time>2026-07-08T06:45:24Z</time>
      </trkpt>
      <trkpt lat="43.0251" lon="0.30994">
        <ele>633.5</ele>
        <time>2026-07-08T06:45:25Z</time>
      </trkpt>
      <trkpt lat="43.0251" lon="0.30994">
        <ele>632.5</ele>
        <time>2026-07-08T06:45:26Z</time>
      </trkpt>
      <trkpt lat="43.0251" lon="0.30995">
        <ele>632.5</ele>
        <time>2026-07-08T06:45:26Z</time>
      </trkpt>
      <trkpt lat="43.0251" lon="0.30996">
        <ele>633.5</ele>
        <time>2026-07-08T06:45:27Z</time>
      </trkpt>
      <trkpt lat="43.02509" lon="0.30997">
        <ele>633.5</ele>
        <time>2026-07-08T06:45:28Z</time>
      </trkpt>
      <trkpt lat="43.02509" lon="0.30998">
        <ele>633.5</ele>
        <time>2026-07-08T06:45:29Z</time>
      </trkpt>
      <trkpt lat="43.02509" lon="0.30998">
        <ele>633.5</ele>
        <time>2026-07-08T06:45:30Z</time>
      </trkpt>
      <trkpt lat="43.02508" lon="0.30999">
        <ele>633.5</ele>
        <time>2026-07-08T06:45:31Z</time>
      </trkpt>
      <trkpt lat="43.02508" lon="0.30999">
        <ele>633.5</ele>
        <time>2026-07-08T06:45:31Z</time>
      </trkpt>
      <trkpt lat="43.02508" lon="0.31">
        <ele>634.5</ele>
        <time>2026-07-08T06:45:32Z</time>
      </trkpt>
      <trkpt lat="43.02507" lon="0.31001">
        <ele>634.5</ele>
        <time>2026-07-08T06:45:33Z</time>
      </trkpt>
      <trkpt lat="43.02507" lon="0.31001">
        <ele>634.5</ele>
        <time>2026-07-08T06:45:34Z</time>
      </trkpt>
      <trkpt lat="43.02507" lon="0.31002">
        <ele>633.5</ele>
        <time>2026-07-08T06:45:35Z</time>
      </trkpt>
      <trkpt lat="43.02507" lon="0.31002">
        <ele>634.5</ele>
        <time>2026-07-08T06:45:35Z</time>
      </trkpt>
      <trkpt lat="43.02507" lon="0.31003">
        <ele>635.5</ele>
        <time>2026-07-08T06:45:36Z</time>
      </trkpt>
      <trkpt lat="43.02507" lon="0.31004">
        <ele>636.5</ele>
        <time>2026-07-08T06:45:37Z</time>
      </trkpt>
      <trkpt lat="43.02507" lon="0.31005">
        <ele>636.5</ele>
        <time>2026-07-08T06:45:38Z</time>
      </trkpt>
      <trkpt lat="43.02507" lon="0.31006">
        <ele>636.5</ele>
        <time>2026-07-08T06:45:39Z</time>
      </trkpt>
      <trkpt lat="43.02507" lon="0.31007">
        <ele>636.5</ele>
        <time>2026-07-08T06:45:39Z</time>
      </trkpt>
      <trkpt lat="43.02507" lon="0.31007">
        <ele>635.5</ele>
        <time>2026-07-08T06:45:40Z</time>
      </trkpt>
      <trkpt lat="43.02506" lon="0.31008">
        <ele>635.5</ele>
        <time>2026-07-08T06:45:41Z</time>
      </trkpt>
      <trkpt lat="43.02506" lon="0.31009">
        <ele>636.5</ele>
        <time>2026-07-08T06:45:42Z</time>
      </trkpt>
      <trkpt lat="43.02506" lon="0.3101">
        <ele>636.5</ele>
        <time>2026-07-08T06:45:42Z</time>
      </trkpt>
      <trkpt lat="43.02506" lon="0.3101">
        <ele>636.5</ele>
        <time>2026-07-08T06:45:43Z</time>
      </trkpt>
      <trkpt lat="43.02506" lon="0.31011">
        <ele>636.5</ele>
        <time>2026-07-08T06:45:44Z</time>
      </trkpt>
      <trkpt lat="43.02506" lon="0.31012">
        <ele>636.5</ele>
        <time>2026-07-08T06:45:45Z</time>
      </trkpt>
      <trkpt lat="43.02506" lon="0.31012">
        <ele>636.5</ele>
        <time>2026-07-08T06:45:46Z</time>
      </trkpt>
      <trkpt lat="43.02506" lon="0.31013">
        <ele>637.5</ele>
        <time>2026-07-08T06:45:47Z</time>
      </trkpt>
      <trkpt lat="43.02506" lon="0.31014">
        <ele>637.5</ele>
        <time>2026-07-08T06:45:47Z</time>
      </trkpt>
      <trkpt lat="43.02507" lon="0.31014">
        <ele>638.5</ele>
        <time>2026-07-08T06:45:48Z</time>
      </trkpt>
      <trkpt lat="43.02507" lon="0.31015">
        <ele>638.5</ele>
        <time>2026-07-08T06:45:49Z</time>
      </trkpt>
      <trkpt lat="43.02507" lon="0.31016">
        <ele>638.5</ele>
        <time>2026-07-08T06:45:50Z</time>
      </trkpt>
      <trkpt lat="43.02507" lon="0.31016">
        <ele>637.5</ele>
        <time>2026-07-08T06:45:50Z</time>
      </trkpt>
      <trkpt lat="43.02507" lon="0.31017">
        <ele>638.5</ele>
        <time>2026-07-08T06:45:51Z</time>
      </trkpt>
      <trkpt lat="43.02508" lon="0.31018">
        <ele>638.5</ele>
        <time>2026-07-08T06:45:52Z</time>
      </trkpt>
      <trkpt lat="43.02508" lon="0.31018">
        <ele>638.5</ele>
        <time>2026-07-08T06:45:53Z</time>
      </trkpt>
      <trkpt lat="43.02508" lon="0.31019">
        <ele>639.5</ele>
        <time>2026-07-08T06:45:53Z</time>
      </trkpt>
      <trkpt lat="43.02508" lon="0.3102">
        <ele>639.5</ele>
        <time>2026-07-08T06:45:54Z</time>
      </trkpt>
      <trkpt lat="43.02508" lon="0.31021">
        <ele>641.5</ele>
        <time>2026-07-08T06:45:55Z</time>
      </trkpt>
      <trkpt lat="43.02509" lon="0.31021">
        <ele>641.5</ele>
        <time>2026-07-08T06:45:56Z</time>
      </trkpt>
      <trkpt lat="43.02509" lon="0.31022">
        <ele>642.5</ele>
        <time>2026-07-08T06:45:56Z</time>
      </trkpt>
      <trkpt lat="43.02509" lon="0.31022">
        <ele>642.5</ele>
        <time>2026-07-08T06:45:57Z</time>
      </trkpt>
      <trkpt lat="43.02509" lon="0.31023">
        <ele>642.5</ele>
        <time>2026-07-08T06:45:58Z</time>
      </trkpt>
      <trkpt lat="43.02508" lon="0.31024">
        <ele>643.5</ele>
        <time>2026-07-08T06:45:59Z</time>
      </trkpt>
      <trkpt lat="43.02509" lon="0.31024">
        <ele>643.5</ele>
        <time>2026-07-08T06:45:59Z</time>
      </trkpt>
      <trkpt lat="43.02509" lon="0.31025">
        <ele>645.5</ele>
        <time>2026-07-08T06:46:00Z</time>
      </trkpt>
      <trkpt lat="43.02509" lon="0.31025">
        <ele>645.5</ele>
        <time>2026-07-08T06:46:01Z</time>
      </trkpt>
      <trkpt lat="43.02508" lon="0.31026">
        <ele>645.5</ele>
        <time>2026-07-08T06:46:01Z</time>
      </trkpt>
      <trkpt lat="43.02508" lon="0.31027">
        <ele>644.5</ele>
        <time>2026-07-08T06:46:02Z</time>
      </trkpt>
      <trkpt lat="43.02508" lon="0.31027">
        <ele>644.5</ele>
        <time>2026-07-08T06:46:03Z</time>
      </trkpt>
      <trkpt lat="43.02508" lon="0.31028">
        <ele>646.5</ele>
        <time>2026-07-08T06:46:04Z</time>
      </trkpt>
      <trkpt lat="43.02508" lon="0.31029">
        <ele>646.5</ele>
        <time>2026-07-08T06:46:04Z</time>
      </trkpt>
      <trkpt lat="43.02508" lon="0.31029">
        <ele>646.5</ele>
        <time>2026-07-08T06:46:05Z</time>
      </trkpt>
      <trkpt lat="43.02508" lon="0.3103">
        <ele>646.5</ele>
        <time>2026-07-08T06:46:06Z</time>
      </trkpt>
      <trkpt lat="43.02508" lon="0.31031">
        <ele>647.5</ele>
        <time>2026-07-08T06:46:07Z</time>
      </trkpt>
      <trkpt lat="43.02508" lon="0.31032">
        <ele>647.5</ele>
        <time>2026-07-08T06:46:07Z</time>
      </trkpt>
      <trkpt lat="43.02507" lon="0.31032">
        <ele>648.5</ele>
        <time>2026-07-08T06:46:08Z</time>
      </trkpt>
      <trkpt lat="43.02507" lon="0.31033">
        <ele>648.5</ele>
        <time>2026-07-08T06:46:09Z</time>
      </trkpt>
      <trkpt lat="43.02507" lon="0.31034">
        <ele>648.5</ele>
        <time>2026-07-08T06:46:10Z</time>
      </trkpt>
      <trkpt lat="43.02507" lon="0.31035">
        <ele>648.5</ele>
        <time>2026-07-08T06:46:10Z</time>
      </trkpt>
      <trkpt lat="43.02507" lon="0.31036">
        <ele>648.5</ele>
        <time>2026-07-08T06:46:11Z</time>
      </trkpt>
      <trkpt lat="43.02507" lon="0.31037">
        <ele>648.5</ele>
        <time>2026-07-08T06:46:12Z</time>
      </trkpt>
      <trkpt lat="43.02507" lon="0.31037">
        <ele>648.5</ele>
        <time>2026-07-08T06:46:12Z</time>
      </trkpt>
      <trkpt lat="43.02507" lon="0.31038">
        <ele>649.5</ele>
        <time>2026-07-08T06:46:13Z</time>
      </trkpt>
      <trkpt lat="43.02507" lon="0.31039">
        <ele>649.5</ele>
        <time>2026-07-08T06:46:14Z</time>
      </trkpt>
      <trkpt lat="43.02507" lon="0.3104">
        <ele>649.5</ele>
        <time>2026-07-08T06:46:15Z</time>
      </trkpt>
      <trkpt lat="43.02507" lon="0.31041">
        <ele>650.5</ele>
        <time>2026-07-08T06:46:15Z</time>
      </trkpt>
      <trkpt lat="43.02507" lon="0.31042">
        <ele>650.5</ele>
        <time>2026-07-08T06:46:16Z</time>
      </trkpt>
      <trkpt lat="43.02506" lon="0.31043">
        <ele>650.5</ele>
        <time>2026-07-08T06:46:17Z</time>
      </trkpt>
      <trkpt lat="43.02506" lon="0.31044">
        <ele>650.5</ele>
        <time>2026-07-08T06:46:18Z</time>
      </trkpt>
      <trkpt lat="43.02506" lon="0.31044">
        <ele>650.5</ele>
        <time>2026-07-08T06:46:18Z</time>
      </trkpt>
      <trkpt lat="43.02506" lon="0.31045">
        <ele>650.5</ele>
        <time>2026-07-08T06:46:19Z</time>
      </trkpt>
      <trkpt lat="43.02506" lon="0.31046">
        <ele>651.5</ele>
        <time>2026-07-08T06:46:20Z</time>
      </trkpt>
      <trkpt lat="43.02506" lon="0.31047">
        <ele>651.5</ele>
        <time>2026-07-08T06:46:21Z</time>
      </trkpt>
      <trkpt lat="43.02506" lon="0.31047">
        <ele>651.5</ele>
        <time>2026-07-08T06:46:21Z</time>
      </trkpt>
      <trkpt lat="43.02505" lon="0.31048">
        <ele>651.5</ele>
        <time>2026-07-08T06:46:22Z</time>
      </trkpt>
      <trkpt lat="43.02505" lon="0.31049">
        <ele>651.5</ele>
        <time>2026-07-08T06:46:23Z</time>
      </trkpt>
      <trkpt lat="43.02505" lon="0.3105">
        <ele>651.5</ele>
        <time>2026-07-08T06:46:23Z</time>
      </trkpt>
      <trkpt lat="43.02505" lon="0.31051">
        <ele>651.5</ele>
        <time>2026-07-08T06:46:24Z</time>
      </trkpt>
      <trkpt lat="43.02505" lon="0.31052">
        <ele>651.5</ele>
        <time>2026-07-08T06:46:25Z</time>
      </trkpt>
      <trkpt lat="43.02504" lon="0.31052">
        <ele>651.5</ele>
        <time>2026-07-08T06:46:26Z</time>
      </trkpt>
      <trkpt lat="43.02504" lon="0.31053">
        <ele>651.5</ele>
        <time>2026-07-08T06:46:26Z</time>
      </trkpt>
      <trkpt lat="43.02504" lon="0.31054">
        <ele>651.5</ele>
        <time>2026-07-08T06:46:27Z</time>
      </trkpt>
      <trkpt lat="43.02504" lon="0.31055">
        <ele>651.5</ele>
        <time>2026-07-08T06:46:28Z</time>
      </trkpt>
      <trkpt lat="43.02503" lon="0.31055">
        <ele>651.5</ele>
        <time>2026-07-08T06:46:29Z</time>
      </trkpt>
      <trkpt lat="43.02503" lon="0.31056">
        <ele>651.5</ele>
        <time>2026-07-08T06:46:29Z</time>
      </trkpt>
      <trkpt lat="43.02503" lon="0.31056">
        <ele>651.5</ele>
        <time>2026-07-08T06:46:30Z</time>
      </trkpt>
      <trkpt lat="43.02503" lon="0.31057">
        <ele>651.5</ele>
        <time>2026-07-08T06:46:31Z</time>
      </trkpt>
      <trkpt lat="43.02502" lon="0.31058">
        <ele>651.5</ele>
        <time>2026-07-08T06:46:32Z</time>
      </trkpt>
      <trkpt lat="43.02502" lon="0.31058">
        <ele>650.5</ele>
        <time>2026-07-08T06:46:32Z</time>
      </trkpt>
      <trkpt lat="43.02502" lon="0.31058">
        <ele>651.5</ele>
        <time>2026-07-08T06:46:33Z</time>
      </trkpt>
      <trkpt lat="43.02502" lon="0.31059">
        <ele>651.5</ele>
        <time>2026-07-08T06:46:34Z</time>
      </trkpt>
      <trkpt lat="43.02503" lon="0.31059">
        <ele>651.5</ele>
        <time>2026-07-08T06:46:35Z</time>
      </trkpt>
      <trkpt lat="43.02503" lon="0.31059">
        <ele>652.5</ele>
        <time>2026-07-08T06:46:36Z</time>
      </trkpt>
      <trkpt lat="43.02503" lon="0.31059">
        <ele>652.5</ele>
        <time>2026-07-08T06:46:36Z</time>
      </trkpt>
      <trkpt lat="43.02503" lon="0.3106">
        <ele>653.5</ele>
        <time>2026-07-08T06:46:37Z</time>
      </trkpt>
      <trkpt lat="43.02503" lon="0.3106">
        <ele>653.5</ele>
        <time>2026-07-08T06:46:38Z</time>
      </trkpt>
      <trkpt lat="43.02503" lon="0.3106">
        <ele>653.5</ele>
        <time>2026-07-08T06:46:39Z</time>
      </trkpt>
      <trkpt lat="43.02503" lon="0.31061">
        <ele>653.5</ele>
        <time>2026-07-08T06:46:39Z</time>
      </trkpt>
      <trkpt lat="43.02503" lon="0.31061">
        <ele>653.5</ele>
        <time>2026-07-08T06:46:40Z</time>
      </trkpt>
      <trkpt lat="43.02502" lon="0.31062">
        <ele>653.5</ele>
        <time>2026-07-08T06:46:41Z</time>
      </trkpt>
      <trkpt lat="43.02502" lon="0.31063">
        <ele>652.5</ele>
        <time>2026-07-08T06:46:42Z</time>
      </trkpt>
      <trkpt lat="43.02502" lon="0.31063">
        <ele>652.5</ele>
        <time>2026-07-08T06:46:42Z</time>
      </trkpt>
      <trkpt lat="43.02502" lon="0.31064">
        <ele>651.5</ele>
        <time>2026-07-08T06:46:43Z</time>
      </trkpt>
      <trkpt lat="43.02502" lon="0.31065">
        <ele>651.5</ele>
        <time>2026-07-08T06:46:44Z</time>
      </trkpt>
      <trkpt lat="43.02502" lon="0.31066">
        <ele>652.5</ele>
        <time>2026-07-08T06:46:45Z</time>
      </trkpt>
      <trkpt lat="43.02502" lon="0.31067">
        <ele>652.5</ele>
        <time>2026-07-08T06:46:46Z</time>
      </trkpt>
      <trkpt lat="43.02503" lon="0.31067">
        <ele>652.5</ele>
        <time>2026-07-08T06:46:46Z</time>
      </trkpt>
      <trkpt lat="43.02503" lon="0.31067">
        <ele>652.5</ele>
        <time>2026-07-08T06:46:47Z</time>
      </trkpt>
      <trkpt lat="43.02503" lon="0.31068">
        <ele>652.5</ele>
        <time>2026-07-08T06:46:48Z</time>
      </trkpt>
      <trkpt lat="43.02503" lon="0.31069">
        <ele>652.5</ele>
        <time>2026-07-08T06:46:49Z</time>
      </trkpt>
      <trkpt lat="43.02504" lon="0.31069">
        <ele>651.5</ele>
        <time>2026-07-08T06:46:50Z</time>
      </trkpt>
      <trkpt lat="43.02504" lon="0.3107">
        <ele>651.5</ele>
        <time>2026-07-08T06:46:50Z</time>
      </trkpt>
      <trkpt lat="43.02504" lon="0.31071">
        <ele>651.5</ele>
        <time>2026-07-08T06:46:51Z</time>
      </trkpt>
      <trkpt lat="43.02504" lon="0.31072">
        <ele>651.5</ele>
        <time>2026-07-08T06:46:52Z</time>
      </trkpt>
      <trkpt lat="43.02504" lon="0.31073">
        <ele>651.5</ele>
        <time>2026-07-08T06:46:52Z</time>
      </trkpt>
      <trkpt lat="43.02504" lon="0.31073">
        <ele>651.5</ele>
        <time>2026-07-08T06:46:53Z</time>
      </trkpt>
      <trkpt lat="43.02503" lon="0.31075">
        <ele>651.5</ele>
        <time>2026-07-08T06:46:54Z</time>
      </trkpt>
      <trkpt lat="43.02503" lon="0.31076">
        <ele>651.5</ele>
        <time>2026-07-08T06:46:55Z</time>
      </trkpt>
      <trkpt lat="43.02503" lon="0.31076">
        <ele>651.5</ele>
        <time>2026-07-08T06:46:56Z</time>
      </trkpt>
      <trkpt lat="43.02503" lon="0.31077">
        <ele>652.5</ele>
        <time>2026-07-08T06:46:56Z</time>
      </trkpt>
      <trkpt lat="43.02504" lon="0.31078">
        <ele>652.5</ele>
        <time>2026-07-08T06:46:57Z</time>
      </trkpt>
      <trkpt lat="43.02504" lon="0.31079">
        <ele>652.5</ele>
        <time>2026-07-08T06:46:58Z</time>
      </trkpt>
      <trkpt lat="43.02505" lon="0.31079">
        <ele>651.5</ele>
        <time>2026-07-08T06:46:58Z</time>
      </trkpt>
      <trkpt lat="43.02505" lon="0.31078">
        <ele>651.5</ele>
        <time>2026-07-08T06:46:59Z</time>
      </trkpt>
      <trkpt lat="43.02505" lon="0.31079">
        <ele>651.5</ele>
        <time>2026-07-08T06:47:00Z</time>
      </trkpt>
      <trkpt lat="43.02505" lon="0.3108">
        <ele>651.5</ele>
        <time>2026-07-08T06:47:01Z</time>
      </trkpt>
      <trkpt lat="43.02505" lon="0.31081">
        <ele>651.5</ele>
        <time>2026-07-08T06:47:02Z</time>
      </trkpt>
      <trkpt lat="43.02505" lon="0.31082">
        <ele>651.5</ele>
        <time>2026-07-08T06:47:03Z</time>
      </trkpt>
      <trkpt lat="43.02505" lon="0.31083">
        <ele>652.5</ele>
        <time>2026-07-08T06:47:03Z</time>
      </trkpt>
      <trkpt lat="43.02506" lon="0.31082">
        <ele>651.5</ele>
        <time>2026-07-08T06:47:04Z</time>
      </trkpt>
      <trkpt lat="43.02506" lon="0.31083">
        <ele>651.5</ele>
        <time>2026-07-08T06:47:05Z</time>
      </trkpt>
      <trkpt lat="43.02506" lon="0.31084">
        <ele>652.5</ele>
        <time>2026-07-08T06:47:06Z</time>
      </trkpt>
      <trkpt lat="43.02507" lon="0.31084">
        <ele>651.5</ele>
        <time>2026-07-08T06:47:06Z</time>
      </trkpt>
      <trkpt lat="43.02507" lon="0.31085">
        <ele>651.5</ele>
        <time>2026-07-08T06:47:07Z</time>
      </trkpt>
      <trkpt lat="43.02507" lon="0.31086">
        <ele>651.5</ele>
        <time>2026-07-08T06:47:08Z</time>
      </trkpt>
      <trkpt lat="43.02507" lon="0.31087">
        <ele>651.5</ele>
        <time>2026-07-08T06:47:09Z</time>
      </trkpt>
      <trkpt lat="43.02508" lon="0.31087">
        <ele>653.5</ele>
        <time>2026-07-08T06:47:09Z</time>
      </trkpt>
      <trkpt lat="43.02509" lon="0.31088">
        <ele>653.5</ele>
        <time>2026-07-08T06:47:10Z</time>
      </trkpt>
      <trkpt lat="43.02509" lon="0.31089">
        <ele>653.5</ele>
        <time>2026-07-08T06:47:11Z</time>
      </trkpt>
      <trkpt lat="43.0251" lon="0.31089">
        <ele>653.5</ele>
        <time>2026-07-08T06:47:12Z</time>
      </trkpt>
      <trkpt lat="43.0251" lon="0.31089">
        <ele>653.5</ele>
        <time>2026-07-08T06:47:12Z</time>
      </trkpt>
      <trkpt lat="43.02511" lon="0.3109">
        <ele>653.5</ele>
        <time>2026-07-08T06:47:13Z</time>
      </trkpt>
      <trkpt lat="43.02511" lon="0.31091">
        <ele>653.5</ele>
        <time>2026-07-08T06:47:14Z</time>
      </trkpt>
      <trkpt lat="43.02512" lon="0.31092">
        <ele>652.5</ele>
        <time>2026-07-08T06:47:15Z</time>
      </trkpt>
      <trkpt lat="43.02512" lon="0.31092">
        <ele>652.5</ele>
        <time>2026-07-08T06:47:15Z</time>
      </trkpt>
      <trkpt lat="43.02512" lon="0.31093">
        <ele>652.5</ele>
        <time>2026-07-08T06:47:16Z</time>
      </trkpt>
      <trkpt lat="43.02512" lon="0.31094">
        <ele>652.5</ele>
        <time>2026-07-08T06:47:17Z</time>
      </trkpt>
      <trkpt lat="43.02513" lon="0.31095">
        <ele>653.5</ele>
        <time>2026-07-08T06:47:18Z</time>
      </trkpt>
      <trkpt lat="43.02513" lon="0.31095">
        <ele>653.5</ele>
        <time>2026-07-08T06:47:18Z</time>
      </trkpt>
      <trkpt lat="43.02513" lon="0.31096">
        <ele>653.5</ele>
        <time>2026-07-08T06:47:19Z</time>
      </trkpt>
      <trkpt lat="43.02514" lon="0.31097">
        <ele>653.5</ele>
        <time>2026-07-08T06:47:20Z</time>
      </trkpt>
      <trkpt lat="43.02514" lon="0.31098">
        <ele>653.5</ele>
        <time>2026-07-08T06:47:20Z</time>
      </trkpt>
      <trkpt lat="43.02514" lon="0.31098">
        <ele>654.5</ele>
        <time>2026-07-08T06:47:21Z</time>
      </trkpt>
      <trkpt lat="43.02515" lon="0.31099">
        <ele>654.5</ele>
        <time>2026-07-08T06:47:22Z</time>
      </trkpt>
      <trkpt lat="43.02515" lon="0.31099">
        <ele>654.5</ele>
        <time>2026-07-08T06:47:23Z</time>
      </trkpt>
      <trkpt lat="43.02516" lon="0.311">
        <ele>654.5</ele>
        <time>2026-07-08T06:47:23Z</time>
      </trkpt>
      <trkpt lat="43.02516" lon="0.311">
        <ele>654.5</ele>
        <time>2026-07-08T06:47:24Z</time>
      </trkpt>
      <trkpt lat="43.02516" lon="0.31101">
        <ele>654.5</ele>
        <time>2026-07-08T06:47:25Z</time>
      </trkpt>
      <trkpt lat="43.02517" lon="0.31101">
        <ele>654.5</ele>
        <time>2026-07-08T06:47:26Z</time>
      </trkpt>
      <trkpt lat="43.02517" lon="0.31102">
        <ele>654.5</ele>
        <time>2026-07-08T06:47:26Z</time>
      </trkpt>
      <trkpt lat="43.02517" lon="0.31102">
        <ele>654.5</ele>
        <time>2026-07-08T06:47:27Z</time>
      </trkpt>
      <trkpt lat="43.02517" lon="0.31103">
        <ele>654.5</ele>
        <time>2026-07-08T06:47:28Z</time>
      </trkpt>
      <trkpt lat="43.02517" lon="0.31104">
        <ele>654.5</ele>
        <time>2026-07-08T06:47:29Z</time>
      </trkpt>
      <trkpt lat="43.02517" lon="0.31104">
        <ele>654.5</ele>
        <time>2026-07-08T06:47:30Z</time>
      </trkpt>
      <trkpt lat="43.02517" lon="0.31104">
        <ele>654.5</ele>
        <time>2026-07-08T06:47:30Z</time>
      </trkpt>
      <trkpt lat="43.02517" lon="0.31105">
        <ele>654.5</ele>
        <time>2026-07-08T06:47:31Z</time>
      </trkpt>
      <trkpt lat="43.02517" lon="0.31105">
        <ele>654.5</ele>
        <time>2026-07-08T06:47:32Z</time>
      </trkpt>
      <trkpt lat="43.02517" lon="0.31106">
        <ele>654.5</ele>
        <time>2026-07-08T06:47:33Z</time>
      </trkpt>
      <trkpt lat="43.02517" lon="0.31107">
        <ele>654.5</ele>
        <time>2026-07-08T06:47:33Z</time>
      </trkpt>
      <trkpt lat="43.02517" lon="0.31108">
        <ele>654.5</ele>
        <time>2026-07-08T06:47:34Z</time>
      </trkpt>
      <trkpt lat="43.02517" lon="0.31108">
        <ele>654.5</ele>
        <time>2026-07-08T06:47:35Z</time>
      </trkpt>
      <trkpt lat="43.02517" lon="0.31109">
        <ele>654.5</ele>
        <time>2026-07-08T06:47:35Z</time>
      </trkpt>
      <trkpt lat="43.02517" lon="0.31109">
        <ele>654.5</ele>
        <time>2026-07-08T06:47:36Z</time>
      </trkpt>
      <trkpt lat="43.02517" lon="0.3111">
        <ele>654.5</ele>
        <time>2026-07-08T06:47:37Z</time>
      </trkpt>
      <trkpt lat="43.02517" lon="0.3111">
        <ele>654.5</ele>
        <time>2026-07-08T06:47:38Z</time>
      </trkpt>
      <trkpt lat="43.02516" lon="0.31111">
        <ele>654.5</ele>
        <time>2026-07-08T06:47:38Z</time>
      </trkpt>
      <trkpt lat="43.02517" lon="0.31112">
        <ele>654.5</ele>
        <time>2026-07-08T06:47:39Z</time>
      </trkpt>
      <trkpt lat="43.02517" lon="0.31113">
        <ele>654.5</ele>
        <time>2026-07-08T06:47:40Z</time>
      </trkpt>
      <trkpt lat="43.02517" lon="0.31113">
        <ele>655.5</ele>
        <time>2026-07-08T06:47:41Z</time>
      </trkpt>
      <trkpt lat="43.02517" lon="0.31114">
        <ele>655.5</ele>
        <time>2026-07-08T06:47:41Z</time>
      </trkpt>
      <trkpt lat="43.02517" lon="0.31114">
        <ele>656.5</ele>
        <time>2026-07-08T06:47:42Z</time>
      </trkpt>
      <trkpt lat="43.02516" lon="0.31115">
        <ele>656.5</ele>
        <time>2026-07-08T06:47:43Z</time>
      </trkpt>
      <trkpt lat="43.02516" lon="0.31115">
        <ele>656.5</ele>
        <time>2026-07-08T06:47:44Z</time>
      </trkpt>
      <trkpt lat="43.02515" lon="0.31116">
        <ele>656.5</ele>
        <time>2026-07-08T06:47:45Z</time>
      </trkpt>
      <trkpt lat="43.02515" lon="0.31116">
        <ele>656.5</ele>
        <time>2026-07-08T06:47:45Z</time>
      </trkpt>
      <trkpt lat="43.02515" lon="0.31117">
        <ele>656.5</ele>
        <time>2026-07-08T06:47:46Z</time>
      </trkpt>
      <trkpt lat="43.02515" lon="0.31118">
        <ele>656.5</ele>
        <time>2026-07-08T06:47:47Z</time>
      </trkpt>
      <trkpt lat="43.02515" lon="0.31119">
        <ele>656.5</ele>
        <time>2026-07-08T06:47:48Z</time>
      </trkpt>
      <trkpt lat="43.02515" lon="0.3112">
        <ele>656.5</ele>
        <time>2026-07-08T06:47:48Z</time>
      </trkpt>
      <trkpt lat="43.02514" lon="0.3112">
        <ele>656.5</ele>
        <time>2026-07-08T06:47:49Z</time>
      </trkpt>
      <trkpt lat="43.02514" lon="0.3112">
        <ele>656.5</ele>
        <time>2026-07-08T06:47:50Z</time>
      </trkpt>
      <trkpt lat="43.02514" lon="0.31121">
        <ele>655.5</ele>
        <time>2026-07-08T06:47:51Z</time>
      </trkpt>
      <trkpt lat="43.02514" lon="0.31121">
        <ele>655.5</ele>
        <time>2026-07-08T06:47:51Z</time>
      </trkpt>
      <trkpt lat="43.02514" lon="0.31122">
        <ele>655.5</ele>
        <time>2026-07-08T06:47:52Z</time>
      </trkpt>
      <trkpt lat="43.02514" lon="0.31123">
        <ele>655.5</ele>
        <time>2026-07-08T06:47:53Z</time>
      </trkpt>
      <trkpt lat="43.02514" lon="0.31124">
        <ele>657.5</ele>
        <time>2026-07-08T06:47:54Z</time>
      </trkpt>
      <trkpt lat="43.02514" lon="0.31124">
        <ele>656.5</ele>
        <time>2026-07-08T06:47:54Z</time>
      </trkpt>
      <trkpt lat="43.02514" lon="0.31125">
        <ele>656.5</ele>
        <time>2026-07-08T06:47:55Z</time>
      </trkpt>
      <trkpt lat="43.02514" lon="0.31126">
        <ele>656.5</ele>
        <time>2026-07-08T06:47:56Z</time>
      </trkpt>
      <trkpt lat="43.02514" lon="0.31126">
        <ele>657.5</ele>
        <time>2026-07-08T06:47:57Z</time>
      </trkpt>
      <trkpt lat="43.02514" lon="0.31127">
        <ele>657.5</ele>
        <time>2026-07-08T06:47:57Z</time>
      </trkpt>
      <trkpt lat="43.02514" lon="0.31128">
        <ele>657.5</ele>
        <time>2026-07-08T06:47:58Z</time>
      </trkpt>
      <trkpt lat="43.02514" lon="0.31129">
        <ele>657.5</ele>
        <time>2026-07-08T06:47:59Z</time>
      </trkpt>
      <trkpt lat="43.02513" lon="0.3113">
        <ele>657.5</ele>
        <time>2026-07-08T06:48:00Z</time>
      </trkpt>
      <trkpt lat="43.02513" lon="0.31131">
        <ele>659.5</ele>
        <time>2026-07-08T06:48:00Z</time>
      </trkpt>
      <trkpt lat="43.02514" lon="0.31131">
        <ele>659.5</ele>
        <time>2026-07-08T06:48:01Z</time>
      </trkpt>
      <trkpt lat="43.02514" lon="0.31131">
        <ele>659.5</ele>
        <time>2026-07-08T06:48:02Z</time>
      </trkpt>
      <trkpt lat="43.02514" lon="0.31132">
        <ele>659.5</ele>
        <time>2026-07-08T06:48:03Z</time>
      </trkpt>
      <trkpt lat="43.02515" lon="0.31132">
        <ele>659.5</ele>
        <time>2026-07-08T06:48:04Z</time>
      </trkpt>
      <trkpt lat="43.02515" lon="0.31132">
        <ele>658.5</ele>
        <time>2026-07-08T06:48:04Z</time>
      </trkpt>
      <trkpt lat="43.02515" lon="0.31133">
        <ele>657.5</ele>
        <time>2026-07-08T06:48:05Z</time>
      </trkpt>
      <trkpt lat="43.02515" lon="0.31134">
        <ele>657.5</ele>
        <time>2026-07-08T06:48:06Z</time>
      </trkpt>
      <trkpt lat="43.02515" lon="0.31135">
        <ele>657.5</ele>
        <time>2026-07-08T06:48:07Z</time>
      </trkpt>
      <trkpt lat="43.02515" lon="0.31136">
        <ele>657.5</ele>
        <time>2026-07-08T06:48:07Z</time>
      </trkpt>
      <trkpt lat="43.02515" lon="0.31137">
        <ele>657.5</ele>
        <time>2026-07-08T06:48:08Z</time>
      </trkpt>
      <trkpt lat="43.02515" lon="0.31138">
        <ele>657.5</ele>
        <time>2026-07-08T06:48:09Z</time>
      </trkpt>
      <trkpt lat="43.02516" lon="0.31139">
        <ele>657.5</ele>
        <time>2026-07-08T06:48:10Z</time>
      </trkpt>
      <trkpt lat="43.02516" lon="0.3114">
        <ele>657.5</ele>
        <time>2026-07-08T06:48:10Z</time>
      </trkpt>
      <trkpt lat="43.02516" lon="0.3114">
        <ele>657.5</ele>
        <time>2026-07-08T06:48:11Z</time>
      </trkpt>
      <trkpt lat="43.02517" lon="0.31141">
        <ele>657.5</ele>
        <time>2026-07-08T06:48:12Z</time>
      </trkpt>
      <trkpt lat="43.02517" lon="0.31142">
        <ele>658.5</ele>
        <time>2026-07-08T06:48:13Z</time>
      </trkpt>
      <trkpt lat="43.02517" lon="0.31143">
        <ele>659.5</ele>
        <time>2026-07-08T06:48:14Z</time>
      </trkpt>
      <trkpt lat="43.02517" lon="0.31143">
        <ele>659.5</ele>
        <time>2026-07-08T06:48:14Z</time>
      </trkpt>
      <trkpt lat="43.02517" lon="0.31144">
        <ele>659.5</ele>
        <time>2026-07-08T06:48:15Z</time>
      </trkpt>
      <trkpt lat="43.02517" lon="0.31144">
        <ele>659.5</ele>
        <time>2026-07-08T06:48:16Z</time>
      </trkpt>
      <trkpt lat="43.02517" lon="0.31145">
        <ele>659.5</ele>
        <time>2026-07-08T06:48:17Z</time>
      </trkpt>
      <trkpt lat="43.02518" lon="0.31145">
        <ele>659.5</ele>
        <time>2026-07-08T06:48:17Z</time>
      </trkpt>
      <trkpt lat="43.02518" lon="0.31146">
        <ele>658.5</ele>
        <time>2026-07-08T06:48:18Z</time>
      </trkpt>
      <trkpt lat="43.02518" lon="0.31146">
        <ele>658.5</ele>
        <time>2026-07-08T06:48:19Z</time>
      </trkpt>
      <trkpt lat="43.02518" lon="0.31146">
        <ele>658.5</ele>
        <time>2026-07-08T06:48:20Z</time>
      </trkpt>
      <trkpt lat="43.02519" lon="0.31145">
        <ele>658.5</ele>
        <time>2026-07-08T06:48:20Z</time>
      </trkpt>
      <trkpt lat="43.02519" lon="0.31145">
        <ele>659.5</ele>
        <time>2026-07-08T06:48:21Z</time>
      </trkpt>
      <trkpt lat="43.02519" lon="0.31146">
        <ele>659.5</ele>
        <time>2026-07-08T06:48:22Z</time>
      </trkpt>
      <trkpt lat="43.02519" lon="0.31146">
        <ele>659.5</ele>
        <time>2026-07-08T06:48:23Z</time>
      </trkpt>
      <trkpt lat="43.02519" lon="0.31147">
        <ele>659.5</ele>
        <time>2026-07-08T06:48:24Z</time>
      </trkpt>
      <trkpt lat="43.0252" lon="0.31148">
        <ele>659.5</ele>
        <time>2026-07-08T06:48:24Z</time>
      </trkpt>
      <trkpt lat="43.0252" lon="0.31149">
        <ele>659.5</ele>
        <time>2026-07-08T06:48:25Z</time>
      </trkpt>
      <trkpt lat="43.0252" lon="0.31149">
        <ele>660.5</ele>
        <time>2026-07-08T06:48:26Z</time>
      </trkpt>
      <trkpt lat="43.0252" lon="0.3115">
        <ele>660.5</ele>
        <time>2026-07-08T06:48:27Z</time>
      </trkpt>
      <trkpt lat="43.02521" lon="0.3115">
        <ele>660.5</ele>
        <time>2026-07-08T06:48:28Z</time>
      </trkpt>
      <trkpt lat="43.02521" lon="0.3115">
        <ele>660.5</ele>
        <time>2026-07-08T06:48:28Z</time>
      </trkpt>
      <trkpt lat="43.02521" lon="0.31151">
        <ele>660.5</ele>
        <time>2026-07-08T06:48:29Z</time>
      </trkpt>
      <trkpt lat="43.02522" lon="0.31151">
        <ele>660.5</ele>
        <time>2026-07-08T06:48:30Z</time>
      </trkpt>
      <trkpt lat="43.02522" lon="0.31152">
        <ele>660.5</ele>
        <time>2026-07-08T06:48:31Z</time>
      </trkpt>
      <trkpt lat="43.02522" lon="0.31153">
        <ele>659.5</ele>
        <time>2026-07-08T06:48:31Z</time>
      </trkpt>
      <trkpt lat="43.02522" lon="0.31153">
        <ele>659.5</ele>
        <time>2026-07-08T06:48:32Z</time>
      </trkpt>
      <trkpt lat="43.02522" lon="0.31154">
        <ele>660.5</ele>
        <time>2026-07-08T06:48:33Z</time>
      </trkpt>
      <trkpt lat="43.02523" lon="0.31154">
        <ele>660.5</ele>
        <time>2026-07-08T06:48:33Z</time>
      </trkpt>
      <trkpt lat="43.02523" lon="0.31155">
        <ele>661.5</ele>
        <time>2026-07-08T06:48:34Z</time>
      </trkpt>
      <trkpt lat="43.02523" lon="0.31155">
        <ele>661.5</ele>
        <time>2026-07-08T06:48:35Z</time>
      </trkpt>
      <trkpt lat="43.02524" lon="0.31155">
        <ele>661.5</ele>
        <time>2026-07-08T06:48:36Z</time>
      </trkpt>
      <trkpt lat="43.02524" lon="0.31155">
        <ele>661.5</ele>
        <time>2026-07-08T06:48:36Z</time>
      </trkpt>
      <trkpt lat="43.02524" lon="0.31156">
        <ele>660.5</ele>
        <time>2026-07-08T06:48:37Z</time>
      </trkpt>
      <trkpt lat="43.02524" lon="0.31157">
        <ele>660.5</ele>
        <time>2026-07-08T06:48:38Z</time>
      </trkpt>
      <trkpt lat="43.02524" lon="0.31158">
        <ele>661.5</ele>
        <time>2026-07-08T06:48:39Z</time>
      </trkpt>
      <trkpt lat="43.02524" lon="0.31159">
        <ele>661.5</ele>
        <time>2026-07-08T06:48:40Z</time>
      </trkpt>
      <trkpt lat="43.02524" lon="0.31159">
        <ele>661.5</ele>
        <time>2026-07-08T06:48:40Z</time>
      </trkpt>
      <trkpt lat="43.02524" lon="0.3116">
        <ele>661.5</ele>
        <time>2026-07-08T06:48:41Z</time>
      </trkpt>
      <trkpt lat="43.02524" lon="0.31161">
        <ele>662.5</ele>
        <time>2026-07-08T06:48:42Z</time>
      </trkpt>
      <trkpt lat="43.02524" lon="0.31162">
        <ele>662.5</ele>
        <time>2026-07-08T06:48:43Z</time>
      </trkpt>
      <trkpt lat="43.02525" lon="0.31162">
        <ele>662.5</ele>
        <time>2026-07-08T06:48:44Z</time>
      </trkpt>
      <trkpt lat="43.02524" lon="0.31162">
        <ele>662.5</ele>
        <time>2026-07-08T06:48:45Z</time>
      </trkpt>
      <trkpt lat="43.02524" lon="0.31163">
        <ele>662.5</ele>
        <time>2026-07-08T06:48:45Z</time>
      </trkpt>
      <trkpt lat="43.02524" lon="0.31163">
        <ele>662.5</ele>
        <time>2026-07-08T06:48:46Z</time>
      </trkpt>
      <trkpt lat="43.02524" lon="0.31164">
        <ele>662.5</ele>
        <time>2026-07-08T06:48:47Z</time>
      </trkpt>
      <trkpt lat="43.02524" lon="0.31165">
        <ele>663.5</ele>
        <time>2026-07-08T06:48:48Z</time>
      </trkpt>
      <trkpt lat="43.02525" lon="0.31165">
        <ele>663.5</ele>
        <time>2026-07-08T06:48:48Z</time>
      </trkpt>
      <trkpt lat="43.02525" lon="0.31166">
        <ele>662.5</ele>
        <time>2026-07-08T06:48:49Z</time>
      </trkpt>
      <trkpt lat="43.02525" lon="0.31166">
        <ele>662.5</ele>
        <time>2026-07-08T06:48:50Z</time>
      </trkpt>
      <trkpt lat="43.02525" lon="0.31165">
        <ele>662.5</ele>
        <time>2026-07-08T06:48:51Z</time>
      </trkpt>
      <trkpt lat="43.02525" lon="0.31166">
        <ele>663.5</ele>
        <time>2026-07-08T06:48:51Z</time>
      </trkpt>
      <trkpt lat="43.02526" lon="0.31166">
        <ele>663.5</ele>
        <time>2026-07-08T06:48:52Z</time>
      </trkpt>
      <trkpt lat="43.02526" lon="0.31166">
        <ele>663.5</ele>
        <time>2026-07-08T06:48:53Z</time>
      </trkpt>
      <trkpt lat="43.02525" lon="0.31167">
        <ele>662.5</ele>
        <time>2026-07-08T06:48:54Z</time>
      </trkpt>
      <trkpt lat="43.02525" lon="0.31167">
        <ele>662.5</ele>
        <time>2026-07-08T06:48:54Z</time>
      </trkpt>
      <trkpt lat="43.02525" lon="0.31168">
        <ele>662.5</ele>
        <time>2026-07-08T06:48:55Z</time>
      </trkpt>
      <trkpt lat="43.02525" lon="0.31168">
        <ele>663.5</ele>
        <time>2026-07-08T06:48:56Z</time>
      </trkpt>
      <trkpt lat="43.02525" lon="0.31169">
        <ele>663.5</ele>
        <time>2026-07-08T06:48:57Z</time>
      </trkpt>
      <trkpt lat="43.02525" lon="0.3117">
        <ele>663.5</ele>
        <time>2026-07-08T06:48:57Z</time>
      </trkpt>
      <trkpt lat="43.02525" lon="0.3117">
        <ele>664.5</ele>
        <time>2026-07-08T06:48:58Z</time>
      </trkpt>
      <trkpt lat="43.02525" lon="0.31171">
        <ele>664.5</ele>
        <time>2026-07-08T06:48:59Z</time>
      </trkpt>
      <trkpt lat="43.02524" lon="0.31172">
        <ele>664.5</ele>
        <time>2026-07-08T06:49:00Z</time>
      </trkpt>
      <trkpt lat="43.02524" lon="0.31172">
        <ele>664.5</ele>
        <time>2026-07-08T06:49:00Z</time>
      </trkpt>
      <trkpt lat="43.02524" lon="0.31173">
        <ele>665.5</ele>
        <time>2026-07-08T06:49:01Z</time>
      </trkpt>
      <trkpt lat="43.02524" lon="0.31174">
        <ele>665.5</ele>
        <time>2026-07-08T06:49:02Z</time>
      </trkpt>
      <trkpt lat="43.02524" lon="0.31174">
        <ele>665.5</ele>
        <time>2026-07-08T06:49:03Z</time>
      </trkpt>
      <trkpt lat="43.02524" lon="0.31175">
        <ele>666.5</ele>
        <time>2026-07-08T06:49:03Z</time>
      </trkpt>
      <trkpt lat="43.02524" lon="0.31176">
        <ele>666.5</ele>
        <time>2026-07-08T06:49:04Z</time>
      </trkpt>
      <trkpt lat="43.02524" lon="0.31177">
        <ele>666.5</ele>
        <time>2026-07-08T06:49:05Z</time>
      </trkpt>
      <trkpt lat="43.02523" lon="0.31177">
        <ele>666.5</ele>
        <time>2026-07-08T06:49:06Z</time>
      </trkpt>
      <trkpt lat="43.02523" lon="0.31178">
        <ele>667.5</ele>
        <time>2026-07-08T06:49:06Z</time>
      </trkpt>
      <trkpt lat="43.02523" lon="0.31179">
        <ele>667.5</ele>
        <time>2026-07-08T06:49:07Z</time>
      </trkpt>
      <trkpt lat="43.02523" lon="0.3118">
        <ele>667.5</ele>
        <time>2026-07-08T06:49:08Z</time>
      </trkpt>
      <trkpt lat="43.02523" lon="0.31181">
        <ele>668.5</ele>
        <time>2026-07-08T06:49:09Z</time>
      </trkpt>
      <trkpt lat="43.02523" lon="0.31181">
        <ele>668.5</ele>
        <time>2026-07-08T06:49:09Z</time>
      </trkpt>
      <trkpt lat="43.02523" lon="0.31182">
        <ele>668.5</ele>
        <time>2026-07-08T06:49:10Z</time>
      </trkpt>
      <trkpt lat="43.02523" lon="0.31183">
        <ele>668.5</ele>
        <time>2026-07-08T06:49:11Z</time>
      </trkpt>
      <trkpt lat="43.02523" lon="0.31184">
        <ele>668.5</ele>
        <time>2026-07-08T06:49:12Z</time>
      </trkpt>
      <trkpt lat="43.02523" lon="0.31184">
        <ele>668.5</ele>
        <time>2026-07-08T06:49:12Z</time>
      </trkpt>
      <trkpt lat="43.02523" lon="0.31185">
        <ele>668.5</ele>
        <time>2026-07-08T06:49:13Z</time>
      </trkpt>
      <trkpt lat="43.02523" lon="0.31185">
        <ele>668.5</ele>
        <time>2026-07-08T06:49:14Z</time>
      </trkpt>
      <trkpt lat="43.02523" lon="0.31185">
        <ele>668.5</ele>
        <time>2026-07-08T06:49:14Z</time>
      </trkpt>
      <trkpt lat="43.02523" lon="0.31186">
        <ele>669.5</ele>
        <time>2026-07-08T06:49:15Z</time>
      </trkpt>
      <trkpt lat="43.02523" lon="0.31186">
        <ele>669.5</ele>
        <time>2026-07-08T06:49:16Z</time>
      </trkpt>
      <trkpt lat="43.02523" lon="0.31187">
        <ele>669.5</ele>
        <time>2026-07-08T06:49:17Z</time>
      </trkpt>
      <trkpt lat="43.02523" lon="0.31188">
        <ele>670.5</ele>
        <time>2026-07-08T06:49:18Z</time>
      </trkpt>
      <trkpt lat="43.02523" lon="0.31188">
        <ele>670.5</ele>
        <time>2026-07-08T06:49:18Z</time>
      </trkpt>
      <trkpt lat="43.02522" lon="0.31189">
        <ele>670.5</ele>
        <time>2026-07-08T06:49:19Z</time>
      </trkpt>
      <trkpt lat="43.02522" lon="0.3119">
        <ele>671.5</ele>
        <time>2026-07-08T06:49:20Z</time>
      </trkpt>
      <trkpt lat="43.02522" lon="0.31191">
        <ele>670.5</ele>
        <time>2026-07-08T06:49:20Z</time>
      </trkpt>
      <trkpt lat="43.02522" lon="0.31191">
        <ele>669.5</ele>
        <time>2026-07-08T06:49:21Z</time>
      </trkpt>
      <trkpt lat="43.02523" lon="0.31192">
        <ele>669.5</ele>
        <time>2026-07-08T06:49:22Z</time>
      </trkpt>
      <trkpt lat="43.02523" lon="0.31193">
        <ele>669.5</ele>
        <time>2026-07-08T06:49:23Z</time>
      </trkpt>
      <trkpt lat="43.02523" lon="0.31194">
        <ele>669.5</ele>
        <time>2026-07-08T06:49:23Z</time>
      </trkpt>
      <trkpt lat="43.02523" lon="0.31194">
        <ele>669.5</ele>
        <time>2026-07-08T06:49:24Z</time>
      </trkpt>
      <trkpt lat="43.02523" lon="0.31195">
        <ele>669.5</ele>
        <time>2026-07-08T06:49:25Z</time>
      </trkpt>
      <trkpt lat="43.02522" lon="0.31196">
        <ele>669.5</ele>
        <time>2026-07-08T06:49:26Z</time>
      </trkpt>
      <trkpt lat="43.02521" lon="0.31196">
        <ele>669.5</ele>
        <time>2026-07-08T06:49:26Z</time>
      </trkpt>
      <trkpt lat="43.02521" lon="0.31196">
        <ele>669.5</ele>
        <time>2026-07-08T06:49:27Z</time>
      </trkpt>
      <trkpt lat="43.0252" lon="0.31197">
        <ele>669.5</ele>
        <time>2026-07-08T06:49:28Z</time>
      </trkpt>
      <trkpt lat="43.0252" lon="0.31197">
        <ele>669.5</ele>
        <time>2026-07-08T06:49:28Z</time>
      </trkpt>
      <trkpt lat="43.0252" lon="0.31197">
        <ele>669.5</ele>
        <time>2026-07-08T06:49:29Z</time>
      </trkpt>
      <trkpt lat="43.02519" lon="0.31198">
        <ele>669.5</ele>
        <time>2026-07-08T06:49:30Z</time>
      </trkpt>
      <trkpt lat="43.02519" lon="0.31198">
        <ele>669.5</ele>
        <time>2026-07-08T06:49:30Z</time>
      </trkpt>
      <trkpt lat="43.02519" lon="0.31199">
        <ele>669.5</ele>
        <time>2026-07-08T06:49:31Z</time>
      </trkpt>
      <trkpt lat="43.0252" lon="0.31199">
        <ele>669.5</ele>
        <time>2026-07-08T06:49:32Z</time>
      </trkpt>
      <trkpt lat="43.0252" lon="0.31199">
        <ele>669.5</ele>
        <time>2026-07-08T06:49:33Z</time>
      </trkpt>
      <trkpt lat="43.0252" lon="0.31199">
        <ele>669.5</ele>
        <time>2026-07-08T06:49:33Z</time>
      </trkpt>
      <trkpt lat="43.0252" lon="0.312">
        <ele>670.5</ele>
        <time>2026-07-08T06:49:34Z</time>
      </trkpt>
      <trkpt lat="43.0252" lon="0.31201">
        <ele>670.5</ele>
        <time>2026-07-08T06:49:35Z</time>
      </trkpt>
      <trkpt lat="43.0252" lon="0.31201">
        <ele>669.5</ele>
        <time>2026-07-08T06:49:36Z</time>
      </trkpt>
      <trkpt lat="43.0252" lon="0.31201">
        <ele>669.5</ele>
        <time>2026-07-08T06:49:36Z</time>
      </trkpt>
      <trkpt lat="43.0252" lon="0.31202">
        <ele>669.5</ele>
        <time>2026-07-08T06:49:37Z</time>
      </trkpt>
      <trkpt lat="43.02521" lon="0.31203">
        <ele>669.5</ele>
        <time>2026-07-08T06:49:38Z</time>
      </trkpt>
      <trkpt lat="43.02521" lon="0.31204">
        <ele>669.5</ele>
        <time>2026-07-08T06:49:39Z</time>
      </trkpt>
      <trkpt lat="43.02521" lon="0.31205">
        <ele>669.5</ele>
        <time>2026-07-08T06:49:39Z</time>
      </trkpt>
      <trkpt lat="43.02521" lon="0.31205">
        <ele>669.5</ele>
        <time>2026-07-08T06:49:40Z</time>
      </trkpt>
      <trkpt lat="43.02522" lon="0.31206">
        <ele>669.5</ele>
        <time>2026-07-08T06:49:41Z</time>
      </trkpt>
      <trkpt lat="43.02522" lon="0.31207">
        <ele>669.5</ele>
        <time>2026-07-08T06:49:42Z</time>
      </trkpt>
      <trkpt lat="43.02522" lon="0.31207">
        <ele>668.5</ele>
        <time>2026-07-08T06:49:43Z</time>
      </trkpt>
      <trkpt lat="43.02522" lon="0.31208">
        <ele>669.5</ele>
        <time>2026-07-08T06:49:43Z</time>
      </trkpt>
      <trkpt lat="43.02522" lon="0.31209">
        <ele>669.5</ele>
        <time>2026-07-08T06:49:44Z</time>
      </trkpt>
      <trkpt lat="43.02522" lon="0.3121">
        <ele>669.5</ele>
        <time>2026-07-08T06:49:45Z</time>
      </trkpt>
      <trkpt lat="43.02523" lon="0.31211">
        <ele>669.5</ele>
        <time>2026-07-08T06:49:46Z</time>
      </trkpt>
      <trkpt lat="43.02523" lon="0.31212">
        <ele>669.5</ele>
        <time>2026-07-08T06:49:46Z</time>
      </trkpt>
      <trkpt lat="43.02523" lon="0.31212">
        <ele>669.5</ele>
        <time>2026-07-08T06:49:47Z</time>
      </trkpt>
      <trkpt lat="43.02524" lon="0.31213">
        <ele>669.5</ele>
        <time>2026-07-08T06:49:48Z</time>
      </trkpt>
      <trkpt lat="43.02524" lon="0.31213">
        <ele>669.5</ele>
        <time>2026-07-08T06:49:49Z</time>
      </trkpt>
      <trkpt lat="43.02524" lon="0.31213">
        <ele>670.5</ele>
        <time>2026-07-08T06:49:49Z</time>
      </trkpt>
      <trkpt lat="43.02525" lon="0.31213">
        <ele>670.5</ele>
        <time>2026-07-08T06:49:50Z</time>
      </trkpt>
      <trkpt lat="43.02525" lon="0.31214">
        <ele>670.5</ele>
        <time>2026-07-08T06:49:51Z</time>
      </trkpt>
      <trkpt lat="43.02525" lon="0.31214">
        <ele>670.5</ele>
        <time>2026-07-08T06:49:52Z</time>
      </trkpt>
      <trkpt lat="43.02525" lon="0.31214">
        <ele>670.5</ele>
        <time>2026-07-08T06:49:52Z</time>
      </trkpt>
      <trkpt lat="43.02525" lon="0.31215">
        <ele>671.5</ele>
        <time>2026-07-08T06:49:53Z</time>
      </trkpt>
      <trkpt lat="43.02526" lon="0.31216">
        <ele>671.5</ele>
        <time>2026-07-08T06:49:54Z</time>
      </trkpt>
      <trkpt lat="43.02526" lon="0.31216">
        <ele>671.5</ele>
        <time>2026-07-08T06:49:55Z</time>
      </trkpt>
      <trkpt lat="43.02526" lon="0.31217">
        <ele>671.5</ele>
        <time>2026-07-08T06:49:55Z</time>
      </trkpt>
      <trkpt lat="43.02526" lon="0.31218">
        <ele>671.5</ele>
        <time>2026-07-08T06:49:56Z</time>
      </trkpt>
      <trkpt lat="43.02526" lon="0.31218">
        <ele>671.5</ele>
        <time>2026-07-08T06:49:57Z</time>
      </trkpt>
      <trkpt lat="43.02526" lon="0.31219">
        <ele>672.5</ele>
        <time>2026-07-08T06:49:57Z</time>
      </trkpt>
      <trkpt lat="43.02526" lon="0.3122">
        <ele>672.5</ele>
        <time>2026-07-08T06:49:58Z</time>
      </trkpt>
      <trkpt lat="43.02526" lon="0.31221">
        <ele>672.5</ele>
        <time>2026-07-08T06:49:59Z</time>
      </trkpt>
      <trkpt lat="43.02526" lon="0.31222">
        <ele>671.5</ele>
        <time>2026-07-08T06:50:00Z</time>
      </trkpt>
      <trkpt lat="43.02526" lon="0.31222">
        <ele>671.5</ele>
        <time>2026-07-08T06:50:00Z</time>
      </trkpt>
      <trkpt lat="43.02526" lon="0.31222">
        <ele>672.5</ele>
        <time>2026-07-08T06:50:01Z</time>
      </trkpt>
      <trkpt lat="43.02526" lon="0.31223">
        <ele>673.5</ele>
        <time>2026-07-08T06:50:02Z</time>
      </trkpt>
      <trkpt lat="43.02526" lon="0.31224">
        <ele>673.5</ele>
        <time>2026-07-08T06:50:03Z</time>
      </trkpt>
      <trkpt lat="43.02526" lon="0.31225">
        <ele>674.5</ele>
        <time>2026-07-08T06:50:04Z</time>
      </trkpt>
      <trkpt lat="43.02526" lon="0.31225">
        <ele>674.5</ele>
        <time>2026-07-08T06:50:04Z</time>
      </trkpt>
      <trkpt lat="43.02527" lon="0.31226">
        <ele>674.5</ele>
        <time>2026-07-08T06:50:05Z</time>
      </trkpt>
      <trkpt lat="43.02527" lon="0.31226">
        <ele>674.5</ele>
        <time>2026-07-08T06:50:06Z</time>
      </trkpt>
      <trkpt lat="43.02527" lon="0.31227">
        <ele>674.5</ele>
        <time>2026-07-08T06:50:06Z</time>
      </trkpt>
      <trkpt lat="43.02526" lon="0.31228">
        <ele>674.5</ele>
        <time>2026-07-08T06:50:07Z</time>
      </trkpt>
      <trkpt lat="43.02526" lon="0.31228">
        <ele>674.5</ele>
        <time>2026-07-08T06:50:08Z</time>
      </trkpt>
      <trkpt lat="43.02526" lon="0.31229">
        <ele>674.5</ele>
        <time>2026-07-08T06:50:09Z</time>
      </trkpt>
      <trkpt lat="43.02525" lon="0.31229">
        <ele>674.5</ele>
        <time>2026-07-08T06:50:09Z</time>
      </trkpt>
      <trkpt lat="43.02525" lon="0.3123">
        <ele>673.5</ele>
        <time>2026-07-08T06:50:10Z</time>
      </trkpt>
      <trkpt lat="43.02524" lon="0.31231">
        <ele>673.5</ele>
        <time>2026-07-08T06:50:11Z</time>
      </trkpt>
      <trkpt lat="43.02524" lon="0.31232">
        <ele>674.5</ele>
        <time>2026-07-08T06:50:12Z</time>
      </trkpt>
      <trkpt lat="43.02524" lon="0.31232">
        <ele>675.5</ele>
        <time>2026-07-08T06:50:13Z</time>
      </trkpt>
      <trkpt lat="43.02523" lon="0.31233">
        <ele>675.5</ele>
        <time>2026-07-08T06:50:13Z</time>
      </trkpt>
      <trkpt lat="43.02523" lon="0.31234">
        <ele>675.5</ele>
        <time>2026-07-08T06:50:14Z</time>
      </trkpt>
      <trkpt lat="43.02523" lon="0.31234">
        <ele>675.5</ele>
        <time>2026-07-08T06:50:15Z</time>
      </trkpt>
      <trkpt lat="43.02522" lon="0.31235">
        <ele>675.5</ele>
        <time>2026-07-08T06:50:15Z</time>
      </trkpt>
      <trkpt lat="43.02522" lon="0.31235">
        <ele>675.5</ele>
        <time>2026-07-08T06:50:16Z</time>
      </trkpt>
      <trkpt lat="43.02522" lon="0.31236">
        <ele>675.5</ele>
        <time>2026-07-08T06:50:17Z</time>
      </trkpt>
      <trkpt lat="43.02521" lon="0.31237">
        <ele>675.5</ele>
        <time>2026-07-08T06:50:18Z</time>
      </trkpt>
      <trkpt lat="43.02521" lon="0.31238">
        <ele>675.5</ele>
        <time>2026-07-08T06:50:18Z</time>
      </trkpt>
      <trkpt lat="43.02521" lon="0.31239">
        <ele>675.5</ele>
        <time>2026-07-08T06:50:19Z</time>
      </trkpt>
      <trkpt lat="43.02521" lon="0.3124">
        <ele>675.5</ele>
        <time>2026-07-08T06:50:20Z</time>
      </trkpt>
      <trkpt lat="43.0252" lon="0.31241">
        <ele>675.5</ele>
        <time>2026-07-08T06:50:21Z</time>
      </trkpt>
      <trkpt lat="43.0252" lon="0.31242">
        <ele>676.5</ele>
        <time>2026-07-08T06:50:22Z</time>
      </trkpt>
      <trkpt lat="43.0252" lon="0.31242">
        <ele>677.5</ele>
        <time>2026-07-08T06:50:22Z</time>
      </trkpt>
      <trkpt lat="43.02519" lon="0.31242">
        <ele>677.5</ele>
        <time>2026-07-08T06:50:23Z</time>
      </trkpt>
      <trkpt lat="43.02519" lon="0.31242">
        <ele>676.5</ele>
        <time>2026-07-08T06:50:24Z</time>
      </trkpt>
      <trkpt lat="43.02518" lon="0.31243">
        <ele>677.5</ele>
        <time>2026-07-08T06:50:24Z</time>
      </trkpt>
      <trkpt lat="43.02518" lon="0.31243">
        <ele>676.5</ele>
        <time>2026-07-08T06:50:25Z</time>
      </trkpt>
      <trkpt lat="43.02518" lon="0.31244">
        <ele>676.5</ele>
        <time>2026-07-08T06:50:26Z</time>
      </trkpt>
      <trkpt lat="43.02517" lon="0.31244">
        <ele>677.5</ele>
        <time>2026-07-08T06:50:27Z</time>
      </trkpt>
      <trkpt lat="43.02517" lon="0.31244">
        <ele>677.5</ele>
        <time>2026-07-08T06:50:27Z</time>
      </trkpt>
      <trkpt lat="43.02517" lon="0.31245">
        <ele>677.5</ele>
        <time>2026-07-08T06:50:28Z</time>
      </trkpt>
      <trkpt lat="43.02516" lon="0.31245">
        <ele>677.5</ele>
        <time>2026-07-08T06:50:29Z</time>
      </trkpt>
      <trkpt lat="43.02516" lon="0.31246">
        <ele>677.5</ele>
        <time>2026-07-08T06:50:30Z</time>
      </trkpt>
      <trkpt lat="43.02516" lon="0.31246">
        <ele>677.5</ele>
        <time>2026-07-08T06:50:30Z</time>
      </trkpt>
      <trkpt lat="43.02515" lon="0.31246">
        <ele>677.5</ele>
        <time>2026-07-08T06:50:31Z</time>
      </trkpt>
      <trkpt lat="43.02515" lon="0.31247">
        <ele>677.5</ele>
        <time>2026-07-08T06:50:32Z</time>
      </trkpt>
      <trkpt lat="43.02515" lon="0.31248">
        <ele>677.5</ele>
        <time>2026-07-08T06:50:33Z</time>
      </trkpt>
      <trkpt lat="43.02515" lon="0.31249">
        <ele>677.5</ele>
        <time>2026-07-08T06:50:33Z</time>
      </trkpt>
      <trkpt lat="43.02515" lon="0.3125">
        <ele>677.5</ele>
        <time>2026-07-08T06:50:34Z</time>
      </trkpt>
      <trkpt lat="43.02515" lon="0.3125">
        <ele>678.5</ele>
        <time>2026-07-08T06:50:35Z</time>
      </trkpt>
      <trkpt lat="43.02515" lon="0.31251">
        <ele>678.5</ele>
        <time>2026-07-08T06:50:35Z</time>
      </trkpt>
      <trkpt lat="43.02516" lon="0.31252">
        <ele>678.5</ele>
        <time>2026-07-08T06:50:36Z</time>
      </trkpt>
      <trkpt lat="43.02516" lon="0.31253">
        <ele>678.5</ele>
        <time>2026-07-08T06:50:37Z</time>
      </trkpt>
      <trkpt lat="43.02517" lon="0.31254">
        <ele>677.5</ele>
        <time>2026-07-08T06:50:37Z</time>
      </trkpt>
      <trkpt lat="43.02517" lon="0.31254">
        <ele>677.5</ele>
        <time>2026-07-08T06:50:38Z</time>
      </trkpt>
      <trkpt lat="43.02518" lon="0.31255">
        <ele>677.5</ele>
        <time>2026-07-08T06:50:39Z</time>
      </trkpt>
      <trkpt lat="43.02518" lon="0.31256">
        <ele>678.5</ele>
        <time>2026-07-08T06:50:40Z</time>
      </trkpt>
      <trkpt lat="43.02518" lon="0.31256">
        <ele>678.5</ele>
        <time>2026-07-08T06:50:40Z</time>
      </trkpt>
      <trkpt lat="43.02518" lon="0.31257">
        <ele>678.5</ele>
        <time>2026-07-08T06:50:41Z</time>
      </trkpt>
      <trkpt lat="43.02518" lon="0.31258">
        <ele>679.5</ele>
        <time>2026-07-08T06:50:42Z</time>
      </trkpt>
      <trkpt lat="43.02518" lon="0.31259">
        <ele>679.5</ele>
        <time>2026-07-08T06:50:43Z</time>
      </trkpt>
      <trkpt lat="43.02518" lon="0.3126">
        <ele>679.5</ele>
        <time>2026-07-08T06:50:44Z</time>
      </trkpt>
      <trkpt lat="43.02519" lon="0.3126">
        <ele>679.5</ele>
        <time>2026-07-08T06:50:45Z</time>
      </trkpt>
      <trkpt lat="43.02519" lon="0.31261">
        <ele>679.5</ele>
        <time>2026-07-08T06:50:45Z</time>
      </trkpt>
      <trkpt lat="43.02519" lon="0.31261">
        <ele>679.5</ele>
        <time>2026-07-08T06:50:46Z</time>
      </trkpt>
      <trkpt lat="43.0252" lon="0.31262">
        <ele>679.5</ele>
        <time>2026-07-08T06:50:47Z</time>
      </trkpt>
      <trkpt lat="43.0252" lon="0.31262">
        <ele>679.5</ele>
        <time>2026-07-08T06:50:48Z</time>
      </trkpt>
      <trkpt lat="43.02521" lon="0.31263">
        <ele>679.5</ele>
        <time>2026-07-08T06:50:49Z</time>
      </trkpt>
      <trkpt lat="43.02521" lon="0.31263">
        <ele>679.5</ele>
        <time>2026-07-08T06:50:50Z</time>
      </trkpt>
      <trkpt lat="43.02521" lon="0.31263">
        <ele>679.5</ele>
        <time>2026-07-08T06:50:50Z</time>
      </trkpt>
      <trkpt lat="43.0252" lon="0.31264">
        <ele>679.5</ele>
        <time>2026-07-08T06:50:51Z</time>
      </trkpt>
      <trkpt lat="43.02521" lon="0.31264">
        <ele>679.5</ele>
        <time>2026-07-08T06:50:52Z</time>
      </trkpt>
      <trkpt lat="43.02521" lon="0.31264">
        <ele>679.5</ele>
        <time>2026-07-08T06:50:53Z</time>
      </trkpt>
      <trkpt lat="43.0252" lon="0.31265">
        <ele>679.5</ele>
        <time>2026-07-08T06:50:54Z</time>
      </trkpt>
      <trkpt lat="43.0252" lon="0.31266">
        <ele>679.5</ele>
        <time>2026-07-08T06:50:54Z</time>
      </trkpt>
      <trkpt lat="43.0252" lon="0.31267">
        <ele>680.5</ele>
        <time>2026-07-08T06:50:55Z</time>
      </trkpt>
      <trkpt lat="43.0252" lon="0.31267">
        <ele>680.5</ele>
        <time>2026-07-08T06:50:56Z</time>
      </trkpt>
      <trkpt lat="43.0252" lon="0.31268">
        <ele>681.5</ele>
        <time>2026-07-08T06:50:57Z</time>
      </trkpt>
      <trkpt lat="43.0252" lon="0.31269">
        <ele>682.5</ele>
        <time>2026-07-08T06:50:58Z</time>
      </trkpt>
      <trkpt lat="43.02521" lon="0.31269">
        <ele>683.5</ele>
        <time>2026-07-08T06:50:59Z</time>
      </trkpt>
      <trkpt lat="43.02521" lon="0.31269">
        <ele>684.5</ele>
        <time>2026-07-08T06:50:59Z</time>
      </trkpt>
      <trkpt lat="43.02521" lon="0.3127">
        <ele>684.5</ele>
        <time>2026-07-08T06:51:00Z</time>
      </trkpt>
      <trkpt lat="43.0252" lon="0.31271">
        <ele>684.5</ele>
        <time>2026-07-08T06:51:01Z</time>
      </trkpt>
      <trkpt lat="43.0252" lon="0.31271">
        <ele>684.5</ele>
        <time>2026-07-08T06:51:02Z</time>
      </trkpt>
      <trkpt lat="43.02519" lon="0.31272">
        <ele>684.5</ele>
        <time>2026-07-08T06:51:03Z</time>
      </trkpt>
      <trkpt lat="43.02519" lon="0.31273">
        <ele>684.5</ele>
        <time>2026-07-08T06:51:04Z</time>
      </trkpt>
      <trkpt lat="43.02519" lon="0.31273">
        <ele>684.5</ele>
        <time>2026-07-08T06:51:04Z</time>
      </trkpt>
      <trkpt lat="43.02519" lon="0.31274">
        <ele>684.5</ele>
        <time>2026-07-08T06:51:05Z</time>
      </trkpt>
      <trkpt lat="43.02519" lon="0.31275">
        <ele>684.5</ele>
        <time>2026-07-08T06:51:06Z</time>
      </trkpt>
      <trkpt lat="43.02519" lon="0.31276">
        <ele>683.5</ele>
        <time>2026-07-08T06:51:07Z</time>
      </trkpt>
      <trkpt lat="43.02519" lon="0.31276">
        <ele>684.5</ele>
        <time>2026-07-08T06:51:07Z</time>
      </trkpt>
      <trkpt lat="43.02519" lon="0.31277">
        <ele>684.5</ele>
        <time>2026-07-08T06:51:08Z</time>
      </trkpt>
      <trkpt lat="43.02519" lon="0.31277">
        <ele>683.5</ele>
        <time>2026-07-08T06:51:09Z</time>
      </trkpt>
      <trkpt lat="43.02519" lon="0.31278">
        <ele>683.5</ele>
        <time>2026-07-08T06:51:10Z</time>
      </trkpt>
      <trkpt lat="43.02519" lon="0.31278">
        <ele>684.5</ele>
        <time>2026-07-08T06:51:10Z</time>
      </trkpt>
      <trkpt lat="43.02519" lon="0.31278">
        <ele>684.5</ele>
        <time>2026-07-08T06:51:11Z</time>
      </trkpt>
      <trkpt lat="43.02519" lon="0.31279">
        <ele>684.5</ele>
        <time>2026-07-08T06:51:12Z</time>
      </trkpt>
      <trkpt lat="43.02518" lon="0.31278">
        <ele>684.5</ele>
        <time>2026-07-08T06:51:12Z</time>
      </trkpt>
      <trkpt lat="43.02518" lon="0.31278">
        <ele>684.5</ele>
        <time>2026-07-08T06:51:13Z</time>
      </trkpt>
      <trkpt lat="43.02517" lon="0.31279">
        <ele>684.5</ele>
        <time>2026-07-08T06:51:14Z</time>
      </trkpt>
      <trkpt lat="43.02517" lon="0.31279">
        <ele>685.5</ele>
        <time>2026-07-08T06:51:14Z</time>
      </trkpt>
      <trkpt lat="43.02516" lon="0.31279">
        <ele>685.5</ele>
        <time>2026-07-08T06:51:15Z</time>
      </trkpt>
      <trkpt lat="43.02516" lon="0.3128">
        <ele>685.5</ele>
        <time>2026-07-08T06:51:16Z</time>
      </trkpt>
      <trkpt lat="43.02515" lon="0.3128">
        <ele>685.5</ele>
        <time>2026-07-08T06:51:16Z</time>
      </trkpt>
      <trkpt lat="43.02515" lon="0.3128">
        <ele>686.5</ele>
        <time>2026-07-08T06:51:17Z</time>
      </trkpt>
      <trkpt lat="43.02514" lon="0.3128">
        <ele>686.5</ele>
        <time>2026-07-08T06:51:18Z</time>
      </trkpt>
      <trkpt lat="43.02514" lon="0.31281">
        <ele>686.5</ele>
        <time>2026-07-08T06:51:19Z</time>
      </trkpt>
      <trkpt lat="43.02513" lon="0.31281">
        <ele>686.5</ele>
        <time>2026-07-08T06:51:19Z</time>
      </trkpt>
      <trkpt lat="43.02513" lon="0.31281">
        <ele>686.5</ele>
        <time>2026-07-08T06:51:20Z</time>
      </trkpt>
      <trkpt lat="43.02512" lon="0.31281">
        <ele>687.5</ele>
        <time>2026-07-08T06:51:21Z</time>
      </trkpt>
      <trkpt lat="43.02511" lon="0.31282">
        <ele>688.5</ele>
        <time>2026-07-08T06:51:21Z</time>
      </trkpt>
      <trkpt lat="43.0251" lon="0.31282">
        <ele>688.5</ele>
        <time>2026-07-08T06:51:22Z</time>
      </trkpt>
      <trkpt lat="43.0251" lon="0.31282">
        <ele>688.5</ele>
        <time>2026-07-08T06:51:22Z</time>
      </trkpt>
      <trkpt lat="43.02509" lon="0.31282">
        <ele>689.5</ele>
        <time>2026-07-08T06:51:23Z</time>
      </trkpt>
      <trkpt lat="43.02508" lon="0.31282">
        <ele>689.5</ele>
        <time>2026-07-08T06:51:24Z</time>
      </trkpt>
      <trkpt lat="43.02507" lon="0.31282">
        <ele>690.5</ele>
        <time>2026-07-08T06:51:24Z</time>
      </trkpt>
      <trkpt lat="43.02507" lon="0.31283">
        <ele>690.5</ele>
        <time>2026-07-08T06:51:25Z</time>
      </trkpt>
      <trkpt lat="43.02506" lon="0.31283">
        <ele>690.5</ele>
        <time>2026-07-08T06:51:26Z</time>
      </trkpt>
      <trkpt lat="43.02506" lon="0.31283">
        <ele>690.5</ele>
        <time>2026-07-08T06:51:26Z</time>
      </trkpt>
      <trkpt lat="43.02505" lon="0.31284">
        <ele>690.5</ele>
        <time>2026-07-08T06:51:27Z</time>
      </trkpt>
      <trkpt lat="43.02505" lon="0.31284">
        <ele>690.5</ele>
        <time>2026-07-08T06:51:27Z</time>
      </trkpt>
      <trkpt lat="43.02504" lon="0.31284">
        <ele>690.5</ele>
        <time>2026-07-08T06:51:28Z</time>
      </trkpt>
      <trkpt lat="43.02504" lon="0.31285">
        <ele>690.5</ele>
        <time>2026-07-08T06:51:29Z</time>
      </trkpt>
      <trkpt lat="43.02504" lon="0.31285">
        <ele>690.5</ele>
        <time>2026-07-08T06:51:29Z</time>
      </trkpt>
      <trkpt lat="43.02504" lon="0.31285">
        <ele>690.5</ele>
        <time>2026-07-08T06:51:30Z</time>
      </trkpt>
      <trkpt lat="43.02504" lon="0.31285">
        <ele>691.5</ele>
        <time>2026-07-08T06:51:30Z</time>
      </trkpt>
      <trkpt lat="43.02503" lon="0.31285">
        <ele>692.5</ele>
        <time>2026-07-08T06:51:31Z</time>
      </trkpt>
      <trkpt lat="43.02503" lon="0.31286">
        <ele>692.5</ele>
        <time>2026-07-08T06:51:32Z</time>
      </trkpt>
      <trkpt lat="43.02502" lon="0.31286">
        <ele>692.5</ele>
        <time>2026-07-08T06:51:32Z</time>
      </trkpt>
      <trkpt lat="43.02502" lon="0.31286">
        <ele>692.5</ele>
        <time>2026-07-08T06:51:33Z</time>
      </trkpt>
      <trkpt lat="43.02502" lon="0.31286">
        <ele>693.5</ele>
        <time>2026-07-08T06:51:34Z</time>
      </trkpt>
      <trkpt lat="43.02501" lon="0.31286">
        <ele>693.5</ele>
        <time>2026-07-08T06:51:34Z</time>
      </trkpt>
      <trkpt lat="43.02501" lon="0.31287">
        <ele>693.5</ele>
        <time>2026-07-08T06:51:35Z</time>
      </trkpt>
      <trkpt lat="43.02501" lon="0.31287">
        <ele>693.5</ele>
        <time>2026-07-08T06:51:35Z</time>
      </trkpt>
      <trkpt lat="43.025" lon="0.31287">
        <ele>693.5</ele>
        <time>2026-07-08T06:51:36Z</time>
      </trkpt>
      <trkpt lat="43.025" lon="0.31287">
        <ele>694.5</ele>
        <time>2026-07-08T06:51:37Z</time>
      </trkpt>
      <trkpt lat="43.025" lon="0.31287">
        <ele>694.5</ele>
        <time>2026-07-08T06:51:37Z</time>
      </trkpt>
      <trkpt lat="43.02499" lon="0.31288">
        <ele>694.5</ele>
        <time>2026-07-08T06:51:38Z</time>
      </trkpt>
      <trkpt lat="43.02499" lon="0.31288">
        <ele>693.5</ele>
        <time>2026-07-08T06:51:38Z</time>
      </trkpt>
      <trkpt lat="43.02499" lon="0.31288">
        <ele>693.5</ele>
        <time>2026-07-08T06:51:39Z</time>
      </trkpt>
      <trkpt lat="43.02498" lon="0.31289">
        <ele>693.5</ele>
        <time>2026-07-08T06:51:39Z</time>
      </trkpt>
      <trkpt lat="43.02498" lon="0.31289">
        <ele>693.5</ele>
        <time>2026-07-08T06:51:40Z</time>
      </trkpt>
      <trkpt lat="43.02497" lon="0.31289">
        <ele>693.5</ele>
        <time>2026-07-08T06:51:41Z</time>
      </trkpt>
      <trkpt lat="43.02497" lon="0.3129">
        <ele>693.5</ele>
        <time>2026-07-08T06:51:41Z</time>
      </trkpt>
      <trkpt lat="43.02496" lon="0.31291">
        <ele>693.5</ele>
        <time>2026-07-08T06:51:42Z</time>
      </trkpt>
      <trkpt lat="43.02496" lon="0.31291">
        <ele>694.5</ele>
        <time>2026-07-08T06:51:43Z</time>
      </trkpt>
      <trkpt lat="43.02495" lon="0.31292">
        <ele>694.5</ele>
        <time>2026-07-08T06:51:43Z</time>
      </trkpt>
      <trkpt lat="43.02496" lon="0.31293">
        <ele>694.5</ele>
        <time>2026-07-08T06:51:44Z</time>
      </trkpt>
      <trkpt lat="43.02496" lon="0.31293">
        <ele>694.5</ele>
        <time>2026-07-08T06:51:44Z</time>
      </trkpt>
      <trkpt lat="43.02496" lon="0.31293">
        <ele>694.5</ele>
        <time>2026-07-08T06:51:45Z</time>
      </trkpt>
      <trkpt lat="43.02496" lon="0.31294">
        <ele>694.5</ele>
        <time>2026-07-08T06:51:46Z</time>
      </trkpt>
      <trkpt lat="43.02495" lon="0.31294">
        <ele>694.5</ele>
        <time>2026-07-08T06:51:46Z</time>
      </trkpt>
      <trkpt lat="43.02495" lon="0.31295">
        <ele>694.5</ele>
        <time>2026-07-08T06:51:47Z</time>
      </trkpt>
      <trkpt lat="43.02494" lon="0.31296">
        <ele>694.5</ele>
        <time>2026-07-08T06:51:47Z</time>
      </trkpt>
      <trkpt lat="43.02494" lon="0.31297">
        <ele>694.5</ele>
        <time>2026-07-08T06:51:48Z</time>
      </trkpt>
      <trkpt lat="43.02494" lon="0.31297">
        <ele>693.5</ele>
        <time>2026-07-08T06:51:49Z</time>
      </trkpt>
      <trkpt lat="43.02493" lon="0.31298">
        <ele>693.5</ele>
        <time>2026-07-08T06:51:49Z</time>
      </trkpt>
      <trkpt lat="43.02493" lon="0.31299">
        <ele>693.5</ele>
        <time>2026-07-08T06:51:50Z</time>
      </trkpt>
      <trkpt lat="43.02493" lon="0.31299">
        <ele>693.5</ele>
        <time>2026-07-08T06:51:51Z</time>
      </trkpt>
      <trkpt lat="43.02493" lon="0.313">
        <ele>693.5</ele>
        <time>2026-07-08T06:51:51Z</time>
      </trkpt>
      <trkpt lat="43.02492" lon="0.313">
        <ele>693.5</ele>
        <time>2026-07-08T06:51:52Z</time>
      </trkpt>
      <trkpt lat="43.02492" lon="0.31301">
        <ele>692.5</ele>
        <time>2026-07-08T06:51:53Z</time>
      </trkpt>
      <trkpt lat="43.02492" lon="0.31301">
        <ele>692.5</ele>
        <time>2026-07-08T06:51:53Z</time>
      </trkpt>
      <trkpt lat="43.02491" lon="0.31302">
        <ele>692.5</ele>
        <time>2026-07-08T06:51:54Z</time>
      </trkpt>
      <trkpt lat="43.02491" lon="0.31302">
        <ele>692.5</ele>
        <time>2026-07-08T06:51:54Z</time>
      </trkpt>
      <trkpt lat="43.02491" lon="0.31302">
        <ele>692.5</ele>
        <time>2026-07-08T06:51:55Z</time>
      </trkpt>
      <trkpt lat="43.0249" lon="0.31302">
        <ele>691.5</ele>
        <time>2026-07-08T06:51:55Z</time>
      </trkpt>
      <trkpt lat="43.0249" lon="0.31303">
        <ele>691.5</ele>
        <time>2026-07-08T06:51:56Z</time>
      </trkpt>
      <trkpt lat="43.02489" lon="0.31303">
        <ele>691.5</ele>
        <time>2026-07-08T06:51:57Z</time>
      </trkpt>
      <trkpt lat="43.02489" lon="0.31303">
        <ele>691.5</ele>
        <time>2026-07-08T06:51:57Z</time>
      </trkpt>
      <trkpt lat="43.02488" lon="0.31304">
        <ele>691.5</ele>
        <time>2026-07-08T06:51:58Z</time>
      </trkpt>
      <trkpt lat="43.02488" lon="0.31304">
        <ele>691.5</ele>
        <time>2026-07-08T06:51:59Z</time>
      </trkpt>
      <trkpt lat="43.02487" lon="0.31304">
        <ele>691.5</ele>
        <time>2026-07-08T06:51:59Z</time>
      </trkpt>
      <trkpt lat="43.02487" lon="0.31305">
        <ele>691.5</ele>
        <time>2026-07-08T06:52:00Z</time>
      </trkpt>
      <trkpt lat="43.02486" lon="0.31305">
        <ele>691.5</ele>
        <time>2026-07-08T06:52:00Z</time>
      </trkpt>
      <trkpt lat="43.02486" lon="0.31305">
        <ele>691.5</ele>
        <time>2026-07-08T06:52:01Z</time>
      </trkpt>
      <trkpt lat="43.02485" lon="0.31306">
        <ele>691.5</ele>
        <time>2026-07-08T06:52:02Z</time>
      </trkpt>
      <trkpt lat="43.02485" lon="0.31306">
        <ele>690.5</ele>
        <time>2026-07-08T06:52:02Z</time>
      </trkpt>
      <trkpt lat="43.02484" lon="0.31307">
        <ele>690.5</ele>
        <time>2026-07-08T06:52:03Z</time>
      </trkpt>
      <trkpt lat="43.02484" lon="0.31307">
        <ele>690.5</ele>
        <time>2026-07-08T06:52:03Z</time>
      </trkpt>
      <trkpt lat="43.02483" lon="0.31307">
        <ele>691.5</ele>
        <time>2026-07-08T06:52:04Z</time>
      </trkpt>
      <trkpt lat="43.02483" lon="0.31308">
        <ele>691.5</ele>
        <time>2026-07-08T06:52:05Z</time>
      </trkpt>
      <trkpt lat="43.02482" lon="0.31308">
        <ele>691.5</ele>
        <time>2026-07-08T06:52:05Z</time>
      </trkpt>
      <trkpt lat="43.02482" lon="0.31309">
        <ele>691.5</ele>
        <time>2026-07-08T06:52:06Z</time>
      </trkpt>
      <trkpt lat="43.02481" lon="0.31309">
        <ele>691.5</ele>
        <time>2026-07-08T06:52:07Z</time>
      </trkpt>
      <trkpt lat="43.02481" lon="0.3131">
        <ele>691.5</ele>
        <time>2026-07-08T06:52:07Z</time>
      </trkpt>
      <trkpt lat="43.0248" lon="0.3131">
        <ele>691.5</ele>
        <time>2026-07-08T06:52:08Z</time>
      </trkpt>
      <trkpt lat="43.0248" lon="0.31311">
        <ele>691.5</ele>
        <time>2026-07-08T06:52:09Z</time>
      </trkpt>
      <trkpt lat="43.02479" lon="0.31311">
        <ele>691.5</ele>
        <time>2026-07-08T06:52:09Z</time>
      </trkpt>
      <trkpt lat="43.02478" lon="0.31311">
        <ele>691.5</ele>
        <time>2026-07-08T06:52:10Z</time>
      </trkpt>
      <trkpt lat="43.02477" lon="0.31312">
        <ele>690.5</ele>
        <time>2026-07-08T06:52:11Z</time>
      </trkpt>
      <trkpt lat="43.02477" lon="0.31313">
        <ele>690.5</ele>
        <time>2026-07-08T06:52:12Z</time>
      </trkpt>
      <trkpt lat="43.02477" lon="0.31313">
        <ele>690.5</ele>
        <time>2026-07-08T06:52:12Z</time>
      </trkpt>
      <trkpt lat="43.02476" lon="0.31314">
        <ele>690.5</ele>
        <time>2026-07-08T06:52:13Z</time>
      </trkpt>
      <trkpt lat="43.02475" lon="0.31314">
        <ele>690.5</ele>
        <time>2026-07-08T06:52:14Z</time>
      </trkpt>
      <trkpt lat="43.02475" lon="0.31315">
        <ele>690.5</ele>
        <time>2026-07-08T06:52:14Z</time>
      </trkpt>
      <trkpt lat="43.02474" lon="0.31315">
        <ele>690.5</ele>
        <time>2026-07-08T06:52:15Z</time>
      </trkpt>
      <trkpt lat="43.02474" lon="0.31316">
        <ele>690.5</ele>
        <time>2026-07-08T06:52:16Z</time>
      </trkpt>
      <trkpt lat="43.02474" lon="0.31316">
        <ele>690.5</ele>
        <time>2026-07-08T06:52:16Z</time>
      </trkpt>
      <trkpt lat="43.02473" lon="0.31316">
        <ele>690.5</ele>
        <time>2026-07-08T06:52:17Z</time>
      </trkpt>
      <trkpt lat="43.02473" lon="0.31317">
        <ele>690.5</ele>
        <time>2026-07-08T06:52:18Z</time>
      </trkpt>
      <trkpt lat="43.02473" lon="0.31317">
        <ele>690.5</ele>
        <time>2026-07-08T06:52:18Z</time>
      </trkpt>
      <trkpt lat="43.02472" lon="0.31317">
        <ele>690.5</ele>
        <time>2026-07-08T06:52:19Z</time>
      </trkpt>
      <trkpt lat="43.02472" lon="0.31317">
        <ele>690.5</ele>
        <time>2026-07-08T06:52:20Z</time>
      </trkpt>
      <trkpt lat="43.02471" lon="0.31317">
        <ele>689.5</ele>
        <time>2026-07-08T06:52:20Z</time>
      </trkpt>
      <trkpt lat="43.02471" lon="0.31318">
        <ele>689.5</ele>
        <time>2026-07-08T06:52:21Z</time>
      </trkpt>
      <trkpt lat="43.0247" lon="0.31318">
        <ele>689.5</ele>
        <time>2026-07-08T06:52:22Z</time>
      </trkpt>
      <trkpt lat="43.0247" lon="0.31318">
        <ele>689.5</ele>
        <time>2026-07-08T06:52:22Z</time>
      </trkpt>
      <trkpt lat="43.02469" lon="0.31318">
        <ele>689.5</ele>
        <time>2026-07-08T06:52:23Z</time>
      </trkpt>
      <trkpt lat="43.02468" lon="0.31318">
        <ele>689.5</ele>
        <time>2026-07-08T06:52:24Z</time>
      </trkpt>
      <trkpt lat="43.02468" lon="0.31319">
        <ele>690.5</ele>
        <time>2026-07-08T06:52:24Z</time>
      </trkpt>
      <trkpt lat="43.02467" lon="0.31319">
        <ele>690.5</ele>
        <time>2026-07-08T06:52:25Z</time>
      </trkpt>
      <trkpt lat="43.02467" lon="0.3132">
        <ele>689.5</ele>
        <time>2026-07-08T06:52:26Z</time>
      </trkpt>
      <trkpt lat="43.02466" lon="0.3132">
        <ele>690.5</ele>
        <time>2026-07-08T06:52:26Z</time>
      </trkpt>
      <trkpt lat="43.02466" lon="0.3132">
        <ele>690.5</ele>
        <time>2026-07-08T06:52:27Z</time>
      </trkpt>
      <trkpt lat="43.02465" lon="0.31321">
        <ele>690.5</ele>
        <time>2026-07-08T06:52:28Z</time>
      </trkpt>
      <trkpt lat="43.02465" lon="0.31321">
        <ele>690.5</ele>
        <time>2026-07-08T06:52:28Z</time>
      </trkpt>
      <trkpt lat="43.02465" lon="0.31322">
        <ele>690.5</ele>
        <time>2026-07-08T06:52:29Z</time>
      </trkpt>
      <trkpt lat="43.02464" lon="0.31322">
        <ele>690.5</ele>
        <time>2026-07-08T06:52:30Z</time>
      </trkpt>
      <trkpt lat="43.02464" lon="0.31322">
        <ele>691.5</ele>
        <time>2026-07-08T06:52:30Z</time>
      </trkpt>
      <trkpt lat="43.02463" lon="0.31322">
        <ele>691.5</ele>
        <time>2026-07-08T06:52:31Z</time>
      </trkpt>
      <trkpt lat="43.02463" lon="0.31322">
        <ele>691.5</ele>
        <time>2026-07-08T06:52:31Z</time>
      </trkpt>
      <trkpt lat="43.02462" lon="0.31322">
        <ele>691.5</ele>
        <time>2026-07-08T06:52:32Z</time>
      </trkpt>
      <trkpt lat="43.02461" lon="0.31322">
        <ele>691.5</ele>
        <time>2026-07-08T06:52:33Z</time>
      </trkpt>
      <trkpt lat="43.02461" lon="0.31322">
        <ele>691.5</ele>
        <time>2026-07-08T06:52:34Z</time>
      </trkpt>
      <trkpt lat="43.02461" lon="0.31322">
        <ele>690.5</ele>
        <time>2026-07-08T06:52:34Z</time>
      </trkpt>
      <trkpt lat="43.0246" lon="0.31322">
        <ele>690.5</ele>
        <time>2026-07-08T06:52:35Z</time>
      </trkpt>
      <trkpt lat="43.0246" lon="0.31322">
        <ele>690.5</ele>
        <time>2026-07-08T06:52:36Z</time>
      </trkpt>
      <trkpt lat="43.02459" lon="0.31323">
        <ele>690.5</ele>
        <time>2026-07-08T06:52:36Z</time>
      </trkpt>
      <trkpt lat="43.02459" lon="0.31323">
        <ele>690.5</ele>
        <time>2026-07-08T06:52:37Z</time>
      </trkpt>
      <trkpt lat="43.02458" lon="0.31323">
        <ele>690.5</ele>
        <time>2026-07-08T06:52:38Z</time>
      </trkpt>
      <trkpt lat="43.02457" lon="0.31323">
        <ele>691.5</ele>
        <time>2026-07-08T06:52:39Z</time>
      </trkpt>
      <trkpt lat="43.02457" lon="0.31323">
        <ele>691.5</ele>
        <time>2026-07-08T06:52:39Z</time>
      </trkpt>
      <trkpt lat="43.02457" lon="0.31323">
        <ele>691.5</ele>
        <time>2026-07-08T06:52:40Z</time>
      </trkpt>
      <trkpt lat="43.02456" lon="0.31323">
        <ele>692.5</ele>
        <time>2026-07-08T06:52:41Z</time>
      </trkpt>
      <trkpt lat="43.02456" lon="0.31322">
        <ele>692.5</ele>
        <time>2026-07-08T06:52:41Z</time>
      </trkpt>
      <trkpt lat="43.02456" lon="0.31322">
        <ele>692.5</ele>
        <time>2026-07-08T06:52:42Z</time>
      </trkpt>
      <trkpt lat="43.02456" lon="0.31322">
        <ele>692.5</ele>
        <time>2026-07-08T06:52:43Z</time>
      </trkpt>
      <trkpt lat="43.02455" lon="0.31322">
        <ele>692.5</ele>
        <time>2026-07-08T06:52:43Z</time>
      </trkpt>
      <trkpt lat="43.02454" lon="0.31322">
        <ele>692.5</ele>
        <time>2026-07-08T06:52:44Z</time>
      </trkpt>
      <trkpt lat="43.02454" lon="0.31322">
        <ele>692.5</ele>
        <time>2026-07-08T06:52:45Z</time>
      </trkpt>
      <trkpt lat="43.02453" lon="0.31322">
        <ele>693.5</ele>
        <time>2026-07-08T06:52:45Z</time>
      </trkpt>
      <trkpt lat="43.02453" lon="0.31323">
        <ele>693.5</ele>
        <time>2026-07-08T06:52:46Z</time>
      </trkpt>
      <trkpt lat="43.02452" lon="0.31323">
        <ele>694.5</ele>
        <time>2026-07-08T06:52:47Z</time>
      </trkpt>
      <trkpt lat="43.02452" lon="0.31323">
        <ele>694.5</ele>
        <time>2026-07-08T06:52:48Z</time>
      </trkpt>
      <trkpt lat="43.02452" lon="0.31324">
        <ele>694.5</ele>
        <time>2026-07-08T06:52:49Z</time>
      </trkpt>
      <trkpt lat="43.02451" lon="0.31324">
        <ele>694.5</ele>
        <time>2026-07-08T06:52:49Z</time>
      </trkpt>
      <trkpt lat="43.02451" lon="0.31325">
        <ele>694.5</ele>
        <time>2026-07-08T06:52:50Z</time>
      </trkpt>
      <trkpt lat="43.0245" lon="0.31325">
        <ele>694.5</ele>
        <time>2026-07-08T06:52:51Z</time>
      </trkpt>
      <trkpt lat="43.0245" lon="0.31325">
        <ele>694.5</ele>
        <time>2026-07-08T06:52:52Z</time>
      </trkpt>
      <trkpt lat="43.02449" lon="0.31325">
        <ele>694.5</ele>
        <time>2026-07-08T06:52:52Z</time>
      </trkpt>
      <trkpt lat="43.02449" lon="0.31326">
        <ele>694.4</ele>
        <time>2026-07-08T06:52:53Z</time>
      </trkpt>
      <trkpt lat="43.02448" lon="0.31326">
        <ele>694.4</ele>
        <time>2026-07-08T06:52:54Z</time>
      </trkpt>
      <trkpt lat="43.02448" lon="0.31326">
        <ele>694.4</ele>
        <time>2026-07-08T06:52:54Z</time>
      </trkpt>
      <trkpt lat="43.02447" lon="0.31325">
        <ele>693.4</ele>
        <time>2026-07-08T06:52:55Z</time>
      </trkpt>
      <trkpt lat="43.02447" lon="0.31325">
        <ele>693.4</ele>
        <time>2026-07-08T06:52:56Z</time>
      </trkpt>
      <trkpt lat="43.02447" lon="0.31325">
        <ele>694.4</ele>
        <time>2026-07-08T06:52:57Z</time>
      </trkpt>
      <trkpt lat="43.02447" lon="0.31325">
        <ele>694.4</ele>
        <time>2026-07-08T06:52:57Z</time>
      </trkpt>
      <trkpt lat="43.02446" lon="0.31325">
        <ele>694.4</ele>
        <time>2026-07-08T06:52:58Z</time>
      </trkpt>
      <trkpt lat="43.02446" lon="0.31325">
        <ele>694.4</ele>
        <time>2026-07-08T06:52:58Z</time>
      </trkpt>
      <trkpt lat="43.02446" lon="0.31325">
        <ele>693.4</ele>
        <time>2026-07-08T06:52:59Z</time>
      </trkpt>
      <trkpt lat="43.02445" lon="0.31325">
        <ele>693.4</ele>
        <time>2026-07-08T06:53:00Z</time>
      </trkpt>
      <trkpt lat="43.02445" lon="0.31325">
        <ele>693.4</ele>
        <time>2026-07-08T06:53:00Z</time>
      </trkpt>
      <trkpt lat="43.02444" lon="0.31325">
        <ele>693.4</ele>
        <time>2026-07-08T06:53:01Z</time>
      </trkpt>
      <trkpt lat="43.02443" lon="0.31325">
        <ele>693.4</ele>
        <time>2026-07-08T06:53:02Z</time>
      </trkpt>
      <trkpt lat="43.02443" lon="0.31324">
        <ele>693.4</ele>
        <time>2026-07-08T06:53:02Z</time>
      </trkpt>
      <trkpt lat="43.02442" lon="0.31324">
        <ele>693.4</ele>
        <time>2026-07-08T06:53:03Z</time>
      </trkpt>
      <trkpt lat="43.02442" lon="0.31324">
        <ele>693.4</ele>
        <time>2026-07-08T06:53:04Z</time>
      </trkpt>
      <trkpt lat="43.02442" lon="0.31323">
        <ele>693.4</ele>
        <time>2026-07-08T06:53:04Z</time>
      </trkpt>
      <trkpt lat="43.02441" lon="0.31323">
        <ele>694.4</ele>
        <time>2026-07-08T06:53:05Z</time>
      </trkpt>
      <trkpt lat="43.02441" lon="0.31322">
        <ele>694.4</ele>
        <time>2026-07-08T06:53:06Z</time>
      </trkpt>
      <trkpt lat="43.0244" lon="0.31322">
        <ele>694.4</ele>
        <time>2026-07-08T06:53:06Z</time>
      </trkpt>
      <trkpt lat="43.0244" lon="0.31322">
        <ele>694.4</ele>
        <time>2026-07-08T06:53:07Z</time>
      </trkpt>
      <trkpt lat="43.02439" lon="0.31322">
        <ele>694.4</ele>
        <time>2026-07-08T06:53:08Z</time>
      </trkpt>
      <trkpt lat="43.02439" lon="0.31321">
        <ele>694.4</ele>
        <time>2026-07-08T06:53:08Z</time>
      </trkpt>
      <trkpt lat="43.02438" lon="0.31321">
        <ele>694.4</ele>
        <time>2026-07-08T06:53:09Z</time>
      </trkpt>
      <trkpt lat="43.02437" lon="0.31321">
        <ele>694.4</ele>
        <time>2026-07-08T06:53:10Z</time>
      </trkpt>
      <trkpt lat="43.02437" lon="0.31321">
        <ele>693.4</ele>
        <time>2026-07-08T06:53:11Z</time>
      </trkpt>
      <trkpt lat="43.02436" lon="0.31321">
        <ele>693.4</ele>
        <time>2026-07-08T06:53:11Z</time>
      </trkpt>
      <trkpt lat="43.02436" lon="0.31321">
        <ele>693.4</ele>
        <time>2026-07-08T06:53:12Z</time>
      </trkpt>
      <trkpt lat="43.02435" lon="0.31321">
        <ele>693.4</ele>
        <time>2026-07-08T06:53:13Z</time>
      </trkpt>
      <trkpt lat="43.02435" lon="0.31321">
        <ele>693.4</ele>
        <time>2026-07-08T06:53:14Z</time>
      </trkpt>
      <trkpt lat="43.02434" lon="0.31321">
        <ele>693.4</ele>
        <time>2026-07-08T06:53:14Z</time>
      </trkpt>
      <trkpt lat="43.02434" lon="0.31321">
        <ele>693.4</ele>
        <time>2026-07-08T06:53:15Z</time>
      </trkpt>
      <trkpt lat="43.02433" lon="0.31321">
        <ele>693.4</ele>
        <time>2026-07-08T06:53:16Z</time>
      </trkpt>
      <trkpt lat="43.02432" lon="0.31321">
        <ele>694.4</ele>
        <time>2026-07-08T06:53:16Z</time>
      </trkpt>
      <trkpt lat="43.02432" lon="0.31322">
        <ele>694.4</ele>
        <time>2026-07-08T06:53:17Z</time>
      </trkpt>
      <trkpt lat="43.02431" lon="0.31322">
        <ele>694.4</ele>
        <time>2026-07-08T06:53:18Z</time>
      </trkpt>
      <trkpt lat="43.02431" lon="0.31322">
        <ele>694.4</ele>
        <time>2026-07-08T06:53:19Z</time>
      </trkpt>
      <trkpt lat="43.0243" lon="0.31322">
        <ele>694.4</ele>
        <time>2026-07-08T06:53:19Z</time>
      </trkpt>
      <trkpt lat="43.02429" lon="0.31322">
        <ele>694.4</ele>
        <time>2026-07-08T06:53:20Z</time>
      </trkpt>
      <trkpt lat="43.02429" lon="0.31322">
        <ele>694.4</ele>
        <time>2026-07-08T06:53:21Z</time>
      </trkpt>
      <trkpt lat="43.02429" lon="0.31322">
        <ele>693.4</ele>
        <time>2026-07-08T06:53:21Z</time>
      </trkpt>
      <trkpt lat="43.02428" lon="0.31322">
        <ele>693.4</ele>
        <time>2026-07-08T06:53:22Z</time>
      </trkpt>
      <trkpt lat="43.02428" lon="0.31322">
        <ele>693.4</ele>
        <time>2026-07-08T06:53:22Z</time>
      </trkpt>
      <trkpt lat="43.02427" lon="0.31322">
        <ele>693.4</ele>
        <time>2026-07-08T06:53:23Z</time>
      </trkpt>
      <trkpt lat="43.02426" lon="0.31321">
        <ele>693.4</ele>
        <time>2026-07-08T06:53:24Z</time>
      </trkpt>
      <trkpt lat="43.02426" lon="0.31321">
        <ele>693.4</ele>
        <time>2026-07-08T06:53:24Z</time>
      </trkpt>
      <trkpt lat="43.02425" lon="0.31321">
        <ele>693.4</ele>
        <time>2026-07-08T06:53:25Z</time>
      </trkpt>
      <trkpt lat="43.02425" lon="0.31321">
        <ele>693.4</ele>
        <time>2026-07-08T06:53:26Z</time>
      </trkpt>
      <trkpt lat="43.02424" lon="0.31321">
        <ele>693.4</ele>
        <time>2026-07-08T06:53:26Z</time>
      </trkpt>
      <trkpt lat="43.02423" lon="0.31321">
        <ele>693.4</ele>
        <time>2026-07-08T06:53:27Z</time>
      </trkpt>
      <trkpt lat="43.02423" lon="0.3132">
        <ele>693.4</ele>
        <time>2026-07-08T06:53:28Z</time>
      </trkpt>
      <trkpt lat="43.02422" lon="0.3132">
        <ele>693.4</ele>
        <time>2026-07-08T06:53:28Z</time>
      </trkpt>
      <trkpt lat="43.02421" lon="0.3132">
        <ele>692.4</ele>
        <time>2026-07-08T06:53:29Z</time>
      </trkpt>
      <trkpt lat="43.02421" lon="0.3132">
        <ele>692.4</ele>
        <time>2026-07-08T06:53:30Z</time>
      </trkpt>
      <trkpt lat="43.0242" lon="0.3132">
        <ele>691.4</ele>
        <time>2026-07-08T06:53:31Z</time>
      </trkpt>
      <trkpt lat="43.02419" lon="0.3132">
        <ele>692.4</ele>
        <time>2026-07-08T06:53:31Z</time>
      </trkpt>
      <trkpt lat="43.02419" lon="0.3132">
        <ele>692.4</ele>
        <time>2026-07-08T06:53:32Z</time>
      </trkpt>
      <trkpt lat="43.02418" lon="0.31319">
        <ele>693.4</ele>
        <time>2026-07-08T06:53:33Z</time>
      </trkpt>
      <trkpt lat="43.02418" lon="0.31319">
        <ele>694.4</ele>
        <time>2026-07-08T06:53:33Z</time>
      </trkpt>
      <trkpt lat="43.02417" lon="0.31319">
        <ele>694.4</ele>
        <time>2026-07-08T06:53:34Z</time>
      </trkpt>
      <trkpt lat="43.02416" lon="0.31319">
        <ele>693.4</ele>
        <time>2026-07-08T06:53:35Z</time>
      </trkpt>
      <trkpt lat="43.02416" lon="0.31319">
        <ele>693.4</ele>
        <time>2026-07-08T06:53:35Z</time>
      </trkpt>
      <trkpt lat="43.02415" lon="0.31319">
        <ele>693.4</ele>
        <time>2026-07-08T06:53:36Z</time>
      </trkpt>
      <trkpt lat="43.02415" lon="0.31319">
        <ele>693.4</ele>
        <time>2026-07-08T06:53:37Z</time>
      </trkpt>
      <trkpt lat="43.02414" lon="0.31318">
        <ele>694.4</ele>
        <time>2026-07-08T06:53:37Z</time>
      </trkpt>
      <trkpt lat="43.02413" lon="0.31318">
        <ele>694.4</ele>
        <time>2026-07-08T06:53:38Z</time>
      </trkpt>
      <trkpt lat="43.02413" lon="0.31319">
        <ele>694.4</ele>
        <time>2026-07-08T06:53:39Z</time>
      </trkpt>
      <trkpt lat="43.02413" lon="0.31319">
        <ele>694.4</ele>
        <time>2026-07-08T06:53:39Z</time>
      </trkpt>
      <trkpt lat="43.02412" lon="0.31319">
        <ele>694.4</ele>
        <time>2026-07-08T06:53:40Z</time>
      </trkpt>
      <trkpt lat="43.02412" lon="0.31319">
        <ele>694.4</ele>
        <time>2026-07-08T06:53:40Z</time>
      </trkpt>
      <trkpt lat="43.02411" lon="0.31319">
        <ele>694.4</ele>
        <time>2026-07-08T06:53:41Z</time>
      </trkpt>
      <trkpt lat="43.0241" lon="0.31319">
        <ele>694.4</ele>
        <time>2026-07-08T06:53:42Z</time>
      </trkpt>
      <trkpt lat="43.0241" lon="0.31319">
        <ele>694.4</ele>
        <time>2026-07-08T06:53:42Z</time>
      </trkpt>
      <trkpt lat="43.02409" lon="0.31319">
        <ele>694.4</ele>
        <time>2026-07-08T06:53:43Z</time>
      </trkpt>
      <trkpt lat="43.02409" lon="0.31319">
        <ele>694.4</ele>
        <time>2026-07-08T06:53:44Z</time>
      </trkpt>
      <trkpt lat="43.02409" lon="0.3132">
        <ele>694.4</ele>
        <time>2026-07-08T06:53:44Z</time>
      </trkpt>
      <trkpt lat="43.02408" lon="0.3132">
        <ele>694.4</ele>
        <time>2026-07-08T06:53:45Z</time>
      </trkpt>
      <trkpt lat="43.02408" lon="0.3132">
        <ele>694.4</ele>
        <time>2026-07-08T06:53:46Z</time>
      </trkpt>
      <trkpt lat="43.02408" lon="0.3132">
        <ele>693.4</ele>
        <time>2026-07-08T06:53:46Z</time>
      </trkpt>
      <trkpt lat="43.02407" lon="0.3132">
        <ele>693.4</ele>
        <time>2026-07-08T06:53:47Z</time>
      </trkpt>
      <trkpt lat="43.02407" lon="0.31321">
        <ele>693.4</ele>
        <time>2026-07-08T06:53:48Z</time>
      </trkpt>
      <trkpt lat="43.02407" lon="0.31321">
        <ele>692.4</ele>
        <time>2026-07-08T06:53:48Z</time>
      </trkpt>
      <trkpt lat="43.02406" lon="0.31321">
        <ele>692.4</ele>
        <time>2026-07-08T06:53:49Z</time>
      </trkpt>
      <trkpt lat="43.02406" lon="0.31321">
        <ele>692.4</ele>
        <time>2026-07-08T06:53:50Z</time>
      </trkpt>
      <trkpt lat="43.02405" lon="0.31321">
        <ele>692.4</ele>
        <time>2026-07-08T06:53:50Z</time>
      </trkpt>
      <trkpt lat="43.02405" lon="0.31321">
        <ele>692.4</ele>
        <time>2026-07-08T06:53:51Z</time>
      </trkpt>
      <trkpt lat="43.02404" lon="0.31321">
        <ele>692.4</ele>
        <time>2026-07-08T06:53:52Z</time>
      </trkpt>
      <trkpt lat="43.02404" lon="0.31321">
        <ele>692.4</ele>
        <time>2026-07-08T06:53:52Z</time>
      </trkpt>
      <trkpt lat="43.02403" lon="0.31321">
        <ele>692.4</ele>
        <time>2026-07-08T06:53:53Z</time>
      </trkpt>
      <trkpt lat="43.02402" lon="0.31321">
        <ele>692.4</ele>
        <time>2026-07-08T06:53:54Z</time>
      </trkpt>
      <trkpt lat="43.02402" lon="0.31321">
        <ele>692.4</ele>
        <time>2026-07-08T06:53:54Z</time>
      </trkpt>
      <trkpt lat="43.02401" lon="0.31321">
        <ele>692.4</ele>
        <time>2026-07-08T06:53:55Z</time>
      </trkpt>
      <trkpt lat="43.024" lon="0.31321">
        <ele>692.4</ele>
        <time>2026-07-08T06:53:56Z</time>
      </trkpt>
      <trkpt lat="43.024" lon="0.31321">
        <ele>693.4</ele>
        <time>2026-07-08T06:53:56Z</time>
      </trkpt>
      <trkpt lat="43.02399" lon="0.31321">
        <ele>693.4</ele>
        <time>2026-07-08T06:53:57Z</time>
      </trkpt>
      <trkpt lat="43.02399" lon="0.31321">
        <ele>692.4</ele>
        <time>2026-07-08T06:53:58Z</time>
      </trkpt>
      <trkpt lat="43.02399" lon="0.3132">
        <ele>693.4</ele>
        <time>2026-07-08T06:53:58Z</time>
      </trkpt>
      <trkpt lat="43.02398" lon="0.3132">
        <ele>693.4</ele>
        <time>2026-07-08T06:53:59Z</time>
      </trkpt>
      <trkpt lat="43.02397" lon="0.31319">
        <ele>693.4</ele>
        <time>2026-07-08T06:54:00Z</time>
      </trkpt>
      <trkpt lat="43.02397" lon="0.31319">
        <ele>694.4</ele>
        <time>2026-07-08T06:54:00Z</time>
      </trkpt>
      <trkpt lat="43.02396" lon="0.31319">
        <ele>694.4</ele>
        <time>2026-07-08T06:54:01Z</time>
      </trkpt>
      <trkpt lat="43.02395" lon="0.31319">
        <ele>693.4</ele>
        <time>2026-07-08T06:54:02Z</time>
      </trkpt>
      <trkpt lat="43.02395" lon="0.31318">
        <ele>693.4</ele>
        <time>2026-07-08T06:54:03Z</time>
      </trkpt>
      <trkpt lat="43.02394" lon="0.31318">
        <ele>693.4</ele>
        <time>2026-07-08T06:54:03Z</time>
      </trkpt>
      <trkpt lat="43.02394" lon="0.31318">
        <ele>693.4</ele>
        <time>2026-07-08T06:54:04Z</time>
      </trkpt>
      <trkpt lat="43.02393" lon="0.31319">
        <ele>694.4</ele>
        <time>2026-07-08T06:54:05Z</time>
      </trkpt>
      <trkpt lat="43.02393" lon="0.31319">
        <ele>693.4</ele>
        <time>2026-07-08T06:54:05Z</time>
      </trkpt>
      <trkpt lat="43.02392" lon="0.3132">
        <ele>694.4</ele>
        <time>2026-07-08T06:54:06Z</time>
      </trkpt>
      <trkpt lat="43.02392" lon="0.3132">
        <ele>694.4</ele>
        <time>2026-07-08T06:54:07Z</time>
      </trkpt>
      <trkpt lat="43.02391" lon="0.31321">
        <ele>694.4</ele>
        <time>2026-07-08T06:54:08Z</time>
      </trkpt>
      <trkpt lat="43.02391" lon="0.31321">
        <ele>694.4</ele>
        <time>2026-07-08T06:54:08Z</time>
      </trkpt>
      <trkpt lat="43.0239" lon="0.31321">
        <ele>694.4</ele>
        <time>2026-07-08T06:54:09Z</time>
      </trkpt>
      <trkpt lat="43.02389" lon="0.31321">
        <ele>694.4</ele>
        <time>2026-07-08T06:54:10Z</time>
      </trkpt>
      <trkpt lat="43.02389" lon="0.31322">
        <ele>694.4</ele>
        <time>2026-07-08T06:54:10Z</time>
      </trkpt>
      <trkpt lat="43.02388" lon="0.31322">
        <ele>694.4</ele>
        <time>2026-07-08T06:54:11Z</time>
      </trkpt>
      <trkpt lat="43.02387" lon="0.31322">
        <ele>695.4</ele>
        <time>2026-07-08T06:54:12Z</time>
      </trkpt>
      <trkpt lat="43.02387" lon="0.31323">
        <ele>695.4</ele>
        <time>2026-07-08T06:54:12Z</time>
      </trkpt>
      <trkpt lat="43.02386" lon="0.31323">
        <ele>695.4</ele>
        <time>2026-07-08T06:54:13Z</time>
      </trkpt>
      <trkpt lat="43.02386" lon="0.31322">
        <ele>696.4</ele>
        <time>2026-07-08T06:54:14Z</time>
      </trkpt>
      <trkpt lat="43.02385" lon="0.31322">
        <ele>696.4</ele>
        <time>2026-07-08T06:54:14Z</time>
      </trkpt>
      <trkpt lat="43.02385" lon="0.31322">
        <ele>696.4</ele>
        <time>2026-07-08T06:54:15Z</time>
      </trkpt>
      <trkpt lat="43.02384" lon="0.31322">
        <ele>696.4</ele>
        <time>2026-07-08T06:54:16Z</time>
      </trkpt>
      <trkpt lat="43.02384" lon="0.31322">
        <ele>696.4</ele>
        <time>2026-07-08T06:54:16Z</time>
      </trkpt>
      <trkpt lat="43.02383" lon="0.31322">
        <ele>696.4</ele>
        <time>2026-07-08T06:54:17Z</time>
      </trkpt>
      <trkpt lat="43.02383" lon="0.31322">
        <ele>697.4</ele>
        <time>2026-07-08T06:54:18Z</time>
      </trkpt>
      <trkpt lat="43.02382" lon="0.31321">
        <ele>697.4</ele>
        <time>2026-07-08T06:54:18Z</time>
      </trkpt>
      <trkpt lat="43.02382" lon="0.31321">
        <ele>697.4</ele>
        <time>2026-07-08T06:54:19Z</time>
      </trkpt>
      <trkpt lat="43.02381" lon="0.31321">
        <ele>697.4</ele>
        <time>2026-07-08T06:54:20Z</time>
      </trkpt>
      <trkpt lat="43.0238" lon="0.3132">
        <ele>697.4</ele>
        <time>2026-07-08T06:54:20Z</time>
      </trkpt>
      <trkpt lat="43.0238" lon="0.31319">
        <ele>697.4</ele>
        <time>2026-07-08T06:54:21Z</time>
      </trkpt>
      <trkpt lat="43.02379" lon="0.31319">
        <ele>697.4</ele>
        <time>2026-07-08T06:54:22Z</time>
      </trkpt>
      <trkpt lat="43.02379" lon="0.31318">
        <ele>699.4</ele>
        <time>2026-07-08T06:54:23Z</time>
      </trkpt>
      <trkpt lat="43.02378" lon="0.31317">
        <ele>699.4</ele>
        <time>2026-07-08T06:54:23Z</time>
      </trkpt>
      <trkpt lat="43.02378" lon="0.31317">
        <ele>699.4</ele>
        <time>2026-07-08T06:54:24Z</time>
      </trkpt>
      <trkpt lat="43.02377" lon="0.31316">
        <ele>699.4</ele>
        <time>2026-07-08T06:54:25Z</time>
      </trkpt>
      <trkpt lat="43.02377" lon="0.31316">
        <ele>698.4</ele>
        <time>2026-07-08T06:54:26Z</time>
      </trkpt>
      <trkpt lat="43.02377" lon="0.31316">
        <ele>699.4</ele>
        <time>2026-07-08T06:54:26Z</time>
      </trkpt>
      <trkpt lat="43.02376" lon="0.31315">
        <ele>699.4</ele>
        <time>2026-07-08T06:54:27Z</time>
      </trkpt>
      <trkpt lat="43.02376" lon="0.31315">
        <ele>699.4</ele>
        <time>2026-07-08T06:54:28Z</time>
      </trkpt>
      <trkpt lat="43.02375" lon="0.31315">
        <ele>699.4</ele>
        <time>2026-07-08T06:54:28Z</time>
      </trkpt>
      <trkpt lat="43.02375" lon="0.31315">
        <ele>700.4</ele>
        <time>2026-07-08T06:54:29Z</time>
      </trkpt>
      <trkpt lat="43.02374" lon="0.31314">
        <ele>700.4</ele>
        <time>2026-07-08T06:54:30Z</time>
      </trkpt>
      <trkpt lat="43.02374" lon="0.31314">
        <ele>700.4</ele>
        <time>2026-07-08T06:54:30Z</time>
      </trkpt>
      <trkpt lat="43.02373" lon="0.31314">
        <ele>700.4</ele>
        <time>2026-07-08T06:54:31Z</time>
      </trkpt>
      <trkpt lat="43.02372" lon="0.31314">
        <ele>700.4</ele>
        <time>2026-07-08T06:54:32Z</time>
      </trkpt>
      <trkpt lat="43.02372" lon="0.31314">
        <ele>700.4</ele>
        <time>2026-07-08T06:54:33Z</time>
      </trkpt>
      <trkpt lat="43.02371" lon="0.31313">
        <ele>701.4</ele>
        <time>2026-07-08T06:54:33Z</time>
      </trkpt>
      <trkpt lat="43.02371" lon="0.31313">
        <ele>701.4</ele>
        <time>2026-07-08T06:54:34Z</time>
      </trkpt>
      <trkpt lat="43.0237" lon="0.31314">
        <ele>701.4</ele>
        <time>2026-07-08T06:54:35Z</time>
      </trkpt>
      <trkpt lat="43.02369" lon="0.31314">
        <ele>702.4</ele>
        <time>2026-07-08T06:54:35Z</time>
      </trkpt>
      <trkpt lat="43.02369" lon="0.31314">
        <ele>702.4</ele>
        <time>2026-07-08T06:54:36Z</time>
      </trkpt>
      <trkpt lat="43.02368" lon="0.31315">
        <ele>702.4</ele>
        <time>2026-07-08T06:54:37Z</time>
      </trkpt>
      <trkpt lat="43.02368" lon="0.31316">
        <ele>702.4</ele>
        <time>2026-07-08T06:54:37Z</time>
      </trkpt>
      <trkpt lat="43.02367" lon="0.31316">
        <ele>702.4</ele>
        <time>2026-07-08T06:54:38Z</time>
      </trkpt>
      <trkpt lat="43.02367" lon="0.31317">
        <ele>702.4</ele>
        <time>2026-07-08T06:54:39Z</time>
      </trkpt>
      <trkpt lat="43.02366" lon="0.31317">
        <ele>702.4</ele>
        <time>2026-07-08T06:54:39Z</time>
      </trkpt>
      <trkpt lat="43.02366" lon="0.31318">
        <ele>702.4</ele>
        <time>2026-07-08T06:54:40Z</time>
      </trkpt>
      <trkpt lat="43.02365" lon="0.31318">
        <ele>702.4</ele>
        <time>2026-07-08T06:54:41Z</time>
      </trkpt>
      <trkpt lat="43.02364" lon="0.31318">
        <ele>703.4</ele>
        <time>2026-07-08T06:54:41Z</time>
      </trkpt>
      <trkpt lat="43.02364" lon="0.31319">
        <ele>703.4</ele>
        <time>2026-07-08T06:54:42Z</time>
      </trkpt>
      <trkpt lat="43.02363" lon="0.31319">
        <ele>704.4</ele>
        <time>2026-07-08T06:54:43Z</time>
      </trkpt>
      <trkpt lat="43.02362" lon="0.31319">
        <ele>705.4</ele>
        <time>2026-07-08T06:54:43Z</time>
      </trkpt>
      <trkpt lat="43.02361" lon="0.31319">
        <ele>705.4</ele>
        <time>2026-07-08T06:54:44Z</time>
      </trkpt>
      <trkpt lat="43.02361" lon="0.31319">
        <ele>706.4</ele>
        <time>2026-07-08T06:54:44Z</time>
      </trkpt>
      <trkpt lat="43.0236" lon="0.31319">
        <ele>706.4</ele>
        <time>2026-07-08T06:54:45Z</time>
      </trkpt>
      <trkpt lat="43.02359" lon="0.31319">
        <ele>706.4</ele>
        <time>2026-07-08T06:54:46Z</time>
      </trkpt>
      <trkpt lat="43.02359" lon="0.31319">
        <ele>706.4</ele>
        <time>2026-07-08T06:54:46Z</time>
      </trkpt>
      <trkpt lat="43.02358" lon="0.31319">
        <ele>705.4</ele>
        <time>2026-07-08T06:54:47Z</time>
      </trkpt>
      <trkpt lat="43.02357" lon="0.31319">
        <ele>705.4</ele>
        <time>2026-07-08T06:54:48Z</time>
      </trkpt>
      <trkpt lat="43.02357" lon="0.31318">
        <ele>705.4</ele>
        <time>2026-07-08T06:54:48Z</time>
      </trkpt>
      <trkpt lat="43.02356" lon="0.31318">
        <ele>705.4</ele>
        <time>2026-07-08T06:54:49Z</time>
      </trkpt>
      <trkpt lat="43.02355" lon="0.31318">
        <ele>705.4</ele>
        <time>2026-07-08T06:54:50Z</time>
      </trkpt>
      <trkpt lat="43.02355" lon="0.31318">
        <ele>706.4</ele>
        <time>2026-07-08T06:54:50Z</time>
      </trkpt>
      <trkpt lat="43.02354" lon="0.31318">
        <ele>706.4</ele>
        <time>2026-07-08T06:54:51Z</time>
      </trkpt>
      <trkpt lat="43.02354" lon="0.31318">
        <ele>706.4</ele>
        <time>2026-07-08T06:54:52Z</time>
      </trkpt>
      <trkpt lat="43.02353" lon="0.31317">
        <ele>706.4</ele>
        <time>2026-07-08T06:54:52Z</time>
      </trkpt>
      <trkpt lat="43.02352" lon="0.31317">
        <ele>706.4</ele>
        <time>2026-07-08T06:54:53Z</time>
      </trkpt>
      <trkpt lat="43.02352" lon="0.31317">
        <ele>705.4</ele>
        <time>2026-07-08T06:54:54Z</time>
      </trkpt>
      <trkpt lat="43.02352" lon="0.31317">
        <ele>705.4</ele>
        <time>2026-07-08T06:54:54Z</time>
      </trkpt>
      <trkpt lat="43.02351" lon="0.31316">
        <ele>705.4</ele>
        <time>2026-07-08T06:54:55Z</time>
      </trkpt>
      <trkpt lat="43.02351" lon="0.31315">
        <ele>705.4</ele>
        <time>2026-07-08T06:54:56Z</time>
      </trkpt>
      <trkpt lat="43.0235" lon="0.31314">
        <ele>704.4</ele>
        <time>2026-07-08T06:54:57Z</time>
      </trkpt>
      <trkpt lat="43.0235" lon="0.31313">
        <ele>704.4</ele>
        <time>2026-07-08T06:54:58Z</time>
      </trkpt>
      <trkpt lat="43.02349" lon="0.31313">
        <ele>705.4</ele>
        <time>2026-07-08T06:54:59Z</time>
      </trkpt>
      <trkpt lat="43.02349" lon="0.31312">
        <ele>705.4</ele>
        <time>2026-07-08T06:54:59Z</time>
      </trkpt>
      <trkpt lat="43.02348" lon="0.31312">
        <ele>705.4</ele>
        <time>2026-07-08T06:55:00Z</time>
      </trkpt>
      <trkpt lat="43.02348" lon="0.31311">
        <ele>705.4</ele>
        <time>2026-07-08T06:55:01Z</time>
      </trkpt>
      <trkpt lat="43.02348" lon="0.3131">
        <ele>706.4</ele>
        <time>2026-07-08T06:55:02Z</time>
      </trkpt>
      <trkpt lat="43.02348" lon="0.3131">
        <ele>706.4</ele>
        <time>2026-07-08T06:55:02Z</time>
      </trkpt>
      <trkpt lat="43.02347" lon="0.3131">
        <ele>707.4</ele>
        <time>2026-07-08T06:55:03Z</time>
      </trkpt>
      <trkpt lat="43.02347" lon="0.31311">
        <ele>707.4</ele>
        <time>2026-07-08T06:55:04Z</time>
      </trkpt>
      <trkpt lat="43.02346" lon="0.31312">
        <ele>708.4</ele>
        <time>2026-07-08T06:55:05Z</time>
      </trkpt>
      <trkpt lat="43.02346" lon="0.31313">
        <ele>708.4</ele>
        <time>2026-07-08T06:55:05Z</time>
      </trkpt>
      <trkpt lat="43.02345" lon="0.31313">
        <ele>708.4</ele>
        <time>2026-07-08T06:55:06Z</time>
      </trkpt>
      <trkpt lat="43.02344" lon="0.31314">
        <ele>708.4</ele>
        <time>2026-07-08T06:55:07Z</time>
      </trkpt>
      <trkpt lat="43.02344" lon="0.31315">
        <ele>709.4</ele>
        <time>2026-07-08T06:55:07Z</time>
      </trkpt>
      <trkpt lat="43.02343" lon="0.31315">
        <ele>709.4</ele>
        <time>2026-07-08T06:55:08Z</time>
      </trkpt>
      <trkpt lat="43.02343" lon="0.31316">
        <ele>709.4</ele>
        <time>2026-07-08T06:55:09Z</time>
      </trkpt>
      <trkpt lat="43.02342" lon="0.31316">
        <ele>710.4</ele>
        <time>2026-07-08T06:55:09Z</time>
      </trkpt>
      <trkpt lat="43.02341" lon="0.31316">
        <ele>710.4</ele>
        <time>2026-07-08T06:55:10Z</time>
      </trkpt>
      <trkpt lat="43.02341" lon="0.31317">
        <ele>710.4</ele>
        <time>2026-07-08T06:55:11Z</time>
      </trkpt>
      <trkpt lat="43.0234" lon="0.31317">
        <ele>710.4</ele>
        <time>2026-07-08T06:55:11Z</time>
      </trkpt>
      <trkpt lat="43.0234" lon="0.31317">
        <ele>710.4</ele>
        <time>2026-07-08T06:55:12Z</time>
      </trkpt>
      <trkpt lat="43.02339" lon="0.31317">
        <ele>711.4</ele>
        <time>2026-07-08T06:55:12Z</time>
      </trkpt>
      <trkpt lat="43.02339" lon="0.31317">
        <ele>711.4</ele>
        <time>2026-07-08T06:55:13Z</time>
      </trkpt>
      <trkpt lat="43.02339" lon="0.31318">
        <ele>711.4</ele>
        <time>2026-07-08T06:55:14Z</time>
      </trkpt>
      <trkpt lat="43.02338" lon="0.31318">
        <ele>711.4</ele>
        <time>2026-07-08T06:55:15Z</time>
      </trkpt>
      <trkpt lat="43.02338" lon="0.31319">
        <ele>711.4</ele>
        <time>2026-07-08T06:55:15Z</time>
      </trkpt>
      <trkpt lat="43.02337" lon="0.31319">
        <ele>711.4</ele>
        <time>2026-07-08T06:55:16Z</time>
      </trkpt>
      <trkpt lat="43.02337" lon="0.31319">
        <ele>711.4</ele>
        <time>2026-07-08T06:55:16Z</time>
      </trkpt>
      <trkpt lat="43.02336" lon="0.31319">
        <ele>711.4</ele>
        <time>2026-07-08T06:55:17Z</time>
      </trkpt>
      <trkpt lat="43.02335" lon="0.31319">
        <ele>711.4</ele>
        <time>2026-07-08T06:55:18Z</time>
      </trkpt>
      <trkpt lat="43.02335" lon="0.31319">
        <ele>712.4</ele>
        <time>2026-07-08T06:55:18Z</time>
      </trkpt>
      <trkpt lat="43.02334" lon="0.3132">
        <ele>712.4</ele>
        <time>2026-07-08T06:55:19Z</time>
      </trkpt>
      <trkpt lat="43.02334" lon="0.3132">
        <ele>712.4</ele>
        <time>2026-07-08T06:55:20Z</time>
      </trkpt>
      <trkpt lat="43.02333" lon="0.3132">
        <ele>713.4</ele>
        <time>2026-07-08T06:55:20Z</time>
      </trkpt>
      <trkpt lat="43.02332" lon="0.3132">
        <ele>713.4</ele>
        <time>2026-07-08T06:55:21Z</time>
      </trkpt>
      <trkpt lat="43.02332" lon="0.3132">
        <ele>713.4</ele>
        <time>2026-07-08T06:55:22Z</time>
      </trkpt>
      <trkpt lat="43.02331" lon="0.3132">
        <ele>713.4</ele>
        <time>2026-07-08T06:55:22Z</time>
      </trkpt>
      <trkpt lat="43.02331" lon="0.3132">
        <ele>713.4</ele>
        <time>2026-07-08T06:55:23Z</time>
      </trkpt>
      <trkpt lat="43.0233" lon="0.3132">
        <ele>713.4</ele>
        <time>2026-07-08T06:55:24Z</time>
      </trkpt>
      <trkpt lat="43.0233" lon="0.3132">
        <ele>714.4</ele>
        <time>2026-07-08T06:55:24Z</time>
      </trkpt>
      <trkpt lat="43.02329" lon="0.3132">
        <ele>714.4</ele>
        <time>2026-07-08T06:55:25Z</time>
      </trkpt>
      <trkpt lat="43.02329" lon="0.31321">
        <ele>714.4</ele>
        <time>2026-07-08T06:55:25Z</time>
      </trkpt>
      <trkpt lat="43.02328" lon="0.31321">
        <ele>714.4</ele>
        <time>2026-07-08T06:55:26Z</time>
      </trkpt>
      <trkpt lat="43.02328" lon="0.31322">
        <ele>714.4</ele>
        <time>2026-07-08T06:55:27Z</time>
      </trkpt>
      <trkpt lat="43.02327" lon="0.31322">
        <ele>714.4</ele>
        <time>2026-07-08T06:55:27Z</time>
      </trkpt>
      <trkpt lat="43.02327" lon="0.31322">
        <ele>714.4</ele>
        <time>2026-07-08T06:55:28Z</time>
      </trkpt>
      <trkpt lat="43.02326" lon="0.31322">
        <ele>715.4</ele>
        <time>2026-07-08T06:55:29Z</time>
      </trkpt>
      <trkpt lat="43.02326" lon="0.31322">
        <ele>714.4</ele>
        <time>2026-07-08T06:55:29Z</time>
      </trkpt>
      <trkpt lat="43.02326" lon="0.31323">
        <ele>714.4</ele>
        <time>2026-07-08T06:55:30Z</time>
      </trkpt>
      <trkpt lat="43.02326" lon="0.31323">
        <ele>714.4</ele>
        <time>2026-07-08T06:55:30Z</time>
      </trkpt>
      <trkpt lat="43.02325" lon="0.31323">
        <ele>714.4</ele>
        <time>2026-07-08T06:55:31Z</time>
      </trkpt>
      <trkpt lat="43.02325" lon="0.31324">
        <ele>715.4</ele>
        <time>2026-07-08T06:55:32Z</time>
      </trkpt>
      <trkpt lat="43.02325" lon="0.31324">
        <ele>715.4</ele>
        <time>2026-07-08T06:55:32Z</time>
      </trkpt>
      <trkpt lat="43.02324" lon="0.31324">
        <ele>715.4</ele>
        <time>2026-07-08T06:55:33Z</time>
      </trkpt>
      <trkpt lat="43.02324" lon="0.31324">
        <ele>716.4</ele>
        <time>2026-07-08T06:55:33Z</time>
      </trkpt>
      <trkpt lat="43.02323" lon="0.31324">
        <ele>716.4</ele>
        <time>2026-07-08T06:55:34Z</time>
      </trkpt>
      <trkpt lat="43.02323" lon="0.31325">
        <ele>716.4</ele>
        <time>2026-07-08T06:55:35Z</time>
      </trkpt>
      <trkpt lat="43.02322" lon="0.31325">
        <ele>715.4</ele>
        <time>2026-07-08T06:55:35Z</time>
      </trkpt>
      <trkpt lat="43.02322" lon="0.31325">
        <ele>715.4</ele>
        <time>2026-07-08T06:55:36Z</time>
      </trkpt>
      <trkpt lat="43.02322" lon="0.31325">
        <ele>715.4</ele>
        <time>2026-07-08T06:55:37Z</time>
      </trkpt>
      <trkpt lat="43.02321" lon="0.31325">
        <ele>715.4</ele>
        <time>2026-07-08T06:55:37Z</time>
      </trkpt>
      <trkpt lat="43.02321" lon="0.31325">
        <ele>715.4</ele>
        <time>2026-07-08T06:55:38Z</time>
      </trkpt>
      <trkpt lat="43.0232" lon="0.31325">
        <ele>715.4</ele>
        <time>2026-07-08T06:55:39Z</time>
      </trkpt>
      <trkpt lat="43.02319" lon="0.31325">
        <ele>715.4</ele>
        <time>2026-07-08T06:55:39Z</time>
      </trkpt>
      <trkpt lat="43.02319" lon="0.31324">
        <ele>716.4</ele>
        <time>2026-07-08T06:55:40Z</time>
      </trkpt>
      <trkpt lat="43.02318" lon="0.31324">
        <ele>716.4</ele>
        <time>2026-07-08T06:55:41Z</time>
      </trkpt>
      <trkpt lat="43.02318" lon="0.31324">
        <ele>716.4</ele>
        <time>2026-07-08T06:55:41Z</time>
      </trkpt>
      <trkpt lat="43.02317" lon="0.31324">
        <ele>716.4</ele>
        <time>2026-07-08T06:55:42Z</time>
      </trkpt>
      <trkpt lat="43.02316" lon="0.31324">
        <ele>716.4</ele>
        <time>2026-07-08T06:55:42Z</time>
      </trkpt>
      <trkpt lat="43.02316" lon="0.31324">
        <ele>716.4</ele>
        <time>2026-07-08T06:55:43Z</time>
      </trkpt>
      <trkpt lat="43.02315" lon="0.31324">
        <ele>716.4</ele>
        <time>2026-07-08T06:55:44Z</time>
      </trkpt>
      <trkpt lat="43.02314" lon="0.31323">
        <ele>716.4</ele>
        <time>2026-07-08T06:55:44Z</time>
      </trkpt>
      <trkpt lat="43.02314" lon="0.31323">
        <ele>716.4</ele>
        <time>2026-07-08T06:55:45Z</time>
      </trkpt>
      <trkpt lat="43.02313" lon="0.31323">
        <ele>716.4</ele>
        <time>2026-07-08T06:55:45Z</time>
      </trkpt>
      <trkpt lat="43.02312" lon="0.31322">
        <ele>716.4</ele>
        <time>2026-07-08T06:55:46Z</time>
      </trkpt>
      <trkpt lat="43.02312" lon="0.31322">
        <ele>716.4</ele>
        <time>2026-07-08T06:55:46Z</time>
      </trkpt>
      <trkpt lat="43.02311" lon="0.31321">
        <ele>716.4</ele>
        <time>2026-07-08T06:55:47Z</time>
      </trkpt>
      <trkpt lat="43.0231" lon="0.31321">
        <ele>716.4</ele>
        <time>2026-07-08T06:55:48Z</time>
      </trkpt>
      <trkpt lat="43.0231" lon="0.3132">
        <ele>716.4</ele>
        <time>2026-07-08T06:55:48Z</time>
      </trkpt>
      <trkpt lat="43.02309" lon="0.3132">
        <ele>716.4</ele>
        <time>2026-07-08T06:55:49Z</time>
      </trkpt>
      <trkpt lat="43.02308" lon="0.3132">
        <ele>717.4</ele>
        <time>2026-07-08T06:55:49Z</time>
      </trkpt>
      <trkpt lat="43.02308" lon="0.31319">
        <ele>717.4</ele>
        <time>2026-07-08T06:55:50Z</time>
      </trkpt>
      <trkpt lat="43.02307" lon="0.31319">
        <ele>717.4</ele>
        <time>2026-07-08T06:55:50Z</time>
      </trkpt>
      <trkpt lat="43.02307" lon="0.31319">
        <ele>717.4</ele>
        <time>2026-07-08T06:55:51Z</time>
      </trkpt>
      <trkpt lat="43.02306" lon="0.31319">
        <ele>717.4</ele>
        <time>2026-07-08T06:55:51Z</time>
      </trkpt>
      <trkpt lat="43.02305" lon="0.31318">
        <ele>716.4</ele>
        <time>2026-07-08T06:55:52Z</time>
      </trkpt>
      <trkpt lat="43.02305" lon="0.31318">
        <ele>716.4</ele>
        <time>2026-07-08T06:55:53Z</time>
      </trkpt>
      <trkpt lat="43.02304" lon="0.31318">
        <ele>716.4</ele>
        <time>2026-07-08T06:55:53Z</time>
      </trkpt>
      <trkpt lat="43.02303" lon="0.31317">
        <ele>716.4</ele>
        <time>2026-07-08T06:55:54Z</time>
      </trkpt>
      <trkpt lat="43.02303" lon="0.31317">
        <ele>716.4</ele>
        <time>2026-07-08T06:55:54Z</time>
      </trkpt>
      <trkpt lat="43.02302" lon="0.31317">
        <ele>716.4</ele>
        <time>2026-07-08T06:55:55Z</time>
      </trkpt>
      <trkpt lat="43.02301" lon="0.31317">
        <ele>716.4</ele>
        <time>2026-07-08T06:55:56Z</time>
      </trkpt>
      <trkpt lat="43.02301" lon="0.31317">
        <ele>717.4</ele>
        <time>2026-07-08T06:55:56Z</time>
      </trkpt>
      <trkpt lat="43.023" lon="0.31317">
        <ele>717.4</ele>
        <time>2026-07-08T06:55:57Z</time>
      </trkpt>
      <trkpt lat="43.02299" lon="0.31318">
        <ele>716.4</ele>
        <time>2026-07-08T06:55:58Z</time>
      </trkpt>
      <trkpt lat="43.02298" lon="0.31319">
        <ele>716.4</ele>
        <time>2026-07-08T06:55:59Z</time>
      </trkpt>
      <trkpt lat="43.02297" lon="0.31319">
        <ele>716.4</ele>
        <time>2026-07-08T06:55:59Z</time>
      </trkpt>
      <trkpt lat="43.02297" lon="0.31319">
        <ele>716.4</ele>
        <time>2026-07-08T06:56:00Z</time>
      </trkpt>
      <trkpt lat="43.02296" lon="0.31319">
        <ele>716.4</ele>
        <time>2026-07-08T06:56:01Z</time>
      </trkpt>
      <trkpt lat="43.02295" lon="0.31319">
        <ele>716.4</ele>
        <time>2026-07-08T06:56:01Z</time>
      </trkpt>
      <trkpt lat="43.02295" lon="0.31319">
        <ele>716.4</ele>
        <time>2026-07-08T06:56:02Z</time>
      </trkpt>
      <trkpt lat="43.02294" lon="0.3132">
        <ele>715.4</ele>
        <time>2026-07-08T06:56:02Z</time>
      </trkpt>
      <trkpt lat="43.02293" lon="0.3132">
        <ele>715.4</ele>
        <time>2026-07-08T06:56:03Z</time>
      </trkpt>
      <trkpt lat="43.02293" lon="0.3132">
        <ele>715.4</ele>
        <time>2026-07-08T06:56:04Z</time>
      </trkpt>
      <trkpt lat="43.02292" lon="0.31321">
        <ele>715.4</ele>
        <time>2026-07-08T06:56:04Z</time>
      </trkpt>
      <trkpt lat="43.02292" lon="0.31321">
        <ele>715.4</ele>
        <time>2026-07-08T06:56:05Z</time>
      </trkpt>
      <trkpt lat="43.02291" lon="0.31322">
        <ele>715.4</ele>
        <time>2026-07-08T06:56:05Z</time>
      </trkpt>
      <trkpt lat="43.02291" lon="0.31322">
        <ele>715.4</ele>
        <time>2026-07-08T06:56:06Z</time>
      </trkpt>
      <trkpt lat="43.0229" lon="0.31323">
        <ele>716.4</ele>
        <time>2026-07-08T06:56:07Z</time>
      </trkpt>
      <trkpt lat="43.0229" lon="0.31323">
        <ele>716.4</ele>
        <time>2026-07-08T06:56:07Z</time>
      </trkpt>
      <trkpt lat="43.02289" lon="0.31324">
        <ele>716.4</ele>
        <time>2026-07-08T06:56:08Z</time>
      </trkpt>
      <trkpt lat="43.02288" lon="0.31324">
        <ele>716.4</ele>
        <time>2026-07-08T06:56:08Z</time>
      </trkpt>
      <trkpt lat="43.02288" lon="0.31324">
        <ele>716.4</ele>
        <time>2026-07-08T06:56:09Z</time>
      </trkpt>
      <trkpt lat="43.02287" lon="0.31325">
        <ele>716.4</ele>
        <time>2026-07-08T06:56:10Z</time>
      </trkpt>
      <trkpt lat="43.02287" lon="0.31326">
        <ele>717.4</ele>
        <time>2026-07-08T06:56:10Z</time>
      </trkpt>
      <trkpt lat="43.02287" lon="0.31327">
        <ele>717.4</ele>
        <time>2026-07-08T06:56:11Z</time>
      </trkpt>
      <trkpt lat="43.02286" lon="0.31328">
        <ele>716.4</ele>
        <time>2026-07-08T06:56:11Z</time>
      </trkpt>
      <trkpt lat="43.02286" lon="0.31328">
        <ele>716.4</ele>
        <time>2026-07-08T06:56:12Z</time>
      </trkpt>
      <trkpt lat="43.02285" lon="0.31329">
        <ele>717.4</ele>
        <time>2026-07-08T06:56:13Z</time>
      </trkpt>
      <trkpt lat="43.02285" lon="0.3133">
        <ele>716.4</ele>
        <time>2026-07-08T06:56:13Z</time>
      </trkpt>
      <trkpt lat="43.02284" lon="0.3133">
        <ele>716.4</ele>
        <time>2026-07-08T06:56:14Z</time>
      </trkpt>
      <trkpt lat="43.02283" lon="0.31331">
        <ele>716.4</ele>
        <time>2026-07-08T06:56:15Z</time>
      </trkpt>
      <trkpt lat="43.02283" lon="0.31331">
        <ele>716.4</ele>
        <time>2026-07-08T06:56:15Z</time>
      </trkpt>
      <trkpt lat="43.02282" lon="0.31332">
        <ele>716.4</ele>
        <time>2026-07-08T06:56:16Z</time>
      </trkpt>
      <trkpt lat="43.02282" lon="0.31333">
        <ele>716.4</ele>
        <time>2026-07-08T06:56:16Z</time>
      </trkpt>
      <trkpt lat="43.02282" lon="0.31333">
        <ele>716.4</ele>
        <time>2026-07-08T06:56:17Z</time>
      </trkpt>
      <trkpt lat="43.02281" lon="0.31334">
        <ele>716.4</ele>
        <time>2026-07-08T06:56:18Z</time>
      </trkpt>
      <trkpt lat="43.02281" lon="0.31334">
        <ele>716.4</ele>
        <time>2026-07-08T06:56:18Z</time>
      </trkpt>
      <trkpt lat="43.0228" lon="0.31335">
        <ele>716.4</ele>
        <time>2026-07-08T06:56:19Z</time>
      </trkpt>
      <trkpt lat="43.0228" lon="0.31336">
        <ele>716.4</ele>
        <time>2026-07-08T06:56:19Z</time>
      </trkpt>
      <trkpt lat="43.02279" lon="0.31336">
        <ele>716.4</ele>
        <time>2026-07-08T06:56:20Z</time>
      </trkpt>
      <trkpt lat="43.02279" lon="0.31337">
        <ele>716.4</ele>
        <time>2026-07-08T06:56:21Z</time>
      </trkpt>
      <trkpt lat="43.02279" lon="0.31337">
        <ele>716.4</ele>
        <time>2026-07-08T06:56:21Z</time>
      </trkpt>
      <trkpt lat="43.02278" lon="0.31338">
        <ele>716.4</ele>
        <time>2026-07-08T06:56:22Z</time>
      </trkpt>
      <trkpt lat="43.02278" lon="0.31338">
        <ele>716.4</ele>
        <time>2026-07-08T06:56:22Z</time>
      </trkpt>
      <trkpt lat="43.02277" lon="0.31339">
        <ele>716.4</ele>
        <time>2026-07-08T06:56:23Z</time>
      </trkpt>
      <trkpt lat="43.02277" lon="0.31339">
        <ele>716.4</ele>
        <time>2026-07-08T06:56:24Z</time>
      </trkpt>
      <trkpt lat="43.02277" lon="0.3134">
        <ele>715.4</ele>
        <time>2026-07-08T06:56:24Z</time>
      </trkpt>
      <trkpt lat="43.02276" lon="0.31341">
        <ele>715.4</ele>
        <time>2026-07-08T06:56:25Z</time>
      </trkpt>
      <trkpt lat="43.02276" lon="0.31342">
        <ele>715.4</ele>
        <time>2026-07-08T06:56:25Z</time>
      </trkpt>
      <trkpt lat="43.02275" lon="0.31342">
        <ele>715.4</ele>
        <time>2026-07-08T06:56:26Z</time>
      </trkpt>
      <trkpt lat="43.02275" lon="0.31343">
        <ele>715.4</ele>
        <time>2026-07-08T06:56:27Z</time>
      </trkpt>
      <trkpt lat="43.02274" lon="0.31344">
        <ele>715.4</ele>
        <time>2026-07-08T06:56:27Z</time>
      </trkpt>
      <trkpt lat="43.02274" lon="0.31345">
        <ele>715.4</ele>
        <time>2026-07-08T06:56:28Z</time>
      </trkpt>
      <trkpt lat="43.02274" lon="0.31345">
        <ele>715.4</ele>
        <time>2026-07-08T06:56:28Z</time>
      </trkpt>
      <trkpt lat="43.02273" lon="0.31346">
        <ele>715.4</ele>
        <time>2026-07-08T06:56:29Z</time>
      </trkpt>
      <trkpt lat="43.02273" lon="0.31347">
        <ele>716.4</ele>
        <time>2026-07-08T06:56:30Z</time>
      </trkpt>
      <trkpt lat="43.02272" lon="0.31348">
        <ele>715.4</ele>
        <time>2026-07-08T06:56:30Z</time>
      </trkpt>
      <trkpt lat="43.02272" lon="0.31349">
        <ele>715.4</ele>
        <time>2026-07-08T06:56:31Z</time>
      </trkpt>
      <trkpt lat="43.02272" lon="0.3135">
        <ele>716.4</ele>
        <time>2026-07-08T06:56:32Z</time>
      </trkpt>
      <trkpt lat="43.02272" lon="0.3135">
        <ele>716.4</ele>
        <time>2026-07-08T06:56:32Z</time>
      </trkpt>
      <trkpt lat="43.02271" lon="0.31351">
        <ele>716.4</ele>
        <time>2026-07-08T06:56:33Z</time>
      </trkpt>
      <trkpt lat="43.02271" lon="0.31352">
        <ele>716.4</ele>
        <time>2026-07-08T06:56:33Z</time>
      </trkpt>
      <trkpt lat="43.0227" lon="0.31352">
        <ele>716.4</ele>
        <time>2026-07-08T06:56:34Z</time>
      </trkpt>
      <trkpt lat="43.0227" lon="0.31353">
        <ele>716.4</ele>
        <time>2026-07-08T06:56:34Z</time>
      </trkpt>
      <trkpt lat="43.0227" lon="0.31353">
        <ele>716.4</ele>
        <time>2026-07-08T06:56:35Z</time>
      </trkpt>
      <trkpt lat="43.02269" lon="0.31354">
        <ele>716.4</ele>
        <time>2026-07-08T06:56:36Z</time>
      </trkpt>
      <trkpt lat="43.02269" lon="0.31355">
        <ele>718.4</ele>
        <time>2026-07-08T06:56:36Z</time>
      </trkpt>
      <trkpt lat="43.02268" lon="0.31355">
        <ele>718.4</ele>
        <time>2026-07-08T06:56:37Z</time>
      </trkpt>
      <trkpt lat="43.02268" lon="0.31356">
        <ele>718.4</ele>
        <time>2026-07-08T06:56:37Z</time>
      </trkpt>
      <trkpt lat="43.02267" lon="0.31357">
        <ele>718.4</ele>
        <time>2026-07-08T06:56:38Z</time>
      </trkpt>
      <trkpt lat="43.02267" lon="0.31357">
        <ele>718.4</ele>
        <time>2026-07-08T06:56:39Z</time>
      </trkpt>
      <trkpt lat="43.02266" lon="0.31358">
        <ele>718.4</ele>
        <time>2026-07-08T06:56:39Z</time>
      </trkpt>
      <trkpt lat="43.02266" lon="0.31359">
        <ele>718.4</ele>
        <time>2026-07-08T06:56:40Z</time>
      </trkpt>
      <trkpt lat="43.02266" lon="0.31359">
        <ele>718.4</ele>
        <time>2026-07-08T06:56:40Z</time>
      </trkpt>
      <trkpt lat="43.02265" lon="0.3136">
        <ele>718.4</ele>
        <time>2026-07-08T06:56:41Z</time>
      </trkpt>
      <trkpt lat="43.02265" lon="0.31361">
        <ele>718.4</ele>
        <time>2026-07-08T06:56:42Z</time>
      </trkpt>
      <trkpt lat="43.02264" lon="0.31362">
        <ele>719.4</ele>
        <time>2026-07-08T06:56:42Z</time>
      </trkpt>
      <trkpt lat="43.02264" lon="0.31362">
        <ele>719.4</ele>
        <time>2026-07-08T06:56:43Z</time>
      </trkpt>
      <trkpt lat="43.02263" lon="0.31363">
        <ele>719.4</ele>
        <time>2026-07-08T06:56:43Z</time>
      </trkpt>
      <trkpt lat="43.02263" lon="0.31363">
        <ele>719.4</ele>
        <time>2026-07-08T06:56:44Z</time>
      </trkpt>
      <trkpt lat="43.02262" lon="0.31364">
        <ele>719.4</ele>
        <time>2026-07-08T06:56:45Z</time>
      </trkpt>
      <trkpt lat="43.02262" lon="0.31364">
        <ele>719.4</ele>
        <time>2026-07-08T06:56:45Z</time>
      </trkpt>
      <trkpt lat="43.02261" lon="0.31364">
        <ele>719.4</ele>
        <time>2026-07-08T06:56:46Z</time>
      </trkpt>
      <trkpt lat="43.02261" lon="0.31365">
        <ele>719.4</ele>
        <time>2026-07-08T06:56:46Z</time>
      </trkpt>
      <trkpt lat="43.0226" lon="0.31365">
        <ele>719.4</ele>
        <time>2026-07-08T06:56:47Z</time>
      </trkpt>
      <trkpt lat="43.02259" lon="0.31366">
        <ele>719.4</ele>
        <time>2026-07-08T06:56:48Z</time>
      </trkpt>
      <trkpt lat="43.02259" lon="0.31367">
        <ele>719.4</ele>
        <time>2026-07-08T06:56:48Z</time>
      </trkpt>
      <trkpt lat="43.02258" lon="0.31367">
        <ele>719.4</ele>
        <time>2026-07-08T06:56:49Z</time>
      </trkpt>
      <trkpt lat="43.02257" lon="0.31368">
        <ele>719.4</ele>
        <time>2026-07-08T06:56:50Z</time>
      </trkpt>
      <trkpt lat="43.02257" lon="0.31368">
        <ele>719.4</ele>
        <time>2026-07-08T06:56:50Z</time>
      </trkpt>
      <trkpt lat="43.02256" lon="0.31368">
        <ele>719.4</ele>
        <time>2026-07-08T06:56:51Z</time>
      </trkpt>
      <trkpt lat="43.02255" lon="0.31369">
        <ele>719.4</ele>
        <time>2026-07-08T06:56:52Z</time>
      </trkpt>
      <trkpt lat="43.02255" lon="0.31369">
        <ele>718.4</ele>
        <time>2026-07-08T06:56:53Z</time>
      </trkpt>
      <trkpt lat="43.02255" lon="0.31369">
        <ele>718.4</ele>
        <time>2026-07-08T06:56:53Z</time>
      </trkpt>
      <trkpt lat="43.02255" lon="0.3137">
        <ele>719.4</ele>
        <time>2026-07-08T06:56:54Z</time>
      </trkpt>
      <trkpt lat="43.02255" lon="0.3137">
        <ele>719.4</ele>
        <time>2026-07-08T06:56:55Z</time>
      </trkpt>
      <trkpt lat="43.02255" lon="0.3137">
        <ele>719.4</ele>
        <time>2026-07-08T06:56:55Z</time>
      </trkpt>
      <trkpt lat="43.02255" lon="0.3137">
        <ele>719.4</ele>
        <time>2026-07-08T06:56:56Z</time>
      </trkpt>
      <trkpt lat="43.02254" lon="0.31371">
        <ele>719.4</ele>
        <time>2026-07-08T06:56:56Z</time>
      </trkpt>
      <trkpt lat="43.02254" lon="0.31372">
        <ele>720.4</ele>
        <time>2026-07-08T06:56:57Z</time>
      </trkpt>
      <trkpt lat="43.02253" lon="0.31373">
        <ele>720.4</ele>
        <time>2026-07-08T06:56:58Z</time>
      </trkpt>
      <trkpt lat="43.02253" lon="0.31374">
        <ele>720.4</ele>
        <time>2026-07-08T06:56:59Z</time>
      </trkpt>
      <trkpt lat="43.02252" lon="0.31376">
        <ele>720.4</ele>
        <time>2026-07-08T06:57:00Z</time>
      </trkpt>
      <trkpt lat="43.02251" lon="0.31376">
        <ele>720.4</ele>
        <time>2026-07-08T06:57:00Z</time>
      </trkpt>
      <trkpt lat="43.0225" lon="0.31377">
        <ele>720.4</ele>
        <time>2026-07-08T06:57:01Z</time>
      </trkpt>
      <trkpt lat="43.0225" lon="0.31377">
        <ele>720.4</ele>
        <time>2026-07-08T06:57:01Z</time>
      </trkpt>
      <trkpt lat="43.02249" lon="0.31377">
        <ele>720.4</ele>
        <time>2026-07-08T06:57:02Z</time>
      </trkpt>
      <trkpt lat="43.02249" lon="0.31378">
        <ele>720.4</ele>
        <time>2026-07-08T06:57:03Z</time>
      </trkpt>
      <trkpt lat="43.02248" lon="0.31379">
        <ele>719.4</ele>
        <time>2026-07-08T06:57:04Z</time>
      </trkpt>
      <trkpt lat="43.02248" lon="0.31379">
        <ele>719.4</ele>
        <time>2026-07-08T06:57:05Z</time>
      </trkpt>
      <trkpt lat="43.02248" lon="0.31378">
        <ele>719.4</ele>
        <time>2026-07-08T06:57:06Z</time>
      </trkpt>
      <trkpt lat="43.02248" lon="0.31378">
        <ele>719.4</ele>
        <time>2026-07-08T06:57:06Z</time>
      </trkpt>
      <trkpt lat="43.02247" lon="0.31378">
        <ele>720.4</ele>
        <time>2026-07-08T06:57:07Z</time>
      </trkpt>
      <trkpt lat="43.02247" lon="0.31379">
        <ele>720.4</ele>
        <time>2026-07-08T06:57:07Z</time>
      </trkpt>
      <trkpt lat="43.02247" lon="0.31379">
        <ele>720.4</ele>
        <time>2026-07-08T06:57:08Z</time>
      </trkpt>
      <trkpt lat="43.02247" lon="0.31379">
        <ele>720.4</ele>
        <time>2026-07-08T06:57:09Z</time>
      </trkpt>
      <trkpt lat="43.02246" lon="0.3138">
        <ele>720.4</ele>
        <time>2026-07-08T06:57:09Z</time>
      </trkpt>
      <trkpt lat="43.02246" lon="0.31381">
        <ele>720.4</ele>
        <time>2026-07-08T06:57:10Z</time>
      </trkpt>
      <trkpt lat="43.02245" lon="0.31382">
        <ele>721.4</ele>
        <time>2026-07-08T06:57:10Z</time>
      </trkpt>
      <trkpt lat="43.02244" lon="0.31382">
        <ele>721.4</ele>
        <time>2026-07-08T06:57:11Z</time>
      </trkpt>
      <trkpt lat="43.02244" lon="0.31383">
        <ele>720.4</ele>
        <time>2026-07-08T06:57:12Z</time>
      </trkpt>
      <trkpt lat="43.02243" lon="0.31383">
        <ele>720.4</ele>
        <time>2026-07-08T06:57:12Z</time>
      </trkpt>
      <trkpt lat="43.02242" lon="0.31384">
        <ele>720.4</ele>
        <time>2026-07-08T06:57:13Z</time>
      </trkpt>
      <trkpt lat="43.02241" lon="0.31384">
        <ele>720.4</ele>
        <time>2026-07-08T06:57:13Z</time>
      </trkpt>
      <trkpt lat="43.02241" lon="0.31384">
        <ele>720.4</ele>
        <time>2026-07-08T06:57:14Z</time>
      </trkpt>
      <trkpt lat="43.0224" lon="0.31385">
        <ele>720.4</ele>
        <time>2026-07-08T06:57:15Z</time>
      </trkpt>
      <trkpt lat="43.02239" lon="0.31384">
        <ele>719.4</ele>
        <time>2026-07-08T06:57:15Z</time>
      </trkpt>
      <trkpt lat="43.02238" lon="0.31385">
        <ele>719.4</ele>
        <time>2026-07-08T06:57:16Z</time>
      </trkpt>
      <trkpt lat="43.02238" lon="0.31384">
        <ele>719.4</ele>
        <time>2026-07-08T06:57:16Z</time>
      </trkpt>
      <trkpt lat="43.02237" lon="0.31384">
        <ele>719.4</ele>
        <time>2026-07-08T06:57:17Z</time>
      </trkpt>
      <trkpt lat="43.02236" lon="0.31385">
        <ele>719.4</ele>
        <time>2026-07-08T06:57:18Z</time>
      </trkpt>
      <trkpt lat="43.02236" lon="0.31385">
        <ele>719.4</ele>
        <time>2026-07-08T06:57:18Z</time>
      </trkpt>
      <trkpt lat="43.02235" lon="0.31385">
        <ele>719.4</ele>
        <time>2026-07-08T06:57:19Z</time>
      </trkpt>
      <trkpt lat="43.02235" lon="0.31386">
        <ele>719.4</ele>
        <time>2026-07-08T06:57:20Z</time>
      </trkpt>
      <trkpt lat="43.02234" lon="0.31386">
        <ele>719.4</ele>
        <time>2026-07-08T06:57:20Z</time>
      </trkpt>
      <trkpt lat="43.02234" lon="0.31387">
        <ele>720.4</ele>
        <time>2026-07-08T06:57:21Z</time>
      </trkpt>
      <trkpt lat="43.02233" lon="0.31387">
        <ele>721.4</ele>
        <time>2026-07-08T06:57:21Z</time>
      </trkpt>
      <trkpt lat="43.02232" lon="0.31388">
        <ele>721.4</ele>
        <time>2026-07-08T06:57:22Z</time>
      </trkpt>
      <trkpt lat="43.02232" lon="0.31389">
        <ele>721.4</ele>
        <time>2026-07-08T06:57:23Z</time>
      </trkpt>
      <trkpt lat="43.02231" lon="0.31389">
        <ele>721.4</ele>
        <time>2026-07-08T06:57:23Z</time>
      </trkpt>
      <trkpt lat="43.02231" lon="0.3139">
        <ele>721.4</ele>
        <time>2026-07-08T06:57:24Z</time>
      </trkpt>
      <trkpt lat="43.02231" lon="0.31391">
        <ele>722.4</ele>
        <time>2026-07-08T06:57:24Z</time>
      </trkpt>
      <trkpt lat="43.0223" lon="0.31391">
        <ele>722.4</ele>
        <time>2026-07-08T06:57:25Z</time>
      </trkpt>
      <trkpt lat="43.02229" lon="0.31392">
        <ele>722.4</ele>
        <time>2026-07-08T06:57:25Z</time>
      </trkpt>
      <trkpt lat="43.02229" lon="0.31393">
        <ele>722.4</ele>
        <time>2026-07-08T06:57:26Z</time>
      </trkpt>
      <trkpt lat="43.02228" lon="0.31393">
        <ele>722.4</ele>
        <time>2026-07-08T06:57:27Z</time>
      </trkpt>
      <trkpt lat="43.02228" lon="0.31394">
        <ele>722.4</ele>
        <time>2026-07-08T06:57:27Z</time>
      </trkpt>
      <trkpt lat="43.02227" lon="0.31394">
        <ele>722.4</ele>
        <time>2026-07-08T06:57:28Z</time>
      </trkpt>
      <trkpt lat="43.02227" lon="0.31395">
        <ele>722.4</ele>
        <time>2026-07-08T06:57:28Z</time>
      </trkpt>
      <trkpt lat="43.02226" lon="0.31395">
        <ele>722.4</ele>
        <time>2026-07-08T06:57:29Z</time>
      </trkpt>
      <trkpt lat="43.02225" lon="0.31396">
        <ele>722.4</ele>
        <time>2026-07-08T06:57:30Z</time>
      </trkpt>
      <trkpt lat="43.02225" lon="0.31396">
        <ele>722.4</ele>
        <time>2026-07-08T06:57:30Z</time>
      </trkpt>
      <trkpt lat="43.02224" lon="0.31396">
        <ele>722.4</ele>
        <time>2026-07-08T06:57:31Z</time>
      </trkpt>
      <trkpt lat="43.02223" lon="0.31396">
        <ele>722.4</ele>
        <time>2026-07-08T06:57:32Z</time>
      </trkpt>
      <trkpt lat="43.02223" lon="0.31396">
        <ele>721.4</ele>
        <time>2026-07-08T06:57:32Z</time>
      </trkpt>
      <trkpt lat="43.02222" lon="0.31396">
        <ele>721.4</ele>
        <time>2026-07-08T06:57:33Z</time>
      </trkpt>
      <trkpt lat="43.02221" lon="0.31396">
        <ele>721.4</ele>
        <time>2026-07-08T06:57:34Z</time>
      </trkpt>
      <trkpt lat="43.02221" lon="0.31395">
        <ele>720.4</ele>
        <time>2026-07-08T06:57:34Z</time>
      </trkpt>
      <trkpt lat="43.0222" lon="0.31395">
        <ele>721.4</ele>
        <time>2026-07-08T06:57:35Z</time>
      </trkpt>
      <trkpt lat="43.02219" lon="0.31395">
        <ele>721.4</ele>
        <time>2026-07-08T06:57:36Z</time>
      </trkpt>
      <trkpt lat="43.02219" lon="0.31395">
        <ele>720.4</ele>
        <time>2026-07-08T06:57:37Z</time>
      </trkpt>
      <trkpt lat="43.02218" lon="0.31395">
        <ele>721.4</ele>
        <time>2026-07-08T06:57:37Z</time>
      </trkpt>
      <trkpt lat="43.02218" lon="0.31395">
        <ele>721.4</ele>
        <time>2026-07-08T06:57:38Z</time>
      </trkpt>
      <trkpt lat="43.02217" lon="0.31395">
        <ele>721.4</ele>
        <time>2026-07-08T06:57:39Z</time>
      </trkpt>
      <trkpt lat="43.02217" lon="0.31395">
        <ele>721.4</ele>
        <time>2026-07-08T06:57:39Z</time>
      </trkpt>
      <trkpt lat="43.02216" lon="0.31395">
        <ele>720.4</ele>
        <time>2026-07-08T06:57:40Z</time>
      </trkpt>
      <trkpt lat="43.02216" lon="0.31395">
        <ele>720.4</ele>
        <time>2026-07-08T06:57:41Z</time>
      </trkpt>
      <trkpt lat="43.02215" lon="0.31396">
        <ele>720.4</ele>
        <time>2026-07-08T06:57:41Z</time>
      </trkpt>
      <trkpt lat="43.02215" lon="0.31396">
        <ele>720.4</ele>
        <time>2026-07-08T06:57:42Z</time>
      </trkpt>
      <trkpt lat="43.02214" lon="0.31396">
        <ele>720.4</ele>
        <time>2026-07-08T06:57:43Z</time>
      </trkpt>
      <trkpt lat="43.02214" lon="0.31397">
        <ele>721.4</ele>
        <time>2026-07-08T06:57:44Z</time>
      </trkpt>
      <trkpt lat="43.02214" lon="0.31398">
        <ele>721.4</ele>
        <time>2026-07-08T06:57:44Z</time>
      </trkpt>
      <trkpt lat="43.02213" lon="0.31399">
        <ele>721.4</ele>
        <time>2026-07-08T06:57:45Z</time>
      </trkpt>
      <trkpt lat="43.02213" lon="0.31399">
        <ele>722.4</ele>
        <time>2026-07-08T06:57:46Z</time>
      </trkpt>
      <trkpt lat="43.02213" lon="0.314">
        <ele>722.4</ele>
        <time>2026-07-08T06:57:46Z</time>
      </trkpt>
      <trkpt lat="43.02212" lon="0.314">
        <ele>722.4</ele>
        <time>2026-07-08T06:57:47Z</time>
      </trkpt>
      <trkpt lat="43.02212" lon="0.31401">
        <ele>722.4</ele>
        <time>2026-07-08T06:57:48Z</time>
      </trkpt>
      <trkpt lat="43.02211" lon="0.31401">
        <ele>721.4</ele>
        <time>2026-07-08T06:57:48Z</time>
      </trkpt>
      <trkpt lat="43.02211" lon="0.31402">
        <ele>721.4</ele>
        <time>2026-07-08T06:57:49Z</time>
      </trkpt>
      <trkpt lat="43.0221" lon="0.31402">
        <ele>721.4</ele>
        <time>2026-07-08T06:57:50Z</time>
      </trkpt>
      <trkpt lat="43.0221" lon="0.31403">
        <ele>721.4</ele>
        <time>2026-07-08T06:57:50Z</time>
      </trkpt>
      <trkpt lat="43.02209" lon="0.31403">
        <ele>721.4</ele>
        <time>2026-07-08T06:57:51Z</time>
      </trkpt>
      <trkpt lat="43.02209" lon="0.31404">
        <ele>721.4</ele>
        <time>2026-07-08T06:57:52Z</time>
      </trkpt>
      <trkpt lat="43.02208" lon="0.31404">
        <ele>721.4</ele>
        <time>2026-07-08T06:57:53Z</time>
      </trkpt>
      <trkpt lat="43.02208" lon="0.31405">
        <ele>721.4</ele>
        <time>2026-07-08T06:57:53Z</time>
      </trkpt>
      <trkpt lat="43.02207" lon="0.31405">
        <ele>721.4</ele>
        <time>2026-07-08T06:57:54Z</time>
      </trkpt>
      <trkpt lat="43.02207" lon="0.31406">
        <ele>721.4</ele>
        <time>2026-07-08T06:57:55Z</time>
      </trkpt>
      <trkpt lat="43.02207" lon="0.31407">
        <ele>720.4</ele>
        <time>2026-07-08T06:57:55Z</time>
      </trkpt>
      <trkpt lat="43.02207" lon="0.31407">
        <ele>720.4</ele>
        <time>2026-07-08T06:57:56Z</time>
      </trkpt>
      <trkpt lat="43.02207" lon="0.31408">
        <ele>720.4</ele>
        <time>2026-07-08T06:57:57Z</time>
      </trkpt>
      <trkpt lat="43.02207" lon="0.31409">
        <ele>720.4</ele>
        <time>2026-07-08T06:57:57Z</time>
      </trkpt>
      <trkpt lat="43.02207" lon="0.3141">
        <ele>720.4</ele>
        <time>2026-07-08T06:57:58Z</time>
      </trkpt>
      <trkpt lat="43.02207" lon="0.31411">
        <ele>720.4</ele>
        <time>2026-07-08T06:57:59Z</time>
      </trkpt>
      <trkpt lat="43.02207" lon="0.31411">
        <ele>720.4</ele>
        <time>2026-07-08T06:57:59Z</time>
      </trkpt>
      <trkpt lat="43.02206" lon="0.31412">
        <ele>720.4</ele>
        <time>2026-07-08T06:58:00Z</time>
      </trkpt>
      <trkpt lat="43.02206" lon="0.31412">
        <ele>720.4</ele>
        <time>2026-07-08T06:58:01Z</time>
      </trkpt>
      <trkpt lat="43.02205" lon="0.31413">
        <ele>721.4</ele>
        <time>2026-07-08T06:58:01Z</time>
      </trkpt>
      <trkpt lat="43.02205" lon="0.31413">
        <ele>721.4</ele>
        <time>2026-07-08T06:58:02Z</time>
      </trkpt>
      <trkpt lat="43.02205" lon="0.31414">
        <ele>721.4</ele>
        <time>2026-07-08T06:58:03Z</time>
      </trkpt>
      <trkpt lat="43.02204" lon="0.31414">
        <ele>721.4</ele>
        <time>2026-07-08T06:58:03Z</time>
      </trkpt>
      <trkpt lat="43.02204" lon="0.31414">
        <ele>721.4</ele>
        <time>2026-07-08T06:58:04Z</time>
      </trkpt>
      <trkpt lat="43.02203" lon="0.31414">
        <ele>721.4</ele>
        <time>2026-07-08T06:58:05Z</time>
      </trkpt>
      <trkpt lat="43.02203" lon="0.31415">
        <ele>721.4</ele>
        <time>2026-07-08T06:58:05Z</time>
      </trkpt>
      <trkpt lat="43.02202" lon="0.31415">
        <ele>721.4</ele>
        <time>2026-07-08T06:58:06Z</time>
      </trkpt>
      <trkpt lat="43.02202" lon="0.31416">
        <ele>721.4</ele>
        <time>2026-07-08T06:58:07Z</time>
      </trkpt>
      <trkpt lat="43.02201" lon="0.31416">
        <ele>722.4</ele>
        <time>2026-07-08T06:58:07Z</time>
      </trkpt>
      <trkpt lat="43.02201" lon="0.31416">
        <ele>722.4</ele>
        <time>2026-07-08T06:58:08Z</time>
      </trkpt>
      <trkpt lat="43.022" lon="0.31416">
        <ele>722.4</ele>
        <time>2026-07-08T06:58:09Z</time>
      </trkpt>
      <trkpt lat="43.022" lon="0.31416">
        <ele>722.4</ele>
        <time>2026-07-08T06:58:09Z</time>
      </trkpt>
      <trkpt lat="43.02199" lon="0.31417">
        <ele>723.4</ele>
        <time>2026-07-08T06:58:10Z</time>
      </trkpt>
      <trkpt lat="43.02199" lon="0.31417">
        <ele>723.4</ele>
        <time>2026-07-08T06:58:11Z</time>
      </trkpt>
      <trkpt lat="43.02198" lon="0.31417">
        <ele>723.4</ele>
        <time>2026-07-08T06:58:12Z</time>
      </trkpt>
      <trkpt lat="43.02198" lon="0.31417">
        <ele>723.4</ele>
        <time>2026-07-08T06:58:12Z</time>
      </trkpt>
      <trkpt lat="43.02198" lon="0.31418">
        <ele>723.4</ele>
        <time>2026-07-08T06:58:13Z</time>
      </trkpt>
      <trkpt lat="43.02197" lon="0.31418">
        <ele>723.4</ele>
        <time>2026-07-08T06:58:14Z</time>
      </trkpt>
      <trkpt lat="43.02197" lon="0.31418">
        <ele>723.4</ele>
        <time>2026-07-08T06:58:15Z</time>
      </trkpt>
      <trkpt lat="43.02196" lon="0.31418">
        <ele>723.4</ele>
        <time>2026-07-08T06:58:15Z</time>
      </trkpt>
      <trkpt lat="43.02196" lon="0.31418">
        <ele>722.4</ele>
        <time>2026-07-08T06:58:16Z</time>
      </trkpt>
      <trkpt lat="43.02195" lon="0.31418">
        <ele>722.4</ele>
        <time>2026-07-08T06:58:17Z</time>
      </trkpt>
      <trkpt lat="43.02194" lon="0.31418">
        <ele>722.4</ele>
        <time>2026-07-08T06:58:18Z</time>
      </trkpt>
      <trkpt lat="43.02194" lon="0.31418">
        <ele>722.4</ele>
        <time>2026-07-08T06:58:18Z</time>
      </trkpt>
      <trkpt lat="43.02193" lon="0.31418">
        <ele>722.4</ele>
        <time>2026-07-08T06:58:19Z</time>
      </trkpt>
      <trkpt lat="43.02192" lon="0.31418">
        <ele>722.4</ele>
        <time>2026-07-08T06:58:20Z</time>
      </trkpt>
      <trkpt lat="43.02192" lon="0.31418">
        <ele>723.4</ele>
        <time>2026-07-08T06:58:20Z</time>
      </trkpt>
      <trkpt lat="43.02191" lon="0.31418">
        <ele>724.4</ele>
        <time>2026-07-08T06:58:21Z</time>
      </trkpt>
      <trkpt lat="43.02191" lon="0.31418">
        <ele>724.4</ele>
        <time>2026-07-08T06:58:22Z</time>
      </trkpt>
      <trkpt lat="43.02191" lon="0.31418">
        <ele>724.4</ele>
        <time>2026-07-08T06:58:23Z</time>
      </trkpt>
      <trkpt lat="43.0219" lon="0.31418">
        <ele>724.4</ele>
        <time>2026-07-08T06:58:24Z</time>
      </trkpt>
      <trkpt lat="43.0219" lon="0.31418">
        <ele>725.4</ele>
        <time>2026-07-08T06:58:24Z</time>
      </trkpt>
      <trkpt lat="43.0219" lon="0.31417">
        <ele>725.4</ele>
        <time>2026-07-08T06:58:25Z</time>
      </trkpt>
      <trkpt lat="43.0219" lon="0.31417">
        <ele>725.4</ele>
        <time>2026-07-08T06:58:26Z</time>
      </trkpt>
      <trkpt lat="43.02189" lon="0.31417">
        <ele>725.4</ele>
        <time>2026-07-08T06:58:27Z</time>
      </trkpt>
      <trkpt lat="43.02189" lon="0.31417">
        <ele>725.4</ele>
        <time>2026-07-08T06:58:27Z</time>
      </trkpt>
      <trkpt lat="43.02188" lon="0.31417">
        <ele>725.4</ele>
        <time>2026-07-08T06:58:28Z</time>
      </trkpt>
      <trkpt lat="43.02187" lon="0.31417">
        <ele>726.4</ele>
        <time>2026-07-08T06:58:29Z</time>
      </trkpt>
      <trkpt lat="43.02187" lon="0.31417">
        <ele>726.4</ele>
        <time>2026-07-08T06:58:29Z</time>
      </trkpt>
      <trkpt lat="43.02187" lon="0.31417">
        <ele>726.4</ele>
        <time>2026-07-08T06:58:30Z</time>
      </trkpt>
      <trkpt lat="43.02186" lon="0.31417">
        <ele>726.4</ele>
        <time>2026-07-08T06:58:31Z</time>
      </trkpt>
      <trkpt lat="43.02186" lon="0.31417">
        <ele>726.4</ele>
        <time>2026-07-08T06:58:31Z</time>
      </trkpt>
      <trkpt lat="43.02185" lon="0.31418">
        <ele>726.4</ele>
        <time>2026-07-08T06:58:32Z</time>
      </trkpt>
      <trkpt lat="43.02184" lon="0.31418">
        <ele>726.4</ele>
        <time>2026-07-08T06:58:33Z</time>
      </trkpt>
      <trkpt lat="43.02184" lon="0.31418">
        <ele>727.4</ele>
        <time>2026-07-08T06:58:34Z</time>
      </trkpt>
      <trkpt lat="43.02184" lon="0.31418">
        <ele>728.4</ele>
        <time>2026-07-08T06:58:34Z</time>
      </trkpt>
      <trkpt lat="43.02183" lon="0.31418">
        <ele>728.4</ele>
        <time>2026-07-08T06:58:35Z</time>
      </trkpt>
      <trkpt lat="43.02183" lon="0.31419">
        <ele>728.4</ele>
        <time>2026-07-08T06:58:36Z</time>
      </trkpt>
      <trkpt lat="43.02182" lon="0.31419">
        <ele>728.4</ele>
        <time>2026-07-08T06:58:37Z</time>
      </trkpt>
      <trkpt lat="43.02182" lon="0.31419">
        <ele>728.4</ele>
        <time>2026-07-08T06:58:37Z</time>
      </trkpt>
      <trkpt lat="43.02181" lon="0.31419">
        <ele>729.4</ele>
        <time>2026-07-08T06:58:38Z</time>
      </trkpt>
      <trkpt lat="43.02181" lon="0.31419">
        <ele>729.4</ele>
        <time>2026-07-08T06:58:39Z</time>
      </trkpt>
      <trkpt lat="43.0218" lon="0.31419">
        <ele>729.4</ele>
        <time>2026-07-08T06:58:40Z</time>
      </trkpt>
      <trkpt lat="43.0218" lon="0.31419">
        <ele>729.4</ele>
        <time>2026-07-08T06:58:41Z</time>
      </trkpt>
      <trkpt lat="43.0218" lon="0.31419">
        <ele>729.4</ele>
        <time>2026-07-08T06:58:41Z</time>
      </trkpt>
      <trkpt lat="43.0218" lon="0.31418">
        <ele>729.4</ele>
        <time>2026-07-08T06:58:42Z</time>
      </trkpt>
      <trkpt lat="43.02179" lon="0.31417">
        <ele>729.4</ele>
        <time>2026-07-08T06:58:43Z</time>
      </trkpt>
      <trkpt lat="43.02179" lon="0.31417">
        <ele>729.4</ele>
        <time>2026-07-08T06:58:44Z</time>
      </trkpt>
      <trkpt lat="43.02179" lon="0.31417">
        <ele>729.4</ele>
        <time>2026-07-08T06:58:44Z</time>
      </trkpt>
      <trkpt lat="43.02178" lon="0.31417">
        <ele>729.4</ele>
        <time>2026-07-08T06:58:45Z</time>
      </trkpt>
      <trkpt lat="43.02177" lon="0.31417">
        <ele>729.4</ele>
        <time>2026-07-08T06:58:46Z</time>
      </trkpt>
      <trkpt lat="43.02177" lon="0.31416">
        <ele>730.4</ele>
        <time>2026-07-08T06:58:47Z</time>
      </trkpt>
      <trkpt lat="43.02176" lon="0.31416">
        <ele>729.4</ele>
        <time>2026-07-08T06:58:47Z</time>
      </trkpt>
      <trkpt lat="43.02176" lon="0.31415">
        <ele>729.4</ele>
        <time>2026-07-08T06:58:48Z</time>
      </trkpt>
      <trkpt lat="43.02175" lon="0.31415">
        <ele>729.4</ele>
        <time>2026-07-08T06:58:49Z</time>
      </trkpt>
      <trkpt lat="43.02175" lon="0.31414">
        <ele>729.4</ele>
        <time>2026-07-08T06:58:50Z</time>
      </trkpt>
      <trkpt lat="43.02175" lon="0.31414">
        <ele>729.4</ele>
        <time>2026-07-08T06:58:51Z</time>
      </trkpt>
      <trkpt lat="43.02174" lon="0.31414">
        <ele>730.4</ele>
        <time>2026-07-08T06:58:51Z</time>
      </trkpt>
      <trkpt lat="43.02174" lon="0.31413">
        <ele>730.4</ele>
        <time>2026-07-08T06:58:52Z</time>
      </trkpt>
      <trkpt lat="43.02173" lon="0.31412">
        <ele>730.4</ele>
        <time>2026-07-08T06:58:53Z</time>
      </trkpt>
      <trkpt lat="43.02173" lon="0.31412">
        <ele>730.4</ele>
        <time>2026-07-08T06:58:53Z</time>
      </trkpt>
      <trkpt lat="43.02173" lon="0.31412">
        <ele>730.4</ele>
        <time>2026-07-08T06:58:54Z</time>
      </trkpt>
      <trkpt lat="43.02172" lon="0.31412">
        <ele>730.4</ele>
        <time>2026-07-08T06:58:55Z</time>
      </trkpt>
      <trkpt lat="43.02171" lon="0.31412">
        <ele>730.4</ele>
        <time>2026-07-08T06:58:56Z</time>
      </trkpt>
      <trkpt lat="43.02171" lon="0.31412">
        <ele>730.4</ele>
        <time>2026-07-08T06:58:57Z</time>
      </trkpt>
      <trkpt lat="43.0217" lon="0.31412">
        <ele>730.4</ele>
        <time>2026-07-08T06:58:57Z</time>
      </trkpt>
      <trkpt lat="43.02169" lon="0.31413">
        <ele>730.4</ele>
        <time>2026-07-08T06:58:58Z</time>
      </trkpt>
      <trkpt lat="43.0217" lon="0.31413">
        <ele>731.4</ele>
        <time>2026-07-08T06:58:58Z</time>
      </trkpt>
      <trkpt lat="43.02169" lon="0.31413">
        <ele>731.4</ele>
        <time>2026-07-08T06:58:59Z</time>
      </trkpt>
      <trkpt lat="43.02169" lon="0.31413">
        <ele>731.4</ele>
        <time>2026-07-08T06:59:00Z</time>
      </trkpt>
      <trkpt lat="43.02169" lon="0.31412">
        <ele>731.4</ele>
        <time>2026-07-08T06:59:01Z</time>
      </trkpt>
      <trkpt lat="43.02168" lon="0.31412">
        <ele>731.4</ele>
        <time>2026-07-08T06:59:01Z</time>
      </trkpt>
      <trkpt lat="43.02168" lon="0.31412">
        <ele>732.4</ele>
        <time>2026-07-08T06:59:02Z</time>
      </trkpt>
      <trkpt lat="43.02168" lon="0.31412">
        <ele>732.4</ele>
        <time>2026-07-08T06:59:03Z</time>
      </trkpt>
      <trkpt lat="43.02168" lon="0.31413">
        <ele>732.4</ele>
        <time>2026-07-08T06:59:04Z</time>
      </trkpt>
      <trkpt lat="43.02167" lon="0.31413">
        <ele>732.4</ele>
        <time>2026-07-08T06:59:04Z</time>
      </trkpt>
      <trkpt lat="43.02167" lon="0.31413">
        <ele>732.4</ele>
        <time>2026-07-08T06:59:05Z</time>
      </trkpt>
      <trkpt lat="43.02167" lon="0.31413">
        <ele>733.4</ele>
        <time>2026-07-08T06:59:06Z</time>
      </trkpt>
      <trkpt lat="43.02166" lon="0.31413">
        <ele>733.4</ele>
        <time>2026-07-08T06:59:07Z</time>
      </trkpt>
      <trkpt lat="43.02166" lon="0.31413">
        <ele>734.4</ele>
        <time>2026-07-08T06:59:07Z</time>
      </trkpt>
      <trkpt lat="43.02165" lon="0.31413">
        <ele>734.4</ele>
        <time>2026-07-08T06:59:08Z</time>
      </trkpt>
      <trkpt lat="43.02165" lon="0.31413">
        <ele>734.4</ele>
        <time>2026-07-08T06:59:09Z</time>
      </trkpt>
      <trkpt lat="43.02164" lon="0.31412">
        <ele>734.4</ele>
        <time>2026-07-08T06:59:10Z</time>
      </trkpt>
      <trkpt lat="43.02163" lon="0.31412">
        <ele>734.4</ele>
        <time>2026-07-08T06:59:10Z</time>
      </trkpt>
      <trkpt lat="43.02163" lon="0.31412">
        <ele>735.4</ele>
        <time>2026-07-08T06:59:11Z</time>
      </trkpt>
      <trkpt lat="43.02162" lon="0.31412">
        <ele>735.4</ele>
        <time>2026-07-08T06:59:12Z</time>
      </trkpt>
      <trkpt lat="43.02162" lon="0.31412">
        <ele>735.4</ele>
        <time>2026-07-08T06:59:13Z</time>
      </trkpt>
      <trkpt lat="43.02162" lon="0.31412">
        <ele>735.4</ele>
        <time>2026-07-08T06:59:13Z</time>
      </trkpt>
      <trkpt lat="43.02161" lon="0.31412">
        <ele>735.4</ele>
        <time>2026-07-08T06:59:14Z</time>
      </trkpt>
      <trkpt lat="43.02161" lon="0.31412">
        <ele>735.4</ele>
        <time>2026-07-08T06:59:15Z</time>
      </trkpt>
      <trkpt lat="43.02161" lon="0.31413">
        <ele>734.4</ele>
        <time>2026-07-08T06:59:15Z</time>
      </trkpt>
      <trkpt lat="43.0216" lon="0.31413">
        <ele>734.4</ele>
        <time>2026-07-08T06:59:16Z</time>
      </trkpt>
      <trkpt lat="43.0216" lon="0.31413">
        <ele>734.4</ele>
        <time>2026-07-08T06:59:17Z</time>
      </trkpt>
      <trkpt lat="43.0216" lon="0.31413">
        <ele>735.4</ele>
        <time>2026-07-08T06:59:17Z</time>
      </trkpt>
      <trkpt lat="43.02159" lon="0.31413">
        <ele>737.4</ele>
        <time>2026-07-08T06:59:18Z</time>
      </trkpt>
      <trkpt lat="43.02159" lon="0.31413">
        <ele>737.4</ele>
        <time>2026-07-08T06:59:19Z</time>
      </trkpt>
      <trkpt lat="43.02158" lon="0.31414">
        <ele>737.4</ele>
        <time>2026-07-08T06:59:19Z</time>
      </trkpt>
      <trkpt lat="43.02158" lon="0.31414">
        <ele>737.4</ele>
        <time>2026-07-08T06:59:20Z</time>
      </trkpt>
      <trkpt lat="43.02157" lon="0.31414">
        <ele>738.4</ele>
        <time>2026-07-08T06:59:21Z</time>
      </trkpt>
      <trkpt lat="43.02157" lon="0.31414">
        <ele>738.4</ele>
        <time>2026-07-08T06:59:21Z</time>
      </trkpt>
      <trkpt lat="43.02156" lon="0.31414">
        <ele>738.4</ele>
        <time>2026-07-08T06:59:22Z</time>
      </trkpt>
      <trkpt lat="43.02156" lon="0.31414">
        <ele>737.4</ele>
        <time>2026-07-08T06:59:23Z</time>
      </trkpt>
      <trkpt lat="43.02155" lon="0.31414">
        <ele>737.4</ele>
        <time>2026-07-08T06:59:24Z</time>
      </trkpt>
      <trkpt lat="43.02155" lon="0.31415">
        <ele>737.4</ele>
        <time>2026-07-08T06:59:24Z</time>
      </trkpt>
      <trkpt lat="43.02154" lon="0.31415">
        <ele>737.4</ele>
        <time>2026-07-08T06:59:25Z</time>
      </trkpt>
      <trkpt lat="43.02154" lon="0.31415">
        <ele>737.4</ele>
        <time>2026-07-08T06:59:26Z</time>
      </trkpt>
      <trkpt lat="43.02153" lon="0.31416">
        <ele>738.4</ele>
        <time>2026-07-08T06:59:26Z</time>
      </trkpt>
      <trkpt lat="43.02153" lon="0.31416">
        <ele>738.4</ele>
        <time>2026-07-08T06:59:27Z</time>
      </trkpt>
      <trkpt lat="43.02153" lon="0.31416">
        <ele>738.4</ele>
        <time>2026-07-08T06:59:28Z</time>
      </trkpt>
      <trkpt lat="43.02152" lon="0.31416">
        <ele>738.4</ele>
        <time>2026-07-08T06:59:28Z</time>
      </trkpt>
      <trkpt lat="43.02151" lon="0.31417">
        <ele>738.4</ele>
        <time>2026-07-08T06:59:29Z</time>
      </trkpt>
      <trkpt lat="43.02151" lon="0.31417">
        <ele>738.4</ele>
        <time>2026-07-08T06:59:29Z</time>
      </trkpt>
      <trkpt lat="43.0215" lon="0.31417">
        <ele>739.4</ele>
        <time>2026-07-08T06:59:30Z</time>
      </trkpt>
      <trkpt lat="43.0215" lon="0.31417">
        <ele>739.4</ele>
        <time>2026-07-08T06:59:31Z</time>
      </trkpt>
      <trkpt lat="43.02149" lon="0.31417">
        <ele>739.4</ele>
        <time>2026-07-08T06:59:31Z</time>
      </trkpt>
      <trkpt lat="43.02148" lon="0.31417">
        <ele>739.4</ele>
        <time>2026-07-08T06:59:32Z</time>
      </trkpt>
      <trkpt lat="43.02148" lon="0.31417">
        <ele>740.4</ele>
        <time>2026-07-08T06:59:33Z</time>
      </trkpt>
      <trkpt lat="43.02147" lon="0.31418">
        <ele>742.4</ele>
        <time>2026-07-08T06:59:33Z</time>
      </trkpt>
      <trkpt lat="43.02146" lon="0.31418">
        <ele>742.4</ele>
        <time>2026-07-08T06:59:34Z</time>
      </trkpt>
      <trkpt lat="43.02146" lon="0.31418">
        <ele>742.4</ele>
        <time>2026-07-08T06:59:34Z</time>
      </trkpt>
      <trkpt lat="43.02145" lon="0.31419">
        <ele>742.4</ele>
        <time>2026-07-08T06:59:35Z</time>
      </trkpt>
      <trkpt lat="43.02144" lon="0.31419">
        <ele>742.4</ele>
        <time>2026-07-08T06:59:36Z</time>
      </trkpt>
      <trkpt lat="43.02144" lon="0.31419">
        <ele>742.4</ele>
        <time>2026-07-08T06:59:36Z</time>
      </trkpt>
      <trkpt lat="43.02143" lon="0.3142">
        <ele>742.4</ele>
        <time>2026-07-08T06:59:37Z</time>
      </trkpt>
      <trkpt lat="43.02143" lon="0.3142">
        <ele>742.4</ele>
        <time>2026-07-08T06:59:37Z</time>
      </trkpt>
      <trkpt lat="43.02142" lon="0.3142">
        <ele>742.4</ele>
        <time>2026-07-08T06:59:38Z</time>
      </trkpt>
      <trkpt lat="43.02141" lon="0.31421">
        <ele>742.4</ele>
        <time>2026-07-08T06:59:39Z</time>
      </trkpt>
      <trkpt lat="43.02141" lon="0.31421">
        <ele>742.4</ele>
        <time>2026-07-08T06:59:39Z</time>
      </trkpt>
      <trkpt lat="43.0214" lon="0.31421">
        <ele>742.4</ele>
        <time>2026-07-08T06:59:40Z</time>
      </trkpt>
      <trkpt lat="43.0214" lon="0.31421">
        <ele>742.4</ele>
        <time>2026-07-08T06:59:40Z</time>
      </trkpt>
      <trkpt lat="43.02139" lon="0.31422">
        <ele>742.4</ele>
        <time>2026-07-08T06:59:41Z</time>
      </trkpt>
      <trkpt lat="43.02139" lon="0.31422">
        <ele>742.4</ele>
        <time>2026-07-08T06:59:42Z</time>
      </trkpt>
      <trkpt lat="43.02138" lon="0.31422">
        <ele>742.4</ele>
        <time>2026-07-08T06:59:42Z</time>
      </trkpt>
      <trkpt lat="43.02137" lon="0.31421">
        <ele>742.4</ele>
        <time>2026-07-08T06:59:43Z</time>
      </trkpt>
      <trkpt lat="43.02137" lon="0.31421">
        <ele>743.4</ele>
        <time>2026-07-08T06:59:43Z</time>
      </trkpt>
      <trkpt lat="43.02136" lon="0.31421">
        <ele>743.4</ele>
        <time>2026-07-08T06:59:44Z</time>
      </trkpt>
      <trkpt lat="43.02136" lon="0.31421">
        <ele>742.4</ele>
        <time>2026-07-08T06:59:44Z</time>
      </trkpt>
      <trkpt lat="43.02135" lon="0.31421">
        <ele>742.4</ele>
        <time>2026-07-08T06:59:45Z</time>
      </trkpt>
      <trkpt lat="43.02134" lon="0.31421">
        <ele>742.4</ele>
        <time>2026-07-08T06:59:46Z</time>
      </trkpt>
      <trkpt lat="43.02134" lon="0.31421">
        <ele>741.4</ele>
        <time>2026-07-08T06:59:46Z</time>
      </trkpt>
      <trkpt lat="43.02133" lon="0.31421">
        <ele>741.4</ele>
        <time>2026-07-08T06:59:47Z</time>
      </trkpt>
      <trkpt lat="43.02132" lon="0.31421">
        <ele>742.4</ele>
        <time>2026-07-08T06:59:47Z</time>
      </trkpt>
      <trkpt lat="43.02132" lon="0.31421">
        <ele>741.4</ele>
        <time>2026-07-08T06:59:48Z</time>
      </trkpt>
      <trkpt lat="43.02131" lon="0.3142">
        <ele>741.4</ele>
        <time>2026-07-08T06:59:49Z</time>
      </trkpt>
      <trkpt lat="43.0213" lon="0.3142">
        <ele>741.4</ele>
        <time>2026-07-08T06:59:49Z</time>
      </trkpt>
      <trkpt lat="43.0213" lon="0.3142">
        <ele>741.4</ele>
        <time>2026-07-08T06:59:50Z</time>
      </trkpt>
      <trkpt lat="43.02129" lon="0.3142">
        <ele>741.4</ele>
        <time>2026-07-08T06:59:51Z</time>
      </trkpt>
      <trkpt lat="43.02129" lon="0.31419">
        <ele>740.4</ele>
        <time>2026-07-08T06:59:51Z</time>
      </trkpt>
      <trkpt lat="43.02128" lon="0.31419">
        <ele>740.4</ele>
        <time>2026-07-08T06:59:52Z</time>
      </trkpt>
      <trkpt lat="43.02127" lon="0.31418">
        <ele>740.4</ele>
        <time>2026-07-08T06:59:53Z</time>
      </trkpt>
      <trkpt lat="43.02127" lon="0.31418">
        <ele>741.4</ele>
        <time>2026-07-08T06:59:53Z</time>
      </trkpt>
      <trkpt lat="43.02126" lon="0.31418">
        <ele>741.4</ele>
        <time>2026-07-08T06:59:54Z</time>
      </trkpt>
      <trkpt lat="43.02125" lon="0.31418">
        <ele>741.4</ele>
        <time>2026-07-08T06:59:54Z</time>
      </trkpt>
      <trkpt lat="43.02125" lon="0.31418">
        <ele>741.4</ele>
        <time>2026-07-08T06:59:55Z</time>
      </trkpt>
      <trkpt lat="43.02124" lon="0.31418">
        <ele>741.4</ele>
        <time>2026-07-08T06:59:56Z</time>
      </trkpt>
      <trkpt lat="43.02124" lon="0.31418">
        <ele>741.4</ele>
        <time>2026-07-08T06:59:56Z</time>
      </trkpt>
      <trkpt lat="43.02123" lon="0.31418">
        <ele>741.4</ele>
        <time>2026-07-08T06:59:57Z</time>
      </trkpt>
      <trkpt lat="43.02122" lon="0.31417">
        <ele>741.4</ele>
        <time>2026-07-08T06:59:58Z</time>
      </trkpt>
      <trkpt lat="43.02122" lon="0.31417">
        <ele>740.4</ele>
        <time>2026-07-08T06:59:58Z</time>
      </trkpt>
      <trkpt lat="43.02121" lon="0.31417">
        <ele>740.4</ele>
        <time>2026-07-08T06:59:59Z</time>
      </trkpt>
      <trkpt lat="43.02121" lon="0.31417">
        <ele>740.4</ele>
        <time>2026-07-08T06:59:59Z</time>
      </trkpt>
      <trkpt lat="43.0212" lon="0.31417">
        <ele>740.4</ele>
        <time>2026-07-08T07:00:00Z</time>
      </trkpt>
      <trkpt lat="43.0212" lon="0.31417">
        <ele>740.4</ele>
        <time>2026-07-08T07:00:01Z</time>
      </trkpt>
      <trkpt lat="43.02119" lon="0.31417">
        <ele>740.4</ele>
        <time>2026-07-08T07:00:01Z</time>
      </trkpt>
      <trkpt lat="43.02119" lon="0.31417">
        <ele>740.4</ele>
        <time>2026-07-08T07:00:02Z</time>
      </trkpt>
      <trkpt lat="43.02118" lon="0.31417">
        <ele>740.4</ele>
        <time>2026-07-08T07:00:02Z</time>
      </trkpt>
      <trkpt lat="43.02118" lon="0.31417">
        <ele>740.4</ele>
        <time>2026-07-08T07:00:03Z</time>
      </trkpt>
      <trkpt lat="43.02117" lon="0.31416">
        <ele>740.4</ele>
        <time>2026-07-08T07:00:04Z</time>
      </trkpt>
      <trkpt lat="43.02116" lon="0.31416">
        <ele>740.4</ele>
        <time>2026-07-08T07:00:04Z</time>
      </trkpt>
      <trkpt lat="43.02116" lon="0.31416">
        <ele>740.4</ele>
        <time>2026-07-08T07:00:05Z</time>
      </trkpt>
      <trkpt lat="43.02115" lon="0.31415">
        <ele>739.4</ele>
        <time>2026-07-08T07:00:05Z</time>
      </trkpt>
      <trkpt lat="43.02115" lon="0.31415">
        <ele>739.4</ele>
        <time>2026-07-08T07:00:06Z</time>
      </trkpt>
      <trkpt lat="43.02114" lon="0.31415">
        <ele>739.4</ele>
        <time>2026-07-08T07:00:07Z</time>
      </trkpt>
      <trkpt lat="43.02114" lon="0.31414">
        <ele>739.4</ele>
        <time>2026-07-08T07:00:07Z</time>
      </trkpt>
      <trkpt lat="43.02113" lon="0.31414">
        <ele>739.4</ele>
        <time>2026-07-08T07:00:08Z</time>
      </trkpt>
      <trkpt lat="43.02112" lon="0.31413">
        <ele>739.4</ele>
        <time>2026-07-08T07:00:09Z</time>
      </trkpt>
      <trkpt lat="43.02111" lon="0.31413">
        <ele>739.4</ele>
        <time>2026-07-08T07:00:09Z</time>
      </trkpt>
      <trkpt lat="43.02111" lon="0.31412">
        <ele>739.4</ele>
        <time>2026-07-08T07:00:10Z</time>
      </trkpt>
      <trkpt lat="43.0211" lon="0.31412">
        <ele>739.4</ele>
        <time>2026-07-08T07:00:11Z</time>
      </trkpt>
      <trkpt lat="43.02109" lon="0.31412">
        <ele>739.4</ele>
        <time>2026-07-08T07:00:11Z</time>
      </trkpt>
      <trkpt lat="43.02109" lon="0.31412">
        <ele>739.4</ele>
        <time>2026-07-08T07:00:12Z</time>
      </trkpt>
      <trkpt lat="43.02109" lon="0.31412">
        <ele>739.4</ele>
        <time>2026-07-08T07:00:13Z</time>
      </trkpt>
      <trkpt lat="43.02108" lon="0.31412">
        <ele>739.4</ele>
        <time>2026-07-08T07:00:14Z</time>
      </trkpt>
      <trkpt lat="43.02108" lon="0.31413">
        <ele>739.4</ele>
        <time>2026-07-08T07:00:15Z</time>
      </trkpt>
      <trkpt lat="43.02108" lon="0.31413">
        <ele>739.4</ele>
        <time>2026-07-08T07:00:15Z</time>
      </trkpt>
      <trkpt lat="43.02107" lon="0.31413">
        <ele>739.4</ele>
        <time>2026-07-08T07:00:16Z</time>
      </trkpt>
      <trkpt lat="43.02107" lon="0.31413">
        <ele>739.4</ele>
        <time>2026-07-08T07:00:16Z</time>
      </trkpt>
      <trkpt lat="43.02106" lon="0.31413">
        <ele>739.4</ele>
        <time>2026-07-08T07:00:17Z</time>
      </trkpt>
      <trkpt lat="43.02106" lon="0.31414">
        <ele>740.4</ele>
        <time>2026-07-08T07:00:18Z</time>
      </trkpt>
      <trkpt lat="43.02105" lon="0.31414">
        <ele>740.4</ele>
        <time>2026-07-08T07:00:18Z</time>
      </trkpt>
      <trkpt lat="43.02105" lon="0.31414">
        <ele>740.4</ele>
        <time>2026-07-08T07:00:19Z</time>
      </trkpt>
      <trkpt lat="43.02104" lon="0.31415">
        <ele>740.4</ele>
        <time>2026-07-08T07:00:19Z</time>
      </trkpt>
      <trkpt lat="43.02104" lon="0.31415">
        <ele>740.4</ele>
        <time>2026-07-08T07:00:20Z</time>
      </trkpt>
      <trkpt lat="43.02103" lon="0.31415">
        <ele>741.4</ele>
        <time>2026-07-08T07:00:21Z</time>
      </trkpt>
      <trkpt lat="43.02102" lon="0.31416">
        <ele>741.4</ele>
        <time>2026-07-08T07:00:22Z</time>
      </trkpt>
      <trkpt lat="43.02102" lon="0.31416">
        <ele>742.4</ele>
        <time>2026-07-08T07:00:22Z</time>
      </trkpt>
      <trkpt lat="43.02101" lon="0.31416">
        <ele>742.4</ele>
        <time>2026-07-08T07:00:23Z</time>
      </trkpt>
      <trkpt lat="43.02101" lon="0.31416">
        <ele>741.4</ele>
        <time>2026-07-08T07:00:24Z</time>
      </trkpt>
      <trkpt lat="43.02101" lon="0.31416">
        <ele>742.4</ele>
        <time>2026-07-08T07:00:24Z</time>
      </trkpt>
      <trkpt lat="43.021" lon="0.31417">
        <ele>742.4</ele>
        <time>2026-07-08T07:00:25Z</time>
      </trkpt>
      <trkpt lat="43.02099" lon="0.31417">
        <ele>742.4</ele>
        <time>2026-07-08T07:00:26Z</time>
      </trkpt>
      <trkpt lat="43.02099" lon="0.31417">
        <ele>742.4</ele>
        <time>2026-07-08T07:00:26Z</time>
      </trkpt>
      <trkpt lat="43.02098" lon="0.31417">
        <ele>742.4</ele>
        <time>2026-07-08T07:00:27Z</time>
      </trkpt>
      <trkpt lat="43.02098" lon="0.31417">
        <ele>743.4</ele>
        <time>2026-07-08T07:00:27Z</time>
      </trkpt>
      <trkpt lat="43.02097" lon="0.31417">
        <ele>743.4</ele>
        <time>2026-07-08T07:00:28Z</time>
      </trkpt>
      <trkpt lat="43.02096" lon="0.31417">
        <ele>743.4</ele>
        <time>2026-07-08T07:00:29Z</time>
      </trkpt>
      <trkpt lat="43.02096" lon="0.31417">
        <ele>743.4</ele>
        <time>2026-07-08T07:00:29Z</time>
      </trkpt>
      <trkpt lat="43.02095" lon="0.31417">
        <ele>743.4</ele>
        <time>2026-07-08T07:00:30Z</time>
      </trkpt>
      <trkpt lat="43.02094" lon="0.31417">
        <ele>743.4</ele>
        <time>2026-07-08T07:00:30Z</time>
      </trkpt>
      <trkpt lat="43.02094" lon="0.31417">
        <ele>743.4</ele>
        <time>2026-07-08T07:00:31Z</time>
      </trkpt>
      <trkpt lat="43.02093" lon="0.31417">
        <ele>743.4</ele>
        <time>2026-07-08T07:00:32Z</time>
      </trkpt>
      <trkpt lat="43.02092" lon="0.31416">
        <ele>743.4</ele>
        <time>2026-07-08T07:00:32Z</time>
      </trkpt>
      <trkpt lat="43.02092" lon="0.31416">
        <ele>743.4</ele>
        <time>2026-07-08T07:00:33Z</time>
      </trkpt>
      <trkpt lat="43.02091" lon="0.31415">
        <ele>743.4</ele>
        <time>2026-07-08T07:00:33Z</time>
      </trkpt>
      <trkpt lat="43.02091" lon="0.31415">
        <ele>744.4</ele>
        <time>2026-07-08T07:00:34Z</time>
      </trkpt>
      <trkpt lat="43.0209" lon="0.31414">
        <ele>744.4</ele>
        <time>2026-07-08T07:00:35Z</time>
      </trkpt>
      <trkpt lat="43.0209" lon="0.31414">
        <ele>743.4</ele>
        <time>2026-07-08T07:00:35Z</time>
      </trkpt>
      <trkpt lat="43.02089" lon="0.31414">
        <ele>743.4</ele>
        <time>2026-07-08T07:00:36Z</time>
      </trkpt>
      <trkpt lat="43.02089" lon="0.31414">
        <ele>743.4</ele>
        <time>2026-07-08T07:00:37Z</time>
      </trkpt>
      <trkpt lat="43.02088" lon="0.31414">
        <ele>744.4</ele>
        <time>2026-07-08T07:00:37Z</time>
      </trkpt>
      <trkpt lat="43.02087" lon="0.31414">
        <ele>744.4</ele>
        <time>2026-07-08T07:00:38Z</time>
      </trkpt>
      <trkpt lat="43.02087" lon="0.31414">
        <ele>744.4</ele>
        <time>2026-07-08T07:00:38Z</time>
      </trkpt>
      <trkpt lat="43.02086" lon="0.31413">
        <ele>744.4</ele>
        <time>2026-07-08T07:00:39Z</time>
      </trkpt>
      <trkpt lat="43.02086" lon="0.31413">
        <ele>744.4</ele>
        <time>2026-07-08T07:00:39Z</time>
      </trkpt>
      <trkpt lat="43.02085" lon="0.31413">
        <ele>745.4</ele>
        <time>2026-07-08T07:00:40Z</time>
      </trkpt>
      <trkpt lat="43.02084" lon="0.31413">
        <ele>745.4</ele>
        <time>2026-07-08T07:00:41Z</time>
      </trkpt>
      <trkpt lat="43.02084" lon="0.31413">
        <ele>745.4</ele>
        <time>2026-07-08T07:00:42Z</time>
      </trkpt>
      <trkpt lat="43.02083" lon="0.31412">
        <ele>745.4</ele>
        <time>2026-07-08T07:00:43Z</time>
      </trkpt>
      <trkpt lat="43.02082" lon="0.31412">
        <ele>744.4</ele>
        <time>2026-07-08T07:00:43Z</time>
      </trkpt>
      <trkpt lat="43.02082" lon="0.31411">
        <ele>745.4</ele>
        <time>2026-07-08T07:00:44Z</time>
      </trkpt>
      <trkpt lat="43.02081" lon="0.31411">
        <ele>745.4</ele>
        <time>2026-07-08T07:00:45Z</time>
      </trkpt>
      <trkpt lat="43.02081" lon="0.31411">
        <ele>745.4</ele>
        <time>2026-07-08T07:00:46Z</time>
      </trkpt>
      <trkpt lat="43.0208" lon="0.3141">
        <ele>745.4</ele>
        <time>2026-07-08T07:00:46Z</time>
      </trkpt>
      <trkpt lat="43.0208" lon="0.31409">
        <ele>745.4</ele>
        <time>2026-07-08T07:00:47Z</time>
      </trkpt>
      <trkpt lat="43.0208" lon="0.31408">
        <ele>745.4</ele>
        <time>2026-07-08T07:00:48Z</time>
      </trkpt>
      <trkpt lat="43.02079" lon="0.31407">
        <ele>744.4</ele>
        <time>2026-07-08T07:00:49Z</time>
      </trkpt>
      <trkpt lat="43.02079" lon="0.31406">
        <ele>744.4</ele>
        <time>2026-07-08T07:00:49Z</time>
      </trkpt>
      <trkpt lat="43.02079" lon="0.31406">
        <ele>744.4</ele>
        <time>2026-07-08T07:00:50Z</time>
      </trkpt>
      <trkpt lat="43.02078" lon="0.31405">
        <ele>744.4</ele>
        <time>2026-07-08T07:00:50Z</time>
      </trkpt>
      <trkpt lat="43.02078" lon="0.31405">
        <ele>744.4</ele>
        <time>2026-07-08T07:00:51Z</time>
      </trkpt>
      <trkpt lat="43.02077" lon="0.31404">
        <ele>744.4</ele>
        <time>2026-07-08T07:00:52Z</time>
      </trkpt>
      <trkpt lat="43.02077" lon="0.31404">
        <ele>745.4</ele>
        <time>2026-07-08T07:00:52Z</time>
      </trkpt>
      <trkpt lat="43.02077" lon="0.31403">
        <ele>745.4</ele>
        <time>2026-07-08T07:00:53Z</time>
      </trkpt>
      <trkpt lat="43.02076" lon="0.31403">
        <ele>745.4</ele>
        <time>2026-07-08T07:00:54Z</time>
      </trkpt>
      <trkpt lat="43.02076" lon="0.31403">
        <ele>745.4</ele>
        <time>2026-07-08T07:00:54Z</time>
      </trkpt>
      <trkpt lat="43.02075" lon="0.31402">
        <ele>745.4</ele>
        <time>2026-07-08T07:00:55Z</time>
      </trkpt>
      <trkpt lat="43.02075" lon="0.31401">
        <ele>745.4</ele>
        <time>2026-07-08T07:00:55Z</time>
      </trkpt>
      <trkpt lat="43.02074" lon="0.31401">
        <ele>745.4</ele>
        <time>2026-07-08T07:00:56Z</time>
      </trkpt>
      <trkpt lat="43.02074" lon="0.314">
        <ele>745.4</ele>
        <time>2026-07-08T07:00:57Z</time>
      </trkpt>
      <trkpt lat="43.02073" lon="0.314">
        <ele>745.4</ele>
        <time>2026-07-08T07:00:58Z</time>
      </trkpt>
      <trkpt lat="43.02073" lon="0.31399">
        <ele>745.4</ele>
        <time>2026-07-08T07:00:58Z</time>
      </trkpt>
      <trkpt lat="43.02072" lon="0.31399">
        <ele>745.4</ele>
        <time>2026-07-08T07:00:59Z</time>
      </trkpt>
      <trkpt lat="43.02072" lon="0.31399">
        <ele>745.4</ele>
        <time>2026-07-08T07:00:59Z</time>
      </trkpt>
      <trkpt lat="43.02071" lon="0.31398">
        <ele>745.4</ele>
        <time>2026-07-08T07:01:00Z</time>
      </trkpt>
      <trkpt lat="43.0207" lon="0.31398">
        <ele>745.4</ele>
        <time>2026-07-08T07:01:01Z</time>
      </trkpt>
      <trkpt lat="43.0207" lon="0.31397">
        <ele>744.4</ele>
        <time>2026-07-08T07:01:02Z</time>
      </trkpt>
      <trkpt lat="43.02069" lon="0.31397">
        <ele>744.4</ele>
        <time>2026-07-08T07:01:02Z</time>
      </trkpt>
      <trkpt lat="43.02069" lon="0.31397">
        <ele>744.4</ele>
        <time>2026-07-08T07:01:03Z</time>
      </trkpt>
      <trkpt lat="43.02068" lon="0.31396">
        <ele>744.4</ele>
        <time>2026-07-08T07:01:04Z</time>
      </trkpt>
      <trkpt lat="43.02068" lon="0.31395">
        <ele>743.4</ele>
        <time>2026-07-08T07:01:04Z</time>
      </trkpt>
      <trkpt lat="43.02067" lon="0.31394">
        <ele>743.4</ele>
        <time>2026-07-08T07:01:05Z</time>
      </trkpt>
      <trkpt lat="43.02067" lon="0.31393">
        <ele>743.4</ele>
        <time>2026-07-08T07:01:05Z</time>
      </trkpt>
      <trkpt lat="43.02067" lon="0.31392">
        <ele>743.4</ele>
        <time>2026-07-08T07:01:06Z</time>
      </trkpt>
      <trkpt lat="43.02067" lon="0.31391">
        <ele>743.4</ele>
        <time>2026-07-08T07:01:07Z</time>
      </trkpt>
      <trkpt lat="43.02067" lon="0.3139">
        <ele>744.4</ele>
        <time>2026-07-08T07:01:07Z</time>
      </trkpt>
      <trkpt lat="43.02067" lon="0.31389">
        <ele>743.4</ele>
        <time>2026-07-08T07:01:08Z</time>
      </trkpt>
      <trkpt lat="43.02067" lon="0.31389">
        <ele>743.4</ele>
        <time>2026-07-08T07:01:09Z</time>
      </trkpt>
      <trkpt lat="43.02066" lon="0.31388">
        <ele>744.4</ele>
        <time>2026-07-08T07:01:09Z</time>
      </trkpt>
      <trkpt lat="43.02066" lon="0.31388">
        <ele>744.4</ele>
        <time>2026-07-08T07:01:10Z</time>
      </trkpt>
      <trkpt lat="43.02066" lon="0.31387">
        <ele>744.4</ele>
        <time>2026-07-08T07:01:11Z</time>
      </trkpt>
      <trkpt lat="43.02065" lon="0.31387">
        <ele>744.4</ele>
        <time>2026-07-08T07:01:11Z</time>
      </trkpt>
      <trkpt lat="43.02065" lon="0.31386">
        <ele>744.4</ele>
        <time>2026-07-08T07:01:12Z</time>
      </trkpt>
      <trkpt lat="43.02064" lon="0.31386">
        <ele>744.4</ele>
        <time>2026-07-08T07:01:13Z</time>
      </trkpt>
      <trkpt lat="43.02064" lon="0.31385">
        <ele>744.4</ele>
        <time>2026-07-08T07:01:13Z</time>
      </trkpt>
      <trkpt lat="43.02063" lon="0.31385">
        <ele>744.4</ele>
        <time>2026-07-08T07:01:14Z</time>
      </trkpt>
      <trkpt lat="43.02063" lon="0.31385">
        <ele>744.4</ele>
        <time>2026-07-08T07:01:15Z</time>
      </trkpt>
      <trkpt lat="43.02062" lon="0.31385">
        <ele>744.4</ele>
        <time>2026-07-08T07:01:15Z</time>
      </trkpt>
      <trkpt lat="43.02061" lon="0.31386">
        <ele>744.4</ele>
        <time>2026-07-08T07:01:16Z</time>
      </trkpt>
      <trkpt lat="43.02061" lon="0.31386">
        <ele>745.4</ele>
        <time>2026-07-08T07:01:16Z</time>
      </trkpt>
      <trkpt lat="43.0206" lon="0.31386">
        <ele>745.4</ele>
        <time>2026-07-08T07:01:17Z</time>
      </trkpt>
      <trkpt lat="43.02059" lon="0.31385">
        <ele>745.4</ele>
        <time>2026-07-08T07:01:18Z</time>
      </trkpt>
      <trkpt lat="43.02059" lon="0.31385">
        <ele>745.4</ele>
        <time>2026-07-08T07:01:18Z</time>
      </trkpt>
      <trkpt lat="43.02058" lon="0.31385">
        <ele>745.4</ele>
        <time>2026-07-08T07:01:19Z</time>
      </trkpt>
      <trkpt lat="43.02057" lon="0.31385">
        <ele>746.4</ele>
        <time>2026-07-08T07:01:20Z</time>
      </trkpt>
      <trkpt lat="43.02057" lon="0.31385">
        <ele>747.4</ele>
        <time>2026-07-08T07:01:20Z</time>
      </trkpt>
      <trkpt lat="43.02056" lon="0.31385">
        <ele>747.4</ele>
        <time>2026-07-08T07:01:21Z</time>
      </trkpt>
      <trkpt lat="43.02055" lon="0.31385">
        <ele>747.4</ele>
        <time>2026-07-08T07:01:22Z</time>
      </trkpt>
      <trkpt lat="43.02054" lon="0.31386">
        <ele>747.4</ele>
        <time>2026-07-08T07:01:22Z</time>
      </trkpt>
      <trkpt lat="43.02053" lon="0.31386">
        <ele>747.4</ele>
        <time>2026-07-08T07:01:23Z</time>
      </trkpt>
      <trkpt lat="43.02053" lon="0.31386">
        <ele>747.4</ele>
        <time>2026-07-08T07:01:24Z</time>
      </trkpt>
      <trkpt lat="43.02052" lon="0.31386">
        <ele>748.4</ele>
        <time>2026-07-08T07:01:24Z</time>
      </trkpt>
      <trkpt lat="43.02051" lon="0.31386">
        <ele>748.4</ele>
        <time>2026-07-08T07:01:25Z</time>
      </trkpt>
      <trkpt lat="43.0205" lon="0.31387">
        <ele>748.4</ele>
        <time>2026-07-08T07:01:26Z</time>
      </trkpt>
      <trkpt lat="43.0205" lon="0.31387">
        <ele>748.4</ele>
        <time>2026-07-08T07:01:26Z</time>
      </trkpt>
      <trkpt lat="43.02049" lon="0.31387">
        <ele>748.4</ele>
        <time>2026-07-08T07:01:27Z</time>
      </trkpt>
      <trkpt lat="43.02048" lon="0.31388">
        <ele>748.4</ele>
        <time>2026-07-08T07:01:28Z</time>
      </trkpt>
      <trkpt lat="43.02047" lon="0.31388">
        <ele>749.4</ele>
        <time>2026-07-08T07:01:28Z</time>
      </trkpt>
      <trkpt lat="43.02046" lon="0.31388">
        <ele>749.4</ele>
        <time>2026-07-08T07:01:29Z</time>
      </trkpt>
      <trkpt lat="43.02046" lon="0.31388">
        <ele>750.4</ele>
        <time>2026-07-08T07:01:30Z</time>
      </trkpt>
      <trkpt lat="43.02045" lon="0.31389">
        <ele>750.4</ele>
        <time>2026-07-08T07:01:30Z</time>
      </trkpt>
      <trkpt lat="43.02044" lon="0.31389">
        <ele>750.4</ele>
        <time>2026-07-08T07:01:31Z</time>
      </trkpt>
      <trkpt lat="43.02044" lon="0.31389">
        <ele>750.4</ele>
        <time>2026-07-08T07:01:32Z</time>
      </trkpt>
      <trkpt lat="43.02043" lon="0.31389">
        <ele>750.4</ele>
        <time>2026-07-08T07:01:32Z</time>
      </trkpt>
      <trkpt lat="43.02042" lon="0.31389">
        <ele>750.4</ele>
        <time>2026-07-08T07:01:33Z</time>
      </trkpt>
      <trkpt lat="43.02042" lon="0.31389">
        <ele>750.4</ele>
        <time>2026-07-08T07:01:34Z</time>
      </trkpt>
      <trkpt lat="43.02041" lon="0.3139">
        <ele>750.4</ele>
        <time>2026-07-08T07:01:35Z</time>
      </trkpt>
      <trkpt lat="43.02041" lon="0.3139">
        <ele>750.4</ele>
        <time>2026-07-08T07:01:35Z</time>
      </trkpt>
      <trkpt lat="43.0204" lon="0.3139">
        <ele>750.4</ele>
        <time>2026-07-08T07:01:36Z</time>
      </trkpt>
      <trkpt lat="43.02039" lon="0.31391">
        <ele>750.4</ele>
        <time>2026-07-08T07:01:37Z</time>
      </trkpt>
      <trkpt lat="43.02038" lon="0.31391">
        <ele>750.4</ele>
        <time>2026-07-08T07:01:38Z</time>
      </trkpt>
      <trkpt lat="43.02038" lon="0.31391">
        <ele>751.4</ele>
        <time>2026-07-08T07:01:38Z</time>
      </trkpt>
      <trkpt lat="43.02037" lon="0.31391">
        <ele>751.4</ele>
        <time>2026-07-08T07:01:39Z</time>
      </trkpt>
      <trkpt lat="43.02036" lon="0.31391">
        <ele>751.4</ele>
        <time>2026-07-08T07:01:40Z</time>
      </trkpt>
      <trkpt lat="43.02035" lon="0.31392">
        <ele>751.4</ele>
        <time>2026-07-08T07:01:40Z</time>
      </trkpt>
      <trkpt lat="43.02035" lon="0.31392">
        <ele>751.4</ele>
        <time>2026-07-08T07:01:41Z</time>
      </trkpt>
      <trkpt lat="43.02034" lon="0.31391">
        <ele>751.4</ele>
        <time>2026-07-08T07:01:42Z</time>
      </trkpt>
      <trkpt lat="43.02033" lon="0.31391">
        <ele>752.4</ele>
        <time>2026-07-08T07:01:42Z</time>
      </trkpt>
      <trkpt lat="43.02032" lon="0.31391">
        <ele>752.4</ele>
        <time>2026-07-08T07:01:43Z</time>
      </trkpt>
      <trkpt lat="43.02032" lon="0.31391">
        <ele>752.4</ele>
        <time>2026-07-08T07:01:44Z</time>
      </trkpt>
      <trkpt lat="43.02031" lon="0.31391">
        <ele>752.4</ele>
        <time>2026-07-08T07:01:44Z</time>
      </trkpt>
      <trkpt lat="43.0203" lon="0.31391">
        <ele>752.4</ele>
        <time>2026-07-08T07:01:45Z</time>
      </trkpt>
      <trkpt lat="43.0203" lon="0.31391">
        <ele>751.4</ele>
        <time>2026-07-08T07:01:46Z</time>
      </trkpt>
      <trkpt lat="43.02029" lon="0.31392">
        <ele>751.4</ele>
        <time>2026-07-08T07:01:46Z</time>
      </trkpt>
      <trkpt lat="43.02028" lon="0.31392">
        <ele>751.4</ele>
        <time>2026-07-08T07:01:47Z</time>
      </trkpt>
      <trkpt lat="43.02028" lon="0.31392">
        <ele>751.4</ele>
        <time>2026-07-08T07:01:48Z</time>
      </trkpt>
      <trkpt lat="43.02027" lon="0.31392">
        <ele>751.4</ele>
        <time>2026-07-08T07:01:48Z</time>
      </trkpt>
      <trkpt lat="43.02027" lon="0.31392">
        <ele>750.4</ele>
        <time>2026-07-08T07:01:49Z</time>
      </trkpt>
      <trkpt lat="43.02026" lon="0.31393">
        <ele>750.4</ele>
        <time>2026-07-08T07:01:50Z</time>
      </trkpt>
      <trkpt lat="43.02025" lon="0.31393">
        <ele>750.4</ele>
        <time>2026-07-08T07:01:51Z</time>
      </trkpt>
      <trkpt lat="43.02025" lon="0.31393">
        <ele>750.4</ele>
        <time>2026-07-08T07:01:51Z</time>
      </trkpt>
      <trkpt lat="43.02024" lon="0.31393">
        <ele>750.4</ele>
        <time>2026-07-08T07:01:52Z</time>
      </trkpt>
      <trkpt lat="43.02024" lon="0.31393">
        <ele>750.4</ele>
        <time>2026-07-08T07:01:53Z</time>
      </trkpt>
      <trkpt lat="43.02023" lon="0.31394">
        <ele>750.4</ele>
        <time>2026-07-08T07:01:53Z</time>
      </trkpt>
      <trkpt lat="43.02022" lon="0.31394">
        <ele>750.4</ele>
        <time>2026-07-08T07:01:54Z</time>
      </trkpt>
      <trkpt lat="43.02022" lon="0.31394">
        <ele>751.4</ele>
        <time>2026-07-08T07:01:55Z</time>
      </trkpt>
      <trkpt lat="43.02022" lon="0.31394">
        <ele>750.4</ele>
        <time>2026-07-08T07:01:55Z</time>
      </trkpt>
      <trkpt lat="43.02021" lon="0.31394">
        <ele>751.4</ele>
        <time>2026-07-08T07:01:56Z</time>
      </trkpt>
      <trkpt lat="43.02021" lon="0.31393">
        <ele>751.4</ele>
        <time>2026-07-08T07:01:57Z</time>
      </trkpt>
      <trkpt lat="43.0202" lon="0.31393">
        <ele>750.4</ele>
        <time>2026-07-08T07:01:58Z</time>
      </trkpt>
      <trkpt lat="43.0202" lon="0.31393">
        <ele>750.4</ele>
        <time>2026-07-08T07:01:58Z</time>
      </trkpt>
      <trkpt lat="43.02019" lon="0.31393">
        <ele>750.4</ele>
        <time>2026-07-08T07:01:59Z</time>
      </trkpt>
      <trkpt lat="43.02018" lon="0.31394">
        <ele>750.4</ele>
        <time>2026-07-08T07:02:00Z</time>
      </trkpt>
      <trkpt lat="43.02018" lon="0.31394">
        <ele>749.4</ele>
        <time>2026-07-08T07:02:00Z</time>
      </trkpt>
      <trkpt lat="43.02017" lon="0.31394">
        <ele>749.4</ele>
        <time>2026-07-08T07:02:01Z</time>
      </trkpt>
      <trkpt lat="43.02017" lon="0.31394">
        <ele>749.4</ele>
        <time>2026-07-08T07:02:02Z</time>
      </trkpt>
      <trkpt lat="43.02017" lon="0.31394">
        <ele>749.4</ele>
        <time>2026-07-08T07:02:02Z</time>
      </trkpt>
      <trkpt lat="43.02016" lon="0.31394">
        <ele>749.4</ele>
        <time>2026-07-08T07:02:03Z</time>
      </trkpt>
      <trkpt lat="43.02016" lon="0.31395">
        <ele>749.4</ele>
        <time>2026-07-08T07:02:04Z</time>
      </trkpt>
      <trkpt lat="43.02015" lon="0.31395">
        <ele>748.4</ele>
        <time>2026-07-08T07:02:05Z</time>
      </trkpt>
      <trkpt lat="43.02015" lon="0.31395">
        <ele>748.4</ele>
        <time>2026-07-08T07:02:05Z</time>
      </trkpt>
      <trkpt lat="43.02014" lon="0.31395">
        <ele>748.4</ele>
        <time>2026-07-08T07:02:06Z</time>
      </trkpt>
      <trkpt lat="43.02013" lon="0.31395">
        <ele>748.4</ele>
        <time>2026-07-08T07:02:07Z</time>
      </trkpt>
      <trkpt lat="43.02013" lon="0.31395">
        <ele>748.4</ele>
        <time>2026-07-08T07:02:07Z</time>
      </trkpt>
      <trkpt lat="43.02012" lon="0.31395">
        <ele>748.4</ele>
        <time>2026-07-08T07:02:08Z</time>
      </trkpt>
      <trkpt lat="43.02012" lon="0.31395">
        <ele>750.4</ele>
        <time>2026-07-08T07:02:09Z</time>
      </trkpt>
      <trkpt lat="43.02011" lon="0.31395">
        <ele>750.4</ele>
        <time>2026-07-08T07:02:09Z</time>
      </trkpt>
      <trkpt lat="43.02011" lon="0.31396">
        <ele>750.4</ele>
        <time>2026-07-08T07:02:10Z</time>
      </trkpt>
      <trkpt lat="43.0201" lon="0.31396">
        <ele>749.4</ele>
        <time>2026-07-08T07:02:11Z</time>
      </trkpt>
      <trkpt lat="43.0201" lon="0.31397">
        <ele>750.4</ele>
        <time>2026-07-08T07:02:12Z</time>
      </trkpt>
      <trkpt lat="43.0201" lon="0.31397">
        <ele>750.4</ele>
        <time>2026-07-08T07:02:12Z</time>
      </trkpt>
      <trkpt lat="43.02009" lon="0.31397">
        <ele>750.4</ele>
        <time>2026-07-08T07:02:13Z</time>
      </trkpt>
      <trkpt lat="43.02009" lon="0.31397">
        <ele>750.4</ele>
        <time>2026-07-08T07:02:14Z</time>
      </trkpt>
      <trkpt lat="43.02008" lon="0.31397">
        <ele>750.4</ele>
        <time>2026-07-08T07:02:14Z</time>
      </trkpt>
      <trkpt lat="43.02008" lon="0.31398">
        <ele>750.4</ele>
        <time>2026-07-08T07:02:15Z</time>
      </trkpt>
      <trkpt lat="43.02007" lon="0.31398">
        <ele>749.4</ele>
        <time>2026-07-08T07:02:16Z</time>
      </trkpt>
      <trkpt lat="43.02007" lon="0.31399">
        <ele>750.4</ele>
        <time>2026-07-08T07:02:16Z</time>
      </trkpt>
      <trkpt lat="43.02006" lon="0.31399">
        <ele>750.4</ele>
        <time>2026-07-08T07:02:17Z</time>
      </trkpt>
      <trkpt lat="43.02006" lon="0.314">
        <ele>749.4</ele>
        <time>2026-07-08T07:02:17Z</time>
      </trkpt>
      <trkpt lat="43.02005" lon="0.314">
        <ele>749.4</ele>
        <time>2026-07-08T07:02:18Z</time>
      </trkpt>
      <trkpt lat="43.02005" lon="0.31401">
        <ele>749.4</ele>
        <time>2026-07-08T07:02:19Z</time>
      </trkpt>
      <trkpt lat="43.02004" lon="0.31401">
        <ele>749.4</ele>
        <time>2026-07-08T07:02:20Z</time>
      </trkpt>
      <trkpt lat="43.02004" lon="0.31401">
        <ele>750.4</ele>
        <time>2026-07-08T07:02:20Z</time>
      </trkpt>
      <trkpt lat="43.02003" lon="0.31401">
        <ele>750.4</ele>
        <time>2026-07-08T07:02:21Z</time>
      </trkpt>
      <trkpt lat="43.02003" lon="0.31401">
        <ele>750.4</ele>
        <time>2026-07-08T07:02:22Z</time>
      </trkpt>
      <trkpt lat="43.02002" lon="0.31401">
        <ele>750.4</ele>
        <time>2026-07-08T07:02:22Z</time>
      </trkpt>
      <trkpt lat="43.02002" lon="0.31401">
        <ele>750.4</ele>
        <time>2026-07-08T07:02:23Z</time>
      </trkpt>
      <trkpt lat="43.02001" lon="0.31401">
        <ele>750.4</ele>
        <time>2026-07-08T07:02:24Z</time>
      </trkpt>
      <trkpt lat="43.02001" lon="0.31401">
        <ele>751.4</ele>
        <time>2026-07-08T07:02:24Z</time>
      </trkpt>
      <trkpt lat="43.02" lon="0.31402">
        <ele>751.4</ele>
        <time>2026-07-08T07:02:25Z</time>
      </trkpt>
      <trkpt lat="43.02" lon="0.31402">
        <ele>751.4</ele>
        <time>2026-07-08T07:02:26Z</time>
      </trkpt>
      <trkpt lat="43.01999" lon="0.31402">
        <ele>751.4</ele>
        <time>2026-07-08T07:02:27Z</time>
      </trkpt>
      <trkpt lat="43.01998" lon="0.31402">
        <ele>750.4</ele>
        <time>2026-07-08T07:02:27Z</time>
      </trkpt>
      <trkpt lat="43.01998" lon="0.31402">
        <ele>750.4</ele>
        <time>2026-07-08T07:02:28Z</time>
      </trkpt>
      <trkpt lat="43.01997" lon="0.31402">
        <ele>750.4</ele>
        <time>2026-07-08T07:02:29Z</time>
      </trkpt>
      <trkpt lat="43.01997" lon="0.31402">
        <ele>750.4</ele>
        <time>2026-07-08T07:02:29Z</time>
      </trkpt>
      <trkpt lat="43.01996" lon="0.31402">
        <ele>750.4</ele>
        <time>2026-07-08T07:02:30Z</time>
      </trkpt>
      <trkpt lat="43.01995" lon="0.31402">
        <ele>750.4</ele>
        <time>2026-07-08T07:02:31Z</time>
      </trkpt>
      <trkpt lat="43.01995" lon="0.31402">
        <ele>751.4</ele>
        <time>2026-07-08T07:02:32Z</time>
      </trkpt>
      <trkpt lat="43.01994" lon="0.31402">
        <ele>751.4</ele>
        <time>2026-07-08T07:02:32Z</time>
      </trkpt>
      <trkpt lat="43.01993" lon="0.31403">
        <ele>751.4</ele>
        <time>2026-07-08T07:02:33Z</time>
      </trkpt>
      <trkpt lat="43.01993" lon="0.31403">
        <ele>752.4</ele>
        <time>2026-07-08T07:02:34Z</time>
      </trkpt>
      <trkpt lat="43.01992" lon="0.31403">
        <ele>752.4</ele>
        <time>2026-07-08T07:02:34Z</time>
      </trkpt>
      <trkpt lat="43.01992" lon="0.31403">
        <ele>752.4</ele>
        <time>2026-07-08T07:02:35Z</time>
      </trkpt>
      <trkpt lat="43.01991" lon="0.31403">
        <ele>752.4</ele>
        <time>2026-07-08T07:02:36Z</time>
      </trkpt>
      <trkpt lat="43.0199" lon="0.31403">
        <ele>752.4</ele>
        <time>2026-07-08T07:02:36Z</time>
      </trkpt>
      <trkpt lat="43.0199" lon="0.31403">
        <ele>752.4</ele>
        <time>2026-07-08T07:02:37Z</time>
      </trkpt>
      <trkpt lat="43.01989" lon="0.31403">
        <ele>752.4</ele>
        <time>2026-07-08T07:02:38Z</time>
      </trkpt>
      <trkpt lat="43.01988" lon="0.31403">
        <ele>753.4</ele>
        <time>2026-07-08T07:02:38Z</time>
      </trkpt>
      <trkpt lat="43.01988" lon="0.31403">
        <ele>752.4</ele>
        <time>2026-07-08T07:02:39Z</time>
      </trkpt>
      <trkpt lat="43.01987" lon="0.31402">
        <ele>752.4</ele>
        <time>2026-07-08T07:02:40Z</time>
      </trkpt>
      <trkpt lat="43.01986" lon="0.31403">
        <ele>752.4</ele>
        <time>2026-07-08T07:02:40Z</time>
      </trkpt>
      <trkpt lat="43.01986" lon="0.31403">
        <ele>752.4</ele>
        <time>2026-07-08T07:02:41Z</time>
      </trkpt>
      <trkpt lat="43.01985" lon="0.31403">
        <ele>752.4</ele>
        <time>2026-07-08T07:02:42Z</time>
      </trkpt>
      <trkpt lat="43.01984" lon="0.31403">
        <ele>753.4</ele>
        <time>2026-07-08T07:02:42Z</time>
      </trkpt>
      <trkpt lat="43.01984" lon="0.31403">
        <ele>753.4</ele>
        <time>2026-07-08T07:02:43Z</time>
      </trkpt>
      <trkpt lat="43.01983" lon="0.31403">
        <ele>753.4</ele>
        <time>2026-07-08T07:02:44Z</time>
      </trkpt>
      <trkpt lat="43.01982" lon="0.31404">
        <ele>754.4</ele>
        <time>2026-07-08T07:02:44Z</time>
      </trkpt>
      <trkpt lat="43.01982" lon="0.31404">
        <ele>755.4</ele>
        <time>2026-07-08T07:02:45Z</time>
      </trkpt>
      <trkpt lat="43.01981" lon="0.31404">
        <ele>755.4</ele>
        <time>2026-07-08T07:02:46Z</time>
      </trkpt>
      <trkpt lat="43.0198" lon="0.31404">
        <ele>755.4</ele>
        <time>2026-07-08T07:02:47Z</time>
      </trkpt>
      <trkpt lat="43.0198" lon="0.31404">
        <ele>756.4</ele>
        <time>2026-07-08T07:02:48Z</time>
      </trkpt>
      <trkpt lat="43.01979" lon="0.31404">
        <ele>757.4</ele>
        <time>2026-07-08T07:02:48Z</time>
      </trkpt>
      <trkpt lat="43.01978" lon="0.31403">
        <ele>758.4</ele>
        <time>2026-07-08T07:02:49Z</time>
      </trkpt>
      <trkpt lat="43.01977" lon="0.31403">
        <ele>758.4</ele>
        <time>2026-07-08T07:02:50Z</time>
      </trkpt>
      <trkpt lat="43.01977" lon="0.31404">
        <ele>758.4</ele>
        <time>2026-07-08T07:02:51Z</time>
      </trkpt>
      <trkpt lat="43.01976" lon="0.31404">
        <ele>757.4</ele>
        <time>2026-07-08T07:02:51Z</time>
      </trkpt>
      <trkpt lat="43.01976" lon="0.31404">
        <ele>758.4</ele>
        <time>2026-07-08T07:02:52Z</time>
      </trkpt>
      <trkpt lat="43.01975" lon="0.31404">
        <ele>758.4</ele>
        <time>2026-07-08T07:02:53Z</time>
      </trkpt>
      <trkpt lat="43.01974" lon="0.31404">
        <ele>758.4</ele>
        <time>2026-07-08T07:02:54Z</time>
      </trkpt>
      <trkpt lat="43.01974" lon="0.31404">
        <ele>758.4</ele>
        <time>2026-07-08T07:02:54Z</time>
      </trkpt>
      <trkpt lat="43.01973" lon="0.31404">
        <ele>758.4</ele>
        <time>2026-07-08T07:02:55Z</time>
      </trkpt>
      <trkpt lat="43.01972" lon="0.31404">
        <ele>758.4</ele>
        <time>2026-07-08T07:02:56Z</time>
      </trkpt>
      <trkpt lat="43.01972" lon="0.31405">
        <ele>758.4</ele>
        <time>2026-07-08T07:02:56Z</time>
      </trkpt>
      <trkpt lat="43.01971" lon="0.31405">
        <ele>759.4</ele>
        <time>2026-07-08T07:02:57Z</time>
      </trkpt>
      <trkpt lat="43.01971" lon="0.31405">
        <ele>759.4</ele>
        <time>2026-07-08T07:02:58Z</time>
      </trkpt>
      <trkpt lat="43.0197" lon="0.31405">
        <ele>759.4</ele>
        <time>2026-07-08T07:02:59Z</time>
      </trkpt>
      <trkpt lat="43.01969" lon="0.31406">
        <ele>760.4</ele>
        <time>2026-07-08T07:03:00Z</time>
      </trkpt>
      <trkpt lat="43.01969" lon="0.31406">
        <ele>760.4</ele>
        <time>2026-07-08T07:03:00Z</time>
      </trkpt>
      <trkpt lat="43.01968" lon="0.31406">
        <ele>759.4</ele>
        <time>2026-07-08T07:03:01Z</time>
      </trkpt>
      <trkpt lat="43.01967" lon="0.31406">
        <ele>759.4</ele>
        <time>2026-07-08T07:03:02Z</time>
      </trkpt>
      <trkpt lat="43.01967" lon="0.31405">
        <ele>759.4</ele>
        <time>2026-07-08T07:03:03Z</time>
      </trkpt>
      <trkpt lat="43.01966" lon="0.31405">
        <ele>760.4</ele>
        <time>2026-07-08T07:03:04Z</time>
      </trkpt>
      <trkpt lat="43.01965" lon="0.31405">
        <ele>761.4</ele>
        <time>2026-07-08T07:03:04Z</time>
      </trkpt>
      <trkpt lat="43.01965" lon="0.31405">
        <ele>761.4</ele>
        <time>2026-07-08T07:03:05Z</time>
      </trkpt>
      <trkpt lat="43.01964" lon="0.31405">
        <ele>761.4</ele>
        <time>2026-07-08T07:03:06Z</time>
      </trkpt>
      <trkpt lat="43.01963" lon="0.31405">
        <ele>761.4</ele>
        <time>2026-07-08T07:03:07Z</time>
      </trkpt>
      <trkpt lat="43.01963" lon="0.31404">
        <ele>761.4</ele>
        <time>2026-07-08T07:03:07Z</time>
      </trkpt>
      <trkpt lat="43.01962" lon="0.31404">
        <ele>761.4</ele>
        <time>2026-07-08T07:03:08Z</time>
      </trkpt>
      <trkpt lat="43.01961" lon="0.31404">
        <ele>761.4</ele>
        <time>2026-07-08T07:03:09Z</time>
      </trkpt>
      <trkpt lat="43.01961" lon="0.31404">
        <ele>761.4</ele>
        <time>2026-07-08T07:03:10Z</time>
      </trkpt>
      <trkpt lat="43.0196" lon="0.31404">
        <ele>761.4</ele>
        <time>2026-07-08T07:03:10Z</time>
      </trkpt>
      <trkpt lat="43.0196" lon="0.31404">
        <ele>761.4</ele>
        <time>2026-07-08T07:03:11Z</time>
      </trkpt>
      <trkpt lat="43.01959" lon="0.31403">
        <ele>761.4</ele>
        <time>2026-07-08T07:03:12Z</time>
      </trkpt>
      <trkpt lat="43.01959" lon="0.31403">
        <ele>761.4</ele>
        <time>2026-07-08T07:03:13Z</time>
      </trkpt>
      <trkpt lat="43.01958" lon="0.31403">
        <ele>762.4</ele>
        <time>2026-07-08T07:03:13Z</time>
      </trkpt>
      <trkpt lat="43.01958" lon="0.31403">
        <ele>762.4</ele>
        <time>2026-07-08T07:03:14Z</time>
      </trkpt>
      <trkpt lat="43.01957" lon="0.31402">
        <ele>762.4</ele>
        <time>2026-07-08T07:03:15Z</time>
      </trkpt>
      <trkpt lat="43.01957" lon="0.31402">
        <ele>762.4</ele>
        <time>2026-07-08T07:03:16Z</time>
      </trkpt>
      <trkpt lat="43.01956" lon="0.31402">
        <ele>762.4</ele>
        <time>2026-07-08T07:03:16Z</time>
      </trkpt>
      <trkpt lat="43.01956" lon="0.31402">
        <ele>762.4</ele>
        <time>2026-07-08T07:03:17Z</time>
      </trkpt>
      <trkpt lat="43.01955" lon="0.31402">
        <ele>763.4</ele>
        <time>2026-07-08T07:03:18Z</time>
      </trkpt>
      <trkpt lat="43.01954" lon="0.31401">
        <ele>762.4</ele>
        <time>2026-07-08T07:03:19Z</time>
      </trkpt>
      <trkpt lat="43.01954" lon="0.31401">
        <ele>763.4</ele>
        <time>2026-07-08T07:03:19Z</time>
      </trkpt>
      <trkpt lat="43.01953" lon="0.31401">
        <ele>763.4</ele>
        <time>2026-07-08T07:03:20Z</time>
      </trkpt>
      <trkpt lat="43.01952" lon="0.31401">
        <ele>763.4</ele>
        <time>2026-07-08T07:03:21Z</time>
      </trkpt>
      <trkpt lat="43.01952" lon="0.31401">
        <ele>765.4</ele>
        <time>2026-07-08T07:03:22Z</time>
      </trkpt>
      <trkpt lat="43.01952" lon="0.31402">
        <ele>765.4</ele>
        <time>2026-07-08T07:03:22Z</time>
      </trkpt>
      <trkpt lat="43.01952" lon="0.31402">
        <ele>765.4</ele>
        <time>2026-07-08T07:03:23Z</time>
      </trkpt>
      <trkpt lat="43.01952" lon="0.31403">
        <ele>765.4</ele>
        <time>2026-07-08T07:03:24Z</time>
      </trkpt>
      <trkpt lat="43.01952" lon="0.31404">
        <ele>765.4</ele>
        <time>2026-07-08T07:03:25Z</time>
      </trkpt>
      <trkpt lat="43.01952" lon="0.31404">
        <ele>764.4</ele>
        <time>2026-07-08T07:03:25Z</time>
      </trkpt>
      <trkpt lat="43.01951" lon="0.31404">
        <ele>764.4</ele>
        <time>2026-07-08T07:03:26Z</time>
      </trkpt>
      <trkpt lat="43.01951" lon="0.31404">
        <ele>764.4</ele>
        <time>2026-07-08T07:03:27Z</time>
      </trkpt>
      <trkpt lat="43.0195" lon="0.31405">
        <ele>764.4</ele>
        <time>2026-07-08T07:03:27Z</time>
      </trkpt>
      <trkpt lat="43.0195" lon="0.31405">
        <ele>765.4</ele>
        <time>2026-07-08T07:03:28Z</time>
      </trkpt>
      <trkpt lat="43.01949" lon="0.31405">
        <ele>765.4</ele>
        <time>2026-07-08T07:03:29Z</time>
      </trkpt>
      <trkpt lat="43.01949" lon="0.31405">
        <ele>765.4</ele>
        <time>2026-07-08T07:03:30Z</time>
      </trkpt>
      <trkpt lat="43.01948" lon="0.31405">
        <ele>764.4</ele>
        <time>2026-07-08T07:03:30Z</time>
      </trkpt>
      <trkpt lat="43.01948" lon="0.31405">
        <ele>764.4</ele>
        <time>2026-07-08T07:03:31Z</time>
      </trkpt>
      <trkpt lat="43.01948" lon="0.31405">
        <ele>764.4</ele>
        <time>2026-07-08T07:03:32Z</time>
      </trkpt>
      <trkpt lat="43.01947" lon="0.31405">
        <ele>765.4</ele>
        <time>2026-07-08T07:03:32Z</time>
      </trkpt>
      <trkpt lat="43.01947" lon="0.31405">
        <ele>766.4</ele>
        <time>2026-07-08T07:03:33Z</time>
      </trkpt>
      <trkpt lat="43.01946" lon="0.31405">
        <ele>766.4</ele>
        <time>2026-07-08T07:03:34Z</time>
      </trkpt>
      <trkpt lat="43.01947" lon="0.31405">
        <ele>766.4</ele>
        <time>2026-07-08T07:03:35Z</time>
      </trkpt>
      <trkpt lat="43.01946" lon="0.31405">
        <ele>766.4</ele>
        <time>2026-07-08T07:03:36Z</time>
      </trkpt>
      <trkpt lat="43.01946" lon="0.31405">
        <ele>765.4</ele>
        <time>2026-07-08T07:03:37Z</time>
      </trkpt>
      <trkpt lat="43.01947" lon="0.31405">
        <ele>765.4</ele>
        <time>2026-07-08T07:03:38Z</time>
      </trkpt>
      <trkpt lat="43.01947" lon="0.31405">
        <ele>765.4</ele>
        <time>2026-07-08T07:03:39Z</time>
      </trkpt>
      <trkpt lat="43.01947" lon="0.31405">
        <ele>764.4</ele>
        <time>2026-07-08T07:03:40Z</time>
      </trkpt>
      <trkpt lat="43.01948" lon="0.31406">
        <ele>764.4</ele>
        <time>2026-07-08T07:03:41Z</time>
      </trkpt>
      <trkpt lat="43.01948" lon="0.31406">
        <ele>765.4</ele>
        <time>2026-07-08T07:03:41Z</time>
      </trkpt>
      <trkpt lat="43.01948" lon="0.31406">
        <ele>765.4</ele>
        <time>2026-07-08T07:03:42Z</time>
      </trkpt>
      <trkpt lat="43.01948" lon="0.31406">
        <ele>765.4</ele>
        <time>2026-07-08T07:03:43Z</time>
      </trkpt>
      <trkpt lat="43.01947" lon="0.31406">
        <ele>765.4</ele>
        <time>2026-07-08T07:03:43Z</time>
      </trkpt>
      <trkpt lat="43.01947" lon="0.31406">
        <ele>765.4</ele>
        <time>2026-07-08T07:03:44Z</time>
      </trkpt>
      <trkpt lat="43.01946" lon="0.31406">
        <ele>765.4</ele>
        <time>2026-07-08T07:03:45Z</time>
      </trkpt>
      <trkpt lat="43.01945" lon="0.31407">
        <ele>765.4</ele>
        <time>2026-07-08T07:03:46Z</time>
      </trkpt>
      <trkpt lat="43.01944" lon="0.31407">
        <ele>766.4</ele>
        <time>2026-07-08T07:03:47Z</time>
      </trkpt>
      <trkpt lat="43.01944" lon="0.31408">
        <ele>766.4</ele>
        <time>2026-07-08T07:03:48Z</time>
      </trkpt>
      <trkpt lat="43.01943" lon="0.31408">
        <ele>766.4</ele>
        <time>2026-07-08T07:03:49Z</time>
      </trkpt>
      <trkpt lat="43.01943" lon="0.31409">
        <ele>766.4</ele>
        <time>2026-07-08T07:03:49Z</time>
      </trkpt>
      <trkpt lat="43.01943" lon="0.31409">
        <ele>766.4</ele>
        <time>2026-07-08T07:03:50Z</time>
      </trkpt>
      <trkpt lat="43.01942" lon="0.3141">
        <ele>766.4</ele>
        <time>2026-07-08T07:03:51Z</time>
      </trkpt>
      <trkpt lat="43.01942" lon="0.31411">
        <ele>766.4</ele>
        <time>2026-07-08T07:03:52Z</time>
      </trkpt>
      <trkpt lat="43.01941" lon="0.31412">
        <ele>766.4</ele>
        <time>2026-07-08T07:03:52Z</time>
      </trkpt>
      <trkpt lat="43.01941" lon="0.31413">
        <ele>766.4</ele>
        <time>2026-07-08T07:03:53Z</time>
      </trkpt>
      <trkpt lat="43.0194" lon="0.31414">
        <ele>765.4</ele>
        <time>2026-07-08T07:03:54Z</time>
      </trkpt>
      <trkpt lat="43.0194" lon="0.31415">
        <ele>765.4</ele>
        <time>2026-07-08T07:03:55Z</time>
      </trkpt>
      <trkpt lat="43.0194" lon="0.31416">
        <ele>765.4</ele>
        <time>2026-07-08T07:03:55Z</time>
      </trkpt>
      <trkpt lat="43.01939" lon="0.31417">
        <ele>765.4</ele>
        <time>2026-07-08T07:03:56Z</time>
      </trkpt>
      <trkpt lat="43.01939" lon="0.31418">
        <ele>765.4</ele>
        <time>2026-07-08T07:03:57Z</time>
      </trkpt>
      <trkpt lat="43.01938" lon="0.31419">
        <ele>765.4</ele>
        <time>2026-07-08T07:03:57Z</time>
      </trkpt>
      <trkpt lat="43.01937" lon="0.31419">
        <ele>765.4</ele>
        <time>2026-07-08T07:03:58Z</time>
      </trkpt>
      <trkpt lat="43.01937" lon="0.3142">
        <ele>765.4</ele>
        <time>2026-07-08T07:03:59Z</time>
      </trkpt>
      <trkpt lat="43.01936" lon="0.3142">
        <ele>765.4</ele>
        <time>2026-07-08T07:04:00Z</time>
      </trkpt>
      <trkpt lat="43.01935" lon="0.3142">
        <ele>765.4</ele>
        <time>2026-07-08T07:04:00Z</time>
      </trkpt>
      <trkpt lat="43.01935" lon="0.31421">
        <ele>765.4</ele>
        <time>2026-07-08T07:04:01Z</time>
      </trkpt>
      <trkpt lat="43.01934" lon="0.31421">
        <ele>766.4</ele>
        <time>2026-07-08T07:04:02Z</time>
      </trkpt>
      <trkpt lat="43.01934" lon="0.31422">
        <ele>767.4</ele>
        <time>2026-07-08T07:04:03Z</time>
      </trkpt>
      <trkpt lat="43.01934" lon="0.31422">
        <ele>768.4</ele>
        <time>2026-07-08T07:04:03Z</time>
      </trkpt>
      <trkpt lat="43.01933" lon="0.31423">
        <ele>768.4</ele>
        <time>2026-07-08T07:04:04Z</time>
      </trkpt>
      <trkpt lat="43.01932" lon="0.31423">
        <ele>768.4</ele>
        <time>2026-07-08T07:04:05Z</time>
      </trkpt>
      <trkpt lat="43.01932" lon="0.31423">
        <ele>767.4</ele>
        <time>2026-07-08T07:04:06Z</time>
      </trkpt>
      <trkpt lat="43.01932" lon="0.31423">
        <ele>767.4</ele>
        <time>2026-07-08T07:04:06Z</time>
      </trkpt>
      <trkpt lat="43.01931" lon="0.31424">
        <ele>767.4</ele>
        <time>2026-07-08T07:04:07Z</time>
      </trkpt>
      <trkpt lat="43.01931" lon="0.31424">
        <ele>767.4</ele>
        <time>2026-07-08T07:04:08Z</time>
      </trkpt>
      <trkpt lat="43.0193" lon="0.31424">
        <ele>767.4</ele>
        <time>2026-07-08T07:04:09Z</time>
      </trkpt>
      <trkpt lat="43.0193" lon="0.31425">
        <ele>767.4</ele>
        <time>2026-07-08T07:04:09Z</time>
      </trkpt>
      <trkpt lat="43.01929" lon="0.31425">
        <ele>767.4</ele>
        <time>2026-07-08T07:04:10Z</time>
      </trkpt>
      <trkpt lat="43.01928" lon="0.31426">
        <ele>767.4</ele>
        <time>2026-07-08T07:04:11Z</time>
      </trkpt>
      <trkpt lat="43.01928" lon="0.31426">
        <ele>767.4</ele>
        <time>2026-07-08T07:04:12Z</time>
      </trkpt>
      <trkpt lat="43.01927" lon="0.31426">
        <ele>767.4</ele>
        <time>2026-07-08T07:04:12Z</time>
      </trkpt>
      <trkpt lat="43.01926" lon="0.31427">
        <ele>767.4</ele>
        <time>2026-07-08T07:04:13Z</time>
      </trkpt>
      <trkpt lat="43.01926" lon="0.31427">
        <ele>767.4</ele>
        <time>2026-07-08T07:04:14Z</time>
      </trkpt>
      <trkpt lat="43.01926" lon="0.31427">
        <ele>767.4</ele>
        <time>2026-07-08T07:04:15Z</time>
      </trkpt>
      <trkpt lat="43.01926" lon="0.31428">
        <ele>767.4</ele>
        <time>2026-07-08T07:04:15Z</time>
      </trkpt>
      <trkpt lat="43.01925" lon="0.31428">
        <ele>767.4</ele>
        <time>2026-07-08T07:04:16Z</time>
      </trkpt>
      <trkpt lat="43.01925" lon="0.31429">
        <ele>768.4</ele>
        <time>2026-07-08T07:04:17Z</time>
      </trkpt>
      <trkpt lat="43.01925" lon="0.31429">
        <ele>767.4</ele>
        <time>2026-07-08T07:04:18Z</time>
      </trkpt>
      <trkpt lat="43.01924" lon="0.31429">
        <ele>768.4</ele>
        <time>2026-07-08T07:04:18Z</time>
      </trkpt>
      <trkpt lat="43.01924" lon="0.3143">
        <ele>768.4</ele>
        <time>2026-07-08T07:04:19Z</time>
      </trkpt>
      <trkpt lat="43.01923" lon="0.3143">
        <ele>767.4</ele>
        <time>2026-07-08T07:04:20Z</time>
      </trkpt>
      <trkpt lat="43.01924" lon="0.3143">
        <ele>767.4</ele>
        <time>2026-07-08T07:04:21Z</time>
      </trkpt>
      <trkpt lat="43.01924" lon="0.3143">
        <ele>767.4</ele>
        <time>2026-07-08T07:04:21Z</time>
      </trkpt>
      <trkpt lat="43.01923" lon="0.31431">
        <ele>767.4</ele>
        <time>2026-07-08T07:04:22Z</time>
      </trkpt>
      <trkpt lat="43.01923" lon="0.31431">
        <ele>767.4</ele>
        <time>2026-07-08T07:04:23Z</time>
      </trkpt>
      <trkpt lat="43.01923" lon="0.31431">
        <ele>766.4</ele>
        <time>2026-07-08T07:04:23Z</time>
      </trkpt>
      <trkpt lat="43.01923" lon="0.31432">
        <ele>766.4</ele>
        <time>2026-07-08T07:04:24Z</time>
      </trkpt>
      <trkpt lat="43.01922" lon="0.31432">
        <ele>766.4</ele>
        <time>2026-07-08T07:04:25Z</time>
      </trkpt>
      <trkpt lat="43.01922" lon="0.31433">
        <ele>766.4</ele>
        <time>2026-07-08T07:04:26Z</time>
      </trkpt>
      <trkpt lat="43.01922" lon="0.31433">
        <ele>767.4</ele>
        <time>2026-07-08T07:04:26Z</time>
      </trkpt>
      <trkpt lat="43.01922" lon="0.31433">
        <ele>768.4</ele>
        <time>2026-07-08T07:04:27Z</time>
      </trkpt>
      <trkpt lat="43.01922" lon="0.31433">
        <ele>768.4</ele>
        <time>2026-07-08T07:04:27Z</time>
      </trkpt>
      <trkpt lat="43.01921" lon="0.31433">
        <ele>767.4</ele>
        <time>2026-07-08T07:04:28Z</time>
      </trkpt>
      <trkpt lat="43.01921" lon="0.31434">
        <ele>767.4</ele>
        <time>2026-07-08T07:04:29Z</time>
      </trkpt>
      <trkpt lat="43.01921" lon="0.31435">
        <ele>767.4</ele>
        <time>2026-07-08T07:04:30Z</time>
      </trkpt>
      <trkpt lat="43.01921" lon="0.31435">
        <ele>767.4</ele>
        <time>2026-07-08T07:04:30Z</time>
      </trkpt>
      <trkpt lat="43.0192" lon="0.31436">
        <ele>767.4</ele>
        <time>2026-07-08T07:04:31Z</time>
      </trkpt>
      <trkpt lat="43.01921" lon="0.31436">
        <ele>767.4</ele>
        <time>2026-07-08T07:04:32Z</time>
      </trkpt>
      <trkpt lat="43.0192" lon="0.31436">
        <ele>767.4</ele>
        <time>2026-07-08T07:04:32Z</time>
      </trkpt>
      <trkpt lat="43.01921" lon="0.31436">
        <ele>768.4</ele>
        <time>2026-07-08T07:04:33Z</time>
      </trkpt>
      <trkpt lat="43.0192" lon="0.31435">
        <ele>768.4</ele>
        <time>2026-07-08T07:04:34Z</time>
      </trkpt>
      <trkpt lat="43.0192" lon="0.31435">
        <ele>768.4</ele>
        <time>2026-07-08T07:04:35Z</time>
      </trkpt>
      <trkpt lat="43.01919" lon="0.31435">
        <ele>767.4</ele>
        <time>2026-07-08T07:04:36Z</time>
      </trkpt>
      <trkpt lat="43.01919" lon="0.31435">
        <ele>767.4</ele>
        <time>2026-07-08T07:04:37Z</time>
      </trkpt>
      <trkpt lat="43.01919" lon="0.31435">
        <ele>767.4</ele>
        <time>2026-07-08T07:04:38Z</time>
      </trkpt>
      <trkpt lat="43.01918" lon="0.31434">
        <ele>767.4</ele>
        <time>2026-07-08T07:04:39Z</time>
      </trkpt>
      <trkpt lat="43.01918" lon="0.31434">
        <ele>767.4</ele>
        <time>2026-07-08T07:04:39Z</time>
      </trkpt>
      <trkpt lat="43.01917" lon="0.31434">
        <ele>767.4</ele>
        <time>2026-07-08T07:04:40Z</time>
      </trkpt>
      <trkpt lat="43.01917" lon="0.31434">
        <ele>767.4</ele>
        <time>2026-07-08T07:04:41Z</time>
      </trkpt>
      <trkpt lat="43.01916" lon="0.31434">
        <ele>767.4</ele>
        <time>2026-07-08T07:04:42Z</time>
      </trkpt>
      <trkpt lat="43.01915" lon="0.31434">
        <ele>767.4</ele>
        <time>2026-07-08T07:04:42Z</time>
      </trkpt>
      <trkpt lat="43.01915" lon="0.31435">
        <ele>767.4</ele>
        <time>2026-07-08T07:04:43Z</time>
      </trkpt>
      <trkpt lat="43.01914" lon="0.31435">
        <ele>767.4</ele>
        <time>2026-07-08T07:04:44Z</time>
      </trkpt>
      <trkpt lat="43.01913" lon="0.31435">
        <ele>767.4</ele>
        <time>2026-07-08T07:04:44Z</time>
      </trkpt>
      <trkpt lat="43.01913" lon="0.31435">
        <ele>767.4</ele>
        <time>2026-07-08T07:04:45Z</time>
      </trkpt>
      <trkpt lat="43.01913" lon="0.31434">
        <ele>767.4</ele>
        <time>2026-07-08T07:04:46Z</time>
      </trkpt>
      <trkpt lat="43.01913" lon="0.31434">
        <ele>767.4</ele>
        <time>2026-07-08T07:04:47Z</time>
      </trkpt>
      <trkpt lat="43.01912" lon="0.31433">
        <ele>767.4</ele>
        <time>2026-07-08T07:04:47Z</time>
      </trkpt>
      <trkpt lat="43.01912" lon="0.31433">
        <ele>768.4</ele>
        <time>2026-07-08T07:04:48Z</time>
      </trkpt>
      <trkpt lat="43.01911" lon="0.31433">
        <ele>768.4</ele>
        <time>2026-07-08T07:04:49Z</time>
      </trkpt>
      <trkpt lat="43.0191" lon="0.31433">
        <ele>768.4</ele>
        <time>2026-07-08T07:04:50Z</time>
      </trkpt>
      <trkpt lat="43.0191" lon="0.31433">
        <ele>769.4</ele>
        <time>2026-07-08T07:04:51Z</time>
      </trkpt>
      <trkpt lat="43.0191" lon="0.31432">
        <ele>769.4</ele>
        <time>2026-07-08T07:04:51Z</time>
      </trkpt>
      <trkpt lat="43.0191" lon="0.31432">
        <ele>769.4</ele>
        <time>2026-07-08T07:04:52Z</time>
      </trkpt>
      <trkpt lat="43.01909" lon="0.31432">
        <ele>769.4</ele>
        <time>2026-07-08T07:04:53Z</time>
      </trkpt>
      <trkpt lat="43.01908" lon="0.31432">
        <ele>770.4</ele>
        <time>2026-07-08T07:04:54Z</time>
      </trkpt>
      <trkpt lat="43.01908" lon="0.31432">
        <ele>770.4</ele>
        <time>2026-07-08T07:04:54Z</time>
      </trkpt>
      <trkpt lat="43.01907" lon="0.31431">
        <ele>771.4</ele>
        <time>2026-07-08T07:04:55Z</time>
      </trkpt>
      <trkpt lat="43.01907" lon="0.31431">
        <ele>771.4</ele>
        <time>2026-07-08T07:04:56Z</time>
      </trkpt>
      <trkpt lat="43.01907" lon="0.31431">
        <ele>771.4</ele>
        <time>2026-07-08T07:04:56Z</time>
      </trkpt>
      <trkpt lat="43.01906" lon="0.31431">
        <ele>771.4</ele>
        <time>2026-07-08T07:04:57Z</time>
      </trkpt>
      <trkpt lat="43.01906" lon="0.31431">
        <ele>771.4</ele>
        <time>2026-07-08T07:04:58Z</time>
      </trkpt>
      <trkpt lat="43.01906" lon="0.31431">
        <ele>771.4</ele>
        <time>2026-07-08T07:04:58Z</time>
      </trkpt>
      <trkpt lat="43.01905" lon="0.31431">
        <ele>771.4</ele>
        <time>2026-07-08T07:04:59Z</time>
      </trkpt>
      <trkpt lat="43.01905" lon="0.31431">
        <ele>772.4</ele>
        <time>2026-07-08T07:05:00Z</time>
      </trkpt>
      <trkpt lat="43.01905" lon="0.31432">
        <ele>773.4</ele>
        <time>2026-07-08T07:05:00Z</time>
      </trkpt>
      <trkpt lat="43.01904" lon="0.31432">
        <ele>773.4</ele>
        <time>2026-07-08T07:05:01Z</time>
      </trkpt>
      <trkpt lat="43.01904" lon="0.31432">
        <ele>773.4</ele>
        <time>2026-07-08T07:05:01Z</time>
      </trkpt>
      <trkpt lat="43.01903" lon="0.31432">
        <ele>773.4</ele>
        <time>2026-07-08T07:05:02Z</time>
      </trkpt>
      <trkpt lat="43.01903" lon="0.31432">
        <ele>774.4</ele>
        <time>2026-07-08T07:05:02Z</time>
      </trkpt>
      <trkpt lat="43.01902" lon="0.31433">
        <ele>775.4</ele>
        <time>2026-07-08T07:05:03Z</time>
      </trkpt>
      <trkpt lat="43.01902" lon="0.31433">
        <ele>775.4</ele>
        <time>2026-07-08T07:05:04Z</time>
      </trkpt>
      <trkpt lat="43.01902" lon="0.31433">
        <ele>774.4</ele>
        <time>2026-07-08T07:05:04Z</time>
      </trkpt>
      <trkpt lat="43.01901" lon="0.31434">
        <ele>774.4</ele>
        <time>2026-07-08T07:05:05Z</time>
      </trkpt>
      <trkpt lat="43.01901" lon="0.31433">
        <ele>774.4</ele>
        <time>2026-07-08T07:05:06Z</time>
      </trkpt>
      <trkpt lat="43.01901" lon="0.31433">
        <ele>774.4</ele>
        <time>2026-07-08T07:05:07Z</time>
      </trkpt>
      <trkpt lat="43.01902" lon="0.31432">
        <ele>774.4</ele>
        <time>2026-07-08T07:05:08Z</time>
      </trkpt>
      <trkpt lat="43.01902" lon="0.31432">
        <ele>774.4</ele>
        <time>2026-07-08T07:05:09Z</time>
      </trkpt>
      <trkpt lat="43.01903" lon="0.31432">
        <ele>774.4</ele>
        <time>2026-07-08T07:05:09Z</time>
      </trkpt>
      <trkpt lat="43.01903" lon="0.31432">
        <ele>774.4</ele>
        <time>2026-07-08T07:05:10Z</time>
      </trkpt>
      <trkpt lat="43.01904" lon="0.31432">
        <ele>775.4</ele>
        <time>2026-07-08T07:05:11Z</time>
      </trkpt>
      <trkpt lat="43.01904" lon="0.31432">
        <ele>777.4</ele>
        <time>2026-07-08T07:05:12Z</time>
      </trkpt>
      <trkpt lat="43.01906" lon="0.31432">
        <ele>778.4</ele>
        <time>2026-07-08T07:05:13Z</time>
      </trkpt>
      <trkpt lat="43.01906" lon="0.31433">
        <ele>779.4</ele>
        <time>2026-07-08T07:05:14Z</time>
      </trkpt>
      <trkpt lat="43.01906" lon="0.31433">
        <ele>781.4</ele>
        <time>2026-07-08T07:05:15Z</time>
      </trkpt>
      <trkpt lat="43.01906" lon="0.31434">
        <ele>781.4</ele>
        <time>2026-07-08T07:05:16Z</time>
      </trkpt>
      <trkpt lat="43.01906" lon="0.31435">
        <ele>781.4</ele>
        <time>2026-07-08T07:05:17Z</time>
      </trkpt>
      <trkpt lat="43.01907" lon="0.31436">
        <ele>781.4</ele>
        <time>2026-07-08T07:05:18Z</time>
      </trkpt>
      <trkpt lat="43.01907" lon="0.31437">
        <ele>781.4</ele>
        <time>2026-07-08T07:05:19Z</time>
      </trkpt>
      <trkpt lat="43.01907" lon="0.31437">
        <ele>781.4</ele>
        <time>2026-07-08T07:05:20Z</time>
      </trkpt>
      <trkpt lat="43.01907" lon="0.31437">
        <ele>781.4</ele>
        <time>2026-07-08T07:05:21Z</time>
      </trkpt>
      <trkpt lat="43.01907" lon="0.31438">
        <ele>782.4</ele>
        <time>2026-07-08T07:05:22Z</time>
      </trkpt>
      <trkpt lat="43.01908" lon="0.31438">
        <ele>784.4</ele>
        <time>2026-07-08T07:05:23Z</time>
      </trkpt>
      <trkpt lat="43.01908" lon="0.31438">
        <ele>784.4</ele>
        <time>2026-07-08T07:05:24Z</time>
      </trkpt>
      <trkpt lat="43.01908" lon="0.31439">
        <ele>784.4</ele>
        <time>2026-07-08T07:05:25Z</time>
      </trkpt>
      <trkpt lat="43.01908" lon="0.31439">
        <ele>784.4</ele>
        <time>2026-07-08T07:05:26Z</time>
      </trkpt>
      <trkpt lat="43.01908" lon="0.31439">
        <ele>784.4</ele>
        <time>2026-07-08T07:05:27Z</time>
      </trkpt>
      <trkpt lat="43.01908" lon="0.3144">
        <ele>785.4</ele>
        <time>2026-07-08T07:05:28Z</time>
      </trkpt>
      <trkpt lat="43.01908" lon="0.31441">
        <ele>786.4</ele>
        <time>2026-07-08T07:05:29Z</time>
      </trkpt>
      <trkpt lat="43.01908" lon="0.31441">
        <ele>786.4</ele>
        <time>2026-07-08T07:05:30Z</time>
      </trkpt>
      <trkpt lat="43.01908" lon="0.31442">
        <ele>786.4</ele>
        <time>2026-07-08T07:05:31Z</time>
      </trkpt>
      <trkpt lat="43.01908" lon="0.31442">
        <ele>786.4</ele>
        <time>2026-07-08T07:05:32Z</time>
      </trkpt>
      <trkpt lat="43.01908" lon="0.31442">
        <ele>786.4</ele>
        <time>2026-07-08T07:05:33Z</time>
      </trkpt>
      <trkpt lat="43.01908" lon="0.31442">
        <ele>786.4</ele>
        <time>2026-07-08T07:05:34Z</time>
      </trkpt>
      <trkpt lat="43.01908" lon="0.31442">
        <ele>786.4</ele>
        <time>2026-07-08T07:05:35Z</time>
      </trkpt>
      <trkpt lat="43.01908" lon="0.31442">
        <ele>786.4</ele>
        <time>2026-07-08T07:05:36Z</time>
      </trkpt>
      <trkpt lat="43.01908" lon="0.31442">
        <ele>786.4</ele>
        <time>2026-07-08T07:05:37Z</time>
      </trkpt>
      <trkpt lat="43.01908" lon="0.31443">
        <ele>788.4</ele>
        <time>2026-07-08T07:05:37Z</time>
      </trkpt>
      <trkpt lat="43.01908" lon="0.31443">
        <ele>789.4</ele>
        <time>2026-07-08T07:05:38Z</time>
      </trkpt>
      <trkpt lat="43.01908" lon="0.31443">
        <ele>789.4</ele>
        <time>2026-07-08T07:05:39Z</time>
      </trkpt>
      <trkpt lat="43.01907" lon="0.31443">
        <ele>789.4</ele>
        <time>2026-07-08T07:05:40Z</time>
      </trkpt>
      <trkpt lat="43.01906" lon="0.31443">
        <ele>789.4</ele>
        <time>2026-07-08T07:05:41Z</time>
      </trkpt>
      <trkpt lat="43.01905" lon="0.31444">
        <ele>789.4</ele>
        <time>2026-07-08T07:05:42Z</time>
      </trkpt>
      <trkpt lat="43.01905" lon="0.31444">
        <ele>789.4</ele>
        <time>2026-07-08T07:05:42Z</time>
      </trkpt>
      <trkpt lat="43.01904" lon="0.31444">
        <ele>789.4</ele>
        <time>2026-07-08T07:05:43Z</time>
      </trkpt>
      <trkpt lat="43.01903" lon="0.31444">
        <ele>789.4</ele>
        <time>2026-07-08T07:05:44Z</time>
      </trkpt>
      <trkpt lat="43.01903" lon="0.31445">
        <ele>789.4</ele>
        <time>2026-07-08T07:05:45Z</time>
      </trkpt>
      <trkpt lat="43.01902" lon="0.31445">
        <ele>789.4</ele>
        <time>2026-07-08T07:05:46Z</time>
      </trkpt>
      <trkpt lat="43.01902" lon="0.31445">
        <ele>789.4</ele>
        <time>2026-07-08T07:05:46Z</time>
      </trkpt>
      <trkpt lat="43.01901" lon="0.31445">
        <ele>789.4</ele>
        <time>2026-07-08T07:05:47Z</time>
      </trkpt>
      <trkpt lat="43.01901" lon="0.31446">
        <ele>789.4</ele>
        <time>2026-07-08T07:05:48Z</time>
      </trkpt>
      <trkpt lat="43.019" lon="0.31446">
        <ele>791.4</ele>
        <time>2026-07-08T07:05:48Z</time>
      </trkpt>
      <trkpt lat="43.019" lon="0.31446">
        <ele>791.4</ele>
        <time>2026-07-08T07:05:49Z</time>
      </trkpt>
      <trkpt lat="43.01899" lon="0.31446">
        <ele>791.4</ele>
        <time>2026-07-08T07:05:50Z</time>
      </trkpt>
      <trkpt lat="43.01898" lon="0.31446">
        <ele>791.4</ele>
        <time>2026-07-08T07:05:51Z</time>
      </trkpt>
      <trkpt lat="43.01898" lon="0.31447">
        <ele>791.4</ele>
        <time>2026-07-08T07:05:51Z</time>
      </trkpt>
      <trkpt lat="43.01897" lon="0.31447">
        <ele>790.4</ele>
        <time>2026-07-08T07:05:52Z</time>
      </trkpt>
      <trkpt lat="43.01897" lon="0.31447">
        <ele>790.4</ele>
        <time>2026-07-08T07:05:53Z</time>
      </trkpt>
      <trkpt lat="43.01896" lon="0.31447">
        <ele>790.4</ele>
        <time>2026-07-08T07:05:54Z</time>
      </trkpt>
      <trkpt lat="43.01896" lon="0.31447">
        <ele>791.4</ele>
        <time>2026-07-08T07:05:54Z</time>
      </trkpt>
      <trkpt lat="43.01895" lon="0.31448">
        <ele>791.4</ele>
        <time>2026-07-08T07:05:55Z</time>
      </trkpt>
      <trkpt lat="43.01894" lon="0.31448">
        <ele>792.4</ele>
        <time>2026-07-08T07:05:56Z</time>
      </trkpt>
      <trkpt lat="43.01893" lon="0.31449">
        <ele>793.4</ele>
        <time>2026-07-08T07:05:57Z</time>
      </trkpt>
      <trkpt lat="43.01892" lon="0.31449">
        <ele>793.4</ele>
        <time>2026-07-08T07:05:58Z</time>
      </trkpt>
      <trkpt lat="43.01892" lon="0.3145">
        <ele>794.4</ele>
        <time>2026-07-08T07:05:58Z</time>
      </trkpt>
      <trkpt lat="43.0189" lon="0.3145">
        <ele>793.4</ele>
        <time>2026-07-08T07:05:59Z</time>
      </trkpt>
      <trkpt lat="43.0189" lon="0.3145">
        <ele>793.4</ele>
        <time>2026-07-08T07:06:00Z</time>
      </trkpt>
      <trkpt lat="43.01889" lon="0.3145">
        <ele>792.4</ele>
        <time>2026-07-08T07:06:00Z</time>
      </trkpt>
      <trkpt lat="43.01888" lon="0.3145">
        <ele>792.4</ele>
        <time>2026-07-08T07:06:01Z</time>
      </trkpt>
      <trkpt lat="43.01888" lon="0.3145">
        <ele>792.4</ele>
        <time>2026-07-08T07:06:02Z</time>
      </trkpt>
      <trkpt lat="43.01887" lon="0.31451">
        <ele>792.4</ele>
        <time>2026-07-08T07:06:02Z</time>
      </trkpt>
      <trkpt lat="43.01887" lon="0.31451">
        <ele>792.4</ele>
        <time>2026-07-08T07:06:03Z</time>
      </trkpt>
      <trkpt lat="43.01886" lon="0.31451">
        <ele>792.4</ele>
        <time>2026-07-08T07:06:04Z</time>
      </trkpt>
      <trkpt lat="43.01885" lon="0.31451">
        <ele>792.4</ele>
        <time>2026-07-08T07:06:04Z</time>
      </trkpt>
      <trkpt lat="43.01885" lon="0.31451">
        <ele>792.4</ele>
        <time>2026-07-08T07:06:05Z</time>
      </trkpt>
      <trkpt lat="43.01884" lon="0.31452">
        <ele>791.4</ele>
        <time>2026-07-08T07:06:06Z</time>
      </trkpt>
      <trkpt lat="43.01884" lon="0.31452">
        <ele>791.4</ele>
        <time>2026-07-08T07:06:06Z</time>
      </trkpt>
      <trkpt lat="43.01883" lon="0.31452">
        <ele>791.4</ele>
        <time>2026-07-08T07:06:07Z</time>
      </trkpt>
      <trkpt lat="43.01882" lon="0.31452">
        <ele>792.4</ele>
        <time>2026-07-08T07:06:08Z</time>
      </trkpt>
      <trkpt lat="43.01882" lon="0.31452">
        <ele>792.4</ele>
        <time>2026-07-08T07:06:08Z</time>
      </trkpt>
      <trkpt lat="43.01881" lon="0.31453">
        <ele>792.4</ele>
        <time>2026-07-08T07:06:09Z</time>
      </trkpt>
      <trkpt lat="43.0188" lon="0.31453">
        <ele>792.4</ele>
        <time>2026-07-08T07:06:10Z</time>
      </trkpt>
      <trkpt lat="43.0188" lon="0.31453">
        <ele>792.4</ele>
        <time>2026-07-08T07:06:10Z</time>
      </trkpt>
      <trkpt lat="43.01879" lon="0.31454">
        <ele>792.4</ele>
        <time>2026-07-08T07:06:11Z</time>
      </trkpt>
      <trkpt lat="43.01879" lon="0.31454">
        <ele>792.4</ele>
        <time>2026-07-08T07:06:12Z</time>
      </trkpt>
      <trkpt lat="43.01878" lon="0.31455">
        <ele>791.4</ele>
        <time>2026-07-08T07:06:12Z</time>
      </trkpt>
      <trkpt lat="43.01878" lon="0.31455">
        <ele>791.4</ele>
        <time>2026-07-08T07:06:13Z</time>
      </trkpt>
      <trkpt lat="43.01877" lon="0.31455">
        <ele>791.4</ele>
        <time>2026-07-08T07:06:14Z</time>
      </trkpt>
      <trkpt lat="43.01877" lon="0.31456">
        <ele>791.4</ele>
        <time>2026-07-08T07:06:14Z</time>
      </trkpt>
      <trkpt lat="43.01877" lon="0.31456">
        <ele>791.4</ele>
        <time>2026-07-08T07:06:15Z</time>
      </trkpt>
      <trkpt lat="43.01876" lon="0.31457">
        <ele>790.4</ele>
        <time>2026-07-08T07:06:16Z</time>
      </trkpt>
      <trkpt lat="43.01876" lon="0.31457">
        <ele>791.4</ele>
        <time>2026-07-08T07:06:16Z</time>
      </trkpt>
      <trkpt lat="43.01875" lon="0.31458">
        <ele>791.4</ele>
        <time>2026-07-08T07:06:17Z</time>
      </trkpt>
      <trkpt lat="43.01875" lon="0.31458">
        <ele>790.4</ele>
        <time>2026-07-08T07:06:17Z</time>
      </trkpt>
      <trkpt lat="43.01874" lon="0.31458">
        <ele>791.4</ele>
        <time>2026-07-08T07:06:18Z</time>
      </trkpt>
      <trkpt lat="43.01873" lon="0.31458">
        <ele>791.4</ele>
        <time>2026-07-08T07:06:19Z</time>
      </trkpt>
      <trkpt lat="43.01873" lon="0.31458">
        <ele>790.4</ele>
        <time>2026-07-08T07:06:19Z</time>
      </trkpt>
      <trkpt lat="43.01872" lon="0.31458">
        <ele>790.4</ele>
        <time>2026-07-08T07:06:20Z</time>
      </trkpt>
      <trkpt lat="43.01872" lon="0.31458">
        <ele>790.4</ele>
        <time>2026-07-08T07:06:21Z</time>
      </trkpt>
      <trkpt lat="43.01871" lon="0.31459">
        <ele>790.4</ele>
        <time>2026-07-08T07:06:21Z</time>
      </trkpt>
      <trkpt lat="43.01871" lon="0.31459">
        <ele>790.4</ele>
        <time>2026-07-08T07:06:22Z</time>
      </trkpt>
      <trkpt lat="43.0187" lon="0.31459">
        <ele>790.4</ele>
        <time>2026-07-08T07:06:22Z</time>
      </trkpt>
      <trkpt lat="43.0187" lon="0.31459">
        <ele>790.4</ele>
        <time>2026-07-08T07:06:23Z</time>
      </trkpt>
      <trkpt lat="43.01869" lon="0.3146">
        <ele>790.4</ele>
        <time>2026-07-08T07:06:24Z</time>
      </trkpt>
      <trkpt lat="43.01868" lon="0.3146">
        <ele>790.4</ele>
        <time>2026-07-08T07:06:24Z</time>
      </trkpt>
      <trkpt lat="43.01868" lon="0.3146">
        <ele>790.4</ele>
        <time>2026-07-08T07:06:25Z</time>
      </trkpt>
      <trkpt lat="43.01867" lon="0.3146">
        <ele>790.4</ele>
        <time>2026-07-08T07:06:26Z</time>
      </trkpt>
      <trkpt lat="43.01867" lon="0.3146">
        <ele>790.4</ele>
        <time>2026-07-08T07:06:26Z</time>
      </trkpt>
      <trkpt lat="43.01866" lon="0.31461">
        <ele>790.4</ele>
        <time>2026-07-08T07:06:27Z</time>
      </trkpt>
      <trkpt lat="43.01866" lon="0.31461">
        <ele>791.4</ele>
        <time>2026-07-08T07:06:27Z</time>
      </trkpt>
      <trkpt lat="43.01865" lon="0.31461">
        <ele>791.4</ele>
        <time>2026-07-08T07:06:28Z</time>
      </trkpt>
      <trkpt lat="43.01865" lon="0.31461">
        <ele>791.4</ele>
        <time>2026-07-08T07:06:29Z</time>
      </trkpt>
      <trkpt lat="43.01864" lon="0.31461">
        <ele>792.4</ele>
        <time>2026-07-08T07:06:29Z</time>
      </trkpt>
      <trkpt lat="43.01864" lon="0.31461">
        <ele>792.4</ele>
        <time>2026-07-08T07:06:30Z</time>
      </trkpt>
      <trkpt lat="43.01863" lon="0.31461">
        <ele>792.4</ele>
        <time>2026-07-08T07:06:30Z</time>
      </trkpt>
      <trkpt lat="43.01862" lon="0.31462">
        <ele>792.4</ele>
        <time>2026-07-08T07:06:31Z</time>
      </trkpt>
      <trkpt lat="43.01862" lon="0.31462">
        <ele>792.4</ele>
        <time>2026-07-08T07:06:32Z</time>
      </trkpt>
      <trkpt lat="43.01861" lon="0.31462">
        <ele>792.4</ele>
        <time>2026-07-08T07:06:32Z</time>
      </trkpt>
      <trkpt lat="43.0186" lon="0.31462">
        <ele>792.4</ele>
        <time>2026-07-08T07:06:33Z</time>
      </trkpt>
      <trkpt lat="43.0186" lon="0.31462">
        <ele>792.4</ele>
        <time>2026-07-08T07:06:33Z</time>
      </trkpt>
      <trkpt lat="43.01859" lon="0.31462">
        <ele>792.4</ele>
        <time>2026-07-08T07:06:34Z</time>
      </trkpt>
      <trkpt lat="43.01859" lon="0.31462">
        <ele>791.4</ele>
        <time>2026-07-08T07:06:34Z</time>
      </trkpt>
      <trkpt lat="43.01858" lon="0.31462">
        <ele>791.4</ele>
        <time>2026-07-08T07:06:35Z</time>
      </trkpt>
      <trkpt lat="43.01858" lon="0.31462">
        <ele>791.4</ele>
        <time>2026-07-08T07:06:36Z</time>
      </trkpt>
      <trkpt lat="43.01857" lon="0.31462">
        <ele>791.4</ele>
        <time>2026-07-08T07:06:36Z</time>
      </trkpt>
      <trkpt lat="43.01857" lon="0.31462">
        <ele>791.4</ele>
        <time>2026-07-08T07:06:37Z</time>
      </trkpt>
      <trkpt lat="43.01856" lon="0.31463">
        <ele>791.4</ele>
        <time>2026-07-08T07:06:37Z</time>
      </trkpt>
      <trkpt lat="43.01855" lon="0.31463">
        <ele>791.4</ele>
        <time>2026-07-08T07:06:38Z</time>
      </trkpt>
      <trkpt lat="43.01855" lon="0.31463">
        <ele>790.4</ele>
        <time>2026-07-08T07:06:39Z</time>
      </trkpt>
      <trkpt lat="43.01855" lon="0.31464">
        <ele>790.4</ele>
        <time>2026-07-08T07:06:39Z</time>
      </trkpt>
      <trkpt lat="43.01854" lon="0.31464">
        <ele>790.4</ele>
        <time>2026-07-08T07:06:40Z</time>
      </trkpt>
      <trkpt lat="43.01854" lon="0.31465">
        <ele>790.4</ele>
        <time>2026-07-08T07:06:41Z</time>
      </trkpt>
      <trkpt lat="43.01853" lon="0.31465">
        <ele>790.4</ele>
        <time>2026-07-08T07:06:41Z</time>
      </trkpt>
      <trkpt lat="43.01853" lon="0.31465">
        <ele>790.4</ele>
        <time>2026-07-08T07:06:42Z</time>
      </trkpt>
      <trkpt lat="43.01852" lon="0.31466">
        <ele>791.4</ele>
        <time>2026-07-08T07:06:42Z</time>
      </trkpt>
      <trkpt lat="43.01852" lon="0.31466">
        <ele>790.4</ele>
        <time>2026-07-08T07:06:43Z</time>
      </trkpt>
      <trkpt lat="43.01851" lon="0.31466">
        <ele>790.4</ele>
        <time>2026-07-08T07:06:44Z</time>
      </trkpt>
      <trkpt lat="43.01851" lon="0.31466">
        <ele>790.4</ele>
        <time>2026-07-08T07:06:44Z</time>
      </trkpt>
      <trkpt lat="43.0185" lon="0.31467">
        <ele>790.4</ele>
        <time>2026-07-08T07:06:45Z</time>
      </trkpt>
      <trkpt lat="43.0185" lon="0.31467">
        <ele>790.4</ele>
        <time>2026-07-08T07:06:46Z</time>
      </trkpt>
      <trkpt lat="43.01849" lon="0.31466">
        <ele>789.4</ele>
        <time>2026-07-08T07:06:46Z</time>
      </trkpt>
      <trkpt lat="43.01849" lon="0.31466">
        <ele>789.4</ele>
        <time>2026-07-08T07:06:47Z</time>
      </trkpt>
      <trkpt lat="43.01848" lon="0.31466">
        <ele>789.4</ele>
        <time>2026-07-08T07:06:48Z</time>
      </trkpt>
      <trkpt lat="43.01848" lon="0.31467">
        <ele>789.4</ele>
        <time>2026-07-08T07:06:48Z</time>
      </trkpt>
      <trkpt lat="43.01847" lon="0.31467">
        <ele>789.4</ele>
        <time>2026-07-08T07:06:49Z</time>
      </trkpt>
      <trkpt lat="43.01846" lon="0.31467">
        <ele>789.4</ele>
        <time>2026-07-08T07:06:49Z</time>
      </trkpt>
      <trkpt lat="43.01846" lon="0.31467">
        <ele>789.4</ele>
        <time>2026-07-08T07:06:50Z</time>
      </trkpt>
      <trkpt lat="43.01845" lon="0.31467">
        <ele>790.4</ele>
        <time>2026-07-08T07:06:51Z</time>
      </trkpt>
      <trkpt lat="43.01845" lon="0.31467">
        <ele>790.4</ele>
        <time>2026-07-08T07:06:51Z</time>
      </trkpt>
      <trkpt lat="43.01844" lon="0.31468">
        <ele>790.4</ele>
        <time>2026-07-08T07:06:52Z</time>
      </trkpt>
      <trkpt lat="43.01844" lon="0.31468">
        <ele>789.4</ele>
        <time>2026-07-08T07:06:53Z</time>
      </trkpt>
      <trkpt lat="43.01843" lon="0.31468">
        <ele>790.4</ele>
        <time>2026-07-08T07:06:53Z</time>
      </trkpt>
      <trkpt lat="43.01843" lon="0.31468">
        <ele>790.4</ele>
        <time>2026-07-08T07:06:54Z</time>
      </trkpt>
      <trkpt lat="43.01842" lon="0.31468">
        <ele>789.4</ele>
        <time>2026-07-08T07:06:54Z</time>
      </trkpt>
      <trkpt lat="43.01842" lon="0.31469">
        <ele>789.4</ele>
        <time>2026-07-08T07:06:55Z</time>
      </trkpt>
      <trkpt lat="43.01841" lon="0.31469">
        <ele>788.4</ele>
        <time>2026-07-08T07:06:56Z</time>
      </trkpt>
      <trkpt lat="43.0184" lon="0.31469">
        <ele>789.4</ele>
        <time>2026-07-08T07:06:56Z</time>
      </trkpt>
      <trkpt lat="43.0184" lon="0.3147">
        <ele>789.4</ele>
        <time>2026-07-08T07:06:57Z</time>
      </trkpt>
      <trkpt lat="43.01839" lon="0.3147">
        <ele>789.4</ele>
        <time>2026-07-08T07:06:57Z</time>
      </trkpt>
      <trkpt lat="43.01839" lon="0.3147">
        <ele>790.4</ele>
        <time>2026-07-08T07:06:58Z</time>
      </trkpt>
      <trkpt lat="43.01838" lon="0.31471">
        <ele>790.4</ele>
        <time>2026-07-08T07:06:59Z</time>
      </trkpt>
      <trkpt lat="43.01838" lon="0.31471">
        <ele>789.4</ele>
        <time>2026-07-08T07:06:59Z</time>
      </trkpt>
      <trkpt lat="43.01837" lon="0.31471">
        <ele>789.4</ele>
        <time>2026-07-08T07:07:00Z</time>
      </trkpt>
      <trkpt lat="43.01837" lon="0.31472">
        <ele>789.4</ele>
        <time>2026-07-08T07:07:01Z</time>
      </trkpt>
      <trkpt lat="43.01836" lon="0.31472">
        <ele>789.4</ele>
        <time>2026-07-08T07:07:01Z</time>
      </trkpt>
      <trkpt lat="43.01836" lon="0.31473">
        <ele>789.4</ele>
        <time>2026-07-08T07:07:02Z</time>
      </trkpt>
      <trkpt lat="43.01835" lon="0.31473">
        <ele>790.4</ele>
        <time>2026-07-08T07:07:02Z</time>
      </trkpt>
      <trkpt lat="43.01835" lon="0.31474">
        <ele>790.4</ele>
        <time>2026-07-08T07:07:03Z</time>
      </trkpt>
      <trkpt lat="43.01834" lon="0.31474">
        <ele>790.4</ele>
        <time>2026-07-08T07:07:04Z</time>
      </trkpt>
      <trkpt lat="43.01834" lon="0.31475">
        <ele>790.4</ele>
        <time>2026-07-08T07:07:04Z</time>
      </trkpt>
      <trkpt lat="43.01833" lon="0.31476">
        <ele>790.4</ele>
        <time>2026-07-08T07:07:05Z</time>
      </trkpt>
      <trkpt lat="43.01832" lon="0.31476">
        <ele>790.4</ele>
        <time>2026-07-08T07:07:06Z</time>
      </trkpt>
      <trkpt lat="43.01832" lon="0.31477">
        <ele>789.4</ele>
        <time>2026-07-08T07:07:07Z</time>
      </trkpt>
      <trkpt lat="43.01831" lon="0.31477">
        <ele>789.4</ele>
        <time>2026-07-08T07:07:07Z</time>
      </trkpt>
      <trkpt lat="43.01831" lon="0.31477">
        <ele>789.4</ele>
        <time>2026-07-08T07:07:08Z</time>
      </trkpt>
      <trkpt lat="43.0183" lon="0.31478">
        <ele>789.4</ele>
        <time>2026-07-08T07:07:08Z</time>
      </trkpt>
      <trkpt lat="43.01829" lon="0.31478">
        <ele>789.4</ele>
        <time>2026-07-08T07:07:09Z</time>
      </trkpt>
      <trkpt lat="43.01829" lon="0.31478">
        <ele>789.4</ele>
        <time>2026-07-08T07:07:10Z</time>
      </trkpt>
      <trkpt lat="43.01828" lon="0.31478">
        <ele>789.4</ele>
        <time>2026-07-08T07:07:10Z</time>
      </trkpt>
      <trkpt lat="43.01828" lon="0.31478">
        <ele>789.4</ele>
        <time>2026-07-08T07:07:11Z</time>
      </trkpt>
      <trkpt lat="43.01827" lon="0.31478">
        <ele>789.4</ele>
        <time>2026-07-08T07:07:12Z</time>
      </trkpt>
      <trkpt lat="43.01827" lon="0.31478">
        <ele>789.4</ele>
        <time>2026-07-08T07:07:12Z</time>
      </trkpt>
      <trkpt lat="43.01826" lon="0.31479">
        <ele>789.4</ele>
        <time>2026-07-08T07:07:13Z</time>
      </trkpt>
      <trkpt lat="43.01826" lon="0.31479">
        <ele>789.4</ele>
        <time>2026-07-08T07:07:14Z</time>
      </trkpt>
      <trkpt lat="43.01826" lon="0.31479">
        <ele>790.4</ele>
        <time>2026-07-08T07:07:14Z</time>
      </trkpt>
      <trkpt lat="43.01825" lon="0.31479">
        <ele>790.4</ele>
        <time>2026-07-08T07:07:15Z</time>
      </trkpt>
      <trkpt lat="43.01825" lon="0.31479">
        <ele>789.4</ele>
        <time>2026-07-08T07:07:15Z</time>
      </trkpt>
      <trkpt lat="43.01825" lon="0.31479">
        <ele>790.4</ele>
        <time>2026-07-08T07:07:16Z</time>
      </trkpt>
      <trkpt lat="43.01824" lon="0.31479">
        <ele>790.4</ele>
        <time>2026-07-08T07:07:17Z</time>
      </trkpt>
      <trkpt lat="43.01824" lon="0.31479">
        <ele>790.4</ele>
        <time>2026-07-08T07:07:17Z</time>
      </trkpt>
      <trkpt lat="43.01823" lon="0.31479">
        <ele>790.4</ele>
        <time>2026-07-08T07:07:18Z</time>
      </trkpt>
      <trkpt lat="43.01822" lon="0.3148">
        <ele>790.4</ele>
        <time>2026-07-08T07:07:19Z</time>
      </trkpt>
      <trkpt lat="43.01822" lon="0.3148">
        <ele>790.4</ele>
        <time>2026-07-08T07:07:19Z</time>
      </trkpt>
      <trkpt lat="43.01821" lon="0.3148">
        <ele>790.4</ele>
        <time>2026-07-08T07:07:20Z</time>
      </trkpt>
      <trkpt lat="43.0182" lon="0.3148">
        <ele>791.4</ele>
        <time>2026-07-08T07:07:20Z</time>
      </trkpt>
      <trkpt lat="43.0182" lon="0.31481">
        <ele>791.4</ele>
        <time>2026-07-08T07:07:21Z</time>
      </trkpt>
      <trkpt lat="43.01819" lon="0.31481">
        <ele>791.4</ele>
        <time>2026-07-08T07:07:22Z</time>
      </trkpt>
      <trkpt lat="43.01819" lon="0.31481">
        <ele>791.4</ele>
        <time>2026-07-08T07:07:22Z</time>
      </trkpt>
      <trkpt lat="43.01818" lon="0.31481">
        <ele>791.4</ele>
        <time>2026-07-08T07:07:23Z</time>
      </trkpt>
      <trkpt lat="43.01817" lon="0.31481">
        <ele>791.4</ele>
        <time>2026-07-08T07:07:24Z</time>
      </trkpt>
      <trkpt lat="43.01817" lon="0.31482">
        <ele>791.4</ele>
        <time>2026-07-08T07:07:24Z</time>
      </trkpt>
      <trkpt lat="43.01816" lon="0.31482">
        <ele>791.4</ele>
        <time>2026-07-08T07:07:25Z</time>
      </trkpt>
      <trkpt lat="43.01816" lon="0.31482">
        <ele>791.4</ele>
        <time>2026-07-08T07:07:25Z</time>
      </trkpt>
      <trkpt lat="43.01815" lon="0.31483">
        <ele>791.4</ele>
        <time>2026-07-08T07:07:26Z</time>
      </trkpt>
      <trkpt lat="43.01814" lon="0.31483">
        <ele>790.4</ele>
        <time>2026-07-08T07:07:27Z</time>
      </trkpt>
      <trkpt lat="43.01813" lon="0.31483">
        <ele>790.4</ele>
        <time>2026-07-08T07:07:27Z</time>
      </trkpt>
      <trkpt lat="43.01813" lon="0.31483">
        <ele>790.4</ele>
        <time>2026-07-08T07:07:28Z</time>
      </trkpt>
      <trkpt lat="43.01812" lon="0.31483">
        <ele>790.4</ele>
        <time>2026-07-08T07:07:28Z</time>
      </trkpt>
      <trkpt lat="43.01812" lon="0.31484">
        <ele>789.4</ele>
        <time>2026-07-08T07:07:29Z</time>
      </trkpt>
      <trkpt lat="43.01811" lon="0.31484">
        <ele>789.4</ele>
        <time>2026-07-08T07:07:30Z</time>
      </trkpt>
      <trkpt lat="43.0181" lon="0.31484">
        <ele>789.4</ele>
        <time>2026-07-08T07:07:30Z</time>
      </trkpt>
      <trkpt lat="43.01809" lon="0.31484">
        <ele>789.4</ele>
        <time>2026-07-08T07:07:31Z</time>
      </trkpt>
      <trkpt lat="43.01809" lon="0.31484">
        <ele>789.4</ele>
        <time>2026-07-08T07:07:32Z</time>
      </trkpt>
      <trkpt lat="43.01808" lon="0.31484">
        <ele>788.4</ele>
        <time>2026-07-08T07:07:32Z</time>
      </trkpt>
      <trkpt lat="43.01808" lon="0.31484">
        <ele>788.4</ele>
        <time>2026-07-08T07:07:33Z</time>
      </trkpt>
      <trkpt lat="43.01807" lon="0.31484">
        <ele>788.4</ele>
        <time>2026-07-08T07:07:34Z</time>
      </trkpt>
      <trkpt lat="43.01806" lon="0.31484">
        <ele>788.4</ele>
        <time>2026-07-08T07:07:34Z</time>
      </trkpt>
      <trkpt lat="43.01806" lon="0.31484">
        <ele>788.4</ele>
        <time>2026-07-08T07:07:35Z</time>
      </trkpt>
      <trkpt lat="43.01805" lon="0.31484">
        <ele>788.4</ele>
        <time>2026-07-08T07:07:36Z</time>
      </trkpt>
      <trkpt lat="43.01805" lon="0.31484">
        <ele>788.4</ele>
        <time>2026-07-08T07:07:36Z</time>
      </trkpt>
      <trkpt lat="43.01804" lon="0.31484">
        <ele>788.4</ele>
        <time>2026-07-08T07:07:37Z</time>
      </trkpt>
      <trkpt lat="43.01803" lon="0.31484">
        <ele>788.4</ele>
        <time>2026-07-08T07:07:38Z</time>
      </trkpt>
      <trkpt lat="43.01803" lon="0.31484">
        <ele>788.4</ele>
        <time>2026-07-08T07:07:38Z</time>
      </trkpt>
      <trkpt lat="43.01802" lon="0.31484">
        <ele>788.4</ele>
        <time>2026-07-08T07:07:39Z</time>
      </trkpt>
      <trkpt lat="43.01802" lon="0.31484">
        <ele>787.4</ele>
        <time>2026-07-08T07:07:40Z</time>
      </trkpt>
      <trkpt lat="43.01801" lon="0.31484">
        <ele>787.4</ele>
        <time>2026-07-08T07:07:40Z</time>
      </trkpt>
      <trkpt lat="43.01801" lon="0.31484">
        <ele>787.4</ele>
        <time>2026-07-08T07:07:41Z</time>
      </trkpt>
      <trkpt lat="43.018" lon="0.31484">
        <ele>787.4</ele>
        <time>2026-07-08T07:07:41Z</time>
      </trkpt>
      <trkpt lat="43.018" lon="0.31484">
        <ele>787.4</ele>
        <time>2026-07-08T07:07:42Z</time>
      </trkpt>
      <trkpt lat="43.01799" lon="0.31484">
        <ele>787.4</ele>
        <time>2026-07-08T07:07:43Z</time>
      </trkpt>
      <trkpt lat="43.01798" lon="0.31484">
        <ele>787.4</ele>
        <time>2026-07-08T07:07:43Z</time>
      </trkpt>
      <trkpt lat="43.01798" lon="0.31484">
        <ele>787.4</ele>
        <time>2026-07-08T07:07:44Z</time>
      </trkpt>
      <trkpt lat="43.01797" lon="0.31484">
        <ele>787.4</ele>
        <time>2026-07-08T07:07:45Z</time>
      </trkpt>
      <trkpt lat="43.01797" lon="0.31484">
        <ele>788.4</ele>
        <time>2026-07-08T07:07:45Z</time>
      </trkpt>
      <trkpt lat="43.01796" lon="0.31485">
        <ele>788.4</ele>
        <time>2026-07-08T07:07:46Z</time>
      </trkpt>
      <trkpt lat="43.01796" lon="0.31484">
        <ele>787.4</ele>
        <time>2026-07-08T07:07:47Z</time>
      </trkpt>
      <trkpt lat="43.01795" lon="0.31484">
        <ele>787.4</ele>
        <time>2026-07-08T07:07:47Z</time>
      </trkpt>
      <trkpt lat="43.01794" lon="0.31485">
        <ele>787.4</ele>
        <time>2026-07-08T07:07:48Z</time>
      </trkpt>
      <trkpt lat="43.01794" lon="0.31485">
        <ele>787.4</ele>
        <time>2026-07-08T07:07:49Z</time>
      </trkpt>
      <trkpt lat="43.01794" lon="0.31485">
        <ele>788.4</ele>
        <time>2026-07-08T07:07:49Z</time>
      </trkpt>
      <trkpt lat="43.01793" lon="0.31485">
        <ele>788.4</ele>
        <time>2026-07-08T07:07:50Z</time>
      </trkpt>
      <trkpt lat="43.01793" lon="0.31486">
        <ele>788.4</ele>
        <time>2026-07-08T07:07:51Z</time>
      </trkpt>
      <trkpt lat="43.01792" lon="0.31486">
        <ele>788.4</ele>
        <time>2026-07-08T07:07:51Z</time>
      </trkpt>
      <trkpt lat="43.01792" lon="0.31487">
        <ele>788.4</ele>
        <time>2026-07-08T07:07:52Z</time>
      </trkpt>
      <trkpt lat="43.01791" lon="0.31487">
        <ele>788.4</ele>
        <time>2026-07-08T07:07:53Z</time>
      </trkpt>
      <trkpt lat="43.01791" lon="0.31488">
        <ele>788.4</ele>
        <time>2026-07-08T07:07:53Z</time>
      </trkpt>
      <trkpt lat="43.0179" lon="0.31488">
        <ele>788.4</ele>
        <time>2026-07-08T07:07:54Z</time>
      </trkpt>
      <trkpt lat="43.0179" lon="0.31488">
        <ele>787.4</ele>
        <time>2026-07-08T07:07:54Z</time>
      </trkpt>
      <trkpt lat="43.01789" lon="0.31489">
        <ele>787.4</ele>
        <time>2026-07-08T07:07:55Z</time>
      </trkpt>
      <trkpt lat="43.01789" lon="0.31489">
        <ele>787.4</ele>
        <time>2026-07-08T07:07:56Z</time>
      </trkpt>
      <trkpt lat="43.01788" lon="0.31489">
        <ele>788.4</ele>
        <time>2026-07-08T07:07:56Z</time>
      </trkpt>
      <trkpt lat="43.01788" lon="0.31489">
        <ele>788.4</ele>
        <time>2026-07-08T07:07:57Z</time>
      </trkpt>
      <trkpt lat="43.01787" lon="0.3149">
        <ele>788.4</ele>
        <time>2026-07-08T07:07:58Z</time>
      </trkpt>
      <trkpt lat="43.01787" lon="0.3149">
        <ele>788.4</ele>
        <time>2026-07-08T07:07:58Z</time>
      </trkpt>
      <trkpt lat="43.01787" lon="0.3149">
        <ele>788.4</ele>
        <time>2026-07-08T07:07:59Z</time>
      </trkpt>
      <trkpt lat="43.01786" lon="0.31491">
        <ele>789.4</ele>
        <time>2026-07-08T07:08:00Z</time>
      </trkpt>
      <trkpt lat="43.01785" lon="0.31491">
        <ele>789.4</ele>
        <time>2026-07-08T07:08:00Z</time>
      </trkpt>
      <trkpt lat="43.01785" lon="0.31492">
        <ele>789.4</ele>
        <time>2026-07-08T07:08:01Z</time>
      </trkpt>
      <trkpt lat="43.01785" lon="0.31492">
        <ele>789.4</ele>
        <time>2026-07-08T07:08:02Z</time>
      </trkpt>
      <trkpt lat="43.01784" lon="0.31492">
        <ele>789.4</ele>
        <time>2026-07-08T07:08:03Z</time>
      </trkpt>
      <trkpt lat="43.01784" lon="0.31493">
        <ele>789.4</ele>
        <time>2026-07-08T07:08:03Z</time>
      </trkpt>
      <trkpt lat="43.01783" lon="0.31493">
        <ele>789.4</ele>
        <time>2026-07-08T07:08:04Z</time>
      </trkpt>
      <trkpt lat="43.01783" lon="0.31493">
        <ele>789.4</ele>
        <time>2026-07-08T07:08:05Z</time>
      </trkpt>
      <trkpt lat="43.01782" lon="0.31494">
        <ele>789.4</ele>
        <time>2026-07-08T07:08:05Z</time>
      </trkpt>
      <trkpt lat="43.01782" lon="0.31494">
        <ele>789.4</ele>
        <time>2026-07-08T07:08:06Z</time>
      </trkpt>
      <trkpt lat="43.01782" lon="0.31495">
        <ele>790.4</ele>
        <time>2026-07-08T07:08:07Z</time>
      </trkpt>
      <trkpt lat="43.01781" lon="0.31495">
        <ele>790.4</ele>
        <time>2026-07-08T07:08:07Z</time>
      </trkpt>
      <trkpt lat="43.01781" lon="0.31496">
        <ele>790.4</ele>
        <time>2026-07-08T07:08:08Z</time>
      </trkpt>
      <trkpt lat="43.0178" lon="0.31497">
        <ele>790.4</ele>
        <time>2026-07-08T07:08:09Z</time>
      </trkpt>
      <trkpt lat="43.0178" lon="0.31497">
        <ele>791.4</ele>
        <time>2026-07-08T07:08:10Z</time>
      </trkpt>
      <trkpt lat="43.0178" lon="0.31498">
        <ele>791.4</ele>
        <time>2026-07-08T07:08:10Z</time>
      </trkpt>
      <trkpt lat="43.01779" lon="0.31499">
        <ele>791.4</ele>
        <time>2026-07-08T07:08:11Z</time>
      </trkpt>
      <trkpt lat="43.01779" lon="0.315">
        <ele>792.4</ele>
        <time>2026-07-08T07:08:12Z</time>
      </trkpt>
      <trkpt lat="43.01778" lon="0.31501">
        <ele>792.4</ele>
        <time>2026-07-08T07:08:13Z</time>
      </trkpt>
      <trkpt lat="43.01778" lon="0.31502">
        <ele>792.4</ele>
        <time>2026-07-08T07:08:13Z</time>
      </trkpt>
      <trkpt lat="43.01778" lon="0.31503">
        <ele>792.4</ele>
        <time>2026-07-08T07:08:14Z</time>
      </trkpt>
      <trkpt lat="43.01777" lon="0.31504">
        <ele>791.4</ele>
        <time>2026-07-08T07:08:15Z</time>
      </trkpt>
      <trkpt lat="43.01776" lon="0.31505">
        <ele>791.4</ele>
        <time>2026-07-08T07:08:16Z</time>
      </trkpt>
      <trkpt lat="43.01776" lon="0.31505">
        <ele>791.4</ele>
        <time>2026-07-08T07:08:17Z</time>
      </trkpt>
      <trkpt lat="43.01775" lon="0.31506">
        <ele>792.4</ele>
        <time>2026-07-08T07:08:18Z</time>
      </trkpt>
      <trkpt lat="43.01775" lon="0.31507">
        <ele>793.4</ele>
        <time>2026-07-08T07:08:18Z</time>
      </trkpt>
      <trkpt lat="43.01775" lon="0.31507">
        <ele>793.4</ele>
        <time>2026-07-08T07:08:19Z</time>
      </trkpt>
      <trkpt lat="43.01774" lon="0.31508">
        <ele>793.4</ele>
        <time>2026-07-08T07:08:20Z</time>
      </trkpt>
      <trkpt lat="43.01774" lon="0.31509">
        <ele>793.4</ele>
        <time>2026-07-08T07:08:21Z</time>
      </trkpt>
      <trkpt lat="43.01774" lon="0.3151">
        <ele>793.4</ele>
        <time>2026-07-08T07:08:21Z</time>
      </trkpt>
      <trkpt lat="43.01773" lon="0.3151">
        <ele>793.4</ele>
        <time>2026-07-08T07:08:22Z</time>
      </trkpt>
      <trkpt lat="43.01773" lon="0.31511">
        <ele>793.4</ele>
        <time>2026-07-08T07:08:23Z</time>
      </trkpt>
      <trkpt lat="43.01772" lon="0.31512">
        <ele>793.4</ele>
        <time>2026-07-08T07:08:24Z</time>
      </trkpt>
      <trkpt lat="43.01771" lon="0.31513">
        <ele>793.4</ele>
        <time>2026-07-08T07:08:24Z</time>
      </trkpt>
      <trkpt lat="43.01771" lon="0.31513">
        <ele>793.4</ele>
        <time>2026-07-08T07:08:25Z</time>
      </trkpt>
      <trkpt lat="43.0177" lon="0.31514">
        <ele>793.4</ele>
        <time>2026-07-08T07:08:26Z</time>
      </trkpt>
      <trkpt lat="43.0177" lon="0.31515">
        <ele>793.4</ele>
        <time>2026-07-08T07:08:27Z</time>
      </trkpt>
      <trkpt lat="43.0177" lon="0.31516">
        <ele>794.4</ele>
        <time>2026-07-08T07:08:27Z</time>
      </trkpt>
      <trkpt lat="43.01769" lon="0.31516">
        <ele>794.4</ele>
        <time>2026-07-08T07:08:28Z</time>
      </trkpt>
      <trkpt lat="43.01769" lon="0.31517">
        <ele>794.4</ele>
        <time>2026-07-08T07:08:29Z</time>
      </trkpt>
      <trkpt lat="43.01769" lon="0.31517">
        <ele>795.4</ele>
        <time>2026-07-08T07:08:29Z</time>
      </trkpt>
      <trkpt lat="43.01768" lon="0.31518">
        <ele>795.4</ele>
        <time>2026-07-08T07:08:30Z</time>
      </trkpt>
      <trkpt lat="43.01768" lon="0.31519">
        <ele>795.4</ele>
        <time>2026-07-08T07:08:31Z</time>
      </trkpt>
      <trkpt lat="43.01768" lon="0.31519">
        <ele>795.4</ele>
        <time>2026-07-08T07:08:31Z</time>
      </trkpt>
      <trkpt lat="43.01768" lon="0.3152">
        <ele>796.4</ele>
        <time>2026-07-08T07:08:32Z</time>
      </trkpt>
      <trkpt lat="43.01767" lon="0.31521">
        <ele>796.4</ele>
        <time>2026-07-08T07:08:33Z</time>
      </trkpt>
      <trkpt lat="43.01767" lon="0.31521">
        <ele>795.4</ele>
        <time>2026-07-08T07:08:33Z</time>
      </trkpt>
      <trkpt lat="43.01767" lon="0.31522">
        <ele>795.4</ele>
        <time>2026-07-08T07:08:34Z</time>
      </trkpt>
      <trkpt lat="43.01767" lon="0.31522">
        <ele>795.4</ele>
        <time>2026-07-08T07:08:35Z</time>
      </trkpt>
      <trkpt lat="43.01767" lon="0.31523">
        <ele>795.4</ele>
        <time>2026-07-08T07:08:36Z</time>
      </trkpt>
      <trkpt lat="43.01767" lon="0.31524">
        <ele>795.4</ele>
        <time>2026-07-08T07:08:36Z</time>
      </trkpt>
      <trkpt lat="43.01767" lon="0.31524">
        <ele>795.4</ele>
        <time>2026-07-08T07:08:37Z</time>
      </trkpt>
      <trkpt lat="43.01766" lon="0.31525">
        <ele>795.4</ele>
        <time>2026-07-08T07:08:38Z</time>
      </trkpt>
      <trkpt lat="43.01766" lon="0.31526">
        <ele>795.4</ele>
        <time>2026-07-08T07:08:39Z</time>
      </trkpt>
      <trkpt lat="43.01766" lon="0.31526">
        <ele>795.4</ele>
        <time>2026-07-08T07:08:39Z</time>
      </trkpt>
      <trkpt lat="43.01765" lon="0.31527">
        <ele>795.4</ele>
        <time>2026-07-08T07:08:40Z</time>
      </trkpt>
      <trkpt lat="43.01765" lon="0.31528">
        <ele>795.4</ele>
        <time>2026-07-08T07:08:41Z</time>
      </trkpt>
      <trkpt lat="43.01765" lon="0.31528">
        <ele>795.4</ele>
        <time>2026-07-08T07:08:42Z</time>
      </trkpt>
      <trkpt lat="43.01764" lon="0.31528">
        <ele>795.4</ele>
        <time>2026-07-08T07:08:42Z</time>
      </trkpt>
      <trkpt lat="43.01764" lon="0.31529">
        <ele>795.4</ele>
        <time>2026-07-08T07:08:43Z</time>
      </trkpt>
      <trkpt lat="43.01764" lon="0.31529">
        <ele>795.4</ele>
        <time>2026-07-08T07:08:44Z</time>
      </trkpt>
      <trkpt lat="43.01764" lon="0.3153">
        <ele>795.4</ele>
        <time>2026-07-08T07:08:45Z</time>
      </trkpt>
      <trkpt lat="43.01764" lon="0.3153">
        <ele>794.4</ele>
        <time>2026-07-08T07:08:45Z</time>
      </trkpt>
      <trkpt lat="43.01763" lon="0.31531">
        <ele>794.4</ele>
        <time>2026-07-08T07:08:46Z</time>
      </trkpt>
      <trkpt lat="43.01763" lon="0.31531">
        <ele>794.4</ele>
        <time>2026-07-08T07:08:47Z</time>
      </trkpt>
      <trkpt lat="43.01763" lon="0.31532">
        <ele>794.4</ele>
        <time>2026-07-08T07:08:47Z</time>
      </trkpt>
      <trkpt lat="43.01762" lon="0.31531">
        <ele>794.4</ele>
        <time>2026-07-08T07:08:48Z</time>
      </trkpt>
      <trkpt lat="43.01762" lon="0.31531">
        <ele>794.4</ele>
        <time>2026-07-08T07:08:49Z</time>
      </trkpt>
      <trkpt lat="43.01762" lon="0.31531">
        <ele>793.4</ele>
        <time>2026-07-08T07:08:50Z</time>
      </trkpt>
      <trkpt lat="43.01761" lon="0.3153">
        <ele>794.4</ele>
        <time>2026-07-08T07:08:50Z</time>
      </trkpt>
      <trkpt lat="43.01761" lon="0.3153">
        <ele>794.4</ele>
        <time>2026-07-08T07:08:51Z</time>
      </trkpt>
      <trkpt lat="43.0176" lon="0.3153">
        <ele>794.4</ele>
        <time>2026-07-08T07:08:52Z</time>
      </trkpt>
      <trkpt lat="43.0176" lon="0.3153">
        <ele>795.4</ele>
        <time>2026-07-08T07:08:53Z</time>
      </trkpt>
      <trkpt lat="43.01759" lon="0.3153">
        <ele>795.4</ele>
        <time>2026-07-08T07:08:54Z</time>
      </trkpt>
      <trkpt lat="43.01759" lon="0.3153">
        <ele>795.4</ele>
        <time>2026-07-08T07:08:54Z</time>
      </trkpt>
      <trkpt lat="43.01759" lon="0.31531">
        <ele>795.4</ele>
        <time>2026-07-08T07:08:55Z</time>
      </trkpt>
      <trkpt lat="43.01758" lon="0.31531">
        <ele>795.4</ele>
        <time>2026-07-08T07:08:56Z</time>
      </trkpt>
      <trkpt lat="43.01758" lon="0.31531">
        <ele>795.4</ele>
        <time>2026-07-08T07:08:57Z</time>
      </trkpt>
      <trkpt lat="43.01757" lon="0.31531">
        <ele>795.4</ele>
        <time>2026-07-08T07:08:57Z</time>
      </trkpt>
      <trkpt lat="43.01757" lon="0.31532">
        <ele>795.4</ele>
        <time>2026-07-08T07:08:58Z</time>
      </trkpt>
      <trkpt lat="43.01756" lon="0.31532">
        <ele>795.4</ele>
        <time>2026-07-08T07:08:59Z</time>
      </trkpt>
      <trkpt lat="43.01756" lon="0.31533">
        <ele>795.4</ele>
        <time>2026-07-08T07:08:59Z</time>
      </trkpt>
      <trkpt lat="43.01755" lon="0.31533">
        <ele>795.4</ele>
        <time>2026-07-08T07:09:00Z</time>
      </trkpt>
      <trkpt lat="43.01754" lon="0.31533">
        <ele>795.4</ele>
        <time>2026-07-08T07:09:01Z</time>
      </trkpt>
      <trkpt lat="43.01753" lon="0.31532">
        <ele>795.4</ele>
        <time>2026-07-08T07:09:02Z</time>
      </trkpt>
      <trkpt lat="43.01752" lon="0.31531">
        <ele>796.4</ele>
        <time>2026-07-08T07:09:02Z</time>
      </trkpt>
      <trkpt lat="43.01751" lon="0.31531">
        <ele>796.4</ele>
        <time>2026-07-08T07:09:03Z</time>
      </trkpt>
      <trkpt lat="43.0175" lon="0.3153">
        <ele>796.4</ele>
        <time>2026-07-08T07:09:04Z</time>
      </trkpt>
      <trkpt lat="43.01749" lon="0.31529">
        <ele>796.4</ele>
        <time>2026-07-08T07:09:05Z</time>
      </trkpt>
      <trkpt lat="43.01747" lon="0.31528">
        <ele>796.4</ele>
        <time>2026-07-08T07:09:06Z</time>
      </trkpt>
      <trkpt lat="43.01746" lon="0.31527">
        <ele>796.4</ele>
        <time>2026-07-08T07:09:06Z</time>
      </trkpt>
      <trkpt lat="43.01745" lon="0.31526">
        <ele>796.4</ele>
        <time>2026-07-08T07:09:07Z</time>
      </trkpt>
      <trkpt lat="43.01744" lon="0.31525">
        <ele>796.4</ele>
        <time>2026-07-08T07:09:08Z</time>
      </trkpt>
      <trkpt lat="43.01744" lon="0.31525">
        <ele>796.4</ele>
        <time>2026-07-08T07:09:09Z</time>
      </trkpt>
      <trkpt lat="43.01743" lon="0.31525">
        <ele>796.4</ele>
        <time>2026-07-08T07:09:10Z</time>
      </trkpt>
      <trkpt lat="43.01743" lon="0.31524">
        <ele>797.4</ele>
        <time>2026-07-08T07:09:10Z</time>
      </trkpt>
      <trkpt lat="43.01742" lon="0.31524">
        <ele>797.4</ele>
        <time>2026-07-08T07:09:11Z</time>
      </trkpt>
      <trkpt lat="43.01741" lon="0.31524">
        <ele>797.4</ele>
        <time>2026-07-08T07:09:12Z</time>
      </trkpt>
      <trkpt lat="43.01741" lon="0.31524">
        <ele>798.4</ele>
        <time>2026-07-08T07:09:13Z</time>
      </trkpt>
      <trkpt lat="43.0174" lon="0.31524">
        <ele>799.4</ele>
        <time>2026-07-08T07:09:13Z</time>
      </trkpt>
      <trkpt lat="43.01739" lon="0.31525">
        <ele>799.4</ele>
        <time>2026-07-08T07:09:14Z</time>
      </trkpt>
      <trkpt lat="43.01739" lon="0.31525">
        <ele>799.4</ele>
        <time>2026-07-08T07:09:15Z</time>
      </trkpt>
      <trkpt lat="43.01738" lon="0.31525">
        <ele>799.4</ele>
        <time>2026-07-08T07:09:15Z</time>
      </trkpt>
      <trkpt lat="43.01737" lon="0.31525">
        <ele>799.4</ele>
        <time>2026-07-08T07:09:16Z</time>
      </trkpt>
      <trkpt lat="43.01737" lon="0.31525">
        <ele>799.4</ele>
        <time>2026-07-08T07:09:17Z</time>
      </trkpt>
      <trkpt lat="43.01736" lon="0.31526">
        <ele>800.4</ele>
        <time>2026-07-08T07:09:17Z</time>
      </trkpt>
      <trkpt lat="43.01736" lon="0.31526">
        <ele>800.4</ele>
        <time>2026-07-08T07:09:18Z</time>
      </trkpt>
      <trkpt lat="43.01735" lon="0.31526">
        <ele>801.4</ele>
        <time>2026-07-08T07:09:19Z</time>
      </trkpt>
      <trkpt lat="43.01734" lon="0.31526">
        <ele>801.4</ele>
        <time>2026-07-08T07:09:20Z</time>
      </trkpt>
      <trkpt lat="43.01734" lon="0.31527">
        <ele>801.4</ele>
        <time>2026-07-08T07:09:21Z</time>
      </trkpt>
      <trkpt lat="43.01733" lon="0.31527">
        <ele>801.4</ele>
        <time>2026-07-08T07:09:21Z</time>
      </trkpt>
      <trkpt lat="43.01732" lon="0.31527">
        <ele>801.4</ele>
        <time>2026-07-08T07:09:22Z</time>
      </trkpt>
      <trkpt lat="43.01732" lon="0.31528">
        <ele>801.4</ele>
        <time>2026-07-08T07:09:23Z</time>
      </trkpt>
      <trkpt lat="43.01731" lon="0.31528">
        <ele>801.4</ele>
        <time>2026-07-08T07:09:24Z</time>
      </trkpt>
      <trkpt lat="43.01731" lon="0.31529">
        <ele>800.4</ele>
        <time>2026-07-08T07:09:24Z</time>
      </trkpt>
      <trkpt lat="43.0173" lon="0.31529">
        <ele>801.4</ele>
        <time>2026-07-08T07:09:25Z</time>
      </trkpt>
      <trkpt lat="43.0173" lon="0.3153">
        <ele>801.4</ele>
        <time>2026-07-08T07:09:26Z</time>
      </trkpt>
      <trkpt lat="43.01729" lon="0.3153">
        <ele>801.4</ele>
        <time>2026-07-08T07:09:27Z</time>
      </trkpt>
      <trkpt lat="43.01729" lon="0.31531">
        <ele>802.4</ele>
        <time>2026-07-08T07:09:27Z</time>
      </trkpt>
      <trkpt lat="43.01728" lon="0.31531">
        <ele>802.4</ele>
        <time>2026-07-08T07:09:28Z</time>
      </trkpt>
      <trkpt lat="43.01728" lon="0.31532">
        <ele>802.4</ele>
        <time>2026-07-08T07:09:29Z</time>
      </trkpt>
      <trkpt lat="43.01727" lon="0.31532">
        <ele>802.4</ele>
        <time>2026-07-08T07:09:30Z</time>
      </trkpt>
      <trkpt lat="43.01726" lon="0.31532">
        <ele>802.4</ele>
        <time>2026-07-08T07:09:30Z</time>
      </trkpt>
      <trkpt lat="43.01726" lon="0.31533">
        <ele>802.4</ele>
        <time>2026-07-08T07:09:31Z</time>
      </trkpt>
      <trkpt lat="43.01725" lon="0.31533">
        <ele>802.4</ele>
        <time>2026-07-08T07:09:32Z</time>
      </trkpt>
      <trkpt lat="43.01725" lon="0.31534">
        <ele>803.4</ele>
        <time>2026-07-08T07:09:32Z</time>
      </trkpt>
      <trkpt lat="43.01725" lon="0.31534">
        <ele>802.4</ele>
        <time>2026-07-08T07:09:33Z</time>
      </trkpt>
      <trkpt lat="43.01724" lon="0.31535">
        <ele>802.4</ele>
        <time>2026-07-08T07:09:34Z</time>
      </trkpt>
      <trkpt lat="43.01724" lon="0.31536">
        <ele>802.4</ele>
        <time>2026-07-08T07:09:35Z</time>
      </trkpt>
      <trkpt lat="43.01724" lon="0.31537">
        <ele>802.4</ele>
        <time>2026-07-08T07:09:35Z</time>
      </trkpt>
      <trkpt lat="43.01724" lon="0.31537">
        <ele>801.4</ele>
        <time>2026-07-08T07:09:36Z</time>
      </trkpt>
      <trkpt lat="43.01723" lon="0.31538">
        <ele>801.4</ele>
        <time>2026-07-08T07:09:37Z</time>
      </trkpt>
      <trkpt lat="43.01723" lon="0.31539">
        <ele>802.4</ele>
        <time>2026-07-08T07:09:38Z</time>
      </trkpt>
      <trkpt lat="43.01723" lon="0.3154">
        <ele>802.4</ele>
        <time>2026-07-08T07:09:38Z</time>
      </trkpt>
      <trkpt lat="43.01723" lon="0.3154">
        <ele>802.4</ele>
        <time>2026-07-08T07:09:39Z</time>
      </trkpt>
      <trkpt lat="43.01723" lon="0.31541">
        <ele>802.4</ele>
        <time>2026-07-08T07:09:40Z</time>
      </trkpt>
      <trkpt lat="43.01723" lon="0.31542">
        <ele>802.4</ele>
        <time>2026-07-08T07:09:40Z</time>
      </trkpt>
      <trkpt lat="43.01722" lon="0.31542">
        <ele>802.4</ele>
        <time>2026-07-08T07:09:41Z</time>
      </trkpt>
      <trkpt lat="43.01722" lon="0.31543">
        <ele>803.4</ele>
        <time>2026-07-08T07:09:41Z</time>
      </trkpt>
      <trkpt lat="43.01721" lon="0.31543">
        <ele>803.4</ele>
        <time>2026-07-08T07:09:42Z</time>
      </trkpt>
      <trkpt lat="43.01721" lon="0.31543">
        <ele>803.4</ele>
        <time>2026-07-08T07:09:43Z</time>
      </trkpt>
      <trkpt lat="43.01721" lon="0.31544">
        <ele>804.4</ele>
        <time>2026-07-08T07:09:44Z</time>
      </trkpt>
      <trkpt lat="43.0172" lon="0.31544">
        <ele>804.4</ele>
        <time>2026-07-08T07:09:44Z</time>
      </trkpt>
      <trkpt lat="43.0172" lon="0.31545">
        <ele>804.4</ele>
        <time>2026-07-08T07:09:45Z</time>
      </trkpt>
      <trkpt lat="43.01719" lon="0.31545">
        <ele>804.4</ele>
        <time>2026-07-08T07:09:46Z</time>
      </trkpt>
      <trkpt lat="43.01719" lon="0.31545">
        <ele>805.4</ele>
        <time>2026-07-08T07:09:47Z</time>
      </trkpt>
      <trkpt lat="43.01719" lon="0.31546">
        <ele>804.4</ele>
        <time>2026-07-08T07:09:47Z</time>
      </trkpt>
      <trkpt lat="43.01718" lon="0.31546">
        <ele>805.4</ele>
        <time>2026-07-08T07:09:48Z</time>
      </trkpt>
      <trkpt lat="43.01717" lon="0.31546">
        <ele>805.4</ele>
        <time>2026-07-08T07:09:49Z</time>
      </trkpt>
      <trkpt lat="43.01717" lon="0.31546">
        <ele>805.4</ele>
        <time>2026-07-08T07:09:50Z</time>
      </trkpt>
      <trkpt lat="43.01716" lon="0.31546">
        <ele>805.4</ele>
        <time>2026-07-08T07:09:51Z</time>
      </trkpt>
      <trkpt lat="43.01716" lon="0.31547">
        <ele>806.4</ele>
        <time>2026-07-08T07:09:52Z</time>
      </trkpt>
      <trkpt lat="43.01715" lon="0.31547">
        <ele>806.4</ele>
        <time>2026-07-08T07:09:53Z</time>
      </trkpt>
      <trkpt lat="43.01715" lon="0.31547">
        <ele>806.4</ele>
        <time>2026-07-08T07:09:53Z</time>
      </trkpt>
      <trkpt lat="43.01715" lon="0.31547">
        <ele>808.4</ele>
        <time>2026-07-08T07:09:54Z</time>
      </trkpt>
      <trkpt lat="43.01715" lon="0.31548">
        <ele>808.4</ele>
        <time>2026-07-08T07:09:55Z</time>
      </trkpt>
      <trkpt lat="43.01716" lon="0.31548">
        <ele>807.4</ele>
        <time>2026-07-08T07:09:56Z</time>
      </trkpt>
      <trkpt lat="43.01716" lon="0.31548">
        <ele>807.4</ele>
        <time>2026-07-08T07:09:57Z</time>
      </trkpt>
      <trkpt lat="43.01716" lon="0.31548">
        <ele>807.4</ele>
        <time>2026-07-08T07:09:58Z</time>
      </trkpt>
      <trkpt lat="43.01716" lon="0.31548">
        <ele>807.4</ele>
        <time>2026-07-08T07:09:59Z</time>
      </trkpt>
      <trkpt lat="43.01716" lon="0.31548">
        <ele>807.4</ele>
        <time>2026-07-08T07:10:00Z</time>
      </trkpt>
      <trkpt lat="43.01716" lon="0.31548">
        <ele>808.4</ele>
        <time>2026-07-08T07:10:00Z</time>
      </trkpt>
      <trkpt lat="43.01716" lon="0.31548">
        <ele>808.4</ele>
        <time>2026-07-08T07:10:01Z</time>
      </trkpt>
      <trkpt lat="43.01716" lon="0.31548">
        <ele>808.4</ele>
        <time>2026-07-08T07:10:02Z</time>
      </trkpt>
      <trkpt lat="43.01716" lon="0.31548">
        <ele>808.4</ele>
        <time>2026-07-08T07:10:03Z</time>
      </trkpt>
      <trkpt lat="43.01716" lon="0.31548">
        <ele>809.4</ele>
        <time>2026-07-08T07:10:04Z</time>
      </trkpt>
      <trkpt lat="43.01715" lon="0.31548">
        <ele>809.4</ele>
        <time>2026-07-08T07:10:04Z</time>
      </trkpt>
      <trkpt lat="43.01715" lon="0.31548">
        <ele>809.4</ele>
        <time>2026-07-08T07:10:05Z</time>
      </trkpt>
      <trkpt lat="43.01714" lon="0.31548">
        <ele>809.4</ele>
        <time>2026-07-08T07:10:06Z</time>
      </trkpt>
      <trkpt lat="43.01713" lon="0.31548">
        <ele>809.4</ele>
        <time>2026-07-08T07:10:06Z</time>
      </trkpt>
      <trkpt lat="43.01712" lon="0.31548">
        <ele>809.4</ele>
        <time>2026-07-08T07:10:07Z</time>
      </trkpt>
      <trkpt lat="43.01711" lon="0.31548">
        <ele>809.4</ele>
        <time>2026-07-08T07:10:08Z</time>
      </trkpt>
      <trkpt lat="43.0171" lon="0.31548">
        <ele>809.4</ele>
        <time>2026-07-08T07:10:09Z</time>
      </trkpt>
      <trkpt lat="43.01709" lon="0.31549">
        <ele>809.4</ele>
        <time>2026-07-08T07:10:09Z</time>
      </trkpt>
      <trkpt lat="43.01709" lon="0.31549">
        <ele>809.4</ele>
        <time>2026-07-08T07:10:10Z</time>
      </trkpt>
      <trkpt lat="43.01708" lon="0.31549">
        <ele>810.4</ele>
        <time>2026-07-08T07:10:11Z</time>
      </trkpt>
      <trkpt lat="43.01708" lon="0.3155">
        <ele>810.4</ele>
        <time>2026-07-08T07:10:11Z</time>
      </trkpt>
      <trkpt lat="43.01708" lon="0.3155">
        <ele>809.4</ele>
        <time>2026-07-08T07:10:12Z</time>
      </trkpt>
      <trkpt lat="43.01708" lon="0.31551">
        <ele>809.4</ele>
        <time>2026-07-08T07:10:13Z</time>
      </trkpt>
      <trkpt lat="43.01708" lon="0.31551">
        <ele>809.4</ele>
        <time>2026-07-08T07:10:14Z</time>
      </trkpt>
      <trkpt lat="43.01707" lon="0.31551">
        <ele>809.4</ele>
        <time>2026-07-08T07:10:14Z</time>
      </trkpt>
      <trkpt lat="43.01707" lon="0.31551">
        <ele>809.4</ele>
        <time>2026-07-08T07:10:15Z</time>
      </trkpt>
      <trkpt lat="43.01707" lon="0.31551">
        <ele>809.4</ele>
        <time>2026-07-08T07:10:16Z</time>
      </trkpt>
      <trkpt lat="43.01708" lon="0.3155">
        <ele>808.4</ele>
        <time>2026-07-08T07:10:17Z</time>
      </trkpt>
      <trkpt lat="43.01708" lon="0.3155">
        <ele>808.4</ele>
        <time>2026-07-08T07:10:18Z</time>
      </trkpt>
      <trkpt lat="43.01708" lon="0.3155">
        <ele>808.4</ele>
        <time>2026-07-08T07:10:19Z</time>
      </trkpt>
      <trkpt lat="43.01708" lon="0.3155">
        <ele>808.4</ele>
        <time>2026-07-08T07:10:20Z</time>
      </trkpt>
      <trkpt lat="43.01708" lon="0.3155">
        <ele>808.4</ele>
        <time>2026-07-08T07:10:20Z</time>
      </trkpt>
      <trkpt lat="43.01708" lon="0.3155">
        <ele>808.4</ele>
        <time>2026-07-08T07:10:21Z</time>
      </trkpt>
      <trkpt lat="43.01707" lon="0.3155">
        <ele>808.4</ele>
        <time>2026-07-08T07:10:21Z</time>
      </trkpt>
      <trkpt lat="43.01707" lon="0.3155">
        <ele>807.4</ele>
        <time>2026-07-08T07:10:22Z</time>
      </trkpt>
      <trkpt lat="43.01707" lon="0.31549">
        <ele>807.4</ele>
        <time>2026-07-08T07:10:23Z</time>
      </trkpt>
      <trkpt lat="43.01707" lon="0.31549">
        <ele>807.4</ele>
        <time>2026-07-08T07:10:24Z</time>
      </trkpt>
      <trkpt lat="43.01707" lon="0.31549">
        <ele>807.4</ele>
        <time>2026-07-08T07:10:25Z</time>
      </trkpt>
      <trkpt lat="43.01707" lon="0.31549">
        <ele>807.4</ele>
        <time>2026-07-08T07:10:26Z</time>
      </trkpt>
      <trkpt lat="43.01706" lon="0.31549">
        <ele>807.4</ele>
        <time>2026-07-08T07:10:26Z</time>
      </trkpt>
      <trkpt lat="43.01706" lon="0.31549">
        <ele>807.4</ele>
        <time>2026-07-08T07:10:27Z</time>
      </trkpt>
      <trkpt lat="43.01706" lon="0.31549">
        <ele>807.4</ele>
        <time>2026-07-08T07:10:28Z</time>
      </trkpt>
      <trkpt lat="43.01706" lon="0.31548">
        <ele>808.4</ele>
        <time>2026-07-08T07:10:29Z</time>
      </trkpt>
      <trkpt lat="43.01705" lon="0.31548">
        <ele>810.4</ele>
        <time>2026-07-08T07:10:30Z</time>
      </trkpt>
      <trkpt lat="43.01706" lon="0.31549">
        <ele>810.4</ele>
        <time>2026-07-08T07:10:31Z</time>
      </trkpt>
      <trkpt lat="43.01706" lon="0.31549">
        <ele>810.4</ele>
        <time>2026-07-08T07:10:31Z</time>
      </trkpt>
      <trkpt lat="43.01706" lon="0.31549">
        <ele>810.4</ele>
        <time>2026-07-08T07:10:32Z</time>
      </trkpt>
      <trkpt lat="43.01705" lon="0.31548">
        <ele>810.4</ele>
        <time>2026-07-08T07:10:33Z</time>
      </trkpt>
      <trkpt lat="43.01705" lon="0.31548">
        <ele>811.4</ele>
        <time>2026-07-08T07:10:34Z</time>
      </trkpt>
      <trkpt lat="43.01704" lon="0.31548">
        <ele>811.4</ele>
        <time>2026-07-08T07:10:35Z</time>
      </trkpt>
      <trkpt lat="43.01704" lon="0.31548">
        <ele>811.4</ele>
        <time>2026-07-08T07:10:36Z</time>
      </trkpt>
      <trkpt lat="43.01703" lon="0.31548">
        <ele>812.4</ele>
        <time>2026-07-08T07:10:37Z</time>
      </trkpt>
      <trkpt lat="43.01703" lon="0.31548">
        <ele>814.4</ele>
        <time>2026-07-08T07:10:38Z</time>
      </trkpt>
      <trkpt lat="43.01703" lon="0.31549">
        <ele>814.4</ele>
        <time>2026-07-08T07:10:39Z</time>
      </trkpt>
      <trkpt lat="43.01703" lon="0.31549">
        <ele>814.4</ele>
        <time>2026-07-08T07:10:40Z</time>
      </trkpt>
      <trkpt lat="43.01703" lon="0.31549">
        <ele>815.4</ele>
        <time>2026-07-08T07:10:40Z</time>
      </trkpt>
      <trkpt lat="43.01703" lon="0.31549">
        <ele>815.4</ele>
        <time>2026-07-08T07:10:41Z</time>
      </trkpt>
      <trkpt lat="43.01702" lon="0.31549">
        <ele>815.4</ele>
        <time>2026-07-08T07:10:42Z</time>
      </trkpt>
      <trkpt lat="43.01702" lon="0.31549">
        <ele>815.4</ele>
        <time>2026-07-08T07:10:43Z</time>
      </trkpt>
      <trkpt lat="43.01702" lon="0.31549">
        <ele>815.4</ele>
        <time>2026-07-08T07:10:44Z</time>
      </trkpt>
      <trkpt lat="43.01702" lon="0.31549">
        <ele>815.4</ele>
        <time>2026-07-08T07:10:45Z</time>
      </trkpt>
      <trkpt lat="43.01702" lon="0.31549">
        <ele>815.4</ele>
        <time>2026-07-08T07:10:45Z</time>
      </trkpt>
      <trkpt lat="43.01702" lon="0.31549">
        <ele>815.4</ele>
        <time>2026-07-08T07:10:46Z</time>
      </trkpt>
      <trkpt lat="43.01701" lon="0.31549">
        <ele>815.4</ele>
        <time>2026-07-08T07:10:47Z</time>
      </trkpt>
      <trkpt lat="43.01701" lon="0.31549">
        <ele>815.4</ele>
        <time>2026-07-08T07:10:48Z</time>
      </trkpt>
      <trkpt lat="43.017" lon="0.3155">
        <ele>815.4</ele>
        <time>2026-07-08T07:10:48Z</time>
      </trkpt>
      <trkpt lat="43.01699" lon="0.3155">
        <ele>817.4</ele>
        <time>2026-07-08T07:10:49Z</time>
      </trkpt>
      <trkpt lat="43.01698" lon="0.3155">
        <ele>816.4</ele>
        <time>2026-07-08T07:10:50Z</time>
      </trkpt>
      <trkpt lat="43.01697" lon="0.3155">
        <ele>816.4</ele>
        <time>2026-07-08T07:10:51Z</time>
      </trkpt>
      <trkpt lat="43.01696" lon="0.3155">
        <ele>816.4</ele>
        <time>2026-07-08T07:10:52Z</time>
      </trkpt>
      <trkpt lat="43.01696" lon="0.3155">
        <ele>817.4</ele>
        <time>2026-07-08T07:10:53Z</time>
      </trkpt>
      <trkpt lat="43.01695" lon="0.3155">
        <ele>817.4</ele>
        <time>2026-07-08T07:10:54Z</time>
      </trkpt>
      <trkpt lat="43.01695" lon="0.31551">
        <ele>816.4</ele>
        <time>2026-07-08T07:10:55Z</time>
      </trkpt>
      <trkpt lat="43.01695" lon="0.31551">
        <ele>817.4</ele>
        <time>2026-07-08T07:10:55Z</time>
      </trkpt>
      <trkpt lat="43.01695" lon="0.31551">
        <ele>816.4</ele>
        <time>2026-07-08T07:10:56Z</time>
      </trkpt>
      <trkpt lat="43.01694" lon="0.31551">
        <ele>816.4</ele>
        <time>2026-07-08T07:10:57Z</time>
      </trkpt>
      <trkpt lat="43.01694" lon="0.31552">
        <ele>816.4</ele>
        <time>2026-07-08T07:10:58Z</time>
      </trkpt>
      <trkpt lat="43.01693" lon="0.31552">
        <ele>815.4</ele>
        <time>2026-07-08T07:10:59Z</time>
      </trkpt>
      <trkpt lat="43.01693" lon="0.31552">
        <ele>815.4</ele>
        <time>2026-07-08T07:11:00Z</time>
      </trkpt>
      <trkpt lat="43.01692" lon="0.31552">
        <ele>816.4</ele>
        <time>2026-07-08T07:11:00Z</time>
      </trkpt>
      <trkpt lat="43.01692" lon="0.31553">
        <ele>816.4</ele>
        <time>2026-07-08T07:11:01Z</time>
      </trkpt>
      <trkpt lat="43.01691" lon="0.31554">
        <ele>816.4</ele>
        <time>2026-07-08T07:11:01Z</time>
      </trkpt>
      <trkpt lat="43.01691" lon="0.31554">
        <ele>816.4</ele>
        <time>2026-07-08T07:11:02Z</time>
      </trkpt>
      <trkpt lat="43.0169" lon="0.31554">
        <ele>816.4</ele>
        <time>2026-07-08T07:11:03Z</time>
      </trkpt>
      <trkpt lat="43.01689" lon="0.31555">
        <ele>817.4</ele>
        <time>2026-07-08T07:11:04Z</time>
      </trkpt>
      <trkpt lat="43.01689" lon="0.31555">
        <ele>816.4</ele>
        <time>2026-07-08T07:11:04Z</time>
      </trkpt>
      <trkpt lat="43.01688" lon="0.31555">
        <ele>816.4</ele>
        <time>2026-07-08T07:11:05Z</time>
      </trkpt>
      <trkpt lat="43.01688" lon="0.31556">
        <ele>816.4</ele>
        <time>2026-07-08T07:11:06Z</time>
      </trkpt>
      <trkpt lat="43.01687" lon="0.31557">
        <ele>817.4</ele>
        <time>2026-07-08T07:11:07Z</time>
      </trkpt>
      <trkpt lat="43.01687" lon="0.31557">
        <ele>817.4</ele>
        <time>2026-07-08T07:11:07Z</time>
      </trkpt>
      <trkpt lat="43.01687" lon="0.31558">
        <ele>817.4</ele>
        <time>2026-07-08T07:11:08Z</time>
      </trkpt>
      <trkpt lat="43.01687" lon="0.31558">
        <ele>817.4</ele>
        <time>2026-07-08T07:11:09Z</time>
      </trkpt>
      <trkpt lat="43.01686" lon="0.31559">
        <ele>817.4</ele>
        <time>2026-07-08T07:11:09Z</time>
      </trkpt>
      <trkpt lat="43.01686" lon="0.31559">
        <ele>817.4</ele>
        <time>2026-07-08T07:11:10Z</time>
      </trkpt>
      <trkpt lat="43.01686" lon="0.31559">
        <ele>817.4</ele>
        <time>2026-07-08T07:11:11Z</time>
      </trkpt>
      <trkpt lat="43.01685" lon="0.31559">
        <ele>818.4</ele>
        <time>2026-07-08T07:11:12Z</time>
      </trkpt>
      <trkpt lat="43.01685" lon="0.31559">
        <ele>817.4</ele>
        <time>2026-07-08T07:11:12Z</time>
      </trkpt>
      <trkpt lat="43.01684" lon="0.31559">
        <ele>817.4</ele>
        <time>2026-07-08T07:11:13Z</time>
      </trkpt>
      <trkpt lat="43.01684" lon="0.31559">
        <ele>817.4</ele>
        <time>2026-07-08T07:11:14Z</time>
      </trkpt>
      <trkpt lat="43.01683" lon="0.31559">
        <ele>817.4</ele>
        <time>2026-07-08T07:11:15Z</time>
      </trkpt>
      <trkpt lat="43.01682" lon="0.31558">
        <ele>817.4</ele>
        <time>2026-07-08T07:11:16Z</time>
      </trkpt>
      <trkpt lat="43.01682" lon="0.31558">
        <ele>817.4</ele>
        <time>2026-07-08T07:11:17Z</time>
      </trkpt>
      <trkpt lat="43.01681" lon="0.31558">
        <ele>818.4</ele>
        <time>2026-07-08T07:11:17Z</time>
      </trkpt>
      <trkpt lat="43.01681" lon="0.31557">
        <ele>818.4</ele>
        <time>2026-07-08T07:11:18Z</time>
      </trkpt>
      <trkpt lat="43.0168" lon="0.31557">
        <ele>818.4</ele>
        <time>2026-07-08T07:11:19Z</time>
      </trkpt>
      <trkpt lat="43.0168" lon="0.31557">
        <ele>817.4</ele>
        <time>2026-07-08T07:11:20Z</time>
      </trkpt>
      <trkpt lat="43.01679" lon="0.31556">
        <ele>817.4</ele>
        <time>2026-07-08T07:11:20Z</time>
      </trkpt>
      <trkpt lat="43.01679" lon="0.31556">
        <ele>817.4</ele>
        <time>2026-07-08T07:11:21Z</time>
      </trkpt>
      <trkpt lat="43.01678" lon="0.31555">
        <ele>817.4</ele>
        <time>2026-07-08T07:11:22Z</time>
      </trkpt>
      <trkpt lat="43.01678" lon="0.31555">
        <ele>817.4</ele>
        <time>2026-07-08T07:11:23Z</time>
      </trkpt>
      <trkpt lat="43.01677" lon="0.31554">
        <ele>817.4</ele>
        <time>2026-07-08T07:11:24Z</time>
      </trkpt>
      <trkpt lat="43.01677" lon="0.31553">
        <ele>817.4</ele>
        <time>2026-07-08T07:11:25Z</time>
      </trkpt>
      <trkpt lat="43.01676" lon="0.31553">
        <ele>817.4</ele>
        <time>2026-07-08T07:11:26Z</time>
      </trkpt>
      <trkpt lat="43.01675" lon="0.31552">
        <ele>817.4</ele>
        <time>2026-07-08T07:11:26Z</time>
      </trkpt>
      <trkpt lat="43.01675" lon="0.31552">
        <ele>817.4</ele>
        <time>2026-07-08T07:11:27Z</time>
      </trkpt>
      <trkpt lat="43.01674" lon="0.31551">
        <ele>817.4</ele>
        <time>2026-07-08T07:11:28Z</time>
      </trkpt>
      <trkpt lat="43.01674" lon="0.31551">
        <ele>817.4</ele>
        <time>2026-07-08T07:11:29Z</time>
      </trkpt>
      <trkpt lat="43.01674" lon="0.3155">
        <ele>817.4</ele>
        <time>2026-07-08T07:11:29Z</time>
      </trkpt>
      <trkpt lat="43.01674" lon="0.3155">
        <ele>817.4</ele>
        <time>2026-07-08T07:11:30Z</time>
      </trkpt>
      <trkpt lat="43.01673" lon="0.3155">
        <ele>817.4</ele>
        <time>2026-07-08T07:11:31Z</time>
      </trkpt>
      <trkpt lat="43.01673" lon="0.31549">
        <ele>817.4</ele>
        <time>2026-07-08T07:11:32Z</time>
      </trkpt>
      <trkpt lat="43.01672" lon="0.31549">
        <ele>818.4</ele>
        <time>2026-07-08T07:11:33Z</time>
      </trkpt>
      <trkpt lat="43.01672" lon="0.31549">
        <ele>817.4</ele>
        <time>2026-07-08T07:11:33Z</time>
      </trkpt>
      <trkpt lat="43.01671" lon="0.31549">
        <ele>817.4</ele>
        <time>2026-07-08T07:11:34Z</time>
      </trkpt>
      <trkpt lat="43.01671" lon="0.31549">
        <ele>817.4</ele>
        <time>2026-07-08T07:11:35Z</time>
      </trkpt>
      <trkpt lat="43.0167" lon="0.31548">
        <ele>817.4</ele>
        <time>2026-07-08T07:11:36Z</time>
      </trkpt>
      <trkpt lat="43.01669" lon="0.31548">
        <ele>817.4</ele>
        <time>2026-07-08T07:11:37Z</time>
      </trkpt>
      <trkpt lat="43.01669" lon="0.31548">
        <ele>817.4</ele>
        <time>2026-07-08T07:11:38Z</time>
      </trkpt>
      <trkpt lat="43.01668" lon="0.31548">
        <ele>817.4</ele>
        <time>2026-07-08T07:11:38Z</time>
      </trkpt>
      <trkpt lat="43.01668" lon="0.31548">
        <ele>817.4</ele>
        <time>2026-07-08T07:11:39Z</time>
      </trkpt>
      <trkpt lat="43.01667" lon="0.31548">
        <ele>816.4</ele>
        <time>2026-07-08T07:11:40Z</time>
      </trkpt>
      <trkpt lat="43.01666" lon="0.31548">
        <ele>816.4</ele>
        <time>2026-07-08T07:11:41Z</time>
      </trkpt>
      <trkpt lat="43.01666" lon="0.31548">
        <ele>816.4</ele>
        <time>2026-07-08T07:11:42Z</time>
      </trkpt>
      <trkpt lat="43.01666" lon="0.31547">
        <ele>815.4</ele>
        <time>2026-07-08T07:11:42Z</time>
      </trkpt>
      <trkpt lat="43.01665" lon="0.31547">
        <ele>815.4</ele>
        <time>2026-07-08T07:11:43Z</time>
      </trkpt>
      <trkpt lat="43.01665" lon="0.31547">
        <ele>815.4</ele>
        <time>2026-07-08T07:11:44Z</time>
      </trkpt>
      <trkpt lat="43.01664" lon="0.31547">
        <ele>815.4</ele>
        <time>2026-07-08T07:11:45Z</time>
      </trkpt>
      <trkpt lat="43.01664" lon="0.31547">
        <ele>815.4</ele>
        <time>2026-07-08T07:11:46Z</time>
      </trkpt>
      <trkpt lat="43.01664" lon="0.31547">
        <ele>815.4</ele>
        <time>2026-07-08T07:11:46Z</time>
      </trkpt>
      <trkpt lat="43.01663" lon="0.31547">
        <ele>815.4</ele>
        <time>2026-07-08T07:11:47Z</time>
      </trkpt>
      <trkpt lat="43.01662" lon="0.31547">
        <ele>815.4</ele>
        <time>2026-07-08T07:11:48Z</time>
      </trkpt>
      <trkpt lat="43.01662" lon="0.31547">
        <ele>814.4</ele>
        <time>2026-07-08T07:11:49Z</time>
      </trkpt>
      <trkpt lat="43.01662" lon="0.31547">
        <ele>814.4</ele>
        <time>2026-07-08T07:11:49Z</time>
      </trkpt>
      <trkpt lat="43.01662" lon="0.31547">
        <ele>815.4</ele>
        <time>2026-07-08T07:11:50Z</time>
      </trkpt>
      <trkpt lat="43.01661" lon="0.31547">
        <ele>815.4</ele>
        <time>2026-07-08T07:11:51Z</time>
      </trkpt>
      <trkpt lat="43.01661" lon="0.31547">
        <ele>815.4</ele>
        <time>2026-07-08T07:11:52Z</time>
      </trkpt>
      <trkpt lat="43.01661" lon="0.31547">
        <ele>816.4</ele>
        <time>2026-07-08T07:11:52Z</time>
      </trkpt>
      <trkpt lat="43.01661" lon="0.31547">
        <ele>816.4</ele>
        <time>2026-07-08T07:11:53Z</time>
      </trkpt>
      <trkpt lat="43.0166" lon="0.31546">
        <ele>816.4</ele>
        <time>2026-07-08T07:11:54Z</time>
      </trkpt>
      <trkpt lat="43.0166" lon="0.31546">
        <ele>816.4</ele>
        <time>2026-07-08T07:11:55Z</time>
      </trkpt>
      <trkpt lat="43.01659" lon="0.31545">
        <ele>816.4</ele>
        <time>2026-07-08T07:11:56Z</time>
      </trkpt>
      <trkpt lat="43.01659" lon="0.31545">
        <ele>816.4</ele>
        <time>2026-07-08T07:11:56Z</time>
      </trkpt>
      <trkpt lat="43.01658" lon="0.31544">
        <ele>816.4</ele>
        <time>2026-07-08T07:11:57Z</time>
      </trkpt>
      <trkpt lat="43.01658" lon="0.31544">
        <ele>816.4</ele>
        <time>2026-07-08T07:11:58Z</time>
      </trkpt>
      <trkpt lat="43.01657" lon="0.31543">
        <ele>817.4</ele>
        <time>2026-07-08T07:11:59Z</time>
      </trkpt>
      <trkpt lat="43.01657" lon="0.31543">
        <ele>818.4</ele>
        <time>2026-07-08T07:12:00Z</time>
      </trkpt>
      <trkpt lat="43.01657" lon="0.31542">
        <ele>817.4</ele>
        <time>2026-07-08T07:12:00Z</time>
      </trkpt>
      <trkpt lat="43.01656" lon="0.31542">
        <ele>817.4</ele>
        <time>2026-07-08T07:12:01Z</time>
      </trkpt>
      <trkpt lat="43.01656" lon="0.31541">
        <ele>817.4</ele>
        <time>2026-07-08T07:12:02Z</time>
      </trkpt>
      <trkpt lat="43.01655" lon="0.31541">
        <ele>816.4</ele>
        <time>2026-07-08T07:12:03Z</time>
      </trkpt>
      <trkpt lat="43.01654" lon="0.3154">
        <ele>816.4</ele>
        <time>2026-07-08T07:12:03Z</time>
      </trkpt>
      <trkpt lat="43.01654" lon="0.3154">
        <ele>816.4</ele>
        <time>2026-07-08T07:12:04Z</time>
      </trkpt>
      <trkpt lat="43.01654" lon="0.31539">
        <ele>816.4</ele>
        <time>2026-07-08T07:12:05Z</time>
      </trkpt>
      <trkpt lat="43.01653" lon="0.31539">
        <ele>817.4</ele>
        <time>2026-07-08T07:12:06Z</time>
      </trkpt>
      <trkpt lat="43.01653" lon="0.31538">
        <ele>816.4</ele>
        <time>2026-07-08T07:12:06Z</time>
      </trkpt>
      <trkpt lat="43.01653" lon="0.31538">
        <ele>816.4</ele>
        <time>2026-07-08T07:12:07Z</time>
      </trkpt>
      <trkpt lat="43.01653" lon="0.31538">
        <ele>816.4</ele>
        <time>2026-07-08T07:12:08Z</time>
      </trkpt>
      <trkpt lat="43.01652" lon="0.31538">
        <ele>816.4</ele>
        <time>2026-07-08T07:12:09Z</time>
      </trkpt>
      <trkpt lat="43.01652" lon="0.31537">
        <ele>816.4</ele>
        <time>2026-07-08T07:12:10Z</time>
      </trkpt>
      <trkpt lat="43.01652" lon="0.31538">
        <ele>817.4</ele>
        <time>2026-07-08T07:12:11Z</time>
      </trkpt>
      <trkpt lat="43.01651" lon="0.31538">
        <ele>817.4</ele>
        <time>2026-07-08T07:12:11Z</time>
      </trkpt>
      <trkpt lat="43.01651" lon="0.31538">
        <ele>817.4</ele>
        <time>2026-07-08T07:12:12Z</time>
      </trkpt>
      <trkpt lat="43.0165" lon="0.31538">
        <ele>817.4</ele>
        <time>2026-07-08T07:12:13Z</time>
      </trkpt>
      <trkpt lat="43.01649" lon="0.31538">
        <ele>817.4</ele>
        <time>2026-07-08T07:12:14Z</time>
      </trkpt>
      <trkpt lat="43.01649" lon="0.31539">
        <ele>817.4</ele>
        <time>2026-07-08T07:12:15Z</time>
      </trkpt>
      <trkpt lat="43.01648" lon="0.31539">
        <ele>817.4</ele>
        <time>2026-07-08T07:12:15Z</time>
      </trkpt>
      <trkpt lat="43.01648" lon="0.31539">
        <ele>817.4</ele>
        <time>2026-07-08T07:12:16Z</time>
      </trkpt>
      <trkpt lat="43.01647" lon="0.31538">
        <ele>817.4</ele>
        <time>2026-07-08T07:12:17Z</time>
      </trkpt>
      <trkpt lat="43.01647" lon="0.31538">
        <ele>817.4</ele>
        <time>2026-07-08T07:12:18Z</time>
      </trkpt>
      <trkpt lat="43.01646" lon="0.31539">
        <ele>817.4</ele>
        <time>2026-07-08T07:12:19Z</time>
      </trkpt>
      <trkpt lat="43.01646" lon="0.31538">
        <ele>817.4</ele>
        <time>2026-07-08T07:12:19Z</time>
      </trkpt>
      <trkpt lat="43.01646" lon="0.31538">
        <ele>817.4</ele>
        <time>2026-07-08T07:12:20Z</time>
      </trkpt>
      <trkpt lat="43.01645" lon="0.31538">
        <ele>818.4</ele>
        <time>2026-07-08T07:12:21Z</time>
      </trkpt>
      <trkpt lat="43.01644" lon="0.31537">
        <ele>818.4</ele>
        <time>2026-07-08T07:12:22Z</time>
      </trkpt>
      <trkpt lat="43.01644" lon="0.31537">
        <ele>818.4</ele>
        <time>2026-07-08T07:12:23Z</time>
      </trkpt>
      <trkpt lat="43.01643" lon="0.31536">
        <ele>818.4</ele>
        <time>2026-07-08T07:12:24Z</time>
      </trkpt>
      <trkpt lat="43.01643" lon="0.31536">
        <ele>818.4</ele>
        <time>2026-07-08T07:12:24Z</time>
      </trkpt>
      <trkpt lat="43.01643" lon="0.31536">
        <ele>818.4</ele>
        <time>2026-07-08T07:12:25Z</time>
      </trkpt>
      <trkpt lat="43.01642" lon="0.31535">
        <ele>818.4</ele>
        <time>2026-07-08T07:12:26Z</time>
      </trkpt>
      <trkpt lat="43.01641" lon="0.31535">
        <ele>818.4</ele>
        <time>2026-07-08T07:12:27Z</time>
      </trkpt>
      <trkpt lat="43.01641" lon="0.31535">
        <ele>819.4</ele>
        <time>2026-07-08T07:12:28Z</time>
      </trkpt>
      <trkpt lat="43.0164" lon="0.31535">
        <ele>820.4</ele>
        <time>2026-07-08T07:12:28Z</time>
      </trkpt>
      <trkpt lat="43.0164" lon="0.31534">
        <ele>820.4</ele>
        <time>2026-07-08T07:12:29Z</time>
      </trkpt>
      <trkpt lat="43.0164" lon="0.31535">
        <ele>820.4</ele>
        <time>2026-07-08T07:12:30Z</time>
      </trkpt>
      <trkpt lat="43.0164" lon="0.31536">
        <ele>820.4</ele>
        <time>2026-07-08T07:12:31Z</time>
      </trkpt>
      <trkpt lat="43.0164" lon="0.31536">
        <ele>820.4</ele>
        <time>2026-07-08T07:12:32Z</time>
      </trkpt>
      <trkpt lat="43.0164" lon="0.31536">
        <ele>820.4</ele>
        <time>2026-07-08T07:12:32Z</time>
      </trkpt>
      <trkpt lat="43.01639" lon="0.31536">
        <ele>821.4</ele>
        <time>2026-07-08T07:12:33Z</time>
      </trkpt>
      <trkpt lat="43.01638" lon="0.31535">
        <ele>821.4</ele>
        <time>2026-07-08T07:12:34Z</time>
      </trkpt>
      <trkpt lat="43.01638" lon="0.31535">
        <ele>821.4</ele>
        <time>2026-07-08T07:12:35Z</time>
      </trkpt>
      <trkpt lat="43.01637" lon="0.31535">
        <ele>821.4</ele>
        <time>2026-07-08T07:12:36Z</time>
      </trkpt>
      <trkpt lat="43.01637" lon="0.31535">
        <ele>822.4</ele>
        <time>2026-07-08T07:12:37Z</time>
      </trkpt>
      <trkpt lat="43.01637" lon="0.31535">
        <ele>822.4</ele>
        <time>2026-07-08T07:12:38Z</time>
      </trkpt>
      <trkpt lat="43.01636" lon="0.31535">
        <ele>823.4</ele>
        <time>2026-07-08T07:12:38Z</time>
      </trkpt>
      <trkpt lat="43.01636" lon="0.31535">
        <ele>823.4</ele>
        <time>2026-07-08T07:12:39Z</time>
      </trkpt>
      <trkpt lat="43.01636" lon="0.31534">
        <ele>823.4</ele>
        <time>2026-07-08T07:12:40Z</time>
      </trkpt>
      <trkpt lat="43.01635" lon="0.31534">
        <ele>823.4</ele>
        <time>2026-07-08T07:12:41Z</time>
      </trkpt>
      <trkpt lat="43.01635" lon="0.31534">
        <ele>823.4</ele>
        <time>2026-07-08T07:12:42Z</time>
      </trkpt>
      <trkpt lat="43.01635" lon="0.31535">
        <ele>824.4</ele>
        <time>2026-07-08T07:12:43Z</time>
      </trkpt>
      <trkpt lat="43.01636" lon="0.31536">
        <ele>824.4</ele>
        <time>2026-07-08T07:12:44Z</time>
      </trkpt>
      <trkpt lat="43.01636" lon="0.31537">
        <ele>824.4</ele>
        <time>2026-07-08T07:12:45Z</time>
      </trkpt>
      <trkpt lat="43.01637" lon="0.31538">
        <ele>824.4</ele>
        <time>2026-07-08T07:12:46Z</time>
      </trkpt>
      <trkpt lat="43.01637" lon="0.31538">
        <ele>824.4</ele>
        <time>2026-07-08T07:12:47Z</time>
      </trkpt>
      <trkpt lat="43.01637" lon="0.31538">
        <ele>824.4</ele>
        <time>2026-07-08T07:12:48Z</time>
      </trkpt>
      <trkpt lat="43.01637" lon="0.31538">
        <ele>824.4</ele>
        <time>2026-07-08T07:12:49Z</time>
      </trkpt>
      <trkpt lat="43.01637" lon="0.31538">
        <ele>824.4</ele>
        <time>2026-07-08T07:12:49Z</time>
      </trkpt>
      <trkpt lat="43.01637" lon="0.31538">
        <ele>824.4</ele>
        <time>2026-07-08T07:12:50Z</time>
      </trkpt>
      <trkpt lat="43.01637" lon="0.31538">
        <ele>824.4</ele>
        <time>2026-07-08T07:12:51Z</time>
      </trkpt>
      <trkpt lat="43.01637" lon="0.31538">
        <ele>824.4</ele>
        <time>2026-07-08T07:12:52Z</time>
      </trkpt>
      <trkpt lat="43.01638" lon="0.31538">
        <ele>824.4</ele>
        <time>2026-07-08T07:12:53Z</time>
      </trkpt>
      <trkpt lat="43.01638" lon="0.31539">
        <ele>824.4</ele>
        <time>2026-07-08T07:12:54Z</time>
      </trkpt>
      <trkpt lat="43.01639" lon="0.3154">
        <ele>824.4</ele>
        <time>2026-07-08T07:12:55Z</time>
      </trkpt>
      <trkpt lat="43.01644" lon="0.31542">
        <ele>824.4</ele>
        <time>2026-07-08T07:12:56Z</time>
      </trkpt>
      <trkpt lat="43.01643" lon="0.31543">
        <ele>824.4</ele>
        <time>2026-07-08T07:12:57Z</time>
      </trkpt>
      <trkpt lat="43.01643" lon="0.31544">
        <ele>824.4</ele>
        <time>2026-07-08T07:12:58Z</time>
      </trkpt>
      <trkpt lat="43.01643" lon="0.31544">
        <ele>824.4</ele>
        <time>2026-07-08T07:12:59Z</time>
      </trkpt>
      <trkpt lat="43.01642" lon="0.31543">
        <ele>825.4</ele>
        <time>2026-07-08T07:13:00Z</time>
      </trkpt>
      <trkpt lat="43.01642" lon="0.31542">
        <ele>825.4</ele>
        <time>2026-07-08T07:13:01Z</time>
      </trkpt>
      <trkpt lat="43.01642" lon="0.31541">
        <ele>824.4</ele>
        <time>2026-07-08T07:13:02Z</time>
      </trkpt>
      <trkpt lat="43.01642" lon="0.3154">
        <ele>825.4</ele>
        <time>2026-07-08T07:13:03Z</time>
      </trkpt>
      <trkpt lat="43.01642" lon="0.31541">
        <ele>825.4</ele>
        <time>2026-07-08T07:13:04Z</time>
      </trkpt>
      <trkpt lat="43.01641" lon="0.3154">
        <ele>825.4</ele>
        <time>2026-07-08T07:13:05Z</time>
      </trkpt>
      <trkpt lat="43.01641" lon="0.31539">
        <ele>825.4</ele>
        <time>2026-07-08T07:13:06Z</time>
      </trkpt>
      <trkpt lat="43.01641" lon="0.31538">
        <ele>825.4</ele>
        <time>2026-07-08T07:13:07Z</time>
      </trkpt>
      <trkpt lat="43.01642" lon="0.31539">
        <ele>825.4</ele>
        <time>2026-07-08T07:13:08Z</time>
      </trkpt>
      <trkpt lat="43.01641" lon="0.31538">
        <ele>824.4</ele>
        <time>2026-07-08T07:13:09Z</time>
      </trkpt>
      <trkpt lat="43.01641" lon="0.31537">
        <ele>825.4</ele>
        <time>2026-07-08T07:13:10Z</time>
      </trkpt>
      <trkpt lat="43.01641" lon="0.31536">
        <ele>825.4</ele>
        <time>2026-07-08T07:13:11Z</time>
      </trkpt>
      <trkpt lat="43.01641" lon="0.31535">
        <ele>825.4</ele>
        <time>2026-07-08T07:13:12Z</time>
      </trkpt>
      <trkpt lat="43.01641" lon="0.31535">
        <ele>825.4</ele>
        <time>2026-07-08T07:13:13Z</time>
      </trkpt>
      <trkpt lat="43.01641" lon="0.31534">
        <ele>825.4</ele>
        <time>2026-07-08T07:13:14Z</time>
      </trkpt>
      <trkpt lat="43.0164" lon="0.31533">
        <ele>826.4</ele>
        <time>2026-07-08T07:13:15Z</time>
      </trkpt>
      <trkpt lat="43.0164" lon="0.31532">
        <ele>825.4</ele>
        <time>2026-07-08T07:13:16Z</time>
      </trkpt>
      <trkpt lat="43.01639" lon="0.31532">
        <ele>826.4</ele>
        <time>2026-07-08T07:13:17Z</time>
      </trkpt>
      <trkpt lat="43.01639" lon="0.31531">
        <ele>825.4</ele>
        <time>2026-07-08T07:13:18Z</time>
      </trkpt>
      <trkpt lat="43.01638" lon="0.3153">
        <ele>825.4</ele>
        <time>2026-07-08T07:13:19Z</time>
      </trkpt>
      <trkpt lat="43.01637" lon="0.31529">
        <ele>826.4</ele>
        <time>2026-07-08T07:13:20Z</time>
      </trkpt>
      <trkpt lat="43.01636" lon="0.31528">
        <ele>827.4</ele>
        <time>2026-07-08T07:13:21Z</time>
      </trkpt>
      <trkpt lat="43.01635" lon="0.31528">
        <ele>827.4</ele>
        <time>2026-07-08T07:13:22Z</time>
      </trkpt>
      <trkpt lat="43.01634" lon="0.31527">
        <ele>828.4</ele>
        <time>2026-07-08T07:13:23Z</time>
      </trkpt>
      <trkpt lat="43.01633" lon="0.31526">
        <ele>829.4</ele>
        <time>2026-07-08T07:13:24Z</time>
      </trkpt>
      <trkpt lat="43.01632" lon="0.31526">
        <ele>829.4</ele>
        <time>2026-07-08T07:13:25Z</time>
      </trkpt>
      <trkpt lat="43.01631" lon="0.31525">
        <ele>829.4</ele>
        <time>2026-07-08T07:13:26Z</time>
      </trkpt>
      <trkpt lat="43.0163" lon="0.31524">
        <ele>830.4</ele>
        <time>2026-07-08T07:13:27Z</time>
      </trkpt>
      <trkpt lat="43.01628" lon="0.31523">
        <ele>829.4</ele>
        <time>2026-07-08T07:13:28Z</time>
      </trkpt>
      <trkpt lat="43.01627" lon="0.31522">
        <ele>830.4</ele>
        <time>2026-07-08T07:13:29Z</time>
      </trkpt>
      <trkpt lat="43.01626" lon="0.31522">
        <ele>831.4</ele>
        <time>2026-07-08T07:13:30Z</time>
      </trkpt>
      <trkpt lat="43.01625" lon="0.31517">
        <ele>831.4</ele>
        <time>2026-07-08T07:13:30Z</time>
      </trkpt>
      <trkpt lat="43.01625" lon="0.31516">
        <ele>830.4</ele>
        <time>2026-07-08T07:13:31Z</time>
      </trkpt>
      <trkpt lat="43.01623" lon="0.31514">
        <ele>830.4</ele>
        <time>2026-07-08T07:13:32Z</time>
      </trkpt>
      <trkpt lat="43.01623" lon="0.31513">
        <ele>830.4</ele>
        <time>2026-07-08T07:13:33Z</time>
      </trkpt>
      <trkpt lat="43.01622" lon="0.31514">
        <ele>830.4</ele>
        <time>2026-07-08T07:13:33Z</time>
      </trkpt>
      <trkpt lat="43.01622" lon="0.31513">
        <ele>830.4</ele>
        <time>2026-07-08T07:13:34Z</time>
      </trkpt>
      <trkpt lat="43.01621" lon="0.31513">
        <ele>830.4</ele>
        <time>2026-07-08T07:13:35Z</time>
      </trkpt>
      <trkpt lat="43.01621" lon="0.31512">
        <ele>830.4</ele>
        <time>2026-07-08T07:13:36Z</time>
      </trkpt>
      <trkpt lat="43.0162" lon="0.31512">
        <ele>830.4</ele>
        <time>2026-07-08T07:13:37Z</time>
      </trkpt>
      <trkpt lat="43.0162" lon="0.31512">
        <ele>832.4</ele>
        <time>2026-07-08T07:13:37Z</time>
      </trkpt>
      <trkpt lat="43.01619" lon="0.31512">
        <ele>832.4</ele>
        <time>2026-07-08T07:13:38Z</time>
      </trkpt>
      <trkpt lat="43.01619" lon="0.31512">
        <ele>832.4</ele>
        <time>2026-07-08T07:13:39Z</time>
      </trkpt>
      <trkpt lat="43.01618" lon="0.31512">
        <ele>832.4</ele>
        <time>2026-07-08T07:13:40Z</time>
      </trkpt>
      <trkpt lat="43.01618" lon="0.31512">
        <ele>832.4</ele>
        <time>2026-07-08T07:13:41Z</time>
      </trkpt>
      <trkpt lat="43.01618" lon="0.31512">
        <ele>832.4</ele>
        <time>2026-07-08T07:13:41Z</time>
      </trkpt>
      <trkpt lat="43.01617" lon="0.31512">
        <ele>832.4</ele>
        <time>2026-07-08T07:13:42Z</time>
      </trkpt>
      <trkpt lat="43.01617" lon="0.31512">
        <ele>833.4</ele>
        <time>2026-07-08T07:13:43Z</time>
      </trkpt>
      <trkpt lat="43.01617" lon="0.31511">
        <ele>833.4</ele>
        <time>2026-07-08T07:13:43Z</time>
      </trkpt>
      <trkpt lat="43.01616" lon="0.31511">
        <ele>834.4</ele>
        <time>2026-07-08T07:13:44Z</time>
      </trkpt>
      <trkpt lat="43.01616" lon="0.31511">
        <ele>835.4</ele>
        <time>2026-07-08T07:13:45Z</time>
      </trkpt>
      <trkpt lat="43.01615" lon="0.31511">
        <ele>835.4</ele>
        <time>2026-07-08T07:13:46Z</time>
      </trkpt>
      <trkpt lat="43.01615" lon="0.31511">
        <ele>834.4</ele>
        <time>2026-07-08T07:13:47Z</time>
      </trkpt>
      <trkpt lat="43.01614" lon="0.31511">
        <ele>834.4</ele>
        <time>2026-07-08T07:13:47Z</time>
      </trkpt>
      <trkpt lat="43.01614" lon="0.31511">
        <ele>834.4</ele>
        <time>2026-07-08T07:13:48Z</time>
      </trkpt>
      <trkpt lat="43.01613" lon="0.3151">
        <ele>834.4</ele>
        <time>2026-07-08T07:13:49Z</time>
      </trkpt>
      <trkpt lat="43.01613" lon="0.3151">
        <ele>835.4</ele>
        <time>2026-07-08T07:13:50Z</time>
      </trkpt>
      <trkpt lat="43.01613" lon="0.31509">
        <ele>834.4</ele>
        <time>2026-07-08T07:13:51Z</time>
      </trkpt>
      <trkpt lat="43.01613" lon="0.31509">
        <ele>834.4</ele>
        <time>2026-07-08T07:13:51Z</time>
      </trkpt>
      <trkpt lat="43.01613" lon="0.31508">
        <ele>834.4</ele>
        <time>2026-07-08T07:13:51Z</time>
      </trkpt>
      <trkpt lat="43.01613" lon="0.31508">
        <ele>834.4</ele>
        <time>2026-07-08T07:13:52Z</time>
      </trkpt>
      <trkpt lat="43.01613" lon="0.31507">
        <ele>834.4</ele>
        <time>2026-07-08T07:13:53Z</time>
      </trkpt>
      <trkpt lat="43.01613" lon="0.31507">
        <ele>835.4</ele>
        <time>2026-07-08T07:13:54Z</time>
      </trkpt>
      <trkpt lat="43.01612" lon="0.31506">
        <ele>835.4</ele>
        <time>2026-07-08T07:13:55Z</time>
      </trkpt>
      <trkpt lat="43.01613" lon="0.31506">
        <ele>835.4</ele>
        <time>2026-07-08T07:13:56Z</time>
      </trkpt>
      <trkpt lat="43.01613" lon="0.31505">
        <ele>835.4</ele>
        <time>2026-07-08T07:13:56Z</time>
      </trkpt>
      <trkpt lat="43.01612" lon="0.31505">
        <ele>836.4</ele>
        <time>2026-07-08T07:13:57Z</time>
      </trkpt>
      <trkpt lat="43.01613" lon="0.31504">
        <ele>836.4</ele>
        <time>2026-07-08T07:13:58Z</time>
      </trkpt>
      <trkpt lat="43.01612" lon="0.31504">
        <ele>836.4</ele>
        <time>2026-07-08T07:13:59Z</time>
      </trkpt>
      <trkpt lat="43.01612" lon="0.31503">
        <ele>836.4</ele>
        <time>2026-07-08T07:13:59Z</time>
      </trkpt>
      <trkpt lat="43.01612" lon="0.31503">
        <ele>836.4</ele>
        <time>2026-07-08T07:14:00Z</time>
      </trkpt>
      <trkpt lat="43.01611" lon="0.31502">
        <ele>837.4</ele>
        <time>2026-07-08T07:14:01Z</time>
      </trkpt>
      <trkpt lat="43.01611" lon="0.31502">
        <ele>837.4</ele>
        <time>2026-07-08T07:14:01Z</time>
      </trkpt>
      <trkpt lat="43.01611" lon="0.31501">
        <ele>837.4</ele>
        <time>2026-07-08T07:14:02Z</time>
      </trkpt>
      <trkpt lat="43.01611" lon="0.315">
        <ele>837.4</ele>
        <time>2026-07-08T07:14:03Z</time>
      </trkpt>
      <trkpt lat="43.0161" lon="0.31499">
        <ele>837.4</ele>
        <time>2026-07-08T07:14:04Z</time>
      </trkpt>
      <trkpt lat="43.0161" lon="0.31498">
        <ele>837.4</ele>
        <time>2026-07-08T07:14:05Z</time>
      </trkpt>
      <trkpt lat="43.01609" lon="0.31497">
        <ele>838.4</ele>
        <time>2026-07-08T07:14:06Z</time>
      </trkpt>
      <trkpt lat="43.01609" lon="0.31497">
        <ele>837.4</ele>
        <time>2026-07-08T07:14:07Z</time>
      </trkpt>
      <trkpt lat="43.01609" lon="0.31496">
        <ele>838.4</ele>
        <time>2026-07-08T07:14:07Z</time>
      </trkpt>
      <trkpt lat="43.01609" lon="0.31496">
        <ele>838.4</ele>
        <time>2026-07-08T07:14:08Z</time>
      </trkpt>
      <trkpt lat="43.01609" lon="0.31495">
        <ele>838.4</ele>
        <time>2026-07-08T07:14:09Z</time>
      </trkpt>
      <trkpt lat="43.01609" lon="0.31495">
        <ele>838.4</ele>
        <time>2026-07-08T07:14:10Z</time>
      </trkpt>
      <trkpt lat="43.01608" lon="0.31495">
        <ele>838.4</ele>
        <time>2026-07-08T07:14:10Z</time>
      </trkpt>
      <trkpt lat="43.01608" lon="0.31494">
        <ele>838.4</ele>
        <time>2026-07-08T07:14:11Z</time>
      </trkpt>
      <trkpt lat="43.01608" lon="0.31493">
        <ele>838.4</ele>
        <time>2026-07-08T07:14:12Z</time>
      </trkpt>
      <trkpt lat="43.01607" lon="0.31492">
        <ele>838.4</ele>
        <time>2026-07-08T07:14:13Z</time>
      </trkpt>
      <trkpt lat="43.01607" lon="0.31491">
        <ele>837.4</ele>
        <time>2026-07-08T07:14:13Z</time>
      </trkpt>
      <trkpt lat="43.01607" lon="0.31491">
        <ele>837.4</ele>
        <time>2026-07-08T07:14:14Z</time>
      </trkpt>
      <trkpt lat="43.01606" lon="0.3149">
        <ele>838.4</ele>
        <time>2026-07-08T07:14:15Z</time>
      </trkpt>
      <trkpt lat="43.01606" lon="0.31489">
        <ele>838.4</ele>
        <time>2026-07-08T07:14:16Z</time>
      </trkpt>
      <trkpt lat="43.01606" lon="0.31488">
        <ele>838.4</ele>
        <time>2026-07-08T07:14:16Z</time>
      </trkpt>
      <trkpt lat="43.01605" lon="0.31487">
        <ele>838.4</ele>
        <time>2026-07-08T07:14:17Z</time>
      </trkpt>
      <trkpt lat="43.01605" lon="0.31486">
        <ele>838.4</ele>
        <time>2026-07-08T07:14:18Z</time>
      </trkpt>
      <trkpt lat="43.01604" lon="0.31486">
        <ele>838.4</ele>
        <time>2026-07-08T07:14:18Z</time>
      </trkpt>
      <trkpt lat="43.01604" lon="0.31485">
        <ele>838.4</ele>
        <time>2026-07-08T07:14:19Z</time>
      </trkpt>
      <trkpt lat="43.01604" lon="0.31484">
        <ele>838.4</ele>
        <time>2026-07-08T07:14:20Z</time>
      </trkpt>
      <trkpt lat="43.01604" lon="0.31483">
        <ele>837.4</ele>
        <time>2026-07-08T07:14:21Z</time>
      </trkpt>
      <trkpt lat="43.01603" lon="0.31483">
        <ele>838.4</ele>
        <time>2026-07-08T07:14:21Z</time>
      </trkpt>
      <trkpt lat="43.01603" lon="0.31482">
        <ele>838.4</ele>
        <time>2026-07-08T07:14:22Z</time>
      </trkpt>
      <trkpt lat="43.01603" lon="0.31481">
        <ele>838.4</ele>
        <time>2026-07-08T07:14:23Z</time>
      </trkpt>
      <trkpt lat="43.01602" lon="0.31481">
        <ele>838.4</ele>
        <time>2026-07-08T07:14:23Z</time>
      </trkpt>
      <trkpt lat="43.01602" lon="0.3148">
        <ele>838.4</ele>
        <time>2026-07-08T07:14:24Z</time>
      </trkpt>
      <trkpt lat="43.01602" lon="0.31479">
        <ele>838.4</ele>
        <time>2026-07-08T07:14:25Z</time>
      </trkpt>
      <trkpt lat="43.01601" lon="0.31478">
        <ele>838.4</ele>
        <time>2026-07-08T07:14:26Z</time>
      </trkpt>
      <trkpt lat="43.01601" lon="0.31478">
        <ele>838.4</ele>
        <time>2026-07-08T07:14:26Z</time>
      </trkpt>
      <trkpt lat="43.01601" lon="0.31477">
        <ele>838.4</ele>
        <time>2026-07-08T07:14:27Z</time>
      </trkpt>
      <trkpt lat="43.01601" lon="0.31476">
        <ele>838.4</ele>
        <time>2026-07-08T07:14:27Z</time>
      </trkpt>
      <trkpt lat="43.016" lon="0.31475">
        <ele>837.4</ele>
        <time>2026-07-08T07:14:28Z</time>
      </trkpt>
      <trkpt lat="43.016" lon="0.31474">
        <ele>837.4</ele>
        <time>2026-07-08T07:14:29Z</time>
      </trkpt>
      <trkpt lat="43.016" lon="0.31473">
        <ele>837.4</ele>
        <time>2026-07-08T07:14:29Z</time>
      </trkpt>
      <trkpt lat="43.016" lon="0.31473">
        <ele>837.4</ele>
        <time>2026-07-08T07:14:30Z</time>
      </trkpt>
      <trkpt lat="43.01599" lon="0.31471">
        <ele>837.4</ele>
        <time>2026-07-08T07:14:31Z</time>
      </trkpt>
      <trkpt lat="43.01599" lon="0.3147">
        <ele>836.4</ele>
        <time>2026-07-08T07:14:32Z</time>
      </trkpt>
      <trkpt lat="43.01599" lon="0.3147">
        <ele>836.4</ele>
        <time>2026-07-08T07:14:32Z</time>
      </trkpt>
      <trkpt lat="43.01598" lon="0.31469">
        <ele>836.4</ele>
        <time>2026-07-08T07:14:33Z</time>
      </trkpt>
      <trkpt lat="43.01598" lon="0.31468">
        <ele>836.4</ele>
        <time>2026-07-08T07:14:34Z</time>
      </trkpt>
      <trkpt lat="43.01598" lon="0.31467">
        <ele>836.4</ele>
        <time>2026-07-08T07:14:34Z</time>
      </trkpt>
      <trkpt lat="43.01598" lon="0.31466">
        <ele>836.4</ele>
        <time>2026-07-08T07:14:35Z</time>
      </trkpt>
      <trkpt lat="43.01598" lon="0.31465">
        <ele>836.4</ele>
        <time>2026-07-08T07:14:36Z</time>
      </trkpt>
      <trkpt lat="43.01598" lon="0.31464">
        <ele>836.4</ele>
        <time>2026-07-08T07:14:37Z</time>
      </trkpt>
      <trkpt lat="43.01597" lon="0.31464">
        <ele>837.4</ele>
        <time>2026-07-08T07:14:37Z</time>
      </trkpt>
      <trkpt lat="43.01597" lon="0.31463">
        <ele>837.4</ele>
        <time>2026-07-08T07:14:38Z</time>
      </trkpt>
      <trkpt lat="43.01597" lon="0.31462">
        <ele>837.4</ele>
        <time>2026-07-08T07:14:39Z</time>
      </trkpt>
      <trkpt lat="43.01597" lon="0.31462">
        <ele>837.4</ele>
        <time>2026-07-08T07:14:39Z</time>
      </trkpt>
      <trkpt lat="43.01597" lon="0.31461">
        <ele>837.4</ele>
        <time>2026-07-08T07:14:40Z</time>
      </trkpt>
      <trkpt lat="43.01596" lon="0.31461">
        <ele>836.4</ele>
        <time>2026-07-08T07:14:41Z</time>
      </trkpt>
      <trkpt lat="43.01596" lon="0.31461">
        <ele>837.4</ele>
        <time>2026-07-08T07:14:41Z</time>
      </trkpt>
      <trkpt lat="43.01596" lon="0.3146">
        <ele>837.4</ele>
        <time>2026-07-08T07:14:42Z</time>
      </trkpt>
      <trkpt lat="43.01595" lon="0.3146">
        <ele>837.4</ele>
        <time>2026-07-08T07:14:43Z</time>
      </trkpt>
      <trkpt lat="43.01595" lon="0.31459">
        <ele>836.4</ele>
        <time>2026-07-08T07:14:43Z</time>
      </trkpt>
      <trkpt lat="43.01595" lon="0.31459">
        <ele>837.4</ele>
        <time>2026-07-08T07:14:44Z</time>
      </trkpt>
      <trkpt lat="43.01594" lon="0.31458">
        <ele>837.4</ele>
        <time>2026-07-08T07:14:45Z</time>
      </trkpt>
      <trkpt lat="43.01594" lon="0.31457">
        <ele>837.4</ele>
        <time>2026-07-08T07:14:46Z</time>
      </trkpt>
      <trkpt lat="43.01594" lon="0.31457">
        <ele>837.4</ele>
        <time>2026-07-08T07:14:46Z</time>
      </trkpt>
      <trkpt lat="43.01594" lon="0.31456">
        <ele>837.4</ele>
        <time>2026-07-08T07:14:47Z</time>
      </trkpt>
      <trkpt lat="43.01593" lon="0.31455">
        <ele>837.4</ele>
        <time>2026-07-08T07:14:48Z</time>
      </trkpt>
      <trkpt lat="43.01593" lon="0.31455">
        <ele>837.4</ele>
        <time>2026-07-08T07:14:48Z</time>
      </trkpt>
      <trkpt lat="43.01593" lon="0.31454">
        <ele>839.4</ele>
        <time>2026-07-08T07:14:49Z</time>
      </trkpt>
      <trkpt lat="43.01592" lon="0.31454">
        <ele>839.4</ele>
        <time>2026-07-08T07:14:50Z</time>
      </trkpt>
      <trkpt lat="43.01591" lon="0.31453">
        <ele>840.4</ele>
        <time>2026-07-08T07:14:51Z</time>
      </trkpt>
      <trkpt lat="43.0159" lon="0.31453">
        <ele>840.4</ele>
        <time>2026-07-08T07:14:52Z</time>
      </trkpt>
      <trkpt lat="43.0159" lon="0.31453">
        <ele>840.4</ele>
        <time>2026-07-08T07:14:53Z</time>
      </trkpt>
      <trkpt lat="43.01589" lon="0.31453">
        <ele>841.4</ele>
        <time>2026-07-08T07:14:54Z</time>
      </trkpt>
      <trkpt lat="43.01589" lon="0.31454">
        <ele>842.4</ele>
        <time>2026-07-08T07:14:54Z</time>
      </trkpt>
      <trkpt lat="43.01589" lon="0.31454">
        <ele>842.4</ele>
        <time>2026-07-08T07:14:55Z</time>
      </trkpt>
      <trkpt lat="43.01588" lon="0.31454">
        <ele>844.4</ele>
        <time>2026-07-08T07:14:56Z</time>
      </trkpt>
      <trkpt lat="43.01588" lon="0.31453">
        <ele>844.4</ele>
        <time>2026-07-08T07:14:57Z</time>
      </trkpt>
      <trkpt lat="43.01587" lon="0.31453">
        <ele>844.4</ele>
        <time>2026-07-08T07:14:58Z</time>
      </trkpt>
      <trkpt lat="43.01587" lon="0.31453">
        <ele>844.4</ele>
        <time>2026-07-08T07:14:58Z</time>
      </trkpt>
      <trkpt lat="43.01587" lon="0.31453">
        <ele>844.4</ele>
        <time>2026-07-08T07:14:59Z</time>
      </trkpt>
      <trkpt lat="43.01586" lon="0.31452">
        <ele>844.4</ele>
        <time>2026-07-08T07:14:59Z</time>
      </trkpt>
      <trkpt lat="43.01586" lon="0.31452">
        <ele>844.4</ele>
        <time>2026-07-08T07:15:00Z</time>
      </trkpt>
      <trkpt lat="43.01586" lon="0.31452">
        <ele>844.4</ele>
        <time>2026-07-08T07:15:01Z</time>
      </trkpt>
      <trkpt lat="43.01585" lon="0.31451">
        <ele>844.4</ele>
        <time>2026-07-08T07:15:01Z</time>
      </trkpt>
      <trkpt lat="43.01585" lon="0.31451">
        <ele>844.4</ele>
        <time>2026-07-08T07:15:02Z</time>
      </trkpt>
      <trkpt lat="43.01585" lon="0.31451">
        <ele>844.4</ele>
        <time>2026-07-08T07:15:03Z</time>
      </trkpt>
      <trkpt lat="43.01585" lon="0.3145">
        <ele>844.4</ele>
        <time>2026-07-08T07:15:03Z</time>
      </trkpt>
      <trkpt lat="43.01584" lon="0.3145">
        <ele>844.4</ele>
        <time>2026-07-08T07:15:04Z</time>
      </trkpt>
      <trkpt lat="43.01584" lon="0.31449">
        <ele>844.4</ele>
        <time>2026-07-08T07:15:05Z</time>
      </trkpt>
      <trkpt lat="43.01584" lon="0.31449">
        <ele>844.4</ele>
        <time>2026-07-08T07:15:06Z</time>
      </trkpt>
      <trkpt lat="43.01583" lon="0.31448">
        <ele>844.4</ele>
        <time>2026-07-08T07:15:07Z</time>
      </trkpt>
      <trkpt lat="43.01583" lon="0.31448">
        <ele>843.4</ele>
        <time>2026-07-08T07:15:07Z</time>
      </trkpt>
      <trkpt lat="43.01582" lon="0.31447">
        <ele>843.4</ele>
        <time>2026-07-08T07:15:08Z</time>
      </trkpt>
      <trkpt lat="43.01582" lon="0.31447">
        <ele>844.4</ele>
        <time>2026-07-08T07:15:09Z</time>
      </trkpt>
      <trkpt lat="43.01582" lon="0.31447">
        <ele>844.4</ele>
        <time>2026-07-08T07:15:09Z</time>
      </trkpt>
      <trkpt lat="43.01582" lon="0.31447">
        <ele>844.4</ele>
        <time>2026-07-08T07:15:10Z</time>
      </trkpt>
      <trkpt lat="43.01581" lon="0.31447">
        <ele>844.4</ele>
        <time>2026-07-08T07:15:11Z</time>
      </trkpt>
      <trkpt lat="43.01581" lon="0.31447">
        <ele>844.4</ele>
        <time>2026-07-08T07:15:12Z</time>
      </trkpt>
      <trkpt lat="43.01581" lon="0.31446">
        <ele>844.4</ele>
        <time>2026-07-08T07:15:13Z</time>
      </trkpt>
      <trkpt lat="43.01581" lon="0.31446">
        <ele>845.4</ele>
        <time>2026-07-08T07:15:13Z</time>
      </trkpt>
      <trkpt lat="43.01581" lon="0.31446">
        <ele>845.4</ele>
        <time>2026-07-08T07:15:14Z</time>
      </trkpt>
      <trkpt lat="43.0158" lon="0.31445">
        <ele>845.4</ele>
        <time>2026-07-08T07:15:15Z</time>
      </trkpt>
      <trkpt lat="43.0158" lon="0.31445">
        <ele>845.4</ele>
        <time>2026-07-08T07:15:16Z</time>
      </trkpt>
      <trkpt lat="43.0158" lon="0.31445">
        <ele>845.4</ele>
        <time>2026-07-08T07:15:16Z</time>
      </trkpt>
      <trkpt lat="43.01579" lon="0.31445">
        <ele>845.4</ele>
        <time>2026-07-08T07:15:17Z</time>
      </trkpt>
      <trkpt lat="43.01579" lon="0.31444">
        <ele>845.4</ele>
        <time>2026-07-08T07:15:18Z</time>
      </trkpt>
      <trkpt lat="43.01579" lon="0.31444">
        <ele>845.4</ele>
        <time>2026-07-08T07:15:18Z</time>
      </trkpt>
      <trkpt lat="43.01579" lon="0.31444">
        <ele>845.4</ele>
        <time>2026-07-08T07:15:19Z</time>
      </trkpt>
      <trkpt lat="43.01579" lon="0.31443">
        <ele>845.4</ele>
        <time>2026-07-08T07:15:20Z</time>
      </trkpt>
      <trkpt lat="43.01578" lon="0.31443">
        <ele>846.4</ele>
        <time>2026-07-08T07:15:21Z</time>
      </trkpt>
      <trkpt lat="43.01577" lon="0.31442">
        <ele>847.4</ele>
        <time>2026-07-08T07:15:21Z</time>
      </trkpt>
      <trkpt lat="43.01577" lon="0.31441">
        <ele>847.4</ele>
        <time>2026-07-08T07:15:22Z</time>
      </trkpt>
      <trkpt lat="43.01576" lon="0.3144">
        <ele>847.4</ele>
        <time>2026-07-08T07:15:23Z</time>
      </trkpt>
      <trkpt lat="43.01576" lon="0.31439">
        <ele>847.4</ele>
        <time>2026-07-08T07:15:23Z</time>
      </trkpt>
      <trkpt lat="43.01576" lon="0.31439">
        <ele>847.4</ele>
        <time>2026-07-08T07:15:24Z</time>
      </trkpt>
      <trkpt lat="43.01576" lon="0.31438">
        <ele>847.4</ele>
        <time>2026-07-08T07:15:25Z</time>
      </trkpt>
      <trkpt lat="43.01576" lon="0.31437">
        <ele>846.4</ele>
        <time>2026-07-08T07:15:25Z</time>
      </trkpt>
      <trkpt lat="43.01576" lon="0.31436">
        <ele>846.4</ele>
        <time>2026-07-08T07:15:26Z</time>
      </trkpt>
      <trkpt lat="43.01576" lon="0.31435">
        <ele>846.4</ele>
        <time>2026-07-08T07:15:27Z</time>
      </trkpt>
      <trkpt lat="43.01575" lon="0.31435">
        <ele>846.4</ele>
        <time>2026-07-08T07:15:28Z</time>
      </trkpt>
      <trkpt lat="43.01575" lon="0.31434">
        <ele>846.4</ele>
        <time>2026-07-08T07:15:29Z</time>
      </trkpt>
      <trkpt lat="43.01575" lon="0.31434">
        <ele>848.4</ele>
        <time>2026-07-08T07:15:30Z</time>
      </trkpt>
      <trkpt lat="43.01574" lon="0.31433">
        <ele>848.4</ele>
        <time>2026-07-08T07:15:31Z</time>
      </trkpt>
      <trkpt lat="43.01574" lon="0.31433">
        <ele>849.4</ele>
        <time>2026-07-08T07:15:32Z</time>
      </trkpt>
      <trkpt lat="43.01574" lon="0.31433">
        <ele>849.4</ele>
        <time>2026-07-08T07:15:33Z</time>
      </trkpt>
      <trkpt lat="43.01574" lon="0.31433">
        <ele>847.4</ele>
        <time>2026-07-08T07:15:34Z</time>
      </trkpt>
      <trkpt lat="43.01575" lon="0.31432">
        <ele>848.4</ele>
        <time>2026-07-08T07:15:35Z</time>
      </trkpt>
      <trkpt lat="43.01575" lon="0.31431">
        <ele>847.4</ele>
        <time>2026-07-08T07:15:35Z</time>
      </trkpt>
      <trkpt lat="43.01575" lon="0.31431">
        <ele>847.4</ele>
        <time>2026-07-08T07:15:36Z</time>
      </trkpt>
      <trkpt lat="43.01574" lon="0.3143">
        <ele>847.4</ele>
        <time>2026-07-08T07:15:37Z</time>
      </trkpt>
      <trkpt lat="43.01574" lon="0.31429">
        <ele>847.4</ele>
        <time>2026-07-08T07:15:38Z</time>
      </trkpt>
      <trkpt lat="43.01574" lon="0.31427">
        <ele>847.4</ele>
        <time>2026-07-08T07:15:38Z</time>
      </trkpt>
      <trkpt lat="43.01573" lon="0.31426">
        <ele>847.4</ele>
        <time>2026-07-08T07:15:39Z</time>
      </trkpt>
      <trkpt lat="43.01573" lon="0.31424">
        <ele>847.4</ele>
        <time>2026-07-08T07:15:40Z</time>
      </trkpt>
      <trkpt lat="43.01573" lon="0.31423">
        <ele>847.4</ele>
        <time>2026-07-08T07:15:41Z</time>
      </trkpt>
      <trkpt lat="43.01573" lon="0.31422">
        <ele>847.4</ele>
        <time>2026-07-08T07:15:41Z</time>
      </trkpt>
      <trkpt lat="43.01573" lon="0.31421">
        <ele>847.4</ele>
        <time>2026-07-08T07:15:42Z</time>
      </trkpt>
      <trkpt lat="43.01573" lon="0.3142">
        <ele>847.4</ele>
        <time>2026-07-08T07:15:43Z</time>
      </trkpt>
      <trkpt lat="43.01573" lon="0.31419">
        <ele>848.4</ele>
        <time>2026-07-08T07:15:44Z</time>
      </trkpt>
      <trkpt lat="43.01573" lon="0.31418">
        <ele>848.4</ele>
        <time>2026-07-08T07:15:44Z</time>
      </trkpt>
      <trkpt lat="43.01573" lon="0.31418">
        <ele>848.4</ele>
        <time>2026-07-08T07:15:45Z</time>
      </trkpt>
      <trkpt lat="43.01573" lon="0.31417">
        <ele>848.4</ele>
        <time>2026-07-08T07:15:46Z</time>
      </trkpt>
      <trkpt lat="43.01572" lon="0.31416">
        <ele>848.4</ele>
        <time>2026-07-08T07:15:47Z</time>
      </trkpt>
      <trkpt lat="43.01572" lon="0.31415">
        <ele>849.4</ele>
        <time>2026-07-08T07:15:48Z</time>
      </trkpt>
      <trkpt lat="43.01572" lon="0.31415">
        <ele>849.4</ele>
        <time>2026-07-08T07:15:48Z</time>
      </trkpt>
      <trkpt lat="43.01571" lon="0.31414">
        <ele>849.4</ele>
        <time>2026-07-08T07:15:49Z</time>
      </trkpt>
      <trkpt lat="43.01571" lon="0.31413">
        <ele>848.4</ele>
        <time>2026-07-08T07:15:50Z</time>
      </trkpt>
      <trkpt lat="43.01571" lon="0.31412">
        <ele>849.4</ele>
        <time>2026-07-08T07:15:51Z</time>
      </trkpt>
      <trkpt lat="43.0157" lon="0.31412">
        <ele>849.4</ele>
        <time>2026-07-08T07:15:51Z</time>
      </trkpt>
      <trkpt lat="43.0157" lon="0.31411">
        <ele>849.4</ele>
        <time>2026-07-08T07:15:52Z</time>
      </trkpt>
      <trkpt lat="43.0157" lon="0.3141">
        <ele>849.4</ele>
        <time>2026-07-08T07:15:53Z</time>
      </trkpt>
      <trkpt lat="43.0157" lon="0.31409">
        <ele>848.4</ele>
        <time>2026-07-08T07:15:54Z</time>
      </trkpt>
      <trkpt lat="43.0157" lon="0.31408">
        <ele>848.4</ele>
        <time>2026-07-08T07:15:54Z</time>
      </trkpt>
      <trkpt lat="43.0157" lon="0.31408">
        <ele>849.4</ele>
        <time>2026-07-08T07:15:55Z</time>
      </trkpt>
      <trkpt lat="43.01569" lon="0.31407">
        <ele>848.4</ele>
        <time>2026-07-08T07:15:56Z</time>
      </trkpt>
      <trkpt lat="43.01569" lon="0.31408">
        <ele>849.4</ele>
        <time>2026-07-08T07:15:57Z</time>
      </trkpt>
      <trkpt lat="43.0157" lon="0.31408">
        <ele>849.4</ele>
        <time>2026-07-08T07:15:58Z</time>
      </trkpt>
      <trkpt lat="43.0157" lon="0.31409">
        <ele>849.4</ele>
        <time>2026-07-08T07:15:59Z</time>
      </trkpt>
      <trkpt lat="43.01569" lon="0.31409">
        <ele>849.4</ele>
        <time>2026-07-08T07:16:00Z</time>
      </trkpt>
      <trkpt lat="43.01569" lon="0.31409">
        <ele>850.4</ele>
        <time>2026-07-08T07:16:00Z</time>
      </trkpt>
      <trkpt lat="43.01569" lon="0.31409">
        <ele>850.4</ele>
        <time>2026-07-08T07:16:01Z</time>
      </trkpt>
      <trkpt lat="43.01569" lon="0.31409">
        <ele>850.4</ele>
        <time>2026-07-08T07:16:02Z</time>
      </trkpt>
      <trkpt lat="43.01569" lon="0.31409">
        <ele>850.4</ele>
        <time>2026-07-08T07:16:03Z</time>
      </trkpt>
      <trkpt lat="43.01568" lon="0.31408">
        <ele>850.4</ele>
        <time>2026-07-08T07:16:03Z</time>
      </trkpt>
      <trkpt lat="43.01568" lon="0.31407">
        <ele>850.4</ele>
        <time>2026-07-08T07:16:04Z</time>
      </trkpt>
      <trkpt lat="43.01568" lon="0.31406">
        <ele>851.4</ele>
        <time>2026-07-08T07:16:05Z</time>
      </trkpt>
      <trkpt lat="43.01568" lon="0.31406">
        <ele>851.4</ele>
        <time>2026-07-08T07:16:06Z</time>
      </trkpt>
      <trkpt lat="43.01568" lon="0.31405">
        <ele>851.4</ele>
        <time>2026-07-08T07:16:06Z</time>
      </trkpt>
      <trkpt lat="43.01568" lon="0.31404">
        <ele>851.4</ele>
        <time>2026-07-08T07:16:07Z</time>
      </trkpt>
      <trkpt lat="43.01568" lon="0.31403">
        <ele>851.4</ele>
        <time>2026-07-08T07:16:08Z</time>
      </trkpt>
      <trkpt lat="43.01567" lon="0.31402">
        <ele>851.4</ele>
        <time>2026-07-08T07:16:09Z</time>
      </trkpt>
      <trkpt lat="43.01566" lon="0.31402">
        <ele>851.4</ele>
        <time>2026-07-08T07:16:10Z</time>
      </trkpt>
      <trkpt lat="43.01566" lon="0.31401">
        <ele>852.4</ele>
        <time>2026-07-08T07:16:10Z</time>
      </trkpt>
      <trkpt lat="43.01565" lon="0.314">
        <ele>852.4</ele>
        <time>2026-07-08T07:16:11Z</time>
      </trkpt>
      <trkpt lat="43.01565" lon="0.31399">
        <ele>852.4</ele>
        <time>2026-07-08T07:16:12Z</time>
      </trkpt>
      <trkpt lat="43.01564" lon="0.31399">
        <ele>852.4</ele>
        <time>2026-07-08T07:16:13Z</time>
      </trkpt>
      <trkpt lat="43.01564" lon="0.31398">
        <ele>853.4</ele>
        <time>2026-07-08T07:16:13Z</time>
      </trkpt>
      <trkpt lat="43.01564" lon="0.31397">
        <ele>853.4</ele>
        <time>2026-07-08T07:16:14Z</time>
      </trkpt>
      <trkpt lat="43.01563" lon="0.31396">
        <ele>853.4</ele>
        <time>2026-07-08T07:16:15Z</time>
      </trkpt>
      <trkpt lat="43.01563" lon="0.31395">
        <ele>853.4</ele>
        <time>2026-07-08T07:16:16Z</time>
      </trkpt>
      <trkpt lat="43.01562" lon="0.31394">
        <ele>853.4</ele>
        <time>2026-07-08T07:16:17Z</time>
      </trkpt>
      <trkpt lat="43.01561" lon="0.31394">
        <ele>853.4</ele>
        <time>2026-07-08T07:16:18Z</time>
      </trkpt>
      <trkpt lat="43.01561" lon="0.31394">
        <ele>853.4</ele>
        <time>2026-07-08T07:16:19Z</time>
      </trkpt>
      <trkpt lat="43.0156" lon="0.31394">
        <ele>853.4</ele>
        <time>2026-07-08T07:16:20Z</time>
      </trkpt>
      <trkpt lat="43.0156" lon="0.31394">
        <ele>853.4</ele>
        <time>2026-07-08T07:16:21Z</time>
      </trkpt>
      <trkpt lat="43.0156" lon="0.31393">
        <ele>854.4</ele>
        <time>2026-07-08T07:16:21Z</time>
      </trkpt>
      <trkpt lat="43.0156" lon="0.31393">
        <ele>854.4</ele>
        <time>2026-07-08T07:16:22Z</time>
      </trkpt>
      <trkpt lat="43.01559" lon="0.31393">
        <ele>854.4</ele>
        <time>2026-07-08T07:16:23Z</time>
      </trkpt>
      <trkpt lat="43.01559" lon="0.31393">
        <ele>855.4</ele>
        <time>2026-07-08T07:16:24Z</time>
      </trkpt>
      <trkpt lat="43.01559" lon="0.31393">
        <ele>855.4</ele>
        <time>2026-07-08T07:16:24Z</time>
      </trkpt>
      <trkpt lat="43.01559" lon="0.31393">
        <ele>855.4</ele>
        <time>2026-07-08T07:16:25Z</time>
      </trkpt>
      <trkpt lat="43.01559" lon="0.31392">
        <ele>855.4</ele>
        <time>2026-07-08T07:16:26Z</time>
      </trkpt>
      <trkpt lat="43.01559" lon="0.31392">
        <ele>855.4</ele>
        <time>2026-07-08T07:16:27Z</time>
      </trkpt>
      <trkpt lat="43.01559" lon="0.31392">
        <ele>855.4</ele>
        <time>2026-07-08T07:16:28Z</time>
      </trkpt>
      <trkpt lat="43.01558" lon="0.31392">
        <ele>855.4</ele>
        <time>2026-07-08T07:16:29Z</time>
      </trkpt>
      <trkpt lat="43.01558" lon="0.31392">
        <ele>855.4</ele>
        <time>2026-07-08T07:16:29Z</time>
      </trkpt>
      <trkpt lat="43.01558" lon="0.31391">
        <ele>855.4</ele>
        <time>2026-07-08T07:16:30Z</time>
      </trkpt>
      <trkpt lat="43.01558" lon="0.3139">
        <ele>855.4</ele>
        <time>2026-07-08T07:16:31Z</time>
      </trkpt>
      <trkpt lat="43.01558" lon="0.3139">
        <ele>855.4</ele>
        <time>2026-07-08T07:16:32Z</time>
      </trkpt>
      <trkpt lat="43.01559" lon="0.3139">
        <ele>855.4</ele>
        <time>2026-07-08T07:16:33Z</time>
      </trkpt>
      <trkpt lat="43.01559" lon="0.31389">
        <ele>856.4</ele>
        <time>2026-07-08T07:16:33Z</time>
      </trkpt>
      <trkpt lat="43.01559" lon="0.31389">
        <ele>856.4</ele>
        <time>2026-07-08T07:16:34Z</time>
      </trkpt>
      <trkpt lat="43.01559" lon="0.31389">
        <ele>856.4</ele>
        <time>2026-07-08T07:16:35Z</time>
      </trkpt>
      <trkpt lat="43.01559" lon="0.31388">
        <ele>856.4</ele>
        <time>2026-07-08T07:16:36Z</time>
      </trkpt>
      <trkpt lat="43.01558" lon="0.31387">
        <ele>856.4</ele>
        <time>2026-07-08T07:16:37Z</time>
      </trkpt>
      <trkpt lat="43.01558" lon="0.31387">
        <ele>855.4</ele>
        <time>2026-07-08T07:16:38Z</time>
      </trkpt>
      <trkpt lat="43.01558" lon="0.31387">
        <ele>856.4</ele>
        <time>2026-07-08T07:16:38Z</time>
      </trkpt>
      <trkpt lat="43.01558" lon="0.31386">
        <ele>856.4</ele>
        <time>2026-07-08T07:16:39Z</time>
      </trkpt>
      <trkpt lat="43.01558" lon="0.31386">
        <ele>856.4</ele>
        <time>2026-07-08T07:16:40Z</time>
      </trkpt>
      <trkpt lat="43.01558" lon="0.31385">
        <ele>856.4</ele>
        <time>2026-07-08T07:16:41Z</time>
      </trkpt>
      <trkpt lat="43.01558" lon="0.31384">
        <ele>856.4</ele>
        <time>2026-07-08T07:16:42Z</time>
      </trkpt>
      <trkpt lat="43.01558" lon="0.31384">
        <ele>856.4</ele>
        <time>2026-07-08T07:16:42Z</time>
      </trkpt>
      <trkpt lat="43.01558" lon="0.31383">
        <ele>857.4</ele>
        <time>2026-07-08T07:16:43Z</time>
      </trkpt>
      <trkpt lat="43.01558" lon="0.31382">
        <ele>858.4</ele>
        <time>2026-07-08T07:16:44Z</time>
      </trkpt>
      <trkpt lat="43.01557" lon="0.31381">
        <ele>858.4</ele>
        <time>2026-07-08T07:16:45Z</time>
      </trkpt>
      <trkpt lat="43.01558" lon="0.31381">
        <ele>858.4</ele>
        <time>2026-07-08T07:16:46Z</time>
      </trkpt>
      <trkpt lat="43.01558" lon="0.3138">
        <ele>859.4</ele>
        <time>2026-07-08T07:16:47Z</time>
      </trkpt>
      <trkpt lat="43.01558" lon="0.3138">
        <ele>859.4</ele>
        <time>2026-07-08T07:16:47Z</time>
      </trkpt>
      <trkpt lat="43.01558" lon="0.31379">
        <ele>860.4</ele>
        <time>2026-07-08T07:16:48Z</time>
      </trkpt>
      <trkpt lat="43.01558" lon="0.31378">
        <ele>860.4</ele>
        <time>2026-07-08T07:16:49Z</time>
      </trkpt>
      <trkpt lat="43.01558" lon="0.31378">
        <ele>860.4</ele>
        <time>2026-07-08T07:16:50Z</time>
      </trkpt>
      <trkpt lat="43.01558" lon="0.31378">
        <ele>861.4</ele>
        <time>2026-07-08T07:16:51Z</time>
      </trkpt>
      <trkpt lat="43.01558" lon="0.31377">
        <ele>860.4</ele>
        <time>2026-07-08T07:16:51Z</time>
      </trkpt>
      <trkpt lat="43.01558" lon="0.31377">
        <ele>861.4</ele>
        <time>2026-07-08T07:16:52Z</time>
      </trkpt>
      <trkpt lat="43.01558" lon="0.31376">
        <ele>861.4</ele>
        <time>2026-07-08T07:16:53Z</time>
      </trkpt>
      <trkpt lat="43.01558" lon="0.31376">
        <ele>861.4</ele>
        <time>2026-07-08T07:16:54Z</time>
      </trkpt>
      <trkpt lat="43.01557" lon="0.31375">
        <ele>862.4</ele>
        <time>2026-07-08T07:16:54Z</time>
      </trkpt>
      <trkpt lat="43.01557" lon="0.31374">
        <ele>861.4</ele>
        <time>2026-07-08T07:16:55Z</time>
      </trkpt>
      <trkpt lat="43.01557" lon="0.31373">
        <ele>861.4</ele>
        <time>2026-07-08T07:16:56Z</time>
      </trkpt>
      <trkpt lat="43.01557" lon="0.31373">
        <ele>862.4</ele>
        <time>2026-07-08T07:16:57Z</time>
      </trkpt>
      <trkpt lat="43.01556" lon="0.31372">
        <ele>862.4</ele>
        <time>2026-07-08T07:16:58Z</time>
      </trkpt>
      <trkpt lat="43.01556" lon="0.31372">
        <ele>861.4</ele>
        <time>2026-07-08T07:16:58Z</time>
      </trkpt>
      <trkpt lat="43.01556" lon="0.31371">
        <ele>861.4</ele>
        <time>2026-07-08T07:16:59Z</time>
      </trkpt>
      <trkpt lat="43.01556" lon="0.31371">
        <ele>861.4</ele>
        <time>2026-07-08T07:17:00Z</time>
      </trkpt>
      <trkpt lat="43.01555" lon="0.31371">
        <ele>862.4</ele>
        <time>2026-07-08T07:17:00Z</time>
      </trkpt>
      <trkpt lat="43.01555" lon="0.31371">
        <ele>864.4</ele>
        <time>2026-07-08T07:17:01Z</time>
      </trkpt>
      <trkpt lat="43.01555" lon="0.31371">
        <ele>864.4</ele>
        <time>2026-07-08T07:17:02Z</time>
      </trkpt>
      <trkpt lat="43.01556" lon="0.31371">
        <ele>864.4</ele>
        <time>2026-07-08T07:17:03Z</time>
      </trkpt>
      <trkpt lat="43.01556" lon="0.31371">
        <ele>865.4</ele>
        <time>2026-07-08T07:17:04Z</time>
      </trkpt>
      <trkpt lat="43.01556" lon="0.31371">
        <ele>866.4</ele>
        <time>2026-07-08T07:17:05Z</time>
      </trkpt>
      <trkpt lat="43.01556" lon="0.31371">
        <ele>866.4</ele>
        <time>2026-07-08T07:17:06Z</time>
      </trkpt>
      <trkpt lat="43.01556" lon="0.31371">
        <ele>866.4</ele>
        <time>2026-07-08T07:17:07Z</time>
      </trkpt>
      <trkpt lat="43.01556" lon="0.31371">
        <ele>866.4</ele>
        <time>2026-07-08T07:17:08Z</time>
      </trkpt>
      <trkpt lat="43.01556" lon="0.31371">
        <ele>866.4</ele>
        <time>2026-07-08T07:17:09Z</time>
      </trkpt>
      <trkpt lat="43.01556" lon="0.3137">
        <ele>866.4</ele>
        <time>2026-07-08T07:17:10Z</time>
      </trkpt>
      <trkpt lat="43.01556" lon="0.3137">
        <ele>866.4</ele>
        <time>2026-07-08T07:17:11Z</time>
      </trkpt>
      <trkpt lat="43.01556" lon="0.3137">
        <ele>866.4</ele>
        <time>2026-07-08T07:17:12Z</time>
      </trkpt>
      <trkpt lat="43.01556" lon="0.3137">
        <ele>866.4</ele>
        <time>2026-07-08T07:17:13Z</time>
      </trkpt>
      <trkpt lat="43.01556" lon="0.3137">
        <ele>866.4</ele>
        <time>2026-07-08T07:17:14Z</time>
      </trkpt>
      <trkpt lat="43.01556" lon="0.3137">
        <ele>867.4</ele>
        <time>2026-07-08T07:17:15Z</time>
      </trkpt>
      <trkpt lat="43.01556" lon="0.3137">
        <ele>867.4</ele>
        <time>2026-07-08T07:17:16Z</time>
      </trkpt>
      <trkpt lat="43.01556" lon="0.3137">
        <ele>867.4</ele>
        <time>2026-07-08T07:17:17Z</time>
      </trkpt>
      <trkpt lat="43.01555" lon="0.31369">
        <ele>867.4</ele>
        <time>2026-07-08T07:17:17Z</time>
      </trkpt>
      <trkpt lat="43.01555" lon="0.31369">
        <ele>867.4</ele>
        <time>2026-07-08T07:17:18Z</time>
      </trkpt>
      <trkpt lat="43.01555" lon="0.31369">
        <ele>867.4</ele>
        <time>2026-07-08T07:17:19Z</time>
      </trkpt>
      <trkpt lat="43.01555" lon="0.31368">
        <ele>867.4</ele>
        <time>2026-07-08T07:17:20Z</time>
      </trkpt>
      <trkpt lat="43.01555" lon="0.31367">
        <ele>867.4</ele>
        <time>2026-07-08T07:17:20Z</time>
      </trkpt>
      <trkpt lat="43.01555" lon="0.31367">
        <ele>867.4</ele>
        <time>2026-07-08T07:17:21Z</time>
      </trkpt>
      <trkpt lat="43.01555" lon="0.31366">
        <ele>866.4</ele>
        <time>2026-07-08T07:17:22Z</time>
      </trkpt>
      <trkpt lat="43.01554" lon="0.31364">
        <ele>866.4</ele>
        <time>2026-07-08T07:17:22Z</time>
      </trkpt>
      <trkpt lat="43.01553" lon="0.31363">
        <ele>866.4</ele>
        <time>2026-07-08T07:17:23Z</time>
      </trkpt>
      <trkpt lat="43.01553" lon="0.31362">
        <ele>866.4</ele>
        <time>2026-07-08T07:17:24Z</time>
      </trkpt>
      <trkpt lat="43.01552" lon="0.31361">
        <ele>866.4</ele>
        <time>2026-07-08T07:17:24Z</time>
      </trkpt>
      <trkpt lat="43.01552" lon="0.31361">
        <ele>866.4</ele>
        <time>2026-07-08T07:17:25Z</time>
      </trkpt>
      <trkpt lat="43.01551" lon="0.3136">
        <ele>866.4</ele>
        <time>2026-07-08T07:17:26Z</time>
      </trkpt>
      <trkpt lat="43.01551" lon="0.31359">
        <ele>866.4</ele>
        <time>2026-07-08T07:17:26Z</time>
      </trkpt>
      <trkpt lat="43.01551" lon="0.31359">
        <ele>866.4</ele>
        <time>2026-07-08T07:17:27Z</time>
      </trkpt>
      <trkpt lat="43.0155" lon="0.31358">
        <ele>866.4</ele>
        <time>2026-07-08T07:17:28Z</time>
      </trkpt>
      <trkpt lat="43.0155" lon="0.31357">
        <ele>866.4</ele>
        <time>2026-07-08T07:17:29Z</time>
      </trkpt>
      <trkpt lat="43.0155" lon="0.31357">
        <ele>866.4</ele>
        <time>2026-07-08T07:17:29Z</time>
      </trkpt>
      <trkpt lat="43.01549" lon="0.31355">
        <ele>866.4</ele>
        <time>2026-07-08T07:17:30Z</time>
      </trkpt>
      <trkpt lat="43.01549" lon="0.31355">
        <ele>866.4</ele>
        <time>2026-07-08T07:17:31Z</time>
      </trkpt>
      <trkpt lat="43.01549" lon="0.31354">
        <ele>866.4</ele>
        <time>2026-07-08T07:17:31Z</time>
      </trkpt>
      <trkpt lat="43.01548" lon="0.31353">
        <ele>866.4</ele>
        <time>2026-07-08T07:17:32Z</time>
      </trkpt>
      <trkpt lat="43.01548" lon="0.31352">
        <ele>867.4</ele>
        <time>2026-07-08T07:17:33Z</time>
      </trkpt>
      <trkpt lat="43.01548" lon="0.31352">
        <ele>866.4</ele>
        <time>2026-07-08T07:17:33Z</time>
      </trkpt>
      <trkpt lat="43.01547" lon="0.31351">
        <ele>866.4</ele>
        <time>2026-07-08T07:17:34Z</time>
      </trkpt>
      <trkpt lat="43.01547" lon="0.3135">
        <ele>867.4</ele>
        <time>2026-07-08T07:17:35Z</time>
      </trkpt>
      <trkpt lat="43.01547" lon="0.3135">
        <ele>867.4</ele>
        <time>2026-07-08T07:17:35Z</time>
      </trkpt>
      <trkpt lat="43.01546" lon="0.31349">
        <ele>867.4</ele>
        <time>2026-07-08T07:17:36Z</time>
      </trkpt>
      <trkpt lat="43.01546" lon="0.31348">
        <ele>867.4</ele>
        <time>2026-07-08T07:17:37Z</time>
      </trkpt>
      <trkpt lat="43.01546" lon="0.31348">
        <ele>867.4</ele>
        <time>2026-07-08T07:17:37Z</time>
      </trkpt>
      <trkpt lat="43.01545" lon="0.31347">
        <ele>867.4</ele>
        <time>2026-07-08T07:17:38Z</time>
      </trkpt>
      <trkpt lat="43.01545" lon="0.31346">
        <ele>867.4</ele>
        <time>2026-07-08T07:17:39Z</time>
      </trkpt>
      <trkpt lat="43.01545" lon="0.31346">
        <ele>867.4</ele>
        <time>2026-07-08T07:17:40Z</time>
      </trkpt>
      <trkpt lat="43.01545" lon="0.31345">
        <ele>867.4</ele>
        <time>2026-07-08T07:17:40Z</time>
      </trkpt>
      <trkpt lat="43.01544" lon="0.31344">
        <ele>867.4</ele>
        <time>2026-07-08T07:17:41Z</time>
      </trkpt>
      <trkpt lat="43.01544" lon="0.31344">
        <ele>867.4</ele>
        <time>2026-07-08T07:17:42Z</time>
      </trkpt>
      <trkpt lat="43.01544" lon="0.31343">
        <ele>867.4</ele>
        <time>2026-07-08T07:17:42Z</time>
      </trkpt>
      <trkpt lat="43.01544" lon="0.31342">
        <ele>867.4</ele>
        <time>2026-07-08T07:17:43Z</time>
      </trkpt>
      <trkpt lat="43.01543" lon="0.31341">
        <ele>867.4</ele>
        <time>2026-07-08T07:17:44Z</time>
      </trkpt>
      <trkpt lat="43.01543" lon="0.31341">
        <ele>867.4</ele>
        <time>2026-07-08T07:17:44Z</time>
      </trkpt>
      <trkpt lat="43.01543" lon="0.3134">
        <ele>867.4</ele>
        <time>2026-07-08T07:17:45Z</time>
      </trkpt>
      <trkpt lat="43.01543" lon="0.31339">
        <ele>867.4</ele>
        <time>2026-07-08T07:17:46Z</time>
      </trkpt>
      <trkpt lat="43.01543" lon="0.31339">
        <ele>867.4</ele>
        <time>2026-07-08T07:17:46Z</time>
      </trkpt>
      <trkpt lat="43.01543" lon="0.31338">
        <ele>867.4</ele>
        <time>2026-07-08T07:17:47Z</time>
      </trkpt>
      <trkpt lat="43.01543" lon="0.31337">
        <ele>867.4</ele>
        <time>2026-07-08T07:17:48Z</time>
      </trkpt>
      <trkpt lat="43.01543" lon="0.31337">
        <ele>868.4</ele>
        <time>2026-07-08T07:17:48Z</time>
      </trkpt>
      <trkpt lat="43.01542" lon="0.31337">
        <ele>867.4</ele>
        <time>2026-07-08T07:17:49Z</time>
      </trkpt>
      <trkpt lat="43.01542" lon="0.31336">
        <ele>867.4</ele>
        <time>2026-07-08T07:17:50Z</time>
      </trkpt>
      <trkpt lat="43.01542" lon="0.31336">
        <ele>867.4</ele>
        <time>2026-07-08T07:17:51Z</time>
      </trkpt>
      <trkpt lat="43.01542" lon="0.31336">
        <ele>867.4</ele>
        <time>2026-07-08T07:17:52Z</time>
      </trkpt>
      <trkpt lat="43.01542" lon="0.31336">
        <ele>867.4</ele>
        <time>2026-07-08T07:17:52Z</time>
      </trkpt>
      <trkpt lat="43.01541" lon="0.31335">
        <ele>867.4</ele>
        <time>2026-07-08T07:17:53Z</time>
      </trkpt>
      <trkpt lat="43.01541" lon="0.31335">
        <ele>868.4</ele>
        <time>2026-07-08T07:17:54Z</time>
      </trkpt>
      <trkpt lat="43.01541" lon="0.31334">
        <ele>868.4</ele>
        <time>2026-07-08T07:17:55Z</time>
      </trkpt>
      <trkpt lat="43.0154" lon="0.31333">
        <ele>868.4</ele>
        <time>2026-07-08T07:17:55Z</time>
      </trkpt>
      <trkpt lat="43.0154" lon="0.31333">
        <ele>868.4</ele>
        <time>2026-07-08T07:17:56Z</time>
      </trkpt>
      <trkpt lat="43.0154" lon="0.31332">
        <ele>868.4</ele>
        <time>2026-07-08T07:17:57Z</time>
      </trkpt>
      <trkpt lat="43.0154" lon="0.31331">
        <ele>868.4</ele>
        <time>2026-07-08T07:17:57Z</time>
      </trkpt>
      <trkpt lat="43.0154" lon="0.3133">
        <ele>868.4</ele>
        <time>2026-07-08T07:17:58Z</time>
      </trkpt>
      <trkpt lat="43.0154" lon="0.31329">
        <ele>869.4</ele>
        <time>2026-07-08T07:17:59Z</time>
      </trkpt>
      <trkpt lat="43.0154" lon="0.31328">
        <ele>868.4</ele>
        <time>2026-07-08T07:17:59Z</time>
      </trkpt>
      <trkpt lat="43.0154" lon="0.31327">
        <ele>868.4</ele>
        <time>2026-07-08T07:18:00Z</time>
      </trkpt>
      <trkpt lat="43.0154" lon="0.31327">
        <ele>869.4</ele>
        <time>2026-07-08T07:18:01Z</time>
      </trkpt>
      <trkpt lat="43.0154" lon="0.31326">
        <ele>869.4</ele>
        <time>2026-07-08T07:18:01Z</time>
      </trkpt>
      <trkpt lat="43.0154" lon="0.31325">
        <ele>869.4</ele>
        <time>2026-07-08T07:18:02Z</time>
      </trkpt>
      <trkpt lat="43.01539" lon="0.31324">
        <ele>869.4</ele>
        <time>2026-07-08T07:18:03Z</time>
      </trkpt>
      <trkpt lat="43.01539" lon="0.31324">
        <ele>869.4</ele>
        <time>2026-07-08T07:18:03Z</time>
      </trkpt>
      <trkpt lat="43.01539" lon="0.31323">
        <ele>869.4</ele>
        <time>2026-07-08T07:18:04Z</time>
      </trkpt>
      <trkpt lat="43.01539" lon="0.31323">
        <ele>869.4</ele>
        <time>2026-07-08T07:18:04Z</time>
      </trkpt>
      <trkpt lat="43.01538" lon="0.31322">
        <ele>869.4</ele>
        <time>2026-07-08T07:18:05Z</time>
      </trkpt>
      <trkpt lat="43.01538" lon="0.31321">
        <ele>869.4</ele>
        <time>2026-07-08T07:18:06Z</time>
      </trkpt>
      <trkpt lat="43.01538" lon="0.3132">
        <ele>869.4</ele>
        <time>2026-07-08T07:18:06Z</time>
      </trkpt>
      <trkpt lat="43.01538" lon="0.3132">
        <ele>869.4</ele>
        <time>2026-07-08T07:18:07Z</time>
      </trkpt>
      <trkpt lat="43.01538" lon="0.31319">
        <ele>869.4</ele>
        <time>2026-07-08T07:18:07Z</time>
      </trkpt>
      <trkpt lat="43.01537" lon="0.31318">
        <ele>869.4</ele>
        <time>2026-07-08T07:18:08Z</time>
      </trkpt>
      <trkpt lat="43.01537" lon="0.31318">
        <ele>869.4</ele>
        <time>2026-07-08T07:18:09Z</time>
      </trkpt>
      <trkpt lat="43.01537" lon="0.31317">
        <ele>869.4</ele>
        <time>2026-07-08T07:18:09Z</time>
      </trkpt>
      <trkpt lat="43.01536" lon="0.31316">
        <ele>869.4</ele>
        <time>2026-07-08T07:18:10Z</time>
      </trkpt>
      <trkpt lat="43.01536" lon="0.31315">
        <ele>870.4</ele>
        <time>2026-07-08T07:18:11Z</time>
      </trkpt>
      <trkpt lat="43.01535" lon="0.31314">
        <ele>870.4</ele>
        <time>2026-07-08T07:18:12Z</time>
      </trkpt>
      <trkpt lat="43.01535" lon="0.31313">
        <ele>870.4</ele>
        <time>2026-07-08T07:18:13Z</time>
      </trkpt>
      <trkpt lat="43.01534" lon="0.31313">
        <ele>870.4</ele>
        <time>2026-07-08T07:18:13Z</time>
      </trkpt>
      <trkpt lat="43.01534" lon="0.31312">
        <ele>870.4</ele>
        <time>2026-07-08T07:18:14Z</time>
      </trkpt>
      <trkpt lat="43.01534" lon="0.31311">
        <ele>870.4</ele>
        <time>2026-07-08T07:18:14Z</time>
      </trkpt>
      <trkpt lat="43.01533" lon="0.31311">
        <ele>870.4</ele>
        <time>2026-07-08T07:18:15Z</time>
      </trkpt>
      <trkpt lat="43.01533" lon="0.3131">
        <ele>869.4</ele>
        <time>2026-07-08T07:18:16Z</time>
      </trkpt>
      <trkpt lat="43.01532" lon="0.3131">
        <ele>869.4</ele>
        <time>2026-07-08T07:18:16Z</time>
      </trkpt>
      <trkpt lat="43.01532" lon="0.31309">
        <ele>869.4</ele>
        <time>2026-07-08T07:18:17Z</time>
      </trkpt>
      <trkpt lat="43.01532" lon="0.31308">
        <ele>869.4</ele>
        <time>2026-07-08T07:18:17Z</time>
      </trkpt>
      <trkpt lat="43.01531" lon="0.31307">
        <ele>869.4</ele>
        <time>2026-07-08T07:18:18Z</time>
      </trkpt>
      <trkpt lat="43.01531" lon="0.31306">
        <ele>869.4</ele>
        <time>2026-07-08T07:18:19Z</time>
      </trkpt>
      <trkpt lat="43.01531" lon="0.31306">
        <ele>869.4</ele>
        <time>2026-07-08T07:18:19Z</time>
      </trkpt>
      <trkpt lat="43.0153" lon="0.31305">
        <ele>869.4</ele>
        <time>2026-07-08T07:18:20Z</time>
      </trkpt>
      <trkpt lat="43.0153" lon="0.31304">
        <ele>869.4</ele>
        <time>2026-07-08T07:18:20Z</time>
      </trkpt>
      <trkpt lat="43.0153" lon="0.31303">
        <ele>869.4</ele>
        <time>2026-07-08T07:18:21Z</time>
      </trkpt>
      <trkpt lat="43.0153" lon="0.31302">
        <ele>869.4</ele>
        <time>2026-07-08T07:18:22Z</time>
      </trkpt>
      <trkpt lat="43.0153" lon="0.31302">
        <ele>870.4</ele>
        <time>2026-07-08T07:18:22Z</time>
      </trkpt>
      <trkpt lat="43.0153" lon="0.31301">
        <ele>870.4</ele>
        <time>2026-07-08T07:18:23Z</time>
      </trkpt>
      <trkpt lat="43.01529" lon="0.31301">
        <ele>869.4</ele>
        <time>2026-07-08T07:18:24Z</time>
      </trkpt>
      <trkpt lat="43.01529" lon="0.313">
        <ele>869.4</ele>
        <time>2026-07-08T07:18:24Z</time>
      </trkpt>
      <trkpt lat="43.01529" lon="0.31299">
        <ele>869.4</ele>
        <time>2026-07-08T07:18:25Z</time>
      </trkpt>
      <trkpt lat="43.01528" lon="0.31299">
        <ele>869.4</ele>
        <time>2026-07-08T07:18:25Z</time>
      </trkpt>
      <trkpt lat="43.01528" lon="0.31298">
        <ele>869.4</ele>
        <time>2026-07-08T07:18:26Z</time>
      </trkpt>
      <trkpt lat="43.01527" lon="0.31297">
        <ele>868.4</ele>
        <time>2026-07-08T07:18:27Z</time>
      </trkpt>
      <trkpt lat="43.01527" lon="0.31297">
        <ele>868.4</ele>
        <time>2026-07-08T07:18:27Z</time>
      </trkpt>
      <trkpt lat="43.01526" lon="0.31297">
        <ele>868.4</ele>
        <time>2026-07-08T07:18:28Z</time>
      </trkpt>
      <trkpt lat="43.01526" lon="0.31297">
        <ele>868.4</ele>
        <time>2026-07-08T07:18:28Z</time>
      </trkpt>
      <trkpt lat="43.01525" lon="0.31296">
        <ele>868.4</ele>
        <time>2026-07-08T07:18:29Z</time>
      </trkpt>
      <trkpt lat="43.01525" lon="0.31296">
        <ele>868.4</ele>
        <time>2026-07-08T07:18:30Z</time>
      </trkpt>
      <trkpt lat="43.01525" lon="0.31295">
        <ele>868.4</ele>
        <time>2026-07-08T07:18:30Z</time>
      </trkpt>
      <trkpt lat="43.01524" lon="0.31294">
        <ele>868.4</ele>
        <time>2026-07-08T07:18:31Z</time>
      </trkpt>
      <trkpt lat="43.01524" lon="0.31293">
        <ele>867.4</ele>
        <time>2026-07-08T07:18:31Z</time>
      </trkpt>
      <trkpt lat="43.01524" lon="0.31292">
        <ele>867.4</ele>
        <time>2026-07-08T07:18:32Z</time>
      </trkpt>
      <trkpt lat="43.01523" lon="0.31291">
        <ele>868.4</ele>
        <time>2026-07-08T07:18:32Z</time>
      </trkpt>
      <trkpt lat="43.01523" lon="0.3129">
        <ele>868.4</ele>
        <time>2026-07-08T07:18:33Z</time>
      </trkpt>
      <trkpt lat="43.01523" lon="0.3129">
        <ele>868.4</ele>
        <time>2026-07-08T07:18:34Z</time>
      </trkpt>
      <trkpt lat="43.01523" lon="0.31289">
        <ele>868.4</ele>
        <time>2026-07-08T07:18:34Z</time>
      </trkpt>
      <trkpt lat="43.01523" lon="0.31288">
        <ele>868.4</ele>
        <time>2026-07-08T07:18:35Z</time>
      </trkpt>
      <trkpt lat="43.01522" lon="0.31287">
        <ele>867.4</ele>
        <time>2026-07-08T07:18:35Z</time>
      </trkpt>
      <trkpt lat="43.01522" lon="0.31286">
        <ele>867.4</ele>
        <time>2026-07-08T07:18:36Z</time>
      </trkpt>
      <trkpt lat="43.01522" lon="0.31285">
        <ele>868.4</ele>
        <time>2026-07-08T07:18:37Z</time>
      </trkpt>
      <trkpt lat="43.01522" lon="0.31285">
        <ele>868.4</ele>
        <time>2026-07-08T07:18:37Z</time>
      </trkpt>
      <trkpt lat="43.01521" lon="0.31284">
        <ele>868.4</ele>
        <time>2026-07-08T07:18:38Z</time>
      </trkpt>
      <trkpt lat="43.01521" lon="0.31283">
        <ele>868.4</ele>
        <time>2026-07-08T07:18:38Z</time>
      </trkpt>
      <trkpt lat="43.01521" lon="0.31282">
        <ele>868.4</ele>
        <time>2026-07-08T07:18:39Z</time>
      </trkpt>
      <trkpt lat="43.01521" lon="0.31281">
        <ele>868.4</ele>
        <time>2026-07-08T07:18:40Z</time>
      </trkpt>
      <trkpt lat="43.01521" lon="0.31281">
        <ele>869.4</ele>
        <time>2026-07-08T07:18:40Z</time>
      </trkpt>
      <trkpt lat="43.0152" lon="0.3128">
        <ele>869.4</ele>
        <time>2026-07-08T07:18:41Z</time>
      </trkpt>
      <trkpt lat="43.0152" lon="0.31279">
        <ele>869.4</ele>
        <time>2026-07-08T07:18:42Z</time>
      </trkpt>
      <trkpt lat="43.0152" lon="0.31279">
        <ele>868.4</ele>
        <time>2026-07-08T07:18:42Z</time>
      </trkpt>
      <trkpt lat="43.0152" lon="0.31278">
        <ele>868.4</ele>
        <time>2026-07-08T07:18:43Z</time>
      </trkpt>
      <trkpt lat="43.0152" lon="0.31277">
        <ele>868.4</ele>
        <time>2026-07-08T07:18:43Z</time>
      </trkpt>
      <trkpt lat="43.0152" lon="0.31276">
        <ele>868.4</ele>
        <time>2026-07-08T07:18:44Z</time>
      </trkpt>
      <trkpt lat="43.01519" lon="0.31275">
        <ele>868.4</ele>
        <time>2026-07-08T07:18:45Z</time>
      </trkpt>
      <trkpt lat="43.01519" lon="0.31275">
        <ele>868.4</ele>
        <time>2026-07-08T07:18:45Z</time>
      </trkpt>
      <trkpt lat="43.01518" lon="0.31274">
        <ele>868.4</ele>
        <time>2026-07-08T07:18:46Z</time>
      </trkpt>
      <trkpt lat="43.01518" lon="0.31274">
        <ele>868.4</ele>
        <time>2026-07-08T07:18:46Z</time>
      </trkpt>
      <trkpt lat="43.01517" lon="0.31274">
        <ele>868.4</ele>
        <time>2026-07-08T07:18:47Z</time>
      </trkpt>
      <trkpt lat="43.01517" lon="0.31273">
        <ele>868.4</ele>
        <time>2026-07-08T07:18:48Z</time>
      </trkpt>
      <trkpt lat="43.01517" lon="0.31273">
        <ele>868.4</ele>
        <time>2026-07-08T07:18:48Z</time>
      </trkpt>
      <trkpt lat="43.01516" lon="0.31272">
        <ele>868.4</ele>
        <time>2026-07-08T07:18:49Z</time>
      </trkpt>
      <trkpt lat="43.01516" lon="0.31272">
        <ele>868.4</ele>
        <time>2026-07-08T07:18:49Z</time>
      </trkpt>
      <trkpt lat="43.01516" lon="0.31271">
        <ele>868.4</ele>
        <time>2026-07-08T07:18:50Z</time>
      </trkpt>
      <trkpt lat="43.01515" lon="0.3127">
        <ele>868.4</ele>
        <time>2026-07-08T07:18:51Z</time>
      </trkpt>
      <trkpt lat="43.01515" lon="0.3127">
        <ele>868.4</ele>
        <time>2026-07-08T07:18:51Z</time>
      </trkpt>
      <trkpt lat="43.01515" lon="0.31269">
        <ele>868.4</ele>
        <time>2026-07-08T07:18:52Z</time>
      </trkpt>
      <trkpt lat="43.01514" lon="0.31269">
        <ele>868.4</ele>
        <time>2026-07-08T07:18:53Z</time>
      </trkpt>
      <trkpt lat="43.01514" lon="0.31268">
        <ele>867.4</ele>
        <time>2026-07-08T07:18:53Z</time>
      </trkpt>
      <trkpt lat="43.01514" lon="0.31267">
        <ele>868.4</ele>
        <time>2026-07-08T07:18:54Z</time>
      </trkpt>
      <trkpt lat="43.01514" lon="0.31266">
        <ele>868.4</ele>
        <time>2026-07-08T07:18:55Z</time>
      </trkpt>
      <trkpt lat="43.01514" lon="0.31266">
        <ele>869.4</ele>
        <time>2026-07-08T07:18:56Z</time>
      </trkpt>
      <trkpt lat="43.01514" lon="0.31266">
        <ele>869.4</ele>
        <time>2026-07-08T07:18:57Z</time>
      </trkpt>
      <trkpt lat="43.01514" lon="0.31267">
        <ele>869.4</ele>
        <time>2026-07-08T07:18:58Z</time>
      </trkpt>
      <trkpt lat="43.01514" lon="0.31268">
        <ele>869.4</ele>
        <time>2026-07-08T07:18:59Z</time>
      </trkpt>
      <trkpt lat="43.01514" lon="0.31268">
        <ele>869.4</ele>
        <time>2026-07-08T07:18:59Z</time>
      </trkpt>
      <trkpt lat="43.01514" lon="0.31269">
        <ele>869.4</ele>
        <time>2026-07-08T07:19:00Z</time>
      </trkpt>
      <trkpt lat="43.01514" lon="0.31269">
        <ele>869.4</ele>
        <time>2026-07-08T07:19:01Z</time>
      </trkpt>
      <trkpt lat="43.01514" lon="0.31269">
        <ele>869.4</ele>
        <time>2026-07-08T07:19:02Z</time>
      </trkpt>
      <trkpt lat="43.01513" lon="0.31269">
        <ele>869.4</ele>
        <time>2026-07-08T07:19:03Z</time>
      </trkpt>
      <trkpt lat="43.01513" lon="0.31269">
        <ele>870.4</ele>
        <time>2026-07-08T07:19:03Z</time>
      </trkpt>
      <trkpt lat="43.01512" lon="0.31268">
        <ele>870.4</ele>
        <time>2026-07-08T07:19:04Z</time>
      </trkpt>
      <trkpt lat="43.01512" lon="0.31268">
        <ele>870.4</ele>
        <time>2026-07-08T07:19:05Z</time>
      </trkpt>
      <trkpt lat="43.01511" lon="0.31267">
        <ele>871.4</ele>
        <time>2026-07-08T07:19:06Z</time>
      </trkpt>
      <trkpt lat="43.01511" lon="0.31266">
        <ele>871.4</ele>
        <time>2026-07-08T07:19:06Z</time>
      </trkpt>
      <trkpt lat="43.0151" lon="0.31265">
        <ele>872.4</ele>
        <time>2026-07-08T07:19:07Z</time>
      </trkpt>
      <trkpt lat="43.0151" lon="0.31265">
        <ele>872.4</ele>
        <time>2026-07-08T07:19:08Z</time>
      </trkpt>
      <trkpt lat="43.01509" lon="0.31264">
        <ele>872.4</ele>
        <time>2026-07-08T07:19:09Z</time>
      </trkpt>
      <trkpt lat="43.01509" lon="0.31264">
        <ele>871.4</ele>
        <time>2026-07-08T07:19:10Z</time>
      </trkpt>
      <trkpt lat="43.01509" lon="0.31263">
        <ele>871.4</ele>
        <time>2026-07-08T07:19:10Z</time>
      </trkpt>
      <trkpt lat="43.01509" lon="0.31263">
        <ele>870.4</ele>
        <time>2026-07-08T07:19:11Z</time>
      </trkpt>
      <trkpt lat="43.01509" lon="0.31262">
        <ele>870.4</ele>
        <time>2026-07-08T07:19:12Z</time>
      </trkpt>
      <trkpt lat="43.01508" lon="0.31262">
        <ele>870.4</ele>
        <time>2026-07-08T07:19:13Z</time>
      </trkpt>
      <trkpt lat="43.01508" lon="0.31261">
        <ele>870.4</ele>
        <time>2026-07-08T07:19:13Z</time>
      </trkpt>
      <trkpt lat="43.01508" lon="0.3126">
        <ele>870.4</ele>
        <time>2026-07-08T07:19:14Z</time>
      </trkpt>
      <trkpt lat="43.01508" lon="0.31259">
        <ele>870.4</ele>
        <time>2026-07-08T07:19:14Z</time>
      </trkpt>
      <trkpt lat="43.01507" lon="0.31259">
        <ele>870.4</ele>
        <time>2026-07-08T07:19:15Z</time>
      </trkpt>
      <trkpt lat="43.01507" lon="0.31258">
        <ele>870.4</ele>
        <time>2026-07-08T07:19:16Z</time>
      </trkpt>
      <trkpt lat="43.01507" lon="0.31257">
        <ele>870.4</ele>
        <time>2026-07-08T07:19:16Z</time>
      </trkpt>
      <trkpt lat="43.01507" lon="0.31256">
        <ele>870.4</ele>
        <time>2026-07-08T07:19:17Z</time>
      </trkpt>
      <trkpt lat="43.01507" lon="0.31256">
        <ele>870.4</ele>
        <time>2026-07-08T07:19:17Z</time>
      </trkpt>
      <trkpt lat="43.01506" lon="0.31255">
        <ele>871.4</ele>
        <time>2026-07-08T07:19:18Z</time>
      </trkpt>
      <trkpt lat="43.01506" lon="0.31254">
        <ele>871.4</ele>
        <time>2026-07-08T07:19:19Z</time>
      </trkpt>
      <trkpt lat="43.01506" lon="0.31253">
        <ele>871.4</ele>
        <time>2026-07-08T07:19:19Z</time>
      </trkpt>
      <trkpt lat="43.01506" lon="0.31252">
        <ele>871.4</ele>
        <time>2026-07-08T07:19:20Z</time>
      </trkpt>
      <trkpt lat="43.01506" lon="0.3125">
        <ele>871.4</ele>
        <time>2026-07-08T07:19:21Z</time>
      </trkpt>
      <trkpt lat="43.01506" lon="0.3125">
        <ele>872.4</ele>
        <time>2026-07-08T07:19:21Z</time>
      </trkpt>
      <trkpt lat="43.01506" lon="0.31249">
        <ele>872.4</ele>
        <time>2026-07-08T07:19:22Z</time>
      </trkpt>
      <trkpt lat="43.01506" lon="0.31248">
        <ele>872.4</ele>
        <time>2026-07-08T07:19:23Z</time>
      </trkpt>
      <trkpt lat="43.01505" lon="0.31247">
        <ele>872.4</ele>
        <time>2026-07-08T07:19:23Z</time>
      </trkpt>
      <trkpt lat="43.01505" lon="0.31247">
        <ele>872.4</ele>
        <time>2026-07-08T07:19:24Z</time>
      </trkpt>
      <trkpt lat="43.01505" lon="0.31246">
        <ele>872.4</ele>
        <time>2026-07-08T07:19:25Z</time>
      </trkpt>
      <trkpt lat="43.01504" lon="0.31245">
        <ele>872.4</ele>
        <time>2026-07-08T07:19:25Z</time>
      </trkpt>
      <trkpt lat="43.01504" lon="0.31245">
        <ele>872.4</ele>
        <time>2026-07-08T07:19:26Z</time>
      </trkpt>
      <trkpt lat="43.01503" lon="0.31244">
        <ele>873.4</ele>
        <time>2026-07-08T07:19:26Z</time>
      </trkpt>
      <trkpt lat="43.01503" lon="0.31243">
        <ele>873.4</ele>
        <time>2026-07-08T07:19:27Z</time>
      </trkpt>
      <trkpt lat="43.01503" lon="0.31242">
        <ele>873.4</ele>
        <time>2026-07-08T07:19:28Z</time>
      </trkpt>
      <trkpt lat="43.01502" lon="0.31241">
        <ele>873.4</ele>
        <time>2026-07-08T07:19:29Z</time>
      </trkpt>
      <trkpt lat="43.01502" lon="0.31241">
        <ele>873.4</ele>
        <time>2026-07-08T07:19:29Z</time>
      </trkpt>
      <trkpt lat="43.01501" lon="0.3124">
        <ele>873.4</ele>
        <time>2026-07-08T07:19:30Z</time>
      </trkpt>
      <trkpt lat="43.01501" lon="0.31239">
        <ele>873.4</ele>
        <time>2026-07-08T07:19:31Z</time>
      </trkpt>
      <trkpt lat="43.01501" lon="0.31238">
        <ele>873.4</ele>
        <time>2026-07-08T07:19:31Z</time>
      </trkpt>
      <trkpt lat="43.01501" lon="0.31237">
        <ele>873.4</ele>
        <time>2026-07-08T07:19:32Z</time>
      </trkpt>
      <trkpt lat="43.015" lon="0.31236">
        <ele>872.4</ele>
        <time>2026-07-08T07:19:33Z</time>
      </trkpt>
      <trkpt lat="43.015" lon="0.31236">
        <ele>872.4</ele>
        <time>2026-07-08T07:19:33Z</time>
      </trkpt>
      <trkpt lat="43.015" lon="0.31235">
        <ele>872.4</ele>
        <time>2026-07-08T07:19:34Z</time>
      </trkpt>
      <trkpt lat="43.015" lon="0.31234">
        <ele>872.4</ele>
        <time>2026-07-08T07:19:35Z</time>
      </trkpt>
      <trkpt lat="43.01499" lon="0.31233">
        <ele>872.4</ele>
        <time>2026-07-08T07:19:35Z</time>
      </trkpt>
      <trkpt lat="43.01499" lon="0.31233">
        <ele>872.4</ele>
        <time>2026-07-08T07:19:36Z</time>
      </trkpt>
      <trkpt lat="43.01499" lon="0.31232">
        <ele>872.4</ele>
        <time>2026-07-08T07:19:37Z</time>
      </trkpt>
      <trkpt lat="43.01499" lon="0.31231">
        <ele>872.4</ele>
        <time>2026-07-08T07:19:37Z</time>
      </trkpt>
      <trkpt lat="43.01498" lon="0.3123">
        <ele>872.4</ele>
        <time>2026-07-08T07:19:38Z</time>
      </trkpt>
      <trkpt lat="43.01499" lon="0.31229">
        <ele>872.4</ele>
        <time>2026-07-08T07:19:39Z</time>
      </trkpt>
      <trkpt lat="43.01499" lon="0.31228">
        <ele>873.4</ele>
        <time>2026-07-08T07:19:39Z</time>
      </trkpt>
      <trkpt lat="43.01499" lon="0.31227">
        <ele>873.4</ele>
        <time>2026-07-08T07:19:40Z</time>
      </trkpt>
      <trkpt lat="43.01499" lon="0.31226">
        <ele>873.4</ele>
        <time>2026-07-08T07:19:41Z</time>
      </trkpt>
      <trkpt lat="43.01499" lon="0.31225">
        <ele>873.4</ele>
        <time>2026-07-08T07:19:42Z</time>
      </trkpt>
      <trkpt lat="43.01499" lon="0.31225">
        <ele>873.4</ele>
        <time>2026-07-08T07:19:42Z</time>
      </trkpt>
      <trkpt lat="43.01499" lon="0.31224">
        <ele>873.4</ele>
        <time>2026-07-08T07:19:43Z</time>
      </trkpt>
      <trkpt lat="43.01499" lon="0.31223">
        <ele>873.4</ele>
        <time>2026-07-08T07:19:44Z</time>
      </trkpt>
      <trkpt lat="43.01499" lon="0.31222">
        <ele>873.4</ele>
        <time>2026-07-08T07:19:45Z</time>
      </trkpt>
      <trkpt lat="43.015" lon="0.31222">
        <ele>873.4</ele>
        <time>2026-07-08T07:19:45Z</time>
      </trkpt>
      <trkpt lat="43.015" lon="0.31221">
        <ele>873.4</ele>
        <time>2026-07-08T07:19:46Z</time>
      </trkpt>
      <trkpt lat="43.01501" lon="0.3122">
        <ele>873.4</ele>
        <time>2026-07-08T07:19:47Z</time>
      </trkpt>
      <trkpt lat="43.01501" lon="0.3122">
        <ele>873.4</ele>
        <time>2026-07-08T07:19:48Z</time>
      </trkpt>
      <trkpt lat="43.01502" lon="0.31219">
        <ele>872.4</ele>
        <time>2026-07-08T07:19:49Z</time>
      </trkpt>
      <trkpt lat="43.01502" lon="0.31218">
        <ele>872.4</ele>
        <time>2026-07-08T07:19:50Z</time>
      </trkpt>
      <trkpt lat="43.01502" lon="0.31217">
        <ele>872.4</ele>
        <time>2026-07-08T07:19:50Z</time>
      </trkpt>
      <trkpt lat="43.01502" lon="0.31216">
        <ele>872.4</ele>
        <time>2026-07-08T07:19:51Z</time>
      </trkpt>
      <trkpt lat="43.01502" lon="0.31215">
        <ele>872.4</ele>
        <time>2026-07-08T07:19:52Z</time>
      </trkpt>
      <trkpt lat="43.01502" lon="0.31214">
        <ele>872.4</ele>
        <time>2026-07-08T07:19:53Z</time>
      </trkpt>
      <trkpt lat="43.01502" lon="0.31213">
        <ele>872.4</ele>
        <time>2026-07-08T07:19:54Z</time>
      </trkpt>
      <trkpt lat="43.01502" lon="0.31213">
        <ele>872.4</ele>
        <time>2026-07-08T07:19:54Z</time>
      </trkpt>
      <trkpt lat="43.01501" lon="0.31212">
        <ele>872.4</ele>
        <time>2026-07-08T07:19:55Z</time>
      </trkpt>
      <trkpt lat="43.01501" lon="0.31211">
        <ele>872.4</ele>
        <time>2026-07-08T07:19:56Z</time>
      </trkpt>
      <trkpt lat="43.015" lon="0.3121">
        <ele>872.4</ele>
        <time>2026-07-08T07:19:56Z</time>
      </trkpt>
      <trkpt lat="43.015" lon="0.3121">
        <ele>872.4</ele>
        <time>2026-07-08T07:19:57Z</time>
      </trkpt>
      <trkpt lat="43.01499" lon="0.31209">
        <ele>872.4</ele>
        <time>2026-07-08T07:19:58Z</time>
      </trkpt>
      <trkpt lat="43.01499" lon="0.31208">
        <ele>872.4</ele>
        <time>2026-07-08T07:19:59Z</time>
      </trkpt>
      <trkpt lat="43.01498" lon="0.31207">
        <ele>872.4</ele>
        <time>2026-07-08T07:19:59Z</time>
      </trkpt>
      <trkpt lat="43.01498" lon="0.31206">
        <ele>872.4</ele>
        <time>2026-07-08T07:20:00Z</time>
      </trkpt>
      <trkpt lat="43.01497" lon="0.31206">
        <ele>872.4</ele>
        <time>2026-07-08T07:20:01Z</time>
      </trkpt>
      <trkpt lat="43.01497" lon="0.31205">
        <ele>871.4</ele>
        <time>2026-07-08T07:20:02Z</time>
      </trkpt>
      <trkpt lat="43.01496" lon="0.31204">
        <ele>872.4</ele>
        <time>2026-07-08T07:20:03Z</time>
      </trkpt>
      <trkpt lat="43.01496" lon="0.31203">
        <ele>871.4</ele>
        <time>2026-07-08T07:20:03Z</time>
      </trkpt>
      <trkpt lat="43.01496" lon="0.31202">
        <ele>871.4</ele>
        <time>2026-07-08T07:20:04Z</time>
      </trkpt>
      <trkpt lat="43.01496" lon="0.31201">
        <ele>871.4</ele>
        <time>2026-07-08T07:20:05Z</time>
      </trkpt>
      <trkpt lat="43.01495" lon="0.31201">
        <ele>871.4</ele>
        <time>2026-07-08T07:20:06Z</time>
      </trkpt>
      <trkpt lat="43.01495" lon="0.312">
        <ele>871.4</ele>
        <time>2026-07-08T07:20:06Z</time>
      </trkpt>
      <trkpt lat="43.01494" lon="0.312">
        <ele>872.4</ele>
        <time>2026-07-08T07:20:07Z</time>
      </trkpt>
      <trkpt lat="43.01494" lon="0.31199">
        <ele>872.4</ele>
        <time>2026-07-08T07:20:08Z</time>
      </trkpt>
      <trkpt lat="43.01493" lon="0.31198">
        <ele>872.4</ele>
        <time>2026-07-08T07:20:09Z</time>
      </trkpt>
      <trkpt lat="43.01493" lon="0.31198">
        <ele>871.4</ele>
        <time>2026-07-08T07:20:10Z</time>
      </trkpt>
      <trkpt lat="43.01492" lon="0.31197">
        <ele>872.4</ele>
        <time>2026-07-08T07:20:11Z</time>
      </trkpt>
      <trkpt lat="43.01492" lon="0.31197">
        <ele>872.4</ele>
        <time>2026-07-08T07:20:11Z</time>
      </trkpt>
      <trkpt lat="43.01491" lon="0.31196">
        <ele>872.4</ele>
        <time>2026-07-08T07:20:12Z</time>
      </trkpt>
      <trkpt lat="43.01491" lon="0.31196">
        <ele>872.4</ele>
        <time>2026-07-08T07:20:13Z</time>
      </trkpt>
      <trkpt lat="43.0149" lon="0.31196">
        <ele>871.4</ele>
        <time>2026-07-08T07:20:14Z</time>
      </trkpt>
      <trkpt lat="43.01489" lon="0.31197">
        <ele>871.4</ele>
        <time>2026-07-08T07:20:15Z</time>
      </trkpt>
      <trkpt lat="43.01488" lon="0.31197">
        <ele>870.4</ele>
        <time>2026-07-08T07:20:16Z</time>
      </trkpt>
      <trkpt lat="43.01488" lon="0.31197">
        <ele>870.4</ele>
        <time>2026-07-08T07:20:16Z</time>
      </trkpt>
      <trkpt lat="43.01487" lon="0.31197">
        <ele>870.4</ele>
        <time>2026-07-08T07:20:17Z</time>
      </trkpt>
      <trkpt lat="43.01487" lon="0.31198">
        <ele>870.4</ele>
        <time>2026-07-08T07:20:17Z</time>
      </trkpt>
      <trkpt lat="43.01486" lon="0.31198">
        <ele>871.4</ele>
        <time>2026-07-08T07:20:18Z</time>
      </trkpt>
      <trkpt lat="43.01486" lon="0.31199">
        <ele>871.4</ele>
        <time>2026-07-08T07:20:19Z</time>
      </trkpt>
      <trkpt lat="43.01485" lon="0.31199">
        <ele>871.4</ele>
        <time>2026-07-08T07:20:20Z</time>
      </trkpt>
      <trkpt lat="43.01484" lon="0.31199">
        <ele>871.4</ele>
        <time>2026-07-08T07:20:20Z</time>
      </trkpt>
      <trkpt lat="43.01483" lon="0.312">
        <ele>871.4</ele>
        <time>2026-07-08T07:20:21Z</time>
      </trkpt>
      <trkpt lat="43.01483" lon="0.312">
        <ele>871.4</ele>
        <time>2026-07-08T07:20:22Z</time>
      </trkpt>
      <trkpt lat="43.01482" lon="0.312">
        <ele>871.4</ele>
        <time>2026-07-08T07:20:22Z</time>
      </trkpt>
      <trkpt lat="43.01481" lon="0.312">
        <ele>871.4</ele>
        <time>2026-07-08T07:20:23Z</time>
      </trkpt>
      <trkpt lat="43.0148" lon="0.312">
        <ele>871.4</ele>
        <time>2026-07-08T07:20:24Z</time>
      </trkpt>
      <trkpt lat="43.01479" lon="0.312">
        <ele>872.4</ele>
        <time>2026-07-08T07:20:25Z</time>
      </trkpt>
      <trkpt lat="43.01479" lon="0.312">
        <ele>871.4</ele>
        <time>2026-07-08T07:20:25Z</time>
      </trkpt>
      <trkpt lat="43.01478" lon="0.31201">
        <ele>871.4</ele>
        <time>2026-07-08T07:20:26Z</time>
      </trkpt>
      <trkpt lat="43.01477" lon="0.31201">
        <ele>872.4</ele>
        <time>2026-07-08T07:20:27Z</time>
      </trkpt>
      <trkpt lat="43.01477" lon="0.31201">
        <ele>872.4</ele>
        <time>2026-07-08T07:20:27Z</time>
      </trkpt>
      <trkpt lat="43.01476" lon="0.31201">
        <ele>872.4</ele>
        <time>2026-07-08T07:20:28Z</time>
      </trkpt>
      <trkpt lat="43.01475" lon="0.31201">
        <ele>872.4</ele>
        <time>2026-07-08T07:20:29Z</time>
      </trkpt>
      <trkpt lat="43.01474" lon="0.31201">
        <ele>873.4</ele>
        <time>2026-07-08T07:20:29Z</time>
      </trkpt>
      <trkpt lat="43.01474" lon="0.31201">
        <ele>872.4</ele>
        <time>2026-07-08T07:20:30Z</time>
      </trkpt>
      <trkpt lat="43.01473" lon="0.31201">
        <ele>872.4</ele>
        <time>2026-07-08T07:20:31Z</time>
      </trkpt>
      <trkpt lat="43.01472" lon="0.31201">
        <ele>872.4</ele>
        <time>2026-07-08T07:20:32Z</time>
      </trkpt>
      <trkpt lat="43.01472" lon="0.31201">
        <ele>872.4</ele>
        <time>2026-07-08T07:20:32Z</time>
      </trkpt>
      <trkpt lat="43.01471" lon="0.31201">
        <ele>872.4</ele>
        <time>2026-07-08T07:20:33Z</time>
      </trkpt>
      <trkpt lat="43.01471" lon="0.31202">
        <ele>872.4</ele>
        <time>2026-07-08T07:20:34Z</time>
      </trkpt>
      <trkpt lat="43.0147" lon="0.31202">
        <ele>872.4</ele>
        <time>2026-07-08T07:20:34Z</time>
      </trkpt>
      <trkpt lat="43.0147" lon="0.31202">
        <ele>872.4</ele>
        <time>2026-07-08T07:20:35Z</time>
      </trkpt>
      <trkpt lat="43.01469" lon="0.31202">
        <ele>872.4</ele>
        <time>2026-07-08T07:20:36Z</time>
      </trkpt>
      <trkpt lat="43.01468" lon="0.31202">
        <ele>872.4</ele>
        <time>2026-07-08T07:20:37Z</time>
      </trkpt>
      <trkpt lat="43.01468" lon="0.31202">
        <ele>872.4</ele>
        <time>2026-07-08T07:20:37Z</time>
      </trkpt>
      <trkpt lat="43.01467" lon="0.31202">
        <ele>872.4</ele>
        <time>2026-07-08T07:20:38Z</time>
      </trkpt>
      <trkpt lat="43.01466" lon="0.31202">
        <ele>871.4</ele>
        <time>2026-07-08T07:20:39Z</time>
      </trkpt>
      <trkpt lat="43.01466" lon="0.31202">
        <ele>872.4</ele>
        <time>2026-07-08T07:20:39Z</time>
      </trkpt>
      <trkpt lat="43.01465" lon="0.31202">
        <ele>872.4</ele>
        <time>2026-07-08T07:20:40Z</time>
      </trkpt>
      <trkpt lat="43.01465" lon="0.31202">
        <ele>872.4</ele>
        <time>2026-07-08T07:20:41Z</time>
      </trkpt>
      <trkpt lat="43.01464" lon="0.31202">
        <ele>872.4</ele>
        <time>2026-07-08T07:20:41Z</time>
      </trkpt>
      <trkpt lat="43.01463" lon="0.31202">
        <ele>872.4</ele>
        <time>2026-07-08T07:20:42Z</time>
      </trkpt>
      <trkpt lat="43.01463" lon="0.31202">
        <ele>871.4</ele>
        <time>2026-07-08T07:20:43Z</time>
      </trkpt>
      <trkpt lat="43.01462" lon="0.31202">
        <ele>871.4</ele>
        <time>2026-07-08T07:20:44Z</time>
      </trkpt>
      <trkpt lat="43.01461" lon="0.31202">
        <ele>871.4</ele>
        <time>2026-07-08T07:20:44Z</time>
      </trkpt>
      <trkpt lat="43.01461" lon="0.31202">
        <ele>871.4</ele>
        <time>2026-07-08T07:20:45Z</time>
      </trkpt>
      <trkpt lat="43.0146" lon="0.31201">
        <ele>871.4</ele>
        <time>2026-07-08T07:20:46Z</time>
      </trkpt>
      <trkpt lat="43.01459" lon="0.31201">
        <ele>871.4</ele>
        <time>2026-07-08T07:20:46Z</time>
      </trkpt>
      <trkpt lat="43.01459" lon="0.31201">
        <ele>871.4</ele>
        <time>2026-07-08T07:20:47Z</time>
      </trkpt>
      <trkpt lat="43.01458" lon="0.31201">
        <ele>871.4</ele>
        <time>2026-07-08T07:20:48Z</time>
      </trkpt>
      <trkpt lat="43.01457" lon="0.31201">
        <ele>871.4</ele>
        <time>2026-07-08T07:20:49Z</time>
      </trkpt>
      <trkpt lat="43.01457" lon="0.31201">
        <ele>871.4</ele>
        <time>2026-07-08T07:20:49Z</time>
      </trkpt>
      <trkpt lat="43.01456" lon="0.31201">
        <ele>871.4</ele>
        <time>2026-07-08T07:20:50Z</time>
      </trkpt>
      <trkpt lat="43.01455" lon="0.31201">
        <ele>871.4</ele>
        <time>2026-07-08T07:20:51Z</time>
      </trkpt>
      <trkpt lat="43.01455" lon="0.31201">
        <ele>871.4</ele>
        <time>2026-07-08T07:20:52Z</time>
      </trkpt>
      <trkpt lat="43.01454" lon="0.312">
        <ele>871.4</ele>
        <time>2026-07-08T07:20:52Z</time>
      </trkpt>
      <trkpt lat="43.01453" lon="0.312">
        <ele>871.4</ele>
        <time>2026-07-08T07:20:53Z</time>
      </trkpt>
      <trkpt lat="43.01453" lon="0.312">
        <ele>871.4</ele>
        <time>2026-07-08T07:20:54Z</time>
      </trkpt>
      <trkpt lat="43.01452" lon="0.312">
        <ele>872.4</ele>
        <time>2026-07-08T07:20:54Z</time>
      </trkpt>
      <trkpt lat="43.01452" lon="0.31199">
        <ele>872.4</ele>
        <time>2026-07-08T07:20:55Z</time>
      </trkpt>
      <trkpt lat="43.01451" lon="0.31199">
        <ele>872.4</ele>
        <time>2026-07-08T07:20:56Z</time>
      </trkpt>
      <trkpt lat="43.0145" lon="0.31199">
        <ele>872.4</ele>
        <time>2026-07-08T07:20:56Z</time>
      </trkpt>
      <trkpt lat="43.0145" lon="0.31199">
        <ele>872.4</ele>
        <time>2026-07-08T07:20:57Z</time>
      </trkpt>
      <trkpt lat="43.01449" lon="0.31199">
        <ele>872.4</ele>
        <time>2026-07-08T07:20:58Z</time>
      </trkpt>
      <trkpt lat="43.01448" lon="0.31199">
        <ele>872.4</ele>
        <time>2026-07-08T07:20:59Z</time>
      </trkpt>
      <trkpt lat="43.01448" lon="0.31199">
        <ele>872.4</ele>
        <time>2026-07-08T07:21:00Z</time>
      </trkpt>
      <trkpt lat="43.01447" lon="0.31198">
        <ele>872.4</ele>
        <time>2026-07-08T07:21:01Z</time>
      </trkpt>
      <trkpt lat="43.01447" lon="0.31198">
        <ele>872.4</ele>
        <time>2026-07-08T07:21:01Z</time>
      </trkpt>
      <trkpt lat="43.01446" lon="0.31198">
        <ele>872.4</ele>
        <time>2026-07-08T07:21:02Z</time>
      </trkpt>
      <trkpt lat="43.01446" lon="0.31197">
        <ele>872.4</ele>
        <time>2026-07-08T07:21:03Z</time>
      </trkpt>
      <trkpt lat="43.01445" lon="0.31197">
        <ele>871.4</ele>
        <time>2026-07-08T07:21:03Z</time>
      </trkpt>
      <trkpt lat="43.01445" lon="0.31196">
        <ele>871.4</ele>
        <time>2026-07-08T07:21:04Z</time>
      </trkpt>
      <trkpt lat="43.01444" lon="0.31196">
        <ele>871.4</ele>
        <time>2026-07-08T07:21:05Z</time>
      </trkpt>
      <trkpt lat="43.01444" lon="0.31196">
        <ele>871.4</ele>
        <time>2026-07-08T07:21:05Z</time>
      </trkpt>
      <trkpt lat="43.01443" lon="0.31196">
        <ele>871.4</ele>
        <time>2026-07-08T07:21:06Z</time>
      </trkpt>
      <trkpt lat="43.01442" lon="0.31196">
        <ele>870.4</ele>
        <time>2026-07-08T07:21:07Z</time>
      </trkpt>
      <trkpt lat="43.01442" lon="0.31196">
        <ele>870.4</ele>
        <time>2026-07-08T07:21:07Z</time>
      </trkpt>
      <trkpt lat="43.01441" lon="0.31196">
        <ele>870.4</ele>
        <time>2026-07-08T07:21:08Z</time>
      </trkpt>
      <trkpt lat="43.0144" lon="0.31196">
        <ele>870.4</ele>
        <time>2026-07-08T07:21:08Z</time>
      </trkpt>
      <trkpt lat="43.0144" lon="0.31195">
        <ele>870.4</ele>
        <time>2026-07-08T07:21:09Z</time>
      </trkpt>
      <trkpt lat="43.01439" lon="0.31195">
        <ele>870.4</ele>
        <time>2026-07-08T07:21:10Z</time>
      </trkpt>
      <trkpt lat="43.01438" lon="0.31194">
        <ele>869.4</ele>
        <time>2026-07-08T07:21:11Z</time>
      </trkpt>
      <trkpt lat="43.01438" lon="0.31194">
        <ele>869.4</ele>
        <time>2026-07-08T07:21:12Z</time>
      </trkpt>
      <trkpt lat="43.01437" lon="0.31194">
        <ele>869.4</ele>
        <time>2026-07-08T07:21:12Z</time>
      </trkpt>
      <trkpt lat="43.01437" lon="0.31194">
        <ele>869.4</ele>
        <time>2026-07-08T07:21:13Z</time>
      </trkpt>
      <trkpt lat="43.01436" lon="0.31195">
        <ele>868.4</ele>
        <time>2026-07-08T07:21:14Z</time>
      </trkpt>
      <trkpt lat="43.01436" lon="0.31195">
        <ele>870.4</ele>
        <time>2026-07-08T07:21:14Z</time>
      </trkpt>
      <trkpt lat="43.01436" lon="0.31196">
        <ele>870.4</ele>
        <time>2026-07-08T07:21:15Z</time>
      </trkpt>
      <trkpt lat="43.01436" lon="0.31196">
        <ele>870.4</ele>
        <time>2026-07-08T07:21:15Z</time>
      </trkpt>
      <trkpt lat="43.01435" lon="0.31197">
        <ele>870.4</ele>
        <time>2026-07-08T07:21:16Z</time>
      </trkpt>
      <trkpt lat="43.01435" lon="0.31197">
        <ele>870.4</ele>
        <time>2026-07-08T07:21:16Z</time>
      </trkpt>
      <trkpt lat="43.01435" lon="0.31198">
        <ele>870.4</ele>
        <time>2026-07-08T07:21:17Z</time>
      </trkpt>
      <trkpt lat="43.01434" lon="0.31198">
        <ele>869.4</ele>
        <time>2026-07-08T07:21:18Z</time>
      </trkpt>
      <trkpt lat="43.01433" lon="0.31199">
        <ele>869.4</ele>
        <time>2026-07-08T07:21:19Z</time>
      </trkpt>
      <trkpt lat="43.01433" lon="0.31199">
        <ele>869.4</ele>
        <time>2026-07-08T07:21:19Z</time>
      </trkpt>
      <trkpt lat="43.01432" lon="0.312">
        <ele>869.4</ele>
        <time>2026-07-08T07:21:20Z</time>
      </trkpt>
      <trkpt lat="43.01431" lon="0.312">
        <ele>869.4</ele>
        <time>2026-07-08T07:21:21Z</time>
      </trkpt>
      <trkpt lat="43.0143" lon="0.312">
        <ele>869.4</ele>
        <time>2026-07-08T07:21:21Z</time>
      </trkpt>
      <trkpt lat="43.0143" lon="0.312">
        <ele>869.4</ele>
        <time>2026-07-08T07:21:22Z</time>
      </trkpt>
      <trkpt lat="43.01429" lon="0.31201">
        <ele>868.4</ele>
        <time>2026-07-08T07:21:23Z</time>
      </trkpt>
      <trkpt lat="43.01429" lon="0.31201">
        <ele>869.4</ele>
        <time>2026-07-08T07:21:23Z</time>
      </trkpt>
      <trkpt lat="43.01429" lon="0.31202">
        <ele>869.4</ele>
        <time>2026-07-08T07:21:24Z</time>
      </trkpt>
      <trkpt lat="43.01428" lon="0.31202">
        <ele>869.4</ele>
        <time>2026-07-08T07:21:24Z</time>
      </trkpt>
      <trkpt lat="43.01428" lon="0.31202">
        <ele>869.4</ele>
        <time>2026-07-08T07:21:25Z</time>
      </trkpt>
      <trkpt lat="43.01427" lon="0.31202">
        <ele>869.4</ele>
        <time>2026-07-08T07:21:26Z</time>
      </trkpt>
      <trkpt lat="43.01427" lon="0.31203">
        <ele>870.4</ele>
        <time>2026-07-08T07:21:26Z</time>
      </trkpt>
      <trkpt lat="43.01426" lon="0.31203">
        <ele>870.4</ele>
        <time>2026-07-08T07:21:27Z</time>
      </trkpt>
      <trkpt lat="43.01426" lon="0.31203">
        <ele>871.4</ele>
        <time>2026-07-08T07:21:28Z</time>
      </trkpt>
      <trkpt lat="43.01425" lon="0.31204">
        <ele>871.4</ele>
        <time>2026-07-08T07:21:28Z</time>
      </trkpt>
      <trkpt lat="43.01425" lon="0.31204">
        <ele>872.4</ele>
        <time>2026-07-08T07:21:29Z</time>
      </trkpt>
      <trkpt lat="43.01424" lon="0.31205">
        <ele>872.4</ele>
        <time>2026-07-08T07:21:30Z</time>
      </trkpt>
      <trkpt lat="43.01424" lon="0.31205">
        <ele>872.4</ele>
        <time>2026-07-08T07:21:31Z</time>
      </trkpt>
      <trkpt lat="43.01423" lon="0.31205">
        <ele>872.4</ele>
        <time>2026-07-08T07:21:31Z</time>
      </trkpt>
      <trkpt lat="43.01422" lon="0.31205">
        <ele>872.4</ele>
        <time>2026-07-08T07:21:32Z</time>
      </trkpt>
      <trkpt lat="43.01422" lon="0.31206">
        <ele>872.4</ele>
        <time>2026-07-08T07:21:33Z</time>
      </trkpt>
      <trkpt lat="43.01422" lon="0.31206">
        <ele>871.4</ele>
        <time>2026-07-08T07:21:33Z</time>
      </trkpt>
      <trkpt lat="43.01421" lon="0.31206">
        <ele>871.4</ele>
        <time>2026-07-08T07:21:34Z</time>
      </trkpt>
      <trkpt lat="43.0142" lon="0.31207">
        <ele>870.4</ele>
        <time>2026-07-08T07:21:35Z</time>
      </trkpt>
      <trkpt lat="43.0142" lon="0.31207">
        <ele>870.4</ele>
        <time>2026-07-08T07:21:35Z</time>
      </trkpt>
      <trkpt lat="43.01419" lon="0.31207">
        <ele>870.4</ele>
        <time>2026-07-08T07:21:36Z</time>
      </trkpt>
      <trkpt lat="43.01419" lon="0.31208">
        <ele>870.4</ele>
        <time>2026-07-08T07:21:37Z</time>
      </trkpt>
      <trkpt lat="43.01418" lon="0.31208">
        <ele>870.4</ele>
        <time>2026-07-08T07:21:38Z</time>
      </trkpt>
      <trkpt lat="43.01418" lon="0.31208">
        <ele>870.4</ele>
        <time>2026-07-08T07:21:38Z</time>
      </trkpt>
      <trkpt lat="43.01418" lon="0.31208">
        <ele>870.4</ele>
        <time>2026-07-08T07:21:39Z</time>
      </trkpt>
      <trkpt lat="43.01417" lon="0.31208">
        <ele>870.4</ele>
        <time>2026-07-08T07:21:40Z</time>
      </trkpt>
      <trkpt lat="43.01416" lon="0.31208">
        <ele>870.4</ele>
        <time>2026-07-08T07:21:41Z</time>
      </trkpt>
      <trkpt lat="43.01416" lon="0.31208">
        <ele>871.4</ele>
        <time>2026-07-08T07:21:41Z</time>
      </trkpt>
      <trkpt lat="43.01415" lon="0.31208">
        <ele>872.4</ele>
        <time>2026-07-08T07:21:42Z</time>
      </trkpt>
      <trkpt lat="43.01415" lon="0.31208">
        <ele>872.4</ele>
        <time>2026-07-08T07:21:43Z</time>
      </trkpt>
      <trkpt lat="43.01414" lon="0.31208">
        <ele>872.4</ele>
        <time>2026-07-08T07:21:44Z</time>
      </trkpt>
      <trkpt lat="43.01414" lon="0.31208">
        <ele>872.4</ele>
        <time>2026-07-08T07:21:45Z</time>
      </trkpt>
      <trkpt lat="43.01413" lon="0.31208">
        <ele>871.4</ele>
        <time>2026-07-08T07:21:46Z</time>
      </trkpt>
      <trkpt lat="43.01413" lon="0.31208">
        <ele>871.4</ele>
        <time>2026-07-08T07:21:46Z</time>
      </trkpt>
      <trkpt lat="43.01412" lon="0.31208">
        <ele>871.4</ele>
        <time>2026-07-08T07:21:47Z</time>
      </trkpt>
      <trkpt lat="43.01412" lon="0.31208">
        <ele>871.4</ele>
        <time>2026-07-08T07:21:48Z</time>
      </trkpt>
      <trkpt lat="43.01411" lon="0.31209">
        <ele>871.4</ele>
        <time>2026-07-08T07:21:49Z</time>
      </trkpt>
      <trkpt lat="43.01411" lon="0.31209">
        <ele>871.4</ele>
        <time>2026-07-08T07:21:49Z</time>
      </trkpt>
      <trkpt lat="43.01411" lon="0.31209">
        <ele>872.4</ele>
        <time>2026-07-08T07:21:50Z</time>
      </trkpt>
      <trkpt lat="43.01411" lon="0.31209">
        <ele>873.4</ele>
        <time>2026-07-08T07:21:51Z</time>
      </trkpt>
      <trkpt lat="43.01411" lon="0.3121">
        <ele>873.4</ele>
        <time>2026-07-08T07:21:52Z</time>
      </trkpt>
      <trkpt lat="43.0141" lon="0.3121">
        <ele>873.4</ele>
        <time>2026-07-08T07:21:53Z</time>
      </trkpt>
      <trkpt lat="43.0141" lon="0.3121">
        <ele>874.4</ele>
        <time>2026-07-08T07:21:53Z</time>
      </trkpt>
      <trkpt lat="43.0141" lon="0.31211">
        <ele>873.4</ele>
        <time>2026-07-08T07:21:54Z</time>
      </trkpt>
      <trkpt lat="43.0141" lon="0.31211">
        <ele>873.4</ele>
        <time>2026-07-08T07:21:55Z</time>
      </trkpt>
      <trkpt lat="43.01409" lon="0.31211">
        <ele>873.4</ele>
        <time>2026-07-08T07:21:56Z</time>
      </trkpt>
      <trkpt lat="43.01409" lon="0.3121">
        <ele>873.4</ele>
        <time>2026-07-08T07:21:56Z</time>
      </trkpt>
      <trkpt lat="43.01409" lon="0.3121">
        <ele>872.4</ele>
        <time>2026-07-08T07:21:57Z</time>
      </trkpt>
      <trkpt lat="43.01409" lon="0.31209">
        <ele>872.4</ele>
        <time>2026-07-08T07:21:58Z</time>
      </trkpt>
      <trkpt lat="43.01409" lon="0.31208">
        <ele>872.4</ele>
        <time>2026-07-08T07:21:59Z</time>
      </trkpt>
      <trkpt lat="43.01409" lon="0.31207">
        <ele>871.4</ele>
        <time>2026-07-08T07:22:00Z</time>
      </trkpt>
      <trkpt lat="43.0141" lon="0.31206">
        <ele>871.4</ele>
        <time>2026-07-08T07:22:00Z</time>
      </trkpt>
      <trkpt lat="43.0141" lon="0.31205">
        <ele>872.4</ele>
        <time>2026-07-08T07:22:01Z</time>
      </trkpt>
      <trkpt lat="43.01409" lon="0.31205">
        <ele>872.4</ele>
        <time>2026-07-08T07:22:02Z</time>
      </trkpt>
      <trkpt lat="43.01409" lon="0.31205">
        <ele>872.4</ele>
        <time>2026-07-08T07:22:03Z</time>
      </trkpt>
      <trkpt lat="43.01409" lon="0.31205">
        <ele>872.4</ele>
        <time>2026-07-08T07:22:04Z</time>
      </trkpt>
      <trkpt lat="43.01408" lon="0.31205">
        <ele>871.4</ele>
        <time>2026-07-08T07:22:05Z</time>
      </trkpt>
      <trkpt lat="43.01408" lon="0.31205">
        <ele>871.4</ele>
        <time>2026-07-08T07:22:05Z</time>
      </trkpt>
      <trkpt lat="43.01407" lon="0.31205">
        <ele>871.4</ele>
        <time>2026-07-08T07:22:06Z</time>
      </trkpt>
      <trkpt lat="43.01407" lon="0.31205">
        <ele>871.4</ele>
        <time>2026-07-08T07:22:07Z</time>
      </trkpt>
      <trkpt lat="43.01406" lon="0.31205">
        <ele>871.4</ele>
        <time>2026-07-08T07:22:08Z</time>
      </trkpt>
      <trkpt lat="43.01406" lon="0.31206">
        <ele>871.4</ele>
        <time>2026-07-08T07:22:09Z</time>
      </trkpt>
      <trkpt lat="43.01405" lon="0.31205">
        <ele>871.4</ele>
        <time>2026-07-08T07:22:09Z</time>
      </trkpt>
      <trkpt lat="43.01405" lon="0.31205">
        <ele>871.4</ele>
        <time>2026-07-08T07:22:10Z</time>
      </trkpt>
      <trkpt lat="43.01404" lon="0.31204">
        <ele>871.4</ele>
        <time>2026-07-08T07:22:11Z</time>
      </trkpt>
      <trkpt lat="43.01404" lon="0.31203">
        <ele>871.4</ele>
        <time>2026-07-08T07:22:12Z</time>
      </trkpt>
      <trkpt lat="43.01404" lon="0.31202">
        <ele>870.4</ele>
        <time>2026-07-08T07:22:12Z</time>
      </trkpt>
      <trkpt lat="43.01404" lon="0.31201">
        <ele>870.4</ele>
        <time>2026-07-08T07:22:13Z</time>
      </trkpt>
      <trkpt lat="43.01404" lon="0.312">
        <ele>870.4</ele>
        <time>2026-07-08T07:22:14Z</time>
      </trkpt>
      <trkpt lat="43.01403" lon="0.31199">
        <ele>869.4</ele>
        <time>2026-07-08T07:22:15Z</time>
      </trkpt>
      <trkpt lat="43.01403" lon="0.31199">
        <ele>869.4</ele>
        <time>2026-07-08T07:22:16Z</time>
      </trkpt>
      <trkpt lat="43.01403" lon="0.31198">
        <ele>869.4</ele>
        <time>2026-07-08T07:22:16Z</time>
      </trkpt>
      <trkpt lat="43.01403" lon="0.31197">
        <ele>869.4</ele>
        <time>2026-07-08T07:22:17Z</time>
      </trkpt>
      <trkpt lat="43.01402" lon="0.31195">
        <ele>869.4</ele>
        <time>2026-07-08T07:22:18Z</time>
      </trkpt>
      <trkpt lat="43.01402" lon="0.31195">
        <ele>870.4</ele>
        <time>2026-07-08T07:22:19Z</time>
      </trkpt>
      <trkpt lat="43.01401" lon="0.31194">
        <ele>870.4</ele>
        <time>2026-07-08T07:22:20Z</time>
      </trkpt>
      <trkpt lat="43.01401" lon="0.31194">
        <ele>870.4</ele>
        <time>2026-07-08T07:22:21Z</time>
      </trkpt>
      <trkpt lat="43.01401" lon="0.31194">
        <ele>870.4</ele>
        <time>2026-07-08T07:22:21Z</time>
      </trkpt>
      <trkpt lat="43.014" lon="0.31194">
        <ele>870.4</ele>
        <time>2026-07-08T07:22:22Z</time>
      </trkpt>
      <trkpt lat="43.01399" lon="0.31195">
        <ele>870.4</ele>
        <time>2026-07-08T07:22:23Z</time>
      </trkpt>
      <trkpt lat="43.01399" lon="0.31195">
        <ele>870.4</ele>
        <time>2026-07-08T07:22:24Z</time>
      </trkpt>
      <trkpt lat="43.01398" lon="0.31195">
        <ele>870.4</ele>
        <time>2026-07-08T07:22:25Z</time>
      </trkpt>
      <trkpt lat="43.01398" lon="0.31196">
        <ele>871.4</ele>
        <time>2026-07-08T07:22:25Z</time>
      </trkpt>
      <trkpt lat="43.01397" lon="0.31196">
        <ele>871.4</ele>
        <time>2026-07-08T07:22:26Z</time>
      </trkpt>
      <trkpt lat="43.01397" lon="0.31196">
        <ele>871.4</ele>
        <time>2026-07-08T07:22:27Z</time>
      </trkpt>
      <trkpt lat="43.01396" lon="0.31196">
        <ele>871.4</ele>
        <time>2026-07-08T07:22:28Z</time>
      </trkpt>
      <trkpt lat="43.01396" lon="0.31196">
        <ele>871.4</ele>
        <time>2026-07-08T07:22:29Z</time>
      </trkpt>
      <trkpt lat="43.01396" lon="0.31196">
        <ele>872.4</ele>
        <time>2026-07-08T07:22:29Z</time>
      </trkpt>
      <trkpt lat="43.01395" lon="0.31196">
        <ele>872.4</ele>
        <time>2026-07-08T07:22:30Z</time>
      </trkpt>
      <trkpt lat="43.01394" lon="0.31196">
        <ele>873.4</ele>
        <time>2026-07-08T07:22:31Z</time>
      </trkpt>
      <trkpt lat="43.01394" lon="0.31195">
        <ele>874.4</ele>
        <time>2026-07-08T07:22:31Z</time>
      </trkpt>
      <trkpt lat="43.01393" lon="0.31195">
        <ele>874.4</ele>
        <time>2026-07-08T07:22:32Z</time>
      </trkpt>
      <trkpt lat="43.01393" lon="0.31194">
        <ele>874.4</ele>
        <time>2026-07-08T07:22:33Z</time>
      </trkpt>
      <trkpt lat="43.01392" lon="0.31194">
        <ele>874.4</ele>
        <time>2026-07-08T07:22:34Z</time>
      </trkpt>
      <trkpt lat="43.01391" lon="0.31193">
        <ele>874.4</ele>
        <time>2026-07-08T07:22:35Z</time>
      </trkpt>
      <trkpt lat="43.01391" lon="0.31192">
        <ele>874.4</ele>
        <time>2026-07-08T07:22:36Z</time>
      </trkpt>
      <trkpt lat="43.0139" lon="0.31192">
        <ele>875.4</ele>
        <time>2026-07-08T07:22:36Z</time>
      </trkpt>
      <trkpt lat="43.0139" lon="0.31192">
        <ele>875.4</ele>
        <time>2026-07-08T07:22:37Z</time>
      </trkpt>
      <trkpt lat="43.0139" lon="0.31191">
        <ele>876.4</ele>
        <time>2026-07-08T07:22:38Z</time>
      </trkpt>
      <trkpt lat="43.01389" lon="0.3119">
        <ele>876.4</ele>
        <time>2026-07-08T07:22:39Z</time>
      </trkpt>
      <trkpt lat="43.01389" lon="0.3119">
        <ele>876.4</ele>
        <time>2026-07-08T07:22:40Z</time>
      </trkpt>
      <trkpt lat="43.01388" lon="0.3119">
        <ele>876.4</ele>
        <time>2026-07-08T07:22:40Z</time>
      </trkpt>
      <trkpt lat="43.01388" lon="0.31189">
        <ele>877.4</ele>
        <time>2026-07-08T07:22:41Z</time>
      </trkpt>
      <trkpt lat="43.01387" lon="0.31189">
        <ele>877.4</ele>
        <time>2026-07-08T07:22:42Z</time>
      </trkpt>
      <trkpt lat="43.01386" lon="0.31189">
        <ele>878.4</ele>
        <time>2026-07-08T07:22:43Z</time>
      </trkpt>
      <trkpt lat="43.01386" lon="0.31189">
        <ele>878.4</ele>
        <time>2026-07-08T07:22:44Z</time>
      </trkpt>
      <trkpt lat="43.01386" lon="0.31189">
        <ele>880.4</ele>
        <time>2026-07-08T07:22:45Z</time>
      </trkpt>
      <trkpt lat="43.01385" lon="0.31189">
        <ele>880.4</ele>
        <time>2026-07-08T07:22:46Z</time>
      </trkpt>
      <trkpt lat="43.01385" lon="0.31189">
        <ele>879.4</ele>
        <time>2026-07-08T07:22:46Z</time>
      </trkpt>
      <trkpt lat="43.01385" lon="0.31189">
        <ele>879.4</ele>
        <time>2026-07-08T07:22:47Z</time>
      </trkpt>
      <trkpt lat="43.01384" lon="0.31189">
        <ele>879.4</ele>
        <time>2026-07-08T07:22:48Z</time>
      </trkpt>
      <trkpt lat="43.01384" lon="0.3119">
        <ele>879.4</ele>
        <time>2026-07-08T07:22:49Z</time>
      </trkpt>
      <trkpt lat="43.01384" lon="0.3119">
        <ele>880.4</ele>
        <time>2026-07-08T07:22:50Z</time>
      </trkpt>
      <trkpt lat="43.01383" lon="0.31189">
        <ele>881.4</ele>
        <time>2026-07-08T07:22:50Z</time>
      </trkpt>
      <trkpt lat="43.01383" lon="0.31189">
        <ele>881.4</ele>
        <time>2026-07-08T07:22:51Z</time>
      </trkpt>
      <trkpt lat="43.01382" lon="0.31188">
        <ele>881.4</ele>
        <time>2026-07-08T07:22:52Z</time>
      </trkpt>
      <trkpt lat="43.01382" lon="0.31187">
        <ele>880.4</ele>
        <time>2026-07-08T07:22:53Z</time>
      </trkpt>
      <trkpt lat="43.01382" lon="0.31187">
        <ele>881.4</ele>
        <time>2026-07-08T07:22:54Z</time>
      </trkpt>
      <trkpt lat="43.01382" lon="0.31186">
        <ele>881.4</ele>
        <time>2026-07-08T07:22:54Z</time>
      </trkpt>
      <trkpt lat="43.01381" lon="0.31185">
        <ele>881.4</ele>
        <time>2026-07-08T07:22:55Z</time>
      </trkpt>
      <trkpt lat="43.0138" lon="0.31184">
        <ele>881.4</ele>
        <time>2026-07-08T07:22:56Z</time>
      </trkpt>
      <trkpt lat="43.0138" lon="0.31183">
        <ele>881.4</ele>
        <time>2026-07-08T07:22:57Z</time>
      </trkpt>
      <trkpt lat="43.0138" lon="0.31182">
        <ele>881.4</ele>
        <time>2026-07-08T07:22:58Z</time>
      </trkpt>
      <trkpt lat="43.0138" lon="0.31181">
        <ele>882.4</ele>
        <time>2026-07-08T07:22:59Z</time>
      </trkpt>
      <trkpt lat="43.0138" lon="0.31181">
        <ele>882.4</ele>
        <time>2026-07-08T07:23:00Z</time>
      </trkpt>
      <trkpt lat="43.0138" lon="0.31181">
        <ele>882.4</ele>
        <time>2026-07-08T07:23:00Z</time>
      </trkpt>
      <trkpt lat="43.01379" lon="0.3118">
        <ele>883.4</ele>
        <time>2026-07-08T07:23:01Z</time>
      </trkpt>
      <trkpt lat="43.01379" lon="0.31179">
        <ele>883.4</ele>
        <time>2026-07-08T07:23:02Z</time>
      </trkpt>
      <trkpt lat="43.01378" lon="0.31179">
        <ele>883.4</ele>
        <time>2026-07-08T07:23:03Z</time>
      </trkpt>
      <trkpt lat="43.01378" lon="0.31178">
        <ele>883.4</ele>
        <time>2026-07-08T07:23:04Z</time>
      </trkpt>
      <trkpt lat="43.01378" lon="0.31178">
        <ele>883.4</ele>
        <time>2026-07-08T07:23:04Z</time>
      </trkpt>
      <trkpt lat="43.01378" lon="0.31177">
        <ele>883.4</ele>
        <time>2026-07-08T07:23:05Z</time>
      </trkpt>
      <trkpt lat="43.01377" lon="0.31176">
        <ele>883.4</ele>
        <time>2026-07-08T07:23:06Z</time>
      </trkpt>
      <trkpt lat="43.01377" lon="0.31175">
        <ele>883.4</ele>
        <time>2026-07-08T07:23:07Z</time>
      </trkpt>
      <trkpt lat="43.01377" lon="0.31174">
        <ele>884.4</ele>
        <time>2026-07-08T07:23:08Z</time>
      </trkpt>
      <trkpt lat="43.01376" lon="0.31175">
        <ele>884.4</ele>
        <time>2026-07-08T07:23:09Z</time>
      </trkpt>
      <trkpt lat="43.01376" lon="0.31175">
        <ele>884.4</ele>
        <time>2026-07-08T07:23:09Z</time>
      </trkpt>
      <trkpt lat="43.01376" lon="0.31176">
        <ele>884.4</ele>
        <time>2026-07-08T07:23:10Z</time>
      </trkpt>
      <trkpt lat="43.01376" lon="0.31176">
        <ele>884.4</ele>
        <time>2026-07-08T07:23:11Z</time>
      </trkpt>
      <trkpt lat="43.01375" lon="0.31176">
        <ele>884.4</ele>
        <time>2026-07-08T07:23:12Z</time>
      </trkpt>
      <trkpt lat="43.01375" lon="0.31175">
        <ele>884.4</ele>
        <time>2026-07-08T07:23:13Z</time>
      </trkpt>
      <trkpt lat="43.01375" lon="0.31175">
        <ele>884.4</ele>
        <time>2026-07-08T07:23:13Z</time>
      </trkpt>
      <trkpt lat="43.01374" lon="0.31175">
        <ele>885.4</ele>
        <time>2026-07-08T07:23:14Z</time>
      </trkpt>
      <trkpt lat="43.01374" lon="0.31175">
        <ele>885.4</ele>
        <time>2026-07-08T07:23:15Z</time>
      </trkpt>
      <trkpt lat="43.01374" lon="0.31174">
        <ele>885.4</ele>
        <time>2026-07-08T07:23:16Z</time>
      </trkpt>
      <trkpt lat="43.01375" lon="0.31174">
        <ele>886.4</ele>
        <time>2026-07-08T07:23:17Z</time>
      </trkpt>
      <trkpt lat="43.01375" lon="0.31174">
        <ele>886.4</ele>
        <time>2026-07-08T07:23:17Z</time>
      </trkpt>
      <trkpt lat="43.01375" lon="0.31173">
        <ele>887.4</ele>
        <time>2026-07-08T07:23:18Z</time>
      </trkpt>
      <trkpt lat="43.01375" lon="0.31172">
        <ele>887.4</ele>
        <time>2026-07-08T07:23:19Z</time>
      </trkpt>
      <trkpt lat="43.01375" lon="0.31172">
        <ele>887.4</ele>
        <time>2026-07-08T07:23:20Z</time>
      </trkpt>
      <trkpt lat="43.01375" lon="0.31172">
        <ele>887.4</ele>
        <time>2026-07-08T07:23:21Z</time>
      </trkpt>
      <trkpt lat="43.01375" lon="0.31171">
        <ele>887.4</ele>
        <time>2026-07-08T07:23:22Z</time>
      </trkpt>
      <trkpt lat="43.01375" lon="0.31172">
        <ele>887.4</ele>
        <time>2026-07-08T07:23:23Z</time>
      </trkpt>
      <trkpt lat="43.01375" lon="0.31172">
        <ele>887.4</ele>
        <time>2026-07-08T07:23:24Z</time>
      </trkpt>
      <trkpt lat="43.01374" lon="0.31172">
        <ele>887.4</ele>
        <time>2026-07-08T07:23:24Z</time>
      </trkpt>
      <trkpt lat="43.01374" lon="0.31171">
        <ele>887.4</ele>
        <time>2026-07-08T07:23:25Z</time>
      </trkpt>
      <trkpt lat="43.01374" lon="0.3117">
        <ele>887.4</ele>
        <time>2026-07-08T07:23:26Z</time>
      </trkpt>
      <trkpt lat="43.01374" lon="0.31169">
        <ele>887.4</ele>
        <time>2026-07-08T07:23:27Z</time>
      </trkpt>
      <trkpt lat="43.01373" lon="0.31169">
        <ele>887.4</ele>
        <time>2026-07-08T07:23:28Z</time>
      </trkpt>
      <trkpt lat="43.01373" lon="0.31168">
        <ele>887.4</ele>
        <time>2026-07-08T07:23:29Z</time>
      </trkpt>
      <trkpt lat="43.01373" lon="0.31167">
        <ele>887.4</ele>
        <time>2026-07-08T07:23:30Z</time>
      </trkpt>
      <trkpt lat="43.01372" lon="0.31167">
        <ele>887.4</ele>
        <time>2026-07-08T07:23:30Z</time>
      </trkpt>
      <trkpt lat="43.01372" lon="0.31167">
        <ele>887.4</ele>
        <time>2026-07-08T07:23:31Z</time>
      </trkpt>
      <trkpt lat="43.01371" lon="0.31166">
        <ele>887.4</ele>
        <time>2026-07-08T07:23:32Z</time>
      </trkpt>
      <trkpt lat="43.0137" lon="0.31167">
        <ele>887.4</ele>
        <time>2026-07-08T07:23:33Z</time>
      </trkpt>
      <trkpt lat="43.01369" lon="0.31167">
        <ele>887.4</ele>
        <time>2026-07-08T07:23:34Z</time>
      </trkpt>
      <trkpt lat="43.01368" lon="0.31168">
        <ele>888.4</ele>
        <time>2026-07-08T07:23:35Z</time>
      </trkpt>
      <trkpt lat="43.01368" lon="0.31168">
        <ele>889.4</ele>
        <time>2026-07-08T07:23:36Z</time>
      </trkpt>
      <trkpt lat="43.01367" lon="0.31168">
        <ele>889.4</ele>
        <time>2026-07-08T07:23:36Z</time>
      </trkpt>
      <trkpt lat="43.01366" lon="0.31168">
        <ele>888.4</ele>
        <time>2026-07-08T07:23:37Z</time>
      </trkpt>
      <trkpt lat="43.01365" lon="0.31168">
        <ele>888.4</ele>
        <time>2026-07-08T07:23:38Z</time>
      </trkpt>
      <trkpt lat="43.01365" lon="0.31167">
        <ele>888.4</ele>
        <time>2026-07-08T07:23:39Z</time>
      </trkpt>
      <trkpt lat="43.01364" lon="0.31166">
        <ele>888.4</ele>
        <time>2026-07-08T07:23:40Z</time>
      </trkpt>
      <trkpt lat="43.01364" lon="0.31166">
        <ele>889.4</ele>
        <time>2026-07-08T07:23:41Z</time>
      </trkpt>
      <trkpt lat="43.01364" lon="0.31166">
        <ele>889.4</ele>
        <time>2026-07-08T07:23:41Z</time>
      </trkpt>
      <trkpt lat="43.01364" lon="0.31166">
        <ele>890.4</ele>
        <time>2026-07-08T07:23:42Z</time>
      </trkpt>
      <trkpt lat="43.01364" lon="0.31166">
        <ele>890.4</ele>
        <time>2026-07-08T07:23:43Z</time>
      </trkpt>
      <trkpt lat="43.01364" lon="0.31165">
        <ele>890.4</ele>
        <time>2026-07-08T07:23:44Z</time>
      </trkpt>
      <trkpt lat="43.01364" lon="0.31165">
        <ele>891.4</ele>
        <time>2026-07-08T07:23:45Z</time>
      </trkpt>
      <trkpt lat="43.01364" lon="0.31165">
        <ele>890.4</ele>
        <time>2026-07-08T07:23:46Z</time>
      </trkpt>
      <trkpt lat="43.01364" lon="0.31164">
        <ele>890.4</ele>
        <time>2026-07-08T07:23:46Z</time>
      </trkpt>
      <trkpt lat="43.01364" lon="0.31164">
        <ele>890.4</ele>
        <time>2026-07-08T07:23:46Z</time>
      </trkpt>
      <trkpt lat="43.01364" lon="0.31163">
        <ele>890.4</ele>
        <time>2026-07-08T07:23:47Z</time>
      </trkpt>
      <trkpt lat="43.01363" lon="0.31162">
        <ele>890.4</ele>
        <time>2026-07-08T07:23:48Z</time>
      </trkpt>
      <trkpt lat="43.01362" lon="0.31162">
        <ele>890.4</ele>
        <time>2026-07-08T07:23:49Z</time>
      </trkpt>
      <trkpt lat="43.01362" lon="0.31161">
        <ele>890.4</ele>
        <time>2026-07-08T07:23:50Z</time>
      </trkpt>
      <trkpt lat="43.01362" lon="0.3116">
        <ele>890.4</ele>
        <time>2026-07-08T07:23:50Z</time>
      </trkpt>
      <trkpt lat="43.01361" lon="0.3116">
        <ele>890.4</ele>
        <time>2026-07-08T07:23:51Z</time>
      </trkpt>
      <trkpt lat="43.01361" lon="0.3116">
        <ele>889.4</ele>
        <time>2026-07-08T07:23:52Z</time>
      </trkpt>
      <trkpt lat="43.01361" lon="0.31159">
        <ele>889.4</ele>
        <time>2026-07-08T07:23:53Z</time>
      </trkpt>
      <trkpt lat="43.01361" lon="0.31159">
        <ele>889.4</ele>
        <time>2026-07-08T07:23:54Z</time>
      </trkpt>
      <trkpt lat="43.01361" lon="0.31158">
        <ele>889.4</ele>
        <time>2026-07-08T07:23:55Z</time>
      </trkpt>
      <trkpt lat="43.01361" lon="0.31158">
        <ele>889.4</ele>
        <time>2026-07-08T07:23:55Z</time>
      </trkpt>
      <trkpt lat="43.01361" lon="0.31158">
        <ele>888.4</ele>
        <time>2026-07-08T07:23:56Z</time>
      </trkpt>
      <trkpt lat="43.01361" lon="0.31159">
        <ele>889.4</ele>
        <time>2026-07-08T07:23:57Z</time>
      </trkpt>
      <trkpt lat="43.01361" lon="0.31159">
        <ele>889.4</ele>
        <time>2026-07-08T07:23:58Z</time>
      </trkpt>
      <trkpt lat="43.01361" lon="0.31159">
        <ele>888.4</ele>
        <time>2026-07-08T07:23:59Z</time>
      </trkpt>
      <trkpt lat="43.01361" lon="0.3116">
        <ele>889.4</ele>
        <time>2026-07-08T07:24:00Z</time>
      </trkpt>
      <trkpt lat="43.0136" lon="0.31161">
        <ele>890.4</ele>
        <time>2026-07-08T07:24:00Z</time>
      </trkpt>
      <trkpt lat="43.0136" lon="0.31161">
        <ele>890.4</ele>
        <time>2026-07-08T07:24:01Z</time>
      </trkpt>
      <trkpt lat="43.01359" lon="0.31161">
        <ele>890.4</ele>
        <time>2026-07-08T07:24:02Z</time>
      </trkpt>
      <trkpt lat="43.01358" lon="0.31161">
        <ele>890.4</ele>
        <time>2026-07-08T07:24:03Z</time>
      </trkpt>
      <trkpt lat="43.01358" lon="0.31161">
        <ele>890.4</ele>
        <time>2026-07-08T07:24:04Z</time>
      </trkpt>
      <trkpt lat="43.01357" lon="0.31161">
        <ele>890.4</ele>
        <time>2026-07-08T07:24:05Z</time>
      </trkpt>
      <trkpt lat="43.01357" lon="0.31161">
        <ele>891.4</ele>
        <time>2026-07-08T07:24:06Z</time>
      </trkpt>
      <trkpt lat="43.01356" lon="0.31161">
        <ele>890.4</ele>
        <time>2026-07-08T07:24:06Z</time>
      </trkpt>
      <trkpt lat="43.01356" lon="0.3116">
        <ele>890.4</ele>
        <time>2026-07-08T07:24:07Z</time>
      </trkpt>
      <trkpt lat="43.01356" lon="0.31161">
        <ele>890.4</ele>
        <time>2026-07-08T07:24:08Z</time>
      </trkpt>
      <trkpt lat="43.01356" lon="0.31161">
        <ele>890.4</ele>
        <time>2026-07-08T07:24:08Z</time>
      </trkpt>
      <trkpt lat="43.01356" lon="0.31161">
        <ele>890.4</ele>
        <time>2026-07-08T07:24:09Z</time>
      </trkpt>
      <trkpt lat="43.01355" lon="0.31162">
        <ele>890.4</ele>
        <time>2026-07-08T07:24:10Z</time>
      </trkpt>
      <trkpt lat="43.01355" lon="0.31162">
        <ele>890.4</ele>
        <time>2026-07-08T07:24:11Z</time>
      </trkpt>
      <trkpt lat="43.01354" lon="0.31163">
        <ele>891.4</ele>
        <time>2026-07-08T07:24:12Z</time>
      </trkpt>
      <trkpt lat="43.01353" lon="0.31163">
        <ele>891.4</ele>
        <time>2026-07-08T07:24:12Z</time>
      </trkpt>
      <trkpt lat="43.01353" lon="0.31164">
        <ele>891.4</ele>
        <time>2026-07-08T07:24:13Z</time>
      </trkpt>
      <trkpt lat="43.01353" lon="0.31165">
        <ele>890.4</ele>
        <time>2026-07-08T07:24:14Z</time>
      </trkpt>
      <trkpt lat="43.01352" lon="0.31166">
        <ele>890.4</ele>
        <time>2026-07-08T07:24:15Z</time>
      </trkpt>
      <trkpt lat="43.01352" lon="0.31167">
        <ele>890.4</ele>
        <time>2026-07-08T07:24:16Z</time>
      </trkpt>
      <trkpt lat="43.01351" lon="0.31168">
        <ele>890.4</ele>
        <time>2026-07-08T07:24:17Z</time>
      </trkpt>
      <trkpt lat="43.01351" lon="0.31169">
        <ele>890.4</ele>
        <time>2026-07-08T07:24:18Z</time>
      </trkpt>
      <trkpt lat="43.01351" lon="0.31169">
        <ele>890.4</ele>
        <time>2026-07-08T07:24:18Z</time>
      </trkpt>
      <trkpt lat="43.01351" lon="0.3117">
        <ele>890.4</ele>
        <time>2026-07-08T07:24:19Z</time>
      </trkpt>
      <trkpt lat="43.01351" lon="0.31171">
        <ele>890.4</ele>
        <time>2026-07-08T07:24:20Z</time>
      </trkpt>
      <trkpt lat="43.0135" lon="0.31172">
        <ele>890.4</ele>
        <time>2026-07-08T07:24:21Z</time>
      </trkpt>
      <trkpt lat="43.0135" lon="0.31172">
        <ele>890.4</ele>
        <time>2026-07-08T07:24:22Z</time>
      </trkpt>
      <trkpt lat="43.01349" lon="0.31173">
        <ele>890.4</ele>
        <time>2026-07-08T07:24:23Z</time>
      </trkpt>
      <trkpt lat="43.01349" lon="0.31173">
        <ele>890.4</ele>
        <time>2026-07-08T07:24:23Z</time>
      </trkpt>
      <trkpt lat="43.01348" lon="0.31174">
        <ele>890.4</ele>
        <time>2026-07-08T07:24:24Z</time>
      </trkpt>
      <trkpt lat="43.01348" lon="0.31174">
        <ele>890.4</ele>
        <time>2026-07-08T07:24:25Z</time>
      </trkpt>
      <trkpt lat="43.01347" lon="0.31174">
        <ele>890.4</ele>
        <time>2026-07-08T07:24:26Z</time>
      </trkpt>
      <trkpt lat="43.01347" lon="0.31174">
        <ele>889.4</ele>
        <time>2026-07-08T07:24:27Z</time>
      </trkpt>
      <trkpt lat="43.01347" lon="0.31173">
        <ele>889.4</ele>
        <time>2026-07-08T07:24:28Z</time>
      </trkpt>
      <trkpt lat="43.01347" lon="0.31172">
        <ele>889.4</ele>
        <time>2026-07-08T07:24:29Z</time>
      </trkpt>
      <trkpt lat="43.01347" lon="0.31171">
        <ele>889.4</ele>
        <time>2026-07-08T07:24:29Z</time>
      </trkpt>
      <trkpt lat="43.01347" lon="0.31171">
        <ele>889.4</ele>
        <time>2026-07-08T07:24:30Z</time>
      </trkpt>
      <trkpt lat="43.01346" lon="0.3117">
        <ele>890.4</ele>
        <time>2026-07-08T07:24:31Z</time>
      </trkpt>
      <trkpt lat="43.01345" lon="0.3117">
        <ele>890.4</ele>
        <time>2026-07-08T07:24:32Z</time>
      </trkpt>
      <trkpt lat="43.01345" lon="0.3117">
        <ele>890.4</ele>
        <time>2026-07-08T07:24:33Z</time>
      </trkpt>
      <trkpt lat="43.01344" lon="0.3117">
        <ele>891.4</ele>
        <time>2026-07-08T07:24:34Z</time>
      </trkpt>
      <trkpt lat="43.01344" lon="0.31171">
        <ele>891.4</ele>
        <time>2026-07-08T07:24:35Z</time>
      </trkpt>
      <trkpt lat="43.01344" lon="0.31172">
        <ele>892.4</ele>
        <time>2026-07-08T07:24:36Z</time>
      </trkpt>
      <trkpt lat="43.01344" lon="0.31172">
        <ele>892.4</ele>
        <time>2026-07-08T07:24:37Z</time>
      </trkpt>
      <trkpt lat="43.01344" lon="0.31172">
        <ele>893.4</ele>
        <time>2026-07-08T07:24:37Z</time>
      </trkpt>
      <trkpt lat="43.01344" lon="0.31172">
        <ele>893.4</ele>
        <time>2026-07-08T07:24:38Z</time>
      </trkpt>
      <trkpt lat="43.01344" lon="0.3117">
        <ele>893.4</ele>
        <time>2026-07-08T07:24:39Z</time>
      </trkpt>
      <trkpt lat="43.01343" lon="0.31169">
        <ele>893.4</ele>
        <time>2026-07-08T07:24:40Z</time>
      </trkpt>
      <trkpt lat="43.01342" lon="0.31168">
        <ele>894.4</ele>
        <time>2026-07-08T07:24:41Z</time>
      </trkpt>
      <trkpt lat="43.01342" lon="0.31168">
        <ele>894.4</ele>
        <time>2026-07-08T07:24:42Z</time>
      </trkpt>
      <trkpt lat="43.01341" lon="0.31168">
        <ele>894.4</ele>
        <time>2026-07-08T07:24:43Z</time>
      </trkpt>
      <trkpt lat="43.01341" lon="0.31167">
        <ele>894.4</ele>
        <time>2026-07-08T07:24:44Z</time>
      </trkpt>
      <trkpt lat="43.0134" lon="0.31167">
        <ele>894.4</ele>
        <time>2026-07-08T07:24:44Z</time>
      </trkpt>
      <trkpt lat="43.0134" lon="0.31167">
        <ele>895.4</ele>
        <time>2026-07-08T07:24:45Z</time>
      </trkpt>
      <trkpt lat="43.01339" lon="0.31167">
        <ele>895.4</ele>
        <time>2026-07-08T07:24:46Z</time>
      </trkpt>
      <trkpt lat="43.01338" lon="0.31167">
        <ele>895.4</ele>
        <time>2026-07-08T07:24:47Z</time>
      </trkpt>
      <trkpt lat="43.01338" lon="0.31166">
        <ele>895.4</ele>
        <time>2026-07-08T07:24:48Z</time>
      </trkpt>
      <trkpt lat="43.01337" lon="0.31166">
        <ele>895.4</ele>
        <time>2026-07-08T07:24:49Z</time>
      </trkpt>
      <trkpt lat="43.01336" lon="0.31166">
        <ele>895.4</ele>
        <time>2026-07-08T07:24:50Z</time>
      </trkpt>
      <trkpt lat="43.01336" lon="0.31166">
        <ele>895.4</ele>
        <time>2026-07-08T07:24:50Z</time>
      </trkpt>
      <trkpt lat="43.01336" lon="0.31165">
        <ele>895.4</ele>
        <time>2026-07-08T07:24:51Z</time>
      </trkpt>
      <trkpt lat="43.01335" lon="0.31165">
        <ele>895.4</ele>
        <time>2026-07-08T07:24:52Z</time>
      </trkpt>
      <trkpt lat="43.01335" lon="0.31164">
        <ele>895.4</ele>
        <time>2026-07-08T07:24:53Z</time>
      </trkpt>
      <trkpt lat="43.01334" lon="0.31164">
        <ele>895.4</ele>
        <time>2026-07-08T07:24:54Z</time>
      </trkpt>
      <trkpt lat="43.01334" lon="0.31164">
        <ele>895.4</ele>
        <time>2026-07-08T07:24:55Z</time>
      </trkpt>
      <trkpt lat="43.01334" lon="0.31163">
        <ele>894.4</ele>
        <time>2026-07-08T07:24:55Z</time>
      </trkpt>
      <trkpt lat="43.01333" lon="0.31163">
        <ele>894.4</ele>
        <time>2026-07-08T07:24:56Z</time>
      </trkpt>
      <trkpt lat="43.01333" lon="0.31163">
        <ele>894.4</ele>
        <time>2026-07-08T07:24:57Z</time>
      </trkpt>
      <trkpt lat="43.01332" lon="0.31163">
        <ele>894.4</ele>
        <time>2026-07-08T07:24:58Z</time>
      </trkpt>
      <trkpt lat="43.01331" lon="0.31163">
        <ele>894.4</ele>
        <time>2026-07-08T07:24:59Z</time>
      </trkpt>
      <trkpt lat="43.01331" lon="0.31162">
        <ele>895.4</ele>
        <time>2026-07-08T07:25:00Z</time>
      </trkpt>
      <trkpt lat="43.01331" lon="0.31162">
        <ele>895.4</ele>
        <time>2026-07-08T07:25:00Z</time>
      </trkpt>
      <trkpt lat="43.0133" lon="0.31161">
        <ele>895.4</ele>
        <time>2026-07-08T07:25:01Z</time>
      </trkpt>
      <trkpt lat="43.0133" lon="0.31161">
        <ele>895.4</ele>
        <time>2026-07-08T07:25:02Z</time>
      </trkpt>
      <trkpt lat="43.01329" lon="0.3116">
        <ele>896.4</ele>
        <time>2026-07-08T07:25:03Z</time>
      </trkpt>
      <trkpt lat="43.01329" lon="0.3116">
        <ele>896.4</ele>
        <time>2026-07-08T07:25:04Z</time>
      </trkpt>
      <trkpt lat="43.01328" lon="0.31159">
        <ele>895.4</ele>
        <time>2026-07-08T07:25:05Z</time>
      </trkpt>
      <trkpt lat="43.01328" lon="0.31158">
        <ele>895.4</ele>
        <time>2026-07-08T07:25:05Z</time>
      </trkpt>
      <trkpt lat="43.01328" lon="0.31158">
        <ele>896.4</ele>
        <time>2026-07-08T07:25:06Z</time>
      </trkpt>
      <trkpt lat="43.01328" lon="0.31157">
        <ele>896.4</ele>
        <time>2026-07-08T07:25:07Z</time>
      </trkpt>
      <trkpt lat="43.01327" lon="0.31156">
        <ele>897.4</ele>
        <time>2026-07-08T07:25:08Z</time>
      </trkpt>
      <trkpt lat="43.01327" lon="0.31155">
        <ele>898.4</ele>
        <time>2026-07-08T07:25:09Z</time>
      </trkpt>
      <trkpt lat="43.01327" lon="0.31154">
        <ele>898.4</ele>
        <time>2026-07-08T07:25:10Z</time>
      </trkpt>
      <trkpt lat="43.01326" lon="0.31153">
        <ele>898.4</ele>
        <time>2026-07-08T07:25:10Z</time>
      </trkpt>
      <trkpt lat="43.01326" lon="0.31153">
        <ele>898.4</ele>
        <time>2026-07-08T07:25:11Z</time>
      </trkpt>
      <trkpt lat="43.01326" lon="0.31152">
        <ele>898.4</ele>
        <time>2026-07-08T07:25:12Z</time>
      </trkpt>
      <trkpt lat="43.01326" lon="0.31151">
        <ele>898.4</ele>
        <time>2026-07-08T07:25:13Z</time>
      </trkpt>
      <trkpt lat="43.01326" lon="0.3115">
        <ele>898.4</ele>
        <time>2026-07-08T07:25:14Z</time>
      </trkpt>
      <trkpt lat="43.01327" lon="0.3115">
        <ele>898.4</ele>
        <time>2026-07-08T07:25:15Z</time>
      </trkpt>
      <trkpt lat="43.01328" lon="0.31151">
        <ele>898.4</ele>
        <time>2026-07-08T07:25:16Z</time>
      </trkpt>
      <trkpt lat="43.01328" lon="0.3115">
        <ele>899.4</ele>
        <time>2026-07-08T07:25:16Z</time>
      </trkpt>
      <trkpt lat="43.01328" lon="0.31149">
        <ele>899.4</ele>
        <time>2026-07-08T07:25:17Z</time>
      </trkpt>
      <trkpt lat="43.01328" lon="0.31149">
        <ele>900.4</ele>
        <time>2026-07-08T07:25:18Z</time>
      </trkpt>
      <trkpt lat="43.01328" lon="0.31147">
        <ele>900.4</ele>
        <time>2026-07-08T07:25:19Z</time>
      </trkpt>
      <trkpt lat="43.01328" lon="0.31147">
        <ele>900.4</ele>
        <time>2026-07-08T07:25:20Z</time>
      </trkpt>
      <trkpt lat="43.01328" lon="0.31146">
        <ele>902.4</ele>
        <time>2026-07-08T07:25:21Z</time>
      </trkpt>
      <trkpt lat="43.01328" lon="0.31145">
        <ele>902.4</ele>
        <time>2026-07-08T07:25:22Z</time>
      </trkpt>
      <trkpt lat="43.01328" lon="0.31144">
        <ele>902.4</ele>
        <time>2026-07-08T07:25:23Z</time>
      </trkpt>
      <trkpt lat="43.01329" lon="0.31144">
        <ele>902.4</ele>
        <time>2026-07-08T07:25:24Z</time>
      </trkpt>
      <trkpt lat="43.0133" lon="0.31143">
        <ele>903.4</ele>
        <time>2026-07-08T07:25:24Z</time>
      </trkpt>
      <trkpt lat="43.01331" lon="0.31143">
        <ele>903.4</ele>
        <time>2026-07-08T07:25:25Z</time>
      </trkpt>
      <trkpt lat="43.01332" lon="0.31143">
        <ele>903.4</ele>
        <time>2026-07-08T07:25:26Z</time>
      </trkpt>
      <trkpt lat="43.01332" lon="0.31142">
        <ele>903.4</ele>
        <time>2026-07-08T07:25:27Z</time>
      </trkpt>
      <trkpt lat="43.01333" lon="0.31142">
        <ele>904.4</ele>
        <time>2026-07-08T07:25:28Z</time>
      </trkpt>
      <trkpt lat="43.01334" lon="0.31141">
        <ele>904.4</ele>
        <time>2026-07-08T07:25:29Z</time>
      </trkpt>
      <trkpt lat="43.01334" lon="0.3114">
        <ele>904.4</ele>
        <time>2026-07-08T07:25:29Z</time>
      </trkpt>
      <trkpt lat="43.01334" lon="0.3114">
        <ele>904.4</ele>
        <time>2026-07-08T07:25:30Z</time>
      </trkpt>
      <trkpt lat="43.01335" lon="0.31139">
        <ele>904.4</ele>
        <time>2026-07-08T07:25:31Z</time>
      </trkpt>
      <trkpt lat="43.01335" lon="0.31139">
        <ele>904.4</ele>
        <time>2026-07-08T07:25:32Z</time>
      </trkpt>
      <trkpt lat="43.01335" lon="0.31138">
        <ele>904.4</ele>
        <time>2026-07-08T07:25:33Z</time>
      </trkpt>
      <trkpt lat="43.01335" lon="0.31138">
        <ele>904.4</ele>
        <time>2026-07-08T07:25:34Z</time>
      </trkpt>
      <trkpt lat="43.01335" lon="0.31137">
        <ele>904.4</ele>
        <time>2026-07-08T07:25:34Z</time>
      </trkpt>
      <trkpt lat="43.01335" lon="0.31136">
        <ele>904.4</ele>
        <time>2026-07-08T07:25:35Z</time>
      </trkpt>
      <trkpt lat="43.01335" lon="0.31136">
        <ele>904.4</ele>
        <time>2026-07-08T07:25:36Z</time>
      </trkpt>
      <trkpt lat="43.01335" lon="0.31134">
        <ele>904.4</ele>
        <time>2026-07-08T07:25:37Z</time>
      </trkpt>
      <trkpt lat="43.01335" lon="0.31133">
        <ele>905.4</ele>
        <time>2026-07-08T07:25:38Z</time>
      </trkpt>
      <trkpt lat="43.01334" lon="0.31133">
        <ele>907.4</ele>
        <time>2026-07-08T07:25:39Z</time>
      </trkpt>
      <trkpt lat="43.01334" lon="0.31132">
        <ele>907.4</ele>
        <time>2026-07-08T07:25:39Z</time>
      </trkpt>
      <trkpt lat="43.01334" lon="0.31131">
        <ele>908.4</ele>
        <time>2026-07-08T07:25:40Z</time>
      </trkpt>
      <trkpt lat="43.01334" lon="0.3113">
        <ele>908.4</ele>
        <time>2026-07-08T07:25:41Z</time>
      </trkpt>
      <trkpt lat="43.01334" lon="0.31129">
        <ele>907.4</ele>
        <time>2026-07-08T07:25:42Z</time>
      </trkpt>
      <trkpt lat="43.01334" lon="0.31129">
        <ele>907.4</ele>
        <time>2026-07-08T07:25:43Z</time>
      </trkpt>
      <trkpt lat="43.01333" lon="0.31128">
        <ele>909.4</ele>
        <time>2026-07-08T07:25:44Z</time>
      </trkpt>
      <trkpt lat="43.01332" lon="0.31128">
        <ele>909.4</ele>
        <time>2026-07-08T07:25:44Z</time>
      </trkpt>
      <trkpt lat="43.01332" lon="0.31128">
        <ele>910.4</ele>
        <time>2026-07-08T07:25:45Z</time>
      </trkpt>
      <trkpt lat="43.01332" lon="0.31128">
        <ele>911.4</ele>
        <time>2026-07-08T07:25:46Z</time>
      </trkpt>
      <trkpt lat="43.01331" lon="0.31127">
        <ele>911.4</ele>
        <time>2026-07-08T07:25:47Z</time>
      </trkpt>
      <trkpt lat="43.01331" lon="0.31127">
        <ele>911.4</ele>
        <time>2026-07-08T07:25:48Z</time>
      </trkpt>
      <trkpt lat="43.0133" lon="0.31126">
        <ele>911.4</ele>
        <time>2026-07-08T07:25:49Z</time>
      </trkpt>
      <trkpt lat="43.0133" lon="0.31125">
        <ele>911.4</ele>
        <time>2026-07-08T07:25:50Z</time>
      </trkpt>
      <trkpt lat="43.01329" lon="0.31126">
        <ele>911.4</ele>
        <time>2026-07-08T07:25:51Z</time>
      </trkpt>
      <trkpt lat="43.01329" lon="0.31127">
        <ele>912.4</ele>
        <time>2026-07-08T07:25:52Z</time>
      </trkpt>
      <trkpt lat="43.01329" lon="0.31128">
        <ele>913.4</ele>
        <time>2026-07-08T07:25:52Z</time>
      </trkpt>
      <trkpt lat="43.0133" lon="0.31129">
        <ele>913.4</ele>
        <time>2026-07-08T07:25:53Z</time>
      </trkpt>
      <trkpt lat="43.0133" lon="0.31129">
        <ele>913.4</ele>
        <time>2026-07-08T07:25:54Z</time>
      </trkpt>
      <trkpt lat="43.0133" lon="0.3113">
        <ele>913.4</ele>
        <time>2026-07-08T07:25:55Z</time>
      </trkpt>
      <trkpt lat="43.0133" lon="0.31131">
        <ele>913.4</ele>
        <time>2026-07-08T07:25:56Z</time>
      </trkpt>
      <trkpt lat="43.0133" lon="0.31132">
        <ele>913.4</ele>
        <time>2026-07-08T07:25:57Z</time>
      </trkpt>
      <trkpt lat="43.0133" lon="0.31132">
        <ele>913.4</ele>
        <time>2026-07-08T07:25:58Z</time>
      </trkpt>
      <trkpt lat="43.0133" lon="0.31131">
        <ele>913.4</ele>
        <time>2026-07-08T07:25:59Z</time>
      </trkpt>
      <trkpt lat="43.01331" lon="0.3113">
        <ele>915.4</ele>
        <time>2026-07-08T07:25:59Z</time>
      </trkpt>
      <trkpt lat="43.0133" lon="0.3113">
        <ele>916.4</ele>
        <time>2026-07-08T07:26:00Z</time>
      </trkpt>
      <trkpt lat="43.0133" lon="0.3113">
        <ele>916.4</ele>
        <time>2026-07-08T07:26:01Z</time>
      </trkpt>
      <trkpt lat="43.0133" lon="0.31128">
        <ele>916.4</ele>
        <time>2026-07-08T07:26:02Z</time>
      </trkpt>
      <trkpt lat="43.0133" lon="0.31127">
        <ele>916.4</ele>
        <time>2026-07-08T07:26:03Z</time>
      </trkpt>
      <trkpt lat="43.0133" lon="0.31128">
        <ele>916.4</ele>
        <time>2026-07-08T07:26:04Z</time>
      </trkpt>
      <trkpt lat="43.0133" lon="0.31128">
        <ele>916.4</ele>
        <time>2026-07-08T07:26:05Z</time>
      </trkpt>
      <trkpt lat="43.01329" lon="0.31128">
        <ele>918.4</ele>
        <time>2026-07-08T07:26:06Z</time>
      </trkpt>
      <trkpt lat="43.01329" lon="0.31127">
        <ele>918.4</ele>
        <time>2026-07-08T07:26:07Z</time>
      </trkpt>
      <trkpt lat="43.01328" lon="0.31127">
        <ele>918.4</ele>
        <time>2026-07-08T07:26:08Z</time>
      </trkpt>
      <trkpt lat="43.01327" lon="0.31126">
        <ele>918.4</ele>
        <time>2026-07-08T07:26:09Z</time>
      </trkpt>
      <trkpt lat="43.01326" lon="0.31126">
        <ele>918.4</ele>
        <time>2026-07-08T07:26:10Z</time>
      </trkpt>
      <trkpt lat="43.01326" lon="0.31125">
        <ele>919.4</ele>
        <time>2026-07-08T07:26:11Z</time>
      </trkpt>
      <trkpt lat="43.01325" lon="0.31124">
        <ele>920.4</ele>
        <time>2026-07-08T07:26:12Z</time>
      </trkpt>
      <trkpt lat="43.01324" lon="0.31125">
        <ele>920.4</ele>
        <time>2026-07-08T07:26:13Z</time>
      </trkpt>
      <trkpt lat="43.01324" lon="0.31124">
        <ele>920.4</ele>
        <time>2026-07-08T07:26:13Z</time>
      </trkpt>
      <trkpt lat="43.01323" lon="0.31124">
        <ele>920.4</ele>
        <time>2026-07-08T07:26:14Z</time>
      </trkpt>
      <trkpt lat="43.01323" lon="0.31123">
        <ele>920.4</ele>
        <time>2026-07-08T07:26:15Z</time>
      </trkpt>
      <trkpt lat="43.01323" lon="0.31123">
        <ele>920.4</ele>
        <time>2026-07-08T07:26:15Z</time>
      </trkpt>
      <trkpt lat="43.01323" lon="0.31122">
        <ele>920.4</ele>
        <time>2026-07-08T07:26:16Z</time>
      </trkpt>
      <trkpt lat="43.01322" lon="0.31122">
        <ele>920.4</ele>
        <time>2026-07-08T07:26:17Z</time>
      </trkpt>
      <trkpt lat="43.01322" lon="0.31122">
        <ele>920.4</ele>
        <time>2026-07-08T07:26:18Z</time>
      </trkpt>
      <trkpt lat="43.01322" lon="0.31122">
        <ele>920.4</ele>
        <time>2026-07-08T07:26:19Z</time>
      </trkpt>
      <trkpt lat="43.01321" lon="0.31121">
        <ele>920.4</ele>
        <time>2026-07-08T07:26:20Z</time>
      </trkpt>
      <trkpt lat="43.01321" lon="0.31121">
        <ele>921.4</ele>
        <time>2026-07-08T07:26:21Z</time>
      </trkpt>
      <trkpt lat="43.01321" lon="0.31122">
        <ele>922.4</ele>
        <time>2026-07-08T07:26:22Z</time>
      </trkpt>
      <trkpt lat="43.01321" lon="0.31121">
        <ele>922.4</ele>
        <time>2026-07-08T07:26:23Z</time>
      </trkpt>
      <trkpt lat="43.01321" lon="0.31121">
        <ele>922.4</ele>
        <time>2026-07-08T07:26:23Z</time>
      </trkpt>
      <trkpt lat="43.0132" lon="0.31121">
        <ele>922.4</ele>
        <time>2026-07-08T07:26:24Z</time>
      </trkpt>
      <trkpt lat="43.0132" lon="0.3112">
        <ele>922.4</ele>
        <time>2026-07-08T07:26:25Z</time>
      </trkpt>
      <trkpt lat="43.0132" lon="0.3112">
        <ele>923.4</ele>
        <time>2026-07-08T07:26:26Z</time>
      </trkpt>
      <trkpt lat="43.01319" lon="0.3112">
        <ele>923.4</ele>
        <time>2026-07-08T07:26:27Z</time>
      </trkpt>
      <trkpt lat="43.01319" lon="0.3112">
        <ele>924.4</ele>
        <time>2026-07-08T07:26:28Z</time>
      </trkpt>
      <trkpt lat="43.01318" lon="0.31119">
        <ele>924.4</ele>
        <time>2026-07-08T07:26:29Z</time>
      </trkpt>
      <trkpt lat="43.01318" lon="0.31119">
        <ele>925.4</ele>
        <time>2026-07-08T07:26:30Z</time>
      </trkpt>
      <trkpt lat="43.01318" lon="0.3112">
        <ele>925.4</ele>
        <time>2026-07-08T07:26:31Z</time>
      </trkpt>
      <trkpt lat="43.01318" lon="0.31121">
        <ele>926.4</ele>
        <time>2026-07-08T07:26:32Z</time>
      </trkpt>
      <trkpt lat="43.01318" lon="0.31121">
        <ele>926.4</ele>
        <time>2026-07-08T07:26:33Z</time>
      </trkpt>
      <trkpt lat="43.01318" lon="0.31121">
        <ele>926.4</ele>
        <time>2026-07-08T07:26:34Z</time>
      </trkpt>
      <trkpt lat="43.01318" lon="0.31121">
        <ele>926.4</ele>
        <time>2026-07-08T07:26:35Z</time>
      </trkpt>
      <trkpt lat="43.01317" lon="0.31121">
        <ele>926.4</ele>
        <time>2026-07-08T07:26:36Z</time>
      </trkpt>
      <trkpt lat="43.01317" lon="0.3112">
        <ele>926.4</ele>
        <time>2026-07-08T07:26:36Z</time>
      </trkpt>
      <trkpt lat="43.01317" lon="0.3112">
        <ele>926.4</ele>
        <time>2026-07-08T07:26:37Z</time>
      </trkpt>
      <trkpt lat="43.01317" lon="0.31121">
        <ele>927.4</ele>
        <time>2026-07-08T07:26:38Z</time>
      </trkpt>
      <trkpt lat="43.01316" lon="0.31121">
        <ele>927.4</ele>
        <time>2026-07-08T07:26:38Z</time>
      </trkpt>
      <trkpt lat="43.01316" lon="0.31121">
        <ele>927.4</ele>
        <time>2026-07-08T07:26:39Z</time>
      </trkpt>
      <trkpt lat="43.01316" lon="0.31122">
        <ele>926.4</ele>
        <time>2026-07-08T07:26:40Z</time>
      </trkpt>
      <trkpt lat="43.01316" lon="0.31122">
        <ele>926.4</ele>
        <time>2026-07-08T07:26:41Z</time>
      </trkpt>
      <trkpt lat="43.01315" lon="0.31123">
        <ele>927.4</ele>
        <time>2026-07-08T07:26:42Z</time>
      </trkpt>
      <trkpt lat="43.01315" lon="0.31122">
        <ele>928.4</ele>
        <time>2026-07-08T07:26:43Z</time>
      </trkpt>
      <trkpt lat="43.01315" lon="0.31123">
        <ele>928.4</ele>
        <time>2026-07-08T07:26:44Z</time>
      </trkpt>
      <trkpt lat="43.01315" lon="0.31123">
        <ele>928.4</ele>
        <time>2026-07-08T07:26:45Z</time>
      </trkpt>
      <trkpt lat="43.01315" lon="0.31122">
        <ele>929.4</ele>
        <time>2026-07-08T07:26:46Z</time>
      </trkpt>
      <trkpt lat="43.01315" lon="0.31122">
        <ele>929.4</ele>
        <time>2026-07-08T07:26:47Z</time>
      </trkpt>
      <trkpt lat="43.01315" lon="0.31122">
        <ele>929.4</ele>
        <time>2026-07-08T07:26:48Z</time>
      </trkpt>
      <trkpt lat="43.01314" lon="0.31122">
        <ele>931.4</ele>
        <time>2026-07-08T07:26:49Z</time>
      </trkpt>
      <trkpt lat="43.01314" lon="0.31121">
        <ele>930.4</ele>
        <time>2026-07-08T07:26:49Z</time>
      </trkpt>
      <trkpt lat="43.01314" lon="0.31121">
        <ele>931.4</ele>
        <time>2026-07-08T07:26:50Z</time>
      </trkpt>
      <trkpt lat="43.01313" lon="0.3112">
        <ele>930.4</ele>
        <time>2026-07-08T07:26:51Z</time>
      </trkpt>
      <trkpt lat="43.01313" lon="0.3112">
        <ele>930.4</ele>
        <time>2026-07-08T07:26:52Z</time>
      </trkpt>
      <trkpt lat="43.01312" lon="0.3112">
        <ele>930.4</ele>
        <time>2026-07-08T07:26:53Z</time>
      </trkpt>
      <trkpt lat="43.01312" lon="0.3112">
        <ele>930.4</ele>
        <time>2026-07-08T07:26:54Z</time>
      </trkpt>
      <trkpt lat="43.01311" lon="0.31119">
        <ele>930.4</ele>
        <time>2026-07-08T07:26:55Z</time>
      </trkpt>
      <trkpt lat="43.01311" lon="0.31119">
        <ele>930.4</ele>
        <time>2026-07-08T07:26:56Z</time>
      </trkpt>
      <trkpt lat="43.0131" lon="0.31119">
        <ele>930.4</ele>
        <time>2026-07-08T07:26:57Z</time>
      </trkpt>
      <trkpt lat="43.0131" lon="0.31119">
        <ele>930.4</ele>
        <time>2026-07-08T07:26:58Z</time>
      </trkpt>
      <trkpt lat="43.0131" lon="0.31118">
        <ele>930.4</ele>
        <time>2026-07-08T07:26:59Z</time>
      </trkpt>
      <trkpt lat="43.0131" lon="0.31118">
        <ele>930.4</ele>
        <time>2026-07-08T07:26:59Z</time>
      </trkpt>
      <trkpt lat="43.0131" lon="0.31118">
        <ele>930.4</ele>
        <time>2026-07-08T07:27:00Z</time>
      </trkpt>
      <trkpt lat="43.01309" lon="0.31117">
        <ele>930.4</ele>
        <time>2026-07-08T07:27:00Z</time>
      </trkpt>
      <trkpt lat="43.01309" lon="0.31117">
        <ele>931.4</ele>
        <time>2026-07-08T07:27:01Z</time>
      </trkpt>
      <trkpt lat="43.01309" lon="0.31117">
        <ele>931.4</ele>
        <time>2026-07-08T07:27:02Z</time>
      </trkpt>
      <trkpt lat="43.01309" lon="0.31117">
        <ele>932.4</ele>
        <time>2026-07-08T07:27:02Z</time>
      </trkpt>
      <trkpt lat="43.01308" lon="0.31116">
        <ele>931.4</ele>
        <time>2026-07-08T07:27:03Z</time>
      </trkpt>
      <trkpt lat="43.01309" lon="0.31117">
        <ele>931.4</ele>
        <time>2026-07-08T07:27:04Z</time>
      </trkpt>
      <trkpt lat="43.01309" lon="0.31116">
        <ele>932.4</ele>
        <time>2026-07-08T07:27:05Z</time>
      </trkpt>
      <trkpt lat="43.01309" lon="0.31115">
        <ele>932.4</ele>
        <time>2026-07-08T07:27:06Z</time>
      </trkpt>
      <trkpt lat="43.01309" lon="0.31114">
        <ele>932.4</ele>
        <time>2026-07-08T07:27:07Z</time>
      </trkpt>
      <trkpt lat="43.01309" lon="0.31114">
        <ele>932.4</ele>
        <time>2026-07-08T07:27:08Z</time>
      </trkpt>
      <trkpt lat="43.01308" lon="0.31113">
        <ele>932.4</ele>
        <time>2026-07-08T07:27:09Z</time>
      </trkpt>
      <trkpt lat="43.01308" lon="0.31113">
        <ele>933.4</ele>
        <time>2026-07-08T07:27:10Z</time>
      </trkpt>
      <trkpt lat="43.01307" lon="0.31112">
        <ele>933.4</ele>
        <time>2026-07-08T07:27:11Z</time>
      </trkpt>
      <trkpt lat="43.01307" lon="0.31112">
        <ele>933.4</ele>
        <time>2026-07-08T07:27:11Z</time>
      </trkpt>
      <trkpt lat="43.01306" lon="0.31111">
        <ele>932.4</ele>
        <time>2026-07-08T07:27:12Z</time>
      </trkpt>
      <trkpt lat="43.01306" lon="0.3111">
        <ele>933.4</ele>
        <time>2026-07-08T07:27:13Z</time>
      </trkpt>
      <trkpt lat="43.01305" lon="0.31109">
        <ele>932.4</ele>
        <time>2026-07-08T07:27:14Z</time>
      </trkpt>
      <trkpt lat="43.01304" lon="0.31108">
        <ele>932.4</ele>
        <time>2026-07-08T07:27:15Z</time>
      </trkpt>
      <trkpt lat="43.01304" lon="0.31108">
        <ele>932.4</ele>
        <time>2026-07-08T07:27:16Z</time>
      </trkpt>
      <trkpt lat="43.01304" lon="0.31107">
        <ele>933.4</ele>
        <time>2026-07-08T07:27:17Z</time>
      </trkpt>
      <trkpt lat="43.01303" lon="0.31107">
        <ele>933.4</ele>
        <time>2026-07-08T07:27:18Z</time>
      </trkpt>
      <trkpt lat="43.01303" lon="0.31106">
        <ele>933.4</ele>
        <time>2026-07-08T07:27:19Z</time>
      </trkpt>
      <trkpt lat="43.01303" lon="0.31106">
        <ele>933.4</ele>
        <time>2026-07-08T07:27:19Z</time>
      </trkpt>
      <trkpt lat="43.01302" lon="0.31106">
        <ele>933.4</ele>
        <time>2026-07-08T07:27:20Z</time>
      </trkpt>
      <trkpt lat="43.01302" lon="0.31106">
        <ele>934.4</ele>
        <time>2026-07-08T07:27:20Z</time>
      </trkpt>
      <trkpt lat="43.01303" lon="0.31105">
        <ele>933.4</ele>
        <time>2026-07-08T07:27:21Z</time>
      </trkpt>
      <trkpt lat="43.01302" lon="0.31105">
        <ele>934.4</ele>
        <time>2026-07-08T07:27:22Z</time>
      </trkpt>
      <trkpt lat="43.01302" lon="0.31104">
        <ele>934.4</ele>
        <time>2026-07-08T07:27:23Z</time>
      </trkpt>
      <trkpt lat="43.01302" lon="0.31104">
        <ele>933.4</ele>
        <time>2026-07-08T07:27:24Z</time>
      </trkpt>
      <trkpt lat="43.01302" lon="0.31103">
        <ele>932.4</ele>
        <time>2026-07-08T07:27:25Z</time>
      </trkpt>
      <trkpt lat="43.01302" lon="0.31102">
        <ele>932.4</ele>
        <time>2026-07-08T07:27:26Z</time>
      </trkpt>
      <trkpt lat="43.01301" lon="0.31101">
        <ele>932.4</ele>
        <time>2026-07-08T07:27:27Z</time>
      </trkpt>
      <trkpt lat="43.01301" lon="0.31101">
        <ele>932.4</ele>
        <time>2026-07-08T07:27:28Z</time>
      </trkpt>
      <trkpt lat="43.01302" lon="0.31102">
        <ele>932.4</ele>
        <time>2026-07-08T07:27:29Z</time>
      </trkpt>
      <trkpt lat="43.01301" lon="0.31101">
        <ele>932.4</ele>
        <time>2026-07-08T07:27:30Z</time>
      </trkpt>
      <trkpt lat="43.01301" lon="0.31101">
        <ele>931.4</ele>
        <time>2026-07-08T07:27:31Z</time>
      </trkpt>
      <trkpt lat="43.01301" lon="0.31101">
        <ele>931.4</ele>
        <time>2026-07-08T07:27:31Z</time>
      </trkpt>
      <trkpt lat="43.013" lon="0.311">
        <ele>931.4</ele>
        <time>2026-07-08T07:27:33Z</time>
      </trkpt>
      <trkpt lat="43.013" lon="0.311">
        <ele>931.4</ele>
        <time>2026-07-08T07:27:33Z</time>
      </trkpt>
      <trkpt lat="43.013" lon="0.31099">
        <ele>931.4</ele>
        <time>2026-07-08T07:27:33Z</time>
      </trkpt>
      <trkpt lat="43.01299" lon="0.31099">
        <ele>932.4</ele>
        <time>2026-07-08T07:27:34Z</time>
      </trkpt>
      <trkpt lat="43.01299" lon="0.31098">
        <ele>933.4</ele>
        <time>2026-07-08T07:27:35Z</time>
      </trkpt>
      <trkpt lat="43.01298" lon="0.31098">
        <ele>932.4</ele>
        <time>2026-07-08T07:27:36Z</time>
      </trkpt>
      <trkpt lat="43.01298" lon="0.31098">
        <ele>933.4</ele>
        <time>2026-07-08T07:27:37Z</time>
      </trkpt>
      <trkpt lat="43.01297" lon="0.31097">
        <ele>933.4</ele>
        <time>2026-07-08T07:27:38Z</time>
      </trkpt>
      <trkpt lat="43.01296" lon="0.31097">
        <ele>934.4</ele>
        <time>2026-07-08T07:27:39Z</time>
      </trkpt>
      <trkpt lat="43.01296" lon="0.31096">
        <ele>934.4</ele>
        <time>2026-07-08T07:27:40Z</time>
      </trkpt>
      <trkpt lat="43.01295" lon="0.31096">
        <ele>934.4</ele>
        <time>2026-07-08T07:27:41Z</time>
      </trkpt>
      <trkpt lat="43.01295" lon="0.31096">
        <ele>934.4</ele>
        <time>2026-07-08T07:27:42Z</time>
      </trkpt>
      <trkpt lat="43.01294" lon="0.31096">
        <ele>934.4</ele>
        <time>2026-07-08T07:27:43Z</time>
      </trkpt>
      <trkpt lat="43.01294" lon="0.31095">
        <ele>934.4</ele>
        <time>2026-07-08T07:27:43Z</time>
      </trkpt>
      <trkpt lat="43.01293" lon="0.31095">
        <ele>934.4</ele>
        <time>2026-07-08T07:27:44Z</time>
      </trkpt>
      <trkpt lat="43.01293" lon="0.31095">
        <ele>934.4</ele>
        <time>2026-07-08T07:27:45Z</time>
      </trkpt>
      <trkpt lat="43.01292" lon="0.31094">
        <ele>934.4</ele>
        <time>2026-07-08T07:27:46Z</time>
      </trkpt>
      <trkpt lat="43.01292" lon="0.31094">
        <ele>934.4</ele>
        <time>2026-07-08T07:27:47Z</time>
      </trkpt>
      <trkpt lat="43.01291" lon="0.31093">
        <ele>934.4</ele>
        <time>2026-07-08T07:27:48Z</time>
      </trkpt>
      <trkpt lat="43.01291" lon="0.31093">
        <ele>934.4</ele>
        <time>2026-07-08T07:27:49Z</time>
      </trkpt>
      <trkpt lat="43.0129" lon="0.31092">
        <ele>934.4</ele>
        <time>2026-07-08T07:27:50Z</time>
      </trkpt>
      <trkpt lat="43.0129" lon="0.31091">
        <ele>934.4</ele>
        <time>2026-07-08T07:27:51Z</time>
      </trkpt>
      <trkpt lat="43.01289" lon="0.31091">
        <ele>933.4</ele>
        <time>2026-07-08T07:27:52Z</time>
      </trkpt>
      <trkpt lat="43.01289" lon="0.31091">
        <ele>933.4</ele>
        <time>2026-07-08T07:27:53Z</time>
      </trkpt>
      <trkpt lat="43.01289" lon="0.3109">
        <ele>933.4</ele>
        <time>2026-07-08T07:27:53Z</time>
      </trkpt>
      <trkpt lat="43.01288" lon="0.3109">
        <ele>933.4</ele>
        <time>2026-07-08T07:27:54Z</time>
      </trkpt>
      <trkpt lat="43.01288" lon="0.31089">
        <ele>933.4</ele>
        <time>2026-07-08T07:27:55Z</time>
      </trkpt>
      <trkpt lat="43.01288" lon="0.31088">
        <ele>933.4</ele>
        <time>2026-07-08T07:27:56Z</time>
      </trkpt>
      <trkpt lat="43.01287" lon="0.31087">
        <ele>932.4</ele>
        <time>2026-07-08T07:27:57Z</time>
      </trkpt>
      <trkpt lat="43.01287" lon="0.31086">
        <ele>932.4</ele>
        <time>2026-07-08T07:27:58Z</time>
      </trkpt>
      <trkpt lat="43.01287" lon="0.31085">
        <ele>932.4</ele>
        <time>2026-07-08T07:27:59Z</time>
      </trkpt>
      <trkpt lat="43.01287" lon="0.31084">
        <ele>932.4</ele>
        <time>2026-07-08T07:28:00Z</time>
      </trkpt>
      <trkpt lat="43.01287" lon="0.31083">
        <ele>932.4</ele>
        <time>2026-07-08T07:28:01Z</time>
      </trkpt>
      <trkpt lat="43.01287" lon="0.31082">
        <ele>932.4</ele>
        <time>2026-07-08T07:28:02Z</time>
      </trkpt>
      <trkpt lat="43.01287" lon="0.31081">
        <ele>932.4</ele>
        <time>2026-07-08T07:28:03Z</time>
      </trkpt>
      <trkpt lat="43.01286" lon="0.3108">
        <ele>934.4</ele>
        <time>2026-07-08T07:28:03Z</time>
      </trkpt>
      <trkpt lat="43.01286" lon="0.31079">
        <ele>933.4</ele>
        <time>2026-07-08T07:28:04Z</time>
      </trkpt>
      <trkpt lat="43.01286" lon="0.31078">
        <ele>933.4</ele>
        <time>2026-07-08T07:28:05Z</time>
      </trkpt>
      <trkpt lat="43.01286" lon="0.31078">
        <ele>933.4</ele>
        <time>2026-07-08T07:28:06Z</time>
      </trkpt>
      <trkpt lat="43.01286" lon="0.31078">
        <ele>933.4</ele>
        <time>2026-07-08T07:28:07Z</time>
      </trkpt>
      <trkpt lat="43.01286" lon="0.31077">
        <ele>933.4</ele>
        <time>2026-07-08T07:28:08Z</time>
      </trkpt>
      <trkpt lat="43.01285" lon="0.31076">
        <ele>933.4</ele>
        <time>2026-07-08T07:28:09Z</time>
      </trkpt>
      <trkpt lat="43.01285" lon="0.31075">
        <ele>933.4</ele>
        <time>2026-07-08T07:28:10Z</time>
      </trkpt>
      <trkpt lat="43.01285" lon="0.31074">
        <ele>933.4</ele>
        <time>2026-07-08T07:28:11Z</time>
      </trkpt>
      <trkpt lat="43.01284" lon="0.31073">
        <ele>934.4</ele>
        <time>2026-07-08T07:28:12Z</time>
      </trkpt>
      <trkpt lat="43.01284" lon="0.31072">
        <ele>934.4</ele>
        <time>2026-07-08T07:28:13Z</time>
      </trkpt>
      <trkpt lat="43.01283" lon="0.31072">
        <ele>935.4</ele>
        <time>2026-07-08T07:28:14Z</time>
      </trkpt>
      <trkpt lat="43.01283" lon="0.31071">
        <ele>934.4</ele>
        <time>2026-07-08T07:28:15Z</time>
      </trkpt>
      <trkpt lat="43.01283" lon="0.31072">
        <ele>934.4</ele>
        <time>2026-07-08T07:28:15Z</time>
      </trkpt>
      <trkpt lat="43.01283" lon="0.31072">
        <ele>934.4</ele>
        <time>2026-07-08T07:28:16Z</time>
      </trkpt>
      <trkpt lat="43.01283" lon="0.31072">
        <ele>934.4</ele>
        <time>2026-07-08T07:28:16Z</time>
      </trkpt>
      <trkpt lat="43.01283" lon="0.31073">
        <ele>934.4</ele>
        <time>2026-07-08T07:28:17Z</time>
      </trkpt>
      <trkpt lat="43.01282" lon="0.31073">
        <ele>935.4</ele>
        <time>2026-07-08T07:28:18Z</time>
      </trkpt>
      <trkpt lat="43.01282" lon="0.31073">
        <ele>935.4</ele>
        <time>2026-07-08T07:28:19Z</time>
      </trkpt>
      <trkpt lat="43.01281" lon="0.31073">
        <ele>936.4</ele>
        <time>2026-07-08T07:28:20Z</time>
      </trkpt>
      <trkpt lat="43.01281" lon="0.31073">
        <ele>936.4</ele>
        <time>2026-07-08T07:28:20Z</time>
      </trkpt>
      <trkpt lat="43.01281" lon="0.31072">
        <ele>936.4</ele>
        <time>2026-07-08T07:28:21Z</time>
      </trkpt>
      <trkpt lat="43.0128" lon="0.31072">
        <ele>936.4</ele>
        <time>2026-07-08T07:28:22Z</time>
      </trkpt>
      <trkpt lat="43.0128" lon="0.31072">
        <ele>936.4</ele>
        <time>2026-07-08T07:28:22Z</time>
      </trkpt>
      <trkpt lat="43.0128" lon="0.31072">
        <ele>936.4</ele>
        <time>2026-07-08T07:28:23Z</time>
      </trkpt>
      <trkpt lat="43.01279" lon="0.31072">
        <ele>936.4</ele>
        <time>2026-07-08T07:28:24Z</time>
      </trkpt>
      <trkpt lat="43.01278" lon="0.31072">
        <ele>936.4</ele>
        <time>2026-07-08T07:28:25Z</time>
      </trkpt>
      <trkpt lat="43.01277" lon="0.31073">
        <ele>936.4</ele>
        <time>2026-07-08T07:28:26Z</time>
      </trkpt>
      <trkpt lat="43.01277" lon="0.31073">
        <ele>936.4</ele>
        <time>2026-07-08T07:28:27Z</time>
      </trkpt>
      <trkpt lat="43.01277" lon="0.31073">
        <ele>936.4</ele>
        <time>2026-07-08T07:28:27Z</time>
      </trkpt>
      <trkpt lat="43.01276" lon="0.31074">
        <ele>936.4</ele>
        <time>2026-07-08T07:28:28Z</time>
      </trkpt>
      <trkpt lat="43.01276" lon="0.31074">
        <ele>936.4</ele>
        <time>2026-07-08T07:28:29Z</time>
      </trkpt>
      <trkpt lat="43.01275" lon="0.31074">
        <ele>936.4</ele>
        <time>2026-07-08T07:28:30Z</time>
      </trkpt>
      <trkpt lat="43.01275" lon="0.31074">
        <ele>936.4</ele>
        <time>2026-07-08T07:28:31Z</time>
      </trkpt>
      <trkpt lat="43.01274" lon="0.31074">
        <ele>936.4</ele>
        <time>2026-07-08T07:28:31Z</time>
      </trkpt>
      <trkpt lat="43.01274" lon="0.31074">
        <ele>936.4</ele>
        <time>2026-07-08T07:28:32Z</time>
      </trkpt>
      <trkpt lat="43.01273" lon="0.31074">
        <ele>936.4</ele>
        <time>2026-07-08T07:28:33Z</time>
      </trkpt>
      <trkpt lat="43.01272" lon="0.31075">
        <ele>936.4</ele>
        <time>2026-07-08T07:28:34Z</time>
      </trkpt>
      <trkpt lat="43.01272" lon="0.31075">
        <ele>936.4</ele>
        <time>2026-07-08T07:28:35Z</time>
      </trkpt>
      <trkpt lat="43.01271" lon="0.31075">
        <ele>936.4</ele>
        <time>2026-07-08T07:28:36Z</time>
      </trkpt>
      <trkpt lat="43.01271" lon="0.31075">
        <ele>936.4</ele>
        <time>2026-07-08T07:28:37Z</time>
      </trkpt>
      <trkpt lat="43.01271" lon="0.31075">
        <ele>935.4</ele>
        <time>2026-07-08T07:28:37Z</time>
      </trkpt>
      <trkpt lat="43.01271" lon="0.31074">
        <ele>935.4</ele>
        <time>2026-07-08T07:28:38Z</time>
      </trkpt>
      <trkpt lat="43.0127" lon="0.31074">
        <ele>935.4</ele>
        <time>2026-07-08T07:28:39Z</time>
      </trkpt>
      <trkpt lat="43.0127" lon="0.31073">
        <ele>935.4</ele>
        <time>2026-07-08T07:28:40Z</time>
      </trkpt>
      <trkpt lat="43.0127" lon="0.31072">
        <ele>935.4</ele>
        <time>2026-07-08T07:28:41Z</time>
      </trkpt>
      <trkpt lat="43.0127" lon="0.31071">
        <ele>935.4</ele>
        <time>2026-07-08T07:28:42Z</time>
      </trkpt>
      <trkpt lat="43.0127" lon="0.3107">
        <ele>935.4</ele>
        <time>2026-07-08T07:28:42Z</time>
      </trkpt>
      <trkpt lat="43.01271" lon="0.3107">
        <ele>935.4</ele>
        <time>2026-07-08T07:28:43Z</time>
      </trkpt>
      <trkpt lat="43.01271" lon="0.31069">
        <ele>936.4</ele>
        <time>2026-07-08T07:28:43Z</time>
      </trkpt>
      <trkpt lat="43.0127" lon="0.31068">
        <ele>935.4</ele>
        <time>2026-07-08T07:28:44Z</time>
      </trkpt>
      <trkpt lat="43.0127" lon="0.31067">
        <ele>936.4</ele>
        <time>2026-07-08T07:28:45Z</time>
      </trkpt>
      <trkpt lat="43.0127" lon="0.31066">
        <ele>936.4</ele>
        <time>2026-07-08T07:28:46Z</time>
      </trkpt>
      <trkpt lat="43.0127" lon="0.31065">
        <ele>936.4</ele>
        <time>2026-07-08T07:28:47Z</time>
      </trkpt>
      <trkpt lat="43.0127" lon="0.31064">
        <ele>935.4</ele>
        <time>2026-07-08T07:28:48Z</time>
      </trkpt>
      <trkpt lat="43.0127" lon="0.31064">
        <ele>936.4</ele>
        <time>2026-07-08T07:28:49Z</time>
      </trkpt>
      <trkpt lat="43.0127" lon="0.31063">
        <ele>936.4</ele>
        <time>2026-07-08T07:28:50Z</time>
      </trkpt>
      <trkpt lat="43.01269" lon="0.31063">
        <ele>936.4</ele>
        <time>2026-07-08T07:28:51Z</time>
      </trkpt>
      <trkpt lat="43.01269" lon="0.31063">
        <ele>936.4</ele>
        <time>2026-07-08T07:28:52Z</time>
      </trkpt>
      <trkpt lat="43.01269" lon="0.31064">
        <ele>936.4</ele>
        <time>2026-07-08T07:28:53Z</time>
      </trkpt>
      <trkpt lat="43.01269" lon="0.31064">
        <ele>937.4</ele>
        <time>2026-07-08T07:28:53Z</time>
      </trkpt>
      <trkpt lat="43.01268" lon="0.31065">
        <ele>937.4</ele>
        <time>2026-07-08T07:28:53Z</time>
      </trkpt>
      <trkpt lat="43.01268" lon="0.31065">
        <ele>937.4</ele>
        <time>2026-07-08T07:28:54Z</time>
      </trkpt>
      <trkpt lat="43.01267" lon="0.31065">
        <ele>937.4</ele>
        <time>2026-07-08T07:28:55Z</time>
      </trkpt>
      <trkpt lat="43.01266" lon="0.31065">
        <ele>937.4</ele>
        <time>2026-07-08T07:28:56Z</time>
      </trkpt>
      <trkpt lat="43.01266" lon="0.31065">
        <ele>937.4</ele>
        <time>2026-07-08T07:28:57Z</time>
      </trkpt>
      <trkpt lat="43.01265" lon="0.31065">
        <ele>937.4</ele>
        <time>2026-07-08T07:28:58Z</time>
      </trkpt>
      <trkpt lat="43.01264" lon="0.31065">
        <ele>937.4</ele>
        <time>2026-07-08T07:28:59Z</time>
      </trkpt>
      <trkpt lat="43.01263" lon="0.31066">
        <ele>937.4</ele>
        <time>2026-07-08T07:29:00Z</time>
      </trkpt>
      <trkpt lat="43.01263" lon="0.31066">
        <ele>937.4</ele>
        <time>2026-07-08T07:29:00Z</time>
      </trkpt>
      <trkpt lat="43.01262" lon="0.31065">
        <ele>937.4</ele>
        <time>2026-07-08T07:29:01Z</time>
      </trkpt>
      <trkpt lat="43.01262" lon="0.31065">
        <ele>937.4</ele>
        <time>2026-07-08T07:29:02Z</time>
      </trkpt>
      <trkpt lat="43.01261" lon="0.31065">
        <ele>937.4</ele>
        <time>2026-07-08T07:29:03Z</time>
      </trkpt>
      <trkpt lat="43.01261" lon="0.31065">
        <ele>938.4</ele>
        <time>2026-07-08T07:29:04Z</time>
      </trkpt>
      <trkpt lat="43.0126" lon="0.31065">
        <ele>939.4</ele>
        <time>2026-07-08T07:29:05Z</time>
      </trkpt>
      <trkpt lat="43.0126" lon="0.31065">
        <ele>939.4</ele>
        <time>2026-07-08T07:29:05Z</time>
      </trkpt>
      <trkpt lat="43.0126" lon="0.31065">
        <ele>939.4</ele>
        <time>2026-07-08T07:29:06Z</time>
      </trkpt>
      <trkpt lat="43.01259" lon="0.31066">
        <ele>940.4</ele>
        <time>2026-07-08T07:29:07Z</time>
      </trkpt>
      <trkpt lat="43.01259" lon="0.31067">
        <ele>940.4</ele>
        <time>2026-07-08T07:29:08Z</time>
      </trkpt>
      <trkpt lat="43.01259" lon="0.31067">
        <ele>940.4</ele>
        <time>2026-07-08T07:29:09Z</time>
      </trkpt>
      <trkpt lat="43.01259" lon="0.31067">
        <ele>940.4</ele>
        <time>2026-07-08T07:29:10Z</time>
      </trkpt>
      <trkpt lat="43.01259" lon="0.31067">
        <ele>941.4</ele>
        <time>2026-07-08T07:29:10Z</time>
      </trkpt>
      <trkpt lat="43.01259" lon="0.31067">
        <ele>940.4</ele>
        <time>2026-07-08T07:29:11Z</time>
      </trkpt>
      <trkpt lat="43.01259" lon="0.31066">
        <ele>940.4</ele>
        <time>2026-07-08T07:29:12Z</time>
      </trkpt>
      <trkpt lat="43.01258" lon="0.31065">
        <ele>940.4</ele>
        <time>2026-07-08T07:29:13Z</time>
      </trkpt>
      <trkpt lat="43.01258" lon="0.31064">
        <ele>940.4</ele>
        <time>2026-07-08T07:29:14Z</time>
      </trkpt>
      <trkpt lat="43.01258" lon="0.31064">
        <ele>940.4</ele>
        <time>2026-07-08T07:29:14Z</time>
      </trkpt>
      <trkpt lat="43.01258" lon="0.31063">
        <ele>940.4</ele>
        <time>2026-07-08T07:29:15Z</time>
      </trkpt>
      <trkpt lat="43.01257" lon="0.31063">
        <ele>941.4</ele>
        <time>2026-07-08T07:29:16Z</time>
      </trkpt>
      <trkpt lat="43.01257" lon="0.31062">
        <ele>941.4</ele>
        <time>2026-07-08T07:29:17Z</time>
      </trkpt>
      <trkpt lat="43.01256" lon="0.31061">
        <ele>941.4</ele>
        <time>2026-07-08T07:29:18Z</time>
      </trkpt>
      <trkpt lat="43.01256" lon="0.31061">
        <ele>940.4</ele>
        <time>2026-07-08T07:29:19Z</time>
      </trkpt>
      <trkpt lat="43.01255" lon="0.3106">
        <ele>940.4</ele>
        <time>2026-07-08T07:29:20Z</time>
      </trkpt>
      <trkpt lat="43.01255" lon="0.3106">
        <ele>942.4</ele>
        <time>2026-07-08T07:29:21Z</time>
      </trkpt>
      <trkpt lat="43.01255" lon="0.31061">
        <ele>943.4</ele>
        <time>2026-07-08T07:29:21Z</time>
      </trkpt>
      <trkpt lat="43.01255" lon="0.31061">
        <ele>943.4</ele>
        <time>2026-07-08T07:29:22Z</time>
      </trkpt>
      <trkpt lat="43.01254" lon="0.31062">
        <ele>943.4</ele>
        <time>2026-07-08T07:29:23Z</time>
      </trkpt>
      <trkpt lat="43.01253" lon="0.31062">
        <ele>943.4</ele>
        <time>2026-07-08T07:29:24Z</time>
      </trkpt>
      <trkpt lat="43.01253" lon="0.31063">
        <ele>943.4</ele>
        <time>2026-07-08T07:29:25Z</time>
      </trkpt>
      <trkpt lat="43.01253" lon="0.31063">
        <ele>944.4</ele>
        <time>2026-07-08T07:29:26Z</time>
      </trkpt>
      <trkpt lat="43.01252" lon="0.31063">
        <ele>943.4</ele>
        <time>2026-07-08T07:29:27Z</time>
      </trkpt>
      <trkpt lat="43.01252" lon="0.31064">
        <ele>944.4</ele>
        <time>2026-07-08T07:29:27Z</time>
      </trkpt>
      <trkpt lat="43.01251" lon="0.31064">
        <ele>944.4</ele>
        <time>2026-07-08T07:29:28Z</time>
      </trkpt>
      <trkpt lat="43.01251" lon="0.31065">
        <ele>944.4</ele>
        <time>2026-07-08T07:29:29Z</time>
      </trkpt>
      <trkpt lat="43.0125" lon="0.31065">
        <ele>944.4</ele>
        <time>2026-07-08T07:29:29Z</time>
      </trkpt>
      <trkpt lat="43.0125" lon="0.31065">
        <ele>945.4</ele>
        <time>2026-07-08T07:29:30Z</time>
      </trkpt>
      <trkpt lat="43.01249" lon="0.31066">
        <ele>945.4</ele>
        <time>2026-07-08T07:29:31Z</time>
      </trkpt>
      <trkpt lat="43.01249" lon="0.31066">
        <ele>945.4</ele>
        <time>2026-07-08T07:29:32Z</time>
      </trkpt>
      <trkpt lat="43.01248" lon="0.31067">
        <ele>945.4</ele>
        <time>2026-07-08T07:29:33Z</time>
      </trkpt>
      <trkpt lat="43.01248" lon="0.31067">
        <ele>945.4</ele>
        <time>2026-07-08T07:29:33Z</time>
      </trkpt>
      <trkpt lat="43.01248" lon="0.31068">
        <ele>945.4</ele>
        <time>2026-07-08T07:29:34Z</time>
      </trkpt>
      <trkpt lat="43.01248" lon="0.31069">
        <ele>947.4</ele>
        <time>2026-07-08T07:29:35Z</time>
      </trkpt>
      <trkpt lat="43.01249" lon="0.31069">
        <ele>947.4</ele>
        <time>2026-07-08T07:29:36Z</time>
      </trkpt>
      <trkpt lat="43.0125" lon="0.31068">
        <ele>947.4</ele>
        <time>2026-07-08T07:29:37Z</time>
      </trkpt>
      <trkpt lat="43.01251" lon="0.31068">
        <ele>948.4</ele>
        <time>2026-07-08T07:29:38Z</time>
      </trkpt>
      <trkpt lat="43.01251" lon="0.31068">
        <ele>948.4</ele>
        <time>2026-07-08T07:29:39Z</time>
      </trkpt>
      <trkpt lat="43.01252" lon="0.31068">
        <ele>948.4</ele>
        <time>2026-07-08T07:29:40Z</time>
      </trkpt>
      <trkpt lat="43.01252" lon="0.31068">
        <ele>950.4</ele>
        <time>2026-07-08T07:29:41Z</time>
      </trkpt>
      <trkpt lat="43.01252" lon="0.31068">
        <ele>950.4</ele>
        <time>2026-07-08T07:29:42Z</time>
      </trkpt>
      <trkpt lat="43.01252" lon="0.31068">
        <ele>951.4</ele>
        <time>2026-07-08T07:29:43Z</time>
      </trkpt>
      <trkpt lat="43.01252" lon="0.31068">
        <ele>951.4</ele>
        <time>2026-07-08T07:29:44Z</time>
      </trkpt>
      <trkpt lat="43.01252" lon="0.31068">
        <ele>950.4</ele>
        <time>2026-07-08T07:29:45Z</time>
      </trkpt>
      <trkpt lat="43.01252" lon="0.31067">
        <ele>950.4</ele>
        <time>2026-07-08T07:29:46Z</time>
      </trkpt>
      <trkpt lat="43.01252" lon="0.31067">
        <ele>950.4</ele>
        <time>2026-07-08T07:29:46Z</time>
      </trkpt>
      <trkpt lat="43.01251" lon="0.31067">
        <ele>950.4</ele>
        <time>2026-07-08T07:29:47Z</time>
      </trkpt>
      <trkpt lat="43.01251" lon="0.31067">
        <ele>950.4</ele>
        <time>2026-07-08T07:29:47Z</time>
      </trkpt>
      <trkpt lat="43.01251" lon="0.31068">
        <ele>950.4</ele>
        <time>2026-07-08T07:29:48Z</time>
      </trkpt>
      <trkpt lat="43.01251" lon="0.31068">
        <ele>950.4</ele>
        <time>2026-07-08T07:29:48Z</time>
      </trkpt>
      <trkpt lat="43.01251" lon="0.31068">
        <ele>950.4</ele>
        <time>2026-07-08T07:29:49Z</time>
      </trkpt>
      <trkpt lat="43.0125" lon="0.31069">
        <ele>950.4</ele>
        <time>2026-07-08T07:29:50Z</time>
      </trkpt>
      <trkpt lat="43.01249" lon="0.31069">
        <ele>950.4</ele>
        <time>2026-07-08T07:29:50Z</time>
      </trkpt>
      <trkpt lat="43.01248" lon="0.3107">
        <ele>951.4</ele>
        <time>2026-07-08T07:29:51Z</time>
      </trkpt>
      <trkpt lat="43.01247" lon="0.3107">
        <ele>950.4</ele>
        <time>2026-07-08T07:29:52Z</time>
      </trkpt>
      <trkpt lat="43.01247" lon="0.3107">
        <ele>951.4</ele>
        <time>2026-07-08T07:29:53Z</time>
      </trkpt>
      <trkpt lat="43.01246" lon="0.31071">
        <ele>950.4</ele>
        <time>2026-07-08T07:29:54Z</time>
      </trkpt>
      <trkpt lat="43.01246" lon="0.31071">
        <ele>950.4</ele>
        <time>2026-07-08T07:29:55Z</time>
      </trkpt>
      <trkpt lat="43.01247" lon="0.3107">
        <ele>951.4</ele>
        <time>2026-07-08T07:29:56Z</time>
      </trkpt>
      <trkpt lat="43.01247" lon="0.3107">
        <ele>951.4</ele>
        <time>2026-07-08T07:29:57Z</time>
      </trkpt>
      <trkpt lat="43.01247" lon="0.3107">
        <ele>951.4</ele>
        <time>2026-07-08T07:29:58Z</time>
      </trkpt>
      <trkpt lat="43.01247" lon="0.3107">
        <ele>953.4</ele>
        <time>2026-07-08T07:29:59Z</time>
      </trkpt>
      <trkpt lat="43.01247" lon="0.3107">
        <ele>953.4</ele>
        <time>2026-07-08T07:30:00Z</time>
      </trkpt>
      <trkpt lat="43.01247" lon="0.3107">
        <ele>954.4</ele>
        <time>2026-07-08T07:30:01Z</time>
      </trkpt>
      <trkpt lat="43.01247" lon="0.3107">
        <ele>954.4</ele>
        <time>2026-07-08T07:30:01Z</time>
      </trkpt>
      <trkpt lat="43.01247" lon="0.3107">
        <ele>954.4</ele>
        <time>2026-07-08T07:30:02Z</time>
      </trkpt>
      <trkpt lat="43.01247" lon="0.3107">
        <ele>955.4</ele>
        <time>2026-07-08T07:30:03Z</time>
      </trkpt>
      <trkpt lat="43.01246" lon="0.3107">
        <ele>955.4</ele>
        <time>2026-07-08T07:30:04Z</time>
      </trkpt>
      <trkpt lat="43.01246" lon="0.3107">
        <ele>955.4</ele>
        <time>2026-07-08T07:30:05Z</time>
      </trkpt>
      <trkpt lat="43.01246" lon="0.3107">
        <ele>954.4</ele>
        <time>2026-07-08T07:30:05Z</time>
      </trkpt>
      <trkpt lat="43.01245" lon="0.3107">
        <ele>954.4</ele>
        <time>2026-07-08T07:30:06Z</time>
      </trkpt>
      <trkpt lat="43.01245" lon="0.3107">
        <ele>954.4</ele>
        <time>2026-07-08T07:30:07Z</time>
      </trkpt>
      <trkpt lat="43.01244" lon="0.3107">
        <ele>954.4</ele>
        <time>2026-07-08T07:30:07Z</time>
      </trkpt>
      <trkpt lat="43.01244" lon="0.3107">
        <ele>953.4</ele>
        <time>2026-07-08T07:30:08Z</time>
      </trkpt>
      <trkpt lat="43.01243" lon="0.3107">
        <ele>953.4</ele>
        <time>2026-07-08T07:30:09Z</time>
      </trkpt>
      <trkpt lat="43.01242" lon="0.3107">
        <ele>954.4</ele>
        <time>2026-07-08T07:30:10Z</time>
      </trkpt>
      <trkpt lat="43.01241" lon="0.3107">
        <ele>953.4</ele>
        <time>2026-07-08T07:30:10Z</time>
      </trkpt>
      <trkpt lat="43.0124" lon="0.3107">
        <ele>953.4</ele>
        <time>2026-07-08T07:30:11Z</time>
      </trkpt>
      <trkpt lat="43.01239" lon="0.31071">
        <ele>953.4</ele>
        <time>2026-07-08T07:30:12Z</time>
      </trkpt>
      <trkpt lat="43.01239" lon="0.31071">
        <ele>953.4</ele>
        <time>2026-07-08T07:30:13Z</time>
      </trkpt>
      <trkpt lat="43.01238" lon="0.31071">
        <ele>953.4</ele>
        <time>2026-07-08T07:30:13Z</time>
      </trkpt>
      <trkpt lat="43.01238" lon="0.31072">
        <ele>953.4</ele>
        <time>2026-07-08T07:30:14Z</time>
      </trkpt>
      <trkpt lat="43.01237" lon="0.31072">
        <ele>953.4</ele>
        <time>2026-07-08T07:30:15Z</time>
      </trkpt>
      <trkpt lat="43.01236" lon="0.31072">
        <ele>953.4</ele>
        <time>2026-07-08T07:30:16Z</time>
      </trkpt>
      <trkpt lat="43.01236" lon="0.31072">
        <ele>953.4</ele>
        <time>2026-07-08T07:30:16Z</time>
      </trkpt>
      <trkpt lat="43.01235" lon="0.31073">
        <ele>953.4</ele>
        <time>2026-07-08T07:30:17Z</time>
      </trkpt>
      <trkpt lat="43.01235" lon="0.31073">
        <ele>953.4</ele>
        <time>2026-07-08T07:30:17Z</time>
      </trkpt>
      <trkpt lat="43.01235" lon="0.31073">
        <ele>952.4</ele>
        <time>2026-07-08T07:30:18Z</time>
      </trkpt>
      <trkpt lat="43.01234" lon="0.31073">
        <ele>952.4</ele>
        <time>2026-07-08T07:30:19Z</time>
      </trkpt>
      <trkpt lat="43.01233" lon="0.31073">
        <ele>952.4</ele>
        <time>2026-07-08T07:30:20Z</time>
      </trkpt>
      <trkpt lat="43.01233" lon="0.31073">
        <ele>952.4</ele>
        <time>2026-07-08T07:30:20Z</time>
      </trkpt>
      <trkpt lat="43.01232" lon="0.31073">
        <ele>953.4</ele>
        <time>2026-07-08T07:30:21Z</time>
      </trkpt>
      <trkpt lat="43.01232" lon="0.31073">
        <ele>953.4</ele>
        <time>2026-07-08T07:30:22Z</time>
      </trkpt>
      <trkpt lat="43.01231" lon="0.31073">
        <ele>954.4</ele>
        <time>2026-07-08T07:30:23Z</time>
      </trkpt>
      <trkpt lat="43.0123" lon="0.31074">
        <ele>954.4</ele>
        <time>2026-07-08T07:30:24Z</time>
      </trkpt>
      <trkpt lat="43.0123" lon="0.31074">
        <ele>954.4</ele>
        <time>2026-07-08T07:30:25Z</time>
      </trkpt>
      <trkpt lat="43.0123" lon="0.31073">
        <ele>955.4</ele>
        <time>2026-07-08T07:30:26Z</time>
      </trkpt>
      <trkpt lat="43.01229" lon="0.31073">
        <ele>955.4</ele>
        <time>2026-07-08T07:30:27Z</time>
      </trkpt>
      <trkpt lat="43.01229" lon="0.31073">
        <ele>954.4</ele>
        <time>2026-07-08T07:30:27Z</time>
      </trkpt>
      <trkpt lat="43.01229" lon="0.31072">
        <ele>954.4</ele>
        <time>2026-07-08T07:30:28Z</time>
      </trkpt>
      <trkpt lat="43.01229" lon="0.31072">
        <ele>955.4</ele>
        <time>2026-07-08T07:30:29Z</time>
      </trkpt>
      <trkpt lat="43.01229" lon="0.31072">
        <ele>955.4</ele>
        <time>2026-07-08T07:30:30Z</time>
      </trkpt>
      <trkpt lat="43.01229" lon="0.31072">
        <ele>954.4</ele>
        <time>2026-07-08T07:30:31Z</time>
      </trkpt>
      <trkpt lat="43.01228" lon="0.31071">
        <ele>954.4</ele>
        <time>2026-07-08T07:30:31Z</time>
      </trkpt>
      <trkpt lat="43.01228" lon="0.31072">
        <ele>955.4</ele>
        <time>2026-07-08T07:30:32Z</time>
      </trkpt>
      <trkpt lat="43.01227" lon="0.31072">
        <ele>955.4</ele>
        <time>2026-07-08T07:30:33Z</time>
      </trkpt>
      <trkpt lat="43.01227" lon="0.31072">
        <ele>955.4</ele>
        <time>2026-07-08T07:30:34Z</time>
      </trkpt>
      <trkpt lat="43.01227" lon="0.31072">
        <ele>956.4</ele>
        <time>2026-07-08T07:30:35Z</time>
      </trkpt>
      <trkpt lat="43.01228" lon="0.31072">
        <ele>956.4</ele>
        <time>2026-07-08T07:30:36Z</time>
      </trkpt>
      <trkpt lat="43.01228" lon="0.31071">
        <ele>956.4</ele>
        <time>2026-07-08T07:30:37Z</time>
      </trkpt>
      <trkpt lat="43.01228" lon="0.31071">
        <ele>955.4</ele>
        <time>2026-07-08T07:30:38Z</time>
      </trkpt>
      <trkpt lat="43.01228" lon="0.31071">
        <ele>955.4</ele>
        <time>2026-07-08T07:30:39Z</time>
      </trkpt>
      <trkpt lat="43.01228" lon="0.31071">
        <ele>955.4</ele>
        <time>2026-07-08T07:30:40Z</time>
      </trkpt>
      <trkpt lat="43.01227" lon="0.31072">
        <ele>954.4</ele>
        <time>2026-07-08T07:30:41Z</time>
      </trkpt>
      <trkpt lat="43.01227" lon="0.31072">
        <ele>954.4</ele>
        <time>2026-07-08T07:30:42Z</time>
      </trkpt>
      <trkpt lat="43.01227" lon="0.31072">
        <ele>954.4</ele>
        <time>2026-07-08T07:30:43Z</time>
      </trkpt>
      <trkpt lat="43.01227" lon="0.31072">
        <ele>954.4</ele>
        <time>2026-07-08T07:30:44Z</time>
      </trkpt>
      <trkpt lat="43.01227" lon="0.31072">
        <ele>954.4</ele>
        <time>2026-07-08T07:30:45Z</time>
      </trkpt>
      <trkpt lat="43.01227" lon="0.31073">
        <ele>954.4</ele>
        <time>2026-07-08T07:30:45Z</time>
      </trkpt>
      <trkpt lat="43.01226" lon="0.31073">
        <ele>954.4</ele>
        <time>2026-07-08T07:30:46Z</time>
      </trkpt>
      <trkpt lat="43.01226" lon="0.31073">
        <ele>954.4</ele>
        <time>2026-07-08T07:30:47Z</time>
      </trkpt>
      <trkpt lat="43.01225" lon="0.31074">
        <ele>954.4</ele>
        <time>2026-07-08T07:30:47Z</time>
      </trkpt>
      <trkpt lat="43.01225" lon="0.31074">
        <ele>954.4</ele>
        <time>2026-07-08T07:30:48Z</time>
      </trkpt>
      <trkpt lat="43.01225" lon="0.31075">
        <ele>954.4</ele>
        <time>2026-07-08T07:30:49Z</time>
      </trkpt>
      <trkpt lat="43.01224" lon="0.31075">
        <ele>955.4</ele>
        <time>2026-07-08T07:30:49Z</time>
      </trkpt>
      <trkpt lat="43.01223" lon="0.31076">
        <ele>955.4</ele>
        <time>2026-07-08T07:30:50Z</time>
      </trkpt>
      <trkpt lat="43.01222" lon="0.31077">
        <ele>955.4</ele>
        <time>2026-07-08T07:30:50Z</time>
      </trkpt>
      <trkpt lat="43.01221" lon="0.31077">
        <ele>955.4</ele>
        <time>2026-07-08T07:30:51Z</time>
      </trkpt>
      <trkpt lat="43.0122" lon="0.31078">
        <ele>955.4</ele>
        <time>2026-07-08T07:30:52Z</time>
      </trkpt>
      <trkpt lat="43.01219" lon="0.31079">
        <ele>955.4</ele>
        <time>2026-07-08T07:30:52Z</time>
      </trkpt>
      <trkpt lat="43.01218" lon="0.31079">
        <ele>955.4</ele>
        <time>2026-07-08T07:30:53Z</time>
      </trkpt>
      <trkpt lat="43.01217" lon="0.3108">
        <ele>955.4</ele>
        <time>2026-07-08T07:30:54Z</time>
      </trkpt>
      <trkpt lat="43.01216" lon="0.3108">
        <ele>955.4</ele>
        <time>2026-07-08T07:30:55Z</time>
      </trkpt>
      <trkpt lat="43.01216" lon="0.3108">
        <ele>954.4</ele>
        <time>2026-07-08T07:30:56Z</time>
      </trkpt>
      <trkpt lat="43.01215" lon="0.3108">
        <ele>955.4</ele>
        <time>2026-07-08T07:30:56Z</time>
      </trkpt>
      <trkpt lat="43.01214" lon="0.3108">
        <ele>955.4</ele>
        <time>2026-07-08T07:30:57Z</time>
      </trkpt>
      <trkpt lat="43.01214" lon="0.3108">
        <ele>954.4</ele>
        <time>2026-07-08T07:30:57Z</time>
      </trkpt>
      <trkpt lat="43.01213" lon="0.3108">
        <ele>954.4</ele>
        <time>2026-07-08T07:30:58Z</time>
      </trkpt>
      <trkpt lat="43.01212" lon="0.31079">
        <ele>954.4</ele>
        <time>2026-07-08T07:30:59Z</time>
      </trkpt>
      <trkpt lat="43.0121" lon="0.31079">
        <ele>954.4</ele>
        <time>2026-07-08T07:31:00Z</time>
      </trkpt>
      <trkpt lat="43.0121" lon="0.31079">
        <ele>954.4</ele>
        <time>2026-07-08T07:31:00Z</time>
      </trkpt>
      <trkpt lat="43.01209" lon="0.31079">
        <ele>955.4</ele>
        <time>2026-07-08T07:31:01Z</time>
      </trkpt>
      <trkpt lat="43.01208" lon="0.31078">
        <ele>955.4</ele>
        <time>2026-07-08T07:31:02Z</time>
      </trkpt>
      <trkpt lat="43.01208" lon="0.31078">
        <ele>955.4</ele>
        <time>2026-07-08T07:31:03Z</time>
      </trkpt>
      <trkpt lat="43.01207" lon="0.31078">
        <ele>955.4</ele>
        <time>2026-07-08T07:31:03Z</time>
      </trkpt>
      <trkpt lat="43.01206" lon="0.31078">
        <ele>955.4</ele>
        <time>2026-07-08T07:31:04Z</time>
      </trkpt>
      <trkpt lat="43.01205" lon="0.31078">
        <ele>954.4</ele>
        <time>2026-07-08T07:31:05Z</time>
      </trkpt>
      <trkpt lat="43.01204" lon="0.31078">
        <ele>954.4</ele>
        <time>2026-07-08T07:31:06Z</time>
      </trkpt>
      <trkpt lat="43.01204" lon="0.31079">
        <ele>954.4</ele>
        <time>2026-07-08T07:31:07Z</time>
      </trkpt>
      <trkpt lat="43.01203" lon="0.31079">
        <ele>954.4</ele>
        <time>2026-07-08T07:31:07Z</time>
      </trkpt>
      <trkpt lat="43.01203" lon="0.31078">
        <ele>955.4</ele>
        <time>2026-07-08T07:31:08Z</time>
      </trkpt>
      <trkpt lat="43.01202" lon="0.31078">
        <ele>955.4</ele>
        <time>2026-07-08T07:31:09Z</time>
      </trkpt>
      <trkpt lat="43.01201" lon="0.31078">
        <ele>955.4</ele>
        <time>2026-07-08T07:31:10Z</time>
      </trkpt>
      <trkpt lat="43.01201" lon="0.31077">
        <ele>955.4</ele>
        <time>2026-07-08T07:31:10Z</time>
      </trkpt>
      <trkpt lat="43.01201" lon="0.31077">
        <ele>955.4</ele>
        <time>2026-07-08T07:31:11Z</time>
      </trkpt>
      <trkpt lat="43.012" lon="0.31077">
        <ele>955.4</ele>
        <time>2026-07-08T07:31:12Z</time>
      </trkpt>
      <trkpt lat="43.012" lon="0.31077">
        <ele>955.4</ele>
        <time>2026-07-08T07:31:12Z</time>
      </trkpt>
      <trkpt lat="43.01199" lon="0.31078">
        <ele>955.4</ele>
        <time>2026-07-08T07:31:13Z</time>
      </trkpt>
      <trkpt lat="43.01198" lon="0.31078">
        <ele>955.4</ele>
        <time>2026-07-08T07:31:14Z</time>
      </trkpt>
      <trkpt lat="43.01198" lon="0.31078">
        <ele>955.4</ele>
        <time>2026-07-08T07:31:15Z</time>
      </trkpt>
      <trkpt lat="43.01197" lon="0.31078">
        <ele>955.4</ele>
        <time>2026-07-08T07:31:15Z</time>
      </trkpt>
      <trkpt lat="43.01196" lon="0.31078">
        <ele>955.4</ele>
        <time>2026-07-08T07:31:16Z</time>
      </trkpt>
      <trkpt lat="43.01196" lon="0.31078">
        <ele>955.4</ele>
        <time>2026-07-08T07:31:17Z</time>
      </trkpt>
      <trkpt lat="43.01195" lon="0.31078">
        <ele>955.4</ele>
        <time>2026-07-08T07:31:17Z</time>
      </trkpt>
      <trkpt lat="43.01194" lon="0.31078">
        <ele>954.4</ele>
        <time>2026-07-08T07:31:18Z</time>
      </trkpt>
      <trkpt lat="43.01194" lon="0.31078">
        <ele>954.4</ele>
        <time>2026-07-08T07:31:19Z</time>
      </trkpt>
      <trkpt lat="43.01193" lon="0.31077">
        <ele>955.4</ele>
        <time>2026-07-08T07:31:20Z</time>
      </trkpt>
      <trkpt lat="43.01193" lon="0.31077">
        <ele>955.4</ele>
        <time>2026-07-08T07:31:20Z</time>
      </trkpt>
      <trkpt lat="43.01192" lon="0.31077">
        <ele>955.4</ele>
        <time>2026-07-08T07:31:21Z</time>
      </trkpt>
      <trkpt lat="43.01192" lon="0.31077">
        <ele>955.4</ele>
        <time>2026-07-08T07:31:22Z</time>
      </trkpt>
      <trkpt lat="43.01192" lon="0.31077">
        <ele>955.4</ele>
        <time>2026-07-08T07:31:22Z</time>
      </trkpt>
      <trkpt lat="43.01191" lon="0.31077">
        <ele>956.4</ele>
        <time>2026-07-08T07:31:23Z</time>
      </trkpt>
      <trkpt lat="43.0119" lon="0.31076">
        <ele>956.4</ele>
        <time>2026-07-08T07:31:24Z</time>
      </trkpt>
      <trkpt lat="43.0119" lon="0.31076">
        <ele>956.4</ele>
        <time>2026-07-08T07:31:24Z</time>
      </trkpt>
      <trkpt lat="43.0119" lon="0.31076">
        <ele>956.4</ele>
        <time>2026-07-08T07:31:25Z</time>
      </trkpt>
      <trkpt lat="43.01189" lon="0.31075">
        <ele>956.4</ele>
        <time>2026-07-08T07:31:26Z</time>
      </trkpt>
      <trkpt lat="43.01189" lon="0.31075">
        <ele>957.4</ele>
        <time>2026-07-08T07:31:26Z</time>
      </trkpt>
      <trkpt lat="43.01188" lon="0.31075">
        <ele>957.4</ele>
        <time>2026-07-08T07:31:27Z</time>
      </trkpt>
      <trkpt lat="43.01187" lon="0.31074">
        <ele>956.4</ele>
        <time>2026-07-08T07:31:28Z</time>
      </trkpt>
      <trkpt lat="43.01187" lon="0.31074">
        <ele>957.4</ele>
        <time>2026-07-08T07:31:28Z</time>
      </trkpt>
      <trkpt lat="43.01187" lon="0.31074">
        <ele>957.4</ele>
        <time>2026-07-08T07:31:29Z</time>
      </trkpt>
      <trkpt lat="43.01186" lon="0.31074">
        <ele>957.4</ele>
        <time>2026-07-08T07:31:30Z</time>
      </trkpt>
      <trkpt lat="43.01186" lon="0.31074">
        <ele>957.4</ele>
        <time>2026-07-08T07:31:31Z</time>
      </trkpt>
      <trkpt lat="43.01186" lon="0.31074">
        <ele>957.4</ele>
        <time>2026-07-08T07:31:31Z</time>
      </trkpt>
      <trkpt lat="43.01186" lon="0.31073">
        <ele>957.4</ele>
        <time>2026-07-08T07:31:32Z</time>
      </trkpt>
      <trkpt lat="43.01185" lon="0.31073">
        <ele>957.4</ele>
        <time>2026-07-08T07:31:33Z</time>
      </trkpt>
      <trkpt lat="43.01185" lon="0.31073">
        <ele>957.4</ele>
        <time>2026-07-08T07:31:34Z</time>
      </trkpt>
      <trkpt lat="43.01184" lon="0.31073">
        <ele>957.4</ele>
        <time>2026-07-08T07:31:34Z</time>
      </trkpt>
      <trkpt lat="43.01183" lon="0.31072">
        <ele>957.4</ele>
        <time>2026-07-08T07:31:35Z</time>
      </trkpt>
      <trkpt lat="43.01183" lon="0.31072">
        <ele>957.4</ele>
        <time>2026-07-08T07:31:36Z</time>
      </trkpt>
      <trkpt lat="43.01182" lon="0.31072">
        <ele>957.4</ele>
        <time>2026-07-08T07:31:37Z</time>
      </trkpt>
      <trkpt lat="43.01182" lon="0.31071">
        <ele>957.4</ele>
        <time>2026-07-08T07:31:37Z</time>
      </trkpt>
      <trkpt lat="43.01182" lon="0.31071">
        <ele>957.4</ele>
        <time>2026-07-08T07:31:38Z</time>
      </trkpt>
      <trkpt lat="43.01181" lon="0.3107">
        <ele>956.4</ele>
        <time>2026-07-08T07:31:39Z</time>
      </trkpt>
      <trkpt lat="43.01181" lon="0.3107">
        <ele>956.4</ele>
        <time>2026-07-08T07:31:39Z</time>
      </trkpt>
      <trkpt lat="43.01182" lon="0.31069">
        <ele>956.4</ele>
        <time>2026-07-08T07:31:40Z</time>
      </trkpt>
      <trkpt lat="43.01181" lon="0.31069">
        <ele>956.4</ele>
        <time>2026-07-08T07:31:41Z</time>
      </trkpt>
      <trkpt lat="43.01181" lon="0.31069">
        <ele>957.4</ele>
        <time>2026-07-08T07:31:42Z</time>
      </trkpt>
      <trkpt lat="43.01181" lon="0.31069">
        <ele>957.4</ele>
        <time>2026-07-08T07:31:42Z</time>
      </trkpt>
      <trkpt lat="43.0118" lon="0.3107">
        <ele>957.4</ele>
        <time>2026-07-08T07:31:43Z</time>
      </trkpt>
      <trkpt lat="43.0118" lon="0.31069">
        <ele>957.4</ele>
        <time>2026-07-08T07:31:44Z</time>
      </trkpt>
      <trkpt lat="43.01179" lon="0.31069">
        <ele>957.4</ele>
        <time>2026-07-08T07:31:44Z</time>
      </trkpt>
      <trkpt lat="43.01179" lon="0.31069">
        <ele>957.4</ele>
        <time>2026-07-08T07:31:45Z</time>
      </trkpt>
      <trkpt lat="43.01178" lon="0.31068">
        <ele>957.4</ele>
        <time>2026-07-08T07:31:46Z</time>
      </trkpt>
      <trkpt lat="43.01178" lon="0.31068">
        <ele>959.4</ele>
        <time>2026-07-08T07:31:47Z</time>
      </trkpt>
      <trkpt lat="43.01177" lon="0.31067">
        <ele>958.4</ele>
        <time>2026-07-08T07:31:47Z</time>
      </trkpt>
      <trkpt lat="43.01177" lon="0.31067">
        <ele>958.4</ele>
        <time>2026-07-08T07:31:48Z</time>
      </trkpt>
      <trkpt lat="43.01176" lon="0.31067">
        <ele>958.4</ele>
        <time>2026-07-08T07:31:49Z</time>
      </trkpt>
      <trkpt lat="43.01175" lon="0.31067">
        <ele>958.4</ele>
        <time>2026-07-08T07:31:50Z</time>
      </trkpt>
      <trkpt lat="43.01175" lon="0.31067">
        <ele>958.4</ele>
        <time>2026-07-08T07:31:51Z</time>
      </trkpt>
      <trkpt lat="43.01175" lon="0.31067">
        <ele>959.4</ele>
        <time>2026-07-08T07:31:51Z</time>
      </trkpt>
      <trkpt lat="43.01174" lon="0.31067">
        <ele>958.4</ele>
        <time>2026-07-08T07:31:52Z</time>
      </trkpt>
      <trkpt lat="43.01174" lon="0.31068">
        <ele>958.4</ele>
        <time>2026-07-08T07:31:53Z</time>
      </trkpt>
      <trkpt lat="43.01173" lon="0.31068">
        <ele>958.4</ele>
        <time>2026-07-08T07:31:54Z</time>
      </trkpt>
      <trkpt lat="43.01173" lon="0.31069">
        <ele>957.4</ele>
        <time>2026-07-08T07:31:55Z</time>
      </trkpt>
      <trkpt lat="43.01172" lon="0.31069">
        <ele>957.4</ele>
        <time>2026-07-08T07:31:56Z</time>
      </trkpt>
      <trkpt lat="43.01172" lon="0.31069">
        <ele>957.4</ele>
        <time>2026-07-08T07:31:57Z</time>
      </trkpt>
      <trkpt lat="43.01172" lon="0.31069">
        <ele>957.4</ele>
        <time>2026-07-08T07:31:57Z</time>
      </trkpt>
      <trkpt lat="43.01172" lon="0.3107">
        <ele>957.4</ele>
        <time>2026-07-08T07:31:58Z</time>
      </trkpt>
      <trkpt lat="43.01172" lon="0.3107">
        <ele>958.4</ele>
        <time>2026-07-08T07:31:59Z</time>
      </trkpt>
      <trkpt lat="43.01171" lon="0.3107">
        <ele>958.4</ele>
        <time>2026-07-08T07:32:00Z</time>
      </trkpt>
      <trkpt lat="43.01171" lon="0.31071">
        <ele>957.4</ele>
        <time>2026-07-08T07:32:01Z</time>
      </trkpt>
      <trkpt lat="43.01171" lon="0.31071">
        <ele>958.4</ele>
        <time>2026-07-08T07:32:01Z</time>
      </trkpt>
      <trkpt lat="43.01171" lon="0.31071">
        <ele>958.4</ele>
        <time>2026-07-08T07:32:02Z</time>
      </trkpt>
      <trkpt lat="43.0117" lon="0.31071">
        <ele>959.4</ele>
        <time>2026-07-08T07:32:03Z</time>
      </trkpt>
      <trkpt lat="43.0117" lon="0.31071">
        <ele>959.4</ele>
        <time>2026-07-08T07:32:04Z</time>
      </trkpt>
      <trkpt lat="43.0117" lon="0.3107">
        <ele>959.4</ele>
        <time>2026-07-08T07:32:05Z</time>
      </trkpt>
      <trkpt lat="43.01169" lon="0.3107">
        <ele>959.4</ele>
        <time>2026-07-08T07:32:06Z</time>
      </trkpt>
      <trkpt lat="43.01169" lon="0.3107">
        <ele>960.4</ele>
        <time>2026-07-08T07:32:06Z</time>
      </trkpt>
      <trkpt lat="43.01169" lon="0.3107">
        <ele>961.4</ele>
        <time>2026-07-08T07:32:07Z</time>
      </trkpt>
      <trkpt lat="43.01168" lon="0.31069">
        <ele>961.4</ele>
        <time>2026-07-08T07:32:08Z</time>
      </trkpt>
      <trkpt lat="43.01168" lon="0.31068">
        <ele>962.4</ele>
        <time>2026-07-08T07:32:09Z</time>
      </trkpt>
      <trkpt lat="43.01167" lon="0.31068">
        <ele>963.4</ele>
        <time>2026-07-08T07:32:10Z</time>
      </trkpt>
      <trkpt lat="43.01167" lon="0.31067">
        <ele>963.4</ele>
        <time>2026-07-08T07:32:10Z</time>
      </trkpt>
      <trkpt lat="43.01167" lon="0.31067">
        <ele>963.4</ele>
        <time>2026-07-08T07:32:11Z</time>
      </trkpt>
      <trkpt lat="43.01167" lon="0.31066">
        <ele>963.4</ele>
        <time>2026-07-08T07:32:12Z</time>
      </trkpt>
      <trkpt lat="43.01167" lon="0.31065">
        <ele>963.4</ele>
        <time>2026-07-08T07:32:13Z</time>
      </trkpt>
      <trkpt lat="43.01167" lon="0.31065">
        <ele>963.4</ele>
        <time>2026-07-08T07:32:14Z</time>
      </trkpt>
      <trkpt lat="43.01167" lon="0.31064">
        <ele>962.4</ele>
        <time>2026-07-08T07:32:15Z</time>
      </trkpt>
      <trkpt lat="43.01166" lon="0.31064">
        <ele>962.4</ele>
        <time>2026-07-08T07:32:16Z</time>
      </trkpt>
      <trkpt lat="43.01166" lon="0.31065">
        <ele>962.4</ele>
        <time>2026-07-08T07:32:16Z</time>
      </trkpt>
      <trkpt lat="43.01165" lon="0.31066">
        <ele>963.4</ele>
        <time>2026-07-08T07:32:17Z</time>
      </trkpt>
      <trkpt lat="43.01165" lon="0.31067">
        <ele>963.4</ele>
        <time>2026-07-08T07:32:18Z</time>
      </trkpt>
      <trkpt lat="43.01164" lon="0.31067">
        <ele>963.4</ele>
        <time>2026-07-08T07:32:19Z</time>
      </trkpt>
      <trkpt lat="43.01163" lon="0.31068">
        <ele>963.4</ele>
        <time>2026-07-08T07:32:20Z</time>
      </trkpt>
      <trkpt lat="43.01163" lon="0.31069">
        <ele>963.4</ele>
        <time>2026-07-08T07:32:20Z</time>
      </trkpt>
      <trkpt lat="43.01163" lon="0.31069">
        <ele>963.4</ele>
        <time>2026-07-08T07:32:21Z</time>
      </trkpt>
      <trkpt lat="43.01162" lon="0.3107">
        <ele>963.4</ele>
        <time>2026-07-08T07:32:22Z</time>
      </trkpt>
      <trkpt lat="43.01161" lon="0.3107">
        <ele>963.4</ele>
        <time>2026-07-08T07:32:23Z</time>
      </trkpt>
      <trkpt lat="43.01161" lon="0.3107">
        <ele>963.4</ele>
        <time>2026-07-08T07:32:24Z</time>
      </trkpt>
      <trkpt lat="43.0116" lon="0.3107">
        <ele>963.4</ele>
        <time>2026-07-08T07:32:24Z</time>
      </trkpt>
      <trkpt lat="43.0116" lon="0.3107">
        <ele>964.4</ele>
        <time>2026-07-08T07:32:25Z</time>
      </trkpt>
      <trkpt lat="43.01159" lon="0.3107">
        <ele>965.4</ele>
        <time>2026-07-08T07:32:26Z</time>
      </trkpt>
      <trkpt lat="43.01158" lon="0.3107">
        <ele>965.4</ele>
        <time>2026-07-08T07:32:27Z</time>
      </trkpt>
      <trkpt lat="43.01157" lon="0.31071">
        <ele>965.4</ele>
        <time>2026-07-08T07:32:28Z</time>
      </trkpt>
      <trkpt lat="43.01157" lon="0.31071">
        <ele>965.4</ele>
        <time>2026-07-08T07:32:29Z</time>
      </trkpt>
      <trkpt lat="43.01157" lon="0.31071">
        <ele>965.4</ele>
        <time>2026-07-08T07:32:30Z</time>
      </trkpt>
      <trkpt lat="43.01156" lon="0.31071">
        <ele>965.4</ele>
        <time>2026-07-08T07:32:30Z</time>
      </trkpt>
      <trkpt lat="43.01156" lon="0.31071">
        <ele>966.4</ele>
        <time>2026-07-08T07:32:31Z</time>
      </trkpt>
      <trkpt lat="43.01155" lon="0.3107">
        <ele>965.4</ele>
        <time>2026-07-08T07:32:32Z</time>
      </trkpt>
      <trkpt lat="43.01155" lon="0.3107">
        <ele>965.4</ele>
        <time>2026-07-08T07:32:33Z</time>
      </trkpt>
      <trkpt lat="43.01154" lon="0.3107">
        <ele>965.4</ele>
        <time>2026-07-08T07:32:34Z</time>
      </trkpt>
      <trkpt lat="43.01154" lon="0.31069">
        <ele>965.4</ele>
        <time>2026-07-08T07:32:35Z</time>
      </trkpt>
      <trkpt lat="43.01154" lon="0.31069">
        <ele>965.4</ele>
        <time>2026-07-08T07:32:36Z</time>
      </trkpt>
      <trkpt lat="43.01153" lon="0.31069">
        <ele>964.4</ele>
        <time>2026-07-08T07:32:36Z</time>
      </trkpt>
      <trkpt lat="43.01153" lon="0.31069">
        <ele>965.4</ele>
        <time>2026-07-08T07:32:37Z</time>
      </trkpt>
      <trkpt lat="43.01152" lon="0.3107">
        <ele>965.4</ele>
        <time>2026-07-08T07:32:38Z</time>
      </trkpt>
      <trkpt lat="43.01151" lon="0.3107">
        <ele>964.4</ele>
        <time>2026-07-08T07:32:39Z</time>
      </trkpt>
      <trkpt lat="43.01151" lon="0.3107">
        <ele>965.4</ele>
        <time>2026-07-08T07:32:40Z</time>
      </trkpt>
      <trkpt lat="43.0115" lon="0.3107">
        <ele>965.4</ele>
        <time>2026-07-08T07:32:40Z</time>
      </trkpt>
      <trkpt lat="43.0115" lon="0.3107">
        <ele>965.4</ele>
        <time>2026-07-08T07:32:41Z</time>
      </trkpt>
      <trkpt lat="43.01149" lon="0.3107">
        <ele>965.4</ele>
        <time>2026-07-08T07:32:42Z</time>
      </trkpt>
      <trkpt lat="43.01149" lon="0.3107">
        <ele>964.4</ele>
        <time>2026-07-08T07:32:43Z</time>
      </trkpt>
      <trkpt lat="43.0115" lon="0.31071">
        <ele>965.4</ele>
        <time>2026-07-08T07:32:44Z</time>
      </trkpt>
      <trkpt lat="43.0115" lon="0.31071">
        <ele>965.4</ele>
        <time>2026-07-08T07:32:45Z</time>
      </trkpt>
      <trkpt lat="43.0115" lon="0.31071">
        <ele>965.4</ele>
        <time>2026-07-08T07:32:45Z</time>
      </trkpt>
      <trkpt lat="43.01151" lon="0.31071">
        <ele>965.4</ele>
        <time>2026-07-08T07:32:46Z</time>
      </trkpt>
      <trkpt lat="43.01151" lon="0.31071">
        <ele>965.4</ele>
        <time>2026-07-08T07:32:47Z</time>
      </trkpt>
      <trkpt lat="43.01151" lon="0.31071">
        <ele>965.4</ele>
        <time>2026-07-08T07:32:47Z</time>
      </trkpt>
      <trkpt lat="43.01151" lon="0.31071">
        <ele>965.4</ele>
        <time>2026-07-08T07:32:48Z</time>
      </trkpt>
      <trkpt lat="43.01151" lon="0.31072">
        <ele>965.4</ele>
        <time>2026-07-08T07:32:49Z</time>
      </trkpt>
      <trkpt lat="43.01151" lon="0.31072">
        <ele>965.4</ele>
        <time>2026-07-08T07:32:50Z</time>
      </trkpt>
      <trkpt lat="43.01151" lon="0.31072">
        <ele>965.4</ele>
        <time>2026-07-08T07:32:50Z</time>
      </trkpt>
      <trkpt lat="43.01151" lon="0.31072">
        <ele>965.4</ele>
        <time>2026-07-08T07:32:51Z</time>
      </trkpt>
      <trkpt lat="43.01151" lon="0.31072">
        <ele>965.4</ele>
        <time>2026-07-08T07:32:52Z</time>
      </trkpt>
      <trkpt lat="43.01151" lon="0.31072">
        <ele>964.4</ele>
        <time>2026-07-08T07:32:53Z</time>
      </trkpt>
      <trkpt lat="43.01151" lon="0.31072">
        <ele>965.4</ele>
        <time>2026-07-08T07:32:53Z</time>
      </trkpt>
      <trkpt lat="43.01151" lon="0.31073">
        <ele>966.4</ele>
        <time>2026-07-08T07:32:54Z</time>
      </trkpt>
      <trkpt lat="43.01151" lon="0.31073">
        <ele>966.4</ele>
        <time>2026-07-08T07:32:55Z</time>
      </trkpt>
      <trkpt lat="43.01151" lon="0.31073">
        <ele>965.4</ele>
        <time>2026-07-08T07:32:56Z</time>
      </trkpt>
      <trkpt lat="43.01151" lon="0.31073">
        <ele>965.4</ele>
        <time>2026-07-08T07:32:56Z</time>
      </trkpt>
      <trkpt lat="43.01151" lon="0.31074">
        <ele>965.4</ele>
        <time>2026-07-08T07:32:57Z</time>
      </trkpt>
      <trkpt lat="43.01151" lon="0.31074">
        <ele>965.4</ele>
        <time>2026-07-08T07:32:58Z</time>
      </trkpt>
      <trkpt lat="43.0115" lon="0.31075">
        <ele>965.4</ele>
        <time>2026-07-08T07:32:58Z</time>
      </trkpt>
      <trkpt lat="43.0115" lon="0.31075">
        <ele>966.4</ele>
        <time>2026-07-08T07:32:59Z</time>
      </trkpt>
      <trkpt lat="43.0115" lon="0.31075">
        <ele>966.4</ele>
        <time>2026-07-08T07:33:00Z</time>
      </trkpt>
      <trkpt lat="43.0115" lon="0.31075">
        <ele>966.4</ele>
        <time>2026-07-08T07:33:01Z</time>
      </trkpt>
      <trkpt lat="43.0115" lon="0.31076">
        <ele>966.4</ele>
        <time>2026-07-08T07:33:01Z</time>
      </trkpt>
      <trkpt lat="43.0115" lon="0.31076">
        <ele>966.4</ele>
        <time>2026-07-08T07:33:02Z</time>
      </trkpt>
      <trkpt lat="43.0115" lon="0.31076">
        <ele>966.4</ele>
        <time>2026-07-08T07:33:03Z</time>
      </trkpt>
      <trkpt lat="43.0115" lon="0.31076">
        <ele>966.4</ele>
        <time>2026-07-08T07:33:03Z</time>
      </trkpt>
      <trkpt lat="43.0115" lon="0.31076">
        <ele>966.4</ele>
        <time>2026-07-08T07:33:04Z</time>
      </trkpt>
      <trkpt lat="43.0115" lon="0.31076">
        <ele>966.4</ele>
        <time>2026-07-08T07:33:04Z</time>
      </trkpt>
      <trkpt lat="43.0115" lon="0.31077">
        <ele>967.4</ele>
        <time>2026-07-08T07:33:05Z</time>
      </trkpt>
      <trkpt lat="43.01149" lon="0.31077">
        <ele>967.4</ele>
        <time>2026-07-08T07:33:06Z</time>
      </trkpt>
      <trkpt lat="43.01148" lon="0.31078">
        <ele>966.4</ele>
        <time>2026-07-08T07:33:07Z</time>
      </trkpt>
      <trkpt lat="43.01147" lon="0.3108">
        <ele>966.4</ele>
        <time>2026-07-08T07:33:07Z</time>
      </trkpt>
      <trkpt lat="43.01146" lon="0.3108">
        <ele>966.4</ele>
        <time>2026-07-08T07:33:08Z</time>
      </trkpt>
      <trkpt lat="43.01145" lon="0.31081">
        <ele>966.4</ele>
        <time>2026-07-08T07:33:09Z</time>
      </trkpt>
      <trkpt lat="43.01144" lon="0.31081">
        <ele>966.4</ele>
        <time>2026-07-08T07:33:09Z</time>
      </trkpt>
      <trkpt lat="43.01143" lon="0.31081">
        <ele>966.4</ele>
        <time>2026-07-08T07:33:10Z</time>
      </trkpt>
      <trkpt lat="43.01142" lon="0.31081">
        <ele>967.4</ele>
        <time>2026-07-08T07:33:11Z</time>
      </trkpt>
      <trkpt lat="43.01141" lon="0.31081">
        <ele>967.4</ele>
        <time>2026-07-08T07:33:12Z</time>
      </trkpt>
      <trkpt lat="43.0114" lon="0.31081">
        <ele>967.4</ele>
        <time>2026-07-08T07:33:13Z</time>
      </trkpt>
      <trkpt lat="43.0114" lon="0.31081">
        <ele>967.4</ele>
        <time>2026-07-08T07:33:14Z</time>
      </trkpt>
      <trkpt lat="43.01139" lon="0.31081">
        <ele>966.4</ele>
        <time>2026-07-08T07:33:15Z</time>
      </trkpt>
      <trkpt lat="43.01139" lon="0.31081">
        <ele>966.4</ele>
        <time>2026-07-08T07:33:15Z</time>
      </trkpt>
      <trkpt lat="43.01138" lon="0.31081">
        <ele>966.4</ele>
        <time>2026-07-08T07:33:16Z</time>
      </trkpt>
      <trkpt lat="43.01137" lon="0.31081">
        <ele>966.4</ele>
        <time>2026-07-08T07:33:16Z</time>
      </trkpt>
      <trkpt lat="43.01136" lon="0.31082">
        <ele>966.4</ele>
        <time>2026-07-08T07:33:17Z</time>
      </trkpt>
      <trkpt lat="43.01136" lon="0.31082">
        <ele>966.4</ele>
        <time>2026-07-08T07:33:18Z</time>
      </trkpt>
      <trkpt lat="43.01135" lon="0.31082">
        <ele>966.4</ele>
        <time>2026-07-08T07:33:19Z</time>
      </trkpt>
      <trkpt lat="43.01134" lon="0.31082">
        <ele>967.4</ele>
        <time>2026-07-08T07:33:20Z</time>
      </trkpt>
      <trkpt lat="43.01133" lon="0.31082">
        <ele>967.4</ele>
        <time>2026-07-08T07:33:20Z</time>
      </trkpt>
      <trkpt lat="43.01133" lon="0.31082">
        <ele>968.4</ele>
        <time>2026-07-08T07:33:21Z</time>
      </trkpt>
      <trkpt lat="43.01132" lon="0.31082">
        <ele>968.4</ele>
        <time>2026-07-08T07:33:22Z</time>
      </trkpt>
      <trkpt lat="43.01132" lon="0.31082">
        <ele>968.4</ele>
        <time>2026-07-08T07:33:23Z</time>
      </trkpt>
      <trkpt lat="43.01131" lon="0.31082">
        <ele>969.4</ele>
        <time>2026-07-08T07:33:24Z</time>
      </trkpt>
      <trkpt lat="43.0113" lon="0.31082">
        <ele>968.4</ele>
        <time>2026-07-08T07:33:24Z</time>
      </trkpt>
      <trkpt lat="43.0113" lon="0.31082">
        <ele>968.4</ele>
        <time>2026-07-08T07:33:25Z</time>
      </trkpt>
      <trkpt lat="43.0113" lon="0.31082">
        <ele>968.4</ele>
        <time>2026-07-08T07:33:25Z</time>
      </trkpt>
      <trkpt lat="43.01129" lon="0.31082">
        <ele>968.4</ele>
        <time>2026-07-08T07:33:26Z</time>
      </trkpt>
      <trkpt lat="43.01128" lon="0.31082">
        <ele>968.4</ele>
        <time>2026-07-08T07:33:27Z</time>
      </trkpt>
      <trkpt lat="43.01127" lon="0.31082">
        <ele>968.4</ele>
        <time>2026-07-08T07:33:28Z</time>
      </trkpt>
      <trkpt lat="43.01127" lon="0.31082">
        <ele>968.4</ele>
        <time>2026-07-08T07:33:28Z</time>
      </trkpt>
      <trkpt lat="43.01127" lon="0.31082">
        <ele>968.4</ele>
        <time>2026-07-08T07:33:29Z</time>
      </trkpt>
      <trkpt lat="43.01126" lon="0.31082">
        <ele>968.4</ele>
        <time>2026-07-08T07:33:30Z</time>
      </trkpt>
      <trkpt lat="43.01126" lon="0.31082">
        <ele>968.4</ele>
        <time>2026-07-08T07:33:31Z</time>
      </trkpt>
      <trkpt lat="43.01125" lon="0.31082">
        <ele>969.4</ele>
        <time>2026-07-08T07:33:32Z</time>
      </trkpt>
      <trkpt lat="43.01125" lon="0.31082">
        <ele>969.4</ele>
        <time>2026-07-08T07:33:32Z</time>
      </trkpt>
      <trkpt lat="43.01124" lon="0.31082">
        <ele>969.4</ele>
        <time>2026-07-08T07:33:33Z</time>
      </trkpt>
      <trkpt lat="43.01123" lon="0.31082">
        <ele>970.4</ele>
        <time>2026-07-08T07:33:34Z</time>
      </trkpt>
      <trkpt lat="43.01123" lon="0.31082">
        <ele>970.4</ele>
        <time>2026-07-08T07:33:35Z</time>
      </trkpt>
      <trkpt lat="43.01122" lon="0.31082">
        <ele>970.4</ele>
        <time>2026-07-08T07:33:35Z</time>
      </trkpt>
      <trkpt lat="43.01122" lon="0.31082">
        <ele>970.4</ele>
        <time>2026-07-08T07:33:36Z</time>
      </trkpt>
      <trkpt lat="43.01121" lon="0.31081">
        <ele>970.4</ele>
        <time>2026-07-08T07:33:37Z</time>
      </trkpt>
      <trkpt lat="43.01121" lon="0.31081">
        <ele>970.4</ele>
        <time>2026-07-08T07:33:38Z</time>
      </trkpt>
      <trkpt lat="43.01121" lon="0.3108">
        <ele>970.4</ele>
        <time>2026-07-08T07:33:39Z</time>
      </trkpt>
      <trkpt lat="43.0112" lon="0.3108">
        <ele>970.4</ele>
        <time>2026-07-08T07:33:40Z</time>
      </trkpt>
      <trkpt lat="43.0112" lon="0.3108">
        <ele>970.4</ele>
        <time>2026-07-08T07:33:40Z</time>
      </trkpt>
      <trkpt lat="43.01119" lon="0.31079">
        <ele>970.4</ele>
        <time>2026-07-08T07:33:41Z</time>
      </trkpt>
      <trkpt lat="43.01119" lon="0.31079">
        <ele>970.4</ele>
        <time>2026-07-08T07:33:42Z</time>
      </trkpt>
      <trkpt lat="43.01118" lon="0.31078">
        <ele>970.4</ele>
        <time>2026-07-08T07:33:43Z</time>
      </trkpt>
      <trkpt lat="43.01118" lon="0.31077">
        <ele>970.4</ele>
        <time>2026-07-08T07:33:44Z</time>
      </trkpt>
      <trkpt lat="43.01118" lon="0.31076">
        <ele>969.4</ele>
        <time>2026-07-08T07:33:45Z</time>
      </trkpt>
      <trkpt lat="43.01118" lon="0.31075">
        <ele>969.4</ele>
        <time>2026-07-08T07:33:46Z</time>
      </trkpt>
      <trkpt lat="43.01118" lon="0.31074">
        <ele>969.4</ele>
        <time>2026-07-08T07:33:46Z</time>
      </trkpt>
      <trkpt lat="43.01118" lon="0.31073">
        <ele>969.4</ele>
        <time>2026-07-08T07:33:47Z</time>
      </trkpt>
      <trkpt lat="43.01118" lon="0.31073">
        <ele>969.4</ele>
        <time>2026-07-08T07:33:48Z</time>
      </trkpt>
      <trkpt lat="43.01118" lon="0.31072">
        <ele>969.4</ele>
        <time>2026-07-08T07:33:49Z</time>
      </trkpt>
      <trkpt lat="43.01118" lon="0.31071">
        <ele>969.4</ele>
        <time>2026-07-08T07:33:50Z</time>
      </trkpt>
      <trkpt lat="43.01117" lon="0.31071">
        <ele>969.4</ele>
        <time>2026-07-08T07:33:51Z</time>
      </trkpt>
      <trkpt lat="43.01117" lon="0.3107">
        <ele>969.4</ele>
        <time>2026-07-08T07:33:52Z</time>
      </trkpt>
      <trkpt lat="43.01116" lon="0.3107">
        <ele>969.4</ele>
        <time>2026-07-08T07:33:53Z</time>
      </trkpt>
      <trkpt lat="43.01116" lon="0.31069">
        <ele>969.4</ele>
        <time>2026-07-08T07:33:54Z</time>
      </trkpt>
      <trkpt lat="43.01116" lon="0.31068">
        <ele>969.4</ele>
        <time>2026-07-08T07:33:54Z</time>
      </trkpt>
      <trkpt lat="43.01116" lon="0.31068">
        <ele>969.4</ele>
        <time>2026-07-08T07:33:55Z</time>
      </trkpt>
      <trkpt lat="43.01117" lon="0.31067">
        <ele>969.4</ele>
        <time>2026-07-08T07:33:56Z</time>
      </trkpt>
      <trkpt lat="43.01117" lon="0.31066">
        <ele>970.4</ele>
        <time>2026-07-08T07:33:57Z</time>
      </trkpt>
      <trkpt lat="43.01118" lon="0.31065">
        <ele>970.4</ele>
        <time>2026-07-08T07:33:58Z</time>
      </trkpt>
      <trkpt lat="43.01119" lon="0.31065">
        <ele>969.4</ele>
        <time>2026-07-08T07:33:59Z</time>
      </trkpt>
      <trkpt lat="43.01119" lon="0.31065">
        <ele>969.4</ele>
        <time>2026-07-08T07:34:00Z</time>
      </trkpt>
      <trkpt lat="43.0112" lon="0.31064">
        <ele>969.4</ele>
        <time>2026-07-08T07:34:01Z</time>
      </trkpt>
      <trkpt lat="43.0112" lon="0.31064">
        <ele>969.4</ele>
        <time>2026-07-08T07:34:02Z</time>
      </trkpt>
      <trkpt lat="43.0112" lon="0.31063">
        <ele>969.4</ele>
        <time>2026-07-08T07:34:03Z</time>
      </trkpt>
      <trkpt lat="43.0112" lon="0.31063">
        <ele>968.4</ele>
        <time>2026-07-08T07:34:03Z</time>
      </trkpt>
      <trkpt lat="43.01121" lon="0.31063">
        <ele>968.4</ele>
        <time>2026-07-08T07:34:04Z</time>
      </trkpt>
      <trkpt lat="43.01121" lon="0.31063">
        <ele>968.4</ele>
        <time>2026-07-08T07:34:05Z</time>
      </trkpt>
      <trkpt lat="43.01122" lon="0.31062">
        <ele>969.4</ele>
        <time>2026-07-08T07:34:06Z</time>
      </trkpt>
      <trkpt lat="43.01122" lon="0.31062">
        <ele>969.4</ele>
        <time>2026-07-08T07:34:07Z</time>
      </trkpt>
      <trkpt lat="43.01122" lon="0.31061">
        <ele>969.4</ele>
        <time>2026-07-08T07:34:08Z</time>
      </trkpt>
      <trkpt lat="43.01123" lon="0.31061">
        <ele>969.4</ele>
        <time>2026-07-08T07:34:08Z</time>
      </trkpt>
      <trkpt lat="43.01123" lon="0.3106">
        <ele>970.4</ele>
        <time>2026-07-08T07:34:09Z</time>
      </trkpt>
      <trkpt lat="43.01123" lon="0.3106">
        <ele>970.4</ele>
        <time>2026-07-08T07:34:10Z</time>
      </trkpt>
      <trkpt lat="43.01123" lon="0.31059">
        <ele>970.4</ele>
        <time>2026-07-08T07:34:11Z</time>
      </trkpt>
      <trkpt lat="43.01123" lon="0.31059">
        <ele>970.4</ele>
        <time>2026-07-08T07:34:12Z</time>
      </trkpt>
      <trkpt lat="43.01124" lon="0.31058">
        <ele>970.4</ele>
        <time>2026-07-08T07:34:13Z</time>
      </trkpt>
      <trkpt lat="43.01124" lon="0.31058">
        <ele>971.4</ele>
        <time>2026-07-08T07:34:14Z</time>
      </trkpt>
      <trkpt lat="43.01124" lon="0.31057">
        <ele>971.4</ele>
        <time>2026-07-08T07:34:14Z</time>
      </trkpt>
      <trkpt lat="43.01124" lon="0.31057">
        <ele>972.4</ele>
        <time>2026-07-08T07:34:15Z</time>
      </trkpt>
      <trkpt lat="43.01124" lon="0.31056">
        <ele>972.4</ele>
        <time>2026-07-08T07:34:16Z</time>
      </trkpt>
      <trkpt lat="43.01124" lon="0.31055">
        <ele>972.4</ele>
        <time>2026-07-08T07:34:17Z</time>
      </trkpt>
      <trkpt lat="43.01124" lon="0.31054">
        <ele>972.4</ele>
        <time>2026-07-08T07:34:18Z</time>
      </trkpt>
      <trkpt lat="43.01125" lon="0.31054">
        <ele>972.4</ele>
        <time>2026-07-08T07:34:19Z</time>
      </trkpt>
      <trkpt lat="43.01125" lon="0.31054">
        <ele>973.4</ele>
        <time>2026-07-08T07:34:20Z</time>
      </trkpt>
      <trkpt lat="43.01126" lon="0.31054">
        <ele>973.4</ele>
        <time>2026-07-08T07:34:21Z</time>
      </trkpt>
      <trkpt lat="43.01127" lon="0.31054">
        <ele>973.4</ele>
        <time>2026-07-08T07:34:22Z</time>
      </trkpt>
      <trkpt lat="43.01127" lon="0.31054">
        <ele>973.4</ele>
        <time>2026-07-08T07:34:23Z</time>
      </trkpt>
      <trkpt lat="43.01127" lon="0.31054">
        <ele>973.4</ele>
        <time>2026-07-08T07:34:24Z</time>
      </trkpt>
      <trkpt lat="43.01127" lon="0.31054">
        <ele>973.4</ele>
        <time>2026-07-08T07:34:24Z</time>
      </trkpt>
      <trkpt lat="43.01127" lon="0.31054">
        <ele>973.4</ele>
        <time>2026-07-08T07:34:25Z</time>
      </trkpt>
      <trkpt lat="43.01126" lon="0.31054">
        <ele>973.4</ele>
        <time>2026-07-08T07:34:26Z</time>
      </trkpt>
      <trkpt lat="43.01126" lon="0.31054">
        <ele>973.4</ele>
        <time>2026-07-08T07:34:27Z</time>
      </trkpt>
      <trkpt lat="43.01125" lon="0.31054">
        <ele>973.4</ele>
        <time>2026-07-08T07:34:28Z</time>
      </trkpt>
      <trkpt lat="43.01124" lon="0.31055">
        <ele>973.4</ele>
        <time>2026-07-08T07:34:29Z</time>
      </trkpt>
      <trkpt lat="43.01123" lon="0.31056">
        <ele>973.4</ele>
        <time>2026-07-08T07:34:30Z</time>
      </trkpt>
      <trkpt lat="43.01123" lon="0.31056">
        <ele>973.4</ele>
        <time>2026-07-08T07:34:30Z</time>
      </trkpt>
      <trkpt lat="43.01122" lon="0.31058">
        <ele>973.4</ele>
        <time>2026-07-08T07:34:31Z</time>
      </trkpt>
      <trkpt lat="43.01121" lon="0.31059">
        <ele>973.4</ele>
        <time>2026-07-08T07:34:32Z</time>
      </trkpt>
      <trkpt lat="43.01119" lon="0.31059">
        <ele>973.4</ele>
        <time>2026-07-08T07:34:33Z</time>
      </trkpt>
      <trkpt lat="43.01119" lon="0.3106">
        <ele>973.4</ele>
        <time>2026-07-08T07:34:34Z</time>
      </trkpt>
      <trkpt lat="43.01118" lon="0.3106">
        <ele>973.4</ele>
        <time>2026-07-08T07:34:35Z</time>
      </trkpt>
      <trkpt lat="43.01116" lon="0.3106">
        <ele>973.4</ele>
        <time>2026-07-08T07:34:36Z</time>
      </trkpt>
      <trkpt lat="43.01115" lon="0.31061">
        <ele>973.4</ele>
        <time>2026-07-08T07:34:37Z</time>
      </trkpt>
      <trkpt lat="43.01114" lon="0.31062">
        <ele>973.4</ele>
        <time>2026-07-08T07:34:38Z</time>
      </trkpt>
      <trkpt lat="43.01113" lon="0.31063">
        <ele>973.4</ele>
        <time>2026-07-08T07:34:39Z</time>
      </trkpt>
      <trkpt lat="43.01113" lon="0.31064">
        <ele>973.4</ele>
        <time>2026-07-08T07:34:39Z</time>
      </trkpt>
      <trkpt lat="43.01113" lon="0.31065">
        <ele>974.4</ele>
        <time>2026-07-08T07:34:40Z</time>
      </trkpt>
      <trkpt lat="43.01112" lon="0.31065">
        <ele>974.4</ele>
        <time>2026-07-08T07:34:41Z</time>
      </trkpt>
      <trkpt lat="43.01112" lon="0.31066">
        <ele>975.4</ele>
        <time>2026-07-08T07:34:42Z</time>
      </trkpt>
      <trkpt lat="43.01111" lon="0.31066">
        <ele>975.4</ele>
        <time>2026-07-08T07:34:43Z</time>
      </trkpt>
      <trkpt lat="43.01111" lon="0.31067">
        <ele>975.4</ele>
        <time>2026-07-08T07:34:44Z</time>
      </trkpt>
      <trkpt lat="43.01111" lon="0.31067">
        <ele>976.4</ele>
        <time>2026-07-08T07:34:45Z</time>
      </trkpt>
      <trkpt lat="43.01111" lon="0.31067">
        <ele>977.4</ele>
        <time>2026-07-08T07:34:46Z</time>
      </trkpt>
      <trkpt lat="43.01111" lon="0.31067">
        <ele>977.4</ele>
        <time>2026-07-08T07:34:47Z</time>
      </trkpt>
      <trkpt lat="43.01111" lon="0.31067">
        <ele>978.4</ele>
        <time>2026-07-08T07:34:47Z</time>
      </trkpt>
      <trkpt lat="43.01112" lon="0.31066">
        <ele>978.4</ele>
        <time>2026-07-08T07:34:48Z</time>
      </trkpt>
      <trkpt lat="43.01112" lon="0.31066">
        <ele>978.4</ele>
        <time>2026-07-08T07:34:49Z</time>
      </trkpt>
      <trkpt lat="43.01112" lon="0.31065">
        <ele>979.4</ele>
        <time>2026-07-08T07:34:50Z</time>
      </trkpt>
      <trkpt lat="43.01111" lon="0.31065">
        <ele>978.4</ele>
        <time>2026-07-08T07:34:51Z</time>
      </trkpt>
      <trkpt lat="43.01111" lon="0.31065">
        <ele>978.4</ele>
        <time>2026-07-08T07:34:52Z</time>
      </trkpt>
      <trkpt lat="43.01111" lon="0.31066">
        <ele>978.4</ele>
        <time>2026-07-08T07:34:52Z</time>
      </trkpt>
      <trkpt lat="43.01111" lon="0.31066">
        <ele>978.4</ele>
        <time>2026-07-08T07:34:53Z</time>
      </trkpt>
      <trkpt lat="43.0111" lon="0.31066">
        <ele>980.4</ele>
        <time>2026-07-08T07:34:54Z</time>
      </trkpt>
      <trkpt lat="43.0111" lon="0.31067">
        <ele>980.4</ele>
        <time>2026-07-08T07:34:55Z</time>
      </trkpt>
      <trkpt lat="43.01109" lon="0.31067">
        <ele>979.4</ele>
        <time>2026-07-08T07:34:56Z</time>
      </trkpt>
      <trkpt lat="43.01109" lon="0.31067">
        <ele>979.4</ele>
        <time>2026-07-08T07:34:57Z</time>
      </trkpt>
      <trkpt lat="43.01109" lon="0.31067">
        <ele>980.4</ele>
        <time>2026-07-08T07:34:58Z</time>
      </trkpt>
      <trkpt lat="43.01108" lon="0.31067">
        <ele>980.4</ele>
        <time>2026-07-08T07:34:58Z</time>
      </trkpt>
      <trkpt lat="43.01108" lon="0.31067">
        <ele>979.4</ele>
        <time>2026-07-08T07:34:59Z</time>
      </trkpt>
      <trkpt lat="43.01107" lon="0.31067">
        <ele>979.4</ele>
        <time>2026-07-08T07:35:00Z</time>
      </trkpt>
      <trkpt lat="43.01107" lon="0.31067">
        <ele>979.4</ele>
        <time>2026-07-08T07:35:01Z</time>
      </trkpt>
      <trkpt lat="43.01106" lon="0.31067">
        <ele>979.4</ele>
        <time>2026-07-08T07:35:02Z</time>
      </trkpt>
      <trkpt lat="43.01106" lon="0.31066">
        <ele>979.4</ele>
        <time>2026-07-08T07:35:02Z</time>
      </trkpt>
      <trkpt lat="43.01105" lon="0.31066">
        <ele>979.4</ele>
        <time>2026-07-08T07:35:03Z</time>
      </trkpt>
      <trkpt lat="43.01104" lon="0.31066">
        <ele>979.4</ele>
        <time>2026-07-08T07:35:04Z</time>
      </trkpt>
      <trkpt lat="43.01104" lon="0.31066">
        <ele>979.4</ele>
        <time>2026-07-08T07:35:05Z</time>
      </trkpt>
      <trkpt lat="43.01103" lon="0.31066">
        <ele>980.4</ele>
        <time>2026-07-08T07:35:06Z</time>
      </trkpt>
      <trkpt lat="43.01102" lon="0.31066">
        <ele>980.4</ele>
        <time>2026-07-08T07:35:07Z</time>
      </trkpt>
      <trkpt lat="43.01102" lon="0.31065">
        <ele>980.4</ele>
        <time>2026-07-08T07:35:07Z</time>
      </trkpt>
      <trkpt lat="43.01101" lon="0.31064">
        <ele>980.4</ele>
        <time>2026-07-08T07:35:08Z</time>
      </trkpt>
      <trkpt lat="43.01101" lon="0.31063">
        <ele>980.4</ele>
        <time>2026-07-08T07:35:09Z</time>
      </trkpt>
      <trkpt lat="43.011" lon="0.31063">
        <ele>980.4</ele>
        <time>2026-07-08T07:35:10Z</time>
      </trkpt>
      <trkpt lat="43.01099" lon="0.31062">
        <ele>980.4</ele>
        <time>2026-07-08T07:35:11Z</time>
      </trkpt>
      <trkpt lat="43.01098" lon="0.31062">
        <ele>981.4</ele>
        <time>2026-07-08T07:35:12Z</time>
      </trkpt>
      <trkpt lat="43.01098" lon="0.31061">
        <ele>980.4</ele>
        <time>2026-07-08T07:35:12Z</time>
      </trkpt>
      <trkpt lat="43.01097" lon="0.31061">
        <ele>980.4</ele>
        <time>2026-07-08T07:35:13Z</time>
      </trkpt>
      <trkpt lat="43.01096" lon="0.31061">
        <ele>980.4</ele>
        <time>2026-07-08T07:35:14Z</time>
      </trkpt>
      <trkpt lat="43.01096" lon="0.3106">
        <ele>980.4</ele>
        <time>2026-07-08T07:35:15Z</time>
      </trkpt>
      <trkpt lat="43.01095" lon="0.31059">
        <ele>980.4</ele>
        <time>2026-07-08T07:35:16Z</time>
      </trkpt>
      <trkpt lat="43.01095" lon="0.31058">
        <ele>980.4</ele>
        <time>2026-07-08T07:35:17Z</time>
      </trkpt>
      <trkpt lat="43.01095" lon="0.31057">
        <ele>980.4</ele>
        <time>2026-07-08T07:35:17Z</time>
      </trkpt>
      <trkpt lat="43.01094" lon="0.31056">
        <ele>980.4</ele>
        <time>2026-07-08T07:35:18Z</time>
      </trkpt>
      <trkpt lat="43.01094" lon="0.31055">
        <ele>980.4</ele>
        <time>2026-07-08T07:35:19Z</time>
      </trkpt>
      <trkpt lat="43.01094" lon="0.31055">
        <ele>980.4</ele>
        <time>2026-07-08T07:35:20Z</time>
      </trkpt>
      <trkpt lat="43.01093" lon="0.31054">
        <ele>980.4</ele>
        <time>2026-07-08T07:35:21Z</time>
      </trkpt>
      <trkpt lat="43.01094" lon="0.31053">
        <ele>980.4</ele>
        <time>2026-07-08T07:35:21Z</time>
      </trkpt>
      <trkpt lat="43.01094" lon="0.31053">
        <ele>980.4</ele>
        <time>2026-07-08T07:35:22Z</time>
      </trkpt>
      <trkpt lat="43.01094" lon="0.31052">
        <ele>980.4</ele>
        <time>2026-07-08T07:35:23Z</time>
      </trkpt>
      <trkpt lat="43.01093" lon="0.31051">
        <ele>980.4</ele>
        <time>2026-07-08T07:35:24Z</time>
      </trkpt>
      <trkpt lat="43.01093" lon="0.31051">
        <ele>980.4</ele>
        <time>2026-07-08T07:35:25Z</time>
      </trkpt>
      <trkpt lat="43.01092" lon="0.31051">
        <ele>980.4</ele>
        <time>2026-07-08T07:35:25Z</time>
      </trkpt>
      <trkpt lat="43.01091" lon="0.3105">
        <ele>980.4</ele>
        <time>2026-07-08T07:35:26Z</time>
      </trkpt>
      <trkpt lat="43.01091" lon="0.3105">
        <ele>980.4</ele>
        <time>2026-07-08T07:35:27Z</time>
      </trkpt>
      <trkpt lat="43.01091" lon="0.31049">
        <ele>981.4</ele>
        <time>2026-07-08T07:35:27Z</time>
      </trkpt>
      <trkpt lat="43.01091" lon="0.31048">
        <ele>980.4</ele>
        <time>2026-07-08T07:35:28Z</time>
      </trkpt>
      <trkpt lat="43.0109" lon="0.31047">
        <ele>980.4</ele>
        <time>2026-07-08T07:35:29Z</time>
      </trkpt>
      <trkpt lat="43.0109" lon="0.31047">
        <ele>981.4</ele>
        <time>2026-07-08T07:35:30Z</time>
      </trkpt>
      <trkpt lat="43.0109" lon="0.31046">
        <ele>981.4</ele>
        <time>2026-07-08T07:35:31Z</time>
      </trkpt>
      <trkpt lat="43.0109" lon="0.31045">
        <ele>981.4</ele>
        <time>2026-07-08T07:35:31Z</time>
      </trkpt>
      <trkpt lat="43.0109" lon="0.31044">
        <ele>981.4</ele>
        <time>2026-07-08T07:35:32Z</time>
      </trkpt>
      <trkpt lat="43.0109" lon="0.31043">
        <ele>981.4</ele>
        <time>2026-07-08T07:35:33Z</time>
      </trkpt>
      <trkpt lat="43.0109" lon="0.31042">
        <ele>980.4</ele>
        <time>2026-07-08T07:35:34Z</time>
      </trkpt>
      <trkpt lat="43.0109" lon="0.31041">
        <ele>980.4</ele>
        <time>2026-07-08T07:35:35Z</time>
      </trkpt>
      <trkpt lat="43.0109" lon="0.31041">
        <ele>980.4</ele>
        <time>2026-07-08T07:35:35Z</time>
      </trkpt>
      <trkpt lat="43.0109" lon="0.3104">
        <ele>980.4</ele>
        <time>2026-07-08T07:35:36Z</time>
      </trkpt>
      <trkpt lat="43.01089" lon="0.31039">
        <ele>980.4</ele>
        <time>2026-07-08T07:35:37Z</time>
      </trkpt>
      <trkpt lat="43.01089" lon="0.31039">
        <ele>980.4</ele>
        <time>2026-07-08T07:35:38Z</time>
      </trkpt>
      <trkpt lat="43.01088" lon="0.31039">
        <ele>981.4</ele>
        <time>2026-07-08T07:35:39Z</time>
      </trkpt>
      <trkpt lat="43.01088" lon="0.31038">
        <ele>981.4</ele>
        <time>2026-07-08T07:35:40Z</time>
      </trkpt>
      <trkpt lat="43.01088" lon="0.31037">
        <ele>980.4</ele>
        <time>2026-07-08T07:35:41Z</time>
      </trkpt>
      <trkpt lat="43.01087" lon="0.31037">
        <ele>980.4</ele>
        <time>2026-07-08T07:35:41Z</time>
      </trkpt>
      <trkpt lat="43.01087" lon="0.31036">
        <ele>980.4</ele>
        <time>2026-07-08T07:35:42Z</time>
      </trkpt>
      <trkpt lat="43.01086" lon="0.31035">
        <ele>980.4</ele>
        <time>2026-07-08T07:35:43Z</time>
      </trkpt>
      <trkpt lat="43.01086" lon="0.31035">
        <ele>981.4</ele>
        <time>2026-07-08T07:35:44Z</time>
      </trkpt>
      <trkpt lat="43.01086" lon="0.31035">
        <ele>981.4</ele>
        <time>2026-07-08T07:35:44Z</time>
      </trkpt>
      <trkpt lat="43.01085" lon="0.31034">
        <ele>980.4</ele>
        <time>2026-07-08T07:35:45Z</time>
      </trkpt>
      <trkpt lat="43.01085" lon="0.31033">
        <ele>980.4</ele>
        <time>2026-07-08T07:35:46Z</time>
      </trkpt>
      <trkpt lat="43.01084" lon="0.31032">
        <ele>980.4</ele>
        <time>2026-07-08T07:35:47Z</time>
      </trkpt>
      <trkpt lat="43.01084" lon="0.31032">
        <ele>980.4</ele>
        <time>2026-07-08T07:35:47Z</time>
      </trkpt>
      <trkpt lat="43.01084" lon="0.31031">
        <ele>981.4</ele>
        <time>2026-07-08T07:35:48Z</time>
      </trkpt>
      <trkpt lat="43.01084" lon="0.3103">
        <ele>981.4</ele>
        <time>2026-07-08T07:35:49Z</time>
      </trkpt>
      <trkpt lat="43.01084" lon="0.31029">
        <ele>981.4</ele>
        <time>2026-07-08T07:35:50Z</time>
      </trkpt>
      <trkpt lat="43.01084" lon="0.31029">
        <ele>982.4</ele>
        <time>2026-07-08T07:35:51Z</time>
      </trkpt>
      <trkpt lat="43.01084" lon="0.31028">
        <ele>982.4</ele>
        <time>2026-07-08T07:35:52Z</time>
      </trkpt>
      <trkpt lat="43.01084" lon="0.31028">
        <ele>982.4</ele>
        <time>2026-07-08T07:35:52Z</time>
      </trkpt>
      <trkpt lat="43.01084" lon="0.31027">
        <ele>982.4</ele>
        <time>2026-07-08T07:35:53Z</time>
      </trkpt>
      <trkpt lat="43.01084" lon="0.31026">
        <ele>982.4</ele>
        <time>2026-07-08T07:35:53Z</time>
      </trkpt>
      <trkpt lat="43.01084" lon="0.31026">
        <ele>982.4</ele>
        <time>2026-07-08T07:35:54Z</time>
      </trkpt>
      <trkpt lat="43.01084" lon="0.31025">
        <ele>982.4</ele>
        <time>2026-07-08T07:35:55Z</time>
      </trkpt>
      <trkpt lat="43.01084" lon="0.31026">
        <ele>981.4</ele>
        <time>2026-07-08T07:35:56Z</time>
      </trkpt>
      <trkpt lat="43.01083" lon="0.31026">
        <ele>981.4</ele>
        <time>2026-07-08T07:35:57Z</time>
      </trkpt>
      <trkpt lat="43.01083" lon="0.31027">
        <ele>981.4</ele>
        <time>2026-07-08T07:35:58Z</time>
      </trkpt>
      <trkpt lat="43.01083" lon="0.31027">
        <ele>981.4</ele>
        <time>2026-07-08T07:35:58Z</time>
      </trkpt>
      <trkpt lat="43.01083" lon="0.31026">
        <ele>980.4</ele>
        <time>2026-07-08T07:35:59Z</time>
      </trkpt>
      <trkpt lat="43.01083" lon="0.31025">
        <ele>980.4</ele>
        <time>2026-07-08T07:36:00Z</time>
      </trkpt>
      <trkpt lat="43.01083" lon="0.31025">
        <ele>980.4</ele>
        <time>2026-07-08T07:36:01Z</time>
      </trkpt>
      <trkpt lat="43.01082" lon="0.31024">
        <ele>981.4</ele>
        <time>2026-07-08T07:36:02Z</time>
      </trkpt>
      <trkpt lat="43.01082" lon="0.31024">
        <ele>982.4</ele>
        <time>2026-07-08T07:36:03Z</time>
      </trkpt>
      <trkpt lat="43.01081" lon="0.31023">
        <ele>982.4</ele>
        <time>2026-07-08T07:36:04Z</time>
      </trkpt>
      <trkpt lat="43.01081" lon="0.31023">
        <ele>983.4</ele>
        <time>2026-07-08T07:36:04Z</time>
      </trkpt>
      <trkpt lat="43.0108" lon="0.31023">
        <ele>983.4</ele>
        <time>2026-07-08T07:36:05Z</time>
      </trkpt>
      <trkpt lat="43.0108" lon="0.31022">
        <ele>983.4</ele>
        <time>2026-07-08T07:36:06Z</time>
      </trkpt>
      <trkpt lat="43.0108" lon="0.31021">
        <ele>983.4</ele>
        <time>2026-07-08T07:36:07Z</time>
      </trkpt>
      <trkpt lat="43.0108" lon="0.3102">
        <ele>983.4</ele>
        <time>2026-07-08T07:36:08Z</time>
      </trkpt>
      <trkpt lat="43.0108" lon="0.3102">
        <ele>983.4</ele>
        <time>2026-07-08T07:36:09Z</time>
      </trkpt>
      <trkpt lat="43.0108" lon="0.31019">
        <ele>983.4</ele>
        <time>2026-07-08T07:36:10Z</time>
      </trkpt>
      <trkpt lat="43.0108" lon="0.31018">
        <ele>983.4</ele>
        <time>2026-07-08T07:36:11Z</time>
      </trkpt>
      <trkpt lat="43.0108" lon="0.31017">
        <ele>983.4</ele>
        <time>2026-07-08T07:36:11Z</time>
      </trkpt>
      <trkpt lat="43.0108" lon="0.31016">
        <ele>983.4</ele>
        <time>2026-07-08T07:36:12Z</time>
      </trkpt>
      <trkpt lat="43.0108" lon="0.31015">
        <ele>983.4</ele>
        <time>2026-07-08T07:36:13Z</time>
      </trkpt>
      <trkpt lat="43.01079" lon="0.31014">
        <ele>983.4</ele>
        <time>2026-07-08T07:36:14Z</time>
      </trkpt>
      <trkpt lat="43.01079" lon="0.31014">
        <ele>983.4</ele>
        <time>2026-07-08T07:36:15Z</time>
      </trkpt>
      <trkpt lat="43.01079" lon="0.31013">
        <ele>983.4</ele>
        <time>2026-07-08T07:36:16Z</time>
      </trkpt>
      <trkpt lat="43.01078" lon="0.31012">
        <ele>983.4</ele>
        <time>2026-07-08T07:36:17Z</time>
      </trkpt>
      <trkpt lat="43.01078" lon="0.31012">
        <ele>984.4</ele>
        <time>2026-07-08T07:36:17Z</time>
      </trkpt>
      <trkpt lat="43.01078" lon="0.31012">
        <ele>984.4</ele>
        <time>2026-07-08T07:36:17Z</time>
      </trkpt>
      <trkpt lat="43.01078" lon="0.31011">
        <ele>984.4</ele>
        <time>2026-07-08T07:36:18Z</time>
      </trkpt>
      <trkpt lat="43.01078" lon="0.31011">
        <ele>984.4</ele>
        <time>2026-07-08T07:36:18Z</time>
      </trkpt>
      <trkpt lat="43.01078" lon="0.3101">
        <ele>985.4</ele>
        <time>2026-07-08T07:36:19Z</time>
      </trkpt>
      <trkpt lat="43.01078" lon="0.3101">
        <ele>985.4</ele>
        <time>2026-07-08T07:36:20Z</time>
      </trkpt>
      <trkpt lat="43.01077" lon="0.31009">
        <ele>985.4</ele>
        <time>2026-07-08T07:36:21Z</time>
      </trkpt>
      <trkpt lat="43.01077" lon="0.31008">
        <ele>985.4</ele>
        <time>2026-07-08T07:36:22Z</time>
      </trkpt>
      <trkpt lat="43.01077" lon="0.31007">
        <ele>985.4</ele>
        <time>2026-07-08T07:36:23Z</time>
      </trkpt>
      <trkpt lat="43.01076" lon="0.31007">
        <ele>985.4</ele>
        <time>2026-07-08T07:36:24Z</time>
      </trkpt>
      <trkpt lat="43.01076" lon="0.31007">
        <ele>985.4</ele>
        <time>2026-07-08T07:36:25Z</time>
      </trkpt>
      <trkpt lat="43.01075" lon="0.31007">
        <ele>985.4</ele>
        <time>2026-07-08T07:36:26Z</time>
      </trkpt>
      <trkpt lat="43.01075" lon="0.31007">
        <ele>985.4</ele>
        <time>2026-07-08T07:36:26Z</time>
      </trkpt>
      <trkpt lat="43.01075" lon="0.31007">
        <ele>985.4</ele>
        <time>2026-07-08T07:36:27Z</time>
      </trkpt>
      <trkpt lat="43.01075" lon="0.31006">
        <ele>985.4</ele>
        <time>2026-07-08T07:36:27Z</time>
      </trkpt>
      <trkpt lat="43.01075" lon="0.31006">
        <ele>985.4</ele>
        <time>2026-07-08T07:36:28Z</time>
      </trkpt>
      <trkpt lat="43.01075" lon="0.31006">
        <ele>985.4</ele>
        <time>2026-07-08T07:36:29Z</time>
      </trkpt>
      <trkpt lat="43.01075" lon="0.31005">
        <ele>985.4</ele>
        <time>2026-07-08T07:36:30Z</time>
      </trkpt>
      <trkpt lat="43.01075" lon="0.31005">
        <ele>985.4</ele>
        <time>2026-07-08T07:36:30Z</time>
      </trkpt>
      <trkpt lat="43.01074" lon="0.31004">
        <ele>985.4</ele>
        <time>2026-07-08T07:36:31Z</time>
      </trkpt>
      <trkpt lat="43.01074" lon="0.31003">
        <ele>986.4</ele>
        <time>2026-07-08T07:36:32Z</time>
      </trkpt>
      <trkpt lat="43.01074" lon="0.31002">
        <ele>986.4</ele>
        <time>2026-07-08T07:36:33Z</time>
      </trkpt>
      <trkpt lat="43.01073" lon="0.31002">
        <ele>985.4</ele>
        <time>2026-07-08T07:36:34Z</time>
      </trkpt>
      <trkpt lat="43.01073" lon="0.31002">
        <ele>985.4</ele>
        <time>2026-07-08T07:36:35Z</time>
      </trkpt>
      <trkpt lat="43.01072" lon="0.31001">
        <ele>986.4</ele>
        <time>2026-07-08T07:36:36Z</time>
      </trkpt>
      <trkpt lat="43.01072" lon="0.31001">
        <ele>986.4</ele>
        <time>2026-07-08T07:36:37Z</time>
      </trkpt>
      <trkpt lat="43.01072" lon="0.31001">
        <ele>986.4</ele>
        <time>2026-07-08T07:36:38Z</time>
      </trkpt>
      <trkpt lat="43.01072" lon="0.31001">
        <ele>987.4</ele>
        <time>2026-07-08T07:36:39Z</time>
      </trkpt>
      <trkpt lat="43.01073" lon="0.31001">
        <ele>987.4</ele>
        <time>2026-07-08T07:36:40Z</time>
      </trkpt>
      <trkpt lat="43.01072" lon="0.31001">
        <ele>988.4</ele>
        <time>2026-07-08T07:36:41Z</time>
      </trkpt>
      <trkpt lat="43.01072" lon="0.31001">
        <ele>988.4</ele>
        <time>2026-07-08T07:36:41Z</time>
      </trkpt>
      <trkpt lat="43.01072" lon="0.31">
        <ele>988.4</ele>
        <time>2026-07-08T07:36:42Z</time>
      </trkpt>
      <trkpt lat="43.01072" lon="0.31">
        <ele>988.4</ele>
        <time>2026-07-08T07:36:43Z</time>
      </trkpt>
      <trkpt lat="43.01072" lon="0.31">
        <ele>988.4</ele>
        <time>2026-07-08T07:36:43Z</time>
      </trkpt>
      <trkpt lat="43.01072" lon="0.31">
        <ele>988.4</ele>
        <time>2026-07-08T07:36:44Z</time>
      </trkpt>
      <trkpt lat="43.01071" lon="0.30999">
        <ele>988.4</ele>
        <time>2026-07-08T07:36:45Z</time>
      </trkpt>
      <trkpt lat="43.01071" lon="0.30998">
        <ele>988.4</ele>
        <time>2026-07-08T07:36:46Z</time>
      </trkpt>
      <trkpt lat="43.01071" lon="0.30997">
        <ele>988.4</ele>
        <time>2026-07-08T07:36:47Z</time>
      </trkpt>
      <trkpt lat="43.01071" lon="0.30997">
        <ele>989.4</ele>
        <time>2026-07-08T07:36:47Z</time>
      </trkpt>
      <trkpt lat="43.01071" lon="0.30997">
        <ele>989.4</ele>
        <time>2026-07-08T07:36:48Z</time>
      </trkpt>
      <trkpt lat="43.01071" lon="0.30997">
        <ele>989.4</ele>
        <time>2026-07-08T07:36:49Z</time>
      </trkpt>
      <trkpt lat="43.01071" lon="0.30997">
        <ele>989.4</ele>
        <time>2026-07-08T07:36:50Z</time>
      </trkpt>
      <trkpt lat="43.01071" lon="0.30997">
        <ele>989.4</ele>
        <time>2026-07-08T07:36:51Z</time>
      </trkpt>
      <trkpt lat="43.0107" lon="0.30997">
        <ele>990.4</ele>
        <time>2026-07-08T07:36:52Z</time>
      </trkpt>
      <trkpt lat="43.0107" lon="0.30997">
        <ele>990.4</ele>
        <time>2026-07-08T07:36:52Z</time>
      </trkpt>
      <trkpt lat="43.0107" lon="0.30997">
        <ele>990.4</ele>
        <time>2026-07-08T07:36:53Z</time>
      </trkpt>
      <trkpt lat="43.01069" lon="0.30997">
        <ele>990.4</ele>
        <time>2026-07-08T07:36:53Z</time>
      </trkpt>
      <trkpt lat="43.01069" lon="0.30997">
        <ele>991.4</ele>
        <time>2026-07-08T07:36:54Z</time>
      </trkpt>
      <trkpt lat="43.01068" lon="0.30997">
        <ele>990.4</ele>
        <time>2026-07-08T07:36:55Z</time>
      </trkpt>
      <trkpt lat="43.01068" lon="0.30998">
        <ele>991.4</ele>
        <time>2026-07-08T07:36:56Z</time>
      </trkpt>
      <trkpt lat="43.01067" lon="0.30998">
        <ele>992.4</ele>
        <time>2026-07-08T07:36:57Z</time>
      </trkpt>
      <trkpt lat="43.01066" lon="0.30998">
        <ele>992.4</ele>
        <time>2026-07-08T07:36:58Z</time>
      </trkpt>
      <trkpt lat="43.01066" lon="0.30998">
        <ele>992.4</ele>
        <time>2026-07-08T07:36:59Z</time>
      </trkpt>
      <trkpt lat="43.01065" lon="0.30999">
        <ele>992.4</ele>
        <time>2026-07-08T07:37:00Z</time>
      </trkpt>
      <trkpt lat="43.01065" lon="0.30999">
        <ele>991.4</ele>
        <time>2026-07-08T07:37:01Z</time>
      </trkpt>
      <trkpt lat="43.01064" lon="0.30999">
        <ele>992.4</ele>
        <time>2026-07-08T07:37:01Z</time>
      </trkpt>
      <trkpt lat="43.01064" lon="0.30999">
        <ele>992.4</ele>
        <time>2026-07-08T07:37:02Z</time>
      </trkpt>
      <trkpt lat="43.01063" lon="0.30998">
        <ele>992.4</ele>
        <time>2026-07-08T07:37:03Z</time>
      </trkpt>
      <trkpt lat="43.01062" lon="0.30998">
        <ele>992.4</ele>
        <time>2026-07-08T07:37:04Z</time>
      </trkpt>
      <trkpt lat="43.01062" lon="0.30997">
        <ele>992.4</ele>
        <time>2026-07-08T07:37:05Z</time>
      </trkpt>
      <trkpt lat="43.01061" lon="0.30996">
        <ele>992.4</ele>
        <time>2026-07-08T07:37:06Z</time>
      </trkpt>
      <trkpt lat="43.01062" lon="0.30995">
        <ele>992.4</ele>
        <time>2026-07-08T07:37:07Z</time>
      </trkpt>
      <trkpt lat="43.01062" lon="0.30995">
        <ele>992.4</ele>
        <time>2026-07-08T07:37:08Z</time>
      </trkpt>
      <trkpt lat="43.01063" lon="0.30995">
        <ele>992.4</ele>
        <time>2026-07-08T07:37:08Z</time>
      </trkpt>
      <trkpt lat="43.01063" lon="0.30995">
        <ele>991.4</ele>
        <time>2026-07-08T07:37:09Z</time>
      </trkpt>
      <trkpt lat="43.01063" lon="0.30994">
        <ele>991.4</ele>
        <time>2026-07-08T07:37:10Z</time>
      </trkpt>
      <trkpt lat="43.01063" lon="0.30994">
        <ele>991.4</ele>
        <time>2026-07-08T07:37:11Z</time>
      </trkpt>
      <trkpt lat="43.01063" lon="0.30993">
        <ele>991.4</ele>
        <time>2026-07-08T07:37:12Z</time>
      </trkpt>
      <trkpt lat="43.01063" lon="0.30993">
        <ele>991.4</ele>
        <time>2026-07-08T07:37:12Z</time>
      </trkpt>
      <trkpt lat="43.01063" lon="0.30992">
        <ele>991.4</ele>
        <time>2026-07-08T07:37:13Z</time>
      </trkpt>
      <trkpt lat="43.01062" lon="0.30992">
        <ele>991.4</ele>
        <time>2026-07-08T07:37:14Z</time>
      </trkpt>
      <trkpt lat="43.01061" lon="0.30991">
        <ele>991.4</ele>
        <time>2026-07-08T07:37:15Z</time>
      </trkpt>
      <trkpt lat="43.01061" lon="0.30991">
        <ele>991.4</ele>
        <time>2026-07-08T07:37:16Z</time>
      </trkpt>
      <trkpt lat="43.01061" lon="0.30991">
        <ele>991.4</ele>
        <time>2026-07-08T07:37:17Z</time>
      </trkpt>
      <trkpt lat="43.0106" lon="0.3099">
        <ele>991.4</ele>
        <time>2026-07-08T07:37:18Z</time>
      </trkpt>
      <trkpt lat="43.0106" lon="0.3099">
        <ele>991.4</ele>
        <time>2026-07-08T07:37:19Z</time>
      </trkpt>
      <trkpt lat="43.01059" lon="0.30989">
        <ele>991.4</ele>
        <time>2026-07-08T07:37:19Z</time>
      </trkpt>
      <trkpt lat="43.01059" lon="0.30989">
        <ele>992.4</ele>
        <time>2026-07-08T07:37:20Z</time>
      </trkpt>
      <trkpt lat="43.01059" lon="0.30989">
        <ele>992.4</ele>
        <time>2026-07-08T07:37:21Z</time>
      </trkpt>
      <trkpt lat="43.01058" lon="0.30988">
        <ele>992.4</ele>
        <time>2026-07-08T07:37:22Z</time>
      </trkpt>
      <trkpt lat="43.01058" lon="0.30988">
        <ele>992.4</ele>
        <time>2026-07-08T07:37:23Z</time>
      </trkpt>
      <trkpt lat="43.01058" lon="0.30988">
        <ele>993.4</ele>
        <time>2026-07-08T07:37:24Z</time>
      </trkpt>
      <trkpt lat="43.01058" lon="0.30988">
        <ele>993.4</ele>
        <time>2026-07-08T07:37:25Z</time>
      </trkpt>
      <trkpt lat="43.01058" lon="0.30988">
        <ele>993.4</ele>
        <time>2026-07-08T07:37:26Z</time>
      </trkpt>
      <trkpt lat="43.01058" lon="0.30988">
        <ele>994.4</ele>
        <time>2026-07-08T07:37:26Z</time>
      </trkpt>
      <trkpt lat="43.01058" lon="0.30987">
        <ele>994.4</ele>
        <time>2026-07-08T07:37:27Z</time>
      </trkpt>
      <trkpt lat="43.01058" lon="0.30987">
        <ele>994.4</ele>
        <time>2026-07-08T07:37:28Z</time>
      </trkpt>
      <trkpt lat="43.01058" lon="0.30986">
        <ele>993.4</ele>
        <time>2026-07-08T07:37:29Z</time>
      </trkpt>
      <trkpt lat="43.01058" lon="0.30986">
        <ele>993.4</ele>
        <time>2026-07-08T07:37:30Z</time>
      </trkpt>
      <trkpt lat="43.01058" lon="0.30986">
        <ele>994.4</ele>
        <time>2026-07-08T07:37:31Z</time>
      </trkpt>
      <trkpt lat="43.01058" lon="0.30987">
        <ele>994.4</ele>
        <time>2026-07-08T07:37:32Z</time>
      </trkpt>
      <trkpt lat="43.01058" lon="0.30987">
        <ele>994.4</ele>
        <time>2026-07-08T07:37:33Z</time>
      </trkpt>
      <trkpt lat="43.01058" lon="0.30987">
        <ele>994.4</ele>
        <time>2026-07-08T07:37:33Z</time>
      </trkpt>
      <trkpt lat="43.01058" lon="0.30987">
        <ele>994.4</ele>
        <time>2026-07-08T07:37:34Z</time>
      </trkpt>
      <trkpt lat="43.01057" lon="0.30987">
        <ele>994.4</ele>
        <time>2026-07-08T07:37:35Z</time>
      </trkpt>
      <trkpt lat="43.01057" lon="0.30986">
        <ele>994.4</ele>
        <time>2026-07-08T07:37:36Z</time>
      </trkpt>
      <trkpt lat="43.01056" lon="0.30986">
        <ele>994.4</ele>
        <time>2026-07-08T07:37:37Z</time>
      </trkpt>
      <trkpt lat="43.01055" lon="0.30985">
        <ele>994.4</ele>
        <time>2026-07-08T07:37:37Z</time>
      </trkpt>
      <trkpt lat="43.01055" lon="0.30985">
        <ele>994.4</ele>
        <time>2026-07-08T07:37:38Z</time>
      </trkpt>
      <trkpt lat="43.01054" lon="0.30985">
        <ele>994.4</ele>
        <time>2026-07-08T07:37:39Z</time>
      </trkpt>
      <trkpt lat="43.01054" lon="0.30985">
        <ele>995.4</ele>
        <time>2026-07-08T07:37:40Z</time>
      </trkpt>
      <trkpt lat="43.01053" lon="0.30986">
        <ele>995.4</ele>
        <time>2026-07-08T07:37:41Z</time>
      </trkpt>
      <trkpt lat="43.01053" lon="0.30986">
        <ele>995.4</ele>
        <time>2026-07-08T07:37:42Z</time>
      </trkpt>
      <trkpt lat="43.01052" lon="0.30986">
        <ele>995.4</ele>
        <time>2026-07-08T07:37:43Z</time>
      </trkpt>
      <trkpt lat="43.01052" lon="0.30986">
        <ele>995.4</ele>
        <time>2026-07-08T07:37:44Z</time>
      </trkpt>
      <trkpt lat="43.01051" lon="0.30985">
        <ele>995.4</ele>
        <time>2026-07-08T07:37:45Z</time>
      </trkpt>
      <trkpt lat="43.0105" lon="0.30985">
        <ele>995.4</ele>
        <time>2026-07-08T07:37:46Z</time>
      </trkpt>
      <trkpt lat="43.0105" lon="0.30985">
        <ele>995.4</ele>
        <time>2026-07-08T07:37:47Z</time>
      </trkpt>
      <trkpt lat="43.01049" lon="0.30984">
        <ele>995.4</ele>
        <time>2026-07-08T07:37:47Z</time>
      </trkpt>
      <trkpt lat="43.01049" lon="0.30984">
        <ele>995.4</ele>
        <time>2026-07-08T07:37:48Z</time>
      </trkpt>
      <trkpt lat="43.01049" lon="0.30984">
        <ele>995.4</ele>
        <time>2026-07-08T07:37:49Z</time>
      </trkpt>
      <trkpt lat="43.01049" lon="0.30984">
        <ele>996.4</ele>
        <time>2026-07-08T07:37:50Z</time>
      </trkpt>
      <trkpt lat="43.01048" lon="0.30984">
        <ele>996.4</ele>
        <time>2026-07-08T07:37:51Z</time>
      </trkpt>
      <trkpt lat="43.01048" lon="0.30985">
        <ele>995.4</ele>
        <time>2026-07-08T07:37:52Z</time>
      </trkpt>
      <trkpt lat="43.01048" lon="0.30984">
        <ele>995.4</ele>
        <time>2026-07-08T07:37:53Z</time>
      </trkpt>
      <trkpt lat="43.01047" lon="0.30984">
        <ele>995.4</ele>
        <time>2026-07-08T07:37:54Z</time>
      </trkpt>
      <trkpt lat="43.01047" lon="0.30984">
        <ele>995.4</ele>
        <time>2026-07-08T07:37:55Z</time>
      </trkpt>
      <trkpt lat="43.01047" lon="0.30985">
        <ele>996.4</ele>
        <time>2026-07-08T07:37:56Z</time>
      </trkpt>
      <trkpt lat="43.01047" lon="0.30985">
        <ele>996.4</ele>
        <time>2026-07-08T07:37:57Z</time>
      </trkpt>
      <trkpt lat="43.01047" lon="0.30985">
        <ele>996.4</ele>
        <time>2026-07-08T07:37:58Z</time>
      </trkpt>
      <trkpt lat="43.01047" lon="0.30985">
        <ele>997.4</ele>
        <time>2026-07-08T07:37:59Z</time>
      </trkpt>
      <trkpt lat="43.01047" lon="0.30985">
        <ele>998.4</ele>
        <time>2026-07-08T07:37:59Z</time>
      </trkpt>
      <trkpt lat="43.01046" lon="0.30985">
        <ele>997.4</ele>
        <time>2026-07-08T07:38:00Z</time>
      </trkpt>
      <trkpt lat="43.01046" lon="0.30985">
        <ele>997.4</ele>
        <time>2026-07-08T07:38:01Z</time>
      </trkpt>
      <trkpt lat="43.01045" lon="0.30985">
        <ele>998.4</ele>
        <time>2026-07-08T07:38:02Z</time>
      </trkpt>
      <trkpt lat="43.01045" lon="0.30985">
        <ele>998.4</ele>
        <time>2026-07-08T07:38:02Z</time>
      </trkpt>
      <trkpt lat="43.01045" lon="0.30985">
        <ele>999.4</ele>
        <time>2026-07-08T07:38:03Z</time>
      </trkpt>
      <trkpt lat="43.01044" lon="0.30985">
        <ele>999.4</ele>
        <time>2026-07-08T07:38:04Z</time>
      </trkpt>
      <trkpt lat="43.01044" lon="0.30985">
        <ele>999.4</ele>
        <time>2026-07-08T07:38:05Z</time>
      </trkpt>
      <trkpt lat="43.01043" lon="0.30985">
        <ele>999.4</ele>
        <time>2026-07-08T07:38:06Z</time>
      </trkpt>
      <trkpt lat="43.01043" lon="0.30985">
        <ele>999.4</ele>
        <time>2026-07-08T07:38:06Z</time>
      </trkpt>
      <trkpt lat="43.01042" lon="0.30985">
        <ele>999.4</ele>
        <time>2026-07-08T07:38:07Z</time>
      </trkpt>
      <trkpt lat="43.01043" lon="0.30985">
        <ele>1000.4</ele>
        <time>2026-07-08T07:38:08Z</time>
      </trkpt>
      <trkpt lat="43.01045" lon="0.30985">
        <ele>1000.4</ele>
        <time>2026-07-08T07:38:09Z</time>
      </trkpt>
      <trkpt lat="43.01046" lon="0.30985">
        <ele>1000.4</ele>
        <time>2026-07-08T07:38:10Z</time>
      </trkpt>
      <trkpt lat="43.01047" lon="0.30985">
        <ele>999.4</ele>
        <time>2026-07-08T07:38:11Z</time>
      </trkpt>
      <trkpt lat="43.01047" lon="0.30985">
        <ele>999.4</ele>
        <time>2026-07-08T07:38:12Z</time>
      </trkpt>
      <trkpt lat="43.01047" lon="0.30986">
        <ele>1000.4</ele>
        <time>2026-07-08T07:38:13Z</time>
      </trkpt>
      <trkpt lat="43.01047" lon="0.30986">
        <ele>1000.4</ele>
        <time>2026-07-08T07:38:14Z</time>
      </trkpt>
      <trkpt lat="43.01047" lon="0.30986">
        <ele>1000.4</ele>
        <time>2026-07-08T07:38:15Z</time>
      </trkpt>
      <trkpt lat="43.01047" lon="0.30986">
        <ele>1000.4</ele>
        <time>2026-07-08T07:38:16Z</time>
      </trkpt>
      <trkpt lat="43.01046" lon="0.30986">
        <ele>1000.4</ele>
        <time>2026-07-08T07:38:17Z</time>
      </trkpt>
      <trkpt lat="43.01046" lon="0.30986">
        <ele>1000.4</ele>
        <time>2026-07-08T07:38:18Z</time>
      </trkpt>
      <trkpt lat="43.01046" lon="0.30986">
        <ele>1000.4</ele>
        <time>2026-07-08T07:38:19Z</time>
      </trkpt>
      <trkpt lat="43.01046" lon="0.30985">
        <ele>1000.4</ele>
        <time>2026-07-08T07:38:20Z</time>
      </trkpt>
      <trkpt lat="43.01045" lon="0.30985">
        <ele>1001.4</ele>
        <time>2026-07-08T07:38:20Z</time>
      </trkpt>
      <trkpt lat="43.01045" lon="0.30985">
        <ele>1001.4</ele>
        <time>2026-07-08T07:38:21Z</time>
      </trkpt>
      <trkpt lat="43.01045" lon="0.30985">
        <ele>1000.4</ele>
        <time>2026-07-08T07:38:22Z</time>
      </trkpt>
      <trkpt lat="43.01044" lon="0.30985">
        <ele>1000.4</ele>
        <time>2026-07-08T07:38:23Z</time>
      </trkpt>
      <trkpt lat="43.01044" lon="0.30985">
        <ele>1000.4</ele>
        <time>2026-07-08T07:38:23Z</time>
      </trkpt>
      <trkpt lat="43.01043" lon="0.30985">
        <ele>1000.4</ele>
        <time>2026-07-08T07:38:24Z</time>
      </trkpt>
      <trkpt lat="43.01042" lon="0.30984">
        <ele>1000.4</ele>
        <time>2026-07-08T07:38:25Z</time>
      </trkpt>
      <trkpt lat="43.01041" lon="0.30984">
        <ele>1000.4</ele>
        <time>2026-07-08T07:38:25Z</time>
      </trkpt>
      <trkpt lat="43.01041" lon="0.30984">
        <ele>1001.4</ele>
        <time>2026-07-08T07:38:26Z</time>
      </trkpt>
      <trkpt lat="43.0104" lon="0.30983">
        <ele>1001.4</ele>
        <time>2026-07-08T07:38:27Z</time>
      </trkpt>
      <trkpt lat="43.01039" lon="0.30983">
        <ele>1001.4</ele>
        <time>2026-07-08T07:38:27Z</time>
      </trkpt>
      <trkpt lat="43.01039" lon="0.30983">
        <ele>1001.4</ele>
        <time>2026-07-08T07:38:28Z</time>
      </trkpt>
      <trkpt lat="43.01038" lon="0.30983">
        <ele>1001.4</ele>
        <time>2026-07-08T07:38:28Z</time>
      </trkpt>
      <trkpt lat="43.01037" lon="0.30983">
        <ele>1001.4</ele>
        <time>2026-07-08T07:38:29Z</time>
      </trkpt>
      <trkpt lat="43.01036" lon="0.30983">
        <ele>1001.4</ele>
        <time>2026-07-08T07:38:29Z</time>
      </trkpt>
      <trkpt lat="43.01035" lon="0.30982">
        <ele>1002.4</ele>
        <time>2026-07-08T07:38:30Z</time>
      </trkpt>
      <trkpt lat="43.01034" lon="0.30982">
        <ele>1002.4</ele>
        <time>2026-07-08T07:38:31Z</time>
      </trkpt>
      <trkpt lat="43.01034" lon="0.30982">
        <ele>1002.4</ele>
        <time>2026-07-08T07:38:32Z</time>
      </trkpt>
      <trkpt lat="43.01033" lon="0.30981">
        <ele>1001.4</ele>
        <time>2026-07-08T07:38:33Z</time>
      </trkpt>
      <trkpt lat="43.01032" lon="0.30981">
        <ele>1001.4</ele>
        <time>2026-07-08T07:38:33Z</time>
      </trkpt>
      <trkpt lat="43.01032" lon="0.30981">
        <ele>1001.4</ele>
        <time>2026-07-08T07:38:34Z</time>
      </trkpt>
      <trkpt lat="43.01031" lon="0.3098">
        <ele>1001.4</ele>
        <time>2026-07-08T07:38:35Z</time>
      </trkpt>
      <trkpt lat="43.01031" lon="0.3098">
        <ele>1001.4</ele>
        <time>2026-07-08T07:38:36Z</time>
      </trkpt>
      <trkpt lat="43.0103" lon="0.30979">
        <ele>1001.4</ele>
        <time>2026-07-08T07:38:37Z</time>
      </trkpt>
      <trkpt lat="43.0103" lon="0.30979">
        <ele>1003.4</ele>
        <time>2026-07-08T07:38:38Z</time>
      </trkpt>
      <trkpt lat="43.01029" lon="0.30978">
        <ele>1002.4</ele>
        <time>2026-07-08T07:38:39Z</time>
      </trkpt>
      <trkpt lat="43.01029" lon="0.30977">
        <ele>1002.4</ele>
        <time>2026-07-08T07:38:40Z</time>
      </trkpt>
      <trkpt lat="43.01028" lon="0.30977">
        <ele>1003.4</ele>
        <time>2026-07-08T07:38:41Z</time>
      </trkpt>
      <trkpt lat="43.01028" lon="0.30976">
        <ele>1004.4</ele>
        <time>2026-07-08T07:38:41Z</time>
      </trkpt>
      <trkpt lat="43.01027" lon="0.30976">
        <ele>1004.4</ele>
        <time>2026-07-08T07:38:42Z</time>
      </trkpt>
      <trkpt lat="43.01027" lon="0.30975">
        <ele>1004.4</ele>
        <time>2026-07-08T07:38:43Z</time>
      </trkpt>
      <trkpt lat="43.01026" lon="0.30974">
        <ele>1004.4</ele>
        <time>2026-07-08T07:38:44Z</time>
      </trkpt>
      <trkpt lat="43.01025" lon="0.30974">
        <ele>1004.4</ele>
        <time>2026-07-08T07:38:45Z</time>
      </trkpt>
      <trkpt lat="43.01025" lon="0.30973">
        <ele>1004.4</ele>
        <time>2026-07-08T07:38:46Z</time>
      </trkpt>
      <trkpt lat="43.01024" lon="0.30972">
        <ele>1004.4</ele>
        <time>2026-07-08T07:38:47Z</time>
      </trkpt>
      <trkpt lat="43.01024" lon="0.30972">
        <ele>1004.4</ele>
        <time>2026-07-08T07:38:47Z</time>
      </trkpt>
      <trkpt lat="43.01024" lon="0.30971">
        <ele>1004.4</ele>
        <time>2026-07-08T07:38:48Z</time>
      </trkpt>
      <trkpt lat="43.01023" lon="0.30971">
        <ele>1004.4</ele>
        <time>2026-07-08T07:38:49Z</time>
      </trkpt>
      <trkpt lat="43.01023" lon="0.3097">
        <ele>1003.4</ele>
        <time>2026-07-08T07:38:50Z</time>
      </trkpt>
      <trkpt lat="43.01023" lon="0.30969">
        <ele>1004.4</ele>
        <time>2026-07-08T07:38:51Z</time>
      </trkpt>
      <trkpt lat="43.01022" lon="0.30969">
        <ele>1004.4</ele>
        <time>2026-07-08T07:38:51Z</time>
      </trkpt>
      <trkpt lat="43.01022" lon="0.30968">
        <ele>1004.4</ele>
        <time>2026-07-08T07:38:52Z</time>
      </trkpt>
      <trkpt lat="43.01021" lon="0.30968">
        <ele>1004.4</ele>
        <time>2026-07-08T07:38:53Z</time>
      </trkpt>
      <trkpt lat="43.01021" lon="0.30968">
        <ele>1005.4</ele>
        <time>2026-07-08T07:38:54Z</time>
      </trkpt>
      <trkpt lat="43.01021" lon="0.30967">
        <ele>1005.4</ele>
        <time>2026-07-08T07:38:55Z</time>
      </trkpt>
      <trkpt lat="43.01021" lon="0.30966">
        <ele>1004.4</ele>
        <time>2026-07-08T07:38:56Z</time>
      </trkpt>
      <trkpt lat="43.01021" lon="0.30965">
        <ele>1004.4</ele>
        <time>2026-07-08T07:38:57Z</time>
      </trkpt>
      <trkpt lat="43.0102" lon="0.30965">
        <ele>1004.4</ele>
        <time>2026-07-08T07:38:58Z</time>
      </trkpt>
      <trkpt lat="43.0102" lon="0.30965">
        <ele>1004.4</ele>
        <time>2026-07-08T07:38:59Z</time>
      </trkpt>
      <trkpt lat="43.01019" lon="0.30965">
        <ele>1004.4</ele>
        <time>2026-07-08T07:39:00Z</time>
      </trkpt>
      <trkpt lat="43.01019" lon="0.30965">
        <ele>1004.4</ele>
        <time>2026-07-08T07:39:00Z</time>
      </trkpt>
      <trkpt lat="43.01019" lon="0.30965">
        <ele>1005.4</ele>
        <time>2026-07-08T07:39:01Z</time>
      </trkpt>
      <trkpt lat="43.01019" lon="0.30965">
        <ele>1005.4</ele>
        <time>2026-07-08T07:39:02Z</time>
      </trkpt>
      <trkpt lat="43.01019" lon="0.30965">
        <ele>1005.4</ele>
        <time>2026-07-08T07:39:03Z</time>
      </trkpt>
      <trkpt lat="43.01019" lon="0.30964">
        <ele>1005.4</ele>
        <time>2026-07-08T07:39:04Z</time>
      </trkpt>
      <trkpt lat="43.01018" lon="0.30964">
        <ele>1005.4</ele>
        <time>2026-07-08T07:39:05Z</time>
      </trkpt>
      <trkpt lat="43.01018" lon="0.30963">
        <ele>1005.4</ele>
        <time>2026-07-08T07:39:06Z</time>
      </trkpt>
      <trkpt lat="43.01018" lon="0.30963">
        <ele>1006.4</ele>
        <time>2026-07-08T07:39:07Z</time>
      </trkpt>
      <trkpt lat="43.01018" lon="0.30963">
        <ele>1006.4</ele>
        <time>2026-07-08T07:39:08Z</time>
      </trkpt>
      <trkpt lat="43.01018" lon="0.30962">
        <ele>1006.4</ele>
        <time>2026-07-08T07:39:08Z</time>
      </trkpt>
      <trkpt lat="43.01017" lon="0.30962">
        <ele>1006.4</ele>
        <time>2026-07-08T07:39:09Z</time>
      </trkpt>
      <trkpt lat="43.01016" lon="0.30961">
        <ele>1006.4</ele>
        <time>2026-07-08T07:39:10Z</time>
      </trkpt>
      <trkpt lat="43.01016" lon="0.30961">
        <ele>1005.4</ele>
        <time>2026-07-08T07:39:11Z</time>
      </trkpt>
      <trkpt lat="43.01017" lon="0.3096">
        <ele>1005.4</ele>
        <time>2026-07-08T07:39:12Z</time>
      </trkpt>
      <trkpt lat="43.01016" lon="0.3096">
        <ele>1006.4</ele>
        <time>2026-07-08T07:39:13Z</time>
      </trkpt>
      <trkpt lat="43.01017" lon="0.30959">
        <ele>1006.4</ele>
        <time>2026-07-08T07:39:13Z</time>
      </trkpt>
      <trkpt lat="43.01016" lon="0.30959">
        <ele>1006.4</ele>
        <time>2026-07-08T07:39:14Z</time>
      </trkpt>
      <trkpt lat="43.01016" lon="0.30958">
        <ele>1006.4</ele>
        <time>2026-07-08T07:39:15Z</time>
      </trkpt>
      <trkpt lat="43.01016" lon="0.30957">
        <ele>1006.4</ele>
        <time>2026-07-08T07:39:16Z</time>
      </trkpt>
      <trkpt lat="43.01015" lon="0.30956">
        <ele>1007.4</ele>
        <time>2026-07-08T07:39:17Z</time>
      </trkpt>
      <trkpt lat="43.01015" lon="0.30955">
        <ele>1007.4</ele>
        <time>2026-07-08T07:39:18Z</time>
      </trkpt>
      <trkpt lat="43.01015" lon="0.30954">
        <ele>1007.4</ele>
        <time>2026-07-08T07:39:19Z</time>
      </trkpt>
      <trkpt lat="43.01016" lon="0.30953">
        <ele>1008.4</ele>
        <time>2026-07-08T07:39:20Z</time>
      </trkpt>
      <trkpt lat="43.01016" lon="0.30953">
        <ele>1008.4</ele>
        <time>2026-07-08T07:39:21Z</time>
      </trkpt>
      <trkpt lat="43.01016" lon="0.30952">
        <ele>1007.4</ele>
        <time>2026-07-08T07:39:22Z</time>
      </trkpt>
      <trkpt lat="43.01016" lon="0.30951">
        <ele>1007.4</ele>
        <time>2026-07-08T07:39:23Z</time>
      </trkpt>
      <trkpt lat="43.01016" lon="0.30951">
        <ele>1008.4</ele>
        <time>2026-07-08T07:39:23Z</time>
      </trkpt>
      <trkpt lat="43.01016" lon="0.30951">
        <ele>1008.4</ele>
        <time>2026-07-08T07:39:24Z</time>
      </trkpt>
      <trkpt lat="43.01015" lon="0.3095">
        <ele>1008.4</ele>
        <time>2026-07-08T07:39:25Z</time>
      </trkpt>
      <trkpt lat="43.01014" lon="0.3095">
        <ele>1009.4</ele>
        <time>2026-07-08T07:39:26Z</time>
      </trkpt>
      <trkpt lat="43.01014" lon="0.30951">
        <ele>1009.4</ele>
        <time>2026-07-08T07:39:27Z</time>
      </trkpt>
      <trkpt lat="43.01014" lon="0.30951">
        <ele>1009.4</ele>
        <time>2026-07-08T07:39:28Z</time>
      </trkpt>
      <trkpt lat="43.01013" lon="0.30951">
        <ele>1009.4</ele>
        <time>2026-07-08T07:39:29Z</time>
      </trkpt>
      <trkpt lat="43.01012" lon="0.30951">
        <ele>1009.4</ele>
        <time>2026-07-08T07:39:30Z</time>
      </trkpt>
      <trkpt lat="43.01012" lon="0.30952">
        <ele>1009.4</ele>
        <time>2026-07-08T07:39:30Z</time>
      </trkpt>
      <trkpt lat="43.01011" lon="0.30952">
        <ele>1009.4</ele>
        <time>2026-07-08T07:39:31Z</time>
      </trkpt>
      <trkpt lat="43.0101" lon="0.30952">
        <ele>1009.4</ele>
        <time>2026-07-08T07:39:32Z</time>
      </trkpt>
      <trkpt lat="43.01009" lon="0.30953">
        <ele>1009.4</ele>
        <time>2026-07-08T07:39:33Z</time>
      </trkpt>
      <trkpt lat="43.01008" lon="0.30953">
        <ele>1009.4</ele>
        <time>2026-07-08T07:39:34Z</time>
      </trkpt>
      <trkpt lat="43.01007" lon="0.30954">
        <ele>1010.4</ele>
        <time>2026-07-08T07:39:35Z</time>
      </trkpt>
      <trkpt lat="43.01007" lon="0.30954">
        <ele>1010.4</ele>
        <time>2026-07-08T07:39:35Z</time>
      </trkpt>
      <trkpt lat="43.01006" lon="0.30954">
        <ele>1010.4</ele>
        <time>2026-07-08T07:39:36Z</time>
      </trkpt>
      <trkpt lat="43.01005" lon="0.30954">
        <ele>1011.4</ele>
        <time>2026-07-08T07:39:37Z</time>
      </trkpt>
      <trkpt lat="43.01004" lon="0.30954">
        <ele>1011.4</ele>
        <time>2026-07-08T07:39:38Z</time>
      </trkpt>
      <trkpt lat="43.01004" lon="0.30955">
        <ele>1012.4</ele>
        <time>2026-07-08T07:39:39Z</time>
      </trkpt>
      <trkpt lat="43.01003" lon="0.30955">
        <ele>1012.4</ele>
        <time>2026-07-08T07:39:40Z</time>
      </trkpt>
      <trkpt lat="43.01003" lon="0.30955">
        <ele>1012.4</ele>
        <time>2026-07-08T07:39:40Z</time>
      </trkpt>
      <trkpt lat="43.01002" lon="0.30955">
        <ele>1012.4</ele>
        <time>2026-07-08T07:39:41Z</time>
      </trkpt>
      <trkpt lat="43.01001" lon="0.30955">
        <ele>1012.4</ele>
        <time>2026-07-08T07:39:42Z</time>
      </trkpt>
      <trkpt lat="43.01001" lon="0.30955">
        <ele>1012.4</ele>
        <time>2026-07-08T07:39:43Z</time>
      </trkpt>
      <trkpt lat="43.01" lon="0.30955">
        <ele>1013.4</ele>
        <time>2026-07-08T07:39:44Z</time>
      </trkpt>
      <trkpt lat="43.01" lon="0.30955">
        <ele>1013.4</ele>
        <time>2026-07-08T07:39:45Z</time>
      </trkpt>
      <trkpt lat="43.00999" lon="0.30955">
        <ele>1013.4</ele>
        <time>2026-07-08T07:39:45Z</time>
      </trkpt>
      <trkpt lat="43.00999" lon="0.30955">
        <ele>1013.4</ele>
        <time>2026-07-08T07:39:46Z</time>
      </trkpt>
      <trkpt lat="43.00998" lon="0.30955">
        <ele>1014.4</ele>
        <time>2026-07-08T07:39:47Z</time>
      </trkpt>
      <trkpt lat="43.00998" lon="0.30955">
        <ele>1014.4</ele>
        <time>2026-07-08T07:39:48Z</time>
      </trkpt>
      <trkpt lat="43.00997" lon="0.30954">
        <ele>1014.4</ele>
        <time>2026-07-08T07:39:49Z</time>
      </trkpt>
      <trkpt lat="43.00997" lon="0.30954">
        <ele>1014.4</ele>
        <time>2026-07-08T07:39:50Z</time>
      </trkpt>
      <trkpt lat="43.00996" lon="0.30954">
        <ele>1014.4</ele>
        <time>2026-07-08T07:39:51Z</time>
      </trkpt>
      <trkpt lat="43.00996" lon="0.30953">
        <ele>1014.4</ele>
        <time>2026-07-08T07:39:52Z</time>
      </trkpt>
      <trkpt lat="43.00996" lon="0.30953">
        <ele>1014.4</ele>
        <time>2026-07-08T07:39:53Z</time>
      </trkpt>
      <trkpt lat="43.00995" lon="0.30953">
        <ele>1015.4</ele>
        <time>2026-07-08T07:39:54Z</time>
      </trkpt>
      <trkpt lat="43.00995" lon="0.30953">
        <ele>1015.4</ele>
        <time>2026-07-08T07:39:55Z</time>
      </trkpt>
      <trkpt lat="43.00995" lon="0.30953">
        <ele>1015.4</ele>
        <time>2026-07-08T07:39:55Z</time>
      </trkpt>
      <trkpt lat="43.00994" lon="0.30953">
        <ele>1015.4</ele>
        <time>2026-07-08T07:39:56Z</time>
      </trkpt>
      <trkpt lat="43.00994" lon="0.30952">
        <ele>1015.4</ele>
        <time>2026-07-08T07:39:57Z</time>
      </trkpt>
      <trkpt lat="43.00994" lon="0.30952">
        <ele>1015.4</ele>
        <time>2026-07-08T07:39:58Z</time>
      </trkpt>
      <trkpt lat="43.00994" lon="0.30953">
        <ele>1017.4</ele>
        <time>2026-07-08T07:39:59Z</time>
      </trkpt>
      <trkpt lat="43.00993" lon="0.30952">
        <ele>1017.4</ele>
        <time>2026-07-08T07:40:00Z</time>
      </trkpt>
      <trkpt lat="43.00993" lon="0.30952">
        <ele>1017.4</ele>
        <time>2026-07-08T07:40:01Z</time>
      </trkpt>
      <trkpt lat="43.00993" lon="0.30952">
        <ele>1016.4</ele>
        <time>2026-07-08T07:40:02Z</time>
      </trkpt>
      <trkpt lat="43.00992" lon="0.30952">
        <ele>1017.4</ele>
        <time>2026-07-08T07:40:03Z</time>
      </trkpt>
      <trkpt lat="43.00991" lon="0.30952">
        <ele>1017.4</ele>
        <time>2026-07-08T07:40:03Z</time>
      </trkpt>
      <trkpt lat="43.00991" lon="0.30952">
        <ele>1017.4</ele>
        <time>2026-07-08T07:40:04Z</time>
      </trkpt>
      <trkpt lat="43.0099" lon="0.30952">
        <ele>1017.4</ele>
        <time>2026-07-08T07:40:05Z</time>
      </trkpt>
      <trkpt lat="43.0099" lon="0.30951">
        <ele>1018.4</ele>
        <time>2026-07-08T07:40:06Z</time>
      </trkpt>
      <trkpt lat="43.00989" lon="0.30951">
        <ele>1018.4</ele>
        <time>2026-07-08T07:40:07Z</time>
      </trkpt>
      <trkpt lat="43.00989" lon="0.30951">
        <ele>1018.4</ele>
        <time>2026-07-08T07:40:08Z</time>
      </trkpt>
      <trkpt lat="43.00989" lon="0.30951">
        <ele>1019.4</ele>
        <time>2026-07-08T07:40:08Z</time>
      </trkpt>
      <trkpt lat="43.00988" lon="0.30951">
        <ele>1019.4</ele>
        <time>2026-07-08T07:40:09Z</time>
      </trkpt>
      <trkpt lat="43.00988" lon="0.30951">
        <ele>1019.4</ele>
        <time>2026-07-08T07:40:10Z</time>
      </trkpt>
      <trkpt lat="43.00987" lon="0.30951">
        <ele>1019.4</ele>
        <time>2026-07-08T07:40:11Z</time>
      </trkpt>
      <trkpt lat="43.00987" lon="0.30951">
        <ele>1018.4</ele>
        <time>2026-07-08T07:40:12Z</time>
      </trkpt>
      <trkpt lat="43.00987" lon="0.30951">
        <ele>1019.4</ele>
        <time>2026-07-08T07:40:12Z</time>
      </trkpt>
      <trkpt lat="43.00987" lon="0.30951">
        <ele>1019.4</ele>
        <time>2026-07-08T07:40:13Z</time>
      </trkpt>
      <trkpt lat="43.00987" lon="0.30951">
        <ele>1019.4</ele>
        <time>2026-07-08T07:40:14Z</time>
      </trkpt>
      <trkpt lat="43.00987" lon="0.30951">
        <ele>1020.4</ele>
        <time>2026-07-08T07:40:14Z</time>
      </trkpt>
      <trkpt lat="43.00987" lon="0.30951">
        <ele>1020.4</ele>
        <time>2026-07-08T07:40:15Z</time>
      </trkpt>
      <trkpt lat="43.00987" lon="0.3095">
        <ele>1020.4</ele>
        <time>2026-07-08T07:40:16Z</time>
      </trkpt>
      <trkpt lat="43.00986" lon="0.3095">
        <ele>1020.4</ele>
        <time>2026-07-08T07:40:16Z</time>
      </trkpt>
      <trkpt lat="43.00986" lon="0.3095">
        <ele>1021.4</ele>
        <time>2026-07-08T07:40:17Z</time>
      </trkpt>
      <trkpt lat="43.00985" lon="0.3095">
        <ele>1021.4</ele>
        <time>2026-07-08T07:40:18Z</time>
      </trkpt>
      <trkpt lat="43.00985" lon="0.3095">
        <ele>1022.4</ele>
        <time>2026-07-08T07:40:19Z</time>
      </trkpt>
      <trkpt lat="43.00985" lon="0.30949">
        <ele>1022.4</ele>
        <time>2026-07-08T07:40:20Z</time>
      </trkpt>
      <trkpt lat="43.00984" lon="0.30949">
        <ele>1022.4</ele>
        <time>2026-07-08T07:40:21Z</time>
      </trkpt>
      <trkpt lat="43.00984" lon="0.30949">
        <ele>1022.4</ele>
        <time>2026-07-08T07:40:21Z</time>
      </trkpt>
      <trkpt lat="43.00983" lon="0.30948">
        <ele>1022.4</ele>
        <time>2026-07-08T07:40:22Z</time>
      </trkpt>
      <trkpt lat="43.00983" lon="0.30948">
        <ele>1022.4</ele>
        <time>2026-07-08T07:40:23Z</time>
      </trkpt>
      <trkpt lat="43.00983" lon="0.30947">
        <ele>1022.4</ele>
        <time>2026-07-08T07:40:24Z</time>
      </trkpt>
      <trkpt lat="43.00982" lon="0.30947">
        <ele>1022.4</ele>
        <time>2026-07-08T07:40:25Z</time>
      </trkpt>
      <trkpt lat="43.00982" lon="0.30946">
        <ele>1022.4</ele>
        <time>2026-07-08T07:40:26Z</time>
      </trkpt>
      <trkpt lat="43.00982" lon="0.30945">
        <ele>1022.4</ele>
        <time>2026-07-08T07:40:27Z</time>
      </trkpt>
      <trkpt lat="43.00982" lon="0.30944">
        <ele>1022.4</ele>
        <time>2026-07-08T07:40:27Z</time>
      </trkpt>
      <trkpt lat="43.00982" lon="0.30944">
        <ele>1022.4</ele>
        <time>2026-07-08T07:40:28Z</time>
      </trkpt>
      <trkpt lat="43.00981" lon="0.30942">
        <ele>1022.4</ele>
        <time>2026-07-08T07:40:29Z</time>
      </trkpt>
      <trkpt lat="43.00982" lon="0.30941">
        <ele>1022.4</ele>
        <time>2026-07-08T07:40:30Z</time>
      </trkpt>
      <trkpt lat="43.00982" lon="0.3094">
        <ele>1022.4</ele>
        <time>2026-07-08T07:40:31Z</time>
      </trkpt>
      <trkpt lat="43.00982" lon="0.30939">
        <ele>1023.4</ele>
        <time>2026-07-08T07:40:31Z</time>
      </trkpt>
      <trkpt lat="43.00982" lon="0.30939">
        <ele>1023.4</ele>
        <time>2026-07-08T07:40:32Z</time>
      </trkpt>
      <trkpt lat="43.00982" lon="0.30937">
        <ele>1024.4</ele>
        <time>2026-07-08T07:40:33Z</time>
      </trkpt>
      <trkpt lat="43.00982" lon="0.30936">
        <ele>1023.4</ele>
        <time>2026-07-08T07:40:34Z</time>
      </trkpt>
      <trkpt lat="43.00982" lon="0.30935">
        <ele>1023.4</ele>
        <time>2026-07-08T07:40:35Z</time>
      </trkpt>
      <trkpt lat="43.00982" lon="0.30935">
        <ele>1024.4</ele>
        <time>2026-07-08T07:40:36Z</time>
      </trkpt>
      <trkpt lat="43.00982" lon="0.30934">
        <ele>1024.4</ele>
        <time>2026-07-08T07:40:36Z</time>
      </trkpt>
      <trkpt lat="43.00982" lon="0.30934">
        <ele>1024.4</ele>
        <time>2026-07-08T07:40:37Z</time>
      </trkpt>
      <trkpt lat="43.00981" lon="0.30933">
        <ele>1024.4</ele>
        <time>2026-07-08T07:40:38Z</time>
      </trkpt>
      <trkpt lat="43.00981" lon="0.30932">
        <ele>1024.4</ele>
        <time>2026-07-08T07:40:39Z</time>
      </trkpt>
      <trkpt lat="43.00981" lon="0.30932">
        <ele>1025.4</ele>
        <time>2026-07-08T07:40:40Z</time>
      </trkpt>
      <trkpt lat="43.00981" lon="0.30931">
        <ele>1024.4</ele>
        <time>2026-07-08T07:40:41Z</time>
      </trkpt>
      <trkpt lat="43.00981" lon="0.30931">
        <ele>1024.4</ele>
        <time>2026-07-08T07:40:41Z</time>
      </trkpt>
      <trkpt lat="43.00981" lon="0.3093">
        <ele>1024.4</ele>
        <time>2026-07-08T07:40:42Z</time>
      </trkpt>
      <trkpt lat="43.00981" lon="0.30929">
        <ele>1024.4</ele>
        <time>2026-07-08T07:40:43Z</time>
      </trkpt>
      <trkpt lat="43.00981" lon="0.30929">
        <ele>1023.4</ele>
        <time>2026-07-08T07:40:43Z</time>
      </trkpt>
      <trkpt lat="43.00981" lon="0.30928">
        <ele>1024.4</ele>
        <time>2026-07-08T07:40:44Z</time>
      </trkpt>
      <trkpt lat="43.00981" lon="0.30927">
        <ele>1024.4</ele>
        <time>2026-07-08T07:40:45Z</time>
      </trkpt>
      <trkpt lat="43.00981" lon="0.30926">
        <ele>1024.4</ele>
        <time>2026-07-08T07:40:46Z</time>
      </trkpt>
      <trkpt lat="43.0098" lon="0.30925">
        <ele>1024.4</ele>
        <time>2026-07-08T07:40:46Z</time>
      </trkpt>
      <trkpt lat="43.0098" lon="0.30925">
        <ele>1025.4</ele>
        <time>2026-07-08T07:40:47Z</time>
      </trkpt>
      <trkpt lat="43.00979" lon="0.30924">
        <ele>1025.4</ele>
        <time>2026-07-08T07:40:48Z</time>
      </trkpt>
      <trkpt lat="43.00979" lon="0.30924">
        <ele>1025.4</ele>
        <time>2026-07-08T07:40:49Z</time>
      </trkpt>
      <trkpt lat="43.00978" lon="0.30923">
        <ele>1025.4</ele>
        <time>2026-07-08T07:40:50Z</time>
      </trkpt>
      <trkpt lat="43.00978" lon="0.30923">
        <ele>1026.4</ele>
        <time>2026-07-08T07:40:50Z</time>
      </trkpt>
      <trkpt lat="43.00977" lon="0.30923">
        <ele>1026.4</ele>
        <time>2026-07-08T07:40:50Z</time>
      </trkpt>
      <trkpt lat="43.00977" lon="0.30923">
        <ele>1026.4</ele>
        <time>2026-07-08T07:40:51Z</time>
      </trkpt>
      <trkpt lat="43.00977" lon="0.30923">
        <ele>1026.4</ele>
        <time>2026-07-08T07:40:52Z</time>
      </trkpt>
      <trkpt lat="43.00976" lon="0.30923">
        <ele>1028.4</ele>
        <time>2026-07-08T07:40:52Z</time>
      </trkpt>
      <trkpt lat="43.00976" lon="0.30924">
        <ele>1028.4</ele>
        <time>2026-07-08T07:40:53Z</time>
      </trkpt>
      <trkpt lat="43.00975" lon="0.30924">
        <ele>1029.4</ele>
        <time>2026-07-08T07:40:54Z</time>
      </trkpt>
      <trkpt lat="43.00975" lon="0.30924">
        <ele>1029.4</ele>
        <time>2026-07-08T07:40:55Z</time>
      </trkpt>
      <trkpt lat="43.00975" lon="0.30924">
        <ele>1029.4</ele>
        <time>2026-07-08T07:40:56Z</time>
      </trkpt>
      <trkpt lat="43.00974" lon="0.30925">
        <ele>1029.4</ele>
        <time>2026-07-08T07:40:57Z</time>
      </trkpt>
      <trkpt lat="43.00974" lon="0.30925">
        <ele>1030.4</ele>
        <time>2026-07-08T07:40:58Z</time>
      </trkpt>
      <trkpt lat="43.00974" lon="0.30924">
        <ele>1030.4</ele>
        <time>2026-07-08T07:40:59Z</time>
      </trkpt>
      <trkpt lat="43.00974" lon="0.30924">
        <ele>1032.4</ele>
        <time>2026-07-08T07:41:00Z</time>
      </trkpt>
      <trkpt lat="43.00974" lon="0.30924">
        <ele>1032.4</ele>
        <time>2026-07-08T07:41:01Z</time>
      </trkpt>
      <trkpt lat="43.00974" lon="0.30924">
        <ele>1033.4</ele>
        <time>2026-07-08T07:41:02Z</time>
      </trkpt>
      <trkpt lat="43.00974" lon="0.30924">
        <ele>1033.4</ele>
        <time>2026-07-08T07:41:03Z</time>
      </trkpt>
      <trkpt lat="43.00974" lon="0.30924">
        <ele>1033.4</ele>
        <time>2026-07-08T07:41:03Z</time>
      </trkpt>
      <trkpt lat="43.00974" lon="0.30924">
        <ele>1033.4</ele>
        <time>2026-07-08T07:41:04Z</time>
      </trkpt>
      <trkpt lat="43.00973" lon="0.30924">
        <ele>1033.4</ele>
        <time>2026-07-08T07:41:04Z</time>
      </trkpt>
      <trkpt lat="43.00973" lon="0.30924">
        <ele>1033.4</ele>
        <time>2026-07-08T07:41:05Z</time>
      </trkpt>
      <trkpt lat="43.00973" lon="0.30924">
        <ele>1035.4</ele>
        <time>2026-07-08T07:41:06Z</time>
      </trkpt>
      <trkpt lat="43.00973" lon="0.30924">
        <ele>1035.4</ele>
        <time>2026-07-08T07:41:07Z</time>
      </trkpt>
      <trkpt lat="43.00972" lon="0.30924">
        <ele>1035.4</ele>
        <time>2026-07-08T07:41:08Z</time>
      </trkpt>
      <trkpt lat="43.00972" lon="0.30924">
        <ele>1035.4</ele>
        <time>2026-07-08T07:41:09Z</time>
      </trkpt>
      <trkpt lat="43.00972" lon="0.30924">
        <ele>1035.4</ele>
        <time>2026-07-08T07:41:09Z</time>
      </trkpt>
      <trkpt lat="43.00972" lon="0.30924">
        <ele>1035.4</ele>
        <time>2026-07-08T07:41:10Z</time>
      </trkpt>
      <trkpt lat="43.00972" lon="0.30924">
        <ele>1037.4</ele>
        <time>2026-07-08T07:41:11Z</time>
      </trkpt>
      <trkpt lat="43.00972" lon="0.30924">
        <ele>1040.4</ele>
        <time>2026-07-08T07:41:12Z</time>
      </trkpt>
      <trkpt lat="43.00972" lon="0.30924">
        <ele>1040.4</ele>
        <time>2026-07-08T07:41:13Z</time>
      </trkpt>
      <trkpt lat="43.00972" lon="0.30924">
        <ele>1039.4</ele>
        <time>2026-07-08T07:41:14Z</time>
      </trkpt>
      <trkpt lat="43.00972" lon="0.30924">
        <ele>1040.4</ele>
        <time>2026-07-08T07:41:15Z</time>
      </trkpt>
      <trkpt lat="43.00972" lon="0.30924">
        <ele>1040.4</ele>
        <time>2026-07-08T07:41:16Z</time>
      </trkpt>
      <trkpt lat="43.00972" lon="0.30924">
        <ele>1040.4</ele>
        <time>2026-07-08T07:41:17Z</time>
      </trkpt>
      <trkpt lat="43.00972" lon="0.30924">
        <ele>1040.4</ele>
        <time>2026-07-08T07:41:18Z</time>
      </trkpt>
      <trkpt lat="43.00972" lon="0.30924">
        <ele>1040.4</ele>
        <time>2026-07-08T07:41:19Z</time>
      </trkpt>
      <trkpt lat="43.00972" lon="0.30924">
        <ele>1040.4</ele>
        <time>2026-07-08T07:41:20Z</time>
      </trkpt>
      <trkpt lat="43.00972" lon="0.30924">
        <ele>1040.4</ele>
        <time>2026-07-08T07:41:21Z</time>
      </trkpt>
      <trkpt lat="43.00972" lon="0.30924">
        <ele>1040.4</ele>
        <time>2026-07-08T07:41:22Z</time>
      </trkpt>
      <trkpt lat="43.00972" lon="0.30924">
        <ele>1040.4</ele>
        <time>2026-07-08T07:41:23Z</time>
      </trkpt>
      <trkpt lat="43.00972" lon="0.30924">
        <ele>1040.4</ele>
        <time>2026-07-08T07:41:24Z</time>
      </trkpt>
      <trkpt lat="43.00972" lon="0.30924">
        <ele>1041.4</ele>
        <time>2026-07-08T07:41:25Z</time>
      </trkpt>
      <trkpt lat="43.00972" lon="0.30924">
        <ele>1041.4</ele>
        <time>2026-07-08T07:41:26Z</time>
      </trkpt>
      <trkpt lat="43.00971" lon="0.30924">
        <ele>1042.4</ele>
        <time>2026-07-08T07:41:27Z</time>
      </trkpt>
      <trkpt lat="43.00971" lon="0.30923">
        <ele>1042.4</ele>
        <time>2026-07-08T07:41:28Z</time>
      </trkpt>
      <trkpt lat="43.00971" lon="0.30923">
        <ele>1042.4</ele>
        <time>2026-07-08T07:41:29Z</time>
      </trkpt>
      <trkpt lat="43.00971" lon="0.30923">
        <ele>1042.4</ele>
        <time>2026-07-08T07:41:30Z</time>
      </trkpt>
      <trkpt lat="43.00971" lon="0.30923">
        <ele>1042.4</ele>
        <time>2026-07-08T07:41:31Z</time>
      </trkpt>
      <trkpt lat="43.00971" lon="0.30923">
        <ele>1042.4</ele>
        <time>2026-07-08T07:41:32Z</time>
      </trkpt>
      <trkpt lat="43.00971" lon="0.30923">
        <ele>1042.4</ele>
        <time>2026-07-08T07:41:33Z</time>
      </trkpt>
      <trkpt lat="43.00971" lon="0.30923">
        <ele>1042.4</ele>
        <time>2026-07-08T07:41:34Z</time>
      </trkpt>
      <trkpt lat="43.00971" lon="0.30923">
        <ele>1042.4</ele>
        <time>2026-07-08T07:41:35Z</time>
      </trkpt>
      <trkpt lat="43.00971" lon="0.30923">
        <ele>1042.4</ele>
        <time>2026-07-08T07:41:36Z</time>
      </trkpt>
      <trkpt lat="43.00971" lon="0.30923">
        <ele>1042.4</ele>
        <time>2026-07-08T07:41:37Z</time>
      </trkpt>
      <trkpt lat="43.00971" lon="0.30923">
        <ele>1042.4</ele>
        <time>2026-07-08T07:41:38Z</time>
      </trkpt>
      <trkpt lat="43.00971" lon="0.30923">
        <ele>1042.4</ele>
        <time>2026-07-08T07:41:39Z</time>
      </trkpt>
      <trkpt lat="43.00971" lon="0.30923">
        <ele>1041.4</ele>
        <time>2026-07-08T07:41:40Z</time>
      </trkpt>
      <trkpt lat="43.00971" lon="0.30923">
        <ele>1041.4</ele>
        <time>2026-07-08T07:41:41Z</time>
      </trkpt>
      <trkpt lat="43.00971" lon="0.30922">
        <ele>1041.4</ele>
        <time>2026-07-08T07:41:42Z</time>
      </trkpt>
      <trkpt lat="43.0097" lon="0.30922">
        <ele>1041.4</ele>
        <time>2026-07-08T07:41:43Z</time>
      </trkpt>
      <trkpt lat="43.0097" lon="0.30922">
        <ele>1040.4</ele>
        <time>2026-07-08T07:41:44Z</time>
      </trkpt>
      <trkpt lat="43.0097" lon="0.30922">
        <ele>1040.4</ele>
        <time>2026-07-08T07:41:45Z</time>
      </trkpt>
      <trkpt lat="43.0097" lon="0.30922">
        <ele>1040.4</ele>
        <time>2026-07-08T07:41:46Z</time>
      </trkpt>
      <trkpt lat="43.00969" lon="0.30922">
        <ele>1038.4</ele>
        <time>2026-07-08T07:41:47Z</time>
      </trkpt>
      <trkpt lat="43.00969" lon="0.30923">
        <ele>1038.4</ele>
        <time>2026-07-08T07:41:48Z</time>
      </trkpt>
      <trkpt lat="43.00969" lon="0.30923">
        <ele>1038.4</ele>
        <time>2026-07-08T07:41:49Z</time>
      </trkpt>
      <trkpt lat="43.00969" lon="0.30923">
        <ele>1038.4</ele>
        <time>2026-07-08T07:41:50Z</time>
      </trkpt>
      <trkpt lat="43.00969" lon="0.30923">
        <ele>1038.4</ele>
        <time>2026-07-08T07:41:51Z</time>
      </trkpt>
      <trkpt lat="43.00969" lon="0.30923">
        <ele>1038.4</ele>
        <time>2026-07-08T07:41:52Z</time>
      </trkpt>
      <trkpt lat="43.00969" lon="0.30923">
        <ele>1038.4</ele>
        <time>2026-07-08T07:41:53Z</time>
      </trkpt>
      <trkpt lat="43.00969" lon="0.30923">
        <ele>1038.4</ele>
        <time>2026-07-08T07:41:54Z</time>
      </trkpt>
      <trkpt lat="43.00969" lon="0.30923">
        <ele>1038.4</ele>
        <time>2026-07-08T07:41:55Z</time>
      </trkpt>
      <trkpt lat="43.00969" lon="0.30923">
        <ele>1038.4</ele>
        <time>2026-07-08T07:41:56Z</time>
      </trkpt>
      <trkpt lat="43.00969" lon="0.30924">
        <ele>1038.4</ele>
        <time>2026-07-08T07:41:57Z</time>
      </trkpt>
      <trkpt lat="43.00969" lon="0.30924">
        <ele>1038.4</ele>
        <time>2026-07-08T07:41:58Z</time>
      </trkpt>
      <trkpt lat="43.00969" lon="0.30924">
        <ele>1038.4</ele>
        <time>2026-07-08T07:41:59Z</time>
      </trkpt>
      <trkpt lat="43.0097" lon="0.30924">
        <ele>1038.4</ele>
        <time>2026-07-08T07:42:00Z</time>
      </trkpt>
      <trkpt lat="43.0097" lon="0.30924">
        <ele>1038.4</ele>
        <time>2026-07-08T07:42:01Z</time>
      </trkpt>
      <trkpt lat="43.0097" lon="0.30924">
        <ele>1038.4</ele>
        <time>2026-07-08T07:42:02Z</time>
      </trkpt>
      <trkpt lat="43.0097" lon="0.30924">
        <ele>1038.4</ele>
        <time>2026-07-08T07:42:03Z</time>
      </trkpt>
      <trkpt lat="43.0097" lon="0.30924">
        <ele>1038.4</ele>
        <time>2026-07-08T07:42:04Z</time>
      </trkpt>
      <trkpt lat="43.0097" lon="0.30924">
        <ele>1038.4</ele>
        <time>2026-07-08T07:42:05Z</time>
      </trkpt>
      <trkpt lat="43.0097" lon="0.30924">
        <ele>1038.4</ele>
        <time>2026-07-08T07:42:06Z</time>
      </trkpt>
      <trkpt lat="43.00969" lon="0.30924">
        <ele>1038.4</ele>
        <time>2026-07-08T07:42:07Z</time>
      </trkpt>
      <trkpt lat="43.00969" lon="0.30925">
        <ele>1038.4</ele>
        <time>2026-07-08T07:42:08Z</time>
      </trkpt>
      <trkpt lat="43.00969" lon="0.30925">
        <ele>1039.4</ele>
        <time>2026-07-08T07:42:09Z</time>
      </trkpt>
      <trkpt lat="43.00969" lon="0.30925">
        <ele>1040.4</ele>
        <time>2026-07-08T07:42:10Z</time>
      </trkpt>
      <trkpt lat="43.00969" lon="0.30925">
        <ele>1039.4</ele>
        <time>2026-07-08T07:42:11Z</time>
      </trkpt>
      <trkpt lat="43.00968" lon="0.30925">
        <ele>1038.4</ele>
        <time>2026-07-08T07:42:12Z</time>
      </trkpt>
      <trkpt lat="43.00968" lon="0.30925">
        <ele>1038.4</ele>
        <time>2026-07-08T07:42:13Z</time>
      </trkpt>
      <trkpt lat="43.00969" lon="0.30925">
        <ele>1039.4</ele>
        <time>2026-07-08T07:42:14Z</time>
      </trkpt>
      <trkpt lat="43.00969" lon="0.30925">
        <ele>1039.4</ele>
        <time>2026-07-08T07:42:15Z</time>
      </trkpt>
      <trkpt lat="43.00969" lon="0.30925">
        <ele>1038.4</ele>
        <time>2026-07-08T07:42:16Z</time>
      </trkpt>
      <trkpt lat="43.00969" lon="0.30925">
        <ele>1038.4</ele>
        <time>2026-07-08T07:42:17Z</time>
      </trkpt>
      <trkpt lat="43.00969" lon="0.30925">
        <ele>1038.4</ele>
        <time>2026-07-08T07:42:18Z</time>
      </trkpt>
      <trkpt lat="43.0097" lon="0.30926">
        <ele>1038.4</ele>
        <time>2026-07-08T07:42:19Z</time>
      </trkpt>
      <trkpt lat="43.00971" lon="0.30926">
        <ele>1039.4</ele>
        <time>2026-07-08T07:42:20Z</time>
      </trkpt>
      <trkpt lat="43.00971" lon="0.30926">
        <ele>1038.4</ele>
        <time>2026-07-08T07:42:21Z</time>
      </trkpt>
      <trkpt lat="43.00971" lon="0.30926">
        <ele>1037.4</ele>
        <time>2026-07-08T07:42:22Z</time>
      </trkpt>
      <trkpt lat="43.00972" lon="0.30925">
        <ele>1037.4</ele>
        <time>2026-07-08T07:42:23Z</time>
      </trkpt>
      <trkpt lat="43.00972" lon="0.30924">
        <ele>1037.4</ele>
        <time>2026-07-08T07:42:24Z</time>
      </trkpt>
      <trkpt lat="43.00972" lon="0.30923">
        <ele>1037.4</ele>
        <time>2026-07-08T07:42:25Z</time>
      </trkpt>
      <trkpt lat="43.00972" lon="0.30922">
        <ele>1036.4</ele>
        <time>2026-07-08T07:42:26Z</time>
      </trkpt>
      <trkpt lat="43.00972" lon="0.30921">
        <ele>1037.4</ele>
        <time>2026-07-08T07:42:27Z</time>
      </trkpt>
      <trkpt lat="43.00971" lon="0.30921">
        <ele>1037.4</ele>
        <time>2026-07-08T07:42:28Z</time>
      </trkpt>
      <trkpt lat="43.00971" lon="0.3092">
        <ele>1037.4</ele>
        <time>2026-07-08T07:42:29Z</time>
      </trkpt>
      <trkpt lat="43.00971" lon="0.3092">
        <ele>1037.4</ele>
        <time>2026-07-08T07:42:30Z</time>
      </trkpt>
      <trkpt lat="43.00971" lon="0.30919">
        <ele>1037.4</ele>
        <time>2026-07-08T07:42:31Z</time>
      </trkpt>
      <trkpt lat="43.0097" lon="0.30919">
        <ele>1038.4</ele>
        <time>2026-07-08T07:42:32Z</time>
      </trkpt>
      <trkpt lat="43.0097" lon="0.30919">
        <ele>1038.4</ele>
        <time>2026-07-08T07:42:33Z</time>
      </trkpt>
      <trkpt lat="43.0097" lon="0.30918">
        <ele>1038.4</ele>
        <time>2026-07-08T07:42:34Z</time>
      </trkpt>
      <trkpt lat="43.00969" lon="0.30918">
        <ele>1038.4</ele>
        <time>2026-07-08T07:42:35Z</time>
      </trkpt>
      <trkpt lat="43.00969" lon="0.3092">
        <ele>1038.4</ele>
        <time>2026-07-08T07:42:36Z</time>
      </trkpt>
      <trkpt lat="43.00969" lon="0.30921">
        <ele>1038.4</ele>
        <time>2026-07-08T07:42:37Z</time>
      </trkpt>
      <trkpt lat="43.00969" lon="0.30921">
        <ele>1038.4</ele>
        <time>2026-07-08T07:42:38Z</time>
      </trkpt>
      <trkpt lat="43.00968" lon="0.30921">
        <ele>1038.4</ele>
        <time>2026-07-08T07:42:39Z</time>
      </trkpt>
      <trkpt lat="43.00968" lon="0.30921">
        <ele>1038.4</ele>
        <time>2026-07-08T07:42:40Z</time>
      </trkpt>
      <trkpt lat="43.00968" lon="0.30922">
        <ele>1038.4</ele>
        <time>2026-07-08T07:42:41Z</time>
      </trkpt>
      <trkpt lat="43.00968" lon="0.30922">
        <ele>1038.4</ele>
        <time>2026-07-08T07:42:42Z</time>
      </trkpt>
      <trkpt lat="43.00968" lon="0.30922">
        <ele>1038.4</ele>
        <time>2026-07-08T07:42:43Z</time>
      </trkpt>
      <trkpt lat="43.00968" lon="0.30922">
        <ele>1038.4</ele>
        <time>2026-07-08T07:42:44Z</time>
      </trkpt>
      <trkpt lat="43.00968" lon="0.30923">
        <ele>1038.4</ele>
        <time>2026-07-08T07:42:45Z</time>
      </trkpt>
      <trkpt lat="43.00968" lon="0.30923">
        <ele>1038.4</ele>
        <time>2026-07-08T07:42:46Z</time>
      </trkpt>
      <trkpt lat="43.00968" lon="0.30923">
        <ele>1038.4</ele>
        <time>2026-07-08T07:42:47Z</time>
      </trkpt>
      <trkpt lat="43.00968" lon="0.30923">
        <ele>1038.4</ele>
        <time>2026-07-08T07:42:48Z</time>
      </trkpt>
      <trkpt lat="43.00968" lon="0.30923">
        <ele>1038.4</ele>
        <time>2026-07-08T07:42:49Z</time>
      </trkpt>
      <trkpt lat="43.00968" lon="0.30923">
        <ele>1038.4</ele>
        <time>2026-07-08T07:42:50Z</time>
      </trkpt>
      <trkpt lat="43.00968" lon="0.30923">
        <ele>1038.4</ele>
        <time>2026-07-08T07:42:51Z</time>
      </trkpt>
      <trkpt lat="43.00968" lon="0.30923">
        <ele>1038.4</ele>
        <time>2026-07-08T07:42:52Z</time>
      </trkpt>
      <trkpt lat="43.00968" lon="0.30923">
        <ele>1038.4</ele>
        <time>2026-07-08T07:42:53Z</time>
      </trkpt>
      <trkpt lat="43.00968" lon="0.30923">
        <ele>1038.4</ele>
        <time>2026-07-08T07:42:54Z</time>
      </trkpt>
      <trkpt lat="43.00968" lon="0.30923">
        <ele>1038.4</ele>
        <time>2026-07-08T07:42:55Z</time>
      </trkpt>
      <trkpt lat="43.00968" lon="0.30923">
        <ele>1038.4</ele>
        <time>2026-07-08T07:42:56Z</time>
      </trkpt>
      <trkpt lat="43.00968" lon="0.30923">
        <ele>1038.4</ele>
        <time>2026-07-08T07:42:57Z</time>
      </trkpt>
      <trkpt lat="43.00968" lon="0.30923">
        <ele>1038.4</ele>
        <time>2026-07-08T07:42:58Z</time>
      </trkpt>
      <trkpt lat="43.00968" lon="0.30923">
        <ele>1038.4</ele>
        <time>2026-07-08T07:42:59Z</time>
      </trkpt>
      <trkpt lat="43.00968" lon="0.30923">
        <ele>1038.4</ele>
        <time>2026-07-08T07:43:00Z</time>
      </trkpt>
      <trkpt lat="43.00968" lon="0.30922">
        <ele>1038.4</ele>
        <time>2026-07-08T07:43:01Z</time>
      </trkpt>
      <trkpt lat="43.00968" lon="0.30922">
        <ele>1038.4</ele>
        <time>2026-07-08T07:43:02Z</time>
      </trkpt>
      <trkpt lat="43.00968" lon="0.30922">
        <ele>1038.4</ele>
        <time>2026-07-08T07:43:03Z</time>
      </trkpt>
      <trkpt lat="43.00968" lon="0.30922">
        <ele>1038.4</ele>
        <time>2026-07-08T07:43:04Z</time>
      </trkpt>
      <trkpt lat="43.00968" lon="0.30922">
        <ele>1038.4</ele>
        <time>2026-07-08T07:43:05Z</time>
      </trkpt>
      <trkpt lat="43.00968" lon="0.30922">
        <ele>1038.4</ele>
        <time>2026-07-08T07:43:06Z</time>
      </trkpt>
      <trkpt lat="43.00968" lon="0.30922">
        <ele>1038.4</ele>
        <time>2026-07-08T07:43:07Z</time>
      </trkpt>
      <trkpt lat="43.00968" lon="0.30922">
        <ele>1038.4</ele>
        <time>2026-07-08T07:43:08Z</time>
      </trkpt>
      <trkpt lat="43.00968" lon="0.30922">
        <ele>1038.4</ele>
        <time>2026-07-08T07:43:08Z</time>
      </trkpt>
      <trkpt lat="43.00969" lon="0.30921">
        <ele>1038.4</ele>
        <time>2026-07-08T07:43:09Z</time>
      </trkpt>
      <trkpt lat="43.00969" lon="0.30921">
        <ele>1038.4</ele>
        <time>2026-07-08T07:43:09Z</time>
      </trkpt>
      <trkpt lat="43.00969" lon="0.30921">
        <ele>1038.4</ele>
        <time>2026-07-08T07:43:10Z</time>
      </trkpt>
      <trkpt lat="43.00969" lon="0.30921">
        <ele>1038.4</ele>
        <time>2026-07-08T07:43:11Z</time>
      </trkpt>
      <trkpt lat="43.00969" lon="0.3092">
        <ele>1036.4</ele>
        <time>2026-07-08T07:43:12Z</time>
      </trkpt>
      <trkpt lat="43.00969" lon="0.30921">
        <ele>1037.4</ele>
        <time>2026-07-08T07:43:13Z</time>
      </trkpt>
      <trkpt lat="43.00969" lon="0.30921">
        <ele>1037.4</ele>
        <time>2026-07-08T07:43:14Z</time>
      </trkpt>
      <trkpt lat="43.00969" lon="0.30921">
        <ele>1037.4</ele>
        <time>2026-07-08T07:43:15Z</time>
      </trkpt>
      <trkpt lat="43.00969" lon="0.30921">
        <ele>1037.4</ele>
        <time>2026-07-08T07:43:16Z</time>
      </trkpt>
      <trkpt lat="43.00969" lon="0.30921">
        <ele>1037.4</ele>
        <time>2026-07-08T07:43:17Z</time>
      </trkpt>
      <trkpt lat="43.00969" lon="0.30921">
        <ele>1037.4</ele>
        <time>2026-07-08T07:43:18Z</time>
      </trkpt>
      <trkpt lat="43.00969" lon="0.30921">
        <ele>1037.4</ele>
        <time>2026-07-08T07:43:19Z</time>
      </trkpt>
      <trkpt lat="43.00969" lon="0.30921">
        <ele>1037.4</ele>
        <time>2026-07-08T07:43:20Z</time>
      </trkpt>
      <trkpt lat="43.00969" lon="0.30921">
        <ele>1037.4</ele>
        <time>2026-07-08T07:43:21Z</time>
      </trkpt>
      <trkpt lat="43.00969" lon="0.30921">
        <ele>1037.4</ele>
        <time>2026-07-08T07:43:22Z</time>
      </trkpt>
      <trkpt lat="43.00969" lon="0.30921">
        <ele>1037.4</ele>
        <time>2026-07-08T07:43:23Z</time>
      </trkpt>
      <trkpt lat="43.00969" lon="0.30921">
        <ele>1037.4</ele>
        <time>2026-07-08T07:43:24Z</time>
      </trkpt>
      <trkpt lat="43.00969" lon="0.30921">
        <ele>1037.4</ele>
        <time>2026-07-08T07:43:25Z</time>
      </trkpt>
      <trkpt lat="43.00969" lon="0.30921">
        <ele>1037.4</ele>
        <time>2026-07-08T07:43:26Z</time>
      </trkpt>
      <trkpt lat="43.00969" lon="0.30921">
        <ele>1037.4</ele>
        <time>2026-07-08T07:43:27Z</time>
      </trkpt>
      <trkpt lat="43.00969" lon="0.30921">
        <ele>1037.4</ele>
        <time>2026-07-08T07:43:28Z</time>
      </trkpt>
      <trkpt lat="43.00969" lon="0.30921">
        <ele>1037.4</ele>
        <time>2026-07-08T07:43:29Z</time>
      </trkpt>
      <trkpt lat="43.00969" lon="0.30921">
        <ele>1037.4</ele>
        <time>2026-07-08T07:43:30Z</time>
      </trkpt>
      <trkpt lat="43.00969" lon="0.30921">
        <ele>1037.4</ele>
        <time>2026-07-08T07:43:31Z</time>
      </trkpt>
      <trkpt lat="43.00969" lon="0.30921">
        <ele>1037.4</ele>
        <time>2026-07-08T07:43:32Z</time>
      </trkpt>
      <trkpt lat="43.00969" lon="0.30921">
        <ele>1037.4</ele>
        <time>2026-07-08T07:43:33Z</time>
      </trkpt>
      <trkpt lat="43.00969" lon="0.30921">
        <ele>1037.4</ele>
        <time>2026-07-08T07:43:34Z</time>
      </trkpt>
      <trkpt lat="43.00969" lon="0.30921">
        <ele>1037.4</ele>
        <time>2026-07-08T07:43:35Z</time>
      </trkpt>
      <trkpt lat="43.00969" lon="0.30921">
        <ele>1037.4</ele>
        <time>2026-07-08T07:43:36Z</time>
      </trkpt>
      <trkpt lat="43.00969" lon="0.30921">
        <ele>1037.4</ele>
        <time>2026-07-08T07:43:37Z</time>
      </trkpt>
      <trkpt lat="43.00969" lon="0.30921">
        <ele>1037.4</ele>
        <time>2026-07-08T07:43:38Z</time>
      </trkpt>
      <trkpt lat="43.00969" lon="0.30921">
        <ele>1037.4</ele>
        <time>2026-07-08T07:43:39Z</time>
      </trkpt>
      <trkpt lat="43.00969" lon="0.30921">
        <ele>1037.4</ele>
        <time>2026-07-08T07:43:40Z</time>
      </trkpt>
      <trkpt lat="43.00969" lon="0.30921">
        <ele>1037.4</ele>
        <time>2026-07-08T07:43:41Z</time>
      </trkpt>
      <trkpt lat="43.00969" lon="0.30921">
        <ele>1037.4</ele>
        <time>2026-07-08T07:43:42Z</time>
      </trkpt>
      <trkpt lat="43.00969" lon="0.30921">
        <ele>1037.4</ele>
        <time>2026-07-08T07:43:43Z</time>
      </trkpt>
      <trkpt lat="43.00969" lon="0.30921">
        <ele>1037.4</ele>
        <time>2026-07-08T07:43:44Z</time>
      </trkpt>
      <trkpt lat="43.00969" lon="0.30921">
        <ele>1037.4</ele>
        <time>2026-07-08T07:43:45Z</time>
      </trkpt>
      <trkpt lat="43.00969" lon="0.30921">
        <ele>1037.4</ele>
        <time>2026-07-08T07:43:46Z</time>
      </trkpt>
      <trkpt lat="43.00969" lon="0.30921">
        <ele>1037.4</ele>
        <time>2026-07-08T07:43:47Z</time>
      </trkpt>
      <trkpt lat="43.00969" lon="0.30921">
        <ele>1037.4</ele>
        <time>2026-07-08T07:43:48Z</time>
      </trkpt>
      <trkpt lat="43.00969" lon="0.30921">
        <ele>1037.4</ele>
        <time>2026-07-08T07:43:49Z</time>
      </trkpt>
      <trkpt lat="43.00969" lon="0.30921">
        <ele>1037.4</ele>
        <time>2026-07-08T07:43:50Z</time>
      </trkpt>
      <trkpt lat="43.00969" lon="0.3092">
        <ele>1037.4</ele>
        <time>2026-07-08T07:43:51Z</time>
      </trkpt>
      <trkpt lat="43.00969" lon="0.3092">
        <ele>1037.4</ele>
        <time>2026-07-08T07:43:52Z</time>
      </trkpt>
      <trkpt lat="43.00969" lon="0.3092">
        <ele>1037.4</ele>
        <time>2026-07-08T07:43:53Z</time>
      </trkpt>
      <trkpt lat="43.00969" lon="0.3092">
        <ele>1037.4</ele>
        <time>2026-07-08T07:43:54Z</time>
      </trkpt>
      <trkpt lat="43.00969" lon="0.3092">
        <ele>1037.4</ele>
        <time>2026-07-08T07:43:55Z</time>
      </trkpt>
      <trkpt lat="43.00969" lon="0.3092">
        <ele>1037.4</ele>
        <time>2026-07-08T07:43:56Z</time>
      </trkpt>
      <trkpt lat="43.00969" lon="0.3092">
        <ele>1037.4</ele>
        <time>2026-07-08T07:43:57Z</time>
      </trkpt>
      <trkpt lat="43.00969" lon="0.3092">
        <ele>1037.4</ele>
        <time>2026-07-08T07:43:58Z</time>
      </trkpt>
      <trkpt lat="43.00969" lon="0.3092">
        <ele>1037.4</ele>
        <time>2026-07-08T07:43:59Z</time>
      </trkpt>
      <trkpt lat="43.00969" lon="0.3092">
        <ele>1037.4</ele>
        <time>2026-07-08T07:44:00Z</time>
      </trkpt>
      <trkpt lat="43.00969" lon="0.3092">
        <ele>1037.4</ele>
        <time>2026-07-08T07:44:01Z</time>
      </trkpt>
      <trkpt lat="43.00969" lon="0.3092">
        <ele>1037.4</ele>
        <time>2026-07-08T07:44:02Z</time>
      </trkpt>
      <trkpt lat="43.00969" lon="0.3092">
        <ele>1037.4</ele>
        <time>2026-07-08T07:44:03Z</time>
      </trkpt>
      <trkpt lat="43.00969" lon="0.3092">
        <ele>1037.4</ele>
        <time>2026-07-08T07:44:04Z</time>
      </trkpt>
      <trkpt lat="43.00969" lon="0.3092">
        <ele>1037.4</ele>
        <time>2026-07-08T07:44:05Z</time>
      </trkpt>
      <trkpt lat="43.00969" lon="0.3092">
        <ele>1037.4</ele>
        <time>2026-07-08T07:44:06Z</time>
      </trkpt>
      <trkpt lat="43.00969" lon="0.3092">
        <ele>1037.4</ele>
        <time>2026-07-08T07:44:07Z</time>
      </trkpt>
      <trkpt lat="43.00969" lon="0.3092">
        <ele>1037.4</ele>
        <time>2026-07-08T07:44:08Z</time>
      </trkpt>
      <trkpt lat="43.00969" lon="0.30921">
        <ele>1037.4</ele>
        <time>2026-07-08T07:44:09Z</time>
      </trkpt>
      <trkpt lat="43.00969" lon="0.30921">
        <ele>1037.4</ele>
        <time>2026-07-08T07:44:10Z</time>
      </trkpt>
      <trkpt lat="43.00969" lon="0.30921">
        <ele>1037.4</ele>
        <time>2026-07-08T07:44:11Z</time>
      </trkpt>
      <trkpt lat="43.00969" lon="0.30921">
        <ele>1037.4</ele>
        <time>2026-07-08T07:44:12Z</time>
      </trkpt>
      <trkpt lat="43.00969" lon="0.30921">
        <ele>1037.4</ele>
        <time>2026-07-08T07:44:13Z</time>
      </trkpt>
      <trkpt lat="43.00969" lon="0.30921">
        <ele>1037.4</ele>
        <time>2026-07-08T07:44:14Z</time>
      </trkpt>
      <trkpt lat="43.00969" lon="0.30921">
        <ele>1037.4</ele>
        <time>2026-07-08T07:44:15Z</time>
      </trkpt>
      <trkpt lat="43.00969" lon="0.30921">
        <ele>1037.4</ele>
        <time>2026-07-08T07:44:16Z</time>
      </trkpt>
      <trkpt lat="43.00969" lon="0.30921">
        <ele>1037.4</ele>
        <time>2026-07-08T07:44:17Z</time>
      </trkpt>
      <trkpt lat="43.00969" lon="0.30921">
        <ele>1037.4</ele>
        <time>2026-07-08T07:44:18Z</time>
      </trkpt>
      <trkpt lat="43.00969" lon="0.30921">
        <ele>1037.4</ele>
        <time>2026-07-08T07:44:19Z</time>
      </trkpt>
      <trkpt lat="43.00969" lon="0.30921">
        <ele>1037.4</ele>
        <time>2026-07-08T07:44:20Z</time>
      </trkpt>
      <trkpt lat="43.00969" lon="0.30921">
        <ele>1037.4</ele>
        <time>2026-07-08T07:44:21Z</time>
      </trkpt>
      <trkpt lat="43.00969" lon="0.30921">
        <ele>1037.4</ele>
        <time>2026-07-08T07:44:22Z</time>
      </trkpt>
      <trkpt lat="43.00969" lon="0.30921">
        <ele>1037.4</ele>
        <time>2026-07-08T07:44:23Z</time>
      </trkpt>
      <trkpt lat="43.00969" lon="0.30921">
        <ele>1037.4</ele>
        <time>2026-07-08T07:44:24Z</time>
      </trkpt>
      <trkpt lat="43.00969" lon="0.30921">
        <ele>1037.4</ele>
        <time>2026-07-08T07:44:25Z</time>
      </trkpt>
      <trkpt lat="43.00969" lon="0.30921">
        <ele>1037.4</ele>
        <time>2026-07-08T07:44:26Z</time>
      </trkpt>
      <trkpt lat="43.00969" lon="0.30921">
        <ele>1037.4</ele>
        <time>2026-07-08T07:44:27Z</time>
      </trkpt>
      <trkpt lat="43.00969" lon="0.30921">
        <ele>1037.4</ele>
        <time>2026-07-08T07:44:28Z</time>
      </trkpt>
      <trkpt lat="43.00969" lon="0.30921">
        <ele>1037.4</ele>
        <time>2026-07-08T07:44:29Z</time>
      </trkpt>
      <trkpt lat="43.00969" lon="0.30921">
        <ele>1037.4</ele>
        <time>2026-07-08T07:44:30Z</time>
      </trkpt>
      <trkpt lat="43.00969" lon="0.30921">
        <ele>1037.4</ele>
        <time>2026-07-08T07:44:31Z</time>
      </trkpt>
      <trkpt lat="43.00969" lon="0.30921">
        <ele>1037.4</ele>
        <time>2026-07-08T07:44:32Z</time>
      </trkpt>
      <trkpt lat="43.00969" lon="0.30921">
        <ele>1037.4</ele>
        <time>2026-07-08T07:44:33Z</time>
      </trkpt>
      <trkpt lat="43.00969" lon="0.30921">
        <ele>1037.4</ele>
        <time>2026-07-08T07:44:34Z</time>
      </trkpt>
      <trkpt lat="43.00969" lon="0.30921">
        <ele>1037.4</ele>
        <time>2026-07-08T07:44:35Z</time>
      </trkpt>
      <trkpt lat="43.00969" lon="0.30921">
        <ele>1037.4</ele>
        <time>2026-07-08T07:44:36Z</time>
      </trkpt>
      <trkpt lat="43.00969" lon="0.30921">
        <ele>1037.4</ele>
        <time>2026-07-08T07:44:37Z</time>
      </trkpt>
      <trkpt lat="43.00969" lon="0.30921">
        <ele>1037.4</ele>
        <time>2026-07-08T07:44:38Z</time>
      </trkpt>
      <trkpt lat="43.00969" lon="0.30921">
        <ele>1037.4</ele>
        <time>2026-07-08T07:44:39Z</time>
      </trkpt>
      <trkpt lat="43.00969" lon="0.30921">
        <ele>1037.4</ele>
        <time>2026-07-08T07:44:40Z</time>
      </trkpt>
      <trkpt lat="43.00969" lon="0.30921">
        <ele>1037.4</ele>
        <time>2026-07-08T07:44:41Z</time>
      </trkpt>
      <trkpt lat="43.00969" lon="0.30921">
        <ele>1037.4</ele>
        <time>2026-07-08T07:44:42Z</time>
      </trkpt>
      <trkpt lat="43.00969" lon="0.30921">
        <ele>1037.4</ele>
        <time>2026-07-08T07:44:43Z</time>
      </trkpt>
      <trkpt lat="43.00969" lon="0.30921">
        <ele>1037.4</ele>
        <time>2026-07-08T07:44:44Z</time>
      </trkpt>
      <trkpt lat="43.00969" lon="0.30921">
        <ele>1037.4</ele>
        <time>2026-07-08T07:44:45Z</time>
      </trkpt>
      <trkpt lat="43.00969" lon="0.30921">
        <ele>1037.4</ele>
        <time>2026-07-08T07:44:46Z</time>
      </trkpt>
      <trkpt lat="43.00969" lon="0.30921">
        <ele>1037.4</ele>
        <time>2026-07-08T07:44:47Z</time>
      </trkpt>
      <trkpt lat="43.00969" lon="0.30921">
        <ele>1037.4</ele>
        <time>2026-07-08T07:44:48Z</time>
      </trkpt>
      <trkpt lat="43.00969" lon="0.30921">
        <ele>1037.4</ele>
        <time>2026-07-08T07:44:49Z</time>
      </trkpt>
      <trkpt lat="43.00969" lon="0.30921">
        <ele>1037.4</ele>
        <time>2026-07-08T07:44:50Z</time>
      </trkpt>
      <trkpt lat="43.00969" lon="0.30921">
        <ele>1037.4</ele>
        <time>2026-07-08T07:44:51Z</time>
      </trkpt>
      <trkpt lat="43.00969" lon="0.30921">
        <ele>1037.4</ele>
        <time>2026-07-08T07:44:52Z</time>
      </trkpt>
      <trkpt lat="43.00969" lon="0.30921">
        <ele>1037.4</ele>
        <time>2026-07-08T07:44:53Z</time>
      </trkpt>
      <trkpt lat="43.00969" lon="0.30921">
        <ele>1037.4</ele>
        <time>2026-07-08T07:44:54Z</time>
      </trkpt>
      <trkpt lat="43.00969" lon="0.30921">
        <ele>1037.4</ele>
        <time>2026-07-08T07:44:55Z</time>
      </trkpt>
      <trkpt lat="43.00969" lon="0.30921">
        <ele>1037.4</ele>
        <time>2026-07-08T07:44:56Z</time>
      </trkpt>
      <trkpt lat="43.00969" lon="0.30921">
        <ele>1037.4</ele>
        <time>2026-07-08T07:44:57Z</time>
      </trkpt>
      <trkpt lat="43.00969" lon="0.30921">
        <ele>1037.4</ele>
        <time>2026-07-08T07:44:58Z</time>
      </trkpt>
      <trkpt lat="43.00969" lon="0.30921">
        <ele>1037.4</ele>
        <time>2026-07-08T07:44:59Z</time>
      </trkpt>
      <trkpt lat="43.00969" lon="0.30921">
        <ele>1037.4</ele>
        <time>2026-07-08T07:45:00Z</time>
      </trkpt>
      <trkpt lat="43.00969" lon="0.30921">
        <ele>1037.4</ele>
        <time>2026-07-08T07:45:01Z</time>
      </trkpt>
      <trkpt lat="43.00969" lon="0.30921">
        <ele>1037.4</ele>
        <time>2026-07-08T07:45:02Z</time>
      </trkpt>
      <trkpt lat="43.00969" lon="0.30921">
        <ele>1037.4</ele>
        <time>2026-07-08T07:45:03Z</time>
      </trkpt>
      <trkpt lat="43.00969" lon="0.30921">
        <ele>1037.4</ele>
        <time>2026-07-08T07:45:04Z</time>
      </trkpt>
      <trkpt lat="43.00969" lon="0.30921">
        <ele>1037.4</ele>
        <time>2026-07-08T07:45:05Z</time>
      </trkpt>
      <trkpt lat="43.00969" lon="0.30921">
        <ele>1037.4</ele>
        <time>2026-07-08T07:45:06Z</time>
      </trkpt>
      <trkpt lat="43.00969" lon="0.30921">
        <ele>1037.4</ele>
        <time>2026-07-08T07:45:07Z</time>
      </trkpt>
      <trkpt lat="43.00969" lon="0.30921">
        <ele>1037.4</ele>
        <time>2026-07-08T07:45:08Z</time>
      </trkpt>
      <trkpt lat="43.00969" lon="0.30921">
        <ele>1037.4</ele>
        <time>2026-07-08T07:45:09Z</time>
      </trkpt>
      <trkpt lat="43.00969" lon="0.30921">
        <ele>1037.4</ele>
        <time>2026-07-08T07:45:10Z</time>
      </trkpt>
      <trkpt lat="43.00969" lon="0.30921">
        <ele>1037.4</ele>
        <time>2026-07-08T07:45:11Z</time>
      </trkpt>
      <trkpt lat="43.00969" lon="0.30921">
        <ele>1037.4</ele>
        <time>2026-07-08T07:45:12Z</time>
      </trkpt>
      <trkpt lat="43.00969" lon="0.30921">
        <ele>1037.4</ele>
        <time>2026-07-08T07:45:13Z</time>
      </trkpt>
      <trkpt lat="43.00969" lon="0.30921">
        <ele>1037.4</ele>
        <time>2026-07-08T07:45:14Z</time>
      </trkpt>
      <trkpt lat="43.00969" lon="0.30921">
        <ele>1037.4</ele>
        <time>2026-07-08T07:45:15Z</time>
      </trkpt>
      <trkpt lat="43.00969" lon="0.30921">
        <ele>1037.4</ele>
        <time>2026-07-08T07:45:16Z</time>
      </trkpt>
      <trkpt lat="43.00969" lon="0.30921">
        <ele>1037.4</ele>
        <time>2026-07-08T07:45:17Z</time>
      </trkpt>
      <trkpt lat="43.00969" lon="0.30921">
        <ele>1037.4</ele>
        <time>2026-07-08T07:45:18Z</time>
      </trkpt>
      <trkpt lat="43.00969" lon="0.30921">
        <ele>1037.4</ele>
        <time>2026-07-08T07:45:19Z</time>
      </trkpt>
      <trkpt lat="43.00969" lon="0.30921">
        <ele>1037.4</ele>
        <time>2026-07-08T07:45:20Z</time>
      </trkpt>
      <trkpt lat="43.00969" lon="0.30921">
        <ele>1037.4</ele>
        <time>2026-07-08T07:45:21Z</time>
      </trkpt>
      <trkpt lat="43.00969" lon="0.30921">
        <ele>1037.4</ele>
        <time>2026-07-08T07:45:22Z</time>
      </trkpt>
      <trkpt lat="43.00969" lon="0.30921">
        <ele>1037.4</ele>
        <time>2026-07-08T07:45:23Z</time>
      </trkpt>
      <trkpt lat="43.00969" lon="0.30921">
        <ele>1037.4</ele>
        <time>2026-07-08T07:45:24Z</time>
      </trkpt>
      <trkpt lat="43.00969" lon="0.30921">
        <ele>1037.4</ele>
        <time>2026-07-08T07:45:25Z</time>
      </trkpt>
      <trkpt lat="43.00969" lon="0.30921">
        <ele>1037.4</ele>
        <time>2026-07-08T07:45:26Z</time>
      </trkpt>
      <trkpt lat="43.00969" lon="0.30921">
        <ele>1037.4</ele>
        <time>2026-07-08T07:45:27Z</time>
      </trkpt>
      <trkpt lat="43.00969" lon="0.30921">
        <ele>1037.4</ele>
        <time>2026-07-08T07:45:28Z</time>
      </trkpt>
      <trkpt lat="43.00969" lon="0.30921">
        <ele>1037.4</ele>
        <time>2026-07-08T07:45:29Z</time>
      </trkpt>
      <trkpt lat="43.00969" lon="0.30921">
        <ele>1037.4</ele>
        <time>2026-07-08T07:45:30Z</time>
      </trkpt>
      <trkpt lat="43.00969" lon="0.30921">
        <ele>1037.4</ele>
        <time>2026-07-08T07:45:31Z</time>
      </trkpt>
      <trkpt lat="43.00969" lon="0.30921">
        <ele>1037.4</ele>
        <time>2026-07-08T07:45:32Z</time>
      </trkpt>
      <trkpt lat="43.00969" lon="0.30921">
        <ele>1037.4</ele>
        <time>2026-07-08T07:45:33Z</time>
      </trkpt>
      <trkpt lat="43.00969" lon="0.30921">
        <ele>1037.4</ele>
        <time>2026-07-08T07:45:34Z</time>
      </trkpt>
      <trkpt lat="43.00969" lon="0.30921">
        <ele>1037.4</ele>
        <time>2026-07-08T07:45:35Z</time>
      </trkpt>
      <trkpt lat="43.00969" lon="0.30921">
        <ele>1037.4</ele>
        <time>2026-07-08T07:45:36Z</time>
      </trkpt>
      <trkpt lat="43.00969" lon="0.30921">
        <ele>1037.4</ele>
        <time>2026-07-08T07:45:37Z</time>
      </trkpt>
      <trkpt lat="43.00969" lon="0.30921">
        <ele>1037.4</ele>
        <time>2026-07-08T07:45:38Z</time>
      </trkpt>
      <trkpt lat="43.00969" lon="0.30921">
        <ele>1037.4</ele>
        <time>2026-07-08T07:45:39Z</time>
      </trkpt>
      <trkpt lat="43.00969" lon="0.30921">
        <ele>1037.4</ele>
        <time>2026-07-08T07:45:40Z</time>
      </trkpt>
      <trkpt lat="43.00969" lon="0.30921">
        <ele>1037.4</ele>
        <time>2026-07-08T07:45:41Z</time>
      </trkpt>
      <trkpt lat="43.00969" lon="0.30921">
        <ele>1037.4</ele>
        <time>2026-07-08T07:45:42Z</time>
      </trkpt>
      <trkpt lat="43.00969" lon="0.30921">
        <ele>1037.4</ele>
        <time>2026-07-08T07:45:43Z</time>
      </trkpt>
      <trkpt lat="43.00969" lon="0.30921">
        <ele>1037.4</ele>
        <time>2026-07-08T07:45:44Z</time>
      </trkpt>
      <trkpt lat="43.00969" lon="0.30921">
        <ele>1037.4</ele>
        <time>2026-07-08T07:45:45Z</time>
      </trkpt>
      <trkpt lat="43.00969" lon="0.30921">
        <ele>1037.4</ele>
        <time>2026-07-08T07:45:46Z</time>
      </trkpt>
      <trkpt lat="43.00969" lon="0.30921">
        <ele>1037.4</ele>
        <time>2026-07-08T07:45:47Z</time>
      </trkpt>
      <trkpt lat="43.00969" lon="0.30921">
        <ele>1037.4</ele>
        <time>2026-07-08T07:45:48Z</time>
      </trkpt>
      <trkpt lat="43.00969" lon="0.30921">
        <ele>1037.4</ele>
        <time>2026-07-08T07:45:49Z</time>
      </trkpt>
      <trkpt lat="43.00969" lon="0.30921">
        <ele>1037.4</ele>
        <time>2026-07-08T07:45:50Z</time>
      </trkpt>
      <trkpt lat="43.00969" lon="0.30921">
        <ele>1037.4</ele>
        <time>2026-07-08T07:45:51Z</time>
      </trkpt>
      <trkpt lat="43.00969" lon="0.30921">
        <ele>1037.4</ele>
        <time>2026-07-08T07:45:52Z</time>
      </trkpt>
      <trkpt lat="43.00969" lon="0.30921">
        <ele>1037.4</ele>
        <time>2026-07-08T07:45:53Z</time>
      </trkpt>
      <trkpt lat="43.00969" lon="0.30921">
        <ele>1037.4</ele>
        <time>2026-07-08T07:45:54Z</time>
      </trkpt>
      <trkpt lat="43.00969" lon="0.30921">
        <ele>1037.4</ele>
        <time>2026-07-08T07:45:55Z</time>
      </trkpt>
      <trkpt lat="43.00969" lon="0.30921">
        <ele>1037.4</ele>
        <time>2026-07-08T07:45:56Z</time>
      </trkpt>
      <trkpt lat="43.00969" lon="0.30921">
        <ele>1037.4</ele>
        <time>2026-07-08T07:45:57Z</time>
      </trkpt>
      <trkpt lat="43.00969" lon="0.30921">
        <ele>1037.4</ele>
        <time>2026-07-08T07:45:58Z</time>
      </trkpt>
      <trkpt lat="43.00969" lon="0.30921">
        <ele>1037.4</ele>
        <time>2026-07-08T07:45:59Z</time>
      </trkpt>
      <trkpt lat="43.00969" lon="0.30921">
        <ele>1037.4</ele>
        <time>2026-07-08T07:46:00Z</time>
      </trkpt>
      <trkpt lat="43.00969" lon="0.30921">
        <ele>1037.4</ele>
        <time>2026-07-08T07:46:01Z</time>
      </trkpt>
      <trkpt lat="43.00969" lon="0.30921">
        <ele>1037.4</ele>
        <time>2026-07-08T07:46:02Z</time>
      </trkpt>
      <trkpt lat="43.00969" lon="0.30921">
        <ele>1037.4</ele>
        <time>2026-07-08T07:46:03Z</time>
      </trkpt>
      <trkpt lat="43.00969" lon="0.30921">
        <ele>1037.4</ele>
        <time>2026-07-08T07:46:04Z</time>
      </trkpt>
      <trkpt lat="43.00969" lon="0.30921">
        <ele>1037.4</ele>
        <time>2026-07-08T07:46:05Z</time>
      </trkpt>
      <trkpt lat="43.00969" lon="0.30921">
        <ele>1037.4</ele>
        <time>2026-07-08T07:46:06Z</time>
      </trkpt>
      <trkpt lat="43.00969" lon="0.30921">
        <ele>1037.4</ele>
        <time>2026-07-08T07:46:07Z</time>
      </trkpt>
      <trkpt lat="43.00969" lon="0.30921">
        <ele>1037.4</ele>
        <time>2026-07-08T07:46:08Z</time>
      </trkpt>
      <trkpt lat="43.00969" lon="0.30921">
        <ele>1037.4</ele>
        <time>2026-07-08T07:46:09Z</time>
      </trkpt>
      <trkpt lat="43.00969" lon="0.30921">
        <ele>1037.4</ele>
        <time>2026-07-08T07:46:10Z</time>
      </trkpt>
      <trkpt lat="43.00969" lon="0.30921">
        <ele>1037.4</ele>
        <time>2026-07-08T07:46:11Z</time>
      </trkpt>
      <trkpt lat="43.00969" lon="0.30921">
        <ele>1037.4</ele>
        <time>2026-07-08T07:46:12Z</time>
      </trkpt>
      <trkpt lat="43.00969" lon="0.30921">
        <ele>1037.4</ele>
        <time>2026-07-08T07:46:13Z</time>
      </trkpt>
      <trkpt lat="43.00969" lon="0.30921">
        <ele>1037.4</ele>
        <time>2026-07-08T07:46:14Z</time>
      </trkpt>
      <trkpt lat="43.00969" lon="0.30921">
        <ele>1037.4</ele>
        <time>2026-07-08T07:46:15Z</time>
      </trkpt>
      <trkpt lat="43.00969" lon="0.30921">
        <ele>1037.4</ele>
        <time>2026-07-08T07:46:16Z</time>
      </trkpt>
      <trkpt lat="43.00969" lon="0.30921">
        <ele>1037.4</ele>
        <time>2026-07-08T07:46:17Z</time>
      </trkpt>
      <trkpt lat="43.00969" lon="0.30921">
        <ele>1037.4</ele>
        <time>2026-07-08T07:46:18Z</time>
      </trkpt>
      <trkpt lat="43.00969" lon="0.30921">
        <ele>1037.4</ele>
        <time>2026-07-08T07:46:19Z</time>
      </trkpt>
      <trkpt lat="43.00969" lon="0.30921">
        <ele>1037.4</ele>
        <time>2026-07-08T07:46:20Z</time>
      </trkpt>
      <trkpt lat="43.00969" lon="0.30921">
        <ele>1037.4</ele>
        <time>2026-07-08T07:46:21Z</time>
      </trkpt>
      <trkpt lat="43.00969" lon="0.30921">
        <ele>1037.4</ele>
        <time>2026-07-08T07:46:22Z</time>
      </trkpt>
      <trkpt lat="43.00969" lon="0.30921">
        <ele>1037.4</ele>
        <time>2026-07-08T07:46:23Z</time>
      </trkpt>
      <trkpt lat="43.00969" lon="0.30921">
        <ele>1037.4</ele>
        <time>2026-07-08T07:46:24Z</time>
      </trkpt>
      <trkpt lat="43.00969" lon="0.30921">
        <ele>1037.4</ele>
        <time>2026-07-08T07:46:25Z</time>
      </trkpt>
      <trkpt lat="43.00969" lon="0.30921">
        <ele>1037.4</ele>
        <time>2026-07-08T07:46:26Z</time>
      </trkpt>
      <trkpt lat="43.00969" lon="0.30921">
        <ele>1037.4</ele>
        <time>2026-07-08T07:46:27Z</time>
      </trkpt>
      <trkpt lat="43.00969" lon="0.30921">
        <ele>1037.4</ele>
        <time>2026-07-08T07:46:28Z</time>
      </trkpt>
      <trkpt lat="43.00969" lon="0.30921">
        <ele>1037.4</ele>
        <time>2026-07-08T07:46:29Z</time>
      </trkpt>
      <trkpt lat="43.00969" lon="0.30921">
        <ele>1037.4</ele>
        <time>2026-07-08T07:46:30Z</time>
      </trkpt>
      <trkpt lat="43.00969" lon="0.30921">
        <ele>1037.4</ele>
        <time>2026-07-08T07:46:31Z</time>
      </trkpt>
      <trkpt lat="43.00969" lon="0.30921">
        <ele>1037.4</ele>
        <time>2026-07-08T07:46:32Z</time>
      </trkpt>
      <trkpt lat="43.00969" lon="0.30921">
        <ele>1037.4</ele>
        <time>2026-07-08T07:46:33Z</time>
      </trkpt>
      <trkpt lat="43.00969" lon="0.30921">
        <ele>1037.4</ele>
        <time>2026-07-08T07:46:34Z</time>
      </trkpt>
      <trkpt lat="43.00969" lon="0.30921">
        <ele>1037.4</ele>
        <time>2026-07-08T07:46:35Z</time>
      </trkpt>
      <trkpt lat="43.00969" lon="0.30921">
        <ele>1037.4</ele>
        <time>2026-07-08T07:46:36Z</time>
      </trkpt>
      <trkpt lat="43.00969" lon="0.30921">
        <ele>1037.4</ele>
        <time>2026-07-08T07:46:37Z</time>
      </trkpt>
      <trkpt lat="43.00969" lon="0.30921">
        <ele>1037.4</ele>
        <time>2026-07-08T07:46:38Z</time>
      </trkpt>
      <trkpt lat="43.00969" lon="0.30921">
        <ele>1037.4</ele>
        <time>2026-07-08T07:46:39Z</time>
      </trkpt>
      <trkpt lat="43.00969" lon="0.30921">
        <ele>1037.4</ele>
        <time>2026-07-08T07:46:40Z</time>
      </trkpt>
      <trkpt lat="43.00969" lon="0.30921">
        <ele>1037.4</ele>
        <time>2026-07-08T07:46:41Z</time>
      </trkpt>
      <trkpt lat="43.00969" lon="0.30921">
        <ele>1037.4</ele>
        <time>2026-07-08T07:46:42Z</time>
      </trkpt>
      <trkpt lat="43.00969" lon="0.30921">
        <ele>1037.4</ele>
        <time>2026-07-08T07:46:43Z</time>
      </trkpt>
      <trkpt lat="43.00969" lon="0.30921">
        <ele>1037.4</ele>
        <time>2026-07-08T07:46:44Z</time>
      </trkpt>
      <trkpt lat="43.00969" lon="0.30921">
        <ele>1037.4</ele>
        <time>2026-07-08T07:46:45Z</time>
      </trkpt>
      <trkpt lat="43.00969" lon="0.30921">
        <ele>1037.4</ele>
        <time>2026-07-08T07:46:46Z</time>
      </trkpt>
      <trkpt lat="43.00969" lon="0.30921">
        <ele>1037.4</ele>
        <time>2026-07-08T07:46:47Z</time>
      </trkpt>
      <trkpt lat="43.00969" lon="0.30921">
        <ele>1037.4</ele>
        <time>2026-07-08T07:46:48Z</time>
      </trkpt>
      <trkpt lat="43.00969" lon="0.30921">
        <ele>1037.4</ele>
        <time>2026-07-08T07:46:49Z</time>
      </trkpt>
      <trkpt lat="43.00969" lon="0.30921">
        <ele>1037.4</ele>
        <time>2026-07-08T07:46:50Z</time>
      </trkpt>
      <trkpt lat="43.00969" lon="0.30921">
        <ele>1037.4</ele>
        <time>2026-07-08T07:46:51Z</time>
      </trkpt>
      <trkpt lat="43.00969" lon="0.30921">
        <ele>1037.4</ele>
        <time>2026-07-08T07:46:52Z</time>
      </trkpt>
      <trkpt lat="43.00969" lon="0.30921">
        <ele>1037.4</ele>
        <time>2026-07-08T07:46:53Z</time>
      </trkpt>
      <trkpt lat="43.00969" lon="0.30921">
        <ele>1037.4</ele>
        <time>2026-07-08T07:46:54Z</time>
      </trkpt>
      <trkpt lat="43.00969" lon="0.30921">
        <ele>1037.4</ele>
        <time>2026-07-08T07:46:55Z</time>
      </trkpt>
      <trkpt lat="43.00969" lon="0.30921">
        <ele>1037.4</ele>
        <time>2026-07-08T07:46:56Z</time>
      </trkpt>
      <trkpt lat="43.00969" lon="0.30921">
        <ele>1037.4</ele>
        <time>2026-07-08T07:46:57Z</time>
      </trkpt>
      <trkpt lat="43.00969" lon="0.30921">
        <ele>1037.4</ele>
        <time>2026-07-08T07:46:58Z</time>
      </trkpt>
      <trkpt lat="43.00969" lon="0.30921">
        <ele>1037.4</ele>
        <time>2026-07-08T07:46:59Z</time>
      </trkpt>
      <trkpt lat="43.00969" lon="0.30921">
        <ele>1037.4</ele>
        <time>2026-07-08T07:47:00Z</time>
      </trkpt>
      <trkpt lat="43.00969" lon="0.30921">
        <ele>1037.4</ele>
        <time>2026-07-08T07:47:01Z</time>
      </trkpt>
      <trkpt lat="43.00969" lon="0.30921">
        <ele>1037.4</ele>
        <time>2026-07-08T07:47:02Z</time>
      </trkpt>
      <trkpt lat="43.00969" lon="0.30921">
        <ele>1037.4</ele>
        <time>2026-07-08T07:47:03Z</time>
      </trkpt>
      <trkpt lat="43.00969" lon="0.30921">
        <ele>1037.4</ele>
        <time>2026-07-08T07:47:04Z</time>
      </trkpt>
      <trkpt lat="43.00969" lon="0.30921">
        <ele>1037.4</ele>
        <time>2026-07-08T07:47:05Z</time>
      </trkpt>
      <trkpt lat="43.00969" lon="0.30921">
        <ele>1037.4</ele>
        <time>2026-07-08T07:47:06Z</time>
      </trkpt>
      <trkpt lat="43.00969" lon="0.30921">
        <ele>1037.4</ele>
        <time>2026-07-08T07:47:07Z</time>
      </trkpt>
      <trkpt lat="43.00969" lon="0.30921">
        <ele>1037.4</ele>
        <time>2026-07-08T07:47:08Z</time>
      </trkpt>
      <trkpt lat="43.00969" lon="0.30921">
        <ele>1037.4</ele>
        <time>2026-07-08T07:47:09Z</time>
      </trkpt>
      <trkpt lat="43.00969" lon="0.30921">
        <ele>1037.4</ele>
        <time>2026-07-08T07:47:10Z</time>
      </trkpt>
      <trkpt lat="43.00969" lon="0.30921">
        <ele>1037.4</ele>
        <time>2026-07-08T07:47:11Z</time>
      </trkpt>
      <trkpt lat="43.00969" lon="0.30921">
        <ele>1037.4</ele>
        <time>2026-07-08T07:47:12Z</time>
      </trkpt>
      <trkpt lat="43.00969" lon="0.30921">
        <ele>1037.4</ele>
        <time>2026-07-08T07:47:13Z</time>
      </trkpt>
      <trkpt lat="43.00969" lon="0.30921">
        <ele>1037.4</ele>
        <time>2026-07-08T07:47:14Z</time>
      </trkpt>
      <trkpt lat="43.00969" lon="0.30921">
        <ele>1037.4</ele>
        <time>2026-07-08T07:47:15Z</time>
      </trkpt>
      <trkpt lat="43.00969" lon="0.30921">
        <ele>1037.4</ele>
        <time>2026-07-08T07:47:16Z</time>
      </trkpt>
      <trkpt lat="43.00969" lon="0.30921">
        <ele>1037.4</ele>
        <time>2026-07-08T07:47:17Z</time>
      </trkpt>
      <trkpt lat="43.00969" lon="0.30921">
        <ele>1037.4</ele>
        <time>2026-07-08T07:47:18Z</time>
      </trkpt>
      <trkpt lat="43.00969" lon="0.30921">
        <ele>1037.4</ele>
        <time>2026-07-08T07:47:19Z</time>
      </trkpt>
      <trkpt lat="43.00969" lon="0.30921">
        <ele>1037.4</ele>
        <time>2026-07-08T07:47:20Z</time>
      </trkpt>
      <trkpt lat="43.00969" lon="0.30921">
        <ele>1037.4</ele>
        <time>2026-07-08T07:47:21Z</time>
      </trkpt>
      <trkpt lat="43.00969" lon="0.30921">
        <ele>1037.4</ele>
        <time>2026-07-08T07:47:22Z</time>
      </trkpt>
      <trkpt lat="43.00969" lon="0.30921">
        <ele>1037.4</ele>
        <time>2026-07-08T07:47:23Z</time>
      </trkpt>
      <trkpt lat="43.00969" lon="0.30921">
        <ele>1037.4</ele>
        <time>2026-07-08T07:47:24Z</time>
      </trkpt>
      <trkpt lat="43.00969" lon="0.30921">
        <ele>1037.4</ele>
        <time>2026-07-08T07:47:25Z</time>
      </trkpt>
      <trkpt lat="43.00969" lon="0.30921">
        <ele>1037.4</ele>
        <time>2026-07-08T07:47:26Z</time>
      </trkpt>
      <trkpt lat="43.00969" lon="0.30921">
        <ele>1037.4</ele>
        <time>2026-07-08T07:47:27Z</time>
      </trkpt>
      <trkpt lat="43.00969" lon="0.30921">
        <ele>1037.4</ele>
        <time>2026-07-08T07:47:28Z</time>
      </trkpt>
      <trkpt lat="43.00969" lon="0.30921">
        <ele>1037.4</ele>
        <time>2026-07-08T07:47:29Z</time>
      </trkpt>
      <trkpt lat="43.00969" lon="0.30921">
        <ele>1037.4</ele>
        <time>2026-07-08T07:47:30Z</time>
      </trkpt>
      <trkpt lat="43.00969" lon="0.30921">
        <ele>1037.4</ele>
        <time>2026-07-08T07:47:31Z</time>
      </trkpt>
      <trkpt lat="43.00969" lon="0.30921">
        <ele>1037.4</ele>
        <time>2026-07-08T07:47:32Z</time>
      </trkpt>
      <trkpt lat="43.00969" lon="0.30921">
        <ele>1037.4</ele>
        <time>2026-07-08T07:47:33Z</time>
      </trkpt>
      <trkpt lat="43.00969" lon="0.30921">
        <ele>1037.4</ele>
        <time>2026-07-08T07:47:34Z</time>
      </trkpt>
      <trkpt lat="43.00969" lon="0.30921">
        <ele>1037.4</ele>
        <time>2026-07-08T07:47:35Z</time>
      </trkpt>
      <trkpt lat="43.00969" lon="0.30921">
        <ele>1037.4</ele>
        <time>2026-07-08T07:47:36Z</time>
      </trkpt>
      <trkpt lat="43.00969" lon="0.30921">
        <ele>1037.4</ele>
        <time>2026-07-08T07:47:37Z</time>
      </trkpt>
      <trkpt lat="43.00969" lon="0.30921">
        <ele>1037.4</ele>
        <time>2026-07-08T07:47:38Z</time>
      </trkpt>
      <trkpt lat="43.00969" lon="0.30921">
        <ele>1037.4</ele>
        <time>2026-07-08T07:47:39Z</time>
      </trkpt>
      <trkpt lat="43.00969" lon="0.30921">
        <ele>1037.4</ele>
        <time>2026-07-08T07:47:40Z</time>
      </trkpt>
      <trkpt lat="43.00969" lon="0.30921">
        <ele>1037.4</ele>
        <time>2026-07-08T07:47:41Z</time>
      </trkpt>
      <trkpt lat="43.00969" lon="0.30921">
        <ele>1037.4</ele>
        <time>2026-07-08T07:47:42Z</time>
      </trkpt>
      <trkpt lat="43.00969" lon="0.30921">
        <ele>1037.4</ele>
        <time>2026-07-08T07:47:43Z</time>
      </trkpt>
      <trkpt lat="43.00969" lon="0.30921">
        <ele>1037.4</ele>
        <time>2026-07-08T07:47:44Z</time>
      </trkpt>
      <trkpt lat="43.00969" lon="0.30921">
        <ele>1037.4</ele>
        <time>2026-07-08T07:47:45Z</time>
      </trkpt>
      <trkpt lat="43.00969" lon="0.30921">
        <ele>1037.4</ele>
        <time>2026-07-08T07:47:46Z</time>
      </trkpt>
      <trkpt lat="43.00969" lon="0.30921">
        <ele>1037.4</ele>
        <time>2026-07-08T07:47:46Z</time>
      </trkpt>
      <trkpt lat="43.00969" lon="0.30921">
        <ele>1037.4</ele>
        <time>2026-07-08T07:47:47Z</time>
      </trkpt>
      <trkpt lat="43.00969" lon="0.30921">
        <ele>1037.4</ele>
        <time>2026-07-08T07:47:48Z</time>
      </trkpt>
      <trkpt lat="43.00969" lon="0.30921">
        <ele>1037.4</ele>
        <time>2026-07-08T07:47:49Z</time>
      </trkpt>
      <trkpt lat="43.00969" lon="0.30921">
        <ele>1037.4</ele>
        <time>2026-07-08T07:47:49Z</time>
      </trkpt>
      <trkpt lat="43.00969" lon="0.30921">
        <ele>1037.4</ele>
        <time>2026-07-08T07:47:50Z</time>
      </trkpt>
      <trkpt lat="43.00969" lon="0.30922">
        <ele>1037.4</ele>
        <time>2026-07-08T07:47:51Z</time>
      </trkpt>
      <trkpt lat="43.00969" lon="0.30922">
        <ele>1038.4</ele>
        <time>2026-07-08T07:47:52Z</time>
      </trkpt>
      <trkpt lat="43.00969" lon="0.30922">
        <ele>1038.4</ele>
        <time>2026-07-08T07:47:53Z</time>
      </trkpt>
      <trkpt lat="43.00969" lon="0.30922">
        <ele>1038.4</ele>
        <time>2026-07-08T07:47:54Z</time>
      </trkpt>
      <trkpt lat="43.00969" lon="0.30922">
        <ele>1038.4</ele>
        <time>2026-07-08T07:47:55Z</time>
      </trkpt>
      <trkpt lat="43.00969" lon="0.30922">
        <ele>1038.4</ele>
        <time>2026-07-08T07:47:56Z</time>
      </trkpt>
      <trkpt lat="43.00969" lon="0.30922">
        <ele>1038.4</ele>
        <time>2026-07-08T07:47:57Z</time>
      </trkpt>
      <trkpt lat="43.00969" lon="0.30923">
        <ele>1038.4</ele>
        <time>2026-07-08T07:47:58Z</time>
      </trkpt>
      <trkpt lat="43.00969" lon="0.30923">
        <ele>1038.4</ele>
        <time>2026-07-08T07:47:59Z</time>
      </trkpt>
      <trkpt lat="43.00969" lon="0.30923">
        <ele>1038.4</ele>
        <time>2026-07-08T07:48:00Z</time>
      </trkpt>
      <trkpt lat="43.00969" lon="0.30923">
        <ele>1038.4</ele>
        <time>2026-07-08T07:48:01Z</time>
      </trkpt>
      <trkpt lat="43.00969" lon="0.30923">
        <ele>1038.4</ele>
        <time>2026-07-08T07:48:02Z</time>
      </trkpt>
      <trkpt lat="43.00969" lon="0.30923">
        <ele>1038.4</ele>
        <time>2026-07-08T07:48:03Z</time>
      </trkpt>
      <trkpt lat="43.00969" lon="0.30923">
        <ele>1038.4</ele>
        <time>2026-07-08T07:48:04Z</time>
      </trkpt>
      <trkpt lat="43.00969" lon="0.30923">
        <ele>1038.4</ele>
        <time>2026-07-08T07:48:05Z</time>
      </trkpt>
      <trkpt lat="43.0097" lon="0.30923">
        <ele>1038.4</ele>
        <time>2026-07-08T07:48:06Z</time>
      </trkpt>
      <trkpt lat="43.0097" lon="0.30924">
        <ele>1038.4</ele>
        <time>2026-07-08T07:48:07Z</time>
      </trkpt>
      <trkpt lat="43.0097" lon="0.30924">
        <ele>1038.4</ele>
        <time>2026-07-08T07:48:08Z</time>
      </trkpt>
      <trkpt lat="43.0097" lon="0.30924">
        <ele>1038.4</ele>
        <time>2026-07-08T07:48:09Z</time>
      </trkpt>
      <trkpt lat="43.0097" lon="0.30924">
        <ele>1038.4</ele>
        <time>2026-07-08T07:48:10Z</time>
      </trkpt>
      <trkpt lat="43.0097" lon="0.30924">
        <ele>1038.4</ele>
        <time>2026-07-08T07:48:11Z</time>
      </trkpt>
      <trkpt lat="43.0097" lon="0.30924">
        <ele>1038.4</ele>
        <time>2026-07-08T07:48:12Z</time>
      </trkpt>
      <trkpt lat="43.0097" lon="0.30924">
        <ele>1038.4</ele>
        <time>2026-07-08T07:48:13Z</time>
      </trkpt>
      <trkpt lat="43.0097" lon="0.30924">
        <ele>1038.4</ele>
        <time>2026-07-08T07:48:14Z</time>
      </trkpt>
      <trkpt lat="43.0097" lon="0.30924">
        <ele>1038.4</ele>
        <time>2026-07-08T07:48:15Z</time>
      </trkpt>
      <trkpt lat="43.0097" lon="0.30924">
        <ele>1038.4</ele>
        <time>2026-07-08T07:48:16Z</time>
      </trkpt>
      <trkpt lat="43.0097" lon="0.30924">
        <ele>1038.4</ele>
        <time>2026-07-08T07:48:17Z</time>
      </trkpt>
      <trkpt lat="43.0097" lon="0.30924">
        <ele>1038.4</ele>
        <time>2026-07-08T07:48:18Z</time>
      </trkpt>
      <trkpt lat="43.0097" lon="0.30924">
        <ele>1038.4</ele>
        <time>2026-07-08T07:48:19Z</time>
      </trkpt>
      <trkpt lat="43.0097" lon="0.30924">
        <ele>1038.4</ele>
        <time>2026-07-08T07:48:20Z</time>
      </trkpt>
      <trkpt lat="43.0097" lon="0.30924">
        <ele>1038.4</ele>
        <time>2026-07-08T07:48:21Z</time>
      </trkpt>
      <trkpt lat="43.0097" lon="0.30924">
        <ele>1038.4</ele>
        <time>2026-07-08T07:48:22Z</time>
      </trkpt>
      <trkpt lat="43.0097" lon="0.30924">
        <ele>1038.4</ele>
        <time>2026-07-08T07:48:23Z</time>
      </trkpt>
      <trkpt lat="43.0097" lon="0.30924">
        <ele>1038.4</ele>
        <time>2026-07-08T07:48:24Z</time>
      </trkpt>
      <trkpt lat="43.0097" lon="0.30924">
        <ele>1038.4</ele>
        <time>2026-07-08T07:48:25Z</time>
      </trkpt>
      <trkpt lat="43.0097" lon="0.30924">
        <ele>1038.4</ele>
        <time>2026-07-08T07:48:26Z</time>
      </trkpt>
      <trkpt lat="43.0097" lon="0.30924">
        <ele>1038.4</ele>
        <time>2026-07-08T07:48:27Z</time>
      </trkpt>
      <trkpt lat="43.0097" lon="0.30924">
        <ele>1038.4</ele>
        <time>2026-07-08T07:48:28Z</time>
      </trkpt>
      <trkpt lat="43.0097" lon="0.30924">
        <ele>1038.4</ele>
        <time>2026-07-08T07:48:29Z</time>
      </trkpt>
      <trkpt lat="43.0097" lon="0.30924">
        <ele>1038.4</ele>
        <time>2026-07-08T07:48:30Z</time>
      </trkpt>
      <trkpt lat="43.0097" lon="0.30924">
        <ele>1038.4</ele>
        <time>2026-07-08T07:48:31Z</time>
      </trkpt>
      <trkpt lat="43.0097" lon="0.30924">
        <ele>1038.4</ele>
        <time>2026-07-08T07:48:32Z</time>
      </trkpt>
      <trkpt lat="43.0097" lon="0.30924">
        <ele>1038.4</ele>
        <time>2026-07-08T07:48:33Z</time>
      </trkpt>
      <trkpt lat="43.0097" lon="0.30924">
        <ele>1038.4</ele>
        <time>2026-07-08T07:48:34Z</time>
      </trkpt>
      <trkpt lat="43.0097" lon="0.30924">
        <ele>1038.4</ele>
        <time>2026-07-08T07:48:35Z</time>
      </trkpt>
      <trkpt lat="43.0097" lon="0.30924">
        <ele>1038.4</ele>
        <time>2026-07-08T07:48:36Z</time>
      </trkpt>
      <trkpt lat="43.0097" lon="0.30924">
        <ele>1038.4</ele>
        <time>2026-07-08T07:48:37Z</time>
      </trkpt>
      <trkpt lat="43.0097" lon="0.30924">
        <ele>1038.4</ele>
        <time>2026-07-08T07:48:38Z</time>
      </trkpt>
      <trkpt lat="43.0097" lon="0.30924">
        <ele>1038.4</ele>
        <time>2026-07-08T07:48:39Z</time>
      </trkpt>
      <trkpt lat="43.0097" lon="0.30924">
        <ele>1038.4</ele>
        <time>2026-07-08T07:48:40Z</time>
      </trkpt>
      <trkpt lat="43.0097" lon="0.30924">
        <ele>1038.4</ele>
        <time>2026-07-08T07:48:41Z</time>
      </trkpt>
      <trkpt lat="43.0097" lon="0.30924">
        <ele>1038.4</ele>
        <time>2026-07-08T07:48:42Z</time>
      </trkpt>
      <trkpt lat="43.0097" lon="0.30924">
        <ele>1038.4</ele>
        <time>2026-07-08T07:48:43Z</time>
      </trkpt>
      <trkpt lat="43.0097" lon="0.30924">
        <ele>1038.4</ele>
        <time>2026-07-08T07:48:44Z</time>
      </trkpt>
      <trkpt lat="43.0097" lon="0.30924">
        <ele>1038.4</ele>
        <time>2026-07-08T07:48:45Z</time>
      </trkpt>
      <trkpt lat="43.0097" lon="0.30924">
        <ele>1038.4</ele>
        <time>2026-07-08T07:48:46Z</time>
      </trkpt>
      <trkpt lat="43.0097" lon="0.30924">
        <ele>1038.4</ele>
        <time>2026-07-08T07:48:47Z</time>
      </trkpt>
      <trkpt lat="43.0097" lon="0.30924">
        <ele>1038.4</ele>
        <time>2026-07-08T07:48:48Z</time>
      </trkpt>
      <trkpt lat="43.0097" lon="0.30924">
        <ele>1038.4</ele>
        <time>2026-07-08T07:48:49Z</time>
      </trkpt>
      <trkpt lat="43.0097" lon="0.30924">
        <ele>1038.4</ele>
        <time>2026-07-08T07:48:50Z</time>
      </trkpt>
      <trkpt lat="43.0097" lon="0.30924">
        <ele>1038.4</ele>
        <time>2026-07-08T07:48:51Z</time>
      </trkpt>
      <trkpt lat="43.0097" lon="0.30924">
        <ele>1038.4</ele>
        <time>2026-07-08T07:48:52Z</time>
      </trkpt>
      <trkpt lat="43.0097" lon="0.30924">
        <ele>1038.4</ele>
        <time>2026-07-08T07:48:53Z</time>
      </trkpt>
      <trkpt lat="43.0097" lon="0.30924">
        <ele>1038.4</ele>
        <time>2026-07-08T07:48:54Z</time>
      </trkpt>
      <trkpt lat="43.0097" lon="0.30924">
        <ele>1038.4</ele>
        <time>2026-07-08T07:48:55Z</time>
      </trkpt>
      <trkpt lat="43.0097" lon="0.30924">
        <ele>1038.4</ele>
        <time>2026-07-08T07:48:56Z</time>
      </trkpt>
      <trkpt lat="43.0097" lon="0.30924">
        <ele>1038.4</ele>
        <time>2026-07-08T07:48:57Z</time>
      </trkpt>
      <trkpt lat="43.0097" lon="0.30924">
        <ele>1038.4</ele>
        <time>2026-07-08T07:48:58Z</time>
      </trkpt>
      <trkpt lat="43.0097" lon="0.30924">
        <ele>1038.4</ele>
        <time>2026-07-08T07:48:59Z</time>
      </trkpt>
      <trkpt lat="43.0097" lon="0.30924">
        <ele>1038.4</ele>
        <time>2026-07-08T07:49:00Z</time>
      </trkpt>
      <trkpt lat="43.0097" lon="0.30924">
        <ele>1038.4</ele>
        <time>2026-07-08T07:49:01Z</time>
      </trkpt>
      <trkpt lat="43.0097" lon="0.30924">
        <ele>1038.4</ele>
        <time>2026-07-08T07:49:02Z</time>
      </trkpt>
      <trkpt lat="43.0097" lon="0.30924">
        <ele>1038.4</ele>
        <time>2026-07-08T07:49:03Z</time>
      </trkpt>
      <trkpt lat="43.0097" lon="0.30924">
        <ele>1038.4</ele>
        <time>2026-07-08T07:49:04Z</time>
      </trkpt>
      <trkpt lat="43.0097" lon="0.30924">
        <ele>1038.4</ele>
        <time>2026-07-08T07:49:05Z</time>
      </trkpt>
      <trkpt lat="43.0097" lon="0.30924">
        <ele>1038.4</ele>
        <time>2026-07-08T07:49:06Z</time>
      </trkpt>
      <trkpt lat="43.0097" lon="0.30924">
        <ele>1038.4</ele>
        <time>2026-07-08T07:49:07Z</time>
      </trkpt>
      <trkpt lat="43.0097" lon="0.30924">
        <ele>1038.4</ele>
        <time>2026-07-08T07:49:08Z</time>
      </trkpt>
      <trkpt lat="43.0097" lon="0.30924">
        <ele>1038.4</ele>
        <time>2026-07-08T07:49:09Z</time>
      </trkpt>
      <trkpt lat="43.0097" lon="0.30924">
        <ele>1038.4</ele>
        <time>2026-07-08T07:49:10Z</time>
      </trkpt>
      <trkpt lat="43.0097" lon="0.30924">
        <ele>1038.4</ele>
        <time>2026-07-08T07:49:11Z</time>
      </trkpt>
      <trkpt lat="43.0097" lon="0.30924">
        <ele>1038.4</ele>
        <time>2026-07-08T07:49:12Z</time>
      </trkpt>
      <trkpt lat="43.0097" lon="0.30924">
        <ele>1038.4</ele>
        <time>2026-07-08T07:49:13Z</time>
      </trkpt>
      <trkpt lat="43.0097" lon="0.30924">
        <ele>1038.4</ele>
        <time>2026-07-08T07:49:14Z</time>
      </trkpt>
      <trkpt lat="43.0097" lon="0.30924">
        <ele>1038.4</ele>
        <time>2026-07-08T07:49:15Z</time>
      </trkpt>
      <trkpt lat="43.0097" lon="0.30924">
        <ele>1038.4</ele>
        <time>2026-07-08T07:49:16Z</time>
      </trkpt>
      <trkpt lat="43.0097" lon="0.30924">
        <ele>1038.4</ele>
        <time>2026-07-08T07:49:17Z</time>
      </trkpt>
      <trkpt lat="43.0097" lon="0.30924">
        <ele>1038.4</ele>
        <time>2026-07-08T07:49:18Z</time>
      </trkpt>
      <trkpt lat="43.0097" lon="0.30924">
        <ele>1038.4</ele>
        <time>2026-07-08T07:49:19Z</time>
      </trkpt>
      <trkpt lat="43.0097" lon="0.30924">
        <ele>1038.4</ele>
        <time>2026-07-08T07:49:20Z</time>
      </trkpt>
      <trkpt lat="43.0097" lon="0.30924">
        <ele>1038.4</ele>
        <time>2026-07-08T07:49:21Z</time>
      </trkpt>
      <trkpt lat="43.0097" lon="0.30924">
        <ele>1038.4</ele>
        <time>2026-07-08T07:49:22Z</time>
      </trkpt>
      <trkpt lat="43.0097" lon="0.30924">
        <ele>1038.4</ele>
        <time>2026-07-08T07:49:23Z</time>
      </trkpt>
      <trkpt lat="43.0097" lon="0.30924">
        <ele>1039.4</ele>
        <time>2026-07-08T07:49:24Z</time>
      </trkpt>
      <trkpt lat="43.0097" lon="0.30924">
        <ele>1039.4</ele>
        <time>2026-07-08T07:49:24Z</time>
      </trkpt>
      <trkpt lat="43.0097" lon="0.30924">
        <ele>1037.4</ele>
        <time>2026-07-08T07:49:25Z</time>
      </trkpt>
      <trkpt lat="43.0097" lon="0.30924">
        <ele>1038.4</ele>
        <time>2026-07-08T07:49:26Z</time>
      </trkpt>
      <trkpt lat="43.0097" lon="0.30924">
        <ele>1038.4</ele>
        <time>2026-07-08T07:49:27Z</time>
      </trkpt>
      <trkpt lat="43.0097" lon="0.30924">
        <ele>1038.4</ele>
        <time>2026-07-08T07:49:28Z</time>
      </trkpt>
      <trkpt lat="43.0097" lon="0.30924">
        <ele>1038.4</ele>
        <time>2026-07-08T07:49:29Z</time>
      </trkpt>
      <trkpt lat="43.0097" lon="0.30924">
        <ele>1038.4</ele>
        <time>2026-07-08T07:49:30Z</time>
      </trkpt>
      <trkpt lat="43.0097" lon="0.30924">
        <ele>1038.4</ele>
        <time>2026-07-08T07:49:31Z</time>
      </trkpt>
      <trkpt lat="43.0097" lon="0.30924">
        <ele>1038.4</ele>
        <time>2026-07-08T07:49:32Z</time>
      </trkpt>
      <trkpt lat="43.00969" lon="0.30924">
        <ele>1038.4</ele>
        <time>2026-07-08T07:49:33Z</time>
      </trkpt>
      <trkpt lat="43.00969" lon="0.30925">
        <ele>1037.4</ele>
        <time>2026-07-08T07:49:33Z</time>
      </trkpt>
      <trkpt lat="43.00969" lon="0.30925">
        <ele>1038.4</ele>
        <time>2026-07-08T07:49:34Z</time>
      </trkpt>
      <trkpt lat="43.00969" lon="0.30925">
        <ele>1038.4</ele>
        <time>2026-07-08T07:49:35Z</time>
      </trkpt>
      <trkpt lat="43.00969" lon="0.30925">
        <ele>1038.4</ele>
        <time>2026-07-08T07:49:36Z</time>
      </trkpt>
      <trkpt lat="43.00969" lon="0.30925">
        <ele>1038.4</ele>
        <time>2026-07-08T07:49:37Z</time>
      </trkpt>
      <trkpt lat="43.00968" lon="0.30926">
        <ele>1038.4</ele>
        <time>2026-07-08T07:49:38Z</time>
      </trkpt>
      <trkpt lat="43.00968" lon="0.30926">
        <ele>1038.4</ele>
        <time>2026-07-08T07:49:38Z</time>
      </trkpt>
      <trkpt lat="43.00968" lon="0.30926">
        <ele>1038.4</ele>
        <time>2026-07-08T07:49:39Z</time>
      </trkpt>
      <trkpt lat="43.00968" lon="0.30926">
        <ele>1038.4</ele>
        <time>2026-07-08T07:49:40Z</time>
      </trkpt>
      <trkpt lat="43.00968" lon="0.30926">
        <ele>1038.4</ele>
        <time>2026-07-08T07:49:41Z</time>
      </trkpt>
      <trkpt lat="43.00968" lon="0.30926">
        <ele>1038.4</ele>
        <time>2026-07-08T07:49:42Z</time>
      </trkpt>
      <trkpt lat="43.00968" lon="0.30926">
        <ele>1038.4</ele>
        <time>2026-07-08T07:49:43Z</time>
      </trkpt>
      <trkpt lat="43.00968" lon="0.30926">
        <ele>1038.4</ele>
        <time>2026-07-08T07:49:44Z</time>
      </trkpt>
      <trkpt lat="43.00968" lon="0.30926">
        <ele>1038.4</ele>
        <time>2026-07-08T07:49:45Z</time>
      </trkpt>
      <trkpt lat="43.00968" lon="0.30926">
        <ele>1037.4</ele>
        <time>2026-07-08T07:49:46Z</time>
      </trkpt>
      <trkpt lat="43.00968" lon="0.30926">
        <ele>1037.4</ele>
        <time>2026-07-08T07:49:47Z</time>
      </trkpt>
      <trkpt lat="43.00968" lon="0.30926">
        <ele>1037.4</ele>
        <time>2026-07-08T07:49:48Z</time>
      </trkpt>
      <trkpt lat="43.00969" lon="0.30926">
        <ele>1037.4</ele>
        <time>2026-07-08T07:49:49Z</time>
      </trkpt>
      <trkpt lat="43.00969" lon="0.30926">
        <ele>1037.4</ele>
        <time>2026-07-08T07:49:50Z</time>
      </trkpt>
      <trkpt lat="43.00969" lon="0.30926">
        <ele>1037.4</ele>
        <time>2026-07-08T07:49:51Z</time>
      </trkpt>
      <trkpt lat="43.00969" lon="0.30925">
        <ele>1037.4</ele>
        <time>2026-07-08T07:49:52Z</time>
      </trkpt>
      <trkpt lat="43.00969" lon="0.30925">
        <ele>1038.4</ele>
        <time>2026-07-08T07:49:53Z</time>
      </trkpt>
      <trkpt lat="43.00969" lon="0.30925">
        <ele>1038.4</ele>
        <time>2026-07-08T07:49:54Z</time>
      </trkpt>
      <trkpt lat="43.00968" lon="0.30926">
        <ele>1038.4</ele>
        <time>2026-07-08T07:49:55Z</time>
      </trkpt>
      <trkpt lat="43.00968" lon="0.30926">
        <ele>1038.4</ele>
        <time>2026-07-08T07:49:56Z</time>
      </trkpt>
      <trkpt lat="43.00968" lon="0.30926">
        <ele>1038.4</ele>
        <time>2026-07-08T07:49:57Z</time>
      </trkpt>
      <trkpt lat="43.00968" lon="0.30926">
        <ele>1038.4</ele>
        <time>2026-07-08T07:49:58Z</time>
      </trkpt>
      <trkpt lat="43.00968" lon="0.30926">
        <ele>1038.4</ele>
        <time>2026-07-08T07:49:59Z</time>
      </trkpt>
      <trkpt lat="43.00968" lon="0.30926">
        <ele>1037.4</ele>
        <time>2026-07-08T07:49:59Z</time>
      </trkpt>
      <trkpt lat="43.00968" lon="0.30926">
        <ele>1037.4</ele>
        <time>2026-07-08T07:50:00Z</time>
      </trkpt>
      <trkpt lat="43.00968" lon="0.30926">
        <ele>1037.4</ele>
        <time>2026-07-08T07:50:01Z</time>
      </trkpt>
      <trkpt lat="43.00969" lon="0.30926">
        <ele>1036.4</ele>
        <time>2026-07-08T07:50:02Z</time>
      </trkpt>
      <trkpt lat="43.00969" lon="0.30926">
        <ele>1036.4</ele>
        <time>2026-07-08T07:50:03Z</time>
      </trkpt>
      <trkpt lat="43.00969" lon="0.30926">
        <ele>1036.4</ele>
        <time>2026-07-08T07:50:04Z</time>
      </trkpt>
      <trkpt lat="43.00969" lon="0.30926">
        <ele>1036.4</ele>
        <time>2026-07-08T07:50:05Z</time>
      </trkpt>
      <trkpt lat="43.00969" lon="0.30926">
        <ele>1036.4</ele>
        <time>2026-07-08T07:50:06Z</time>
      </trkpt>
      <trkpt lat="43.00969" lon="0.30926">
        <ele>1036.4</ele>
        <time>2026-07-08T07:50:07Z</time>
      </trkpt>
      <trkpt lat="43.00969" lon="0.30925">
        <ele>1035.4</ele>
        <time>2026-07-08T07:50:07Z</time>
      </trkpt>
      <trkpt lat="43.00969" lon="0.30925">
        <ele>1035.4</ele>
        <time>2026-07-08T07:50:08Z</time>
      </trkpt>
      <trkpt lat="43.00969" lon="0.30925">
        <ele>1035.4</ele>
        <time>2026-07-08T07:50:09Z</time>
      </trkpt>
      <trkpt lat="43.00969" lon="0.30925">
        <ele>1035.4</ele>
        <time>2026-07-08T07:50:09Z</time>
      </trkpt>
      <trkpt lat="43.00969" lon="0.30924">
        <ele>1036.4</ele>
        <time>2026-07-08T07:50:10Z</time>
      </trkpt>
      <trkpt lat="43.00969" lon="0.30924">
        <ele>1036.4</ele>
        <time>2026-07-08T07:50:11Z</time>
      </trkpt>
      <trkpt lat="43.00969" lon="0.30922">
        <ele>1036.4</ele>
        <time>2026-07-08T07:50:11Z</time>
      </trkpt>
      <trkpt lat="43.00968" lon="0.30921">
        <ele>1036.4</ele>
        <time>2026-07-08T07:50:12Z</time>
      </trkpt>
      <trkpt lat="43.00968" lon="0.3092">
        <ele>1037.4</ele>
        <time>2026-07-08T07:50:13Z</time>
      </trkpt>
      <trkpt lat="43.00967" lon="0.30918">
        <ele>1037.4</ele>
        <time>2026-07-08T07:50:13Z</time>
      </trkpt>
      <trkpt lat="43.00967" lon="0.30917">
        <ele>1037.4</ele>
        <time>2026-07-08T07:50:14Z</time>
      </trkpt>
      <trkpt lat="43.00967" lon="0.30916">
        <ele>1037.4</ele>
        <time>2026-07-08T07:50:14Z</time>
      </trkpt>
      <trkpt lat="43.00966" lon="0.30915">
        <ele>1037.4</ele>
        <time>2026-07-08T07:50:15Z</time>
      </trkpt>
      <trkpt lat="43.00966" lon="0.30914">
        <ele>1036.4</ele>
        <time>2026-07-08T07:50:16Z</time>
      </trkpt>
      <trkpt lat="43.00966" lon="0.30913">
        <ele>1036.4</ele>
        <time>2026-07-08T07:50:16Z</time>
      </trkpt>
      <trkpt lat="43.00965" lon="0.30912">
        <ele>1036.4</ele>
        <time>2026-07-08T07:50:17Z</time>
      </trkpt>
      <trkpt lat="43.00965" lon="0.30911">
        <ele>1036.4</ele>
        <time>2026-07-08T07:50:18Z</time>
      </trkpt>
      <trkpt lat="43.00965" lon="0.30911">
        <ele>1037.4</ele>
        <time>2026-07-08T07:50:18Z</time>
      </trkpt>
      <trkpt lat="43.00964" lon="0.3091">
        <ele>1037.4</ele>
        <time>2026-07-08T07:50:19Z</time>
      </trkpt>
      <trkpt lat="43.00964" lon="0.30909">
        <ele>1037.4</ele>
        <time>2026-07-08T07:50:19Z</time>
      </trkpt>
      <trkpt lat="43.00964" lon="0.30909">
        <ele>1037.4</ele>
        <time>2026-07-08T07:50:20Z</time>
      </trkpt>
      <trkpt lat="43.00963" lon="0.30908">
        <ele>1038.4</ele>
        <time>2026-07-08T07:50:20Z</time>
      </trkpt>
      <trkpt lat="43.00963" lon="0.30907">
        <ele>1039.4</ele>
        <time>2026-07-08T07:50:21Z</time>
      </trkpt>
      <trkpt lat="43.00963" lon="0.30906">
        <ele>1039.4</ele>
        <time>2026-07-08T07:50:22Z</time>
      </trkpt>
      <trkpt lat="43.00963" lon="0.30905">
        <ele>1039.4</ele>
        <time>2026-07-08T07:50:22Z</time>
      </trkpt>
      <trkpt lat="43.00962" lon="0.30904">
        <ele>1039.4</ele>
        <time>2026-07-08T07:50:23Z</time>
      </trkpt>
      <trkpt lat="43.00962" lon="0.30903">
        <ele>1038.4</ele>
        <time>2026-07-08T07:50:23Z</time>
      </trkpt>
      <trkpt lat="43.00962" lon="0.30902">
        <ele>1038.4</ele>
        <time>2026-07-08T07:50:24Z</time>
      </trkpt>
      <trkpt lat="43.00961" lon="0.30901">
        <ele>1038.4</ele>
        <time>2026-07-08T07:50:25Z</time>
      </trkpt>
      <trkpt lat="43.00961" lon="0.309">
        <ele>1038.4</ele>
        <time>2026-07-08T07:50:25Z</time>
      </trkpt>
      <trkpt lat="43.00961" lon="0.30899">
        <ele>1038.4</ele>
        <time>2026-07-08T07:50:26Z</time>
      </trkpt>
      <trkpt lat="43.00961" lon="0.30899">
        <ele>1038.4</ele>
        <time>2026-07-08T07:50:26Z</time>
      </trkpt>
      <trkpt lat="43.0096" lon="0.30898">
        <ele>1038.4</ele>
        <time>2026-07-08T07:50:27Z</time>
      </trkpt>
      <trkpt lat="43.0096" lon="0.30896">
        <ele>1038.4</ele>
        <time>2026-07-08T07:50:28Z</time>
      </trkpt>
      <trkpt lat="43.00959" lon="0.30895">
        <ele>1038.4</ele>
        <time>2026-07-08T07:50:29Z</time>
      </trkpt>
      <trkpt lat="43.00959" lon="0.30894">
        <ele>1038.4</ele>
        <time>2026-07-08T07:50:29Z</time>
      </trkpt>
      <trkpt lat="43.00959" lon="0.30894">
        <ele>1038.4</ele>
        <time>2026-07-08T07:50:30Z</time>
      </trkpt>
      <trkpt lat="43.00958" lon="0.30893">
        <ele>1038.4</ele>
        <time>2026-07-08T07:50:30Z</time>
      </trkpt>
      <trkpt lat="43.00958" lon="0.30892">
        <ele>1038.4</ele>
        <time>2026-07-08T07:50:31Z</time>
      </trkpt>
      <trkpt lat="43.00958" lon="0.30892">
        <ele>1038.4</ele>
        <time>2026-07-08T07:50:32Z</time>
      </trkpt>
      <trkpt lat="43.00957" lon="0.30891">
        <ele>1037.4</ele>
        <time>2026-07-08T07:50:32Z</time>
      </trkpt>
      <trkpt lat="43.00957" lon="0.3089">
        <ele>1037.4</ele>
        <time>2026-07-08T07:50:33Z</time>
      </trkpt>
      <trkpt lat="43.00956" lon="0.30889">
        <ele>1037.4</ele>
        <time>2026-07-08T07:50:34Z</time>
      </trkpt>
      <trkpt lat="43.00955" lon="0.30887">
        <ele>1037.4</ele>
        <time>2026-07-08T07:50:35Z</time>
      </trkpt>
      <trkpt lat="43.00955" lon="0.30887">
        <ele>1037.4</ele>
        <time>2026-07-08T07:50:36Z</time>
      </trkpt>
      <trkpt lat="43.00955" lon="0.30886">
        <ele>1037.4</ele>
        <time>2026-07-08T07:50:36Z</time>
      </trkpt>
      <trkpt lat="43.00955" lon="0.30885">
        <ele>1037.4</ele>
        <time>2026-07-08T07:50:37Z</time>
      </trkpt>
      <trkpt lat="43.00955" lon="0.30883">
        <ele>1037.4</ele>
        <time>2026-07-08T07:50:37Z</time>
      </trkpt>
      <trkpt lat="43.00955" lon="0.30883">
        <ele>1037.4</ele>
        <time>2026-07-08T07:50:38Z</time>
      </trkpt>
      <trkpt lat="43.00954" lon="0.30882">
        <ele>1037.4</ele>
        <time>2026-07-08T07:50:39Z</time>
      </trkpt>
      <trkpt lat="43.00954" lon="0.30881">
        <ele>1038.4</ele>
        <time>2026-07-08T07:50:39Z</time>
      </trkpt>
      <trkpt lat="43.00954" lon="0.3088">
        <ele>1038.4</ele>
        <time>2026-07-08T07:50:40Z</time>
      </trkpt>
      <trkpt lat="43.00953" lon="0.30879">
        <ele>1038.4</ele>
        <time>2026-07-08T07:50:40Z</time>
      </trkpt>
      <trkpt lat="43.00953" lon="0.30879">
        <ele>1038.4</ele>
        <time>2026-07-08T07:50:41Z</time>
      </trkpt>
      <trkpt lat="43.00953" lon="0.30878">
        <ele>1038.4</ele>
        <time>2026-07-08T07:50:41Z</time>
      </trkpt>
      <trkpt lat="43.00953" lon="0.30877">
        <ele>1038.4</ele>
        <time>2026-07-08T07:50:42Z</time>
      </trkpt>
      <trkpt lat="43.00953" lon="0.30877">
        <ele>1039.4</ele>
        <time>2026-07-08T07:50:43Z</time>
      </trkpt>
      <trkpt lat="43.00953" lon="0.30876">
        <ele>1039.4</ele>
        <time>2026-07-08T07:50:43Z</time>
      </trkpt>
      <trkpt lat="43.00952" lon="0.30875">
        <ele>1039.4</ele>
        <time>2026-07-08T07:50:44Z</time>
      </trkpt>
      <trkpt lat="43.00952" lon="0.30873">
        <ele>1039.4</ele>
        <time>2026-07-08T07:50:45Z</time>
      </trkpt>
      <trkpt lat="43.00952" lon="0.30873">
        <ele>1039.4</ele>
        <time>2026-07-08T07:50:46Z</time>
      </trkpt>
      <trkpt lat="43.00952" lon="0.30872">
        <ele>1039.4</ele>
        <time>2026-07-08T07:50:46Z</time>
      </trkpt>
      <trkpt lat="43.00951" lon="0.30871">
        <ele>1039.4</ele>
        <time>2026-07-08T07:50:47Z</time>
      </trkpt>
      <trkpt lat="43.00951" lon="0.3087">
        <ele>1038.4</ele>
        <time>2026-07-08T07:50:47Z</time>
      </trkpt>
      <trkpt lat="43.00951" lon="0.3087">
        <ele>1038.4</ele>
        <time>2026-07-08T07:50:48Z</time>
      </trkpt>
      <trkpt lat="43.00951" lon="0.30868">
        <ele>1038.4</ele>
        <time>2026-07-08T07:50:49Z</time>
      </trkpt>
      <trkpt lat="43.00951" lon="0.30867">
        <ele>1038.4</ele>
        <time>2026-07-08T07:50:49Z</time>
      </trkpt>
      <trkpt lat="43.00952" lon="0.30866">
        <ele>1038.4</ele>
        <time>2026-07-08T07:50:50Z</time>
      </trkpt>
      <trkpt lat="43.00952" lon="0.30864">
        <ele>1038.4</ele>
        <time>2026-07-08T07:50:51Z</time>
      </trkpt>
      <trkpt lat="43.00953" lon="0.30863">
        <ele>1037.4</ele>
        <time>2026-07-08T07:50:52Z</time>
      </trkpt>
      <trkpt lat="43.00953" lon="0.30863">
        <ele>1037.4</ele>
        <time>2026-07-08T07:50:52Z</time>
      </trkpt>
      <trkpt lat="43.00953" lon="0.30862">
        <ele>1037.4</ele>
        <time>2026-07-08T07:50:53Z</time>
      </trkpt>
      <trkpt lat="43.00953" lon="0.30861">
        <ele>1038.4</ele>
        <time>2026-07-08T07:50:53Z</time>
      </trkpt>
      <trkpt lat="43.00953" lon="0.3086">
        <ele>1038.4</ele>
        <time>2026-07-08T07:50:54Z</time>
      </trkpt>
      <trkpt lat="43.00953" lon="0.30859">
        <ele>1038.4</ele>
        <time>2026-07-08T07:50:55Z</time>
      </trkpt>
      <trkpt lat="43.00953" lon="0.30858">
        <ele>1037.4</ele>
        <time>2026-07-08T07:50:55Z</time>
      </trkpt>
      <trkpt lat="43.00952" lon="0.30857">
        <ele>1037.4</ele>
        <time>2026-07-08T07:50:56Z</time>
      </trkpt>
      <trkpt lat="43.00952" lon="0.30856">
        <ele>1037.4</ele>
        <time>2026-07-08T07:50:57Z</time>
      </trkpt>
      <trkpt lat="43.00952" lon="0.30855">
        <ele>1037.4</ele>
        <time>2026-07-08T07:50:57Z</time>
      </trkpt>
      <trkpt lat="43.00951" lon="0.30855">
        <ele>1037.4</ele>
        <time>2026-07-08T07:50:58Z</time>
      </trkpt>
      <trkpt lat="43.00951" lon="0.30853">
        <ele>1036.4</ele>
        <time>2026-07-08T07:50:59Z</time>
      </trkpt>
      <trkpt lat="43.0095" lon="0.30851">
        <ele>1036.4</ele>
        <time>2026-07-08T07:51:00Z</time>
      </trkpt>
      <trkpt lat="43.00949" lon="0.3085">
        <ele>1036.4</ele>
        <time>2026-07-08T07:51:01Z</time>
      </trkpt>
      <trkpt lat="43.00949" lon="0.30848">
        <ele>1036.4</ele>
        <time>2026-07-08T07:51:02Z</time>
      </trkpt>
      <trkpt lat="43.00949" lon="0.30846">
        <ele>1036.4</ele>
        <time>2026-07-08T07:51:03Z</time>
      </trkpt>
      <trkpt lat="43.00948" lon="0.30845">
        <ele>1036.4</ele>
        <time>2026-07-08T07:51:04Z</time>
      </trkpt>
      <trkpt lat="43.00948" lon="0.30844">
        <ele>1036.4</ele>
        <time>2026-07-08T07:51:05Z</time>
      </trkpt>
      <trkpt lat="43.00947" lon="0.30844">
        <ele>1036.4</ele>
        <time>2026-07-08T07:51:05Z</time>
      </trkpt>
      <trkpt lat="43.00947" lon="0.30843">
        <ele>1036.4</ele>
        <time>2026-07-08T07:51:06Z</time>
      </trkpt>
      <trkpt lat="43.00946" lon="0.30842">
        <ele>1036.4</ele>
        <time>2026-07-08T07:51:06Z</time>
      </trkpt>
      <trkpt lat="43.00945" lon="0.30841">
        <ele>1036.4</ele>
        <time>2026-07-08T07:51:07Z</time>
      </trkpt>
      <trkpt lat="43.00945" lon="0.30841">
        <ele>1036.4</ele>
        <time>2026-07-08T07:51:08Z</time>
      </trkpt>
      <trkpt lat="43.00944" lon="0.3084">
        <ele>1036.4</ele>
        <time>2026-07-08T07:51:08Z</time>
      </trkpt>
      <trkpt lat="43.00944" lon="0.30839">
        <ele>1037.4</ele>
        <time>2026-07-08T07:51:09Z</time>
      </trkpt>
      <trkpt lat="43.00943" lon="0.30839">
        <ele>1037.4</ele>
        <time>2026-07-08T07:51:10Z</time>
      </trkpt>
      <trkpt lat="43.00943" lon="0.30838">
        <ele>1037.4</ele>
        <time>2026-07-08T07:51:10Z</time>
      </trkpt>
      <trkpt lat="43.00942" lon="0.30837">
        <ele>1037.4</ele>
        <time>2026-07-08T07:51:11Z</time>
      </trkpt>
      <trkpt lat="43.00942" lon="0.30836">
        <ele>1038.4</ele>
        <time>2026-07-08T07:51:12Z</time>
      </trkpt>
      <trkpt lat="43.00941" lon="0.30835">
        <ele>1038.4</ele>
        <time>2026-07-08T07:51:13Z</time>
      </trkpt>
      <trkpt lat="43.0094" lon="0.30834">
        <ele>1038.4</ele>
        <time>2026-07-08T07:51:14Z</time>
      </trkpt>
      <trkpt lat="43.0094" lon="0.30835">
        <ele>1038.4</ele>
        <time>2026-07-08T07:51:15Z</time>
      </trkpt>
      <trkpt lat="43.00939" lon="0.30834">
        <ele>1038.4</ele>
        <time>2026-07-08T07:51:16Z</time>
      </trkpt>
      <trkpt lat="43.00939" lon="0.30833">
        <ele>1038.4</ele>
        <time>2026-07-08T07:51:16Z</time>
      </trkpt>
      <trkpt lat="43.00938" lon="0.30832">
        <ele>1038.4</ele>
        <time>2026-07-08T07:51:17Z</time>
      </trkpt>
      <trkpt lat="43.00937" lon="0.30831">
        <ele>1038.4</ele>
        <time>2026-07-08T07:51:18Z</time>
      </trkpt>
      <trkpt lat="43.00937" lon="0.3083">
        <ele>1038.4</ele>
        <time>2026-07-08T07:51:18Z</time>
      </trkpt>
      <trkpt lat="43.00936" lon="0.30829">
        <ele>1038.4</ele>
        <time>2026-07-08T07:51:19Z</time>
      </trkpt>
      <trkpt lat="43.00936" lon="0.30828">
        <ele>1038.4</ele>
        <time>2026-07-08T07:51:19Z</time>
      </trkpt>
      <trkpt lat="43.00936" lon="0.30828">
        <ele>1038.4</ele>
        <time>2026-07-08T07:51:20Z</time>
      </trkpt>
      <trkpt lat="43.00935" lon="0.30827">
        <ele>1038.4</ele>
        <time>2026-07-08T07:51:20Z</time>
      </trkpt>
      <trkpt lat="43.00935" lon="0.30826">
        <ele>1038.4</ele>
        <time>2026-07-08T07:51:21Z</time>
      </trkpt>
      <trkpt lat="43.00935" lon="0.30824">
        <ele>1038.4</ele>
        <time>2026-07-08T07:51:22Z</time>
      </trkpt>
      <trkpt lat="43.00934" lon="0.30823">
        <ele>1038.4</ele>
        <time>2026-07-08T07:51:23Z</time>
      </trkpt>
      <trkpt lat="43.00933" lon="0.30822">
        <ele>1038.4</ele>
        <time>2026-07-08T07:51:24Z</time>
      </trkpt>
      <trkpt lat="43.00932" lon="0.3082">
        <ele>1038.4</ele>
        <time>2026-07-08T07:51:25Z</time>
      </trkpt>
      <trkpt lat="43.00931" lon="0.3082">
        <ele>1038.4</ele>
        <time>2026-07-08T07:51:25Z</time>
      </trkpt>
      <trkpt lat="43.00931" lon="0.30819">
        <ele>1038.4</ele>
        <time>2026-07-08T07:51:26Z</time>
      </trkpt>
      <trkpt lat="43.00929" lon="0.30818">
        <ele>1038.4</ele>
        <time>2026-07-08T07:51:27Z</time>
      </trkpt>
      <trkpt lat="43.00928" lon="0.30817">
        <ele>1038.4</ele>
        <time>2026-07-08T07:51:28Z</time>
      </trkpt>
      <trkpt lat="43.00927" lon="0.30817">
        <ele>1038.4</ele>
        <time>2026-07-08T07:51:29Z</time>
      </trkpt>
      <trkpt lat="43.00927" lon="0.30816">
        <ele>1038.4</ele>
        <time>2026-07-08T07:51:29Z</time>
      </trkpt>
      <trkpt lat="43.00926" lon="0.30815">
        <ele>1038.4</ele>
        <time>2026-07-08T07:51:30Z</time>
      </trkpt>
      <trkpt lat="43.00926" lon="0.30815">
        <ele>1038.4</ele>
        <time>2026-07-08T07:51:30Z</time>
      </trkpt>
      <trkpt lat="43.00925" lon="0.30814">
        <ele>1038.4</ele>
        <time>2026-07-08T07:51:31Z</time>
      </trkpt>
      <trkpt lat="43.00924" lon="0.30813">
        <ele>1038.4</ele>
        <time>2026-07-08T07:51:32Z</time>
      </trkpt>
      <trkpt lat="43.00923" lon="0.30812">
        <ele>1037.4</ele>
        <time>2026-07-08T07:51:32Z</time>
      </trkpt>
      <trkpt lat="43.00923" lon="0.30812">
        <ele>1037.4</ele>
        <time>2026-07-08T07:51:33Z</time>
      </trkpt>
      <trkpt lat="43.00922" lon="0.30811">
        <ele>1037.4</ele>
        <time>2026-07-08T07:51:34Z</time>
      </trkpt>
      <trkpt lat="43.00922" lon="0.3081">
        <ele>1037.4</ele>
        <time>2026-07-08T07:51:34Z</time>
      </trkpt>
      <trkpt lat="43.00921" lon="0.3081">
        <ele>1037.4</ele>
        <time>2026-07-08T07:51:35Z</time>
      </trkpt>
      <trkpt lat="43.0092" lon="0.30808">
        <ele>1038.4</ele>
        <time>2026-07-08T07:51:36Z</time>
      </trkpt>
      <trkpt lat="43.00919" lon="0.30807">
        <ele>1038.4</ele>
        <time>2026-07-08T07:51:37Z</time>
      </trkpt>
      <trkpt lat="43.00918" lon="0.30806">
        <ele>1038.4</ele>
        <time>2026-07-08T07:51:38Z</time>
      </trkpt>
      <trkpt lat="43.00917" lon="0.30805">
        <ele>1038.4</ele>
        <time>2026-07-08T07:51:39Z</time>
      </trkpt>
      <trkpt lat="43.00916" lon="0.30804">
        <ele>1038.4</ele>
        <time>2026-07-08T07:51:40Z</time>
      </trkpt>
      <trkpt lat="43.00916" lon="0.30803">
        <ele>1038.4</ele>
        <time>2026-07-08T07:51:41Z</time>
      </trkpt>
      <trkpt lat="43.00915" lon="0.30802">
        <ele>1038.4</ele>
        <time>2026-07-08T07:51:41Z</time>
      </trkpt>
      <trkpt lat="43.00915" lon="0.30802">
        <ele>1038.4</ele>
        <time>2026-07-08T07:51:42Z</time>
      </trkpt>
      <trkpt lat="43.00914" lon="0.30801">
        <ele>1037.4</ele>
        <time>2026-07-08T07:51:42Z</time>
      </trkpt>
      <trkpt lat="43.00914" lon="0.308">
        <ele>1037.4</ele>
        <time>2026-07-08T07:51:43Z</time>
      </trkpt>
      <trkpt lat="43.00913" lon="0.30799">
        <ele>1037.4</ele>
        <time>2026-07-08T07:51:43Z</time>
      </trkpt>
      <trkpt lat="43.00913" lon="0.30799">
        <ele>1037.4</ele>
        <time>2026-07-08T07:51:44Z</time>
      </trkpt>
      <trkpt lat="43.00912" lon="0.30798">
        <ele>1037.4</ele>
        <time>2026-07-08T07:51:45Z</time>
      </trkpt>
      <trkpt lat="43.00911" lon="0.30797">
        <ele>1037.4</ele>
        <time>2026-07-08T07:51:45Z</time>
      </trkpt>
      <trkpt lat="43.00911" lon="0.30796">
        <ele>1037.4</ele>
        <time>2026-07-08T07:51:46Z</time>
      </trkpt>
      <trkpt lat="43.0091" lon="0.30796">
        <ele>1036.4</ele>
        <time>2026-07-08T07:51:47Z</time>
      </trkpt>
      <trkpt lat="43.00909" lon="0.30795">
        <ele>1037.4</ele>
        <time>2026-07-08T07:51:48Z</time>
      </trkpt>
      <trkpt lat="43.00909" lon="0.30794">
        <ele>1037.4</ele>
        <time>2026-07-08T07:51:48Z</time>
      </trkpt>
      <trkpt lat="43.00908" lon="0.30794">
        <ele>1037.4</ele>
        <time>2026-07-08T07:51:49Z</time>
      </trkpt>
      <trkpt lat="43.00907" lon="0.30793">
        <ele>1037.4</ele>
        <time>2026-07-08T07:51:50Z</time>
      </trkpt>
      <trkpt lat="43.00906" lon="0.30793">
        <ele>1037.4</ele>
        <time>2026-07-08T07:51:50Z</time>
      </trkpt>
      <trkpt lat="43.00906" lon="0.30792">
        <ele>1037.4</ele>
        <time>2026-07-08T07:51:51Z</time>
      </trkpt>
      <trkpt lat="43.00904" lon="0.30792">
        <ele>1037.4</ele>
        <time>2026-07-08T07:51:52Z</time>
      </trkpt>
      <trkpt lat="43.00903" lon="0.30791">
        <ele>1037.4</ele>
        <time>2026-07-08T07:51:53Z</time>
      </trkpt>
      <trkpt lat="43.00902" lon="0.3079">
        <ele>1036.4</ele>
        <time>2026-07-08T07:51:54Z</time>
      </trkpt>
      <trkpt lat="43.00902" lon="0.30789">
        <ele>1036.4</ele>
        <time>2026-07-08T07:51:55Z</time>
      </trkpt>
      <trkpt lat="43.00901" lon="0.30789">
        <ele>1036.4</ele>
        <time>2026-07-08T07:51:55Z</time>
      </trkpt>
      <trkpt lat="43.00901" lon="0.30788">
        <ele>1036.4</ele>
        <time>2026-07-08T07:51:56Z</time>
      </trkpt>
      <trkpt lat="43.009" lon="0.30787">
        <ele>1036.4</ele>
        <time>2026-07-08T07:51:56Z</time>
      </trkpt>
      <trkpt lat="43.00899" lon="0.30786">
        <ele>1036.4</ele>
        <time>2026-07-08T07:51:57Z</time>
      </trkpt>
      <trkpt lat="43.00898" lon="0.30786">
        <ele>1036.4</ele>
        <time>2026-07-08T07:51:58Z</time>
      </trkpt>
      <trkpt lat="43.00898" lon="0.30785">
        <ele>1036.4</ele>
        <time>2026-07-08T07:51:58Z</time>
      </trkpt>
      <trkpt lat="43.00897" lon="0.30784">
        <ele>1035.4</ele>
        <time>2026-07-08T07:51:59Z</time>
      </trkpt>
      <trkpt lat="43.00897" lon="0.30783">
        <ele>1035.4</ele>
        <time>2026-07-08T07:52:00Z</time>
      </trkpt>
      <trkpt lat="43.00897" lon="0.30782">
        <ele>1036.4</ele>
        <time>2026-07-08T07:52:00Z</time>
      </trkpt>
      <trkpt lat="43.00897" lon="0.30781">
        <ele>1036.4</ele>
        <time>2026-07-08T07:52:01Z</time>
      </trkpt>
      <trkpt lat="43.00896" lon="0.30781">
        <ele>1036.4</ele>
        <time>2026-07-08T07:52:01Z</time>
      </trkpt>
      <trkpt lat="43.00896" lon="0.3078">
        <ele>1036.4</ele>
        <time>2026-07-08T07:52:02Z</time>
      </trkpt>
      <trkpt lat="43.00895" lon="0.30778">
        <ele>1036.4</ele>
        <time>2026-07-08T07:52:03Z</time>
      </trkpt>
      <trkpt lat="43.00894" lon="0.30778">
        <ele>1036.4</ele>
        <time>2026-07-08T07:52:03Z</time>
      </trkpt>
      <trkpt lat="43.00894" lon="0.30777">
        <ele>1036.4</ele>
        <time>2026-07-08T07:52:04Z</time>
      </trkpt>
      <trkpt lat="43.00894" lon="0.30776">
        <ele>1036.4</ele>
        <time>2026-07-08T07:52:04Z</time>
      </trkpt>
      <trkpt lat="43.00893" lon="0.30776">
        <ele>1036.4</ele>
        <time>2026-07-08T07:52:05Z</time>
      </trkpt>
      <trkpt lat="43.00893" lon="0.30775">
        <ele>1036.4</ele>
        <time>2026-07-08T07:52:05Z</time>
      </trkpt>
      <trkpt lat="43.00892" lon="0.30775">
        <ele>1036.4</ele>
        <time>2026-07-08T07:52:06Z</time>
      </trkpt>
      <trkpt lat="43.00892" lon="0.30774">
        <ele>1036.4</ele>
        <time>2026-07-08T07:52:07Z</time>
      </trkpt>
      <trkpt lat="43.00892" lon="0.30774">
        <ele>1036.4</ele>
        <time>2026-07-08T07:52:07Z</time>
      </trkpt>
      <trkpt lat="43.00891" lon="0.30773">
        <ele>1036.4</ele>
        <time>2026-07-08T07:52:08Z</time>
      </trkpt>
      <trkpt lat="43.00891" lon="0.30773">
        <ele>1035.4</ele>
        <time>2026-07-08T07:52:08Z</time>
      </trkpt>
      <trkpt lat="43.0089" lon="0.30772">
        <ele>1036.4</ele>
        <time>2026-07-08T07:52:09Z</time>
      </trkpt>
      <trkpt lat="43.00889" lon="0.30772">
        <ele>1036.4</ele>
        <time>2026-07-08T07:52:10Z</time>
      </trkpt>
      <trkpt lat="43.00889" lon="0.30771">
        <ele>1035.4</ele>
        <time>2026-07-08T07:52:10Z</time>
      </trkpt>
      <trkpt lat="43.00888" lon="0.30771">
        <ele>1035.4</ele>
        <time>2026-07-08T07:52:11Z</time>
      </trkpt>
      <trkpt lat="43.00888" lon="0.3077">
        <ele>1035.4</ele>
        <time>2026-07-08T07:52:12Z</time>
      </trkpt>
      <trkpt lat="43.00887" lon="0.3077">
        <ele>1034.4</ele>
        <time>2026-07-08T07:52:12Z</time>
      </trkpt>
      <trkpt lat="43.00887" lon="0.30769">
        <ele>1034.4</ele>
        <time>2026-07-08T07:52:13Z</time>
      </trkpt>
      <trkpt lat="43.00886" lon="0.30767">
        <ele>1034.4</ele>
        <time>2026-07-08T07:52:14Z</time>
      </trkpt>
      <trkpt lat="43.00886" lon="0.30767">
        <ele>1033.4</ele>
        <time>2026-07-08T07:52:14Z</time>
      </trkpt>
      <trkpt lat="43.00885" lon="0.30766">
        <ele>1033.4</ele>
        <time>2026-07-08T07:52:15Z</time>
      </trkpt>
      <trkpt lat="43.00885" lon="0.30764">
        <ele>1033.4</ele>
        <time>2026-07-08T07:52:16Z</time>
      </trkpt>
      <trkpt lat="43.00884" lon="0.30762">
        <ele>1033.4</ele>
        <time>2026-07-08T07:52:17Z</time>
      </trkpt>
      <trkpt lat="43.00884" lon="0.30761">
        <ele>1033.4</ele>
        <time>2026-07-08T07:52:17Z</time>
      </trkpt>
      <trkpt lat="43.00883" lon="0.30761">
        <ele>1033.4</ele>
        <time>2026-07-08T07:52:18Z</time>
      </trkpt>
      <trkpt lat="43.00883" lon="0.3076">
        <ele>1033.4</ele>
        <time>2026-07-08T07:52:19Z</time>
      </trkpt>
      <trkpt lat="43.00882" lon="0.3076">
        <ele>1032.4</ele>
        <time>2026-07-08T07:52:19Z</time>
      </trkpt>
      <trkpt lat="43.00882" lon="0.30759">
        <ele>1032.4</ele>
        <time>2026-07-08T07:52:20Z</time>
      </trkpt>
      <trkpt lat="43.00881" lon="0.30759">
        <ele>1032.4</ele>
        <time>2026-07-08T07:52:20Z</time>
      </trkpt>
      <trkpt lat="43.00881" lon="0.30758">
        <ele>1032.4</ele>
        <time>2026-07-08T07:52:21Z</time>
      </trkpt>
      <trkpt lat="43.0088" lon="0.30758">
        <ele>1032.4</ele>
        <time>2026-07-08T07:52:21Z</time>
      </trkpt>
      <trkpt lat="43.0088" lon="0.30757">
        <ele>1032.4</ele>
        <time>2026-07-08T07:52:22Z</time>
      </trkpt>
      <trkpt lat="43.00879" lon="0.30756">
        <ele>1032.4</ele>
        <time>2026-07-08T07:52:23Z</time>
      </trkpt>
      <trkpt lat="43.00879" lon="0.30755">
        <ele>1032.4</ele>
        <time>2026-07-08T07:52:24Z</time>
      </trkpt>
      <trkpt lat="43.00879" lon="0.30755">
        <ele>1032.4</ele>
        <time>2026-07-08T07:52:24Z</time>
      </trkpt>
      <trkpt lat="43.00878" lon="0.30754">
        <ele>1032.4</ele>
        <time>2026-07-08T07:52:25Z</time>
      </trkpt>
      <trkpt lat="43.00878" lon="0.30753">
        <ele>1032.4</ele>
        <time>2026-07-08T07:52:26Z</time>
      </trkpt>
      <trkpt lat="43.00877" lon="0.30752">
        <ele>1032.4</ele>
        <time>2026-07-08T07:52:26Z</time>
      </trkpt>
      <trkpt lat="43.00877" lon="0.30752">
        <ele>1032.4</ele>
        <time>2026-07-08T07:52:27Z</time>
      </trkpt>
      <trkpt lat="43.00876" lon="0.30751">
        <ele>1032.4</ele>
        <time>2026-07-08T07:52:27Z</time>
      </trkpt>
      <trkpt lat="43.00876" lon="0.3075">
        <ele>1032.4</ele>
        <time>2026-07-08T07:52:28Z</time>
      </trkpt>
      <trkpt lat="43.00876" lon="0.3075">
        <ele>1032.4</ele>
        <time>2026-07-08T07:52:28Z</time>
      </trkpt>
      <trkpt lat="43.00875" lon="0.30749">
        <ele>1032.4</ele>
        <time>2026-07-08T07:52:29Z</time>
      </trkpt>
      <trkpt lat="43.00875" lon="0.30748">
        <ele>1031.4</ele>
        <time>2026-07-08T07:52:30Z</time>
      </trkpt>
      <trkpt lat="43.00874" lon="0.30748">
        <ele>1031.4</ele>
        <time>2026-07-08T07:52:30Z</time>
      </trkpt>
      <trkpt lat="43.00874" lon="0.30747">
        <ele>1031.4</ele>
        <time>2026-07-08T07:52:31Z</time>
      </trkpt>
      <trkpt lat="43.00874" lon="0.30746">
        <ele>1030.4</ele>
        <time>2026-07-08T07:52:31Z</time>
      </trkpt>
      <trkpt lat="43.00873" lon="0.30746">
        <ele>1030.4</ele>
        <time>2026-07-08T07:52:32Z</time>
      </trkpt>
      <trkpt lat="43.00873" lon="0.30745">
        <ele>1030.4</ele>
        <time>2026-07-08T07:52:32Z</time>
      </trkpt>
      <trkpt lat="43.00873" lon="0.30744">
        <ele>1030.4</ele>
        <time>2026-07-08T07:52:33Z</time>
      </trkpt>
      <trkpt lat="43.00872" lon="0.30744">
        <ele>1030.4</ele>
        <time>2026-07-08T07:52:33Z</time>
      </trkpt>
      <trkpt lat="43.00872" lon="0.30743">
        <ele>1030.4</ele>
        <time>2026-07-08T07:52:34Z</time>
      </trkpt>
      <trkpt lat="43.00872" lon="0.30742">
        <ele>1030.4</ele>
        <time>2026-07-08T07:52:34Z</time>
      </trkpt>
      <trkpt lat="43.00871" lon="0.30742">
        <ele>1030.4</ele>
        <time>2026-07-08T07:52:35Z</time>
      </trkpt>
      <trkpt lat="43.00871" lon="0.30741">
        <ele>1031.4</ele>
        <time>2026-07-08T07:52:36Z</time>
      </trkpt>
      <trkpt lat="43.00871" lon="0.30741">
        <ele>1031.4</ele>
        <time>2026-07-08T07:52:36Z</time>
      </trkpt>
      <trkpt lat="43.0087" lon="0.3074">
        <ele>1031.4</ele>
        <time>2026-07-08T07:52:37Z</time>
      </trkpt>
      <trkpt lat="43.0087" lon="0.3074">
        <ele>1030.4</ele>
        <time>2026-07-08T07:52:37Z</time>
      </trkpt>
      <trkpt lat="43.00869" lon="0.30739">
        <ele>1030.4</ele>
        <time>2026-07-08T07:52:38Z</time>
      </trkpt>
      <trkpt lat="43.00868" lon="0.30738">
        <ele>1030.4</ele>
        <time>2026-07-08T07:52:38Z</time>
      </trkpt>
      <trkpt lat="43.00868" lon="0.30738">
        <ele>1030.4</ele>
        <time>2026-07-08T07:52:39Z</time>
      </trkpt>
      <trkpt lat="43.00868" lon="0.30738">
        <ele>1030.4</ele>
        <time>2026-07-08T07:52:39Z</time>
      </trkpt>
      <trkpt lat="43.00867" lon="0.30737">
        <ele>1030.4</ele>
        <time>2026-07-08T07:52:40Z</time>
      </trkpt>
      <trkpt lat="43.00867" lon="0.30737">
        <ele>1030.4</ele>
        <time>2026-07-08T07:52:40Z</time>
      </trkpt>
      <trkpt lat="43.00866" lon="0.30736">
        <ele>1030.4</ele>
        <time>2026-07-08T07:52:41Z</time>
      </trkpt>
      <trkpt lat="43.00866" lon="0.30735">
        <ele>1030.4</ele>
        <time>2026-07-08T07:52:41Z</time>
      </trkpt>
      <trkpt lat="43.00866" lon="0.30735">
        <ele>1030.4</ele>
        <time>2026-07-08T07:52:42Z</time>
      </trkpt>
      <trkpt lat="43.00865" lon="0.30734">
        <ele>1030.4</ele>
        <time>2026-07-08T07:52:43Z</time>
      </trkpt>
      <trkpt lat="43.00865" lon="0.30733">
        <ele>1030.4</ele>
        <time>2026-07-08T07:52:44Z</time>
      </trkpt>
      <trkpt lat="43.00865" lon="0.30732">
        <ele>1029.4</ele>
        <time>2026-07-08T07:52:44Z</time>
      </trkpt>
      <trkpt lat="43.00864" lon="0.30731">
        <ele>1029.4</ele>
        <time>2026-07-08T07:52:45Z</time>
      </trkpt>
      <trkpt lat="43.00864" lon="0.30731">
        <ele>1030.4</ele>
        <time>2026-07-08T07:52:45Z</time>
      </trkpt>
      <trkpt lat="43.00863" lon="0.3073">
        <ele>1029.4</ele>
        <time>2026-07-08T07:52:46Z</time>
      </trkpt>
      <trkpt lat="43.00863" lon="0.30729">
        <ele>1029.4</ele>
        <time>2026-07-08T07:52:47Z</time>
      </trkpt>
      <trkpt lat="43.00862" lon="0.30728">
        <ele>1029.4</ele>
        <time>2026-07-08T07:52:47Z</time>
      </trkpt>
      <trkpt lat="43.00862" lon="0.30727">
        <ele>1028.4</ele>
        <time>2026-07-08T07:52:48Z</time>
      </trkpt>
      <trkpt lat="43.00861" lon="0.30727">
        <ele>1028.4</ele>
        <time>2026-07-08T07:52:49Z</time>
      </trkpt>
      <trkpt lat="43.00861" lon="0.30726">
        <ele>1029.4</ele>
        <time>2026-07-08T07:52:49Z</time>
      </trkpt>
      <trkpt lat="43.0086" lon="0.30725">
        <ele>1029.4</ele>
        <time>2026-07-08T07:52:50Z</time>
      </trkpt>
      <trkpt lat="43.0086" lon="0.30725">
        <ele>1028.4</ele>
        <time>2026-07-08T07:52:51Z</time>
      </trkpt>
      <trkpt lat="43.00859" lon="0.30724">
        <ele>1029.4</ele>
        <time>2026-07-08T07:52:52Z</time>
      </trkpt>
      <trkpt lat="43.00858" lon="0.30723">
        <ele>1028.4</ele>
        <time>2026-07-08T07:52:52Z</time>
      </trkpt>
      <trkpt lat="43.00858" lon="0.30722">
        <ele>1028.4</ele>
        <time>2026-07-08T07:52:53Z</time>
      </trkpt>
      <trkpt lat="43.00857" lon="0.3072">
        <ele>1028.4</ele>
        <time>2026-07-08T07:52:54Z</time>
      </trkpt>
      <trkpt lat="43.00856" lon="0.30719">
        <ele>1029.4</ele>
        <time>2026-07-08T07:52:55Z</time>
      </trkpt>
      <trkpt lat="43.00856" lon="0.30719">
        <ele>1029.4</ele>
        <time>2026-07-08T07:52:56Z</time>
      </trkpt>
      <trkpt lat="43.00855" lon="0.30718">
        <ele>1029.4</ele>
        <time>2026-07-08T07:52:56Z</time>
      </trkpt>
      <trkpt lat="43.00855" lon="0.30718">
        <ele>1029.4</ele>
        <time>2026-07-08T07:52:57Z</time>
      </trkpt>
      <trkpt lat="43.00854" lon="0.30717">
        <ele>1029.4</ele>
        <time>2026-07-08T07:52:57Z</time>
      </trkpt>
      <trkpt lat="43.00854" lon="0.30716">
        <ele>1029.4</ele>
        <time>2026-07-08T07:52:58Z</time>
      </trkpt>
      <trkpt lat="43.00853" lon="0.30716">
        <ele>1029.4</ele>
        <time>2026-07-08T07:52:58Z</time>
      </trkpt>
      <trkpt lat="43.00853" lon="0.30715">
        <ele>1029.4</ele>
        <time>2026-07-08T07:52:59Z</time>
      </trkpt>
      <trkpt lat="43.00852" lon="0.30714">
        <ele>1029.4</ele>
        <time>2026-07-08T07:53:00Z</time>
      </trkpt>
      <trkpt lat="43.00851" lon="0.30713">
        <ele>1029.4</ele>
        <time>2026-07-08T07:53:01Z</time>
      </trkpt>
      <trkpt lat="43.0085" lon="0.30713">
        <ele>1029.4</ele>
        <time>2026-07-08T07:53:01Z</time>
      </trkpt>
      <trkpt lat="43.00849" lon="0.30713">
        <ele>1029.4</ele>
        <time>2026-07-08T07:53:02Z</time>
      </trkpt>
      <trkpt lat="43.00849" lon="0.30713">
        <ele>1029.4</ele>
        <time>2026-07-08T07:53:03Z</time>
      </trkpt>
      <trkpt lat="43.00847" lon="0.30712">
        <ele>1028.4</ele>
        <time>2026-07-08T07:53:04Z</time>
      </trkpt>
      <trkpt lat="43.00846" lon="0.30711">
        <ele>1028.4</ele>
        <time>2026-07-08T07:53:05Z</time>
      </trkpt>
      <trkpt lat="43.00845" lon="0.3071">
        <ele>1028.4</ele>
        <time>2026-07-08T07:53:06Z</time>
      </trkpt>
      <trkpt lat="43.00845" lon="0.30709">
        <ele>1028.4</ele>
        <time>2026-07-08T07:53:07Z</time>
      </trkpt>
      <trkpt lat="43.00844" lon="0.30708">
        <ele>1028.4</ele>
        <time>2026-07-08T07:53:07Z</time>
      </trkpt>
      <trkpt lat="43.00844" lon="0.30708">
        <ele>1028.4</ele>
        <time>2026-07-08T07:53:08Z</time>
      </trkpt>
      <trkpt lat="43.00843" lon="0.30707">
        <ele>1027.4</ele>
        <time>2026-07-08T07:53:09Z</time>
      </trkpt>
      <trkpt lat="43.00843" lon="0.30706">
        <ele>1027.4</ele>
        <time>2026-07-08T07:53:09Z</time>
      </trkpt>
      <trkpt lat="43.00842" lon="0.30705">
        <ele>1027.4</ele>
        <time>2026-07-08T07:53:10Z</time>
      </trkpt>
      <trkpt lat="43.00841" lon="0.30705">
        <ele>1027.4</ele>
        <time>2026-07-08T07:53:10Z</time>
      </trkpt>
      <trkpt lat="43.00841" lon="0.30704">
        <ele>1026.4</ele>
        <time>2026-07-08T07:53:11Z</time>
      </trkpt>
      <trkpt lat="43.0084" lon="0.30703">
        <ele>1026.4</ele>
        <time>2026-07-08T07:53:12Z</time>
      </trkpt>
      <trkpt lat="43.00839" lon="0.30702">
        <ele>1026.4</ele>
        <time>2026-07-08T07:53:12Z</time>
      </trkpt>
      <trkpt lat="43.00838" lon="0.30702">
        <ele>1027.4</ele>
        <time>2026-07-08T07:53:13Z</time>
      </trkpt>
      <trkpt lat="43.00838" lon="0.30701">
        <ele>1027.4</ele>
        <time>2026-07-08T07:53:14Z</time>
      </trkpt>
      <trkpt lat="43.00837" lon="0.30701">
        <ele>1026.4</ele>
        <time>2026-07-08T07:53:14Z</time>
      </trkpt>
      <trkpt lat="43.00837" lon="0.307">
        <ele>1026.4</ele>
        <time>2026-07-08T07:53:15Z</time>
      </trkpt>
      <trkpt lat="43.00836" lon="0.307">
        <ele>1026.4</ele>
        <time>2026-07-08T07:53:15Z</time>
      </trkpt>
      <trkpt lat="43.00836" lon="0.30699">
        <ele>1026.4</ele>
        <time>2026-07-08T07:53:16Z</time>
      </trkpt>
      <trkpt lat="43.00835" lon="0.30698">
        <ele>1026.4</ele>
        <time>2026-07-08T07:53:16Z</time>
      </trkpt>
      <trkpt lat="43.00835" lon="0.30697">
        <ele>1026.4</ele>
        <time>2026-07-08T07:53:17Z</time>
      </trkpt>
      <trkpt lat="43.00834" lon="0.30696">
        <ele>1026.4</ele>
        <time>2026-07-08T07:53:18Z</time>
      </trkpt>
      <trkpt lat="43.00834" lon="0.30695">
        <ele>1026.4</ele>
        <time>2026-07-08T07:53:18Z</time>
      </trkpt>
      <trkpt lat="43.00833" lon="0.30695">
        <ele>1026.4</ele>
        <time>2026-07-08T07:53:19Z</time>
      </trkpt>
      <trkpt lat="43.00833" lon="0.30693">
        <ele>1026.4</ele>
        <time>2026-07-08T07:53:20Z</time>
      </trkpt>
      <trkpt lat="43.00833" lon="0.30693">
        <ele>1026.4</ele>
        <time>2026-07-08T07:53:20Z</time>
      </trkpt>
      <trkpt lat="43.00832" lon="0.30692">
        <ele>1025.4</ele>
        <time>2026-07-08T07:53:21Z</time>
      </trkpt>
      <trkpt lat="43.00832" lon="0.30691">
        <ele>1025.4</ele>
        <time>2026-07-08T07:53:22Z</time>
      </trkpt>
      <trkpt lat="43.00831" lon="0.3069">
        <ele>1025.4</ele>
        <time>2026-07-08T07:53:22Z</time>
      </trkpt>
      <trkpt lat="43.00831" lon="0.30689">
        <ele>1025.4</ele>
        <time>2026-07-08T07:53:23Z</time>
      </trkpt>
      <trkpt lat="43.00831" lon="0.30689">
        <ele>1025.4</ele>
        <time>2026-07-08T07:53:23Z</time>
      </trkpt>
      <trkpt lat="43.0083" lon="0.30688">
        <ele>1025.4</ele>
        <time>2026-07-08T07:53:24Z</time>
      </trkpt>
      <trkpt lat="43.0083" lon="0.30687">
        <ele>1025.4</ele>
        <time>2026-07-08T07:53:25Z</time>
      </trkpt>
      <trkpt lat="43.00829" lon="0.30686">
        <ele>1025.4</ele>
        <time>2026-07-08T07:53:26Z</time>
      </trkpt>
      <trkpt lat="43.00829" lon="0.30686">
        <ele>1025.4</ele>
        <time>2026-07-08T07:53:26Z</time>
      </trkpt>
      <trkpt lat="43.00828" lon="0.30685">
        <ele>1025.4</ele>
        <time>2026-07-08T07:53:27Z</time>
      </trkpt>
      <trkpt lat="43.00827" lon="0.30684">
        <ele>1024.4</ele>
        <time>2026-07-08T07:53:28Z</time>
      </trkpt>
      <trkpt lat="43.00826" lon="0.30684">
        <ele>1024.4</ele>
        <time>2026-07-08T07:53:29Z</time>
      </trkpt>
      <trkpt lat="43.00825" lon="0.30684">
        <ele>1024.4</ele>
        <time>2026-07-08T07:53:29Z</time>
      </trkpt>
      <trkpt lat="43.00824" lon="0.30683">
        <ele>1025.4</ele>
        <time>2026-07-08T07:53:30Z</time>
      </trkpt>
      <trkpt lat="43.00824" lon="0.30683">
        <ele>1025.4</ele>
        <time>2026-07-08T07:53:31Z</time>
      </trkpt>
      <trkpt lat="43.00823" lon="0.30683">
        <ele>1025.4</ele>
        <time>2026-07-08T07:53:31Z</time>
      </trkpt>
      <trkpt lat="43.00823" lon="0.30682">
        <ele>1025.4</ele>
        <time>2026-07-08T07:53:32Z</time>
      </trkpt>
      <trkpt lat="43.00822" lon="0.30682">
        <ele>1025.4</ele>
        <time>2026-07-08T07:53:32Z</time>
      </trkpt>
      <trkpt lat="43.00821" lon="0.30681">
        <ele>1025.4</ele>
        <time>2026-07-08T07:53:33Z</time>
      </trkpt>
      <trkpt lat="43.00821" lon="0.30681">
        <ele>1025.4</ele>
        <time>2026-07-08T07:53:33Z</time>
      </trkpt>
      <trkpt lat="43.0082" lon="0.30681">
        <ele>1025.4</ele>
        <time>2026-07-08T07:53:34Z</time>
      </trkpt>
      <trkpt lat="43.0082" lon="0.3068">
        <ele>1026.4</ele>
        <time>2026-07-08T07:53:34Z</time>
      </trkpt>
      <trkpt lat="43.00819" lon="0.3068">
        <ele>1026.4</ele>
        <time>2026-07-08T07:53:35Z</time>
      </trkpt>
      <trkpt lat="43.00819" lon="0.30679">
        <ele>1026.4</ele>
        <time>2026-07-08T07:53:36Z</time>
      </trkpt>
      <trkpt lat="43.00818" lon="0.30679">
        <ele>1026.4</ele>
        <time>2026-07-08T07:53:36Z</time>
      </trkpt>
      <trkpt lat="43.00817" lon="0.30678">
        <ele>1026.4</ele>
        <time>2026-07-08T07:53:37Z</time>
      </trkpt>
      <trkpt lat="43.00816" lon="0.30677">
        <ele>1026.4</ele>
        <time>2026-07-08T07:53:38Z</time>
      </trkpt>
      <trkpt lat="43.00816" lon="0.30677">
        <ele>1025.4</ele>
        <time>2026-07-08T07:53:38Z</time>
      </trkpt>
      <trkpt lat="43.00815" lon="0.30676">
        <ele>1025.4</ele>
        <time>2026-07-08T07:53:39Z</time>
      </trkpt>
      <trkpt lat="43.00815" lon="0.30676">
        <ele>1026.4</ele>
        <time>2026-07-08T07:53:39Z</time>
      </trkpt>
      <trkpt lat="43.00814" lon="0.30676">
        <ele>1026.4</ele>
        <time>2026-07-08T07:53:40Z</time>
      </trkpt>
      <trkpt lat="43.00813" lon="0.30676">
        <ele>1026.4</ele>
        <time>2026-07-08T07:53:40Z</time>
      </trkpt>
      <trkpt lat="43.00813" lon="0.30675">
        <ele>1026.4</ele>
        <time>2026-07-08T07:53:41Z</time>
      </trkpt>
      <trkpt lat="43.00812" lon="0.30675">
        <ele>1026.4</ele>
        <time>2026-07-08T07:53:42Z</time>
      </trkpt>
      <trkpt lat="43.00811" lon="0.30675">
        <ele>1026.4</ele>
        <time>2026-07-08T07:53:42Z</time>
      </trkpt>
      <trkpt lat="43.0081" lon="0.30675">
        <ele>1026.4</ele>
        <time>2026-07-08T07:53:43Z</time>
      </trkpt>
      <trkpt lat="43.0081" lon="0.30676">
        <ele>1026.4</ele>
        <time>2026-07-08T07:53:43Z</time>
      </trkpt>
      <trkpt lat="43.00809" lon="0.30676">
        <ele>1026.4</ele>
        <time>2026-07-08T07:53:44Z</time>
      </trkpt>
      <trkpt lat="43.00808" lon="0.30676">
        <ele>1026.4</ele>
        <time>2026-07-08T07:53:44Z</time>
      </trkpt>
      <trkpt lat="43.00807" lon="0.30676">
        <ele>1026.4</ele>
        <time>2026-07-08T07:53:45Z</time>
      </trkpt>
      <trkpt lat="43.00807" lon="0.30675">
        <ele>1026.4</ele>
        <time>2026-07-08T07:53:46Z</time>
      </trkpt>
      <trkpt lat="43.00806" lon="0.30675">
        <ele>1026.4</ele>
        <time>2026-07-08T07:53:46Z</time>
      </trkpt>
      <trkpt lat="43.00805" lon="0.30675">
        <ele>1026.4</ele>
        <time>2026-07-08T07:53:47Z</time>
      </trkpt>
      <trkpt lat="43.00805" lon="0.30675">
        <ele>1025.4</ele>
        <time>2026-07-08T07:53:47Z</time>
      </trkpt>
      <trkpt lat="43.00804" lon="0.30675">
        <ele>1026.4</ele>
        <time>2026-07-08T07:53:48Z</time>
      </trkpt>
      <trkpt lat="43.00803" lon="0.30675">
        <ele>1026.4</ele>
        <time>2026-07-08T07:53:49Z</time>
      </trkpt>
      <trkpt lat="43.00803" lon="0.30675">
        <ele>1026.4</ele>
        <time>2026-07-08T07:53:49Z</time>
      </trkpt>
      <trkpt lat="43.00802" lon="0.30675">
        <ele>1026.4</ele>
        <time>2026-07-08T07:53:50Z</time>
      </trkpt>
      <trkpt lat="43.00801" lon="0.30675">
        <ele>1027.4</ele>
        <time>2026-07-08T07:53:50Z</time>
      </trkpt>
      <trkpt lat="43.00801" lon="0.30675">
        <ele>1027.4</ele>
        <time>2026-07-08T07:53:51Z</time>
      </trkpt>
      <trkpt lat="43.008" lon="0.30675">
        <ele>1027.4</ele>
        <time>2026-07-08T07:53:52Z</time>
      </trkpt>
      <trkpt lat="43.00799" lon="0.30675">
        <ele>1026.4</ele>
        <time>2026-07-08T07:53:52Z</time>
      </trkpt>
      <trkpt lat="43.00799" lon="0.30675">
        <ele>1026.4</ele>
        <time>2026-07-08T07:53:53Z</time>
      </trkpt>
      <trkpt lat="43.00798" lon="0.30676">
        <ele>1026.4</ele>
        <time>2026-07-08T07:53:53Z</time>
      </trkpt>
      <trkpt lat="43.00797" lon="0.30676">
        <ele>1026.4</ele>
        <time>2026-07-08T07:53:54Z</time>
      </trkpt>
      <trkpt lat="43.00797" lon="0.30676">
        <ele>1026.4</ele>
        <time>2026-07-08T07:53:55Z</time>
      </trkpt>
      <trkpt lat="43.00796" lon="0.30676">
        <ele>1026.4</ele>
        <time>2026-07-08T07:53:55Z</time>
      </trkpt>
      <trkpt lat="43.00795" lon="0.30676">
        <ele>1026.4</ele>
        <time>2026-07-08T07:53:56Z</time>
      </trkpt>
      <trkpt lat="43.00794" lon="0.30676">
        <ele>1027.4</ele>
        <time>2026-07-08T07:53:56Z</time>
      </trkpt>
      <trkpt lat="43.00794" lon="0.30676">
        <ele>1027.4</ele>
        <time>2026-07-08T07:53:57Z</time>
      </trkpt>
      <trkpt lat="43.00793" lon="0.30676">
        <ele>1027.4</ele>
        <time>2026-07-08T07:53:58Z</time>
      </trkpt>
      <trkpt lat="43.00792" lon="0.30676">
        <ele>1027.4</ele>
        <time>2026-07-08T07:53:58Z</time>
      </trkpt>
      <trkpt lat="43.00791" lon="0.30676">
        <ele>1027.4</ele>
        <time>2026-07-08T07:53:59Z</time>
      </trkpt>
      <trkpt lat="43.00791" lon="0.30676">
        <ele>1027.4</ele>
        <time>2026-07-08T07:53:59Z</time>
      </trkpt>
      <trkpt lat="43.0079" lon="0.30676">
        <ele>1027.4</ele>
        <time>2026-07-08T07:54:00Z</time>
      </trkpt>
      <trkpt lat="43.0079" lon="0.30676">
        <ele>1027.4</ele>
        <time>2026-07-08T07:54:01Z</time>
      </trkpt>
      <trkpt lat="43.00789" lon="0.30676">
        <ele>1027.4</ele>
        <time>2026-07-08T07:54:01Z</time>
      </trkpt>
      <trkpt lat="43.00789" lon="0.30676">
        <ele>1027.4</ele>
        <time>2026-07-08T07:54:02Z</time>
      </trkpt>
      <trkpt lat="43.00788" lon="0.30675">
        <ele>1027.4</ele>
        <time>2026-07-08T07:54:03Z</time>
      </trkpt>
      <trkpt lat="43.00788" lon="0.30675">
        <ele>1027.4</ele>
        <time>2026-07-08T07:54:03Z</time>
      </trkpt>
      <trkpt lat="43.00787" lon="0.30675">
        <ele>1027.4</ele>
        <time>2026-07-08T07:54:04Z</time>
      </trkpt>
      <trkpt lat="43.00786" lon="0.30675">
        <ele>1027.4</ele>
        <time>2026-07-08T07:54:05Z</time>
      </trkpt>
      <trkpt lat="43.00786" lon="0.30675">
        <ele>1027.4</ele>
        <time>2026-07-08T07:54:05Z</time>
      </trkpt>
      <trkpt lat="43.00785" lon="0.30675">
        <ele>1027.4</ele>
        <time>2026-07-08T07:54:06Z</time>
      </trkpt>
      <trkpt lat="43.00785" lon="0.30675">
        <ele>1027.4</ele>
        <time>2026-07-08T07:54:06Z</time>
      </trkpt>
      <trkpt lat="43.00784" lon="0.30675">
        <ele>1027.4</ele>
        <time>2026-07-08T07:54:07Z</time>
      </trkpt>
      <trkpt lat="43.00783" lon="0.30674">
        <ele>1027.4</ele>
        <time>2026-07-08T07:54:08Z</time>
      </trkpt>
      <trkpt lat="43.00783" lon="0.30674">
        <ele>1026.4</ele>
        <time>2026-07-08T07:54:08Z</time>
      </trkpt>
      <trkpt lat="43.00782" lon="0.30674">
        <ele>1026.4</ele>
        <time>2026-07-08T07:54:09Z</time>
      </trkpt>
      <trkpt lat="43.00782" lon="0.30674">
        <ele>1027.4</ele>
        <time>2026-07-08T07:54:10Z</time>
      </trkpt>
      <trkpt lat="43.00782" lon="0.30673">
        <ele>1027.4</ele>
        <time>2026-07-08T07:54:10Z</time>
      </trkpt>
      <trkpt lat="43.00781" lon="0.30673">
        <ele>1027.4</ele>
        <time>2026-07-08T07:54:11Z</time>
      </trkpt>
      <trkpt lat="43.00781" lon="0.30673">
        <ele>1027.4</ele>
        <time>2026-07-08T07:54:11Z</time>
      </trkpt>
      <trkpt lat="43.0078" lon="0.30672">
        <ele>1027.4</ele>
        <time>2026-07-08T07:54:12Z</time>
      </trkpt>
      <trkpt lat="43.0078" lon="0.30671">
        <ele>1027.4</ele>
        <time>2026-07-08T07:54:13Z</time>
      </trkpt>
      <trkpt lat="43.0078" lon="0.3067">
        <ele>1028.4</ele>
        <time>2026-07-08T07:54:13Z</time>
      </trkpt>
      <trkpt lat="43.00779" lon="0.3067">
        <ele>1028.4</ele>
        <time>2026-07-08T07:54:14Z</time>
      </trkpt>
      <trkpt lat="43.00779" lon="0.30669">
        <ele>1027.4</ele>
        <time>2026-07-08T07:54:15Z</time>
      </trkpt>
      <trkpt lat="43.00779" lon="0.30668">
        <ele>1027.4</ele>
        <time>2026-07-08T07:54:15Z</time>
      </trkpt>
      <trkpt lat="43.00778" lon="0.30667">
        <ele>1027.4</ele>
        <time>2026-07-08T07:54:16Z</time>
      </trkpt>
      <trkpt lat="43.00778" lon="0.30666">
        <ele>1027.4</ele>
        <time>2026-07-08T07:54:16Z</time>
      </trkpt>
      <trkpt lat="43.00778" lon="0.30665">
        <ele>1027.4</ele>
        <time>2026-07-08T07:54:17Z</time>
      </trkpt>
      <trkpt lat="43.00777" lon="0.30664">
        <ele>1027.4</ele>
        <time>2026-07-08T07:54:17Z</time>
      </trkpt>
      <trkpt lat="43.00777" lon="0.30664">
        <ele>1028.4</ele>
        <time>2026-07-08T07:54:18Z</time>
      </trkpt>
      <trkpt lat="43.00777" lon="0.30663">
        <ele>1028.4</ele>
        <time>2026-07-08T07:54:19Z</time>
      </trkpt>
      <trkpt lat="43.00776" lon="0.30662">
        <ele>1028.4</ele>
        <time>2026-07-08T07:54:19Z</time>
      </trkpt>
      <trkpt lat="43.00776" lon="0.30661">
        <ele>1028.4</ele>
        <time>2026-07-08T07:54:20Z</time>
      </trkpt>
      <trkpt lat="43.00775" lon="0.30661">
        <ele>1027.4</ele>
        <time>2026-07-08T07:54:20Z</time>
      </trkpt>
      <trkpt lat="43.00775" lon="0.3066">
        <ele>1027.4</ele>
        <time>2026-07-08T07:54:21Z</time>
      </trkpt>
      <trkpt lat="43.00775" lon="0.3066">
        <ele>1027.4</ele>
        <time>2026-07-08T07:54:22Z</time>
      </trkpt>
      <trkpt lat="43.00774" lon="0.30659">
        <ele>1027.4</ele>
        <time>2026-07-08T07:54:22Z</time>
      </trkpt>
      <trkpt lat="43.00774" lon="0.30659">
        <ele>1027.4</ele>
        <time>2026-07-08T07:54:23Z</time>
      </trkpt>
      <trkpt lat="43.00774" lon="0.30658">
        <ele>1027.4</ele>
        <time>2026-07-08T07:54:24Z</time>
      </trkpt>
      <trkpt lat="43.00774" lon="0.30657">
        <ele>1027.4</ele>
        <time>2026-07-08T07:54:24Z</time>
      </trkpt>
      <trkpt lat="43.00773" lon="0.30656">
        <ele>1027.4</ele>
        <time>2026-07-08T07:54:25Z</time>
      </trkpt>
      <trkpt lat="43.00773" lon="0.30655">
        <ele>1027.4</ele>
        <time>2026-07-08T07:54:25Z</time>
      </trkpt>
      <trkpt lat="43.00773" lon="0.30655">
        <ele>1027.4</ele>
        <time>2026-07-08T07:54:26Z</time>
      </trkpt>
      <trkpt lat="43.00773" lon="0.30654">
        <ele>1027.4</ele>
        <time>2026-07-08T07:54:27Z</time>
      </trkpt>
      <trkpt lat="43.00773" lon="0.30654">
        <ele>1026.4</ele>
        <time>2026-07-08T07:54:27Z</time>
      </trkpt>
      <trkpt lat="43.00772" lon="0.30653">
        <ele>1026.4</ele>
        <time>2026-07-08T07:54:28Z</time>
      </trkpt>
      <trkpt lat="43.00772" lon="0.30652">
        <ele>1026.4</ele>
        <time>2026-07-08T07:54:29Z</time>
      </trkpt>
      <trkpt lat="43.00772" lon="0.30651">
        <ele>1026.4</ele>
        <time>2026-07-08T07:54:29Z</time>
      </trkpt>
      <trkpt lat="43.00772" lon="0.30651">
        <ele>1026.4</ele>
        <time>2026-07-08T07:54:30Z</time>
      </trkpt>
      <trkpt lat="43.00771" lon="0.3065">
        <ele>1026.4</ele>
        <time>2026-07-08T07:54:30Z</time>
      </trkpt>
      <trkpt lat="43.00771" lon="0.30649">
        <ele>1025.4</ele>
        <time>2026-07-08T07:54:31Z</time>
      </trkpt>
      <trkpt lat="43.0077" lon="0.30649">
        <ele>1025.4</ele>
        <time>2026-07-08T07:54:32Z</time>
      </trkpt>
      <trkpt lat="43.0077" lon="0.30648">
        <ele>1025.4</ele>
        <time>2026-07-08T07:54:32Z</time>
      </trkpt>
      <trkpt lat="43.0077" lon="0.30647">
        <ele>1026.4</ele>
        <time>2026-07-08T07:54:33Z</time>
      </trkpt>
      <trkpt lat="43.00769" lon="0.30646">
        <ele>1026.4</ele>
        <time>2026-07-08T07:54:34Z</time>
      </trkpt>
      <trkpt lat="43.00769" lon="0.30646">
        <ele>1026.4</ele>
        <time>2026-07-08T07:54:35Z</time>
      </trkpt>
      <trkpt lat="43.00769" lon="0.30646">
        <ele>1026.4</ele>
        <time>2026-07-08T07:54:35Z</time>
      </trkpt>
      <trkpt lat="43.00768" lon="0.30645">
        <ele>1026.4</ele>
        <time>2026-07-08T07:54:36Z</time>
      </trkpt>
      <trkpt lat="43.00768" lon="0.30644">
        <ele>1026.4</ele>
        <time>2026-07-08T07:54:37Z</time>
      </trkpt>
      <trkpt lat="43.00767" lon="0.30644">
        <ele>1026.4</ele>
        <time>2026-07-08T07:54:37Z</time>
      </trkpt>
      <trkpt lat="43.00767" lon="0.30643">
        <ele>1026.4</ele>
        <time>2026-07-08T07:54:38Z</time>
      </trkpt>
      <trkpt lat="43.00767" lon="0.30642">
        <ele>1026.4</ele>
        <time>2026-07-08T07:54:39Z</time>
      </trkpt>
      <trkpt lat="43.00766" lon="0.30641">
        <ele>1027.4</ele>
        <time>2026-07-08T07:54:39Z</time>
      </trkpt>
      <trkpt lat="43.00766" lon="0.30641">
        <ele>1027.4</ele>
        <time>2026-07-08T07:54:40Z</time>
      </trkpt>
      <trkpt lat="43.00766" lon="0.3064">
        <ele>1027.4</ele>
        <time>2026-07-08T07:54:40Z</time>
      </trkpt>
      <trkpt lat="43.00765" lon="0.3064">
        <ele>1027.4</ele>
        <time>2026-07-08T07:54:41Z</time>
      </trkpt>
      <trkpt lat="43.00765" lon="0.3064">
        <ele>1027.4</ele>
        <time>2026-07-08T07:54:42Z</time>
      </trkpt>
      <trkpt lat="43.00765" lon="0.30639">
        <ele>1027.4</ele>
        <time>2026-07-08T07:54:42Z</time>
      </trkpt>
      <trkpt lat="43.00764" lon="0.30639">
        <ele>1028.4</ele>
        <time>2026-07-08T07:54:43Z</time>
      </trkpt>
      <trkpt lat="43.00764" lon="0.30638">
        <ele>1028.4</ele>
        <time>2026-07-08T07:54:44Z</time>
      </trkpt>
      <trkpt lat="43.00764" lon="0.30638">
        <ele>1029.4</ele>
        <time>2026-07-08T07:54:45Z</time>
      </trkpt>
      <trkpt lat="43.00763" lon="0.30637">
        <ele>1030.4</ele>
        <time>2026-07-08T07:54:45Z</time>
      </trkpt>
      <trkpt lat="43.00763" lon="0.30637">
        <ele>1030.4</ele>
        <time>2026-07-08T07:54:46Z</time>
      </trkpt>
      <trkpt lat="43.00763" lon="0.30636">
        <ele>1030.4</ele>
        <time>2026-07-08T07:54:47Z</time>
      </trkpt>
      <trkpt lat="43.00762" lon="0.30636">
        <ele>1030.4</ele>
        <time>2026-07-08T07:54:47Z</time>
      </trkpt>
      <trkpt lat="43.00762" lon="0.30636">
        <ele>1030.4</ele>
        <time>2026-07-08T07:54:48Z</time>
      </trkpt>
      <trkpt lat="43.00761" lon="0.30635">
        <ele>1031.4</ele>
        <time>2026-07-08T07:54:49Z</time>
      </trkpt>
      <trkpt lat="43.00761" lon="0.30635">
        <ele>1031.4</ele>
        <time>2026-07-08T07:54:49Z</time>
      </trkpt>
      <trkpt lat="43.0076" lon="0.30635">
        <ele>1031.4</ele>
        <time>2026-07-08T07:54:50Z</time>
      </trkpt>
      <trkpt lat="43.00759" lon="0.30634">
        <ele>1031.4</ele>
        <time>2026-07-08T07:54:51Z</time>
      </trkpt>
      <trkpt lat="43.00759" lon="0.30634">
        <ele>1031.4</ele>
        <time>2026-07-08T07:54:52Z</time>
      </trkpt>
      <trkpt lat="43.00758" lon="0.30634">
        <ele>1031.4</ele>
        <time>2026-07-08T07:54:52Z</time>
      </trkpt>
      <trkpt lat="43.00758" lon="0.30634">
        <ele>1031.4</ele>
        <time>2026-07-08T07:54:53Z</time>
      </trkpt>
      <trkpt lat="43.00757" lon="0.30634">
        <ele>1031.4</ele>
        <time>2026-07-08T07:54:54Z</time>
      </trkpt>
      <trkpt lat="43.00756" lon="0.30633">
        <ele>1032.4</ele>
        <time>2026-07-08T07:54:55Z</time>
      </trkpt>
      <trkpt lat="43.00755" lon="0.30633">
        <ele>1032.4</ele>
        <time>2026-07-08T07:54:56Z</time>
      </trkpt>
      <trkpt lat="43.00755" lon="0.30633">
        <ele>1031.4</ele>
        <time>2026-07-08T07:54:57Z</time>
      </trkpt>
      <trkpt lat="43.00755" lon="0.30633">
        <ele>1032.4</ele>
        <time>2026-07-08T07:54:58Z</time>
      </trkpt>
      <trkpt lat="43.00756" lon="0.30633">
        <ele>1032.4</ele>
        <time>2026-07-08T07:54:59Z</time>
      </trkpt>
      <trkpt lat="43.00756" lon="0.30633">
        <ele>1033.4</ele>
        <time>2026-07-08T07:55:00Z</time>
      </trkpt>
      <trkpt lat="43.00757" lon="0.30633">
        <ele>1033.4</ele>
        <time>2026-07-08T07:55:01Z</time>
      </trkpt>
      <trkpt lat="43.00757" lon="0.30633">
        <ele>1033.4</ele>
        <time>2026-07-08T07:55:02Z</time>
      </trkpt>
      <trkpt lat="43.00757" lon="0.30633">
        <ele>1033.4</ele>
        <time>2026-07-08T07:55:03Z</time>
      </trkpt>
      <trkpt lat="43.00757" lon="0.30634">
        <ele>1033.4</ele>
        <time>2026-07-08T07:55:04Z</time>
      </trkpt>
      <trkpt lat="43.00757" lon="0.30634">
        <ele>1033.4</ele>
        <time>2026-07-08T07:55:05Z</time>
      </trkpt>
      <trkpt lat="43.00757" lon="0.30635">
        <ele>1033.4</ele>
        <time>2026-07-08T07:55:06Z</time>
      </trkpt>
      <trkpt lat="43.00757" lon="0.30635">
        <ele>1033.4</ele>
        <time>2026-07-08T07:55:07Z</time>
      </trkpt>
      <trkpt lat="43.00757" lon="0.30636">
        <ele>1034.4</ele>
        <time>2026-07-08T07:55:08Z</time>
      </trkpt>
      <trkpt lat="43.00756" lon="0.30636">
        <ele>1034.4</ele>
        <time>2026-07-08T07:55:09Z</time>
      </trkpt>
      <trkpt lat="43.00757" lon="0.30636">
        <ele>1034.4</ele>
        <time>2026-07-08T07:55:10Z</time>
      </trkpt>
      <trkpt lat="43.00756" lon="0.30637">
        <ele>1036.4</ele>
        <time>2026-07-08T07:55:11Z</time>
      </trkpt>
      <trkpt lat="43.00756" lon="0.30637">
        <ele>1036.4</ele>
        <time>2026-07-08T07:55:12Z</time>
      </trkpt>
      <trkpt lat="43.00756" lon="0.30637">
        <ele>1037.4</ele>
        <time>2026-07-08T07:55:13Z</time>
      </trkpt>
      <trkpt lat="43.00756" lon="0.30637">
        <ele>1037.4</ele>
        <time>2026-07-08T07:55:14Z</time>
      </trkpt>
      <trkpt lat="43.00756" lon="0.30638">
        <ele>1037.4</ele>
        <time>2026-07-08T07:55:15Z</time>
      </trkpt>
      <trkpt lat="43.00756" lon="0.30638">
        <ele>1037.4</ele>
        <time>2026-07-08T07:55:16Z</time>
      </trkpt>
      <trkpt lat="43.00756" lon="0.30638">
        <ele>1037.4</ele>
        <time>2026-07-08T07:55:17Z</time>
      </trkpt>
      <trkpt lat="43.00756" lon="0.30638">
        <ele>1037.4</ele>
        <time>2026-07-08T07:55:17Z</time>
      </trkpt>
      <trkpt lat="43.00756" lon="0.30638">
        <ele>1037.4</ele>
        <time>2026-07-08T07:55:18Z</time>
      </trkpt>
      <trkpt lat="43.00755" lon="0.30638">
        <ele>1038.4</ele>
        <time>2026-07-08T07:55:19Z</time>
      </trkpt>
      <trkpt lat="43.00755" lon="0.30638">
        <ele>1038.4</ele>
        <time>2026-07-08T07:55:19Z</time>
      </trkpt>
      <trkpt lat="43.00755" lon="0.30638">
        <ele>1038.4</ele>
        <time>2026-07-08T07:55:20Z</time>
      </trkpt>
      <trkpt lat="43.00755" lon="0.30638">
        <ele>1038.4</ele>
        <time>2026-07-08T07:55:21Z</time>
      </trkpt>
      <trkpt lat="43.00754" lon="0.30638">
        <ele>1038.4</ele>
        <time>2026-07-08T07:55:22Z</time>
      </trkpt>
      <trkpt lat="43.00754" lon="0.30638">
        <ele>1038.4</ele>
        <time>2026-07-08T07:55:22Z</time>
      </trkpt>
      <trkpt lat="43.00753" lon="0.30636">
        <ele>1037.4</ele>
        <time>2026-07-08T07:55:23Z</time>
      </trkpt>
      <trkpt lat="43.00753" lon="0.30636">
        <ele>1036.4</ele>
        <time>2026-07-08T07:55:24Z</time>
      </trkpt>
      <trkpt lat="43.00753" lon="0.30636">
        <ele>1036.4</ele>
        <time>2026-07-08T07:55:25Z</time>
      </trkpt>
      <trkpt lat="43.00753" lon="0.30636">
        <ele>1036.4</ele>
        <time>2026-07-08T07:55:26Z</time>
      </trkpt>
      <trkpt lat="43.00753" lon="0.30636">
        <ele>1036.4</ele>
        <time>2026-07-08T07:55:27Z</time>
      </trkpt>
      <trkpt lat="43.00753" lon="0.30636">
        <ele>1036.4</ele>
        <time>2026-07-08T07:55:28Z</time>
      </trkpt>
      <trkpt lat="43.00753" lon="0.30636">
        <ele>1036.4</ele>
        <time>2026-07-08T07:55:29Z</time>
      </trkpt>
      <trkpt lat="43.00753" lon="0.30636">
        <ele>1036.4</ele>
        <time>2026-07-08T07:55:30Z</time>
      </trkpt>
      <trkpt lat="43.00751" lon="0.30635">
        <ele>1038.4</ele>
        <time>2026-07-08T07:55:31Z</time>
      </trkpt>
      <trkpt lat="43.0075" lon="0.30634">
        <ele>1038.4</ele>
        <time>2026-07-08T07:55:32Z</time>
      </trkpt>
      <trkpt lat="43.0075" lon="0.30635">
        <ele>1037.4</ele>
        <time>2026-07-08T07:55:33Z</time>
      </trkpt>
      <trkpt lat="43.00749" lon="0.30634">
        <ele>1037.4</ele>
        <time>2026-07-08T07:55:34Z</time>
      </trkpt>
      <trkpt lat="43.00748" lon="0.30633">
        <ele>1037.4</ele>
        <time>2026-07-08T07:55:35Z</time>
      </trkpt>
      <trkpt lat="43.00748" lon="0.30632">
        <ele>1036.4</ele>
        <time>2026-07-08T07:55:36Z</time>
      </trkpt>
      <trkpt lat="43.00747" lon="0.30631">
        <ele>1037.4</ele>
        <time>2026-07-08T07:55:37Z</time>
      </trkpt>
      <trkpt lat="43.00748" lon="0.3063">
        <ele>1037.4</ele>
        <time>2026-07-08T07:55:38Z</time>
      </trkpt>
      <trkpt lat="43.00748" lon="0.3063">
        <ele>1037.4</ele>
        <time>2026-07-08T07:55:39Z</time>
      </trkpt>
      <trkpt lat="43.00748" lon="0.3063">
        <ele>1037.4</ele>
        <time>2026-07-08T07:55:40Z</time>
      </trkpt>
      <trkpt lat="43.00748" lon="0.3063">
        <ele>1037.4</ele>
        <time>2026-07-08T07:55:41Z</time>
      </trkpt>
      <trkpt lat="43.00748" lon="0.3063">
        <ele>1037.4</ele>
        <time>2026-07-08T07:55:42Z</time>
      </trkpt>
      <trkpt lat="43.00748" lon="0.3063">
        <ele>1037.4</ele>
        <time>2026-07-08T07:55:43Z</time>
      </trkpt>
      <trkpt lat="43.00748" lon="0.3063">
        <ele>1037.4</ele>
        <time>2026-07-08T07:55:44Z</time>
      </trkpt>
      <trkpt lat="43.00747" lon="0.30628">
        <ele>1038.4</ele>
        <time>2026-07-08T07:55:45Z</time>
      </trkpt>
      <trkpt lat="43.00747" lon="0.30627">
        <ele>1037.4</ele>
        <time>2026-07-08T07:55:46Z</time>
      </trkpt>
      <trkpt lat="43.00746" lon="0.30626">
        <ele>1036.4</ele>
        <time>2026-07-08T07:55:47Z</time>
      </trkpt>
      <trkpt lat="43.00745" lon="0.30626">
        <ele>1036.4</ele>
        <time>2026-07-08T07:55:48Z</time>
      </trkpt>
      <trkpt lat="43.00745" lon="0.30625">
        <ele>1037.4</ele>
        <time>2026-07-08T07:55:49Z</time>
      </trkpt>
      <trkpt lat="43.00744" lon="0.30624">
        <ele>1037.4</ele>
        <time>2026-07-08T07:55:50Z</time>
      </trkpt>
      <trkpt lat="43.00743" lon="0.30624">
        <ele>1038.4</ele>
        <time>2026-07-08T07:55:51Z</time>
      </trkpt>
      <trkpt lat="43.00742" lon="0.30623">
        <ele>1037.4</ele>
        <time>2026-07-08T07:55:52Z</time>
      </trkpt>
      <trkpt lat="43.00742" lon="0.30622">
        <ele>1037.4</ele>
        <time>2026-07-08T07:55:53Z</time>
      </trkpt>
      <trkpt lat="43.00742" lon="0.30621">
        <ele>1037.4</ele>
        <time>2026-07-08T07:55:54Z</time>
      </trkpt>
      <trkpt lat="43.00742" lon="0.30621">
        <ele>1037.4</ele>
        <time>2026-07-08T07:55:55Z</time>
      </trkpt>
      <trkpt lat="43.00742" lon="0.30621">
        <ele>1037.4</ele>
        <time>2026-07-08T07:55:56Z</time>
      </trkpt>
      <trkpt lat="43.00742" lon="0.30621">
        <ele>1037.4</ele>
        <time>2026-07-08T07:55:57Z</time>
      </trkpt>
      <trkpt lat="43.00742" lon="0.30621">
        <ele>1037.4</ele>
        <time>2026-07-08T07:55:58Z</time>
      </trkpt>
      <trkpt lat="43.00742" lon="0.30621">
        <ele>1037.4</ele>
        <time>2026-07-08T07:55:59Z</time>
      </trkpt>
      <trkpt lat="43.00742" lon="0.30621">
        <ele>1037.4</ele>
        <time>2026-07-08T07:56:00Z</time>
      </trkpt>
      <trkpt lat="43.00742" lon="0.30621">
        <ele>1037.4</ele>
        <time>2026-07-08T07:56:01Z</time>
      </trkpt>
      <trkpt lat="43.00742" lon="0.30621">
        <ele>1037.4</ele>
        <time>2026-07-08T07:56:02Z</time>
      </trkpt>
      <trkpt lat="43.00742" lon="0.30621">
        <ele>1037.4</ele>
        <time>2026-07-08T07:56:03Z</time>
      </trkpt>
      <trkpt lat="43.00742" lon="0.30621">
        <ele>1037.4</ele>
        <time>2026-07-08T07:56:04Z</time>
      </trkpt>
      <trkpt lat="43.0074" lon="0.30621">
        <ele>1037.4</ele>
        <time>2026-07-08T07:56:05Z</time>
      </trkpt>
      <trkpt lat="43.0074" lon="0.30619">
        <ele>1037.4</ele>
        <time>2026-07-08T07:56:06Z</time>
      </trkpt>
      <trkpt lat="43.00739" lon="0.30618">
        <ele>1037.4</ele>
        <time>2026-07-08T07:56:07Z</time>
      </trkpt>
      <trkpt lat="43.0074" lon="0.30617">
        <ele>1038.4</ele>
        <time>2026-07-08T07:56:08Z</time>
      </trkpt>
      <trkpt lat="43.00739" lon="0.30617">
        <ele>1038.4</ele>
        <time>2026-07-08T07:56:09Z</time>
      </trkpt>
      <trkpt lat="43.00739" lon="0.30617">
        <ele>1037.4</ele>
        <time>2026-07-08T07:56:10Z</time>
      </trkpt>
      <trkpt lat="43.00739" lon="0.30617">
        <ele>1037.4</ele>
        <time>2026-07-08T07:56:11Z</time>
      </trkpt>
      <trkpt lat="43.00739" lon="0.30617">
        <ele>1037.4</ele>
        <time>2026-07-08T07:56:12Z</time>
      </trkpt>
      <trkpt lat="43.00739" lon="0.30617">
        <ele>1037.4</ele>
        <time>2026-07-08T07:56:13Z</time>
      </trkpt>
      <trkpt lat="43.00737" lon="0.30617">
        <ele>1037.4</ele>
        <time>2026-07-08T07:56:14Z</time>
      </trkpt>
      <trkpt lat="43.00736" lon="0.30617">
        <ele>1038.4</ele>
        <time>2026-07-08T07:56:15Z</time>
      </trkpt>
      <trkpt lat="43.00736" lon="0.30616">
        <ele>1038.4</ele>
        <time>2026-07-08T07:56:16Z</time>
      </trkpt>
      <trkpt lat="43.00735" lon="0.30616">
        <ele>1038.4</ele>
        <time>2026-07-08T07:56:17Z</time>
      </trkpt>
      <trkpt lat="43.00735" lon="0.30616">
        <ele>1038.4</ele>
        <time>2026-07-08T07:56:18Z</time>
      </trkpt>
      <trkpt lat="43.00735" lon="0.30616">
        <ele>1038.4</ele>
        <time>2026-07-08T07:56:19Z</time>
      </trkpt>
      <trkpt lat="43.00735" lon="0.30616">
        <ele>1038.4</ele>
        <time>2026-07-08T07:56:20Z</time>
      </trkpt>
      <trkpt lat="43.00734" lon="0.30615">
        <ele>1038.4</ele>
        <time>2026-07-08T07:56:21Z</time>
      </trkpt>
      <trkpt lat="43.00733" lon="0.30615">
        <ele>1037.4</ele>
        <time>2026-07-08T07:56:22Z</time>
      </trkpt>
      <trkpt lat="43.00733" lon="0.30615">
        <ele>1037.4</ele>
        <time>2026-07-08T07:56:23Z</time>
      </trkpt>
      <trkpt lat="43.00733" lon="0.30615">
        <ele>1037.4</ele>
        <time>2026-07-08T07:56:24Z</time>
      </trkpt>
      <trkpt lat="43.00732" lon="0.30614">
        <ele>1037.4</ele>
        <time>2026-07-08T07:56:25Z</time>
      </trkpt>
      <trkpt lat="43.00732" lon="0.30613">
        <ele>1038.4</ele>
        <time>2026-07-08T07:56:26Z</time>
      </trkpt>
      <trkpt lat="43.00732" lon="0.30613">
        <ele>1038.4</ele>
        <time>2026-07-08T07:56:27Z</time>
      </trkpt>
      <trkpt lat="43.00731" lon="0.30612">
        <ele>1038.4</ele>
        <time>2026-07-08T07:56:28Z</time>
      </trkpt>
      <trkpt lat="43.0073" lon="0.30612">
        <ele>1039.4</ele>
        <time>2026-07-08T07:56:29Z</time>
      </trkpt>
      <trkpt lat="43.0073" lon="0.30612">
        <ele>1039.4</ele>
        <time>2026-07-08T07:56:30Z</time>
      </trkpt>
      <trkpt lat="43.00729" lon="0.30611">
        <ele>1039.4</ele>
        <time>2026-07-08T07:56:31Z</time>
      </trkpt>
      <trkpt lat="43.00729" lon="0.30611">
        <ele>1038.4</ele>
        <time>2026-07-08T07:56:32Z</time>
      </trkpt>
      <trkpt lat="43.00729" lon="0.3061">
        <ele>1038.4</ele>
        <time>2026-07-08T07:56:33Z</time>
      </trkpt>
      <trkpt lat="43.00728" lon="0.30609">
        <ele>1038.4</ele>
        <time>2026-07-08T07:56:34Z</time>
      </trkpt>
      <trkpt lat="43.00727" lon="0.30607">
        <ele>1039.4</ele>
        <time>2026-07-08T07:56:35Z</time>
      </trkpt>
      <trkpt lat="43.00726" lon="0.30607">
        <ele>1039.4</ele>
        <time>2026-07-08T07:56:36Z</time>
      </trkpt>
      <trkpt lat="43.00726" lon="0.30608">
        <ele>1040.4</ele>
        <time>2026-07-08T07:56:37Z</time>
      </trkpt>
      <trkpt lat="43.00726" lon="0.30608">
        <ele>1039.4</ele>
        <time>2026-07-08T07:56:38Z</time>
      </trkpt>
      <trkpt lat="43.00726" lon="0.30608">
        <ele>1040.4</ele>
        <time>2026-07-08T07:56:39Z</time>
      </trkpt>
      <trkpt lat="43.00725" lon="0.30607">
        <ele>1039.4</ele>
        <time>2026-07-08T07:56:40Z</time>
      </trkpt>
      <trkpt lat="43.00725" lon="0.30607">
        <ele>1040.4</ele>
        <time>2026-07-08T07:56:41Z</time>
      </trkpt>
      <trkpt lat="43.00724" lon="0.30606">
        <ele>1040.4</ele>
        <time>2026-07-08T07:56:42Z</time>
      </trkpt>
      <trkpt lat="43.00724" lon="0.30606">
        <ele>1040.4</ele>
        <time>2026-07-08T07:56:43Z</time>
      </trkpt>
      <trkpt lat="43.00723" lon="0.30606">
        <ele>1040.4</ele>
        <time>2026-07-08T07:56:44Z</time>
      </trkpt>
      <trkpt lat="43.00723" lon="0.30604">
        <ele>1039.4</ele>
        <time>2026-07-08T07:56:45Z</time>
      </trkpt>
      <trkpt lat="43.00723" lon="0.30604">
        <ele>1039.4</ele>
        <time>2026-07-08T07:56:46Z</time>
      </trkpt>
      <trkpt lat="43.00723" lon="0.30604">
        <ele>1039.4</ele>
        <time>2026-07-08T07:56:47Z</time>
      </trkpt>
      <trkpt lat="43.00722" lon="0.30602">
        <ele>1039.4</ele>
        <time>2026-07-08T07:56:48Z</time>
      </trkpt>
      <trkpt lat="43.00721" lon="0.30602">
        <ele>1039.4</ele>
        <time>2026-07-08T07:56:49Z</time>
      </trkpt>
      <trkpt lat="43.00721" lon="0.30602">
        <ele>1039.4</ele>
        <time>2026-07-08T07:56:50Z</time>
      </trkpt>
      <trkpt lat="43.00721" lon="0.30602">
        <ele>1040.4</ele>
        <time>2026-07-08T07:56:51Z</time>
      </trkpt>
      <trkpt lat="43.0072" lon="0.30602">
        <ele>1040.4</ele>
        <time>2026-07-08T07:56:52Z</time>
      </trkpt>
      <trkpt lat="43.0072" lon="0.30602">
        <ele>1040.4</ele>
        <time>2026-07-08T07:56:53Z</time>
      </trkpt>
      <trkpt lat="43.00719" lon="0.30602">
        <ele>1041.4</ele>
        <time>2026-07-08T07:56:54Z</time>
      </trkpt>
      <trkpt lat="43.00718" lon="0.30602">
        <ele>1042.4</ele>
        <time>2026-07-08T07:56:55Z</time>
      </trkpt>
      <trkpt lat="43.00717" lon="0.30601">
        <ele>1042.4</ele>
        <time>2026-07-08T07:56:56Z</time>
      </trkpt>
      <trkpt lat="43.00717" lon="0.30601">
        <ele>1042.4</ele>
        <time>2026-07-08T07:56:57Z</time>
      </trkpt>
      <trkpt lat="43.00717" lon="0.30599">
        <ele>1042.4</ele>
        <time>2026-07-08T07:56:58Z</time>
      </trkpt>
      <trkpt lat="43.00716" lon="0.30599">
        <ele>1042.4</ele>
        <time>2026-07-08T07:56:59Z</time>
      </trkpt>
      <trkpt lat="43.00716" lon="0.30599">
        <ele>1042.4</ele>
        <time>2026-07-08T07:57:00Z</time>
      </trkpt>
      <trkpt lat="43.00715" lon="0.30599">
        <ele>1042.4</ele>
        <time>2026-07-08T07:57:01Z</time>
      </trkpt>
      <trkpt lat="43.00715" lon="0.30599">
        <ele>1041.4</ele>
        <time>2026-07-08T07:57:02Z</time>
      </trkpt>
      <trkpt lat="43.00715" lon="0.30599">
        <ele>1042.4</ele>
        <time>2026-07-08T07:57:03Z</time>
      </trkpt>
      <trkpt lat="43.00714" lon="0.30599">
        <ele>1042.4</ele>
        <time>2026-07-08T07:57:04Z</time>
      </trkpt>
      <trkpt lat="43.00714" lon="0.30599">
        <ele>1043.4</ele>
        <time>2026-07-08T07:57:05Z</time>
      </trkpt>
      <trkpt lat="43.00714" lon="0.30599">
        <ele>1043.4</ele>
        <time>2026-07-08T07:57:06Z</time>
      </trkpt>
      <trkpt lat="43.00714" lon="0.30599">
        <ele>1043.4</ele>
        <time>2026-07-08T07:57:07Z</time>
      </trkpt>
      <trkpt lat="43.00714" lon="0.30599">
        <ele>1043.4</ele>
        <time>2026-07-08T07:57:08Z</time>
      </trkpt>
      <trkpt lat="43.00714" lon="0.30599">
        <ele>1043.4</ele>
        <time>2026-07-08T07:57:09Z</time>
      </trkpt>
      <trkpt lat="43.00714" lon="0.30599">
        <ele>1043.4</ele>
        <time>2026-07-08T07:57:10Z</time>
      </trkpt>
      <trkpt lat="43.00714" lon="0.30599">
        <ele>1043.4</ele>
        <time>2026-07-08T07:57:11Z</time>
      </trkpt>
      <trkpt lat="43.00714" lon="0.30599">
        <ele>1043.4</ele>
        <time>2026-07-08T07:57:12Z</time>
      </trkpt>
      <trkpt lat="43.00714" lon="0.30597">
        <ele>1045.4</ele>
        <time>2026-07-08T07:57:13Z</time>
      </trkpt>
      <trkpt lat="43.00714" lon="0.30597">
        <ele>1045.4</ele>
        <time>2026-07-08T07:57:14Z</time>
      </trkpt>
      <trkpt lat="43.00714" lon="0.30596">
        <ele>1044.4</ele>
        <time>2026-07-08T07:57:15Z</time>
      </trkpt>
      <trkpt lat="43.00714" lon="0.30595">
        <ele>1044.4</ele>
        <time>2026-07-08T07:57:16Z</time>
      </trkpt>
      <trkpt lat="43.00714" lon="0.30595">
        <ele>1044.4</ele>
        <time>2026-07-08T07:57:17Z</time>
      </trkpt>
      <trkpt lat="43.00714" lon="0.30595">
        <ele>1044.4</ele>
        <time>2026-07-08T07:57:18Z</time>
      </trkpt>
      <trkpt lat="43.00714" lon="0.30595">
        <ele>1044.4</ele>
        <time>2026-07-08T07:57:19Z</time>
      </trkpt>
      <trkpt lat="43.00714" lon="0.30595">
        <ele>1044.4</ele>
        <time>2026-07-08T07:57:20Z</time>
      </trkpt>
      <trkpt lat="43.00714" lon="0.30595">
        <ele>1044.4</ele>
        <time>2026-07-08T07:57:21Z</time>
      </trkpt>
      <trkpt lat="43.00714" lon="0.30591">
        <ele>1045.4</ele>
        <time>2026-07-08T07:57:22Z</time>
      </trkpt>
      <trkpt lat="43.00714" lon="0.30591">
        <ele>1045.4</ele>
        <time>2026-07-08T07:57:23Z</time>
      </trkpt>
      <trkpt lat="43.00714" lon="0.3059">
        <ele>1046.4</ele>
        <time>2026-07-08T07:57:24Z</time>
      </trkpt>
      <trkpt lat="43.00714" lon="0.3059">
        <ele>1047.4</ele>
        <time>2026-07-08T07:57:25Z</time>
      </trkpt>
      <trkpt lat="43.00714" lon="0.3059">
        <ele>1047.4</ele>
        <time>2026-07-08T07:57:26Z</time>
      </trkpt>
      <trkpt lat="43.00714" lon="0.30589">
        <ele>1047.4</ele>
        <time>2026-07-08T07:57:27Z</time>
      </trkpt>
      <trkpt lat="43.00714" lon="0.30589">
        <ele>1047.4</ele>
        <time>2026-07-08T07:57:28Z</time>
      </trkpt>
      <trkpt lat="43.00713" lon="0.30589">
        <ele>1048.4</ele>
        <time>2026-07-08T07:57:29Z</time>
      </trkpt>
      <trkpt lat="43.00712" lon="0.30588">
        <ele>1047.4</ele>
        <time>2026-07-08T07:57:30Z</time>
      </trkpt>
      <trkpt lat="43.00712" lon="0.30588">
        <ele>1046.4</ele>
        <time>2026-07-08T07:57:31Z</time>
      </trkpt>
      <trkpt lat="43.00712" lon="0.30588">
        <ele>1046.4</ele>
        <time>2026-07-08T07:57:32Z</time>
      </trkpt>
      <trkpt lat="43.00712" lon="0.30588">
        <ele>1046.4</ele>
        <time>2026-07-08T07:57:33Z</time>
      </trkpt>
      <trkpt lat="43.00712" lon="0.30588">
        <ele>1046.4</ele>
        <time>2026-07-08T07:57:34Z</time>
      </trkpt>
      <trkpt lat="43.00712" lon="0.30588">
        <ele>1046.4</ele>
        <time>2026-07-08T07:57:35Z</time>
      </trkpt>
      <trkpt lat="43.00712" lon="0.30588">
        <ele>1046.4</ele>
        <time>2026-07-08T07:57:36Z</time>
      </trkpt>
      <trkpt lat="43.00711" lon="0.30587">
        <ele>1046.4</ele>
        <time>2026-07-08T07:57:37Z</time>
      </trkpt>
      <trkpt lat="43.00711" lon="0.30587">
        <ele>1046.4</ele>
        <time>2026-07-08T07:57:38Z</time>
      </trkpt>
      <trkpt lat="43.00711" lon="0.30586">
        <ele>1046.4</ele>
        <time>2026-07-08T07:57:39Z</time>
      </trkpt>
      <trkpt lat="43.00711" lon="0.30585">
        <ele>1047.4</ele>
        <time>2026-07-08T07:57:40Z</time>
      </trkpt>
      <trkpt lat="43.00711" lon="0.30583">
        <ele>1047.4</ele>
        <time>2026-07-08T07:57:41Z</time>
      </trkpt>
      <trkpt lat="43.0071" lon="0.30583">
        <ele>1046.4</ele>
        <time>2026-07-08T07:57:42Z</time>
      </trkpt>
      <trkpt lat="43.0071" lon="0.30583">
        <ele>1047.4</ele>
        <time>2026-07-08T07:57:43Z</time>
      </trkpt>
      <trkpt lat="43.00709" lon="0.30583">
        <ele>1047.4</ele>
        <time>2026-07-08T07:57:44Z</time>
      </trkpt>
      <trkpt lat="43.0071" lon="0.30582">
        <ele>1047.4</ele>
        <time>2026-07-08T07:57:45Z</time>
      </trkpt>
      <trkpt lat="43.0071" lon="0.30582">
        <ele>1048.4</ele>
        <time>2026-07-08T07:57:46Z</time>
      </trkpt>
      <trkpt lat="43.0071" lon="0.30582">
        <ele>1048.4</ele>
        <time>2026-07-08T07:57:47Z</time>
      </trkpt>
      <trkpt lat="43.0071" lon="0.30582">
        <ele>1048.4</ele>
        <time>2026-07-08T07:57:48Z</time>
      </trkpt>
      <trkpt lat="43.0071" lon="0.30582">
        <ele>1048.4</ele>
        <time>2026-07-08T07:57:49Z</time>
      </trkpt>
      <trkpt lat="43.0071" lon="0.30582">
        <ele>1048.4</ele>
        <time>2026-07-08T07:57:50Z</time>
      </trkpt>
      <trkpt lat="43.0071" lon="0.30582">
        <ele>1048.4</ele>
        <time>2026-07-08T07:57:51Z</time>
      </trkpt>
      <trkpt lat="43.0071" lon="0.30582">
        <ele>1048.4</ele>
        <time>2026-07-08T07:57:52Z</time>
      </trkpt>
      <trkpt lat="43.00708" lon="0.3058">
        <ele>1048.4</ele>
        <time>2026-07-08T07:57:53Z</time>
      </trkpt>
      <trkpt lat="43.00709" lon="0.30579">
        <ele>1048.4</ele>
        <time>2026-07-08T07:57:54Z</time>
      </trkpt>
      <trkpt lat="43.00708" lon="0.30578">
        <ele>1048.4</ele>
        <time>2026-07-08T07:57:55Z</time>
      </trkpt>
      <trkpt lat="43.00709" lon="0.30576">
        <ele>1047.4</ele>
        <time>2026-07-08T07:57:56Z</time>
      </trkpt>
      <trkpt lat="43.00709" lon="0.30576">
        <ele>1047.4</ele>
        <time>2026-07-08T07:57:57Z</time>
      </trkpt>
      <trkpt lat="43.00709" lon="0.30576">
        <ele>1047.4</ele>
        <time>2026-07-08T07:57:58Z</time>
      </trkpt>
      <trkpt lat="43.00708" lon="0.30575">
        <ele>1049.4</ele>
        <time>2026-07-08T07:57:59Z</time>
      </trkpt>
      <trkpt lat="43.00708" lon="0.30575">
        <ele>1049.4</ele>
        <time>2026-07-08T07:58:00Z</time>
      </trkpt>
      <trkpt lat="43.00708" lon="0.30574">
        <ele>1051.4</ele>
        <time>2026-07-08T07:58:01Z</time>
      </trkpt>
      <trkpt lat="43.00706" lon="0.30574">
        <ele>1051.4</ele>
        <time>2026-07-08T07:58:02Z</time>
      </trkpt>
      <trkpt lat="43.00706" lon="0.30573">
        <ele>1051.4</ele>
        <time>2026-07-08T07:58:03Z</time>
      </trkpt>
      <trkpt lat="43.00706" lon="0.30573">
        <ele>1051.4</ele>
        <time>2026-07-08T07:58:04Z</time>
      </trkpt>
      <trkpt lat="43.00705" lon="0.30573">
        <ele>1051.4</ele>
        <time>2026-07-08T07:58:05Z</time>
      </trkpt>
      <trkpt lat="43.00704" lon="0.30572">
        <ele>1051.4</ele>
        <time>2026-07-08T07:58:06Z</time>
      </trkpt>
      <trkpt lat="43.00703" lon="0.30572">
        <ele>1051.4</ele>
        <time>2026-07-08T07:58:07Z</time>
      </trkpt>
      <trkpt lat="43.00702" lon="0.30572">
        <ele>1051.4</ele>
        <time>2026-07-08T07:58:08Z</time>
      </trkpt>
      <trkpt lat="43.00702" lon="0.30572">
        <ele>1052.4</ele>
        <time>2026-07-08T07:58:09Z</time>
      </trkpt>
      <trkpt lat="43.00701" lon="0.30571">
        <ele>1053.4</ele>
        <time>2026-07-08T07:58:10Z</time>
      </trkpt>
      <trkpt lat="43.00701" lon="0.30572">
        <ele>1053.4</ele>
        <time>2026-07-08T07:58:11Z</time>
      </trkpt>
      <trkpt lat="43.00701" lon="0.30571">
        <ele>1054.4</ele>
        <time>2026-07-08T07:58:12Z</time>
      </trkpt>
      <trkpt lat="43.00701" lon="0.3057">
        <ele>1054.4</ele>
        <time>2026-07-08T07:58:13Z</time>
      </trkpt>
      <trkpt lat="43.00701" lon="0.3057">
        <ele>1055.4</ele>
        <time>2026-07-08T07:58:14Z</time>
      </trkpt>
      <trkpt lat="43.00701" lon="0.3057">
        <ele>1055.4</ele>
        <time>2026-07-08T07:58:15Z</time>
      </trkpt>
      <trkpt lat="43.007" lon="0.3057">
        <ele>1055.4</ele>
        <time>2026-07-08T07:58:16Z</time>
      </trkpt>
      <trkpt lat="43.00699" lon="0.3057">
        <ele>1054.4</ele>
        <time>2026-07-08T07:58:17Z</time>
      </trkpt>
      <trkpt lat="43.00699" lon="0.30569">
        <ele>1054.4</ele>
        <time>2026-07-08T07:58:18Z</time>
      </trkpt>
      <trkpt lat="43.00698" lon="0.30569">
        <ele>1054.4</ele>
        <time>2026-07-08T07:58:19Z</time>
      </trkpt>
      <trkpt lat="43.00698" lon="0.30569">
        <ele>1054.4</ele>
        <time>2026-07-08T07:58:20Z</time>
      </trkpt>
      <trkpt lat="43.00697" lon="0.30568">
        <ele>1054.4</ele>
        <time>2026-07-08T07:58:21Z</time>
      </trkpt>
      <trkpt lat="43.00697" lon="0.30568">
        <ele>1054.4</ele>
        <time>2026-07-08T07:58:22Z</time>
      </trkpt>
      <trkpt lat="43.00697" lon="0.30568">
        <ele>1054.4</ele>
        <time>2026-07-08T07:58:23Z</time>
      </trkpt>
      <trkpt lat="43.00697" lon="0.30568">
        <ele>1055.4</ele>
        <time>2026-07-08T07:58:24Z</time>
      </trkpt>
      <trkpt lat="43.00696" lon="0.30568">
        <ele>1055.4</ele>
        <time>2026-07-08T07:58:25Z</time>
      </trkpt>
      <trkpt lat="43.00696" lon="0.30567">
        <ele>1055.4</ele>
        <time>2026-07-08T07:58:26Z</time>
      </trkpt>
      <trkpt lat="43.00696" lon="0.30567">
        <ele>1055.4</ele>
        <time>2026-07-08T07:58:27Z</time>
      </trkpt>
      <trkpt lat="43.00696" lon="0.30566">
        <ele>1055.4</ele>
        <time>2026-07-08T07:58:28Z</time>
      </trkpt>
      <trkpt lat="43.00697" lon="0.30565">
        <ele>1055.4</ele>
        <time>2026-07-08T07:58:29Z</time>
      </trkpt>
      <trkpt lat="43.00696" lon="0.30564">
        <ele>1055.4</ele>
        <time>2026-07-08T07:58:30Z</time>
      </trkpt>
      <trkpt lat="43.00695" lon="0.30563">
        <ele>1054.4</ele>
        <time>2026-07-08T07:58:31Z</time>
      </trkpt>
      <trkpt lat="43.00695" lon="0.30563">
        <ele>1054.4</ele>
        <time>2026-07-08T07:58:32Z</time>
      </trkpt>
      <trkpt lat="43.00695" lon="0.30563">
        <ele>1054.4</ele>
        <time>2026-07-08T07:58:33Z</time>
      </trkpt>
      <trkpt lat="43.00694" lon="0.30561">
        <ele>1055.4</ele>
        <time>2026-07-08T07:58:34Z</time>
      </trkpt>
      <trkpt lat="43.00694" lon="0.30561">
        <ele>1055.4</ele>
        <time>2026-07-08T07:58:35Z</time>
      </trkpt>
      <trkpt lat="43.00694" lon="0.3056">
        <ele>1055.4</ele>
        <time>2026-07-08T07:58:36Z</time>
      </trkpt>
      <trkpt lat="43.00694" lon="0.30559">
        <ele>1055.4</ele>
        <time>2026-07-08T07:58:37Z</time>
      </trkpt>
      <trkpt lat="43.00694" lon="0.30559">
        <ele>1055.4</ele>
        <time>2026-07-08T07:58:38Z</time>
      </trkpt>
      <trkpt lat="43.00695" lon="0.30562">
        <ele>1055.4</ele>
        <time>2026-07-08T07:58:39Z</time>
      </trkpt>
      <trkpt lat="43.00694" lon="0.30561">
        <ele>1055.4</ele>
        <time>2026-07-08T07:58:40Z</time>
      </trkpt>
      <trkpt lat="43.00694" lon="0.30561">
        <ele>1055.4</ele>
        <time>2026-07-08T07:58:41Z</time>
      </trkpt>
      <trkpt lat="43.00694" lon="0.30561">
        <ele>1055.4</ele>
        <time>2026-07-08T07:58:42Z</time>
      </trkpt>
      <trkpt lat="43.00694" lon="0.30561">
        <ele>1055.4</ele>
        <time>2026-07-08T07:58:43Z</time>
      </trkpt>
      <trkpt lat="43.00694" lon="0.30561">
        <ele>1055.4</ele>
        <time>2026-07-08T07:58:44Z</time>
      </trkpt>
      <trkpt lat="43.00694" lon="0.30561">
        <ele>1055.4</ele>
        <time>2026-07-08T07:58:45Z</time>
      </trkpt>
      <trkpt lat="43.00694" lon="0.30561">
        <ele>1058.4</ele>
        <time>2026-07-08T07:58:46Z</time>
      </trkpt>
      <trkpt lat="43.00694" lon="0.30561">
        <ele>1058.4</ele>
        <time>2026-07-08T07:58:46Z</time>
      </trkpt>
      <trkpt lat="43.00694" lon="0.30561">
        <ele>1059.4</ele>
        <time>2026-07-08T07:58:47Z</time>
      </trkpt>
      <trkpt lat="43.00694" lon="0.30561">
        <ele>1059.4</ele>
        <time>2026-07-08T07:58:48Z</time>
      </trkpt>
      <trkpt lat="43.00694" lon="0.3056">
        <ele>1059.4</ele>
        <time>2026-07-08T07:58:49Z</time>
      </trkpt>
      <trkpt lat="43.00694" lon="0.3056">
        <ele>1059.4</ele>
        <time>2026-07-08T07:58:50Z</time>
      </trkpt>
      <trkpt lat="43.00694" lon="0.3056">
        <ele>1059.4</ele>
        <time>2026-07-08T07:58:51Z</time>
      </trkpt>
      <trkpt lat="43.00694" lon="0.3056">
        <ele>1059.4</ele>
        <time>2026-07-08T07:58:52Z</time>
      </trkpt>
      <trkpt lat="43.00694" lon="0.3056">
        <ele>1059.4</ele>
        <time>2026-07-08T07:58:53Z</time>
      </trkpt>
      <trkpt lat="43.00694" lon="0.3056">
        <ele>1059.4</ele>
        <time>2026-07-08T07:58:54Z</time>
      </trkpt>
      <trkpt lat="43.00694" lon="0.3056">
        <ele>1060.4</ele>
        <time>2026-07-08T07:58:55Z</time>
      </trkpt>
      <trkpt lat="43.00693" lon="0.3056">
        <ele>1060.4</ele>
        <time>2026-07-08T07:58:55Z</time>
      </trkpt>
      <trkpt lat="43.00693" lon="0.3056">
        <ele>1060.4</ele>
        <time>2026-07-08T07:58:56Z</time>
      </trkpt>
      <trkpt lat="43.00693" lon="0.3056">
        <ele>1060.4</ele>
        <time>2026-07-08T07:58:57Z</time>
      </trkpt>
      <trkpt lat="43.00693" lon="0.3056">
        <ele>1060.4</ele>
        <time>2026-07-08T07:58:58Z</time>
      </trkpt>
      <trkpt lat="43.00693" lon="0.3056">
        <ele>1060.4</ele>
        <time>2026-07-08T07:58:58Z</time>
      </trkpt>
      <trkpt lat="43.00693" lon="0.3056">
        <ele>1060.4</ele>
        <time>2026-07-08T07:58:59Z</time>
      </trkpt>
      <trkpt lat="43.00693" lon="0.30559">
        <ele>1060.4</ele>
        <time>2026-07-08T07:59:00Z</time>
      </trkpt>
      <trkpt lat="43.00693" lon="0.30559">
        <ele>1060.4</ele>
        <time>2026-07-08T07:59:01Z</time>
      </trkpt>
      <trkpt lat="43.00693" lon="0.30559">
        <ele>1060.4</ele>
        <time>2026-07-08T07:59:02Z</time>
      </trkpt>
      <trkpt lat="43.00692" lon="0.30559">
        <ele>1060.4</ele>
        <time>2026-07-08T07:59:03Z</time>
      </trkpt>
      <trkpt lat="43.00692" lon="0.30559">
        <ele>1059.4</ele>
        <time>2026-07-08T07:59:04Z</time>
      </trkpt>
      <trkpt lat="43.00691" lon="0.30559">
        <ele>1059.4</ele>
        <time>2026-07-08T07:59:05Z</time>
      </trkpt>
      <trkpt lat="43.00691" lon="0.30559">
        <ele>1059.4</ele>
        <time>2026-07-08T07:59:06Z</time>
      </trkpt>
      <trkpt lat="43.00691" lon="0.30558">
        <ele>1060.4</ele>
        <time>2026-07-08T07:59:06Z</time>
      </trkpt>
      <trkpt lat="43.00691" lon="0.30558">
        <ele>1061.4</ele>
        <time>2026-07-08T07:59:07Z</time>
      </trkpt>
      <trkpt lat="43.0069" lon="0.30558">
        <ele>1062.4</ele>
        <time>2026-07-08T07:59:08Z</time>
      </trkpt>
      <trkpt lat="43.0069" lon="0.30558">
        <ele>1063.4</ele>
        <time>2026-07-08T07:59:09Z</time>
      </trkpt>
      <trkpt lat="43.00689" lon="0.30558">
        <ele>1063.4</ele>
        <time>2026-07-08T07:59:10Z</time>
      </trkpt>
      <trkpt lat="43.00689" lon="0.30558">
        <ele>1063.4</ele>
        <time>2026-07-08T07:59:11Z</time>
      </trkpt>
      <trkpt lat="43.00688" lon="0.30558">
        <ele>1062.4</ele>
        <time>2026-07-08T07:59:12Z</time>
      </trkpt>
      <trkpt lat="43.00688" lon="0.30558">
        <ele>1063.4</ele>
        <time>2026-07-08T07:59:13Z</time>
      </trkpt>
      <trkpt lat="43.00687" lon="0.30558">
        <ele>1063.4</ele>
        <time>2026-07-08T07:59:14Z</time>
      </trkpt>
      <trkpt lat="43.00687" lon="0.30558">
        <ele>1063.4</ele>
        <time>2026-07-08T07:59:15Z</time>
      </trkpt>
      <trkpt lat="43.00687" lon="0.30558">
        <ele>1063.4</ele>
        <time>2026-07-08T07:59:16Z</time>
      </trkpt>
      <trkpt lat="43.00686" lon="0.30558">
        <ele>1063.4</ele>
        <time>2026-07-08T07:59:17Z</time>
      </trkpt>
      <trkpt lat="43.00686" lon="0.30558">
        <ele>1063.4</ele>
        <time>2026-07-08T07:59:18Z</time>
      </trkpt>
      <trkpt lat="43.00685" lon="0.30558">
        <ele>1063.4</ele>
        <time>2026-07-08T07:59:19Z</time>
      </trkpt>
      <trkpt lat="43.00685" lon="0.30558">
        <ele>1064.4</ele>
        <time>2026-07-08T07:59:20Z</time>
      </trkpt>
      <trkpt lat="43.00684" lon="0.30558">
        <ele>1064.4</ele>
        <time>2026-07-08T07:59:21Z</time>
      </trkpt>
      <trkpt lat="43.00683" lon="0.30558">
        <ele>1064.4</ele>
        <time>2026-07-08T07:59:22Z</time>
      </trkpt>
      <trkpt lat="43.00682" lon="0.30558">
        <ele>1064.4</ele>
        <time>2026-07-08T07:59:22Z</time>
      </trkpt>
      <trkpt lat="43.00682" lon="0.30558">
        <ele>1064.4</ele>
        <time>2026-07-08T07:59:23Z</time>
      </trkpt>
      <trkpt lat="43.00682" lon="0.30558">
        <ele>1064.4</ele>
        <time>2026-07-08T07:59:24Z</time>
      </trkpt>
      <trkpt lat="43.00681" lon="0.30558">
        <ele>1064.4</ele>
        <time>2026-07-08T07:59:25Z</time>
      </trkpt>
      <trkpt lat="43.00681" lon="0.30558">
        <ele>1064.4</ele>
        <time>2026-07-08T07:59:26Z</time>
      </trkpt>
      <trkpt lat="43.00681" lon="0.30557">
        <ele>1064.4</ele>
        <time>2026-07-08T07:59:27Z</time>
      </trkpt>
      <trkpt lat="43.0068" lon="0.30557">
        <ele>1064.4</ele>
        <time>2026-07-08T07:59:28Z</time>
      </trkpt>
      <trkpt lat="43.0068" lon="0.30557">
        <ele>1064.4</ele>
        <time>2026-07-08T07:59:29Z</time>
      </trkpt>
      <trkpt lat="43.0068" lon="0.30556">
        <ele>1064.4</ele>
        <time>2026-07-08T07:59:30Z</time>
      </trkpt>
      <trkpt lat="43.0068" lon="0.30556">
        <ele>1065.4</ele>
        <time>2026-07-08T07:59:31Z</time>
      </trkpt>
      <trkpt lat="43.00679" lon="0.30556">
        <ele>1066.4</ele>
        <time>2026-07-08T07:59:32Z</time>
      </trkpt>
      <trkpt lat="43.00679" lon="0.30556">
        <ele>1066.4</ele>
        <time>2026-07-08T07:59:33Z</time>
      </trkpt>
      <trkpt lat="43.00679" lon="0.30556">
        <ele>1066.4</ele>
        <time>2026-07-08T07:59:34Z</time>
      </trkpt>
      <trkpt lat="43.00679" lon="0.30555">
        <ele>1066.4</ele>
        <time>2026-07-08T07:59:35Z</time>
      </trkpt>
      <trkpt lat="43.00679" lon="0.30555">
        <ele>1066.4</ele>
        <time>2026-07-08T07:59:35Z</time>
      </trkpt>
      <trkpt lat="43.00679" lon="0.30554">
        <ele>1066.4</ele>
        <time>2026-07-08T07:59:36Z</time>
      </trkpt>
      <trkpt lat="43.00678" lon="0.30554">
        <ele>1066.4</ele>
        <time>2026-07-08T07:59:37Z</time>
      </trkpt>
      <trkpt lat="43.00678" lon="0.30554">
        <ele>1066.4</ele>
        <time>2026-07-08T07:59:38Z</time>
      </trkpt>
      <trkpt lat="43.00678" lon="0.30553">
        <ele>1066.4</ele>
        <time>2026-07-08T07:59:39Z</time>
      </trkpt>
      <trkpt lat="43.00678" lon="0.30553">
        <ele>1066.4</ele>
        <time>2026-07-08T07:59:39Z</time>
      </trkpt>
      <trkpt lat="43.00678" lon="0.30553">
        <ele>1067.4</ele>
        <time>2026-07-08T07:59:40Z</time>
      </trkpt>
      <trkpt lat="43.00678" lon="0.30553">
        <ele>1067.4</ele>
        <time>2026-07-08T07:59:41Z</time>
      </trkpt>
      <trkpt lat="43.00678" lon="0.30552">
        <ele>1067.4</ele>
        <time>2026-07-08T07:59:42Z</time>
      </trkpt>
      <trkpt lat="43.00677" lon="0.30552">
        <ele>1067.4</ele>
        <time>2026-07-08T07:59:42Z</time>
      </trkpt>
      <trkpt lat="43.00677" lon="0.30552">
        <ele>1068.4</ele>
        <time>2026-07-08T07:59:43Z</time>
      </trkpt>
      <trkpt lat="43.00677" lon="0.30552">
        <ele>1067.4</ele>
        <time>2026-07-08T07:59:44Z</time>
      </trkpt>
      <trkpt lat="43.00677" lon="0.30551">
        <ele>1067.4</ele>
        <time>2026-07-08T07:59:45Z</time>
      </trkpt>
      <trkpt lat="43.00676" lon="0.30551">
        <ele>1068.4</ele>
        <time>2026-07-08T07:59:46Z</time>
      </trkpt>
      <trkpt lat="43.00676" lon="0.3055">
        <ele>1069.4</ele>
        <time>2026-07-08T07:59:47Z</time>
      </trkpt>
      <trkpt lat="43.00675" lon="0.3055">
        <ele>1069.4</ele>
        <time>2026-07-08T07:59:48Z</time>
      </trkpt>
      <trkpt lat="43.00675" lon="0.3055">
        <ele>1069.4</ele>
        <time>2026-07-08T07:59:48Z</time>
      </trkpt>
      <trkpt lat="43.00675" lon="0.3055">
        <ele>1069.4</ele>
        <time>2026-07-08T07:59:49Z</time>
      </trkpt>
      <trkpt lat="43.00675" lon="0.3055">
        <ele>1069.4</ele>
        <time>2026-07-08T07:59:50Z</time>
      </trkpt>
      <trkpt lat="43.00675" lon="0.30549">
        <ele>1069.4</ele>
        <time>2026-07-08T07:59:51Z</time>
      </trkpt>
      <trkpt lat="43.00675" lon="0.30549">
        <ele>1069.4</ele>
        <time>2026-07-08T07:59:52Z</time>
      </trkpt>
      <trkpt lat="43.00675" lon="0.30549">
        <ele>1069.4</ele>
        <time>2026-07-08T07:59:52Z</time>
      </trkpt>
      <trkpt lat="43.00674" lon="0.30548">
        <ele>1069.4</ele>
        <time>2026-07-08T07:59:53Z</time>
      </trkpt>
      <trkpt lat="43.00674" lon="0.30548">
        <ele>1071.4</ele>
        <time>2026-07-08T07:59:54Z</time>
      </trkpt>
      <trkpt lat="43.00674" lon="0.30548">
        <ele>1071.4</ele>
        <time>2026-07-08T07:59:55Z</time>
      </trkpt>
      <trkpt lat="43.00674" lon="0.30548">
        <ele>1071.4</ele>
        <time>2026-07-08T07:59:56Z</time>
      </trkpt>
      <trkpt lat="43.00673" lon="0.30548">
        <ele>1071.4</ele>
        <time>2026-07-08T07:59:57Z</time>
      </trkpt>
      <trkpt lat="43.00673" lon="0.30547">
        <ele>1070.4</ele>
        <time>2026-07-08T07:59:58Z</time>
      </trkpt>
      <trkpt lat="43.00673" lon="0.30547">
        <ele>1070.4</ele>
        <time>2026-07-08T07:59:59Z</time>
      </trkpt>
      <trkpt lat="43.00673" lon="0.30547">
        <ele>1070.4</ele>
        <time>2026-07-08T08:00:00Z</time>
      </trkpt>
      <trkpt lat="43.00673" lon="0.30547">
        <ele>1071.4</ele>
        <time>2026-07-08T08:00:00Z</time>
      </trkpt>
      <trkpt lat="43.00672" lon="0.30547">
        <ele>1071.4</ele>
        <time>2026-07-08T08:00:01Z</time>
      </trkpt>
      <trkpt lat="43.00672" lon="0.30547">
        <ele>1071.4</ele>
        <time>2026-07-08T08:00:02Z</time>
      </trkpt>
      <trkpt lat="43.00672" lon="0.30547">
        <ele>1071.4</ele>
        <time>2026-07-08T08:00:03Z</time>
      </trkpt>
      <trkpt lat="43.00672" lon="0.30547">
        <ele>1072.4</ele>
        <time>2026-07-08T08:00:03Z</time>
      </trkpt>
      <trkpt lat="43.00671" lon="0.30546">
        <ele>1072.4</ele>
        <time>2026-07-08T08:00:04Z</time>
      </trkpt>
      <trkpt lat="43.00671" lon="0.30546">
        <ele>1072.4</ele>
        <time>2026-07-08T08:00:05Z</time>
      </trkpt>
      <trkpt lat="43.00671" lon="0.30546">
        <ele>1072.4</ele>
        <time>2026-07-08T08:00:06Z</time>
      </trkpt>
      <trkpt lat="43.00671" lon="0.30546">
        <ele>1072.4</ele>
        <time>2026-07-08T08:00:07Z</time>
      </trkpt>
      <trkpt lat="43.0067" lon="0.30545">
        <ele>1072.4</ele>
        <time>2026-07-08T08:00:07Z</time>
      </trkpt>
      <trkpt lat="43.0067" lon="0.30545">
        <ele>1072.4</ele>
        <time>2026-07-08T08:00:08Z</time>
      </trkpt>
      <trkpt lat="43.0067" lon="0.30544">
        <ele>1072.4</ele>
        <time>2026-07-08T08:00:09Z</time>
      </trkpt>
      <trkpt lat="43.00669" lon="0.30544">
        <ele>1072.4</ele>
        <time>2026-07-08T08:00:09Z</time>
      </trkpt>
      <trkpt lat="43.00669" lon="0.30544">
        <ele>1072.4</ele>
        <time>2026-07-08T08:00:10Z</time>
      </trkpt>
      <trkpt lat="43.00669" lon="0.30543">
        <ele>1072.4</ele>
        <time>2026-07-08T08:00:11Z</time>
      </trkpt>
      <trkpt lat="43.00669" lon="0.30543">
        <ele>1072.4</ele>
        <time>2026-07-08T08:00:12Z</time>
      </trkpt>
      <trkpt lat="43.00668" lon="0.30543">
        <ele>1072.4</ele>
        <time>2026-07-08T08:00:12Z</time>
      </trkpt>
      <trkpt lat="43.00667" lon="0.30542">
        <ele>1072.4</ele>
        <time>2026-07-08T08:00:13Z</time>
      </trkpt>
      <trkpt lat="43.00667" lon="0.30542">
        <ele>1072.4</ele>
        <time>2026-07-08T08:00:14Z</time>
      </trkpt>
      <trkpt lat="43.00667" lon="0.30541">
        <ele>1072.4</ele>
        <time>2026-07-08T08:00:15Z</time>
      </trkpt>
      <trkpt lat="43.00666" lon="0.30541">
        <ele>1072.4</ele>
        <time>2026-07-08T08:00:15Z</time>
      </trkpt>
      <trkpt lat="43.00666" lon="0.3054">
        <ele>1073.4</ele>
        <time>2026-07-08T08:00:16Z</time>
      </trkpt>
      <trkpt lat="43.00666" lon="0.3054">
        <ele>1072.4</ele>
        <time>2026-07-08T08:00:17Z</time>
      </trkpt>
      <trkpt lat="43.00665" lon="0.3054">
        <ele>1072.4</ele>
        <time>2026-07-08T08:00:18Z</time>
      </trkpt>
      <trkpt lat="43.00665" lon="0.30539">
        <ele>1072.4</ele>
        <time>2026-07-08T08:00:19Z</time>
      </trkpt>
      <trkpt lat="43.00664" lon="0.30538">
        <ele>1072.4</ele>
        <time>2026-07-08T08:00:20Z</time>
      </trkpt>
      <trkpt lat="43.00663" lon="0.30537">
        <ele>1072.4</ele>
        <time>2026-07-08T08:00:20Z</time>
      </trkpt>
      <trkpt lat="43.00663" lon="0.30536">
        <ele>1072.4</ele>
        <time>2026-07-08T08:00:21Z</time>
      </trkpt>
      <trkpt lat="43.00662" lon="0.30535">
        <ele>1072.4</ele>
        <time>2026-07-08T08:00:22Z</time>
      </trkpt>
      <trkpt lat="43.00661" lon="0.30534">
        <ele>1073.4</ele>
        <time>2026-07-08T08:00:23Z</time>
      </trkpt>
      <trkpt lat="43.00661" lon="0.30533">
        <ele>1073.4</ele>
        <time>2026-07-08T08:00:24Z</time>
      </trkpt>
      <trkpt lat="43.0066" lon="0.30532">
        <ele>1073.4</ele>
        <time>2026-07-08T08:00:25Z</time>
      </trkpt>
      <trkpt lat="43.0066" lon="0.30532">
        <ele>1074.4</ele>
        <time>2026-07-08T08:00:25Z</time>
      </trkpt>
      <trkpt lat="43.00659" lon="0.3053">
        <ele>1074.4</ele>
        <time>2026-07-08T08:00:26Z</time>
      </trkpt>
      <trkpt lat="43.00659" lon="0.3053">
        <ele>1074.4</ele>
        <time>2026-07-08T08:00:27Z</time>
      </trkpt>
      <trkpt lat="43.00658" lon="0.30529">
        <ele>1074.4</ele>
        <time>2026-07-08T08:00:28Z</time>
      </trkpt>
      <trkpt lat="43.00658" lon="0.30529">
        <ele>1074.4</ele>
        <time>2026-07-08T08:00:29Z</time>
      </trkpt>
      <trkpt lat="43.00658" lon="0.30529">
        <ele>1074.4</ele>
        <time>2026-07-08T08:00:29Z</time>
      </trkpt>
      <trkpt lat="43.00658" lon="0.30528">
        <ele>1074.4</ele>
        <time>2026-07-08T08:00:30Z</time>
      </trkpt>
      <trkpt lat="43.00658" lon="0.30528">
        <ele>1074.4</ele>
        <time>2026-07-08T08:00:31Z</time>
      </trkpt>
      <trkpt lat="43.00657" lon="0.30527">
        <ele>1074.4</ele>
        <time>2026-07-08T08:00:32Z</time>
      </trkpt>
      <trkpt lat="43.00656" lon="0.30526">
        <ele>1074.4</ele>
        <time>2026-07-08T08:00:32Z</time>
      </trkpt>
      <trkpt lat="43.00656" lon="0.30525">
        <ele>1074.4</ele>
        <time>2026-07-08T08:00:33Z</time>
      </trkpt>
      <trkpt lat="43.00655" lon="0.30524">
        <ele>1074.4</ele>
        <time>2026-07-08T08:00:34Z</time>
      </trkpt>
      <trkpt lat="43.00655" lon="0.30524">
        <ele>1075.4</ele>
        <time>2026-07-08T08:00:34Z</time>
      </trkpt>
      <trkpt lat="43.00654" lon="0.30523">
        <ele>1075.4</ele>
        <time>2026-07-08T08:00:35Z</time>
      </trkpt>
      <trkpt lat="43.00654" lon="0.30522">
        <ele>1075.4</ele>
        <time>2026-07-08T08:00:36Z</time>
      </trkpt>
      <trkpt lat="43.00653" lon="0.30521">
        <ele>1075.4</ele>
        <time>2026-07-08T08:00:37Z</time>
      </trkpt>
      <trkpt lat="43.00653" lon="0.3052">
        <ele>1075.4</ele>
        <time>2026-07-08T08:00:37Z</time>
      </trkpt>
      <trkpt lat="43.00652" lon="0.30519">
        <ele>1075.4</ele>
        <time>2026-07-08T08:00:38Z</time>
      </trkpt>
      <trkpt lat="43.00652" lon="0.30519">
        <ele>1075.4</ele>
        <time>2026-07-08T08:00:39Z</time>
      </trkpt>
      <trkpt lat="43.00652" lon="0.30518">
        <ele>1075.4</ele>
        <time>2026-07-08T08:00:40Z</time>
      </trkpt>
      <trkpt lat="43.00652" lon="0.30519">
        <ele>1075.4</ele>
        <time>2026-07-08T08:00:41Z</time>
      </trkpt>
      <trkpt lat="43.00652" lon="0.30519">
        <ele>1075.4</ele>
        <time>2026-07-08T08:00:41Z</time>
      </trkpt>
      <trkpt lat="43.00652" lon="0.30519">
        <ele>1075.4</ele>
        <time>2026-07-08T08:00:42Z</time>
      </trkpt>
      <trkpt lat="43.00652" lon="0.30519">
        <ele>1075.4</ele>
        <time>2026-07-08T08:00:43Z</time>
      </trkpt>
      <trkpt lat="43.00651" lon="0.30518">
        <ele>1075.4</ele>
        <time>2026-07-08T08:00:44Z</time>
      </trkpt>
      <trkpt lat="43.0065" lon="0.30516">
        <ele>1076.4</ele>
        <time>2026-07-08T08:00:45Z</time>
      </trkpt>
      <trkpt lat="43.0065" lon="0.30515">
        <ele>1075.4</ele>
        <time>2026-07-08T08:00:45Z</time>
      </trkpt>
      <trkpt lat="43.00649" lon="0.30514">
        <ele>1075.4</ele>
        <time>2026-07-08T08:00:46Z</time>
      </trkpt>
      <trkpt lat="43.00649" lon="0.30514">
        <ele>1075.4</ele>
        <time>2026-07-08T08:00:47Z</time>
      </trkpt>
      <trkpt lat="43.00648" lon="0.30513">
        <ele>1076.4</ele>
        <time>2026-07-08T08:00:48Z</time>
      </trkpt>
      <trkpt lat="43.00648" lon="0.30513">
        <ele>1076.4</ele>
        <time>2026-07-08T08:00:48Z</time>
      </trkpt>
      <trkpt lat="43.00648" lon="0.30513">
        <ele>1076.4</ele>
        <time>2026-07-08T08:00:49Z</time>
      </trkpt>
      <trkpt lat="43.00648" lon="0.30513">
        <ele>1076.4</ele>
        <time>2026-07-08T08:00:50Z</time>
      </trkpt>
      <trkpt lat="43.00648" lon="0.30512">
        <ele>1076.4</ele>
        <time>2026-07-08T08:00:50Z</time>
      </trkpt>
      <trkpt lat="43.00647" lon="0.30512">
        <ele>1076.4</ele>
        <time>2026-07-08T08:00:51Z</time>
      </trkpt>
      <trkpt lat="43.00647" lon="0.30511">
        <ele>1076.4</ele>
        <time>2026-07-08T08:00:52Z</time>
      </trkpt>
      <trkpt lat="43.00646" lon="0.3051">
        <ele>1076.4</ele>
        <time>2026-07-08T08:00:53Z</time>
      </trkpt>
      <trkpt lat="43.00646" lon="0.3051">
        <ele>1076.4</ele>
        <time>2026-07-08T08:00:54Z</time>
      </trkpt>
      <trkpt lat="43.00645" lon="0.3051">
        <ele>1076.4</ele>
        <time>2026-07-08T08:00:54Z</time>
      </trkpt>
      <trkpt lat="43.00645" lon="0.30509">
        <ele>1077.4</ele>
        <time>2026-07-08T08:00:55Z</time>
      </trkpt>
      <trkpt lat="43.00645" lon="0.3051">
        <ele>1077.4</ele>
        <time>2026-07-08T08:00:56Z</time>
      </trkpt>
      <trkpt lat="43.00645" lon="0.3051">
        <ele>1077.4</ele>
        <time>2026-07-08T08:00:57Z</time>
      </trkpt>
      <trkpt lat="43.00645" lon="0.3051">
        <ele>1077.4</ele>
        <time>2026-07-08T08:00:58Z</time>
      </trkpt>
      <trkpt lat="43.00645" lon="0.3051">
        <ele>1077.4</ele>
        <time>2026-07-08T08:00:59Z</time>
      </trkpt>
      <trkpt lat="43.00645" lon="0.3051">
        <ele>1077.4</ele>
        <time>2026-07-08T08:00:59Z</time>
      </trkpt>
      <trkpt lat="43.00645" lon="0.3051">
        <ele>1077.4</ele>
        <time>2026-07-08T08:01:00Z</time>
      </trkpt>
      <trkpt lat="43.00645" lon="0.3051">
        <ele>1077.4</ele>
        <time>2026-07-08T08:01:01Z</time>
      </trkpt>
      <trkpt lat="43.00645" lon="0.3051">
        <ele>1077.4</ele>
        <time>2026-07-08T08:01:02Z</time>
      </trkpt>
      <trkpt lat="43.00644" lon="0.30509">
        <ele>1077.4</ele>
        <time>2026-07-08T08:01:03Z</time>
      </trkpt>
      <trkpt lat="43.00644" lon="0.30509">
        <ele>1078.4</ele>
        <time>2026-07-08T08:01:04Z</time>
      </trkpt>
      <trkpt lat="43.00643" lon="0.30508">
        <ele>1077.4</ele>
        <time>2026-07-08T08:01:05Z</time>
      </trkpt>
      <trkpt lat="43.00643" lon="0.30508">
        <ele>1079.4</ele>
        <time>2026-07-08T08:01:05Z</time>
      </trkpt>
      <trkpt lat="43.00642" lon="0.30507">
        <ele>1079.4</ele>
        <time>2026-07-08T08:01:06Z</time>
      </trkpt>
      <trkpt lat="43.00642" lon="0.30507">
        <ele>1079.4</ele>
        <time>2026-07-08T08:01:07Z</time>
      </trkpt>
      <trkpt lat="43.00641" lon="0.30506">
        <ele>1079.4</ele>
        <time>2026-07-08T08:01:08Z</time>
      </trkpt>
      <trkpt lat="43.00641" lon="0.30506">
        <ele>1079.4</ele>
        <time>2026-07-08T08:01:09Z</time>
      </trkpt>
      <trkpt lat="43.0064" lon="0.30505">
        <ele>1079.4</ele>
        <time>2026-07-08T08:01:09Z</time>
      </trkpt>
      <trkpt lat="43.0064" lon="0.30506">
        <ele>1079.4</ele>
        <time>2026-07-08T08:01:10Z</time>
      </trkpt>
      <trkpt lat="43.0064" lon="0.30506">
        <ele>1079.4</ele>
        <time>2026-07-08T08:01:11Z</time>
      </trkpt>
      <trkpt lat="43.0064" lon="0.30506">
        <ele>1079.4</ele>
        <time>2026-07-08T08:01:12Z</time>
      </trkpt>
      <trkpt lat="43.0064" lon="0.30506">
        <ele>1080.4</ele>
        <time>2026-07-08T08:01:13Z</time>
      </trkpt>
      <trkpt lat="43.00639" lon="0.30506">
        <ele>1080.4</ele>
        <time>2026-07-08T08:01:14Z</time>
      </trkpt>
      <trkpt lat="43.00639" lon="0.30506">
        <ele>1080.4</ele>
        <time>2026-07-08T08:01:14Z</time>
      </trkpt>
      <trkpt lat="43.00639" lon="0.30506">
        <ele>1080.4</ele>
        <time>2026-07-08T08:01:15Z</time>
      </trkpt>
      <trkpt lat="43.00638" lon="0.30506">
        <ele>1080.4</ele>
        <time>2026-07-08T08:01:16Z</time>
      </trkpt>
      <trkpt lat="43.00638" lon="0.30506">
        <ele>1080.4</ele>
        <time>2026-07-08T08:01:17Z</time>
      </trkpt>
      <trkpt lat="43.00637" lon="0.30506">
        <ele>1080.4</ele>
        <time>2026-07-08T08:01:17Z</time>
      </trkpt>
      <trkpt lat="43.00637" lon="0.30506">
        <ele>1080.4</ele>
        <time>2026-07-08T08:01:18Z</time>
      </trkpt>
      <trkpt lat="43.00637" lon="0.30505">
        <ele>1079.4</ele>
        <time>2026-07-08T08:01:19Z</time>
      </trkpt>
      <trkpt lat="43.00636" lon="0.30505">
        <ele>1080.4</ele>
        <time>2026-07-08T08:01:20Z</time>
      </trkpt>
      <trkpt lat="43.00636" lon="0.30505">
        <ele>1081.4</ele>
        <time>2026-07-08T08:01:20Z</time>
      </trkpt>
      <trkpt lat="43.00635" lon="0.30505">
        <ele>1082.4</ele>
        <time>2026-07-08T08:01:21Z</time>
      </trkpt>
      <trkpt lat="43.00634" lon="0.30505">
        <ele>1082.4</ele>
        <time>2026-07-08T08:01:22Z</time>
      </trkpt>
      <trkpt lat="43.00633" lon="0.30504">
        <ele>1083.4</ele>
        <time>2026-07-08T08:01:22Z</time>
      </trkpt>
      <trkpt lat="43.00632" lon="0.30504">
        <ele>1082.4</ele>
        <time>2026-07-08T08:01:23Z</time>
      </trkpt>
      <trkpt lat="43.00631" lon="0.30503">
        <ele>1082.4</ele>
        <time>2026-07-08T08:01:24Z</time>
      </trkpt>
      <trkpt lat="43.0063" lon="0.30502">
        <ele>1081.4</ele>
        <time>2026-07-08T08:01:24Z</time>
      </trkpt>
      <trkpt lat="43.00629" lon="0.30501">
        <ele>1081.4</ele>
        <time>2026-07-08T08:01:25Z</time>
      </trkpt>
      <trkpt lat="43.00628" lon="0.30501">
        <ele>1081.4</ele>
        <time>2026-07-08T08:01:25Z</time>
      </trkpt>
      <trkpt lat="43.00628" lon="0.305">
        <ele>1081.4</ele>
        <time>2026-07-08T08:01:26Z</time>
      </trkpt>
      <trkpt lat="43.00627" lon="0.305">
        <ele>1081.4</ele>
        <time>2026-07-08T08:01:27Z</time>
      </trkpt>
      <trkpt lat="43.00626" lon="0.30499">
        <ele>1078.4</ele>
        <time>2026-07-08T08:01:27Z</time>
      </trkpt>
      <trkpt lat="43.00626" lon="0.30498">
        <ele>1078.4</ele>
        <time>2026-07-08T08:01:28Z</time>
      </trkpt>
      <trkpt lat="43.00625" lon="0.30497">
        <ele>1078.4</ele>
        <time>2026-07-08T08:01:29Z</time>
      </trkpt>
      <trkpt lat="43.00625" lon="0.30497">
        <ele>1078.4</ele>
        <time>2026-07-08T08:01:29Z</time>
      </trkpt>
      <trkpt lat="43.00624" lon="0.30497">
        <ele>1077.4</ele>
        <time>2026-07-08T08:01:30Z</time>
      </trkpt>
      <trkpt lat="43.00624" lon="0.30496">
        <ele>1077.4</ele>
        <time>2026-07-08T08:01:31Z</time>
      </trkpt>
      <trkpt lat="43.00624" lon="0.30496">
        <ele>1077.4</ele>
        <time>2026-07-08T08:01:32Z</time>
      </trkpt>
      <trkpt lat="43.00624" lon="0.30496">
        <ele>1077.4</ele>
        <time>2026-07-08T08:01:33Z</time>
      </trkpt>
      <trkpt lat="43.00623" lon="0.30495">
        <ele>1077.4</ele>
        <time>2026-07-08T08:01:33Z</time>
      </trkpt>
      <trkpt lat="43.00623" lon="0.30495">
        <ele>1077.4</ele>
        <time>2026-07-08T08:01:34Z</time>
      </trkpt>
      <trkpt lat="43.00623" lon="0.30494">
        <ele>1077.4</ele>
        <time>2026-07-08T08:01:35Z</time>
      </trkpt>
      <trkpt lat="43.00622" lon="0.30494">
        <ele>1077.4</ele>
        <time>2026-07-08T08:01:35Z</time>
      </trkpt>
      <trkpt lat="43.00622" lon="0.30493">
        <ele>1076.4</ele>
        <time>2026-07-08T08:01:36Z</time>
      </trkpt>
      <trkpt lat="43.00622" lon="0.30492">
        <ele>1076.4</ele>
        <time>2026-07-08T08:01:37Z</time>
      </trkpt>
      <trkpt lat="43.00622" lon="0.30492">
        <ele>1076.4</ele>
        <time>2026-07-08T08:01:38Z</time>
      </trkpt>
      <trkpt lat="43.00622" lon="0.30491">
        <ele>1076.4</ele>
        <time>2026-07-08T08:01:38Z</time>
      </trkpt>
      <trkpt lat="43.00622" lon="0.3049">
        <ele>1076.4</ele>
        <time>2026-07-08T08:01:39Z</time>
      </trkpt>
      <trkpt lat="43.00621" lon="0.3049">
        <ele>1076.4</ele>
        <time>2026-07-08T08:01:40Z</time>
      </trkpt>
      <trkpt lat="43.00621" lon="0.30491">
        <ele>1076.4</ele>
        <time>2026-07-08T08:01:40Z</time>
      </trkpt>
      <trkpt lat="43.00621" lon="0.30491">
        <ele>1077.4</ele>
        <time>2026-07-08T08:01:41Z</time>
      </trkpt>
      <trkpt lat="43.00621" lon="0.3049">
        <ele>1077.4</ele>
        <time>2026-07-08T08:01:42Z</time>
      </trkpt>
      <trkpt lat="43.00621" lon="0.3049">
        <ele>1077.4</ele>
        <time>2026-07-08T08:01:43Z</time>
      </trkpt>
      <trkpt lat="43.0062" lon="0.30489">
        <ele>1077.4</ele>
        <time>2026-07-08T08:01:44Z</time>
      </trkpt>
      <trkpt lat="43.0062" lon="0.30488">
        <ele>1077.4</ele>
        <time>2026-07-08T08:01:44Z</time>
      </trkpt>
      <trkpt lat="43.00619" lon="0.30488">
        <ele>1076.4</ele>
        <time>2026-07-08T08:01:45Z</time>
      </trkpt>
      <trkpt lat="43.00619" lon="0.30487">
        <ele>1077.4</ele>
        <time>2026-07-08T08:01:46Z</time>
      </trkpt>
      <trkpt lat="43.00618" lon="0.30486">
        <ele>1077.4</ele>
        <time>2026-07-08T08:01:47Z</time>
      </trkpt>
      <trkpt lat="43.00618" lon="0.30485">
        <ele>1077.4</ele>
        <time>2026-07-08T08:01:48Z</time>
      </trkpt>
      <trkpt lat="43.00618" lon="0.30484">
        <ele>1077.4</ele>
        <time>2026-07-08T08:01:49Z</time>
      </trkpt>
      <trkpt lat="43.00618" lon="0.30484">
        <ele>1077.4</ele>
        <time>2026-07-08T08:01:50Z</time>
      </trkpt>
      <trkpt lat="43.00618" lon="0.30484">
        <ele>1077.4</ele>
        <time>2026-07-08T08:01:51Z</time>
      </trkpt>
      <trkpt lat="43.00617" lon="0.30484">
        <ele>1076.4</ele>
        <time>2026-07-08T08:01:51Z</time>
      </trkpt>
      <trkpt lat="43.00617" lon="0.30484">
        <ele>1077.4</ele>
        <time>2026-07-08T08:01:52Z</time>
      </trkpt>
      <trkpt lat="43.00616" lon="0.30484">
        <ele>1077.4</ele>
        <time>2026-07-08T08:01:53Z</time>
      </trkpt>
      <trkpt lat="43.00616" lon="0.30484">
        <ele>1077.4</ele>
        <time>2026-07-08T08:01:54Z</time>
      </trkpt>
      <trkpt lat="43.00616" lon="0.30484">
        <ele>1077.4</ele>
        <time>2026-07-08T08:01:55Z</time>
      </trkpt>
      <trkpt lat="43.00615" lon="0.30483">
        <ele>1077.4</ele>
        <time>2026-07-08T08:01:55Z</time>
      </trkpt>
      <trkpt lat="43.00615" lon="0.30483">
        <ele>1077.4</ele>
        <time>2026-07-08T08:01:56Z</time>
      </trkpt>
      <trkpt lat="43.00615" lon="0.30483">
        <ele>1077.4</ele>
        <time>2026-07-08T08:01:57Z</time>
      </trkpt>
      <trkpt lat="43.00615" lon="0.30483">
        <ele>1078.4</ele>
        <time>2026-07-08T08:01:57Z</time>
      </trkpt>
      <trkpt lat="43.00615" lon="0.30483">
        <ele>1077.4</ele>
        <time>2026-07-08T08:01:58Z</time>
      </trkpt>
      <trkpt lat="43.00615" lon="0.30482">
        <ele>1077.4</ele>
        <time>2026-07-08T08:01:59Z</time>
      </trkpt>
      <trkpt lat="43.00614" lon="0.30482">
        <ele>1077.4</ele>
        <time>2026-07-08T08:02:00Z</time>
      </trkpt>
      <trkpt lat="43.00614" lon="0.30481">
        <ele>1077.4</ele>
        <time>2026-07-08T08:02:01Z</time>
      </trkpt>
      <trkpt lat="43.00614" lon="0.30481">
        <ele>1077.4</ele>
        <time>2026-07-08T08:02:01Z</time>
      </trkpt>
      <trkpt lat="43.00613" lon="0.3048">
        <ele>1077.4</ele>
        <time>2026-07-08T08:02:02Z</time>
      </trkpt>
      <trkpt lat="43.00613" lon="0.30479">
        <ele>1078.4</ele>
        <time>2026-07-08T08:02:03Z</time>
      </trkpt>
      <trkpt lat="43.00613" lon="0.30478">
        <ele>1078.4</ele>
        <time>2026-07-08T08:02:04Z</time>
      </trkpt>
      <trkpt lat="43.00612" lon="0.30478">
        <ele>1078.4</ele>
        <time>2026-07-08T08:02:05Z</time>
      </trkpt>
      <trkpt lat="43.00612" lon="0.30477">
        <ele>1079.4</ele>
        <time>2026-07-08T08:02:06Z</time>
      </trkpt>
      <trkpt lat="43.00612" lon="0.30477">
        <ele>1080.4</ele>
        <time>2026-07-08T08:02:07Z</time>
      </trkpt>
      <trkpt lat="43.00612" lon="0.30476">
        <ele>1081.4</ele>
        <time>2026-07-08T08:02:07Z</time>
      </trkpt>
      <trkpt lat="43.00611" lon="0.30476">
        <ele>1081.4</ele>
        <time>2026-07-08T08:02:08Z</time>
      </trkpt>
      <trkpt lat="43.00611" lon="0.30476">
        <ele>1081.4</ele>
        <time>2026-07-08T08:02:09Z</time>
      </trkpt>
      <trkpt lat="43.00611" lon="0.30475">
        <ele>1081.4</ele>
        <time>2026-07-08T08:02:10Z</time>
      </trkpt>
      <trkpt lat="43.00611" lon="0.30474">
        <ele>1081.4</ele>
        <time>2026-07-08T08:02:10Z</time>
      </trkpt>
      <trkpt lat="43.0061" lon="0.30473">
        <ele>1081.4</ele>
        <time>2026-07-08T08:02:11Z</time>
      </trkpt>
      <trkpt lat="43.0061" lon="0.30472">
        <ele>1082.4</ele>
        <time>2026-07-08T08:02:12Z</time>
      </trkpt>
      <trkpt lat="43.0061" lon="0.30472">
        <ele>1082.4</ele>
        <time>2026-07-08T08:02:13Z</time>
      </trkpt>
      <trkpt lat="43.00609" lon="0.30472">
        <ele>1082.4</ele>
        <time>2026-07-08T08:02:14Z</time>
      </trkpt>
      <trkpt lat="43.00609" lon="0.30472">
        <ele>1083.4</ele>
        <time>2026-07-08T08:02:15Z</time>
      </trkpt>
      <trkpt lat="43.00609" lon="0.30471">
        <ele>1082.4</ele>
        <time>2026-07-08T08:02:16Z</time>
      </trkpt>
      <trkpt lat="43.00609" lon="0.30471">
        <ele>1082.4</ele>
        <time>2026-07-08T08:02:16Z</time>
      </trkpt>
      <trkpt lat="43.00609" lon="0.30471">
        <ele>1082.4</ele>
        <time>2026-07-08T08:02:17Z</time>
      </trkpt>
      <trkpt lat="43.00609" lon="0.3047">
        <ele>1082.4</ele>
        <time>2026-07-08T08:02:18Z</time>
      </trkpt>
      <trkpt lat="43.00609" lon="0.3047">
        <ele>1082.4</ele>
        <time>2026-07-08T08:02:19Z</time>
      </trkpt>
      <trkpt lat="43.00609" lon="0.3047">
        <ele>1082.4</ele>
        <time>2026-07-08T08:02:20Z</time>
      </trkpt>
      <trkpt lat="43.00608" lon="0.30469">
        <ele>1082.4</ele>
        <time>2026-07-08T08:02:21Z</time>
      </trkpt>
      <trkpt lat="43.00608" lon="0.30468">
        <ele>1082.4</ele>
        <time>2026-07-08T08:02:21Z</time>
      </trkpt>
      <trkpt lat="43.00608" lon="0.30468">
        <ele>1082.4</ele>
        <time>2026-07-08T08:02:22Z</time>
      </trkpt>
      <trkpt lat="43.00608" lon="0.30468">
        <ele>1082.4</ele>
        <time>2026-07-08T08:02:23Z</time>
      </trkpt>
      <trkpt lat="43.00607" lon="0.30467">
        <ele>1082.4</ele>
        <time>2026-07-08T08:02:24Z</time>
      </trkpt>
      <trkpt lat="43.00607" lon="0.30466">
        <ele>1083.4</ele>
        <time>2026-07-08T08:02:25Z</time>
      </trkpt>
      <trkpt lat="43.00607" lon="0.30466">
        <ele>1083.4</ele>
        <time>2026-07-08T08:02:25Z</time>
      </trkpt>
      <trkpt lat="43.00607" lon="0.30466">
        <ele>1083.4</ele>
        <time>2026-07-08T08:02:26Z</time>
      </trkpt>
      <trkpt lat="43.00606" lon="0.30465">
        <ele>1083.4</ele>
        <time>2026-07-08T08:02:27Z</time>
      </trkpt>
      <trkpt lat="43.00606" lon="0.30465">
        <ele>1083.4</ele>
        <time>2026-07-08T08:02:28Z</time>
      </trkpt>
      <trkpt lat="43.00606" lon="0.30465">
        <ele>1083.4</ele>
        <time>2026-07-08T08:02:29Z</time>
      </trkpt>
      <trkpt lat="43.00605" lon="0.30465">
        <ele>1083.4</ele>
        <time>2026-07-08T08:02:30Z</time>
      </trkpt>
      <trkpt lat="43.00605" lon="0.30465">
        <ele>1083.4</ele>
        <time>2026-07-08T08:02:31Z</time>
      </trkpt>
      <trkpt lat="43.00604" lon="0.30464">
        <ele>1084.4</ele>
        <time>2026-07-08T08:02:32Z</time>
      </trkpt>
      <trkpt lat="43.00604" lon="0.30464">
        <ele>1084.4</ele>
        <time>2026-07-08T08:02:32Z</time>
      </trkpt>
      <trkpt lat="43.00603" lon="0.30464">
        <ele>1084.4</ele>
        <time>2026-07-08T08:02:33Z</time>
      </trkpt>
      <trkpt lat="43.00603" lon="0.30463">
        <ele>1084.4</ele>
        <time>2026-07-08T08:02:34Z</time>
      </trkpt>
      <trkpt lat="43.00602" lon="0.30463">
        <ele>1085.4</ele>
        <time>2026-07-08T08:02:35Z</time>
      </trkpt>
      <trkpt lat="43.00601" lon="0.30462">
        <ele>1085.4</ele>
        <time>2026-07-08T08:02:35Z</time>
      </trkpt>
      <trkpt lat="43.006" lon="0.30462">
        <ele>1086.4</ele>
        <time>2026-07-08T08:02:36Z</time>
      </trkpt>
      <trkpt lat="43.00599" lon="0.30462">
        <ele>1086.4</ele>
        <time>2026-07-08T08:02:37Z</time>
      </trkpt>
      <trkpt lat="43.00598" lon="0.30461">
        <ele>1086.4</ele>
        <time>2026-07-08T08:02:38Z</time>
      </trkpt>
      <trkpt lat="43.00597" lon="0.30461">
        <ele>1086.4</ele>
        <time>2026-07-08T08:02:38Z</time>
      </trkpt>
      <trkpt lat="43.00597" lon="0.3046">
        <ele>1086.4</ele>
        <time>2026-07-08T08:02:39Z</time>
      </trkpt>
      <trkpt lat="43.00596" lon="0.30459">
        <ele>1086.4</ele>
        <time>2026-07-08T08:02:40Z</time>
      </trkpt>
      <trkpt lat="43.00596" lon="0.30459">
        <ele>1086.4</ele>
        <time>2026-07-08T08:02:41Z</time>
      </trkpt>
      <trkpt lat="43.00596" lon="0.30459">
        <ele>1086.4</ele>
        <time>2026-07-08T08:02:42Z</time>
      </trkpt>
      <trkpt lat="43.00596" lon="0.30459">
        <ele>1086.4</ele>
        <time>2026-07-08T08:02:42Z</time>
      </trkpt>
      <trkpt lat="43.00595" lon="0.30459">
        <ele>1086.4</ele>
        <time>2026-07-08T08:02:43Z</time>
      </trkpt>
      <trkpt lat="43.00595" lon="0.30459">
        <ele>1087.4</ele>
        <time>2026-07-08T08:02:44Z</time>
      </trkpt>
      <trkpt lat="43.00595" lon="0.30459">
        <ele>1087.4</ele>
        <time>2026-07-08T08:02:45Z</time>
      </trkpt>
      <trkpt lat="43.00595" lon="0.30459">
        <ele>1086.4</ele>
        <time>2026-07-08T08:02:46Z</time>
      </trkpt>
      <trkpt lat="43.00595" lon="0.30459">
        <ele>1086.4</ele>
        <time>2026-07-08T08:02:47Z</time>
      </trkpt>
      <trkpt lat="43.00595" lon="0.30459">
        <ele>1087.4</ele>
        <time>2026-07-08T08:02:48Z</time>
      </trkpt>
      <trkpt lat="43.00594" lon="0.30458">
        <ele>1087.4</ele>
        <time>2026-07-08T08:02:48Z</time>
      </trkpt>
      <trkpt lat="43.00594" lon="0.30458">
        <ele>1087.4</ele>
        <time>2026-07-08T08:02:49Z</time>
      </trkpt>
      <trkpt lat="43.00594" lon="0.30458">
        <ele>1087.4</ele>
        <time>2026-07-08T08:02:50Z</time>
      </trkpt>
      <trkpt lat="43.00593" lon="0.30457">
        <ele>1087.4</ele>
        <time>2026-07-08T08:02:51Z</time>
      </trkpt>
      <trkpt lat="43.00593" lon="0.30457">
        <ele>1087.4</ele>
        <time>2026-07-08T08:02:51Z</time>
      </trkpt>
      <trkpt lat="43.00593" lon="0.30457">
        <ele>1087.4</ele>
        <time>2026-07-08T08:02:52Z</time>
      </trkpt>
      <trkpt lat="43.00593" lon="0.30457">
        <ele>1087.4</ele>
        <time>2026-07-08T08:02:53Z</time>
      </trkpt>
      <trkpt lat="43.00592" lon="0.30456">
        <ele>1086.4</ele>
        <time>2026-07-08T08:02:54Z</time>
      </trkpt>
      <trkpt lat="43.00592" lon="0.30456">
        <ele>1087.4</ele>
        <time>2026-07-08T08:02:54Z</time>
      </trkpt>
      <trkpt lat="43.00591" lon="0.30455">
        <ele>1087.4</ele>
        <time>2026-07-08T08:02:55Z</time>
      </trkpt>
      <trkpt lat="43.0059" lon="0.30454">
        <ele>1087.4</ele>
        <time>2026-07-08T08:02:55Z</time>
      </trkpt>
      <trkpt lat="43.00589" lon="0.30454">
        <ele>1087.4</ele>
        <time>2026-07-08T08:02:56Z</time>
      </trkpt>
      <trkpt lat="43.00588" lon="0.30453">
        <ele>1086.4</ele>
        <time>2026-07-08T08:02:57Z</time>
      </trkpt>
      <trkpt lat="43.00587" lon="0.30452">
        <ele>1087.4</ele>
        <time>2026-07-08T08:02:57Z</time>
      </trkpt>
      <trkpt lat="43.00586" lon="0.30452">
        <ele>1087.4</ele>
        <time>2026-07-08T08:02:58Z</time>
      </trkpt>
      <trkpt lat="43.00586" lon="0.30451">
        <ele>1087.4</ele>
        <time>2026-07-08T08:02:59Z</time>
      </trkpt>
      <trkpt lat="43.00585" lon="0.30451">
        <ele>1087.4</ele>
        <time>2026-07-08T08:02:59Z</time>
      </trkpt>
      <trkpt lat="43.00584" lon="0.3045">
        <ele>1087.4</ele>
        <time>2026-07-08T08:03:00Z</time>
      </trkpt>
      <trkpt lat="43.00584" lon="0.3045">
        <ele>1087.4</ele>
        <time>2026-07-08T08:03:01Z</time>
      </trkpt>
      <trkpt lat="43.00583" lon="0.3045">
        <ele>1087.4</ele>
        <time>2026-07-08T08:03:01Z</time>
      </trkpt>
      <trkpt lat="43.00583" lon="0.30449">
        <ele>1087.4</ele>
        <time>2026-07-08T08:03:02Z</time>
      </trkpt>
      <trkpt lat="43.00582" lon="0.30449">
        <ele>1087.4</ele>
        <time>2026-07-08T08:03:02Z</time>
      </trkpt>
      <trkpt lat="43.00582" lon="0.30449">
        <ele>1086.4</ele>
        <time>2026-07-08T08:03:03Z</time>
      </trkpt>
      <trkpt lat="43.00581" lon="0.30448">
        <ele>1086.4</ele>
        <time>2026-07-08T08:03:04Z</time>
      </trkpt>
      <trkpt lat="43.00581" lon="0.30448">
        <ele>1087.4</ele>
        <time>2026-07-08T08:03:04Z</time>
      </trkpt>
      <trkpt lat="43.0058" lon="0.30448">
        <ele>1086.4</ele>
        <time>2026-07-08T08:03:05Z</time>
      </trkpt>
      <trkpt lat="43.00579" lon="0.30447">
        <ele>1086.4</ele>
        <time>2026-07-08T08:03:06Z</time>
      </trkpt>
      <trkpt lat="43.00579" lon="0.30447">
        <ele>1087.4</ele>
        <time>2026-07-08T08:03:07Z</time>
      </trkpt>
      <trkpt lat="43.00578" lon="0.30447">
        <ele>1087.4</ele>
        <time>2026-07-08T08:03:07Z</time>
      </trkpt>
      <trkpt lat="43.00578" lon="0.30447">
        <ele>1086.4</ele>
        <time>2026-07-08T08:03:08Z</time>
      </trkpt>
      <trkpt lat="43.00577" lon="0.30446">
        <ele>1086.4</ele>
        <time>2026-07-08T08:03:09Z</time>
      </trkpt>
      <trkpt lat="43.00577" lon="0.30446">
        <ele>1086.4</ele>
        <time>2026-07-08T08:03:10Z</time>
      </trkpt>
      <trkpt lat="43.00576" lon="0.30446">
        <ele>1087.4</ele>
        <time>2026-07-08T08:03:10Z</time>
      </trkpt>
      <trkpt lat="43.00576" lon="0.30446">
        <ele>1087.4</ele>
        <time>2026-07-08T08:03:11Z</time>
      </trkpt>
      <trkpt lat="43.00576" lon="0.30446">
        <ele>1087.4</ele>
        <time>2026-07-08T08:03:12Z</time>
      </trkpt>
      <trkpt lat="43.00576" lon="0.30446">
        <ele>1087.4</ele>
        <time>2026-07-08T08:03:13Z</time>
      </trkpt>
      <trkpt lat="43.00576" lon="0.30446">
        <ele>1087.4</ele>
        <time>2026-07-08T08:03:13Z</time>
      </trkpt>
      <trkpt lat="43.00576" lon="0.30446">
        <ele>1087.4</ele>
        <time>2026-07-08T08:03:14Z</time>
      </trkpt>
      <trkpt lat="43.00576" lon="0.30446">
        <ele>1087.4</ele>
        <time>2026-07-08T08:03:15Z</time>
      </trkpt>
      <trkpt lat="43.00576" lon="0.30446">
        <ele>1087.4</ele>
        <time>2026-07-08T08:03:16Z</time>
      </trkpt>
      <trkpt lat="43.00576" lon="0.30446">
        <ele>1086.4</ele>
        <time>2026-07-08T08:03:16Z</time>
      </trkpt>
      <trkpt lat="43.00576" lon="0.30446">
        <ele>1087.4</ele>
        <time>2026-07-08T08:03:17Z</time>
      </trkpt>
      <trkpt lat="43.00575" lon="0.30446">
        <ele>1087.4</ele>
        <time>2026-07-08T08:03:18Z</time>
      </trkpt>
      <trkpt lat="43.00575" lon="0.30446">
        <ele>1087.4</ele>
        <time>2026-07-08T08:03:19Z</time>
      </trkpt>
      <trkpt lat="43.00575" lon="0.30446">
        <ele>1086.4</ele>
        <time>2026-07-08T08:03:20Z</time>
      </trkpt>
      <trkpt lat="43.00574" lon="0.30446">
        <ele>1087.4</ele>
        <time>2026-07-08T08:03:21Z</time>
      </trkpt>
      <trkpt lat="43.00574" lon="0.30445">
        <ele>1087.4</ele>
        <time>2026-07-08T08:03:21Z</time>
      </trkpt>
      <trkpt lat="43.00574" lon="0.30445">
        <ele>1087.4</ele>
        <time>2026-07-08T08:03:22Z</time>
      </trkpt>
      <trkpt lat="43.00573" lon="0.30445">
        <ele>1087.4</ele>
        <time>2026-07-08T08:03:23Z</time>
      </trkpt>
      <trkpt lat="43.00573" lon="0.30445">
        <ele>1087.4</ele>
        <time>2026-07-08T08:03:24Z</time>
      </trkpt>
      <trkpt lat="43.00573" lon="0.30445">
        <ele>1087.4</ele>
        <time>2026-07-08T08:03:25Z</time>
      </trkpt>
      <trkpt lat="43.00573" lon="0.30445">
        <ele>1088.4</ele>
        <time>2026-07-08T08:03:26Z</time>
      </trkpt>
      <trkpt lat="43.00572" lon="0.30445">
        <ele>1088.4</ele>
        <time>2026-07-08T08:03:26Z</time>
      </trkpt>
      <trkpt lat="43.00572" lon="0.30445">
        <ele>1088.4</ele>
        <time>2026-07-08T08:03:27Z</time>
      </trkpt>
      <trkpt lat="43.00572" lon="0.30445">
        <ele>1088.4</ele>
        <time>2026-07-08T08:03:28Z</time>
      </trkpt>
      <trkpt lat="43.00571" lon="0.30446">
        <ele>1088.4</ele>
        <time>2026-07-08T08:03:29Z</time>
      </trkpt>
      <trkpt lat="43.0057" lon="0.30446">
        <ele>1088.4</ele>
        <time>2026-07-08T08:03:30Z</time>
      </trkpt>
      <trkpt lat="43.0057" lon="0.30446">
        <ele>1087.4</ele>
        <time>2026-07-08T08:03:30Z</time>
      </trkpt>
      <trkpt lat="43.00569" lon="0.30446">
        <ele>1087.4</ele>
        <time>2026-07-08T08:03:31Z</time>
      </trkpt>
      <trkpt lat="43.00569" lon="0.30446">
        <ele>1087.4</ele>
        <time>2026-07-08T08:03:32Z</time>
      </trkpt>
      <trkpt lat="43.00569" lon="0.30446">
        <ele>1087.4</ele>
        <time>2026-07-08T08:03:33Z</time>
      </trkpt>
      <trkpt lat="43.00568" lon="0.30446">
        <ele>1088.4</ele>
        <time>2026-07-08T08:03:33Z</time>
      </trkpt>
      <trkpt lat="43.00567" lon="0.30446">
        <ele>1089.4</ele>
        <time>2026-07-08T08:03:34Z</time>
      </trkpt>
      <trkpt lat="43.00566" lon="0.30447">
        <ele>1089.4</ele>
        <time>2026-07-08T08:03:35Z</time>
      </trkpt>
      <trkpt lat="43.00566" lon="0.30447">
        <ele>1090.4</ele>
        <time>2026-07-08T08:03:36Z</time>
      </trkpt>
      <trkpt lat="43.00565" lon="0.30447">
        <ele>1090.4</ele>
        <time>2026-07-08T08:03:37Z</time>
      </trkpt>
      <trkpt lat="43.00564" lon="0.30447">
        <ele>1090.4</ele>
        <time>2026-07-08T08:03:37Z</time>
      </trkpt>
      <trkpt lat="43.00563" lon="0.30447">
        <ele>1090.4</ele>
        <time>2026-07-08T08:03:38Z</time>
      </trkpt>
      <trkpt lat="43.00563" lon="0.30447">
        <ele>1090.4</ele>
        <time>2026-07-08T08:03:39Z</time>
      </trkpt>
      <trkpt lat="43.00562" lon="0.30446">
        <ele>1092.4</ele>
        <time>2026-07-08T08:03:40Z</time>
      </trkpt>
      <trkpt lat="43.00562" lon="0.30446">
        <ele>1092.4</ele>
        <time>2026-07-08T08:03:40Z</time>
      </trkpt>
      <trkpt lat="43.00561" lon="0.30446">
        <ele>1092.4</ele>
        <time>2026-07-08T08:03:41Z</time>
      </trkpt>
      <trkpt lat="43.00561" lon="0.30446">
        <ele>1092.4</ele>
        <time>2026-07-08T08:03:42Z</time>
      </trkpt>
      <trkpt lat="43.00561" lon="0.30446">
        <ele>1092.4</ele>
        <time>2026-07-08T08:03:43Z</time>
      </trkpt>
      <trkpt lat="43.0056" lon="0.30446">
        <ele>1092.4</ele>
        <time>2026-07-08T08:03:44Z</time>
      </trkpt>
      <trkpt lat="43.0056" lon="0.30446">
        <ele>1092.4</ele>
        <time>2026-07-08T08:03:44Z</time>
      </trkpt>
      <trkpt lat="43.0056" lon="0.30446">
        <ele>1093.4</ele>
        <time>2026-07-08T08:03:45Z</time>
      </trkpt>
      <trkpt lat="43.0056" lon="0.30446">
        <ele>1093.4</ele>
        <time>2026-07-08T08:03:46Z</time>
      </trkpt>
      <trkpt lat="43.00559" lon="0.30446">
        <ele>1095.4</ele>
        <time>2026-07-08T08:03:47Z</time>
      </trkpt>
      <trkpt lat="43.00559" lon="0.30446">
        <ele>1095.4</ele>
        <time>2026-07-08T08:03:48Z</time>
      </trkpt>
      <trkpt lat="43.00559" lon="0.30446">
        <ele>1095.4</ele>
        <time>2026-07-08T08:03:49Z</time>
      </trkpt>
      <trkpt lat="43.00558" lon="0.30445">
        <ele>1095.4</ele>
        <time>2026-07-08T08:03:50Z</time>
      </trkpt>
      <trkpt lat="43.00558" lon="0.30445">
        <ele>1095.4</ele>
        <time>2026-07-08T08:03:51Z</time>
      </trkpt>
      <trkpt lat="43.00557" lon="0.30445">
        <ele>1096.4</ele>
        <time>2026-07-08T08:03:51Z</time>
      </trkpt>
      <trkpt lat="43.00557" lon="0.30445">
        <ele>1096.4</ele>
        <time>2026-07-08T08:03:52Z</time>
      </trkpt>
      <trkpt lat="43.00556" lon="0.30445">
        <ele>1096.4</ele>
        <time>2026-07-08T08:03:53Z</time>
      </trkpt>
      <trkpt lat="43.00556" lon="0.30445">
        <ele>1096.4</ele>
        <time>2026-07-08T08:03:54Z</time>
      </trkpt>
      <trkpt lat="43.00555" lon="0.30444">
        <ele>1097.4</ele>
        <time>2026-07-08T08:03:55Z</time>
      </trkpt>
      <trkpt lat="43.00555" lon="0.30444">
        <ele>1097.4</ele>
        <time>2026-07-08T08:03:56Z</time>
      </trkpt>
      <trkpt lat="43.00554" lon="0.30444">
        <ele>1097.4</ele>
        <time>2026-07-08T08:03:57Z</time>
      </trkpt>
      <trkpt lat="43.00554" lon="0.30444">
        <ele>1096.4</ele>
        <time>2026-07-08T08:03:57Z</time>
      </trkpt>
      <trkpt lat="43.00554" lon="0.30444">
        <ele>1096.4</ele>
        <time>2026-07-08T08:03:57Z</time>
      </trkpt>
      <trkpt lat="43.00553" lon="0.30444">
        <ele>1096.4</ele>
        <time>2026-07-08T08:03:58Z</time>
      </trkpt>
      <trkpt lat="43.00553" lon="0.30444">
        <ele>1096.4</ele>
        <time>2026-07-08T08:03:59Z</time>
      </trkpt>
      <trkpt lat="43.00552" lon="0.30444">
        <ele>1096.4</ele>
        <time>2026-07-08T08:04:00Z</time>
      </trkpt>
      <trkpt lat="43.00552" lon="0.30445">
        <ele>1097.4</ele>
        <time>2026-07-08T08:04:01Z</time>
      </trkpt>
      <trkpt lat="43.00552" lon="0.30445">
        <ele>1096.4</ele>
        <time>2026-07-08T08:04:02Z</time>
      </trkpt>
      <trkpt lat="43.00551" lon="0.30445">
        <ele>1096.4</ele>
        <time>2026-07-08T08:04:03Z</time>
      </trkpt>
      <trkpt lat="43.00551" lon="0.30445">
        <ele>1096.4</ele>
        <time>2026-07-08T08:04:04Z</time>
      </trkpt>
      <trkpt lat="43.0055" lon="0.30445">
        <ele>1096.4</ele>
        <time>2026-07-08T08:04:05Z</time>
      </trkpt>
      <trkpt lat="43.0055" lon="0.30445">
        <ele>1096.4</ele>
        <time>2026-07-08T08:04:06Z</time>
      </trkpt>
      <trkpt lat="43.00549" lon="0.30445">
        <ele>1096.4</ele>
        <time>2026-07-08T08:04:07Z</time>
      </trkpt>
      <trkpt lat="43.00549" lon="0.30445">
        <ele>1096.4</ele>
        <time>2026-07-08T08:04:08Z</time>
      </trkpt>
      <trkpt lat="43.00549" lon="0.30445">
        <ele>1095.4</ele>
        <time>2026-07-08T08:04:08Z</time>
      </trkpt>
      <trkpt lat="43.00548" lon="0.30445">
        <ele>1095.4</ele>
        <time>2026-07-08T08:04:09Z</time>
      </trkpt>
      <trkpt lat="43.00548" lon="0.30445">
        <ele>1095.4</ele>
        <time>2026-07-08T08:04:10Z</time>
      </trkpt>
      <trkpt lat="43.00548" lon="0.30445">
        <ele>1095.4</ele>
        <time>2026-07-08T08:04:11Z</time>
      </trkpt>
      <trkpt lat="43.00548" lon="0.30445">
        <ele>1096.4</ele>
        <time>2026-07-08T08:04:11Z</time>
      </trkpt>
      <trkpt lat="43.00547" lon="0.30445">
        <ele>1096.4</ele>
        <time>2026-07-08T08:04:12Z</time>
      </trkpt>
      <trkpt lat="43.00547" lon="0.30446">
        <ele>1095.4</ele>
        <time>2026-07-08T08:04:12Z</time>
      </trkpt>
      <trkpt lat="43.00547" lon="0.30446">
        <ele>1095.4</ele>
        <time>2026-07-08T08:04:13Z</time>
      </trkpt>
      <trkpt lat="43.00547" lon="0.30446">
        <ele>1095.4</ele>
        <time>2026-07-08T08:04:14Z</time>
      </trkpt>
      <trkpt lat="43.00546" lon="0.30446">
        <ele>1095.4</ele>
        <time>2026-07-08T08:04:15Z</time>
      </trkpt>
      <trkpt lat="43.00546" lon="0.30445">
        <ele>1095.4</ele>
        <time>2026-07-08T08:04:15Z</time>
      </trkpt>
      <trkpt lat="43.00546" lon="0.30445">
        <ele>1095.4</ele>
        <time>2026-07-08T08:04:16Z</time>
      </trkpt>
      <trkpt lat="43.00545" lon="0.30445">
        <ele>1094.4</ele>
        <time>2026-07-08T08:04:16Z</time>
      </trkpt>
      <trkpt lat="43.00545" lon="0.30444">
        <ele>1094.4</ele>
        <time>2026-07-08T08:04:17Z</time>
      </trkpt>
      <trkpt lat="43.00545" lon="0.30443">
        <ele>1094.4</ele>
        <time>2026-07-08T08:04:17Z</time>
      </trkpt>
      <trkpt lat="43.00544" lon="0.30442">
        <ele>1095.4</ele>
        <time>2026-07-08T08:04:18Z</time>
      </trkpt>
      <trkpt lat="43.00544" lon="0.3044">
        <ele>1095.4</ele>
        <time>2026-07-08T08:04:19Z</time>
      </trkpt>
      <trkpt lat="43.00543" lon="0.30439">
        <ele>1095.4</ele>
        <time>2026-07-08T08:04:19Z</time>
      </trkpt>
      <trkpt lat="43.00542" lon="0.30438">
        <ele>1095.4</ele>
        <time>2026-07-08T08:04:20Z</time>
      </trkpt>
      <trkpt lat="43.00541" lon="0.30437">
        <ele>1095.4</ele>
        <time>2026-07-08T08:04:21Z</time>
      </trkpt>
      <trkpt lat="43.0054" lon="0.30436">
        <ele>1095.4</ele>
        <time>2026-07-08T08:04:22Z</time>
      </trkpt>
      <trkpt lat="43.00539" lon="0.30436">
        <ele>1095.4</ele>
        <time>2026-07-08T08:04:23Z</time>
      </trkpt>
      <trkpt lat="43.00538" lon="0.30436">
        <ele>1095.4</ele>
        <time>2026-07-08T08:04:24Z</time>
      </trkpt>
      <trkpt lat="43.00538" lon="0.30435">
        <ele>1095.4</ele>
        <time>2026-07-08T08:04:24Z</time>
      </trkpt>
      <trkpt lat="43.00537" lon="0.30435">
        <ele>1095.4</ele>
        <time>2026-07-08T08:04:25Z</time>
      </trkpt>
      <trkpt lat="43.00536" lon="0.30434">
        <ele>1095.4</ele>
        <time>2026-07-08T08:04:26Z</time>
      </trkpt>
      <trkpt lat="43.00536" lon="0.30434">
        <ele>1094.4</ele>
        <time>2026-07-08T08:04:26Z</time>
      </trkpt>
      <trkpt lat="43.00535" lon="0.30434">
        <ele>1094.4</ele>
        <time>2026-07-08T08:04:27Z</time>
      </trkpt>
      <trkpt lat="43.00534" lon="0.30434">
        <ele>1094.4</ele>
        <time>2026-07-08T08:04:28Z</time>
      </trkpt>
      <trkpt lat="43.00533" lon="0.30434">
        <ele>1094.4</ele>
        <time>2026-07-08T08:04:29Z</time>
      </trkpt>
      <trkpt lat="43.00532" lon="0.30435">
        <ele>1094.4</ele>
        <time>2026-07-08T08:04:29Z</time>
      </trkpt>
      <trkpt lat="43.00531" lon="0.30435">
        <ele>1094.4</ele>
        <time>2026-07-08T08:04:30Z</time>
      </trkpt>
      <trkpt lat="43.0053" lon="0.30435">
        <ele>1095.4</ele>
        <time>2026-07-08T08:04:30Z</time>
      </trkpt>
      <trkpt lat="43.0053" lon="0.30435">
        <ele>1095.4</ele>
        <time>2026-07-08T08:04:31Z</time>
      </trkpt>
      <trkpt lat="43.00529" lon="0.30435">
        <ele>1095.4</ele>
        <time>2026-07-08T08:04:31Z</time>
      </trkpt>
      <trkpt lat="43.00528" lon="0.30435">
        <ele>1095.4</ele>
        <time>2026-07-08T08:04:32Z</time>
      </trkpt>
      <trkpt lat="43.00528" lon="0.30435">
        <ele>1095.4</ele>
        <time>2026-07-08T08:04:33Z</time>
      </trkpt>
      <trkpt lat="43.00527" lon="0.30435">
        <ele>1095.4</ele>
        <time>2026-07-08T08:04:33Z</time>
      </trkpt>
      <trkpt lat="43.00527" lon="0.30435">
        <ele>1095.4</ele>
        <time>2026-07-08T08:04:34Z</time>
      </trkpt>
      <trkpt lat="43.00526" lon="0.30434">
        <ele>1095.4</ele>
        <time>2026-07-08T08:04:35Z</time>
      </trkpt>
      <trkpt lat="43.00525" lon="0.30434">
        <ele>1095.4</ele>
        <time>2026-07-08T08:04:35Z</time>
      </trkpt>
      <trkpt lat="43.00525" lon="0.30433">
        <ele>1095.4</ele>
        <time>2026-07-08T08:04:36Z</time>
      </trkpt>
      <trkpt lat="43.00525" lon="0.30432">
        <ele>1095.4</ele>
        <time>2026-07-08T08:04:36Z</time>
      </trkpt>
      <trkpt lat="43.00524" lon="0.30432">
        <ele>1094.4</ele>
        <time>2026-07-08T08:04:37Z</time>
      </trkpt>
      <trkpt lat="43.00524" lon="0.30431">
        <ele>1094.4</ele>
        <time>2026-07-08T08:04:38Z</time>
      </trkpt>
      <trkpt lat="43.00524" lon="0.3043">
        <ele>1094.4</ele>
        <time>2026-07-08T08:04:38Z</time>
      </trkpt>
      <trkpt lat="43.00524" lon="0.3043">
        <ele>1094.4</ele>
        <time>2026-07-08T08:04:39Z</time>
      </trkpt>
      <trkpt lat="43.00523" lon="0.30429">
        <ele>1093.4</ele>
        <time>2026-07-08T08:04:40Z</time>
      </trkpt>
      <trkpt lat="43.00523" lon="0.30428">
        <ele>1092.4</ele>
        <time>2026-07-08T08:04:40Z</time>
      </trkpt>
      <trkpt lat="43.00522" lon="0.30428">
        <ele>1092.4</ele>
        <time>2026-07-08T08:04:41Z</time>
      </trkpt>
      <trkpt lat="43.00522" lon="0.30428">
        <ele>1092.4</ele>
        <time>2026-07-08T08:04:42Z</time>
      </trkpt>
      <trkpt lat="43.00522" lon="0.30427">
        <ele>1092.4</ele>
        <time>2026-07-08T08:04:42Z</time>
      </trkpt>
      <trkpt lat="43.00522" lon="0.30427">
        <ele>1091.4</ele>
        <time>2026-07-08T08:04:43Z</time>
      </trkpt>
      <trkpt lat="43.00521" lon="0.30427">
        <ele>1091.4</ele>
        <time>2026-07-08T08:04:44Z</time>
      </trkpt>
      <trkpt lat="43.00521" lon="0.30427">
        <ele>1091.4</ele>
        <time>2026-07-08T08:04:45Z</time>
      </trkpt>
      <trkpt lat="43.00521" lon="0.30427">
        <ele>1092.4</ele>
        <time>2026-07-08T08:04:46Z</time>
      </trkpt>
      <trkpt lat="43.00521" lon="0.30427">
        <ele>1092.4</ele>
        <time>2026-07-08T08:04:47Z</time>
      </trkpt>
      <trkpt lat="43.00521" lon="0.30427">
        <ele>1092.4</ele>
        <time>2026-07-08T08:04:48Z</time>
      </trkpt>
      <trkpt lat="43.00521" lon="0.30427">
        <ele>1094.4</ele>
        <time>2026-07-08T08:04:48Z</time>
      </trkpt>
      <trkpt lat="43.00521" lon="0.30427">
        <ele>1094.4</ele>
        <time>2026-07-08T08:04:49Z</time>
      </trkpt>
      <trkpt lat="43.00521" lon="0.30427">
        <ele>1094.4</ele>
        <time>2026-07-08T08:04:49Z</time>
      </trkpt>
      <trkpt lat="43.00521" lon="0.30426">
        <ele>1094.4</ele>
        <time>2026-07-08T08:04:50Z</time>
      </trkpt>
      <trkpt lat="43.00521" lon="0.30426">
        <ele>1094.4</ele>
        <time>2026-07-08T08:04:51Z</time>
      </trkpt>
      <trkpt lat="43.00521" lon="0.30426">
        <ele>1093.4</ele>
        <time>2026-07-08T08:04:51Z</time>
      </trkpt>
      <trkpt lat="43.00521" lon="0.30425">
        <ele>1093.4</ele>
        <time>2026-07-08T08:04:52Z</time>
      </trkpt>
      <trkpt lat="43.0052" lon="0.30424">
        <ele>1092.4</ele>
        <time>2026-07-08T08:04:53Z</time>
      </trkpt>
      <trkpt lat="43.0052" lon="0.30423">
        <ele>1092.4</ele>
        <time>2026-07-08T08:04:53Z</time>
      </trkpt>
      <trkpt lat="43.00519" lon="0.30422">
        <ele>1093.4</ele>
        <time>2026-07-08T08:04:54Z</time>
      </trkpt>
      <trkpt lat="43.00518" lon="0.30421">
        <ele>1092.4</ele>
        <time>2026-07-08T08:04:54Z</time>
      </trkpt>
      <trkpt lat="43.00518" lon="0.3042">
        <ele>1092.4</ele>
        <time>2026-07-08T08:04:55Z</time>
      </trkpt>
      <trkpt lat="43.00517" lon="0.3042">
        <ele>1092.4</ele>
        <time>2026-07-08T08:04:55Z</time>
      </trkpt>
      <trkpt lat="43.00517" lon="0.30419">
        <ele>1092.4</ele>
        <time>2026-07-08T08:04:56Z</time>
      </trkpt>
      <trkpt lat="43.00515" lon="0.30418">
        <ele>1091.4</ele>
        <time>2026-07-08T08:04:57Z</time>
      </trkpt>
      <trkpt lat="43.00514" lon="0.30418">
        <ele>1091.4</ele>
        <time>2026-07-08T08:04:58Z</time>
      </trkpt>
      <trkpt lat="43.00514" lon="0.30418">
        <ele>1091.4</ele>
        <time>2026-07-08T08:04:58Z</time>
      </trkpt>
      <trkpt lat="43.00513" lon="0.30417">
        <ele>1091.4</ele>
        <time>2026-07-08T08:04:59Z</time>
      </trkpt>
      <trkpt lat="43.00512" lon="0.30417">
        <ele>1091.4</ele>
        <time>2026-07-08T08:04:59Z</time>
      </trkpt>
      <trkpt lat="43.00512" lon="0.30417">
        <ele>1091.4</ele>
        <time>2026-07-08T08:05:00Z</time>
      </trkpt>
      <trkpt lat="43.00511" lon="0.30416">
        <ele>1091.4</ele>
        <time>2026-07-08T08:05:01Z</time>
      </trkpt>
      <trkpt lat="43.00511" lon="0.30416">
        <ele>1091.4</ele>
        <time>2026-07-08T08:05:01Z</time>
      </trkpt>
      <trkpt lat="43.0051" lon="0.30415">
        <ele>1092.4</ele>
        <time>2026-07-08T08:05:02Z</time>
      </trkpt>
      <trkpt lat="43.0051" lon="0.30415">
        <ele>1092.4</ele>
        <time>2026-07-08T08:05:03Z</time>
      </trkpt>
      <trkpt lat="43.00509" lon="0.30414">
        <ele>1092.4</ele>
        <time>2026-07-08T08:05:04Z</time>
      </trkpt>
      <trkpt lat="43.00509" lon="0.30414">
        <ele>1093.4</ele>
        <time>2026-07-08T08:05:04Z</time>
      </trkpt>
      <trkpt lat="43.00509" lon="0.30414">
        <ele>1093.4</ele>
        <time>2026-07-08T08:05:05Z</time>
      </trkpt>
      <trkpt lat="43.00508" lon="0.30414">
        <ele>1093.4</ele>
        <time>2026-07-08T08:05:06Z</time>
      </trkpt>
      <trkpt lat="43.00508" lon="0.30414">
        <ele>1092.4</ele>
        <time>2026-07-08T08:05:06Z</time>
      </trkpt>
      <trkpt lat="43.00508" lon="0.30414">
        <ele>1092.4</ele>
        <time>2026-07-08T08:05:07Z</time>
      </trkpt>
      <trkpt lat="43.00508" lon="0.30415">
        <ele>1092.4</ele>
        <time>2026-07-08T08:05:08Z</time>
      </trkpt>
      <trkpt lat="43.00509" lon="0.30415">
        <ele>1093.4</ele>
        <time>2026-07-08T08:05:09Z</time>
      </trkpt>
      <trkpt lat="43.00509" lon="0.30415">
        <ele>1093.4</ele>
        <time>2026-07-08T08:05:10Z</time>
      </trkpt>
      <trkpt lat="43.00509" lon="0.30415">
        <ele>1093.4</ele>
        <time>2026-07-08T08:05:11Z</time>
      </trkpt>
      <trkpt lat="43.00509" lon="0.30415">
        <ele>1092.4</ele>
        <time>2026-07-08T08:05:12Z</time>
      </trkpt>
      <trkpt lat="43.00509" lon="0.30414">
        <ele>1093.4</ele>
        <time>2026-07-08T08:05:12Z</time>
      </trkpt>
      <trkpt lat="43.00509" lon="0.30414">
        <ele>1092.4</ele>
        <time>2026-07-08T08:05:13Z</time>
      </trkpt>
      <trkpt lat="43.00508" lon="0.30414">
        <ele>1091.4</ele>
        <time>2026-07-08T08:05:14Z</time>
      </trkpt>
      <trkpt lat="43.00508" lon="0.30414">
        <ele>1091.4</ele>
        <time>2026-07-08T08:05:15Z</time>
      </trkpt>
      <trkpt lat="43.00508" lon="0.30414">
        <ele>1091.4</ele>
        <time>2026-07-08T08:05:16Z</time>
      </trkpt>
      <trkpt lat="43.00508" lon="0.30414">
        <ele>1092.4</ele>
        <time>2026-07-08T08:05:17Z</time>
      </trkpt>
      <trkpt lat="43.00508" lon="0.30414">
        <ele>1091.4</ele>
        <time>2026-07-08T08:05:17Z</time>
      </trkpt>
      <trkpt lat="43.00508" lon="0.30414">
        <ele>1091.4</ele>
        <time>2026-07-08T08:05:18Z</time>
      </trkpt>
      <trkpt lat="43.00507" lon="0.30414">
        <ele>1091.4</ele>
        <time>2026-07-08T08:05:19Z</time>
      </trkpt>
      <trkpt lat="43.00507" lon="0.30413">
        <ele>1091.4</ele>
        <time>2026-07-08T08:05:20Z</time>
      </trkpt>
      <trkpt lat="43.00507" lon="0.30413">
        <ele>1092.4</ele>
        <time>2026-07-08T08:05:20Z</time>
      </trkpt>
      <trkpt lat="43.00507" lon="0.30413">
        <ele>1092.4</ele>
        <time>2026-07-08T08:05:21Z</time>
      </trkpt>
      <trkpt lat="43.00506" lon="0.30413">
        <ele>1092.4</ele>
        <time>2026-07-08T08:05:22Z</time>
      </trkpt>
      <trkpt lat="43.00506" lon="0.30412">
        <ele>1092.4</ele>
        <time>2026-07-08T08:05:23Z</time>
      </trkpt>
      <trkpt lat="43.00505" lon="0.30412">
        <ele>1093.4</ele>
        <time>2026-07-08T08:05:24Z</time>
      </trkpt>
      <trkpt lat="43.00505" lon="0.30411">
        <ele>1093.4</ele>
        <time>2026-07-08T08:05:24Z</time>
      </trkpt>
      <trkpt lat="43.00504" lon="0.3041">
        <ele>1093.4</ele>
        <time>2026-07-08T08:05:25Z</time>
      </trkpt>
      <trkpt lat="43.00504" lon="0.3041">
        <ele>1093.4</ele>
        <time>2026-07-08T08:05:26Z</time>
      </trkpt>
      <trkpt lat="43.00504" lon="0.3041">
        <ele>1093.4</ele>
        <time>2026-07-08T08:05:27Z</time>
      </trkpt>
      <trkpt lat="43.00504" lon="0.30409">
        <ele>1094.4</ele>
        <time>2026-07-08T08:05:27Z</time>
      </trkpt>
      <trkpt lat="43.00503" lon="0.30408">
        <ele>1094.4</ele>
        <time>2026-07-08T08:05:28Z</time>
      </trkpt>
      <trkpt lat="43.00503" lon="0.30408">
        <ele>1094.4</ele>
        <time>2026-07-08T08:05:29Z</time>
      </trkpt>
      <trkpt lat="43.00502" lon="0.30407">
        <ele>1094.4</ele>
        <time>2026-07-08T08:05:30Z</time>
      </trkpt>
      <trkpt lat="43.00502" lon="0.30405">
        <ele>1094.4</ele>
        <time>2026-07-08T08:05:30Z</time>
      </trkpt>
      <trkpt lat="43.00501" lon="0.30404">
        <ele>1093.4</ele>
        <time>2026-07-08T08:05:31Z</time>
      </trkpt>
      <trkpt lat="43.00501" lon="0.30403">
        <ele>1093.4</ele>
        <time>2026-07-08T08:05:32Z</time>
      </trkpt>
      <trkpt lat="43.005" lon="0.30402">
        <ele>1094.4</ele>
        <time>2026-07-08T08:05:32Z</time>
      </trkpt>
      <trkpt lat="43.005" lon="0.30401">
        <ele>1094.4</ele>
        <time>2026-07-08T08:05:33Z</time>
      </trkpt>
      <trkpt lat="43.00499" lon="0.304">
        <ele>1094.4</ele>
        <time>2026-07-08T08:05:34Z</time>
      </trkpt>
      <trkpt lat="43.00498" lon="0.30399">
        <ele>1093.4</ele>
        <time>2026-07-08T08:05:35Z</time>
      </trkpt>
      <trkpt lat="43.00498" lon="0.30398">
        <ele>1094.4</ele>
        <time>2026-07-08T08:05:36Z</time>
      </trkpt>
      <trkpt lat="43.00497" lon="0.30396">
        <ele>1093.4</ele>
        <time>2026-07-08T08:05:36Z</time>
      </trkpt>
      <trkpt lat="43.00497" lon="0.30395">
        <ele>1092.4</ele>
        <time>2026-07-08T08:05:37Z</time>
      </trkpt>
      <trkpt lat="43.00496" lon="0.30395">
        <ele>1092.4</ele>
        <time>2026-07-08T08:05:38Z</time>
      </trkpt>
      <trkpt lat="43.00496" lon="0.30394">
        <ele>1092.4</ele>
        <time>2026-07-08T08:05:39Z</time>
      </trkpt>
      <trkpt lat="43.00495" lon="0.30393">
        <ele>1093.4</ele>
        <time>2026-07-08T08:05:40Z</time>
      </trkpt>
      <trkpt lat="43.00495" lon="0.30393">
        <ele>1093.4</ele>
        <time>2026-07-08T08:05:40Z</time>
      </trkpt>
      <trkpt lat="43.00494" lon="0.30393">
        <ele>1093.4</ele>
        <time>2026-07-08T08:05:41Z</time>
      </trkpt>
      <trkpt lat="43.00494" lon="0.30392">
        <ele>1093.4</ele>
        <time>2026-07-08T08:05:42Z</time>
      </trkpt>
      <trkpt lat="43.00493" lon="0.30392">
        <ele>1092.4</ele>
        <time>2026-07-08T08:05:43Z</time>
      </trkpt>
      <trkpt lat="43.00492" lon="0.30391">
        <ele>1092.4</ele>
        <time>2026-07-08T08:05:43Z</time>
      </trkpt>
      <trkpt lat="43.00491" lon="0.30391">
        <ele>1091.4</ele>
        <time>2026-07-08T08:05:44Z</time>
      </trkpt>
      <trkpt lat="43.0049" lon="0.3039">
        <ele>1091.4</ele>
        <time>2026-07-08T08:05:45Z</time>
      </trkpt>
      <trkpt lat="43.00489" lon="0.3039">
        <ele>1091.4</ele>
        <time>2026-07-08T08:05:46Z</time>
      </trkpt>
      <trkpt lat="43.00488" lon="0.30389">
        <ele>1091.4</ele>
        <time>2026-07-08T08:05:47Z</time>
      </trkpt>
      <trkpt lat="43.00487" lon="0.30388">
        <ele>1091.4</ele>
        <time>2026-07-08T08:05:48Z</time>
      </trkpt>
      <trkpt lat="43.00487" lon="0.30387">
        <ele>1091.4</ele>
        <time>2026-07-08T08:05:48Z</time>
      </trkpt>
      <trkpt lat="43.00486" lon="0.30387">
        <ele>1091.4</ele>
        <time>2026-07-08T08:05:49Z</time>
      </trkpt>
      <trkpt lat="43.00485" lon="0.30386">
        <ele>1091.4</ele>
        <time>2026-07-08T08:05:50Z</time>
      </trkpt>
      <trkpt lat="43.00485" lon="0.30385">
        <ele>1091.4</ele>
        <time>2026-07-08T08:05:51Z</time>
      </trkpt>
      <trkpt lat="43.00484" lon="0.30385">
        <ele>1091.4</ele>
        <time>2026-07-08T08:05:51Z</time>
      </trkpt>
      <trkpt lat="43.00484" lon="0.30384">
        <ele>1091.4</ele>
        <time>2026-07-08T08:05:52Z</time>
      </trkpt>
      <trkpt lat="43.00483" lon="0.30384">
        <ele>1091.4</ele>
        <time>2026-07-08T08:05:52Z</time>
      </trkpt>
      <trkpt lat="43.00482" lon="0.30383">
        <ele>1091.4</ele>
        <time>2026-07-08T08:05:53Z</time>
      </trkpt>
      <trkpt lat="43.00481" lon="0.30383">
        <ele>1091.4</ele>
        <time>2026-07-08T08:05:54Z</time>
      </trkpt>
      <trkpt lat="43.00481" lon="0.30382">
        <ele>1091.4</ele>
        <time>2026-07-08T08:05:54Z</time>
      </trkpt>
      <trkpt lat="43.0048" lon="0.30382">
        <ele>1091.4</ele>
        <time>2026-07-08T08:05:55Z</time>
      </trkpt>
      <trkpt lat="43.00479" lon="0.30381">
        <ele>1092.4</ele>
        <time>2026-07-08T08:05:56Z</time>
      </trkpt>
      <trkpt lat="43.00479" lon="0.3038">
        <ele>1093.4</ele>
        <time>2026-07-08T08:05:57Z</time>
      </trkpt>
      <trkpt lat="43.0048" lon="0.30381">
        <ele>1093.4</ele>
        <time>2026-07-08T08:05:58Z</time>
      </trkpt>
      <trkpt lat="43.0048" lon="0.3038">
        <ele>1093.4</ele>
        <time>2026-07-08T08:05:59Z</time>
      </trkpt>
      <trkpt lat="43.0048" lon="0.3038">
        <ele>1093.4</ele>
        <time>2026-07-08T08:05:59Z</time>
      </trkpt>
      <trkpt lat="43.0048" lon="0.3038">
        <ele>1093.4</ele>
        <time>2026-07-08T08:06:00Z</time>
      </trkpt>
      <trkpt lat="43.00479" lon="0.3038">
        <ele>1094.4</ele>
        <time>2026-07-08T08:06:01Z</time>
      </trkpt>
      <trkpt lat="43.00479" lon="0.30379">
        <ele>1095.4</ele>
        <time>2026-07-08T08:06:01Z</time>
      </trkpt>
      <trkpt lat="43.00478" lon="0.30379">
        <ele>1095.4</ele>
        <time>2026-07-08T08:06:02Z</time>
      </trkpt>
      <trkpt lat="43.00478" lon="0.30378">
        <ele>1095.4</ele>
        <time>2026-07-08T08:06:03Z</time>
      </trkpt>
      <trkpt lat="43.00477" lon="0.30377">
        <ele>1096.4</ele>
        <time>2026-07-08T08:06:04Z</time>
      </trkpt>
      <trkpt lat="43.00476" lon="0.30376">
        <ele>1096.4</ele>
        <time>2026-07-08T08:06:04Z</time>
      </trkpt>
      <trkpt lat="43.00476" lon="0.30375">
        <ele>1096.4</ele>
        <time>2026-07-08T08:06:05Z</time>
      </trkpt>
      <trkpt lat="43.00475" lon="0.30374">
        <ele>1096.4</ele>
        <time>2026-07-08T08:06:06Z</time>
      </trkpt>
      <trkpt lat="43.00475" lon="0.30373">
        <ele>1096.4</ele>
        <time>2026-07-08T08:06:06Z</time>
      </trkpt>
      <trkpt lat="43.00474" lon="0.30372">
        <ele>1096.4</ele>
        <time>2026-07-08T08:06:07Z</time>
      </trkpt>
      <trkpt lat="43.00473" lon="0.30371">
        <ele>1095.4</ele>
        <time>2026-07-08T08:06:08Z</time>
      </trkpt>
      <trkpt lat="43.00473" lon="0.3037">
        <ele>1095.4</ele>
        <time>2026-07-08T08:06:08Z</time>
      </trkpt>
      <trkpt lat="43.00472" lon="0.30369">
        <ele>1095.4</ele>
        <time>2026-07-08T08:06:09Z</time>
      </trkpt>
      <trkpt lat="43.00471" lon="0.30368">
        <ele>1095.4</ele>
        <time>2026-07-08T08:06:09Z</time>
      </trkpt>
      <trkpt lat="43.00471" lon="0.30368">
        <ele>1095.4</ele>
        <time>2026-07-08T08:06:10Z</time>
      </trkpt>
      <trkpt lat="43.0047" lon="0.30367">
        <ele>1096.4</ele>
        <time>2026-07-08T08:06:11Z</time>
      </trkpt>
      <trkpt lat="43.0047" lon="0.30366">
        <ele>1096.4</ele>
        <time>2026-07-08T08:06:11Z</time>
      </trkpt>
      <trkpt lat="43.00469" lon="0.30366">
        <ele>1098.4</ele>
        <time>2026-07-08T08:06:12Z</time>
      </trkpt>
      <trkpt lat="43.00468" lon="0.30366">
        <ele>1098.4</ele>
        <time>2026-07-08T08:06:13Z</time>
      </trkpt>
      <trkpt lat="43.00468" lon="0.30366">
        <ele>1098.4</ele>
        <time>2026-07-08T08:06:13Z</time>
      </trkpt>
      <trkpt lat="43.00468" lon="0.30365">
        <ele>1098.4</ele>
        <time>2026-07-08T08:06:14Z</time>
      </trkpt>
      <trkpt lat="43.00467" lon="0.30365">
        <ele>1098.4</ele>
        <time>2026-07-08T08:06:15Z</time>
      </trkpt>
      <trkpt lat="43.00467" lon="0.30364">
        <ele>1098.4</ele>
        <time>2026-07-08T08:06:15Z</time>
      </trkpt>
      <trkpt lat="43.00466" lon="0.30364">
        <ele>1098.4</ele>
        <time>2026-07-08T08:06:16Z</time>
      </trkpt>
      <trkpt lat="43.00466" lon="0.30363">
        <ele>1098.4</ele>
        <time>2026-07-08T08:06:17Z</time>
      </trkpt>
      <trkpt lat="43.00466" lon="0.30362">
        <ele>1098.4</ele>
        <time>2026-07-08T08:06:17Z</time>
      </trkpt>
      <trkpt lat="43.00466" lon="0.30361">
        <ele>1098.4</ele>
        <time>2026-07-08T08:06:18Z</time>
      </trkpt>
      <trkpt lat="43.00466" lon="0.30361">
        <ele>1098.4</ele>
        <time>2026-07-08T08:06:18Z</time>
      </trkpt>
      <trkpt lat="43.00465" lon="0.3036">
        <ele>1098.4</ele>
        <time>2026-07-08T08:06:19Z</time>
      </trkpt>
      <trkpt lat="43.00465" lon="0.30359">
        <ele>1098.4</ele>
        <time>2026-07-08T08:06:19Z</time>
      </trkpt>
      <trkpt lat="43.00465" lon="0.30359">
        <ele>1098.4</ele>
        <time>2026-07-08T08:06:20Z</time>
      </trkpt>
      <trkpt lat="43.00464" lon="0.30358">
        <ele>1098.4</ele>
        <time>2026-07-08T08:06:21Z</time>
      </trkpt>
      <trkpt lat="43.00464" lon="0.30357">
        <ele>1098.4</ele>
        <time>2026-07-08T08:06:21Z</time>
      </trkpt>
      <trkpt lat="43.00464" lon="0.30357">
        <ele>1099.4</ele>
        <time>2026-07-08T08:06:22Z</time>
      </trkpt>
      <trkpt lat="43.00463" lon="0.30356">
        <ele>1099.4</ele>
        <time>2026-07-08T08:06:23Z</time>
      </trkpt>
      <trkpt lat="43.00463" lon="0.30355">
        <ele>1100.4</ele>
        <time>2026-07-08T08:06:24Z</time>
      </trkpt>
      <trkpt lat="43.00462" lon="0.30355">
        <ele>1099.4</ele>
        <time>2026-07-08T08:06:24Z</time>
      </trkpt>
      <trkpt lat="43.0046" lon="0.30354">
        <ele>1100.4</ele>
        <time>2026-07-08T08:06:25Z</time>
      </trkpt>
      <trkpt lat="43.0046" lon="0.30353">
        <ele>1100.4</ele>
        <time>2026-07-08T08:06:26Z</time>
      </trkpt>
      <trkpt lat="43.00459" lon="0.30353">
        <ele>1101.4</ele>
        <time>2026-07-08T08:06:27Z</time>
      </trkpt>
      <trkpt lat="43.00459" lon="0.30352">
        <ele>1102.4</ele>
        <time>2026-07-08T08:06:28Z</time>
      </trkpt>
      <trkpt lat="43.00459" lon="0.30352">
        <ele>1102.4</ele>
        <time>2026-07-08T08:06:29Z</time>
      </trkpt>
      <trkpt lat="43.00457" lon="0.30351">
        <ele>1102.4</ele>
        <time>2026-07-08T08:06:30Z</time>
      </trkpt>
      <trkpt lat="43.00457" lon="0.3035">
        <ele>1103.4</ele>
        <time>2026-07-08T08:06:31Z</time>
      </trkpt>
      <trkpt lat="43.00456" lon="0.3035">
        <ele>1103.4</ele>
        <time>2026-07-08T08:06:32Z</time>
      </trkpt>
      <trkpt lat="43.00455" lon="0.30349">
        <ele>1103.4</ele>
        <time>2026-07-08T08:06:33Z</time>
      </trkpt>
      <trkpt lat="43.00454" lon="0.30348">
        <ele>1103.4</ele>
        <time>2026-07-08T08:06:34Z</time>
      </trkpt>
      <trkpt lat="43.00453" lon="0.30347">
        <ele>1103.4</ele>
        <time>2026-07-08T08:06:35Z</time>
      </trkpt>
      <trkpt lat="43.00453" lon="0.30346">
        <ele>1103.4</ele>
        <time>2026-07-08T08:06:36Z</time>
      </trkpt>
      <trkpt lat="43.00453" lon="0.30345">
        <ele>1102.4</ele>
        <time>2026-07-08T08:06:37Z</time>
      </trkpt>
      <trkpt lat="43.00453" lon="0.30344">
        <ele>1101.4</ele>
        <time>2026-07-08T08:06:38Z</time>
      </trkpt>
      <trkpt lat="43.00453" lon="0.30344">
        <ele>1101.4</ele>
        <time>2026-07-08T08:06:39Z</time>
      </trkpt>
      <trkpt lat="43.00452" lon="0.30344">
        <ele>1101.4</ele>
        <time>2026-07-08T08:06:40Z</time>
      </trkpt>
      <trkpt lat="43.00451" lon="0.30342">
        <ele>1101.4</ele>
        <time>2026-07-08T08:06:41Z</time>
      </trkpt>
      <trkpt lat="43.0045" lon="0.30342">
        <ele>1103.4</ele>
        <time>2026-07-08T08:06:42Z</time>
      </trkpt>
      <trkpt lat="43.00448" lon="0.30341">
        <ele>1103.4</ele>
        <time>2026-07-08T08:06:43Z</time>
      </trkpt>
      <trkpt lat="43.00447" lon="0.3034">
        <ele>1103.4</ele>
        <time>2026-07-08T08:06:44Z</time>
      </trkpt>
      <trkpt lat="43.00446" lon="0.30339">
        <ele>1104.4</ele>
        <time>2026-07-08T08:06:45Z</time>
      </trkpt>
      <trkpt lat="43.00445" lon="0.30339">
        <ele>1104.4</ele>
        <time>2026-07-08T08:06:46Z</time>
      </trkpt>
      <trkpt lat="43.00445" lon="0.30337">
        <ele>1104.4</ele>
        <time>2026-07-08T08:06:47Z</time>
      </trkpt>
      <trkpt lat="43.00444" lon="0.30335">
        <ele>1104.4</ele>
        <time>2026-07-08T08:06:48Z</time>
      </trkpt>
      <trkpt lat="43.00444" lon="0.30334">
        <ele>1104.4</ele>
        <time>2026-07-08T08:06:49Z</time>
      </trkpt>
      <trkpt lat="43.00443" lon="0.30332">
        <ele>1105.4</ele>
        <time>2026-07-08T08:06:50Z</time>
      </trkpt>
      <trkpt lat="43.00443" lon="0.30332">
        <ele>1105.4</ele>
        <time>2026-07-08T08:06:51Z</time>
      </trkpt>
      <trkpt lat="43.00442" lon="0.30333">
        <ele>1105.4</ele>
        <time>2026-07-08T08:06:52Z</time>
      </trkpt>
      <trkpt lat="43.00441" lon="0.30332">
        <ele>1106.4</ele>
        <time>2026-07-08T08:06:53Z</time>
      </trkpt>
      <trkpt lat="43.0044" lon="0.30331">
        <ele>1106.4</ele>
        <time>2026-07-08T08:06:54Z</time>
      </trkpt>
      <trkpt lat="43.0044" lon="0.3033">
        <ele>1106.4</ele>
        <time>2026-07-08T08:06:55Z</time>
      </trkpt>
      <trkpt lat="43.0044" lon="0.3033">
        <ele>1106.4</ele>
        <time>2026-07-08T08:06:56Z</time>
      </trkpt>
      <trkpt lat="43.00439" lon="0.30329">
        <ele>1107.4</ele>
        <time>2026-07-08T08:06:57Z</time>
      </trkpt>
      <trkpt lat="43.00439" lon="0.30329">
        <ele>1107.4</ele>
        <time>2026-07-08T08:06:58Z</time>
      </trkpt>
      <trkpt lat="43.00439" lon="0.30329">
        <ele>1108.4</ele>
        <time>2026-07-08T08:06:59Z</time>
      </trkpt>
      <trkpt lat="43.00439" lon="0.30328">
        <ele>1107.4</ele>
        <time>2026-07-08T08:07:00Z</time>
      </trkpt>
      <trkpt lat="43.00438" lon="0.30328">
        <ele>1108.4</ele>
        <time>2026-07-08T08:07:01Z</time>
      </trkpt>
      <trkpt lat="43.00438" lon="0.30328">
        <ele>1108.4</ele>
        <time>2026-07-08T08:07:02Z</time>
      </trkpt>
      <trkpt lat="43.00438" lon="0.30328">
        <ele>1108.4</ele>
        <time>2026-07-08T08:07:03Z</time>
      </trkpt>
      <trkpt lat="43.00438" lon="0.30328">
        <ele>1108.4</ele>
        <time>2026-07-08T08:07:04Z</time>
      </trkpt>
      <trkpt lat="43.00438" lon="0.30328">
        <ele>1108.4</ele>
        <time>2026-07-08T08:07:05Z</time>
      </trkpt>
      <trkpt lat="43.00438" lon="0.30328">
        <ele>1108.4</ele>
        <time>2026-07-08T08:07:06Z</time>
      </trkpt>
      <trkpt lat="43.00438" lon="0.30328">
        <ele>1108.4</ele>
        <time>2026-07-08T08:07:07Z</time>
      </trkpt>
      <trkpt lat="43.00438" lon="0.30328">
        <ele>1108.4</ele>
        <time>2026-07-08T08:07:08Z</time>
      </trkpt>
      <trkpt lat="43.00438" lon="0.30328">
        <ele>1108.4</ele>
        <time>2026-07-08T08:07:09Z</time>
      </trkpt>
      <trkpt lat="43.00438" lon="0.30328">
        <ele>1108.4</ele>
        <time>2026-07-08T08:07:10Z</time>
      </trkpt>
      <trkpt lat="43.00438" lon="0.30328">
        <ele>1108.4</ele>
        <time>2026-07-08T08:07:11Z</time>
      </trkpt>
      <trkpt lat="43.00438" lon="0.30328">
        <ele>1108.4</ele>
        <time>2026-07-08T08:07:12Z</time>
      </trkpt>
      <trkpt lat="43.00438" lon="0.30328">
        <ele>1108.4</ele>
        <time>2026-07-08T08:07:13Z</time>
      </trkpt>
      <trkpt lat="43.00438" lon="0.30328">
        <ele>1108.4</ele>
        <time>2026-07-08T08:07:14Z</time>
      </trkpt>
      <trkpt lat="43.00438" lon="0.30328">
        <ele>1108.4</ele>
        <time>2026-07-08T08:07:15Z</time>
      </trkpt>
      <trkpt lat="43.00438" lon="0.30328">
        <ele>1108.4</ele>
        <time>2026-07-08T08:07:16Z</time>
      </trkpt>
      <trkpt lat="43.00438" lon="0.30328">
        <ele>1108.4</ele>
        <time>2026-07-08T08:07:17Z</time>
      </trkpt>
      <trkpt lat="43.00438" lon="0.30329">
        <ele>1108.4</ele>
        <time>2026-07-08T08:07:18Z</time>
      </trkpt>
      <trkpt lat="43.00438" lon="0.30329">
        <ele>1108.4</ele>
        <time>2026-07-08T08:07:19Z</time>
      </trkpt>
      <trkpt lat="43.00438" lon="0.30329">
        <ele>1110.4</ele>
        <time>2026-07-08T08:07:20Z</time>
      </trkpt>
      <trkpt lat="43.00438" lon="0.30329">
        <ele>1110.4</ele>
        <time>2026-07-08T08:07:21Z</time>
      </trkpt>
      <trkpt lat="43.00438" lon="0.30329">
        <ele>1110.4</ele>
        <time>2026-07-08T08:07:22Z</time>
      </trkpt>
      <trkpt lat="43.00438" lon="0.30329">
        <ele>1111.4</ele>
        <time>2026-07-08T08:07:23Z</time>
      </trkpt>
      <trkpt lat="43.00438" lon="0.30329">
        <ele>1111.4</ele>
        <time>2026-07-08T08:07:24Z</time>
      </trkpt>
      <trkpt lat="43.00438" lon="0.30329">
        <ele>1111.4</ele>
        <time>2026-07-08T08:07:25Z</time>
      </trkpt>
      <trkpt lat="43.00438" lon="0.30329">
        <ele>1111.4</ele>
        <time>2026-07-08T08:07:26Z</time>
      </trkpt>
      <trkpt lat="43.00438" lon="0.30329">
        <ele>1111.4</ele>
        <time>2026-07-08T08:07:27Z</time>
      </trkpt>
      <trkpt lat="43.00438" lon="0.30329">
        <ele>1111.4</ele>
        <time>2026-07-08T08:07:28Z</time>
      </trkpt>
      <trkpt lat="43.00438" lon="0.30329">
        <ele>1111.4</ele>
        <time>2026-07-08T08:07:29Z</time>
      </trkpt>
      <trkpt lat="43.00438" lon="0.30329">
        <ele>1111.4</ele>
        <time>2026-07-08T08:07:30Z</time>
      </trkpt>
      <trkpt lat="43.00437" lon="0.30329">
        <ele>1111.4</ele>
        <time>2026-07-08T08:07:31Z</time>
      </trkpt>
      <trkpt lat="43.00438" lon="0.30329">
        <ele>1111.4</ele>
        <time>2026-07-08T08:07:32Z</time>
      </trkpt>
      <trkpt lat="43.00438" lon="0.30329">
        <ele>1111.4</ele>
        <time>2026-07-08T08:07:33Z</time>
      </trkpt>
      <trkpt lat="43.00437" lon="0.30329">
        <ele>1111.4</ele>
        <time>2026-07-08T08:07:34Z</time>
      </trkpt>
      <trkpt lat="43.00437" lon="0.30329">
        <ele>1111.4</ele>
        <time>2026-07-08T08:07:35Z</time>
      </trkpt>
      <trkpt lat="43.00437" lon="0.30329">
        <ele>1111.4</ele>
        <time>2026-07-08T08:07:36Z</time>
      </trkpt>
      <trkpt lat="43.00437" lon="0.30329">
        <ele>1111.4</ele>
        <time>2026-07-08T08:07:37Z</time>
      </trkpt>
      <trkpt lat="43.00437" lon="0.30329">
        <ele>1111.4</ele>
        <time>2026-07-08T08:07:38Z</time>
      </trkpt>
      <trkpt lat="43.00437" lon="0.30329">
        <ele>1111.4</ele>
        <time>2026-07-08T08:07:39Z</time>
      </trkpt>
      <trkpt lat="43.00437" lon="0.30329">
        <ele>1112.4</ele>
        <time>2026-07-08T08:07:40Z</time>
      </trkpt>
      <trkpt lat="43.00436" lon="0.30329">
        <ele>1112.4</ele>
        <time>2026-07-08T08:07:41Z</time>
      </trkpt>
      <trkpt lat="43.00436" lon="0.30329">
        <ele>1112.4</ele>
        <time>2026-07-08T08:07:42Z</time>
      </trkpt>
      <trkpt lat="43.00436" lon="0.30329">
        <ele>1112.4</ele>
        <time>2026-07-08T08:07:43Z</time>
      </trkpt>
      <trkpt lat="43.00436" lon="0.30329">
        <ele>1112.4</ele>
        <time>2026-07-08T08:07:44Z</time>
      </trkpt>
      <trkpt lat="43.00436" lon="0.30329">
        <ele>1112.4</ele>
        <time>2026-07-08T08:07:45Z</time>
      </trkpt>
      <trkpt lat="43.00436" lon="0.30329">
        <ele>1112.4</ele>
        <time>2026-07-08T08:07:46Z</time>
      </trkpt>
      <trkpt lat="43.00436" lon="0.30328">
        <ele>1112.4</ele>
        <time>2026-07-08T08:07:47Z</time>
      </trkpt>
      <trkpt lat="43.00436" lon="0.30328">
        <ele>1112.4</ele>
        <time>2026-07-08T08:07:48Z</time>
      </trkpt>
      <trkpt lat="43.00436" lon="0.30328">
        <ele>1112.4</ele>
        <time>2026-07-08T08:07:49Z</time>
      </trkpt>
      <trkpt lat="43.00436" lon="0.30328">
        <ele>1112.4</ele>
        <time>2026-07-08T08:07:50Z</time>
      </trkpt>
      <trkpt lat="43.00436" lon="0.30328">
        <ele>1112.4</ele>
        <time>2026-07-08T08:07:51Z</time>
      </trkpt>
      <trkpt lat="43.00436" lon="0.30328">
        <ele>1112.4</ele>
        <time>2026-07-08T08:07:52Z</time>
      </trkpt>
      <trkpt lat="43.00436" lon="0.30328">
        <ele>1112.4</ele>
        <time>2026-07-08T08:07:53Z</time>
      </trkpt>
      <trkpt lat="43.00435" lon="0.30328">
        <ele>1112.4</ele>
        <time>2026-07-08T08:07:54Z</time>
      </trkpt>
      <trkpt lat="43.00435" lon="0.30328">
        <ele>1113.4</ele>
        <time>2026-07-08T08:07:55Z</time>
      </trkpt>
      <trkpt lat="43.00435" lon="0.30328">
        <ele>1113.4</ele>
        <time>2026-07-08T08:07:56Z</time>
      </trkpt>
      <trkpt lat="43.00435" lon="0.30328">
        <ele>1113.4</ele>
        <time>2026-07-08T08:07:57Z</time>
      </trkpt>
      <trkpt lat="43.00435" lon="0.30329">
        <ele>1113.4</ele>
        <time>2026-07-08T08:07:58Z</time>
      </trkpt>
      <trkpt lat="43.00435" lon="0.30329">
        <ele>1113.4</ele>
        <time>2026-07-08T08:07:59Z</time>
      </trkpt>
      <trkpt lat="43.00435" lon="0.30329">
        <ele>1113.4</ele>
        <time>2026-07-08T08:08:00Z</time>
      </trkpt>
      <trkpt lat="43.00435" lon="0.30329">
        <ele>1113.4</ele>
        <time>2026-07-08T08:08:01Z</time>
      </trkpt>
      <trkpt lat="43.00435" lon="0.30329">
        <ele>1113.4</ele>
        <time>2026-07-08T08:08:02Z</time>
      </trkpt>
      <trkpt lat="43.00435" lon="0.30329">
        <ele>1113.4</ele>
        <time>2026-07-08T08:08:03Z</time>
      </trkpt>
      <trkpt lat="43.00435" lon="0.30329">
        <ele>1113.4</ele>
        <time>2026-07-08T08:08:04Z</time>
      </trkpt>
      <trkpt lat="43.00435" lon="0.30329">
        <ele>1113.4</ele>
        <time>2026-07-08T08:08:05Z</time>
      </trkpt>
      <trkpt lat="43.00435" lon="0.30329">
        <ele>1113.4</ele>
        <time>2026-07-08T08:08:06Z</time>
      </trkpt>
      <trkpt lat="43.00435" lon="0.3033">
        <ele>1113.4</ele>
        <time>2026-07-08T08:08:07Z</time>
      </trkpt>
      <trkpt lat="43.00435" lon="0.3033">
        <ele>1113.4</ele>
        <time>2026-07-08T08:08:08Z</time>
      </trkpt>
      <trkpt lat="43.00435" lon="0.3033">
        <ele>1113.4</ele>
        <time>2026-07-08T08:08:09Z</time>
      </trkpt>
      <trkpt lat="43.00435" lon="0.3033">
        <ele>1113.4</ele>
        <time>2026-07-08T08:08:10Z</time>
      </trkpt>
      <trkpt lat="43.00435" lon="0.3033">
        <ele>1112.4</ele>
        <time>2026-07-08T08:08:11Z</time>
      </trkpt>
      <trkpt lat="43.00435" lon="0.3033">
        <ele>1112.4</ele>
        <time>2026-07-08T08:08:12Z</time>
      </trkpt>
      <trkpt lat="43.00434" lon="0.3033">
        <ele>1112.4</ele>
        <time>2026-07-08T08:08:13Z</time>
      </trkpt>
      <trkpt lat="43.00434" lon="0.3033">
        <ele>1112.4</ele>
        <time>2026-07-08T08:08:14Z</time>
      </trkpt>
      <trkpt lat="43.00434" lon="0.3033">
        <ele>1112.4</ele>
        <time>2026-07-08T08:08:15Z</time>
      </trkpt>
      <trkpt lat="43.00434" lon="0.30329">
        <ele>1112.4</ele>
        <time>2026-07-08T08:08:16Z</time>
      </trkpt>
      <trkpt lat="43.00434" lon="0.30329">
        <ele>1112.4</ele>
        <time>2026-07-08T08:08:17Z</time>
      </trkpt>
      <trkpt lat="43.00434" lon="0.30329">
        <ele>1112.4</ele>
        <time>2026-07-08T08:08:18Z</time>
      </trkpt>
      <trkpt lat="43.00434" lon="0.30329">
        <ele>1112.4</ele>
        <time>2026-07-08T08:08:19Z</time>
      </trkpt>
      <trkpt lat="43.00434" lon="0.30329">
        <ele>1112.4</ele>
        <time>2026-07-08T08:08:20Z</time>
      </trkpt>
      <trkpt lat="43.00434" lon="0.30329">
        <ele>1112.4</ele>
        <time>2026-07-08T08:08:21Z</time>
      </trkpt>
      <trkpt lat="43.00434" lon="0.30329">
        <ele>1112.4</ele>
        <time>2026-07-08T08:08:22Z</time>
      </trkpt>
      <trkpt lat="43.00434" lon="0.30329">
        <ele>1112.4</ele>
        <time>2026-07-08T08:08:23Z</time>
      </trkpt>
      <trkpt lat="43.00433" lon="0.30329">
        <ele>1112.4</ele>
        <time>2026-07-08T08:08:24Z</time>
      </trkpt>
      <trkpt lat="43.00433" lon="0.30329">
        <ele>1112.4</ele>
        <time>2026-07-08T08:08:25Z</time>
      </trkpt>
      <trkpt lat="43.00433" lon="0.30328">
        <ele>1111.4</ele>
        <time>2026-07-08T08:08:26Z</time>
      </trkpt>
      <trkpt lat="43.00433" lon="0.30328">
        <ele>1111.4</ele>
        <time>2026-07-08T08:08:27Z</time>
      </trkpt>
      <trkpt lat="43.00434" lon="0.30328">
        <ele>1111.4</ele>
        <time>2026-07-08T08:08:28Z</time>
      </trkpt>
      <trkpt lat="43.00434" lon="0.30327">
        <ele>1112.4</ele>
        <time>2026-07-08T08:08:29Z</time>
      </trkpt>
      <trkpt lat="43.00434" lon="0.30327">
        <ele>1112.4</ele>
        <time>2026-07-08T08:08:30Z</time>
      </trkpt>
      <trkpt lat="43.00434" lon="0.30327">
        <ele>1112.4</ele>
        <time>2026-07-08T08:08:31Z</time>
      </trkpt>
      <trkpt lat="43.00434" lon="0.30327">
        <ele>1112.4</ele>
        <time>2026-07-08T08:08:32Z</time>
      </trkpt>
      <trkpt lat="43.00435" lon="0.30326">
        <ele>1112.4</ele>
        <time>2026-07-08T08:08:33Z</time>
      </trkpt>
      <trkpt lat="43.00435" lon="0.30326">
        <ele>1112.4</ele>
        <time>2026-07-08T08:08:34Z</time>
      </trkpt>
      <trkpt lat="43.00435" lon="0.30326">
        <ele>1112.4</ele>
        <time>2026-07-08T08:08:35Z</time>
      </trkpt>
      <trkpt lat="43.00435" lon="0.30326">
        <ele>1112.4</ele>
        <time>2026-07-08T08:08:36Z</time>
      </trkpt>
      <trkpt lat="43.00435" lon="0.30326">
        <ele>1112.4</ele>
        <time>2026-07-08T08:08:37Z</time>
      </trkpt>
      <trkpt lat="43.00435" lon="0.30326">
        <ele>1112.4</ele>
        <time>2026-07-08T08:08:38Z</time>
      </trkpt>
      <trkpt lat="43.00435" lon="0.30326">
        <ele>1112.4</ele>
        <time>2026-07-08T08:08:39Z</time>
      </trkpt>
      <trkpt lat="43.00435" lon="0.30326">
        <ele>1112.4</ele>
        <time>2026-07-08T08:08:40Z</time>
      </trkpt>
      <trkpt lat="43.00435" lon="0.30326">
        <ele>1112.4</ele>
        <time>2026-07-08T08:08:41Z</time>
      </trkpt>
      <trkpt lat="43.00435" lon="0.30326">
        <ele>1112.4</ele>
        <time>2026-07-08T08:08:42Z</time>
      </trkpt>
      <trkpt lat="43.00435" lon="0.30326">
        <ele>1112.4</ele>
        <time>2026-07-08T08:08:43Z</time>
      </trkpt>
      <trkpt lat="43.00435" lon="0.30326">
        <ele>1112.4</ele>
        <time>2026-07-08T08:08:44Z</time>
      </trkpt>
      <trkpt lat="43.00435" lon="0.30326">
        <ele>1112.4</ele>
        <time>2026-07-08T08:08:45Z</time>
      </trkpt>
      <trkpt lat="43.00435" lon="0.30325">
        <ele>1112.4</ele>
        <time>2026-07-08T08:08:46Z</time>
      </trkpt>
      <trkpt lat="43.00435" lon="0.30325">
        <ele>1112.4</ele>
        <time>2026-07-08T08:08:47Z</time>
      </trkpt>
      <trkpt lat="43.00435" lon="0.30325">
        <ele>1112.4</ele>
        <time>2026-07-08T08:08:48Z</time>
      </trkpt>
      <trkpt lat="43.00435" lon="0.30325">
        <ele>1112.4</ele>
        <time>2026-07-08T08:08:49Z</time>
      </trkpt>
      <trkpt lat="43.00435" lon="0.30325">
        <ele>1112.4</ele>
        <time>2026-07-08T08:08:50Z</time>
      </trkpt>
      <trkpt lat="43.00435" lon="0.30325">
        <ele>1112.4</ele>
        <time>2026-07-08T08:08:51Z</time>
      </trkpt>
      <trkpt lat="43.00435" lon="0.30325">
        <ele>1112.4</ele>
        <time>2026-07-08T08:08:52Z</time>
      </trkpt>
      <trkpt lat="43.00436" lon="0.30325">
        <ele>1112.4</ele>
        <time>2026-07-08T08:08:53Z</time>
      </trkpt>
      <trkpt lat="43.00436" lon="0.30325">
        <ele>1112.4</ele>
        <time>2026-07-08T08:08:54Z</time>
      </trkpt>
      <trkpt lat="43.00436" lon="0.30325">
        <ele>1112.4</ele>
        <time>2026-07-08T08:08:55Z</time>
      </trkpt>
      <trkpt lat="43.00436" lon="0.30325">
        <ele>1112.4</ele>
        <time>2026-07-08T08:08:56Z</time>
      </trkpt>
      <trkpt lat="43.00436" lon="0.30325">
        <ele>1112.4</ele>
        <time>2026-07-08T08:08:57Z</time>
      </trkpt>
      <trkpt lat="43.00436" lon="0.30325">
        <ele>1112.4</ele>
        <time>2026-07-08T08:08:58Z</time>
      </trkpt>
      <trkpt lat="43.00436" lon="0.30325">
        <ele>1112.4</ele>
        <time>2026-07-08T08:08:59Z</time>
      </trkpt>
      <trkpt lat="43.00436" lon="0.30325">
        <ele>1112.4</ele>
        <time>2026-07-08T08:09:00Z</time>
      </trkpt>
      <trkpt lat="43.00436" lon="0.30325">
        <ele>1112.4</ele>
        <time>2026-07-08T08:09:01Z</time>
      </trkpt>
      <trkpt lat="43.00436" lon="0.30325">
        <ele>1112.4</ele>
        <time>2026-07-08T08:09:02Z</time>
      </trkpt>
      <trkpt lat="43.00436" lon="0.30325">
        <ele>1112.4</ele>
        <time>2026-07-08T08:09:03Z</time>
      </trkpt>
      <trkpt lat="43.00436" lon="0.30325">
        <ele>1112.4</ele>
        <time>2026-07-08T08:09:04Z</time>
      </trkpt>
      <trkpt lat="43.00436" lon="0.30325">
        <ele>1112.4</ele>
        <time>2026-07-08T08:09:05Z</time>
      </trkpt>
      <trkpt lat="43.00436" lon="0.30325">
        <ele>1112.4</ele>
        <time>2026-07-08T08:09:06Z</time>
      </trkpt>
      <trkpt lat="43.00436" lon="0.30325">
        <ele>1112.4</ele>
        <time>2026-07-08T08:09:07Z</time>
      </trkpt>
      <trkpt lat="43.00436" lon="0.30325">
        <ele>1112.4</ele>
        <time>2026-07-08T08:09:08Z</time>
      </trkpt>
      <trkpt lat="43.00436" lon="0.30325">
        <ele>1112.4</ele>
        <time>2026-07-08T08:09:09Z</time>
      </trkpt>
      <trkpt lat="43.00436" lon="0.30325">
        <ele>1112.4</ele>
        <time>2026-07-08T08:09:10Z</time>
      </trkpt>
      <trkpt lat="43.00436" lon="0.30325">
        <ele>1112.4</ele>
        <time>2026-07-08T08:09:11Z</time>
      </trkpt>
      <trkpt lat="43.00436" lon="0.30325">
        <ele>1112.4</ele>
        <time>2026-07-08T08:09:12Z</time>
      </trkpt>
      <trkpt lat="43.00436" lon="0.30325">
        <ele>1112.4</ele>
        <time>2026-07-08T08:09:13Z</time>
      </trkpt>
      <trkpt lat="43.00436" lon="0.30325">
        <ele>1112.4</ele>
        <time>2026-07-08T08:09:14Z</time>
      </trkpt>
      <trkpt lat="43.00436" lon="0.30325">
        <ele>1112.4</ele>
        <time>2026-07-08T08:09:15Z</time>
      </trkpt>
      <trkpt lat="43.00436" lon="0.30325">
        <ele>1112.4</ele>
        <time>2026-07-08T08:09:16Z</time>
      </trkpt>
      <trkpt lat="43.00436" lon="0.30325">
        <ele>1113.4</ele>
        <time>2026-07-08T08:09:17Z</time>
      </trkpt>
      <trkpt lat="43.00436" lon="0.30325">
        <ele>1113.4</ele>
        <time>2026-07-08T08:09:18Z</time>
      </trkpt>
      <trkpt lat="43.00436" lon="0.30325">
        <ele>1113.4</ele>
        <time>2026-07-08T08:09:19Z</time>
      </trkpt>
      <trkpt lat="43.00436" lon="0.30325">
        <ele>1113.4</ele>
        <time>2026-07-08T08:09:20Z</time>
      </trkpt>
      <trkpt lat="43.00436" lon="0.30325">
        <ele>1113.4</ele>
        <time>2026-07-08T08:09:21Z</time>
      </trkpt>
      <trkpt lat="43.00436" lon="0.30325">
        <ele>1112.4</ele>
        <time>2026-07-08T08:09:22Z</time>
      </trkpt>
      <trkpt lat="43.00436" lon="0.30325">
        <ele>1112.4</ele>
        <time>2026-07-08T08:09:23Z</time>
      </trkpt>
      <trkpt lat="43.00436" lon="0.30325">
        <ele>1113.4</ele>
        <time>2026-07-08T08:09:24Z</time>
      </trkpt>
      <trkpt lat="43.00436" lon="0.30325">
        <ele>1113.4</ele>
        <time>2026-07-08T08:09:25Z</time>
      </trkpt>
      <trkpt lat="43.00436" lon="0.30325">
        <ele>1113.4</ele>
        <time>2026-07-08T08:09:26Z</time>
      </trkpt>
      <trkpt lat="43.00436" lon="0.30326">
        <ele>1114.4</ele>
        <time>2026-07-08T08:09:27Z</time>
      </trkpt>
      <trkpt lat="43.00436" lon="0.30326">
        <ele>1114.4</ele>
        <time>2026-07-08T08:09:28Z</time>
      </trkpt>
      <trkpt lat="43.00436" lon="0.30326">
        <ele>1114.4</ele>
        <time>2026-07-08T08:09:29Z</time>
      </trkpt>
      <trkpt lat="43.00436" lon="0.30326">
        <ele>1114.4</ele>
        <time>2026-07-08T08:09:30Z</time>
      </trkpt>
      <trkpt lat="43.00436" lon="0.30326">
        <ele>1114.4</ele>
        <time>2026-07-08T08:09:31Z</time>
      </trkpt>
      <trkpt lat="43.00436" lon="0.30326">
        <ele>1115.4</ele>
        <time>2026-07-08T08:09:32Z</time>
      </trkpt>
      <trkpt lat="43.00436" lon="0.30326">
        <ele>1116.4</ele>
        <time>2026-07-08T08:09:33Z</time>
      </trkpt>
      <trkpt lat="43.00436" lon="0.30327">
        <ele>1116.4</ele>
        <time>2026-07-08T08:09:34Z</time>
      </trkpt>
      <trkpt lat="43.00436" lon="0.30327">
        <ele>1117.4</ele>
        <time>2026-07-08T08:09:35Z</time>
      </trkpt>
      <trkpt lat="43.00436" lon="0.30327">
        <ele>1117.4</ele>
        <time>2026-07-08T08:09:36Z</time>
      </trkpt>
      <trkpt lat="43.00436" lon="0.30327">
        <ele>1117.4</ele>
        <time>2026-07-08T08:09:37Z</time>
      </trkpt>
      <trkpt lat="43.00436" lon="0.30328">
        <ele>1117.4</ele>
        <time>2026-07-08T08:09:38Z</time>
      </trkpt>
      <trkpt lat="43.00436" lon="0.30328">
        <ele>1117.4</ele>
        <time>2026-07-08T08:09:39Z</time>
      </trkpt>
      <trkpt lat="43.00436" lon="0.30328">
        <ele>1117.4</ele>
        <time>2026-07-08T08:09:40Z</time>
      </trkpt>
      <trkpt lat="43.00436" lon="0.30328">
        <ele>1117.4</ele>
        <time>2026-07-08T08:09:41Z</time>
      </trkpt>
      <trkpt lat="43.00436" lon="0.30328">
        <ele>1117.4</ele>
        <time>2026-07-08T08:09:42Z</time>
      </trkpt>
      <trkpt lat="43.00436" lon="0.30328">
        <ele>1117.4</ele>
        <time>2026-07-08T08:09:43Z</time>
      </trkpt>
      <trkpt lat="43.00436" lon="0.30328">
        <ele>1117.4</ele>
        <time>2026-07-08T08:09:44Z</time>
      </trkpt>
      <trkpt lat="43.00436" lon="0.30328">
        <ele>1117.4</ele>
        <time>2026-07-08T08:09:45Z</time>
      </trkpt>
      <trkpt lat="43.00436" lon="0.30328">
        <ele>1117.4</ele>
        <time>2026-07-08T08:09:46Z</time>
      </trkpt>
      <trkpt lat="43.00436" lon="0.30328">
        <ele>1117.4</ele>
        <time>2026-07-08T08:09:47Z</time>
      </trkpt>
      <trkpt lat="43.00437" lon="0.30328">
        <ele>1117.4</ele>
        <time>2026-07-08T08:09:48Z</time>
      </trkpt>
      <trkpt lat="43.00437" lon="0.30328">
        <ele>1117.4</ele>
        <time>2026-07-08T08:09:49Z</time>
      </trkpt>
      <trkpt lat="43.00437" lon="0.30328">
        <ele>1117.4</ele>
        <time>2026-07-08T08:09:50Z</time>
      </trkpt>
      <trkpt lat="43.00437" lon="0.30328">
        <ele>1120.4</ele>
        <time>2026-07-08T08:09:51Z</time>
      </trkpt>
      <trkpt lat="43.00437" lon="0.30328">
        <ele>1121.4</ele>
        <time>2026-07-08T08:09:52Z</time>
      </trkpt>
      <trkpt lat="43.00437" lon="0.30328">
        <ele>1121.4</ele>
        <time>2026-07-08T08:09:53Z</time>
      </trkpt>
      <trkpt lat="43.00437" lon="0.30328">
        <ele>1122.4</ele>
        <time>2026-07-08T08:09:54Z</time>
      </trkpt>
      <trkpt lat="43.00437" lon="0.30328">
        <ele>1122.4</ele>
        <time>2026-07-08T08:09:55Z</time>
      </trkpt>
      <trkpt lat="43.00437" lon="0.30328">
        <ele>1122.4</ele>
        <time>2026-07-08T08:09:56Z</time>
      </trkpt>
      <trkpt lat="43.00437" lon="0.30328">
        <ele>1122.4</ele>
        <time>2026-07-08T08:09:57Z</time>
      </trkpt>
      <trkpt lat="43.00437" lon="0.30328">
        <ele>1122.4</ele>
        <time>2026-07-08T08:09:58Z</time>
      </trkpt>
      <trkpt lat="43.00437" lon="0.30328">
        <ele>1122.4</ele>
        <time>2026-07-08T08:09:59Z</time>
      </trkpt>
      <trkpt lat="43.00437" lon="0.30328">
        <ele>1122.4</ele>
        <time>2026-07-08T08:10:00Z</time>
      </trkpt>
      <trkpt lat="43.00437" lon="0.30328">
        <ele>1122.4</ele>
        <time>2026-07-08T08:10:01Z</time>
      </trkpt>
      <trkpt lat="43.00437" lon="0.30328">
        <ele>1121.4</ele>
        <time>2026-07-08T08:10:02Z</time>
      </trkpt>
      <trkpt lat="43.00437" lon="0.30327">
        <ele>1121.4</ele>
        <time>2026-07-08T08:10:03Z</time>
      </trkpt>
      <trkpt lat="43.00437" lon="0.30327">
        <ele>1120.4</ele>
        <time>2026-07-08T08:10:04Z</time>
      </trkpt>
      <trkpt lat="43.00437" lon="0.30327">
        <ele>1119.4</ele>
        <time>2026-07-08T08:10:05Z</time>
      </trkpt>
      <trkpt lat="43.00437" lon="0.30327">
        <ele>1119.4</ele>
        <time>2026-07-08T08:10:06Z</time>
      </trkpt>
      <trkpt lat="43.00437" lon="0.30327">
        <ele>1119.4</ele>
        <time>2026-07-08T08:10:07Z</time>
      </trkpt>
      <trkpt lat="43.00437" lon="0.30327">
        <ele>1119.4</ele>
        <time>2026-07-08T08:10:08Z</time>
      </trkpt>
      <trkpt lat="43.00437" lon="0.30327">
        <ele>1119.4</ele>
        <time>2026-07-08T08:10:09Z</time>
      </trkpt>
      <trkpt lat="43.00437" lon="0.30327">
        <ele>1119.4</ele>
        <time>2026-07-08T08:10:10Z</time>
      </trkpt>
      <trkpt lat="43.00437" lon="0.30327">
        <ele>1119.4</ele>
        <time>2026-07-08T08:10:11Z</time>
      </trkpt>
      <trkpt lat="43.00437" lon="0.30327">
        <ele>1119.4</ele>
        <time>2026-07-08T08:10:12Z</time>
      </trkpt>
      <trkpt lat="43.00437" lon="0.30327">
        <ele>1117.4</ele>
        <time>2026-07-08T08:10:12Z</time>
      </trkpt>
      <trkpt lat="43.00437" lon="0.30326">
        <ele>1117.4</ele>
        <time>2026-07-08T08:10:13Z</time>
      </trkpt>
      <trkpt lat="43.00437" lon="0.30326">
        <ele>1117.4</ele>
        <time>2026-07-08T08:10:14Z</time>
      </trkpt>
      <trkpt lat="43.00438" lon="0.30327">
        <ele>1117.4</ele>
        <time>2026-07-08T08:10:15Z</time>
      </trkpt>
      <trkpt lat="43.00438" lon="0.30327">
        <ele>1117.4</ele>
        <time>2026-07-08T08:10:16Z</time>
      </trkpt>
      <trkpt lat="43.00438" lon="0.30328">
        <ele>1117.4</ele>
        <time>2026-07-08T08:10:17Z</time>
      </trkpt>
      <trkpt lat="43.00438" lon="0.30328">
        <ele>1117.4</ele>
        <time>2026-07-08T08:10:18Z</time>
      </trkpt>
      <trkpt lat="43.00438" lon="0.30328">
        <ele>1116.4</ele>
        <time>2026-07-08T08:10:19Z</time>
      </trkpt>
      <trkpt lat="43.00437" lon="0.30328">
        <ele>1117.4</ele>
        <time>2026-07-08T08:10:20Z</time>
      </trkpt>
      <trkpt lat="43.00437" lon="0.30329">
        <ele>1118.4</ele>
        <time>2026-07-08T08:10:21Z</time>
      </trkpt>
      <trkpt lat="43.00437" lon="0.30329">
        <ele>1118.4</ele>
        <time>2026-07-08T08:10:22Z</time>
      </trkpt>
      <trkpt lat="43.00437" lon="0.30329">
        <ele>1118.4</ele>
        <time>2026-07-08T08:10:23Z</time>
      </trkpt>
      <trkpt lat="43.00437" lon="0.30329">
        <ele>1119.4</ele>
        <time>2026-07-08T08:10:24Z</time>
      </trkpt>
      <trkpt lat="43.00437" lon="0.30329">
        <ele>1119.4</ele>
        <time>2026-07-08T08:10:25Z</time>
      </trkpt>
      <trkpt lat="43.00437" lon="0.30329">
        <ele>1119.4</ele>
        <time>2026-07-08T08:10:26Z</time>
      </trkpt>
      <trkpt lat="43.00437" lon="0.30329">
        <ele>1119.4</ele>
        <time>2026-07-08T08:10:27Z</time>
      </trkpt>
      <trkpt lat="43.00437" lon="0.30329">
        <ele>1119.4</ele>
        <time>2026-07-08T08:10:28Z</time>
      </trkpt>
      <trkpt lat="43.00438" lon="0.30328">
        <ele>1119.4</ele>
        <time>2026-07-08T08:10:29Z</time>
      </trkpt>
      <trkpt lat="43.00438" lon="0.30328">
        <ele>1119.4</ele>
        <time>2026-07-08T08:10:30Z</time>
      </trkpt>
      <trkpt lat="43.00438" lon="0.30328">
        <ele>1119.4</ele>
        <time>2026-07-08T08:10:31Z</time>
      </trkpt>
      <trkpt lat="43.00438" lon="0.30328">
        <ele>1119.4</ele>
        <time>2026-07-08T08:10:32Z</time>
      </trkpt>
      <trkpt lat="43.00438" lon="0.30328">
        <ele>1119.4</ele>
        <time>2026-07-08T08:10:33Z</time>
      </trkpt>
      <trkpt lat="43.00438" lon="0.30328">
        <ele>1119.4</ele>
        <time>2026-07-08T08:10:34Z</time>
      </trkpt>
      <trkpt lat="43.00438" lon="0.30328">
        <ele>1119.4</ele>
        <time>2026-07-08T08:10:35Z</time>
      </trkpt>
      <trkpt lat="43.00438" lon="0.30328">
        <ele>1118.4</ele>
        <time>2026-07-08T08:10:36Z</time>
      </trkpt>
      <trkpt lat="43.00438" lon="0.30328">
        <ele>1118.4</ele>
        <time>2026-07-08T08:10:37Z</time>
      </trkpt>
      <trkpt lat="43.00438" lon="0.30328">
        <ele>1118.4</ele>
        <time>2026-07-08T08:10:38Z</time>
      </trkpt>
      <trkpt lat="43.00438" lon="0.30328">
        <ele>1118.4</ele>
        <time>2026-07-08T08:10:39Z</time>
      </trkpt>
      <trkpt lat="43.00438" lon="0.30328">
        <ele>1118.4</ele>
        <time>2026-07-08T08:10:40Z</time>
      </trkpt>
      <trkpt lat="43.00438" lon="0.30328">
        <ele>1118.4</ele>
        <time>2026-07-08T08:10:41Z</time>
      </trkpt>
      <trkpt lat="43.00438" lon="0.30328">
        <ele>1118.4</ele>
        <time>2026-07-08T08:10:42Z</time>
      </trkpt>
      <trkpt lat="43.00438" lon="0.30328">
        <ele>1118.4</ele>
        <time>2026-07-08T08:10:43Z</time>
      </trkpt>
      <trkpt lat="43.00438" lon="0.30328">
        <ele>1118.4</ele>
        <time>2026-07-08T08:10:44Z</time>
      </trkpt>
      <trkpt lat="43.00438" lon="0.30328">
        <ele>1118.4</ele>
        <time>2026-07-08T08:10:45Z</time>
      </trkpt>
      <trkpt lat="43.00438" lon="0.30328">
        <ele>1118.4</ele>
        <time>2026-07-08T08:10:46Z</time>
      </trkpt>
      <trkpt lat="43.00438" lon="0.30328">
        <ele>1119.4</ele>
        <time>2026-07-08T08:10:47Z</time>
      </trkpt>
      <trkpt lat="43.00438" lon="0.30327">
        <ele>1119.4</ele>
        <time>2026-07-08T08:10:48Z</time>
      </trkpt>
      <trkpt lat="43.00438" lon="0.30327">
        <ele>1119.4</ele>
        <time>2026-07-08T08:10:49Z</time>
      </trkpt>
      <trkpt lat="43.00438" lon="0.30327">
        <ele>1119.4</ele>
        <time>2026-07-08T08:10:50Z</time>
      </trkpt>
      <trkpt lat="43.00438" lon="0.30327">
        <ele>1118.4</ele>
        <time>2026-07-08T08:10:51Z</time>
      </trkpt>
      <trkpt lat="43.00438" lon="0.30327">
        <ele>1118.4</ele>
        <time>2026-07-08T08:10:52Z</time>
      </trkpt>
      <trkpt lat="43.00438" lon="0.30327">
        <ele>1118.4</ele>
        <time>2026-07-08T08:10:53Z</time>
      </trkpt>
      <trkpt lat="43.00439" lon="0.30327">
        <ele>1118.4</ele>
        <time>2026-07-08T08:10:54Z</time>
      </trkpt>
      <trkpt lat="43.00439" lon="0.30327">
        <ele>1117.4</ele>
        <time>2026-07-08T08:10:55Z</time>
      </trkpt>
      <trkpt lat="43.00439" lon="0.30327">
        <ele>1117.4</ele>
        <time>2026-07-08T08:10:56Z</time>
      </trkpt>
      <trkpt lat="43.00438" lon="0.30327">
        <ele>1117.4</ele>
        <time>2026-07-08T08:10:57Z</time>
      </trkpt>
      <trkpt lat="43.00438" lon="0.30328">
        <ele>1117.4</ele>
        <time>2026-07-08T08:10:58Z</time>
      </trkpt>
      <trkpt lat="43.00438" lon="0.30328">
        <ele>1117.4</ele>
        <time>2026-07-08T08:10:59Z</time>
      </trkpt>
      <trkpt lat="43.00438" lon="0.30328">
        <ele>1117.4</ele>
        <time>2026-07-08T08:11:00Z</time>
      </trkpt>
      <trkpt lat="43.00438" lon="0.30328">
        <ele>1117.4</ele>
        <time>2026-07-08T08:11:01Z</time>
      </trkpt>
      <trkpt lat="43.00438" lon="0.30329">
        <ele>1117.4</ele>
        <time>2026-07-08T08:11:02Z</time>
      </trkpt>
      <trkpt lat="43.00438" lon="0.30329">
        <ele>1117.4</ele>
        <time>2026-07-08T08:11:03Z</time>
      </trkpt>
      <trkpt lat="43.00437" lon="0.30329">
        <ele>1117.4</ele>
        <time>2026-07-08T08:11:04Z</time>
      </trkpt>
      <trkpt lat="43.00437" lon="0.30329">
        <ele>1117.4</ele>
        <time>2026-07-08T08:11:05Z</time>
      </trkpt>
      <trkpt lat="43.00437" lon="0.30329">
        <ele>1118.4</ele>
        <time>2026-07-08T08:11:06Z</time>
      </trkpt>
      <trkpt lat="43.00437" lon="0.30329">
        <ele>1118.4</ele>
        <time>2026-07-08T08:11:07Z</time>
      </trkpt>
      <trkpt lat="43.00437" lon="0.30329">
        <ele>1118.4</ele>
        <time>2026-07-08T08:11:08Z</time>
      </trkpt>
      <trkpt lat="43.00437" lon="0.30329">
        <ele>1118.4</ele>
        <time>2026-07-08T08:11:09Z</time>
      </trkpt>
      <trkpt lat="43.00437" lon="0.30329">
        <ele>1118.4</ele>
        <time>2026-07-08T08:11:10Z</time>
      </trkpt>
      <trkpt lat="43.00437" lon="0.30329">
        <ele>1118.4</ele>
        <time>2026-07-08T08:11:11Z</time>
      </trkpt>
      <trkpt lat="43.00437" lon="0.30329">
        <ele>1118.4</ele>
        <time>2026-07-08T08:11:12Z</time>
      </trkpt>
      <trkpt lat="43.00437" lon="0.3033">
        <ele>1118.4</ele>
        <time>2026-07-08T08:11:13Z</time>
      </trkpt>
      <trkpt lat="43.00437" lon="0.3033">
        <ele>1117.4</ele>
        <time>2026-07-08T08:11:14Z</time>
      </trkpt>
      <trkpt lat="43.00437" lon="0.3033">
        <ele>1116.4</ele>
        <time>2026-07-08T08:11:15Z</time>
      </trkpt>
      <trkpt lat="43.00437" lon="0.3033">
        <ele>1116.4</ele>
        <time>2026-07-08T08:11:16Z</time>
      </trkpt>
      <trkpt lat="43.00437" lon="0.3033">
        <ele>1117.4</ele>
        <time>2026-07-08T08:11:17Z</time>
      </trkpt>
      <trkpt lat="43.00437" lon="0.3033">
        <ele>1117.4</ele>
        <time>2026-07-08T08:11:18Z</time>
      </trkpt>
      <trkpt lat="43.00437" lon="0.3033">
        <ele>1117.4</ele>
        <time>2026-07-08T08:11:19Z</time>
      </trkpt>
      <trkpt lat="43.00437" lon="0.3033">
        <ele>1118.4</ele>
        <time>2026-07-08T08:11:19Z</time>
      </trkpt>
      <trkpt lat="43.00437" lon="0.3033">
        <ele>1117.4</ele>
        <time>2026-07-08T08:11:20Z</time>
      </trkpt>
      <trkpt lat="43.00437" lon="0.3033">
        <ele>1118.4</ele>
        <time>2026-07-08T08:11:21Z</time>
      </trkpt>
      <trkpt lat="43.00437" lon="0.30329">
        <ele>1117.4</ele>
        <time>2026-07-08T08:11:22Z</time>
      </trkpt>
      <trkpt lat="43.00437" lon="0.30329">
        <ele>1117.4</ele>
        <time>2026-07-08T08:11:23Z</time>
      </trkpt>
      <trkpt lat="43.00437" lon="0.30329">
        <ele>1116.4</ele>
        <time>2026-07-08T08:11:24Z</time>
      </trkpt>
      <trkpt lat="43.00437" lon="0.30329">
        <ele>1116.4</ele>
        <time>2026-07-08T08:11:25Z</time>
      </trkpt>
      <trkpt lat="43.00437" lon="0.30329">
        <ele>1116.4</ele>
        <time>2026-07-08T08:11:25Z</time>
      </trkpt>
      <trkpt lat="43.00437" lon="0.30328">
        <ele>1116.4</ele>
        <time>2026-07-08T08:11:26Z</time>
      </trkpt>
      <trkpt lat="43.00437" lon="0.30328">
        <ele>1116.4</ele>
        <time>2026-07-08T08:11:27Z</time>
      </trkpt>
      <trkpt lat="43.00437" lon="0.30328">
        <ele>1116.4</ele>
        <time>2026-07-08T08:11:28Z</time>
      </trkpt>
      <trkpt lat="43.00437" lon="0.30328">
        <ele>1116.4</ele>
        <time>2026-07-08T08:11:29Z</time>
      </trkpt>
      <trkpt lat="43.00437" lon="0.30328">
        <ele>1116.4</ele>
        <time>2026-07-08T08:11:30Z</time>
      </trkpt>
      <trkpt lat="43.00437" lon="0.30328">
        <ele>1116.4</ele>
        <time>2026-07-08T08:11:31Z</time>
      </trkpt>
      <trkpt lat="43.00437" lon="0.30328">
        <ele>1116.4</ele>
        <time>2026-07-08T08:11:32Z</time>
      </trkpt>
      <trkpt lat="43.00437" lon="0.30328">
        <ele>1116.4</ele>
        <time>2026-07-08T08:11:33Z</time>
      </trkpt>
      <trkpt lat="43.00437" lon="0.30328">
        <ele>1118.4</ele>
        <time>2026-07-08T08:11:33Z</time>
      </trkpt>
      <trkpt lat="43.00438" lon="0.30328">
        <ele>1118.4</ele>
        <time>2026-07-08T08:11:34Z</time>
      </trkpt>
      <trkpt lat="43.00438" lon="0.30328">
        <ele>1117.4</ele>
        <time>2026-07-08T08:11:35Z</time>
      </trkpt>
      <trkpt lat="43.00438" lon="0.30328">
        <ele>1116.4</ele>
        <time>2026-07-08T08:11:36Z</time>
      </trkpt>
      <trkpt lat="43.00438" lon="0.30328">
        <ele>1116.4</ele>
        <time>2026-07-08T08:11:37Z</time>
      </trkpt>
      <trkpt lat="43.00438" lon="0.30328">
        <ele>1116.4</ele>
        <time>2026-07-08T08:11:38Z</time>
      </trkpt>
      <trkpt lat="43.00438" lon="0.30328">
        <ele>1116.4</ele>
        <time>2026-07-08T08:11:38Z</time>
      </trkpt>
      <trkpt lat="43.00438" lon="0.30328">
        <ele>1116.4</ele>
        <time>2026-07-08T08:11:39Z</time>
      </trkpt>
      <trkpt lat="43.00438" lon="0.30328">
        <ele>1116.4</ele>
        <time>2026-07-08T08:11:40Z</time>
      </trkpt>
      <trkpt lat="43.00438" lon="0.30328">
        <ele>1117.4</ele>
        <time>2026-07-08T08:11:41Z</time>
      </trkpt>
      <trkpt lat="43.00438" lon="0.30328">
        <ele>1117.4</ele>
        <time>2026-07-08T08:11:42Z</time>
      </trkpt>
      <trkpt lat="43.00438" lon="0.30328">
        <ele>1118.4</ele>
        <time>2026-07-08T08:11:43Z</time>
      </trkpt>
      <trkpt lat="43.00438" lon="0.30328">
        <ele>1118.4</ele>
        <time>2026-07-08T08:11:44Z</time>
      </trkpt>
      <trkpt lat="43.00438" lon="0.30328">
        <ele>1118.4</ele>
        <time>2026-07-08T08:11:45Z</time>
      </trkpt>
      <trkpt lat="43.00438" lon="0.30328">
        <ele>1118.4</ele>
        <time>2026-07-08T08:11:46Z</time>
      </trkpt>
      <trkpt lat="43.00438" lon="0.30328">
        <ele>1118.4</ele>
        <time>2026-07-08T08:11:46Z</time>
      </trkpt>
      <trkpt lat="43.00438" lon="0.30327">
        <ele>1118.4</ele>
        <time>2026-07-08T08:11:47Z</time>
      </trkpt>
      <trkpt lat="43.00438" lon="0.30327">
        <ele>1118.4</ele>
        <time>2026-07-08T08:11:48Z</time>
      </trkpt>
      <trkpt lat="43.00438" lon="0.30327">
        <ele>1118.4</ele>
        <time>2026-07-08T08:11:49Z</time>
      </trkpt>
      <trkpt lat="43.00438" lon="0.30327">
        <ele>1118.4</ele>
        <time>2026-07-08T08:11:50Z</time>
      </trkpt>
      <trkpt lat="43.00438" lon="0.30326">
        <ele>1118.4</ele>
        <time>2026-07-08T08:11:51Z</time>
      </trkpt>
      <trkpt lat="43.00438" lon="0.30326">
        <ele>1118.4</ele>
        <time>2026-07-08T08:11:52Z</time>
      </trkpt>
      <trkpt lat="43.00438" lon="0.30326">
        <ele>1118.4</ele>
        <time>2026-07-08T08:11:53Z</time>
      </trkpt>
      <trkpt lat="43.00438" lon="0.30326">
        <ele>1118.4</ele>
        <time>2026-07-08T08:11:54Z</time>
      </trkpt>
      <trkpt lat="43.00438" lon="0.30326">
        <ele>1118.4</ele>
        <time>2026-07-08T08:11:55Z</time>
      </trkpt>
      <trkpt lat="43.00438" lon="0.30326">
        <ele>1118.4</ele>
        <time>2026-07-08T08:11:55Z</time>
      </trkpt>
      <trkpt lat="43.00438" lon="0.30326">
        <ele>1118.4</ele>
        <time>2026-07-08T08:11:56Z</time>
      </trkpt>
      <trkpt lat="43.00438" lon="0.30325">
        <ele>1119.4</ele>
        <time>2026-07-08T08:11:56Z</time>
      </trkpt>
      <trkpt lat="43.00438" lon="0.30325">
        <ele>1118.4</ele>
        <time>2026-07-08T08:11:57Z</time>
      </trkpt>
      <trkpt lat="43.00438" lon="0.30325">
        <ele>1118.4</ele>
        <time>2026-07-08T08:11:58Z</time>
      </trkpt>
      <trkpt lat="43.00438" lon="0.30325">
        <ele>1118.4</ele>
        <time>2026-07-08T08:11:59Z</time>
      </trkpt>
      <trkpt lat="43.00438" lon="0.30324">
        <ele>1117.4</ele>
        <time>2026-07-08T08:11:59Z</time>
      </trkpt>
      <trkpt lat="43.00438" lon="0.30324">
        <ele>1116.4</ele>
        <time>2026-07-08T08:12:00Z</time>
      </trkpt>
      <trkpt lat="43.00438" lon="0.30324">
        <ele>1116.4</ele>
        <time>2026-07-08T08:12:01Z</time>
      </trkpt>
      <trkpt lat="43.00438" lon="0.30324">
        <ele>1116.4</ele>
        <time>2026-07-08T08:12:02Z</time>
      </trkpt>
      <trkpt lat="43.00438" lon="0.30323">
        <ele>1114.4</ele>
        <time>2026-07-08T08:12:03Z</time>
      </trkpt>
      <trkpt lat="43.00437" lon="0.30323">
        <ele>1113.4</ele>
        <time>2026-07-08T08:12:03Z</time>
      </trkpt>
      <trkpt lat="43.00437" lon="0.30322">
        <ele>1113.4</ele>
        <time>2026-07-08T08:12:04Z</time>
      </trkpt>
      <trkpt lat="43.00438" lon="0.30322">
        <ele>1113.4</ele>
        <time>2026-07-08T08:12:05Z</time>
      </trkpt>
      <trkpt lat="43.00437" lon="0.30322">
        <ele>1113.4</ele>
        <time>2026-07-08T08:12:06Z</time>
      </trkpt>
      <trkpt lat="43.00437" lon="0.30322">
        <ele>1112.4</ele>
        <time>2026-07-08T08:12:07Z</time>
      </trkpt>
      <trkpt lat="43.00437" lon="0.30322">
        <ele>1112.4</ele>
        <time>2026-07-08T08:12:07Z</time>
      </trkpt>
      <trkpt lat="43.00437" lon="0.30321">
        <ele>1112.4</ele>
        <time>2026-07-08T08:12:08Z</time>
      </trkpt>
      <trkpt lat="43.00437" lon="0.30321">
        <ele>1112.4</ele>
        <time>2026-07-08T08:12:09Z</time>
      </trkpt>
      <trkpt lat="43.00437" lon="0.30321">
        <ele>1112.4</ele>
        <time>2026-07-08T08:12:10Z</time>
      </trkpt>
      <trkpt lat="43.00437" lon="0.30321">
        <ele>1111.4</ele>
        <time>2026-07-08T08:12:11Z</time>
      </trkpt>
      <trkpt lat="43.00437" lon="0.30321">
        <ele>1111.4</ele>
        <time>2026-07-08T08:12:12Z</time>
      </trkpt>
      <trkpt lat="43.00437" lon="0.30321">
        <ele>1112.4</ele>
        <time>2026-07-08T08:12:13Z</time>
      </trkpt>
      <trkpt lat="43.00437" lon="0.30321">
        <ele>1112.4</ele>
        <time>2026-07-08T08:12:14Z</time>
      </trkpt>
      <trkpt lat="43.00437" lon="0.30321">
        <ele>1112.4</ele>
        <time>2026-07-08T08:12:15Z</time>
      </trkpt>
      <trkpt lat="43.00437" lon="0.30321">
        <ele>1112.4</ele>
        <time>2026-07-08T08:12:16Z</time>
      </trkpt>
      <trkpt lat="43.00437" lon="0.30321">
        <ele>1112.4</ele>
        <time>2026-07-08T08:12:17Z</time>
      </trkpt>
      <trkpt lat="43.00437" lon="0.30321">
        <ele>1112.4</ele>
        <time>2026-07-08T08:12:18Z</time>
      </trkpt>
      <trkpt lat="43.00437" lon="0.30322">
        <ele>1111.4</ele>
        <time>2026-07-08T08:12:19Z</time>
      </trkpt>
      <trkpt lat="43.00437" lon="0.30322">
        <ele>1111.4</ele>
        <time>2026-07-08T08:12:20Z</time>
      </trkpt>
      <trkpt lat="43.00437" lon="0.30322">
        <ele>1111.4</ele>
        <time>2026-07-08T08:12:21Z</time>
      </trkpt>
      <trkpt lat="43.00437" lon="0.30323">
        <ele>1111.4</ele>
        <time>2026-07-08T08:12:22Z</time>
      </trkpt>
      <trkpt lat="43.00437" lon="0.30323">
        <ele>1111.4</ele>
        <time>2026-07-08T08:12:23Z</time>
      </trkpt>
      <trkpt lat="43.00437" lon="0.30323">
        <ele>1111.4</ele>
        <time>2026-07-08T08:12:24Z</time>
      </trkpt>
      <trkpt lat="43.00438" lon="0.30323">
        <ele>1112.4</ele>
        <time>2026-07-08T08:12:25Z</time>
      </trkpt>
      <trkpt lat="43.00438" lon="0.30324">
        <ele>1112.4</ele>
        <time>2026-07-08T08:12:26Z</time>
      </trkpt>
      <trkpt lat="43.00438" lon="0.30324">
        <ele>1112.4</ele>
        <time>2026-07-08T08:12:26Z</time>
      </trkpt>
      <trkpt lat="43.00438" lon="0.30324">
        <ele>1112.4</ele>
        <time>2026-07-08T08:12:27Z</time>
      </trkpt>
      <trkpt lat="43.00438" lon="0.30324">
        <ele>1112.4</ele>
        <time>2026-07-08T08:12:28Z</time>
      </trkpt>
      <trkpt lat="43.00437" lon="0.30324">
        <ele>1111.4</ele>
        <time>2026-07-08T08:12:28Z</time>
      </trkpt>
      <trkpt lat="43.00437" lon="0.30324">
        <ele>1111.4</ele>
        <time>2026-07-08T08:12:29Z</time>
      </trkpt>
      <trkpt lat="43.00438" lon="0.30324">
        <ele>1111.4</ele>
        <time>2026-07-08T08:12:30Z</time>
      </trkpt>
      <trkpt lat="43.00438" lon="0.30324">
        <ele>1110.4</ele>
        <time>2026-07-08T08:12:31Z</time>
      </trkpt>
      <trkpt lat="43.00438" lon="0.30324">
        <ele>1110.4</ele>
        <time>2026-07-08T08:12:31Z</time>
      </trkpt>
      <trkpt lat="43.00437" lon="0.30324">
        <ele>1111.4</ele>
        <time>2026-07-08T08:12:32Z</time>
      </trkpt>
      <trkpt lat="43.00437" lon="0.30324">
        <ele>1111.4</ele>
        <time>2026-07-08T08:12:33Z</time>
      </trkpt>
      <trkpt lat="43.00437" lon="0.30324">
        <ele>1111.4</ele>
        <time>2026-07-08T08:12:34Z</time>
      </trkpt>
      <trkpt lat="43.00437" lon="0.30324">
        <ele>1111.4</ele>
        <time>2026-07-08T08:12:34Z</time>
      </trkpt>
      <trkpt lat="43.00437" lon="0.30324">
        <ele>1108.4</ele>
        <time>2026-07-08T08:12:35Z</time>
      </trkpt>
      <trkpt lat="43.00437" lon="0.30324">
        <ele>1108.4</ele>
        <time>2026-07-08T08:12:36Z</time>
      </trkpt>
      <trkpt lat="43.00437" lon="0.30323">
        <ele>1108.4</ele>
        <time>2026-07-08T08:12:37Z</time>
      </trkpt>
      <trkpt lat="43.00437" lon="0.30323">
        <ele>1108.4</ele>
        <time>2026-07-08T08:12:37Z</time>
      </trkpt>
      <trkpt lat="43.00437" lon="0.30323">
        <ele>1106.4</ele>
        <time>2026-07-08T08:12:38Z</time>
      </trkpt>
      <trkpt lat="43.00437" lon="0.30323">
        <ele>1106.4</ele>
        <time>2026-07-08T08:12:39Z</time>
      </trkpt>
      <trkpt lat="43.00437" lon="0.30323">
        <ele>1106.4</ele>
        <time>2026-07-08T08:12:40Z</time>
      </trkpt>
      <trkpt lat="43.00437" lon="0.30323">
        <ele>1106.4</ele>
        <time>2026-07-08T08:12:40Z</time>
      </trkpt>
      <trkpt lat="43.00437" lon="0.30323">
        <ele>1106.4</ele>
        <time>2026-07-08T08:12:41Z</time>
      </trkpt>
      <trkpt lat="43.00437" lon="0.30323">
        <ele>1106.4</ele>
        <time>2026-07-08T08:12:42Z</time>
      </trkpt>
      <trkpt lat="43.00437" lon="0.30323">
        <ele>1103.4</ele>
        <time>2026-07-08T08:12:43Z</time>
      </trkpt>
      <trkpt lat="43.00437" lon="0.30323">
        <ele>1102.4</ele>
        <time>2026-07-08T08:12:44Z</time>
      </trkpt>
      <trkpt lat="43.00437" lon="0.30323">
        <ele>1102.4</ele>
        <time>2026-07-08T08:12:44Z</time>
      </trkpt>
      <trkpt lat="43.00437" lon="0.30323">
        <ele>1100.4</ele>
        <time>2026-07-08T08:12:45Z</time>
      </trkpt>
      <trkpt lat="43.00437" lon="0.30323">
        <ele>1100.4</ele>
        <time>2026-07-08T08:12:46Z</time>
      </trkpt>
      <trkpt lat="43.00437" lon="0.30323">
        <ele>1100.4</ele>
        <time>2026-07-08T08:12:46Z</time>
      </trkpt>
      <trkpt lat="43.00437" lon="0.30323">
        <ele>1100.4</ele>
        <time>2026-07-08T08:12:47Z</time>
      </trkpt>
      <trkpt lat="43.00437" lon="0.30323">
        <ele>1098.4</ele>
        <time>2026-07-08T08:12:48Z</time>
      </trkpt>
      <trkpt lat="43.00437" lon="0.30323">
        <ele>1097.4</ele>
        <time>2026-07-08T08:12:49Z</time>
      </trkpt>
      <trkpt lat="43.00437" lon="0.30322">
        <ele>1097.4</ele>
        <time>2026-07-08T08:12:50Z</time>
      </trkpt>
      <trkpt lat="43.00438" lon="0.30322">
        <ele>1097.4</ele>
        <time>2026-07-08T08:12:51Z</time>
      </trkpt>
      <trkpt lat="43.00438" lon="0.30322">
        <ele>1096.4</ele>
        <time>2026-07-08T08:12:51Z</time>
      </trkpt>
      <trkpt lat="43.00438" lon="0.30322">
        <ele>1096.4</ele>
        <time>2026-07-08T08:12:52Z</time>
      </trkpt>
      <trkpt lat="43.00438" lon="0.30321">
        <ele>1096.4</ele>
        <time>2026-07-08T08:12:53Z</time>
      </trkpt>
      <trkpt lat="43.00438" lon="0.30321">
        <ele>1096.4</ele>
        <time>2026-07-08T08:12:54Z</time>
      </trkpt>
      <trkpt lat="43.00438" lon="0.30321">
        <ele>1094.4</ele>
        <time>2026-07-08T08:12:54Z</time>
      </trkpt>
      <trkpt lat="43.00438" lon="0.30321">
        <ele>1093.4</ele>
        <time>2026-07-08T08:12:55Z</time>
      </trkpt>
      <trkpt lat="43.00438" lon="0.30321">
        <ele>1092.4</ele>
        <time>2026-07-08T08:12:56Z</time>
      </trkpt>
      <trkpt lat="43.00438" lon="0.3032">
        <ele>1092.4</ele>
        <time>2026-07-08T08:12:57Z</time>
      </trkpt>
      <trkpt lat="43.00438" lon="0.3032">
        <ele>1091.4</ele>
        <time>2026-07-08T08:12:58Z</time>
      </trkpt>
      <trkpt lat="43.00438" lon="0.3032">
        <ele>1090.4</ele>
        <time>2026-07-08T08:12:59Z</time>
      </trkpt>
      <trkpt lat="43.00438" lon="0.3032">
        <ele>1089.4</ele>
        <time>2026-07-08T08:12:59Z</time>
      </trkpt>
      <trkpt lat="43.00438" lon="0.3032">
        <ele>1088.4</ele>
        <time>2026-07-08T08:13:00Z</time>
      </trkpt>
      <trkpt lat="43.00437" lon="0.3032">
        <ele>1088.4</ele>
        <time>2026-07-08T08:13:00Z</time>
      </trkpt>
      <trkpt lat="43.00437" lon="0.30321">
        <ele>1088.4</ele>
        <time>2026-07-08T08:13:01Z</time>
      </trkpt>
      <trkpt lat="43.00437" lon="0.30321">
        <ele>1088.4</ele>
        <time>2026-07-08T08:13:02Z</time>
      </trkpt>
      <trkpt lat="43.00437" lon="0.30321">
        <ele>1088.4</ele>
        <time>2026-07-08T08:13:02Z</time>
      </trkpt>
      <trkpt lat="43.00437" lon="0.30321">
        <ele>1088.4</ele>
        <time>2026-07-08T08:13:03Z</time>
      </trkpt>
      <trkpt lat="43.00437" lon="0.30321">
        <ele>1088.4</ele>
        <time>2026-07-08T08:13:04Z</time>
      </trkpt>
      <trkpt lat="43.00437" lon="0.30321">
        <ele>1088.4</ele>
        <time>2026-07-08T08:13:04Z</time>
      </trkpt>
      <trkpt lat="43.00437" lon="0.30322">
        <ele>1088.4</ele>
        <time>2026-07-08T08:13:05Z</time>
      </trkpt>
      <trkpt lat="43.00437" lon="0.30322">
        <ele>1086.4</ele>
        <time>2026-07-08T08:13:06Z</time>
      </trkpt>
      <trkpt lat="43.00437" lon="0.30321">
        <ele>1085.4</ele>
        <time>2026-07-08T08:13:07Z</time>
      </trkpt>
      <trkpt lat="43.00437" lon="0.30321">
        <ele>1085.4</ele>
        <time>2026-07-08T08:13:08Z</time>
      </trkpt>
      <trkpt lat="43.00437" lon="0.30321">
        <ele>1085.4</ele>
        <time>2026-07-08T08:13:09Z</time>
      </trkpt>
      <trkpt lat="43.00437" lon="0.30321">
        <ele>1085.4</ele>
        <time>2026-07-08T08:13:10Z</time>
      </trkpt>
      <trkpt lat="43.00437" lon="0.3032">
        <ele>1084.4</ele>
        <time>2026-07-08T08:13:11Z</time>
      </trkpt>
      <trkpt lat="43.00437" lon="0.3032">
        <ele>1084.4</ele>
        <time>2026-07-08T08:13:12Z</time>
      </trkpt>
      <trkpt lat="43.00437" lon="0.3032">
        <ele>1083.4</ele>
        <time>2026-07-08T08:13:12Z</time>
      </trkpt>
      <trkpt lat="43.00437" lon="0.30319">
        <ele>1082.4</ele>
        <time>2026-07-08T08:13:13Z</time>
      </trkpt>
      <trkpt lat="43.00437" lon="0.30319">
        <ele>1082.4</ele>
        <time>2026-07-08T08:13:14Z</time>
      </trkpt>
      <trkpt lat="43.00437" lon="0.30319">
        <ele>1081.4</ele>
        <time>2026-07-08T08:13:15Z</time>
      </trkpt>
      <trkpt lat="43.00436" lon="0.30319">
        <ele>1081.4</ele>
        <time>2026-07-08T08:13:15Z</time>
      </trkpt>
      <trkpt lat="43.00436" lon="0.30318">
        <ele>1081.4</ele>
        <time>2026-07-08T08:13:16Z</time>
      </trkpt>
      <trkpt lat="43.00436" lon="0.30318">
        <ele>1081.4</ele>
        <time>2026-07-08T08:13:17Z</time>
      </trkpt>
      <trkpt lat="43.00436" lon="0.30318">
        <ele>1080.4</ele>
        <time>2026-07-08T08:13:18Z</time>
      </trkpt>
      <trkpt lat="43.00436" lon="0.30318">
        <ele>1080.4</ele>
        <time>2026-07-08T08:13:19Z</time>
      </trkpt>
      <trkpt lat="43.00435" lon="0.30317">
        <ele>1079.4</ele>
        <time>2026-07-08T08:13:20Z</time>
      </trkpt>
      <trkpt lat="43.00435" lon="0.30317">
        <ele>1078.4</ele>
        <time>2026-07-08T08:13:20Z</time>
      </trkpt>
      <trkpt lat="43.00435" lon="0.30317">
        <ele>1078.4</ele>
        <time>2026-07-08T08:13:21Z</time>
      </trkpt>
      <trkpt lat="43.00435" lon="0.30316">
        <ele>1078.4</ele>
        <time>2026-07-08T08:13:22Z</time>
      </trkpt>
      <trkpt lat="43.00435" lon="0.30316">
        <ele>1077.4</ele>
        <time>2026-07-08T08:13:23Z</time>
      </trkpt>
      <trkpt lat="43.00435" lon="0.30316">
        <ele>1076.4</ele>
        <time>2026-07-08T08:13:24Z</time>
      </trkpt>
      <trkpt lat="43.00435" lon="0.30316">
        <ele>1076.4</ele>
        <time>2026-07-08T08:13:25Z</time>
      </trkpt>
      <trkpt lat="43.00435" lon="0.30315">
        <ele>1076.4</ele>
        <time>2026-07-08T08:13:26Z</time>
      </trkpt>
      <trkpt lat="43.00434" lon="0.30315">
        <ele>1076.4</ele>
        <time>2026-07-08T08:13:27Z</time>
      </trkpt>
      <trkpt lat="43.00434" lon="0.30315">
        <ele>1073.4</ele>
        <time>2026-07-08T08:13:28Z</time>
      </trkpt>
      <trkpt lat="43.00434" lon="0.30314">
        <ele>1073.4</ele>
        <time>2026-07-08T08:13:29Z</time>
      </trkpt>
      <trkpt lat="43.00433" lon="0.30314">
        <ele>1072.4</ele>
        <time>2026-07-08T08:13:30Z</time>
      </trkpt>
      <trkpt lat="43.00433" lon="0.30313">
        <ele>1072.4</ele>
        <time>2026-07-08T08:13:31Z</time>
      </trkpt>
      <trkpt lat="43.00433" lon="0.30312">
        <ele>1072.4</ele>
        <time>2026-07-08T08:13:32Z</time>
      </trkpt>
      <trkpt lat="43.00432" lon="0.30312">
        <ele>1072.4</ele>
        <time>2026-07-08T08:13:32Z</time>
      </trkpt>
      <trkpt lat="43.00432" lon="0.30311">
        <ele>1072.4</ele>
        <time>2026-07-08T08:13:32Z</time>
      </trkpt>
      <trkpt lat="43.00431" lon="0.30311">
        <ele>1072.4</ele>
        <time>2026-07-08T08:13:33Z</time>
      </trkpt>
      <trkpt lat="43.0043" lon="0.3031">
        <ele>1072.4</ele>
        <time>2026-07-08T08:13:34Z</time>
      </trkpt>
      <trkpt lat="43.0043" lon="0.3031">
        <ele>1072.4</ele>
        <time>2026-07-08T08:13:35Z</time>
      </trkpt>
      <trkpt lat="43.00429" lon="0.3031">
        <ele>1072.4</ele>
        <time>2026-07-08T08:13:36Z</time>
      </trkpt>
      <trkpt lat="43.00429" lon="0.3031">
        <ele>1072.4</ele>
        <time>2026-07-08T08:13:37Z</time>
      </trkpt>
      <trkpt lat="43.00428" lon="0.30309">
        <ele>1072.4</ele>
        <time>2026-07-08T08:13:38Z</time>
      </trkpt>
      <trkpt lat="43.00428" lon="0.30309">
        <ele>1072.4</ele>
        <time>2026-07-08T08:13:38Z</time>
      </trkpt>
      <trkpt lat="43.00428" lon="0.30309">
        <ele>1072.4</ele>
        <time>2026-07-08T08:13:39Z</time>
      </trkpt>
      <trkpt lat="43.00427" lon="0.30309">
        <ele>1072.4</ele>
        <time>2026-07-08T08:13:40Z</time>
      </trkpt>
      <trkpt lat="43.00427" lon="0.30308">
        <ele>1072.4</ele>
        <time>2026-07-08T08:13:41Z</time>
      </trkpt>
      <trkpt lat="43.00426" lon="0.30308">
        <ele>1073.4</ele>
        <time>2026-07-08T08:13:41Z</time>
      </trkpt>
      <trkpt lat="43.00425" lon="0.30307">
        <ele>1072.4</ele>
        <time>2026-07-08T08:13:42Z</time>
      </trkpt>
      <trkpt lat="43.00424" lon="0.30307">
        <ele>1072.4</ele>
        <time>2026-07-08T08:13:43Z</time>
      </trkpt>
      <trkpt lat="43.00423" lon="0.30306">
        <ele>1072.4</ele>
        <time>2026-07-08T08:13:44Z</time>
      </trkpt>
      <trkpt lat="43.00422" lon="0.30304">
        <ele>1072.4</ele>
        <time>2026-07-08T08:13:44Z</time>
      </trkpt>
      <trkpt lat="43.00422" lon="0.30303">
        <ele>1072.4</ele>
        <time>2026-07-08T08:13:45Z</time>
      </trkpt>
      <trkpt lat="43.00421" lon="0.30303">
        <ele>1072.4</ele>
        <time>2026-07-08T08:13:46Z</time>
      </trkpt>
      <trkpt lat="43.00421" lon="0.30302">
        <ele>1071.4</ele>
        <time>2026-07-08T08:13:47Z</time>
      </trkpt>
      <trkpt lat="43.0042" lon="0.30301">
        <ele>1071.4</ele>
        <time>2026-07-08T08:13:47Z</time>
      </trkpt>
      <trkpt lat="43.0042" lon="0.303">
        <ele>1072.4</ele>
        <time>2026-07-08T08:13:48Z</time>
      </trkpt>
      <trkpt lat="43.00419" lon="0.30299">
        <ele>1072.4</ele>
        <time>2026-07-08T08:13:49Z</time>
      </trkpt>
      <trkpt lat="43.00418" lon="0.30298">
        <ele>1072.4</ele>
        <time>2026-07-08T08:13:50Z</time>
      </trkpt>
      <trkpt lat="43.00418" lon="0.30297">
        <ele>1072.4</ele>
        <time>2026-07-08T08:13:51Z</time>
      </trkpt>
      <trkpt lat="43.00418" lon="0.30297">
        <ele>1073.4</ele>
        <time>2026-07-08T08:13:51Z</time>
      </trkpt>
      <trkpt lat="43.00417" lon="0.30296">
        <ele>1073.4</ele>
        <time>2026-07-08T08:13:52Z</time>
      </trkpt>
      <trkpt lat="43.00416" lon="0.30295">
        <ele>1073.4</ele>
        <time>2026-07-08T08:13:53Z</time>
      </trkpt>
      <trkpt lat="43.00416" lon="0.30294">
        <ele>1073.4</ele>
        <time>2026-07-08T08:13:54Z</time>
      </trkpt>
      <trkpt lat="43.00416" lon="0.30293">
        <ele>1073.4</ele>
        <time>2026-07-08T08:13:55Z</time>
      </trkpt>
      <trkpt lat="43.00415" lon="0.30293">
        <ele>1073.4</ele>
        <time>2026-07-08T08:13:55Z</time>
      </trkpt>
      <trkpt lat="43.00415" lon="0.30293">
        <ele>1073.4</ele>
        <time>2026-07-08T08:13:56Z</time>
      </trkpt>
      <trkpt lat="43.00415" lon="0.30291">
        <ele>1074.4</ele>
        <time>2026-07-08T08:13:57Z</time>
      </trkpt>
      <trkpt lat="43.00414" lon="0.3029">
        <ele>1074.4</ele>
        <time>2026-07-08T08:13:57Z</time>
      </trkpt>
      <trkpt lat="43.00414" lon="0.3029">
        <ele>1075.4</ele>
        <time>2026-07-08T08:13:58Z</time>
      </trkpt>
      <trkpt lat="43.00413" lon="0.30289">
        <ele>1076.4</ele>
        <time>2026-07-08T08:13:59Z</time>
      </trkpt>
      <trkpt lat="43.00413" lon="0.30288">
        <ele>1076.4</ele>
        <time>2026-07-08T08:14:00Z</time>
      </trkpt>
      <trkpt lat="43.00412" lon="0.30287">
        <ele>1076.4</ele>
        <time>2026-07-08T08:14:01Z</time>
      </trkpt>
      <trkpt lat="43.00412" lon="0.30286">
        <ele>1076.4</ele>
        <time>2026-07-08T08:14:01Z</time>
      </trkpt>
      <trkpt lat="43.00411" lon="0.30286">
        <ele>1076.4</ele>
        <time>2026-07-08T08:14:02Z</time>
      </trkpt>
      <trkpt lat="43.00411" lon="0.30285">
        <ele>1076.4</ele>
        <time>2026-07-08T08:14:03Z</time>
      </trkpt>
      <trkpt lat="43.0041" lon="0.30285">
        <ele>1076.4</ele>
        <time>2026-07-08T08:14:04Z</time>
      </trkpt>
      <trkpt lat="43.0041" lon="0.30284">
        <ele>1075.4</ele>
        <time>2026-07-08T08:14:05Z</time>
      </trkpt>
      <trkpt lat="43.00409" lon="0.30284">
        <ele>1075.4</ele>
        <time>2026-07-08T08:14:05Z</time>
      </trkpt>
      <trkpt lat="43.00409" lon="0.30283">
        <ele>1075.4</ele>
        <time>2026-07-08T08:14:06Z</time>
      </trkpt>
      <trkpt lat="43.00408" lon="0.30282">
        <ele>1075.4</ele>
        <time>2026-07-08T08:14:07Z</time>
      </trkpt>
      <trkpt lat="43.00407" lon="0.30282">
        <ele>1076.4</ele>
        <time>2026-07-08T08:14:08Z</time>
      </trkpt>
      <trkpt lat="43.00407" lon="0.30282">
        <ele>1077.4</ele>
        <time>2026-07-08T08:14:08Z</time>
      </trkpt>
      <trkpt lat="43.00407" lon="0.30282">
        <ele>1078.4</ele>
        <time>2026-07-08T08:14:09Z</time>
      </trkpt>
      <trkpt lat="43.00406" lon="0.30281">
        <ele>1078.4</ele>
        <time>2026-07-08T08:14:10Z</time>
      </trkpt>
      <trkpt lat="43.00406" lon="0.30281">
        <ele>1078.4</ele>
        <time>2026-07-08T08:14:11Z</time>
      </trkpt>
      <trkpt lat="43.00406" lon="0.30281">
        <ele>1078.4</ele>
        <time>2026-07-08T08:14:12Z</time>
      </trkpt>
      <trkpt lat="43.00407" lon="0.30281">
        <ele>1078.4</ele>
        <time>2026-07-08T08:14:13Z</time>
      </trkpt>
      <trkpt lat="43.00407" lon="0.30281">
        <ele>1078.4</ele>
        <time>2026-07-08T08:14:14Z</time>
      </trkpt>
      <trkpt lat="43.00406" lon="0.30281">
        <ele>1080.4</ele>
        <time>2026-07-08T08:14:15Z</time>
      </trkpt>
      <trkpt lat="43.00406" lon="0.30281">
        <ele>1079.4</ele>
        <time>2026-07-08T08:14:16Z</time>
      </trkpt>
      <trkpt lat="43.00406" lon="0.3028">
        <ele>1079.4</ele>
        <time>2026-07-08T08:14:17Z</time>
      </trkpt>
      <trkpt lat="43.00405" lon="0.30279">
        <ele>1079.4</ele>
        <time>2026-07-08T08:14:18Z</time>
      </trkpt>
      <trkpt lat="43.00405" lon="0.30278">
        <ele>1079.4</ele>
        <time>2026-07-08T08:14:19Z</time>
      </trkpt>
      <trkpt lat="43.00405" lon="0.30278">
        <ele>1079.4</ele>
        <time>2026-07-08T08:14:20Z</time>
      </trkpt>
      <trkpt lat="43.00405" lon="0.30277">
        <ele>1079.4</ele>
        <time>2026-07-08T08:14:21Z</time>
      </trkpt>
      <trkpt lat="43.00404" lon="0.30276">
        <ele>1079.4</ele>
        <time>2026-07-08T08:14:22Z</time>
      </trkpt>
      <trkpt lat="43.00404" lon="0.30275">
        <ele>1080.4</ele>
        <time>2026-07-08T08:14:23Z</time>
      </trkpt>
      <trkpt lat="43.00404" lon="0.30274">
        <ele>1081.4</ele>
        <time>2026-07-08T08:14:24Z</time>
      </trkpt>
      <trkpt lat="43.00404" lon="0.30274">
        <ele>1082.4</ele>
        <time>2026-07-08T08:14:25Z</time>
      </trkpt>
      <trkpt lat="43.00403" lon="0.30273">
        <ele>1083.4</ele>
        <time>2026-07-08T08:14:25Z</time>
      </trkpt>
      <trkpt lat="43.00403" lon="0.30272">
        <ele>1084.4</ele>
        <time>2026-07-08T08:14:26Z</time>
      </trkpt>
      <trkpt lat="43.00403" lon="0.30271">
        <ele>1086.4</ele>
        <time>2026-07-08T08:14:27Z</time>
      </trkpt>
      <trkpt lat="43.00403" lon="0.3027">
        <ele>1086.4</ele>
        <time>2026-07-08T08:14:28Z</time>
      </trkpt>
      <trkpt lat="43.00402" lon="0.30269">
        <ele>1087.4</ele>
        <time>2026-07-08T08:14:29Z</time>
      </trkpt>
      <trkpt lat="43.00402" lon="0.30268">
        <ele>1087.4</ele>
        <time>2026-07-08T08:14:29Z</time>
      </trkpt>
      <trkpt lat="43.00402" lon="0.30267">
        <ele>1088.4</ele>
        <time>2026-07-08T08:14:30Z</time>
      </trkpt>
      <trkpt lat="43.00401" lon="0.30265">
        <ele>1089.4</ele>
        <time>2026-07-08T08:14:31Z</time>
      </trkpt>
      <trkpt lat="43.004" lon="0.30265">
        <ele>1089.4</ele>
        <time>2026-07-08T08:14:32Z</time>
      </trkpt>
      <trkpt lat="43.004" lon="0.30264">
        <ele>1090.4</ele>
        <time>2026-07-08T08:14:33Z</time>
      </trkpt>
      <trkpt lat="43.00399" lon="0.30263">
        <ele>1090.4</ele>
        <time>2026-07-08T08:14:33Z</time>
      </trkpt>
      <trkpt lat="43.00399" lon="0.30263">
        <ele>1091.4</ele>
        <time>2026-07-08T08:14:34Z</time>
      </trkpt>
      <trkpt lat="43.00398" lon="0.30262">
        <ele>1091.4</ele>
        <time>2026-07-08T08:14:35Z</time>
      </trkpt>
      <trkpt lat="43.00398" lon="0.30261">
        <ele>1092.4</ele>
        <time>2026-07-08T08:14:36Z</time>
      </trkpt>
      <trkpt lat="43.00397" lon="0.30261">
        <ele>1093.4</ele>
        <time>2026-07-08T08:14:36Z</time>
      </trkpt>
      <trkpt lat="43.00397" lon="0.30261">
        <ele>1093.4</ele>
        <time>2026-07-08T08:14:37Z</time>
      </trkpt>
      <trkpt lat="43.00397" lon="0.3026">
        <ele>1093.4</ele>
        <time>2026-07-08T08:14:37Z</time>
      </trkpt>
      <trkpt lat="43.00397" lon="0.30259">
        <ele>1094.4</ele>
        <time>2026-07-08T08:14:38Z</time>
      </trkpt>
      <trkpt lat="43.00397" lon="0.30259">
        <ele>1094.4</ele>
        <time>2026-07-08T08:14:39Z</time>
      </trkpt>
      <trkpt lat="43.00397" lon="0.30258">
        <ele>1096.4</ele>
        <time>2026-07-08T08:14:40Z</time>
      </trkpt>
      <trkpt lat="43.00396" lon="0.30258">
        <ele>1096.4</ele>
        <time>2026-07-08T08:14:41Z</time>
      </trkpt>
      <trkpt lat="43.00396" lon="0.30257">
        <ele>1097.4</ele>
        <time>2026-07-08T08:14:42Z</time>
      </trkpt>
      <trkpt lat="43.00396" lon="0.30257">
        <ele>1097.4</ele>
        <time>2026-07-08T08:14:43Z</time>
      </trkpt>
      <trkpt lat="43.00395" lon="0.30256">
        <ele>1098.4</ele>
        <time>2026-07-08T08:14:44Z</time>
      </trkpt>
      <trkpt lat="43.00394" lon="0.30255">
        <ele>1097.4</ele>
        <time>2026-07-08T08:14:45Z</time>
      </trkpt>
      <trkpt lat="43.00394" lon="0.30255">
        <ele>1098.4</ele>
        <time>2026-07-08T08:14:45Z</time>
      </trkpt>
      <trkpt lat="43.00393" lon="0.30255">
        <ele>1099.4</ele>
        <time>2026-07-08T08:14:46Z</time>
      </trkpt>
      <trkpt lat="43.00393" lon="0.30255">
        <ele>1100.4</ele>
        <time>2026-07-08T08:14:47Z</time>
      </trkpt>
      <trkpt lat="43.00392" lon="0.30255">
        <ele>1101.4</ele>
        <time>2026-07-08T08:14:48Z</time>
      </trkpt>
      <trkpt lat="43.00391" lon="0.30254">
        <ele>1101.4</ele>
        <time>2026-07-08T08:14:49Z</time>
      </trkpt>
      <trkpt lat="43.0039" lon="0.30254">
        <ele>1101.4</ele>
        <time>2026-07-08T08:14:50Z</time>
      </trkpt>
      <trkpt lat="43.00389" lon="0.30254">
        <ele>1104.4</ele>
        <time>2026-07-08T08:14:51Z</time>
      </trkpt>
      <trkpt lat="43.00388" lon="0.30253">
        <ele>1105.4</ele>
        <time>2026-07-08T08:14:52Z</time>
      </trkpt>
      <trkpt lat="43.00389" lon="0.30253">
        <ele>1105.4</ele>
        <time>2026-07-08T08:14:53Z</time>
      </trkpt>
      <trkpt lat="43.00388" lon="0.30252">
        <ele>1107.4</ele>
        <time>2026-07-08T08:14:54Z</time>
      </trkpt>
      <trkpt lat="43.00387" lon="0.30252">
        <ele>1107.4</ele>
        <time>2026-07-08T08:14:55Z</time>
      </trkpt>
      <trkpt lat="43.00386" lon="0.3025">
        <ele>1108.4</ele>
        <time>2026-07-08T08:14:56Z</time>
      </trkpt>
      <trkpt lat="43.00384" lon="0.30248">
        <ele>1109.4</ele>
        <time>2026-07-08T08:14:57Z</time>
      </trkpt>
      <trkpt lat="43.00384" lon="0.30247">
        <ele>1109.4</ele>
        <time>2026-07-08T08:14:57Z</time>
      </trkpt>
      <trkpt lat="43.00383" lon="0.30247">
        <ele>1109.4</ele>
        <time>2026-07-08T08:14:58Z</time>
      </trkpt>
      <trkpt lat="43.00383" lon="0.30246">
        <ele>1109.4</ele>
        <time>2026-07-08T08:14:59Z</time>
      </trkpt>
      <trkpt lat="43.00382" lon="0.30246">
        <ele>1110.4</ele>
        <time>2026-07-08T08:14:59Z</time>
      </trkpt>
      <trkpt lat="43.00381" lon="0.30245">
        <ele>1110.4</ele>
        <time>2026-07-08T08:15:00Z</time>
      </trkpt>
      <trkpt lat="43.0038" lon="0.30245">
        <ele>1110.4</ele>
        <time>2026-07-08T08:15:01Z</time>
      </trkpt>
      <trkpt lat="43.0038" lon="0.30245">
        <ele>1111.4</ele>
        <time>2026-07-08T08:15:02Z</time>
      </trkpt>
      <trkpt lat="43.0038" lon="0.30245">
        <ele>1111.4</ele>
        <time>2026-07-08T08:15:03Z</time>
      </trkpt>
      <trkpt lat="43.0038" lon="0.30246">
        <ele>1111.4</ele>
        <time>2026-07-08T08:15:04Z</time>
      </trkpt>
      <trkpt lat="43.00379" lon="0.30246">
        <ele>1111.4</ele>
        <time>2026-07-08T08:15:05Z</time>
      </trkpt>
      <trkpt lat="43.00379" lon="0.30245">
        <ele>1112.4</ele>
        <time>2026-07-08T08:15:06Z</time>
      </trkpt>
      <trkpt lat="43.00378" lon="0.30245">
        <ele>1112.4</ele>
        <time>2026-07-08T08:15:06Z</time>
      </trkpt>
      <trkpt lat="43.00378" lon="0.30244">
        <ele>1112.4</ele>
        <time>2026-07-08T08:15:07Z</time>
      </trkpt>
      <trkpt lat="43.00377" lon="0.30244">
        <ele>1112.4</ele>
        <time>2026-07-08T08:15:08Z</time>
      </trkpt>
      <trkpt lat="43.00377" lon="0.30244">
        <ele>1112.4</ele>
        <time>2026-07-08T08:15:08Z</time>
      </trkpt>
      <trkpt lat="43.00377" lon="0.30244">
        <ele>1112.4</ele>
        <time>2026-07-08T08:15:08Z</time>
      </trkpt>
      <trkpt lat="43.00377" lon="0.30243">
        <ele>1112.4</ele>
        <time>2026-07-08T08:15:09Z</time>
      </trkpt>
      <trkpt lat="43.00377" lon="0.30243">
        <ele>1112.4</ele>
        <time>2026-07-08T08:15:10Z</time>
      </trkpt>
      <trkpt lat="43.00377" lon="0.30243">
        <ele>1110.4</ele>
        <time>2026-07-08T08:15:11Z</time>
      </trkpt>
      <trkpt lat="43.00376" lon="0.30242">
        <ele>1112.4</ele>
        <time>2026-07-08T08:15:11Z</time>
      </trkpt>
      <trkpt lat="43.00376" lon="0.30242">
        <ele>1112.4</ele>
        <time>2026-07-08T08:15:11Z</time>
      </trkpt>
      <trkpt lat="43.00376" lon="0.30242">
        <ele>1112.4</ele>
        <time>2026-07-08T08:15:12Z</time>
      </trkpt>
      <trkpt lat="43.00376" lon="0.30241">
        <ele>1113.4</ele>
        <time>2026-07-08T08:15:13Z</time>
      </trkpt>
      <trkpt lat="43.00376" lon="0.30241">
        <ele>1113.4</ele>
        <time>2026-07-08T08:15:14Z</time>
      </trkpt>
      <trkpt lat="43.00376" lon="0.3024">
        <ele>1113.4</ele>
        <time>2026-07-08T08:15:15Z</time>
      </trkpt>
      <trkpt lat="43.00376" lon="0.30239">
        <ele>1114.4</ele>
        <time>2026-07-08T08:15:15Z</time>
      </trkpt>
      <trkpt lat="43.00376" lon="0.30239">
        <ele>1114.4</ele>
        <time>2026-07-08T08:15:16Z</time>
      </trkpt>
      <trkpt lat="43.00375" lon="0.30238">
        <ele>1114.4</ele>
        <time>2026-07-08T08:15:17Z</time>
      </trkpt>
      <trkpt lat="43.00375" lon="0.30238">
        <ele>1114.4</ele>
        <time>2026-07-08T08:15:17Z</time>
      </trkpt>
      <trkpt lat="43.00375" lon="0.30237">
        <ele>1114.4</ele>
        <time>2026-07-08T08:15:18Z</time>
      </trkpt>
      <trkpt lat="43.00374" lon="0.30236">
        <ele>1114.4</ele>
        <time>2026-07-08T08:15:18Z</time>
      </trkpt>
      <trkpt lat="43.00373" lon="0.30236">
        <ele>1114.4</ele>
        <time>2026-07-08T08:15:19Z</time>
      </trkpt>
      <trkpt lat="43.00372" lon="0.30235">
        <ele>1114.4</ele>
        <time>2026-07-08T08:15:20Z</time>
      </trkpt>
      <trkpt lat="43.0037" lon="0.30235">
        <ele>1115.4</ele>
        <time>2026-07-08T08:15:21Z</time>
      </trkpt>
      <trkpt lat="43.00369" lon="0.30235">
        <ele>1116.4</ele>
        <time>2026-07-08T08:15:22Z</time>
      </trkpt>
      <trkpt lat="43.00368" lon="0.30235">
        <ele>1116.4</ele>
        <time>2026-07-08T08:15:22Z</time>
      </trkpt>
      <trkpt lat="43.00368" lon="0.30235">
        <ele>1116.4</ele>
        <time>2026-07-08T08:15:23Z</time>
      </trkpt>
      <trkpt lat="43.00367" lon="0.30235">
        <ele>1116.4</ele>
        <time>2026-07-08T08:15:23Z</time>
      </trkpt>
      <trkpt lat="43.00366" lon="0.30236">
        <ele>1117.4</ele>
        <time>2026-07-08T08:15:24Z</time>
      </trkpt>
      <trkpt lat="43.00366" lon="0.30236">
        <ele>1117.4</ele>
        <time>2026-07-08T08:15:25Z</time>
      </trkpt>
      <trkpt lat="43.00365" lon="0.30236">
        <ele>1118.4</ele>
        <time>2026-07-08T08:15:25Z</time>
      </trkpt>
      <trkpt lat="43.00365" lon="0.30236">
        <ele>1118.4</ele>
        <time>2026-07-08T08:15:26Z</time>
      </trkpt>
      <trkpt lat="43.00364" lon="0.30237">
        <ele>1118.4</ele>
        <time>2026-07-08T08:15:26Z</time>
      </trkpt>
      <trkpt lat="43.00364" lon="0.30237">
        <ele>1118.4</ele>
        <time>2026-07-08T08:15:27Z</time>
      </trkpt>
      <trkpt lat="43.00363" lon="0.30237">
        <ele>1118.4</ele>
        <time>2026-07-08T08:15:28Z</time>
      </trkpt>
      <trkpt lat="43.00362" lon="0.30237">
        <ele>1119.4</ele>
        <time>2026-07-08T08:15:28Z</time>
      </trkpt>
      <trkpt lat="43.00362" lon="0.30237">
        <ele>1119.4</ele>
        <time>2026-07-08T08:15:29Z</time>
      </trkpt>
      <trkpt lat="43.00361" lon="0.30237">
        <ele>1119.4</ele>
        <time>2026-07-08T08:15:29Z</time>
      </trkpt>
      <trkpt lat="43.0036" lon="0.30237">
        <ele>1119.4</ele>
        <time>2026-07-08T08:15:30Z</time>
      </trkpt>
      <trkpt lat="43.0036" lon="0.30237">
        <ele>1119.4</ele>
        <time>2026-07-08T08:15:31Z</time>
      </trkpt>
      <trkpt lat="43.00359" lon="0.30237">
        <ele>1119.4</ele>
        <time>2026-07-08T08:15:31Z</time>
      </trkpt>
      <trkpt lat="43.00359" lon="0.30237">
        <ele>1120.4</ele>
        <time>2026-07-08T08:15:32Z</time>
      </trkpt>
      <trkpt lat="43.00358" lon="0.30239">
        <ele>1120.4</ele>
        <time>2026-07-08T08:15:33Z</time>
      </trkpt>
      <trkpt lat="43.00358" lon="0.3024">
        <ele>1120.4</ele>
        <time>2026-07-08T08:15:34Z</time>
      </trkpt>
      <trkpt lat="43.00358" lon="0.3024">
        <ele>1119.4</ele>
        <time>2026-07-08T08:15:35Z</time>
      </trkpt>
      <trkpt lat="43.00358" lon="0.3024">
        <ele>1120.4</ele>
        <time>2026-07-08T08:15:35Z</time>
      </trkpt>
      <trkpt lat="43.00357" lon="0.3024">
        <ele>1120.4</ele>
        <time>2026-07-08T08:15:36Z</time>
      </trkpt>
      <trkpt lat="43.00357" lon="0.30241">
        <ele>1121.4</ele>
        <time>2026-07-08T08:15:36Z</time>
      </trkpt>
      <trkpt lat="43.00357" lon="0.30241">
        <ele>1121.4</ele>
        <time>2026-07-08T08:15:37Z</time>
      </trkpt>
      <trkpt lat="43.00356" lon="0.30243">
        <ele>1123.4</ele>
        <time>2026-07-08T08:15:38Z</time>
      </trkpt>
      <trkpt lat="43.00356" lon="0.30243">
        <ele>1123.4</ele>
        <time>2026-07-08T08:15:39Z</time>
      </trkpt>
      <trkpt lat="43.00355" lon="0.30244">
        <ele>1125.4</ele>
        <time>2026-07-08T08:15:39Z</time>
      </trkpt>
      <trkpt lat="43.00355" lon="0.30244">
        <ele>1125.4</ele>
        <time>2026-07-08T08:15:40Z</time>
      </trkpt>
      <trkpt lat="43.00354" lon="0.30245">
        <ele>1125.4</ele>
        <time>2026-07-08T08:15:40Z</time>
      </trkpt>
      <trkpt lat="43.00353" lon="0.30246">
        <ele>1125.4</ele>
        <time>2026-07-08T08:15:41Z</time>
      </trkpt>
      <trkpt lat="43.00353" lon="0.30246">
        <ele>1125.4</ele>
        <time>2026-07-08T08:15:42Z</time>
      </trkpt>
      <trkpt lat="43.00352" lon="0.30247">
        <ele>1125.4</ele>
        <time>2026-07-08T08:15:42Z</time>
      </trkpt>
      <trkpt lat="43.00352" lon="0.30248">
        <ele>1125.4</ele>
        <time>2026-07-08T08:15:43Z</time>
      </trkpt>
      <trkpt lat="43.00351" lon="0.30248">
        <ele>1126.4</ele>
        <time>2026-07-08T08:15:43Z</time>
      </trkpt>
      <trkpt lat="43.00351" lon="0.30249">
        <ele>1126.4</ele>
        <time>2026-07-08T08:15:44Z</time>
      </trkpt>
      <trkpt lat="43.0035" lon="0.3025">
        <ele>1126.4</ele>
        <time>2026-07-08T08:15:44Z</time>
      </trkpt>
      <trkpt lat="43.0035" lon="0.3025">
        <ele>1126.4</ele>
        <time>2026-07-08T08:15:45Z</time>
      </trkpt>
      <trkpt lat="43.00349" lon="0.30251">
        <ele>1127.4</ele>
        <time>2026-07-08T08:15:46Z</time>
      </trkpt>
      <trkpt lat="43.00349" lon="0.30252">
        <ele>1127.4</ele>
        <time>2026-07-08T08:15:46Z</time>
      </trkpt>
      <trkpt lat="43.00348" lon="0.30253">
        <ele>1127.4</ele>
        <time>2026-07-08T08:15:47Z</time>
      </trkpt>
      <trkpt lat="43.00347" lon="0.30253">
        <ele>1127.4</ele>
        <time>2026-07-08T08:15:47Z</time>
      </trkpt>
      <trkpt lat="43.00347" lon="0.30254">
        <ele>1127.4</ele>
        <time>2026-07-08T08:15:48Z</time>
      </trkpt>
      <trkpt lat="43.00346" lon="0.30255">
        <ele>1128.4</ele>
        <time>2026-07-08T08:15:48Z</time>
      </trkpt>
      <trkpt lat="43.00346" lon="0.30255">
        <ele>1128.4</ele>
        <time>2026-07-08T08:15:49Z</time>
      </trkpt>
      <trkpt lat="43.00345" lon="0.30256">
        <ele>1128.4</ele>
        <time>2026-07-08T08:15:49Z</time>
      </trkpt>
      <trkpt lat="43.00345" lon="0.30257">
        <ele>1128.4</ele>
        <time>2026-07-08T08:15:50Z</time>
      </trkpt>
      <trkpt lat="43.00344" lon="0.30258">
        <ele>1128.4</ele>
        <time>2026-07-08T08:15:51Z</time>
      </trkpt>
      <trkpt lat="43.00344" lon="0.30259">
        <ele>1128.4</ele>
        <time>2026-07-08T08:15:51Z</time>
      </trkpt>
      <trkpt lat="43.00343" lon="0.3026">
        <ele>1128.4</ele>
        <time>2026-07-08T08:15:52Z</time>
      </trkpt>
      <trkpt lat="43.00342" lon="0.30261">
        <ele>1128.4</ele>
        <time>2026-07-08T08:15:53Z</time>
      </trkpt>
      <trkpt lat="43.00342" lon="0.30262">
        <ele>1129.4</ele>
        <time>2026-07-08T08:15:53Z</time>
      </trkpt>
      <trkpt lat="43.00341" lon="0.30262">
        <ele>1129.4</ele>
        <time>2026-07-08T08:15:54Z</time>
      </trkpt>
      <trkpt lat="43.00341" lon="0.30263">
        <ele>1128.4</ele>
        <time>2026-07-08T08:15:54Z</time>
      </trkpt>
      <trkpt lat="43.00341" lon="0.30264">
        <ele>1128.4</ele>
        <time>2026-07-08T08:15:55Z</time>
      </trkpt>
      <trkpt lat="43.0034" lon="0.30265">
        <ele>1129.4</ele>
        <time>2026-07-08T08:15:56Z</time>
      </trkpt>
      <trkpt lat="43.00339" lon="0.30266">
        <ele>1129.4</ele>
        <time>2026-07-08T08:15:57Z</time>
      </trkpt>
      <trkpt lat="43.00338" lon="0.30267">
        <ele>1130.4</ele>
        <time>2026-07-08T08:15:58Z</time>
      </trkpt>
      <trkpt lat="43.00337" lon="0.30268">
        <ele>1130.4</ele>
        <time>2026-07-08T08:15:58Z</time>
      </trkpt>
      <trkpt lat="43.00337" lon="0.30269">
        <ele>1130.4</ele>
        <time>2026-07-08T08:15:59Z</time>
      </trkpt>
      <trkpt lat="43.00336" lon="0.3027">
        <ele>1130.4</ele>
        <time>2026-07-08T08:15:59Z</time>
      </trkpt>
      <trkpt lat="43.00336" lon="0.3027">
        <ele>1130.4</ele>
        <time>2026-07-08T08:16:00Z</time>
      </trkpt>
      <trkpt lat="43.00336" lon="0.30271">
        <ele>1130.4</ele>
        <time>2026-07-08T08:16:00Z</time>
      </trkpt>
      <trkpt lat="43.00335" lon="0.30271">
        <ele>1130.4</ele>
        <time>2026-07-08T08:16:01Z</time>
      </trkpt>
      <trkpt lat="43.00335" lon="0.30272">
        <ele>1130.4</ele>
        <time>2026-07-08T08:16:01Z</time>
      </trkpt>
      <trkpt lat="43.00334" lon="0.30272">
        <ele>1130.4</ele>
        <time>2026-07-08T08:16:02Z</time>
      </trkpt>
      <trkpt lat="43.00334" lon="0.30274">
        <ele>1129.4</ele>
        <time>2026-07-08T08:16:03Z</time>
      </trkpt>
      <trkpt lat="43.00333" lon="0.30274">
        <ele>1129.4</ele>
        <time>2026-07-08T08:16:04Z</time>
      </trkpt>
      <trkpt lat="43.00333" lon="0.30275">
        <ele>1130.4</ele>
        <time>2026-07-08T08:16:04Z</time>
      </trkpt>
      <trkpt lat="43.00332" lon="0.30276">
        <ele>1130.4</ele>
        <time>2026-07-08T08:16:05Z</time>
      </trkpt>
      <trkpt lat="43.00332" lon="0.30277">
        <ele>1130.4</ele>
        <time>2026-07-08T08:16:05Z</time>
      </trkpt>
      <trkpt lat="43.00332" lon="0.30277">
        <ele>1130.4</ele>
        <time>2026-07-08T08:16:06Z</time>
      </trkpt>
      <trkpt lat="43.00331" lon="0.30278">
        <ele>1130.4</ele>
        <time>2026-07-08T08:16:06Z</time>
      </trkpt>
      <trkpt lat="43.00331" lon="0.30279">
        <ele>1130.4</ele>
        <time>2026-07-08T08:16:07Z</time>
      </trkpt>
      <trkpt lat="43.0033" lon="0.30279">
        <ele>1130.4</ele>
        <time>2026-07-08T08:16:07Z</time>
      </trkpt>
      <trkpt lat="43.0033" lon="0.3028">
        <ele>1130.4</ele>
        <time>2026-07-08T08:16:08Z</time>
      </trkpt>
      <trkpt lat="43.0033" lon="0.30281">
        <ele>1130.4</ele>
        <time>2026-07-08T08:16:09Z</time>
      </trkpt>
      <trkpt lat="43.00329" lon="0.30281">
        <ele>1130.4</ele>
        <time>2026-07-08T08:16:09Z</time>
      </trkpt>
      <trkpt lat="43.00329" lon="0.30282">
        <ele>1130.4</ele>
        <time>2026-07-08T08:16:10Z</time>
      </trkpt>
      <trkpt lat="43.00328" lon="0.30283">
        <ele>1130.4</ele>
        <time>2026-07-08T08:16:10Z</time>
      </trkpt>
      <trkpt lat="43.00328" lon="0.30284">
        <ele>1130.4</ele>
        <time>2026-07-08T08:16:11Z</time>
      </trkpt>
      <trkpt lat="43.00327" lon="0.30285">
        <ele>1130.4</ele>
        <time>2026-07-08T08:16:12Z</time>
      </trkpt>
      <trkpt lat="43.00327" lon="0.30286">
        <ele>1130.4</ele>
        <time>2026-07-08T08:16:12Z</time>
      </trkpt>
      <trkpt lat="43.00326" lon="0.30287">
        <ele>1131.4</ele>
        <time>2026-07-08T08:16:13Z</time>
      </trkpt>
      <trkpt lat="43.00326" lon="0.30289">
        <ele>1131.4</ele>
        <time>2026-07-08T08:16:14Z</time>
      </trkpt>
      <trkpt lat="43.00325" lon="0.30289">
        <ele>1131.4</ele>
        <time>2026-07-08T08:16:14Z</time>
      </trkpt>
      <trkpt lat="43.00325" lon="0.3029">
        <ele>1131.4</ele>
        <time>2026-07-08T08:16:15Z</time>
      </trkpt>
      <trkpt lat="43.00324" lon="0.30291">
        <ele>1131.4</ele>
        <time>2026-07-08T08:16:16Z</time>
      </trkpt>
      <trkpt lat="43.00324" lon="0.30291">
        <ele>1131.4</ele>
        <time>2026-07-08T08:16:16Z</time>
      </trkpt>
      <trkpt lat="43.00323" lon="0.30292">
        <ele>1131.4</ele>
        <time>2026-07-08T08:16:17Z</time>
      </trkpt>
      <trkpt lat="43.00322" lon="0.30294">
        <ele>1130.4</ele>
        <time>2026-07-08T08:16:18Z</time>
      </trkpt>
      <trkpt lat="43.00322" lon="0.30295">
        <ele>1130.4</ele>
        <time>2026-07-08T08:16:19Z</time>
      </trkpt>
      <trkpt lat="43.00321" lon="0.30295">
        <ele>1131.4</ele>
        <time>2026-07-08T08:16:19Z</time>
      </trkpt>
      <trkpt lat="43.0032" lon="0.30295">
        <ele>1131.4</ele>
        <time>2026-07-08T08:16:20Z</time>
      </trkpt>
      <trkpt lat="43.0032" lon="0.30295">
        <ele>1132.4</ele>
        <time>2026-07-08T08:16:20Z</time>
      </trkpt>
      <trkpt lat="43.00319" lon="0.30295">
        <ele>1132.4</ele>
        <time>2026-07-08T08:16:21Z</time>
      </trkpt>
      <trkpt lat="43.00318" lon="0.30295">
        <ele>1132.4</ele>
        <time>2026-07-08T08:16:21Z</time>
      </trkpt>
      <trkpt lat="43.00318" lon="0.30295">
        <ele>1132.4</ele>
        <time>2026-07-08T08:16:22Z</time>
      </trkpt>
      <trkpt lat="43.00317" lon="0.30296">
        <ele>1132.4</ele>
        <time>2026-07-08T08:16:23Z</time>
      </trkpt>
      <trkpt lat="43.00317" lon="0.30296">
        <ele>1132.4</ele>
        <time>2026-07-08T08:16:23Z</time>
      </trkpt>
      <trkpt lat="43.00316" lon="0.30297">
        <ele>1131.4</ele>
        <time>2026-07-08T08:16:24Z</time>
      </trkpt>
      <trkpt lat="43.00316" lon="0.30297">
        <ele>1131.4</ele>
        <time>2026-07-08T08:16:24Z</time>
      </trkpt>
      <trkpt lat="43.00315" lon="0.30298">
        <ele>1131.4</ele>
        <time>2026-07-08T08:16:25Z</time>
      </trkpt>
      <trkpt lat="43.00315" lon="0.30299">
        <ele>1131.4</ele>
        <time>2026-07-08T08:16:25Z</time>
      </trkpt>
      <trkpt lat="43.00314" lon="0.303">
        <ele>1131.4</ele>
        <time>2026-07-08T08:16:26Z</time>
      </trkpt>
      <trkpt lat="43.00314" lon="0.30301">
        <ele>1130.4</ele>
        <time>2026-07-08T08:16:26Z</time>
      </trkpt>
      <trkpt lat="43.00313" lon="0.30302">
        <ele>1130.4</ele>
        <time>2026-07-08T08:16:27Z</time>
      </trkpt>
      <trkpt lat="43.00312" lon="0.30303">
        <ele>1130.4</ele>
        <time>2026-07-08T08:16:28Z</time>
      </trkpt>
      <trkpt lat="43.00312" lon="0.30304">
        <ele>1131.4</ele>
        <time>2026-07-08T08:16:28Z</time>
      </trkpt>
      <trkpt lat="43.00311" lon="0.30305">
        <ele>1131.4</ele>
        <time>2026-07-08T08:16:29Z</time>
      </trkpt>
      <trkpt lat="43.00311" lon="0.30308">
        <ele>1130.4</ele>
        <time>2026-07-08T08:16:30Z</time>
      </trkpt>
      <trkpt lat="43.00311" lon="0.3031">
        <ele>1130.4</ele>
        <time>2026-07-08T08:16:31Z</time>
      </trkpt>
      <trkpt lat="43.0031" lon="0.30311">
        <ele>1130.4</ele>
        <time>2026-07-08T08:16:32Z</time>
      </trkpt>
      <trkpt lat="43.0031" lon="0.30312">
        <ele>1129.4</ele>
        <time>2026-07-08T08:16:33Z</time>
      </trkpt>
      <trkpt lat="43.00309" lon="0.30313">
        <ele>1129.4</ele>
        <time>2026-07-08T08:16:34Z</time>
      </trkpt>
      <trkpt lat="43.00309" lon="0.30313">
        <ele>1129.4</ele>
        <time>2026-07-08T08:16:34Z</time>
      </trkpt>
      <trkpt lat="43.00309" lon="0.30314">
        <ele>1129.4</ele>
        <time>2026-07-08T08:16:35Z</time>
      </trkpt>
      <trkpt lat="43.00308" lon="0.30314">
        <ele>1129.4</ele>
        <time>2026-07-08T08:16:35Z</time>
      </trkpt>
      <trkpt lat="43.00308" lon="0.30314">
        <ele>1129.4</ele>
        <time>2026-07-08T08:16:36Z</time>
      </trkpt>
      <trkpt lat="43.00307" lon="0.30315">
        <ele>1129.4</ele>
        <time>2026-07-08T08:16:37Z</time>
      </trkpt>
      <trkpt lat="43.00307" lon="0.30316">
        <ele>1129.4</ele>
        <time>2026-07-08T08:16:37Z</time>
      </trkpt>
      <trkpt lat="43.00306" lon="0.30316">
        <ele>1129.4</ele>
        <time>2026-07-08T08:16:38Z</time>
      </trkpt>
      <trkpt lat="43.00306" lon="0.30317">
        <ele>1129.4</ele>
        <time>2026-07-08T08:16:38Z</time>
      </trkpt>
      <trkpt lat="43.00306" lon="0.30318">
        <ele>1128.4</ele>
        <time>2026-07-08T08:16:39Z</time>
      </trkpt>
      <trkpt lat="43.00305" lon="0.30319">
        <ele>1128.4</ele>
        <time>2026-07-08T08:16:40Z</time>
      </trkpt>
      <trkpt lat="43.00305" lon="0.3032">
        <ele>1128.4</ele>
        <time>2026-07-08T08:16:40Z</time>
      </trkpt>
      <trkpt lat="43.00304" lon="0.3032">
        <ele>1127.4</ele>
        <time>2026-07-08T08:16:41Z</time>
      </trkpt>
      <trkpt lat="43.00304" lon="0.30321">
        <ele>1127.4</ele>
        <time>2026-07-08T08:16:42Z</time>
      </trkpt>
      <trkpt lat="43.00303" lon="0.30322">
        <ele>1127.4</ele>
        <time>2026-07-08T08:16:43Z</time>
      </trkpt>
      <trkpt lat="43.00303" lon="0.30324">
        <ele>1126.4</ele>
        <time>2026-07-08T08:16:44Z</time>
      </trkpt>
      <trkpt lat="43.00303" lon="0.30324">
        <ele>1125.4</ele>
        <time>2026-07-08T08:16:44Z</time>
      </trkpt>
      <trkpt lat="43.00302" lon="0.30325">
        <ele>1125.4</ele>
        <time>2026-07-08T08:16:45Z</time>
      </trkpt>
      <trkpt lat="43.00302" lon="0.30326">
        <ele>1125.4</ele>
        <time>2026-07-08T08:16:46Z</time>
      </trkpt>
      <trkpt lat="43.00302" lon="0.30327">
        <ele>1125.4</ele>
        <time>2026-07-08T08:16:46Z</time>
      </trkpt>
      <trkpt lat="43.00301" lon="0.30328">
        <ele>1125.4</ele>
        <time>2026-07-08T08:16:47Z</time>
      </trkpt>
      <trkpt lat="43.00301" lon="0.30329">
        <ele>1124.4</ele>
        <time>2026-07-08T08:16:48Z</time>
      </trkpt>
      <trkpt lat="43.00301" lon="0.3033">
        <ele>1124.4</ele>
        <time>2026-07-08T08:16:49Z</time>
      </trkpt>
      <trkpt lat="43.003" lon="0.30332">
        <ele>1124.4</ele>
        <time>2026-07-08T08:16:50Z</time>
      </trkpt>
      <trkpt lat="43.003" lon="0.30332">
        <ele>1124.4</ele>
        <time>2026-07-08T08:16:50Z</time>
      </trkpt>
      <trkpt lat="43.003" lon="0.30333">
        <ele>1124.4</ele>
        <time>2026-07-08T08:16:51Z</time>
      </trkpt>
      <trkpt lat="43.00299" lon="0.30334">
        <ele>1124.4</ele>
        <time>2026-07-08T08:16:52Z</time>
      </trkpt>
      <trkpt lat="43.00299" lon="0.30334">
        <ele>1125.4</ele>
        <time>2026-07-08T08:16:52Z</time>
      </trkpt>
      <trkpt lat="43.00299" lon="0.30335">
        <ele>1125.4</ele>
        <time>2026-07-08T08:16:53Z</time>
      </trkpt>
      <trkpt lat="43.00299" lon="0.30335">
        <ele>1124.4</ele>
        <time>2026-07-08T08:16:53Z</time>
      </trkpt>
      <trkpt lat="43.00298" lon="0.30336">
        <ele>1124.4</ele>
        <time>2026-07-08T08:16:54Z</time>
      </trkpt>
      <trkpt lat="43.00298" lon="0.30337">
        <ele>1124.4</ele>
        <time>2026-07-08T08:16:54Z</time>
      </trkpt>
      <trkpt lat="43.00298" lon="0.30338">
        <ele>1124.4</ele>
        <time>2026-07-08T08:16:55Z</time>
      </trkpt>
      <trkpt lat="43.00297" lon="0.30339">
        <ele>1124.4</ele>
        <time>2026-07-08T08:16:56Z</time>
      </trkpt>
      <trkpt lat="43.00296" lon="0.3034">
        <ele>1123.4</ele>
        <time>2026-07-08T08:16:57Z</time>
      </trkpt>
      <trkpt lat="43.00296" lon="0.30341">
        <ele>1123.4</ele>
        <time>2026-07-08T08:16:58Z</time>
      </trkpt>
      <trkpt lat="43.00295" lon="0.30342">
        <ele>1123.4</ele>
        <time>2026-07-08T08:16:59Z</time>
      </trkpt>
      <trkpt lat="43.00295" lon="0.30343">
        <ele>1123.4</ele>
        <time>2026-07-08T08:16:59Z</time>
      </trkpt>
      <trkpt lat="43.00294" lon="0.30344">
        <ele>1123.4</ele>
        <time>2026-07-08T08:17:00Z</time>
      </trkpt>
      <trkpt lat="43.00293" lon="0.30345">
        <ele>1122.4</ele>
        <time>2026-07-08T08:17:01Z</time>
      </trkpt>
      <trkpt lat="43.00292" lon="0.30346">
        <ele>1122.4</ele>
        <time>2026-07-08T08:17:02Z</time>
      </trkpt>
      <trkpt lat="43.00291" lon="0.30347">
        <ele>1123.4</ele>
        <time>2026-07-08T08:17:03Z</time>
      </trkpt>
      <trkpt lat="43.00291" lon="0.30348">
        <ele>1123.4</ele>
        <time>2026-07-08T08:17:03Z</time>
      </trkpt>
      <trkpt lat="43.0029" lon="0.30349">
        <ele>1123.4</ele>
        <time>2026-07-08T08:17:04Z</time>
      </trkpt>
      <trkpt lat="43.00289" lon="0.3035">
        <ele>1122.4</ele>
        <time>2026-07-08T08:17:05Z</time>
      </trkpt>
      <trkpt lat="43.00289" lon="0.30351">
        <ele>1122.4</ele>
        <time>2026-07-08T08:17:05Z</time>
      </trkpt>
      <trkpt lat="43.00288" lon="0.30351">
        <ele>1122.4</ele>
        <time>2026-07-08T08:17:06Z</time>
      </trkpt>
      <trkpt lat="43.00288" lon="0.30352">
        <ele>1122.4</ele>
        <time>2026-07-08T08:17:06Z</time>
      </trkpt>
      <trkpt lat="43.00287" lon="0.30353">
        <ele>1122.4</ele>
        <time>2026-07-08T08:17:07Z</time>
      </trkpt>
      <trkpt lat="43.00287" lon="0.30353">
        <ele>1122.4</ele>
        <time>2026-07-08T08:17:08Z</time>
      </trkpt>
      <trkpt lat="43.00286" lon="0.30354">
        <ele>1122.4</ele>
        <time>2026-07-08T08:17:08Z</time>
      </trkpt>
      <trkpt lat="43.00286" lon="0.30355">
        <ele>1122.4</ele>
        <time>2026-07-08T08:17:09Z</time>
      </trkpt>
      <trkpt lat="43.00285" lon="0.30355">
        <ele>1122.4</ele>
        <time>2026-07-08T08:17:09Z</time>
      </trkpt>
      <trkpt lat="43.00285" lon="0.30356">
        <ele>1122.4</ele>
        <time>2026-07-08T08:17:10Z</time>
      </trkpt>
      <trkpt lat="43.00284" lon="0.30357">
        <ele>1121.4</ele>
        <time>2026-07-08T08:17:10Z</time>
      </trkpt>
      <trkpt lat="43.00284" lon="0.30358">
        <ele>1121.4</ele>
        <time>2026-07-08T08:17:11Z</time>
      </trkpt>
      <trkpt lat="43.00283" lon="0.30358">
        <ele>1122.4</ele>
        <time>2026-07-08T08:17:11Z</time>
      </trkpt>
      <trkpt lat="43.00283" lon="0.30359">
        <ele>1121.4</ele>
        <time>2026-07-08T08:17:12Z</time>
      </trkpt>
      <trkpt lat="43.00282" lon="0.3036">
        <ele>1121.4</ele>
        <time>2026-07-08T08:17:13Z</time>
      </trkpt>
      <trkpt lat="43.00282" lon="0.30361">
        <ele>1121.4</ele>
        <time>2026-07-08T08:17:13Z</time>
      </trkpt>
      <trkpt lat="43.00282" lon="0.30362">
        <ele>1121.4</ele>
        <time>2026-07-08T08:17:14Z</time>
      </trkpt>
      <trkpt lat="43.00281" lon="0.30362">
        <ele>1121.4</ele>
        <time>2026-07-08T08:17:14Z</time>
      </trkpt>
      <trkpt lat="43.00281" lon="0.30363">
        <ele>1121.4</ele>
        <time>2026-07-08T08:17:15Z</time>
      </trkpt>
      <trkpt lat="43.00281" lon="0.30364">
        <ele>1121.4</ele>
        <time>2026-07-08T08:17:15Z</time>
      </trkpt>
      <trkpt lat="43.0028" lon="0.30365">
        <ele>1121.4</ele>
        <time>2026-07-08T08:17:16Z</time>
      </trkpt>
      <trkpt lat="43.0028" lon="0.30365">
        <ele>1121.4</ele>
        <time>2026-07-08T08:17:16Z</time>
      </trkpt>
      <trkpt lat="43.0028" lon="0.30366">
        <ele>1121.4</ele>
        <time>2026-07-08T08:17:17Z</time>
      </trkpt>
      <trkpt lat="43.0028" lon="0.30366">
        <ele>1120.4</ele>
        <time>2026-07-08T08:17:17Z</time>
      </trkpt>
      <trkpt lat="43.00279" lon="0.30367">
        <ele>1120.4</ele>
        <time>2026-07-08T08:17:18Z</time>
      </trkpt>
      <trkpt lat="43.00279" lon="0.30368">
        <ele>1119.4</ele>
        <time>2026-07-08T08:17:19Z</time>
      </trkpt>
      <trkpt lat="43.00279" lon="0.30369">
        <ele>1119.4</ele>
        <time>2026-07-08T08:17:19Z</time>
      </trkpt>
      <trkpt lat="43.00278" lon="0.3037">
        <ele>1119.4</ele>
        <time>2026-07-08T08:17:20Z</time>
      </trkpt>
      <trkpt lat="43.00278" lon="0.3037">
        <ele>1119.4</ele>
        <time>2026-07-08T08:17:21Z</time>
      </trkpt>
      <trkpt lat="43.00278" lon="0.30371">
        <ele>1118.4</ele>
        <time>2026-07-08T08:17:21Z</time>
      </trkpt>
      <trkpt lat="43.00278" lon="0.30372">
        <ele>1118.4</ele>
        <time>2026-07-08T08:17:22Z</time>
      </trkpt>
      <trkpt lat="43.00277" lon="0.30372">
        <ele>1118.4</ele>
        <time>2026-07-08T08:17:22Z</time>
      </trkpt>
      <trkpt lat="43.00277" lon="0.30373">
        <ele>1118.4</ele>
        <time>2026-07-08T08:17:23Z</time>
      </trkpt>
      <trkpt lat="43.00276" lon="0.30374">
        <ele>1118.4</ele>
        <time>2026-07-08T08:17:24Z</time>
      </trkpt>
      <trkpt lat="43.00276" lon="0.30375">
        <ele>1118.4</ele>
        <time>2026-07-08T08:17:24Z</time>
      </trkpt>
      <trkpt lat="43.00275" lon="0.30375">
        <ele>1118.4</ele>
        <time>2026-07-08T08:17:25Z</time>
      </trkpt>
      <trkpt lat="43.00275" lon="0.30376">
        <ele>1119.4</ele>
        <time>2026-07-08T08:17:25Z</time>
      </trkpt>
      <trkpt lat="43.00274" lon="0.30377">
        <ele>1119.4</ele>
        <time>2026-07-08T08:17:26Z</time>
      </trkpt>
      <trkpt lat="43.00274" lon="0.30377">
        <ele>1119.4</ele>
        <time>2026-07-08T08:17:26Z</time>
      </trkpt>
      <trkpt lat="43.00273" lon="0.30378">
        <ele>1119.4</ele>
        <time>2026-07-08T08:17:27Z</time>
      </trkpt>
      <trkpt lat="43.00273" lon="0.30379">
        <ele>1119.4</ele>
        <time>2026-07-08T08:17:28Z</time>
      </trkpt>
      <trkpt lat="43.00272" lon="0.3038">
        <ele>1119.4</ele>
        <time>2026-07-08T08:17:29Z</time>
      </trkpt>
      <trkpt lat="43.00271" lon="0.30381">
        <ele>1119.4</ele>
        <time>2026-07-08T08:17:30Z</time>
      </trkpt>
      <trkpt lat="43.00271" lon="0.30382">
        <ele>1120.4</ele>
        <time>2026-07-08T08:17:30Z</time>
      </trkpt>
      <trkpt lat="43.0027" lon="0.30383">
        <ele>1120.4</ele>
        <time>2026-07-08T08:17:31Z</time>
      </trkpt>
      <trkpt lat="43.0027" lon="0.30384">
        <ele>1120.4</ele>
        <time>2026-07-08T08:17:31Z</time>
      </trkpt>
      <trkpt lat="43.0027" lon="0.30385">
        <ele>1120.4</ele>
        <time>2026-07-08T08:17:32Z</time>
      </trkpt>
      <trkpt lat="43.00269" lon="0.30386">
        <ele>1120.4</ele>
        <time>2026-07-08T08:17:33Z</time>
      </trkpt>
      <trkpt lat="43.00269" lon="0.30387">
        <ele>1120.4</ele>
        <time>2026-07-08T08:17:33Z</time>
      </trkpt>
      <trkpt lat="43.00268" lon="0.30388">
        <ele>1120.4</ele>
        <time>2026-07-08T08:17:34Z</time>
      </trkpt>
      <trkpt lat="43.00268" lon="0.30389">
        <ele>1120.4</ele>
        <time>2026-07-08T08:17:34Z</time>
      </trkpt>
      <trkpt lat="43.00267" lon="0.3039">
        <ele>1120.4</ele>
        <time>2026-07-08T08:17:35Z</time>
      </trkpt>
      <trkpt lat="43.00267" lon="0.3039">
        <ele>1119.4</ele>
        <time>2026-07-08T08:17:35Z</time>
      </trkpt>
      <trkpt lat="43.00267" lon="0.30391">
        <ele>1119.4</ele>
        <time>2026-07-08T08:17:36Z</time>
      </trkpt>
      <trkpt lat="43.00266" lon="0.30391">
        <ele>1120.4</ele>
        <time>2026-07-08T08:17:36Z</time>
      </trkpt>
      <trkpt lat="43.00266" lon="0.30392">
        <ele>1120.4</ele>
        <time>2026-07-08T08:17:37Z</time>
      </trkpt>
      <trkpt lat="43.00266" lon="0.30392">
        <ele>1120.4</ele>
        <time>2026-07-08T08:17:38Z</time>
      </trkpt>
      <trkpt lat="43.00265" lon="0.30393">
        <ele>1119.4</ele>
        <time>2026-07-08T08:17:38Z</time>
      </trkpt>
      <trkpt lat="43.00265" lon="0.30394">
        <ele>1119.4</ele>
        <time>2026-07-08T08:17:39Z</time>
      </trkpt>
      <trkpt lat="43.00264" lon="0.30395">
        <ele>1118.4</ele>
        <time>2026-07-08T08:17:39Z</time>
      </trkpt>
      <trkpt lat="43.00264" lon="0.30396">
        <ele>1119.4</ele>
        <time>2026-07-08T08:17:40Z</time>
      </trkpt>
      <trkpt lat="43.00263" lon="0.30397">
        <ele>1119.4</ele>
        <time>2026-07-08T08:17:41Z</time>
      </trkpt>
      <trkpt lat="43.00263" lon="0.30398">
        <ele>1118.4</ele>
        <time>2026-07-08T08:17:42Z</time>
      </trkpt>
      <trkpt lat="43.00263" lon="0.30399">
        <ele>1118.4</ele>
        <time>2026-07-08T08:17:42Z</time>
      </trkpt>
      <trkpt lat="43.00262" lon="0.304">
        <ele>1118.4</ele>
        <time>2026-07-08T08:17:43Z</time>
      </trkpt>
      <trkpt lat="43.00261" lon="0.30401">
        <ele>1119.4</ele>
        <time>2026-07-08T08:17:44Z</time>
      </trkpt>
      <trkpt lat="43.0026" lon="0.30402">
        <ele>1118.4</ele>
        <time>2026-07-08T08:17:45Z</time>
      </trkpt>
      <trkpt lat="43.0026" lon="0.30403">
        <ele>1119.4</ele>
        <time>2026-07-08T08:17:45Z</time>
      </trkpt>
      <trkpt lat="43.0026" lon="0.30404">
        <ele>1119.4</ele>
        <time>2026-07-08T08:17:46Z</time>
      </trkpt>
      <trkpt lat="43.00259" lon="0.30405">
        <ele>1119.4</ele>
        <time>2026-07-08T08:17:47Z</time>
      </trkpt>
      <trkpt lat="43.00258" lon="0.30407">
        <ele>1118.4</ele>
        <time>2026-07-08T08:17:48Z</time>
      </trkpt>
      <trkpt lat="43.00257" lon="0.30408">
        <ele>1118.4</ele>
        <time>2026-07-08T08:17:49Z</time>
      </trkpt>
      <trkpt lat="43.00257" lon="0.30409">
        <ele>1119.4</ele>
        <time>2026-07-08T08:17:49Z</time>
      </trkpt>
      <trkpt lat="43.00257" lon="0.3041">
        <ele>1119.4</ele>
        <time>2026-07-08T08:17:50Z</time>
      </trkpt>
      <trkpt lat="43.00256" lon="0.30411">
        <ele>1118.4</ele>
        <time>2026-07-08T08:17:51Z</time>
      </trkpt>
      <trkpt lat="43.00256" lon="0.30412">
        <ele>1118.4</ele>
        <time>2026-07-08T08:17:52Z</time>
      </trkpt>
      <trkpt lat="43.00255" lon="0.30413">
        <ele>1118.4</ele>
        <time>2026-07-08T08:17:53Z</time>
      </trkpt>
      <trkpt lat="43.00255" lon="0.30413">
        <ele>1118.4</ele>
        <time>2026-07-08T08:17:53Z</time>
      </trkpt>
      <trkpt lat="43.00255" lon="0.30414">
        <ele>1118.4</ele>
        <time>2026-07-08T08:17:54Z</time>
      </trkpt>
      <trkpt lat="43.00254" lon="0.30415">
        <ele>1118.4</ele>
        <time>2026-07-08T08:17:54Z</time>
      </trkpt>
      <trkpt lat="43.00254" lon="0.30416">
        <ele>1118.4</ele>
        <time>2026-07-08T08:17:55Z</time>
      </trkpt>
      <trkpt lat="43.00253" lon="0.30416">
        <ele>1118.4</ele>
        <time>2026-07-08T08:17:55Z</time>
      </trkpt>
      <trkpt lat="43.00253" lon="0.30417">
        <ele>1118.4</ele>
        <time>2026-07-08T08:17:56Z</time>
      </trkpt>
      <trkpt lat="43.00252" lon="0.30418">
        <ele>1118.4</ele>
        <time>2026-07-08T08:17:56Z</time>
      </trkpt>
      <trkpt lat="43.00252" lon="0.30419">
        <ele>1118.4</ele>
        <time>2026-07-08T08:17:57Z</time>
      </trkpt>
      <trkpt lat="43.00251" lon="0.30419">
        <ele>1118.4</ele>
        <time>2026-07-08T08:17:57Z</time>
      </trkpt>
      <trkpt lat="43.0025" lon="0.30419">
        <ele>1118.4</ele>
        <time>2026-07-08T08:17:58Z</time>
      </trkpt>
      <trkpt lat="43.0025" lon="0.3042">
        <ele>1117.4</ele>
        <time>2026-07-08T08:17:59Z</time>
      </trkpt>
      <trkpt lat="43.00249" lon="0.30421">
        <ele>1117.4</ele>
        <time>2026-07-08T08:18:00Z</time>
      </trkpt>
      <trkpt lat="43.00248" lon="0.30422">
        <ele>1117.4</ele>
        <time>2026-07-08T08:18:00Z</time>
      </trkpt>
      <trkpt lat="43.00248" lon="0.30423">
        <ele>1118.4</ele>
        <time>2026-07-08T08:18:01Z</time>
      </trkpt>
      <trkpt lat="43.00247" lon="0.30424">
        <ele>1118.4</ele>
        <time>2026-07-08T08:18:02Z</time>
      </trkpt>
      <trkpt lat="43.00247" lon="0.30424">
        <ele>1118.4</ele>
        <time>2026-07-08T08:18:02Z</time>
      </trkpt>
      <trkpt lat="43.00246" lon="0.30425">
        <ele>1118.4</ele>
        <time>2026-07-08T08:18:03Z</time>
      </trkpt>
      <trkpt lat="43.00246" lon="0.30426">
        <ele>1118.4</ele>
        <time>2026-07-08T08:18:03Z</time>
      </trkpt>
      <trkpt lat="43.00246" lon="0.30427">
        <ele>1118.4</ele>
        <time>2026-07-08T08:18:04Z</time>
      </trkpt>
      <trkpt lat="43.00246" lon="0.30427">
        <ele>1117.4</ele>
        <time>2026-07-08T08:18:04Z</time>
      </trkpt>
      <trkpt lat="43.00245" lon="0.30428">
        <ele>1117.4</ele>
        <time>2026-07-08T08:18:05Z</time>
      </trkpt>
      <trkpt lat="43.00245" lon="0.30429">
        <ele>1117.4</ele>
        <time>2026-07-08T08:18:05Z</time>
      </trkpt>
      <trkpt lat="43.00245" lon="0.3043">
        <ele>1117.4</ele>
        <time>2026-07-08T08:18:06Z</time>
      </trkpt>
      <trkpt lat="43.00245" lon="0.30431">
        <ele>1116.4</ele>
        <time>2026-07-08T08:18:06Z</time>
      </trkpt>
      <trkpt lat="43.00245" lon="0.30432">
        <ele>1116.4</ele>
        <time>2026-07-08T08:18:07Z</time>
      </trkpt>
      <trkpt lat="43.00244" lon="0.30433">
        <ele>1115.4</ele>
        <time>2026-07-08T08:18:08Z</time>
      </trkpt>
      <trkpt lat="43.00244" lon="0.30434">
        <ele>1115.4</ele>
        <time>2026-07-08T08:18:09Z</time>
      </trkpt>
      <trkpt lat="43.00244" lon="0.30435">
        <ele>1114.4</ele>
        <time>2026-07-08T08:18:09Z</time>
      </trkpt>
      <trkpt lat="43.00244" lon="0.30436">
        <ele>1114.4</ele>
        <time>2026-07-08T08:18:10Z</time>
      </trkpt>
      <trkpt lat="43.00244" lon="0.30437">
        <ele>1115.4</ele>
        <time>2026-07-08T08:18:10Z</time>
      </trkpt>
      <trkpt lat="43.00244" lon="0.30438">
        <ele>1115.4</ele>
        <time>2026-07-08T08:18:11Z</time>
      </trkpt>
      <trkpt lat="43.00244" lon="0.30439">
        <ele>1114.4</ele>
        <time>2026-07-08T08:18:11Z</time>
      </trkpt>
      <trkpt lat="43.00244" lon="0.30441">
        <ele>1114.4</ele>
        <time>2026-07-08T08:18:12Z</time>
      </trkpt>
      <trkpt lat="43.00244" lon="0.30442">
        <ele>1114.4</ele>
        <time>2026-07-08T08:18:13Z</time>
      </trkpt>
      <trkpt lat="43.00244" lon="0.30443">
        <ele>1114.4</ele>
        <time>2026-07-08T08:18:13Z</time>
      </trkpt>
      <trkpt lat="43.00244" lon="0.30444">
        <ele>1114.4</ele>
        <time>2026-07-08T08:18:14Z</time>
      </trkpt>
      <trkpt lat="43.00244" lon="0.30446">
        <ele>1114.4</ele>
        <time>2026-07-08T08:18:15Z</time>
      </trkpt>
      <trkpt lat="43.00244" lon="0.30447">
        <ele>1114.4</ele>
        <time>2026-07-08T08:18:16Z</time>
      </trkpt>
      <trkpt lat="43.00244" lon="0.30448">
        <ele>1114.4</ele>
        <time>2026-07-08T08:18:16Z</time>
      </trkpt>
      <trkpt lat="43.00244" lon="0.3045">
        <ele>1114.4</ele>
        <time>2026-07-08T08:18:17Z</time>
      </trkpt>
      <trkpt lat="43.00245" lon="0.3045">
        <ele>1114.4</ele>
        <time>2026-07-08T08:18:17Z</time>
      </trkpt>
      <trkpt lat="43.00245" lon="0.30452">
        <ele>1114.4</ele>
        <time>2026-07-08T08:18:18Z</time>
      </trkpt>
      <trkpt lat="43.00245" lon="0.30454">
        <ele>1114.4</ele>
        <time>2026-07-08T08:18:19Z</time>
      </trkpt>
      <trkpt lat="43.00246" lon="0.30455">
        <ele>1113.4</ele>
        <time>2026-07-08T08:18:19Z</time>
      </trkpt>
      <trkpt lat="43.00246" lon="0.30456">
        <ele>1113.4</ele>
        <time>2026-07-08T08:18:20Z</time>
      </trkpt>
      <trkpt lat="43.00246" lon="0.30458">
        <ele>1113.4</ele>
        <time>2026-07-08T08:18:21Z</time>
      </trkpt>
      <trkpt lat="43.00247" lon="0.30459">
        <ele>1114.4</ele>
        <time>2026-07-08T08:18:21Z</time>
      </trkpt>
      <trkpt lat="43.00247" lon="0.3046">
        <ele>1114.4</ele>
        <time>2026-07-08T08:18:22Z</time>
      </trkpt>
      <trkpt lat="43.00247" lon="0.30462">
        <ele>1114.4</ele>
        <time>2026-07-08T08:18:23Z</time>
      </trkpt>
      <trkpt lat="43.00247" lon="0.30462">
        <ele>1114.4</ele>
        <time>2026-07-08T08:18:23Z</time>
      </trkpt>
      <trkpt lat="43.00247" lon="0.30464">
        <ele>1114.4</ele>
        <time>2026-07-08T08:18:24Z</time>
      </trkpt>
      <trkpt lat="43.00247" lon="0.30464">
        <ele>1114.4</ele>
        <time>2026-07-08T08:18:24Z</time>
      </trkpt>
      <trkpt lat="43.00247" lon="0.30465">
        <ele>1114.4</ele>
        <time>2026-07-08T08:18:25Z</time>
      </trkpt>
      <trkpt lat="43.00248" lon="0.30466">
        <ele>1114.4</ele>
        <time>2026-07-08T08:18:26Z</time>
      </trkpt>
      <trkpt lat="43.00248" lon="0.30467">
        <ele>1114.4</ele>
        <time>2026-07-08T08:18:26Z</time>
      </trkpt>
      <trkpt lat="43.00248" lon="0.30468">
        <ele>1114.4</ele>
        <time>2026-07-08T08:18:27Z</time>
      </trkpt>
      <trkpt lat="43.00248" lon="0.30469">
        <ele>1114.4</ele>
        <time>2026-07-08T08:18:27Z</time>
      </trkpt>
      <trkpt lat="43.00248" lon="0.3047">
        <ele>1114.4</ele>
        <time>2026-07-08T08:18:28Z</time>
      </trkpt>
      <trkpt lat="43.00247" lon="0.30471">
        <ele>1114.4</ele>
        <time>2026-07-08T08:18:28Z</time>
      </trkpt>
      <trkpt lat="43.00247" lon="0.30472">
        <ele>1114.4</ele>
        <time>2026-07-08T08:18:29Z</time>
      </trkpt>
      <trkpt lat="43.00247" lon="0.30473">
        <ele>1113.4</ele>
        <time>2026-07-08T08:18:29Z</time>
      </trkpt>
      <trkpt lat="43.00247" lon="0.30474">
        <ele>1113.4</ele>
        <time>2026-07-08T08:18:30Z</time>
      </trkpt>
      <trkpt lat="43.00247" lon="0.30475">
        <ele>1113.4</ele>
        <time>2026-07-08T08:18:30Z</time>
      </trkpt>
      <trkpt lat="43.00247" lon="0.30476">
        <ele>1113.4</ele>
        <time>2026-07-08T08:18:31Z</time>
      </trkpt>
      <trkpt lat="43.00247" lon="0.30477">
        <ele>1113.4</ele>
        <time>2026-07-08T08:18:32Z</time>
      </trkpt>
      <trkpt lat="43.00247" lon="0.30478">
        <ele>1113.4</ele>
        <time>2026-07-08T08:18:32Z</time>
      </trkpt>
      <trkpt lat="43.00247" lon="0.30479">
        <ele>1114.4</ele>
        <time>2026-07-08T08:18:33Z</time>
      </trkpt>
      <trkpt lat="43.00247" lon="0.3048">
        <ele>1114.4</ele>
        <time>2026-07-08T08:18:33Z</time>
      </trkpt>
      <trkpt lat="43.00247" lon="0.30481">
        <ele>1114.4</ele>
        <time>2026-07-08T08:18:34Z</time>
      </trkpt>
      <trkpt lat="43.00247" lon="0.30482">
        <ele>1113.4</ele>
        <time>2026-07-08T08:18:34Z</time>
      </trkpt>
      <trkpt lat="43.00247" lon="0.30483">
        <ele>1113.4</ele>
        <time>2026-07-08T08:18:35Z</time>
      </trkpt>
      <trkpt lat="43.00247" lon="0.30484">
        <ele>1114.4</ele>
        <time>2026-07-08T08:18:35Z</time>
      </trkpt>
      <trkpt lat="43.00247" lon="0.30485">
        <ele>1114.4</ele>
        <time>2026-07-08T08:18:36Z</time>
      </trkpt>
      <trkpt lat="43.00247" lon="0.30486">
        <ele>1114.4</ele>
        <time>2026-07-08T08:18:36Z</time>
      </trkpt>
      <trkpt lat="43.00247" lon="0.30487">
        <ele>1114.4</ele>
        <time>2026-07-08T08:18:37Z</time>
      </trkpt>
      <trkpt lat="43.00247" lon="0.30488">
        <ele>1114.4</ele>
        <time>2026-07-08T08:18:37Z</time>
      </trkpt>
      <trkpt lat="43.00247" lon="0.30489">
        <ele>1114.4</ele>
        <time>2026-07-08T08:18:38Z</time>
      </trkpt>
      <trkpt lat="43.00247" lon="0.3049">
        <ele>1114.4</ele>
        <time>2026-07-08T08:18:38Z</time>
      </trkpt>
      <trkpt lat="43.00247" lon="0.30491">
        <ele>1114.4</ele>
        <time>2026-07-08T08:18:39Z</time>
      </trkpt>
      <trkpt lat="43.00248" lon="0.30492">
        <ele>1114.4</ele>
        <time>2026-07-08T08:18:40Z</time>
      </trkpt>
      <trkpt lat="43.00248" lon="0.30492">
        <ele>1114.4</ele>
        <time>2026-07-08T08:18:40Z</time>
      </trkpt>
      <trkpt lat="43.00248" lon="0.30493">
        <ele>1114.4</ele>
        <time>2026-07-08T08:18:41Z</time>
      </trkpt>
      <trkpt lat="43.00248" lon="0.30495">
        <ele>1115.4</ele>
        <time>2026-07-08T08:18:41Z</time>
      </trkpt>
      <trkpt lat="43.00248" lon="0.30495">
        <ele>1115.4</ele>
        <time>2026-07-08T08:18:42Z</time>
      </trkpt>
      <trkpt lat="43.00249" lon="0.30497">
        <ele>1114.4</ele>
        <time>2026-07-08T08:18:42Z</time>
      </trkpt>
      <trkpt lat="43.00249" lon="0.30498">
        <ele>1114.4</ele>
        <time>2026-07-08T08:18:43Z</time>
      </trkpt>
      <trkpt lat="43.00249" lon="0.30499">
        <ele>1114.4</ele>
        <time>2026-07-08T08:18:43Z</time>
      </trkpt>
      <trkpt lat="43.0025" lon="0.305">
        <ele>1114.4</ele>
        <time>2026-07-08T08:18:44Z</time>
      </trkpt>
      <trkpt lat="43.0025" lon="0.30501">
        <ele>1114.4</ele>
        <time>2026-07-08T08:18:45Z</time>
      </trkpt>
      <trkpt lat="43.0025" lon="0.30502">
        <ele>1115.4</ele>
        <time>2026-07-08T08:18:45Z</time>
      </trkpt>
      <trkpt lat="43.00251" lon="0.30504">
        <ele>1115.4</ele>
        <time>2026-07-08T08:18:46Z</time>
      </trkpt>
      <trkpt lat="43.00251" lon="0.30505">
        <ele>1115.4</ele>
        <time>2026-07-08T08:18:46Z</time>
      </trkpt>
      <trkpt lat="43.00251" lon="0.30506">
        <ele>1115.4</ele>
        <time>2026-07-08T08:18:47Z</time>
      </trkpt>
      <trkpt lat="43.00251" lon="0.30507">
        <ele>1115.4</ele>
        <time>2026-07-08T08:18:48Z</time>
      </trkpt>
      <trkpt lat="43.00251" lon="0.30508">
        <ele>1114.4</ele>
        <time>2026-07-08T08:18:48Z</time>
      </trkpt>
      <trkpt lat="43.00251" lon="0.30509">
        <ele>1114.4</ele>
        <time>2026-07-08T08:18:49Z</time>
      </trkpt>
      <trkpt lat="43.00251" lon="0.3051">
        <ele>1114.4</ele>
        <time>2026-07-08T08:18:49Z</time>
      </trkpt>
      <trkpt lat="43.00251" lon="0.30511">
        <ele>1114.4</ele>
        <time>2026-07-08T08:18:50Z</time>
      </trkpt>
      <trkpt lat="43.0025" lon="0.30512">
        <ele>1113.4</ele>
        <time>2026-07-08T08:18:50Z</time>
      </trkpt>
      <trkpt lat="43.0025" lon="0.30513">
        <ele>1113.4</ele>
        <time>2026-07-08T08:18:51Z</time>
      </trkpt>
      <trkpt lat="43.0025" lon="0.30515">
        <ele>1113.4</ele>
        <time>2026-07-08T08:18:52Z</time>
      </trkpt>
      <trkpt lat="43.00249" lon="0.30516">
        <ele>1113.4</ele>
        <time>2026-07-08T08:18:53Z</time>
      </trkpt>
      <trkpt lat="43.00249" lon="0.30517">
        <ele>1113.4</ele>
        <time>2026-07-08T08:18:53Z</time>
      </trkpt>
      <trkpt lat="43.00249" lon="0.30518">
        <ele>1113.4</ele>
        <time>2026-07-08T08:18:54Z</time>
      </trkpt>
      <trkpt lat="43.0025" lon="0.30519">
        <ele>1113.4</ele>
        <time>2026-07-08T08:18:55Z</time>
      </trkpt>
      <trkpt lat="43.0025" lon="0.3052">
        <ele>1114.4</ele>
        <time>2026-07-08T08:18:55Z</time>
      </trkpt>
      <trkpt lat="43.0025" lon="0.30521">
        <ele>1114.4</ele>
        <time>2026-07-08T08:18:56Z</time>
      </trkpt>
      <trkpt lat="43.0025" lon="0.30522">
        <ele>1113.4</ele>
        <time>2026-07-08T08:18:56Z</time>
      </trkpt>
      <trkpt lat="43.0025" lon="0.30523">
        <ele>1113.4</ele>
        <time>2026-07-08T08:18:57Z</time>
      </trkpt>
      <trkpt lat="43.0025" lon="0.30524">
        <ele>1114.4</ele>
        <time>2026-07-08T08:18:57Z</time>
      </trkpt>
      <trkpt lat="43.0025" lon="0.30524">
        <ele>1114.4</ele>
        <time>2026-07-08T08:18:58Z</time>
      </trkpt>
      <trkpt lat="43.0025" lon="0.30525">
        <ele>1113.4</ele>
        <time>2026-07-08T08:18:58Z</time>
      </trkpt>
      <trkpt lat="43.0025" lon="0.30526">
        <ele>1113.4</ele>
        <time>2026-07-08T08:18:59Z</time>
      </trkpt>
      <trkpt lat="43.00249" lon="0.30527">
        <ele>1113.4</ele>
        <time>2026-07-08T08:18:59Z</time>
      </trkpt>
      <trkpt lat="43.00249" lon="0.30528">
        <ele>1113.4</ele>
        <time>2026-07-08T08:19:00Z</time>
      </trkpt>
      <trkpt lat="43.00248" lon="0.30528">
        <ele>1113.4</ele>
        <time>2026-07-08T08:19:01Z</time>
      </trkpt>
      <trkpt lat="43.00248" lon="0.30529">
        <ele>1112.4</ele>
        <time>2026-07-08T08:19:01Z</time>
      </trkpt>
      <trkpt lat="43.00248" lon="0.3053">
        <ele>1112.4</ele>
        <time>2026-07-08T08:19:02Z</time>
      </trkpt>
      <trkpt lat="43.00247" lon="0.3053">
        <ele>1112.4</ele>
        <time>2026-07-08T08:19:02Z</time>
      </trkpt>
      <trkpt lat="43.00247" lon="0.30531">
        <ele>1112.4</ele>
        <time>2026-07-08T08:19:03Z</time>
      </trkpt>
      <trkpt lat="43.00247" lon="0.30532">
        <ele>1112.4</ele>
        <time>2026-07-08T08:19:03Z</time>
      </trkpt>
      <trkpt lat="43.00247" lon="0.30533">
        <ele>1112.4</ele>
        <time>2026-07-08T08:19:04Z</time>
      </trkpt>
      <trkpt lat="43.00247" lon="0.30534">
        <ele>1113.4</ele>
        <time>2026-07-08T08:19:04Z</time>
      </trkpt>
      <trkpt lat="43.00246" lon="0.30535">
        <ele>1113.4</ele>
        <time>2026-07-08T08:19:05Z</time>
      </trkpt>
      <trkpt lat="43.00246" lon="0.30536">
        <ele>1113.4</ele>
        <time>2026-07-08T08:19:05Z</time>
      </trkpt>
      <trkpt lat="43.00246" lon="0.30537">
        <ele>1113.4</ele>
        <time>2026-07-08T08:19:06Z</time>
      </trkpt>
      <trkpt lat="43.00246" lon="0.30537">
        <ele>1113.4</ele>
        <time>2026-07-08T08:19:06Z</time>
      </trkpt>
      <trkpt lat="43.00246" lon="0.30538">
        <ele>1113.4</ele>
        <time>2026-07-08T08:19:07Z</time>
      </trkpt>
      <trkpt lat="43.00246" lon="0.30539">
        <ele>1112.4</ele>
        <time>2026-07-08T08:19:07Z</time>
      </trkpt>
      <trkpt lat="43.00246" lon="0.30539">
        <ele>1111.4</ele>
        <time>2026-07-08T08:19:08Z</time>
      </trkpt>
      <trkpt lat="43.00246" lon="0.3054">
        <ele>1111.4</ele>
        <time>2026-07-08T08:19:09Z</time>
      </trkpt>
      <trkpt lat="43.00246" lon="0.30541">
        <ele>1111.4</ele>
        <time>2026-07-08T08:19:09Z</time>
      </trkpt>
      <trkpt lat="43.00246" lon="0.30542">
        <ele>1111.4</ele>
        <time>2026-07-08T08:19:10Z</time>
      </trkpt>
      <trkpt lat="43.00246" lon="0.30542">
        <ele>1111.4</ele>
        <time>2026-07-08T08:19:10Z</time>
      </trkpt>
      <trkpt lat="43.00246" lon="0.30543">
        <ele>1111.4</ele>
        <time>2026-07-08T08:19:11Z</time>
      </trkpt>
      <trkpt lat="43.00246" lon="0.30544">
        <ele>1110.4</ele>
        <time>2026-07-08T08:19:11Z</time>
      </trkpt>
      <trkpt lat="43.00246" lon="0.30545">
        <ele>1110.4</ele>
        <time>2026-07-08T08:19:12Z</time>
      </trkpt>
      <trkpt lat="43.00246" lon="0.30546">
        <ele>1110.4</ele>
        <time>2026-07-08T08:19:12Z</time>
      </trkpt>
      <trkpt lat="43.00245" lon="0.30547">
        <ele>1110.4</ele>
        <time>2026-07-08T08:19:13Z</time>
      </trkpt>
      <trkpt lat="43.00245" lon="0.30548">
        <ele>1110.4</ele>
        <time>2026-07-08T08:19:14Z</time>
      </trkpt>
      <trkpt lat="43.00245" lon="0.30549">
        <ele>1110.4</ele>
        <time>2026-07-08T08:19:15Z</time>
      </trkpt>
      <trkpt lat="43.00244" lon="0.3055">
        <ele>1110.4</ele>
        <time>2026-07-08T08:19:15Z</time>
      </trkpt>
      <trkpt lat="43.00244" lon="0.30551">
        <ele>1110.4</ele>
        <time>2026-07-08T08:19:16Z</time>
      </trkpt>
      <trkpt lat="43.00244" lon="0.30552">
        <ele>1110.4</ele>
        <time>2026-07-08T08:19:16Z</time>
      </trkpt>
      <trkpt lat="43.00244" lon="0.30553">
        <ele>1110.4</ele>
        <time>2026-07-08T08:19:17Z</time>
      </trkpt>
      <trkpt lat="43.00244" lon="0.30554">
        <ele>1110.4</ele>
        <time>2026-07-08T08:19:17Z</time>
      </trkpt>
      <trkpt lat="43.00244" lon="0.30555">
        <ele>1110.4</ele>
        <time>2026-07-08T08:19:18Z</time>
      </trkpt>
      <trkpt lat="43.00244" lon="0.30556">
        <ele>1110.4</ele>
        <time>2026-07-08T08:19:18Z</time>
      </trkpt>
      <trkpt lat="43.00243" lon="0.30557">
        <ele>1110.4</ele>
        <time>2026-07-08T08:19:19Z</time>
      </trkpt>
      <trkpt lat="43.00243" lon="0.30558">
        <ele>1111.4</ele>
        <time>2026-07-08T08:19:19Z</time>
      </trkpt>
      <trkpt lat="43.00243" lon="0.30559">
        <ele>1111.4</ele>
        <time>2026-07-08T08:19:20Z</time>
      </trkpt>
      <trkpt lat="43.00243" lon="0.3056">
        <ele>1110.4</ele>
        <time>2026-07-08T08:19:20Z</time>
      </trkpt>
      <trkpt lat="43.00243" lon="0.30561">
        <ele>1110.4</ele>
        <time>2026-07-08T08:19:21Z</time>
      </trkpt>
      <trkpt lat="43.00243" lon="0.30562">
        <ele>1110.4</ele>
        <time>2026-07-08T08:19:22Z</time>
      </trkpt>
      <trkpt lat="43.00243" lon="0.30563">
        <ele>1110.4</ele>
        <time>2026-07-08T08:19:22Z</time>
      </trkpt>
      <trkpt lat="43.00243" lon="0.30564">
        <ele>1110.4</ele>
        <time>2026-07-08T08:19:23Z</time>
      </trkpt>
      <trkpt lat="43.00243" lon="0.30565">
        <ele>1110.4</ele>
        <time>2026-07-08T08:19:23Z</time>
      </trkpt>
      <trkpt lat="43.00243" lon="0.30566">
        <ele>1110.4</ele>
        <time>2026-07-08T08:19:24Z</time>
      </trkpt>
      <trkpt lat="43.00244" lon="0.30567">
        <ele>1110.4</ele>
        <time>2026-07-08T08:19:24Z</time>
      </trkpt>
      <trkpt lat="43.00244" lon="0.30568">
        <ele>1110.4</ele>
        <time>2026-07-08T08:19:25Z</time>
      </trkpt>
      <trkpt lat="43.00244" lon="0.30569">
        <ele>1110.4</ele>
        <time>2026-07-08T08:19:25Z</time>
      </trkpt>
      <trkpt lat="43.00244" lon="0.3057">
        <ele>1110.4</ele>
        <time>2026-07-08T08:19:26Z</time>
      </trkpt>
      <trkpt lat="43.00244" lon="0.30571">
        <ele>1110.4</ele>
        <time>2026-07-08T08:19:26Z</time>
      </trkpt>
      <trkpt lat="43.00244" lon="0.30572">
        <ele>1110.4</ele>
        <time>2026-07-08T08:19:27Z</time>
      </trkpt>
      <trkpt lat="43.00244" lon="0.30573">
        <ele>1110.4</ele>
        <time>2026-07-08T08:19:28Z</time>
      </trkpt>
      <trkpt lat="43.00244" lon="0.30574">
        <ele>1110.4</ele>
        <time>2026-07-08T08:19:28Z</time>
      </trkpt>
      <trkpt lat="43.00244" lon="0.30575">
        <ele>1110.4</ele>
        <time>2026-07-08T08:19:29Z</time>
      </trkpt>
      <trkpt lat="43.00244" lon="0.30575">
        <ele>1110.4</ele>
        <time>2026-07-08T08:19:29Z</time>
      </trkpt>
      <trkpt lat="43.00244" lon="0.30576">
        <ele>1110.4</ele>
        <time>2026-07-08T08:19:30Z</time>
      </trkpt>
      <trkpt lat="43.00245" lon="0.30577">
        <ele>1110.4</ele>
        <time>2026-07-08T08:19:30Z</time>
      </trkpt>
      <trkpt lat="43.00245" lon="0.30578">
        <ele>1110.4</ele>
        <time>2026-07-08T08:19:31Z</time>
      </trkpt>
      <trkpt lat="43.00245" lon="0.30578">
        <ele>1109.4</ele>
        <time>2026-07-08T08:19:31Z</time>
      </trkpt>
      <trkpt lat="43.00245" lon="0.30579">
        <ele>1109.4</ele>
        <time>2026-07-08T08:19:32Z</time>
      </trkpt>
      <trkpt lat="43.00245" lon="0.3058">
        <ele>1110.4</ele>
        <time>2026-07-08T08:19:32Z</time>
      </trkpt>
      <trkpt lat="43.00245" lon="0.30581">
        <ele>1110.4</ele>
        <time>2026-07-08T08:19:33Z</time>
      </trkpt>
      <trkpt lat="43.00245" lon="0.30581">
        <ele>1110.4</ele>
        <time>2026-07-08T08:19:33Z</time>
      </trkpt>
      <trkpt lat="43.00245" lon="0.30582">
        <ele>1109.4</ele>
        <time>2026-07-08T08:19:34Z</time>
      </trkpt>
      <trkpt lat="43.00245" lon="0.30584">
        <ele>1109.4</ele>
        <time>2026-07-08T08:19:35Z</time>
      </trkpt>
      <trkpt lat="43.00245" lon="0.30584">
        <ele>1110.4</ele>
        <time>2026-07-08T08:19:35Z</time>
      </trkpt>
      <trkpt lat="43.00245" lon="0.30585">
        <ele>1110.4</ele>
        <time>2026-07-08T08:19:36Z</time>
      </trkpt>
      <trkpt lat="43.00245" lon="0.30586">
        <ele>1110.4</ele>
        <time>2026-07-08T08:19:37Z</time>
      </trkpt>
      <trkpt lat="43.00245" lon="0.30587">
        <ele>1111.4</ele>
        <time>2026-07-08T08:19:37Z</time>
      </trkpt>
      <trkpt lat="43.00245" lon="0.30588">
        <ele>1111.4</ele>
        <time>2026-07-08T08:19:38Z</time>
      </trkpt>
      <trkpt lat="43.00245" lon="0.30589">
        <ele>1110.4</ele>
        <time>2026-07-08T08:19:38Z</time>
      </trkpt>
      <trkpt lat="43.00244" lon="0.3059">
        <ele>1110.4</ele>
        <time>2026-07-08T08:19:39Z</time>
      </trkpt>
      <trkpt lat="43.00244" lon="0.3059">
        <ele>1110.4</ele>
        <time>2026-07-08T08:19:39Z</time>
      </trkpt>
      <trkpt lat="43.00244" lon="0.30591">
        <ele>1110.4</ele>
        <time>2026-07-08T08:19:40Z</time>
      </trkpt>
      <trkpt lat="43.00244" lon="0.30592">
        <ele>1109.4</ele>
        <time>2026-07-08T08:19:40Z</time>
      </trkpt>
      <trkpt lat="43.00244" lon="0.30593">
        <ele>1109.4</ele>
        <time>2026-07-08T08:19:41Z</time>
      </trkpt>
      <trkpt lat="43.00243" lon="0.30594">
        <ele>1109.4</ele>
        <time>2026-07-08T08:19:41Z</time>
      </trkpt>
      <trkpt lat="43.00243" lon="0.30595">
        <ele>1109.4</ele>
        <time>2026-07-08T08:19:42Z</time>
      </trkpt>
      <trkpt lat="43.00243" lon="0.30596">
        <ele>1109.4</ele>
        <time>2026-07-08T08:19:42Z</time>
      </trkpt>
      <trkpt lat="43.00243" lon="0.30596">
        <ele>1109.4</ele>
        <time>2026-07-08T08:19:43Z</time>
      </trkpt>
      <trkpt lat="43.00243" lon="0.30597">
        <ele>1109.4</ele>
        <time>2026-07-08T08:19:44Z</time>
      </trkpt>
      <trkpt lat="43.00242" lon="0.30598">
        <ele>1109.4</ele>
        <time>2026-07-08T08:19:44Z</time>
      </trkpt>
      <trkpt lat="43.00242" lon="0.30599">
        <ele>1109.4</ele>
        <time>2026-07-08T08:19:45Z</time>
      </trkpt>
      <trkpt lat="43.00242" lon="0.30599">
        <ele>1108.4</ele>
        <time>2026-07-08T08:19:45Z</time>
      </trkpt>
      <trkpt lat="43.00241" lon="0.30601">
        <ele>1108.4</ele>
        <time>2026-07-08T08:19:46Z</time>
      </trkpt>
      <trkpt lat="43.00241" lon="0.30602">
        <ele>1108.4</ele>
        <time>2026-07-08T08:19:47Z</time>
      </trkpt>
      <trkpt lat="43.00241" lon="0.30603">
        <ele>1108.4</ele>
        <time>2026-07-08T08:19:48Z</time>
      </trkpt>
      <trkpt lat="43.0024" lon="0.30604">
        <ele>1108.4</ele>
        <time>2026-07-08T08:19:49Z</time>
      </trkpt>
      <trkpt lat="43.0024" lon="0.30604">
        <ele>1108.4</ele>
        <time>2026-07-08T08:19:49Z</time>
      </trkpt>
      <trkpt lat="43.0024" lon="0.30605">
        <ele>1108.4</ele>
        <time>2026-07-08T08:19:50Z</time>
      </trkpt>
      <trkpt lat="43.0024" lon="0.30605">
        <ele>1108.4</ele>
        <time>2026-07-08T08:19:50Z</time>
      </trkpt>
      <trkpt lat="43.0024" lon="0.30606">
        <ele>1107.4</ele>
        <time>2026-07-08T08:19:51Z</time>
      </trkpt>
      <trkpt lat="43.00239" lon="0.30607">
        <ele>1107.4</ele>
        <time>2026-07-08T08:19:52Z</time>
      </trkpt>
      <trkpt lat="43.00239" lon="0.30607">
        <ele>1107.4</ele>
        <time>2026-07-08T08:19:52Z</time>
      </trkpt>
      <trkpt lat="43.00239" lon="0.30608">
        <ele>1107.4</ele>
        <time>2026-07-08T08:19:53Z</time>
      </trkpt>
      <trkpt lat="43.00238" lon="0.30608">
        <ele>1107.4</ele>
        <time>2026-07-08T08:19:53Z</time>
      </trkpt>
      <trkpt lat="43.00238" lon="0.30609">
        <ele>1107.4</ele>
        <time>2026-07-08T08:19:54Z</time>
      </trkpt>
      <trkpt lat="43.00238" lon="0.30609">
        <ele>1106.4</ele>
        <time>2026-07-08T08:19:54Z</time>
      </trkpt>
      <trkpt lat="43.00237" lon="0.3061">
        <ele>1106.4</ele>
        <time>2026-07-08T08:19:55Z</time>
      </trkpt>
      <trkpt lat="43.00237" lon="0.30611">
        <ele>1106.4</ele>
        <time>2026-07-08T08:19:55Z</time>
      </trkpt>
      <trkpt lat="43.00237" lon="0.30611">
        <ele>1106.4</ele>
        <time>2026-07-08T08:19:56Z</time>
      </trkpt>
      <trkpt lat="43.00236" lon="0.30613">
        <ele>1105.4</ele>
        <time>2026-07-08T08:19:57Z</time>
      </trkpt>
      <trkpt lat="43.00236" lon="0.30613">
        <ele>1105.4</ele>
        <time>2026-07-08T08:19:58Z</time>
      </trkpt>
      <trkpt lat="43.00236" lon="0.30614">
        <ele>1105.4</ele>
        <time>2026-07-08T08:19:58Z</time>
      </trkpt>
      <trkpt lat="43.00236" lon="0.30615">
        <ele>1105.4</ele>
        <time>2026-07-08T08:19:59Z</time>
      </trkpt>
      <trkpt lat="43.00235" lon="0.30616">
        <ele>1105.4</ele>
        <time>2026-07-08T08:19:59Z</time>
      </trkpt>
      <trkpt lat="43.00235" lon="0.30616">
        <ele>1105.4</ele>
        <time>2026-07-08T08:20:00Z</time>
      </trkpt>
      <trkpt lat="43.00235" lon="0.30617">
        <ele>1105.4</ele>
        <time>2026-07-08T08:20:00Z</time>
      </trkpt>
      <trkpt lat="43.00234" lon="0.30618">
        <ele>1105.4</ele>
        <time>2026-07-08T08:20:01Z</time>
      </trkpt>
      <trkpt lat="43.00234" lon="0.30619">
        <ele>1105.4</ele>
        <time>2026-07-08T08:20:01Z</time>
      </trkpt>
      <trkpt lat="43.00234" lon="0.3062">
        <ele>1105.4</ele>
        <time>2026-07-08T08:20:02Z</time>
      </trkpt>
      <trkpt lat="43.00234" lon="0.3062">
        <ele>1105.4</ele>
        <time>2026-07-08T08:20:02Z</time>
      </trkpt>
      <trkpt lat="43.00233" lon="0.30621">
        <ele>1105.4</ele>
        <time>2026-07-08T08:20:03Z</time>
      </trkpt>
      <trkpt lat="43.00233" lon="0.30622">
        <ele>1105.4</ele>
        <time>2026-07-08T08:20:03Z</time>
      </trkpt>
      <trkpt lat="43.00232" lon="0.30623">
        <ele>1105.4</ele>
        <time>2026-07-08T08:20:04Z</time>
      </trkpt>
      <trkpt lat="43.00232" lon="0.30624">
        <ele>1105.4</ele>
        <time>2026-07-08T08:20:04Z</time>
      </trkpt>
      <trkpt lat="43.00232" lon="0.30625">
        <ele>1105.4</ele>
        <time>2026-07-08T08:20:05Z</time>
      </trkpt>
      <trkpt lat="43.00232" lon="0.30626">
        <ele>1105.4</ele>
        <time>2026-07-08T08:20:06Z</time>
      </trkpt>
      <trkpt lat="43.00232" lon="0.30627">
        <ele>1104.4</ele>
        <time>2026-07-08T08:20:06Z</time>
      </trkpt>
      <trkpt lat="43.00231" lon="0.30628">
        <ele>1104.4</ele>
        <time>2026-07-08T08:20:07Z</time>
      </trkpt>
      <trkpt lat="43.00231" lon="0.30629">
        <ele>1105.4</ele>
        <time>2026-07-08T08:20:07Z</time>
      </trkpt>
      <trkpt lat="43.00231" lon="0.3063">
        <ele>1105.4</ele>
        <time>2026-07-08T08:20:08Z</time>
      </trkpt>
      <trkpt lat="43.00231" lon="0.30631">
        <ele>1104.4</ele>
        <time>2026-07-08T08:20:08Z</time>
      </trkpt>
      <trkpt lat="43.0023" lon="0.30632">
        <ele>1104.4</ele>
        <time>2026-07-08T08:20:09Z</time>
      </trkpt>
      <trkpt lat="43.0023" lon="0.30633">
        <ele>1104.4</ele>
        <time>2026-07-08T08:20:09Z</time>
      </trkpt>
      <trkpt lat="43.0023" lon="0.30633">
        <ele>1104.4</ele>
        <time>2026-07-08T08:20:10Z</time>
      </trkpt>
      <trkpt lat="43.0023" lon="0.30635">
        <ele>1104.4</ele>
        <time>2026-07-08T08:20:10Z</time>
      </trkpt>
      <trkpt lat="43.00229" lon="0.30635">
        <ele>1104.4</ele>
        <time>2026-07-08T08:20:11Z</time>
      </trkpt>
      <trkpt lat="43.00229" lon="0.30637">
        <ele>1103.4</ele>
        <time>2026-07-08T08:20:12Z</time>
      </trkpt>
      <trkpt lat="43.0023" lon="0.30637">
        <ele>1103.4</ele>
        <time>2026-07-08T08:20:12Z</time>
      </trkpt>
      <trkpt lat="43.00229" lon="0.30639">
        <ele>1103.4</ele>
        <time>2026-07-08T08:20:13Z</time>
      </trkpt>
      <trkpt lat="43.00229" lon="0.30639">
        <ele>1103.4</ele>
        <time>2026-07-08T08:20:13Z</time>
      </trkpt>
      <trkpt lat="43.00229" lon="0.3064">
        <ele>1103.4</ele>
        <time>2026-07-08T08:20:14Z</time>
      </trkpt>
      <trkpt lat="43.00229" lon="0.30641">
        <ele>1103.4</ele>
        <time>2026-07-08T08:20:14Z</time>
      </trkpt>
      <trkpt lat="43.00228" lon="0.30642">
        <ele>1103.4</ele>
        <time>2026-07-08T08:20:15Z</time>
      </trkpt>
      <trkpt lat="43.00228" lon="0.30643">
        <ele>1103.4</ele>
        <time>2026-07-08T08:20:15Z</time>
      </trkpt>
      <trkpt lat="43.00228" lon="0.30644">
        <ele>1103.4</ele>
        <time>2026-07-08T08:20:16Z</time>
      </trkpt>
      <trkpt lat="43.00227" lon="0.30645">
        <ele>1103.4</ele>
        <time>2026-07-08T08:20:16Z</time>
      </trkpt>
      <trkpt lat="43.00227" lon="0.30646">
        <ele>1103.4</ele>
        <time>2026-07-08T08:20:17Z</time>
      </trkpt>
      <trkpt lat="43.00227" lon="0.30646">
        <ele>1103.4</ele>
        <time>2026-07-08T08:20:17Z</time>
      </trkpt>
      <trkpt lat="43.00226" lon="0.30647">
        <ele>1103.4</ele>
        <time>2026-07-08T08:20:18Z</time>
      </trkpt>
      <trkpt lat="43.00226" lon="0.30648">
        <ele>1103.4</ele>
        <time>2026-07-08T08:20:19Z</time>
      </trkpt>
      <trkpt lat="43.00226" lon="0.30649">
        <ele>1103.4</ele>
        <time>2026-07-08T08:20:19Z</time>
      </trkpt>
      <trkpt lat="43.00225" lon="0.3065">
        <ele>1103.4</ele>
        <time>2026-07-08T08:20:20Z</time>
      </trkpt>
      <trkpt lat="43.00225" lon="0.3065">
        <ele>1103.4</ele>
        <time>2026-07-08T08:20:20Z</time>
      </trkpt>
      <trkpt lat="43.00225" lon="0.30651">
        <ele>1103.4</ele>
        <time>2026-07-08T08:20:21Z</time>
      </trkpt>
      <trkpt lat="43.00224" lon="0.30652">
        <ele>1103.4</ele>
        <time>2026-07-08T08:20:21Z</time>
      </trkpt>
      <trkpt lat="43.00224" lon="0.30653">
        <ele>1103.4</ele>
        <time>2026-07-08T08:20:22Z</time>
      </trkpt>
      <trkpt lat="43.00223" lon="0.30653">
        <ele>1103.4</ele>
        <time>2026-07-08T08:20:22Z</time>
      </trkpt>
      <trkpt lat="43.00223" lon="0.30654">
        <ele>1103.4</ele>
        <time>2026-07-08T08:20:23Z</time>
      </trkpt>
      <trkpt lat="43.00222" lon="0.30655">
        <ele>1102.4</ele>
        <time>2026-07-08T08:20:24Z</time>
      </trkpt>
      <trkpt lat="43.00222" lon="0.30656">
        <ele>1102.4</ele>
        <time>2026-07-08T08:20:24Z</time>
      </trkpt>
      <trkpt lat="43.00221" lon="0.30656">
        <ele>1102.4</ele>
        <time>2026-07-08T08:20:25Z</time>
      </trkpt>
      <trkpt lat="43.00221" lon="0.30657">
        <ele>1103.4</ele>
        <time>2026-07-08T08:20:25Z</time>
      </trkpt>
      <trkpt lat="43.0022" lon="0.30657">
        <ele>1103.4</ele>
        <time>2026-07-08T08:20:26Z</time>
      </trkpt>
      <trkpt lat="43.00219" lon="0.30658">
        <ele>1102.4</ele>
        <time>2026-07-08T08:20:26Z</time>
      </trkpt>
      <trkpt lat="43.00219" lon="0.30659">
        <ele>1102.4</ele>
        <time>2026-07-08T08:20:27Z</time>
      </trkpt>
      <trkpt lat="43.00218" lon="0.30659">
        <ele>1102.4</ele>
        <time>2026-07-08T08:20:27Z</time>
      </trkpt>
      <trkpt lat="43.00218" lon="0.3066">
        <ele>1102.4</ele>
        <time>2026-07-08T08:20:28Z</time>
      </trkpt>
      <trkpt lat="43.00217" lon="0.30661">
        <ele>1102.4</ele>
        <time>2026-07-08T08:20:28Z</time>
      </trkpt>
      <trkpt lat="43.00217" lon="0.30661">
        <ele>1102.4</ele>
        <time>2026-07-08T08:20:29Z</time>
      </trkpt>
      <trkpt lat="43.00216" lon="0.30662">
        <ele>1102.4</ele>
        <time>2026-07-08T08:20:29Z</time>
      </trkpt>
      <trkpt lat="43.00216" lon="0.30663">
        <ele>1102.4</ele>
        <time>2026-07-08T08:20:30Z</time>
      </trkpt>
      <trkpt lat="43.00216" lon="0.30663">
        <ele>1102.4</ele>
        <time>2026-07-08T08:20:31Z</time>
      </trkpt>
      <trkpt lat="43.00215" lon="0.30664">
        <ele>1102.4</ele>
        <time>2026-07-08T08:20:31Z</time>
      </trkpt>
      <trkpt lat="43.00215" lon="0.30665">
        <ele>1102.4</ele>
        <time>2026-07-08T08:20:32Z</time>
      </trkpt>
      <trkpt lat="43.00214" lon="0.30665">
        <ele>1101.4</ele>
        <time>2026-07-08T08:20:32Z</time>
      </trkpt>
      <trkpt lat="43.00214" lon="0.30666">
        <ele>1101.4</ele>
        <time>2026-07-08T08:20:33Z</time>
      </trkpt>
      <trkpt lat="43.00213" lon="0.30667">
        <ele>1102.4</ele>
        <time>2026-07-08T08:20:33Z</time>
      </trkpt>
      <trkpt lat="43.00213" lon="0.30668">
        <ele>1102.4</ele>
        <time>2026-07-08T08:20:34Z</time>
      </trkpt>
      <trkpt lat="43.00212" lon="0.30668">
        <ele>1102.4</ele>
        <time>2026-07-08T08:20:34Z</time>
      </trkpt>
      <trkpt lat="43.00212" lon="0.30669">
        <ele>1102.4</ele>
        <time>2026-07-08T08:20:35Z</time>
      </trkpt>
      <trkpt lat="43.00211" lon="0.3067">
        <ele>1102.4</ele>
        <time>2026-07-08T08:20:36Z</time>
      </trkpt>
      <trkpt lat="43.00211" lon="0.30671">
        <ele>1102.4</ele>
        <time>2026-07-08T08:20:36Z</time>
      </trkpt>
      <trkpt lat="43.00211" lon="0.30671">
        <ele>1101.4</ele>
        <time>2026-07-08T08:20:37Z</time>
      </trkpt>
      <trkpt lat="43.0021" lon="0.30672">
        <ele>1101.4</ele>
        <time>2026-07-08T08:20:37Z</time>
      </trkpt>
      <trkpt lat="43.0021" lon="0.30673">
        <ele>1101.4</ele>
        <time>2026-07-08T08:20:38Z</time>
      </trkpt>
      <trkpt lat="43.0021" lon="0.30674">
        <ele>1101.4</ele>
        <time>2026-07-08T08:20:38Z</time>
      </trkpt>
      <trkpt lat="43.0021" lon="0.30675">
        <ele>1101.4</ele>
        <time>2026-07-08T08:20:39Z</time>
      </trkpt>
      <trkpt lat="43.0021" lon="0.30676">
        <ele>1101.4</ele>
        <time>2026-07-08T08:20:39Z</time>
      </trkpt>
      <trkpt lat="43.00209" lon="0.30677">
        <ele>1101.4</ele>
        <time>2026-07-08T08:20:40Z</time>
      </trkpt>
      <trkpt lat="43.00209" lon="0.30678">
        <ele>1101.4</ele>
        <time>2026-07-08T08:20:40Z</time>
      </trkpt>
      <trkpt lat="43.00209" lon="0.30678">
        <ele>1101.4</ele>
        <time>2026-07-08T08:20:41Z</time>
      </trkpt>
      <trkpt lat="43.00208" lon="0.30679">
        <ele>1101.4</ele>
        <time>2026-07-08T08:20:41Z</time>
      </trkpt>
      <trkpt lat="43.00208" lon="0.3068">
        <ele>1101.4</ele>
        <time>2026-07-08T08:20:42Z</time>
      </trkpt>
      <trkpt lat="43.00208" lon="0.30681">
        <ele>1100.4</ele>
        <time>2026-07-08T08:20:42Z</time>
      </trkpt>
      <trkpt lat="43.00207" lon="0.30681">
        <ele>1100.4</ele>
        <time>2026-07-08T08:20:43Z</time>
      </trkpt>
      <trkpt lat="43.00207" lon="0.30682">
        <ele>1100.4</ele>
        <time>2026-07-08T08:20:44Z</time>
      </trkpt>
      <trkpt lat="43.00206" lon="0.30682">
        <ele>1100.4</ele>
        <time>2026-07-08T08:20:44Z</time>
      </trkpt>
      <trkpt lat="43.00205" lon="0.30683">
        <ele>1100.4</ele>
        <time>2026-07-08T08:20:45Z</time>
      </trkpt>
      <trkpt lat="43.00205" lon="0.30684">
        <ele>1099.4</ele>
        <time>2026-07-08T08:20:45Z</time>
      </trkpt>
      <trkpt lat="43.00204" lon="0.30685">
        <ele>1099.4</ele>
        <time>2026-07-08T08:20:46Z</time>
      </trkpt>
      <trkpt lat="43.00204" lon="0.30685">
        <ele>1099.4</ele>
        <time>2026-07-08T08:20:46Z</time>
      </trkpt>
      <trkpt lat="43.00203" lon="0.30686">
        <ele>1099.4</ele>
        <time>2026-07-08T08:20:47Z</time>
      </trkpt>
      <trkpt lat="43.00203" lon="0.30687">
        <ele>1099.4</ele>
        <time>2026-07-08T08:20:47Z</time>
      </trkpt>
      <trkpt lat="43.00202" lon="0.30687">
        <ele>1099.4</ele>
        <time>2026-07-08T08:20:48Z</time>
      </trkpt>
      <trkpt lat="43.00202" lon="0.30688">
        <ele>1098.4</ele>
        <time>2026-07-08T08:20:49Z</time>
      </trkpt>
      <trkpt lat="43.00202" lon="0.30689">
        <ele>1098.4</ele>
        <time>2026-07-08T08:20:49Z</time>
      </trkpt>
      <trkpt lat="43.00201" lon="0.30689">
        <ele>1098.4</ele>
        <time>2026-07-08T08:20:50Z</time>
      </trkpt>
      <trkpt lat="43.002" lon="0.3069">
        <ele>1098.4</ele>
        <time>2026-07-08T08:20:50Z</time>
      </trkpt>
      <trkpt lat="43.002" lon="0.30691">
        <ele>1098.4</ele>
        <time>2026-07-08T08:20:51Z</time>
      </trkpt>
      <trkpt lat="43.002" lon="0.30691">
        <ele>1097.4</ele>
        <time>2026-07-08T08:20:51Z</time>
      </trkpt>
      <trkpt lat="43.00199" lon="0.30692">
        <ele>1097.4</ele>
        <time>2026-07-08T08:20:52Z</time>
      </trkpt>
      <trkpt lat="43.00199" lon="0.30693">
        <ele>1098.4</ele>
        <time>2026-07-08T08:20:52Z</time>
      </trkpt>
      <trkpt lat="43.00198" lon="0.30694">
        <ele>1098.4</ele>
        <time>2026-07-08T08:20:53Z</time>
      </trkpt>
      <trkpt lat="43.00198" lon="0.30694">
        <ele>1098.4</ele>
        <time>2026-07-08T08:20:53Z</time>
      </trkpt>
      <trkpt lat="43.00197" lon="0.30695">
        <ele>1098.4</ele>
        <time>2026-07-08T08:20:54Z</time>
      </trkpt>
      <trkpt lat="43.00197" lon="0.30696">
        <ele>1099.4</ele>
        <time>2026-07-08T08:20:54Z</time>
      </trkpt>
      <trkpt lat="43.00197" lon="0.30697">
        <ele>1099.4</ele>
        <time>2026-07-08T08:20:55Z</time>
      </trkpt>
      <trkpt lat="43.00196" lon="0.30698">
        <ele>1099.4</ele>
        <time>2026-07-08T08:20:56Z</time>
      </trkpt>
      <trkpt lat="43.00196" lon="0.30699">
        <ele>1099.4</ele>
        <time>2026-07-08T08:20:56Z</time>
      </trkpt>
      <trkpt lat="43.00196" lon="0.30699">
        <ele>1099.4</ele>
        <time>2026-07-08T08:20:57Z</time>
      </trkpt>
      <trkpt lat="43.00196" lon="0.307">
        <ele>1100.4</ele>
        <time>2026-07-08T08:20:57Z</time>
      </trkpt>
      <trkpt lat="43.00195" lon="0.30701">
        <ele>1100.4</ele>
        <time>2026-07-08T08:20:58Z</time>
      </trkpt>
      <trkpt lat="43.00195" lon="0.30702">
        <ele>1099.4</ele>
        <time>2026-07-08T08:20:58Z</time>
      </trkpt>
      <trkpt lat="43.00195" lon="0.30703">
        <ele>1099.4</ele>
        <time>2026-07-08T08:20:59Z</time>
      </trkpt>
      <trkpt lat="43.00195" lon="0.30704">
        <ele>1100.4</ele>
        <time>2026-07-08T08:20:59Z</time>
      </trkpt>
      <trkpt lat="43.00195" lon="0.30705">
        <ele>1100.4</ele>
        <time>2026-07-08T08:21:00Z</time>
      </trkpt>
      <trkpt lat="43.00194" lon="0.30706">
        <ele>1100.4</ele>
        <time>2026-07-08T08:21:01Z</time>
      </trkpt>
      <trkpt lat="43.00195" lon="0.30707">
        <ele>1100.4</ele>
        <time>2026-07-08T08:21:01Z</time>
      </trkpt>
      <trkpt lat="43.00195" lon="0.30709">
        <ele>1100.4</ele>
        <time>2026-07-08T08:21:02Z</time>
      </trkpt>
      <trkpt lat="43.00195" lon="0.3071">
        <ele>1100.4</ele>
        <time>2026-07-08T08:21:03Z</time>
      </trkpt>
      <trkpt lat="43.00194" lon="0.30712">
        <ele>1100.4</ele>
        <time>2026-07-08T08:21:04Z</time>
      </trkpt>
      <trkpt lat="43.00195" lon="0.30712">
        <ele>1100.4</ele>
        <time>2026-07-08T08:21:05Z</time>
      </trkpt>
      <trkpt lat="43.00195" lon="0.30712">
        <ele>1099.4</ele>
        <time>2026-07-08T08:21:06Z</time>
      </trkpt>
      <trkpt lat="43.00195" lon="0.30713">
        <ele>1099.4</ele>
        <time>2026-07-08T08:21:06Z</time>
      </trkpt>
      <trkpt lat="43.00195" lon="0.30714">
        <ele>1099.4</ele>
        <time>2026-07-08T08:21:07Z</time>
      </trkpt>
      <trkpt lat="43.00195" lon="0.30715">
        <ele>1100.4</ele>
        <time>2026-07-08T08:21:07Z</time>
      </trkpt>
      <trkpt lat="43.00195" lon="0.30715">
        <ele>1100.4</ele>
        <time>2026-07-08T08:21:08Z</time>
      </trkpt>
      <trkpt lat="43.00195" lon="0.30717">
        <ele>1101.4</ele>
        <time>2026-07-08T08:21:08Z</time>
      </trkpt>
      <trkpt lat="43.00194" lon="0.30718">
        <ele>1101.4</ele>
        <time>2026-07-08T08:21:09Z</time>
      </trkpt>
      <trkpt lat="43.00194" lon="0.30719">
        <ele>1101.4</ele>
        <time>2026-07-08T08:21:09Z</time>
      </trkpt>
      <trkpt lat="43.00194" lon="0.30721">
        <ele>1101.4</ele>
        <time>2026-07-08T08:21:10Z</time>
      </trkpt>
      <trkpt lat="43.00194" lon="0.30722">
        <ele>1100.4</ele>
        <time>2026-07-08T08:21:10Z</time>
      </trkpt>
      <trkpt lat="43.00194" lon="0.30723">
        <ele>1100.4</ele>
        <time>2026-07-08T08:21:11Z</time>
      </trkpt>
      <trkpt lat="43.00194" lon="0.30724">
        <ele>1100.4</ele>
        <time>2026-07-08T08:21:12Z</time>
      </trkpt>
      <trkpt lat="43.00194" lon="0.30725">
        <ele>1100.4</ele>
        <time>2026-07-08T08:21:12Z</time>
      </trkpt>
      <trkpt lat="43.00194" lon="0.30727">
        <ele>1100.4</ele>
        <time>2026-07-08T08:21:13Z</time>
      </trkpt>
      <trkpt lat="43.00194" lon="0.30728">
        <ele>1100.4</ele>
        <time>2026-07-08T08:21:13Z</time>
      </trkpt>
      <trkpt lat="43.00194" lon="0.30729">
        <ele>1100.4</ele>
        <time>2026-07-08T08:21:14Z</time>
      </trkpt>
      <trkpt lat="43.00194" lon="0.3073">
        <ele>1100.4</ele>
        <time>2026-07-08T08:21:14Z</time>
      </trkpt>
      <trkpt lat="43.00194" lon="0.30731">
        <ele>1100.4</ele>
        <time>2026-07-08T08:21:15Z</time>
      </trkpt>
      <trkpt lat="43.00194" lon="0.30732">
        <ele>1100.4</ele>
        <time>2026-07-08T08:21:15Z</time>
      </trkpt>
      <trkpt lat="43.00194" lon="0.30733">
        <ele>1100.4</ele>
        <time>2026-07-08T08:21:16Z</time>
      </trkpt>
      <trkpt lat="43.00194" lon="0.30734">
        <ele>1100.4</ele>
        <time>2026-07-08T08:21:16Z</time>
      </trkpt>
      <trkpt lat="43.00194" lon="0.30735">
        <ele>1100.4</ele>
        <time>2026-07-08T08:21:17Z</time>
      </trkpt>
      <trkpt lat="43.00194" lon="0.30736">
        <ele>1100.4</ele>
        <time>2026-07-08T08:21:18Z</time>
      </trkpt>
      <trkpt lat="43.00194" lon="0.30737">
        <ele>1101.4</ele>
        <time>2026-07-08T08:21:18Z</time>
      </trkpt>
      <trkpt lat="43.00194" lon="0.30738">
        <ele>1101.4</ele>
        <time>2026-07-08T08:21:19Z</time>
      </trkpt>
      <trkpt lat="43.00194" lon="0.30739">
        <ele>1100.4</ele>
        <time>2026-07-08T08:21:19Z</time>
      </trkpt>
      <trkpt lat="43.00194" lon="0.3074">
        <ele>1100.4</ele>
        <time>2026-07-08T08:21:20Z</time>
      </trkpt>
      <trkpt lat="43.00194" lon="0.30741">
        <ele>1101.4</ele>
        <time>2026-07-08T08:21:20Z</time>
      </trkpt>
      <trkpt lat="43.00194" lon="0.30742">
        <ele>1101.4</ele>
        <time>2026-07-08T08:21:21Z</time>
      </trkpt>
      <trkpt lat="43.00194" lon="0.30743">
        <ele>1101.4</ele>
        <time>2026-07-08T08:21:21Z</time>
      </trkpt>
      <trkpt lat="43.00194" lon="0.30744">
        <ele>1101.4</ele>
        <time>2026-07-08T08:21:22Z</time>
      </trkpt>
      <trkpt lat="43.00194" lon="0.30745">
        <ele>1101.4</ele>
        <time>2026-07-08T08:21:22Z</time>
      </trkpt>
      <trkpt lat="43.00194" lon="0.30746">
        <ele>1100.4</ele>
        <time>2026-07-08T08:21:23Z</time>
      </trkpt>
      <trkpt lat="43.00194" lon="0.30747">
        <ele>1100.4</ele>
        <time>2026-07-08T08:21:24Z</time>
      </trkpt>
      <trkpt lat="43.00194" lon="0.30748">
        <ele>1101.4</ele>
        <time>2026-07-08T08:21:24Z</time>
      </trkpt>
      <trkpt lat="43.00193" lon="0.30749">
        <ele>1101.4</ele>
        <time>2026-07-08T08:21:25Z</time>
      </trkpt>
      <trkpt lat="43.00193" lon="0.3075">
        <ele>1101.4</ele>
        <time>2026-07-08T08:21:25Z</time>
      </trkpt>
      <trkpt lat="43.00193" lon="0.30751">
        <ele>1101.4</ele>
        <time>2026-07-08T08:21:26Z</time>
      </trkpt>
      <trkpt lat="43.00193" lon="0.30752">
        <ele>1101.4</ele>
        <time>2026-07-08T08:21:26Z</time>
      </trkpt>
      <trkpt lat="43.00193" lon="0.30753">
        <ele>1101.4</ele>
        <time>2026-07-08T08:21:27Z</time>
      </trkpt>
      <trkpt lat="43.00193" lon="0.30754">
        <ele>1101.4</ele>
        <time>2026-07-08T08:21:27Z</time>
      </trkpt>
      <trkpt lat="43.00193" lon="0.30755">
        <ele>1101.4</ele>
        <time>2026-07-08T08:21:28Z</time>
      </trkpt>
      <trkpt lat="43.00193" lon="0.30756">
        <ele>1100.4</ele>
        <time>2026-07-08T08:21:29Z</time>
      </trkpt>
      <trkpt lat="43.00193" lon="0.30757">
        <ele>1101.4</ele>
        <time>2026-07-08T08:21:29Z</time>
      </trkpt>
      <trkpt lat="43.00193" lon="0.30758">
        <ele>1101.4</ele>
        <time>2026-07-08T08:21:30Z</time>
      </trkpt>
      <trkpt lat="43.00193" lon="0.30759">
        <ele>1101.4</ele>
        <time>2026-07-08T08:21:30Z</time>
      </trkpt>
      <trkpt lat="43.00193" lon="0.3076">
        <ele>1101.4</ele>
        <time>2026-07-08T08:21:31Z</time>
      </trkpt>
      <trkpt lat="43.00193" lon="0.3076">
        <ele>1102.4</ele>
        <time>2026-07-08T08:21:31Z</time>
      </trkpt>
      <trkpt lat="43.00192" lon="0.30761">
        <ele>1102.4</ele>
        <time>2026-07-08T08:21:32Z</time>
      </trkpt>
      <trkpt lat="43.00192" lon="0.30762">
        <ele>1102.4</ele>
        <time>2026-07-08T08:21:32Z</time>
      </trkpt>
      <trkpt lat="43.00192" lon="0.30763">
        <ele>1102.4</ele>
        <time>2026-07-08T08:21:33Z</time>
      </trkpt>
      <trkpt lat="43.00192" lon="0.30764">
        <ele>1102.4</ele>
        <time>2026-07-08T08:21:33Z</time>
      </trkpt>
      <trkpt lat="43.00192" lon="0.30765">
        <ele>1102.4</ele>
        <time>2026-07-08T08:21:34Z</time>
      </trkpt>
      <trkpt lat="43.00192" lon="0.30766">
        <ele>1102.4</ele>
        <time>2026-07-08T08:21:35Z</time>
      </trkpt>
      <trkpt lat="43.00192" lon="0.30766">
        <ele>1102.4</ele>
        <time>2026-07-08T08:21:35Z</time>
      </trkpt>
      <trkpt lat="43.00192" lon="0.30767">
        <ele>1102.4</ele>
        <time>2026-07-08T08:21:36Z</time>
      </trkpt>
      <trkpt lat="43.00191" lon="0.30768">
        <ele>1102.4</ele>
        <time>2026-07-08T08:21:36Z</time>
      </trkpt>
      <trkpt lat="43.00191" lon="0.30769">
        <ele>1102.4</ele>
        <time>2026-07-08T08:21:37Z</time>
      </trkpt>
      <trkpt lat="43.00191" lon="0.3077">
        <ele>1102.4</ele>
        <time>2026-07-08T08:21:37Z</time>
      </trkpt>
      <trkpt lat="43.00191" lon="0.30771">
        <ele>1102.4</ele>
        <time>2026-07-08T08:21:38Z</time>
      </trkpt>
      <trkpt lat="43.00191" lon="0.30772">
        <ele>1102.4</ele>
        <time>2026-07-08T08:21:38Z</time>
      </trkpt>
      <trkpt lat="43.00191" lon="0.30773">
        <ele>1102.4</ele>
        <time>2026-07-08T08:21:39Z</time>
      </trkpt>
      <trkpt lat="43.0019" lon="0.30775">
        <ele>1102.4</ele>
        <time>2026-07-08T08:21:40Z</time>
      </trkpt>
      <trkpt lat="43.0019" lon="0.30775">
        <ele>1102.4</ele>
        <time>2026-07-08T08:21:41Z</time>
      </trkpt>
      <trkpt lat="43.00189" lon="0.30776">
        <ele>1102.4</ele>
        <time>2026-07-08T08:21:41Z</time>
      </trkpt>
      <trkpt lat="43.00189" lon="0.30777">
        <ele>1102.4</ele>
        <time>2026-07-08T08:21:42Z</time>
      </trkpt>
      <trkpt lat="43.00189" lon="0.30778">
        <ele>1102.4</ele>
        <time>2026-07-08T08:21:42Z</time>
      </trkpt>
      <trkpt lat="43.00188" lon="0.30779">
        <ele>1102.4</ele>
        <time>2026-07-08T08:21:43Z</time>
      </trkpt>
      <trkpt lat="43.00188" lon="0.30779">
        <ele>1103.4</ele>
        <time>2026-07-08T08:21:43Z</time>
      </trkpt>
      <trkpt lat="43.00188" lon="0.3078">
        <ele>1103.4</ele>
        <time>2026-07-08T08:21:44Z</time>
      </trkpt>
      <trkpt lat="43.00188" lon="0.30781">
        <ele>1103.4</ele>
        <time>2026-07-08T08:21:44Z</time>
      </trkpt>
      <trkpt lat="43.00188" lon="0.30782">
        <ele>1104.4</ele>
        <time>2026-07-08T08:21:45Z</time>
      </trkpt>
      <trkpt lat="43.00188" lon="0.30784">
        <ele>1104.4</ele>
        <time>2026-07-08T08:21:46Z</time>
      </trkpt>
      <trkpt lat="43.00189" lon="0.30784">
        <ele>1104.4</ele>
        <time>2026-07-08T08:21:46Z</time>
      </trkpt>
      <trkpt lat="43.0019" lon="0.30784">
        <ele>1105.4</ele>
        <time>2026-07-08T08:21:47Z</time>
      </trkpt>
      <trkpt lat="43.0019" lon="0.30783">
        <ele>1106.4</ele>
        <time>2026-07-08T08:21:48Z</time>
      </trkpt>
      <trkpt lat="43.00191" lon="0.30782">
        <ele>1106.4</ele>
        <time>2026-07-08T08:21:49Z</time>
      </trkpt>
      <trkpt lat="43.00191" lon="0.30782">
        <ele>1107.4</ele>
        <time>2026-07-08T08:21:50Z</time>
      </trkpt>
      <trkpt lat="43.0019" lon="0.30783">
        <ele>1108.4</ele>
        <time>2026-07-08T08:21:51Z</time>
      </trkpt>
      <trkpt lat="43.0019" lon="0.30783">
        <ele>1110.4</ele>
        <time>2026-07-08T08:21:52Z</time>
      </trkpt>
      <trkpt lat="43.0019" lon="0.30783">
        <ele>1110.4</ele>
        <time>2026-07-08T08:21:53Z</time>
      </trkpt>
      <trkpt lat="43.0019" lon="0.30783">
        <ele>1110.4</ele>
        <time>2026-07-08T08:21:54Z</time>
      </trkpt>
      <trkpt lat="43.0019" lon="0.30784">
        <ele>1110.4</ele>
        <time>2026-07-08T08:21:55Z</time>
      </trkpt>
      <trkpt lat="43.0019" lon="0.30784">
        <ele>1109.4</ele>
        <time>2026-07-08T08:21:56Z</time>
      </trkpt>
      <trkpt lat="43.0019" lon="0.30784">
        <ele>1109.4</ele>
        <time>2026-07-08T08:21:57Z</time>
      </trkpt>
      <trkpt lat="43.0019" lon="0.30784">
        <ele>1109.4</ele>
        <time>2026-07-08T08:21:57Z</time>
      </trkpt>
      <trkpt lat="43.0019" lon="0.30784">
        <ele>1109.4</ele>
        <time>2026-07-08T08:21:58Z</time>
      </trkpt>
      <trkpt lat="43.0019" lon="0.30785">
        <ele>1110.4</ele>
        <time>2026-07-08T08:21:59Z</time>
      </trkpt>
      <trkpt lat="43.0019" lon="0.30784">
        <ele>1110.4</ele>
        <time>2026-07-08T08:21:59Z</time>
      </trkpt>
      <trkpt lat="43.0019" lon="0.30784">
        <ele>1111.4</ele>
        <time>2026-07-08T08:22:00Z</time>
      </trkpt>
      <trkpt lat="43.0019" lon="0.30785">
        <ele>1111.4</ele>
        <time>2026-07-08T08:22:01Z</time>
      </trkpt>
      <trkpt lat="43.0019" lon="0.30785">
        <ele>1111.4</ele>
        <time>2026-07-08T08:22:02Z</time>
      </trkpt>
      <trkpt lat="43.00189" lon="0.30785">
        <ele>1111.4</ele>
        <time>2026-07-08T08:22:03Z</time>
      </trkpt>
      <trkpt lat="43.00189" lon="0.30786">
        <ele>1111.4</ele>
        <time>2026-07-08T08:22:04Z</time>
      </trkpt>
      <trkpt lat="43.00189" lon="0.30786">
        <ele>1111.4</ele>
        <time>2026-07-08T08:22:05Z</time>
      </trkpt>
      <trkpt lat="43.00189" lon="0.30786">
        <ele>1111.4</ele>
        <time>2026-07-08T08:22:05Z</time>
      </trkpt>
      <trkpt lat="43.00189" lon="0.30787">
        <ele>1111.4</ele>
        <time>2026-07-08T08:22:06Z</time>
      </trkpt>
      <trkpt lat="43.00188" lon="0.30787">
        <ele>1110.4</ele>
        <time>2026-07-08T08:22:06Z</time>
      </trkpt>
      <trkpt lat="43.00188" lon="0.30787">
        <ele>1110.4</ele>
        <time>2026-07-08T08:22:07Z</time>
      </trkpt>
      <trkpt lat="43.00188" lon="0.30788">
        <ele>1109.4</ele>
        <time>2026-07-08T08:22:08Z</time>
      </trkpt>
      <trkpt lat="43.00187" lon="0.30788">
        <ele>1110.4</ele>
        <time>2026-07-08T08:22:08Z</time>
      </trkpt>
      <trkpt lat="43.00187" lon="0.30789">
        <ele>1110.4</ele>
        <time>2026-07-08T08:22:09Z</time>
      </trkpt>
      <trkpt lat="43.00186" lon="0.30791">
        <ele>1110.4</ele>
        <time>2026-07-08T08:22:09Z</time>
      </trkpt>
      <trkpt lat="43.00185" lon="0.30793">
        <ele>1110.4</ele>
        <time>2026-07-08T08:22:10Z</time>
      </trkpt>
      <trkpt lat="43.00185" lon="0.30795">
        <ele>1110.4</ele>
        <time>2026-07-08T08:22:11Z</time>
      </trkpt>
      <trkpt lat="43.00184" lon="0.30797">
        <ele>1111.4</ele>
        <time>2026-07-08T08:22:11Z</time>
      </trkpt>
      <trkpt lat="43.00184" lon="0.30798">
        <ele>1111.4</ele>
        <time>2026-07-08T08:22:12Z</time>
      </trkpt>
      <trkpt lat="43.00183" lon="0.30799">
        <ele>1111.4</ele>
        <time>2026-07-08T08:22:12Z</time>
      </trkpt>
      <trkpt lat="43.00183" lon="0.308">
        <ele>1111.4</ele>
        <time>2026-07-08T08:22:13Z</time>
      </trkpt>
      <trkpt lat="43.00182" lon="0.30801">
        <ele>1111.4</ele>
        <time>2026-07-08T08:22:14Z</time>
      </trkpt>
      <trkpt lat="43.00182" lon="0.30802">
        <ele>1111.4</ele>
        <time>2026-07-08T08:22:14Z</time>
      </trkpt>
      <trkpt lat="43.00182" lon="0.30803">
        <ele>1111.4</ele>
        <time>2026-07-08T08:22:15Z</time>
      </trkpt>
      <trkpt lat="43.00181" lon="0.30804">
        <ele>1111.4</ele>
        <time>2026-07-08T08:22:15Z</time>
      </trkpt>
      <trkpt lat="43.00181" lon="0.30805">
        <ele>1111.4</ele>
        <time>2026-07-08T08:22:16Z</time>
      </trkpt>
      <trkpt lat="43.0018" lon="0.30806">
        <ele>1111.4</ele>
        <time>2026-07-08T08:22:16Z</time>
      </trkpt>
      <trkpt lat="43.0018" lon="0.30807">
        <ele>1111.4</ele>
        <time>2026-07-08T08:22:17Z</time>
      </trkpt>
      <trkpt lat="43.0018" lon="0.30808">
        <ele>1111.4</ele>
        <time>2026-07-08T08:22:17Z</time>
      </trkpt>
      <trkpt lat="43.00179" lon="0.30808">
        <ele>1111.4</ele>
        <time>2026-07-08T08:22:18Z</time>
      </trkpt>
      <trkpt lat="43.00179" lon="0.30809">
        <ele>1111.4</ele>
        <time>2026-07-08T08:22:18Z</time>
      </trkpt>
      <trkpt lat="43.00178" lon="0.3081">
        <ele>1111.4</ele>
        <time>2026-07-08T08:22:19Z</time>
      </trkpt>
      <trkpt lat="43.00178" lon="0.30811">
        <ele>1111.4</ele>
        <time>2026-07-08T08:22:20Z</time>
      </trkpt>
      <trkpt lat="43.00177" lon="0.30812">
        <ele>1111.4</ele>
        <time>2026-07-08T08:22:20Z</time>
      </trkpt>
      <trkpt lat="43.00177" lon="0.30813">
        <ele>1111.4</ele>
        <time>2026-07-08T08:22:21Z</time>
      </trkpt>
      <trkpt lat="43.00177" lon="0.30814">
        <ele>1111.4</ele>
        <time>2026-07-08T08:22:21Z</time>
      </trkpt>
      <trkpt lat="43.00176" lon="0.30815">
        <ele>1111.4</ele>
        <time>2026-07-08T08:22:22Z</time>
      </trkpt>
      <trkpt lat="43.00176" lon="0.30815">
        <ele>1110.4</ele>
        <time>2026-07-08T08:22:22Z</time>
      </trkpt>
      <trkpt lat="43.00176" lon="0.30816">
        <ele>1110.4</ele>
        <time>2026-07-08T08:22:23Z</time>
      </trkpt>
      <trkpt lat="43.00175" lon="0.30817">
        <ele>1110.4</ele>
        <time>2026-07-08T08:22:23Z</time>
      </trkpt>
      <trkpt lat="43.00175" lon="0.30818">
        <ele>1110.4</ele>
        <time>2026-07-08T08:22:24Z</time>
      </trkpt>
      <trkpt lat="43.00175" lon="0.30819">
        <ele>1110.4</ele>
        <time>2026-07-08T08:22:25Z</time>
      </trkpt>
      <trkpt lat="43.00175" lon="0.3082">
        <ele>1110.4</ele>
        <time>2026-07-08T08:22:25Z</time>
      </trkpt>
      <trkpt lat="43.00174" lon="0.3082">
        <ele>1110.4</ele>
        <time>2026-07-08T08:22:26Z</time>
      </trkpt>
      <trkpt lat="43.00174" lon="0.30821">
        <ele>1110.4</ele>
        <time>2026-07-08T08:22:26Z</time>
      </trkpt>
      <trkpt lat="43.00174" lon="0.30822">
        <ele>1110.4</ele>
        <time>2026-07-08T08:22:27Z</time>
      </trkpt>
      <trkpt lat="43.00174" lon="0.30823">
        <ele>1109.4</ele>
        <time>2026-07-08T08:22:27Z</time>
      </trkpt>
      <trkpt lat="43.00173" lon="0.30823">
        <ele>1109.4</ele>
        <time>2026-07-08T08:22:28Z</time>
      </trkpt>
      <trkpt lat="43.00173" lon="0.30824">
        <ele>1109.4</ele>
        <time>2026-07-08T08:22:29Z</time>
      </trkpt>
      <trkpt lat="43.00173" lon="0.30824">
        <ele>1109.4</ele>
        <time>2026-07-08T08:22:29Z</time>
      </trkpt>
      <trkpt lat="43.00173" lon="0.30825">
        <ele>1109.4</ele>
        <time>2026-07-08T08:22:30Z</time>
      </trkpt>
      <trkpt lat="43.00173" lon="0.30826">
        <ele>1110.4</ele>
        <time>2026-07-08T08:22:30Z</time>
      </trkpt>
      <trkpt lat="43.00172" lon="0.30826">
        <ele>1110.4</ele>
        <time>2026-07-08T08:22:31Z</time>
      </trkpt>
      <trkpt lat="43.00172" lon="0.30827">
        <ele>1110.4</ele>
        <time>2026-07-08T08:22:31Z</time>
      </trkpt>
      <trkpt lat="43.00171" lon="0.30828">
        <ele>1110.4</ele>
        <time>2026-07-08T08:22:32Z</time>
      </trkpt>
      <trkpt lat="43.00171" lon="0.30828">
        <ele>1110.4</ele>
        <time>2026-07-08T08:22:32Z</time>
      </trkpt>
      <trkpt lat="43.00171" lon="0.30829">
        <ele>1110.4</ele>
        <time>2026-07-08T08:22:33Z</time>
      </trkpt>
      <trkpt lat="43.0017" lon="0.3083">
        <ele>1109.4</ele>
        <time>2026-07-08T08:22:34Z</time>
      </trkpt>
      <trkpt lat="43.0017" lon="0.3083">
        <ele>1109.4</ele>
        <time>2026-07-08T08:22:34Z</time>
      </trkpt>
      <trkpt lat="43.0017" lon="0.30831">
        <ele>1109.4</ele>
        <time>2026-07-08T08:22:35Z</time>
      </trkpt>
      <trkpt lat="43.0017" lon="0.30832">
        <ele>1110.4</ele>
        <time>2026-07-08T08:22:35Z</time>
      </trkpt>
      <trkpt lat="43.00169" lon="0.30833">
        <ele>1110.4</ele>
        <time>2026-07-08T08:22:36Z</time>
      </trkpt>
      <trkpt lat="43.00169" lon="0.30833">
        <ele>1111.4</ele>
        <time>2026-07-08T08:22:36Z</time>
      </trkpt>
      <trkpt lat="43.00168" lon="0.30834">
        <ele>1111.4</ele>
        <time>2026-07-08T08:22:37Z</time>
      </trkpt>
      <trkpt lat="43.00168" lon="0.30835">
        <ele>1110.4</ele>
        <time>2026-07-08T08:22:37Z</time>
      </trkpt>
      <trkpt lat="43.00168" lon="0.30836">
        <ele>1110.4</ele>
        <time>2026-07-08T08:22:38Z</time>
      </trkpt>
      <trkpt lat="43.00167" lon="0.30837">
        <ele>1110.4</ele>
        <time>2026-07-08T08:22:39Z</time>
      </trkpt>
      <trkpt lat="43.00167" lon="0.30837">
        <ele>1110.4</ele>
        <time>2026-07-08T08:22:39Z</time>
      </trkpt>
      <trkpt lat="43.00167" lon="0.30838">
        <ele>1110.4</ele>
        <time>2026-07-08T08:22:40Z</time>
      </trkpt>
      <trkpt lat="43.00166" lon="0.30839">
        <ele>1109.4</ele>
        <time>2026-07-08T08:22:40Z</time>
      </trkpt>
      <trkpt lat="43.00166" lon="0.3084">
        <ele>1109.4</ele>
        <time>2026-07-08T08:22:41Z</time>
      </trkpt>
      <trkpt lat="43.00165" lon="0.30841">
        <ele>1109.4</ele>
        <time>2026-07-08T08:22:41Z</time>
      </trkpt>
      <trkpt lat="43.00165" lon="0.30841">
        <ele>1109.4</ele>
        <time>2026-07-08T08:22:42Z</time>
      </trkpt>
      <trkpt lat="43.00165" lon="0.30842">
        <ele>1109.4</ele>
        <time>2026-07-08T08:22:42Z</time>
      </trkpt>
      <trkpt lat="43.00165" lon="0.30843">
        <ele>1109.4</ele>
        <time>2026-07-08T08:22:43Z</time>
      </trkpt>
      <trkpt lat="43.00164" lon="0.30843">
        <ele>1109.4</ele>
        <time>2026-07-08T08:22:44Z</time>
      </trkpt>
      <trkpt lat="43.00164" lon="0.30844">
        <ele>1109.4</ele>
        <time>2026-07-08T08:22:44Z</time>
      </trkpt>
      <trkpt lat="43.00164" lon="0.30845">
        <ele>1109.4</ele>
        <time>2026-07-08T08:22:45Z</time>
      </trkpt>
      <trkpt lat="43.00164" lon="0.30846">
        <ele>1108.4</ele>
        <time>2026-07-08T08:22:45Z</time>
      </trkpt>
      <trkpt lat="43.00163" lon="0.30847">
        <ele>1108.4</ele>
        <time>2026-07-08T08:22:46Z</time>
      </trkpt>
      <trkpt lat="43.00163" lon="0.30848">
        <ele>1109.4</ele>
        <time>2026-07-08T08:22:46Z</time>
      </trkpt>
      <trkpt lat="43.00163" lon="0.30849">
        <ele>1109.4</ele>
        <time>2026-07-08T08:22:47Z</time>
      </trkpt>
      <trkpt lat="43.00163" lon="0.3085">
        <ele>1108.4</ele>
        <time>2026-07-08T08:22:48Z</time>
      </trkpt>
      <trkpt lat="43.00162" lon="0.30851">
        <ele>1108.4</ele>
        <time>2026-07-08T08:22:48Z</time>
      </trkpt>
      <trkpt lat="43.00162" lon="0.30851">
        <ele>1109.4</ele>
        <time>2026-07-08T08:22:49Z</time>
      </trkpt>
      <trkpt lat="43.00162" lon="0.30852">
        <ele>1108.4</ele>
        <time>2026-07-08T08:22:49Z</time>
      </trkpt>
      <trkpt lat="43.00162" lon="0.30853">
        <ele>1108.4</ele>
        <time>2026-07-08T08:22:50Z</time>
      </trkpt>
      <trkpt lat="43.00162" lon="0.30854">
        <ele>1108.4</ele>
        <time>2026-07-08T08:22:50Z</time>
      </trkpt>
      <trkpt lat="43.00161" lon="0.30855">
        <ele>1108.4</ele>
        <time>2026-07-08T08:22:51Z</time>
      </trkpt>
      <trkpt lat="43.00161" lon="0.30856">
        <ele>1108.4</ele>
        <time>2026-07-08T08:22:52Z</time>
      </trkpt>
      <trkpt lat="43.00161" lon="0.30857">
        <ele>1108.4</ele>
        <time>2026-07-08T08:22:52Z</time>
      </trkpt>
      <trkpt lat="43.00161" lon="0.30858">
        <ele>1108.4</ele>
        <time>2026-07-08T08:22:53Z</time>
      </trkpt>
      <trkpt lat="43.00161" lon="0.30859">
        <ele>1108.4</ele>
        <time>2026-07-08T08:22:53Z</time>
      </trkpt>
      <trkpt lat="43.00161" lon="0.30859">
        <ele>1108.4</ele>
        <time>2026-07-08T08:22:54Z</time>
      </trkpt>
      <trkpt lat="43.0016" lon="0.3086">
        <ele>1107.4</ele>
        <time>2026-07-08T08:22:54Z</time>
      </trkpt>
      <trkpt lat="43.0016" lon="0.30861">
        <ele>1107.4</ele>
        <time>2026-07-08T08:22:55Z</time>
      </trkpt>
      <trkpt lat="43.0016" lon="0.30862">
        <ele>1107.4</ele>
        <time>2026-07-08T08:22:55Z</time>
      </trkpt>
      <trkpt lat="43.0016" lon="0.30863">
        <ele>1107.4</ele>
        <time>2026-07-08T08:22:56Z</time>
      </trkpt>
      <trkpt lat="43.0016" lon="0.30864">
        <ele>1107.4</ele>
        <time>2026-07-08T08:22:57Z</time>
      </trkpt>
      <trkpt lat="43.0016" lon="0.30865">
        <ele>1107.4</ele>
        <time>2026-07-08T08:22:57Z</time>
      </trkpt>
      <trkpt lat="43.0016" lon="0.30865">
        <ele>1107.4</ele>
        <time>2026-07-08T08:22:58Z</time>
      </trkpt>
      <trkpt lat="43.0016" lon="0.30866">
        <ele>1107.4</ele>
        <time>2026-07-08T08:22:58Z</time>
      </trkpt>
      <trkpt lat="43.0016" lon="0.30867">
        <ele>1107.4</ele>
        <time>2026-07-08T08:22:59Z</time>
      </trkpt>
      <trkpt lat="43.0016" lon="0.30868">
        <ele>1107.4</ele>
        <time>2026-07-08T08:22:59Z</time>
      </trkpt>
      <trkpt lat="43.0016" lon="0.30869">
        <ele>1107.4</ele>
        <time>2026-07-08T08:23:00Z</time>
      </trkpt>
      <trkpt lat="43.0016" lon="0.3087">
        <ele>1107.4</ele>
        <time>2026-07-08T08:23:01Z</time>
      </trkpt>
      <trkpt lat="43.00159" lon="0.30871">
        <ele>1107.4</ele>
        <time>2026-07-08T08:23:01Z</time>
      </trkpt>
      <trkpt lat="43.00159" lon="0.30872">
        <ele>1107.4</ele>
        <time>2026-07-08T08:23:02Z</time>
      </trkpt>
      <trkpt lat="43.00159" lon="0.30872">
        <ele>1107.4</ele>
        <time>2026-07-08T08:23:02Z</time>
      </trkpt>
      <trkpt lat="43.00159" lon="0.30873">
        <ele>1107.4</ele>
        <time>2026-07-08T08:23:03Z</time>
      </trkpt>
      <trkpt lat="43.00159" lon="0.30874">
        <ele>1107.4</ele>
        <time>2026-07-08T08:23:03Z</time>
      </trkpt>
      <trkpt lat="43.00159" lon="0.30875">
        <ele>1107.4</ele>
        <time>2026-07-08T08:23:04Z</time>
      </trkpt>
      <trkpt lat="43.00159" lon="0.30876">
        <ele>1105.4</ele>
        <time>2026-07-08T08:23:05Z</time>
      </trkpt>
      <trkpt lat="43.00159" lon="0.30877">
        <ele>1105.4</ele>
        <time>2026-07-08T08:23:05Z</time>
      </trkpt>
      <trkpt lat="43.00158" lon="0.30878">
        <ele>1105.4</ele>
        <time>2026-07-08T08:23:06Z</time>
      </trkpt>
      <trkpt lat="43.00158" lon="0.30878">
        <ele>1105.4</ele>
        <time>2026-07-08T08:23:06Z</time>
      </trkpt>
      <trkpt lat="43.00158" lon="0.30879">
        <ele>1105.4</ele>
        <time>2026-07-08T08:23:07Z</time>
      </trkpt>
      <trkpt lat="43.00158" lon="0.3088">
        <ele>1106.4</ele>
        <time>2026-07-08T08:23:08Z</time>
      </trkpt>
      <trkpt lat="43.00158" lon="0.30881">
        <ele>1106.4</ele>
        <time>2026-07-08T08:23:08Z</time>
      </trkpt>
      <trkpt lat="43.00157" lon="0.30882">
        <ele>1106.4</ele>
        <time>2026-07-08T08:23:09Z</time>
      </trkpt>
      <trkpt lat="43.00157" lon="0.30883">
        <ele>1106.4</ele>
        <time>2026-07-08T08:23:09Z</time>
      </trkpt>
      <trkpt lat="43.00157" lon="0.30884">
        <ele>1106.4</ele>
        <time>2026-07-08T08:23:10Z</time>
      </trkpt>
      <trkpt lat="43.00157" lon="0.30885">
        <ele>1105.4</ele>
        <time>2026-07-08T08:23:10Z</time>
      </trkpt>
      <trkpt lat="43.00157" lon="0.30886">
        <ele>1105.4</ele>
        <time>2026-07-08T08:23:11Z</time>
      </trkpt>
      <trkpt lat="43.00157" lon="0.30887">
        <ele>1105.4</ele>
        <time>2026-07-08T08:23:12Z</time>
      </trkpt>
      <trkpt lat="43.00157" lon="0.30888">
        <ele>1106.4</ele>
        <time>2026-07-08T08:23:12Z</time>
      </trkpt>
      <trkpt lat="43.00158" lon="0.30889">
        <ele>1106.4</ele>
        <time>2026-07-08T08:23:13Z</time>
      </trkpt>
      <trkpt lat="43.00158" lon="0.3089">
        <ele>1107.4</ele>
        <time>2026-07-08T08:23:13Z</time>
      </trkpt>
      <trkpt lat="43.00158" lon="0.30891">
        <ele>1107.4</ele>
        <time>2026-07-08T08:23:14Z</time>
      </trkpt>
      <trkpt lat="43.00158" lon="0.30892">
        <ele>1107.4</ele>
        <time>2026-07-08T08:23:14Z</time>
      </trkpt>
      <trkpt lat="43.00158" lon="0.30893">
        <ele>1107.4</ele>
        <time>2026-07-08T08:23:15Z</time>
      </trkpt>
      <trkpt lat="43.00158" lon="0.30894">
        <ele>1107.4</ele>
        <time>2026-07-08T08:23:16Z</time>
      </trkpt>
      <trkpt lat="43.00158" lon="0.30895">
        <ele>1107.4</ele>
        <time>2026-07-08T08:23:16Z</time>
      </trkpt>
      <trkpt lat="43.00158" lon="0.30896">
        <ele>1107.4</ele>
        <time>2026-07-08T08:23:17Z</time>
      </trkpt>
      <trkpt lat="43.00158" lon="0.30897">
        <ele>1107.4</ele>
        <time>2026-07-08T08:23:17Z</time>
      </trkpt>
      <trkpt lat="43.00158" lon="0.30898">
        <ele>1107.4</ele>
        <time>2026-07-08T08:23:18Z</time>
      </trkpt>
      <trkpt lat="43.00158" lon="0.30899">
        <ele>1108.4</ele>
        <time>2026-07-08T08:23:19Z</time>
      </trkpt>
      <trkpt lat="43.00158" lon="0.30899">
        <ele>1108.4</ele>
        <time>2026-07-08T08:23:19Z</time>
      </trkpt>
      <trkpt lat="43.00158" lon="0.30901">
        <ele>1108.4</ele>
        <time>2026-07-08T08:23:20Z</time>
      </trkpt>
      <trkpt lat="43.00158" lon="0.30902">
        <ele>1108.4</ele>
        <time>2026-07-08T08:23:20Z</time>
      </trkpt>
      <trkpt lat="43.00157" lon="0.30903">
        <ele>1108.4</ele>
        <time>2026-07-08T08:23:21Z</time>
      </trkpt>
      <trkpt lat="43.00157" lon="0.30904">
        <ele>1109.4</ele>
        <time>2026-07-08T08:23:22Z</time>
      </trkpt>
      <trkpt lat="43.00157" lon="0.30905">
        <ele>1109.4</ele>
        <time>2026-07-08T08:23:22Z</time>
      </trkpt>
      <trkpt lat="43.00157" lon="0.30906">
        <ele>1109.4</ele>
        <time>2026-07-08T08:23:23Z</time>
      </trkpt>
      <trkpt lat="43.00157" lon="0.30907">
        <ele>1109.4</ele>
        <time>2026-07-08T08:23:23Z</time>
      </trkpt>
      <trkpt lat="43.00157" lon="0.30908">
        <ele>1109.4</ele>
        <time>2026-07-08T08:23:24Z</time>
      </trkpt>
      <trkpt lat="43.00157" lon="0.30909">
        <ele>1109.4</ele>
        <time>2026-07-08T08:23:25Z</time>
      </trkpt>
      <trkpt lat="43.00157" lon="0.30909">
        <ele>1109.4</ele>
        <time>2026-07-08T08:23:25Z</time>
      </trkpt>
      <trkpt lat="43.00157" lon="0.30911">
        <ele>1109.4</ele>
        <time>2026-07-08T08:23:26Z</time>
      </trkpt>
      <trkpt lat="43.00157" lon="0.30912">
        <ele>1110.4</ele>
        <time>2026-07-08T08:23:26Z</time>
      </trkpt>
      <trkpt lat="43.00157" lon="0.30913">
        <ele>1110.4</ele>
        <time>2026-07-08T08:23:27Z</time>
      </trkpt>
      <trkpt lat="43.00157" lon="0.30913">
        <ele>1110.4</ele>
        <time>2026-07-08T08:23:28Z</time>
      </trkpt>
      <trkpt lat="43.00157" lon="0.30914">
        <ele>1111.4</ele>
        <time>2026-07-08T08:23:28Z</time>
      </trkpt>
      <trkpt lat="43.00157" lon="0.30915">
        <ele>1111.4</ele>
        <time>2026-07-08T08:23:29Z</time>
      </trkpt>
      <trkpt lat="43.00157" lon="0.30916">
        <ele>1110.4</ele>
        <time>2026-07-08T08:23:29Z</time>
      </trkpt>
      <trkpt lat="43.00157" lon="0.30917">
        <ele>1110.4</ele>
        <time>2026-07-08T08:23:30Z</time>
      </trkpt>
      <trkpt lat="43.00157" lon="0.30918">
        <ele>1110.4</ele>
        <time>2026-07-08T08:23:31Z</time>
      </trkpt>
      <trkpt lat="43.00157" lon="0.30918">
        <ele>1111.4</ele>
        <time>2026-07-08T08:23:31Z</time>
      </trkpt>
      <trkpt lat="43.00157" lon="0.30919">
        <ele>1111.4</ele>
        <time>2026-07-08T08:23:32Z</time>
      </trkpt>
      <trkpt lat="43.00157" lon="0.3092">
        <ele>1111.4</ele>
        <time>2026-07-08T08:23:32Z</time>
      </trkpt>
      <trkpt lat="43.00157" lon="0.30921">
        <ele>1111.4</ele>
        <time>2026-07-08T08:23:33Z</time>
      </trkpt>
      <trkpt lat="43.00157" lon="0.30922">
        <ele>1112.4</ele>
        <time>2026-07-08T08:23:33Z</time>
      </trkpt>
      <trkpt lat="43.00157" lon="0.30923">
        <ele>1112.4</ele>
        <time>2026-07-08T08:23:34Z</time>
      </trkpt>
      <trkpt lat="43.00157" lon="0.30924">
        <ele>1112.4</ele>
        <time>2026-07-08T08:23:35Z</time>
      </trkpt>
      <trkpt lat="43.00157" lon="0.30925">
        <ele>1111.4</ele>
        <time>2026-07-08T08:23:35Z</time>
      </trkpt>
      <trkpt lat="43.00157" lon="0.30926">
        <ele>1111.4</ele>
        <time>2026-07-08T08:23:36Z</time>
      </trkpt>
      <trkpt lat="43.00157" lon="0.30927">
        <ele>1112.4</ele>
        <time>2026-07-08T08:23:36Z</time>
      </trkpt>
      <trkpt lat="43.00157" lon="0.30927">
        <ele>1112.4</ele>
        <time>2026-07-08T08:23:37Z</time>
      </trkpt>
      <trkpt lat="43.00157" lon="0.30928">
        <ele>1112.4</ele>
        <time>2026-07-08T08:23:38Z</time>
      </trkpt>
      <trkpt lat="43.00157" lon="0.30929">
        <ele>1112.4</ele>
        <time>2026-07-08T08:23:38Z</time>
      </trkpt>
      <trkpt lat="43.00157" lon="0.3093">
        <ele>1112.4</ele>
        <time>2026-07-08T08:23:39Z</time>
      </trkpt>
      <trkpt lat="43.00157" lon="0.30931">
        <ele>1112.4</ele>
        <time>2026-07-08T08:23:40Z</time>
      </trkpt>
      <trkpt lat="43.00158" lon="0.30932">
        <ele>1112.4</ele>
        <time>2026-07-08T08:23:40Z</time>
      </trkpt>
      <trkpt lat="43.00158" lon="0.30933">
        <ele>1112.4</ele>
        <time>2026-07-08T08:23:41Z</time>
      </trkpt>
      <trkpt lat="43.00158" lon="0.30934">
        <ele>1112.4</ele>
        <time>2026-07-08T08:23:41Z</time>
      </trkpt>
      <trkpt lat="43.00158" lon="0.30935">
        <ele>1112.4</ele>
        <time>2026-07-08T08:23:42Z</time>
      </trkpt>
      <trkpt lat="43.00158" lon="0.30936">
        <ele>1112.4</ele>
        <time>2026-07-08T08:23:43Z</time>
      </trkpt>
      <trkpt lat="43.00157" lon="0.30937">
        <ele>1113.4</ele>
        <time>2026-07-08T08:23:43Z</time>
      </trkpt>
      <trkpt lat="43.00157" lon="0.30938">
        <ele>1113.4</ele>
        <time>2026-07-08T08:23:44Z</time>
      </trkpt>
      <trkpt lat="43.00157" lon="0.30939">
        <ele>1113.4</ele>
        <time>2026-07-08T08:23:44Z</time>
      </trkpt>
      <trkpt lat="43.00157" lon="0.3094">
        <ele>1113.4</ele>
        <time>2026-07-08T08:23:45Z</time>
      </trkpt>
      <trkpt lat="43.00156" lon="0.30941">
        <ele>1113.4</ele>
        <time>2026-07-08T08:23:46Z</time>
      </trkpt>
      <trkpt lat="43.00156" lon="0.30941">
        <ele>1113.4</ele>
        <time>2026-07-08T08:23:46Z</time>
      </trkpt>
      <trkpt lat="43.00156" lon="0.30942">
        <ele>1113.4</ele>
        <time>2026-07-08T08:23:47Z</time>
      </trkpt>
      <trkpt lat="43.00155" lon="0.30943">
        <ele>1113.4</ele>
        <time>2026-07-08T08:23:47Z</time>
      </trkpt>
      <trkpt lat="43.00155" lon="0.30944">
        <ele>1113.4</ele>
        <time>2026-07-08T08:23:48Z</time>
      </trkpt>
      <trkpt lat="43.00154" lon="0.30945">
        <ele>1113.4</ele>
        <time>2026-07-08T08:23:49Z</time>
      </trkpt>
      <trkpt lat="43.00154" lon="0.30946">
        <ele>1113.4</ele>
        <time>2026-07-08T08:23:49Z</time>
      </trkpt>
      <trkpt lat="43.00153" lon="0.30947">
        <ele>1113.4</ele>
        <time>2026-07-08T08:23:50Z</time>
      </trkpt>
      <trkpt lat="43.00153" lon="0.30948">
        <ele>1113.4</ele>
        <time>2026-07-08T08:23:50Z</time>
      </trkpt>
      <trkpt lat="43.00153" lon="0.30949">
        <ele>1113.4</ele>
        <time>2026-07-08T08:23:51Z</time>
      </trkpt>
      <trkpt lat="43.00152" lon="0.30949">
        <ele>1114.4</ele>
        <time>2026-07-08T08:23:52Z</time>
      </trkpt>
      <trkpt lat="43.00152" lon="0.3095">
        <ele>1114.4</ele>
        <time>2026-07-08T08:23:52Z</time>
      </trkpt>
      <trkpt lat="43.00151" lon="0.30951">
        <ele>1114.4</ele>
        <time>2026-07-08T08:23:53Z</time>
      </trkpt>
      <trkpt lat="43.00151" lon="0.30952">
        <ele>1114.4</ele>
        <time>2026-07-08T08:23:53Z</time>
      </trkpt>
      <trkpt lat="43.0015" lon="0.30953">
        <ele>1114.4</ele>
        <time>2026-07-08T08:23:54Z</time>
      </trkpt>
      <trkpt lat="43.0015" lon="0.30953">
        <ele>1114.4</ele>
        <time>2026-07-08T08:23:55Z</time>
      </trkpt>
      <trkpt lat="43.0015" lon="0.30954">
        <ele>1115.4</ele>
        <time>2026-07-08T08:23:55Z</time>
      </trkpt>
      <trkpt lat="43.00149" lon="0.30955">
        <ele>1115.4</ele>
        <time>2026-07-08T08:23:56Z</time>
      </trkpt>
      <trkpt lat="43.00149" lon="0.30956">
        <ele>1115.4</ele>
        <time>2026-07-08T08:23:56Z</time>
      </trkpt>
      <trkpt lat="43.00149" lon="0.30957">
        <ele>1115.4</ele>
        <time>2026-07-08T08:23:57Z</time>
      </trkpt>
      <trkpt lat="43.00149" lon="0.30958">
        <ele>1115.4</ele>
        <time>2026-07-08T08:23:58Z</time>
      </trkpt>
      <trkpt lat="43.00148" lon="0.30959">
        <ele>1115.4</ele>
        <time>2026-07-08T08:23:58Z</time>
      </trkpt>
      <trkpt lat="43.00148" lon="0.3096">
        <ele>1115.4</ele>
        <time>2026-07-08T08:23:59Z</time>
      </trkpt>
      <trkpt lat="43.00148" lon="0.30961">
        <ele>1115.4</ele>
        <time>2026-07-08T08:23:59Z</time>
      </trkpt>
      <trkpt lat="43.00148" lon="0.30961">
        <ele>1115.4</ele>
        <time>2026-07-08T08:24:00Z</time>
      </trkpt>
      <trkpt lat="43.00148" lon="0.30962">
        <ele>1116.4</ele>
        <time>2026-07-08T08:24:01Z</time>
      </trkpt>
      <trkpt lat="43.00148" lon="0.30963">
        <ele>1117.4</ele>
        <time>2026-07-08T08:24:01Z</time>
      </trkpt>
      <trkpt lat="43.00148" lon="0.30964">
        <ele>1117.4</ele>
        <time>2026-07-08T08:24:02Z</time>
      </trkpt>
      <trkpt lat="43.00148" lon="0.30965">
        <ele>1117.4</ele>
        <time>2026-07-08T08:24:03Z</time>
      </trkpt>
      <trkpt lat="43.00148" lon="0.30965">
        <ele>1117.4</ele>
        <time>2026-07-08T08:24:03Z</time>
      </trkpt>
      <trkpt lat="43.00147" lon="0.30966">
        <ele>1117.4</ele>
        <time>2026-07-08T08:24:04Z</time>
      </trkpt>
      <trkpt lat="43.00147" lon="0.30967">
        <ele>1117.4</ele>
        <time>2026-07-08T08:24:04Z</time>
      </trkpt>
      <trkpt lat="43.00147" lon="0.30968">
        <ele>1117.4</ele>
        <time>2026-07-08T08:24:05Z</time>
      </trkpt>
      <trkpt lat="43.00147" lon="0.30969">
        <ele>1117.4</ele>
        <time>2026-07-08T08:24:06Z</time>
      </trkpt>
      <trkpt lat="43.00147" lon="0.3097">
        <ele>1118.4</ele>
        <time>2026-07-08T08:24:06Z</time>
      </trkpt>
      <trkpt lat="43.00147" lon="0.30971">
        <ele>1118.4</ele>
        <time>2026-07-08T08:24:07Z</time>
      </trkpt>
      <trkpt lat="43.00147" lon="0.30972">
        <ele>1119.4</ele>
        <time>2026-07-08T08:24:07Z</time>
      </trkpt>
      <trkpt lat="43.00146" lon="0.30973">
        <ele>1119.4</ele>
        <time>2026-07-08T08:24:08Z</time>
      </trkpt>
      <trkpt lat="43.00147" lon="0.30973">
        <ele>1119.4</ele>
        <time>2026-07-08T08:24:09Z</time>
      </trkpt>
      <trkpt lat="43.00147" lon="0.30974">
        <ele>1120.4</ele>
        <time>2026-07-08T08:24:09Z</time>
      </trkpt>
      <trkpt lat="43.00146" lon="0.30975">
        <ele>1120.4</ele>
        <time>2026-07-08T08:24:10Z</time>
      </trkpt>
      <trkpt lat="43.00146" lon="0.30976">
        <ele>1120.4</ele>
        <time>2026-07-08T08:24:10Z</time>
      </trkpt>
      <trkpt lat="43.00146" lon="0.30977">
        <ele>1120.4</ele>
        <time>2026-07-08T08:24:11Z</time>
      </trkpt>
      <trkpt lat="43.00146" lon="0.30978">
        <ele>1120.4</ele>
        <time>2026-07-08T08:24:11Z</time>
      </trkpt>
      <trkpt lat="43.00146" lon="0.30979">
        <ele>1120.4</ele>
        <time>2026-07-08T08:24:12Z</time>
      </trkpt>
      <trkpt lat="43.00146" lon="0.3098">
        <ele>1120.4</ele>
        <time>2026-07-08T08:24:13Z</time>
      </trkpt>
      <trkpt lat="43.00146" lon="0.30981">
        <ele>1120.4</ele>
        <time>2026-07-08T08:24:13Z</time>
      </trkpt>
      <trkpt lat="43.00146" lon="0.30982">
        <ele>1120.4</ele>
        <time>2026-07-08T08:24:14Z</time>
      </trkpt>
      <trkpt lat="43.00146" lon="0.30982">
        <ele>1120.4</ele>
        <time>2026-07-08T08:24:15Z</time>
      </trkpt>
      <trkpt lat="43.00146" lon="0.30983">
        <ele>1120.4</ele>
        <time>2026-07-08T08:24:15Z</time>
      </trkpt>
      <trkpt lat="43.00146" lon="0.30984">
        <ele>1120.4</ele>
        <time>2026-07-08T08:24:16Z</time>
      </trkpt>
      <trkpt lat="43.00145" lon="0.30985">
        <ele>1120.4</ele>
        <time>2026-07-08T08:24:16Z</time>
      </trkpt>
      <trkpt lat="43.00145" lon="0.30986">
        <ele>1120.4</ele>
        <time>2026-07-08T08:24:17Z</time>
      </trkpt>
      <trkpt lat="43.00145" lon="0.30987">
        <ele>1120.4</ele>
        <time>2026-07-08T08:24:18Z</time>
      </trkpt>
      <trkpt lat="43.00145" lon="0.30987">
        <ele>1120.4</ele>
        <time>2026-07-08T08:24:18Z</time>
      </trkpt>
      <trkpt lat="43.00145" lon="0.30988">
        <ele>1120.4</ele>
        <time>2026-07-08T08:24:19Z</time>
      </trkpt>
      <trkpt lat="43.00145" lon="0.30989">
        <ele>1121.4</ele>
        <time>2026-07-08T08:24:19Z</time>
      </trkpt>
      <trkpt lat="43.00144" lon="0.3099">
        <ele>1121.4</ele>
        <time>2026-07-08T08:24:20Z</time>
      </trkpt>
      <trkpt lat="43.00144" lon="0.30991">
        <ele>1121.4</ele>
        <time>2026-07-08T08:24:21Z</time>
      </trkpt>
      <trkpt lat="43.00144" lon="0.30992">
        <ele>1121.4</ele>
        <time>2026-07-08T08:24:21Z</time>
      </trkpt>
      <trkpt lat="43.00144" lon="0.30993">
        <ele>1121.4</ele>
        <time>2026-07-08T08:24:22Z</time>
      </trkpt>
      <trkpt lat="43.00144" lon="0.30994">
        <ele>1121.4</ele>
        <time>2026-07-08T08:24:22Z</time>
      </trkpt>
      <trkpt lat="43.00144" lon="0.30995">
        <ele>1121.4</ele>
        <time>2026-07-08T08:24:23Z</time>
      </trkpt>
      <trkpt lat="43.00144" lon="0.30996">
        <ele>1121.4</ele>
        <time>2026-07-08T08:24:24Z</time>
      </trkpt>
      <trkpt lat="43.00144" lon="0.30997">
        <ele>1121.4</ele>
        <time>2026-07-08T08:24:24Z</time>
      </trkpt>
      <trkpt lat="43.00143" lon="0.30998">
        <ele>1121.4</ele>
        <time>2026-07-08T08:24:25Z</time>
      </trkpt>
      <trkpt lat="43.00143" lon="0.30999">
        <ele>1121.4</ele>
        <time>2026-07-08T08:24:25Z</time>
      </trkpt>
      <trkpt lat="43.00143" lon="0.31">
        <ele>1121.4</ele>
        <time>2026-07-08T08:24:26Z</time>
      </trkpt>
      <trkpt lat="43.00143" lon="0.31001">
        <ele>1121.4</ele>
        <time>2026-07-08T08:24:27Z</time>
      </trkpt>
      <trkpt lat="43.00143" lon="0.31002">
        <ele>1121.4</ele>
        <time>2026-07-08T08:24:27Z</time>
      </trkpt>
      <trkpt lat="43.00143" lon="0.31003">
        <ele>1121.4</ele>
        <time>2026-07-08T08:24:28Z</time>
      </trkpt>
      <trkpt lat="43.00143" lon="0.31004">
        <ele>1121.4</ele>
        <time>2026-07-08T08:24:28Z</time>
      </trkpt>
      <trkpt lat="43.00143" lon="0.31005">
        <ele>1121.4</ele>
        <time>2026-07-08T08:24:29Z</time>
      </trkpt>
      <trkpt lat="43.00143" lon="0.31006">
        <ele>1122.4</ele>
        <time>2026-07-08T08:24:30Z</time>
      </trkpt>
      <trkpt lat="43.00143" lon="0.31007">
        <ele>1122.4</ele>
        <time>2026-07-08T08:24:30Z</time>
      </trkpt>
      <trkpt lat="43.00143" lon="0.31008">
        <ele>1122.4</ele>
        <time>2026-07-08T08:24:31Z</time>
      </trkpt>
      <trkpt lat="43.00142" lon="0.31009">
        <ele>1122.4</ele>
        <time>2026-07-08T08:24:31Z</time>
      </trkpt>
      <trkpt lat="43.00142" lon="0.3101">
        <ele>1122.4</ele>
        <time>2026-07-08T08:24:32Z</time>
      </trkpt>
      <trkpt lat="43.00142" lon="0.31011">
        <ele>1122.4</ele>
        <time>2026-07-08T08:24:33Z</time>
      </trkpt>
      <trkpt lat="43.00142" lon="0.31012">
        <ele>1123.4</ele>
        <time>2026-07-08T08:24:33Z</time>
      </trkpt>
      <trkpt lat="43.00142" lon="0.31013">
        <ele>1123.4</ele>
        <time>2026-07-08T08:24:34Z</time>
      </trkpt>
      <trkpt lat="43.00142" lon="0.31014">
        <ele>1123.4</ele>
        <time>2026-07-08T08:24:34Z</time>
      </trkpt>
      <trkpt lat="43.00142" lon="0.31016">
        <ele>1123.4</ele>
        <time>2026-07-08T08:24:35Z</time>
      </trkpt>
      <trkpt lat="43.00142" lon="0.31016">
        <ele>1124.4</ele>
        <time>2026-07-08T08:24:36Z</time>
      </trkpt>
      <trkpt lat="43.00142" lon="0.31017">
        <ele>1124.4</ele>
        <time>2026-07-08T08:24:36Z</time>
      </trkpt>
      <trkpt lat="43.00142" lon="0.31018">
        <ele>1124.4</ele>
        <time>2026-07-08T08:24:37Z</time>
      </trkpt>
      <trkpt lat="43.00142" lon="0.31019">
        <ele>1124.4</ele>
        <time>2026-07-08T08:24:37Z</time>
      </trkpt>
      <trkpt lat="43.00142" lon="0.3102">
        <ele>1124.4</ele>
        <time>2026-07-08T08:24:38Z</time>
      </trkpt>
      <trkpt lat="43.00142" lon="0.31021">
        <ele>1124.4</ele>
        <time>2026-07-08T08:24:39Z</time>
      </trkpt>
      <trkpt lat="43.00142" lon="0.31022">
        <ele>1125.4</ele>
        <time>2026-07-08T08:24:39Z</time>
      </trkpt>
      <trkpt lat="43.00142" lon="0.31023">
        <ele>1125.4</ele>
        <time>2026-07-08T08:24:40Z</time>
      </trkpt>
      <trkpt lat="43.00143" lon="0.31024">
        <ele>1124.4</ele>
        <time>2026-07-08T08:24:40Z</time>
      </trkpt>
      <trkpt lat="43.00143" lon="0.31026">
        <ele>1124.4</ele>
        <time>2026-07-08T08:24:41Z</time>
      </trkpt>
      <trkpt lat="43.00143" lon="0.31026">
        <ele>1124.4</ele>
        <time>2026-07-08T08:24:42Z</time>
      </trkpt>
      <trkpt lat="43.00143" lon="0.31027">
        <ele>1126.4</ele>
        <time>2026-07-08T08:24:42Z</time>
      </trkpt>
      <trkpt lat="43.00143" lon="0.31028">
        <ele>1126.4</ele>
        <time>2026-07-08T08:24:43Z</time>
      </trkpt>
      <trkpt lat="43.00143" lon="0.31029">
        <ele>1126.4</ele>
        <time>2026-07-08T08:24:43Z</time>
      </trkpt>
      <trkpt lat="43.00143" lon="0.3103">
        <ele>1126.4</ele>
        <time>2026-07-08T08:24:44Z</time>
      </trkpt>
      <trkpt lat="43.00144" lon="0.31031">
        <ele>1125.4</ele>
        <time>2026-07-08T08:24:44Z</time>
      </trkpt>
      <trkpt lat="43.00144" lon="0.31032">
        <ele>1125.4</ele>
        <time>2026-07-08T08:24:45Z</time>
      </trkpt>
      <trkpt lat="43.00144" lon="0.31033">
        <ele>1125.4</ele>
        <time>2026-07-08T08:24:46Z</time>
      </trkpt>
      <trkpt lat="43.00144" lon="0.31034">
        <ele>1125.4</ele>
        <time>2026-07-08T08:24:46Z</time>
      </trkpt>
      <trkpt lat="43.00144" lon="0.31035">
        <ele>1125.4</ele>
        <time>2026-07-08T08:24:47Z</time>
      </trkpt>
      <trkpt lat="43.00144" lon="0.31036">
        <ele>1126.4</ele>
        <time>2026-07-08T08:24:47Z</time>
      </trkpt>
      <trkpt lat="43.00144" lon="0.31037">
        <ele>1126.4</ele>
        <time>2026-07-08T08:24:48Z</time>
      </trkpt>
      <trkpt lat="43.00145" lon="0.31038">
        <ele>1126.4</ele>
        <time>2026-07-08T08:24:49Z</time>
      </trkpt>
      <trkpt lat="43.00145" lon="0.31039">
        <ele>1127.4</ele>
        <time>2026-07-08T08:24:49Z</time>
      </trkpt>
      <trkpt lat="43.00145" lon="0.31039">
        <ele>1127.4</ele>
        <time>2026-07-08T08:24:50Z</time>
      </trkpt>
      <trkpt lat="43.00145" lon="0.3104">
        <ele>1127.4</ele>
        <time>2026-07-08T08:24:50Z</time>
      </trkpt>
      <trkpt lat="43.00145" lon="0.31041">
        <ele>1127.4</ele>
        <time>2026-07-08T08:24:51Z</time>
      </trkpt>
      <trkpt lat="43.00146" lon="0.31042">
        <ele>1127.4</ele>
        <time>2026-07-08T08:24:52Z</time>
      </trkpt>
      <trkpt lat="43.00146" lon="0.31043">
        <ele>1127.4</ele>
        <time>2026-07-08T08:24:52Z</time>
      </trkpt>
      <trkpt lat="43.00146" lon="0.31044">
        <ele>1127.4</ele>
        <time>2026-07-08T08:24:53Z</time>
      </trkpt>
      <trkpt lat="43.00146" lon="0.31045">
        <ele>1128.4</ele>
        <time>2026-07-08T08:24:53Z</time>
      </trkpt>
      <trkpt lat="43.00147" lon="0.31046">
        <ele>1128.4</ele>
        <time>2026-07-08T08:24:54Z</time>
      </trkpt>
      <trkpt lat="43.00147" lon="0.31047">
        <ele>1128.4</ele>
        <time>2026-07-08T08:24:55Z</time>
      </trkpt>
      <trkpt lat="43.00147" lon="0.31048">
        <ele>1128.4</ele>
        <time>2026-07-08T08:24:55Z</time>
      </trkpt>
      <trkpt lat="43.00147" lon="0.31049">
        <ele>1128.4</ele>
        <time>2026-07-08T08:24:56Z</time>
      </trkpt>
      <trkpt lat="43.00147" lon="0.3105">
        <ele>1128.4</ele>
        <time>2026-07-08T08:24:56Z</time>
      </trkpt>
      <trkpt lat="43.00147" lon="0.31051">
        <ele>1128.4</ele>
        <time>2026-07-08T08:24:57Z</time>
      </trkpt>
      <trkpt lat="43.00148" lon="0.31051">
        <ele>1128.4</ele>
        <time>2026-07-08T08:24:58Z</time>
      </trkpt>
      <trkpt lat="43.00148" lon="0.31052">
        <ele>1128.4</ele>
        <time>2026-07-08T08:24:58Z</time>
      </trkpt>
      <trkpt lat="43.00148" lon="0.31053">
        <ele>1128.4</ele>
        <time>2026-07-08T08:24:59Z</time>
      </trkpt>
      <trkpt lat="43.00148" lon="0.31054">
        <ele>1128.4</ele>
        <time>2026-07-08T08:24:59Z</time>
      </trkpt>
      <trkpt lat="43.00149" lon="0.31055">
        <ele>1128.4</ele>
        <time>2026-07-08T08:25:00Z</time>
      </trkpt>
      <trkpt lat="43.00149" lon="0.31056">
        <ele>1127.4</ele>
        <time>2026-07-08T08:25:01Z</time>
      </trkpt>
      <trkpt lat="43.00149" lon="0.31057">
        <ele>1127.4</ele>
        <time>2026-07-08T08:25:01Z</time>
      </trkpt>
      <trkpt lat="43.00149" lon="0.31058">
        <ele>1128.4</ele>
        <time>2026-07-08T08:25:02Z</time>
      </trkpt>
      <trkpt lat="43.0015" lon="0.31058">
        <ele>1129.4</ele>
        <time>2026-07-08T08:25:02Z</time>
      </trkpt>
      <trkpt lat="43.0015" lon="0.31059">
        <ele>1129.4</ele>
        <time>2026-07-08T08:25:03Z</time>
      </trkpt>
      <trkpt lat="43.0015" lon="0.3106">
        <ele>1129.4</ele>
        <time>2026-07-08T08:25:03Z</time>
      </trkpt>
      <trkpt lat="43.0015" lon="0.31061">
        <ele>1128.4</ele>
        <time>2026-07-08T08:25:04Z</time>
      </trkpt>
      <trkpt lat="43.00151" lon="0.31062">
        <ele>1128.4</ele>
        <time>2026-07-08T08:25:05Z</time>
      </trkpt>
      <trkpt lat="43.00151" lon="0.31062">
        <ele>1128.4</ele>
        <time>2026-07-08T08:25:05Z</time>
      </trkpt>
      <trkpt lat="43.00151" lon="0.31063">
        <ele>1128.4</ele>
        <time>2026-07-08T08:25:06Z</time>
      </trkpt>
      <trkpt lat="43.00151" lon="0.31064">
        <ele>1129.4</ele>
        <time>2026-07-08T08:25:06Z</time>
      </trkpt>
      <trkpt lat="43.00151" lon="0.31065">
        <ele>1129.4</ele>
        <time>2026-07-08T08:25:07Z</time>
      </trkpt>
      <trkpt lat="43.00151" lon="0.31066">
        <ele>1129.4</ele>
        <time>2026-07-08T08:25:08Z</time>
      </trkpt>
      <trkpt lat="43.00151" lon="0.31067">
        <ele>1129.4</ele>
        <time>2026-07-08T08:25:08Z</time>
      </trkpt>
      <trkpt lat="43.00151" lon="0.31068">
        <ele>1129.4</ele>
        <time>2026-07-08T08:25:09Z</time>
      </trkpt>
      <trkpt lat="43.00151" lon="0.31069">
        <ele>1129.4</ele>
        <time>2026-07-08T08:25:09Z</time>
      </trkpt>
      <trkpt lat="43.00151" lon="0.3107">
        <ele>1129.4</ele>
        <time>2026-07-08T08:25:10Z</time>
      </trkpt>
      <trkpt lat="43.00151" lon="0.31071">
        <ele>1129.4</ele>
        <time>2026-07-08T08:25:11Z</time>
      </trkpt>
      <trkpt lat="43.00151" lon="0.31072">
        <ele>1130.4</ele>
        <time>2026-07-08T08:25:11Z</time>
      </trkpt>
      <trkpt lat="43.00151" lon="0.31073">
        <ele>1130.4</ele>
        <time>2026-07-08T08:25:12Z</time>
      </trkpt>
      <trkpt lat="43.00151" lon="0.31074">
        <ele>1130.4</ele>
        <time>2026-07-08T08:25:12Z</time>
      </trkpt>
      <trkpt lat="43.00151" lon="0.31075">
        <ele>1130.4</ele>
        <time>2026-07-08T08:25:13Z</time>
      </trkpt>
      <trkpt lat="43.00151" lon="0.31076">
        <ele>1129.4</ele>
        <time>2026-07-08T08:25:14Z</time>
      </trkpt>
      <trkpt lat="43.00151" lon="0.31076">
        <ele>1129.4</ele>
        <time>2026-07-08T08:25:14Z</time>
      </trkpt>
      <trkpt lat="43.00151" lon="0.31077">
        <ele>1129.4</ele>
        <time>2026-07-08T08:25:15Z</time>
      </trkpt>
      <trkpt lat="43.00151" lon="0.31078">
        <ele>1130.4</ele>
        <time>2026-07-08T08:25:15Z</time>
      </trkpt>
      <trkpt lat="43.00151" lon="0.31079">
        <ele>1130.4</ele>
        <time>2026-07-08T08:25:16Z</time>
      </trkpt>
      <trkpt lat="43.00151" lon="0.3108">
        <ele>1130.4</ele>
        <time>2026-07-08T08:25:17Z</time>
      </trkpt>
      <trkpt lat="43.00151" lon="0.3108">
        <ele>1130.4</ele>
        <time>2026-07-08T08:25:17Z</time>
      </trkpt>
      <trkpt lat="43.00151" lon="0.31081">
        <ele>1130.4</ele>
        <time>2026-07-08T08:25:18Z</time>
      </trkpt>
      <trkpt lat="43.00151" lon="0.31082">
        <ele>1131.4</ele>
        <time>2026-07-08T08:25:18Z</time>
      </trkpt>
      <trkpt lat="43.00151" lon="0.31082">
        <ele>1131.4</ele>
        <time>2026-07-08T08:25:19Z</time>
      </trkpt>
      <trkpt lat="43.00151" lon="0.31083">
        <ele>1131.4</ele>
        <time>2026-07-08T08:25:19Z</time>
      </trkpt>
      <trkpt lat="43.0015" lon="0.31084">
        <ele>1130.4</ele>
        <time>2026-07-08T08:25:20Z</time>
      </trkpt>
      <trkpt lat="43.0015" lon="0.31084">
        <ele>1130.4</ele>
        <time>2026-07-08T08:25:21Z</time>
      </trkpt>
      <trkpt lat="43.0015" lon="0.31085">
        <ele>1130.4</ele>
        <time>2026-07-08T08:25:21Z</time>
      </trkpt>
      <trkpt lat="43.0015" lon="0.31086">
        <ele>1130.4</ele>
        <time>2026-07-08T08:25:22Z</time>
      </trkpt>
      <trkpt lat="43.0015" lon="0.31087">
        <ele>1130.4</ele>
        <time>2026-07-08T08:25:22Z</time>
      </trkpt>
      <trkpt lat="43.00149" lon="0.31088">
        <ele>1130.4</ele>
        <time>2026-07-08T08:25:23Z</time>
      </trkpt>
      <trkpt lat="43.00149" lon="0.31088">
        <ele>1130.4</ele>
        <time>2026-07-08T08:25:24Z</time>
      </trkpt>
      <trkpt lat="43.00149" lon="0.31089">
        <ele>1130.4</ele>
        <time>2026-07-08T08:25:24Z</time>
      </trkpt>
      <trkpt lat="43.00149" lon="0.3109">
        <ele>1130.4</ele>
        <time>2026-07-08T08:25:25Z</time>
      </trkpt>
      <trkpt lat="43.00148" lon="0.31091">
        <ele>1130.4</ele>
        <time>2026-07-08T08:25:25Z</time>
      </trkpt>
      <trkpt lat="43.00148" lon="0.31092">
        <ele>1130.4</ele>
        <time>2026-07-08T08:25:26Z</time>
      </trkpt>
      <trkpt lat="43.00148" lon="0.31092">
        <ele>1131.4</ele>
        <time>2026-07-08T08:25:27Z</time>
      </trkpt>
      <trkpt lat="43.00148" lon="0.31093">
        <ele>1131.4</ele>
        <time>2026-07-08T08:25:27Z</time>
      </trkpt>
      <trkpt lat="43.00147" lon="0.31093">
        <ele>1131.4</ele>
        <time>2026-07-08T08:25:28Z</time>
      </trkpt>
      <trkpt lat="43.00147" lon="0.31094">
        <ele>1130.4</ele>
        <time>2026-07-08T08:25:28Z</time>
      </trkpt>
      <trkpt lat="43.00146" lon="0.31094">
        <ele>1130.4</ele>
        <time>2026-07-08T08:25:29Z</time>
      </trkpt>
      <trkpt lat="43.00146" lon="0.31095">
        <ele>1130.4</ele>
        <time>2026-07-08T08:25:30Z</time>
      </trkpt>
      <trkpt lat="43.00146" lon="0.31096">
        <ele>1130.4</ele>
        <time>2026-07-08T08:25:30Z</time>
      </trkpt>
      <trkpt lat="43.00145" lon="0.31097">
        <ele>1130.4</ele>
        <time>2026-07-08T08:25:31Z</time>
      </trkpt>
      <trkpt lat="43.00145" lon="0.31097">
        <ele>1129.4</ele>
        <time>2026-07-08T08:25:31Z</time>
      </trkpt>
      <trkpt lat="43.00144" lon="0.31098">
        <ele>1129.4</ele>
        <time>2026-07-08T08:25:32Z</time>
      </trkpt>
      <trkpt lat="43.00144" lon="0.31099">
        <ele>1129.4</ele>
        <time>2026-07-08T08:25:33Z</time>
      </trkpt>
      <trkpt lat="43.00144" lon="0.31099">
        <ele>1130.4</ele>
        <time>2026-07-08T08:25:33Z</time>
      </trkpt>
      <trkpt lat="43.00144" lon="0.311">
        <ele>1130.4</ele>
        <time>2026-07-08T08:25:34Z</time>
      </trkpt>
      <trkpt lat="43.00143" lon="0.31101">
        <ele>1130.4</ele>
        <time>2026-07-08T08:25:34Z</time>
      </trkpt>
      <trkpt lat="43.00143" lon="0.31101">
        <ele>1131.4</ele>
        <time>2026-07-08T08:25:35Z</time>
      </trkpt>
      <trkpt lat="43.00143" lon="0.31102">
        <ele>1131.4</ele>
        <time>2026-07-08T08:25:36Z</time>
      </trkpt>
      <trkpt lat="43.00142" lon="0.31103">
        <ele>1131.4</ele>
        <time>2026-07-08T08:25:36Z</time>
      </trkpt>
      <trkpt lat="43.00142" lon="0.31103">
        <ele>1131.4</ele>
        <time>2026-07-08T08:25:37Z</time>
      </trkpt>
      <trkpt lat="43.00142" lon="0.31104">
        <ele>1130.4</ele>
        <time>2026-07-08T08:25:38Z</time>
      </trkpt>
      <trkpt lat="43.00141" lon="0.31105">
        <ele>1130.4</ele>
        <time>2026-07-08T08:25:38Z</time>
      </trkpt>
      <trkpt lat="43.00141" lon="0.31106">
        <ele>1130.4</ele>
        <time>2026-07-08T08:25:39Z</time>
      </trkpt>
      <trkpt lat="43.00141" lon="0.31106">
        <ele>1131.4</ele>
        <time>2026-07-08T08:25:39Z</time>
      </trkpt>
      <trkpt lat="43.0014" lon="0.31107">
        <ele>1130.4</ele>
        <time>2026-07-08T08:25:40Z</time>
      </trkpt>
      <trkpt lat="43.0014" lon="0.31108">
        <ele>1130.4</ele>
        <time>2026-07-08T08:25:41Z</time>
      </trkpt>
      <trkpt lat="43.00139" lon="0.31109">
        <ele>1130.4</ele>
        <time>2026-07-08T08:25:41Z</time>
      </trkpt>
      <trkpt lat="43.00139" lon="0.3111">
        <ele>1130.4</ele>
        <time>2026-07-08T08:25:42Z</time>
      </trkpt>
      <trkpt lat="43.00138" lon="0.3111">
        <ele>1130.4</ele>
        <time>2026-07-08T08:25:43Z</time>
      </trkpt>
      <trkpt lat="43.00138" lon="0.31111">
        <ele>1131.4</ele>
        <time>2026-07-08T08:25:43Z</time>
      </trkpt>
      <trkpt lat="43.00138" lon="0.31112">
        <ele>1131.4</ele>
        <time>2026-07-08T08:25:44Z</time>
      </trkpt>
      <trkpt lat="43.00137" lon="0.31113">
        <ele>1131.4</ele>
        <time>2026-07-08T08:25:45Z</time>
      </trkpt>
      <trkpt lat="43.00137" lon="0.31114">
        <ele>1131.4</ele>
        <time>2026-07-08T08:25:45Z</time>
      </trkpt>
      <trkpt lat="43.00137" lon="0.31115">
        <ele>1131.4</ele>
        <time>2026-07-08T08:25:46Z</time>
      </trkpt>
      <trkpt lat="43.00136" lon="0.31115">
        <ele>1130.4</ele>
        <time>2026-07-08T08:25:47Z</time>
      </trkpt>
      <trkpt lat="43.00136" lon="0.31116">
        <ele>1130.4</ele>
        <time>2026-07-08T08:25:47Z</time>
      </trkpt>
      <trkpt lat="43.00136" lon="0.31117">
        <ele>1130.4</ele>
        <time>2026-07-08T08:25:48Z</time>
      </trkpt>
      <trkpt lat="43.00135" lon="0.31118">
        <ele>1131.4</ele>
        <time>2026-07-08T08:25:49Z</time>
      </trkpt>
      <trkpt lat="43.00135" lon="0.31119">
        <ele>1132.4</ele>
        <time>2026-07-08T08:25:49Z</time>
      </trkpt>
      <trkpt lat="43.00134" lon="0.31119">
        <ele>1132.4</ele>
        <time>2026-07-08T08:25:50Z</time>
      </trkpt>
      <trkpt lat="43.00134" lon="0.3112">
        <ele>1133.4</ele>
        <time>2026-07-08T08:25:51Z</time>
      </trkpt>
      <trkpt lat="43.00134" lon="0.31121">
        <ele>1133.4</ele>
        <time>2026-07-08T08:25:51Z</time>
      </trkpt>
      <trkpt lat="43.00133" lon="0.31122">
        <ele>1133.4</ele>
        <time>2026-07-08T08:25:52Z</time>
      </trkpt>
      <trkpt lat="43.00133" lon="0.31123">
        <ele>1133.4</ele>
        <time>2026-07-08T08:25:52Z</time>
      </trkpt>
      <trkpt lat="43.00133" lon="0.31124">
        <ele>1133.4</ele>
        <time>2026-07-08T08:25:53Z</time>
      </trkpt>
      <trkpt lat="43.00132" lon="0.31125">
        <ele>1133.4</ele>
        <time>2026-07-08T08:25:54Z</time>
      </trkpt>
      <trkpt lat="43.00132" lon="0.31126">
        <ele>1133.4</ele>
        <time>2026-07-08T08:25:54Z</time>
      </trkpt>
      <trkpt lat="43.00131" lon="0.31127">
        <ele>1133.4</ele>
        <time>2026-07-08T08:25:55Z</time>
      </trkpt>
      <trkpt lat="43.00131" lon="0.31128">
        <ele>1133.4</ele>
        <time>2026-07-08T08:25:56Z</time>
      </trkpt>
      <trkpt lat="43.0013" lon="0.31128">
        <ele>1133.4</ele>
        <time>2026-07-08T08:25:56Z</time>
      </trkpt>
      <trkpt lat="43.0013" lon="0.31129">
        <ele>1133.4</ele>
        <time>2026-07-08T08:25:57Z</time>
      </trkpt>
      <trkpt lat="43.00129" lon="0.3113">
        <ele>1133.4</ele>
        <time>2026-07-08T08:25:58Z</time>
      </trkpt>
      <trkpt lat="43.00129" lon="0.3113">
        <ele>1135.4</ele>
        <time>2026-07-08T08:25:58Z</time>
      </trkpt>
      <trkpt lat="43.00128" lon="0.31131">
        <ele>1135.4</ele>
        <time>2026-07-08T08:25:59Z</time>
      </trkpt>
      <trkpt lat="43.00128" lon="0.31132">
        <ele>1135.4</ele>
        <time>2026-07-08T08:26:00Z</time>
      </trkpt>
      <trkpt lat="43.00128" lon="0.31132">
        <ele>1135.4</ele>
        <time>2026-07-08T08:26:00Z</time>
      </trkpt>
      <trkpt lat="43.00127" lon="0.31133">
        <ele>1135.4</ele>
        <time>2026-07-08T08:26:01Z</time>
      </trkpt>
      <trkpt lat="43.00127" lon="0.31134">
        <ele>1134.4</ele>
        <time>2026-07-08T08:26:02Z</time>
      </trkpt>
      <trkpt lat="43.00126" lon="0.31134">
        <ele>1135.4</ele>
        <time>2026-07-08T08:26:02Z</time>
      </trkpt>
      <trkpt lat="43.00126" lon="0.31135">
        <ele>1135.4</ele>
        <time>2026-07-08T08:26:03Z</time>
      </trkpt>
      <trkpt lat="43.00125" lon="0.31136">
        <ele>1135.4</ele>
        <time>2026-07-08T08:26:03Z</time>
      </trkpt>
      <trkpt lat="43.00125" lon="0.31136">
        <ele>1135.4</ele>
        <time>2026-07-08T08:26:04Z</time>
      </trkpt>
      <trkpt lat="43.00125" lon="0.31137">
        <ele>1135.4</ele>
        <time>2026-07-08T08:26:05Z</time>
      </trkpt>
      <trkpt lat="43.00124" lon="0.31138">
        <ele>1135.4</ele>
        <time>2026-07-08T08:26:05Z</time>
      </trkpt>
      <trkpt lat="43.00124" lon="0.31139">
        <ele>1135.4</ele>
        <time>2026-07-08T08:26:06Z</time>
      </trkpt>
      <trkpt lat="43.00124" lon="0.3114">
        <ele>1136.4</ele>
        <time>2026-07-08T08:26:07Z</time>
      </trkpt>
      <trkpt lat="43.00124" lon="0.31141">
        <ele>1137.4</ele>
        <time>2026-07-08T08:26:07Z</time>
      </trkpt>
      <trkpt lat="43.00123" lon="0.31142">
        <ele>1137.4</ele>
        <time>2026-07-08T08:26:08Z</time>
      </trkpt>
      <trkpt lat="43.00123" lon="0.31142">
        <ele>1138.4</ele>
        <time>2026-07-08T08:26:09Z</time>
      </trkpt>
      <trkpt lat="43.00123" lon="0.31143">
        <ele>1139.4</ele>
        <time>2026-07-08T08:26:09Z</time>
      </trkpt>
      <trkpt lat="43.00123" lon="0.31144">
        <ele>1139.4</ele>
        <time>2026-07-08T08:26:10Z</time>
      </trkpt>
      <trkpt lat="43.00123" lon="0.31145">
        <ele>1139.4</ele>
        <time>2026-07-08T08:26:11Z</time>
      </trkpt>
      <trkpt lat="43.00123" lon="0.31146">
        <ele>1139.4</ele>
        <time>2026-07-08T08:26:11Z</time>
      </trkpt>
      <trkpt lat="43.00122" lon="0.31146">
        <ele>1139.4</ele>
        <time>2026-07-08T08:26:12Z</time>
      </trkpt>
      <trkpt lat="43.00122" lon="0.31147">
        <ele>1139.4</ele>
        <time>2026-07-08T08:26:12Z</time>
      </trkpt>
      <trkpt lat="43.00122" lon="0.31148">
        <ele>1139.4</ele>
        <time>2026-07-08T08:26:13Z</time>
      </trkpt>
      <trkpt lat="43.00122" lon="0.31149">
        <ele>1139.4</ele>
        <time>2026-07-08T08:26:14Z</time>
      </trkpt>
      <trkpt lat="43.00122" lon="0.3115">
        <ele>1138.4</ele>
        <time>2026-07-08T08:26:15Z</time>
      </trkpt>
      <trkpt lat="43.00122" lon="0.31151">
        <ele>1138.4</ele>
        <time>2026-07-08T08:26:16Z</time>
      </trkpt>
      <trkpt lat="43.00123" lon="0.31152">
        <ele>1138.4</ele>
        <time>2026-07-08T08:26:16Z</time>
      </trkpt>
      <trkpt lat="43.00123" lon="0.31153">
        <ele>1138.4</ele>
        <time>2026-07-08T08:26:17Z</time>
      </trkpt>
      <trkpt lat="43.00122" lon="0.31154">
        <ele>1138.4</ele>
        <time>2026-07-08T08:26:17Z</time>
      </trkpt>
      <trkpt lat="43.00122" lon="0.31155">
        <ele>1138.4</ele>
        <time>2026-07-08T08:26:18Z</time>
      </trkpt>
      <trkpt lat="43.00122" lon="0.31156">
        <ele>1138.4</ele>
        <time>2026-07-08T08:26:19Z</time>
      </trkpt>
      <trkpt lat="43.00122" lon="0.31157">
        <ele>1138.4</ele>
        <time>2026-07-08T08:26:19Z</time>
      </trkpt>
      <trkpt lat="43.00122" lon="0.31158">
        <ele>1138.4</ele>
        <time>2026-07-08T08:26:20Z</time>
      </trkpt>
      <trkpt lat="43.00122" lon="0.31159">
        <ele>1138.4</ele>
        <time>2026-07-08T08:26:21Z</time>
      </trkpt>
      <trkpt lat="43.00122" lon="0.31159">
        <ele>1138.4</ele>
        <time>2026-07-08T08:26:21Z</time>
      </trkpt>
      <trkpt lat="43.00122" lon="0.3116">
        <ele>1138.4</ele>
        <time>2026-07-08T08:26:22Z</time>
      </trkpt>
      <trkpt lat="43.00122" lon="0.31161">
        <ele>1140.4</ele>
        <time>2026-07-08T08:26:22Z</time>
      </trkpt>
      <trkpt lat="43.00121" lon="0.31161">
        <ele>1140.4</ele>
        <time>2026-07-08T08:26:23Z</time>
      </trkpt>
      <trkpt lat="43.00121" lon="0.31162">
        <ele>1140.4</ele>
        <time>2026-07-08T08:26:24Z</time>
      </trkpt>
      <trkpt lat="43.00121" lon="0.31163">
        <ele>1140.4</ele>
        <time>2026-07-08T08:26:24Z</time>
      </trkpt>
      <trkpt lat="43.00121" lon="0.31164">
        <ele>1140.4</ele>
        <time>2026-07-08T08:26:25Z</time>
      </trkpt>
      <trkpt lat="43.00121" lon="0.31165">
        <ele>1140.4</ele>
        <time>2026-07-08T08:26:25Z</time>
      </trkpt>
      <trkpt lat="43.00121" lon="0.31166">
        <ele>1140.4</ele>
        <time>2026-07-08T08:26:26Z</time>
      </trkpt>
      <trkpt lat="43.00121" lon="0.31167">
        <ele>1140.4</ele>
        <time>2026-07-08T08:26:27Z</time>
      </trkpt>
      <trkpt lat="43.0012" lon="0.31168">
        <ele>1140.4</ele>
        <time>2026-07-08T08:26:27Z</time>
      </trkpt>
      <trkpt lat="43.0012" lon="0.31169">
        <ele>1140.4</ele>
        <time>2026-07-08T08:26:28Z</time>
      </trkpt>
      <trkpt lat="43.0012" lon="0.31169">
        <ele>1140.4</ele>
        <time>2026-07-08T08:26:28Z</time>
      </trkpt>
      <trkpt lat="43.0012" lon="0.3117">
        <ele>1140.4</ele>
        <time>2026-07-08T08:26:29Z</time>
      </trkpt>
      <trkpt lat="43.00119" lon="0.31171">
        <ele>1140.4</ele>
        <time>2026-07-08T08:26:30Z</time>
      </trkpt>
      <trkpt lat="43.00119" lon="0.31172">
        <ele>1140.4</ele>
        <time>2026-07-08T08:26:30Z</time>
      </trkpt>
      <trkpt lat="43.00119" lon="0.31173">
        <ele>1140.4</ele>
        <time>2026-07-08T08:26:31Z</time>
      </trkpt>
      <trkpt lat="43.00119" lon="0.31174">
        <ele>1139.4</ele>
        <time>2026-07-08T08:26:31Z</time>
      </trkpt>
      <trkpt lat="43.00118" lon="0.31175">
        <ele>1139.4</ele>
        <time>2026-07-08T08:26:32Z</time>
      </trkpt>
      <trkpt lat="43.00118" lon="0.31175">
        <ele>1139.4</ele>
        <time>2026-07-08T08:26:32Z</time>
      </trkpt>
      <trkpt lat="43.00118" lon="0.31176">
        <ele>1139.4</ele>
        <time>2026-07-08T08:26:33Z</time>
      </trkpt>
      <trkpt lat="43.00118" lon="0.31177">
        <ele>1139.4</ele>
        <time>2026-07-08T08:26:34Z</time>
      </trkpt>
      <trkpt lat="43.00117" lon="0.31178">
        <ele>1139.4</ele>
        <time>2026-07-08T08:26:34Z</time>
      </trkpt>
      <trkpt lat="43.00117" lon="0.31179">
        <ele>1139.4</ele>
        <time>2026-07-08T08:26:35Z</time>
      </trkpt>
      <trkpt lat="43.00117" lon="0.31179">
        <ele>1139.4</ele>
        <time>2026-07-08T08:26:35Z</time>
      </trkpt>
      <trkpt lat="43.00116" lon="0.3118">
        <ele>1139.4</ele>
        <time>2026-07-08T08:26:36Z</time>
      </trkpt>
      <trkpt lat="43.00116" lon="0.31181">
        <ele>1139.4</ele>
        <time>2026-07-08T08:26:37Z</time>
      </trkpt>
      <trkpt lat="43.00116" lon="0.31181">
        <ele>1140.4</ele>
        <time>2026-07-08T08:26:37Z</time>
      </trkpt>
      <trkpt lat="43.00115" lon="0.31182">
        <ele>1140.4</ele>
        <time>2026-07-08T08:26:38Z</time>
      </trkpt>
      <trkpt lat="43.00115" lon="0.31183">
        <ele>1140.4</ele>
        <time>2026-07-08T08:26:38Z</time>
      </trkpt>
      <trkpt lat="43.00115" lon="0.31184">
        <ele>1140.4</ele>
        <time>2026-07-08T08:26:39Z</time>
      </trkpt>
      <trkpt lat="43.00115" lon="0.31185">
        <ele>1140.4</ele>
        <time>2026-07-08T08:26:40Z</time>
      </trkpt>
      <trkpt lat="43.00115" lon="0.31185">
        <ele>1139.4</ele>
        <time>2026-07-08T08:26:40Z</time>
      </trkpt>
      <trkpt lat="43.00115" lon="0.31186">
        <ele>1139.4</ele>
        <time>2026-07-08T08:26:41Z</time>
      </trkpt>
      <trkpt lat="43.00115" lon="0.31187">
        <ele>1139.4</ele>
        <time>2026-07-08T08:26:41Z</time>
      </trkpt>
      <trkpt lat="43.00115" lon="0.31188">
        <ele>1139.4</ele>
        <time>2026-07-08T08:26:42Z</time>
      </trkpt>
      <trkpt lat="43.00114" lon="0.31189">
        <ele>1140.4</ele>
        <time>2026-07-08T08:26:43Z</time>
      </trkpt>
      <trkpt lat="43.00114" lon="0.3119">
        <ele>1140.4</ele>
        <time>2026-07-08T08:26:43Z</time>
      </trkpt>
      <trkpt lat="43.00114" lon="0.31191">
        <ele>1140.4</ele>
        <time>2026-07-08T08:26:44Z</time>
      </trkpt>
      <trkpt lat="43.00114" lon="0.31192">
        <ele>1140.4</ele>
        <time>2026-07-08T08:26:44Z</time>
      </trkpt>
      <trkpt lat="43.00113" lon="0.31192">
        <ele>1140.4</ele>
        <time>2026-07-08T08:26:45Z</time>
      </trkpt>
      <trkpt lat="43.00113" lon="0.31193">
        <ele>1140.4</ele>
        <time>2026-07-08T08:26:46Z</time>
      </trkpt>
      <trkpt lat="43.00113" lon="0.31194">
        <ele>1140.4</ele>
        <time>2026-07-08T08:26:46Z</time>
      </trkpt>
      <trkpt lat="43.00112" lon="0.31195">
        <ele>1140.4</ele>
        <time>2026-07-08T08:26:47Z</time>
      </trkpt>
      <trkpt lat="43.00112" lon="0.31195">
        <ele>1140.4</ele>
        <time>2026-07-08T08:26:47Z</time>
      </trkpt>
      <trkpt lat="43.00112" lon="0.31196">
        <ele>1141.4</ele>
        <time>2026-07-08T08:26:48Z</time>
      </trkpt>
      <trkpt lat="43.00111" lon="0.31197">
        <ele>1141.4</ele>
        <time>2026-07-08T08:26:48Z</time>
      </trkpt>
      <trkpt lat="43.00111" lon="0.31198">
        <ele>1141.4</ele>
        <time>2026-07-08T08:26:49Z</time>
      </trkpt>
      <trkpt lat="43.0011" lon="0.31198">
        <ele>1141.4</ele>
        <time>2026-07-08T08:26:50Z</time>
      </trkpt>
      <trkpt lat="43.0011" lon="0.31199">
        <ele>1142.4</ele>
        <time>2026-07-08T08:26:50Z</time>
      </trkpt>
      <trkpt lat="43.0011" lon="0.312">
        <ele>1142.4</ele>
        <time>2026-07-08T08:26:51Z</time>
      </trkpt>
      <trkpt lat="43.0011" lon="0.31201">
        <ele>1142.4</ele>
        <time>2026-07-08T08:26:52Z</time>
      </trkpt>
      <trkpt lat="43.0011" lon="0.31202">
        <ele>1142.4</ele>
        <time>2026-07-08T08:26:52Z</time>
      </trkpt>
      <trkpt lat="43.00109" lon="0.31203">
        <ele>1142.4</ele>
        <time>2026-07-08T08:26:53Z</time>
      </trkpt>
      <trkpt lat="43.00109" lon="0.31203">
        <ele>1142.4</ele>
        <time>2026-07-08T08:26:53Z</time>
      </trkpt>
      <trkpt lat="43.00109" lon="0.31204">
        <ele>1142.4</ele>
        <time>2026-07-08T08:26:54Z</time>
      </trkpt>
      <trkpt lat="43.00109" lon="0.31205">
        <ele>1142.4</ele>
        <time>2026-07-08T08:26:55Z</time>
      </trkpt>
      <trkpt lat="43.00108" lon="0.31206">
        <ele>1143.4</ele>
        <time>2026-07-08T08:26:55Z</time>
      </trkpt>
      <trkpt lat="43.00108" lon="0.31207">
        <ele>1143.4</ele>
        <time>2026-07-08T08:26:56Z</time>
      </trkpt>
      <trkpt lat="43.00107" lon="0.31208">
        <ele>1143.4</ele>
        <time>2026-07-08T08:26:56Z</time>
      </trkpt>
      <trkpt lat="43.00107" lon="0.31208">
        <ele>1143.4</ele>
        <time>2026-07-08T08:26:57Z</time>
      </trkpt>
      <trkpt lat="43.00107" lon="0.31209">
        <ele>1143.4</ele>
        <time>2026-07-08T08:26:58Z</time>
      </trkpt>
      <trkpt lat="43.00106" lon="0.3121">
        <ele>1143.4</ele>
        <time>2026-07-08T08:26:58Z</time>
      </trkpt>
      <trkpt lat="43.00106" lon="0.31211">
        <ele>1143.4</ele>
        <time>2026-07-08T08:26:59Z</time>
      </trkpt>
      <trkpt lat="43.00105" lon="0.31212">
        <ele>1143.4</ele>
        <time>2026-07-08T08:26:59Z</time>
      </trkpt>
      <trkpt lat="43.00105" lon="0.31213">
        <ele>1143.4</ele>
        <time>2026-07-08T08:27:00Z</time>
      </trkpt>
      <trkpt lat="43.00104" lon="0.31214">
        <ele>1144.4</ele>
        <time>2026-07-08T08:27:01Z</time>
      </trkpt>
      <trkpt lat="43.00104" lon="0.31214">
        <ele>1144.4</ele>
        <time>2026-07-08T08:27:01Z</time>
      </trkpt>
      <trkpt lat="43.00104" lon="0.31215">
        <ele>1144.4</ele>
        <time>2026-07-08T08:27:02Z</time>
      </trkpt>
      <trkpt lat="43.00103" lon="0.31216">
        <ele>1144.4</ele>
        <time>2026-07-08T08:27:02Z</time>
      </trkpt>
      <trkpt lat="43.00103" lon="0.31217">
        <ele>1144.4</ele>
        <time>2026-07-08T08:27:03Z</time>
      </trkpt>
      <trkpt lat="43.00102" lon="0.31218">
        <ele>1144.4</ele>
        <time>2026-07-08T08:27:04Z</time>
      </trkpt>
      <trkpt lat="43.00102" lon="0.31218">
        <ele>1144.4</ele>
        <time>2026-07-08T08:27:04Z</time>
      </trkpt>
      <trkpt lat="43.00101" lon="0.31219">
        <ele>1144.4</ele>
        <time>2026-07-08T08:27:05Z</time>
      </trkpt>
      <trkpt lat="43.00101" lon="0.3122">
        <ele>1144.4</ele>
        <time>2026-07-08T08:27:05Z</time>
      </trkpt>
      <trkpt lat="43.00101" lon="0.31221">
        <ele>1144.4</ele>
        <time>2026-07-08T08:27:06Z</time>
      </trkpt>
      <trkpt lat="43.001" lon="0.31222">
        <ele>1144.4</ele>
        <time>2026-07-08T08:27:07Z</time>
      </trkpt>
      <trkpt lat="43.001" lon="0.31222">
        <ele>1144.4</ele>
        <time>2026-07-08T08:27:07Z</time>
      </trkpt>
      <trkpt lat="43.001" lon="0.31223">
        <ele>1144.4</ele>
        <time>2026-07-08T08:27:08Z</time>
      </trkpt>
      <trkpt lat="43.001" lon="0.31224">
        <ele>1145.4</ele>
        <time>2026-07-08T08:27:08Z</time>
      </trkpt>
      <trkpt lat="43.001" lon="0.31225">
        <ele>1145.4</ele>
        <time>2026-07-08T08:27:09Z</time>
      </trkpt>
      <trkpt lat="43.00099" lon="0.31226">
        <ele>1145.4</ele>
        <time>2026-07-08T08:27:09Z</time>
      </trkpt>
      <trkpt lat="43.00099" lon="0.31227">
        <ele>1145.4</ele>
        <time>2026-07-08T08:27:10Z</time>
      </trkpt>
      <trkpt lat="43.00099" lon="0.31228">
        <ele>1145.4</ele>
        <time>2026-07-08T08:27:11Z</time>
      </trkpt>
      <trkpt lat="43.00099" lon="0.31229">
        <ele>1145.4</ele>
        <time>2026-07-08T08:27:11Z</time>
      </trkpt>
      <trkpt lat="43.00098" lon="0.3123">
        <ele>1145.4</ele>
        <time>2026-07-08T08:27:12Z</time>
      </trkpt>
      <trkpt lat="43.00098" lon="0.31231">
        <ele>1145.4</ele>
        <time>2026-07-08T08:27:12Z</time>
      </trkpt>
      <trkpt lat="43.00098" lon="0.31232">
        <ele>1145.4</ele>
        <time>2026-07-08T08:27:13Z</time>
      </trkpt>
      <trkpt lat="43.00098" lon="0.31233">
        <ele>1146.4</ele>
        <time>2026-07-08T08:27:14Z</time>
      </trkpt>
      <trkpt lat="43.00097" lon="0.31233">
        <ele>1146.4</ele>
        <time>2026-07-08T08:27:14Z</time>
      </trkpt>
      <trkpt lat="43.00097" lon="0.31234">
        <ele>1146.4</ele>
        <time>2026-07-08T08:27:15Z</time>
      </trkpt>
      <trkpt lat="43.00097" lon="0.31235">
        <ele>1147.4</ele>
        <time>2026-07-08T08:27:15Z</time>
      </trkpt>
      <trkpt lat="43.00096" lon="0.31235">
        <ele>1147.4</ele>
        <time>2026-07-08T08:27:16Z</time>
      </trkpt>
      <trkpt lat="43.00095" lon="0.31236">
        <ele>1147.4</ele>
        <time>2026-07-08T08:27:17Z</time>
      </trkpt>
      <trkpt lat="43.00095" lon="0.31236">
        <ele>1147.4</ele>
        <time>2026-07-08T08:27:17Z</time>
      </trkpt>
      <trkpt lat="43.00095" lon="0.31237">
        <ele>1147.4</ele>
        <time>2026-07-08T08:27:18Z</time>
      </trkpt>
      <trkpt lat="43.00094" lon="0.31238">
        <ele>1148.4</ele>
        <time>2026-07-08T08:27:18Z</time>
      </trkpt>
      <trkpt lat="43.00094" lon="0.31239">
        <ele>1148.4</ele>
        <time>2026-07-08T08:27:19Z</time>
      </trkpt>
      <trkpt lat="43.00093" lon="0.31239">
        <ele>1148.4</ele>
        <time>2026-07-08T08:27:20Z</time>
      </trkpt>
      <trkpt lat="43.00093" lon="0.3124">
        <ele>1148.4</ele>
        <time>2026-07-08T08:27:20Z</time>
      </trkpt>
      <trkpt lat="43.00092" lon="0.3124">
        <ele>1148.4</ele>
        <time>2026-07-08T08:27:21Z</time>
      </trkpt>
      <trkpt lat="43.00092" lon="0.31241">
        <ele>1149.4</ele>
        <time>2026-07-08T08:27:21Z</time>
      </trkpt>
      <trkpt lat="43.00092" lon="0.31242">
        <ele>1149.4</ele>
        <time>2026-07-08T08:27:22Z</time>
      </trkpt>
      <trkpt lat="43.00091" lon="0.31242">
        <ele>1148.4</ele>
        <time>2026-07-08T08:27:23Z</time>
      </trkpt>
      <trkpt lat="43.00091" lon="0.31243">
        <ele>1149.4</ele>
        <time>2026-07-08T08:27:23Z</time>
      </trkpt>
      <trkpt lat="43.00091" lon="0.31244">
        <ele>1149.4</ele>
        <time>2026-07-08T08:27:24Z</time>
      </trkpt>
      <trkpt lat="43.0009" lon="0.31244">
        <ele>1149.4</ele>
        <time>2026-07-08T08:27:24Z</time>
      </trkpt>
      <trkpt lat="43.0009" lon="0.31245">
        <ele>1149.4</ele>
        <time>2026-07-08T08:27:25Z</time>
      </trkpt>
      <trkpt lat="43.00089" lon="0.31245">
        <ele>1148.4</ele>
        <time>2026-07-08T08:27:25Z</time>
      </trkpt>
      <trkpt lat="43.00089" lon="0.31246">
        <ele>1149.4</ele>
        <time>2026-07-08T08:27:26Z</time>
      </trkpt>
      <trkpt lat="43.00089" lon="0.31247">
        <ele>1149.4</ele>
        <time>2026-07-08T08:27:27Z</time>
      </trkpt>
      <trkpt lat="43.00088" lon="0.31248">
        <ele>1149.4</ele>
        <time>2026-07-08T08:27:27Z</time>
      </trkpt>
      <trkpt lat="43.00088" lon="0.31248">
        <ele>1149.4</ele>
        <time>2026-07-08T08:27:28Z</time>
      </trkpt>
      <trkpt lat="43.00088" lon="0.31249">
        <ele>1149.4</ele>
        <time>2026-07-08T08:27:28Z</time>
      </trkpt>
      <trkpt lat="43.00087" lon="0.3125">
        <ele>1149.4</ele>
        <time>2026-07-08T08:27:29Z</time>
      </trkpt>
      <trkpt lat="43.00087" lon="0.31251">
        <ele>1149.4</ele>
        <time>2026-07-08T08:27:30Z</time>
      </trkpt>
      <trkpt lat="43.00086" lon="0.31252">
        <ele>1149.4</ele>
        <time>2026-07-08T08:27:30Z</time>
      </trkpt>
      <trkpt lat="43.00086" lon="0.31252">
        <ele>1149.4</ele>
        <time>2026-07-08T08:27:31Z</time>
      </trkpt>
      <trkpt lat="43.00085" lon="0.31253">
        <ele>1149.4</ele>
        <time>2026-07-08T08:27:31Z</time>
      </trkpt>
      <trkpt lat="43.00085" lon="0.31254">
        <ele>1149.4</ele>
        <time>2026-07-08T08:27:32Z</time>
      </trkpt>
      <trkpt lat="43.00084" lon="0.31255">
        <ele>1149.4</ele>
        <time>2026-07-08T08:27:33Z</time>
      </trkpt>
      <trkpt lat="43.00084" lon="0.31255">
        <ele>1149.4</ele>
        <time>2026-07-08T08:27:33Z</time>
      </trkpt>
      <trkpt lat="43.00083" lon="0.31256">
        <ele>1149.4</ele>
        <time>2026-07-08T08:27:34Z</time>
      </trkpt>
      <trkpt lat="43.00083" lon="0.31257">
        <ele>1149.4</ele>
        <time>2026-07-08T08:27:34Z</time>
      </trkpt>
      <trkpt lat="43.00083" lon="0.31257">
        <ele>1149.4</ele>
        <time>2026-07-08T08:27:35Z</time>
      </trkpt>
      <trkpt lat="43.00082" lon="0.31258">
        <ele>1149.4</ele>
        <time>2026-07-08T08:27:36Z</time>
      </trkpt>
      <trkpt lat="43.00082" lon="0.31259">
        <ele>1149.4</ele>
        <time>2026-07-08T08:27:36Z</time>
      </trkpt>
      <trkpt lat="43.00081" lon="0.31259">
        <ele>1149.4</ele>
        <time>2026-07-08T08:27:37Z</time>
      </trkpt>
      <trkpt lat="43.00081" lon="0.3126">
        <ele>1150.4</ele>
        <time>2026-07-08T08:27:38Z</time>
      </trkpt>
      <trkpt lat="43.0008" lon="0.31261">
        <ele>1149.4</ele>
        <time>2026-07-08T08:27:38Z</time>
      </trkpt>
      <trkpt lat="43.0008" lon="0.31261">
        <ele>1149.4</ele>
        <time>2026-07-08T08:27:39Z</time>
      </trkpt>
      <trkpt lat="43.00079" lon="0.31262">
        <ele>1149.4</ele>
        <time>2026-07-08T08:27:39Z</time>
      </trkpt>
      <trkpt lat="43.00079" lon="0.31263">
        <ele>1149.4</ele>
        <time>2026-07-08T08:27:40Z</time>
      </trkpt>
      <trkpt lat="43.00079" lon="0.31264">
        <ele>1150.4</ele>
        <time>2026-07-08T08:27:41Z</time>
      </trkpt>
      <trkpt lat="43.00079" lon="0.31265">
        <ele>1151.4</ele>
        <time>2026-07-08T08:27:41Z</time>
      </trkpt>
      <trkpt lat="43.00078" lon="0.31266">
        <ele>1151.4</ele>
        <time>2026-07-08T08:27:42Z</time>
      </trkpt>
      <trkpt lat="43.00078" lon="0.31267">
        <ele>1151.4</ele>
        <time>2026-07-08T08:27:42Z</time>
      </trkpt>
      <trkpt lat="43.00078" lon="0.31268">
        <ele>1151.4</ele>
        <time>2026-07-08T08:27:43Z</time>
      </trkpt>
      <trkpt lat="43.00077" lon="0.31268">
        <ele>1151.4</ele>
        <time>2026-07-08T08:27:43Z</time>
      </trkpt>
      <trkpt lat="43.00077" lon="0.31269">
        <ele>1151.4</ele>
        <time>2026-07-08T08:27:44Z</time>
      </trkpt>
      <trkpt lat="43.00077" lon="0.3127">
        <ele>1151.4</ele>
        <time>2026-07-08T08:27:45Z</time>
      </trkpt>
      <trkpt lat="43.00077" lon="0.31271">
        <ele>1151.4</ele>
        <time>2026-07-08T08:27:45Z</time>
      </trkpt>
      <trkpt lat="43.00076" lon="0.31272">
        <ele>1151.4</ele>
        <time>2026-07-08T08:27:46Z</time>
      </trkpt>
      <trkpt lat="43.00076" lon="0.31272">
        <ele>1151.4</ele>
        <time>2026-07-08T08:27:47Z</time>
      </trkpt>
      <trkpt lat="43.00076" lon="0.31273">
        <ele>1151.4</ele>
        <time>2026-07-08T08:27:47Z</time>
      </trkpt>
      <trkpt lat="43.00075" lon="0.31274">
        <ele>1151.4</ele>
        <time>2026-07-08T08:27:48Z</time>
      </trkpt>
      <trkpt lat="43.00075" lon="0.31275">
        <ele>1151.4</ele>
        <time>2026-07-08T08:27:48Z</time>
      </trkpt>
      <trkpt lat="43.00075" lon="0.31276">
        <ele>1151.4</ele>
        <time>2026-07-08T08:27:49Z</time>
      </trkpt>
      <trkpt lat="43.00074" lon="0.31277">
        <ele>1151.4</ele>
        <time>2026-07-08T08:27:50Z</time>
      </trkpt>
      <trkpt lat="43.00074" lon="0.31278">
        <ele>1151.4</ele>
        <time>2026-07-08T08:27:50Z</time>
      </trkpt>
      <trkpt lat="43.00074" lon="0.31278">
        <ele>1151.4</ele>
        <time>2026-07-08T08:27:51Z</time>
      </trkpt>
      <trkpt lat="43.00074" lon="0.31279">
        <ele>1152.4</ele>
        <time>2026-07-08T08:27:51Z</time>
      </trkpt>
      <trkpt lat="43.00073" lon="0.3128">
        <ele>1152.4</ele>
        <time>2026-07-08T08:27:52Z</time>
      </trkpt>
      <trkpt lat="43.00073" lon="0.3128">
        <ele>1152.4</ele>
        <time>2026-07-08T08:27:53Z</time>
      </trkpt>
      <trkpt lat="43.00073" lon="0.31281">
        <ele>1152.4</ele>
        <time>2026-07-08T08:27:53Z</time>
      </trkpt>
      <trkpt lat="43.00072" lon="0.31282">
        <ele>1152.4</ele>
        <time>2026-07-08T08:27:54Z</time>
      </trkpt>
      <trkpt lat="43.00072" lon="0.31283">
        <ele>1153.4</ele>
        <time>2026-07-08T08:27:54Z</time>
      </trkpt>
      <trkpt lat="43.00072" lon="0.31283">
        <ele>1153.4</ele>
        <time>2026-07-08T08:27:55Z</time>
      </trkpt>
      <trkpt lat="43.00071" lon="0.31284">
        <ele>1153.4</ele>
        <time>2026-07-08T08:27:56Z</time>
      </trkpt>
      <trkpt lat="43.00071" lon="0.31284">
        <ele>1154.4</ele>
        <time>2026-07-08T08:27:56Z</time>
      </trkpt>
      <trkpt lat="43.0007" lon="0.31285">
        <ele>1154.4</ele>
        <time>2026-07-08T08:27:57Z</time>
      </trkpt>
      <trkpt lat="43.0007" lon="0.31286">
        <ele>1154.4</ele>
        <time>2026-07-08T08:27:57Z</time>
      </trkpt>
      <trkpt lat="43.00069" lon="0.31286">
        <ele>1154.4</ele>
        <time>2026-07-08T08:27:58Z</time>
      </trkpt>
      <trkpt lat="43.00069" lon="0.31287">
        <ele>1154.4</ele>
        <time>2026-07-08T08:27:59Z</time>
      </trkpt>
      <trkpt lat="43.00068" lon="0.31288">
        <ele>1155.4</ele>
        <time>2026-07-08T08:27:59Z</time>
      </trkpt>
      <trkpt lat="43.00068" lon="0.31288">
        <ele>1155.4</ele>
        <time>2026-07-08T08:28:00Z</time>
      </trkpt>
      <trkpt lat="43.00067" lon="0.31289">
        <ele>1154.4</ele>
        <time>2026-07-08T08:28:01Z</time>
      </trkpt>
      <trkpt lat="43.00067" lon="0.3129">
        <ele>1154.4</ele>
        <time>2026-07-08T08:28:01Z</time>
      </trkpt>
      <trkpt lat="43.00067" lon="0.3129">
        <ele>1154.4</ele>
        <time>2026-07-08T08:28:02Z</time>
      </trkpt>
      <trkpt lat="43.00066" lon="0.31291">
        <ele>1155.4</ele>
        <time>2026-07-08T08:28:02Z</time>
      </trkpt>
      <trkpt lat="43.00066" lon="0.31291">
        <ele>1155.4</ele>
        <time>2026-07-08T08:28:03Z</time>
      </trkpt>
      <trkpt lat="43.00066" lon="0.31292">
        <ele>1155.4</ele>
        <time>2026-07-08T08:28:04Z</time>
      </trkpt>
      <trkpt lat="43.00066" lon="0.31293">
        <ele>1155.4</ele>
        <time>2026-07-08T08:28:04Z</time>
      </trkpt>
      <trkpt lat="43.00065" lon="0.31294">
        <ele>1155.4</ele>
        <time>2026-07-08T08:28:05Z</time>
      </trkpt>
      <trkpt lat="43.00065" lon="0.31295">
        <ele>1156.4</ele>
        <time>2026-07-08T08:28:05Z</time>
      </trkpt>
      <trkpt lat="43.00065" lon="0.31295">
        <ele>1156.4</ele>
        <time>2026-07-08T08:28:06Z</time>
      </trkpt>
      <trkpt lat="43.00065" lon="0.31296">
        <ele>1156.4</ele>
        <time>2026-07-08T08:28:06Z</time>
      </trkpt>
      <trkpt lat="43.00065" lon="0.31297">
        <ele>1156.4</ele>
        <time>2026-07-08T08:28:07Z</time>
      </trkpt>
      <trkpt lat="43.00064" lon="0.31298">
        <ele>1156.4</ele>
        <time>2026-07-08T08:28:08Z</time>
      </trkpt>
      <trkpt lat="43.00064" lon="0.31299">
        <ele>1156.4</ele>
        <time>2026-07-08T08:28:08Z</time>
      </trkpt>
      <trkpt lat="43.00064" lon="0.313">
        <ele>1156.4</ele>
        <time>2026-07-08T08:28:09Z</time>
      </trkpt>
      <trkpt lat="43.00063" lon="0.313">
        <ele>1157.4</ele>
        <time>2026-07-08T08:28:10Z</time>
      </trkpt>
      <trkpt lat="43.00063" lon="0.31301">
        <ele>1157.4</ele>
        <time>2026-07-08T08:28:10Z</time>
      </trkpt>
      <trkpt lat="43.00063" lon="0.31302">
        <ele>1157.4</ele>
        <time>2026-07-08T08:28:11Z</time>
      </trkpt>
      <trkpt lat="43.00062" lon="0.31302">
        <ele>1157.4</ele>
        <time>2026-07-08T08:28:11Z</time>
      </trkpt>
      <trkpt lat="43.00062" lon="0.31302">
        <ele>1158.4</ele>
        <time>2026-07-08T08:28:12Z</time>
      </trkpt>
      <trkpt lat="43.00061" lon="0.31302">
        <ele>1158.4</ele>
        <time>2026-07-08T08:28:13Z</time>
      </trkpt>
      <trkpt lat="43.0006" lon="0.31302">
        <ele>1158.4</ele>
        <time>2026-07-08T08:28:13Z</time>
      </trkpt>
      <trkpt lat="43.0006" lon="0.31302">
        <ele>1158.4</ele>
        <time>2026-07-08T08:28:14Z</time>
      </trkpt>
      <trkpt lat="43.00059" lon="0.31301">
        <ele>1158.4</ele>
        <time>2026-07-08T08:28:15Z</time>
      </trkpt>
      <trkpt lat="43.00058" lon="0.31301">
        <ele>1158.4</ele>
        <time>2026-07-08T08:28:15Z</time>
      </trkpt>
      <trkpt lat="43.00058" lon="0.313">
        <ele>1158.4</ele>
        <time>2026-07-08T08:28:16Z</time>
      </trkpt>
      <trkpt lat="43.00057" lon="0.313">
        <ele>1158.4</ele>
        <time>2026-07-08T08:28:17Z</time>
      </trkpt>
      <trkpt lat="43.00057" lon="0.31299">
        <ele>1158.4</ele>
        <time>2026-07-08T08:28:17Z</time>
      </trkpt>
      <trkpt lat="43.00056" lon="0.31299">
        <ele>1159.4</ele>
        <time>2026-07-08T08:28:18Z</time>
      </trkpt>
      <trkpt lat="43.00055" lon="0.31299">
        <ele>1159.4</ele>
        <time>2026-07-08T08:28:19Z</time>
      </trkpt>
      <trkpt lat="43.00055" lon="0.31299">
        <ele>1159.4</ele>
        <time>2026-07-08T08:28:19Z</time>
      </trkpt>
      <trkpt lat="43.00054" lon="0.31298">
        <ele>1159.4</ele>
        <time>2026-07-08T08:28:20Z</time>
      </trkpt>
      <trkpt lat="43.00054" lon="0.31298">
        <ele>1159.4</ele>
        <time>2026-07-08T08:28:21Z</time>
      </trkpt>
      <trkpt lat="43.00053" lon="0.31299">
        <ele>1159.4</ele>
        <time>2026-07-08T08:28:21Z</time>
      </trkpt>
      <trkpt lat="43.00052" lon="0.31298">
        <ele>1159.4</ele>
        <time>2026-07-08T08:28:22Z</time>
      </trkpt>
      <trkpt lat="43.00052" lon="0.31298">
        <ele>1159.4</ele>
        <time>2026-07-08T08:28:23Z</time>
      </trkpt>
      <trkpt lat="43.00051" lon="0.31298">
        <ele>1160.4</ele>
        <time>2026-07-08T08:28:23Z</time>
      </trkpt>
      <trkpt lat="43.0005" lon="0.31298">
        <ele>1160.4</ele>
        <time>2026-07-08T08:28:24Z</time>
      </trkpt>
      <trkpt lat="43.0005" lon="0.31297">
        <ele>1160.4</ele>
        <time>2026-07-08T08:28:25Z</time>
      </trkpt>
      <trkpt lat="43.00049" lon="0.31297">
        <ele>1160.4</ele>
        <time>2026-07-08T08:28:25Z</time>
      </trkpt>
      <trkpt lat="43.00049" lon="0.31297">
        <ele>1160.4</ele>
        <time>2026-07-08T08:28:26Z</time>
      </trkpt>
      <trkpt lat="43.00048" lon="0.31297">
        <ele>1160.4</ele>
        <time>2026-07-08T08:28:27Z</time>
      </trkpt>
      <trkpt lat="43.00048" lon="0.31297">
        <ele>1160.4</ele>
        <time>2026-07-08T08:28:27Z</time>
      </trkpt>
      <trkpt lat="43.00047" lon="0.31296">
        <ele>1160.4</ele>
        <time>2026-07-08T08:28:28Z</time>
      </trkpt>
      <trkpt lat="43.00047" lon="0.31296">
        <ele>1161.4</ele>
        <time>2026-07-08T08:28:28Z</time>
      </trkpt>
      <trkpt lat="43.00046" lon="0.31295">
        <ele>1161.4</ele>
        <time>2026-07-08T08:28:29Z</time>
      </trkpt>
      <trkpt lat="43.00045" lon="0.31295">
        <ele>1160.4</ele>
        <time>2026-07-08T08:28:30Z</time>
      </trkpt>
      <trkpt lat="43.00045" lon="0.31295">
        <ele>1160.4</ele>
        <time>2026-07-08T08:28:30Z</time>
      </trkpt>
      <trkpt lat="43.00044" lon="0.31294">
        <ele>1160.4</ele>
        <time>2026-07-08T08:28:31Z</time>
      </trkpt>
      <trkpt lat="43.00044" lon="0.31294">
        <ele>1160.4</ele>
        <time>2026-07-08T08:28:32Z</time>
      </trkpt>
      <trkpt lat="43.00044" lon="0.31293">
        <ele>1161.4</ele>
        <time>2026-07-08T08:28:33Z</time>
      </trkpt>
      <trkpt lat="43.00044" lon="0.31293">
        <ele>1161.4</ele>
        <time>2026-07-08T08:28:34Z</time>
      </trkpt>
      <trkpt lat="43.00044" lon="0.31293">
        <ele>1162.4</ele>
        <time>2026-07-08T08:28:35Z</time>
      </trkpt>
      <trkpt lat="43.00045" lon="0.31294">
        <ele>1162.4</ele>
        <time>2026-07-08T08:28:36Z</time>
      </trkpt>
      <trkpt lat="43.00045" lon="0.31294">
        <ele>1162.4</ele>
        <time>2026-07-08T08:28:37Z</time>
      </trkpt>
      <trkpt lat="43.00045" lon="0.31295">
        <ele>1162.4</ele>
        <time>2026-07-08T08:28:38Z</time>
      </trkpt>
      <trkpt lat="43.00045" lon="0.31295">
        <ele>1162.4</ele>
        <time>2026-07-08T08:28:39Z</time>
      </trkpt>
      <trkpt lat="43.00045" lon="0.31295">
        <ele>1162.4</ele>
        <time>2026-07-08T08:28:39Z</time>
      </trkpt>
      <trkpt lat="43.00045" lon="0.31295">
        <ele>1163.4</ele>
        <time>2026-07-08T08:28:41Z</time>
      </trkpt>
      <trkpt lat="43.00045" lon="0.31295">
        <ele>1163.4</ele>
        <time>2026-07-08T08:28:42Z</time>
      </trkpt>
      <trkpt lat="43.00045" lon="0.31296">
        <ele>1162.4</ele>
        <time>2026-07-08T08:28:43Z</time>
      </trkpt>
      <trkpt lat="43.00045" lon="0.31296">
        <ele>1161.4</ele>
        <time>2026-07-08T08:28:44Z</time>
      </trkpt>
      <trkpt lat="43.00045" lon="0.31297">
        <ele>1162.4</ele>
        <time>2026-07-08T08:28:44Z</time>
      </trkpt>
      <trkpt lat="43.00045" lon="0.31297">
        <ele>1165.4</ele>
        <time>2026-07-08T08:28:45Z</time>
      </trkpt>
      <trkpt lat="43.00045" lon="0.31297">
        <ele>1165.4</ele>
        <time>2026-07-08T08:28:46Z</time>
      </trkpt>
      <trkpt lat="43.00045" lon="0.31297">
        <ele>1165.4</ele>
        <time>2026-07-08T08:28:47Z</time>
      </trkpt>
      <trkpt lat="43.00045" lon="0.31296">
        <ele>1165.4</ele>
        <time>2026-07-08T08:28:48Z</time>
      </trkpt>
      <trkpt lat="43.00045" lon="0.31296">
        <ele>1165.4</ele>
        <time>2026-07-08T08:28:49Z</time>
      </trkpt>
      <trkpt lat="43.00045" lon="0.31296">
        <ele>1165.4</ele>
        <time>2026-07-08T08:28:50Z</time>
      </trkpt>
      <trkpt lat="43.00045" lon="0.31296">
        <ele>1165.4</ele>
        <time>2026-07-08T08:28:51Z</time>
      </trkpt>
      <trkpt lat="43.00045" lon="0.31296">
        <ele>1165.4</ele>
        <time>2026-07-08T08:28:52Z</time>
      </trkpt>
      <trkpt lat="43.00045" lon="0.31296">
        <ele>1165.4</ele>
        <time>2026-07-08T08:28:53Z</time>
      </trkpt>
      <trkpt lat="43.00045" lon="0.31296">
        <ele>1165.4</ele>
        <time>2026-07-08T08:28:54Z</time>
      </trkpt>
      <trkpt lat="43.00045" lon="0.31296">
        <ele>1165.4</ele>
        <time>2026-07-08T08:28:55Z</time>
      </trkpt>
      <trkpt lat="43.00045" lon="0.31295">
        <ele>1165.4</ele>
        <time>2026-07-08T08:28:56Z</time>
      </trkpt>
      <trkpt lat="43.00045" lon="0.31295">
        <ele>1165.4</ele>
        <time>2026-07-08T08:28:57Z</time>
      </trkpt>
      <trkpt lat="43.00045" lon="0.31295">
        <ele>1165.4</ele>
        <time>2026-07-08T08:28:58Z</time>
      </trkpt>
      <trkpt lat="43.00045" lon="0.31295">
        <ele>1165.4</ele>
        <time>2026-07-08T08:28:59Z</time>
      </trkpt>
      <trkpt lat="43.00045" lon="0.31295">
        <ele>1165.4</ele>
        <time>2026-07-08T08:29:00Z</time>
      </trkpt>
      <trkpt lat="43.00045" lon="0.31295">
        <ele>1165.4</ele>
        <time>2026-07-08T08:29:01Z</time>
      </trkpt>
      <trkpt lat="43.00045" lon="0.31295">
        <ele>1165.4</ele>
        <time>2026-07-08T08:29:02Z</time>
      </trkpt>
      <trkpt lat="43.00045" lon="0.31295">
        <ele>1165.4</ele>
        <time>2026-07-08T08:29:03Z</time>
      </trkpt>
      <trkpt lat="43.00044" lon="0.31295">
        <ele>1163.4</ele>
        <time>2026-07-08T08:29:04Z</time>
      </trkpt>
      <trkpt lat="43.00044" lon="0.31295">
        <ele>1163.4</ele>
        <time>2026-07-08T08:29:05Z</time>
      </trkpt>
      <trkpt lat="43.00044" lon="0.31295">
        <ele>1163.4</ele>
        <time>2026-07-08T08:29:05Z</time>
      </trkpt>
      <trkpt lat="43.00044" lon="0.31295">
        <ele>1163.4</ele>
        <time>2026-07-08T08:29:06Z</time>
      </trkpt>
      <trkpt lat="43.00044" lon="0.31295">
        <ele>1164.4</ele>
        <time>2026-07-08T08:29:07Z</time>
      </trkpt>
      <trkpt lat="43.00044" lon="0.31295">
        <ele>1164.4</ele>
        <time>2026-07-08T08:29:08Z</time>
      </trkpt>
      <trkpt lat="43.00044" lon="0.31295">
        <ele>1164.4</ele>
        <time>2026-07-08T08:29:09Z</time>
      </trkpt>
      <trkpt lat="43.00044" lon="0.31295">
        <ele>1164.4</ele>
        <time>2026-07-08T08:29:10Z</time>
      </trkpt>
      <trkpt lat="43.00044" lon="0.31295">
        <ele>1164.4</ele>
        <time>2026-07-08T08:29:11Z</time>
      </trkpt>
      <trkpt lat="43.00044" lon="0.31295">
        <ele>1164.4</ele>
        <time>2026-07-08T08:29:12Z</time>
      </trkpt>
      <trkpt lat="43.00044" lon="0.31294">
        <ele>1164.4</ele>
        <time>2026-07-08T08:29:12Z</time>
      </trkpt>
      <trkpt lat="43.00044" lon="0.31294">
        <ele>1166.4</ele>
        <time>2026-07-08T08:29:13Z</time>
      </trkpt>
      <trkpt lat="43.00044" lon="0.31294">
        <ele>1166.4</ele>
        <time>2026-07-08T08:29:14Z</time>
      </trkpt>
      <trkpt lat="43.00044" lon="0.31294">
        <ele>1166.4</ele>
        <time>2026-07-08T08:29:14Z</time>
      </trkpt>
      <trkpt lat="43.00044" lon="0.31294">
        <ele>1166.4</ele>
        <time>2026-07-08T08:29:15Z</time>
      </trkpt>
      <trkpt lat="43.00043" lon="0.31293">
        <ele>1166.4</ele>
        <time>2026-07-08T08:29:16Z</time>
      </trkpt>
      <trkpt lat="43.00043" lon="0.31293">
        <ele>1166.4</ele>
        <time>2026-07-08T08:29:16Z</time>
      </trkpt>
      <trkpt lat="43.00041" lon="0.31292">
        <ele>1166.4</ele>
        <time>2026-07-08T08:29:17Z</time>
      </trkpt>
      <trkpt lat="43.0004" lon="0.31291">
        <ele>1167.4</ele>
        <time>2026-07-08T08:29:17Z</time>
      </trkpt>
      <trkpt lat="43.00039" lon="0.3129">
        <ele>1167.4</ele>
        <time>2026-07-08T08:29:18Z</time>
      </trkpt>
      <trkpt lat="43.00038" lon="0.31289">
        <ele>1167.4</ele>
        <time>2026-07-08T08:29:18Z</time>
      </trkpt>
      <trkpt lat="43.00037" lon="0.31289">
        <ele>1167.4</ele>
        <time>2026-07-08T08:29:19Z</time>
      </trkpt>
      <trkpt lat="43.00036" lon="0.31288">
        <ele>1166.4</ele>
        <time>2026-07-08T08:29:20Z</time>
      </trkpt>
      <trkpt lat="43.00036" lon="0.31288">
        <ele>1166.4</ele>
        <time>2026-07-08T08:29:20Z</time>
      </trkpt>
      <trkpt lat="43.00035" lon="0.31287">
        <ele>1166.4</ele>
        <time>2026-07-08T08:29:21Z</time>
      </trkpt>
      <trkpt lat="43.00034" lon="0.31287">
        <ele>1165.4</ele>
        <time>2026-07-08T08:29:21Z</time>
      </trkpt>
      <trkpt lat="43.00034" lon="0.31287">
        <ele>1165.4</ele>
        <time>2026-07-08T08:29:22Z</time>
      </trkpt>
      <trkpt lat="43.00033" lon="0.31286">
        <ele>1165.4</ele>
        <time>2026-07-08T08:29:23Z</time>
      </trkpt>
      <trkpt lat="43.00033" lon="0.31285">
        <ele>1165.4</ele>
        <time>2026-07-08T08:29:23Z</time>
      </trkpt>
      <trkpt lat="43.00032" lon="0.31285">
        <ele>1165.4</ele>
        <time>2026-07-08T08:29:24Z</time>
      </trkpt>
      <trkpt lat="43.00032" lon="0.31284">
        <ele>1165.4</ele>
        <time>2026-07-08T08:29:24Z</time>
      </trkpt>
      <trkpt lat="43.00031" lon="0.31284">
        <ele>1165.4</ele>
        <time>2026-07-08T08:29:25Z</time>
      </trkpt>
      <trkpt lat="43.0003" lon="0.31283">
        <ele>1164.4</ele>
        <time>2026-07-08T08:29:25Z</time>
      </trkpt>
      <trkpt lat="43.0003" lon="0.31283">
        <ele>1164.4</ele>
        <time>2026-07-08T08:29:26Z</time>
      </trkpt>
      <trkpt lat="43.00029" lon="0.31282">
        <ele>1164.4</ele>
        <time>2026-07-08T08:29:27Z</time>
      </trkpt>
      <trkpt lat="43.00029" lon="0.31281">
        <ele>1163.4</ele>
        <time>2026-07-08T08:29:27Z</time>
      </trkpt>
      <trkpt lat="43.00028" lon="0.3128">
        <ele>1163.4</ele>
        <time>2026-07-08T08:29:28Z</time>
      </trkpt>
      <trkpt lat="43.00028" lon="0.3128">
        <ele>1164.4</ele>
        <time>2026-07-08T08:29:28Z</time>
      </trkpt>
      <trkpt lat="43.00027" lon="0.31279">
        <ele>1164.4</ele>
        <time>2026-07-08T08:29:29Z</time>
      </trkpt>
      <trkpt lat="43.00027" lon="0.31278">
        <ele>1163.4</ele>
        <time>2026-07-08T08:29:29Z</time>
      </trkpt>
      <trkpt lat="43.00026" lon="0.31278">
        <ele>1163.4</ele>
        <time>2026-07-08T08:29:30Z</time>
      </trkpt>
      <trkpt lat="43.00026" lon="0.31277">
        <ele>1163.4</ele>
        <time>2026-07-08T08:29:30Z</time>
      </trkpt>
      <trkpt lat="43.00025" lon="0.31276">
        <ele>1163.4</ele>
        <time>2026-07-08T08:29:31Z</time>
      </trkpt>
      <trkpt lat="43.00025" lon="0.31276">
        <ele>1163.4</ele>
        <time>2026-07-08T08:29:31Z</time>
      </trkpt>
      <trkpt lat="43.00024" lon="0.31275">
        <ele>1163.4</ele>
        <time>2026-07-08T08:29:32Z</time>
      </trkpt>
      <trkpt lat="43.00023" lon="0.31275">
        <ele>1163.4</ele>
        <time>2026-07-08T08:29:33Z</time>
      </trkpt>
      <trkpt lat="43.00023" lon="0.31275">
        <ele>1163.4</ele>
        <time>2026-07-08T08:29:33Z</time>
      </trkpt>
      <trkpt lat="43.00022" lon="0.31274">
        <ele>1163.4</ele>
        <time>2026-07-08T08:29:34Z</time>
      </trkpt>
      <trkpt lat="43.00022" lon="0.31274">
        <ele>1163.4</ele>
        <time>2026-07-08T08:29:34Z</time>
      </trkpt>
      <trkpt lat="43.00021" lon="0.31274">
        <ele>1163.4</ele>
        <time>2026-07-08T08:29:35Z</time>
      </trkpt>
      <trkpt lat="43.0002" lon="0.31274">
        <ele>1163.4</ele>
        <time>2026-07-08T08:29:35Z</time>
      </trkpt>
      <trkpt lat="43.0002" lon="0.31274">
        <ele>1163.4</ele>
        <time>2026-07-08T08:29:36Z</time>
      </trkpt>
      <trkpt lat="43.00019" lon="0.31273">
        <ele>1163.4</ele>
        <time>2026-07-08T08:29:37Z</time>
      </trkpt>
      <trkpt lat="43.00019" lon="0.31273">
        <ele>1164.4</ele>
        <time>2026-07-08T08:29:37Z</time>
      </trkpt>
      <trkpt lat="43.00018" lon="0.31273">
        <ele>1164.4</ele>
        <time>2026-07-08T08:29:38Z</time>
      </trkpt>
      <trkpt lat="43.00017" lon="0.31272">
        <ele>1164.4</ele>
        <time>2026-07-08T08:29:39Z</time>
      </trkpt>
      <trkpt lat="43.00016" lon="0.3127">
        <ele>1164.4</ele>
        <time>2026-07-08T08:29:40Z</time>
      </trkpt>
      <trkpt lat="43.00016" lon="0.3127">
        <ele>1163.4</ele>
        <time>2026-07-08T08:29:41Z</time>
      </trkpt>
      <trkpt lat="43.00015" lon="0.31269">
        <ele>1163.4</ele>
        <time>2026-07-08T08:29:41Z</time>
      </trkpt>
      <trkpt lat="43.00015" lon="0.31268">
        <ele>1163.4</ele>
        <time>2026-07-08T08:29:42Z</time>
      </trkpt>
      <trkpt lat="43.00015" lon="0.31267">
        <ele>1164.4</ele>
        <time>2026-07-08T08:29:42Z</time>
      </trkpt>
      <trkpt lat="43.00014" lon="0.31266">
        <ele>1164.4</ele>
        <time>2026-07-08T08:29:43Z</time>
      </trkpt>
      <trkpt lat="43.00014" lon="0.31266">
        <ele>1164.4</ele>
        <time>2026-07-08T08:29:43Z</time>
      </trkpt>
      <trkpt lat="43.00013" lon="0.31265">
        <ele>1165.4</ele>
        <time>2026-07-08T08:29:44Z</time>
      </trkpt>
      <trkpt lat="43.00013" lon="0.31264">
        <ele>1165.4</ele>
        <time>2026-07-08T08:29:45Z</time>
      </trkpt>
      <trkpt lat="43.00013" lon="0.31263">
        <ele>1165.4</ele>
        <time>2026-07-08T08:29:45Z</time>
      </trkpt>
      <trkpt lat="43.00012" lon="0.31262">
        <ele>1165.4</ele>
        <time>2026-07-08T08:29:46Z</time>
      </trkpt>
      <trkpt lat="43.00012" lon="0.31261">
        <ele>1165.4</ele>
        <time>2026-07-08T08:29:47Z</time>
      </trkpt>
      <trkpt lat="43.00012" lon="0.3126">
        <ele>1165.4</ele>
        <time>2026-07-08T08:29:47Z</time>
      </trkpt>
      <trkpt lat="43.00012" lon="0.3126">
        <ele>1165.4</ele>
        <time>2026-07-08T08:29:48Z</time>
      </trkpt>
      <trkpt lat="43.00012" lon="0.31259">
        <ele>1165.4</ele>
        <time>2026-07-08T08:29:48Z</time>
      </trkpt>
      <trkpt lat="43.00011" lon="0.31258">
        <ele>1165.4</ele>
        <time>2026-07-08T08:29:49Z</time>
      </trkpt>
      <trkpt lat="43.00011" lon="0.31257">
        <ele>1165.4</ele>
        <time>2026-07-08T08:29:50Z</time>
      </trkpt>
      <trkpt lat="43.00011" lon="0.31257">
        <ele>1166.4</ele>
        <time>2026-07-08T08:29:50Z</time>
      </trkpt>
      <trkpt lat="43.00011" lon="0.31256">
        <ele>1166.4</ele>
        <time>2026-07-08T08:29:51Z</time>
      </trkpt>
      <trkpt lat="43.0001" lon="0.31255">
        <ele>1166.4</ele>
        <time>2026-07-08T08:29:51Z</time>
      </trkpt>
      <trkpt lat="43.0001" lon="0.31254">
        <ele>1166.4</ele>
        <time>2026-07-08T08:29:52Z</time>
      </trkpt>
      <trkpt lat="43.0001" lon="0.31253">
        <ele>1166.4</ele>
        <time>2026-07-08T08:29:53Z</time>
      </trkpt>
      <trkpt lat="43.00009" lon="0.31252">
        <ele>1166.4</ele>
        <time>2026-07-08T08:29:54Z</time>
      </trkpt>
      <trkpt lat="43.00009" lon="0.31252">
        <ele>1165.4</ele>
        <time>2026-07-08T08:29:54Z</time>
      </trkpt>
      <trkpt lat="43.00009" lon="0.31251">
        <ele>1165.4</ele>
        <time>2026-07-08T08:29:55Z</time>
      </trkpt>
      <trkpt lat="43.00009" lon="0.31251">
        <ele>1165.4</ele>
        <time>2026-07-08T08:29:55Z</time>
      </trkpt>
      <trkpt lat="43.00008" lon="0.3125">
        <ele>1165.4</ele>
        <time>2026-07-08T08:29:56Z</time>
      </trkpt>
      <trkpt lat="43.00008" lon="0.31249">
        <ele>1165.4</ele>
        <time>2026-07-08T08:29:56Z</time>
      </trkpt>
      <trkpt lat="43.00008" lon="0.31249">
        <ele>1165.4</ele>
        <time>2026-07-08T08:29:57Z</time>
      </trkpt>
      <trkpt lat="43.00007" lon="0.31248">
        <ele>1165.4</ele>
        <time>2026-07-08T08:29:58Z</time>
      </trkpt>
      <trkpt lat="43.00007" lon="0.31248">
        <ele>1165.4</ele>
        <time>2026-07-08T08:29:58Z</time>
      </trkpt>
      <trkpt lat="43.00006" lon="0.31247">
        <ele>1165.4</ele>
        <time>2026-07-08T08:29:59Z</time>
      </trkpt>
      <trkpt lat="43.00006" lon="0.31247">
        <ele>1166.4</ele>
        <time>2026-07-08T08:29:59Z</time>
      </trkpt>
      <trkpt lat="43.00006" lon="0.31246">
        <ele>1166.4</ele>
        <time>2026-07-08T08:30:00Z</time>
      </trkpt>
      <trkpt lat="43.00005" lon="0.31246">
        <ele>1166.4</ele>
        <time>2026-07-08T08:30:01Z</time>
      </trkpt>
      <trkpt lat="43.00005" lon="0.31245">
        <ele>1165.4</ele>
        <time>2026-07-08T08:30:01Z</time>
      </trkpt>
      <trkpt lat="43.00004" lon="0.31245">
        <ele>1165.4</ele>
        <time>2026-07-08T08:30:02Z</time>
      </trkpt>
      <trkpt lat="43.00003" lon="0.31244">
        <ele>1166.4</ele>
        <time>2026-07-08T08:30:03Z</time>
      </trkpt>
      <trkpt lat="43.00002" lon="0.31244">
        <ele>1165.4</ele>
        <time>2026-07-08T08:30:04Z</time>
      </trkpt>
      <trkpt lat="43.00001" lon="0.31243">
        <ele>1165.4</ele>
        <time>2026-07-08T08:30:04Z</time>
      </trkpt>
      <trkpt lat="43.00001" lon="0.31243">
        <ele>1166.4</ele>
        <time>2026-07-08T08:30:05Z</time>
      </trkpt>
      <trkpt lat="43" lon="0.31242">
        <ele>1166.4</ele>
        <time>2026-07-08T08:30:06Z</time>
      </trkpt>
      <trkpt lat="43" lon="0.31242">
        <ele>1166.4</ele>
        <time>2026-07-08T08:30:06Z</time>
      </trkpt>
      <trkpt lat="42.99999" lon="0.31241">
        <ele>1166.4</ele>
        <time>2026-07-08T08:30:07Z</time>
      </trkpt>
      <trkpt lat="42.99999" lon="0.31241">
        <ele>1167.4</ele>
        <time>2026-07-08T08:30:08Z</time>
      </trkpt>
      <trkpt lat="42.99998" lon="0.31241">
        <ele>1167.4</ele>
        <time>2026-07-08T08:30:08Z</time>
      </trkpt>
      <trkpt lat="42.99997" lon="0.3124">
        <ele>1167.4</ele>
        <time>2026-07-08T08:30:09Z</time>
      </trkpt>
      <trkpt lat="42.99997" lon="0.3124">
        <ele>1167.4</ele>
        <time>2026-07-08T08:30:09Z</time>
      </trkpt>
      <trkpt lat="42.99996" lon="0.31239">
        <ele>1167.4</ele>
        <time>2026-07-08T08:30:10Z</time>
      </trkpt>
      <trkpt lat="42.99996" lon="0.31239">
        <ele>1167.4</ele>
        <time>2026-07-08T08:30:11Z</time>
      </trkpt>
      <trkpt lat="42.99995" lon="0.31238">
        <ele>1168.4</ele>
        <time>2026-07-08T08:30:11Z</time>
      </trkpt>
      <trkpt lat="42.99995" lon="0.31238">
        <ele>1168.4</ele>
        <time>2026-07-08T08:30:12Z</time>
      </trkpt>
      <trkpt lat="42.99994" lon="0.31238">
        <ele>1168.4</ele>
        <time>2026-07-08T08:30:12Z</time>
      </trkpt>
      <trkpt lat="42.99994" lon="0.31237">
        <ele>1168.4</ele>
        <time>2026-07-08T08:30:13Z</time>
      </trkpt>
      <trkpt lat="42.99993" lon="0.31237">
        <ele>1167.4</ele>
        <time>2026-07-08T08:30:14Z</time>
      </trkpt>
      <trkpt lat="42.99992" lon="0.31237">
        <ele>1168.4</ele>
        <time>2026-07-08T08:30:14Z</time>
      </trkpt>
      <trkpt lat="42.99992" lon="0.31236">
        <ele>1168.4</ele>
        <time>2026-07-08T08:30:15Z</time>
      </trkpt>
      <trkpt lat="42.99991" lon="0.31236">
        <ele>1168.4</ele>
        <time>2026-07-08T08:30:15Z</time>
      </trkpt>
      <trkpt lat="42.99991" lon="0.31236">
        <ele>1169.4</ele>
        <time>2026-07-08T08:30:16Z</time>
      </trkpt>
      <trkpt lat="42.9999" lon="0.31236">
        <ele>1169.4</ele>
        <time>2026-07-08T08:30:17Z</time>
      </trkpt>
      <trkpt lat="42.99989" lon="0.31235">
        <ele>1169.4</ele>
        <time>2026-07-08T08:30:17Z</time>
      </trkpt>
      <trkpt lat="42.99989" lon="0.31235">
        <ele>1169.4</ele>
        <time>2026-07-08T08:30:18Z</time>
      </trkpt>
      <trkpt lat="42.99988" lon="0.31234">
        <ele>1169.4</ele>
        <time>2026-07-08T08:30:18Z</time>
      </trkpt>
      <trkpt lat="42.99988" lon="0.31234">
        <ele>1169.4</ele>
        <time>2026-07-08T08:30:19Z</time>
      </trkpt>
      <trkpt lat="42.99987" lon="0.31233">
        <ele>1169.4</ele>
        <time>2026-07-08T08:30:20Z</time>
      </trkpt>
      <trkpt lat="42.99987" lon="0.31233">
        <ele>1169.4</ele>
        <time>2026-07-08T08:30:20Z</time>
      </trkpt>
      <trkpt lat="42.99987" lon="0.31232">
        <ele>1169.4</ele>
        <time>2026-07-08T08:30:21Z</time>
      </trkpt>
      <trkpt lat="42.99986" lon="0.31232">
        <ele>1169.4</ele>
        <time>2026-07-08T08:30:22Z</time>
      </trkpt>
      <trkpt lat="42.99986" lon="0.31231">
        <ele>1169.4</ele>
        <time>2026-07-08T08:30:22Z</time>
      </trkpt>
      <trkpt lat="42.99985" lon="0.3123">
        <ele>1169.4</ele>
        <time>2026-07-08T08:30:23Z</time>
      </trkpt>
      <trkpt lat="42.99985" lon="0.3123">
        <ele>1168.4</ele>
        <time>2026-07-08T08:30:23Z</time>
      </trkpt>
      <trkpt lat="42.99984" lon="0.31229">
        <ele>1168.4</ele>
        <time>2026-07-08T08:30:24Z</time>
      </trkpt>
      <trkpt lat="42.99984" lon="0.31229">
        <ele>1169.4</ele>
        <time>2026-07-08T08:30:24Z</time>
      </trkpt>
      <trkpt lat="42.99983" lon="0.31228">
        <ele>1169.4</ele>
        <time>2026-07-08T08:30:25Z</time>
      </trkpt>
      <trkpt lat="42.99983" lon="0.31228">
        <ele>1169.4</ele>
        <time>2026-07-08T08:30:26Z</time>
      </trkpt>
      <trkpt lat="42.99982" lon="0.31227">
        <ele>1169.4</ele>
        <time>2026-07-08T08:30:26Z</time>
      </trkpt>
      <trkpt lat="42.99982" lon="0.31227">
        <ele>1169.4</ele>
        <time>2026-07-08T08:30:27Z</time>
      </trkpt>
      <trkpt lat="42.99982" lon="0.31226">
        <ele>1169.4</ele>
        <time>2026-07-08T08:30:27Z</time>
      </trkpt>
      <trkpt lat="42.99982" lon="0.31226">
        <ele>1169.4</ele>
        <time>2026-07-08T08:30:28Z</time>
      </trkpt>
      <trkpt lat="42.99981" lon="0.31225">
        <ele>1168.4</ele>
        <time>2026-07-08T08:30:29Z</time>
      </trkpt>
      <trkpt lat="42.99981" lon="0.31225">
        <ele>1168.4</ele>
        <time>2026-07-08T08:30:29Z</time>
      </trkpt>
      <trkpt lat="42.99981" lon="0.31224">
        <ele>1168.4</ele>
        <time>2026-07-08T08:30:30Z</time>
      </trkpt>
      <trkpt lat="42.9998" lon="0.31223">
        <ele>1168.4</ele>
        <time>2026-07-08T08:30:30Z</time>
      </trkpt>
      <trkpt lat="42.9998" lon="0.31223">
        <ele>1168.4</ele>
        <time>2026-07-08T08:30:31Z</time>
      </trkpt>
      <trkpt lat="42.99979" lon="0.31222">
        <ele>1169.4</ele>
        <time>2026-07-08T08:30:32Z</time>
      </trkpt>
      <trkpt lat="42.99979" lon="0.31222">
        <ele>1169.4</ele>
        <time>2026-07-08T08:30:32Z</time>
      </trkpt>
      <trkpt lat="42.99979" lon="0.31221">
        <ele>1169.4</ele>
        <time>2026-07-08T08:30:33Z</time>
      </trkpt>
      <trkpt lat="42.99978" lon="0.31221">
        <ele>1169.4</ele>
        <time>2026-07-08T08:30:34Z</time>
      </trkpt>
      <trkpt lat="42.99978" lon="0.3122">
        <ele>1169.4</ele>
        <time>2026-07-08T08:30:34Z</time>
      </trkpt>
      <trkpt lat="42.99978" lon="0.3122">
        <ele>1169.4</ele>
        <time>2026-07-08T08:30:35Z</time>
      </trkpt>
      <trkpt lat="42.99977" lon="0.31219">
        <ele>1169.4</ele>
        <time>2026-07-08T08:30:35Z</time>
      </trkpt>
      <trkpt lat="42.99977" lon="0.31219">
        <ele>1169.4</ele>
        <time>2026-07-08T08:30:36Z</time>
      </trkpt>
      <trkpt lat="42.99976" lon="0.31218">
        <ele>1169.4</ele>
        <time>2026-07-08T08:30:37Z</time>
      </trkpt>
      <trkpt lat="42.99975" lon="0.31217">
        <ele>1169.4</ele>
        <time>2026-07-08T08:30:38Z</time>
      </trkpt>
      <trkpt lat="42.99975" lon="0.31217">
        <ele>1170.4</ele>
        <time>2026-07-08T08:30:39Z</time>
      </trkpt>
      <trkpt lat="42.99975" lon="0.31216">
        <ele>1170.4</ele>
        <time>2026-07-08T08:30:39Z</time>
      </trkpt>
      <trkpt lat="42.99974" lon="0.31215">
        <ele>1170.4</ele>
        <time>2026-07-08T08:30:40Z</time>
      </trkpt>
      <trkpt lat="42.99974" lon="0.31215">
        <ele>1170.4</ele>
        <time>2026-07-08T08:30:40Z</time>
      </trkpt>
      <trkpt lat="42.99973" lon="0.31214">
        <ele>1170.4</ele>
        <time>2026-07-08T08:30:41Z</time>
      </trkpt>
      <trkpt lat="42.99973" lon="0.31214">
        <ele>1170.4</ele>
        <time>2026-07-08T08:30:42Z</time>
      </trkpt>
      <trkpt lat="42.99972" lon="0.31214">
        <ele>1170.4</ele>
        <time>2026-07-08T08:30:42Z</time>
      </trkpt>
      <trkpt lat="42.99972" lon="0.31213">
        <ele>1170.4</ele>
        <time>2026-07-08T08:30:43Z</time>
      </trkpt>
      <trkpt lat="42.99971" lon="0.31213">
        <ele>1171.4</ele>
        <time>2026-07-08T08:30:44Z</time>
      </trkpt>
      <trkpt lat="42.99971" lon="0.31213">
        <ele>1171.4</ele>
        <time>2026-07-08T08:30:44Z</time>
      </trkpt>
      <trkpt lat="42.9997" lon="0.31212">
        <ele>1171.4</ele>
        <time>2026-07-08T08:30:45Z</time>
      </trkpt>
      <trkpt lat="42.9997" lon="0.31212">
        <ele>1171.4</ele>
        <time>2026-07-08T08:30:45Z</time>
      </trkpt>
      <trkpt lat="42.9997" lon="0.31211">
        <ele>1170.4</ele>
        <time>2026-07-08T08:30:46Z</time>
      </trkpt>
      <trkpt lat="42.99969" lon="0.31211">
        <ele>1170.4</ele>
        <time>2026-07-08T08:30:47Z</time>
      </trkpt>
      <trkpt lat="42.99969" lon="0.3121">
        <ele>1171.4</ele>
        <time>2026-07-08T08:30:48Z</time>
      </trkpt>
      <trkpt lat="42.99969" lon="0.3121">
        <ele>1171.4</ele>
        <time>2026-07-08T08:30:48Z</time>
      </trkpt>
      <trkpt lat="42.99968" lon="0.31209">
        <ele>1171.4</ele>
        <time>2026-07-08T08:30:49Z</time>
      </trkpt>
      <trkpt lat="42.99968" lon="0.31208">
        <ele>1171.4</ele>
        <time>2026-07-08T08:30:50Z</time>
      </trkpt>
      <trkpt lat="42.99967" lon="0.31208">
        <ele>1171.4</ele>
        <time>2026-07-08T08:30:50Z</time>
      </trkpt>
      <trkpt lat="42.99967" lon="0.31207">
        <ele>1171.4</ele>
        <time>2026-07-08T08:30:51Z</time>
      </trkpt>
      <trkpt lat="42.99966" lon="0.31207">
        <ele>1171.4</ele>
        <time>2026-07-08T08:30:51Z</time>
      </trkpt>
      <trkpt lat="42.99966" lon="0.31206">
        <ele>1171.4</ele>
        <time>2026-07-08T08:30:52Z</time>
      </trkpt>
      <trkpt lat="42.99965" lon="0.31206">
        <ele>1171.4</ele>
        <time>2026-07-08T08:30:53Z</time>
      </trkpt>
      <trkpt lat="42.99965" lon="0.31205">
        <ele>1171.4</ele>
        <time>2026-07-08T08:30:53Z</time>
      </trkpt>
      <trkpt lat="42.99965" lon="0.31205">
        <ele>1171.4</ele>
        <time>2026-07-08T08:30:54Z</time>
      </trkpt>
      <trkpt lat="42.99964" lon="0.31204">
        <ele>1171.4</ele>
        <time>2026-07-08T08:30:54Z</time>
      </trkpt>
      <trkpt lat="42.99964" lon="0.31203">
        <ele>1171.4</ele>
        <time>2026-07-08T08:30:55Z</time>
      </trkpt>
      <trkpt lat="42.99964" lon="0.31203">
        <ele>1171.4</ele>
        <time>2026-07-08T08:30:55Z</time>
      </trkpt>
      <trkpt lat="42.99963" lon="0.31203">
        <ele>1171.4</ele>
        <time>2026-07-08T08:30:56Z</time>
      </trkpt>
      <trkpt lat="42.99963" lon="0.31202">
        <ele>1171.4</ele>
        <time>2026-07-08T08:30:57Z</time>
      </trkpt>
      <trkpt lat="42.99962" lon="0.31201">
        <ele>1171.4</ele>
        <time>2026-07-08T08:30:57Z</time>
      </trkpt>
      <trkpt lat="42.99962" lon="0.31201">
        <ele>1171.4</ele>
        <time>2026-07-08T08:30:58Z</time>
      </trkpt>
      <trkpt lat="42.99962" lon="0.312">
        <ele>1171.4</ele>
        <time>2026-07-08T08:30:59Z</time>
      </trkpt>
      <trkpt lat="42.99961" lon="0.31199">
        <ele>1171.4</ele>
        <time>2026-07-08T08:30:59Z</time>
      </trkpt>
      <trkpt lat="42.99961" lon="0.31198">
        <ele>1171.4</ele>
        <time>2026-07-08T08:31:00Z</time>
      </trkpt>
      <trkpt lat="42.99961" lon="0.31198">
        <ele>1171.4</ele>
        <time>2026-07-08T08:31:00Z</time>
      </trkpt>
      <trkpt lat="42.9996" lon="0.31197">
        <ele>1171.4</ele>
        <time>2026-07-08T08:31:01Z</time>
      </trkpt>
      <trkpt lat="42.9996" lon="0.31197">
        <ele>1170.4</ele>
        <time>2026-07-08T08:31:01Z</time>
      </trkpt>
      <trkpt lat="42.99959" lon="0.31197">
        <ele>1170.4</ele>
        <time>2026-07-08T08:31:02Z</time>
      </trkpt>
      <trkpt lat="42.99958" lon="0.31196">
        <ele>1170.4</ele>
        <time>2026-07-08T08:31:03Z</time>
      </trkpt>
      <trkpt lat="42.99957" lon="0.31196">
        <ele>1171.4</ele>
        <time>2026-07-08T08:31:04Z</time>
      </trkpt>
      <trkpt lat="42.99957" lon="0.31196">
        <ele>1171.4</ele>
        <time>2026-07-08T08:31:04Z</time>
      </trkpt>
      <trkpt lat="42.99956" lon="0.31196">
        <ele>1170.4</ele>
        <time>2026-07-08T08:31:05Z</time>
      </trkpt>
      <trkpt lat="42.99955" lon="0.31196">
        <ele>1170.4</ele>
        <time>2026-07-08T08:31:06Z</time>
      </trkpt>
      <trkpt lat="42.99954" lon="0.31196">
        <ele>1170.4</ele>
        <time>2026-07-08T08:31:06Z</time>
      </trkpt>
      <trkpt lat="42.99954" lon="0.31196">
        <ele>1170.4</ele>
        <time>2026-07-08T08:31:07Z</time>
      </trkpt>
      <trkpt lat="42.99953" lon="0.31196">
        <ele>1170.4</ele>
        <time>2026-07-08T08:31:08Z</time>
      </trkpt>
      <trkpt lat="42.99952" lon="0.31195">
        <ele>1170.4</ele>
        <time>2026-07-08T08:31:08Z</time>
      </trkpt>
      <trkpt lat="42.99952" lon="0.31195">
        <ele>1170.4</ele>
        <time>2026-07-08T08:31:09Z</time>
      </trkpt>
      <trkpt lat="42.99951" lon="0.31194">
        <ele>1170.4</ele>
        <time>2026-07-08T08:31:09Z</time>
      </trkpt>
      <trkpt lat="42.99951" lon="0.31194">
        <ele>1170.4</ele>
        <time>2026-07-08T08:31:10Z</time>
      </trkpt>
      <trkpt lat="42.9995" lon="0.31193">
        <ele>1170.4</ele>
        <time>2026-07-08T08:31:11Z</time>
      </trkpt>
      <trkpt lat="42.9995" lon="0.31193">
        <ele>1169.4</ele>
        <time>2026-07-08T08:31:11Z</time>
      </trkpt>
      <trkpt lat="42.9995" lon="0.31192">
        <ele>1169.4</ele>
        <time>2026-07-08T08:31:12Z</time>
      </trkpt>
      <trkpt lat="42.99949" lon="0.31192">
        <ele>1169.4</ele>
        <time>2026-07-08T08:31:12Z</time>
      </trkpt>
      <trkpt lat="42.99949" lon="0.31191">
        <ele>1169.4</ele>
        <time>2026-07-08T08:31:13Z</time>
      </trkpt>
      <trkpt lat="42.99948" lon="0.3119">
        <ele>1170.4</ele>
        <time>2026-07-08T08:31:13Z</time>
      </trkpt>
      <trkpt lat="42.99948" lon="0.31189">
        <ele>1170.4</ele>
        <time>2026-07-08T08:31:14Z</time>
      </trkpt>
      <trkpt lat="42.99948" lon="0.31189">
        <ele>1170.4</ele>
        <time>2026-07-08T08:31:15Z</time>
      </trkpt>
      <trkpt lat="42.99948" lon="0.31188">
        <ele>1170.4</ele>
        <time>2026-07-08T08:31:15Z</time>
      </trkpt>
      <trkpt lat="42.99947" lon="0.31187">
        <ele>1170.4</ele>
        <time>2026-07-08T08:31:16Z</time>
      </trkpt>
      <trkpt lat="42.99947" lon="0.31186">
        <ele>1169.4</ele>
        <time>2026-07-08T08:31:16Z</time>
      </trkpt>
      <trkpt lat="42.99947" lon="0.31185">
        <ele>1169.4</ele>
        <time>2026-07-08T08:31:17Z</time>
      </trkpt>
      <trkpt lat="42.99946" lon="0.31185">
        <ele>1169.4</ele>
        <time>2026-07-08T08:31:18Z</time>
      </trkpt>
      <trkpt lat="42.99946" lon="0.31184">
        <ele>1169.4</ele>
        <time>2026-07-08T08:31:19Z</time>
      </trkpt>
      <trkpt lat="42.99945" lon="0.31183">
        <ele>1169.4</ele>
        <time>2026-07-08T08:31:20Z</time>
      </trkpt>
      <trkpt lat="42.99945" lon="0.31182">
        <ele>1169.4</ele>
        <time>2026-07-08T08:31:20Z</time>
      </trkpt>
      <trkpt lat="42.99944" lon="0.31181">
        <ele>1169.4</ele>
        <time>2026-07-08T08:31:21Z</time>
      </trkpt>
      <trkpt lat="42.99944" lon="0.31181">
        <ele>1170.4</ele>
        <time>2026-07-08T08:31:22Z</time>
      </trkpt>
      <trkpt lat="42.99943" lon="0.31181">
        <ele>1170.4</ele>
        <time>2026-07-08T08:31:22Z</time>
      </trkpt>
      <trkpt lat="42.99943" lon="0.3118">
        <ele>1170.4</ele>
        <time>2026-07-08T08:31:23Z</time>
      </trkpt>
      <trkpt lat="42.99942" lon="0.31179">
        <ele>1171.4</ele>
        <time>2026-07-08T08:31:24Z</time>
      </trkpt>
      <trkpt lat="42.99942" lon="0.31178">
        <ele>1172.4</ele>
        <time>2026-07-08T08:31:24Z</time>
      </trkpt>
      <trkpt lat="42.99941" lon="0.31178">
        <ele>1172.4</ele>
        <time>2026-07-08T08:31:25Z</time>
      </trkpt>
      <trkpt lat="42.99941" lon="0.31177">
        <ele>1172.4</ele>
        <time>2026-07-08T08:31:25Z</time>
      </trkpt>
      <trkpt lat="42.9994" lon="0.31177">
        <ele>1172.4</ele>
        <time>2026-07-08T08:31:26Z</time>
      </trkpt>
      <trkpt lat="42.9994" lon="0.31176">
        <ele>1172.4</ele>
        <time>2026-07-08T08:31:27Z</time>
      </trkpt>
      <trkpt lat="42.99939" lon="0.31176">
        <ele>1172.4</ele>
        <time>2026-07-08T08:31:27Z</time>
      </trkpt>
      <trkpt lat="42.99939" lon="0.31175">
        <ele>1172.4</ele>
        <time>2026-07-08T08:31:28Z</time>
      </trkpt>
      <trkpt lat="42.99938" lon="0.31175">
        <ele>1173.4</ele>
        <time>2026-07-08T08:31:29Z</time>
      </trkpt>
      <trkpt lat="42.99938" lon="0.31175">
        <ele>1173.4</ele>
        <time>2026-07-08T08:31:29Z</time>
      </trkpt>
      <trkpt lat="42.99937" lon="0.31174">
        <ele>1173.4</ele>
        <time>2026-07-08T08:31:30Z</time>
      </trkpt>
      <trkpt lat="42.99937" lon="0.31174">
        <ele>1172.4</ele>
        <time>2026-07-08T08:31:30Z</time>
      </trkpt>
      <trkpt lat="42.99936" lon="0.31173">
        <ele>1173.4</ele>
        <time>2026-07-08T08:31:31Z</time>
      </trkpt>
      <trkpt lat="42.99936" lon="0.31173">
        <ele>1173.4</ele>
        <time>2026-07-08T08:31:32Z</time>
      </trkpt>
      <trkpt lat="42.99935" lon="0.31172">
        <ele>1174.4</ele>
        <time>2026-07-08T08:31:32Z</time>
      </trkpt>
      <trkpt lat="42.99935" lon="0.31172">
        <ele>1174.4</ele>
        <time>2026-07-08T08:31:33Z</time>
      </trkpt>
      <trkpt lat="42.99934" lon="0.31171">
        <ele>1174.4</ele>
        <time>2026-07-08T08:31:34Z</time>
      </trkpt>
      <trkpt lat="42.99934" lon="0.31171">
        <ele>1174.4</ele>
        <time>2026-07-08T08:31:34Z</time>
      </trkpt>
      <trkpt lat="42.99933" lon="0.3117">
        <ele>1174.4</ele>
        <time>2026-07-08T08:31:35Z</time>
      </trkpt>
      <trkpt lat="42.99932" lon="0.31169">
        <ele>1174.4</ele>
        <time>2026-07-08T08:31:36Z</time>
      </trkpt>
      <trkpt lat="42.99932" lon="0.31169">
        <ele>1174.4</ele>
        <time>2026-07-08T08:31:36Z</time>
      </trkpt>
      <trkpt lat="42.99931" lon="0.31168">
        <ele>1174.4</ele>
        <time>2026-07-08T08:31:37Z</time>
      </trkpt>
      <trkpt lat="42.99931" lon="0.31168">
        <ele>1173.4</ele>
        <time>2026-07-08T08:31:38Z</time>
      </trkpt>
      <trkpt lat="42.9993" lon="0.31168">
        <ele>1173.4</ele>
        <time>2026-07-08T08:31:38Z</time>
      </trkpt>
      <trkpt lat="42.9993" lon="0.31167">
        <ele>1173.4</ele>
        <time>2026-07-08T08:31:39Z</time>
      </trkpt>
      <trkpt lat="42.99929" lon="0.31166">
        <ele>1174.4</ele>
        <time>2026-07-08T08:31:39Z</time>
      </trkpt>
      <trkpt lat="42.99929" lon="0.31166">
        <ele>1174.4</ele>
        <time>2026-07-08T08:31:40Z</time>
      </trkpt>
      <trkpt lat="42.99929" lon="0.31165">
        <ele>1175.4</ele>
        <time>2026-07-08T08:31:41Z</time>
      </trkpt>
      <trkpt lat="42.99929" lon="0.31165">
        <ele>1175.4</ele>
        <time>2026-07-08T08:31:42Z</time>
      </trkpt>
      <trkpt lat="42.9993" lon="0.31165">
        <ele>1175.4</ele>
        <time>2026-07-08T08:31:43Z</time>
      </trkpt>
      <trkpt lat="42.9993" lon="0.31165">
        <ele>1173.4</ele>
        <time>2026-07-08T08:31:44Z</time>
      </trkpt>
      <trkpt lat="42.9993" lon="0.31166">
        <ele>1173.4</ele>
        <time>2026-07-08T08:31:45Z</time>
      </trkpt>
      <trkpt lat="42.9993" lon="0.31166">
        <ele>1173.4</ele>
        <time>2026-07-08T08:31:46Z</time>
      </trkpt>
      <trkpt lat="42.9993" lon="0.31166">
        <ele>1174.4</ele>
        <time>2026-07-08T08:31:47Z</time>
      </trkpt>
      <trkpt lat="42.9993" lon="0.31166">
        <ele>1174.4</ele>
        <time>2026-07-08T08:31:47Z</time>
      </trkpt>
      <trkpt lat="42.9993" lon="0.31166">
        <ele>1172.4</ele>
        <time>2026-07-08T08:31:48Z</time>
      </trkpt>
      <trkpt lat="42.9993" lon="0.31166">
        <ele>1172.4</ele>
        <time>2026-07-08T08:31:48Z</time>
      </trkpt>
      <trkpt lat="42.9993" lon="0.31165">
        <ele>1171.4</ele>
        <time>2026-07-08T08:31:49Z</time>
      </trkpt>
      <trkpt lat="42.9993" lon="0.31165">
        <ele>1171.4</ele>
        <time>2026-07-08T08:31:50Z</time>
      </trkpt>
      <trkpt lat="42.9993" lon="0.31165">
        <ele>1171.4</ele>
        <time>2026-07-08T08:31:51Z</time>
      </trkpt>
      <trkpt lat="42.9993" lon="0.31165">
        <ele>1171.4</ele>
        <time>2026-07-08T08:31:52Z</time>
      </trkpt>
      <trkpt lat="42.9993" lon="0.31165">
        <ele>1171.4</ele>
        <time>2026-07-08T08:31:53Z</time>
      </trkpt>
      <trkpt lat="42.9993" lon="0.31165">
        <ele>1173.4</ele>
        <time>2026-07-08T08:31:54Z</time>
      </trkpt>
      <trkpt lat="42.9993" lon="0.31165">
        <ele>1173.4</ele>
        <time>2026-07-08T08:31:55Z</time>
      </trkpt>
      <trkpt lat="42.9993" lon="0.31165">
        <ele>1173.4</ele>
        <time>2026-07-08T08:31:56Z</time>
      </trkpt>
      <trkpt lat="42.9993" lon="0.31165">
        <ele>1174.4</ele>
        <time>2026-07-08T08:31:57Z</time>
      </trkpt>
      <trkpt lat="42.9993" lon="0.31165">
        <ele>1174.4</ele>
        <time>2026-07-08T08:31:58Z</time>
      </trkpt>
      <trkpt lat="42.9993" lon="0.31165">
        <ele>1174.4</ele>
        <time>2026-07-08T08:31:59Z</time>
      </trkpt>
      <trkpt lat="42.9993" lon="0.31165">
        <ele>1174.4</ele>
        <time>2026-07-08T08:32:00Z</time>
      </trkpt>
      <trkpt lat="42.9993" lon="0.31165">
        <ele>1174.4</ele>
        <time>2026-07-08T08:32:01Z</time>
      </trkpt>
      <trkpt lat="42.9993" lon="0.31165">
        <ele>1174.4</ele>
        <time>2026-07-08T08:32:02Z</time>
      </trkpt>
      <trkpt lat="42.9993" lon="0.31165">
        <ele>1174.4</ele>
        <time>2026-07-08T08:32:03Z</time>
      </trkpt>
      <trkpt lat="42.9993" lon="0.31165">
        <ele>1174.4</ele>
        <time>2026-07-08T08:32:04Z</time>
      </trkpt>
      <trkpt lat="42.9993" lon="0.31165">
        <ele>1174.4</ele>
        <time>2026-07-08T08:32:05Z</time>
      </trkpt>
      <trkpt lat="42.9993" lon="0.31165">
        <ele>1174.4</ele>
        <time>2026-07-08T08:32:06Z</time>
      </trkpt>
      <trkpt lat="42.9993" lon="0.31165">
        <ele>1174.4</ele>
        <time>2026-07-08T08:32:07Z</time>
      </trkpt>
      <trkpt lat="42.9993" lon="0.31165">
        <ele>1174.4</ele>
        <time>2026-07-08T08:32:07Z</time>
      </trkpt>
      <trkpt lat="42.9993" lon="0.31165">
        <ele>1174.4</ele>
        <time>2026-07-08T08:32:08Z</time>
      </trkpt>
      <trkpt lat="42.9993" lon="0.31165">
        <ele>1174.4</ele>
        <time>2026-07-08T08:32:08Z</time>
      </trkpt>
      <trkpt lat="42.9993" lon="0.31165">
        <ele>1174.4</ele>
        <time>2026-07-08T08:32:09Z</time>
      </trkpt>
      <trkpt lat="42.9993" lon="0.31165">
        <ele>1174.4</ele>
        <time>2026-07-08T08:32:10Z</time>
      </trkpt>
      <trkpt lat="42.9993" lon="0.31165">
        <ele>1174.4</ele>
        <time>2026-07-08T08:32:11Z</time>
      </trkpt>
      <trkpt lat="42.9993" lon="0.31165">
        <ele>1174.4</ele>
        <time>2026-07-08T08:32:12Z</time>
      </trkpt>
      <trkpt lat="42.9993" lon="0.31165">
        <ele>1174.4</ele>
        <time>2026-07-08T08:32:13Z</time>
      </trkpt>
      <trkpt lat="42.9993" lon="0.31165">
        <ele>1174.4</ele>
        <time>2026-07-08T08:32:14Z</time>
      </trkpt>
      <trkpt lat="42.9993" lon="0.31165">
        <ele>1175.4</ele>
        <time>2026-07-08T08:32:14Z</time>
      </trkpt>
      <trkpt lat="42.99929" lon="0.31165">
        <ele>1175.4</ele>
        <time>2026-07-08T08:32:15Z</time>
      </trkpt>
      <trkpt lat="42.99929" lon="0.31164">
        <ele>1174.4</ele>
        <time>2026-07-08T08:32:16Z</time>
      </trkpt>
      <trkpt lat="42.99928" lon="0.31164">
        <ele>1174.4</ele>
        <time>2026-07-08T08:32:17Z</time>
      </trkpt>
      <trkpt lat="42.99927" lon="0.31162">
        <ele>1174.4</ele>
        <time>2026-07-08T08:32:17Z</time>
      </trkpt>
      <trkpt lat="42.99926" lon="0.31162">
        <ele>1174.4</ele>
        <time>2026-07-08T08:32:18Z</time>
      </trkpt>
      <trkpt lat="42.99925" lon="0.3116">
        <ele>1174.4</ele>
        <time>2026-07-08T08:32:18Z</time>
      </trkpt>
      <trkpt lat="42.99924" lon="0.3116">
        <ele>1174.4</ele>
        <time>2026-07-08T08:32:19Z</time>
      </trkpt>
      <trkpt lat="42.99924" lon="0.31159">
        <ele>1174.4</ele>
        <time>2026-07-08T08:32:20Z</time>
      </trkpt>
      <trkpt lat="42.99923" lon="0.31159">
        <ele>1174.4</ele>
        <time>2026-07-08T08:32:20Z</time>
      </trkpt>
      <trkpt lat="42.99922" lon="0.31158">
        <ele>1174.4</ele>
        <time>2026-07-08T08:32:21Z</time>
      </trkpt>
      <trkpt lat="42.99922" lon="0.31158">
        <ele>1174.4</ele>
        <time>2026-07-08T08:32:21Z</time>
      </trkpt>
      <trkpt lat="42.99921" lon="0.31158">
        <ele>1174.4</ele>
        <time>2026-07-08T08:32:22Z</time>
      </trkpt>
      <trkpt lat="42.9992" lon="0.31157">
        <ele>1174.4</ele>
        <time>2026-07-08T08:32:23Z</time>
      </trkpt>
      <trkpt lat="42.9992" lon="0.31157">
        <ele>1174.4</ele>
        <time>2026-07-08T08:32:23Z</time>
      </trkpt>
      <trkpt lat="42.99919" lon="0.31156">
        <ele>1174.4</ele>
        <time>2026-07-08T08:32:24Z</time>
      </trkpt>
      <trkpt lat="42.99919" lon="0.31156">
        <ele>1174.4</ele>
        <time>2026-07-08T08:32:24Z</time>
      </trkpt>
      <trkpt lat="42.99919" lon="0.31155">
        <ele>1174.4</ele>
        <time>2026-07-08T08:32:25Z</time>
      </trkpt>
      <trkpt lat="42.99918" lon="0.31155">
        <ele>1174.4</ele>
        <time>2026-07-08T08:32:26Z</time>
      </trkpt>
      <trkpt lat="42.99919" lon="0.31156">
        <ele>1174.4</ele>
        <time>2026-07-08T08:32:26Z</time>
      </trkpt>
      <trkpt lat="42.99919" lon="0.31156">
        <ele>1174.4</ele>
        <time>2026-07-08T08:32:27Z</time>
      </trkpt>
      <trkpt lat="42.99919" lon="0.31154">
        <ele>1174.4</ele>
        <time>2026-07-08T08:32:28Z</time>
      </trkpt>
      <trkpt lat="42.99919" lon="0.31153">
        <ele>1175.4</ele>
        <time>2026-07-08T08:32:28Z</time>
      </trkpt>
      <trkpt lat="42.9992" lon="0.31152">
        <ele>1175.4</ele>
        <time>2026-07-08T08:32:29Z</time>
      </trkpt>
      <trkpt lat="42.99919" lon="0.31151">
        <ele>1175.4</ele>
        <time>2026-07-08T08:32:30Z</time>
      </trkpt>
      <trkpt lat="42.99919" lon="0.3115">
        <ele>1175.4</ele>
        <time>2026-07-08T08:32:30Z</time>
      </trkpt>
      <trkpt lat="42.99919" lon="0.31149">
        <ele>1175.4</ele>
        <time>2026-07-08T08:32:31Z</time>
      </trkpt>
      <trkpt lat="42.99918" lon="0.31148">
        <ele>1175.4</ele>
        <time>2026-07-08T08:32:32Z</time>
      </trkpt>
      <trkpt lat="42.99917" lon="0.31147">
        <ele>1176.4</ele>
        <time>2026-07-08T08:32:32Z</time>
      </trkpt>
      <trkpt lat="42.99917" lon="0.31147">
        <ele>1176.4</ele>
        <time>2026-07-08T08:32:33Z</time>
      </trkpt>
      <trkpt lat="42.99915" lon="0.31146">
        <ele>1175.4</ele>
        <time>2026-07-08T08:32:34Z</time>
      </trkpt>
      <trkpt lat="42.99915" lon="0.31146">
        <ele>1175.4</ele>
        <time>2026-07-08T08:32:34Z</time>
      </trkpt>
      <trkpt lat="42.99914" lon="0.31146">
        <ele>1175.4</ele>
        <time>2026-07-08T08:32:35Z</time>
      </trkpt>
      <trkpt lat="42.99913" lon="0.31146">
        <ele>1176.4</ele>
        <time>2026-07-08T08:32:36Z</time>
      </trkpt>
      <trkpt lat="42.99912" lon="0.31145">
        <ele>1176.4</ele>
        <time>2026-07-08T08:32:36Z</time>
      </trkpt>
      <trkpt lat="42.99911" lon="0.31145">
        <ele>1176.4</ele>
        <time>2026-07-08T08:32:37Z</time>
      </trkpt>
      <trkpt lat="42.99911" lon="0.31144">
        <ele>1176.4</ele>
        <time>2026-07-08T08:32:38Z</time>
      </trkpt>
      <trkpt lat="42.9991" lon="0.31144">
        <ele>1176.4</ele>
        <time>2026-07-08T08:32:38Z</time>
      </trkpt>
      <trkpt lat="42.9991" lon="0.31143">
        <ele>1176.4</ele>
        <time>2026-07-08T08:32:39Z</time>
      </trkpt>
      <trkpt lat="42.9991" lon="0.31142">
        <ele>1177.4</ele>
        <time>2026-07-08T08:32:40Z</time>
      </trkpt>
      <trkpt lat="42.99909" lon="0.31142">
        <ele>1177.4</ele>
        <time>2026-07-08T08:32:40Z</time>
      </trkpt>
      <trkpt lat="42.99909" lon="0.31141">
        <ele>1177.4</ele>
        <time>2026-07-08T08:32:41Z</time>
      </trkpt>
      <trkpt lat="42.99908" lon="0.31141">
        <ele>1177.4</ele>
        <time>2026-07-08T08:32:42Z</time>
      </trkpt>
      <trkpt lat="42.99908" lon="0.3114">
        <ele>1177.4</ele>
        <time>2026-07-08T08:32:42Z</time>
      </trkpt>
      <trkpt lat="42.99908" lon="0.3114">
        <ele>1178.4</ele>
        <time>2026-07-08T08:32:43Z</time>
      </trkpt>
      <trkpt lat="42.99907" lon="0.31139">
        <ele>1178.4</ele>
        <time>2026-07-08T08:32:44Z</time>
      </trkpt>
      <trkpt lat="42.99907" lon="0.31138">
        <ele>1178.4</ele>
        <time>2026-07-08T08:32:45Z</time>
      </trkpt>
      <trkpt lat="42.99907" lon="0.31138">
        <ele>1179.4</ele>
        <time>2026-07-08T08:32:45Z</time>
      </trkpt>
      <trkpt lat="42.99906" lon="0.31137">
        <ele>1179.4</ele>
        <time>2026-07-08T08:32:46Z</time>
      </trkpt>
      <trkpt lat="42.99906" lon="0.31136">
        <ele>1179.4</ele>
        <time>2026-07-08T08:32:47Z</time>
      </trkpt>
      <trkpt lat="42.99905" lon="0.31136">
        <ele>1179.4</ele>
        <time>2026-07-08T08:32:47Z</time>
      </trkpt>
      <trkpt lat="42.99905" lon="0.31135">
        <ele>1179.4</ele>
        <time>2026-07-08T08:32:48Z</time>
      </trkpt>
      <trkpt lat="42.99905" lon="0.31134">
        <ele>1179.4</ele>
        <time>2026-07-08T08:32:49Z</time>
      </trkpt>
      <trkpt lat="42.99904" lon="0.31134">
        <ele>1178.4</ele>
        <time>2026-07-08T08:32:49Z</time>
      </trkpt>
      <trkpt lat="42.99904" lon="0.31133">
        <ele>1178.4</ele>
        <time>2026-07-08T08:32:50Z</time>
      </trkpt>
      <trkpt lat="42.99903" lon="0.31133">
        <ele>1179.4</ele>
        <time>2026-07-08T08:32:50Z</time>
      </trkpt>
      <trkpt lat="42.99903" lon="0.31132">
        <ele>1179.4</ele>
        <time>2026-07-08T08:32:51Z</time>
      </trkpt>
      <trkpt lat="42.99902" lon="0.31132">
        <ele>1179.4</ele>
        <time>2026-07-08T08:32:52Z</time>
      </trkpt>
      <trkpt lat="42.99902" lon="0.31131">
        <ele>1179.4</ele>
        <time>2026-07-08T08:32:52Z</time>
      </trkpt>
      <trkpt lat="42.99902" lon="0.31131">
        <ele>1179.4</ele>
        <time>2026-07-08T08:32:53Z</time>
      </trkpt>
      <trkpt lat="42.99901" lon="0.3113">
        <ele>1179.4</ele>
        <time>2026-07-08T08:32:54Z</time>
      </trkpt>
      <trkpt lat="42.99901" lon="0.3113">
        <ele>1179.4</ele>
        <time>2026-07-08T08:32:55Z</time>
      </trkpt>
      <trkpt lat="42.999" lon="0.3113">
        <ele>1179.4</ele>
        <time>2026-07-08T08:32:55Z</time>
      </trkpt>
      <trkpt lat="42.999" lon="0.31129">
        <ele>1179.4</ele>
        <time>2026-07-08T08:32:56Z</time>
      </trkpt>
      <trkpt lat="42.999" lon="0.31129">
        <ele>1179.4</ele>
        <time>2026-07-08T08:32:57Z</time>
      </trkpt>
      <trkpt lat="42.999" lon="0.31128">
        <ele>1179.4</ele>
        <time>2026-07-08T08:32:57Z</time>
      </trkpt>
      <trkpt lat="42.99899" lon="0.31128">
        <ele>1179.4</ele>
        <time>2026-07-08T08:32:58Z</time>
      </trkpt>
      <trkpt lat="42.99899" lon="0.31127">
        <ele>1179.4</ele>
        <time>2026-07-08T08:32:58Z</time>
      </trkpt>
      <trkpt lat="42.99899" lon="0.31127">
        <ele>1178.4</ele>
        <time>2026-07-08T08:32:59Z</time>
      </trkpt>
      <trkpt lat="42.99898" lon="0.31127">
        <ele>1178.4</ele>
        <time>2026-07-08T08:33:00Z</time>
      </trkpt>
      <trkpt lat="42.99898" lon="0.31127">
        <ele>1178.4</ele>
        <time>2026-07-08T08:33:00Z</time>
      </trkpt>
      <trkpt lat="42.99898" lon="0.31127">
        <ele>1178.4</ele>
        <time>2026-07-08T08:33:01Z</time>
      </trkpt>
      <trkpt lat="42.99898" lon="0.31127">
        <ele>1178.4</ele>
        <time>2026-07-08T08:33:02Z</time>
      </trkpt>
      <trkpt lat="42.99897" lon="0.31127">
        <ele>1178.4</ele>
        <time>2026-07-08T08:33:02Z</time>
      </trkpt>
      <trkpt lat="42.99897" lon="0.31127">
        <ele>1178.4</ele>
        <time>2026-07-08T08:33:03Z</time>
      </trkpt>
      <trkpt lat="42.99896" lon="0.31126">
        <ele>1178.4</ele>
        <time>2026-07-08T08:33:03Z</time>
      </trkpt>
      <trkpt lat="42.99895" lon="0.31125">
        <ele>1178.4</ele>
        <time>2026-07-08T08:33:04Z</time>
      </trkpt>
      <trkpt lat="42.99895" lon="0.31124">
        <ele>1178.4</ele>
        <time>2026-07-08T08:33:05Z</time>
      </trkpt>
      <trkpt lat="42.99894" lon="0.31123">
        <ele>1178.4</ele>
        <time>2026-07-08T08:33:05Z</time>
      </trkpt>
      <trkpt lat="42.99893" lon="0.31122">
        <ele>1178.4</ele>
        <time>2026-07-08T08:33:06Z</time>
      </trkpt>
      <trkpt lat="42.99893" lon="0.31122">
        <ele>1178.4</ele>
        <time>2026-07-08T08:33:06Z</time>
      </trkpt>
      <trkpt lat="42.99892" lon="0.31121">
        <ele>1178.4</ele>
        <time>2026-07-08T08:33:07Z</time>
      </trkpt>
      <trkpt lat="42.99892" lon="0.31121">
        <ele>1178.4</ele>
        <time>2026-07-08T08:33:08Z</time>
      </trkpt>
      <trkpt lat="42.99891" lon="0.3112">
        <ele>1178.4</ele>
        <time>2026-07-08T08:33:08Z</time>
      </trkpt>
      <trkpt lat="42.99891" lon="0.3112">
        <ele>1178.4</ele>
        <time>2026-07-08T08:33:09Z</time>
      </trkpt>
      <trkpt lat="42.9989" lon="0.31119">
        <ele>1178.4</ele>
        <time>2026-07-08T08:33:09Z</time>
      </trkpt>
      <trkpt lat="42.9989" lon="0.31119">
        <ele>1178.4</ele>
        <time>2026-07-08T08:33:10Z</time>
      </trkpt>
      <trkpt lat="42.99889" lon="0.31118">
        <ele>1179.4</ele>
        <time>2026-07-08T08:33:10Z</time>
      </trkpt>
      <trkpt lat="42.99888" lon="0.31118">
        <ele>1179.4</ele>
        <time>2026-07-08T08:33:11Z</time>
      </trkpt>
      <trkpt lat="42.99888" lon="0.31118">
        <ele>1179.4</ele>
        <time>2026-07-08T08:33:11Z</time>
      </trkpt>
      <trkpt lat="42.99887" lon="0.31118">
        <ele>1180.4</ele>
        <time>2026-07-08T08:33:12Z</time>
      </trkpt>
      <trkpt lat="42.99886" lon="0.31118">
        <ele>1180.4</ele>
        <time>2026-07-08T08:33:13Z</time>
      </trkpt>
      <trkpt lat="42.99885" lon="0.31118">
        <ele>1180.4</ele>
        <time>2026-07-08T08:33:13Z</time>
      </trkpt>
      <trkpt lat="42.99885" lon="0.31117">
        <ele>1180.4</ele>
        <time>2026-07-08T08:33:14Z</time>
      </trkpt>
      <trkpt lat="42.99884" lon="0.31118">
        <ele>1180.4</ele>
        <time>2026-07-08T08:33:14Z</time>
      </trkpt>
      <trkpt lat="42.99883" lon="0.31118">
        <ele>1181.4</ele>
        <time>2026-07-08T08:33:15Z</time>
      </trkpt>
      <trkpt lat="42.99883" lon="0.31118">
        <ele>1181.4</ele>
        <time>2026-07-08T08:33:16Z</time>
      </trkpt>
      <trkpt lat="42.99881" lon="0.31118">
        <ele>1181.4</ele>
        <time>2026-07-08T08:33:17Z</time>
      </trkpt>
      <trkpt lat="42.9988" lon="0.31118">
        <ele>1181.4</ele>
        <time>2026-07-08T08:33:18Z</time>
      </trkpt>
      <trkpt lat="42.9988" lon="0.31118">
        <ele>1181.4</ele>
        <time>2026-07-08T08:33:18Z</time>
      </trkpt>
      <trkpt lat="42.99879" lon="0.31118">
        <ele>1181.4</ele>
        <time>2026-07-08T08:33:19Z</time>
      </trkpt>
      <trkpt lat="42.99878" lon="0.31117">
        <ele>1181.4</ele>
        <time>2026-07-08T08:33:19Z</time>
      </trkpt>
      <trkpt lat="42.99878" lon="0.31117">
        <ele>1181.4</ele>
        <time>2026-07-08T08:33:20Z</time>
      </trkpt>
      <trkpt lat="42.99877" lon="0.31117">
        <ele>1181.4</ele>
        <time>2026-07-08T08:33:21Z</time>
      </trkpt>
      <trkpt lat="42.99876" lon="0.31117">
        <ele>1181.4</ele>
        <time>2026-07-08T08:33:21Z</time>
      </trkpt>
      <trkpt lat="42.99876" lon="0.31116">
        <ele>1181.4</ele>
        <time>2026-07-08T08:33:22Z</time>
      </trkpt>
      <trkpt lat="42.99875" lon="0.31116">
        <ele>1180.4</ele>
        <time>2026-07-08T08:33:23Z</time>
      </trkpt>
      <trkpt lat="42.99875" lon="0.31116">
        <ele>1181.4</ele>
        <time>2026-07-08T08:33:23Z</time>
      </trkpt>
      <trkpt lat="42.99874" lon="0.31115">
        <ele>1181.4</ele>
        <time>2026-07-08T08:33:24Z</time>
      </trkpt>
      <trkpt lat="42.99873" lon="0.31115">
        <ele>1181.4</ele>
        <time>2026-07-08T08:33:25Z</time>
      </trkpt>
      <trkpt lat="42.99873" lon="0.31115">
        <ele>1181.4</ele>
        <time>2026-07-08T08:33:26Z</time>
      </trkpt>
      <trkpt lat="42.99872" lon="0.31115">
        <ele>1181.4</ele>
        <time>2026-07-08T08:33:26Z</time>
      </trkpt>
      <trkpt lat="42.99872" lon="0.31115">
        <ele>1181.4</ele>
        <time>2026-07-08T08:33:27Z</time>
      </trkpt>
      <trkpt lat="42.99871" lon="0.31114">
        <ele>1181.4</ele>
        <time>2026-07-08T08:33:28Z</time>
      </trkpt>
      <trkpt lat="42.9987" lon="0.31114">
        <ele>1181.4</ele>
        <time>2026-07-08T08:33:28Z</time>
      </trkpt>
      <trkpt lat="42.9987" lon="0.31114">
        <ele>1181.4</ele>
        <time>2026-07-08T08:33:29Z</time>
      </trkpt>
      <trkpt lat="42.99869" lon="0.31113">
        <ele>1181.4</ele>
        <time>2026-07-08T08:33:30Z</time>
      </trkpt>
      <trkpt lat="42.99869" lon="0.31113">
        <ele>1181.4</ele>
        <time>2026-07-08T08:33:30Z</time>
      </trkpt>
      <trkpt lat="42.99868" lon="0.31112">
        <ele>1180.4</ele>
        <time>2026-07-08T08:33:31Z</time>
      </trkpt>
      <trkpt lat="42.99868" lon="0.31112">
        <ele>1180.4</ele>
        <time>2026-07-08T08:33:32Z</time>
      </trkpt>
      <trkpt lat="42.99867" lon="0.31112">
        <ele>1180.4</ele>
        <time>2026-07-08T08:33:32Z</time>
      </trkpt>
      <trkpt lat="42.99866" lon="0.31111">
        <ele>1180.4</ele>
        <time>2026-07-08T08:33:33Z</time>
      </trkpt>
      <trkpt lat="42.99866" lon="0.31111">
        <ele>1181.4</ele>
        <time>2026-07-08T08:33:33Z</time>
      </trkpt>
      <trkpt lat="42.99865" lon="0.31111">
        <ele>1181.4</ele>
        <time>2026-07-08T08:33:34Z</time>
      </trkpt>
      <trkpt lat="42.99865" lon="0.31111">
        <ele>1181.4</ele>
        <time>2026-07-08T08:33:35Z</time>
      </trkpt>
      <trkpt lat="42.99865" lon="0.3111">
        <ele>1182.4</ele>
        <time>2026-07-08T08:33:35Z</time>
      </trkpt>
      <trkpt lat="42.99864" lon="0.3111">
        <ele>1182.4</ele>
        <time>2026-07-08T08:33:36Z</time>
      </trkpt>
      <trkpt lat="42.99863" lon="0.31109">
        <ele>1181.4</ele>
        <time>2026-07-08T08:33:37Z</time>
      </trkpt>
      <trkpt lat="42.99863" lon="0.31109">
        <ele>1180.4</ele>
        <time>2026-07-08T08:33:37Z</time>
      </trkpt>
      <trkpt lat="42.99862" lon="0.31109">
        <ele>1180.4</ele>
        <time>2026-07-08T08:33:38Z</time>
      </trkpt>
      <trkpt lat="42.99862" lon="0.31109">
        <ele>1180.4</ele>
        <time>2026-07-08T08:33:39Z</time>
      </trkpt>
      <trkpt lat="42.99862" lon="0.3111">
        <ele>1180.4</ele>
        <time>2026-07-08T08:33:39Z</time>
      </trkpt>
      <trkpt lat="42.99861" lon="0.3111">
        <ele>1180.4</ele>
        <time>2026-07-08T08:33:40Z</time>
      </trkpt>
      <trkpt lat="42.99861" lon="0.3111">
        <ele>1180.4</ele>
        <time>2026-07-08T08:33:40Z</time>
      </trkpt>
      <trkpt lat="42.99861" lon="0.31111">
        <ele>1180.4</ele>
        <time>2026-07-08T08:33:41Z</time>
      </trkpt>
      <trkpt lat="42.99861" lon="0.31111">
        <ele>1180.4</ele>
        <time>2026-07-08T08:33:41Z</time>
      </trkpt>
      <trkpt lat="42.9986" lon="0.31111">
        <ele>1180.4</ele>
        <time>2026-07-08T08:33:42Z</time>
      </trkpt>
      <trkpt lat="42.99859" lon="0.3111">
        <ele>1179.4</ele>
        <time>2026-07-08T08:33:43Z</time>
      </trkpt>
      <trkpt lat="42.99859" lon="0.31111">
        <ele>1179.4</ele>
        <time>2026-07-08T08:33:43Z</time>
      </trkpt>
      <trkpt lat="42.99858" lon="0.31111">
        <ele>1179.4</ele>
        <time>2026-07-08T08:33:44Z</time>
      </trkpt>
      <trkpt lat="42.99858" lon="0.31111">
        <ele>1179.4</ele>
        <time>2026-07-08T08:33:44Z</time>
      </trkpt>
      <trkpt lat="42.99858" lon="0.3111">
        <ele>1179.4</ele>
        <time>2026-07-08T08:33:45Z</time>
      </trkpt>
      <trkpt lat="42.99857" lon="0.3111">
        <ele>1178.4</ele>
        <time>2026-07-08T08:33:46Z</time>
      </trkpt>
      <trkpt lat="42.99857" lon="0.3111">
        <ele>1178.4</ele>
        <time>2026-07-08T08:33:46Z</time>
      </trkpt>
      <trkpt lat="42.99857" lon="0.3111">
        <ele>1178.4</ele>
        <time>2026-07-08T08:33:47Z</time>
      </trkpt>
      <trkpt lat="42.99857" lon="0.3111">
        <ele>1178.4</ele>
        <time>2026-07-08T08:33:47Z</time>
      </trkpt>
      <trkpt lat="42.99856" lon="0.3111">
        <ele>1178.4</ele>
        <time>2026-07-08T08:33:48Z</time>
      </trkpt>
      <trkpt lat="42.99856" lon="0.3111">
        <ele>1178.4</ele>
        <time>2026-07-08T08:33:48Z</time>
      </trkpt>
      <trkpt lat="42.99855" lon="0.3111">
        <ele>1178.4</ele>
        <time>2026-07-08T08:33:49Z</time>
      </trkpt>
      <trkpt lat="42.99854" lon="0.31109">
        <ele>1178.4</ele>
        <time>2026-07-08T08:33:50Z</time>
      </trkpt>
      <trkpt lat="42.99854" lon="0.3111">
        <ele>1178.4</ele>
        <time>2026-07-08T08:33:50Z</time>
      </trkpt>
      <trkpt lat="42.99853" lon="0.3111">
        <ele>1178.4</ele>
        <time>2026-07-08T08:33:51Z</time>
      </trkpt>
      <trkpt lat="42.99853" lon="0.31109">
        <ele>1177.4</ele>
        <time>2026-07-08T08:33:52Z</time>
      </trkpt>
      <trkpt lat="42.99852" lon="0.31109">
        <ele>1177.4</ele>
        <time>2026-07-08T08:33:52Z</time>
      </trkpt>
      <trkpt lat="42.99851" lon="0.31109">
        <ele>1177.4</ele>
        <time>2026-07-08T08:33:53Z</time>
      </trkpt>
      <trkpt lat="42.99851" lon="0.31109">
        <ele>1177.4</ele>
        <time>2026-07-08T08:33:53Z</time>
      </trkpt>
      <trkpt lat="42.9985" lon="0.31109">
        <ele>1177.4</ele>
        <time>2026-07-08T08:33:54Z</time>
      </trkpt>
      <trkpt lat="42.9985" lon="0.31109">
        <ele>1177.4</ele>
        <time>2026-07-08T08:33:54Z</time>
      </trkpt>
      <trkpt lat="42.99849" lon="0.31109">
        <ele>1177.4</ele>
        <time>2026-07-08T08:33:55Z</time>
      </trkpt>
      <trkpt lat="42.99849" lon="0.31109">
        <ele>1177.4</ele>
        <time>2026-07-08T08:33:56Z</time>
      </trkpt>
      <trkpt lat="42.99848" lon="0.31109">
        <ele>1177.4</ele>
        <time>2026-07-08T08:33:57Z</time>
      </trkpt>
      <trkpt lat="42.99848" lon="0.31109">
        <ele>1177.4</ele>
        <time>2026-07-08T08:33:57Z</time>
      </trkpt>
      <trkpt lat="42.99847" lon="0.31108">
        <ele>1177.4</ele>
        <time>2026-07-08T08:33:58Z</time>
      </trkpt>
      <trkpt lat="42.99847" lon="0.31109">
        <ele>1176.4</ele>
        <time>2026-07-08T08:33:58Z</time>
      </trkpt>
      <trkpt lat="42.99847" lon="0.31109">
        <ele>1176.4</ele>
        <time>2026-07-08T08:33:59Z</time>
      </trkpt>
      <trkpt lat="42.99846" lon="0.31109">
        <ele>1176.4</ele>
        <time>2026-07-08T08:34:00Z</time>
      </trkpt>
      <trkpt lat="42.99846" lon="0.31109">
        <ele>1175.4</ele>
        <time>2026-07-08T08:34:00Z</time>
      </trkpt>
      <trkpt lat="42.99845" lon="0.31109">
        <ele>1175.4</ele>
        <time>2026-07-08T08:34:01Z</time>
      </trkpt>
      <trkpt lat="42.99844" lon="0.31108">
        <ele>1175.4</ele>
        <time>2026-07-08T08:34:02Z</time>
      </trkpt>
      <trkpt lat="42.99844" lon="0.31108">
        <ele>1174.4</ele>
        <time>2026-07-08T08:34:03Z</time>
      </trkpt>
      <trkpt lat="42.99843" lon="0.31108">
        <ele>1174.4</ele>
        <time>2026-07-08T08:34:03Z</time>
      </trkpt>
      <trkpt lat="42.99843" lon="0.31108">
        <ele>1174.4</ele>
        <time>2026-07-08T08:34:04Z</time>
      </trkpt>
      <trkpt lat="42.99842" lon="0.31108">
        <ele>1174.4</ele>
        <time>2026-07-08T08:34:04Z</time>
      </trkpt>
      <trkpt lat="42.99842" lon="0.31108">
        <ele>1174.4</ele>
        <time>2026-07-08T08:34:05Z</time>
      </trkpt>
      <trkpt lat="42.99841" lon="0.31108">
        <ele>1174.4</ele>
        <time>2026-07-08T08:34:06Z</time>
      </trkpt>
      <trkpt lat="42.99841" lon="0.31108">
        <ele>1174.4</ele>
        <time>2026-07-08T08:34:06Z</time>
      </trkpt>
      <trkpt lat="42.99841" lon="0.31108">
        <ele>1174.4</ele>
        <time>2026-07-08T08:34:07Z</time>
      </trkpt>
      <trkpt lat="42.9984" lon="0.31108">
        <ele>1174.4</ele>
        <time>2026-07-08T08:34:08Z</time>
      </trkpt>
      <trkpt lat="42.99839" lon="0.31108">
        <ele>1174.4</ele>
        <time>2026-07-08T08:34:09Z</time>
      </trkpt>
      <trkpt lat="42.99839" lon="0.31108">
        <ele>1174.4</ele>
        <time>2026-07-08T08:34:10Z</time>
      </trkpt>
      <trkpt lat="42.99839" lon="0.31107">
        <ele>1173.4</ele>
        <time>2026-07-08T08:34:10Z</time>
      </trkpt>
      <trkpt lat="42.99838" lon="0.31107">
        <ele>1173.4</ele>
        <time>2026-07-08T08:34:11Z</time>
      </trkpt>
      <trkpt lat="42.99838" lon="0.31108">
        <ele>1173.4</ele>
        <time>2026-07-08T08:34:11Z</time>
      </trkpt>
      <trkpt lat="42.99838" lon="0.31108">
        <ele>1173.4</ele>
        <time>2026-07-08T08:34:12Z</time>
      </trkpt>
      <trkpt lat="42.99837" lon="0.31108">
        <ele>1173.4</ele>
        <time>2026-07-08T08:34:13Z</time>
      </trkpt>
      <trkpt lat="42.99837" lon="0.31108">
        <ele>1173.4</ele>
        <time>2026-07-08T08:34:13Z</time>
      </trkpt>
      <trkpt lat="42.99837" lon="0.31109">
        <ele>1173.4</ele>
        <time>2026-07-08T08:34:14Z</time>
      </trkpt>
      <trkpt lat="42.99836" lon="0.31109">
        <ele>1173.4</ele>
        <time>2026-07-08T08:34:15Z</time>
      </trkpt>
      <trkpt lat="42.99835" lon="0.31109">
        <ele>1173.4</ele>
        <time>2026-07-08T08:34:16Z</time>
      </trkpt>
      <trkpt lat="42.99835" lon="0.3111">
        <ele>1173.4</ele>
        <time>2026-07-08T08:34:17Z</time>
      </trkpt>
      <trkpt lat="42.99836" lon="0.3111">
        <ele>1171.4</ele>
        <time>2026-07-08T08:34:17Z</time>
      </trkpt>
      <trkpt lat="42.99836" lon="0.3111">
        <ele>1171.4</ele>
        <time>2026-07-08T08:34:18Z</time>
      </trkpt>
      <trkpt lat="42.99836" lon="0.3111">
        <ele>1171.4</ele>
        <time>2026-07-08T08:34:19Z</time>
      </trkpt>
      <trkpt lat="42.99836" lon="0.3111">
        <ele>1171.4</ele>
        <time>2026-07-08T08:34:20Z</time>
      </trkpt>
      <trkpt lat="42.99836" lon="0.3111">
        <ele>1172.4</ele>
        <time>2026-07-08T08:34:20Z</time>
      </trkpt>
      <trkpt lat="42.99837" lon="0.31109">
        <ele>1173.4</ele>
        <time>2026-07-08T08:34:21Z</time>
      </trkpt>
      <trkpt lat="42.99837" lon="0.31109">
        <ele>1173.4</ele>
        <time>2026-07-08T08:34:22Z</time>
      </trkpt>
      <trkpt lat="42.99838" lon="0.31109">
        <ele>1173.4</ele>
        <time>2026-07-08T08:34:23Z</time>
      </trkpt>
      <trkpt lat="42.99838" lon="0.31108">
        <ele>1170.4</ele>
        <time>2026-07-08T08:34:24Z</time>
      </trkpt>
      <trkpt lat="42.99838" lon="0.31108">
        <ele>1170.4</ele>
        <time>2026-07-08T08:34:25Z</time>
      </trkpt>
      <trkpt lat="42.99839" lon="0.31108">
        <ele>1170.4</ele>
        <time>2026-07-08T08:34:26Z</time>
      </trkpt>
      <trkpt lat="42.99839" lon="0.31108">
        <ele>1170.4</ele>
        <time>2026-07-08T08:34:27Z</time>
      </trkpt>
      <trkpt lat="42.99839" lon="0.31108">
        <ele>1170.4</ele>
        <time>2026-07-08T08:34:28Z</time>
      </trkpt>
      <trkpt lat="42.99839" lon="0.31108">
        <ele>1170.4</ele>
        <time>2026-07-08T08:34:29Z</time>
      </trkpt>
      <trkpt lat="42.99839" lon="0.31108">
        <ele>1170.4</ele>
        <time>2026-07-08T08:34:30Z</time>
      </trkpt>
      <trkpt lat="42.9984" lon="0.31108">
        <ele>1170.4</ele>
        <time>2026-07-08T08:34:31Z</time>
      </trkpt>
      <trkpt lat="42.9984" lon="0.31108">
        <ele>1170.4</ele>
        <time>2026-07-08T08:34:32Z</time>
      </trkpt>
      <trkpt lat="42.9984" lon="0.31108">
        <ele>1170.4</ele>
        <time>2026-07-08T08:34:33Z</time>
      </trkpt>
      <trkpt lat="42.9984" lon="0.31108">
        <ele>1170.4</ele>
        <time>2026-07-08T08:34:34Z</time>
      </trkpt>
      <trkpt lat="42.9984" lon="0.31108">
        <ele>1170.4</ele>
        <time>2026-07-08T08:34:35Z</time>
      </trkpt>
      <trkpt lat="42.9984" lon="0.31108">
        <ele>1170.4</ele>
        <time>2026-07-08T08:34:36Z</time>
      </trkpt>
      <trkpt lat="42.9984" lon="0.31108">
        <ele>1170.4</ele>
        <time>2026-07-08T08:34:37Z</time>
      </trkpt>
      <trkpt lat="42.9984" lon="0.31108">
        <ele>1170.4</ele>
        <time>2026-07-08T08:34:38Z</time>
      </trkpt>
      <trkpt lat="42.9984" lon="0.31108">
        <ele>1170.4</ele>
        <time>2026-07-08T08:34:39Z</time>
      </trkpt>
      <trkpt lat="42.9984" lon="0.31108">
        <ele>1170.4</ele>
        <time>2026-07-08T08:34:40Z</time>
      </trkpt>
      <trkpt lat="42.9984" lon="0.31108">
        <ele>1170.4</ele>
        <time>2026-07-08T08:34:41Z</time>
      </trkpt>
      <trkpt lat="42.9984" lon="0.31108">
        <ele>1170.4</ele>
        <time>2026-07-08T08:34:42Z</time>
      </trkpt>
      <trkpt lat="42.9984" lon="0.31108">
        <ele>1170.4</ele>
        <time>2026-07-08T08:34:43Z</time>
      </trkpt>
      <trkpt lat="42.99841" lon="0.31108">
        <ele>1170.4</ele>
        <time>2026-07-08T08:34:44Z</time>
      </trkpt>
      <trkpt lat="42.99841" lon="0.31108">
        <ele>1170.4</ele>
        <time>2026-07-08T08:34:45Z</time>
      </trkpt>
      <trkpt lat="42.99841" lon="0.31108">
        <ele>1170.4</ele>
        <time>2026-07-08T08:34:46Z</time>
      </trkpt>
      <trkpt lat="42.99841" lon="0.31108">
        <ele>1170.4</ele>
        <time>2026-07-08T08:34:47Z</time>
      </trkpt>
      <trkpt lat="42.99841" lon="0.31108">
        <ele>1170.4</ele>
        <time>2026-07-08T08:34:48Z</time>
      </trkpt>
      <trkpt lat="42.99841" lon="0.31108">
        <ele>1170.4</ele>
        <time>2026-07-08T08:34:49Z</time>
      </trkpt>
      <trkpt lat="42.99841" lon="0.31108">
        <ele>1170.4</ele>
        <time>2026-07-08T08:34:50Z</time>
      </trkpt>
      <trkpt lat="42.99841" lon="0.31108">
        <ele>1170.4</ele>
        <time>2026-07-08T08:34:51Z</time>
      </trkpt>
      <trkpt lat="42.99841" lon="0.31108">
        <ele>1170.4</ele>
        <time>2026-07-08T08:34:52Z</time>
      </trkpt>
      <trkpt lat="42.99841" lon="0.31108">
        <ele>1170.4</ele>
        <time>2026-07-08T08:34:53Z</time>
      </trkpt>
      <trkpt lat="42.99841" lon="0.31108">
        <ele>1170.4</ele>
        <time>2026-07-08T08:34:54Z</time>
      </trkpt>
      <trkpt lat="42.99841" lon="0.31108">
        <ele>1170.4</ele>
        <time>2026-07-08T08:34:54Z</time>
      </trkpt>
      <trkpt lat="42.99841" lon="0.31108">
        <ele>1170.4</ele>
        <time>2026-07-08T08:34:55Z</time>
      </trkpt>
      <trkpt lat="42.99841" lon="0.31108">
        <ele>1170.4</ele>
        <time>2026-07-08T08:34:56Z</time>
      </trkpt>
      <trkpt lat="42.99841" lon="0.31108">
        <ele>1170.4</ele>
        <time>2026-07-08T08:34:57Z</time>
      </trkpt>
      <trkpt lat="42.9984" lon="0.31108">
        <ele>1170.4</ele>
        <time>2026-07-08T08:34:58Z</time>
      </trkpt>
      <trkpt lat="42.9984" lon="0.31108">
        <ele>1170.4</ele>
        <time>2026-07-08T08:34:59Z</time>
      </trkpt>
      <trkpt lat="42.9984" lon="0.31108">
        <ele>1170.4</ele>
        <time>2026-07-08T08:35:00Z</time>
      </trkpt>
      <trkpt lat="42.9984" lon="0.31108">
        <ele>1170.4</ele>
        <time>2026-07-08T08:35:00Z</time>
      </trkpt>
      <trkpt lat="42.9984" lon="0.31108">
        <ele>1170.4</ele>
        <time>2026-07-08T08:35:01Z</time>
      </trkpt>
      <trkpt lat="42.9984" lon="0.31107">
        <ele>1170.4</ele>
        <time>2026-07-08T08:35:02Z</time>
      </trkpt>
      <trkpt lat="42.9984" lon="0.31107">
        <ele>1169.4</ele>
        <time>2026-07-08T08:35:02Z</time>
      </trkpt>
      <trkpt lat="42.99839" lon="0.31107">
        <ele>1169.4</ele>
        <time>2026-07-08T08:35:03Z</time>
      </trkpt>
      <trkpt lat="42.99839" lon="0.31107">
        <ele>1169.4</ele>
        <time>2026-07-08T08:35:03Z</time>
      </trkpt>
      <trkpt lat="42.99838" lon="0.31106">
        <ele>1169.4</ele>
        <time>2026-07-08T08:35:04Z</time>
      </trkpt>
      <trkpt lat="42.99838" lon="0.31106">
        <ele>1169.4</ele>
        <time>2026-07-08T08:35:04Z</time>
      </trkpt>
      <trkpt lat="42.99837" lon="0.31106">
        <ele>1169.4</ele>
        <time>2026-07-08T08:35:05Z</time>
      </trkpt>
      <trkpt lat="42.99837" lon="0.31106">
        <ele>1169.4</ele>
        <time>2026-07-08T08:35:06Z</time>
      </trkpt>
      <trkpt lat="42.99836" lon="0.31106">
        <ele>1169.4</ele>
        <time>2026-07-08T08:35:06Z</time>
      </trkpt>
      <trkpt lat="42.99836" lon="0.31105">
        <ele>1168.4</ele>
        <time>2026-07-08T08:35:07Z</time>
      </trkpt>
      <trkpt lat="42.99836" lon="0.31105">
        <ele>1168.4</ele>
        <time>2026-07-08T08:35:07Z</time>
      </trkpt>
      <trkpt lat="42.99836" lon="0.31105">
        <ele>1168.4</ele>
        <time>2026-07-08T08:35:08Z</time>
      </trkpt>
      <trkpt lat="42.99837" lon="0.31106">
        <ele>1168.4</ele>
        <time>2026-07-08T08:35:09Z</time>
      </trkpt>
      <trkpt lat="42.99837" lon="0.31106">
        <ele>1168.4</ele>
        <time>2026-07-08T08:35:09Z</time>
      </trkpt>
      <trkpt lat="42.99837" lon="0.31106">
        <ele>1168.4</ele>
        <time>2026-07-08T08:35:10Z</time>
      </trkpt>
      <trkpt lat="42.99836" lon="0.31106">
        <ele>1167.4</ele>
        <time>2026-07-08T08:35:10Z</time>
      </trkpt>
      <trkpt lat="42.99836" lon="0.31105">
        <ele>1167.4</ele>
        <time>2026-07-08T08:35:11Z</time>
      </trkpt>
      <trkpt lat="42.99836" lon="0.31105">
        <ele>1167.4</ele>
        <time>2026-07-08T08:35:12Z</time>
      </trkpt>
      <trkpt lat="42.99835" lon="0.31105">
        <ele>1167.4</ele>
        <time>2026-07-08T08:35:12Z</time>
      </trkpt>
      <trkpt lat="42.99834" lon="0.31104">
        <ele>1167.4</ele>
        <time>2026-07-08T08:35:13Z</time>
      </trkpt>
      <trkpt lat="42.99834" lon="0.31104">
        <ele>1167.4</ele>
        <time>2026-07-08T08:35:13Z</time>
      </trkpt>
      <trkpt lat="42.99833" lon="0.31103">
        <ele>1167.4</ele>
        <time>2026-07-08T08:35:14Z</time>
      </trkpt>
      <trkpt lat="42.99832" lon="0.31102">
        <ele>1167.4</ele>
        <time>2026-07-08T08:35:15Z</time>
      </trkpt>
      <trkpt lat="42.99831" lon="0.31101">
        <ele>1167.4</ele>
        <time>2026-07-08T08:35:15Z</time>
      </trkpt>
      <trkpt lat="42.9983" lon="0.31101">
        <ele>1166.4</ele>
        <time>2026-07-08T08:35:16Z</time>
      </trkpt>
      <trkpt lat="42.9983" lon="0.31101">
        <ele>1166.4</ele>
        <time>2026-07-08T08:35:17Z</time>
      </trkpt>
      <trkpt lat="42.9983" lon="0.31101">
        <ele>1166.4</ele>
        <time>2026-07-08T08:35:17Z</time>
      </trkpt>
      <trkpt lat="42.9983" lon="0.31101">
        <ele>1166.4</ele>
        <time>2026-07-08T08:35:18Z</time>
      </trkpt>
      <trkpt lat="42.99829" lon="0.311">
        <ele>1166.4</ele>
        <time>2026-07-08T08:35:18Z</time>
      </trkpt>
      <trkpt lat="42.99828" lon="0.311">
        <ele>1166.4</ele>
        <time>2026-07-08T08:35:19Z</time>
      </trkpt>
      <trkpt lat="42.99828" lon="0.311">
        <ele>1165.4</ele>
        <time>2026-07-08T08:35:20Z</time>
      </trkpt>
      <trkpt lat="42.99827" lon="0.311">
        <ele>1165.4</ele>
        <time>2026-07-08T08:35:20Z</time>
      </trkpt>
      <trkpt lat="42.99826" lon="0.311">
        <ele>1165.4</ele>
        <time>2026-07-08T08:35:21Z</time>
      </trkpt>
      <trkpt lat="42.99826" lon="0.311">
        <ele>1165.4</ele>
        <time>2026-07-08T08:35:22Z</time>
      </trkpt>
      <trkpt lat="42.99825" lon="0.311">
        <ele>1165.4</ele>
        <time>2026-07-08T08:35:22Z</time>
      </trkpt>
      <trkpt lat="42.99825" lon="0.311">
        <ele>1165.4</ele>
        <time>2026-07-08T08:35:22Z</time>
      </trkpt>
      <trkpt lat="42.99825" lon="0.311">
        <ele>1165.4</ele>
        <time>2026-07-08T08:35:23Z</time>
      </trkpt>
      <trkpt lat="42.99825" lon="0.311">
        <ele>1165.4</ele>
        <time>2026-07-08T08:35:24Z</time>
      </trkpt>
      <trkpt lat="42.99825" lon="0.311">
        <ele>1165.4</ele>
        <time>2026-07-08T08:35:25Z</time>
      </trkpt>
      <trkpt lat="42.99825" lon="0.31099">
        <ele>1165.4</ele>
        <time>2026-07-08T08:35:25Z</time>
      </trkpt>
      <trkpt lat="42.99825" lon="0.31099">
        <ele>1164.4</ele>
        <time>2026-07-08T08:35:26Z</time>
      </trkpt>
      <trkpt lat="42.99825" lon="0.31099">
        <ele>1163.4</ele>
        <time>2026-07-08T08:35:27Z</time>
      </trkpt>
      <trkpt lat="42.99826" lon="0.31099">
        <ele>1163.4</ele>
        <time>2026-07-08T08:35:28Z</time>
      </trkpt>
      <trkpt lat="42.99826" lon="0.31099">
        <ele>1163.4</ele>
        <time>2026-07-08T08:35:28Z</time>
      </trkpt>
      <trkpt lat="42.99826" lon="0.31099">
        <ele>1163.4</ele>
        <time>2026-07-08T08:35:29Z</time>
      </trkpt>
      <trkpt lat="42.99825" lon="0.31099">
        <ele>1163.4</ele>
        <time>2026-07-08T08:35:30Z</time>
      </trkpt>
      <trkpt lat="42.99825" lon="0.31099">
        <ele>1162.4</ele>
        <time>2026-07-08T08:35:31Z</time>
      </trkpt>
      <trkpt lat="42.99825" lon="0.31099">
        <ele>1162.4</ele>
        <time>2026-07-08T08:35:32Z</time>
      </trkpt>
      <trkpt lat="42.99825" lon="0.31099">
        <ele>1162.4</ele>
        <time>2026-07-08T08:35:33Z</time>
      </trkpt>
      <trkpt lat="42.99825" lon="0.31099">
        <ele>1161.4</ele>
        <time>2026-07-08T08:35:34Z</time>
      </trkpt>
      <trkpt lat="42.99825" lon="0.31099">
        <ele>1161.4</ele>
        <time>2026-07-08T08:35:35Z</time>
      </trkpt>
      <trkpt lat="42.99825" lon="0.31099">
        <ele>1161.4</ele>
        <time>2026-07-08T08:35:36Z</time>
      </trkpt>
      <trkpt lat="42.99825" lon="0.311">
        <ele>1161.4</ele>
        <time>2026-07-08T08:35:36Z</time>
      </trkpt>
      <trkpt lat="42.99825" lon="0.311">
        <ele>1161.4</ele>
        <time>2026-07-08T08:35:37Z</time>
      </trkpt>
      <trkpt lat="42.99824" lon="0.311">
        <ele>1161.4</ele>
        <time>2026-07-08T08:35:38Z</time>
      </trkpt>
      <trkpt lat="42.99824" lon="0.311">
        <ele>1161.4</ele>
        <time>2026-07-08T08:35:38Z</time>
      </trkpt>
      <trkpt lat="42.99823" lon="0.311">
        <ele>1160.4</ele>
        <time>2026-07-08T08:35:39Z</time>
      </trkpt>
      <trkpt lat="42.99823" lon="0.311">
        <ele>1160.4</ele>
        <time>2026-07-08T08:35:40Z</time>
      </trkpt>
      <trkpt lat="42.99822" lon="0.311">
        <ele>1160.4</ele>
        <time>2026-07-08T08:35:40Z</time>
      </trkpt>
      <trkpt lat="42.99822" lon="0.31099">
        <ele>1159.4</ele>
        <time>2026-07-08T08:35:41Z</time>
      </trkpt>
      <trkpt lat="42.99821" lon="0.31099">
        <ele>1159.4</ele>
        <time>2026-07-08T08:35:42Z</time>
      </trkpt>
      <trkpt lat="42.99821" lon="0.31099">
        <ele>1159.4</ele>
        <time>2026-07-08T08:35:42Z</time>
      </trkpt>
      <trkpt lat="42.9982" lon="0.31098">
        <ele>1159.4</ele>
        <time>2026-07-08T08:35:43Z</time>
      </trkpt>
      <trkpt lat="42.9982" lon="0.31097">
        <ele>1159.4</ele>
        <time>2026-07-08T08:35:43Z</time>
      </trkpt>
      <trkpt lat="42.99819" lon="0.31097">
        <ele>1159.4</ele>
        <time>2026-07-08T08:35:44Z</time>
      </trkpt>
      <trkpt lat="42.99818" lon="0.31095">
        <ele>1159.4</ele>
        <time>2026-07-08T08:35:45Z</time>
      </trkpt>
      <trkpt lat="42.99817" lon="0.31095">
        <ele>1159.4</ele>
        <time>2026-07-08T08:35:46Z</time>
      </trkpt>
      <trkpt lat="42.99816" lon="0.31095">
        <ele>1159.4</ele>
        <time>2026-07-08T08:35:47Z</time>
      </trkpt>
      <trkpt lat="42.99816" lon="0.31095">
        <ele>1159.4</ele>
        <time>2026-07-08T08:35:47Z</time>
      </trkpt>
      <trkpt lat="42.99815" lon="0.31095">
        <ele>1159.4</ele>
        <time>2026-07-08T08:35:48Z</time>
      </trkpt>
      <trkpt lat="42.99814" lon="0.31095">
        <ele>1158.4</ele>
        <time>2026-07-08T08:35:48Z</time>
      </trkpt>
      <trkpt lat="42.99814" lon="0.31095">
        <ele>1158.4</ele>
        <time>2026-07-08T08:35:49Z</time>
      </trkpt>
      <trkpt lat="42.99813" lon="0.31095">
        <ele>1158.4</ele>
        <time>2026-07-08T08:35:50Z</time>
      </trkpt>
      <trkpt lat="42.99812" lon="0.31096">
        <ele>1158.4</ele>
        <time>2026-07-08T08:35:51Z</time>
      </trkpt>
      <trkpt lat="42.99812" lon="0.31097">
        <ele>1158.4</ele>
        <time>2026-07-08T08:35:51Z</time>
      </trkpt>
      <trkpt lat="42.99811" lon="0.31098">
        <ele>1158.4</ele>
        <time>2026-07-08T08:35:52Z</time>
      </trkpt>
      <trkpt lat="42.99811" lon="0.31099">
        <ele>1158.4</ele>
        <time>2026-07-08T08:35:52Z</time>
      </trkpt>
      <trkpt lat="42.99811" lon="0.311">
        <ele>1158.4</ele>
        <time>2026-07-08T08:35:53Z</time>
      </trkpt>
      <trkpt lat="42.99811" lon="0.31101">
        <ele>1157.4</ele>
        <time>2026-07-08T08:35:54Z</time>
      </trkpt>
      <trkpt lat="42.9981" lon="0.31101">
        <ele>1158.4</ele>
        <time>2026-07-08T08:35:54Z</time>
      </trkpt>
      <trkpt lat="42.9981" lon="0.31102">
        <ele>1158.4</ele>
        <time>2026-07-08T08:35:55Z</time>
      </trkpt>
      <trkpt lat="42.9981" lon="0.31103">
        <ele>1157.4</ele>
        <time>2026-07-08T08:35:55Z</time>
      </trkpt>
      <trkpt lat="42.99809" lon="0.31103">
        <ele>1157.4</ele>
        <time>2026-07-08T08:35:56Z</time>
      </trkpt>
      <trkpt lat="42.99809" lon="0.31104">
        <ele>1157.4</ele>
        <time>2026-07-08T08:35:57Z</time>
      </trkpt>
      <trkpt lat="42.99808" lon="0.31105">
        <ele>1157.4</ele>
        <time>2026-07-08T08:35:57Z</time>
      </trkpt>
      <trkpt lat="42.99808" lon="0.31105">
        <ele>1157.4</ele>
        <time>2026-07-08T08:35:58Z</time>
      </trkpt>
      <trkpt lat="42.99808" lon="0.31106">
        <ele>1157.4</ele>
        <time>2026-07-08T08:35:59Z</time>
      </trkpt>
      <trkpt lat="42.99807" lon="0.31106">
        <ele>1157.4</ele>
        <time>2026-07-08T08:35:59Z</time>
      </trkpt>
      <trkpt lat="42.99806" lon="0.31107">
        <ele>1157.4</ele>
        <time>2026-07-08T08:36:00Z</time>
      </trkpt>
      <trkpt lat="42.99805" lon="0.31108">
        <ele>1157.4</ele>
        <time>2026-07-08T08:36:01Z</time>
      </trkpt>
      <trkpt lat="42.99805" lon="0.31108">
        <ele>1157.4</ele>
        <time>2026-07-08T08:36:01Z</time>
      </trkpt>
      <trkpt lat="42.99804" lon="0.31108">
        <ele>1157.4</ele>
        <time>2026-07-08T08:36:02Z</time>
      </trkpt>
      <trkpt lat="42.99804" lon="0.31108">
        <ele>1157.4</ele>
        <time>2026-07-08T08:36:02Z</time>
      </trkpt>
      <trkpt lat="42.99803" lon="0.31109">
        <ele>1157.4</ele>
        <time>2026-07-08T08:36:03Z</time>
      </trkpt>
      <trkpt lat="42.99802" lon="0.31109">
        <ele>1157.4</ele>
        <time>2026-07-08T08:36:03Z</time>
      </trkpt>
      <trkpt lat="42.99802" lon="0.31109">
        <ele>1157.4</ele>
        <time>2026-07-08T08:36:04Z</time>
      </trkpt>
      <trkpt lat="42.99801" lon="0.31109">
        <ele>1157.4</ele>
        <time>2026-07-08T08:36:05Z</time>
      </trkpt>
      <trkpt lat="42.998" lon="0.31108">
        <ele>1158.4</ele>
        <time>2026-07-08T08:36:05Z</time>
      </trkpt>
      <trkpt lat="42.99799" lon="0.31108">
        <ele>1158.4</ele>
        <time>2026-07-08T08:36:06Z</time>
      </trkpt>
      <trkpt lat="42.99798" lon="0.31107">
        <ele>1159.4</ele>
        <time>2026-07-08T08:36:06Z</time>
      </trkpt>
      <trkpt lat="42.99797" lon="0.31107">
        <ele>1159.4</ele>
        <time>2026-07-08T08:36:07Z</time>
      </trkpt>
      <trkpt lat="42.99796" lon="0.31106">
        <ele>1159.4</ele>
        <time>2026-07-08T08:36:08Z</time>
      </trkpt>
      <trkpt lat="42.99795" lon="0.31105">
        <ele>1160.4</ele>
        <time>2026-07-08T08:36:08Z</time>
      </trkpt>
      <trkpt lat="42.99794" lon="0.31104">
        <ele>1160.4</ele>
        <time>2026-07-08T08:36:09Z</time>
      </trkpt>
      <trkpt lat="42.99793" lon="0.31104">
        <ele>1160.4</ele>
        <time>2026-07-08T08:36:10Z</time>
      </trkpt>
      <trkpt lat="42.99792" lon="0.31103">
        <ele>1161.4</ele>
        <time>2026-07-08T08:36:11Z</time>
      </trkpt>
      <trkpt lat="42.99792" lon="0.31103">
        <ele>1161.4</ele>
        <time>2026-07-08T08:36:11Z</time>
      </trkpt>
      <trkpt lat="42.99791" lon="0.31103">
        <ele>1161.4</ele>
        <time>2026-07-08T08:36:12Z</time>
      </trkpt>
      <trkpt lat="42.99791" lon="0.31102">
        <ele>1161.4</ele>
        <time>2026-07-08T08:36:13Z</time>
      </trkpt>
      <trkpt lat="42.99791" lon="0.31102">
        <ele>1161.4</ele>
        <time>2026-07-08T08:36:13Z</time>
      </trkpt>
      <trkpt lat="42.9979" lon="0.31101">
        <ele>1161.4</ele>
        <time>2026-07-08T08:36:14Z</time>
      </trkpt>
      <trkpt lat="42.9979" lon="0.311">
        <ele>1162.4</ele>
        <time>2026-07-08T08:36:15Z</time>
      </trkpt>
      <trkpt lat="42.9979" lon="0.311">
        <ele>1163.4</ele>
        <time>2026-07-08T08:36:16Z</time>
      </trkpt>
      <trkpt lat="42.9979" lon="0.311">
        <ele>1163.4</ele>
        <time>2026-07-08T08:36:16Z</time>
      </trkpt>
      <trkpt lat="42.99789" lon="0.31099">
        <ele>1164.4</ele>
        <time>2026-07-08T08:36:17Z</time>
      </trkpt>
      <trkpt lat="42.99789" lon="0.31098">
        <ele>1164.4</ele>
        <time>2026-07-08T08:36:17Z</time>
      </trkpt>
      <trkpt lat="42.99789" lon="0.31097">
        <ele>1164.4</ele>
        <time>2026-07-08T08:36:18Z</time>
      </trkpt>
      <trkpt lat="42.99788" lon="0.31097">
        <ele>1164.4</ele>
        <time>2026-07-08T08:36:18Z</time>
      </trkpt>
      <trkpt lat="42.99788" lon="0.31096">
        <ele>1164.4</ele>
        <time>2026-07-08T08:36:19Z</time>
      </trkpt>
      <trkpt lat="42.99788" lon="0.31095">
        <ele>1164.4</ele>
        <time>2026-07-08T08:36:19Z</time>
      </trkpt>
      <trkpt lat="42.99787" lon="0.31095">
        <ele>1164.4</ele>
        <time>2026-07-08T08:36:20Z</time>
      </trkpt>
      <trkpt lat="42.99786" lon="0.31094">
        <ele>1164.4</ele>
        <time>2026-07-08T08:36:21Z</time>
      </trkpt>
      <trkpt lat="42.99786" lon="0.31093">
        <ele>1164.4</ele>
        <time>2026-07-08T08:36:21Z</time>
      </trkpt>
      <trkpt lat="42.99785" lon="0.31092">
        <ele>1164.4</ele>
        <time>2026-07-08T08:36:22Z</time>
      </trkpt>
      <trkpt lat="42.99784" lon="0.31091">
        <ele>1164.4</ele>
        <time>2026-07-08T08:36:23Z</time>
      </trkpt>
      <trkpt lat="42.99783" lon="0.3109">
        <ele>1164.4</ele>
        <time>2026-07-08T08:36:24Z</time>
      </trkpt>
      <trkpt lat="42.99782" lon="0.31089">
        <ele>1165.4</ele>
        <time>2026-07-08T08:36:24Z</time>
      </trkpt>
      <trkpt lat="42.99781" lon="0.31089">
        <ele>1165.4</ele>
        <time>2026-07-08T08:36:25Z</time>
      </trkpt>
      <trkpt lat="42.99781" lon="0.31088">
        <ele>1165.4</ele>
        <time>2026-07-08T08:36:26Z</time>
      </trkpt>
      <trkpt lat="42.9978" lon="0.31087">
        <ele>1166.4</ele>
        <time>2026-07-08T08:36:26Z</time>
      </trkpt>
      <trkpt lat="42.99779" lon="0.31086">
        <ele>1166.4</ele>
        <time>2026-07-08T08:36:27Z</time>
      </trkpt>
      <trkpt lat="42.99779" lon="0.31085">
        <ele>1166.4</ele>
        <time>2026-07-08T08:36:27Z</time>
      </trkpt>
      <trkpt lat="42.99778" lon="0.31084">
        <ele>1166.4</ele>
        <time>2026-07-08T08:36:28Z</time>
      </trkpt>
      <trkpt lat="42.99778" lon="0.31084">
        <ele>1166.4</ele>
        <time>2026-07-08T08:36:29Z</time>
      </trkpt>
      <trkpt lat="42.99777" lon="0.31083">
        <ele>1166.4</ele>
        <time>2026-07-08T08:36:29Z</time>
      </trkpt>
      <trkpt lat="42.99776" lon="0.31082">
        <ele>1166.4</ele>
        <time>2026-07-08T08:36:30Z</time>
      </trkpt>
      <trkpt lat="42.99776" lon="0.31081">
        <ele>1166.4</ele>
        <time>2026-07-08T08:36:30Z</time>
      </trkpt>
      <trkpt lat="42.99776" lon="0.31081">
        <ele>1166.4</ele>
        <time>2026-07-08T08:36:31Z</time>
      </trkpt>
      <trkpt lat="42.99775" lon="0.3108">
        <ele>1167.4</ele>
        <time>2026-07-08T08:36:31Z</time>
      </trkpt>
      <trkpt lat="42.99775" lon="0.31079">
        <ele>1168.4</ele>
        <time>2026-07-08T08:36:32Z</time>
      </trkpt>
      <trkpt lat="42.99775" lon="0.31078">
        <ele>1168.4</ele>
        <time>2026-07-08T08:36:33Z</time>
      </trkpt>
      <trkpt lat="42.99774" lon="0.31077">
        <ele>1168.4</ele>
        <time>2026-07-08T08:36:33Z</time>
      </trkpt>
      <trkpt lat="42.99774" lon="0.31076">
        <ele>1168.4</ele>
        <time>2026-07-08T08:36:34Z</time>
      </trkpt>
      <trkpt lat="42.99774" lon="0.31075">
        <ele>1168.4</ele>
        <time>2026-07-08T08:36:34Z</time>
      </trkpt>
      <trkpt lat="42.99773" lon="0.31074">
        <ele>1168.4</ele>
        <time>2026-07-08T08:36:35Z</time>
      </trkpt>
      <trkpt lat="42.99773" lon="0.31074">
        <ele>1168.4</ele>
        <time>2026-07-08T08:36:36Z</time>
      </trkpt>
      <trkpt lat="42.99773" lon="0.31073">
        <ele>1167.4</ele>
        <time>2026-07-08T08:36:36Z</time>
      </trkpt>
      <trkpt lat="42.99773" lon="0.31072">
        <ele>1167.4</ele>
        <time>2026-07-08T08:36:37Z</time>
      </trkpt>
      <trkpt lat="42.99773" lon="0.31071">
        <ele>1166.4</ele>
        <time>2026-07-08T08:36:37Z</time>
      </trkpt>
      <trkpt lat="42.99772" lon="0.3107">
        <ele>1166.4</ele>
        <time>2026-07-08T08:36:38Z</time>
      </trkpt>
      <trkpt lat="42.99772" lon="0.31068">
        <ele>1166.4</ele>
        <time>2026-07-08T08:36:39Z</time>
      </trkpt>
      <trkpt lat="42.99772" lon="0.31067">
        <ele>1166.4</ele>
        <time>2026-07-08T08:36:40Z</time>
      </trkpt>
      <trkpt lat="42.99772" lon="0.31067">
        <ele>1166.4</ele>
        <time>2026-07-08T08:36:40Z</time>
      </trkpt>
      <trkpt lat="42.99771" lon="0.31066">
        <ele>1166.4</ele>
        <time>2026-07-08T08:36:41Z</time>
      </trkpt>
      <trkpt lat="42.99771" lon="0.31065">
        <ele>1166.4</ele>
        <time>2026-07-08T08:36:41Z</time>
      </trkpt>
      <trkpt lat="42.99771" lon="0.31064">
        <ele>1166.4</ele>
        <time>2026-07-08T08:36:42Z</time>
      </trkpt>
      <trkpt lat="42.9977" lon="0.31064">
        <ele>1166.4</ele>
        <time>2026-07-08T08:36:43Z</time>
      </trkpt>
      <trkpt lat="42.9977" lon="0.31063">
        <ele>1166.4</ele>
        <time>2026-07-08T08:36:43Z</time>
      </trkpt>
      <trkpt lat="42.9977" lon="0.31062">
        <ele>1166.4</ele>
        <time>2026-07-08T08:36:44Z</time>
      </trkpt>
      <trkpt lat="42.99769" lon="0.31061">
        <ele>1166.4</ele>
        <time>2026-07-08T08:36:45Z</time>
      </trkpt>
      <trkpt lat="42.99769" lon="0.3106">
        <ele>1165.4</ele>
        <time>2026-07-08T08:36:45Z</time>
      </trkpt>
      <trkpt lat="42.99769" lon="0.31059">
        <ele>1165.4</ele>
        <time>2026-07-08T08:36:46Z</time>
      </trkpt>
      <trkpt lat="42.99768" lon="0.31059">
        <ele>1166.4</ele>
        <time>2026-07-08T08:36:47Z</time>
      </trkpt>
      <trkpt lat="42.99768" lon="0.31058">
        <ele>1166.4</ele>
        <time>2026-07-08T08:36:47Z</time>
      </trkpt>
      <trkpt lat="42.99768" lon="0.31058">
        <ele>1166.4</ele>
        <time>2026-07-08T08:36:48Z</time>
      </trkpt>
      <trkpt lat="42.99767" lon="0.31057">
        <ele>1166.4</ele>
        <time>2026-07-08T08:36:48Z</time>
      </trkpt>
      <trkpt lat="42.99767" lon="0.31056">
        <ele>1166.4</ele>
        <time>2026-07-08T08:36:49Z</time>
      </trkpt>
      <trkpt lat="42.99767" lon="0.31056">
        <ele>1166.4</ele>
        <time>2026-07-08T08:36:49Z</time>
      </trkpt>
      <trkpt lat="42.99767" lon="0.31055">
        <ele>1166.4</ele>
        <time>2026-07-08T08:36:50Z</time>
      </trkpt>
      <trkpt lat="42.99767" lon="0.31054">
        <ele>1165.4</ele>
        <time>2026-07-08T08:36:50Z</time>
      </trkpt>
      <trkpt lat="42.99767" lon="0.31054">
        <ele>1165.4</ele>
        <time>2026-07-08T08:36:51Z</time>
      </trkpt>
      <trkpt lat="42.99767" lon="0.31053">
        <ele>1166.4</ele>
        <time>2026-07-08T08:36:52Z</time>
      </trkpt>
      <trkpt lat="42.99767" lon="0.31053">
        <ele>1166.4</ele>
        <time>2026-07-08T08:36:52Z</time>
      </trkpt>
      <trkpt lat="42.99767" lon="0.31052">
        <ele>1166.4</ele>
        <time>2026-07-08T08:36:53Z</time>
      </trkpt>
      <trkpt lat="42.99767" lon="0.31051">
        <ele>1165.4</ele>
        <time>2026-07-08T08:36:53Z</time>
      </trkpt>
      <trkpt lat="42.99767" lon="0.3105">
        <ele>1165.4</ele>
        <time>2026-07-08T08:36:54Z</time>
      </trkpt>
      <trkpt lat="42.99767" lon="0.3105">
        <ele>1166.4</ele>
        <time>2026-07-08T08:36:54Z</time>
      </trkpt>
      <trkpt lat="42.99767" lon="0.31049">
        <ele>1166.4</ele>
        <time>2026-07-08T08:36:55Z</time>
      </trkpt>
      <trkpt lat="42.99767" lon="0.31048">
        <ele>1165.4</ele>
        <time>2026-07-08T08:36:56Z</time>
      </trkpt>
      <trkpt lat="42.99766" lon="0.31047">
        <ele>1166.4</ele>
        <time>2026-07-08T08:36:56Z</time>
      </trkpt>
      <trkpt lat="42.99766" lon="0.31047">
        <ele>1166.4</ele>
        <time>2026-07-08T08:36:57Z</time>
      </trkpt>
      <trkpt lat="42.99766" lon="0.31046">
        <ele>1165.4</ele>
        <time>2026-07-08T08:36:57Z</time>
      </trkpt>
      <trkpt lat="42.99766" lon="0.31045">
        <ele>1165.4</ele>
        <time>2026-07-08T08:36:58Z</time>
      </trkpt>
      <trkpt lat="42.99765" lon="0.31044">
        <ele>1164.4</ele>
        <time>2026-07-08T08:36:59Z</time>
      </trkpt>
      <trkpt lat="42.99765" lon="0.31043">
        <ele>1164.4</ele>
        <time>2026-07-08T08:36:59Z</time>
      </trkpt>
      <trkpt lat="42.99765" lon="0.31042">
        <ele>1164.4</ele>
        <time>2026-07-08T08:37:00Z</time>
      </trkpt>
      <trkpt lat="42.99765" lon="0.31041">
        <ele>1164.4</ele>
        <time>2026-07-08T08:37:01Z</time>
      </trkpt>
      <trkpt lat="42.99765" lon="0.3104">
        <ele>1164.4</ele>
        <time>2026-07-08T08:37:01Z</time>
      </trkpt>
      <trkpt lat="42.99765" lon="0.31039">
        <ele>1164.4</ele>
        <time>2026-07-08T08:37:02Z</time>
      </trkpt>
      <trkpt lat="42.99764" lon="0.31038">
        <ele>1163.4</ele>
        <time>2026-07-08T08:37:03Z</time>
      </trkpt>
      <trkpt lat="42.99764" lon="0.31037">
        <ele>1163.4</ele>
        <time>2026-07-08T08:37:04Z</time>
      </trkpt>
      <trkpt lat="42.99764" lon="0.31037">
        <ele>1163.4</ele>
        <time>2026-07-08T08:37:04Z</time>
      </trkpt>
      <trkpt lat="42.99764" lon="0.31036">
        <ele>1163.4</ele>
        <time>2026-07-08T08:37:05Z</time>
      </trkpt>
      <trkpt lat="42.99764" lon="0.31035">
        <ele>1163.4</ele>
        <time>2026-07-08T08:37:05Z</time>
      </trkpt>
      <trkpt lat="42.99764" lon="0.31035">
        <ele>1163.4</ele>
        <time>2026-07-08T08:37:06Z</time>
      </trkpt>
      <trkpt lat="42.99763" lon="0.31034">
        <ele>1163.4</ele>
        <time>2026-07-08T08:37:06Z</time>
      </trkpt>
      <trkpt lat="42.99763" lon="0.31033">
        <ele>1163.4</ele>
        <time>2026-07-08T08:37:07Z</time>
      </trkpt>
      <trkpt lat="42.99763" lon="0.31032">
        <ele>1163.4</ele>
        <time>2026-07-08T08:37:08Z</time>
      </trkpt>
      <trkpt lat="42.99763" lon="0.31032">
        <ele>1164.4</ele>
        <time>2026-07-08T08:37:08Z</time>
      </trkpt>
      <trkpt lat="42.99763" lon="0.31031">
        <ele>1164.4</ele>
        <time>2026-07-08T08:37:09Z</time>
      </trkpt>
      <trkpt lat="42.99762" lon="0.3103">
        <ele>1164.4</ele>
        <time>2026-07-08T08:37:10Z</time>
      </trkpt>
      <trkpt lat="42.99762" lon="0.31029">
        <ele>1164.4</ele>
        <time>2026-07-08T08:37:10Z</time>
      </trkpt>
      <trkpt lat="42.99762" lon="0.31028">
        <ele>1164.4</ele>
        <time>2026-07-08T08:37:11Z</time>
      </trkpt>
      <trkpt lat="42.99762" lon="0.31028">
        <ele>1164.4</ele>
        <time>2026-07-08T08:37:12Z</time>
      </trkpt>
      <trkpt lat="42.99762" lon="0.31028">
        <ele>1164.4</ele>
        <time>2026-07-08T08:37:12Z</time>
      </trkpt>
      <trkpt lat="42.99762" lon="0.31027">
        <ele>1164.4</ele>
        <time>2026-07-08T08:37:13Z</time>
      </trkpt>
      <trkpt lat="42.99762" lon="0.31027">
        <ele>1164.4</ele>
        <time>2026-07-08T08:37:13Z</time>
      </trkpt>
      <trkpt lat="42.99761" lon="0.31026">
        <ele>1164.4</ele>
        <time>2026-07-08T08:37:14Z</time>
      </trkpt>
      <trkpt lat="42.99761" lon="0.31026">
        <ele>1164.4</ele>
        <time>2026-07-08T08:37:15Z</time>
      </trkpt>
      <trkpt lat="42.99761" lon="0.31025">
        <ele>1164.4</ele>
        <time>2026-07-08T08:37:15Z</time>
      </trkpt>
      <trkpt lat="42.9976" lon="0.31025">
        <ele>1164.4</ele>
        <time>2026-07-08T08:37:16Z</time>
      </trkpt>
      <trkpt lat="42.9976" lon="0.31024">
        <ele>1164.4</ele>
        <time>2026-07-08T08:37:17Z</time>
      </trkpt>
      <trkpt lat="42.9976" lon="0.31023">
        <ele>1164.4</ele>
        <time>2026-07-08T08:37:18Z</time>
      </trkpt>
      <trkpt lat="42.9976" lon="0.31022">
        <ele>1164.4</ele>
        <time>2026-07-08T08:37:18Z</time>
      </trkpt>
      <trkpt lat="42.9976" lon="0.31021">
        <ele>1164.4</ele>
        <time>2026-07-08T08:37:19Z</time>
      </trkpt>
      <trkpt lat="42.99759" lon="0.3102">
        <ele>1164.4</ele>
        <time>2026-07-08T08:37:20Z</time>
      </trkpt>
      <trkpt lat="42.99759" lon="0.31019">
        <ele>1163.4</ele>
        <time>2026-07-08T08:37:20Z</time>
      </trkpt>
      <trkpt lat="42.99759" lon="0.31019">
        <ele>1163.4</ele>
        <time>2026-07-08T08:37:21Z</time>
      </trkpt>
      <trkpt lat="42.99759" lon="0.31018">
        <ele>1163.4</ele>
        <time>2026-07-08T08:37:22Z</time>
      </trkpt>
      <trkpt lat="42.99758" lon="0.31017">
        <ele>1163.4</ele>
        <time>2026-07-08T08:37:22Z</time>
      </trkpt>
      <trkpt lat="42.99758" lon="0.31017">
        <ele>1163.4</ele>
        <time>2026-07-08T08:37:23Z</time>
      </trkpt>
      <trkpt lat="42.99758" lon="0.31016">
        <ele>1163.4</ele>
        <time>2026-07-08T08:37:24Z</time>
      </trkpt>
      <trkpt lat="42.99758" lon="0.31015">
        <ele>1163.4</ele>
        <time>2026-07-08T08:37:24Z</time>
      </trkpt>
      <trkpt lat="42.99757" lon="0.31014">
        <ele>1163.4</ele>
        <time>2026-07-08T08:37:25Z</time>
      </trkpt>
      <trkpt lat="42.99757" lon="0.31014">
        <ele>1163.4</ele>
        <time>2026-07-08T08:37:26Z</time>
      </trkpt>
      <trkpt lat="42.99757" lon="0.31013">
        <ele>1163.4</ele>
        <time>2026-07-08T08:37:26Z</time>
      </trkpt>
      <trkpt lat="42.99756" lon="0.31013">
        <ele>1163.4</ele>
        <time>2026-07-08T08:37:27Z</time>
      </trkpt>
      <trkpt lat="42.99756" lon="0.31012">
        <ele>1162.4</ele>
        <time>2026-07-08T08:37:28Z</time>
      </trkpt>
      <trkpt lat="42.99756" lon="0.31011">
        <ele>1162.4</ele>
        <time>2026-07-08T08:37:29Z</time>
      </trkpt>
      <trkpt lat="42.99755" lon="0.3101">
        <ele>1162.4</ele>
        <time>2026-07-08T08:37:30Z</time>
      </trkpt>
      <trkpt lat="42.99755" lon="0.31009">
        <ele>1162.4</ele>
        <time>2026-07-08T08:37:30Z</time>
      </trkpt>
      <trkpt lat="42.99755" lon="0.31009">
        <ele>1162.4</ele>
        <time>2026-07-08T08:37:31Z</time>
      </trkpt>
      <trkpt lat="42.99755" lon="0.31008">
        <ele>1162.4</ele>
        <time>2026-07-08T08:37:31Z</time>
      </trkpt>
      <trkpt lat="42.99755" lon="0.31008">
        <ele>1162.4</ele>
        <time>2026-07-08T08:37:32Z</time>
      </trkpt>
      <trkpt lat="42.99754" lon="0.31007">
        <ele>1162.4</ele>
        <time>2026-07-08T08:37:33Z</time>
      </trkpt>
      <trkpt lat="42.99754" lon="0.31006">
        <ele>1162.4</ele>
        <time>2026-07-08T08:37:34Z</time>
      </trkpt>
      <trkpt lat="42.99754" lon="0.31006">
        <ele>1161.4</ele>
        <time>2026-07-08T08:37:34Z</time>
      </trkpt>
      <trkpt lat="42.99754" lon="0.31005">
        <ele>1161.4</ele>
        <time>2026-07-08T08:37:35Z</time>
      </trkpt>
      <trkpt lat="42.99754" lon="0.31005">
        <ele>1161.4</ele>
        <time>2026-07-08T08:37:36Z</time>
      </trkpt>
      <trkpt lat="42.99754" lon="0.31005">
        <ele>1161.4</ele>
        <time>2026-07-08T08:37:36Z</time>
      </trkpt>
      <trkpt lat="42.99754" lon="0.31004">
        <ele>1161.4</ele>
        <time>2026-07-08T08:37:37Z</time>
      </trkpt>
      <trkpt lat="42.99754" lon="0.31004">
        <ele>1161.4</ele>
        <time>2026-07-08T08:37:38Z</time>
      </trkpt>
      <trkpt lat="42.99753" lon="0.31004">
        <ele>1160.4</ele>
        <time>2026-07-08T08:37:39Z</time>
      </trkpt>
      <trkpt lat="42.99753" lon="0.31004">
        <ele>1160.4</ele>
        <time>2026-07-08T08:37:40Z</time>
      </trkpt>
      <trkpt lat="42.99753" lon="0.31005">
        <ele>1160.4</ele>
        <time>2026-07-08T08:37:41Z</time>
      </trkpt>
      <trkpt lat="42.99753" lon="0.31005">
        <ele>1160.4</ele>
        <time>2026-07-08T08:37:42Z</time>
      </trkpt>
      <trkpt lat="42.99753" lon="0.31005">
        <ele>1160.4</ele>
        <time>2026-07-08T08:37:42Z</time>
      </trkpt>
      <trkpt lat="42.99753" lon="0.31004">
        <ele>1163.4</ele>
        <time>2026-07-08T08:37:43Z</time>
      </trkpt>
      <trkpt lat="42.99753" lon="0.31004">
        <ele>1163.4</ele>
        <time>2026-07-08T08:37:43Z</time>
      </trkpt>
      <trkpt lat="42.99753" lon="0.31004">
        <ele>1165.4</ele>
        <time>2026-07-08T08:37:44Z</time>
      </trkpt>
      <trkpt lat="42.99753" lon="0.31004">
        <ele>1165.4</ele>
        <time>2026-07-08T08:37:45Z</time>
      </trkpt>
      <trkpt lat="42.99753" lon="0.31003">
        <ele>1165.4</ele>
        <time>2026-07-08T08:37:46Z</time>
      </trkpt>
      <trkpt lat="42.99753" lon="0.31003">
        <ele>1165.4</ele>
        <time>2026-07-08T08:37:47Z</time>
      </trkpt>
      <trkpt lat="42.99753" lon="0.31003">
        <ele>1165.4</ele>
        <time>2026-07-08T08:37:48Z</time>
      </trkpt>
      <trkpt lat="42.99752" lon="0.31003">
        <ele>1165.4</ele>
        <time>2026-07-08T08:37:49Z</time>
      </trkpt>
      <trkpt lat="42.99752" lon="0.31002">
        <ele>1165.4</ele>
        <time>2026-07-08T08:37:50Z</time>
      </trkpt>
      <trkpt lat="42.99752" lon="0.31002">
        <ele>1165.4</ele>
        <time>2026-07-08T08:37:51Z</time>
      </trkpt>
      <trkpt lat="42.99752" lon="0.31002">
        <ele>1165.4</ele>
        <time>2026-07-08T08:37:52Z</time>
      </trkpt>
      <trkpt lat="42.99752" lon="0.31002">
        <ele>1165.4</ele>
        <time>2026-07-08T08:37:53Z</time>
      </trkpt>
      <trkpt lat="42.99752" lon="0.31002">
        <ele>1165.4</ele>
        <time>2026-07-08T08:37:54Z</time>
      </trkpt>
      <trkpt lat="42.99752" lon="0.31002">
        <ele>1165.4</ele>
        <time>2026-07-08T08:37:55Z</time>
      </trkpt>
      <trkpt lat="42.99752" lon="0.31002">
        <ele>1165.4</ele>
        <time>2026-07-08T08:37:56Z</time>
      </trkpt>
      <trkpt lat="42.99752" lon="0.31002">
        <ele>1165.4</ele>
        <time>2026-07-08T08:37:57Z</time>
      </trkpt>
      <trkpt lat="42.99752" lon="0.31002">
        <ele>1165.4</ele>
        <time>2026-07-08T08:37:58Z</time>
      </trkpt>
      <trkpt lat="42.99752" lon="0.31002">
        <ele>1165.4</ele>
        <time>2026-07-08T08:37:59Z</time>
      </trkpt>
      <trkpt lat="42.99752" lon="0.31002">
        <ele>1165.4</ele>
        <time>2026-07-08T08:38:00Z</time>
      </trkpt>
      <trkpt lat="42.99752" lon="0.31001">
        <ele>1165.4</ele>
        <time>2026-07-08T08:38:01Z</time>
      </trkpt>
      <trkpt lat="42.99752" lon="0.31001">
        <ele>1165.4</ele>
        <time>2026-07-08T08:38:02Z</time>
      </trkpt>
      <trkpt lat="42.99751" lon="0.31001">
        <ele>1165.4</ele>
        <time>2026-07-08T08:38:03Z</time>
      </trkpt>
      <trkpt lat="42.99751" lon="0.31">
        <ele>1165.4</ele>
        <time>2026-07-08T08:38:03Z</time>
      </trkpt>
      <trkpt lat="42.99751" lon="0.31">
        <ele>1165.4</ele>
        <time>2026-07-08T08:38:04Z</time>
      </trkpt>
      <trkpt lat="42.9975" lon="0.31001">
        <ele>1165.4</ele>
        <time>2026-07-08T08:38:05Z</time>
      </trkpt>
      <trkpt lat="42.9975" lon="0.31001">
        <ele>1166.4</ele>
        <time>2026-07-08T08:38:05Z</time>
      </trkpt>
      <trkpt lat="42.9975" lon="0.31002">
        <ele>1166.4</ele>
        <time>2026-07-08T08:38:06Z</time>
      </trkpt>
      <trkpt lat="42.9975" lon="0.31003">
        <ele>1167.4</ele>
        <time>2026-07-08T08:38:06Z</time>
      </trkpt>
      <trkpt lat="42.9975" lon="0.31004">
        <ele>1166.4</ele>
        <time>2026-07-08T08:38:07Z</time>
      </trkpt>
      <trkpt lat="42.99751" lon="0.31005">
        <ele>1166.4</ele>
        <time>2026-07-08T08:38:08Z</time>
      </trkpt>
      <trkpt lat="42.99751" lon="0.31006">
        <ele>1167.4</ele>
        <time>2026-07-08T08:38:09Z</time>
      </trkpt>
      <trkpt lat="42.99751" lon="0.31006">
        <ele>1167.4</ele>
        <time>2026-07-08T08:38:09Z</time>
      </trkpt>
      <trkpt lat="42.99751" lon="0.31007">
        <ele>1167.4</ele>
        <time>2026-07-08T08:38:10Z</time>
      </trkpt>
      <trkpt lat="42.99751" lon="0.31008">
        <ele>1167.4</ele>
        <time>2026-07-08T08:38:10Z</time>
      </trkpt>
      <trkpt lat="42.99751" lon="0.31009">
        <ele>1167.4</ele>
        <time>2026-07-08T08:38:11Z</time>
      </trkpt>
      <trkpt lat="42.99751" lon="0.3101">
        <ele>1167.4</ele>
        <time>2026-07-08T08:38:12Z</time>
      </trkpt>
      <trkpt lat="42.99751" lon="0.31011">
        <ele>1167.4</ele>
        <time>2026-07-08T08:38:12Z</time>
      </trkpt>
      <trkpt lat="42.99751" lon="0.31011">
        <ele>1168.4</ele>
        <time>2026-07-08T08:38:13Z</time>
      </trkpt>
      <trkpt lat="42.99752" lon="0.31012">
        <ele>1168.4</ele>
        <time>2026-07-08T08:38:14Z</time>
      </trkpt>
      <trkpt lat="42.99752" lon="0.31013">
        <ele>1168.4</ele>
        <time>2026-07-08T08:38:14Z</time>
      </trkpt>
      <trkpt lat="42.99752" lon="0.31014">
        <ele>1168.4</ele>
        <time>2026-07-08T08:38:15Z</time>
      </trkpt>
      <trkpt lat="42.99752" lon="0.31014">
        <ele>1168.4</ele>
        <time>2026-07-08T08:38:16Z</time>
      </trkpt>
      <trkpt lat="42.99752" lon="0.31015">
        <ele>1168.4</ele>
        <time>2026-07-08T08:38:16Z</time>
      </trkpt>
      <trkpt lat="42.99752" lon="0.31015">
        <ele>1168.4</ele>
        <time>2026-07-08T08:38:17Z</time>
      </trkpt>
      <trkpt lat="42.99751" lon="0.31017">
        <ele>1168.4</ele>
        <time>2026-07-08T08:38:18Z</time>
      </trkpt>
      <trkpt lat="42.99751" lon="0.31017">
        <ele>1168.4</ele>
        <time>2026-07-08T08:38:18Z</time>
      </trkpt>
      <trkpt lat="42.99751" lon="0.31018">
        <ele>1168.4</ele>
        <time>2026-07-08T08:38:19Z</time>
      </trkpt>
      <trkpt lat="42.99751" lon="0.31019">
        <ele>1168.4</ele>
        <time>2026-07-08T08:38:20Z</time>
      </trkpt>
      <trkpt lat="42.99751" lon="0.3102">
        <ele>1169.4</ele>
        <time>2026-07-08T08:38:20Z</time>
      </trkpt>
      <trkpt lat="42.99751" lon="0.3102">
        <ele>1169.4</ele>
        <time>2026-07-08T08:38:21Z</time>
      </trkpt>
      <trkpt lat="42.99751" lon="0.31021">
        <ele>1169.4</ele>
        <time>2026-07-08T08:38:22Z</time>
      </trkpt>
      <trkpt lat="42.99751" lon="0.31022">
        <ele>1170.4</ele>
        <time>2026-07-08T08:38:22Z</time>
      </trkpt>
      <trkpt lat="42.99751" lon="0.31023">
        <ele>1170.4</ele>
        <time>2026-07-08T08:38:23Z</time>
      </trkpt>
      <trkpt lat="42.99751" lon="0.31023">
        <ele>1169.4</ele>
        <time>2026-07-08T08:38:24Z</time>
      </trkpt>
      <trkpt lat="42.99752" lon="0.31024">
        <ele>1169.4</ele>
        <time>2026-07-08T08:38:24Z</time>
      </trkpt>
      <trkpt lat="42.99752" lon="0.31025">
        <ele>1169.4</ele>
        <time>2026-07-08T08:38:25Z</time>
      </trkpt>
      <trkpt lat="42.99752" lon="0.31026">
        <ele>1169.4</ele>
        <time>2026-07-08T08:38:25Z</time>
      </trkpt>
      <trkpt lat="42.99752" lon="0.31026">
        <ele>1169.4</ele>
        <time>2026-07-08T08:38:26Z</time>
      </trkpt>
      <trkpt lat="42.99753" lon="0.31027">
        <ele>1169.4</ele>
        <time>2026-07-08T08:38:27Z</time>
      </trkpt>
      <trkpt lat="42.99753" lon="0.31028">
        <ele>1169.4</ele>
        <time>2026-07-08T08:38:27Z</time>
      </trkpt>
      <trkpt lat="42.99754" lon="0.31028">
        <ele>1169.4</ele>
        <time>2026-07-08T08:38:28Z</time>
      </trkpt>
      <trkpt lat="42.99754" lon="0.31029">
        <ele>1170.4</ele>
        <time>2026-07-08T08:38:29Z</time>
      </trkpt>
      <trkpt lat="42.99754" lon="0.3103">
        <ele>1171.4</ele>
        <time>2026-07-08T08:38:29Z</time>
      </trkpt>
      <trkpt lat="42.99754" lon="0.31031">
        <ele>1171.4</ele>
        <time>2026-07-08T08:38:30Z</time>
      </trkpt>
      <trkpt lat="42.99754" lon="0.31032">
        <ele>1171.4</ele>
        <time>2026-07-08T08:38:30Z</time>
      </trkpt>
      <trkpt lat="42.99754" lon="0.31032">
        <ele>1171.4</ele>
        <time>2026-07-08T08:38:31Z</time>
      </trkpt>
      <trkpt lat="42.99754" lon="0.31033">
        <ele>1171.4</ele>
        <time>2026-07-08T08:38:31Z</time>
      </trkpt>
      <trkpt lat="42.99754" lon="0.31034">
        <ele>1171.4</ele>
        <time>2026-07-08T08:38:32Z</time>
      </trkpt>
      <trkpt lat="42.99754" lon="0.31035">
        <ele>1172.4</ele>
        <time>2026-07-08T08:38:33Z</time>
      </trkpt>
      <trkpt lat="42.99755" lon="0.31035">
        <ele>1172.4</ele>
        <time>2026-07-08T08:38:33Z</time>
      </trkpt>
      <trkpt lat="42.99755" lon="0.31037">
        <ele>1172.4</ele>
        <time>2026-07-08T08:38:34Z</time>
      </trkpt>
      <trkpt lat="42.99756" lon="0.31037">
        <ele>1173.4</ele>
        <time>2026-07-08T08:38:35Z</time>
      </trkpt>
      <trkpt lat="42.99756" lon="0.31038">
        <ele>1173.4</ele>
        <time>2026-07-08T08:38:35Z</time>
      </trkpt>
      <trkpt lat="42.99756" lon="0.31039">
        <ele>1173.4</ele>
        <time>2026-07-08T08:38:36Z</time>
      </trkpt>
      <trkpt lat="42.99756" lon="0.3104">
        <ele>1173.4</ele>
        <time>2026-07-08T08:38:36Z</time>
      </trkpt>
      <trkpt lat="42.99756" lon="0.3104">
        <ele>1173.4</ele>
        <time>2026-07-08T08:38:37Z</time>
      </trkpt>
      <trkpt lat="42.99756" lon="0.31041">
        <ele>1173.4</ele>
        <time>2026-07-08T08:38:38Z</time>
      </trkpt>
      <trkpt lat="42.99756" lon="0.31042">
        <ele>1174.4</ele>
        <time>2026-07-08T08:38:38Z</time>
      </trkpt>
      <trkpt lat="42.99756" lon="0.31043">
        <ele>1174.4</ele>
        <time>2026-07-08T08:38:39Z</time>
      </trkpt>
      <trkpt lat="42.99756" lon="0.31044">
        <ele>1174.4</ele>
        <time>2026-07-08T08:38:40Z</time>
      </trkpt>
      <trkpt lat="42.99756" lon="0.31045">
        <ele>1174.4</ele>
        <time>2026-07-08T08:38:40Z</time>
      </trkpt>
      <trkpt lat="42.99756" lon="0.31046">
        <ele>1174.4</ele>
        <time>2026-07-08T08:38:41Z</time>
      </trkpt>
      <trkpt lat="42.99756" lon="0.31047">
        <ele>1174.4</ele>
        <time>2026-07-08T08:38:41Z</time>
      </trkpt>
      <trkpt lat="42.99756" lon="0.31047">
        <ele>1175.4</ele>
        <time>2026-07-08T08:38:42Z</time>
      </trkpt>
      <trkpt lat="42.99756" lon="0.31049">
        <ele>1175.4</ele>
        <time>2026-07-08T08:38:43Z</time>
      </trkpt>
      <trkpt lat="42.99756" lon="0.3105">
        <ele>1174.4</ele>
        <time>2026-07-08T08:38:43Z</time>
      </trkpt>
      <trkpt lat="42.99756" lon="0.31051">
        <ele>1174.4</ele>
        <time>2026-07-08T08:38:44Z</time>
      </trkpt>
      <trkpt lat="42.99756" lon="0.31051">
        <ele>1174.4</ele>
        <time>2026-07-08T08:38:45Z</time>
      </trkpt>
      <trkpt lat="42.99756" lon="0.31052">
        <ele>1175.4</ele>
        <time>2026-07-08T08:38:45Z</time>
      </trkpt>
      <trkpt lat="42.99756" lon="0.31053">
        <ele>1175.4</ele>
        <time>2026-07-08T08:38:46Z</time>
      </trkpt>
      <trkpt lat="42.99756" lon="0.31054">
        <ele>1175.4</ele>
        <time>2026-07-08T08:38:47Z</time>
      </trkpt>
      <trkpt lat="42.99756" lon="0.31055">
        <ele>1175.4</ele>
        <time>2026-07-08T08:38:47Z</time>
      </trkpt>
      <trkpt lat="42.99756" lon="0.31056">
        <ele>1175.4</ele>
        <time>2026-07-08T08:38:48Z</time>
      </trkpt>
      <trkpt lat="42.99756" lon="0.31056">
        <ele>1175.4</ele>
        <time>2026-07-08T08:38:48Z</time>
      </trkpt>
      <trkpt lat="42.99756" lon="0.31057">
        <ele>1175.4</ele>
        <time>2026-07-08T08:38:49Z</time>
      </trkpt>
      <trkpt lat="42.99756" lon="0.31058">
        <ele>1175.4</ele>
        <time>2026-07-08T08:38:50Z</time>
      </trkpt>
      <trkpt lat="42.99756" lon="0.31059">
        <ele>1175.4</ele>
        <time>2026-07-08T08:38:50Z</time>
      </trkpt>
      <trkpt lat="42.99756" lon="0.3106">
        <ele>1175.4</ele>
        <time>2026-07-08T08:38:51Z</time>
      </trkpt>
      <trkpt lat="42.99756" lon="0.31061">
        <ele>1176.4</ele>
        <time>2026-07-08T08:38:52Z</time>
      </trkpt>
      <trkpt lat="42.99756" lon="0.31062">
        <ele>1176.4</ele>
        <time>2026-07-08T08:38:52Z</time>
      </trkpt>
      <trkpt lat="42.99756" lon="0.31063">
        <ele>1176.4</ele>
        <time>2026-07-08T08:38:53Z</time>
      </trkpt>
      <trkpt lat="42.99756" lon="0.31063">
        <ele>1176.4</ele>
        <time>2026-07-08T08:38:53Z</time>
      </trkpt>
      <trkpt lat="42.99755" lon="0.31064">
        <ele>1177.4</ele>
        <time>2026-07-08T08:38:54Z</time>
      </trkpt>
      <trkpt lat="42.99755" lon="0.31065">
        <ele>1177.4</ele>
        <time>2026-07-08T08:38:55Z</time>
      </trkpt>
      <trkpt lat="42.99755" lon="0.31066">
        <ele>1178.4</ele>
        <time>2026-07-08T08:38:55Z</time>
      </trkpt>
      <trkpt lat="42.99755" lon="0.31067">
        <ele>1178.4</ele>
        <time>2026-07-08T08:38:56Z</time>
      </trkpt>
      <trkpt lat="42.99755" lon="0.31068">
        <ele>1178.4</ele>
        <time>2026-07-08T08:38:57Z</time>
      </trkpt>
      <trkpt lat="42.99755" lon="0.31069">
        <ele>1179.4</ele>
        <time>2026-07-08T08:38:57Z</time>
      </trkpt>
      <trkpt lat="42.99755" lon="0.3107">
        <ele>1179.4</ele>
        <time>2026-07-08T08:38:58Z</time>
      </trkpt>
      <trkpt lat="42.99755" lon="0.31071">
        <ele>1179.4</ele>
        <time>2026-07-08T08:38:58Z</time>
      </trkpt>
      <trkpt lat="42.99755" lon="0.31071">
        <ele>1179.4</ele>
        <time>2026-07-08T08:38:59Z</time>
      </trkpt>
      <trkpt lat="42.99755" lon="0.31073">
        <ele>1179.4</ele>
        <time>2026-07-08T08:39:00Z</time>
      </trkpt>
      <trkpt lat="42.99756" lon="0.31074">
        <ele>1179.4</ele>
        <time>2026-07-08T08:39:00Z</time>
      </trkpt>
      <trkpt lat="42.99756" lon="0.31075">
        <ele>1179.4</ele>
        <time>2026-07-08T08:39:01Z</time>
      </trkpt>
      <trkpt lat="42.99756" lon="0.31076">
        <ele>1179.4</ele>
        <time>2026-07-08T08:39:02Z</time>
      </trkpt>
      <trkpt lat="42.99756" lon="0.31077">
        <ele>1178.4</ele>
        <time>2026-07-08T08:39:02Z</time>
      </trkpt>
      <trkpt lat="42.99756" lon="0.31078">
        <ele>1178.4</ele>
        <time>2026-07-08T08:39:03Z</time>
      </trkpt>
      <trkpt lat="42.99756" lon="0.31079">
        <ele>1179.4</ele>
        <time>2026-07-08T08:39:04Z</time>
      </trkpt>
      <trkpt lat="42.99756" lon="0.3108">
        <ele>1179.4</ele>
        <time>2026-07-08T08:39:04Z</time>
      </trkpt>
      <trkpt lat="42.99756" lon="0.31081">
        <ele>1179.4</ele>
        <time>2026-07-08T08:39:05Z</time>
      </trkpt>
      <trkpt lat="42.99757" lon="0.31081">
        <ele>1178.4</ele>
        <time>2026-07-08T08:39:05Z</time>
      </trkpt>
      <trkpt lat="42.99757" lon="0.31082">
        <ele>1179.4</ele>
        <time>2026-07-08T08:39:06Z</time>
      </trkpt>
      <trkpt lat="42.99757" lon="0.31083">
        <ele>1179.4</ele>
        <time>2026-07-08T08:39:07Z</time>
      </trkpt>
      <trkpt lat="42.99757" lon="0.31084">
        <ele>1179.4</ele>
        <time>2026-07-08T08:39:07Z</time>
      </trkpt>
      <trkpt lat="42.99757" lon="0.31085">
        <ele>1179.4</ele>
        <time>2026-07-08T08:39:08Z</time>
      </trkpt>
      <trkpt lat="42.99757" lon="0.31086">
        <ele>1179.4</ele>
        <time>2026-07-08T08:39:09Z</time>
      </trkpt>
      <trkpt lat="42.99757" lon="0.31086">
        <ele>1179.4</ele>
        <time>2026-07-08T08:39:09Z</time>
      </trkpt>
      <trkpt lat="42.99757" lon="0.31087">
        <ele>1179.4</ele>
        <time>2026-07-08T08:39:10Z</time>
      </trkpt>
      <trkpt lat="42.99757" lon="0.31088">
        <ele>1179.4</ele>
        <time>2026-07-08T08:39:11Z</time>
      </trkpt>
      <trkpt lat="42.99757" lon="0.31089">
        <ele>1180.4</ele>
        <time>2026-07-08T08:39:11Z</time>
      </trkpt>
      <trkpt lat="42.99757" lon="0.3109">
        <ele>1180.4</ele>
        <time>2026-07-08T08:39:12Z</time>
      </trkpt>
      <trkpt lat="42.99757" lon="0.31091">
        <ele>1180.4</ele>
        <time>2026-07-08T08:39:13Z</time>
      </trkpt>
      <trkpt lat="42.99757" lon="0.31091">
        <ele>1180.4</ele>
        <time>2026-07-08T08:39:13Z</time>
      </trkpt>
      <trkpt lat="42.99757" lon="0.31092">
        <ele>1180.4</ele>
        <time>2026-07-08T08:39:14Z</time>
      </trkpt>
      <trkpt lat="42.99757" lon="0.31093">
        <ele>1181.4</ele>
        <time>2026-07-08T08:39:15Z</time>
      </trkpt>
      <trkpt lat="42.99757" lon="0.31094">
        <ele>1181.4</ele>
        <time>2026-07-08T08:39:15Z</time>
      </trkpt>
      <trkpt lat="42.99757" lon="0.31095">
        <ele>1181.4</ele>
        <time>2026-07-08T08:39:16Z</time>
      </trkpt>
      <trkpt lat="42.99757" lon="0.31096">
        <ele>1181.4</ele>
        <time>2026-07-08T08:39:17Z</time>
      </trkpt>
      <trkpt lat="42.99757" lon="0.31097">
        <ele>1180.4</ele>
        <time>2026-07-08T08:39:17Z</time>
      </trkpt>
      <trkpt lat="42.99757" lon="0.31098">
        <ele>1180.4</ele>
        <time>2026-07-08T08:39:18Z</time>
      </trkpt>
      <trkpt lat="42.99757" lon="0.31099">
        <ele>1180.4</ele>
        <time>2026-07-08T08:39:19Z</time>
      </trkpt>
      <trkpt lat="42.99757" lon="0.31099">
        <ele>1180.4</ele>
        <time>2026-07-08T08:39:19Z</time>
      </trkpt>
      <trkpt lat="42.99757" lon="0.311">
        <ele>1180.4</ele>
        <time>2026-07-08T08:39:20Z</time>
      </trkpt>
      <trkpt lat="42.99757" lon="0.31101">
        <ele>1180.4</ele>
        <time>2026-07-08T08:39:21Z</time>
      </trkpt>
      <trkpt lat="42.99758" lon="0.31101">
        <ele>1180.4</ele>
        <time>2026-07-08T08:39:21Z</time>
      </trkpt>
      <trkpt lat="42.99758" lon="0.31102">
        <ele>1180.4</ele>
        <time>2026-07-08T08:39:22Z</time>
      </trkpt>
      <trkpt lat="42.99758" lon="0.31103">
        <ele>1179.4</ele>
        <time>2026-07-08T08:39:23Z</time>
      </trkpt>
      <trkpt lat="42.99759" lon="0.31103">
        <ele>1179.4</ele>
        <time>2026-07-08T08:39:23Z</time>
      </trkpt>
      <trkpt lat="42.99759" lon="0.31104">
        <ele>1179.4</ele>
        <time>2026-07-08T08:39:24Z</time>
      </trkpt>
      <trkpt lat="42.99759" lon="0.31105">
        <ele>1179.4</ele>
        <time>2026-07-08T08:39:25Z</time>
      </trkpt>
      <trkpt lat="42.99759" lon="0.31105">
        <ele>1178.4</ele>
        <time>2026-07-08T08:39:26Z</time>
      </trkpt>
      <trkpt lat="42.9976" lon="0.31106">
        <ele>1178.4</ele>
        <time>2026-07-08T08:39:27Z</time>
      </trkpt>
      <trkpt lat="42.9976" lon="0.31106">
        <ele>1179.4</ele>
        <time>2026-07-08T08:39:27Z</time>
      </trkpt>
      <trkpt lat="42.9976" lon="0.31107">
        <ele>1179.4</ele>
        <time>2026-07-08T08:39:28Z</time>
      </trkpt>
      <trkpt lat="42.9976" lon="0.31108">
        <ele>1179.4</ele>
        <time>2026-07-08T08:39:29Z</time>
      </trkpt>
      <trkpt lat="42.9976" lon="0.31108">
        <ele>1180.4</ele>
        <time>2026-07-08T08:39:29Z</time>
      </trkpt>
      <trkpt lat="42.9976" lon="0.31109">
        <ele>1180.4</ele>
        <time>2026-07-08T08:39:30Z</time>
      </trkpt>
      <trkpt lat="42.9976" lon="0.3111">
        <ele>1180.4</ele>
        <time>2026-07-08T08:39:30Z</time>
      </trkpt>
      <trkpt lat="42.9976" lon="0.31111">
        <ele>1180.4</ele>
        <time>2026-07-08T08:39:31Z</time>
      </trkpt>
      <trkpt lat="42.9976" lon="0.31112">
        <ele>1180.4</ele>
        <time>2026-07-08T08:39:32Z</time>
      </trkpt>
      <trkpt lat="42.9976" lon="0.31112">
        <ele>1181.4</ele>
        <time>2026-07-08T08:39:32Z</time>
      </trkpt>
      <trkpt lat="42.9976" lon="0.31113">
        <ele>1181.4</ele>
        <time>2026-07-08T08:39:33Z</time>
      </trkpt>
      <trkpt lat="42.9976" lon="0.31114">
        <ele>1180.4</ele>
        <time>2026-07-08T08:39:34Z</time>
      </trkpt>
      <trkpt lat="42.9976" lon="0.31115">
        <ele>1181.4</ele>
        <time>2026-07-08T08:39:34Z</time>
      </trkpt>
      <trkpt lat="42.9976" lon="0.31116">
        <ele>1181.4</ele>
        <time>2026-07-08T08:39:35Z</time>
      </trkpt>
      <trkpt lat="42.9976" lon="0.31117">
        <ele>1181.4</ele>
        <time>2026-07-08T08:39:36Z</time>
      </trkpt>
      <trkpt lat="42.9976" lon="0.31118">
        <ele>1180.4</ele>
        <time>2026-07-08T08:39:36Z</time>
      </trkpt>
      <trkpt lat="42.9976" lon="0.31119">
        <ele>1180.4</ele>
        <time>2026-07-08T08:39:37Z</time>
      </trkpt>
      <trkpt lat="42.9976" lon="0.3112">
        <ele>1180.4</ele>
        <time>2026-07-08T08:39:38Z</time>
      </trkpt>
      <trkpt lat="42.9976" lon="0.31121">
        <ele>1180.4</ele>
        <time>2026-07-08T08:39:38Z</time>
      </trkpt>
      <trkpt lat="42.9976" lon="0.31122">
        <ele>1180.4</ele>
        <time>2026-07-08T08:39:39Z</time>
      </trkpt>
      <trkpt lat="42.9976" lon="0.31123">
        <ele>1181.4</ele>
        <time>2026-07-08T08:39:40Z</time>
      </trkpt>
      <trkpt lat="42.9976" lon="0.31124">
        <ele>1180.4</ele>
        <time>2026-07-08T08:39:40Z</time>
      </trkpt>
      <trkpt lat="42.9976" lon="0.31124">
        <ele>1181.4</ele>
        <time>2026-07-08T08:39:41Z</time>
      </trkpt>
      <trkpt lat="42.9976" lon="0.31125">
        <ele>1181.4</ele>
        <time>2026-07-08T08:39:42Z</time>
      </trkpt>
      <trkpt lat="42.99761" lon="0.31126">
        <ele>1181.4</ele>
        <time>2026-07-08T08:39:42Z</time>
      </trkpt>
      <trkpt lat="42.99761" lon="0.31127">
        <ele>1181.4</ele>
        <time>2026-07-08T08:39:43Z</time>
      </trkpt>
      <trkpt lat="42.99761" lon="0.31128">
        <ele>1181.4</ele>
        <time>2026-07-08T08:39:44Z</time>
      </trkpt>
      <trkpt lat="42.99761" lon="0.31129">
        <ele>1181.4</ele>
        <time>2026-07-08T08:39:44Z</time>
      </trkpt>
      <trkpt lat="42.99761" lon="0.3113">
        <ele>1181.4</ele>
        <time>2026-07-08T08:39:45Z</time>
      </trkpt>
      <trkpt lat="42.99761" lon="0.31131">
        <ele>1182.4</ele>
        <time>2026-07-08T08:39:46Z</time>
      </trkpt>
      <trkpt lat="42.99761" lon="0.31132">
        <ele>1182.4</ele>
        <time>2026-07-08T08:39:46Z</time>
      </trkpt>
      <trkpt lat="42.99761" lon="0.31133">
        <ele>1182.4</ele>
        <time>2026-07-08T08:39:47Z</time>
      </trkpt>
      <trkpt lat="42.99762" lon="0.31134">
        <ele>1182.4</ele>
        <time>2026-07-08T08:39:48Z</time>
      </trkpt>
      <trkpt lat="42.99762" lon="0.31134">
        <ele>1183.4</ele>
        <time>2026-07-08T08:39:48Z</time>
      </trkpt>
      <trkpt lat="42.99762" lon="0.31135">
        <ele>1183.4</ele>
        <time>2026-07-08T08:39:49Z</time>
      </trkpt>
      <trkpt lat="42.99762" lon="0.31136">
        <ele>1183.4</ele>
        <time>2026-07-08T08:39:49Z</time>
      </trkpt>
      <trkpt lat="42.99762" lon="0.31137">
        <ele>1183.4</ele>
        <time>2026-07-08T08:39:50Z</time>
      </trkpt>
      <trkpt lat="42.99763" lon="0.31138">
        <ele>1183.4</ele>
        <time>2026-07-08T08:39:51Z</time>
      </trkpt>
      <trkpt lat="42.99763" lon="0.31139">
        <ele>1183.4</ele>
        <time>2026-07-08T08:39:51Z</time>
      </trkpt>
      <trkpt lat="42.99763" lon="0.31139">
        <ele>1183.4</ele>
        <time>2026-07-08T08:39:52Z</time>
      </trkpt>
      <trkpt lat="42.99764" lon="0.3114">
        <ele>1183.4</ele>
        <time>2026-07-08T08:39:53Z</time>
      </trkpt>
      <trkpt lat="42.99764" lon="0.31141">
        <ele>1184.4</ele>
        <time>2026-07-08T08:39:53Z</time>
      </trkpt>
      <trkpt lat="42.99765" lon="0.31142">
        <ele>1184.4</ele>
        <time>2026-07-08T08:39:54Z</time>
      </trkpt>
      <trkpt lat="42.99765" lon="0.31143">
        <ele>1184.4</ele>
        <time>2026-07-08T08:39:55Z</time>
      </trkpt>
      <trkpt lat="42.99765" lon="0.31144">
        <ele>1185.4</ele>
        <time>2026-07-08T08:39:55Z</time>
      </trkpt>
      <trkpt lat="42.99766" lon="0.31144">
        <ele>1185.4</ele>
        <time>2026-07-08T08:39:56Z</time>
      </trkpt>
      <trkpt lat="42.99766" lon="0.31145">
        <ele>1184.4</ele>
        <time>2026-07-08T08:39:57Z</time>
      </trkpt>
      <trkpt lat="42.99767" lon="0.31146">
        <ele>1184.4</ele>
        <time>2026-07-08T08:39:57Z</time>
      </trkpt>
      <trkpt lat="42.99767" lon="0.31146">
        <ele>1184.4</ele>
        <time>2026-07-08T08:39:58Z</time>
      </trkpt>
      <trkpt lat="42.99767" lon="0.31147">
        <ele>1184.4</ele>
        <time>2026-07-08T08:39:59Z</time>
      </trkpt>
      <trkpt lat="42.99767" lon="0.31147">
        <ele>1184.4</ele>
        <time>2026-07-08T08:39:59Z</time>
      </trkpt>
      <trkpt lat="42.99768" lon="0.31148">
        <ele>1184.4</ele>
        <time>2026-07-08T08:40:00Z</time>
      </trkpt>
      <trkpt lat="42.99768" lon="0.31149">
        <ele>1184.4</ele>
        <time>2026-07-08T08:40:01Z</time>
      </trkpt>
      <trkpt lat="42.99769" lon="0.31149">
        <ele>1184.4</ele>
        <time>2026-07-08T08:40:01Z</time>
      </trkpt>
      <trkpt lat="42.99769" lon="0.3115">
        <ele>1185.4</ele>
        <time>2026-07-08T08:40:02Z</time>
      </trkpt>
      <trkpt lat="42.9977" lon="0.3115">
        <ele>1185.4</ele>
        <time>2026-07-08T08:40:03Z</time>
      </trkpt>
      <trkpt lat="42.9977" lon="0.31151">
        <ele>1185.4</ele>
        <time>2026-07-08T08:40:03Z</time>
      </trkpt>
      <trkpt lat="42.99771" lon="0.31152">
        <ele>1185.4</ele>
        <time>2026-07-08T08:40:04Z</time>
      </trkpt>
      <trkpt lat="42.99771" lon="0.31152">
        <ele>1185.4</ele>
        <time>2026-07-08T08:40:05Z</time>
      </trkpt>
      <trkpt lat="42.99772" lon="0.31153">
        <ele>1185.4</ele>
        <time>2026-07-08T08:40:05Z</time>
      </trkpt>
      <trkpt lat="42.99772" lon="0.31153">
        <ele>1185.4</ele>
        <time>2026-07-08T08:40:06Z</time>
      </trkpt>
      <trkpt lat="42.99772" lon="0.31154">
        <ele>1185.4</ele>
        <time>2026-07-08T08:40:07Z</time>
      </trkpt>
      <trkpt lat="42.99773" lon="0.31154">
        <ele>1185.4</ele>
        <time>2026-07-08T08:40:07Z</time>
      </trkpt>
      <trkpt lat="42.99773" lon="0.31155">
        <ele>1185.4</ele>
        <time>2026-07-08T08:40:08Z</time>
      </trkpt>
      <trkpt lat="42.99774" lon="0.31155">
        <ele>1186.4</ele>
        <time>2026-07-08T08:40:09Z</time>
      </trkpt>
      <trkpt lat="42.99774" lon="0.31156">
        <ele>1186.4</ele>
        <time>2026-07-08T08:40:09Z</time>
      </trkpt>
      <trkpt lat="42.99775" lon="0.31157">
        <ele>1186.4</ele>
        <time>2026-07-08T08:40:10Z</time>
      </trkpt>
      <trkpt lat="42.99775" lon="0.31157">
        <ele>1186.4</ele>
        <time>2026-07-08T08:40:10Z</time>
      </trkpt>
      <trkpt lat="42.99775" lon="0.31158">
        <ele>1186.4</ele>
        <time>2026-07-08T08:40:11Z</time>
      </trkpt>
      <trkpt lat="42.99776" lon="0.31159">
        <ele>1186.4</ele>
        <time>2026-07-08T08:40:12Z</time>
      </trkpt>
      <trkpt lat="42.99776" lon="0.31159">
        <ele>1186.4</ele>
        <time>2026-07-08T08:40:12Z</time>
      </trkpt>
      <trkpt lat="42.99777" lon="0.3116">
        <ele>1186.4</ele>
        <time>2026-07-08T08:40:13Z</time>
      </trkpt>
      <trkpt lat="42.99777" lon="0.3116">
        <ele>1186.4</ele>
        <time>2026-07-08T08:40:14Z</time>
      </trkpt>
      <trkpt lat="42.99778" lon="0.31161">
        <ele>1185.4</ele>
        <time>2026-07-08T08:40:15Z</time>
      </trkpt>
      <trkpt lat="42.99778" lon="0.31161">
        <ele>1185.4</ele>
        <time>2026-07-08T08:40:15Z</time>
      </trkpt>
      <trkpt lat="42.99779" lon="0.31162">
        <ele>1185.4</ele>
        <time>2026-07-08T08:40:16Z</time>
      </trkpt>
      <trkpt lat="42.99779" lon="0.31163">
        <ele>1185.4</ele>
        <time>2026-07-08T08:40:17Z</time>
      </trkpt>
      <trkpt lat="42.9978" lon="0.31163">
        <ele>1185.4</ele>
        <time>2026-07-08T08:40:17Z</time>
      </trkpt>
      <trkpt lat="42.9978" lon="0.31164">
        <ele>1185.4</ele>
        <time>2026-07-08T08:40:18Z</time>
      </trkpt>
      <trkpt lat="42.99781" lon="0.31165">
        <ele>1186.4</ele>
        <time>2026-07-08T08:40:19Z</time>
      </trkpt>
      <trkpt lat="42.99781" lon="0.31165">
        <ele>1186.4</ele>
        <time>2026-07-08T08:40:19Z</time>
      </trkpt>
      <trkpt lat="42.99782" lon="0.31166">
        <ele>1186.4</ele>
        <time>2026-07-08T08:40:20Z</time>
      </trkpt>
      <trkpt lat="42.99783" lon="0.31166">
        <ele>1186.4</ele>
        <time>2026-07-08T08:40:21Z</time>
      </trkpt>
      <trkpt lat="42.99783" lon="0.31167">
        <ele>1186.4</ele>
        <time>2026-07-08T08:40:21Z</time>
      </trkpt>
      <trkpt lat="42.99784" lon="0.31167">
        <ele>1186.4</ele>
        <time>2026-07-08T08:40:22Z</time>
      </trkpt>
      <trkpt lat="42.99785" lon="0.31168">
        <ele>1186.4</ele>
        <time>2026-07-08T08:40:23Z</time>
      </trkpt>
      <trkpt lat="42.99785" lon="0.31168">
        <ele>1185.4</ele>
        <time>2026-07-08T08:40:23Z</time>
      </trkpt>
      <trkpt lat="42.99786" lon="0.31168">
        <ele>1186.4</ele>
        <time>2026-07-08T08:40:24Z</time>
      </trkpt>
      <trkpt lat="42.99787" lon="0.31168">
        <ele>1186.4</ele>
        <time>2026-07-08T08:40:25Z</time>
      </trkpt>
      <trkpt lat="42.99787" lon="0.31169">
        <ele>1186.4</ele>
        <time>2026-07-08T08:40:25Z</time>
      </trkpt>
      <trkpt lat="42.99788" lon="0.31169">
        <ele>1186.4</ele>
        <time>2026-07-08T08:40:26Z</time>
      </trkpt>
      <trkpt lat="42.99789" lon="0.31169">
        <ele>1186.4</ele>
        <time>2026-07-08T08:40:27Z</time>
      </trkpt>
      <trkpt lat="42.99789" lon="0.31169">
        <ele>1186.4</ele>
        <time>2026-07-08T08:40:27Z</time>
      </trkpt>
      <trkpt lat="42.9979" lon="0.3117">
        <ele>1186.4</ele>
        <time>2026-07-08T08:40:28Z</time>
      </trkpt>
      <trkpt lat="42.99791" lon="0.3117">
        <ele>1186.4</ele>
        <time>2026-07-08T08:40:29Z</time>
      </trkpt>
      <trkpt lat="42.99791" lon="0.3117">
        <ele>1185.4</ele>
        <time>2026-07-08T08:40:29Z</time>
      </trkpt>
      <trkpt lat="42.99792" lon="0.3117">
        <ele>1185.4</ele>
        <time>2026-07-08T08:40:30Z</time>
      </trkpt>
      <trkpt lat="42.99793" lon="0.31171">
        <ele>1185.4</ele>
        <time>2026-07-08T08:40:31Z</time>
      </trkpt>
      <trkpt lat="42.99793" lon="0.31171">
        <ele>1185.4</ele>
        <time>2026-07-08T08:40:31Z</time>
      </trkpt>
      <trkpt lat="42.99794" lon="0.31171">
        <ele>1186.4</ele>
        <time>2026-07-08T08:40:32Z</time>
      </trkpt>
      <trkpt lat="42.99795" lon="0.31171">
        <ele>1186.4</ele>
        <time>2026-07-08T08:40:33Z</time>
      </trkpt>
      <trkpt lat="42.99795" lon="0.31171">
        <ele>1186.4</ele>
        <time>2026-07-08T08:40:33Z</time>
      </trkpt>
      <trkpt lat="42.99796" lon="0.31171">
        <ele>1186.4</ele>
        <time>2026-07-08T08:40:34Z</time>
      </trkpt>
      <trkpt lat="42.99797" lon="0.31171">
        <ele>1186.4</ele>
        <time>2026-07-08T08:40:35Z</time>
      </trkpt>
      <trkpt lat="42.99797" lon="0.31171">
        <ele>1186.4</ele>
        <time>2026-07-08T08:40:36Z</time>
      </trkpt>
      <trkpt lat="42.99798" lon="0.3117">
        <ele>1186.4</ele>
        <time>2026-07-08T08:40:36Z</time>
      </trkpt>
      <trkpt lat="42.99799" lon="0.3117">
        <ele>1186.4</ele>
        <time>2026-07-08T08:40:37Z</time>
      </trkpt>
      <trkpt lat="42.99799" lon="0.3117">
        <ele>1186.4</ele>
        <time>2026-07-08T08:40:38Z</time>
      </trkpt>
      <trkpt lat="42.998" lon="0.3117">
        <ele>1186.4</ele>
        <time>2026-07-08T08:40:38Z</time>
      </trkpt>
      <trkpt lat="42.998" lon="0.3117">
        <ele>1186.4</ele>
        <time>2026-07-08T08:40:39Z</time>
      </trkpt>
      <trkpt lat="42.99801" lon="0.31169">
        <ele>1186.4</ele>
        <time>2026-07-08T08:40:40Z</time>
      </trkpt>
      <trkpt lat="42.99801" lon="0.31169">
        <ele>1186.4</ele>
        <time>2026-07-08T08:40:40Z</time>
      </trkpt>
      <trkpt lat="42.99802" lon="0.31169">
        <ele>1186.4</ele>
        <time>2026-07-08T08:40:41Z</time>
      </trkpt>
      <trkpt lat="42.99802" lon="0.31168">
        <ele>1186.4</ele>
        <time>2026-07-08T08:40:42Z</time>
      </trkpt>
      <trkpt lat="42.99803" lon="0.31168">
        <ele>1186.4</ele>
        <time>2026-07-08T08:40:42Z</time>
      </trkpt>
      <trkpt lat="42.99804" lon="0.31168">
        <ele>1186.4</ele>
        <time>2026-07-08T08:40:43Z</time>
      </trkpt>
      <trkpt lat="42.99804" lon="0.31168">
        <ele>1186.4</ele>
        <time>2026-07-08T08:40:44Z</time>
      </trkpt>
      <trkpt lat="42.99805" lon="0.31168">
        <ele>1186.4</ele>
        <time>2026-07-08T08:40:45Z</time>
      </trkpt>
      <trkpt lat="42.99805" lon="0.31168">
        <ele>1186.4</ele>
        <time>2026-07-08T08:40:45Z</time>
      </trkpt>
      <trkpt lat="42.99806" lon="0.31168">
        <ele>1186.4</ele>
        <time>2026-07-08T08:40:46Z</time>
      </trkpt>
      <trkpt lat="42.99807" lon="0.31168">
        <ele>1187.4</ele>
        <time>2026-07-08T08:40:47Z</time>
      </trkpt>
      <trkpt lat="42.99808" lon="0.31168">
        <ele>1186.4</ele>
        <time>2026-07-08T08:40:47Z</time>
      </trkpt>
      <trkpt lat="42.99808" lon="0.31168">
        <ele>1187.4</ele>
        <time>2026-07-08T08:40:48Z</time>
      </trkpt>
      <trkpt lat="42.99809" lon="0.31169">
        <ele>1187.4</ele>
        <time>2026-07-08T08:40:49Z</time>
      </trkpt>
      <trkpt lat="42.99809" lon="0.31169">
        <ele>1187.4</ele>
        <time>2026-07-08T08:40:49Z</time>
      </trkpt>
      <trkpt lat="42.99809" lon="0.3117">
        <ele>1187.4</ele>
        <time>2026-07-08T08:40:50Z</time>
      </trkpt>
      <trkpt lat="42.99809" lon="0.31171">
        <ele>1188.4</ele>
        <time>2026-07-08T08:40:51Z</time>
      </trkpt>
      <trkpt lat="42.99809" lon="0.31172">
        <ele>1187.4</ele>
        <time>2026-07-08T08:40:51Z</time>
      </trkpt>
      <trkpt lat="42.99808" lon="0.31173">
        <ele>1188.4</ele>
        <time>2026-07-08T08:40:52Z</time>
      </trkpt>
      <trkpt lat="42.99808" lon="0.31174">
        <ele>1188.4</ele>
        <time>2026-07-08T08:40:53Z</time>
      </trkpt>
      <trkpt lat="42.99807" lon="0.31175">
        <ele>1189.4</ele>
        <time>2026-07-08T08:40:53Z</time>
      </trkpt>
      <trkpt lat="42.99807" lon="0.31175">
        <ele>1189.4</ele>
        <time>2026-07-08T08:40:54Z</time>
      </trkpt>
      <trkpt lat="42.99806" lon="0.31176">
        <ele>1189.4</ele>
        <time>2026-07-08T08:40:55Z</time>
      </trkpt>
      <trkpt lat="42.99806" lon="0.31176">
        <ele>1189.4</ele>
        <time>2026-07-08T08:40:55Z</time>
      </trkpt>
      <trkpt lat="42.99805" lon="0.31177">
        <ele>1189.4</ele>
        <time>2026-07-08T08:40:56Z</time>
      </trkpt>
      <trkpt lat="42.99804" lon="0.31177">
        <ele>1190.4</ele>
        <time>2026-07-08T08:40:57Z</time>
      </trkpt>
      <trkpt lat="42.99804" lon="0.31178">
        <ele>1190.4</ele>
        <time>2026-07-08T08:40:57Z</time>
      </trkpt>
      <trkpt lat="42.99803" lon="0.31178">
        <ele>1190.4</ele>
        <time>2026-07-08T08:40:58Z</time>
      </trkpt>
      <trkpt lat="42.99802" lon="0.31179">
        <ele>1189.4</ele>
        <time>2026-07-08T08:40:58Z</time>
      </trkpt>
      <trkpt lat="42.99802" lon="0.31179">
        <ele>1189.4</ele>
        <time>2026-07-08T08:40:59Z</time>
      </trkpt>
      <trkpt lat="42.99801" lon="0.31179">
        <ele>1189.4</ele>
        <time>2026-07-08T08:41:00Z</time>
      </trkpt>
      <trkpt lat="42.99801" lon="0.31179">
        <ele>1189.4</ele>
        <time>2026-07-08T08:41:00Z</time>
      </trkpt>
      <trkpt lat="42.998" lon="0.31179">
        <ele>1189.4</ele>
        <time>2026-07-08T08:41:01Z</time>
      </trkpt>
      <trkpt lat="42.99799" lon="0.3118">
        <ele>1190.4</ele>
        <time>2026-07-08T08:41:01Z</time>
      </trkpt>
      <trkpt lat="42.99799" lon="0.3118">
        <ele>1190.4</ele>
        <time>2026-07-08T08:41:02Z</time>
      </trkpt>
      <trkpt lat="42.99798" lon="0.3118">
        <ele>1190.4</ele>
        <time>2026-07-08T08:41:03Z</time>
      </trkpt>
      <trkpt lat="42.99797" lon="0.3118">
        <ele>1189.4</ele>
        <time>2026-07-08T08:41:03Z</time>
      </trkpt>
      <trkpt lat="42.99796" lon="0.31181">
        <ele>1189.4</ele>
        <time>2026-07-08T08:41:04Z</time>
      </trkpt>
      <trkpt lat="42.99795" lon="0.31181">
        <ele>1189.4</ele>
        <time>2026-07-08T08:41:04Z</time>
      </trkpt>
      <trkpt lat="42.99795" lon="0.31181">
        <ele>1189.4</ele>
        <time>2026-07-08T08:41:05Z</time>
      </trkpt>
      <trkpt lat="42.99794" lon="0.31181">
        <ele>1190.4</ele>
        <time>2026-07-08T08:41:06Z</time>
      </trkpt>
      <trkpt lat="42.99794" lon="0.31181">
        <ele>1190.4</ele>
        <time>2026-07-08T08:41:06Z</time>
      </trkpt>
      <trkpt lat="42.99793" lon="0.31182">
        <ele>1190.4</ele>
        <time>2026-07-08T08:41:07Z</time>
      </trkpt>
      <trkpt lat="42.99792" lon="0.31182">
        <ele>1190.4</ele>
        <time>2026-07-08T08:41:07Z</time>
      </trkpt>
      <trkpt lat="42.99792" lon="0.31182">
        <ele>1191.4</ele>
        <time>2026-07-08T08:41:08Z</time>
      </trkpt>
      <trkpt lat="42.99791" lon="0.31182">
        <ele>1191.4</ele>
        <time>2026-07-08T08:41:09Z</time>
      </trkpt>
      <trkpt lat="42.9979" lon="0.31182">
        <ele>1191.4</ele>
        <time>2026-07-08T08:41:09Z</time>
      </trkpt>
      <trkpt lat="42.99789" lon="0.31182">
        <ele>1191.4</ele>
        <time>2026-07-08T08:41:10Z</time>
      </trkpt>
      <trkpt lat="42.99789" lon="0.31182">
        <ele>1191.4</ele>
        <time>2026-07-08T08:41:11Z</time>
      </trkpt>
      <trkpt lat="42.99788" lon="0.31182">
        <ele>1191.4</ele>
        <time>2026-07-08T08:41:11Z</time>
      </trkpt>
      <trkpt lat="42.99787" lon="0.31182">
        <ele>1191.4</ele>
        <time>2026-07-08T08:41:12Z</time>
      </trkpt>
      <trkpt lat="42.99787" lon="0.31182">
        <ele>1192.4</ele>
        <time>2026-07-08T08:41:12Z</time>
      </trkpt>
      <trkpt lat="42.99786" lon="0.31182">
        <ele>1192.4</ele>
        <time>2026-07-08T08:41:13Z</time>
      </trkpt>
      <trkpt lat="42.99785" lon="0.31183">
        <ele>1193.4</ele>
        <time>2026-07-08T08:41:14Z</time>
      </trkpt>
      <trkpt lat="42.99784" lon="0.31183">
        <ele>1193.4</ele>
        <time>2026-07-08T08:41:15Z</time>
      </trkpt>
      <trkpt lat="42.99783" lon="0.31183">
        <ele>1193.4</ele>
        <time>2026-07-08T08:41:16Z</time>
      </trkpt>
      <trkpt lat="42.99783" lon="0.31183">
        <ele>1193.4</ele>
        <time>2026-07-08T08:41:16Z</time>
      </trkpt>
      <trkpt lat="42.99782" lon="0.31183">
        <ele>1193.4</ele>
        <time>2026-07-08T08:41:17Z</time>
      </trkpt>
      <trkpt lat="42.99781" lon="0.31184">
        <ele>1193.4</ele>
        <time>2026-07-08T08:41:17Z</time>
      </trkpt>
      <trkpt lat="42.99781" lon="0.31184">
        <ele>1193.4</ele>
        <time>2026-07-08T08:41:18Z</time>
      </trkpt>
      <trkpt lat="42.9978" lon="0.31184">
        <ele>1194.4</ele>
        <time>2026-07-08T08:41:19Z</time>
      </trkpt>
      <trkpt lat="42.9978" lon="0.31184">
        <ele>1194.4</ele>
        <time>2026-07-08T08:41:19Z</time>
      </trkpt>
      <trkpt lat="42.99779" lon="0.31184">
        <ele>1194.4</ele>
        <time>2026-07-08T08:41:20Z</time>
      </trkpt>
      <trkpt lat="42.99778" lon="0.31184">
        <ele>1194.4</ele>
        <time>2026-07-08T08:41:20Z</time>
      </trkpt>
      <trkpt lat="42.99778" lon="0.31184">
        <ele>1194.4</ele>
        <time>2026-07-08T08:41:21Z</time>
      </trkpt>
      <trkpt lat="42.99777" lon="0.31184">
        <ele>1194.4</ele>
        <time>2026-07-08T08:41:22Z</time>
      </trkpt>
      <trkpt lat="42.99777" lon="0.31184">
        <ele>1194.4</ele>
        <time>2026-07-08T08:41:22Z</time>
      </trkpt>
      <trkpt lat="42.99777" lon="0.31184">
        <ele>1194.4</ele>
        <time>2026-07-08T08:41:23Z</time>
      </trkpt>
      <trkpt lat="42.99776" lon="0.31185">
        <ele>1195.4</ele>
        <time>2026-07-08T08:41:24Z</time>
      </trkpt>
      <trkpt lat="42.99775" lon="0.31185">
        <ele>1195.4</ele>
        <time>2026-07-08T08:41:25Z</time>
      </trkpt>
      <trkpt lat="42.99774" lon="0.31185">
        <ele>1195.4</ele>
        <time>2026-07-08T08:41:26Z</time>
      </trkpt>
      <trkpt lat="42.99774" lon="0.31185">
        <ele>1195.4</ele>
        <time>2026-07-08T08:41:27Z</time>
      </trkpt>
      <trkpt lat="42.99773" lon="0.31185">
        <ele>1196.4</ele>
        <time>2026-07-08T08:41:27Z</time>
      </trkpt>
      <trkpt lat="42.99772" lon="0.31185">
        <ele>1196.4</ele>
        <time>2026-07-08T08:41:28Z</time>
      </trkpt>
      <trkpt lat="42.99771" lon="0.31184">
        <ele>1196.4</ele>
        <time>2026-07-08T08:41:29Z</time>
      </trkpt>
      <trkpt lat="42.9977" lon="0.31184">
        <ele>1195.4</ele>
        <time>2026-07-08T08:41:29Z</time>
      </trkpt>
      <trkpt lat="42.9977" lon="0.31184">
        <ele>1195.4</ele>
        <time>2026-07-08T08:41:30Z</time>
      </trkpt>
      <trkpt lat="42.99769" lon="0.31183">
        <ele>1196.4</ele>
        <time>2026-07-08T08:41:30Z</time>
      </trkpt>
      <trkpt lat="42.99768" lon="0.31183">
        <ele>1196.4</ele>
        <time>2026-07-08T08:41:31Z</time>
      </trkpt>
      <trkpt lat="42.99767" lon="0.31182">
        <ele>1196.4</ele>
        <time>2026-07-08T08:41:32Z</time>
      </trkpt>
      <trkpt lat="42.99766" lon="0.31182">
        <ele>1196.4</ele>
        <time>2026-07-08T08:41:33Z</time>
      </trkpt>
      <trkpt lat="42.99765" lon="0.31181">
        <ele>1196.4</ele>
        <time>2026-07-08T08:41:33Z</time>
      </trkpt>
      <trkpt lat="42.99765" lon="0.31181">
        <ele>1196.4</ele>
        <time>2026-07-08T08:41:34Z</time>
      </trkpt>
      <trkpt lat="42.99764" lon="0.31181">
        <ele>1196.4</ele>
        <time>2026-07-08T08:41:34Z</time>
      </trkpt>
      <trkpt lat="42.99763" lon="0.31181">
        <ele>1196.4</ele>
        <time>2026-07-08T08:41:35Z</time>
      </trkpt>
      <trkpt lat="42.99763" lon="0.3118">
        <ele>1197.4</ele>
        <time>2026-07-08T08:41:36Z</time>
      </trkpt>
      <trkpt lat="42.99762" lon="0.3118">
        <ele>1197.4</ele>
        <time>2026-07-08T08:41:36Z</time>
      </trkpt>
      <trkpt lat="42.99761" lon="0.3118">
        <ele>1197.4</ele>
        <time>2026-07-08T08:41:37Z</time>
      </trkpt>
      <trkpt lat="42.99761" lon="0.3118">
        <ele>1197.4</ele>
        <time>2026-07-08T08:41:37Z</time>
      </trkpt>
      <trkpt lat="42.9976" lon="0.3118">
        <ele>1197.4</ele>
        <time>2026-07-08T08:41:38Z</time>
      </trkpt>
      <trkpt lat="42.99759" lon="0.31179">
        <ele>1196.4</ele>
        <time>2026-07-08T08:41:39Z</time>
      </trkpt>
      <trkpt lat="42.99758" lon="0.31179">
        <ele>1196.4</ele>
        <time>2026-07-08T08:41:39Z</time>
      </trkpt>
      <trkpt lat="42.99758" lon="0.31179">
        <ele>1196.4</ele>
        <time>2026-07-08T08:41:40Z</time>
      </trkpt>
      <trkpt lat="42.99757" lon="0.31179">
        <ele>1196.4</ele>
        <time>2026-07-08T08:41:40Z</time>
      </trkpt>
      <trkpt lat="42.99756" lon="0.31179">
        <ele>1196.4</ele>
        <time>2026-07-08T08:41:41Z</time>
      </trkpt>
      <trkpt lat="42.99756" lon="0.31179">
        <ele>1196.4</ele>
        <time>2026-07-08T08:41:42Z</time>
      </trkpt>
      <trkpt lat="42.99755" lon="0.31178">
        <ele>1196.4</ele>
        <time>2026-07-08T08:41:42Z</time>
      </trkpt>
      <trkpt lat="42.99755" lon="0.31178">
        <ele>1196.4</ele>
        <time>2026-07-08T08:41:43Z</time>
      </trkpt>
      <trkpt lat="42.99754" lon="0.31177">
        <ele>1196.4</ele>
        <time>2026-07-08T08:41:44Z</time>
      </trkpt>
      <trkpt lat="42.99754" lon="0.31176">
        <ele>1196.4</ele>
        <time>2026-07-08T08:41:44Z</time>
      </trkpt>
      <trkpt lat="42.99753" lon="0.31176">
        <ele>1196.4</ele>
        <time>2026-07-08T08:41:45Z</time>
      </trkpt>
      <trkpt lat="42.99753" lon="0.31175">
        <ele>1196.4</ele>
        <time>2026-07-08T08:41:46Z</time>
      </trkpt>
      <trkpt lat="42.99752" lon="0.31175">
        <ele>1196.4</ele>
        <time>2026-07-08T08:41:46Z</time>
      </trkpt>
      <trkpt lat="42.99752" lon="0.31174">
        <ele>1196.4</ele>
        <time>2026-07-08T08:41:47Z</time>
      </trkpt>
      <trkpt lat="42.99751" lon="0.31174">
        <ele>1196.4</ele>
        <time>2026-07-08T08:41:48Z</time>
      </trkpt>
      <trkpt lat="42.9975" lon="0.31173">
        <ele>1197.4</ele>
        <time>2026-07-08T08:41:49Z</time>
      </trkpt>
      <trkpt lat="42.9975" lon="0.31173">
        <ele>1197.4</ele>
        <time>2026-07-08T08:41:49Z</time>
      </trkpt>
      <trkpt lat="42.99749" lon="0.31172">
        <ele>1197.4</ele>
        <time>2026-07-08T08:41:50Z</time>
      </trkpt>
      <trkpt lat="42.99749" lon="0.31172">
        <ele>1196.4</ele>
        <time>2026-07-08T08:41:50Z</time>
      </trkpt>
      <trkpt lat="42.99748" lon="0.31171">
        <ele>1199.4</ele>
        <time>2026-07-08T08:41:51Z</time>
      </trkpt>
      <trkpt lat="42.99748" lon="0.31169">
        <ele>1201.4</ele>
        <time>2026-07-08T08:41:52Z</time>
      </trkpt>
      <trkpt lat="42.99748" lon="0.31168">
        <ele>1201.4</ele>
        <time>2026-07-08T08:41:53Z</time>
      </trkpt>
      <trkpt lat="42.99748" lon="0.31167">
        <ele>1201.4</ele>
        <time>2026-07-08T08:41:54Z</time>
      </trkpt>
      <trkpt lat="42.99747" lon="0.31166">
        <ele>1201.4</ele>
        <time>2026-07-08T08:41:54Z</time>
      </trkpt>
      <trkpt lat="42.99747" lon="0.31166">
        <ele>1201.4</ele>
        <time>2026-07-08T08:41:55Z</time>
      </trkpt>
      <trkpt lat="42.99747" lon="0.31165">
        <ele>1201.4</ele>
        <time>2026-07-08T08:41:56Z</time>
      </trkpt>
      <trkpt lat="42.99746" lon="0.31165">
        <ele>1201.4</ele>
        <time>2026-07-08T08:41:56Z</time>
      </trkpt>
      <trkpt lat="42.99746" lon="0.31164">
        <ele>1201.4</ele>
        <time>2026-07-08T08:41:57Z</time>
      </trkpt>
      <trkpt lat="42.99745" lon="0.31163">
        <ele>1201.4</ele>
        <time>2026-07-08T08:41:57Z</time>
      </trkpt>
      <trkpt lat="42.99744" lon="0.31162">
        <ele>1201.4</ele>
        <time>2026-07-08T08:41:58Z</time>
      </trkpt>
      <trkpt lat="42.99743" lon="0.31162">
        <ele>1201.4</ele>
        <time>2026-07-08T08:41:59Z</time>
      </trkpt>
      <trkpt lat="42.99742" lon="0.31162">
        <ele>1201.4</ele>
        <time>2026-07-08T08:41:59Z</time>
      </trkpt>
      <trkpt lat="42.99741" lon="0.31161">
        <ele>1201.4</ele>
        <time>2026-07-08T08:42:00Z</time>
      </trkpt>
      <trkpt lat="42.99741" lon="0.3116">
        <ele>1201.4</ele>
        <time>2026-07-08T08:42:00Z</time>
      </trkpt>
      <trkpt lat="42.9974" lon="0.3116">
        <ele>1201.4</ele>
        <time>2026-07-08T08:42:01Z</time>
      </trkpt>
      <trkpt lat="42.9974" lon="0.31159">
        <ele>1200.4</ele>
        <time>2026-07-08T08:42:02Z</time>
      </trkpt>
      <trkpt lat="42.99739" lon="0.31158">
        <ele>1200.4</ele>
        <time>2026-07-08T08:42:03Z</time>
      </trkpt>
      <trkpt lat="42.99738" lon="0.31157">
        <ele>1200.4</ele>
        <time>2026-07-08T08:42:04Z</time>
      </trkpt>
      <trkpt lat="42.99738" lon="0.31156">
        <ele>1200.4</ele>
        <time>2026-07-08T08:42:04Z</time>
      </trkpt>
      <trkpt lat="42.99738" lon="0.31156">
        <ele>1200.4</ele>
        <time>2026-07-08T08:42:05Z</time>
      </trkpt>
      <trkpt lat="42.99737" lon="0.31156">
        <ele>1200.4</ele>
        <time>2026-07-08T08:42:06Z</time>
      </trkpt>
      <trkpt lat="42.99736" lon="0.31156">
        <ele>1200.4</ele>
        <time>2026-07-08T08:42:06Z</time>
      </trkpt>
      <trkpt lat="42.99736" lon="0.31155">
        <ele>1200.4</ele>
        <time>2026-07-08T08:42:07Z</time>
      </trkpt>
      <trkpt lat="42.99735" lon="0.31155">
        <ele>1200.4</ele>
        <time>2026-07-08T08:42:08Z</time>
      </trkpt>
      <trkpt lat="42.99734" lon="0.31155">
        <ele>1200.4</ele>
        <time>2026-07-08T08:42:08Z</time>
      </trkpt>
      <trkpt lat="42.99734" lon="0.31154">
        <ele>1200.4</ele>
        <time>2026-07-08T08:42:09Z</time>
      </trkpt>
      <trkpt lat="42.99733" lon="0.31155">
        <ele>1200.4</ele>
        <time>2026-07-08T08:42:09Z</time>
      </trkpt>
      <trkpt lat="42.99732" lon="0.31154">
        <ele>1200.4</ele>
        <time>2026-07-08T08:42:10Z</time>
      </trkpt>
      <trkpt lat="42.99732" lon="0.31154">
        <ele>1200.4</ele>
        <time>2026-07-08T08:42:11Z</time>
      </trkpt>
      <trkpt lat="42.99731" lon="0.31153">
        <ele>1200.4</ele>
        <time>2026-07-08T08:42:11Z</time>
      </trkpt>
      <trkpt lat="42.9973" lon="0.31153">
        <ele>1200.4</ele>
        <time>2026-07-08T08:42:12Z</time>
      </trkpt>
      <trkpt lat="42.9973" lon="0.31152">
        <ele>1200.4</ele>
        <time>2026-07-08T08:42:13Z</time>
      </trkpt>
      <trkpt lat="42.99729" lon="0.31152">
        <ele>1200.4</ele>
        <time>2026-07-08T08:42:13Z</time>
      </trkpt>
      <trkpt lat="42.99729" lon="0.31151">
        <ele>1200.4</ele>
        <time>2026-07-08T08:42:14Z</time>
      </trkpt>
      <trkpt lat="42.99728" lon="0.31151">
        <ele>1200.4</ele>
        <time>2026-07-08T08:42:14Z</time>
      </trkpt>
      <trkpt lat="42.99728" lon="0.31151">
        <ele>1200.4</ele>
        <time>2026-07-08T08:42:15Z</time>
      </trkpt>
      <trkpt lat="42.99727" lon="0.3115">
        <ele>1200.4</ele>
        <time>2026-07-08T08:42:16Z</time>
      </trkpt>
      <trkpt lat="42.99726" lon="0.3115">
        <ele>1199.4</ele>
        <time>2026-07-08T08:42:17Z</time>
      </trkpt>
      <trkpt lat="42.99725" lon="0.31149">
        <ele>1200.4</ele>
        <time>2026-07-08T08:42:18Z</time>
      </trkpt>
      <trkpt lat="42.99725" lon="0.31148">
        <ele>1200.4</ele>
        <time>2026-07-08T08:42:19Z</time>
      </trkpt>
      <trkpt lat="42.99724" lon="0.31148">
        <ele>1199.4</ele>
        <time>2026-07-08T08:42:20Z</time>
      </trkpt>
      <trkpt lat="42.99724" lon="0.31147">
        <ele>1199.4</ele>
        <time>2026-07-08T08:42:20Z</time>
      </trkpt>
      <trkpt lat="42.99723" lon="0.31146">
        <ele>1199.4</ele>
        <time>2026-07-08T08:42:21Z</time>
      </trkpt>
      <trkpt lat="42.99723" lon="0.31146">
        <ele>1199.4</ele>
        <time>2026-07-08T08:42:21Z</time>
      </trkpt>
      <trkpt lat="42.99723" lon="0.31146">
        <ele>1199.4</ele>
        <time>2026-07-08T08:42:22Z</time>
      </trkpt>
      <trkpt lat="42.99722" lon="0.31146">
        <ele>1199.4</ele>
        <time>2026-07-08T08:42:23Z</time>
      </trkpt>
      <trkpt lat="42.99722" lon="0.31145">
        <ele>1199.4</ele>
        <time>2026-07-08T08:42:23Z</time>
      </trkpt>
      <trkpt lat="42.99721" lon="0.31145">
        <ele>1199.4</ele>
        <time>2026-07-08T08:42:24Z</time>
      </trkpt>
      <trkpt lat="42.99721" lon="0.31145">
        <ele>1199.4</ele>
        <time>2026-07-08T08:42:25Z</time>
      </trkpt>
      <trkpt lat="42.9972" lon="0.31144">
        <ele>1199.4</ele>
        <time>2026-07-08T08:42:25Z</time>
      </trkpt>
      <trkpt lat="42.9972" lon="0.31144">
        <ele>1199.4</ele>
        <time>2026-07-08T08:42:26Z</time>
      </trkpt>
      <trkpt lat="42.99719" lon="0.31143">
        <ele>1199.4</ele>
        <time>2026-07-08T08:42:27Z</time>
      </trkpt>
      <trkpt lat="42.99718" lon="0.31142">
        <ele>1199.4</ele>
        <time>2026-07-08T08:42:28Z</time>
      </trkpt>
      <trkpt lat="42.99717" lon="0.31142">
        <ele>1198.4</ele>
        <time>2026-07-08T08:42:28Z</time>
      </trkpt>
      <trkpt lat="42.99717" lon="0.31142">
        <ele>1199.4</ele>
        <time>2026-07-08T08:42:29Z</time>
      </trkpt>
      <trkpt lat="42.99717" lon="0.31141">
        <ele>1199.4</ele>
        <time>2026-07-08T08:42:30Z</time>
      </trkpt>
      <trkpt lat="42.99716" lon="0.3114">
        <ele>1199.4</ele>
        <time>2026-07-08T08:42:30Z</time>
      </trkpt>
      <trkpt lat="42.99716" lon="0.3114">
        <ele>1199.4</ele>
        <time>2026-07-08T08:42:31Z</time>
      </trkpt>
      <trkpt lat="42.99715" lon="0.31139">
        <ele>1199.4</ele>
        <time>2026-07-08T08:42:32Z</time>
      </trkpt>
      <trkpt lat="42.99715" lon="0.31139">
        <ele>1199.4</ele>
        <time>2026-07-08T08:42:32Z</time>
      </trkpt>
      <trkpt lat="42.99714" lon="0.31138">
        <ele>1199.4</ele>
        <time>2026-07-08T08:42:33Z</time>
      </trkpt>
      <trkpt lat="42.99714" lon="0.31138">
        <ele>1200.4</ele>
        <time>2026-07-08T08:42:34Z</time>
      </trkpt>
      <trkpt lat="42.99713" lon="0.31137">
        <ele>1200.4</ele>
        <time>2026-07-08T08:42:34Z</time>
      </trkpt>
      <trkpt lat="42.99713" lon="0.31136">
        <ele>1200.4</ele>
        <time>2026-07-08T08:42:35Z</time>
      </trkpt>
      <trkpt lat="42.99712" lon="0.31136">
        <ele>1200.4</ele>
        <time>2026-07-08T08:42:36Z</time>
      </trkpt>
      <trkpt lat="42.99711" lon="0.31135">
        <ele>1201.4</ele>
        <time>2026-07-08T08:42:36Z</time>
      </trkpt>
      <trkpt lat="42.99711" lon="0.31135">
        <ele>1201.4</ele>
        <time>2026-07-08T08:42:37Z</time>
      </trkpt>
      <trkpt lat="42.99711" lon="0.31134">
        <ele>1201.4</ele>
        <time>2026-07-08T08:42:37Z</time>
      </trkpt>
      <trkpt lat="42.9971" lon="0.31134">
        <ele>1201.4</ele>
        <time>2026-07-08T08:42:38Z</time>
      </trkpt>
      <trkpt lat="42.9971" lon="0.31133">
        <ele>1201.4</ele>
        <time>2026-07-08T08:42:39Z</time>
      </trkpt>
      <trkpt lat="42.99709" lon="0.31133">
        <ele>1200.4</ele>
        <time>2026-07-08T08:42:39Z</time>
      </trkpt>
      <trkpt lat="42.99709" lon="0.31132">
        <ele>1200.4</ele>
        <time>2026-07-08T08:42:40Z</time>
      </trkpt>
      <trkpt lat="42.99708" lon="0.31131">
        <ele>1200.4</ele>
        <time>2026-07-08T08:42:40Z</time>
      </trkpt>
      <trkpt lat="42.99708" lon="0.3113">
        <ele>1200.4</ele>
        <time>2026-07-08T08:42:41Z</time>
      </trkpt>
      <trkpt lat="42.99707" lon="0.31129">
        <ele>1200.4</ele>
        <time>2026-07-08T08:42:42Z</time>
      </trkpt>
      <trkpt lat="42.99707" lon="0.31129">
        <ele>1201.4</ele>
        <time>2026-07-08T08:42:42Z</time>
      </trkpt>
      <trkpt lat="42.99707" lon="0.31128">
        <ele>1201.4</ele>
        <time>2026-07-08T08:42:43Z</time>
      </trkpt>
      <trkpt lat="42.99707" lon="0.31127">
        <ele>1201.4</ele>
        <time>2026-07-08T08:42:44Z</time>
      </trkpt>
      <trkpt lat="42.99706" lon="0.31127">
        <ele>1202.4</ele>
        <time>2026-07-08T08:42:44Z</time>
      </trkpt>
      <trkpt lat="42.99706" lon="0.31126">
        <ele>1202.4</ele>
        <time>2026-07-08T08:42:45Z</time>
      </trkpt>
      <trkpt lat="42.99706" lon="0.31125">
        <ele>1202.4</ele>
        <time>2026-07-08T08:42:45Z</time>
      </trkpt>
      <trkpt lat="42.99705" lon="0.31124">
        <ele>1202.4</ele>
        <time>2026-07-08T08:42:46Z</time>
      </trkpt>
      <trkpt lat="42.99705" lon="0.31124">
        <ele>1202.4</ele>
        <time>2026-07-08T08:42:47Z</time>
      </trkpt>
      <trkpt lat="42.99704" lon="0.31123">
        <ele>1203.4</ele>
        <time>2026-07-08T08:42:47Z</time>
      </trkpt>
      <trkpt lat="42.99704" lon="0.31123">
        <ele>1203.4</ele>
        <time>2026-07-08T08:42:48Z</time>
      </trkpt>
      <trkpt lat="42.99704" lon="0.31122">
        <ele>1203.4</ele>
        <time>2026-07-08T08:42:48Z</time>
      </trkpt>
      <trkpt lat="42.99703" lon="0.31121">
        <ele>1203.4</ele>
        <time>2026-07-08T08:42:49Z</time>
      </trkpt>
      <trkpt lat="42.99703" lon="0.3112">
        <ele>1203.4</ele>
        <time>2026-07-08T08:42:50Z</time>
      </trkpt>
      <trkpt lat="42.99702" lon="0.31119">
        <ele>1203.4</ele>
        <time>2026-07-08T08:42:50Z</time>
      </trkpt>
      <trkpt lat="42.99702" lon="0.31119">
        <ele>1203.4</ele>
        <time>2026-07-08T08:42:51Z</time>
      </trkpt>
      <trkpt lat="42.99702" lon="0.31118">
        <ele>1203.4</ele>
        <time>2026-07-08T08:42:52Z</time>
      </trkpt>
      <trkpt lat="42.99701" lon="0.31117">
        <ele>1203.4</ele>
        <time>2026-07-08T08:42:52Z</time>
      </trkpt>
      <trkpt lat="42.99701" lon="0.31116">
        <ele>1203.4</ele>
        <time>2026-07-08T08:42:53Z</time>
      </trkpt>
      <trkpt lat="42.997" lon="0.31116">
        <ele>1203.4</ele>
        <time>2026-07-08T08:42:54Z</time>
      </trkpt>
      <trkpt lat="42.997" lon="0.31115">
        <ele>1203.4</ele>
        <time>2026-07-08T08:42:54Z</time>
      </trkpt>
      <trkpt lat="42.99699" lon="0.31114">
        <ele>1203.4</ele>
        <time>2026-07-08T08:42:55Z</time>
      </trkpt>
      <trkpt lat="42.99699" lon="0.31114">
        <ele>1203.4</ele>
        <time>2026-07-08T08:42:55Z</time>
      </trkpt>
      <trkpt lat="42.99699" lon="0.31113">
        <ele>1203.4</ele>
        <time>2026-07-08T08:42:56Z</time>
      </trkpt>
      <trkpt lat="42.99698" lon="0.31112">
        <ele>1203.4</ele>
        <time>2026-07-08T08:42:57Z</time>
      </trkpt>
      <trkpt lat="42.99698" lon="0.31112">
        <ele>1203.4</ele>
        <time>2026-07-08T08:42:57Z</time>
      </trkpt>
      <trkpt lat="42.99698" lon="0.31111">
        <ele>1203.4</ele>
        <time>2026-07-08T08:42:58Z</time>
      </trkpt>
      <trkpt lat="42.99697" lon="0.3111">
        <ele>1203.4</ele>
        <time>2026-07-08T08:42:59Z</time>
      </trkpt>
      <trkpt lat="42.99697" lon="0.31109">
        <ele>1203.4</ele>
        <time>2026-07-08T08:42:59Z</time>
      </trkpt>
      <trkpt lat="42.99696" lon="0.31108">
        <ele>1203.4</ele>
        <time>2026-07-08T08:43:00Z</time>
      </trkpt>
      <trkpt lat="42.99696" lon="0.31108">
        <ele>1203.4</ele>
        <time>2026-07-08T08:43:01Z</time>
      </trkpt>
      <trkpt lat="42.99696" lon="0.31107">
        <ele>1202.4</ele>
        <time>2026-07-08T08:43:01Z</time>
      </trkpt>
      <trkpt lat="42.99695" lon="0.31106">
        <ele>1202.4</ele>
        <time>2026-07-08T08:43:02Z</time>
      </trkpt>
      <trkpt lat="42.99695" lon="0.31106">
        <ele>1202.4</ele>
        <time>2026-07-08T08:43:02Z</time>
      </trkpt>
      <trkpt lat="42.99695" lon="0.31105">
        <ele>1202.4</ele>
        <time>2026-07-08T08:43:03Z</time>
      </trkpt>
      <trkpt lat="42.99694" lon="0.31104">
        <ele>1202.4</ele>
        <time>2026-07-08T08:43:04Z</time>
      </trkpt>
      <trkpt lat="42.99694" lon="0.31104">
        <ele>1202.4</ele>
        <time>2026-07-08T08:43:04Z</time>
      </trkpt>
      <trkpt lat="42.99693" lon="0.31103">
        <ele>1202.4</ele>
        <time>2026-07-08T08:43:05Z</time>
      </trkpt>
      <trkpt lat="42.99693" lon="0.31103">
        <ele>1202.4</ele>
        <time>2026-07-08T08:43:06Z</time>
      </trkpt>
      <trkpt lat="42.99692" lon="0.31102">
        <ele>1203.4</ele>
        <time>2026-07-08T08:43:06Z</time>
      </trkpt>
      <trkpt lat="42.99692" lon="0.31101">
        <ele>1203.4</ele>
        <time>2026-07-08T08:43:07Z</time>
      </trkpt>
      <trkpt lat="42.99692" lon="0.311">
        <ele>1203.4</ele>
        <time>2026-07-08T08:43:08Z</time>
      </trkpt>
      <trkpt lat="42.99691" lon="0.311">
        <ele>1203.4</ele>
        <time>2026-07-08T08:43:08Z</time>
      </trkpt>
      <trkpt lat="42.99691" lon="0.31099">
        <ele>1203.4</ele>
        <time>2026-07-08T08:43:09Z</time>
      </trkpt>
      <trkpt lat="42.9969" lon="0.31098">
        <ele>1203.4</ele>
        <time>2026-07-08T08:43:09Z</time>
      </trkpt>
      <trkpt lat="42.9969" lon="0.31097">
        <ele>1203.4</ele>
        <time>2026-07-08T08:43:10Z</time>
      </trkpt>
      <trkpt lat="42.9969" lon="0.31096">
        <ele>1203.4</ele>
        <time>2026-07-08T08:43:11Z</time>
      </trkpt>
      <trkpt lat="42.99689" lon="0.31096">
        <ele>1203.4</ele>
        <time>2026-07-08T08:43:11Z</time>
      </trkpt>
      <trkpt lat="42.99689" lon="0.31095">
        <ele>1204.4</ele>
        <time>2026-07-08T08:43:12Z</time>
      </trkpt>
      <trkpt lat="42.99688" lon="0.31094">
        <ele>1204.4</ele>
        <time>2026-07-08T08:43:13Z</time>
      </trkpt>
      <trkpt lat="42.99688" lon="0.31093">
        <ele>1204.4</ele>
        <time>2026-07-08T08:43:14Z</time>
      </trkpt>
      <trkpt lat="42.99687" lon="0.31093">
        <ele>1204.4</ele>
        <time>2026-07-08T08:43:15Z</time>
      </trkpt>
      <trkpt lat="42.99687" lon="0.31092">
        <ele>1204.4</ele>
        <time>2026-07-08T08:43:15Z</time>
      </trkpt>
      <trkpt lat="42.99687" lon="0.31091">
        <ele>1204.4</ele>
        <time>2026-07-08T08:43:16Z</time>
      </trkpt>
      <trkpt lat="42.99686" lon="0.31091">
        <ele>1204.4</ele>
        <time>2026-07-08T08:43:17Z</time>
      </trkpt>
      <trkpt lat="42.99686" lon="0.3109">
        <ele>1203.4</ele>
        <time>2026-07-08T08:43:17Z</time>
      </trkpt>
      <trkpt lat="42.99686" lon="0.31089">
        <ele>1203.4</ele>
        <time>2026-07-08T08:43:18Z</time>
      </trkpt>
      <trkpt lat="42.99685" lon="0.31088">
        <ele>1203.4</ele>
        <time>2026-07-08T08:43:19Z</time>
      </trkpt>
      <trkpt lat="42.99685" lon="0.31088">
        <ele>1203.4</ele>
        <time>2026-07-08T08:43:19Z</time>
      </trkpt>
      <trkpt lat="42.99685" lon="0.31087">
        <ele>1203.4</ele>
        <time>2026-07-08T08:43:20Z</time>
      </trkpt>
      <trkpt lat="42.99684" lon="0.31086">
        <ele>1203.4</ele>
        <time>2026-07-08T08:43:21Z</time>
      </trkpt>
      <trkpt lat="42.99684" lon="0.31086">
        <ele>1203.4</ele>
        <time>2026-07-08T08:43:21Z</time>
      </trkpt>
      <trkpt lat="42.99684" lon="0.31085">
        <ele>1203.4</ele>
        <time>2026-07-08T08:43:22Z</time>
      </trkpt>
      <trkpt lat="42.99683" lon="0.31084">
        <ele>1203.4</ele>
        <time>2026-07-08T08:43:23Z</time>
      </trkpt>
      <trkpt lat="42.99683" lon="0.31084">
        <ele>1203.4</ele>
        <time>2026-07-08T08:43:23Z</time>
      </trkpt>
      <trkpt lat="42.99683" lon="0.31083">
        <ele>1203.4</ele>
        <time>2026-07-08T08:43:24Z</time>
      </trkpt>
      <trkpt lat="42.99682" lon="0.31082">
        <ele>1204.4</ele>
        <time>2026-07-08T08:43:25Z</time>
      </trkpt>
      <trkpt lat="42.99682" lon="0.31081">
        <ele>1203.4</ele>
        <time>2026-07-08T08:43:25Z</time>
      </trkpt>
      <trkpt lat="42.99682" lon="0.3108">
        <ele>1203.4</ele>
        <time>2026-07-08T08:43:26Z</time>
      </trkpt>
      <trkpt lat="42.99682" lon="0.3108">
        <ele>1203.4</ele>
        <time>2026-07-08T08:43:27Z</time>
      </trkpt>
      <trkpt lat="42.99681" lon="0.3108">
        <ele>1203.4</ele>
        <time>2026-07-08T08:43:27Z</time>
      </trkpt>
      <trkpt lat="42.99681" lon="0.31079">
        <ele>1203.4</ele>
        <time>2026-07-08T08:43:28Z</time>
      </trkpt>
      <trkpt lat="42.99681" lon="0.31078">
        <ele>1203.4</ele>
        <time>2026-07-08T08:43:29Z</time>
      </trkpt>
      <trkpt lat="42.99681" lon="0.31077">
        <ele>1204.4</ele>
        <time>2026-07-08T08:43:29Z</time>
      </trkpt>
      <trkpt lat="42.99681" lon="0.31076">
        <ele>1204.4</ele>
        <time>2026-07-08T08:43:30Z</time>
      </trkpt>
      <trkpt lat="42.99681" lon="0.31075">
        <ele>1204.4</ele>
        <time>2026-07-08T08:43:31Z</time>
      </trkpt>
      <trkpt lat="42.9968" lon="0.31075">
        <ele>1205.4</ele>
        <time>2026-07-08T08:43:31Z</time>
      </trkpt>
      <trkpt lat="42.9968" lon="0.31074">
        <ele>1205.4</ele>
        <time>2026-07-08T08:43:32Z</time>
      </trkpt>
      <trkpt lat="42.9968" lon="0.31073">
        <ele>1205.4</ele>
        <time>2026-07-08T08:43:33Z</time>
      </trkpt>
      <trkpt lat="42.9968" lon="0.31072">
        <ele>1205.4</ele>
        <time>2026-07-08T08:43:33Z</time>
      </trkpt>
      <trkpt lat="42.99679" lon="0.31071">
        <ele>1205.4</ele>
        <time>2026-07-08T08:43:34Z</time>
      </trkpt>
      <trkpt lat="42.99679" lon="0.31071">
        <ele>1205.4</ele>
        <time>2026-07-08T08:43:35Z</time>
      </trkpt>
      <trkpt lat="42.99679" lon="0.3107">
        <ele>1205.4</ele>
        <time>2026-07-08T08:43:35Z</time>
      </trkpt>
      <trkpt lat="42.99679" lon="0.31069">
        <ele>1205.4</ele>
        <time>2026-07-08T08:43:36Z</time>
      </trkpt>
      <trkpt lat="42.99679" lon="0.31069">
        <ele>1206.4</ele>
        <time>2026-07-08T08:43:36Z</time>
      </trkpt>
      <trkpt lat="42.99678" lon="0.31068">
        <ele>1206.4</ele>
        <time>2026-07-08T08:43:37Z</time>
      </trkpt>
      <trkpt lat="42.99678" lon="0.31067">
        <ele>1206.4</ele>
        <time>2026-07-08T08:43:38Z</time>
      </trkpt>
      <trkpt lat="42.99678" lon="0.31066">
        <ele>1205.4</ele>
        <time>2026-07-08T08:43:38Z</time>
      </trkpt>
      <trkpt lat="42.99678" lon="0.31066">
        <ele>1205.4</ele>
        <time>2026-07-08T08:43:39Z</time>
      </trkpt>
      <trkpt lat="42.99678" lon="0.31065">
        <ele>1205.4</ele>
        <time>2026-07-08T08:43:40Z</time>
      </trkpt>
      <trkpt lat="42.99677" lon="0.31064">
        <ele>1205.4</ele>
        <time>2026-07-08T08:43:40Z</time>
      </trkpt>
      <trkpt lat="42.99677" lon="0.31063">
        <ele>1205.4</ele>
        <time>2026-07-08T08:43:41Z</time>
      </trkpt>
      <trkpt lat="42.99677" lon="0.31062">
        <ele>1205.4</ele>
        <time>2026-07-08T08:43:42Z</time>
      </trkpt>
      <trkpt lat="42.99677" lon="0.31062">
        <ele>1205.4</ele>
        <time>2026-07-08T08:43:43Z</time>
      </trkpt>
      <trkpt lat="42.99677" lon="0.31062">
        <ele>1206.4</ele>
        <time>2026-07-08T08:43:43Z</time>
      </trkpt>
      <trkpt lat="42.99676" lon="0.31061">
        <ele>1205.4</ele>
        <time>2026-07-08T08:43:44Z</time>
      </trkpt>
      <trkpt lat="42.99676" lon="0.3106">
        <ele>1205.4</ele>
        <time>2026-07-08T08:43:45Z</time>
      </trkpt>
      <trkpt lat="42.99676" lon="0.3106">
        <ele>1205.4</ele>
        <time>2026-07-08T08:43:45Z</time>
      </trkpt>
      <trkpt lat="42.99676" lon="0.3106">
        <ele>1205.4</ele>
        <time>2026-07-08T08:43:46Z</time>
      </trkpt>
      <trkpt lat="42.99676" lon="0.31059">
        <ele>1205.4</ele>
        <time>2026-07-08T08:43:47Z</time>
      </trkpt>
      <trkpt lat="42.99675" lon="0.31058">
        <ele>1205.4</ele>
        <time>2026-07-08T08:43:48Z</time>
      </trkpt>
      <trkpt lat="42.99675" lon="0.31058">
        <ele>1204.4</ele>
        <time>2026-07-08T08:43:48Z</time>
      </trkpt>
      <trkpt lat="42.99675" lon="0.31057">
        <ele>1204.4</ele>
        <time>2026-07-08T08:43:49Z</time>
      </trkpt>
      <trkpt lat="42.99675" lon="0.31056">
        <ele>1204.4</ele>
        <time>2026-07-08T08:43:49Z</time>
      </trkpt>
      <trkpt lat="42.99674" lon="0.31055">
        <ele>1204.4</ele>
        <time>2026-07-08T08:43:50Z</time>
      </trkpt>
      <trkpt lat="42.99674" lon="0.31054">
        <ele>1204.4</ele>
        <time>2026-07-08T08:43:51Z</time>
      </trkpt>
      <trkpt lat="42.99674" lon="0.31053">
        <ele>1204.4</ele>
        <time>2026-07-08T08:43:51Z</time>
      </trkpt>
      <trkpt lat="42.99674" lon="0.31053">
        <ele>1204.4</ele>
        <time>2026-07-08T08:43:52Z</time>
      </trkpt>
      <trkpt lat="42.99673" lon="0.31052">
        <ele>1203.4</ele>
        <time>2026-07-08T08:43:53Z</time>
      </trkpt>
      <trkpt lat="42.99673" lon="0.31051">
        <ele>1204.4</ele>
        <time>2026-07-08T08:43:53Z</time>
      </trkpt>
      <trkpt lat="42.99673" lon="0.3105">
        <ele>1204.4</ele>
        <time>2026-07-08T08:43:54Z</time>
      </trkpt>
      <trkpt lat="42.99673" lon="0.31049">
        <ele>1203.4</ele>
        <time>2026-07-08T08:43:54Z</time>
      </trkpt>
      <trkpt lat="42.99672" lon="0.31049">
        <ele>1203.4</ele>
        <time>2026-07-08T08:43:55Z</time>
      </trkpt>
      <trkpt lat="42.99672" lon="0.31048">
        <ele>1203.4</ele>
        <time>2026-07-08T08:43:56Z</time>
      </trkpt>
      <trkpt lat="42.99672" lon="0.31047">
        <ele>1203.4</ele>
        <time>2026-07-08T08:43:56Z</time>
      </trkpt>
      <trkpt lat="42.99672" lon="0.31046">
        <ele>1203.4</ele>
        <time>2026-07-08T08:43:57Z</time>
      </trkpt>
      <trkpt lat="42.99671" lon="0.31046">
        <ele>1202.4</ele>
        <time>2026-07-08T08:43:58Z</time>
      </trkpt>
      <trkpt lat="42.99671" lon="0.31045">
        <ele>1202.4</ele>
        <time>2026-07-08T08:43:58Z</time>
      </trkpt>
      <trkpt lat="42.9967" lon="0.31044">
        <ele>1202.4</ele>
        <time>2026-07-08T08:43:59Z</time>
      </trkpt>
      <trkpt lat="42.9967" lon="0.31044">
        <ele>1202.4</ele>
        <time>2026-07-08T08:44:00Z</time>
      </trkpt>
      <trkpt lat="42.9967" lon="0.31043">
        <ele>1202.4</ele>
        <time>2026-07-08T08:44:00Z</time>
      </trkpt>
      <trkpt lat="42.9967" lon="0.31043">
        <ele>1202.4</ele>
        <time>2026-07-08T08:44:01Z</time>
      </trkpt>
      <trkpt lat="42.99669" lon="0.31042">
        <ele>1202.4</ele>
        <time>2026-07-08T08:44:01Z</time>
      </trkpt>
      <trkpt lat="42.99669" lon="0.31041">
        <ele>1202.4</ele>
        <time>2026-07-08T08:44:02Z</time>
      </trkpt>
      <trkpt lat="42.99669" lon="0.3104">
        <ele>1203.4</ele>
        <time>2026-07-08T08:44:03Z</time>
      </trkpt>
      <trkpt lat="42.99669" lon="0.3104">
        <ele>1204.4</ele>
        <time>2026-07-08T08:44:03Z</time>
      </trkpt>
      <trkpt lat="42.99669" lon="0.31039">
        <ele>1204.4</ele>
        <time>2026-07-08T08:44:04Z</time>
      </trkpt>
      <trkpt lat="42.99668" lon="0.31038">
        <ele>1204.4</ele>
        <time>2026-07-08T08:44:05Z</time>
      </trkpt>
      <trkpt lat="42.99668" lon="0.31037">
        <ele>1205.4</ele>
        <time>2026-07-08T08:44:05Z</time>
      </trkpt>
      <trkpt lat="42.99668" lon="0.31036">
        <ele>1205.4</ele>
        <time>2026-07-08T08:44:06Z</time>
      </trkpt>
      <trkpt lat="42.99667" lon="0.31036">
        <ele>1205.4</ele>
        <time>2026-07-08T08:44:07Z</time>
      </trkpt>
      <trkpt lat="42.99667" lon="0.31035">
        <ele>1205.4</ele>
        <time>2026-07-08T08:44:07Z</time>
      </trkpt>
      <trkpt lat="42.99666" lon="0.31034">
        <ele>1205.4</ele>
        <time>2026-07-08T08:44:08Z</time>
      </trkpt>
      <trkpt lat="42.99666" lon="0.31033">
        <ele>1205.4</ele>
        <time>2026-07-08T08:44:09Z</time>
      </trkpt>
      <trkpt lat="42.99666" lon="0.31033">
        <ele>1206.4</ele>
        <time>2026-07-08T08:44:10Z</time>
      </trkpt>
      <trkpt lat="42.99665" lon="0.31032">
        <ele>1205.4</ele>
        <time>2026-07-08T08:44:10Z</time>
      </trkpt>
      <trkpt lat="42.99665" lon="0.31032">
        <ele>1205.4</ele>
        <time>2026-07-08T08:44:11Z</time>
      </trkpt>
      <trkpt lat="42.99665" lon="0.31031">
        <ele>1206.4</ele>
        <time>2026-07-08T08:44:11Z</time>
      </trkpt>
      <trkpt lat="42.99665" lon="0.3103">
        <ele>1206.4</ele>
        <time>2026-07-08T08:44:12Z</time>
      </trkpt>
      <trkpt lat="42.99664" lon="0.31029">
        <ele>1206.4</ele>
        <time>2026-07-08T08:44:13Z</time>
      </trkpt>
      <trkpt lat="42.99664" lon="0.31028">
        <ele>1207.4</ele>
        <time>2026-07-08T08:44:13Z</time>
      </trkpt>
      <trkpt lat="42.99664" lon="0.31028">
        <ele>1207.4</ele>
        <time>2026-07-08T08:44:14Z</time>
      </trkpt>
      <trkpt lat="42.99663" lon="0.31027">
        <ele>1207.4</ele>
        <time>2026-07-08T08:44:15Z</time>
      </trkpt>
      <trkpt lat="42.99663" lon="0.31026">
        <ele>1207.4</ele>
        <time>2026-07-08T08:44:15Z</time>
      </trkpt>
      <trkpt lat="42.99663" lon="0.31025">
        <ele>1207.4</ele>
        <time>2026-07-08T08:44:16Z</time>
      </trkpt>
      <trkpt lat="42.99663" lon="0.31025">
        <ele>1207.4</ele>
        <time>2026-07-08T08:44:17Z</time>
      </trkpt>
      <trkpt lat="42.99663" lon="0.31024">
        <ele>1208.4</ele>
        <time>2026-07-08T08:44:17Z</time>
      </trkpt>
      <trkpt lat="42.99663" lon="0.31023">
        <ele>1208.4</ele>
        <time>2026-07-08T08:44:18Z</time>
      </trkpt>
      <trkpt lat="42.99662" lon="0.31023">
        <ele>1207.4</ele>
        <time>2026-07-08T08:44:19Z</time>
      </trkpt>
      <trkpt lat="42.99662" lon="0.31022">
        <ele>1207.4</ele>
        <time>2026-07-08T08:44:19Z</time>
      </trkpt>
      <trkpt lat="42.99661" lon="0.31022">
        <ele>1208.4</ele>
        <time>2026-07-08T08:44:20Z</time>
      </trkpt>
      <trkpt lat="42.99661" lon="0.31021">
        <ele>1208.4</ele>
        <time>2026-07-08T08:44:21Z</time>
      </trkpt>
      <trkpt lat="42.99661" lon="0.31021">
        <ele>1208.4</ele>
        <time>2026-07-08T08:44:21Z</time>
      </trkpt>
      <trkpt lat="42.9966" lon="0.3102">
        <ele>1208.4</ele>
        <time>2026-07-08T08:44:22Z</time>
      </trkpt>
      <trkpt lat="42.9966" lon="0.3102">
        <ele>1208.4</ele>
        <time>2026-07-08T08:44:23Z</time>
      </trkpt>
      <trkpt lat="42.9966" lon="0.31019">
        <ele>1208.4</ele>
        <time>2026-07-08T08:44:23Z</time>
      </trkpt>
      <trkpt lat="42.99659" lon="0.31019">
        <ele>1208.4</ele>
        <time>2026-07-08T08:44:24Z</time>
      </trkpt>
      <trkpt lat="42.99659" lon="0.31018">
        <ele>1208.4</ele>
        <time>2026-07-08T08:44:25Z</time>
      </trkpt>
      <trkpt lat="42.99659" lon="0.31017">
        <ele>1208.4</ele>
        <time>2026-07-08T08:44:26Z</time>
      </trkpt>
      <trkpt lat="42.99658" lon="0.31016">
        <ele>1208.4</ele>
        <time>2026-07-08T08:44:26Z</time>
      </trkpt>
      <trkpt lat="42.99658" lon="0.31015">
        <ele>1208.4</ele>
        <time>2026-07-08T08:44:27Z</time>
      </trkpt>
      <trkpt lat="42.99658" lon="0.31015">
        <ele>1209.4</ele>
        <time>2026-07-08T08:44:27Z</time>
      </trkpt>
      <trkpt lat="42.99658" lon="0.31014">
        <ele>1209.4</ele>
        <time>2026-07-08T08:44:28Z</time>
      </trkpt>
      <trkpt lat="42.99657" lon="0.31013">
        <ele>1209.4</ele>
        <time>2026-07-08T08:44:29Z</time>
      </trkpt>
      <trkpt lat="42.99657" lon="0.31012">
        <ele>1210.4</ele>
        <time>2026-07-08T08:44:29Z</time>
      </trkpt>
      <trkpt lat="42.99657" lon="0.31011">
        <ele>1210.4</ele>
        <time>2026-07-08T08:44:30Z</time>
      </trkpt>
      <trkpt lat="42.99657" lon="0.31011">
        <ele>1210.4</ele>
        <time>2026-07-08T08:44:31Z</time>
      </trkpt>
      <trkpt lat="42.99657" lon="0.3101">
        <ele>1210.4</ele>
        <time>2026-07-08T08:44:31Z</time>
      </trkpt>
      <trkpt lat="42.99656" lon="0.31009">
        <ele>1210.4</ele>
        <time>2026-07-08T08:44:32Z</time>
      </trkpt>
      <trkpt lat="42.99656" lon="0.31008">
        <ele>1210.4</ele>
        <time>2026-07-08T08:44:32Z</time>
      </trkpt>
      <trkpt lat="42.99655" lon="0.31007">
        <ele>1210.4</ele>
        <time>2026-07-08T08:44:33Z</time>
      </trkpt>
      <trkpt lat="42.99655" lon="0.31007">
        <ele>1210.4</ele>
        <time>2026-07-08T08:44:34Z</time>
      </trkpt>
      <trkpt lat="42.99654" lon="0.31006">
        <ele>1210.4</ele>
        <time>2026-07-08T08:44:34Z</time>
      </trkpt>
      <trkpt lat="42.99654" lon="0.31005">
        <ele>1210.4</ele>
        <time>2026-07-08T08:44:35Z</time>
      </trkpt>
      <trkpt lat="42.99653" lon="0.31004">
        <ele>1210.4</ele>
        <time>2026-07-08T08:44:36Z</time>
      </trkpt>
      <trkpt lat="42.99653" lon="0.31003">
        <ele>1210.4</ele>
        <time>2026-07-08T08:44:36Z</time>
      </trkpt>
      <trkpt lat="42.99653" lon="0.31002">
        <ele>1210.4</ele>
        <time>2026-07-08T08:44:37Z</time>
      </trkpt>
      <trkpt lat="42.99653" lon="0.31001">
        <ele>1211.4</ele>
        <time>2026-07-08T08:44:38Z</time>
      </trkpt>
      <trkpt lat="42.99653" lon="0.31001">
        <ele>1211.4</ele>
        <time>2026-07-08T08:44:38Z</time>
      </trkpt>
      <trkpt lat="42.99653" lon="0.31">
        <ele>1211.4</ele>
        <time>2026-07-08T08:44:39Z</time>
      </trkpt>
      <trkpt lat="42.99653" lon="0.31">
        <ele>1211.4</ele>
        <time>2026-07-08T08:44:40Z</time>
      </trkpt>
      <trkpt lat="42.99653" lon="0.30999">
        <ele>1210.4</ele>
        <time>2026-07-08T08:44:40Z</time>
      </trkpt>
      <trkpt lat="42.99652" lon="0.30998">
        <ele>1210.4</ele>
        <time>2026-07-08T08:44:41Z</time>
      </trkpt>
      <trkpt lat="42.99652" lon="0.30998">
        <ele>1210.4</ele>
        <time>2026-07-08T08:44:42Z</time>
      </trkpt>
      <trkpt lat="42.99652" lon="0.30997">
        <ele>1210.4</ele>
        <time>2026-07-08T08:44:43Z</time>
      </trkpt>
      <trkpt lat="42.99651" lon="0.30997">
        <ele>1210.4</ele>
        <time>2026-07-08T08:44:43Z</time>
      </trkpt>
      <trkpt lat="42.99651" lon="0.30996">
        <ele>1210.4</ele>
        <time>2026-07-08T08:44:44Z</time>
      </trkpt>
      <trkpt lat="42.99651" lon="0.30995">
        <ele>1211.4</ele>
        <time>2026-07-08T08:44:45Z</time>
      </trkpt>
      <trkpt lat="42.99651" lon="0.30995">
        <ele>1210.4</ele>
        <time>2026-07-08T08:44:45Z</time>
      </trkpt>
      <trkpt lat="42.9965" lon="0.30994">
        <ele>1210.4</ele>
        <time>2026-07-08T08:44:46Z</time>
      </trkpt>
      <trkpt lat="42.9965" lon="0.30993">
        <ele>1210.4</ele>
        <time>2026-07-08T08:44:46Z</time>
      </trkpt>
      <trkpt lat="42.9965" lon="0.30992">
        <ele>1210.4</ele>
        <time>2026-07-08T08:44:47Z</time>
      </trkpt>
      <trkpt lat="42.9965" lon="0.30991">
        <ele>1210.4</ele>
        <time>2026-07-08T08:44:48Z</time>
      </trkpt>
      <trkpt lat="42.9965" lon="0.30991">
        <ele>1210.4</ele>
        <time>2026-07-08T08:44:48Z</time>
      </trkpt>
      <trkpt lat="42.9965" lon="0.3099">
        <ele>1210.4</ele>
        <time>2026-07-08T08:44:49Z</time>
      </trkpt>
      <trkpt lat="42.9965" lon="0.30989">
        <ele>1210.4</ele>
        <time>2026-07-08T08:44:49Z</time>
      </trkpt>
      <trkpt lat="42.9965" lon="0.30988">
        <ele>1210.4</ele>
        <time>2026-07-08T08:44:50Z</time>
      </trkpt>
      <trkpt lat="42.9965" lon="0.30987">
        <ele>1210.4</ele>
        <time>2026-07-08T08:44:51Z</time>
      </trkpt>
      <trkpt lat="42.99649" lon="0.30987">
        <ele>1210.4</ele>
        <time>2026-07-08T08:44:51Z</time>
      </trkpt>
      <trkpt lat="42.99649" lon="0.30986">
        <ele>1210.4</ele>
        <time>2026-07-08T08:44:52Z</time>
      </trkpt>
      <trkpt lat="42.99649" lon="0.30985">
        <ele>1210.4</ele>
        <time>2026-07-08T08:44:52Z</time>
      </trkpt>
      <trkpt lat="42.99648" lon="0.30984">
        <ele>1210.4</ele>
        <time>2026-07-08T08:44:53Z</time>
      </trkpt>
      <trkpt lat="42.99648" lon="0.30984">
        <ele>1210.4</ele>
        <time>2026-07-08T08:44:54Z</time>
      </trkpt>
      <trkpt lat="42.99648" lon="0.30983">
        <ele>1210.4</ele>
        <time>2026-07-08T08:44:54Z</time>
      </trkpt>
      <trkpt lat="42.99648" lon="0.30982">
        <ele>1210.4</ele>
        <time>2026-07-08T08:44:55Z</time>
      </trkpt>
      <trkpt lat="42.99647" lon="0.30981">
        <ele>1210.4</ele>
        <time>2026-07-08T08:44:55Z</time>
      </trkpt>
      <trkpt lat="42.99647" lon="0.30981">
        <ele>1210.4</ele>
        <time>2026-07-08T08:44:56Z</time>
      </trkpt>
      <trkpt lat="42.99647" lon="0.3098">
        <ele>1210.4</ele>
        <time>2026-07-08T08:44:57Z</time>
      </trkpt>
      <trkpt lat="42.99647" lon="0.30979">
        <ele>1210.4</ele>
        <time>2026-07-08T08:44:57Z</time>
      </trkpt>
      <trkpt lat="42.99646" lon="0.30978">
        <ele>1210.4</ele>
        <time>2026-07-08T08:44:58Z</time>
      </trkpt>
      <trkpt lat="42.99646" lon="0.30978">
        <ele>1210.4</ele>
        <time>2026-07-08T08:44:58Z</time>
      </trkpt>
      <trkpt lat="42.99646" lon="0.30977">
        <ele>1210.4</ele>
        <time>2026-07-08T08:44:59Z</time>
      </trkpt>
      <trkpt lat="42.99645" lon="0.30977">
        <ele>1210.4</ele>
        <time>2026-07-08T08:45:00Z</time>
      </trkpt>
      <trkpt lat="42.99644" lon="0.30976">
        <ele>1210.4</ele>
        <time>2026-07-08T08:45:01Z</time>
      </trkpt>
      <trkpt lat="42.99644" lon="0.30976">
        <ele>1210.4</ele>
        <time>2026-07-08T08:45:01Z</time>
      </trkpt>
      <trkpt lat="42.99643" lon="0.30975">
        <ele>1210.4</ele>
        <time>2026-07-08T08:45:02Z</time>
      </trkpt>
      <trkpt lat="42.99643" lon="0.30974">
        <ele>1210.4</ele>
        <time>2026-07-08T08:45:03Z</time>
      </trkpt>
      <trkpt lat="42.99642" lon="0.30974">
        <ele>1211.4</ele>
        <time>2026-07-08T08:45:03Z</time>
      </trkpt>
      <trkpt lat="42.99642" lon="0.30973">
        <ele>1211.4</ele>
        <time>2026-07-08T08:45:04Z</time>
      </trkpt>
      <trkpt lat="42.99642" lon="0.30972">
        <ele>1211.4</ele>
        <time>2026-07-08T08:45:05Z</time>
      </trkpt>
      <trkpt lat="42.99642" lon="0.30971">
        <ele>1211.4</ele>
        <time>2026-07-08T08:45:05Z</time>
      </trkpt>
      <trkpt lat="42.99641" lon="0.30971">
        <ele>1211.4</ele>
        <time>2026-07-08T08:45:06Z</time>
      </trkpt>
      <trkpt lat="42.99641" lon="0.3097">
        <ele>1212.4</ele>
        <time>2026-07-08T08:45:06Z</time>
      </trkpt>
      <trkpt lat="42.99641" lon="0.30969">
        <ele>1213.4</ele>
        <time>2026-07-08T08:45:07Z</time>
      </trkpt>
      <trkpt lat="42.99641" lon="0.30968">
        <ele>1213.4</ele>
        <time>2026-07-08T08:45:08Z</time>
      </trkpt>
      <trkpt lat="42.9964" lon="0.30968">
        <ele>1213.4</ele>
        <time>2026-07-08T08:45:09Z</time>
      </trkpt>
      <trkpt lat="42.9964" lon="0.30967">
        <ele>1213.4</ele>
        <time>2026-07-08T08:45:09Z</time>
      </trkpt>
      <trkpt lat="42.99639" lon="0.30967">
        <ele>1213.4</ele>
        <time>2026-07-08T08:45:10Z</time>
      </trkpt>
      <trkpt lat="42.99639" lon="0.30966">
        <ele>1213.4</ele>
        <time>2026-07-08T08:45:11Z</time>
      </trkpt>
      <trkpt lat="42.99639" lon="0.30966">
        <ele>1214.4</ele>
        <time>2026-07-08T08:45:11Z</time>
      </trkpt>
      <trkpt lat="42.99638" lon="0.30965">
        <ele>1214.4</ele>
        <time>2026-07-08T08:45:12Z</time>
      </trkpt>
      <trkpt lat="42.99638" lon="0.30965">
        <ele>1214.4</ele>
        <time>2026-07-08T08:45:13Z</time>
      </trkpt>
      <trkpt lat="42.99637" lon="0.30964">
        <ele>1215.4</ele>
        <time>2026-07-08T08:45:13Z</time>
      </trkpt>
      <trkpt lat="42.99637" lon="0.30964">
        <ele>1215.4</ele>
        <time>2026-07-08T08:45:14Z</time>
      </trkpt>
      <trkpt lat="42.99636" lon="0.30963">
        <ele>1214.4</ele>
        <time>2026-07-08T08:45:15Z</time>
      </trkpt>
      <trkpt lat="42.99636" lon="0.30962">
        <ele>1215.4</ele>
        <time>2026-07-08T08:45:15Z</time>
      </trkpt>
      <trkpt lat="42.99636" lon="0.30962">
        <ele>1214.4</ele>
        <time>2026-07-08T08:45:16Z</time>
      </trkpt>
      <trkpt lat="42.99635" lon="0.30961">
        <ele>1214.4</ele>
        <time>2026-07-08T08:45:17Z</time>
      </trkpt>
      <trkpt lat="42.99635" lon="0.3096">
        <ele>1214.4</ele>
        <time>2026-07-08T08:45:18Z</time>
      </trkpt>
      <trkpt lat="42.99635" lon="0.30959">
        <ele>1214.4</ele>
        <time>2026-07-08T08:45:18Z</time>
      </trkpt>
      <trkpt lat="42.99635" lon="0.30959">
        <ele>1215.4</ele>
        <time>2026-07-08T08:45:19Z</time>
      </trkpt>
      <trkpt lat="42.99634" lon="0.30958">
        <ele>1215.4</ele>
        <time>2026-07-08T08:45:20Z</time>
      </trkpt>
      <trkpt lat="42.99634" lon="0.30958">
        <ele>1215.4</ele>
        <time>2026-07-08T08:45:21Z</time>
      </trkpt>
      <trkpt lat="42.99634" lon="0.30958">
        <ele>1215.4</ele>
        <time>2026-07-08T08:45:21Z</time>
      </trkpt>
      <trkpt lat="42.99633" lon="0.30957">
        <ele>1215.4</ele>
        <time>2026-07-08T08:45:22Z</time>
      </trkpt>
      <trkpt lat="42.99633" lon="0.30956">
        <ele>1215.4</ele>
        <time>2026-07-08T08:45:23Z</time>
      </trkpt>
      <trkpt lat="42.99633" lon="0.30956">
        <ele>1215.4</ele>
        <time>2026-07-08T08:45:23Z</time>
      </trkpt>
      <trkpt lat="42.99632" lon="0.30955">
        <ele>1215.4</ele>
        <time>2026-07-08T08:45:24Z</time>
      </trkpt>
      <trkpt lat="42.99632" lon="0.30954">
        <ele>1216.4</ele>
        <time>2026-07-08T08:45:25Z</time>
      </trkpt>
      <trkpt lat="42.99631" lon="0.30954">
        <ele>1216.4</ele>
        <time>2026-07-08T08:45:25Z</time>
      </trkpt>
      <trkpt lat="42.99631" lon="0.30953">
        <ele>1216.4</ele>
        <time>2026-07-08T08:45:26Z</time>
      </trkpt>
      <trkpt lat="42.9963" lon="0.30952">
        <ele>1216.4</ele>
        <time>2026-07-08T08:45:27Z</time>
      </trkpt>
      <trkpt lat="42.9963" lon="0.30952">
        <ele>1216.4</ele>
        <time>2026-07-08T08:45:28Z</time>
      </trkpt>
      <trkpt lat="42.9963" lon="0.30951">
        <ele>1216.4</ele>
        <time>2026-07-08T08:45:28Z</time>
      </trkpt>
      <trkpt lat="42.99629" lon="0.3095">
        <ele>1216.4</ele>
        <time>2026-07-08T08:45:29Z</time>
      </trkpt>
      <trkpt lat="42.99629" lon="0.3095">
        <ele>1217.4</ele>
        <time>2026-07-08T08:45:30Z</time>
      </trkpt>
      <trkpt lat="42.99629" lon="0.30949">
        <ele>1217.4</ele>
        <time>2026-07-08T08:45:30Z</time>
      </trkpt>
      <trkpt lat="42.99629" lon="0.30948">
        <ele>1217.4</ele>
        <time>2026-07-08T08:45:31Z</time>
      </trkpt>
      <trkpt lat="42.99629" lon="0.30948">
        <ele>1217.4</ele>
        <time>2026-07-08T08:45:32Z</time>
      </trkpt>
      <trkpt lat="42.99629" lon="0.30947">
        <ele>1217.4</ele>
        <time>2026-07-08T08:45:32Z</time>
      </trkpt>
      <trkpt lat="42.99628" lon="0.30946">
        <ele>1218.4</ele>
        <time>2026-07-08T08:45:33Z</time>
      </trkpt>
      <trkpt lat="42.99628" lon="0.30945">
        <ele>1218.4</ele>
        <time>2026-07-08T08:45:34Z</time>
      </trkpt>
      <trkpt lat="42.99629" lon="0.30944">
        <ele>1218.4</ele>
        <time>2026-07-08T08:45:35Z</time>
      </trkpt>
      <trkpt lat="42.99629" lon="0.30944">
        <ele>1219.4</ele>
        <time>2026-07-08T08:45:35Z</time>
      </trkpt>
      <trkpt lat="42.99629" lon="0.30943">
        <ele>1219.4</ele>
        <time>2026-07-08T08:45:36Z</time>
      </trkpt>
      <trkpt lat="42.99629" lon="0.30942">
        <ele>1219.4</ele>
        <time>2026-07-08T08:45:36Z</time>
      </trkpt>
      <trkpt lat="42.99629" lon="0.30941">
        <ele>1219.4</ele>
        <time>2026-07-08T08:45:37Z</time>
      </trkpt>
      <trkpt lat="42.99629" lon="0.3094">
        <ele>1219.4</ele>
        <time>2026-07-08T08:45:38Z</time>
      </trkpt>
      <trkpt lat="42.99629" lon="0.3094">
        <ele>1218.4</ele>
        <time>2026-07-08T08:45:38Z</time>
      </trkpt>
      <trkpt lat="42.9963" lon="0.30939">
        <ele>1218.4</ele>
        <time>2026-07-08T08:45:39Z</time>
      </trkpt>
      <trkpt lat="42.9963" lon="0.30938">
        <ele>1218.4</ele>
        <time>2026-07-08T08:45:40Z</time>
      </trkpt>
      <trkpt lat="42.9963" lon="0.30937">
        <ele>1217.4</ele>
        <time>2026-07-08T08:45:41Z</time>
      </trkpt>
      <trkpt lat="42.9963" lon="0.30937">
        <ele>1217.4</ele>
        <time>2026-07-08T08:45:42Z</time>
      </trkpt>
      <trkpt lat="42.99629" lon="0.30936">
        <ele>1217.4</ele>
        <time>2026-07-08T08:45:43Z</time>
      </trkpt>
      <trkpt lat="42.99629" lon="0.30936">
        <ele>1217.4</ele>
        <time>2026-07-08T08:45:43Z</time>
      </trkpt>
      <trkpt lat="42.99629" lon="0.30935">
        <ele>1217.4</ele>
        <time>2026-07-08T08:45:44Z</time>
      </trkpt>
      <trkpt lat="42.99628" lon="0.30934">
        <ele>1217.4</ele>
        <time>2026-07-08T08:45:45Z</time>
      </trkpt>
      <trkpt lat="42.99628" lon="0.30934">
        <ele>1217.4</ele>
        <time>2026-07-08T08:45:45Z</time>
      </trkpt>
      <trkpt lat="42.99627" lon="0.30933">
        <ele>1217.4</ele>
        <time>2026-07-08T08:45:46Z</time>
      </trkpt>
      <trkpt lat="42.99627" lon="0.30933">
        <ele>1218.4</ele>
        <time>2026-07-08T08:45:47Z</time>
      </trkpt>
      <trkpt lat="42.99626" lon="0.30932">
        <ele>1218.4</ele>
        <time>2026-07-08T08:45:47Z</time>
      </trkpt>
      <trkpt lat="42.99626" lon="0.30932">
        <ele>1218.4</ele>
        <time>2026-07-08T08:45:48Z</time>
      </trkpt>
      <trkpt lat="42.99625" lon="0.30932">
        <ele>1218.4</ele>
        <time>2026-07-08T08:45:49Z</time>
      </trkpt>
      <trkpt lat="42.99625" lon="0.30931">
        <ele>1218.4</ele>
        <time>2026-07-08T08:45:50Z</time>
      </trkpt>
      <trkpt lat="42.99625" lon="0.30931">
        <ele>1218.4</ele>
        <time>2026-07-08T08:45:51Z</time>
      </trkpt>
      <trkpt lat="42.99625" lon="0.3093">
        <ele>1218.4</ele>
        <time>2026-07-08T08:45:52Z</time>
      </trkpt>
      <trkpt lat="42.99625" lon="0.30929">
        <ele>1219.4</ele>
        <time>2026-07-08T08:45:52Z</time>
      </trkpt>
      <trkpt lat="42.99624" lon="0.30929">
        <ele>1219.4</ele>
        <time>2026-07-08T08:45:53Z</time>
      </trkpt>
      <trkpt lat="42.99624" lon="0.30928">
        <ele>1219.4</ele>
        <time>2026-07-08T08:45:54Z</time>
      </trkpt>
      <trkpt lat="42.99623" lon="0.30928">
        <ele>1219.4</ele>
        <time>2026-07-08T08:45:54Z</time>
      </trkpt>
      <trkpt lat="42.99623" lon="0.30927">
        <ele>1219.4</ele>
        <time>2026-07-08T08:45:55Z</time>
      </trkpt>
      <trkpt lat="42.99622" lon="0.30927">
        <ele>1218.4</ele>
        <time>2026-07-08T08:45:56Z</time>
      </trkpt>
      <trkpt lat="42.99622" lon="0.30926">
        <ele>1218.4</ele>
        <time>2026-07-08T08:45:57Z</time>
      </trkpt>
      <trkpt lat="42.99622" lon="0.30926">
        <ele>1218.4</ele>
        <time>2026-07-08T08:45:58Z</time>
      </trkpt>
      <trkpt lat="42.99622" lon="0.30926">
        <ele>1218.4</ele>
        <time>2026-07-08T08:45:59Z</time>
      </trkpt>
      <trkpt lat="42.99623" lon="0.30926">
        <ele>1217.4</ele>
        <time>2026-07-08T08:46:00Z</time>
      </trkpt>
      <trkpt lat="42.99623" lon="0.30926">
        <ele>1217.4</ele>
        <time>2026-07-08T08:46:00Z</time>
      </trkpt>
      <trkpt lat="42.99623" lon="0.30925">
        <ele>1217.4</ele>
        <time>2026-07-08T08:46:01Z</time>
      </trkpt>
      <trkpt lat="42.99623" lon="0.30925">
        <ele>1217.4</ele>
        <time>2026-07-08T08:46:02Z</time>
      </trkpt>
      <trkpt lat="42.99623" lon="0.30925">
        <ele>1217.4</ele>
        <time>2026-07-08T08:46:03Z</time>
      </trkpt>
      <trkpt lat="42.99623" lon="0.30925">
        <ele>1217.4</ele>
        <time>2026-07-08T08:46:04Z</time>
      </trkpt>
      <trkpt lat="42.99623" lon="0.30924">
        <ele>1218.4</ele>
        <time>2026-07-08T08:46:04Z</time>
      </trkpt>
      <trkpt lat="42.99623" lon="0.30924">
        <ele>1218.4</ele>
        <time>2026-07-08T08:46:05Z</time>
      </trkpt>
      <trkpt lat="42.99623" lon="0.30924">
        <ele>1217.4</ele>
        <time>2026-07-08T08:46:06Z</time>
      </trkpt>
      <trkpt lat="42.99623" lon="0.30925">
        <ele>1217.4</ele>
        <time>2026-07-08T08:46:07Z</time>
      </trkpt>
      <trkpt lat="42.99623" lon="0.30925">
        <ele>1217.4</ele>
        <time>2026-07-08T08:46:07Z</time>
      </trkpt>
      <trkpt lat="42.99623" lon="0.30925">
        <ele>1217.4</ele>
        <time>2026-07-08T08:46:08Z</time>
      </trkpt>
      <trkpt lat="42.99623" lon="0.30925">
        <ele>1216.4</ele>
        <time>2026-07-08T08:46:09Z</time>
      </trkpt>
      <trkpt lat="42.99623" lon="0.30925">
        <ele>1217.4</ele>
        <time>2026-07-08T08:46:09Z</time>
      </trkpt>
      <trkpt lat="42.99623" lon="0.30925">
        <ele>1218.4</ele>
        <time>2026-07-08T08:46:10Z</time>
      </trkpt>
      <trkpt lat="42.99623" lon="0.30924">
        <ele>1218.4</ele>
        <time>2026-07-08T08:46:11Z</time>
      </trkpt>
      <trkpt lat="42.99623" lon="0.30924">
        <ele>1217.4</ele>
        <time>2026-07-08T08:46:12Z</time>
      </trkpt>
      <trkpt lat="42.99623" lon="0.30924">
        <ele>1217.4</ele>
        <time>2026-07-08T08:46:13Z</time>
      </trkpt>
      <trkpt lat="42.99623" lon="0.30924">
        <ele>1217.4</ele>
        <time>2026-07-08T08:46:14Z</time>
      </trkpt>
      <trkpt lat="42.99623" lon="0.30924">
        <ele>1217.4</ele>
        <time>2026-07-08T08:46:14Z</time>
      </trkpt>
      <trkpt lat="42.99623" lon="0.30923">
        <ele>1217.4</ele>
        <time>2026-07-08T08:46:15Z</time>
      </trkpt>
      <trkpt lat="42.99623" lon="0.30923">
        <ele>1217.4</ele>
        <time>2026-07-08T08:46:16Z</time>
      </trkpt>
      <trkpt lat="42.99623" lon="0.30922">
        <ele>1217.4</ele>
        <time>2026-07-08T08:46:17Z</time>
      </trkpt>
      <trkpt lat="42.99622" lon="0.30921">
        <ele>1217.4</ele>
        <time>2026-07-08T08:46:17Z</time>
      </trkpt>
      <trkpt lat="42.99622" lon="0.30921">
        <ele>1217.4</ele>
        <time>2026-07-08T08:46:18Z</time>
      </trkpt>
      <trkpt lat="42.99622" lon="0.3092">
        <ele>1216.4</ele>
        <time>2026-07-08T08:46:19Z</time>
      </trkpt>
      <trkpt lat="42.99622" lon="0.30919">
        <ele>1216.4</ele>
        <time>2026-07-08T08:46:19Z</time>
      </trkpt>
      <trkpt lat="42.99622" lon="0.30917">
        <ele>1216.4</ele>
        <time>2026-07-08T08:46:20Z</time>
      </trkpt>
      <trkpt lat="42.99622" lon="0.30916">
        <ele>1216.4</ele>
        <time>2026-07-08T08:46:20Z</time>
      </trkpt>
      <trkpt lat="42.99621" lon="0.30915">
        <ele>1216.4</ele>
        <time>2026-07-08T08:46:21Z</time>
      </trkpt>
      <trkpt lat="42.99621" lon="0.30914">
        <ele>1215.4</ele>
        <time>2026-07-08T08:46:22Z</time>
      </trkpt>
      <trkpt lat="42.99621" lon="0.30913">
        <ele>1215.4</ele>
        <time>2026-07-08T08:46:22Z</time>
      </trkpt>
      <trkpt lat="42.9962" lon="0.30912">
        <ele>1215.4</ele>
        <time>2026-07-08T08:46:23Z</time>
      </trkpt>
      <trkpt lat="42.9962" lon="0.30911">
        <ele>1215.4</ele>
        <time>2026-07-08T08:46:24Z</time>
      </trkpt>
      <trkpt lat="42.99619" lon="0.30911">
        <ele>1215.4</ele>
        <time>2026-07-08T08:46:24Z</time>
      </trkpt>
      <trkpt lat="42.99619" lon="0.3091">
        <ele>1215.4</ele>
        <time>2026-07-08T08:46:25Z</time>
      </trkpt>
      <trkpt lat="42.99618" lon="0.30909">
        <ele>1215.4</ele>
        <time>2026-07-08T08:46:26Z</time>
      </trkpt>
      <trkpt lat="42.99618" lon="0.30908">
        <ele>1215.4</ele>
        <time>2026-07-08T08:46:27Z</time>
      </trkpt>
      <trkpt lat="42.99618" lon="0.30907">
        <ele>1215.4</ele>
        <time>2026-07-08T08:46:27Z</time>
      </trkpt>
      <trkpt lat="42.99618" lon="0.30906">
        <ele>1215.4</ele>
        <time>2026-07-08T08:46:28Z</time>
      </trkpt>
      <trkpt lat="42.99618" lon="0.30905">
        <ele>1215.4</ele>
        <time>2026-07-08T08:46:29Z</time>
      </trkpt>
      <trkpt lat="42.99618" lon="0.30904">
        <ele>1215.4</ele>
        <time>2026-07-08T08:46:30Z</time>
      </trkpt>
      <trkpt lat="42.99618" lon="0.30904">
        <ele>1214.4</ele>
        <time>2026-07-08T08:46:30Z</time>
      </trkpt>
      <trkpt lat="42.99618" lon="0.30903">
        <ele>1214.4</ele>
        <time>2026-07-08T08:46:31Z</time>
      </trkpt>
      <trkpt lat="42.99618" lon="0.30902">
        <ele>1214.4</ele>
        <time>2026-07-08T08:46:32Z</time>
      </trkpt>
      <trkpt lat="42.99618" lon="0.30901">
        <ele>1214.4</ele>
        <time>2026-07-08T08:46:33Z</time>
      </trkpt>
      <trkpt lat="42.99618" lon="0.309">
        <ele>1214.4</ele>
        <time>2026-07-08T08:46:33Z</time>
      </trkpt>
      <trkpt lat="42.99617" lon="0.30899">
        <ele>1215.4</ele>
        <time>2026-07-08T08:46:34Z</time>
      </trkpt>
      <trkpt lat="42.99617" lon="0.30899">
        <ele>1215.4</ele>
        <time>2026-07-08T08:46:35Z</time>
      </trkpt>
      <trkpt lat="42.99617" lon="0.30898">
        <ele>1215.4</ele>
        <time>2026-07-08T08:46:35Z</time>
      </trkpt>
      <trkpt lat="42.99617" lon="0.30897">
        <ele>1215.4</ele>
        <time>2026-07-08T08:46:36Z</time>
      </trkpt>
      <trkpt lat="42.99616" lon="0.30896">
        <ele>1216.4</ele>
        <time>2026-07-08T08:46:37Z</time>
      </trkpt>
      <trkpt lat="42.99616" lon="0.30894">
        <ele>1216.4</ele>
        <time>2026-07-08T08:46:38Z</time>
      </trkpt>
      <trkpt lat="42.99616" lon="0.30894">
        <ele>1216.4</ele>
        <time>2026-07-08T08:46:39Z</time>
      </trkpt>
      <trkpt lat="42.99616" lon="0.30893">
        <ele>1216.4</ele>
        <time>2026-07-08T08:46:39Z</time>
      </trkpt>
      <trkpt lat="42.99616" lon="0.30893">
        <ele>1216.4</ele>
        <time>2026-07-08T08:46:40Z</time>
      </trkpt>
      <trkpt lat="42.99615" lon="0.30891">
        <ele>1216.4</ele>
        <time>2026-07-08T08:46:41Z</time>
      </trkpt>
      <trkpt lat="42.99615" lon="0.3089">
        <ele>1216.4</ele>
        <time>2026-07-08T08:46:42Z</time>
      </trkpt>
      <trkpt lat="42.99615" lon="0.3089">
        <ele>1216.4</ele>
        <time>2026-07-08T08:46:42Z</time>
      </trkpt>
      <trkpt lat="42.99615" lon="0.30889">
        <ele>1215.4</ele>
        <time>2026-07-08T08:46:43Z</time>
      </trkpt>
      <trkpt lat="42.99614" lon="0.30888">
        <ele>1215.4</ele>
        <time>2026-07-08T08:46:44Z</time>
      </trkpt>
      <trkpt lat="42.99614" lon="0.30888">
        <ele>1215.4</ele>
        <time>2026-07-08T08:46:45Z</time>
      </trkpt>
      <trkpt lat="42.99613" lon="0.30887">
        <ele>1215.4</ele>
        <time>2026-07-08T08:46:46Z</time>
      </trkpt>
      <trkpt lat="42.99613" lon="0.30887">
        <ele>1215.4</ele>
        <time>2026-07-08T08:46:46Z</time>
      </trkpt>
      <trkpt lat="42.99612" lon="0.30887">
        <ele>1215.4</ele>
        <time>2026-07-08T08:46:47Z</time>
      </trkpt>
      <trkpt lat="42.99612" lon="0.30886">
        <ele>1215.4</ele>
        <time>2026-07-08T08:46:48Z</time>
      </trkpt>
      <trkpt lat="42.99611" lon="0.30886">
        <ele>1215.4</ele>
        <time>2026-07-08T08:46:49Z</time>
      </trkpt>
      <trkpt lat="42.99611" lon="0.30885">
        <ele>1215.4</ele>
        <time>2026-07-08T08:46:50Z</time>
      </trkpt>
      <trkpt lat="42.99611" lon="0.30885">
        <ele>1214.4</ele>
        <time>2026-07-08T08:46:50Z</time>
      </trkpt>
      <trkpt lat="42.99611" lon="0.30884">
        <ele>1214.4</ele>
        <time>2026-07-08T08:46:51Z</time>
      </trkpt>
      <trkpt lat="42.99611" lon="0.30884">
        <ele>1214.4</ele>
        <time>2026-07-08T08:46:52Z</time>
      </trkpt>
      <trkpt lat="42.99611" lon="0.30883">
        <ele>1214.4</ele>
        <time>2026-07-08T08:46:53Z</time>
      </trkpt>
      <trkpt lat="42.99611" lon="0.30883">
        <ele>1214.4</ele>
        <time>2026-07-08T08:46:54Z</time>
      </trkpt>
      <trkpt lat="42.99611" lon="0.30883">
        <ele>1214.4</ele>
        <time>2026-07-08T08:46:54Z</time>
      </trkpt>
      <trkpt lat="42.99611" lon="0.30882">
        <ele>1214.4</ele>
        <time>2026-07-08T08:46:55Z</time>
      </trkpt>
      <trkpt lat="42.9961" lon="0.30881">
        <ele>1214.4</ele>
        <time>2026-07-08T08:46:56Z</time>
      </trkpt>
      <trkpt lat="42.9961" lon="0.30881">
        <ele>1214.4</ele>
        <time>2026-07-08T08:46:57Z</time>
      </trkpt>
      <trkpt lat="42.9961" lon="0.30881">
        <ele>1214.4</ele>
        <time>2026-07-08T08:46:57Z</time>
      </trkpt>
      <trkpt lat="42.99609" lon="0.3088">
        <ele>1214.4</ele>
        <time>2026-07-08T08:46:58Z</time>
      </trkpt>
      <trkpt lat="42.99609" lon="0.30879">
        <ele>1214.4</ele>
        <time>2026-07-08T08:46:59Z</time>
      </trkpt>
      <trkpt lat="42.99608" lon="0.30878">
        <ele>1214.4</ele>
        <time>2026-07-08T08:46:59Z</time>
      </trkpt>
      <trkpt lat="42.99608" lon="0.30878">
        <ele>1214.4</ele>
        <time>2026-07-08T08:47:00Z</time>
      </trkpt>
      <trkpt lat="42.99608" lon="0.30877">
        <ele>1214.4</ele>
        <time>2026-07-08T08:47:00Z</time>
      </trkpt>
      <trkpt lat="42.99607" lon="0.30876">
        <ele>1214.4</ele>
        <time>2026-07-08T08:47:01Z</time>
      </trkpt>
      <trkpt lat="42.99607" lon="0.30876">
        <ele>1214.4</ele>
        <time>2026-07-08T08:47:02Z</time>
      </trkpt>
      <trkpt lat="42.99606" lon="0.30875">
        <ele>1214.4</ele>
        <time>2026-07-08T08:47:03Z</time>
      </trkpt>
      <trkpt lat="42.99606" lon="0.30875">
        <ele>1214.4</ele>
        <time>2026-07-08T08:47:03Z</time>
      </trkpt>
      <trkpt lat="42.99606" lon="0.30875">
        <ele>1214.4</ele>
        <time>2026-07-08T08:47:04Z</time>
      </trkpt>
      <trkpt lat="42.99606" lon="0.30875">
        <ele>1214.4</ele>
        <time>2026-07-08T08:47:04Z</time>
      </trkpt>
      <trkpt lat="42.99606" lon="0.30875">
        <ele>1214.4</ele>
        <time>2026-07-08T08:47:05Z</time>
      </trkpt>
      <trkpt lat="42.99605" lon="0.30875">
        <ele>1214.4</ele>
        <time>2026-07-08T08:47:06Z</time>
      </trkpt>
      <trkpt lat="42.99605" lon="0.30875">
        <ele>1214.4</ele>
        <time>2026-07-08T08:47:07Z</time>
      </trkpt>
      <trkpt lat="42.99605" lon="0.30876">
        <ele>1214.4</ele>
        <time>2026-07-08T08:47:07Z</time>
      </trkpt>
      <trkpt lat="42.99604" lon="0.30876">
        <ele>1214.4</ele>
        <time>2026-07-08T08:47:08Z</time>
      </trkpt>
      <trkpt lat="42.99604" lon="0.30876">
        <ele>1214.4</ele>
        <time>2026-07-08T08:47:09Z</time>
      </trkpt>
      <trkpt lat="42.99604" lon="0.30876">
        <ele>1215.4</ele>
        <time>2026-07-08T08:47:09Z</time>
      </trkpt>
      <trkpt lat="42.99604" lon="0.30877">
        <ele>1215.4</ele>
        <time>2026-07-08T08:47:10Z</time>
      </trkpt>
      <trkpt lat="42.99604" lon="0.30877">
        <ele>1215.4</ele>
        <time>2026-07-08T08:47:11Z</time>
      </trkpt>
      <trkpt lat="42.99604" lon="0.30878">
        <ele>1215.4</ele>
        <time>2026-07-08T08:47:12Z</time>
      </trkpt>
      <trkpt lat="42.99604" lon="0.30878">
        <ele>1215.4</ele>
        <time>2026-07-08T08:47:13Z</time>
      </trkpt>
      <trkpt lat="42.99604" lon="0.30877">
        <ele>1215.4</ele>
        <time>2026-07-08T08:47:14Z</time>
      </trkpt>
      <trkpt lat="42.99604" lon="0.30877">
        <ele>1216.4</ele>
        <time>2026-07-08T08:47:15Z</time>
      </trkpt>
      <trkpt lat="42.99604" lon="0.30877">
        <ele>1217.4</ele>
        <time>2026-07-08T08:47:16Z</time>
      </trkpt>
      <trkpt lat="42.99604" lon="0.30877">
        <ele>1218.4</ele>
        <time>2026-07-08T08:47:16Z</time>
      </trkpt>
      <trkpt lat="42.99604" lon="0.30877">
        <ele>1218.4</ele>
        <time>2026-07-08T08:47:17Z</time>
      </trkpt>
      <trkpt lat="42.99604" lon="0.30877">
        <ele>1219.4</ele>
        <time>2026-07-08T08:47:18Z</time>
      </trkpt>
      <trkpt lat="42.99604" lon="0.30877">
        <ele>1219.4</ele>
        <time>2026-07-08T08:47:19Z</time>
      </trkpt>
      <trkpt lat="42.99604" lon="0.30878">
        <ele>1220.4</ele>
        <time>2026-07-08T08:47:20Z</time>
      </trkpt>
      <trkpt lat="42.99604" lon="0.30878">
        <ele>1221.4</ele>
        <time>2026-07-08T08:47:20Z</time>
      </trkpt>
      <trkpt lat="42.99604" lon="0.30878">
        <ele>1221.4</ele>
        <time>2026-07-08T08:47:21Z</time>
      </trkpt>
      <trkpt lat="42.99604" lon="0.30878">
        <ele>1222.4</ele>
        <time>2026-07-08T08:47:22Z</time>
      </trkpt>
      <trkpt lat="42.99603" lon="0.30879">
        <ele>1222.4</ele>
        <time>2026-07-08T08:47:22Z</time>
      </trkpt>
      <trkpt lat="42.99603" lon="0.30879">
        <ele>1222.4</ele>
        <time>2026-07-08T08:47:23Z</time>
      </trkpt>
      <trkpt lat="42.99602" lon="0.30879">
        <ele>1222.4</ele>
        <time>2026-07-08T08:47:24Z</time>
      </trkpt>
      <trkpt lat="42.99601" lon="0.30879">
        <ele>1223.4</ele>
        <time>2026-07-08T08:47:25Z</time>
      </trkpt>
      <trkpt lat="42.996" lon="0.30878">
        <ele>1223.4</ele>
        <time>2026-07-08T08:47:26Z</time>
      </trkpt>
      <trkpt lat="42.996" lon="0.30878">
        <ele>1223.4</ele>
        <time>2026-07-08T08:47:26Z</time>
      </trkpt>
      <trkpt lat="42.99599" lon="0.30878">
        <ele>1223.4</ele>
        <time>2026-07-08T08:47:27Z</time>
      </trkpt>
      <trkpt lat="42.99599" lon="0.30878">
        <ele>1223.4</ele>
        <time>2026-07-08T08:47:28Z</time>
      </trkpt>
      <trkpt lat="42.99598" lon="0.30879">
        <ele>1223.4</ele>
        <time>2026-07-08T08:47:29Z</time>
      </trkpt>
      <trkpt lat="42.99598" lon="0.30879">
        <ele>1223.4</ele>
        <time>2026-07-08T08:47:29Z</time>
      </trkpt>
      <trkpt lat="42.99597" lon="0.30879">
        <ele>1223.4</ele>
        <time>2026-07-08T08:47:30Z</time>
      </trkpt>
      <trkpt lat="42.99597" lon="0.3088">
        <ele>1223.4</ele>
        <time>2026-07-08T08:47:31Z</time>
      </trkpt>
      <trkpt lat="42.99596" lon="0.30881">
        <ele>1223.4</ele>
        <time>2026-07-08T08:47:32Z</time>
      </trkpt>
      <trkpt lat="42.99596" lon="0.30881">
        <ele>1222.4</ele>
        <time>2026-07-08T08:47:33Z</time>
      </trkpt>
      <trkpt lat="42.99596" lon="0.30882">
        <ele>1223.4</ele>
        <time>2026-07-08T08:47:33Z</time>
      </trkpt>
      <trkpt lat="42.99595" lon="0.30882">
        <ele>1223.4</ele>
        <time>2026-07-08T08:47:34Z</time>
      </trkpt>
      <trkpt lat="42.99595" lon="0.30883">
        <ele>1223.4</ele>
        <time>2026-07-08T08:47:35Z</time>
      </trkpt>
      <trkpt lat="42.99594" lon="0.30884">
        <ele>1224.4</ele>
        <time>2026-07-08T08:47:36Z</time>
      </trkpt>
      <trkpt lat="42.99594" lon="0.30885">
        <ele>1224.4</ele>
        <time>2026-07-08T08:47:36Z</time>
      </trkpt>
      <trkpt lat="42.99593" lon="0.30885">
        <ele>1224.4</ele>
        <time>2026-07-08T08:47:37Z</time>
      </trkpt>
      <trkpt lat="42.99593" lon="0.30886">
        <ele>1224.4</ele>
        <time>2026-07-08T08:47:38Z</time>
      </trkpt>
      <trkpt lat="42.99593" lon="0.30886">
        <ele>1225.4</ele>
        <time>2026-07-08T08:47:39Z</time>
      </trkpt>
      <trkpt lat="42.99593" lon="0.30887">
        <ele>1225.4</ele>
        <time>2026-07-08T08:47:39Z</time>
      </trkpt>
      <trkpt lat="42.99593" lon="0.30888">
        <ele>1225.4</ele>
        <time>2026-07-08T08:47:40Z</time>
      </trkpt>
      <trkpt lat="42.99593" lon="0.30889">
        <ele>1225.4</ele>
        <time>2026-07-08T08:47:41Z</time>
      </trkpt>
      <trkpt lat="42.99593" lon="0.30889">
        <ele>1225.4</ele>
        <time>2026-07-08T08:47:42Z</time>
      </trkpt>
      <trkpt lat="42.99595" lon="0.30891">
        <ele>1227.4</ele>
        <time>2026-07-08T08:47:43Z</time>
      </trkpt>
      <trkpt lat="42.99596" lon="0.30892">
        <ele>1227.4</ele>
        <time>2026-07-08T08:47:44Z</time>
      </trkpt>
      <trkpt lat="42.99596" lon="0.30893">
        <ele>1227.4</ele>
        <time>2026-07-08T08:47:45Z</time>
      </trkpt>
      <trkpt lat="42.99595" lon="0.30894">
        <ele>1227.4</ele>
        <time>2026-07-08T08:47:46Z</time>
      </trkpt>
      <trkpt lat="42.99595" lon="0.30895">
        <ele>1228.4</ele>
        <time>2026-07-08T08:47:47Z</time>
      </trkpt>
      <trkpt lat="42.99594" lon="0.30896">
        <ele>1228.4</ele>
        <time>2026-07-08T08:47:48Z</time>
      </trkpt>
      <trkpt lat="42.99594" lon="0.30897">
        <ele>1228.4</ele>
        <time>2026-07-08T08:47:49Z</time>
      </trkpt>
      <trkpt lat="42.99594" lon="0.30899">
        <ele>1228.4</ele>
        <time>2026-07-08T08:47:50Z</time>
      </trkpt>
      <trkpt lat="42.99594" lon="0.309">
        <ele>1228.4</ele>
        <time>2026-07-08T08:47:51Z</time>
      </trkpt>
      <trkpt lat="42.99593" lon="0.30901">
        <ele>1229.4</ele>
        <time>2026-07-08T08:47:52Z</time>
      </trkpt>
      <trkpt lat="42.99593" lon="0.30903">
        <ele>1230.4</ele>
        <time>2026-07-08T08:47:53Z</time>
      </trkpt>
      <trkpt lat="42.99593" lon="0.30904">
        <ele>1230.4</ele>
        <time>2026-07-08T08:47:54Z</time>
      </trkpt>
      <trkpt lat="42.99593" lon="0.30905">
        <ele>1230.4</ele>
        <time>2026-07-08T08:47:55Z</time>
      </trkpt>
      <trkpt lat="42.99593" lon="0.30906">
        <ele>1230.4</ele>
        <time>2026-07-08T08:47:56Z</time>
      </trkpt>
      <trkpt lat="42.99592" lon="0.30907">
        <ele>1231.4</ele>
        <time>2026-07-08T08:47:57Z</time>
      </trkpt>
      <trkpt lat="42.99592" lon="0.30908">
        <ele>1232.4</ele>
        <time>2026-07-08T08:47:58Z</time>
      </trkpt>
      <trkpt lat="42.99592" lon="0.30909">
        <ele>1232.4</ele>
        <time>2026-07-08T08:47:59Z</time>
      </trkpt>
      <trkpt lat="42.99592" lon="0.30909">
        <ele>1233.4</ele>
        <time>2026-07-08T08:48:00Z</time>
      </trkpt>
      <trkpt lat="42.99592" lon="0.30909">
        <ele>1232.4</ele>
        <time>2026-07-08T08:48:01Z</time>
      </trkpt>
      <trkpt lat="42.99592" lon="0.3091">
        <ele>1233.4</ele>
        <time>2026-07-08T08:48:02Z</time>
      </trkpt>
      <trkpt lat="42.99591" lon="0.30911">
        <ele>1233.4</ele>
        <time>2026-07-08T08:48:03Z</time>
      </trkpt>
      <trkpt lat="42.99591" lon="0.30912">
        <ele>1234.4</ele>
        <time>2026-07-08T08:48:04Z</time>
      </trkpt>
      <trkpt lat="42.99592" lon="0.30913">
        <ele>1234.4</ele>
        <time>2026-07-08T08:48:05Z</time>
      </trkpt>
      <trkpt lat="42.99592" lon="0.30914">
        <ele>1234.4</ele>
        <time>2026-07-08T08:48:06Z</time>
      </trkpt>
      <trkpt lat="42.99592" lon="0.30916">
        <ele>1234.4</ele>
        <time>2026-07-08T08:48:07Z</time>
      </trkpt>
      <trkpt lat="42.99592" lon="0.30917">
        <ele>1234.4</ele>
        <time>2026-07-08T08:48:08Z</time>
      </trkpt>
      <trkpt lat="42.99593" lon="0.30918">
        <ele>1235.4</ele>
        <time>2026-07-08T08:48:09Z</time>
      </trkpt>
      <trkpt lat="42.99593" lon="0.30919">
        <ele>1235.4</ele>
        <time>2026-07-08T08:48:10Z</time>
      </trkpt>
      <trkpt lat="42.99593" lon="0.3092">
        <ele>1235.4</ele>
        <time>2026-07-08T08:48:11Z</time>
      </trkpt>
      <trkpt lat="42.99593" lon="0.3092">
        <ele>1235.4</ele>
        <time>2026-07-08T08:48:12Z</time>
      </trkpt>
      <trkpt lat="42.99593" lon="0.30922">
        <ele>1235.4</ele>
        <time>2026-07-08T08:48:13Z</time>
      </trkpt>
      <trkpt lat="42.99593" lon="0.30923">
        <ele>1236.4</ele>
        <time>2026-07-08T08:48:14Z</time>
      </trkpt>
      <trkpt lat="42.99593" lon="0.30923">
        <ele>1236.4</ele>
        <time>2026-07-08T08:48:15Z</time>
      </trkpt>
      <trkpt lat="42.99593" lon="0.30924">
        <ele>1237.4</ele>
        <time>2026-07-08T08:48:16Z</time>
      </trkpt>
      <trkpt lat="42.99593" lon="0.30925">
        <ele>1237.4</ele>
        <time>2026-07-08T08:48:17Z</time>
      </trkpt>
      <trkpt lat="42.99593" lon="0.30926">
        <ele>1237.4</ele>
        <time>2026-07-08T08:48:18Z</time>
      </trkpt>
      <trkpt lat="42.99593" lon="0.30927">
        <ele>1236.4</ele>
        <time>2026-07-08T08:48:19Z</time>
      </trkpt>
      <trkpt lat="42.99593" lon="0.30928">
        <ele>1237.4</ele>
        <time>2026-07-08T08:48:20Z</time>
      </trkpt>
      <trkpt lat="42.99592" lon="0.30929">
        <ele>1236.4</ele>
        <time>2026-07-08T08:48:21Z</time>
      </trkpt>
      <trkpt lat="42.99592" lon="0.30929">
        <ele>1237.4</ele>
        <time>2026-07-08T08:48:22Z</time>
      </trkpt>
      <trkpt lat="42.99592" lon="0.3093">
        <ele>1238.4</ele>
        <time>2026-07-08T08:48:23Z</time>
      </trkpt>
      <trkpt lat="42.99592" lon="0.3093">
        <ele>1238.4</ele>
        <time>2026-07-08T08:48:24Z</time>
      </trkpt>
      <trkpt lat="42.99592" lon="0.30931">
        <ele>1239.4</ele>
        <time>2026-07-08T08:48:25Z</time>
      </trkpt>
      <trkpt lat="42.99592" lon="0.30931">
        <ele>1238.4</ele>
        <time>2026-07-08T08:48:26Z</time>
      </trkpt>
      <trkpt lat="42.99592" lon="0.30932">
        <ele>1238.4</ele>
        <time>2026-07-08T08:48:27Z</time>
      </trkpt>
      <trkpt lat="42.99592" lon="0.30932">
        <ele>1239.4</ele>
        <time>2026-07-08T08:48:28Z</time>
      </trkpt>
      <trkpt lat="42.99592" lon="0.30934">
        <ele>1239.4</ele>
        <time>2026-07-08T08:48:29Z</time>
      </trkpt>
      <trkpt lat="42.99592" lon="0.30934">
        <ele>1240.4</ele>
        <time>2026-07-08T08:48:30Z</time>
      </trkpt>
      <trkpt lat="42.99592" lon="0.30935">
        <ele>1240.4</ele>
        <time>2026-07-08T08:48:31Z</time>
      </trkpt>
      <trkpt lat="42.99592" lon="0.30936">
        <ele>1240.4</ele>
        <time>2026-07-08T08:48:32Z</time>
      </trkpt>
      <trkpt lat="42.99592" lon="0.30937">
        <ele>1240.4</ele>
        <time>2026-07-08T08:48:33Z</time>
      </trkpt>
      <trkpt lat="42.99592" lon="0.30938">
        <ele>1240.4</ele>
        <time>2026-07-08T08:48:34Z</time>
      </trkpt>
      <trkpt lat="42.99592" lon="0.30939">
        <ele>1240.4</ele>
        <time>2026-07-08T08:48:35Z</time>
      </trkpt>
      <trkpt lat="42.99592" lon="0.3094">
        <ele>1240.4</ele>
        <time>2026-07-08T08:48:36Z</time>
      </trkpt>
      <trkpt lat="42.99592" lon="0.30941">
        <ele>1240.4</ele>
        <time>2026-07-08T08:48:37Z</time>
      </trkpt>
      <trkpt lat="42.99592" lon="0.30942">
        <ele>1241.4</ele>
        <time>2026-07-08T08:48:38Z</time>
      </trkpt>
      <trkpt lat="42.99591" lon="0.30942">
        <ele>1241.4</ele>
        <time>2026-07-08T08:48:39Z</time>
      </trkpt>
      <trkpt lat="42.99591" lon="0.30943">
        <ele>1241.4</ele>
        <time>2026-07-08T08:48:40Z</time>
      </trkpt>
      <trkpt lat="42.9959" lon="0.30945">
        <ele>1240.4</ele>
        <time>2026-07-08T08:48:41Z</time>
      </trkpt>
      <trkpt lat="42.9959" lon="0.30946">
        <ele>1240.4</ele>
        <time>2026-07-08T08:48:42Z</time>
      </trkpt>
      <trkpt lat="42.9959" lon="0.30947">
        <ele>1240.4</ele>
        <time>2026-07-08T08:48:43Z</time>
      </trkpt>
      <trkpt lat="42.9959" lon="0.30948">
        <ele>1240.4</ele>
        <time>2026-07-08T08:48:44Z</time>
      </trkpt>
      <trkpt lat="42.9959" lon="0.30949">
        <ele>1241.4</ele>
        <time>2026-07-08T08:48:45Z</time>
      </trkpt>
      <trkpt lat="42.9959" lon="0.3095">
        <ele>1241.4</ele>
        <time>2026-07-08T08:48:46Z</time>
      </trkpt>
      <trkpt lat="42.9959" lon="0.30951">
        <ele>1241.4</ele>
        <time>2026-07-08T08:48:47Z</time>
      </trkpt>
      <trkpt lat="42.9959" lon="0.30952">
        <ele>1242.4</ele>
        <time>2026-07-08T08:48:48Z</time>
      </trkpt>
      <trkpt lat="42.9959" lon="0.30954">
        <ele>1242.4</ele>
        <time>2026-07-08T08:48:49Z</time>
      </trkpt>
      <trkpt lat="42.9959" lon="0.30955">
        <ele>1242.4</ele>
        <time>2026-07-08T08:48:50Z</time>
      </trkpt>
      <trkpt lat="42.99589" lon="0.30957">
        <ele>1243.4</ele>
        <time>2026-07-08T08:48:51Z</time>
      </trkpt>
      <trkpt lat="42.99589" lon="0.30957">
        <ele>1242.4</ele>
        <time>2026-07-08T08:48:52Z</time>
      </trkpt>
      <trkpt lat="42.99589" lon="0.30958">
        <ele>1242.4</ele>
        <time>2026-07-08T08:48:53Z</time>
      </trkpt>
      <trkpt lat="42.99589" lon="0.3096">
        <ele>1243.4</ele>
        <time>2026-07-08T08:48:54Z</time>
      </trkpt>
      <trkpt lat="42.99589" lon="0.30962">
        <ele>1243.4</ele>
        <time>2026-07-08T08:48:55Z</time>
      </trkpt>
      <trkpt lat="42.99588" lon="0.30963">
        <ele>1243.4</ele>
        <time>2026-07-08T08:48:56Z</time>
      </trkpt>
      <trkpt lat="42.99587" lon="0.30965">
        <ele>1242.4</ele>
        <time>2026-07-08T08:48:57Z</time>
      </trkpt>
      <trkpt lat="42.99587" lon="0.30966">
        <ele>1242.4</ele>
        <time>2026-07-08T08:48:58Z</time>
      </trkpt>
      <trkpt lat="42.99587" lon="0.30967">
        <ele>1242.4</ele>
        <time>2026-07-08T08:48:59Z</time>
      </trkpt>
      <trkpt lat="42.99587" lon="0.30967">
        <ele>1242.4</ele>
        <time>2026-07-08T08:48:59Z</time>
      </trkpt>
      <trkpt lat="42.99587" lon="0.30969">
        <ele>1242.4</ele>
        <time>2026-07-08T08:49:00Z</time>
      </trkpt>
      <trkpt lat="42.99586" lon="0.3097">
        <ele>1242.4</ele>
        <time>2026-07-08T08:49:01Z</time>
      </trkpt>
      <trkpt lat="42.99586" lon="0.3097">
        <ele>1242.4</ele>
        <time>2026-07-08T08:49:01Z</time>
      </trkpt>
      <trkpt lat="42.99586" lon="0.30971">
        <ele>1242.4</ele>
        <time>2026-07-08T08:49:02Z</time>
      </trkpt>
      <trkpt lat="42.99586" lon="0.30972">
        <ele>1243.4</ele>
        <time>2026-07-08T08:49:03Z</time>
      </trkpt>
      <trkpt lat="42.99586" lon="0.30973">
        <ele>1243.4</ele>
        <time>2026-07-08T08:49:03Z</time>
      </trkpt>
      <trkpt lat="42.99586" lon="0.30974">
        <ele>1243.4</ele>
        <time>2026-07-08T08:49:04Z</time>
      </trkpt>
      <trkpt lat="42.99586" lon="0.30975">
        <ele>1243.4</ele>
        <time>2026-07-08T08:49:05Z</time>
      </trkpt>
      <trkpt lat="42.99586" lon="0.30976">
        <ele>1243.4</ele>
        <time>2026-07-08T08:49:05Z</time>
      </trkpt>
      <trkpt lat="42.99586" lon="0.30977">
        <ele>1243.4</ele>
        <time>2026-07-08T08:49:06Z</time>
      </trkpt>
      <trkpt lat="42.99586" lon="0.30977">
        <ele>1243.4</ele>
        <time>2026-07-08T08:49:07Z</time>
      </trkpt>
      <trkpt lat="42.99585" lon="0.30978">
        <ele>1243.4</ele>
        <time>2026-07-08T08:49:07Z</time>
      </trkpt>
      <trkpt lat="42.99585" lon="0.30979">
        <ele>1243.4</ele>
        <time>2026-07-08T08:49:08Z</time>
      </trkpt>
      <trkpt lat="42.99585" lon="0.3098">
        <ele>1242.4</ele>
        <time>2026-07-08T08:49:09Z</time>
      </trkpt>
      <trkpt lat="42.99585" lon="0.30981">
        <ele>1242.4</ele>
        <time>2026-07-08T08:49:09Z</time>
      </trkpt>
      <trkpt lat="42.99585" lon="0.30981">
        <ele>1242.4</ele>
        <time>2026-07-08T08:49:10Z</time>
      </trkpt>
      <trkpt lat="42.99584" lon="0.30982">
        <ele>1242.4</ele>
        <time>2026-07-08T08:49:11Z</time>
      </trkpt>
      <trkpt lat="42.99584" lon="0.30982">
        <ele>1243.4</ele>
        <time>2026-07-08T08:49:11Z</time>
      </trkpt>
      <trkpt lat="42.99584" lon="0.30983">
        <ele>1243.4</ele>
        <time>2026-07-08T08:49:12Z</time>
      </trkpt>
      <trkpt lat="42.99584" lon="0.30984">
        <ele>1243.4</ele>
        <time>2026-07-08T08:49:13Z</time>
      </trkpt>
      <trkpt lat="42.99583" lon="0.30984">
        <ele>1243.4</ele>
        <time>2026-07-08T08:49:13Z</time>
      </trkpt>
      <trkpt lat="42.99583" lon="0.30985">
        <ele>1243.4</ele>
        <time>2026-07-08T08:49:14Z</time>
      </trkpt>
      <trkpt lat="42.99582" lon="0.30986">
        <ele>1244.4</ele>
        <time>2026-07-08T08:49:15Z</time>
      </trkpt>
      <trkpt lat="42.99582" lon="0.30987">
        <ele>1245.4</ele>
        <time>2026-07-08T08:49:15Z</time>
      </trkpt>
      <trkpt lat="42.99581" lon="0.30987">
        <ele>1245.4</ele>
        <time>2026-07-08T08:49:16Z</time>
      </trkpt>
      <trkpt lat="42.99581" lon="0.30988">
        <ele>1245.4</ele>
        <time>2026-07-08T08:49:17Z</time>
      </trkpt>
      <trkpt lat="42.9958" lon="0.30988">
        <ele>1245.4</ele>
        <time>2026-07-08T08:49:17Z</time>
      </trkpt>
      <trkpt lat="42.9958" lon="0.30989">
        <ele>1245.4</ele>
        <time>2026-07-08T08:49:18Z</time>
      </trkpt>
      <trkpt lat="42.99579" lon="0.30989">
        <ele>1245.4</ele>
        <time>2026-07-08T08:49:18Z</time>
      </trkpt>
      <trkpt lat="42.99579" lon="0.3099">
        <ele>1245.4</ele>
        <time>2026-07-08T08:49:19Z</time>
      </trkpt>
      <trkpt lat="42.99579" lon="0.3099">
        <ele>1245.4</ele>
        <time>2026-07-08T08:49:20Z</time>
      </trkpt>
      <trkpt lat="42.99578" lon="0.30991">
        <ele>1245.4</ele>
        <time>2026-07-08T08:49:20Z</time>
      </trkpt>
      <trkpt lat="42.99578" lon="0.30992">
        <ele>1245.4</ele>
        <time>2026-07-08T08:49:21Z</time>
      </trkpt>
      <trkpt lat="42.99578" lon="0.30992">
        <ele>1245.4</ele>
        <time>2026-07-08T08:49:21Z</time>
      </trkpt>
      <trkpt lat="42.99577" lon="0.30993">
        <ele>1245.4</ele>
        <time>2026-07-08T08:49:22Z</time>
      </trkpt>
      <trkpt lat="42.99577" lon="0.30994">
        <ele>1245.4</ele>
        <time>2026-07-08T08:49:23Z</time>
      </trkpt>
      <trkpt lat="42.99577" lon="0.30994">
        <ele>1245.4</ele>
        <time>2026-07-08T08:49:23Z</time>
      </trkpt>
      <trkpt lat="42.99576" lon="0.30995">
        <ele>1245.4</ele>
        <time>2026-07-08T08:49:24Z</time>
      </trkpt>
      <trkpt lat="42.99576" lon="0.30996">
        <ele>1246.4</ele>
        <time>2026-07-08T08:49:25Z</time>
      </trkpt>
      <trkpt lat="42.99576" lon="0.30996">
        <ele>1246.4</ele>
        <time>2026-07-08T08:49:25Z</time>
      </trkpt>
      <trkpt lat="42.99576" lon="0.30997">
        <ele>1246.4</ele>
        <time>2026-07-08T08:49:26Z</time>
      </trkpt>
      <trkpt lat="42.99575" lon="0.30997">
        <ele>1246.4</ele>
        <time>2026-07-08T08:49:27Z</time>
      </trkpt>
      <trkpt lat="42.99575" lon="0.30998">
        <ele>1247.4</ele>
        <time>2026-07-08T08:49:27Z</time>
      </trkpt>
      <trkpt lat="42.99574" lon="0.30998">
        <ele>1247.4</ele>
        <time>2026-07-08T08:49:28Z</time>
      </trkpt>
      <trkpt lat="42.99574" lon="0.30998">
        <ele>1247.4</ele>
        <time>2026-07-08T08:49:28Z</time>
      </trkpt>
      <trkpt lat="42.99574" lon="0.30999">
        <ele>1247.4</ele>
        <time>2026-07-08T08:49:29Z</time>
      </trkpt>
      <trkpt lat="42.99573" lon="0.30999">
        <ele>1247.4</ele>
        <time>2026-07-08T08:49:30Z</time>
      </trkpt>
      <trkpt lat="42.99573" lon="0.31">
        <ele>1248.4</ele>
        <time>2026-07-08T08:49:30Z</time>
      </trkpt>
      <trkpt lat="42.99573" lon="0.31">
        <ele>1247.4</ele>
        <time>2026-07-08T08:49:31Z</time>
      </trkpt>
      <trkpt lat="42.99572" lon="0.31001">
        <ele>1247.4</ele>
        <time>2026-07-08T08:49:32Z</time>
      </trkpt>
      <trkpt lat="42.99572" lon="0.31002">
        <ele>1247.4</ele>
        <time>2026-07-08T08:49:32Z</time>
      </trkpt>
      <trkpt lat="42.99573" lon="0.31002">
        <ele>1248.4</ele>
        <time>2026-07-08T08:49:33Z</time>
      </trkpt>
      <trkpt lat="42.99573" lon="0.31003">
        <ele>1248.4</ele>
        <time>2026-07-08T08:49:34Z</time>
      </trkpt>
      <trkpt lat="42.99573" lon="0.31003">
        <ele>1249.4</ele>
        <time>2026-07-08T08:49:34Z</time>
      </trkpt>
      <trkpt lat="42.99573" lon="0.31004">
        <ele>1249.4</ele>
        <time>2026-07-08T08:49:35Z</time>
      </trkpt>
      <trkpt lat="42.99574" lon="0.31005">
        <ele>1249.4</ele>
        <time>2026-07-08T08:49:36Z</time>
      </trkpt>
      <trkpt lat="42.99574" lon="0.31006">
        <ele>1249.4</ele>
        <time>2026-07-08T08:49:36Z</time>
      </trkpt>
      <trkpt lat="42.99574" lon="0.31006">
        <ele>1249.4</ele>
        <time>2026-07-08T08:49:37Z</time>
      </trkpt>
      <trkpt lat="42.99574" lon="0.31007">
        <ele>1249.4</ele>
        <time>2026-07-08T08:49:38Z</time>
      </trkpt>
      <trkpt lat="42.99574" lon="0.31008">
        <ele>1249.4</ele>
        <time>2026-07-08T08:49:38Z</time>
      </trkpt>
      <trkpt lat="42.99574" lon="0.31009">
        <ele>1249.4</ele>
        <time>2026-07-08T08:49:39Z</time>
      </trkpt>
      <trkpt lat="42.99574" lon="0.3101">
        <ele>1250.4</ele>
        <time>2026-07-08T08:49:40Z</time>
      </trkpt>
      <trkpt lat="42.99573" lon="0.31011">
        <ele>1249.4</ele>
        <time>2026-07-08T08:49:40Z</time>
      </trkpt>
      <trkpt lat="42.99573" lon="0.31012">
        <ele>1249.4</ele>
        <time>2026-07-08T08:49:41Z</time>
      </trkpt>
      <trkpt lat="42.99573" lon="0.31012">
        <ele>1250.4</ele>
        <time>2026-07-08T08:49:42Z</time>
      </trkpt>
      <trkpt lat="42.99572" lon="0.31013">
        <ele>1250.4</ele>
        <time>2026-07-08T08:49:42Z</time>
      </trkpt>
      <trkpt lat="42.99572" lon="0.31014">
        <ele>1250.4</ele>
        <time>2026-07-08T08:49:43Z</time>
      </trkpt>
      <trkpt lat="42.99572" lon="0.31014">
        <ele>1250.4</ele>
        <time>2026-07-08T08:49:44Z</time>
      </trkpt>
      <trkpt lat="42.99571" lon="0.31015">
        <ele>1250.4</ele>
        <time>2026-07-08T08:49:44Z</time>
      </trkpt>
      <trkpt lat="42.99571" lon="0.31015">
        <ele>1250.4</ele>
        <time>2026-07-08T08:49:45Z</time>
      </trkpt>
      <trkpt lat="42.99571" lon="0.31016">
        <ele>1250.4</ele>
        <time>2026-07-08T08:49:46Z</time>
      </trkpt>
      <trkpt lat="42.99571" lon="0.31017">
        <ele>1249.4</ele>
        <time>2026-07-08T08:49:46Z</time>
      </trkpt>
      <trkpt lat="42.99571" lon="0.31018">
        <ele>1250.4</ele>
        <time>2026-07-08T08:49:47Z</time>
      </trkpt>
      <trkpt lat="42.99571" lon="0.31019">
        <ele>1250.4</ele>
        <time>2026-07-08T08:49:48Z</time>
      </trkpt>
      <trkpt lat="42.99571" lon="0.3102">
        <ele>1250.4</ele>
        <time>2026-07-08T08:49:48Z</time>
      </trkpt>
      <trkpt lat="42.99571" lon="0.31021">
        <ele>1250.4</ele>
        <time>2026-07-08T08:49:49Z</time>
      </trkpt>
      <trkpt lat="42.9957" lon="0.31021">
        <ele>1250.4</ele>
        <time>2026-07-08T08:49:50Z</time>
      </trkpt>
      <trkpt lat="42.9957" lon="0.31022">
        <ele>1250.4</ele>
        <time>2026-07-08T08:49:50Z</time>
      </trkpt>
      <trkpt lat="42.9957" lon="0.31023">
        <ele>1249.4</ele>
        <time>2026-07-08T08:49:51Z</time>
      </trkpt>
      <trkpt lat="42.9957" lon="0.31023">
        <ele>1249.4</ele>
        <time>2026-07-08T08:49:52Z</time>
      </trkpt>
      <trkpt lat="42.9957" lon="0.31024">
        <ele>1249.4</ele>
        <time>2026-07-08T08:49:52Z</time>
      </trkpt>
      <trkpt lat="42.99569" lon="0.31024">
        <ele>1249.4</ele>
        <time>2026-07-08T08:49:53Z</time>
      </trkpt>
      <trkpt lat="42.99569" lon="0.31025">
        <ele>1249.4</ele>
        <time>2026-07-08T08:49:54Z</time>
      </trkpt>
      <trkpt lat="42.99569" lon="0.31026">
        <ele>1250.4</ele>
        <time>2026-07-08T08:49:54Z</time>
      </trkpt>
      <trkpt lat="42.99569" lon="0.31026">
        <ele>1250.4</ele>
        <time>2026-07-08T08:49:55Z</time>
      </trkpt>
      <trkpt lat="42.99568" lon="0.31027">
        <ele>1250.4</ele>
        <time>2026-07-08T08:49:56Z</time>
      </trkpt>
      <trkpt lat="42.99568" lon="0.31028">
        <ele>1250.4</ele>
        <time>2026-07-08T08:49:56Z</time>
      </trkpt>
      <trkpt lat="42.99567" lon="0.31028">
        <ele>1250.4</ele>
        <time>2026-07-08T08:49:57Z</time>
      </trkpt>
      <trkpt lat="42.99567" lon="0.31029">
        <ele>1250.4</ele>
        <time>2026-07-08T08:49:58Z</time>
      </trkpt>
      <trkpt lat="42.99566" lon="0.3103">
        <ele>1250.4</ele>
        <time>2026-07-08T08:49:59Z</time>
      </trkpt>
      <trkpt lat="42.99566" lon="0.3103">
        <ele>1251.4</ele>
        <time>2026-07-08T08:49:59Z</time>
      </trkpt>
      <trkpt lat="42.99566" lon="0.31032">
        <ele>1251.4</ele>
        <time>2026-07-08T08:50:00Z</time>
      </trkpt>
      <trkpt lat="42.99566" lon="0.31032">
        <ele>1251.4</ele>
        <time>2026-07-08T08:50:01Z</time>
      </trkpt>
      <trkpt lat="42.99566" lon="0.31033">
        <ele>1251.4</ele>
        <time>2026-07-08T08:50:01Z</time>
      </trkpt>
      <trkpt lat="42.99565" lon="0.31034">
        <ele>1251.4</ele>
        <time>2026-07-08T08:50:02Z</time>
      </trkpt>
      <trkpt lat="42.99565" lon="0.31035">
        <ele>1251.4</ele>
        <time>2026-07-08T08:50:03Z</time>
      </trkpt>
      <trkpt lat="42.99565" lon="0.31035">
        <ele>1251.4</ele>
        <time>2026-07-08T08:50:03Z</time>
      </trkpt>
      <trkpt lat="42.99564" lon="0.31036">
        <ele>1251.4</ele>
        <time>2026-07-08T08:50:04Z</time>
      </trkpt>
      <trkpt lat="42.99564" lon="0.31036">
        <ele>1251.4</ele>
        <time>2026-07-08T08:50:05Z</time>
      </trkpt>
      <trkpt lat="42.99564" lon="0.31036">
        <ele>1251.4</ele>
        <time>2026-07-08T08:50:05Z</time>
      </trkpt>
      <trkpt lat="42.99563" lon="0.31036">
        <ele>1251.4</ele>
        <time>2026-07-08T08:50:06Z</time>
      </trkpt>
      <trkpt lat="42.99563" lon="0.31036">
        <ele>1251.4</ele>
        <time>2026-07-08T08:50:07Z</time>
      </trkpt>
      <trkpt lat="42.99563" lon="0.31035">
        <ele>1251.4</ele>
        <time>2026-07-08T08:50:08Z</time>
      </trkpt>
      <trkpt lat="42.99563" lon="0.31035">
        <ele>1252.4</ele>
        <time>2026-07-08T08:50:09Z</time>
      </trkpt>
      <trkpt lat="42.99563" lon="0.31035">
        <ele>1252.4</ele>
        <time>2026-07-08T08:50:10Z</time>
      </trkpt>
      <trkpt lat="42.99564" lon="0.31036">
        <ele>1252.4</ele>
        <time>2026-07-08T08:50:11Z</time>
      </trkpt>
      <trkpt lat="42.99564" lon="0.31036">
        <ele>1252.4</ele>
        <time>2026-07-08T08:50:11Z</time>
      </trkpt>
      <trkpt lat="42.99564" lon="0.31037">
        <ele>1252.4</ele>
        <time>2026-07-08T08:50:12Z</time>
      </trkpt>
      <trkpt lat="42.99564" lon="0.31037">
        <ele>1253.4</ele>
        <time>2026-07-08T08:50:13Z</time>
      </trkpt>
      <trkpt lat="42.99564" lon="0.31039">
        <ele>1253.4</ele>
        <time>2026-07-08T08:50:13Z</time>
      </trkpt>
      <trkpt lat="42.99564" lon="0.31039">
        <ele>1253.4</ele>
        <time>2026-07-08T08:50:14Z</time>
      </trkpt>
      <trkpt lat="42.99563" lon="0.3104">
        <ele>1253.4</ele>
        <time>2026-07-08T08:50:15Z</time>
      </trkpt>
      <trkpt lat="42.99562" lon="0.31043">
        <ele>1253.4</ele>
        <time>2026-07-08T08:50:15Z</time>
      </trkpt>
      <trkpt lat="42.99561" lon="0.31044">
        <ele>1253.4</ele>
        <time>2026-07-08T08:50:16Z</time>
      </trkpt>
      <trkpt lat="42.99561" lon="0.31045">
        <ele>1253.4</ele>
        <time>2026-07-08T08:50:17Z</time>
      </trkpt>
      <trkpt lat="42.9956" lon="0.31046">
        <ele>1252.4</ele>
        <time>2026-07-08T08:50:17Z</time>
      </trkpt>
      <trkpt lat="42.99559" lon="0.31047">
        <ele>1252.4</ele>
        <time>2026-07-08T08:50:18Z</time>
      </trkpt>
      <trkpt lat="42.99559" lon="0.31048">
        <ele>1253.4</ele>
        <time>2026-07-08T08:50:19Z</time>
      </trkpt>
      <trkpt lat="42.99559" lon="0.31049">
        <ele>1253.4</ele>
        <time>2026-07-08T08:50:19Z</time>
      </trkpt>
      <trkpt lat="42.99558" lon="0.3105">
        <ele>1253.4</ele>
        <time>2026-07-08T08:50:20Z</time>
      </trkpt>
      <trkpt lat="42.99559" lon="0.31051">
        <ele>1254.4</ele>
        <time>2026-07-08T08:50:21Z</time>
      </trkpt>
      <trkpt lat="42.99559" lon="0.31052">
        <ele>1254.4</ele>
        <time>2026-07-08T08:50:21Z</time>
      </trkpt>
      <trkpt lat="42.99558" lon="0.31052">
        <ele>1254.4</ele>
        <time>2026-07-08T08:50:22Z</time>
      </trkpt>
      <trkpt lat="42.99559" lon="0.31054">
        <ele>1255.4</ele>
        <time>2026-07-08T08:50:23Z</time>
      </trkpt>
      <trkpt lat="42.99559" lon="0.31055">
        <ele>1255.4</ele>
        <time>2026-07-08T08:50:24Z</time>
      </trkpt>
      <trkpt lat="42.99558" lon="0.31056">
        <ele>1255.4</ele>
        <time>2026-07-08T08:50:25Z</time>
      </trkpt>
      <trkpt lat="42.99558" lon="0.31056">
        <ele>1256.4</ele>
        <time>2026-07-08T08:50:25Z</time>
      </trkpt>
      <trkpt lat="42.99558" lon="0.31057">
        <ele>1256.4</ele>
        <time>2026-07-08T08:50:26Z</time>
      </trkpt>
      <trkpt lat="42.99558" lon="0.31058">
        <ele>1256.4</ele>
        <time>2026-07-08T08:50:27Z</time>
      </trkpt>
      <trkpt lat="42.99558" lon="0.31059">
        <ele>1256.4</ele>
        <time>2026-07-08T08:50:28Z</time>
      </trkpt>
      <trkpt lat="42.99558" lon="0.3106">
        <ele>1257.4</ele>
        <time>2026-07-08T08:50:28Z</time>
      </trkpt>
      <trkpt lat="42.99558" lon="0.3106">
        <ele>1257.4</ele>
        <time>2026-07-08T08:50:29Z</time>
      </trkpt>
      <trkpt lat="42.99557" lon="0.31061">
        <ele>1257.4</ele>
        <time>2026-07-08T08:50:30Z</time>
      </trkpt>
      <trkpt lat="42.99557" lon="0.31061">
        <ele>1258.4</ele>
        <time>2026-07-08T08:50:30Z</time>
      </trkpt>
      <trkpt lat="42.99556" lon="0.31062">
        <ele>1258.4</ele>
        <time>2026-07-08T08:50:31Z</time>
      </trkpt>
      <trkpt lat="42.99556" lon="0.31062">
        <ele>1258.4</ele>
        <time>2026-07-08T08:50:32Z</time>
      </trkpt>
      <trkpt lat="42.99555" lon="0.31063">
        <ele>1257.4</ele>
        <time>2026-07-08T08:50:33Z</time>
      </trkpt>
      <trkpt lat="42.99555" lon="0.31064">
        <ele>1257.4</ele>
        <time>2026-07-08T08:50:33Z</time>
      </trkpt>
      <trkpt lat="42.99554" lon="0.31064">
        <ele>1257.4</ele>
        <time>2026-07-08T08:50:34Z</time>
      </trkpt>
      <trkpt lat="42.99554" lon="0.31065">
        <ele>1257.4</ele>
        <time>2026-07-08T08:50:35Z</time>
      </trkpt>
      <trkpt lat="42.99554" lon="0.31065">
        <ele>1257.4</ele>
        <time>2026-07-08T08:50:36Z</time>
      </trkpt>
      <trkpt lat="42.99554" lon="0.31066">
        <ele>1257.4</ele>
        <time>2026-07-08T08:50:36Z</time>
      </trkpt>
      <trkpt lat="42.99554" lon="0.31066">
        <ele>1257.4</ele>
        <time>2026-07-08T08:50:37Z</time>
      </trkpt>
      <trkpt lat="42.99553" lon="0.31066">
        <ele>1257.4</ele>
        <time>2026-07-08T08:50:38Z</time>
      </trkpt>
      <trkpt lat="42.99553" lon="0.31066">
        <ele>1257.4</ele>
        <time>2026-07-08T08:50:39Z</time>
      </trkpt>
      <trkpt lat="42.99552" lon="0.31066">
        <ele>1257.4</ele>
        <time>2026-07-08T08:50:39Z</time>
      </trkpt>
      <trkpt lat="42.99552" lon="0.31066">
        <ele>1257.4</ele>
        <time>2026-07-08T08:50:40Z</time>
      </trkpt>
      <trkpt lat="42.99551" lon="0.31067">
        <ele>1257.4</ele>
        <time>2026-07-08T08:50:41Z</time>
      </trkpt>
      <trkpt lat="42.99551" lon="0.31067">
        <ele>1257.4</ele>
        <time>2026-07-08T08:50:42Z</time>
      </trkpt>
      <trkpt lat="42.9955" lon="0.31067">
        <ele>1257.4</ele>
        <time>2026-07-08T08:50:42Z</time>
      </trkpt>
      <trkpt lat="42.9955" lon="0.31068">
        <ele>1257.4</ele>
        <time>2026-07-08T08:50:43Z</time>
      </trkpt>
      <trkpt lat="42.99549" lon="0.31069">
        <ele>1257.4</ele>
        <time>2026-07-08T08:50:44Z</time>
      </trkpt>
      <trkpt lat="42.99549" lon="0.31069">
        <ele>1257.4</ele>
        <time>2026-07-08T08:50:45Z</time>
      </trkpt>
      <trkpt lat="42.99549" lon="0.3107">
        <ele>1257.4</ele>
        <time>2026-07-08T08:50:45Z</time>
      </trkpt>
      <trkpt lat="42.99549" lon="0.3107">
        <ele>1258.4</ele>
        <time>2026-07-08T08:50:46Z</time>
      </trkpt>
      <trkpt lat="42.99549" lon="0.31071">
        <ele>1258.4</ele>
        <time>2026-07-08T08:50:47Z</time>
      </trkpt>
      <trkpt lat="42.99549" lon="0.31072">
        <ele>1258.4</ele>
        <time>2026-07-08T08:50:48Z</time>
      </trkpt>
      <trkpt lat="42.99548" lon="0.31072">
        <ele>1257.4</ele>
        <time>2026-07-08T08:50:48Z</time>
      </trkpt>
      <trkpt lat="42.99548" lon="0.31073">
        <ele>1257.4</ele>
        <time>2026-07-08T08:50:49Z</time>
      </trkpt>
      <trkpt lat="42.99547" lon="0.31073">
        <ele>1258.4</ele>
        <time>2026-07-08T08:50:50Z</time>
      </trkpt>
      <trkpt lat="42.99547" lon="0.31074">
        <ele>1258.4</ele>
        <time>2026-07-08T08:50:50Z</time>
      </trkpt>
      <trkpt lat="42.99546" lon="0.31074">
        <ele>1258.4</ele>
        <time>2026-07-08T08:50:51Z</time>
      </trkpt>
      <trkpt lat="42.99546" lon="0.31075">
        <ele>1258.4</ele>
        <time>2026-07-08T08:50:52Z</time>
      </trkpt>
      <trkpt lat="42.99545" lon="0.31075">
        <ele>1258.4</ele>
        <time>2026-07-08T08:50:53Z</time>
      </trkpt>
      <trkpt lat="42.99544" lon="0.31076">
        <ele>1258.4</ele>
        <time>2026-07-08T08:50:53Z</time>
      </trkpt>
      <trkpt lat="42.99544" lon="0.31076">
        <ele>1257.4</ele>
        <time>2026-07-08T08:50:54Z</time>
      </trkpt>
      <trkpt lat="42.99543" lon="0.31076">
        <ele>1257.4</ele>
        <time>2026-07-08T08:50:55Z</time>
      </trkpt>
      <trkpt lat="42.99543" lon="0.31077">
        <ele>1257.4</ele>
        <time>2026-07-08T08:50:56Z</time>
      </trkpt>
      <trkpt lat="42.99542" lon="0.31077">
        <ele>1258.4</ele>
        <time>2026-07-08T08:50:56Z</time>
      </trkpt>
      <trkpt lat="42.99542" lon="0.31078">
        <ele>1258.4</ele>
        <time>2026-07-08T08:50:57Z</time>
      </trkpt>
      <trkpt lat="42.99541" lon="0.31078">
        <ele>1258.4</ele>
        <time>2026-07-08T08:50:58Z</time>
      </trkpt>
      <trkpt lat="42.99541" lon="0.31079">
        <ele>1258.4</ele>
        <time>2026-07-08T08:50:59Z</time>
      </trkpt>
      <trkpt lat="42.99541" lon="0.3108">
        <ele>1258.4</ele>
        <time>2026-07-08T08:50:59Z</time>
      </trkpt>
      <trkpt lat="42.9954" lon="0.3108">
        <ele>1258.4</ele>
        <time>2026-07-08T08:51:00Z</time>
      </trkpt>
      <trkpt lat="42.9954" lon="0.31081">
        <ele>1259.4</ele>
        <time>2026-07-08T08:51:01Z</time>
      </trkpt>
      <trkpt lat="42.9954" lon="0.31082">
        <ele>1259.4</ele>
        <time>2026-07-08T08:51:01Z</time>
      </trkpt>
      <trkpt lat="42.9954" lon="0.31083">
        <ele>1259.4</ele>
        <time>2026-07-08T08:51:02Z</time>
      </trkpt>
      <trkpt lat="42.9954" lon="0.31084">
        <ele>1259.4</ele>
        <time>2026-07-08T08:51:03Z</time>
      </trkpt>
      <trkpt lat="42.9954" lon="0.31084">
        <ele>1259.4</ele>
        <time>2026-07-08T08:51:04Z</time>
      </trkpt>
      <trkpt lat="42.9954" lon="0.31085">
        <ele>1259.4</ele>
        <time>2026-07-08T08:51:04Z</time>
      </trkpt>
      <trkpt lat="42.99539" lon="0.31086">
        <ele>1259.4</ele>
        <time>2026-07-08T08:51:05Z</time>
      </trkpt>
      <trkpt lat="42.99539" lon="0.31086">
        <ele>1259.4</ele>
        <time>2026-07-08T08:51:06Z</time>
      </trkpt>
      <trkpt lat="42.99539" lon="0.31087">
        <ele>1259.4</ele>
        <time>2026-07-08T08:51:07Z</time>
      </trkpt>
      <trkpt lat="42.99538" lon="0.31087">
        <ele>1259.4</ele>
        <time>2026-07-08T08:51:07Z</time>
      </trkpt>
      <trkpt lat="42.99538" lon="0.31088">
        <ele>1259.4</ele>
        <time>2026-07-08T08:51:08Z</time>
      </trkpt>
      <trkpt lat="42.99537" lon="0.31088">
        <ele>1259.4</ele>
        <time>2026-07-08T08:51:09Z</time>
      </trkpt>
      <trkpt lat="42.99537" lon="0.31089">
        <ele>1259.4</ele>
        <time>2026-07-08T08:51:10Z</time>
      </trkpt>
      <trkpt lat="42.99536" lon="0.31089">
        <ele>1260.4</ele>
        <time>2026-07-08T08:51:10Z</time>
      </trkpt>
      <trkpt lat="42.99536" lon="0.3109">
        <ele>1260.4</ele>
        <time>2026-07-08T08:51:11Z</time>
      </trkpt>
      <trkpt lat="42.99535" lon="0.3109">
        <ele>1260.4</ele>
        <time>2026-07-08T08:51:12Z</time>
      </trkpt>
      <trkpt lat="42.99535" lon="0.31091">
        <ele>1261.4</ele>
        <time>2026-07-08T08:51:13Z</time>
      </trkpt>
      <trkpt lat="42.99535" lon="0.31091">
        <ele>1261.4</ele>
        <time>2026-07-08T08:51:13Z</time>
      </trkpt>
      <trkpt lat="42.99535" lon="0.31091">
        <ele>1262.4</ele>
        <time>2026-07-08T08:51:14Z</time>
      </trkpt>
      <trkpt lat="42.99534" lon="0.31092">
        <ele>1262.4</ele>
        <time>2026-07-08T08:51:15Z</time>
      </trkpt>
      <trkpt lat="42.99534" lon="0.31092">
        <ele>1262.4</ele>
        <time>2026-07-08T08:51:16Z</time>
      </trkpt>
      <trkpt lat="42.99534" lon="0.31093">
        <ele>1263.4</ele>
        <time>2026-07-08T08:51:16Z</time>
      </trkpt>
      <trkpt lat="42.99534" lon="0.31094">
        <ele>1262.4</ele>
        <time>2026-07-08T08:51:17Z</time>
      </trkpt>
      <trkpt lat="42.99533" lon="0.31095">
        <ele>1262.4</ele>
        <time>2026-07-08T08:51:18Z</time>
      </trkpt>
      <trkpt lat="42.99534" lon="0.31095">
        <ele>1262.4</ele>
        <time>2026-07-08T08:51:19Z</time>
      </trkpt>
      <trkpt lat="42.99533" lon="0.31096">
        <ele>1263.4</ele>
        <time>2026-07-08T08:51:19Z</time>
      </trkpt>
      <trkpt lat="42.99533" lon="0.31097">
        <ele>1263.4</ele>
        <time>2026-07-08T08:51:20Z</time>
      </trkpt>
      <trkpt lat="42.99533" lon="0.31098">
        <ele>1263.4</ele>
        <time>2026-07-08T08:51:21Z</time>
      </trkpt>
      <trkpt lat="42.99533" lon="0.31099">
        <ele>1263.4</ele>
        <time>2026-07-08T08:51:22Z</time>
      </trkpt>
      <trkpt lat="42.99533" lon="0.311">
        <ele>1263.4</ele>
        <time>2026-07-08T08:51:22Z</time>
      </trkpt>
      <trkpt lat="42.99534" lon="0.31101">
        <ele>1263.4</ele>
        <time>2026-07-08T08:51:23Z</time>
      </trkpt>
      <trkpt lat="42.99534" lon="0.31102">
        <ele>1263.4</ele>
        <time>2026-07-08T08:51:24Z</time>
      </trkpt>
      <trkpt lat="42.99534" lon="0.31103">
        <ele>1264.4</ele>
        <time>2026-07-08T08:51:24Z</time>
      </trkpt>
      <trkpt lat="42.99534" lon="0.31104">
        <ele>1264.4</ele>
        <time>2026-07-08T08:51:25Z</time>
      </trkpt>
      <trkpt lat="42.99534" lon="0.31105">
        <ele>1264.4</ele>
        <time>2026-07-08T08:51:26Z</time>
      </trkpt>
      <trkpt lat="42.99534" lon="0.31106">
        <ele>1264.4</ele>
        <time>2026-07-08T08:51:27Z</time>
      </trkpt>
      <trkpt lat="42.99534" lon="0.31106">
        <ele>1265.4</ele>
        <time>2026-07-08T08:51:27Z</time>
      </trkpt>
      <trkpt lat="42.99534" lon="0.31107">
        <ele>1265.4</ele>
        <time>2026-07-08T08:51:28Z</time>
      </trkpt>
      <trkpt lat="42.99534" lon="0.31108">
        <ele>1265.4</ele>
        <time>2026-07-08T08:51:29Z</time>
      </trkpt>
      <trkpt lat="42.99534" lon="0.31109">
        <ele>1265.4</ele>
        <time>2026-07-08T08:51:29Z</time>
      </trkpt>
      <trkpt lat="42.99534" lon="0.3111">
        <ele>1265.4</ele>
        <time>2026-07-08T08:51:30Z</time>
      </trkpt>
      <trkpt lat="42.99534" lon="0.3111">
        <ele>1265.4</ele>
        <time>2026-07-08T08:51:31Z</time>
      </trkpt>
      <trkpt lat="42.99534" lon="0.31111">
        <ele>1265.4</ele>
        <time>2026-07-08T08:51:31Z</time>
      </trkpt>
      <trkpt lat="42.99534" lon="0.31112">
        <ele>1265.4</ele>
        <time>2026-07-08T08:51:32Z</time>
      </trkpt>
      <trkpt lat="42.99534" lon="0.31113">
        <ele>1265.4</ele>
        <time>2026-07-08T08:51:33Z</time>
      </trkpt>
      <trkpt lat="42.99534" lon="0.31113">
        <ele>1265.4</ele>
        <time>2026-07-08T08:51:33Z</time>
      </trkpt>
      <trkpt lat="42.99534" lon="0.31114">
        <ele>1265.4</ele>
        <time>2026-07-08T08:51:34Z</time>
      </trkpt>
      <trkpt lat="42.99534" lon="0.31115">
        <ele>1265.4</ele>
        <time>2026-07-08T08:51:35Z</time>
      </trkpt>
      <trkpt lat="42.99534" lon="0.31116">
        <ele>1265.4</ele>
        <time>2026-07-08T08:51:35Z</time>
      </trkpt>
      <trkpt lat="42.99534" lon="0.31116">
        <ele>1264.4</ele>
        <time>2026-07-08T08:51:36Z</time>
      </trkpt>
      <trkpt lat="42.99534" lon="0.31117">
        <ele>1264.4</ele>
        <time>2026-07-08T08:51:37Z</time>
      </trkpt>
      <trkpt lat="42.99534" lon="0.31118">
        <ele>1264.4</ele>
        <time>2026-07-08T08:51:38Z</time>
      </trkpt>
      <trkpt lat="42.99534" lon="0.31119">
        <ele>1264.4</ele>
        <time>2026-07-08T08:51:38Z</time>
      </trkpt>
      <trkpt lat="42.99534" lon="0.3112">
        <ele>1264.4</ele>
        <time>2026-07-08T08:51:39Z</time>
      </trkpt>
      <trkpt lat="42.99533" lon="0.3112">
        <ele>1264.4</ele>
        <time>2026-07-08T08:51:40Z</time>
      </trkpt>
      <trkpt lat="42.99533" lon="0.31121">
        <ele>1265.4</ele>
        <time>2026-07-08T08:51:40Z</time>
      </trkpt>
      <trkpt lat="42.99533" lon="0.31122">
        <ele>1265.4</ele>
        <time>2026-07-08T08:51:41Z</time>
      </trkpt>
      <trkpt lat="42.99534" lon="0.31123">
        <ele>1265.4</ele>
        <time>2026-07-08T08:51:41Z</time>
      </trkpt>
      <trkpt lat="42.99534" lon="0.31123">
        <ele>1265.4</ele>
        <time>2026-07-08T08:51:42Z</time>
      </trkpt>
      <trkpt lat="42.99534" lon="0.31124">
        <ele>1265.4</ele>
        <time>2026-07-08T08:51:43Z</time>
      </trkpt>
      <trkpt lat="42.99534" lon="0.31125">
        <ele>1265.4</ele>
        <time>2026-07-08T08:51:43Z</time>
      </trkpt>
      <trkpt lat="42.99534" lon="0.31126">
        <ele>1265.4</ele>
        <time>2026-07-08T08:51:44Z</time>
      </trkpt>
      <trkpt lat="42.99534" lon="0.31127">
        <ele>1265.4</ele>
        <time>2026-07-08T08:51:45Z</time>
      </trkpt>
      <trkpt lat="42.99534" lon="0.31127">
        <ele>1265.4</ele>
        <time>2026-07-08T08:51:45Z</time>
      </trkpt>
      <trkpt lat="42.99534" lon="0.31128">
        <ele>1265.4</ele>
        <time>2026-07-08T08:51:46Z</time>
      </trkpt>
      <trkpt lat="42.99534" lon="0.31129">
        <ele>1265.4</ele>
        <time>2026-07-08T08:51:47Z</time>
      </trkpt>
      <trkpt lat="42.99534" lon="0.3113">
        <ele>1265.4</ele>
        <time>2026-07-08T08:51:48Z</time>
      </trkpt>
      <trkpt lat="42.99534" lon="0.3113">
        <ele>1265.4</ele>
        <time>2026-07-08T08:51:48Z</time>
      </trkpt>
      <trkpt lat="42.99534" lon="0.31131">
        <ele>1266.4</ele>
        <time>2026-07-08T08:51:49Z</time>
      </trkpt>
      <trkpt lat="42.99534" lon="0.31132">
        <ele>1266.4</ele>
        <time>2026-07-08T08:51:50Z</time>
      </trkpt>
      <trkpt lat="42.99534" lon="0.31132">
        <ele>1266.4</ele>
        <time>2026-07-08T08:51:51Z</time>
      </trkpt>
      <trkpt lat="42.99534" lon="0.31133">
        <ele>1267.4</ele>
        <time>2026-07-08T08:51:51Z</time>
      </trkpt>
      <trkpt lat="42.99533" lon="0.31134">
        <ele>1267.4</ele>
        <time>2026-07-08T08:51:52Z</time>
      </trkpt>
      <trkpt lat="42.99533" lon="0.31135">
        <ele>1266.4</ele>
        <time>2026-07-08T08:51:52Z</time>
      </trkpt>
      <trkpt lat="42.99533" lon="0.31136">
        <ele>1267.4</ele>
        <time>2026-07-08T08:51:53Z</time>
      </trkpt>
      <trkpt lat="42.99533" lon="0.31136">
        <ele>1267.4</ele>
        <time>2026-07-08T08:51:54Z</time>
      </trkpt>
      <trkpt lat="42.99533" lon="0.31137">
        <ele>1267.4</ele>
        <time>2026-07-08T08:51:54Z</time>
      </trkpt>
      <trkpt lat="42.99532" lon="0.31138">
        <ele>1267.4</ele>
        <time>2026-07-08T08:51:55Z</time>
      </trkpt>
      <trkpt lat="42.99532" lon="0.31139">
        <ele>1267.4</ele>
        <time>2026-07-08T08:51:56Z</time>
      </trkpt>
      <trkpt lat="42.99532" lon="0.31139">
        <ele>1268.4</ele>
        <time>2026-07-08T08:51:56Z</time>
      </trkpt>
      <trkpt lat="42.99532" lon="0.3114">
        <ele>1268.4</ele>
        <time>2026-07-08T08:51:57Z</time>
      </trkpt>
      <trkpt lat="42.99532" lon="0.3114">
        <ele>1268.4</ele>
        <time>2026-07-08T08:51:58Z</time>
      </trkpt>
      <trkpt lat="42.99531" lon="0.31141">
        <ele>1268.4</ele>
        <time>2026-07-08T08:51:59Z</time>
      </trkpt>
      <trkpt lat="42.99531" lon="0.31142">
        <ele>1268.4</ele>
        <time>2026-07-08T08:51:59Z</time>
      </trkpt>
      <trkpt lat="42.99531" lon="0.31143">
        <ele>1268.4</ele>
        <time>2026-07-08T08:52:00Z</time>
      </trkpt>
      <trkpt lat="42.99531" lon="0.31144">
        <ele>1268.4</ele>
        <time>2026-07-08T08:52:00Z</time>
      </trkpt>
      <trkpt lat="42.99531" lon="0.31144">
        <ele>1268.4</ele>
        <time>2026-07-08T08:52:01Z</time>
      </trkpt>
      <trkpt lat="42.99531" lon="0.31145">
        <ele>1268.4</ele>
        <time>2026-07-08T08:52:02Z</time>
      </trkpt>
      <trkpt lat="42.99531" lon="0.31146">
        <ele>1269.4</ele>
        <time>2026-07-08T08:52:02Z</time>
      </trkpt>
      <trkpt lat="42.9953" lon="0.31147">
        <ele>1269.4</ele>
        <time>2026-07-08T08:52:03Z</time>
      </trkpt>
      <trkpt lat="42.9953" lon="0.31148">
        <ele>1269.4</ele>
        <time>2026-07-08T08:52:04Z</time>
      </trkpt>
      <trkpt lat="42.9953" lon="0.31149">
        <ele>1269.4</ele>
        <time>2026-07-08T08:52:04Z</time>
      </trkpt>
      <trkpt lat="42.9953" lon="0.31149">
        <ele>1269.4</ele>
        <time>2026-07-08T08:52:05Z</time>
      </trkpt>
      <trkpt lat="42.9953" lon="0.3115">
        <ele>1269.4</ele>
        <time>2026-07-08T08:52:06Z</time>
      </trkpt>
      <trkpt lat="42.9953" lon="0.31151">
        <ele>1269.4</ele>
        <time>2026-07-08T08:52:06Z</time>
      </trkpt>
      <trkpt lat="42.9953" lon="0.31152">
        <ele>1269.4</ele>
        <time>2026-07-08T08:52:07Z</time>
      </trkpt>
      <trkpt lat="42.9953" lon="0.31152">
        <ele>1269.4</ele>
        <time>2026-07-08T08:52:08Z</time>
      </trkpt>
      <trkpt lat="42.9953" lon="0.31153">
        <ele>1269.4</ele>
        <time>2026-07-08T08:52:08Z</time>
      </trkpt>
      <trkpt lat="42.99529" lon="0.31154">
        <ele>1269.4</ele>
        <time>2026-07-08T08:52:09Z</time>
      </trkpt>
      <trkpt lat="42.99529" lon="0.31155">
        <ele>1269.4</ele>
        <time>2026-07-08T08:52:10Z</time>
      </trkpt>
      <trkpt lat="42.99529" lon="0.31155">
        <ele>1269.4</ele>
        <time>2026-07-08T08:52:10Z</time>
      </trkpt>
      <trkpt lat="42.99529" lon="0.31156">
        <ele>1269.4</ele>
        <time>2026-07-08T08:52:11Z</time>
      </trkpt>
      <trkpt lat="42.99528" lon="0.31157">
        <ele>1269.4</ele>
        <time>2026-07-08T08:52:11Z</time>
      </trkpt>
      <trkpt lat="42.99528" lon="0.31158">
        <ele>1269.4</ele>
        <time>2026-07-08T08:52:12Z</time>
      </trkpt>
      <trkpt lat="42.99528" lon="0.31158">
        <ele>1269.4</ele>
        <time>2026-07-08T08:52:13Z</time>
      </trkpt>
      <trkpt lat="42.99528" lon="0.31159">
        <ele>1270.4</ele>
        <time>2026-07-08T08:52:13Z</time>
      </trkpt>
      <trkpt lat="42.99527" lon="0.3116">
        <ele>1270.4</ele>
        <time>2026-07-08T08:52:14Z</time>
      </trkpt>
      <trkpt lat="42.99527" lon="0.31161">
        <ele>1270.4</ele>
        <time>2026-07-08T08:52:15Z</time>
      </trkpt>
      <trkpt lat="42.99527" lon="0.31162">
        <ele>1269.4</ele>
        <time>2026-07-08T08:52:15Z</time>
      </trkpt>
      <trkpt lat="42.99527" lon="0.31163">
        <ele>1269.4</ele>
        <time>2026-07-08T08:52:16Z</time>
      </trkpt>
      <trkpt lat="42.99526" lon="0.31164">
        <ele>1269.4</ele>
        <time>2026-07-08T08:52:16Z</time>
      </trkpt>
      <trkpt lat="42.99526" lon="0.31165">
        <ele>1269.4</ele>
        <time>2026-07-08T08:52:17Z</time>
      </trkpt>
      <trkpt lat="42.99526" lon="0.31166">
        <ele>1269.4</ele>
        <time>2026-07-08T08:52:18Z</time>
      </trkpt>
      <trkpt lat="42.99526" lon="0.31166">
        <ele>1269.4</ele>
        <time>2026-07-08T08:52:18Z</time>
      </trkpt>
      <trkpt lat="42.99526" lon="0.31167">
        <ele>1269.4</ele>
        <time>2026-07-08T08:52:19Z</time>
      </trkpt>
      <trkpt lat="42.99526" lon="0.31168">
        <ele>1269.4</ele>
        <time>2026-07-08T08:52:19Z</time>
      </trkpt>
      <trkpt lat="42.99525" lon="0.31169">
        <ele>1269.4</ele>
        <time>2026-07-08T08:52:20Z</time>
      </trkpt>
      <trkpt lat="42.99525" lon="0.3117">
        <ele>1269.4</ele>
        <time>2026-07-08T08:52:21Z</time>
      </trkpt>
      <trkpt lat="42.99525" lon="0.3117">
        <ele>1269.4</ele>
        <time>2026-07-08T08:52:21Z</time>
      </trkpt>
      <trkpt lat="42.99525" lon="0.31171">
        <ele>1269.4</ele>
        <time>2026-07-08T08:52:22Z</time>
      </trkpt>
      <trkpt lat="42.99524" lon="0.31172">
        <ele>1269.4</ele>
        <time>2026-07-08T08:52:22Z</time>
      </trkpt>
      <trkpt lat="42.99524" lon="0.31173">
        <ele>1269.4</ele>
        <time>2026-07-08T08:52:23Z</time>
      </trkpt>
      <trkpt lat="42.99524" lon="0.31173">
        <ele>1269.4</ele>
        <time>2026-07-08T08:52:24Z</time>
      </trkpt>
      <trkpt lat="42.99523" lon="0.31175">
        <ele>1269.4</ele>
        <time>2026-07-08T08:52:25Z</time>
      </trkpt>
      <trkpt lat="42.99523" lon="0.31176">
        <ele>1270.4</ele>
        <time>2026-07-08T08:52:26Z</time>
      </trkpt>
      <trkpt lat="42.99523" lon="0.31176">
        <ele>1270.4</ele>
        <time>2026-07-08T08:52:26Z</time>
      </trkpt>
      <trkpt lat="42.99523" lon="0.31177">
        <ele>1270.4</ele>
        <time>2026-07-08T08:52:27Z</time>
      </trkpt>
      <trkpt lat="42.99522" lon="0.31178">
        <ele>1269.4</ele>
        <time>2026-07-08T08:52:27Z</time>
      </trkpt>
      <trkpt lat="42.99522" lon="0.31179">
        <ele>1269.4</ele>
        <time>2026-07-08T08:52:28Z</time>
      </trkpt>
      <trkpt lat="42.99522" lon="0.3118">
        <ele>1270.4</ele>
        <time>2026-07-08T08:52:29Z</time>
      </trkpt>
      <trkpt lat="42.99521" lon="0.31181">
        <ele>1270.4</ele>
        <time>2026-07-08T08:52:29Z</time>
      </trkpt>
      <trkpt lat="42.99521" lon="0.31181">
        <ele>1270.4</ele>
        <time>2026-07-08T08:52:30Z</time>
      </trkpt>
      <trkpt lat="42.99521" lon="0.31182">
        <ele>1270.4</ele>
        <time>2026-07-08T08:52:30Z</time>
      </trkpt>
      <trkpt lat="42.9952" lon="0.31183">
        <ele>1271.4</ele>
        <time>2026-07-08T08:52:31Z</time>
      </trkpt>
      <trkpt lat="42.9952" lon="0.31184">
        <ele>1271.4</ele>
        <time>2026-07-08T08:52:32Z</time>
      </trkpt>
      <trkpt lat="42.9952" lon="0.31184">
        <ele>1271.4</ele>
        <time>2026-07-08T08:52:32Z</time>
      </trkpt>
      <trkpt lat="42.9952" lon="0.31185">
        <ele>1271.4</ele>
        <time>2026-07-08T08:52:33Z</time>
      </trkpt>
      <trkpt lat="42.99519" lon="0.31186">
        <ele>1270.4</ele>
        <time>2026-07-08T08:52:34Z</time>
      </trkpt>
      <trkpt lat="42.99519" lon="0.31186">
        <ele>1270.4</ele>
        <time>2026-07-08T08:52:34Z</time>
      </trkpt>
      <trkpt lat="42.99519" lon="0.31187">
        <ele>1270.4</ele>
        <time>2026-07-08T08:52:35Z</time>
      </trkpt>
      <trkpt lat="42.99519" lon="0.31188">
        <ele>1270.4</ele>
        <time>2026-07-08T08:52:35Z</time>
      </trkpt>
      <trkpt lat="42.99518" lon="0.31189">
        <ele>1270.4</ele>
        <time>2026-07-08T08:52:36Z</time>
      </trkpt>
      <trkpt lat="42.99518" lon="0.31189">
        <ele>1270.4</ele>
        <time>2026-07-08T08:52:37Z</time>
      </trkpt>
      <trkpt lat="42.99518" lon="0.3119">
        <ele>1270.4</ele>
        <time>2026-07-08T08:52:37Z</time>
      </trkpt>
      <trkpt lat="42.99517" lon="0.31191">
        <ele>1270.4</ele>
        <time>2026-07-08T08:52:38Z</time>
      </trkpt>
      <trkpt lat="42.99517" lon="0.31192">
        <ele>1270.4</ele>
        <time>2026-07-08T08:52:38Z</time>
      </trkpt>
      <trkpt lat="42.99517" lon="0.31192">
        <ele>1270.4</ele>
        <time>2026-07-08T08:52:39Z</time>
      </trkpt>
      <trkpt lat="42.99517" lon="0.31193">
        <ele>1270.4</ele>
        <time>2026-07-08T08:52:40Z</time>
      </trkpt>
      <trkpt lat="42.99516" lon="0.31194">
        <ele>1270.4</ele>
        <time>2026-07-08T08:52:40Z</time>
      </trkpt>
      <trkpt lat="42.99516" lon="0.31195">
        <ele>1271.4</ele>
        <time>2026-07-08T08:52:41Z</time>
      </trkpt>
      <trkpt lat="42.99516" lon="0.31196">
        <ele>1271.4</ele>
        <time>2026-07-08T08:52:42Z</time>
      </trkpt>
      <trkpt lat="42.99516" lon="0.31196">
        <ele>1272.4</ele>
        <time>2026-07-08T08:52:42Z</time>
      </trkpt>
      <trkpt lat="42.99515" lon="0.31197">
        <ele>1272.4</ele>
        <time>2026-07-08T08:52:43Z</time>
      </trkpt>
      <trkpt lat="42.99515" lon="0.31198">
        <ele>1272.4</ele>
        <time>2026-07-08T08:52:44Z</time>
      </trkpt>
      <trkpt lat="42.99515" lon="0.31199">
        <ele>1272.4</ele>
        <time>2026-07-08T08:52:44Z</time>
      </trkpt>
      <trkpt lat="42.99515" lon="0.312">
        <ele>1272.4</ele>
        <time>2026-07-08T08:52:45Z</time>
      </trkpt>
      <trkpt lat="42.99515" lon="0.31201">
        <ele>1272.4</ele>
        <time>2026-07-08T08:52:45Z</time>
      </trkpt>
      <trkpt lat="42.99515" lon="0.31202">
        <ele>1271.4</ele>
        <time>2026-07-08T08:52:46Z</time>
      </trkpt>
      <trkpt lat="42.99515" lon="0.31203">
        <ele>1271.4</ele>
        <time>2026-07-08T08:52:47Z</time>
      </trkpt>
      <trkpt lat="42.99515" lon="0.31204">
        <ele>1271.4</ele>
        <time>2026-07-08T08:52:47Z</time>
      </trkpt>
      <trkpt lat="42.99515" lon="0.31204">
        <ele>1271.4</ele>
        <time>2026-07-08T08:52:48Z</time>
      </trkpt>
      <trkpt lat="42.99515" lon="0.31205">
        <ele>1271.4</ele>
        <time>2026-07-08T08:52:49Z</time>
      </trkpt>
      <trkpt lat="42.99516" lon="0.31206">
        <ele>1271.4</ele>
        <time>2026-07-08T08:52:50Z</time>
      </trkpt>
      <trkpt lat="42.99515" lon="0.31206">
        <ele>1271.4</ele>
        <time>2026-07-08T08:52:50Z</time>
      </trkpt>
      <trkpt lat="42.99515" lon="0.31207">
        <ele>1271.4</ele>
        <time>2026-07-08T08:52:51Z</time>
      </trkpt>
      <trkpt lat="42.99515" lon="0.31208">
        <ele>1272.4</ele>
        <time>2026-07-08T08:52:52Z</time>
      </trkpt>
      <trkpt lat="42.99514" lon="0.31208">
        <ele>1272.4</ele>
        <time>2026-07-08T08:52:52Z</time>
      </trkpt>
      <trkpt lat="42.99514" lon="0.31209">
        <ele>1272.4</ele>
        <time>2026-07-08T08:52:53Z</time>
      </trkpt>
      <trkpt lat="42.99513" lon="0.3121">
        <ele>1272.4</ele>
        <time>2026-07-08T08:52:54Z</time>
      </trkpt>
      <trkpt lat="42.99513" lon="0.31211">
        <ele>1271.4</ele>
        <time>2026-07-08T08:52:54Z</time>
      </trkpt>
      <trkpt lat="42.99513" lon="0.31211">
        <ele>1272.4</ele>
        <time>2026-07-08T08:52:55Z</time>
      </trkpt>
      <trkpt lat="42.99513" lon="0.31213">
        <ele>1272.4</ele>
        <time>2026-07-08T08:52:56Z</time>
      </trkpt>
      <trkpt lat="42.99513" lon="0.31213">
        <ele>1272.4</ele>
        <time>2026-07-08T08:52:56Z</time>
      </trkpt>
      <trkpt lat="42.99513" lon="0.31214">
        <ele>1272.4</ele>
        <time>2026-07-08T08:52:57Z</time>
      </trkpt>
      <trkpt lat="42.99513" lon="0.31215">
        <ele>1272.4</ele>
        <time>2026-07-08T08:52:58Z</time>
      </trkpt>
      <trkpt lat="42.99512" lon="0.31216">
        <ele>1273.4</ele>
        <time>2026-07-08T08:52:59Z</time>
      </trkpt>
      <trkpt lat="42.99512" lon="0.31216">
        <ele>1273.4</ele>
        <time>2026-07-08T08:52:59Z</time>
      </trkpt>
      <trkpt lat="42.99512" lon="0.31217">
        <ele>1273.4</ele>
        <time>2026-07-08T08:53:00Z</time>
      </trkpt>
      <trkpt lat="42.99512" lon="0.31218">
        <ele>1272.4</ele>
        <time>2026-07-08T08:53:01Z</time>
      </trkpt>
      <trkpt lat="42.99511" lon="0.31218">
        <ele>1273.4</ele>
        <time>2026-07-08T08:53:01Z</time>
      </trkpt>
      <trkpt lat="42.99511" lon="0.31219">
        <ele>1273.4</ele>
        <time>2026-07-08T08:53:02Z</time>
      </trkpt>
      <trkpt lat="42.99511" lon="0.3122">
        <ele>1272.4</ele>
        <time>2026-07-08T08:53:03Z</time>
      </trkpt>
      <trkpt lat="42.9951" lon="0.3122">
        <ele>1273.4</ele>
        <time>2026-07-08T08:53:03Z</time>
      </trkpt>
      <trkpt lat="42.9951" lon="0.31221">
        <ele>1272.4</ele>
        <time>2026-07-08T08:53:04Z</time>
      </trkpt>
      <trkpt lat="42.99509" lon="0.31221">
        <ele>1272.4</ele>
        <time>2026-07-08T08:53:05Z</time>
      </trkpt>
      <trkpt lat="42.99509" lon="0.31222">
        <ele>1272.4</ele>
        <time>2026-07-08T08:53:06Z</time>
      </trkpt>
      <trkpt lat="42.99509" lon="0.31222">
        <ele>1272.4</ele>
        <time>2026-07-08T08:53:06Z</time>
      </trkpt>
      <trkpt lat="42.99509" lon="0.31223">
        <ele>1271.4</ele>
        <time>2026-07-08T08:53:07Z</time>
      </trkpt>
      <trkpt lat="42.99508" lon="0.31223">
        <ele>1270.4</ele>
        <time>2026-07-08T08:53:08Z</time>
      </trkpt>
      <trkpt lat="42.99508" lon="0.31224">
        <ele>1270.4</ele>
        <time>2026-07-08T08:53:09Z</time>
      </trkpt>
      <trkpt lat="42.99507" lon="0.31224">
        <ele>1270.4</ele>
        <time>2026-07-08T08:53:10Z</time>
      </trkpt>
      <trkpt lat="42.99507" lon="0.31225">
        <ele>1270.4</ele>
        <time>2026-07-08T08:53:10Z</time>
      </trkpt>
      <trkpt lat="42.99507" lon="0.31226">
        <ele>1270.4</ele>
        <time>2026-07-08T08:53:11Z</time>
      </trkpt>
      <trkpt lat="42.99507" lon="0.31227">
        <ele>1270.4</ele>
        <time>2026-07-08T08:53:12Z</time>
      </trkpt>
      <trkpt lat="42.99508" lon="0.31228">
        <ele>1270.4</ele>
        <time>2026-07-08T08:53:13Z</time>
      </trkpt>
      <trkpt lat="42.99508" lon="0.31227">
        <ele>1269.4</ele>
        <time>2026-07-08T08:53:13Z</time>
      </trkpt>
      <trkpt lat="42.99508" lon="0.31228">
        <ele>1269.4</ele>
        <time>2026-07-08T08:53:14Z</time>
      </trkpt>
      <trkpt lat="42.99508" lon="0.31228">
        <ele>1269.4</ele>
        <time>2026-07-08T08:53:15Z</time>
      </trkpt>
      <trkpt lat="42.99508" lon="0.31228">
        <ele>1269.4</ele>
        <time>2026-07-08T08:53:16Z</time>
      </trkpt>
      <trkpt lat="42.99508" lon="0.31228">
        <ele>1269.4</ele>
        <time>2026-07-08T08:53:17Z</time>
      </trkpt>
      <trkpt lat="42.99507" lon="0.31228">
        <ele>1269.4</ele>
        <time>2026-07-08T08:53:18Z</time>
      </trkpt>
      <trkpt lat="42.99507" lon="0.31228">
        <ele>1269.4</ele>
        <time>2026-07-08T08:53:19Z</time>
      </trkpt>
      <trkpt lat="42.99507" lon="0.31228">
        <ele>1269.4</ele>
        <time>2026-07-08T08:53:19Z</time>
      </trkpt>
      <trkpt lat="42.99507" lon="0.31228">
        <ele>1270.4</ele>
        <time>2026-07-08T08:53:20Z</time>
      </trkpt>
      <trkpt lat="42.99507" lon="0.31229">
        <ele>1270.4</ele>
        <time>2026-07-08T08:53:21Z</time>
      </trkpt>
      <trkpt lat="42.99507" lon="0.3123">
        <ele>1270.4</ele>
        <time>2026-07-08T08:53:22Z</time>
      </trkpt>
      <trkpt lat="42.99506" lon="0.31231">
        <ele>1271.4</ele>
        <time>2026-07-08T08:53:22Z</time>
      </trkpt>
      <trkpt lat="42.99506" lon="0.31231">
        <ele>1271.4</ele>
        <time>2026-07-08T08:53:23Z</time>
      </trkpt>
      <trkpt lat="42.99505" lon="0.31233">
        <ele>1272.4</ele>
        <time>2026-07-08T08:53:24Z</time>
      </trkpt>
      <trkpt lat="42.99504" lon="0.31234">
        <ele>1272.4</ele>
        <time>2026-07-08T08:53:24Z</time>
      </trkpt>
      <trkpt lat="42.99503" lon="0.31234">
        <ele>1272.4</ele>
        <time>2026-07-08T08:53:25Z</time>
      </trkpt>
      <trkpt lat="42.99502" lon="0.31235">
        <ele>1273.4</ele>
        <time>2026-07-08T08:53:25Z</time>
      </trkpt>
      <trkpt lat="42.99502" lon="0.31235">
        <ele>1273.4</ele>
        <time>2026-07-08T08:53:26Z</time>
      </trkpt>
      <trkpt lat="42.99501" lon="0.31235">
        <ele>1273.4</ele>
        <time>2026-07-08T08:53:27Z</time>
      </trkpt>
      <trkpt lat="42.995" lon="0.31236">
        <ele>1273.4</ele>
        <time>2026-07-08T08:53:27Z</time>
      </trkpt>
      <trkpt lat="42.995" lon="0.31237">
        <ele>1273.4</ele>
        <time>2026-07-08T08:53:28Z</time>
      </trkpt>
      <trkpt lat="42.99499" lon="0.31237">
        <ele>1273.4</ele>
        <time>2026-07-08T08:53:29Z</time>
      </trkpt>
      <trkpt lat="42.99498" lon="0.31238">
        <ele>1273.4</ele>
        <time>2026-07-08T08:53:29Z</time>
      </trkpt>
      <trkpt lat="42.99498" lon="0.31239">
        <ele>1273.4</ele>
        <time>2026-07-08T08:53:30Z</time>
      </trkpt>
      <trkpt lat="42.99498" lon="0.3124">
        <ele>1274.4</ele>
        <time>2026-07-08T08:53:31Z</time>
      </trkpt>
      <trkpt lat="42.99497" lon="0.3124">
        <ele>1273.4</ele>
        <time>2026-07-08T08:53:31Z</time>
      </trkpt>
      <trkpt lat="42.99497" lon="0.31241">
        <ele>1273.4</ele>
        <time>2026-07-08T08:53:32Z</time>
      </trkpt>
      <trkpt lat="42.99497" lon="0.31242">
        <ele>1274.4</ele>
        <time>2026-07-08T08:53:33Z</time>
      </trkpt>
      <trkpt lat="42.99496" lon="0.31242">
        <ele>1274.4</ele>
        <time>2026-07-08T08:53:33Z</time>
      </trkpt>
      <trkpt lat="42.99496" lon="0.31243">
        <ele>1274.4</ele>
        <time>2026-07-08T08:53:34Z</time>
      </trkpt>
      <trkpt lat="42.99496" lon="0.31243">
        <ele>1274.4</ele>
        <time>2026-07-08T08:53:34Z</time>
      </trkpt>
      <trkpt lat="42.99495" lon="0.31244">
        <ele>1275.4</ele>
        <time>2026-07-08T08:53:35Z</time>
      </trkpt>
      <trkpt lat="42.99495" lon="0.31244">
        <ele>1275.4</ele>
        <time>2026-07-08T08:53:36Z</time>
      </trkpt>
      <trkpt lat="42.99494" lon="0.31244">
        <ele>1275.4</ele>
        <time>2026-07-08T08:53:37Z</time>
      </trkpt>
      <trkpt lat="42.99494" lon="0.31245">
        <ele>1275.4</ele>
        <time>2026-07-08T08:53:37Z</time>
      </trkpt>
      <trkpt lat="42.99493" lon="0.31245">
        <ele>1275.4</ele>
        <time>2026-07-08T08:53:38Z</time>
      </trkpt>
      <trkpt lat="42.99493" lon="0.31246">
        <ele>1275.4</ele>
        <time>2026-07-08T08:53:39Z</time>
      </trkpt>
      <trkpt lat="42.99493" lon="0.31247">
        <ele>1275.4</ele>
        <time>2026-07-08T08:53:39Z</time>
      </trkpt>
      <trkpt lat="42.99492" lon="0.31248">
        <ele>1275.4</ele>
        <time>2026-07-08T08:53:40Z</time>
      </trkpt>
      <trkpt lat="42.99492" lon="0.31249">
        <ele>1275.4</ele>
        <time>2026-07-08T08:53:41Z</time>
      </trkpt>
      <trkpt lat="42.99491" lon="0.31249">
        <ele>1275.4</ele>
        <time>2026-07-08T08:53:42Z</time>
      </trkpt>
      <trkpt lat="42.99491" lon="0.3125">
        <ele>1275.4</ele>
        <time>2026-07-08T08:53:42Z</time>
      </trkpt>
      <trkpt lat="42.99491" lon="0.3125">
        <ele>1276.4</ele>
        <time>2026-07-08T08:53:43Z</time>
      </trkpt>
      <trkpt lat="42.9949" lon="0.31251">
        <ele>1275.4</ele>
        <time>2026-07-08T08:53:43Z</time>
      </trkpt>
      <trkpt lat="42.9949" lon="0.31252">
        <ele>1275.4</ele>
        <time>2026-07-08T08:53:44Z</time>
      </trkpt>
      <trkpt lat="42.99489" lon="0.31253">
        <ele>1276.4</ele>
        <time>2026-07-08T08:53:45Z</time>
      </trkpt>
      <trkpt lat="42.99489" lon="0.31254">
        <ele>1276.4</ele>
        <time>2026-07-08T08:53:45Z</time>
      </trkpt>
      <trkpt lat="42.99489" lon="0.31255">
        <ele>1276.4</ele>
        <time>2026-07-08T08:53:46Z</time>
      </trkpt>
      <trkpt lat="42.99489" lon="0.31255">
        <ele>1276.4</ele>
        <time>2026-07-08T08:53:46Z</time>
      </trkpt>
      <trkpt lat="42.99489" lon="0.31256">
        <ele>1276.4</ele>
        <time>2026-07-08T08:53:47Z</time>
      </trkpt>
      <trkpt lat="42.99488" lon="0.31257">
        <ele>1276.4</ele>
        <time>2026-07-08T08:53:48Z</time>
      </trkpt>
      <trkpt lat="42.99488" lon="0.31257">
        <ele>1277.4</ele>
        <time>2026-07-08T08:53:48Z</time>
      </trkpt>
      <trkpt lat="42.99488" lon="0.31258">
        <ele>1277.4</ele>
        <time>2026-07-08T08:53:49Z</time>
      </trkpt>
      <trkpt lat="42.99487" lon="0.31259">
        <ele>1277.4</ele>
        <time>2026-07-08T08:53:49Z</time>
      </trkpt>
      <trkpt lat="42.99487" lon="0.3126">
        <ele>1277.4</ele>
        <time>2026-07-08T08:53:50Z</time>
      </trkpt>
      <trkpt lat="42.99487" lon="0.3126">
        <ele>1277.4</ele>
        <time>2026-07-08T08:53:51Z</time>
      </trkpt>
      <trkpt lat="42.99486" lon="0.31261">
        <ele>1277.4</ele>
        <time>2026-07-08T08:53:51Z</time>
      </trkpt>
      <trkpt lat="42.99486" lon="0.31262">
        <ele>1277.4</ele>
        <time>2026-07-08T08:53:52Z</time>
      </trkpt>
      <trkpt lat="42.99486" lon="0.31263">
        <ele>1277.4</ele>
        <time>2026-07-08T08:53:53Z</time>
      </trkpt>
      <trkpt lat="42.99485" lon="0.31263">
        <ele>1277.4</ele>
        <time>2026-07-08T08:53:53Z</time>
      </trkpt>
      <trkpt lat="42.99485" lon="0.31264">
        <ele>1277.4</ele>
        <time>2026-07-08T08:53:54Z</time>
      </trkpt>
      <trkpt lat="42.99485" lon="0.31264">
        <ele>1278.4</ele>
        <time>2026-07-08T08:53:54Z</time>
      </trkpt>
      <trkpt lat="42.99484" lon="0.31265">
        <ele>1278.4</ele>
        <time>2026-07-08T08:53:55Z</time>
      </trkpt>
      <trkpt lat="42.99484" lon="0.31266">
        <ele>1278.4</ele>
        <time>2026-07-08T08:53:55Z</time>
      </trkpt>
      <trkpt lat="42.99484" lon="0.31267">
        <ele>1278.4</ele>
        <time>2026-07-08T08:53:56Z</time>
      </trkpt>
      <trkpt lat="42.99484" lon="0.31267">
        <ele>1278.4</ele>
        <time>2026-07-08T08:53:57Z</time>
      </trkpt>
      <trkpt lat="42.99483" lon="0.31268">
        <ele>1278.4</ele>
        <time>2026-07-08T08:53:57Z</time>
      </trkpt>
      <trkpt lat="42.99483" lon="0.31269">
        <ele>1278.4</ele>
        <time>2026-07-08T08:53:58Z</time>
      </trkpt>
      <trkpt lat="42.99483" lon="0.31269">
        <ele>1278.4</ele>
        <time>2026-07-08T08:53:58Z</time>
      </trkpt>
      <trkpt lat="42.99482" lon="0.3127">
        <ele>1278.4</ele>
        <time>2026-07-08T08:53:59Z</time>
      </trkpt>
      <trkpt lat="42.99482" lon="0.3127">
        <ele>1278.4</ele>
        <time>2026-07-08T08:54:00Z</time>
      </trkpt>
      <trkpt lat="42.99481" lon="0.31271">
        <ele>1277.4</ele>
        <time>2026-07-08T08:54:00Z</time>
      </trkpt>
      <trkpt lat="42.99481" lon="0.31271">
        <ele>1277.4</ele>
        <time>2026-07-08T08:54:01Z</time>
      </trkpt>
      <trkpt lat="42.99481" lon="0.31272">
        <ele>1277.4</ele>
        <time>2026-07-08T08:54:02Z</time>
      </trkpt>
      <trkpt lat="42.99481" lon="0.31273">
        <ele>1277.4</ele>
        <time>2026-07-08T08:54:02Z</time>
      </trkpt>
      <trkpt lat="42.99481" lon="0.31274">
        <ele>1277.4</ele>
        <time>2026-07-08T08:54:03Z</time>
      </trkpt>
      <trkpt lat="42.99482" lon="0.31275">
        <ele>1278.4</ele>
        <time>2026-07-08T08:54:03Z</time>
      </trkpt>
      <trkpt lat="42.99482" lon="0.31275">
        <ele>1278.4</ele>
        <time>2026-07-08T08:54:04Z</time>
      </trkpt>
      <trkpt lat="42.99481" lon="0.31277">
        <ele>1278.4</ele>
        <time>2026-07-08T08:54:05Z</time>
      </trkpt>
      <trkpt lat="42.99481" lon="0.31277">
        <ele>1278.4</ele>
        <time>2026-07-08T08:54:05Z</time>
      </trkpt>
      <trkpt lat="42.99481" lon="0.31278">
        <ele>1278.4</ele>
        <time>2026-07-08T08:54:06Z</time>
      </trkpt>
      <trkpt lat="42.9948" lon="0.31279">
        <ele>1278.4</ele>
        <time>2026-07-08T08:54:06Z</time>
      </trkpt>
      <trkpt lat="42.9948" lon="0.31279">
        <ele>1278.4</ele>
        <time>2026-07-08T08:54:07Z</time>
      </trkpt>
      <trkpt lat="42.99479" lon="0.3128">
        <ele>1278.4</ele>
        <time>2026-07-08T08:54:08Z</time>
      </trkpt>
      <trkpt lat="42.99478" lon="0.31281">
        <ele>1279.4</ele>
        <time>2026-07-08T08:54:09Z</time>
      </trkpt>
      <trkpt lat="42.99477" lon="0.31281">
        <ele>1279.4</ele>
        <time>2026-07-08T08:54:09Z</time>
      </trkpt>
      <trkpt lat="42.99476" lon="0.31281">
        <ele>1279.4</ele>
        <time>2026-07-08T08:54:10Z</time>
      </trkpt>
      <trkpt lat="42.99476" lon="0.31281">
        <ele>1279.4</ele>
        <time>2026-07-08T08:54:11Z</time>
      </trkpt>
      <trkpt lat="42.99475" lon="0.31281">
        <ele>1279.4</ele>
        <time>2026-07-08T08:54:12Z</time>
      </trkpt>
      <trkpt lat="42.99474" lon="0.31282">
        <ele>1279.4</ele>
        <time>2026-07-08T08:54:12Z</time>
      </trkpt>
      <trkpt lat="42.99474" lon="0.31282">
        <ele>1279.4</ele>
        <time>2026-07-08T08:54:13Z</time>
      </trkpt>
      <trkpt lat="42.99473" lon="0.31282">
        <ele>1279.4</ele>
        <time>2026-07-08T08:54:13Z</time>
      </trkpt>
      <trkpt lat="42.99473" lon="0.31283">
        <ele>1279.4</ele>
        <time>2026-07-08T08:54:14Z</time>
      </trkpt>
      <trkpt lat="42.99472" lon="0.31283">
        <ele>1279.4</ele>
        <time>2026-07-08T08:54:15Z</time>
      </trkpt>
      <trkpt lat="42.99472" lon="0.31284">
        <ele>1279.4</ele>
        <time>2026-07-08T08:54:15Z</time>
      </trkpt>
      <trkpt lat="42.99471" lon="0.31285">
        <ele>1279.4</ele>
        <time>2026-07-08T08:54:16Z</time>
      </trkpt>
      <trkpt lat="42.99471" lon="0.31286">
        <ele>1280.4</ele>
        <time>2026-07-08T08:54:16Z</time>
      </trkpt>
      <trkpt lat="42.99471" lon="0.31287">
        <ele>1280.4</ele>
        <time>2026-07-08T08:54:17Z</time>
      </trkpt>
      <trkpt lat="42.9947" lon="0.31288">
        <ele>1279.4</ele>
        <time>2026-07-08T08:54:18Z</time>
      </trkpt>
      <trkpt lat="42.9947" lon="0.31289">
        <ele>1279.4</ele>
        <time>2026-07-08T08:54:18Z</time>
      </trkpt>
      <trkpt lat="42.99469" lon="0.31289">
        <ele>1279.4</ele>
        <time>2026-07-08T08:54:19Z</time>
      </trkpt>
      <trkpt lat="42.99469" lon="0.3129">
        <ele>1279.4</ele>
        <time>2026-07-08T08:54:20Z</time>
      </trkpt>
      <trkpt lat="42.99469" lon="0.31291">
        <ele>1279.4</ele>
        <time>2026-07-08T08:54:20Z</time>
      </trkpt>
      <trkpt lat="42.99468" lon="0.31292">
        <ele>1279.4</ele>
        <time>2026-07-08T08:54:21Z</time>
      </trkpt>
      <trkpt lat="42.99468" lon="0.31292">
        <ele>1279.4</ele>
        <time>2026-07-08T08:54:22Z</time>
      </trkpt>
      <trkpt lat="42.99468" lon="0.31293">
        <ele>1279.4</ele>
        <time>2026-07-08T08:54:22Z</time>
      </trkpt>
      <trkpt lat="42.99467" lon="0.31294">
        <ele>1279.4</ele>
        <time>2026-07-08T08:54:23Z</time>
      </trkpt>
      <trkpt lat="42.99467" lon="0.31295">
        <ele>1279.4</ele>
        <time>2026-07-08T08:54:23Z</time>
      </trkpt>
      <trkpt lat="42.99467" lon="0.31296">
        <ele>1279.4</ele>
        <time>2026-07-08T08:54:24Z</time>
      </trkpt>
      <trkpt lat="42.99467" lon="0.31297">
        <ele>1279.4</ele>
        <time>2026-07-08T08:54:25Z</time>
      </trkpt>
      <trkpt lat="42.99467" lon="0.31297">
        <ele>1279.4</ele>
        <time>2026-07-08T08:54:25Z</time>
      </trkpt>
      <trkpt lat="42.99466" lon="0.31298">
        <ele>1279.4</ele>
        <time>2026-07-08T08:54:26Z</time>
      </trkpt>
      <trkpt lat="42.99466" lon="0.31298">
        <ele>1279.4</ele>
        <time>2026-07-08T08:54:26Z</time>
      </trkpt>
      <trkpt lat="42.99466" lon="0.31299">
        <ele>1279.4</ele>
        <time>2026-07-08T08:54:27Z</time>
      </trkpt>
      <trkpt lat="42.99465" lon="0.313">
        <ele>1279.4</ele>
        <time>2026-07-08T08:54:27Z</time>
      </trkpt>
      <trkpt lat="42.99465" lon="0.31301">
        <ele>1279.4</ele>
        <time>2026-07-08T08:54:28Z</time>
      </trkpt>
      <trkpt lat="42.99464" lon="0.31301">
        <ele>1279.4</ele>
        <time>2026-07-08T08:54:29Z</time>
      </trkpt>
      <trkpt lat="42.99464" lon="0.31302">
        <ele>1279.4</ele>
        <time>2026-07-08T08:54:29Z</time>
      </trkpt>
      <trkpt lat="42.99463" lon="0.31303">
        <ele>1279.4</ele>
        <time>2026-07-08T08:54:30Z</time>
      </trkpt>
      <trkpt lat="42.99463" lon="0.31304">
        <ele>1279.4</ele>
        <time>2026-07-08T08:54:31Z</time>
      </trkpt>
      <trkpt lat="42.99463" lon="0.31305">
        <ele>1279.4</ele>
        <time>2026-07-08T08:54:31Z</time>
      </trkpt>
      <trkpt lat="42.99462" lon="0.31305">
        <ele>1279.4</ele>
        <time>2026-07-08T08:54:32Z</time>
      </trkpt>
      <trkpt lat="42.99462" lon="0.31306">
        <ele>1279.4</ele>
        <time>2026-07-08T08:54:33Z</time>
      </trkpt>
      <trkpt lat="42.99462" lon="0.31307">
        <ele>1279.4</ele>
        <time>2026-07-08T08:54:33Z</time>
      </trkpt>
      <trkpt lat="42.99461" lon="0.31308">
        <ele>1279.4</ele>
        <time>2026-07-08T08:54:34Z</time>
      </trkpt>
      <trkpt lat="42.99461" lon="0.31309">
        <ele>1279.4</ele>
        <time>2026-07-08T08:54:35Z</time>
      </trkpt>
      <trkpt lat="42.99461" lon="0.31309">
        <ele>1278.4</ele>
        <time>2026-07-08T08:54:35Z</time>
      </trkpt>
      <trkpt lat="42.99461" lon="0.3131">
        <ele>1278.4</ele>
        <time>2026-07-08T08:54:36Z</time>
      </trkpt>
      <trkpt lat="42.9946" lon="0.31311">
        <ele>1278.4</ele>
        <time>2026-07-08T08:54:36Z</time>
      </trkpt>
      <trkpt lat="42.9946" lon="0.31312">
        <ele>1278.4</ele>
        <time>2026-07-08T08:54:37Z</time>
      </trkpt>
      <trkpt lat="42.9946" lon="0.31312">
        <ele>1278.4</ele>
        <time>2026-07-08T08:54:38Z</time>
      </trkpt>
      <trkpt lat="42.9946" lon="0.31313">
        <ele>1279.4</ele>
        <time>2026-07-08T08:54:38Z</time>
      </trkpt>
      <trkpt lat="42.9946" lon="0.31314">
        <ele>1279.4</ele>
        <time>2026-07-08T08:54:39Z</time>
      </trkpt>
      <trkpt lat="42.99459" lon="0.31315">
        <ele>1278.4</ele>
        <time>2026-07-08T08:54:39Z</time>
      </trkpt>
      <trkpt lat="42.99459" lon="0.31315">
        <ele>1278.4</ele>
        <time>2026-07-08T08:54:40Z</time>
      </trkpt>
      <trkpt lat="42.99459" lon="0.31316">
        <ele>1278.4</ele>
        <time>2026-07-08T08:54:41Z</time>
      </trkpt>
      <trkpt lat="42.99458" lon="0.31317">
        <ele>1279.4</ele>
        <time>2026-07-08T08:54:41Z</time>
      </trkpt>
      <trkpt lat="42.99458" lon="0.31318">
        <ele>1279.4</ele>
        <time>2026-07-08T08:54:42Z</time>
      </trkpt>
      <trkpt lat="42.99457" lon="0.31318">
        <ele>1279.4</ele>
        <time>2026-07-08T08:54:43Z</time>
      </trkpt>
      <trkpt lat="42.99457" lon="0.31319">
        <ele>1279.4</ele>
        <time>2026-07-08T08:54:43Z</time>
      </trkpt>
      <trkpt lat="42.99457" lon="0.31319">
        <ele>1280.4</ele>
        <time>2026-07-08T08:54:44Z</time>
      </trkpt>
      <trkpt lat="42.99456" lon="0.3132">
        <ele>1280.4</ele>
        <time>2026-07-08T08:54:45Z</time>
      </trkpt>
      <trkpt lat="42.99456" lon="0.31321">
        <ele>1280.4</ele>
        <time>2026-07-08T08:54:45Z</time>
      </trkpt>
      <trkpt lat="42.99456" lon="0.31322">
        <ele>1280.4</ele>
        <time>2026-07-08T08:54:46Z</time>
      </trkpt>
      <trkpt lat="42.99456" lon="0.31322">
        <ele>1280.4</ele>
        <time>2026-07-08T08:54:47Z</time>
      </trkpt>
      <trkpt lat="42.99456" lon="0.31323">
        <ele>1280.4</ele>
        <time>2026-07-08T08:54:47Z</time>
      </trkpt>
      <trkpt lat="42.99456" lon="0.31323">
        <ele>1279.4</ele>
        <time>2026-07-08T08:54:48Z</time>
      </trkpt>
      <trkpt lat="42.99455" lon="0.31324">
        <ele>1279.4</ele>
        <time>2026-07-08T08:54:49Z</time>
      </trkpt>
      <trkpt lat="42.99455" lon="0.31324">
        <ele>1279.4</ele>
        <time>2026-07-08T08:54:49Z</time>
      </trkpt>
      <trkpt lat="42.99454" lon="0.31325">
        <ele>1279.4</ele>
        <time>2026-07-08T08:54:50Z</time>
      </trkpt>
      <trkpt lat="42.99454" lon="0.31325">
        <ele>1279.4</ele>
        <time>2026-07-08T08:54:51Z</time>
      </trkpt>
      <trkpt lat="42.99453" lon="0.31326">
        <ele>1280.4</ele>
        <time>2026-07-08T08:54:52Z</time>
      </trkpt>
      <trkpt lat="42.99453" lon="0.31326">
        <ele>1279.4</ele>
        <time>2026-07-08T08:54:52Z</time>
      </trkpt>
      <trkpt lat="42.99453" lon="0.31327">
        <ele>1280.4</ele>
        <time>2026-07-08T08:54:53Z</time>
      </trkpt>
      <trkpt lat="42.99453" lon="0.31327">
        <ele>1280.4</ele>
        <time>2026-07-08T08:54:54Z</time>
      </trkpt>
      <trkpt lat="42.99453" lon="0.31328">
        <ele>1279.4</ele>
        <time>2026-07-08T08:54:55Z</time>
      </trkpt>
      <trkpt lat="42.99453" lon="0.31328">
        <ele>1280.4</ele>
        <time>2026-07-08T08:54:55Z</time>
      </trkpt>
      <trkpt lat="42.99453" lon="0.31328">
        <ele>1280.4</ele>
        <time>2026-07-08T08:54:56Z</time>
      </trkpt>
      <trkpt lat="42.99454" lon="0.31328">
        <ele>1280.4</ele>
        <time>2026-07-08T08:54:57Z</time>
      </trkpt>
      <trkpt lat="42.99454" lon="0.31328">
        <ele>1280.4</ele>
        <time>2026-07-08T08:54:57Z</time>
      </trkpt>
      <trkpt lat="42.99454" lon="0.31328">
        <ele>1282.4</ele>
        <time>2026-07-08T08:54:58Z</time>
      </trkpt>
      <trkpt lat="42.99454" lon="0.31328">
        <ele>1282.4</ele>
        <time>2026-07-08T08:54:59Z</time>
      </trkpt>
      <trkpt lat="42.99454" lon="0.31328">
        <ele>1281.4</ele>
        <time>2026-07-08T08:54:59Z</time>
      </trkpt>
      <trkpt lat="42.99454" lon="0.31328">
        <ele>1282.4</ele>
        <time>2026-07-08T08:55:00Z</time>
      </trkpt>
      <trkpt lat="42.99454" lon="0.31328">
        <ele>1282.4</ele>
        <time>2026-07-08T08:55:01Z</time>
      </trkpt>
      <trkpt lat="42.99454" lon="0.31329">
        <ele>1282.4</ele>
        <time>2026-07-08T08:55:02Z</time>
      </trkpt>
      <trkpt lat="42.99454" lon="0.31329">
        <ele>1282.4</ele>
        <time>2026-07-08T08:55:03Z</time>
      </trkpt>
      <trkpt lat="42.99454" lon="0.31329">
        <ele>1282.4</ele>
        <time>2026-07-08T08:55:04Z</time>
      </trkpt>
      <trkpt lat="42.99454" lon="0.31329">
        <ele>1281.4</ele>
        <time>2026-07-08T08:55:05Z</time>
      </trkpt>
      <trkpt lat="42.99454" lon="0.31329">
        <ele>1281.4</ele>
        <time>2026-07-08T08:55:06Z</time>
      </trkpt>
      <trkpt lat="42.99454" lon="0.31329">
        <ele>1281.4</ele>
        <time>2026-07-08T08:55:07Z</time>
      </trkpt>
      <trkpt lat="42.99454" lon="0.31329">
        <ele>1281.4</ele>
        <time>2026-07-08T08:55:08Z</time>
      </trkpt>
      <trkpt lat="42.99454" lon="0.3133">
        <ele>1281.4</ele>
        <time>2026-07-08T08:55:09Z</time>
      </trkpt>
      <trkpt lat="42.99453" lon="0.3133">
        <ele>1281.4</ele>
        <time>2026-07-08T08:55:10Z</time>
      </trkpt>
      <trkpt lat="42.99453" lon="0.3133">
        <ele>1280.4</ele>
        <time>2026-07-08T08:55:10Z</time>
      </trkpt>
      <trkpt lat="42.99453" lon="0.3133">
        <ele>1280.4</ele>
        <time>2026-07-08T08:55:11Z</time>
      </trkpt>
      <trkpt lat="42.99453" lon="0.3133">
        <ele>1280.4</ele>
        <time>2026-07-08T08:55:11Z</time>
      </trkpt>
      <trkpt lat="42.99453" lon="0.3133">
        <ele>1280.4</ele>
        <time>2026-07-08T08:55:12Z</time>
      </trkpt>
      <trkpt lat="42.99453" lon="0.3133">
        <ele>1280.4</ele>
        <time>2026-07-08T08:55:13Z</time>
      </trkpt>
      <trkpt lat="42.99453" lon="0.31331">
        <ele>1281.4</ele>
        <time>2026-07-08T08:55:14Z</time>
      </trkpt>
      <trkpt lat="42.99453" lon="0.31331">
        <ele>1280.4</ele>
        <time>2026-07-08T08:55:14Z</time>
      </trkpt>
      <trkpt lat="42.99452" lon="0.31331">
        <ele>1280.4</ele>
        <time>2026-07-08T08:55:15Z</time>
      </trkpt>
      <trkpt lat="42.99452" lon="0.31331">
        <ele>1280.4</ele>
        <time>2026-07-08T08:55:16Z</time>
      </trkpt>
      <trkpt lat="42.99451" lon="0.31332">
        <ele>1279.4</ele>
        <time>2026-07-08T08:55:16Z</time>
      </trkpt>
      <trkpt lat="42.99451" lon="0.31332">
        <ele>1279.4</ele>
        <time>2026-07-08T08:55:17Z</time>
      </trkpt>
      <trkpt lat="42.9945" lon="0.31333">
        <ele>1279.4</ele>
        <time>2026-07-08T08:55:18Z</time>
      </trkpt>
      <trkpt lat="42.99449" lon="0.31334">
        <ele>1279.4</ele>
        <time>2026-07-08T08:55:18Z</time>
      </trkpt>
      <trkpt lat="42.99448" lon="0.31336">
        <ele>1279.4</ele>
        <time>2026-07-08T08:55:19Z</time>
      </trkpt>
      <trkpt lat="42.99447" lon="0.31337">
        <ele>1279.4</ele>
        <time>2026-07-08T08:55:20Z</time>
      </trkpt>
      <trkpt lat="42.99446" lon="0.31338">
        <ele>1278.4</ele>
        <time>2026-07-08T08:55:21Z</time>
      </trkpt>
      <trkpt lat="42.99445" lon="0.31339">
        <ele>1278.4</ele>
        <time>2026-07-08T08:55:22Z</time>
      </trkpt>
      <trkpt lat="42.99444" lon="0.31339">
        <ele>1278.4</ele>
        <time>2026-07-08T08:55:22Z</time>
      </trkpt>
      <trkpt lat="42.99444" lon="0.3134">
        <ele>1278.4</ele>
        <time>2026-07-08T08:55:23Z</time>
      </trkpt>
      <trkpt lat="42.99442" lon="0.31339">
        <ele>1278.4</ele>
        <time>2026-07-08T08:55:23Z</time>
      </trkpt>
      <trkpt lat="42.99442" lon="0.31339">
        <ele>1278.4</ele>
        <time>2026-07-08T08:55:24Z</time>
      </trkpt>
      <trkpt lat="42.99441" lon="0.31339">
        <ele>1279.4</ele>
        <time>2026-07-08T08:55:25Z</time>
      </trkpt>
      <trkpt lat="42.9944" lon="0.31339">
        <ele>1279.4</ele>
        <time>2026-07-08T08:55:25Z</time>
      </trkpt>
      <trkpt lat="42.99439" lon="0.31339">
        <ele>1279.4</ele>
        <time>2026-07-08T08:55:26Z</time>
      </trkpt>
      <trkpt lat="42.99438" lon="0.31339">
        <ele>1279.4</ele>
        <time>2026-07-08T08:55:26Z</time>
      </trkpt>
      <trkpt lat="42.99438" lon="0.3134">
        <ele>1279.4</ele>
        <time>2026-07-08T08:55:27Z</time>
      </trkpt>
      <trkpt lat="42.99437" lon="0.3134">
        <ele>1279.4</ele>
        <time>2026-07-08T08:55:27Z</time>
      </trkpt>
      <trkpt lat="42.99437" lon="0.31341">
        <ele>1279.4</ele>
        <time>2026-07-08T08:55:28Z</time>
      </trkpt>
      <trkpt lat="42.99437" lon="0.31341">
        <ele>1279.4</ele>
        <time>2026-07-08T08:55:29Z</time>
      </trkpt>
      <trkpt lat="42.99436" lon="0.31342">
        <ele>1278.4</ele>
        <time>2026-07-08T08:55:29Z</time>
      </trkpt>
      <trkpt lat="42.99436" lon="0.31343">
        <ele>1278.4</ele>
        <time>2026-07-08T08:55:30Z</time>
      </trkpt>
      <trkpt lat="42.99436" lon="0.31344">
        <ele>1278.4</ele>
        <time>2026-07-08T08:55:31Z</time>
      </trkpt>
      <trkpt lat="42.99435" lon="0.31345">
        <ele>1278.4</ele>
        <time>2026-07-08T08:55:32Z</time>
      </trkpt>
      <trkpt lat="42.99435" lon="0.31345">
        <ele>1279.4</ele>
        <time>2026-07-08T08:55:33Z</time>
      </trkpt>
      <trkpt lat="42.99435" lon="0.31345">
        <ele>1279.4</ele>
        <time>2026-07-08T08:55:33Z</time>
      </trkpt>
      <trkpt lat="42.99434" lon="0.31346">
        <ele>1279.4</ele>
        <time>2026-07-08T08:55:34Z</time>
      </trkpt>
      <trkpt lat="42.99434" lon="0.31346">
        <ele>1279.4</ele>
        <time>2026-07-08T08:55:35Z</time>
      </trkpt>
      <trkpt lat="42.99433" lon="0.31345">
        <ele>1279.4</ele>
        <time>2026-07-08T08:55:35Z</time>
      </trkpt>
      <trkpt lat="42.99433" lon="0.31346">
        <ele>1279.4</ele>
        <time>2026-07-08T08:55:36Z</time>
      </trkpt>
      <trkpt lat="42.99432" lon="0.31345">
        <ele>1279.4</ele>
        <time>2026-07-08T08:55:37Z</time>
      </trkpt>
      <trkpt lat="42.99431" lon="0.31345">
        <ele>1278.4</ele>
        <time>2026-07-08T08:55:37Z</time>
      </trkpt>
      <trkpt lat="42.99431" lon="0.31346">
        <ele>1278.4</ele>
        <time>2026-07-08T08:55:38Z</time>
      </trkpt>
      <trkpt lat="42.9943" lon="0.31346">
        <ele>1278.4</ele>
        <time>2026-07-08T08:55:39Z</time>
      </trkpt>
      <trkpt lat="42.9943" lon="0.31346">
        <ele>1278.4</ele>
        <time>2026-07-08T08:55:39Z</time>
      </trkpt>
      <trkpt lat="42.9943" lon="0.31346">
        <ele>1278.4</ele>
        <time>2026-07-08T08:55:40Z</time>
      </trkpt>
      <trkpt lat="42.99429" lon="0.31347">
        <ele>1278.4</ele>
        <time>2026-07-08T08:55:41Z</time>
      </trkpt>
      <trkpt lat="42.99429" lon="0.31347">
        <ele>1278.4</ele>
        <time>2026-07-08T08:55:42Z</time>
      </trkpt>
      <trkpt lat="42.99429" lon="0.31348">
        <ele>1278.4</ele>
        <time>2026-07-08T08:55:43Z</time>
      </trkpt>
      <trkpt lat="42.99429" lon="0.31347">
        <ele>1278.4</ele>
        <time>2026-07-08T08:55:44Z</time>
      </trkpt>
      <trkpt lat="42.99429" lon="0.31347">
        <ele>1278.4</ele>
        <time>2026-07-08T08:55:45Z</time>
      </trkpt>
      <trkpt lat="42.99429" lon="0.31347">
        <ele>1278.4</ele>
        <time>2026-07-08T08:55:46Z</time>
      </trkpt>
      <trkpt lat="42.99429" lon="0.31347">
        <ele>1278.4</ele>
        <time>2026-07-08T08:55:47Z</time>
      </trkpt>
      <trkpt lat="42.9943" lon="0.31348">
        <ele>1278.4</ele>
        <time>2026-07-08T08:55:48Z</time>
      </trkpt>
      <trkpt lat="42.9943" lon="0.31348">
        <ele>1278.4</ele>
        <time>2026-07-08T08:55:49Z</time>
      </trkpt>
      <trkpt lat="42.9943" lon="0.31349">
        <ele>1279.4</ele>
        <time>2026-07-08T08:55:50Z</time>
      </trkpt>
      <trkpt lat="42.9943" lon="0.31349">
        <ele>1279.4</ele>
        <time>2026-07-08T08:55:51Z</time>
      </trkpt>
      <trkpt lat="42.9943" lon="0.31349">
        <ele>1278.4</ele>
        <time>2026-07-08T08:55:52Z</time>
      </trkpt>
      <trkpt lat="42.99429" lon="0.31349">
        <ele>1278.4</ele>
        <time>2026-07-08T08:55:52Z</time>
      </trkpt>
      <trkpt lat="42.99429" lon="0.31349">
        <ele>1278.4</ele>
        <time>2026-07-08T08:55:53Z</time>
      </trkpt>
      <trkpt lat="42.99429" lon="0.3135">
        <ele>1278.4</ele>
        <time>2026-07-08T08:55:54Z</time>
      </trkpt>
      <trkpt lat="42.99429" lon="0.3135">
        <ele>1278.4</ele>
        <time>2026-07-08T08:55:54Z</time>
      </trkpt>
      <trkpt lat="42.99429" lon="0.3135">
        <ele>1278.4</ele>
        <time>2026-07-08T08:55:55Z</time>
      </trkpt>
      <trkpt lat="42.99429" lon="0.3135">
        <ele>1278.4</ele>
        <time>2026-07-08T08:55:55Z</time>
      </trkpt>
      <trkpt lat="42.99429" lon="0.3135">
        <ele>1277.4</ele>
        <time>2026-07-08T08:55:56Z</time>
      </trkpt>
      <trkpt lat="42.99429" lon="0.31351">
        <ele>1277.4</ele>
        <time>2026-07-08T08:55:57Z</time>
      </trkpt>
      <trkpt lat="42.99429" lon="0.31351">
        <ele>1277.4</ele>
        <time>2026-07-08T08:55:58Z</time>
      </trkpt>
      <trkpt lat="42.99428" lon="0.31352">
        <ele>1276.4</ele>
        <time>2026-07-08T08:55:59Z</time>
      </trkpt>
      <trkpt lat="42.99428" lon="0.31352">
        <ele>1276.4</ele>
        <time>2026-07-08T08:56:00Z</time>
      </trkpt>
      <trkpt lat="42.99428" lon="0.31352">
        <ele>1277.4</ele>
        <time>2026-07-08T08:56:00Z</time>
      </trkpt>
      <trkpt lat="42.99428" lon="0.31352">
        <ele>1277.4</ele>
        <time>2026-07-08T08:56:01Z</time>
      </trkpt>
      <trkpt lat="42.99427" lon="0.31352">
        <ele>1277.4</ele>
        <time>2026-07-08T08:56:02Z</time>
      </trkpt>
      <trkpt lat="42.99427" lon="0.31352">
        <ele>1277.4</ele>
        <time>2026-07-08T08:56:03Z</time>
      </trkpt>
      <trkpt lat="42.99427" lon="0.31352">
        <ele>1277.4</ele>
        <time>2026-07-08T08:56:03Z</time>
      </trkpt>
      <trkpt lat="42.99427" lon="0.31353">
        <ele>1277.4</ele>
        <time>2026-07-08T08:56:04Z</time>
      </trkpt>
      <trkpt lat="42.99426" lon="0.31353">
        <ele>1276.4</ele>
        <time>2026-07-08T08:56:05Z</time>
      </trkpt>
      <trkpt lat="42.99425" lon="0.31354">
        <ele>1276.4</ele>
        <time>2026-07-08T08:56:06Z</time>
      </trkpt>
      <trkpt lat="42.99425" lon="0.31355">
        <ele>1275.4</ele>
        <time>2026-07-08T08:56:06Z</time>
      </trkpt>
      <trkpt lat="42.99424" lon="0.31355">
        <ele>1275.4</ele>
        <time>2026-07-08T08:56:07Z</time>
      </trkpt>
      <trkpt lat="42.99424" lon="0.31355">
        <ele>1275.4</ele>
        <time>2026-07-08T08:56:07Z</time>
      </trkpt>
      <trkpt lat="42.99423" lon="0.31356">
        <ele>1275.4</ele>
        <time>2026-07-08T08:56:08Z</time>
      </trkpt>
      <trkpt lat="42.99423" lon="0.31357">
        <ele>1275.4</ele>
        <time>2026-07-08T08:56:09Z</time>
      </trkpt>
      <trkpt lat="42.99423" lon="0.31357">
        <ele>1274.4</ele>
        <time>2026-07-08T08:56:09Z</time>
      </trkpt>
      <trkpt lat="42.99422" lon="0.31357">
        <ele>1274.4</ele>
        <time>2026-07-08T08:56:10Z</time>
      </trkpt>
      <trkpt lat="42.99422" lon="0.31357">
        <ele>1274.4</ele>
        <time>2026-07-08T08:56:11Z</time>
      </trkpt>
      <trkpt lat="42.99422" lon="0.31358">
        <ele>1273.4</ele>
        <time>2026-07-08T08:56:11Z</time>
      </trkpt>
      <trkpt lat="42.99421" lon="0.31358">
        <ele>1273.4</ele>
        <time>2026-07-08T08:56:12Z</time>
      </trkpt>
      <trkpt lat="42.99421" lon="0.31358">
        <ele>1273.4</ele>
        <time>2026-07-08T08:56:13Z</time>
      </trkpt>
      <trkpt lat="42.99421" lon="0.31359">
        <ele>1274.4</ele>
        <time>2026-07-08T08:56:14Z</time>
      </trkpt>
      <trkpt lat="42.9942" lon="0.31359">
        <ele>1274.4</ele>
        <time>2026-07-08T08:56:14Z</time>
      </trkpt>
      <trkpt lat="42.9942" lon="0.31359">
        <ele>1273.4</ele>
        <time>2026-07-08T08:56:15Z</time>
      </trkpt>
      <trkpt lat="42.99419" lon="0.3136">
        <ele>1273.4</ele>
        <time>2026-07-08T08:56:16Z</time>
      </trkpt>
      <trkpt lat="42.99418" lon="0.3136">
        <ele>1273.4</ele>
        <time>2026-07-08T08:56:17Z</time>
      </trkpt>
      <trkpt lat="42.99418" lon="0.3136">
        <ele>1273.4</ele>
        <time>2026-07-08T08:56:18Z</time>
      </trkpt>
      <trkpt lat="42.99417" lon="0.3136">
        <ele>1273.4</ele>
        <time>2026-07-08T08:56:19Z</time>
      </trkpt>
      <trkpt lat="42.99417" lon="0.31359">
        <ele>1273.4</ele>
        <time>2026-07-08T08:56:20Z</time>
      </trkpt>
      <trkpt lat="42.99418" lon="0.31359">
        <ele>1271.4</ele>
        <time>2026-07-08T08:56:20Z</time>
      </trkpt>
      <trkpt lat="42.99418" lon="0.31358">
        <ele>1271.4</ele>
        <time>2026-07-08T08:56:21Z</time>
      </trkpt>
      <trkpt lat="42.99418" lon="0.31357">
        <ele>1271.4</ele>
        <time>2026-07-08T08:56:22Z</time>
      </trkpt>
      <trkpt lat="42.99418" lon="0.31357">
        <ele>1271.4</ele>
        <time>2026-07-08T08:56:23Z</time>
      </trkpt>
      <trkpt lat="42.99419" lon="0.31356">
        <ele>1271.4</ele>
        <time>2026-07-08T08:56:24Z</time>
      </trkpt>
      <trkpt lat="42.99419" lon="0.31356">
        <ele>1271.4</ele>
        <time>2026-07-08T08:56:25Z</time>
      </trkpt>
      <trkpt lat="42.99419" lon="0.31356">
        <ele>1271.4</ele>
        <time>2026-07-08T08:56:26Z</time>
      </trkpt>
      <trkpt lat="42.99419" lon="0.31355">
        <ele>1271.4</ele>
        <time>2026-07-08T08:56:26Z</time>
      </trkpt>
      <trkpt lat="42.99419" lon="0.31355">
        <ele>1271.4</ele>
        <time>2026-07-08T08:56:27Z</time>
      </trkpt>
      <trkpt lat="42.99419" lon="0.31355">
        <ele>1270.4</ele>
        <time>2026-07-08T08:56:27Z</time>
      </trkpt>
      <trkpt lat="42.9942" lon="0.31355">
        <ele>1270.4</ele>
        <time>2026-07-08T08:56:28Z</time>
      </trkpt>
      <trkpt lat="42.9942" lon="0.31355">
        <ele>1270.4</ele>
        <time>2026-07-08T08:56:29Z</time>
      </trkpt>
      <trkpt lat="42.9942" lon="0.31355">
        <ele>1269.4</ele>
        <time>2026-07-08T08:56:30Z</time>
      </trkpt>
      <trkpt lat="42.9942" lon="0.31354">
        <ele>1269.4</ele>
        <time>2026-07-08T08:56:30Z</time>
      </trkpt>
      <trkpt lat="42.9942" lon="0.31354">
        <ele>1269.4</ele>
        <time>2026-07-08T08:56:31Z</time>
      </trkpt>
      <trkpt lat="42.9942" lon="0.31354">
        <ele>1268.4</ele>
        <time>2026-07-08T08:56:32Z</time>
      </trkpt>
      <trkpt lat="42.9942" lon="0.31353">
        <ele>1268.4</ele>
        <time>2026-07-08T08:56:33Z</time>
      </trkpt>
      <trkpt lat="42.99421" lon="0.31353">
        <ele>1268.4</ele>
        <time>2026-07-08T08:56:34Z</time>
      </trkpt>
      <trkpt lat="42.99421" lon="0.31352">
        <ele>1267.4</ele>
        <time>2026-07-08T08:56:35Z</time>
      </trkpt>
      <trkpt lat="42.99421" lon="0.31352">
        <ele>1268.4</ele>
        <time>2026-07-08T08:56:36Z</time>
      </trkpt>
      <trkpt lat="42.99421" lon="0.31351">
        <ele>1268.4</ele>
        <time>2026-07-08T08:56:37Z</time>
      </trkpt>
      <trkpt lat="42.99422" lon="0.31351">
        <ele>1268.4</ele>
        <time>2026-07-08T08:56:38Z</time>
      </trkpt>
      <trkpt lat="42.99422" lon="0.3135">
        <ele>1268.4</ele>
        <time>2026-07-08T08:56:38Z</time>
      </trkpt>
      <trkpt lat="42.99422" lon="0.31349">
        <ele>1268.4</ele>
        <time>2026-07-08T08:56:39Z</time>
      </trkpt>
      <trkpt lat="42.99422" lon="0.31349">
        <ele>1268.4</ele>
        <time>2026-07-08T08:56:40Z</time>
      </trkpt>
      <trkpt lat="42.99422" lon="0.31348">
        <ele>1268.4</ele>
        <time>2026-07-08T08:56:41Z</time>
      </trkpt>
      <trkpt lat="42.99423" lon="0.31347">
        <ele>1267.4</ele>
        <time>2026-07-08T08:56:41Z</time>
      </trkpt>
      <trkpt lat="42.99423" lon="0.31346">
        <ele>1267.4</ele>
        <time>2026-07-08T08:56:42Z</time>
      </trkpt>
      <trkpt lat="42.99423" lon="0.31346">
        <ele>1267.4</ele>
        <time>2026-07-08T08:56:43Z</time>
      </trkpt>
      <trkpt lat="42.99424" lon="0.31345">
        <ele>1267.4</ele>
        <time>2026-07-08T08:56:43Z</time>
      </trkpt>
      <trkpt lat="42.99424" lon="0.31345">
        <ele>1267.4</ele>
        <time>2026-07-08T08:56:44Z</time>
      </trkpt>
      <trkpt lat="42.99424" lon="0.31344">
        <ele>1266.4</ele>
        <time>2026-07-08T08:56:45Z</time>
      </trkpt>
      <trkpt lat="42.99424" lon="0.31344">
        <ele>1266.4</ele>
        <time>2026-07-08T08:56:46Z</time>
      </trkpt>
      <trkpt lat="42.99424" lon="0.31344">
        <ele>1266.4</ele>
        <time>2026-07-08T08:56:47Z</time>
      </trkpt>
      <trkpt lat="42.99424" lon="0.31343">
        <ele>1266.4</ele>
        <time>2026-07-08T08:56:48Z</time>
      </trkpt>
      <trkpt lat="42.99424" lon="0.31343">
        <ele>1265.4</ele>
        <time>2026-07-08T08:56:49Z</time>
      </trkpt>
      <trkpt lat="42.99423" lon="0.31343">
        <ele>1266.4</ele>
        <time>2026-07-08T08:56:50Z</time>
      </trkpt>
      <trkpt lat="42.99423" lon="0.31344">
        <ele>1266.4</ele>
        <time>2026-07-08T08:56:51Z</time>
      </trkpt>
      <trkpt lat="42.99423" lon="0.31344">
        <ele>1266.4</ele>
        <time>2026-07-08T08:56:51Z</time>
      </trkpt>
      <trkpt lat="42.99422" lon="0.31344">
        <ele>1266.4</ele>
        <time>2026-07-08T08:56:52Z</time>
      </trkpt>
      <trkpt lat="42.99422" lon="0.31344">
        <ele>1266.4</ele>
        <time>2026-07-08T08:56:53Z</time>
      </trkpt>
      <trkpt lat="42.99422" lon="0.31345">
        <ele>1266.4</ele>
        <time>2026-07-08T08:56:53Z</time>
      </trkpt>
      <trkpt lat="42.99422" lon="0.31345">
        <ele>1266.4</ele>
        <time>2026-07-08T08:56:53Z</time>
      </trkpt>
      <trkpt lat="42.99422" lon="0.31345">
        <ele>1266.4</ele>
        <time>2026-07-08T08:56:54Z</time>
      </trkpt>
      <trkpt lat="42.99422" lon="0.31345">
        <ele>1266.4</ele>
        <time>2026-07-08T08:56:55Z</time>
      </trkpt>
      <trkpt lat="42.99421" lon="0.31345">
        <ele>1266.4</ele>
        <time>2026-07-08T08:56:56Z</time>
      </trkpt>
      <trkpt lat="42.99421" lon="0.31346">
        <ele>1267.4</ele>
        <time>2026-07-08T08:56:57Z</time>
      </trkpt>
      <trkpt lat="42.9942" lon="0.31346">
        <ele>1267.4</ele>
        <time>2026-07-08T08:56:57Z</time>
      </trkpt>
      <trkpt lat="42.9942" lon="0.31346">
        <ele>1268.4</ele>
        <time>2026-07-08T08:56:58Z</time>
      </trkpt>
      <trkpt lat="42.9942" lon="0.31346">
        <ele>1268.4</ele>
        <time>2026-07-08T08:56:59Z</time>
      </trkpt>
      <trkpt lat="42.99419" lon="0.31346">
        <ele>1268.4</ele>
        <time>2026-07-08T08:57:00Z</time>
      </trkpt>
      <trkpt lat="42.99419" lon="0.31345">
        <ele>1268.4</ele>
        <time>2026-07-08T08:57:01Z</time>
      </trkpt>
      <trkpt lat="42.99419" lon="0.31345">
        <ele>1267.4</ele>
        <time>2026-07-08T08:57:02Z</time>
      </trkpt>
      <trkpt lat="42.99419" lon="0.31345">
        <ele>1266.4</ele>
        <time>2026-07-08T08:57:03Z</time>
      </trkpt>
      <trkpt lat="42.9942" lon="0.31345">
        <ele>1266.4</ele>
        <time>2026-07-08T08:57:04Z</time>
      </trkpt>
      <trkpt lat="42.9942" lon="0.31345">
        <ele>1267.4</ele>
        <time>2026-07-08T08:57:04Z</time>
      </trkpt>
      <trkpt lat="42.9942" lon="0.31345">
        <ele>1267.4</ele>
        <time>2026-07-08T08:57:05Z</time>
      </trkpt>
      <trkpt lat="42.9942" lon="0.31345">
        <ele>1266.4</ele>
        <time>2026-07-08T08:57:06Z</time>
      </trkpt>
      <trkpt lat="42.9942" lon="0.31344">
        <ele>1266.4</ele>
        <time>2026-07-08T08:57:07Z</time>
      </trkpt>
      <trkpt lat="42.9942" lon="0.31344">
        <ele>1266.4</ele>
        <time>2026-07-08T08:57:08Z</time>
      </trkpt>
      <trkpt lat="42.9942" lon="0.31344">
        <ele>1265.4</ele>
        <time>2026-07-08T08:57:09Z</time>
      </trkpt>
      <trkpt lat="42.9942" lon="0.31344">
        <ele>1265.4</ele>
        <time>2026-07-08T08:57:10Z</time>
      </trkpt>
      <trkpt lat="42.9942" lon="0.31344">
        <ele>1265.4</ele>
        <time>2026-07-08T08:57:10Z</time>
      </trkpt>
      <trkpt lat="42.9942" lon="0.31344">
        <ele>1265.4</ele>
        <time>2026-07-08T08:57:11Z</time>
      </trkpt>
      <trkpt lat="42.9942" lon="0.31344">
        <ele>1265.4</ele>
        <time>2026-07-08T08:57:12Z</time>
      </trkpt>
      <trkpt lat="42.9942" lon="0.31344">
        <ele>1265.4</ele>
        <time>2026-07-08T08:57:13Z</time>
      </trkpt>
      <trkpt lat="42.9942" lon="0.31344">
        <ele>1265.4</ele>
        <time>2026-07-08T08:57:13Z</time>
      </trkpt>
      <trkpt lat="42.99419" lon="0.31344">
        <ele>1265.4</ele>
        <time>2026-07-08T08:57:14Z</time>
      </trkpt>
      <trkpt lat="42.99419" lon="0.31345">
        <ele>1265.4</ele>
        <time>2026-07-08T08:57:15Z</time>
      </trkpt>
      <trkpt lat="42.99419" lon="0.31345">
        <ele>1265.4</ele>
        <time>2026-07-08T08:57:15Z</time>
      </trkpt>
      <trkpt lat="42.99418" lon="0.31345">
        <ele>1265.4</ele>
        <time>2026-07-08T08:57:16Z</time>
      </trkpt>
      <trkpt lat="42.99418" lon="0.31345">
        <ele>1265.4</ele>
        <time>2026-07-08T08:57:17Z</time>
      </trkpt>
      <trkpt lat="42.99417" lon="0.31345">
        <ele>1264.4</ele>
        <time>2026-07-08T08:57:17Z</time>
      </trkpt>
      <trkpt lat="42.99416" lon="0.31346">
        <ele>1264.4</ele>
        <time>2026-07-08T08:57:18Z</time>
      </trkpt>
      <trkpt lat="42.99415" lon="0.31346">
        <ele>1264.4</ele>
        <time>2026-07-08T08:57:18Z</time>
      </trkpt>
      <trkpt lat="42.99415" lon="0.31347">
        <ele>1264.4</ele>
        <time>2026-07-08T08:57:19Z</time>
      </trkpt>
      <trkpt lat="42.99413" lon="0.31347">
        <ele>1264.4</ele>
        <time>2026-07-08T08:57:20Z</time>
      </trkpt>
      <trkpt lat="42.99412" lon="0.31347">
        <ele>1264.4</ele>
        <time>2026-07-08T08:57:20Z</time>
      </trkpt>
      <trkpt lat="42.99412" lon="0.31347">
        <ele>1263.4</ele>
        <time>2026-07-08T08:57:21Z</time>
      </trkpt>
      <trkpt lat="42.99411" lon="0.31347">
        <ele>1263.4</ele>
        <time>2026-07-08T08:57:22Z</time>
      </trkpt>
      <trkpt lat="42.9941" lon="0.31348">
        <ele>1263.4</ele>
        <time>2026-07-08T08:57:23Z</time>
      </trkpt>
      <trkpt lat="42.99409" lon="0.31348">
        <ele>1263.4</ele>
        <time>2026-07-08T08:57:23Z</time>
      </trkpt>
      <trkpt lat="42.99409" lon="0.31348">
        <ele>1263.4</ele>
        <time>2026-07-08T08:57:24Z</time>
      </trkpt>
      <trkpt lat="42.99408" lon="0.31348">
        <ele>1262.4</ele>
        <time>2026-07-08T08:57:24Z</time>
      </trkpt>
      <trkpt lat="42.99408" lon="0.31348">
        <ele>1262.4</ele>
        <time>2026-07-08T08:57:25Z</time>
      </trkpt>
      <trkpt lat="42.99407" lon="0.31349">
        <ele>1262.4</ele>
        <time>2026-07-08T08:57:26Z</time>
      </trkpt>
      <trkpt lat="42.99407" lon="0.3135">
        <ele>1263.4</ele>
        <time>2026-07-08T08:57:26Z</time>
      </trkpt>
      <trkpt lat="42.99407" lon="0.3135">
        <ele>1263.4</ele>
        <time>2026-07-08T08:57:27Z</time>
      </trkpt>
      <trkpt lat="42.99406" lon="0.31351">
        <ele>1263.4</ele>
        <time>2026-07-08T08:57:27Z</time>
      </trkpt>
      <trkpt lat="42.99406" lon="0.31351">
        <ele>1263.4</ele>
        <time>2026-07-08T08:57:28Z</time>
      </trkpt>
      <trkpt lat="42.99405" lon="0.31351">
        <ele>1263.4</ele>
        <time>2026-07-08T08:57:29Z</time>
      </trkpt>
      <trkpt lat="42.99405" lon="0.31351">
        <ele>1262.4</ele>
        <time>2026-07-08T08:57:29Z</time>
      </trkpt>
      <trkpt lat="42.99404" lon="0.31351">
        <ele>1262.4</ele>
        <time>2026-07-08T08:57:30Z</time>
      </trkpt>
      <trkpt lat="42.99403" lon="0.31351">
        <ele>1262.4</ele>
        <time>2026-07-08T08:57:30Z</time>
      </trkpt>
      <trkpt lat="42.99403" lon="0.31351">
        <ele>1262.4</ele>
        <time>2026-07-08T08:57:31Z</time>
      </trkpt>
      <trkpt lat="42.99403" lon="0.31352">
        <ele>1262.4</ele>
        <time>2026-07-08T08:57:32Z</time>
      </trkpt>
      <trkpt lat="42.99402" lon="0.31352">
        <ele>1262.4</ele>
        <time>2026-07-08T08:57:32Z</time>
      </trkpt>
      <trkpt lat="42.99402" lon="0.31353">
        <ele>1262.4</ele>
        <time>2026-07-08T08:57:33Z</time>
      </trkpt>
      <trkpt lat="42.99401" lon="0.31353">
        <ele>1262.4</ele>
        <time>2026-07-08T08:57:33Z</time>
      </trkpt>
      <trkpt lat="42.99401" lon="0.31354">
        <ele>1262.4</ele>
        <time>2026-07-08T08:57:34Z</time>
      </trkpt>
      <trkpt lat="42.99401" lon="0.31355">
        <ele>1262.4</ele>
        <time>2026-07-08T08:57:35Z</time>
      </trkpt>
      <trkpt lat="42.994" lon="0.31355">
        <ele>1262.4</ele>
        <time>2026-07-08T08:57:35Z</time>
      </trkpt>
      <trkpt lat="42.994" lon="0.31356">
        <ele>1261.4</ele>
        <time>2026-07-08T08:57:36Z</time>
      </trkpt>
      <trkpt lat="42.994" lon="0.31357">
        <ele>1261.4</ele>
        <time>2026-07-08T08:57:36Z</time>
      </trkpt>
      <trkpt lat="42.99399" lon="0.31357">
        <ele>1261.4</ele>
        <time>2026-07-08T08:57:37Z</time>
      </trkpt>
      <trkpt lat="42.99399" lon="0.31358">
        <ele>1261.4</ele>
        <time>2026-07-08T08:57:37Z</time>
      </trkpt>
      <trkpt lat="42.99399" lon="0.31359">
        <ele>1261.4</ele>
        <time>2026-07-08T08:57:38Z</time>
      </trkpt>
      <trkpt lat="42.99399" lon="0.3136">
        <ele>1261.4</ele>
        <time>2026-07-08T08:57:39Z</time>
      </trkpt>
      <trkpt lat="42.99399" lon="0.31361">
        <ele>1261.4</ele>
        <time>2026-07-08T08:57:39Z</time>
      </trkpt>
      <trkpt lat="42.99399" lon="0.31362">
        <ele>1261.4</ele>
        <time>2026-07-08T08:57:40Z</time>
      </trkpt>
      <trkpt lat="42.99398" lon="0.31363">
        <ele>1260.4</ele>
        <time>2026-07-08T08:57:40Z</time>
      </trkpt>
      <trkpt lat="42.99398" lon="0.31364">
        <ele>1260.4</ele>
        <time>2026-07-08T08:57:41Z</time>
      </trkpt>
      <trkpt lat="42.99398" lon="0.31364">
        <ele>1260.4</ele>
        <time>2026-07-08T08:57:42Z</time>
      </trkpt>
      <trkpt lat="42.99397" lon="0.31364">
        <ele>1260.4</ele>
        <time>2026-07-08T08:57:42Z</time>
      </trkpt>
      <trkpt lat="42.99397" lon="0.31365">
        <ele>1260.4</ele>
        <time>2026-07-08T08:57:43Z</time>
      </trkpt>
      <trkpt lat="42.99396" lon="0.31366">
        <ele>1260.4</ele>
        <time>2026-07-08T08:57:44Z</time>
      </trkpt>
      <trkpt lat="42.99396" lon="0.31367">
        <ele>1260.4</ele>
        <time>2026-07-08T08:57:45Z</time>
      </trkpt>
      <trkpt lat="42.99396" lon="0.31368">
        <ele>1260.4</ele>
        <time>2026-07-08T08:57:45Z</time>
      </trkpt>
      <trkpt lat="42.99396" lon="0.31369">
        <ele>1260.4</ele>
        <time>2026-07-08T08:57:46Z</time>
      </trkpt>
      <trkpt lat="42.99396" lon="0.3137">
        <ele>1260.4</ele>
        <time>2026-07-08T08:57:46Z</time>
      </trkpt>
      <trkpt lat="42.99396" lon="0.31371">
        <ele>1260.4</ele>
        <time>2026-07-08T08:57:47Z</time>
      </trkpt>
      <trkpt lat="42.99396" lon="0.31372">
        <ele>1259.4</ele>
        <time>2026-07-08T08:57:48Z</time>
      </trkpt>
      <trkpt lat="42.99396" lon="0.31372">
        <ele>1259.4</ele>
        <time>2026-07-08T08:57:48Z</time>
      </trkpt>
      <trkpt lat="42.99395" lon="0.31373">
        <ele>1259.4</ele>
        <time>2026-07-08T08:57:49Z</time>
      </trkpt>
      <trkpt lat="42.99395" lon="0.31373">
        <ele>1259.4</ele>
        <time>2026-07-08T08:57:50Z</time>
      </trkpt>
      <trkpt lat="42.99394" lon="0.31374">
        <ele>1259.4</ele>
        <time>2026-07-08T08:57:51Z</time>
      </trkpt>
      <trkpt lat="42.99395" lon="0.31374">
        <ele>1259.4</ele>
        <time>2026-07-08T08:57:51Z</time>
      </trkpt>
      <trkpt lat="42.99394" lon="0.31375">
        <ele>1259.4</ele>
        <time>2026-07-08T08:57:52Z</time>
      </trkpt>
      <trkpt lat="42.99394" lon="0.31375">
        <ele>1259.4</ele>
        <time>2026-07-08T08:57:53Z</time>
      </trkpt>
      <trkpt lat="42.99393" lon="0.31376">
        <ele>1258.4</ele>
        <time>2026-07-08T08:57:54Z</time>
      </trkpt>
      <trkpt lat="42.99393" lon="0.31376">
        <ele>1258.4</ele>
        <time>2026-07-08T08:57:54Z</time>
      </trkpt>
      <trkpt lat="42.99393" lon="0.31377">
        <ele>1258.4</ele>
        <time>2026-07-08T08:57:55Z</time>
      </trkpt>
      <trkpt lat="42.99392" lon="0.31377">
        <ele>1258.4</ele>
        <time>2026-07-08T08:57:55Z</time>
      </trkpt>
      <trkpt lat="42.99391" lon="0.31377">
        <ele>1258.4</ele>
        <time>2026-07-08T08:57:56Z</time>
      </trkpt>
      <trkpt lat="42.99391" lon="0.31377">
        <ele>1258.4</ele>
        <time>2026-07-08T08:57:57Z</time>
      </trkpt>
      <trkpt lat="42.99391" lon="0.31378">
        <ele>1257.4</ele>
        <time>2026-07-08T08:57:57Z</time>
      </trkpt>
      <trkpt lat="42.99391" lon="0.31378">
        <ele>1257.4</ele>
        <time>2026-07-08T08:57:58Z</time>
      </trkpt>
      <trkpt lat="42.99391" lon="0.31379">
        <ele>1257.4</ele>
        <time>2026-07-08T08:57:59Z</time>
      </trkpt>
      <trkpt lat="42.9939" lon="0.31379">
        <ele>1256.4</ele>
        <time>2026-07-08T08:57:59Z</time>
      </trkpt>
      <trkpt lat="42.9939" lon="0.3138">
        <ele>1256.4</ele>
        <time>2026-07-08T08:58:00Z</time>
      </trkpt>
      <trkpt lat="42.9939" lon="0.3138">
        <ele>1256.4</ele>
        <time>2026-07-08T08:58:01Z</time>
      </trkpt>
      <trkpt lat="42.99389" lon="0.3138">
        <ele>1256.4</ele>
        <time>2026-07-08T08:58:01Z</time>
      </trkpt>
      <trkpt lat="42.99389" lon="0.3138">
        <ele>1256.4</ele>
        <time>2026-07-08T08:58:02Z</time>
      </trkpt>
      <trkpt lat="42.99388" lon="0.3138">
        <ele>1256.4</ele>
        <time>2026-07-08T08:58:03Z</time>
      </trkpt>
      <trkpt lat="42.99388" lon="0.31379">
        <ele>1255.4</ele>
        <time>2026-07-08T08:58:03Z</time>
      </trkpt>
      <trkpt lat="42.99388" lon="0.31378">
        <ele>1254.4</ele>
        <time>2026-07-08T08:58:04Z</time>
      </trkpt>
      <trkpt lat="42.99388" lon="0.31378">
        <ele>1254.4</ele>
        <time>2026-07-08T08:58:05Z</time>
      </trkpt>
      <trkpt lat="42.99388" lon="0.31377">
        <ele>1254.4</ele>
        <time>2026-07-08T08:58:05Z</time>
      </trkpt>
      <trkpt lat="42.99387" lon="0.31377">
        <ele>1254.4</ele>
        <time>2026-07-08T08:58:06Z</time>
      </trkpt>
      <trkpt lat="42.99387" lon="0.31376">
        <ele>1253.4</ele>
        <time>2026-07-08T08:58:06Z</time>
      </trkpt>
      <trkpt lat="42.99386" lon="0.31377">
        <ele>1253.4</ele>
        <time>2026-07-08T08:58:07Z</time>
      </trkpt>
      <trkpt lat="42.99386" lon="0.31377">
        <ele>1253.4</ele>
        <time>2026-07-08T08:58:08Z</time>
      </trkpt>
      <trkpt lat="42.99385" lon="0.31378">
        <ele>1253.4</ele>
        <time>2026-07-08T08:58:08Z</time>
      </trkpt>
      <trkpt lat="42.99385" lon="0.31378">
        <ele>1253.4</ele>
        <time>2026-07-08T08:58:09Z</time>
      </trkpt>
      <trkpt lat="42.99384" lon="0.31378">
        <ele>1252.4</ele>
        <time>2026-07-08T08:58:10Z</time>
      </trkpt>
      <trkpt lat="42.99384" lon="0.31379">
        <ele>1251.4</ele>
        <time>2026-07-08T08:58:11Z</time>
      </trkpt>
      <trkpt lat="42.99383" lon="0.3138">
        <ele>1251.4</ele>
        <time>2026-07-08T08:58:11Z</time>
      </trkpt>
      <trkpt lat="42.99383" lon="0.3138">
        <ele>1251.4</ele>
        <time>2026-07-08T08:58:12Z</time>
      </trkpt>
      <trkpt lat="42.99383" lon="0.31381">
        <ele>1251.4</ele>
        <time>2026-07-08T08:58:13Z</time>
      </trkpt>
      <trkpt lat="42.99383" lon="0.31381">
        <ele>1251.4</ele>
        <time>2026-07-08T08:58:14Z</time>
      </trkpt>
      <trkpt lat="42.99383" lon="0.31382">
        <ele>1251.4</ele>
        <time>2026-07-08T08:58:14Z</time>
      </trkpt>
      <trkpt lat="42.99383" lon="0.31382">
        <ele>1251.4</ele>
        <time>2026-07-08T08:58:15Z</time>
      </trkpt>
      <trkpt lat="42.99383" lon="0.31382">
        <ele>1251.4</ele>
        <time>2026-07-08T08:58:16Z</time>
      </trkpt>
      <trkpt lat="42.99384" lon="0.31383">
        <ele>1250.4</ele>
        <time>2026-07-08T08:58:17Z</time>
      </trkpt>
      <trkpt lat="42.99384" lon="0.31383">
        <ele>1249.4</ele>
        <time>2026-07-08T08:58:17Z</time>
      </trkpt>
      <trkpt lat="42.99385" lon="0.31383">
        <ele>1249.4</ele>
        <time>2026-07-08T08:58:18Z</time>
      </trkpt>
      <trkpt lat="42.99384" lon="0.31383">
        <ele>1249.4</ele>
        <time>2026-07-08T08:58:18Z</time>
      </trkpt>
      <trkpt lat="42.99385" lon="0.31383">
        <ele>1248.4</ele>
        <time>2026-07-08T08:58:19Z</time>
      </trkpt>
      <trkpt lat="42.99384" lon="0.31383">
        <ele>1248.4</ele>
        <time>2026-07-08T08:58:20Z</time>
      </trkpt>
      <trkpt lat="42.99384" lon="0.31384">
        <ele>1248.4</ele>
        <time>2026-07-08T08:58:21Z</time>
      </trkpt>
      <trkpt lat="42.99384" lon="0.31385">
        <ele>1248.4</ele>
        <time>2026-07-08T08:58:21Z</time>
      </trkpt>
      <trkpt lat="42.99383" lon="0.31385">
        <ele>1248.4</ele>
        <time>2026-07-08T08:58:22Z</time>
      </trkpt>
      <trkpt lat="42.99382" lon="0.31386">
        <ele>1248.4</ele>
        <time>2026-07-08T08:58:23Z</time>
      </trkpt>
      <trkpt lat="42.99382" lon="0.31387">
        <ele>1248.4</ele>
        <time>2026-07-08T08:58:23Z</time>
      </trkpt>
      <trkpt lat="42.99381" lon="0.31388">
        <ele>1248.4</ele>
        <time>2026-07-08T08:58:24Z</time>
      </trkpt>
      <trkpt lat="42.9938" lon="0.31389">
        <ele>1248.4</ele>
        <time>2026-07-08T08:58:25Z</time>
      </trkpt>
      <trkpt lat="42.99379" lon="0.3139">
        <ele>1248.4</ele>
        <time>2026-07-08T08:58:25Z</time>
      </trkpt>
      <trkpt lat="42.99379" lon="0.31391">
        <ele>1248.4</ele>
        <time>2026-07-08T08:58:26Z</time>
      </trkpt>
      <trkpt lat="42.99378" lon="0.31391">
        <ele>1248.4</ele>
        <time>2026-07-08T08:58:27Z</time>
      </trkpt>
      <trkpt lat="42.99377" lon="0.31392">
        <ele>1247.4</ele>
        <time>2026-07-08T08:58:28Z</time>
      </trkpt>
      <trkpt lat="42.99376" lon="0.31393">
        <ele>1247.4</ele>
        <time>2026-07-08T08:58:28Z</time>
      </trkpt>
      <trkpt lat="42.99376" lon="0.31394">
        <ele>1247.4</ele>
        <time>2026-07-08T08:58:29Z</time>
      </trkpt>
      <trkpt lat="42.99376" lon="0.31394">
        <ele>1246.4</ele>
        <time>2026-07-08T08:58:29Z</time>
      </trkpt>
      <trkpt lat="42.99375" lon="0.31395">
        <ele>1246.4</ele>
        <time>2026-07-08T08:58:30Z</time>
      </trkpt>
      <trkpt lat="42.99374" lon="0.31397">
        <ele>1246.4</ele>
        <time>2026-07-08T08:58:31Z</time>
      </trkpt>
      <trkpt lat="42.99374" lon="0.31398">
        <ele>1246.4</ele>
        <time>2026-07-08T08:58:32Z</time>
      </trkpt>
      <trkpt lat="42.99373" lon="0.31398">
        <ele>1246.4</ele>
        <time>2026-07-08T08:58:33Z</time>
      </trkpt>
      <trkpt lat="42.99373" lon="0.31399">
        <ele>1246.4</ele>
        <time>2026-07-08T08:58:33Z</time>
      </trkpt>
      <trkpt lat="42.99373" lon="0.314">
        <ele>1246.4</ele>
        <time>2026-07-08T08:58:34Z</time>
      </trkpt>
      <trkpt lat="42.99372" lon="0.314">
        <ele>1246.4</ele>
        <time>2026-07-08T08:58:35Z</time>
      </trkpt>
      <trkpt lat="42.99372" lon="0.314">
        <ele>1245.4</ele>
        <time>2026-07-08T08:58:35Z</time>
      </trkpt>
      <trkpt lat="42.99372" lon="0.31401">
        <ele>1245.4</ele>
        <time>2026-07-08T08:58:36Z</time>
      </trkpt>
      <trkpt lat="42.99372" lon="0.314">
        <ele>1245.4</ele>
        <time>2026-07-08T08:58:36Z</time>
      </trkpt>
      <trkpt lat="42.99372" lon="0.31401">
        <ele>1245.4</ele>
        <time>2026-07-08T08:58:37Z</time>
      </trkpt>
      <trkpt lat="42.99371" lon="0.31401">
        <ele>1246.4</ele>
        <time>2026-07-08T08:58:38Z</time>
      </trkpt>
      <trkpt lat="42.99371" lon="0.31401">
        <ele>1245.4</ele>
        <time>2026-07-08T08:58:38Z</time>
      </trkpt>
      <trkpt lat="42.99371" lon="0.31402">
        <ele>1245.4</ele>
        <time>2026-07-08T08:58:39Z</time>
      </trkpt>
      <trkpt lat="42.99371" lon="0.31402">
        <ele>1245.4</ele>
        <time>2026-07-08T08:58:40Z</time>
      </trkpt>
      <trkpt lat="42.99371" lon="0.31403">
        <ele>1245.4</ele>
        <time>2026-07-08T08:58:40Z</time>
      </trkpt>
      <trkpt lat="42.9937" lon="0.31403">
        <ele>1246.4</ele>
        <time>2026-07-08T08:58:41Z</time>
      </trkpt>
      <trkpt lat="42.9937" lon="0.31404">
        <ele>1246.4</ele>
        <time>2026-07-08T08:58:42Z</time>
      </trkpt>
      <trkpt lat="42.9937" lon="0.31404">
        <ele>1245.4</ele>
        <time>2026-07-08T08:58:43Z</time>
      </trkpt>
      <trkpt lat="42.99369" lon="0.31404">
        <ele>1245.4</ele>
        <time>2026-07-08T08:58:43Z</time>
      </trkpt>
      <trkpt lat="42.99369" lon="0.31404">
        <ele>1244.4</ele>
        <time>2026-07-08T08:58:44Z</time>
      </trkpt>
      <trkpt lat="42.99368" lon="0.31404">
        <ele>1243.4</ele>
        <time>2026-07-08T08:58:44Z</time>
      </trkpt>
      <trkpt lat="42.99367" lon="0.31405">
        <ele>1243.4</ele>
        <time>2026-07-08T08:58:45Z</time>
      </trkpt>
      <trkpt lat="42.99367" lon="0.31405">
        <ele>1244.4</ele>
        <time>2026-07-08T08:58:45Z</time>
      </trkpt>
      <trkpt lat="42.99366" lon="0.31406">
        <ele>1244.4</ele>
        <time>2026-07-08T08:58:46Z</time>
      </trkpt>
      <trkpt lat="42.99365" lon="0.31407">
        <ele>1244.4</ele>
        <time>2026-07-08T08:58:47Z</time>
      </trkpt>
      <trkpt lat="42.99365" lon="0.31407">
        <ele>1244.4</ele>
        <time>2026-07-08T08:58:47Z</time>
      </trkpt>
      <trkpt lat="42.99364" lon="0.31408">
        <ele>1244.4</ele>
        <time>2026-07-08T08:58:48Z</time>
      </trkpt>
      <trkpt lat="42.99363" lon="0.31408">
        <ele>1244.4</ele>
        <time>2026-07-08T08:58:49Z</time>
      </trkpt>
      <trkpt lat="42.99363" lon="0.31408">
        <ele>1243.4</ele>
        <time>2026-07-08T08:58:49Z</time>
      </trkpt>
      <trkpt lat="42.99362" lon="0.31408">
        <ele>1243.4</ele>
        <time>2026-07-08T08:58:50Z</time>
      </trkpt>
      <trkpt lat="42.99362" lon="0.31408">
        <ele>1243.4</ele>
        <time>2026-07-08T08:58:50Z</time>
      </trkpt>
      <trkpt lat="42.99361" lon="0.31408">
        <ele>1243.4</ele>
        <time>2026-07-08T08:58:51Z</time>
      </trkpt>
      <trkpt lat="42.99361" lon="0.31409">
        <ele>1244.4</ele>
        <time>2026-07-08T08:58:51Z</time>
      </trkpt>
      <trkpt lat="42.9936" lon="0.31409">
        <ele>1245.4</ele>
        <time>2026-07-08T08:58:52Z</time>
      </trkpt>
      <trkpt lat="42.99359" lon="0.31409">
        <ele>1245.4</ele>
        <time>2026-07-08T08:58:53Z</time>
      </trkpt>
      <trkpt lat="42.99359" lon="0.3141">
        <ele>1245.4</ele>
        <time>2026-07-08T08:58:53Z</time>
      </trkpt>
      <trkpt lat="42.99358" lon="0.3141">
        <ele>1245.4</ele>
        <time>2026-07-08T08:58:54Z</time>
      </trkpt>
      <trkpt lat="42.99358" lon="0.3141">
        <ele>1245.4</ele>
        <time>2026-07-08T08:58:54Z</time>
      </trkpt>
      <trkpt lat="42.99357" lon="0.3141">
        <ele>1245.4</ele>
        <time>2026-07-08T08:58:55Z</time>
      </trkpt>
      <trkpt lat="42.99357" lon="0.3141">
        <ele>1244.4</ele>
        <time>2026-07-08T08:58:56Z</time>
      </trkpt>
      <trkpt lat="42.99356" lon="0.31411">
        <ele>1245.4</ele>
        <time>2026-07-08T08:58:56Z</time>
      </trkpt>
      <trkpt lat="42.99356" lon="0.31411">
        <ele>1245.4</ele>
        <time>2026-07-08T08:58:57Z</time>
      </trkpt>
      <trkpt lat="42.99355" lon="0.31411">
        <ele>1244.4</ele>
        <time>2026-07-08T08:58:57Z</time>
      </trkpt>
      <trkpt lat="42.99354" lon="0.31411">
        <ele>1244.4</ele>
        <time>2026-07-08T08:58:58Z</time>
      </trkpt>
      <trkpt lat="42.99354" lon="0.31411">
        <ele>1245.4</ele>
        <time>2026-07-08T08:58:58Z</time>
      </trkpt>
      <trkpt lat="42.99353" lon="0.31411">
        <ele>1245.4</ele>
        <time>2026-07-08T08:58:59Z</time>
      </trkpt>
      <trkpt lat="42.99352" lon="0.31411">
        <ele>1244.4</ele>
        <time>2026-07-08T08:59:00Z</time>
      </trkpt>
      <trkpt lat="42.99352" lon="0.31411">
        <ele>1244.4</ele>
        <time>2026-07-08T08:59:00Z</time>
      </trkpt>
      <trkpt lat="42.99351" lon="0.31411">
        <ele>1244.4</ele>
        <time>2026-07-08T08:59:01Z</time>
      </trkpt>
      <trkpt lat="42.99351" lon="0.31411">
        <ele>1244.4</ele>
        <time>2026-07-08T08:59:01Z</time>
      </trkpt>
      <trkpt lat="42.9935" lon="0.31411">
        <ele>1244.4</ele>
        <time>2026-07-08T08:59:02Z</time>
      </trkpt>
      <trkpt lat="42.9935" lon="0.31411">
        <ele>1244.4</ele>
        <time>2026-07-08T08:59:03Z</time>
      </trkpt>
      <trkpt lat="42.99349" lon="0.31411">
        <ele>1244.4</ele>
        <time>2026-07-08T08:59:03Z</time>
      </trkpt>
      <trkpt lat="42.99349" lon="0.31411">
        <ele>1244.4</ele>
        <time>2026-07-08T08:59:04Z</time>
      </trkpt>
      <trkpt lat="42.99348" lon="0.31411">
        <ele>1244.4</ele>
        <time>2026-07-08T08:59:05Z</time>
      </trkpt>
      <trkpt lat="42.99348" lon="0.31411">
        <ele>1244.4</ele>
        <time>2026-07-08T08:59:05Z</time>
      </trkpt>
      <trkpt lat="42.99347" lon="0.31412">
        <ele>1244.4</ele>
        <time>2026-07-08T08:59:06Z</time>
      </trkpt>
      <trkpt lat="42.99347" lon="0.31412">
        <ele>1244.4</ele>
        <time>2026-07-08T08:59:06Z</time>
      </trkpt>
      <trkpt lat="42.99346" lon="0.31412">
        <ele>1244.4</ele>
        <time>2026-07-08T08:59:07Z</time>
      </trkpt>
      <trkpt lat="42.99345" lon="0.31414">
        <ele>1244.4</ele>
        <time>2026-07-08T08:59:08Z</time>
      </trkpt>
      <trkpt lat="42.99344" lon="0.31414">
        <ele>1243.4</ele>
        <time>2026-07-08T08:59:08Z</time>
      </trkpt>
      <trkpt lat="42.99344" lon="0.31415">
        <ele>1243.4</ele>
        <time>2026-07-08T08:59:09Z</time>
      </trkpt>
      <trkpt lat="42.99343" lon="0.31416">
        <ele>1244.4</ele>
        <time>2026-07-08T08:59:09Z</time>
      </trkpt>
      <trkpt lat="42.99343" lon="0.31417">
        <ele>1244.4</ele>
        <time>2026-07-08T08:59:10Z</time>
      </trkpt>
      <trkpt lat="42.99342" lon="0.31418">
        <ele>1244.4</ele>
        <time>2026-07-08T08:59:10Z</time>
      </trkpt>
      <trkpt lat="42.99342" lon="0.31419">
        <ele>1243.4</ele>
        <time>2026-07-08T08:59:11Z</time>
      </trkpt>
      <trkpt lat="42.99342" lon="0.31419">
        <ele>1243.4</ele>
        <time>2026-07-08T08:59:12Z</time>
      </trkpt>
      <trkpt lat="42.99341" lon="0.3142">
        <ele>1243.4</ele>
        <time>2026-07-08T08:59:12Z</time>
      </trkpt>
      <trkpt lat="42.99341" lon="0.31421">
        <ele>1243.4</ele>
        <time>2026-07-08T08:59:13Z</time>
      </trkpt>
      <trkpt lat="42.99341" lon="0.31422">
        <ele>1243.4</ele>
        <time>2026-07-08T08:59:13Z</time>
      </trkpt>
      <trkpt lat="42.9934" lon="0.31423">
        <ele>1243.4</ele>
        <time>2026-07-08T08:59:14Z</time>
      </trkpt>
      <trkpt lat="42.9934" lon="0.31424">
        <ele>1243.4</ele>
        <time>2026-07-08T08:59:15Z</time>
      </trkpt>
      <trkpt lat="42.9934" lon="0.31425">
        <ele>1244.4</ele>
        <time>2026-07-08T08:59:15Z</time>
      </trkpt>
      <trkpt lat="42.9934" lon="0.31426">
        <ele>1244.4</ele>
        <time>2026-07-08T08:59:16Z</time>
      </trkpt>
      <trkpt lat="42.99339" lon="0.31427">
        <ele>1244.4</ele>
        <time>2026-07-08T08:59:16Z</time>
      </trkpt>
      <trkpt lat="42.99339" lon="0.31427">
        <ele>1244.4</ele>
        <time>2026-07-08T08:59:17Z</time>
      </trkpt>
      <trkpt lat="42.99338" lon="0.31428">
        <ele>1244.4</ele>
        <time>2026-07-08T08:59:17Z</time>
      </trkpt>
      <trkpt lat="42.99338" lon="0.31429">
        <ele>1244.4</ele>
        <time>2026-07-08T08:59:18Z</time>
      </trkpt>
      <trkpt lat="42.99338" lon="0.3143">
        <ele>1244.4</ele>
        <time>2026-07-08T08:59:19Z</time>
      </trkpt>
      <trkpt lat="42.99337" lon="0.3143">
        <ele>1245.4</ele>
        <time>2026-07-08T08:59:19Z</time>
      </trkpt>
      <trkpt lat="42.99337" lon="0.31431">
        <ele>1245.4</ele>
        <time>2026-07-08T08:59:20Z</time>
      </trkpt>
      <trkpt lat="42.99336" lon="0.31432">
        <ele>1246.4</ele>
        <time>2026-07-08T08:59:21Z</time>
      </trkpt>
      <trkpt lat="42.99336" lon="0.31433">
        <ele>1246.4</ele>
        <time>2026-07-08T08:59:22Z</time>
      </trkpt>
      <trkpt lat="42.99336" lon="0.31434">
        <ele>1246.4</ele>
        <time>2026-07-08T08:59:23Z</time>
      </trkpt>
      <trkpt lat="42.99336" lon="0.31435">
        <ele>1246.4</ele>
        <time>2026-07-08T08:59:23Z</time>
      </trkpt>
      <trkpt lat="42.99336" lon="0.31435">
        <ele>1246.4</ele>
        <time>2026-07-08T08:59:24Z</time>
      </trkpt>
      <trkpt lat="42.99335" lon="0.31435">
        <ele>1246.4</ele>
        <time>2026-07-08T08:59:25Z</time>
      </trkpt>
      <trkpt lat="42.99335" lon="0.31436">
        <ele>1246.4</ele>
        <time>2026-07-08T08:59:26Z</time>
      </trkpt>
      <trkpt lat="42.99334" lon="0.31437">
        <ele>1246.4</ele>
        <time>2026-07-08T08:59:27Z</time>
      </trkpt>
      <trkpt lat="42.99334" lon="0.31437">
        <ele>1247.4</ele>
        <time>2026-07-08T08:59:27Z</time>
      </trkpt>
      <trkpt lat="42.99333" lon="0.31437">
        <ele>1247.4</ele>
        <time>2026-07-08T08:59:28Z</time>
      </trkpt>
      <trkpt lat="42.99333" lon="0.31438">
        <ele>1248.4</ele>
        <time>2026-07-08T08:59:29Z</time>
      </trkpt>
      <trkpt lat="42.99332" lon="0.31439">
        <ele>1248.4</ele>
        <time>2026-07-08T08:59:30Z</time>
      </trkpt>
      <trkpt lat="42.99332" lon="0.31439">
        <ele>1247.4</ele>
        <time>2026-07-08T08:59:30Z</time>
      </trkpt>
      <trkpt lat="42.99331" lon="0.3144">
        <ele>1247.4</ele>
        <time>2026-07-08T08:59:31Z</time>
      </trkpt>
      <trkpt lat="42.99331" lon="0.3144">
        <ele>1248.4</ele>
        <time>2026-07-08T08:59:32Z</time>
      </trkpt>
      <trkpt lat="42.99331" lon="0.31441">
        <ele>1248.4</ele>
        <time>2026-07-08T08:59:33Z</time>
      </trkpt>
      <trkpt lat="42.99331" lon="0.31441">
        <ele>1248.4</ele>
        <time>2026-07-08T08:59:34Z</time>
      </trkpt>
      <trkpt lat="42.99331" lon="0.31442">
        <ele>1249.4</ele>
        <time>2026-07-08T08:59:34Z</time>
      </trkpt>
      <trkpt lat="42.9933" lon="0.31442">
        <ele>1249.4</ele>
        <time>2026-07-08T08:59:35Z</time>
      </trkpt>
      <trkpt lat="42.9933" lon="0.31443">
        <ele>1249.4</ele>
        <time>2026-07-08T08:59:36Z</time>
      </trkpt>
      <trkpt lat="42.99329" lon="0.31443">
        <ele>1249.4</ele>
        <time>2026-07-08T08:59:36Z</time>
      </trkpt>
      <trkpt lat="42.99329" lon="0.31445">
        <ele>1249.4</ele>
        <time>2026-07-08T08:59:37Z</time>
      </trkpt>
      <trkpt lat="42.99328" lon="0.31445">
        <ele>1248.4</ele>
        <time>2026-07-08T08:59:38Z</time>
      </trkpt>
      <trkpt lat="42.99328" lon="0.31446">
        <ele>1248.4</ele>
        <time>2026-07-08T08:59:39Z</time>
      </trkpt>
      <trkpt lat="42.99328" lon="0.31446">
        <ele>1248.4</ele>
        <time>2026-07-08T08:59:39Z</time>
      </trkpt>
      <trkpt lat="42.99328" lon="0.31447">
        <ele>1248.4</ele>
        <time>2026-07-08T08:59:40Z</time>
      </trkpt>
      <trkpt lat="42.99327" lon="0.31448">
        <ele>1248.4</ele>
        <time>2026-07-08T08:59:41Z</time>
      </trkpt>
      <trkpt lat="42.99327" lon="0.31448">
        <ele>1248.4</ele>
        <time>2026-07-08T08:59:42Z</time>
      </trkpt>
      <trkpt lat="42.99327" lon="0.31449">
        <ele>1247.4</ele>
        <time>2026-07-08T08:59:43Z</time>
      </trkpt>
      <trkpt lat="42.99327" lon="0.31449">
        <ele>1247.3</ele>
        <time>2026-07-08T08:59:44Z</time>
      </trkpt>
      <trkpt lat="42.99326" lon="0.3145">
        <ele>1247.3</ele>
        <time>2026-07-08T08:59:44Z</time>
      </trkpt>
      <trkpt lat="42.99326" lon="0.3145">
        <ele>1247.3</ele>
        <time>2026-07-08T08:59:45Z</time>
      </trkpt>
      <trkpt lat="42.99325" lon="0.31451">
        <ele>1247.3</ele>
        <time>2026-07-08T08:59:46Z</time>
      </trkpt>
      <trkpt lat="42.99324" lon="0.31451">
        <ele>1247.3</ele>
        <time>2026-07-08T08:59:47Z</time>
      </trkpt>
      <trkpt lat="42.99324" lon="0.31452">
        <ele>1247.3</ele>
        <time>2026-07-08T08:59:47Z</time>
      </trkpt>
      <trkpt lat="42.99323" lon="0.31453">
        <ele>1247.3</ele>
        <time>2026-07-08T08:59:48Z</time>
      </trkpt>
      <trkpt lat="42.99322" lon="0.31453">
        <ele>1246.3</ele>
        <time>2026-07-08T08:59:49Z</time>
      </trkpt>
      <trkpt lat="42.99322" lon="0.31454">
        <ele>1246.3</ele>
        <time>2026-07-08T08:59:49Z</time>
      </trkpt>
      <trkpt lat="42.99321" lon="0.31455">
        <ele>1246.3</ele>
        <time>2026-07-08T08:59:50Z</time>
      </trkpt>
      <trkpt lat="42.99321" lon="0.31456">
        <ele>1246.3</ele>
        <time>2026-07-08T08:59:51Z</time>
      </trkpt>
      <trkpt lat="42.9932" lon="0.31457">
        <ele>1247.3</ele>
        <time>2026-07-08T08:59:51Z</time>
      </trkpt>
      <trkpt lat="42.99319" lon="0.31458">
        <ele>1247.3</ele>
        <time>2026-07-08T08:59:52Z</time>
      </trkpt>
      <trkpt lat="42.99319" lon="0.31458">
        <ele>1247.3</ele>
        <time>2026-07-08T08:59:53Z</time>
      </trkpt>
      <trkpt lat="42.99318" lon="0.3146">
        <ele>1247.3</ele>
        <time>2026-07-08T08:59:54Z</time>
      </trkpt>
      <trkpt lat="42.99318" lon="0.31461">
        <ele>1247.3</ele>
        <time>2026-07-08T08:59:55Z</time>
      </trkpt>
      <trkpt lat="42.99317" lon="0.31462">
        <ele>1247.3</ele>
        <time>2026-07-08T08:59:55Z</time>
      </trkpt>
      <trkpt lat="42.99317" lon="0.31463">
        <ele>1247.3</ele>
        <time>2026-07-08T08:59:56Z</time>
      </trkpt>
      <trkpt lat="42.99317" lon="0.31463">
        <ele>1247.3</ele>
        <time>2026-07-08T08:59:56Z</time>
      </trkpt>
      <trkpt lat="42.99316" lon="0.31464">
        <ele>1248.3</ele>
        <time>2026-07-08T08:59:57Z</time>
      </trkpt>
      <trkpt lat="42.99316" lon="0.31465">
        <ele>1248.3</ele>
        <time>2026-07-08T08:59:58Z</time>
      </trkpt>
      <trkpt lat="42.99316" lon="0.31466">
        <ele>1248.3</ele>
        <time>2026-07-08T08:59:59Z</time>
      </trkpt>
      <trkpt lat="42.99315" lon="0.31466">
        <ele>1248.3</ele>
        <time>2026-07-08T08:59:59Z</time>
      </trkpt>
      <trkpt lat="42.99315" lon="0.31467">
        <ele>1248.3</ele>
        <time>2026-07-08T09:00:00Z</time>
      </trkpt>
      <trkpt lat="42.99315" lon="0.31468">
        <ele>1248.3</ele>
        <time>2026-07-08T09:00:01Z</time>
      </trkpt>
      <trkpt lat="42.99314" lon="0.31468">
        <ele>1248.3</ele>
        <time>2026-07-08T09:00:01Z</time>
      </trkpt>
      <trkpt lat="42.99314" lon="0.31469">
        <ele>1248.3</ele>
        <time>2026-07-08T09:00:02Z</time>
      </trkpt>
      <trkpt lat="42.99314" lon="0.3147">
        <ele>1248.3</ele>
        <time>2026-07-08T09:00:03Z</time>
      </trkpt>
      <trkpt lat="42.99313" lon="0.3147">
        <ele>1249.3</ele>
        <time>2026-07-08T09:00:03Z</time>
      </trkpt>
      <trkpt lat="42.99313" lon="0.31471">
        <ele>1249.3</ele>
        <time>2026-07-08T09:00:04Z</time>
      </trkpt>
      <trkpt lat="42.99312" lon="0.31471">
        <ele>1249.3</ele>
        <time>2026-07-08T09:00:04Z</time>
      </trkpt>
      <trkpt lat="42.99312" lon="0.31472">
        <ele>1249.3</ele>
        <time>2026-07-08T09:00:05Z</time>
      </trkpt>
      <trkpt lat="42.99311" lon="0.31472">
        <ele>1249.3</ele>
        <time>2026-07-08T09:00:06Z</time>
      </trkpt>
      <trkpt lat="42.99311" lon="0.31472">
        <ele>1249.3</ele>
        <time>2026-07-08T09:00:06Z</time>
      </trkpt>
      <trkpt lat="42.9931" lon="0.31472">
        <ele>1249.3</ele>
        <time>2026-07-08T09:00:07Z</time>
      </trkpt>
      <trkpt lat="42.9931" lon="0.31472">
        <ele>1249.3</ele>
        <time>2026-07-08T09:00:08Z</time>
      </trkpt>
      <trkpt lat="42.9931" lon="0.31473">
        <ele>1249.3</ele>
        <time>2026-07-08T09:00:08Z</time>
      </trkpt>
      <trkpt lat="42.9931" lon="0.31474">
        <ele>1249.3</ele>
        <time>2026-07-08T09:00:09Z</time>
      </trkpt>
      <trkpt lat="42.99309" lon="0.31474">
        <ele>1248.3</ele>
        <time>2026-07-08T09:00:09Z</time>
      </trkpt>
      <trkpt lat="42.99309" lon="0.31475">
        <ele>1248.3</ele>
        <time>2026-07-08T09:00:10Z</time>
      </trkpt>
      <trkpt lat="42.99309" lon="0.31475">
        <ele>1248.3</ele>
        <time>2026-07-08T09:00:11Z</time>
      </trkpt>
      <trkpt lat="42.99308" lon="0.31476">
        <ele>1248.3</ele>
        <time>2026-07-08T09:00:11Z</time>
      </trkpt>
      <trkpt lat="42.99308" lon="0.31477">
        <ele>1248.3</ele>
        <time>2026-07-08T09:00:12Z</time>
      </trkpt>
      <trkpt lat="42.99307" lon="0.31477">
        <ele>1248.3</ele>
        <time>2026-07-08T09:00:13Z</time>
      </trkpt>
      <trkpt lat="42.99306" lon="0.31478">
        <ele>1249.3</ele>
        <time>2026-07-08T09:00:14Z</time>
      </trkpt>
      <trkpt lat="42.99306" lon="0.31478">
        <ele>1249.3</ele>
        <time>2026-07-08T09:00:14Z</time>
      </trkpt>
      <trkpt lat="42.99305" lon="0.31478">
        <ele>1249.3</ele>
        <time>2026-07-08T09:00:15Z</time>
      </trkpt>
      <trkpt lat="42.99305" lon="0.31479">
        <ele>1249.3</ele>
        <time>2026-07-08T09:00:16Z</time>
      </trkpt>
      <trkpt lat="42.99305" lon="0.31479">
        <ele>1250.3</ele>
        <time>2026-07-08T09:00:16Z</time>
      </trkpt>
      <trkpt lat="42.99304" lon="0.3148">
        <ele>1250.3</ele>
        <time>2026-07-08T09:00:17Z</time>
      </trkpt>
      <trkpt lat="42.99304" lon="0.31481">
        <ele>1250.3</ele>
        <time>2026-07-08T09:00:18Z</time>
      </trkpt>
      <trkpt lat="42.99303" lon="0.31482">
        <ele>1250.3</ele>
        <time>2026-07-08T09:00:19Z</time>
      </trkpt>
      <trkpt lat="42.99302" lon="0.31482">
        <ele>1250.3</ele>
        <time>2026-07-08T09:00:19Z</time>
      </trkpt>
      <trkpt lat="42.99302" lon="0.31483">
        <ele>1250.3</ele>
        <time>2026-07-08T09:00:20Z</time>
      </trkpt>
      <trkpt lat="42.99301" lon="0.31483">
        <ele>1250.3</ele>
        <time>2026-07-08T09:00:21Z</time>
      </trkpt>
      <trkpt lat="42.99301" lon="0.31484">
        <ele>1250.3</ele>
        <time>2026-07-08T09:00:21Z</time>
      </trkpt>
      <trkpt lat="42.993" lon="0.31484">
        <ele>1250.3</ele>
        <time>2026-07-08T09:00:22Z</time>
      </trkpt>
      <trkpt lat="42.99299" lon="0.31485">
        <ele>1250.3</ele>
        <time>2026-07-08T09:00:23Z</time>
      </trkpt>
      <trkpt lat="42.99299" lon="0.31486">
        <ele>1249.3</ele>
        <time>2026-07-08T09:00:23Z</time>
      </trkpt>
      <trkpt lat="42.99299" lon="0.31487">
        <ele>1249.3</ele>
        <time>2026-07-08T09:00:24Z</time>
      </trkpt>
      <trkpt lat="42.99298" lon="0.31487">
        <ele>1249.3</ele>
        <time>2026-07-08T09:00:25Z</time>
      </trkpt>
      <trkpt lat="42.99298" lon="0.31488">
        <ele>1249.3</ele>
        <time>2026-07-08T09:00:25Z</time>
      </trkpt>
      <trkpt lat="42.99298" lon="0.31489">
        <ele>1250.3</ele>
        <time>2026-07-08T09:00:26Z</time>
      </trkpt>
      <trkpt lat="42.99297" lon="0.3149">
        <ele>1250.3</ele>
        <time>2026-07-08T09:00:27Z</time>
      </trkpt>
      <trkpt lat="42.99297" lon="0.31491">
        <ele>1250.3</ele>
        <time>2026-07-08T09:00:27Z</time>
      </trkpt>
      <trkpt lat="42.99297" lon="0.31492">
        <ele>1251.3</ele>
        <time>2026-07-08T09:00:28Z</time>
      </trkpt>
      <trkpt lat="42.99296" lon="0.31493">
        <ele>1251.3</ele>
        <time>2026-07-08T09:00:29Z</time>
      </trkpt>
      <trkpt lat="42.99296" lon="0.31494">
        <ele>1251.3</ele>
        <time>2026-07-08T09:00:30Z</time>
      </trkpt>
      <trkpt lat="42.99296" lon="0.31495">
        <ele>1251.3</ele>
        <time>2026-07-08T09:00:30Z</time>
      </trkpt>
      <trkpt lat="42.99295" lon="0.31496">
        <ele>1251.3</ele>
        <time>2026-07-08T09:00:31Z</time>
      </trkpt>
      <trkpt lat="42.99295" lon="0.31496">
        <ele>1252.3</ele>
        <time>2026-07-08T09:00:32Z</time>
      </trkpt>
      <trkpt lat="42.99294" lon="0.31497">
        <ele>1252.3</ele>
        <time>2026-07-08T09:00:32Z</time>
      </trkpt>
      <trkpt lat="42.99294" lon="0.31497">
        <ele>1251.3</ele>
        <time>2026-07-08T09:00:33Z</time>
      </trkpt>
      <trkpt lat="42.99294" lon="0.31497">
        <ele>1251.3</ele>
        <time>2026-07-08T09:00:34Z</time>
      </trkpt>
      <trkpt lat="42.99293" lon="0.31498">
        <ele>1251.3</ele>
        <time>2026-07-08T09:00:35Z</time>
      </trkpt>
      <trkpt lat="42.99293" lon="0.31499">
        <ele>1251.3</ele>
        <time>2026-07-08T09:00:36Z</time>
      </trkpt>
      <trkpt lat="42.99293" lon="0.315">
        <ele>1252.3</ele>
        <time>2026-07-08T09:00:36Z</time>
      </trkpt>
      <trkpt lat="42.99293" lon="0.31501">
        <ele>1252.3</ele>
        <time>2026-07-08T09:00:37Z</time>
      </trkpt>
      <trkpt lat="42.99293" lon="0.31501">
        <ele>1252.3</ele>
        <time>2026-07-08T09:00:38Z</time>
      </trkpt>
      <trkpt lat="42.99292" lon="0.31502">
        <ele>1252.3</ele>
        <time>2026-07-08T09:00:39Z</time>
      </trkpt>
      <trkpt lat="42.99292" lon="0.31503">
        <ele>1252.3</ele>
        <time>2026-07-08T09:00:39Z</time>
      </trkpt>
      <trkpt lat="42.99291" lon="0.31503">
        <ele>1252.3</ele>
        <time>2026-07-08T09:00:40Z</time>
      </trkpt>
      <trkpt lat="42.99291" lon="0.31504">
        <ele>1252.3</ele>
        <time>2026-07-08T09:00:41Z</time>
      </trkpt>
      <trkpt lat="42.9929" lon="0.31505">
        <ele>1251.3</ele>
        <time>2026-07-08T09:00:42Z</time>
      </trkpt>
      <trkpt lat="42.9929" lon="0.31505">
        <ele>1251.3</ele>
        <time>2026-07-08T09:00:42Z</time>
      </trkpt>
      <trkpt lat="42.9929" lon="0.31505">
        <ele>1251.3</ele>
        <time>2026-07-08T09:00:43Z</time>
      </trkpt>
      <trkpt lat="42.99289" lon="0.31505">
        <ele>1251.3</ele>
        <time>2026-07-08T09:00:44Z</time>
      </trkpt>
      <trkpt lat="42.99289" lon="0.31506">
        <ele>1250.3</ele>
        <time>2026-07-08T09:00:44Z</time>
      </trkpt>
      <trkpt lat="42.99289" lon="0.31507">
        <ele>1251.3</ele>
        <time>2026-07-08T09:00:45Z</time>
      </trkpt>
      <trkpt lat="42.99289" lon="0.31508">
        <ele>1251.3</ele>
        <time>2026-07-08T09:00:46Z</time>
      </trkpt>
      <trkpt lat="42.99288" lon="0.31508">
        <ele>1251.3</ele>
        <time>2026-07-08T09:00:47Z</time>
      </trkpt>
      <trkpt lat="42.99288" lon="0.31508">
        <ele>1251.3</ele>
        <time>2026-07-08T09:00:47Z</time>
      </trkpt>
      <trkpt lat="42.99287" lon="0.31508">
        <ele>1251.3</ele>
        <time>2026-07-08T09:00:48Z</time>
      </trkpt>
      <trkpt lat="42.99287" lon="0.31508">
        <ele>1251.3</ele>
        <time>2026-07-08T09:00:48Z</time>
      </trkpt>
      <trkpt lat="42.99287" lon="0.31508">
        <ele>1250.3</ele>
        <time>2026-07-08T09:00:49Z</time>
      </trkpt>
      <trkpt lat="42.99286" lon="0.31509">
        <ele>1250.3</ele>
        <time>2026-07-08T09:00:50Z</time>
      </trkpt>
      <trkpt lat="42.99286" lon="0.31509">
        <ele>1250.3</ele>
        <time>2026-07-08T09:00:50Z</time>
      </trkpt>
      <trkpt lat="42.99285" lon="0.31509">
        <ele>1250.3</ele>
        <time>2026-07-08T09:00:51Z</time>
      </trkpt>
      <trkpt lat="42.99285" lon="0.3151">
        <ele>1249.3</ele>
        <time>2026-07-08T09:00:52Z</time>
      </trkpt>
      <trkpt lat="42.99285" lon="0.31511">
        <ele>1249.3</ele>
        <time>2026-07-08T09:00:53Z</time>
      </trkpt>
      <trkpt lat="42.99284" lon="0.31512">
        <ele>1250.3</ele>
        <time>2026-07-08T09:00:53Z</time>
      </trkpt>
      <trkpt lat="42.99284" lon="0.31513">
        <ele>1250.3</ele>
        <time>2026-07-08T09:00:54Z</time>
      </trkpt>
      <trkpt lat="42.99284" lon="0.31513">
        <ele>1250.3</ele>
        <time>2026-07-08T09:00:55Z</time>
      </trkpt>
      <trkpt lat="42.99284" lon="0.31514">
        <ele>1250.3</ele>
        <time>2026-07-08T09:00:55Z</time>
      </trkpt>
      <trkpt lat="42.99283" lon="0.31514">
        <ele>1250.3</ele>
        <time>2026-07-08T09:00:56Z</time>
      </trkpt>
      <trkpt lat="42.99283" lon="0.31515">
        <ele>1250.3</ele>
        <time>2026-07-08T09:00:56Z</time>
      </trkpt>
      <trkpt lat="42.99283" lon="0.31517">
        <ele>1250.3</ele>
        <time>2026-07-08T09:00:57Z</time>
      </trkpt>
      <trkpt lat="42.99282" lon="0.31518">
        <ele>1250.3</ele>
        <time>2026-07-08T09:00:58Z</time>
      </trkpt>
      <trkpt lat="42.99282" lon="0.31519">
        <ele>1251.3</ele>
        <time>2026-07-08T09:00:59Z</time>
      </trkpt>
      <trkpt lat="42.99282" lon="0.3152">
        <ele>1251.3</ele>
        <time>2026-07-08T09:00:59Z</time>
      </trkpt>
      <trkpt lat="42.99282" lon="0.31521">
        <ele>1251.3</ele>
        <time>2026-07-08T09:01:00Z</time>
      </trkpt>
      <trkpt lat="42.99282" lon="0.31522">
        <ele>1251.3</ele>
        <time>2026-07-08T09:01:01Z</time>
      </trkpt>
      <trkpt lat="42.99282" lon="0.31523">
        <ele>1251.3</ele>
        <time>2026-07-08T09:01:01Z</time>
      </trkpt>
      <trkpt lat="42.99282" lon="0.31524">
        <ele>1251.3</ele>
        <time>2026-07-08T09:01:02Z</time>
      </trkpt>
      <trkpt lat="42.99282" lon="0.31525">
        <ele>1250.3</ele>
        <time>2026-07-08T09:01:03Z</time>
      </trkpt>
      <trkpt lat="42.99282" lon="0.31526">
        <ele>1250.3</ele>
        <time>2026-07-08T09:01:04Z</time>
      </trkpt>
      <trkpt lat="42.99282" lon="0.31526">
        <ele>1250.3</ele>
        <time>2026-07-08T09:01:04Z</time>
      </trkpt>
      <trkpt lat="42.99282" lon="0.31527">
        <ele>1250.3</ele>
        <time>2026-07-08T09:01:04Z</time>
      </trkpt>
      <trkpt lat="42.99282" lon="0.31528">
        <ele>1250.3</ele>
        <time>2026-07-08T09:01:05Z</time>
      </trkpt>
      <trkpt lat="42.99282" lon="0.31529">
        <ele>1250.3</ele>
        <time>2026-07-08T09:01:06Z</time>
      </trkpt>
      <trkpt lat="42.99282" lon="0.3153">
        <ele>1250.3</ele>
        <time>2026-07-08T09:01:07Z</time>
      </trkpt>
      <trkpt lat="42.99282" lon="0.31531">
        <ele>1249.3</ele>
        <time>2026-07-08T09:01:07Z</time>
      </trkpt>
      <trkpt lat="42.99282" lon="0.31531">
        <ele>1249.3</ele>
        <time>2026-07-08T09:01:08Z</time>
      </trkpt>
      <trkpt lat="42.99282" lon="0.31532">
        <ele>1249.3</ele>
        <time>2026-07-08T09:01:09Z</time>
      </trkpt>
      <trkpt lat="42.99282" lon="0.31533">
        <ele>1250.3</ele>
        <time>2026-07-08T09:01:09Z</time>
      </trkpt>
      <trkpt lat="42.99281" lon="0.31533">
        <ele>1250.3</ele>
        <time>2026-07-08T09:01:10Z</time>
      </trkpt>
      <trkpt lat="42.99281" lon="0.31534">
        <ele>1250.3</ele>
        <time>2026-07-08T09:01:10Z</time>
      </trkpt>
      <trkpt lat="42.99281" lon="0.31535">
        <ele>1250.3</ele>
        <time>2026-07-08T09:01:11Z</time>
      </trkpt>
      <trkpt lat="42.99281" lon="0.31536">
        <ele>1250.3</ele>
        <time>2026-07-08T09:01:12Z</time>
      </trkpt>
      <trkpt lat="42.9928" lon="0.31536">
        <ele>1249.3</ele>
        <time>2026-07-08T09:01:12Z</time>
      </trkpt>
      <trkpt lat="42.9928" lon="0.31537">
        <ele>1249.3</ele>
        <time>2026-07-08T09:01:13Z</time>
      </trkpt>
      <trkpt lat="42.9928" lon="0.31538">
        <ele>1249.3</ele>
        <time>2026-07-08T09:01:14Z</time>
      </trkpt>
      <trkpt lat="42.9928" lon="0.31539">
        <ele>1249.3</ele>
        <time>2026-07-08T09:01:14Z</time>
      </trkpt>
      <trkpt lat="42.99279" lon="0.3154">
        <ele>1249.3</ele>
        <time>2026-07-08T09:01:15Z</time>
      </trkpt>
      <trkpt lat="42.99279" lon="0.31541">
        <ele>1249.3</ele>
        <time>2026-07-08T09:01:15Z</time>
      </trkpt>
      <trkpt lat="42.99279" lon="0.31541">
        <ele>1249.3</ele>
        <time>2026-07-08T09:01:16Z</time>
      </trkpt>
      <trkpt lat="42.99279" lon="0.31543">
        <ele>1249.3</ele>
        <time>2026-07-08T09:01:17Z</time>
      </trkpt>
      <trkpt lat="42.99279" lon="0.31543">
        <ele>1249.3</ele>
        <time>2026-07-08T09:01:17Z</time>
      </trkpt>
      <trkpt lat="42.99279" lon="0.31544">
        <ele>1250.3</ele>
        <time>2026-07-08T09:01:18Z</time>
      </trkpt>
      <trkpt lat="42.99278" lon="0.31545">
        <ele>1250.3</ele>
        <time>2026-07-08T09:01:19Z</time>
      </trkpt>
      <trkpt lat="42.99278" lon="0.31546">
        <ele>1250.3</ele>
        <time>2026-07-08T09:01:19Z</time>
      </trkpt>
      <trkpt lat="42.99278" lon="0.31547">
        <ele>1250.3</ele>
        <time>2026-07-08T09:01:20Z</time>
      </trkpt>
      <trkpt lat="42.99278" lon="0.31548">
        <ele>1250.3</ele>
        <time>2026-07-08T09:01:21Z</time>
      </trkpt>
      <trkpt lat="42.99277" lon="0.31549">
        <ele>1250.3</ele>
        <time>2026-07-08T09:01:22Z</time>
      </trkpt>
      <trkpt lat="42.99277" lon="0.3155">
        <ele>1250.3</ele>
        <time>2026-07-08T09:01:23Z</time>
      </trkpt>
      <trkpt lat="42.99277" lon="0.31551">
        <ele>1250.3</ele>
        <time>2026-07-08T09:01:23Z</time>
      </trkpt>
      <trkpt lat="42.99277" lon="0.31551">
        <ele>1250.3</ele>
        <time>2026-07-08T09:01:24Z</time>
      </trkpt>
      <trkpt lat="42.99277" lon="0.31552">
        <ele>1250.3</ele>
        <time>2026-07-08T09:01:25Z</time>
      </trkpt>
      <trkpt lat="42.99276" lon="0.31553">
        <ele>1250.3</ele>
        <time>2026-07-08T09:01:26Z</time>
      </trkpt>
      <trkpt lat="42.99276" lon="0.31553">
        <ele>1249.3</ele>
        <time>2026-07-08T09:01:26Z</time>
      </trkpt>
      <trkpt lat="42.99276" lon="0.31553">
        <ele>1249.3</ele>
        <time>2026-07-08T09:01:27Z</time>
      </trkpt>
      <trkpt lat="42.99276" lon="0.31554">
        <ele>1249.3</ele>
        <time>2026-07-08T09:01:28Z</time>
      </trkpt>
      <trkpt lat="42.99275" lon="0.31554">
        <ele>1249.3</ele>
        <time>2026-07-08T09:01:28Z</time>
      </trkpt>
      <trkpt lat="42.99275" lon="0.31556">
        <ele>1250.3</ele>
        <time>2026-07-08T09:01:29Z</time>
      </trkpt>
      <trkpt lat="42.99274" lon="0.31557">
        <ele>1250.3</ele>
        <time>2026-07-08T09:01:30Z</time>
      </trkpt>
      <trkpt lat="42.99274" lon="0.31557">
        <ele>1249.3</ele>
        <time>2026-07-08T09:01:31Z</time>
      </trkpt>
      <trkpt lat="42.99274" lon="0.31557">
        <ele>1249.3</ele>
        <time>2026-07-08T09:01:32Z</time>
      </trkpt>
      <trkpt lat="42.99273" lon="0.31557">
        <ele>1248.3</ele>
        <time>2026-07-08T09:01:32Z</time>
      </trkpt>
      <trkpt lat="42.99273" lon="0.31558">
        <ele>1249.3</ele>
        <time>2026-07-08T09:01:33Z</time>
      </trkpt>
      <trkpt lat="42.99272" lon="0.31558">
        <ele>1249.3</ele>
        <time>2026-07-08T09:01:34Z</time>
      </trkpt>
      <trkpt lat="42.99272" lon="0.31559">
        <ele>1249.3</ele>
        <time>2026-07-08T09:01:34Z</time>
      </trkpt>
      <trkpt lat="42.99271" lon="0.3156">
        <ele>1249.3</ele>
        <time>2026-07-08T09:01:35Z</time>
      </trkpt>
      <trkpt lat="42.99271" lon="0.31561">
        <ele>1249.3</ele>
        <time>2026-07-08T09:01:36Z</time>
      </trkpt>
      <trkpt lat="42.9927" lon="0.31561">
        <ele>1249.3</ele>
        <time>2026-07-08T09:01:36Z</time>
      </trkpt>
      <trkpt lat="42.9927" lon="0.31562">
        <ele>1249.3</ele>
        <time>2026-07-08T09:01:37Z</time>
      </trkpt>
      <trkpt lat="42.99269" lon="0.31562">
        <ele>1249.3</ele>
        <time>2026-07-08T09:01:37Z</time>
      </trkpt>
      <trkpt lat="42.99269" lon="0.31562">
        <ele>1249.3</ele>
        <time>2026-07-08T09:01:38Z</time>
      </trkpt>
      <trkpt lat="42.99268" lon="0.31563">
        <ele>1250.3</ele>
        <time>2026-07-08T09:01:38Z</time>
      </trkpt>
      <trkpt lat="42.99268" lon="0.31563">
        <ele>1250.3</ele>
        <time>2026-07-08T09:01:39Z</time>
      </trkpt>
      <trkpt lat="42.99267" lon="0.31564">
        <ele>1249.3</ele>
        <time>2026-07-08T09:01:40Z</time>
      </trkpt>
      <trkpt lat="42.99267" lon="0.31565">
        <ele>1249.3</ele>
        <time>2026-07-08T09:01:40Z</time>
      </trkpt>
      <trkpt lat="42.99267" lon="0.31566">
        <ele>1249.3</ele>
        <time>2026-07-08T09:01:41Z</time>
      </trkpt>
      <trkpt lat="42.99266" lon="0.31566">
        <ele>1248.3</ele>
        <time>2026-07-08T09:01:41Z</time>
      </trkpt>
      <trkpt lat="42.99266" lon="0.31567">
        <ele>1248.3</ele>
        <time>2026-07-08T09:01:42Z</time>
      </trkpt>
      <trkpt lat="42.99266" lon="0.31568">
        <ele>1249.3</ele>
        <time>2026-07-08T09:01:42Z</time>
      </trkpt>
      <trkpt lat="42.99265" lon="0.31569">
        <ele>1249.3</ele>
        <time>2026-07-08T09:01:43Z</time>
      </trkpt>
      <trkpt lat="42.99264" lon="0.3157">
        <ele>1248.3</ele>
        <time>2026-07-08T09:01:44Z</time>
      </trkpt>
      <trkpt lat="42.99263" lon="0.31571">
        <ele>1250.3</ele>
        <time>2026-07-08T09:01:45Z</time>
      </trkpt>
      <trkpt lat="42.99263" lon="0.31572">
        <ele>1250.3</ele>
        <time>2026-07-08T09:01:46Z</time>
      </trkpt>
      <trkpt lat="42.99263" lon="0.31572">
        <ele>1249.3</ele>
        <time>2026-07-08T09:01:46Z</time>
      </trkpt>
      <trkpt lat="42.99262" lon="0.31573">
        <ele>1249.3</ele>
        <time>2026-07-08T09:01:47Z</time>
      </trkpt>
      <trkpt lat="42.99261" lon="0.31574">
        <ele>1249.3</ele>
        <time>2026-07-08T09:01:47Z</time>
      </trkpt>
      <trkpt lat="42.99261" lon="0.31574">
        <ele>1249.3</ele>
        <time>2026-07-08T09:01:48Z</time>
      </trkpt>
      <trkpt lat="42.99261" lon="0.31574">
        <ele>1249.3</ele>
        <time>2026-07-08T09:01:48Z</time>
      </trkpt>
      <trkpt lat="42.9926" lon="0.31574">
        <ele>1249.3</ele>
        <time>2026-07-08T09:01:49Z</time>
      </trkpt>
      <trkpt lat="42.99259" lon="0.31574">
        <ele>1250.3</ele>
        <time>2026-07-08T09:01:50Z</time>
      </trkpt>
      <trkpt lat="42.99259" lon="0.31574">
        <ele>1250.3</ele>
        <time>2026-07-08T09:01:51Z</time>
      </trkpt>
      <trkpt lat="42.99259" lon="0.31575">
        <ele>1250.3</ele>
        <time>2026-07-08T09:01:51Z</time>
      </trkpt>
      <trkpt lat="42.99258" lon="0.31575">
        <ele>1250.3</ele>
        <time>2026-07-08T09:01:52Z</time>
      </trkpt>
      <trkpt lat="42.99257" lon="0.31576">
        <ele>1250.3</ele>
        <time>2026-07-08T09:01:53Z</time>
      </trkpt>
      <trkpt lat="42.99257" lon="0.31576">
        <ele>1250.3</ele>
        <time>2026-07-08T09:01:54Z</time>
      </trkpt>
      <trkpt lat="42.99256" lon="0.31577">
        <ele>1249.3</ele>
        <time>2026-07-08T09:01:54Z</time>
      </trkpt>
      <trkpt lat="42.99256" lon="0.31577">
        <ele>1249.3</ele>
        <time>2026-07-08T09:01:55Z</time>
      </trkpt>
      <trkpt lat="42.99255" lon="0.31578">
        <ele>1248.3</ele>
        <time>2026-07-08T09:01:56Z</time>
      </trkpt>
      <trkpt lat="42.99255" lon="0.31578">
        <ele>1248.3</ele>
        <time>2026-07-08T09:01:56Z</time>
      </trkpt>
      <trkpt lat="42.99254" lon="0.31579">
        <ele>1248.3</ele>
        <time>2026-07-08T09:01:57Z</time>
      </trkpt>
      <trkpt lat="42.99254" lon="0.31579">
        <ele>1247.3</ele>
        <time>2026-07-08T09:01:57Z</time>
      </trkpt>
      <trkpt lat="42.99253" lon="0.31579">
        <ele>1247.3</ele>
        <time>2026-07-08T09:01:58Z</time>
      </trkpt>
      <trkpt lat="42.99253" lon="0.31579">
        <ele>1246.3</ele>
        <time>2026-07-08T09:01:58Z</time>
      </trkpt>
      <trkpt lat="42.99252" lon="0.31579">
        <ele>1246.3</ele>
        <time>2026-07-08T09:01:59Z</time>
      </trkpt>
      <trkpt lat="42.99251" lon="0.3158">
        <ele>1247.3</ele>
        <time>2026-07-08T09:02:00Z</time>
      </trkpt>
      <trkpt lat="42.9925" lon="0.3158">
        <ele>1246.3</ele>
        <time>2026-07-08T09:02:00Z</time>
      </trkpt>
      <trkpt lat="42.9925" lon="0.31581">
        <ele>1246.3</ele>
        <time>2026-07-08T09:02:01Z</time>
      </trkpt>
      <trkpt lat="42.99248" lon="0.31581">
        <ele>1246.3</ele>
        <time>2026-07-08T09:02:02Z</time>
      </trkpt>
      <trkpt lat="42.99248" lon="0.31582">
        <ele>1246.3</ele>
        <time>2026-07-08T09:02:03Z</time>
      </trkpt>
      <trkpt lat="42.99247" lon="0.31582">
        <ele>1246.3</ele>
        <time>2026-07-08T09:02:03Z</time>
      </trkpt>
      <trkpt lat="42.99246" lon="0.31583">
        <ele>1246.3</ele>
        <time>2026-07-08T09:02:04Z</time>
      </trkpt>
      <trkpt lat="42.99246" lon="0.31583">
        <ele>1247.3</ele>
        <time>2026-07-08T09:02:04Z</time>
      </trkpt>
      <trkpt lat="42.99245" lon="0.31583">
        <ele>1247.3</ele>
        <time>2026-07-08T09:02:05Z</time>
      </trkpt>
      <trkpt lat="42.99244" lon="0.31584">
        <ele>1247.3</ele>
        <time>2026-07-08T09:02:05Z</time>
      </trkpt>
      <trkpt lat="42.99244" lon="0.31584">
        <ele>1247.3</ele>
        <time>2026-07-08T09:02:06Z</time>
      </trkpt>
      <trkpt lat="42.99243" lon="0.31584">
        <ele>1246.3</ele>
        <time>2026-07-08T09:02:07Z</time>
      </trkpt>
      <trkpt lat="42.99243" lon="0.31585">
        <ele>1246.3</ele>
        <time>2026-07-08T09:02:07Z</time>
      </trkpt>
      <trkpt lat="42.99242" lon="0.31585">
        <ele>1246.3</ele>
        <time>2026-07-08T09:02:08Z</time>
      </trkpt>
      <trkpt lat="42.99241" lon="0.31585">
        <ele>1246.3</ele>
        <time>2026-07-08T09:02:09Z</time>
      </trkpt>
      <trkpt lat="42.99241" lon="0.31585">
        <ele>1246.3</ele>
        <time>2026-07-08T09:02:09Z</time>
      </trkpt>
      <trkpt lat="42.9924" lon="0.31586">
        <ele>1246.3</ele>
        <time>2026-07-08T09:02:10Z</time>
      </trkpt>
      <trkpt lat="42.99239" lon="0.31586">
        <ele>1245.3</ele>
        <time>2026-07-08T09:02:10Z</time>
      </trkpt>
      <trkpt lat="42.99239" lon="0.31587">
        <ele>1245.3</ele>
        <time>2026-07-08T09:02:11Z</time>
      </trkpt>
      <trkpt lat="42.99238" lon="0.31587">
        <ele>1245.3</ele>
        <time>2026-07-08T09:02:11Z</time>
      </trkpt>
      <trkpt lat="42.99238" lon="0.31588">
        <ele>1245.3</ele>
        <time>2026-07-08T09:02:12Z</time>
      </trkpt>
      <trkpt lat="42.99237" lon="0.31588">
        <ele>1245.3</ele>
        <time>2026-07-08T09:02:13Z</time>
      </trkpt>
      <trkpt lat="42.99237" lon="0.31589">
        <ele>1245.3</ele>
        <time>2026-07-08T09:02:13Z</time>
      </trkpt>
      <trkpt lat="42.99236" lon="0.31589">
        <ele>1245.3</ele>
        <time>2026-07-08T09:02:14Z</time>
      </trkpt>
      <trkpt lat="42.99236" lon="0.31589">
        <ele>1245.3</ele>
        <time>2026-07-08T09:02:14Z</time>
      </trkpt>
      <trkpt lat="42.99235" lon="0.3159">
        <ele>1245.3</ele>
        <time>2026-07-08T09:02:15Z</time>
      </trkpt>
      <trkpt lat="42.99235" lon="0.3159">
        <ele>1245.3</ele>
        <time>2026-07-08T09:02:15Z</time>
      </trkpt>
      <trkpt lat="42.99234" lon="0.31591">
        <ele>1245.3</ele>
        <time>2026-07-08T09:02:16Z</time>
      </trkpt>
      <trkpt lat="42.99234" lon="0.31592">
        <ele>1245.3</ele>
        <time>2026-07-08T09:02:17Z</time>
      </trkpt>
      <trkpt lat="42.99233" lon="0.31593">
        <ele>1245.3</ele>
        <time>2026-07-08T09:02:18Z</time>
      </trkpt>
      <trkpt lat="42.99233" lon="0.31593">
        <ele>1245.3</ele>
        <time>2026-07-08T09:02:18Z</time>
      </trkpt>
      <trkpt lat="42.99233" lon="0.31593">
        <ele>1245.3</ele>
        <time>2026-07-08T09:02:19Z</time>
      </trkpt>
      <trkpt lat="42.99232" lon="0.31594">
        <ele>1245.3</ele>
        <time>2026-07-08T09:02:19Z</time>
      </trkpt>
      <trkpt lat="42.99232" lon="0.31594">
        <ele>1245.3</ele>
        <time>2026-07-08T09:02:20Z</time>
      </trkpt>
      <trkpt lat="42.99231" lon="0.31594">
        <ele>1245.3</ele>
        <time>2026-07-08T09:02:21Z</time>
      </trkpt>
      <trkpt lat="42.99231" lon="0.31595">
        <ele>1244.3</ele>
        <time>2026-07-08T09:02:21Z</time>
      </trkpt>
      <trkpt lat="42.9923" lon="0.31595">
        <ele>1244.3</ele>
        <time>2026-07-08T09:02:22Z</time>
      </trkpt>
      <trkpt lat="42.9923" lon="0.31595">
        <ele>1244.3</ele>
        <time>2026-07-08T09:02:22Z</time>
      </trkpt>
      <trkpt lat="42.99229" lon="0.31596">
        <ele>1244.3</ele>
        <time>2026-07-08T09:02:23Z</time>
      </trkpt>
      <trkpt lat="42.99229" lon="0.31596">
        <ele>1244.3</ele>
        <time>2026-07-08T09:02:23Z</time>
      </trkpt>
      <trkpt lat="42.99228" lon="0.31597">
        <ele>1244.3</ele>
        <time>2026-07-08T09:02:24Z</time>
      </trkpt>
      <trkpt lat="42.99228" lon="0.31597">
        <ele>1243.3</ele>
        <time>2026-07-08T09:02:24Z</time>
      </trkpt>
      <trkpt lat="42.99227" lon="0.31598">
        <ele>1243.3</ele>
        <time>2026-07-08T09:02:25Z</time>
      </trkpt>
      <trkpt lat="42.99227" lon="0.31599">
        <ele>1243.3</ele>
        <time>2026-07-08T09:02:25Z</time>
      </trkpt>
      <trkpt lat="42.99227" lon="0.31599">
        <ele>1244.3</ele>
        <time>2026-07-08T09:02:26Z</time>
      </trkpt>
      <trkpt lat="42.99226" lon="0.316">
        <ele>1244.3</ele>
        <time>2026-07-08T09:02:27Z</time>
      </trkpt>
      <trkpt lat="42.99226" lon="0.316">
        <ele>1244.3</ele>
        <time>2026-07-08T09:02:27Z</time>
      </trkpt>
      <trkpt lat="42.99225" lon="0.316">
        <ele>1244.3</ele>
        <time>2026-07-08T09:02:28Z</time>
      </trkpt>
      <trkpt lat="42.99225" lon="0.31601">
        <ele>1243.3</ele>
        <time>2026-07-08T09:02:28Z</time>
      </trkpt>
      <trkpt lat="42.99224" lon="0.31601">
        <ele>1243.3</ele>
        <time>2026-07-08T09:02:29Z</time>
      </trkpt>
      <trkpt lat="42.99224" lon="0.31601">
        <ele>1243.3</ele>
        <time>2026-07-08T09:02:29Z</time>
      </trkpt>
      <trkpt lat="42.99223" lon="0.31602">
        <ele>1243.3</ele>
        <time>2026-07-08T09:02:30Z</time>
      </trkpt>
      <trkpt lat="42.99223" lon="0.31602">
        <ele>1243.3</ele>
        <time>2026-07-08T09:02:30Z</time>
      </trkpt>
      <trkpt lat="42.99223" lon="0.31602">
        <ele>1243.3</ele>
        <time>2026-07-08T09:02:31Z</time>
      </trkpt>
      <trkpt lat="42.99222" lon="0.31603">
        <ele>1243.3</ele>
        <time>2026-07-08T09:02:32Z</time>
      </trkpt>
      <trkpt lat="42.99222" lon="0.31602">
        <ele>1243.3</ele>
        <time>2026-07-08T09:02:32Z</time>
      </trkpt>
      <trkpt lat="42.99221" lon="0.31603">
        <ele>1243.3</ele>
        <time>2026-07-08T09:02:33Z</time>
      </trkpt>
      <trkpt lat="42.99221" lon="0.31602">
        <ele>1243.3</ele>
        <time>2026-07-08T09:02:33Z</time>
      </trkpt>
      <trkpt lat="42.99221" lon="0.31602">
        <ele>1242.3</ele>
        <time>2026-07-08T09:02:34Z</time>
      </trkpt>
      <trkpt lat="42.99221" lon="0.31602">
        <ele>1242.3</ele>
        <time>2026-07-08T09:02:35Z</time>
      </trkpt>
      <trkpt lat="42.9922" lon="0.31602">
        <ele>1242.3</ele>
        <time>2026-07-08T09:02:35Z</time>
      </trkpt>
      <trkpt lat="42.9922" lon="0.31602">
        <ele>1242.3</ele>
        <time>2026-07-08T09:02:36Z</time>
      </trkpt>
      <trkpt lat="42.99219" lon="0.31603">
        <ele>1242.3</ele>
        <time>2026-07-08T09:02:36Z</time>
      </trkpt>
      <trkpt lat="42.99218" lon="0.31603">
        <ele>1242.3</ele>
        <time>2026-07-08T09:02:37Z</time>
      </trkpt>
      <trkpt lat="42.99218" lon="0.31603">
        <ele>1242.3</ele>
        <time>2026-07-08T09:02:37Z</time>
      </trkpt>
      <trkpt lat="42.99217" lon="0.31604">
        <ele>1242.3</ele>
        <time>2026-07-08T09:02:38Z</time>
      </trkpt>
      <trkpt lat="42.99216" lon="0.31604">
        <ele>1242.3</ele>
        <time>2026-07-08T09:02:39Z</time>
      </trkpt>
      <trkpt lat="42.99216" lon="0.31605">
        <ele>1242.3</ele>
        <time>2026-07-08T09:02:40Z</time>
      </trkpt>
      <trkpt lat="42.99215" lon="0.31605">
        <ele>1242.3</ele>
        <time>2026-07-08T09:02:41Z</time>
      </trkpt>
      <trkpt lat="42.99214" lon="0.31605">
        <ele>1242.3</ele>
        <time>2026-07-08T09:02:41Z</time>
      </trkpt>
      <trkpt lat="42.99214" lon="0.31606">
        <ele>1242.3</ele>
        <time>2026-07-08T09:02:42Z</time>
      </trkpt>
      <trkpt lat="42.99213" lon="0.31606">
        <ele>1241.3</ele>
        <time>2026-07-08T09:02:43Z</time>
      </trkpt>
      <trkpt lat="42.99213" lon="0.31607">
        <ele>1240.3</ele>
        <time>2026-07-08T09:02:43Z</time>
      </trkpt>
      <trkpt lat="42.99212" lon="0.31607">
        <ele>1240.3</ele>
        <time>2026-07-08T09:02:44Z</time>
      </trkpt>
      <trkpt lat="42.99212" lon="0.31607">
        <ele>1240.3</ele>
        <time>2026-07-08T09:02:44Z</time>
      </trkpt>
      <trkpt lat="42.99211" lon="0.31607">
        <ele>1240.3</ele>
        <time>2026-07-08T09:02:45Z</time>
      </trkpt>
      <trkpt lat="42.99211" lon="0.31607">
        <ele>1240.3</ele>
        <time>2026-07-08T09:02:45Z</time>
      </trkpt>
      <trkpt lat="42.9921" lon="0.31608">
        <ele>1240.3</ele>
        <time>2026-07-08T09:02:46Z</time>
      </trkpt>
      <trkpt lat="42.99209" lon="0.31608">
        <ele>1240.3</ele>
        <time>2026-07-08T09:02:47Z</time>
      </trkpt>
      <trkpt lat="42.99209" lon="0.31609">
        <ele>1240.3</ele>
        <time>2026-07-08T09:02:47Z</time>
      </trkpt>
      <trkpt lat="42.99208" lon="0.31609">
        <ele>1240.3</ele>
        <time>2026-07-08T09:02:48Z</time>
      </trkpt>
      <trkpt lat="42.99207" lon="0.3161">
        <ele>1239.3</ele>
        <time>2026-07-08T09:02:49Z</time>
      </trkpt>
      <trkpt lat="42.99206" lon="0.3161">
        <ele>1239.3</ele>
        <time>2026-07-08T09:02:50Z</time>
      </trkpt>
      <trkpt lat="42.99205" lon="0.31611">
        <ele>1239.3</ele>
        <time>2026-07-08T09:02:51Z</time>
      </trkpt>
      <trkpt lat="42.99205" lon="0.31611">
        <ele>1239.3</ele>
        <time>2026-07-08T09:02:52Z</time>
      </trkpt>
      <trkpt lat="42.99204" lon="0.31611">
        <ele>1239.3</ele>
        <time>2026-07-08T09:02:52Z</time>
      </trkpt>
      <trkpt lat="42.99204" lon="0.31612">
        <ele>1239.3</ele>
        <time>2026-07-08T09:02:53Z</time>
      </trkpt>
      <trkpt lat="42.99203" lon="0.31612">
        <ele>1238.3</ele>
        <time>2026-07-08T09:02:53Z</time>
      </trkpt>
      <trkpt lat="42.99203" lon="0.31612">
        <ele>1238.3</ele>
        <time>2026-07-08T09:02:54Z</time>
      </trkpt>
      <trkpt lat="42.99202" lon="0.31612">
        <ele>1238.3</ele>
        <time>2026-07-08T09:02:54Z</time>
      </trkpt>
      <trkpt lat="42.99202" lon="0.31613">
        <ele>1238.3</ele>
        <time>2026-07-08T09:02:55Z</time>
      </trkpt>
      <trkpt lat="42.99201" lon="0.31613">
        <ele>1238.3</ele>
        <time>2026-07-08T09:02:55Z</time>
      </trkpt>
      <trkpt lat="42.99201" lon="0.31614">
        <ele>1238.3</ele>
        <time>2026-07-08T09:02:56Z</time>
      </trkpt>
      <trkpt lat="42.992" lon="0.31614">
        <ele>1238.3</ele>
        <time>2026-07-08T09:02:56Z</time>
      </trkpt>
      <trkpt lat="42.992" lon="0.31615">
        <ele>1238.3</ele>
        <time>2026-07-08T09:02:57Z</time>
      </trkpt>
      <trkpt lat="42.99199" lon="0.31615">
        <ele>1238.3</ele>
        <time>2026-07-08T09:02:58Z</time>
      </trkpt>
      <trkpt lat="42.99198" lon="0.31616">
        <ele>1238.3</ele>
        <time>2026-07-08T09:02:58Z</time>
      </trkpt>
      <trkpt lat="42.99198" lon="0.31616">
        <ele>1238.3</ele>
        <time>2026-07-08T09:02:59Z</time>
      </trkpt>
      <trkpt lat="42.99197" lon="0.31616">
        <ele>1238.3</ele>
        <time>2026-07-08T09:02:59Z</time>
      </trkpt>
      <trkpt lat="42.99196" lon="0.31616">
        <ele>1238.3</ele>
        <time>2026-07-08T09:03:00Z</time>
      </trkpt>
      <trkpt lat="42.99196" lon="0.31616">
        <ele>1238.3</ele>
        <time>2026-07-08T09:03:01Z</time>
      </trkpt>
      <trkpt lat="42.99195" lon="0.31616">
        <ele>1238.3</ele>
        <time>2026-07-08T09:03:01Z</time>
      </trkpt>
      <trkpt lat="42.99194" lon="0.31617">
        <ele>1238.3</ele>
        <time>2026-07-08T09:03:02Z</time>
      </trkpt>
      <trkpt lat="42.99194" lon="0.31617">
        <ele>1237.3</ele>
        <time>2026-07-08T09:03:02Z</time>
      </trkpt>
      <trkpt lat="42.99193" lon="0.31617">
        <ele>1237.3</ele>
        <time>2026-07-08T09:03:03Z</time>
      </trkpt>
      <trkpt lat="42.99193" lon="0.31617">
        <ele>1238.3</ele>
        <time>2026-07-08T09:03:03Z</time>
      </trkpt>
      <trkpt lat="42.99192" lon="0.31618">
        <ele>1238.3</ele>
        <time>2026-07-08T09:03:04Z</time>
      </trkpt>
      <trkpt lat="42.99191" lon="0.31618">
        <ele>1238.3</ele>
        <time>2026-07-08T09:03:05Z</time>
      </trkpt>
      <trkpt lat="42.99191" lon="0.31618">
        <ele>1237.3</ele>
        <time>2026-07-08T09:03:05Z</time>
      </trkpt>
      <trkpt lat="42.9919" lon="0.31619">
        <ele>1237.3</ele>
        <time>2026-07-08T09:03:06Z</time>
      </trkpt>
      <trkpt lat="42.9919" lon="0.31619">
        <ele>1237.3</ele>
        <time>2026-07-08T09:03:07Z</time>
      </trkpt>
      <trkpt lat="42.9919" lon="0.3162">
        <ele>1237.3</ele>
        <time>2026-07-08T09:03:07Z</time>
      </trkpt>
      <trkpt lat="42.99189" lon="0.3162">
        <ele>1237.3</ele>
        <time>2026-07-08T09:03:08Z</time>
      </trkpt>
      <trkpt lat="42.99189" lon="0.31621">
        <ele>1238.3</ele>
        <time>2026-07-08T09:03:08Z</time>
      </trkpt>
      <trkpt lat="42.99189" lon="0.31622">
        <ele>1238.3</ele>
        <time>2026-07-08T09:03:09Z</time>
      </trkpt>
      <trkpt lat="42.99188" lon="0.31622">
        <ele>1238.3</ele>
        <time>2026-07-08T09:03:10Z</time>
      </trkpt>
      <trkpt lat="42.99188" lon="0.31623">
        <ele>1237.3</ele>
        <time>2026-07-08T09:03:10Z</time>
      </trkpt>
      <trkpt lat="42.99187" lon="0.31623">
        <ele>1237.3</ele>
        <time>2026-07-08T09:03:11Z</time>
      </trkpt>
      <trkpt lat="42.99187" lon="0.31623">
        <ele>1237.3</ele>
        <time>2026-07-08T09:03:11Z</time>
      </trkpt>
      <trkpt lat="42.99186" lon="0.31624">
        <ele>1237.3</ele>
        <time>2026-07-08T09:03:12Z</time>
      </trkpt>
      <trkpt lat="42.99186" lon="0.31624">
        <ele>1238.3</ele>
        <time>2026-07-08T09:03:12Z</time>
      </trkpt>
      <trkpt lat="42.99185" lon="0.31624">
        <ele>1238.3</ele>
        <time>2026-07-08T09:03:13Z</time>
      </trkpt>
      <trkpt lat="42.99185" lon="0.31624">
        <ele>1238.3</ele>
        <time>2026-07-08T09:03:14Z</time>
      </trkpt>
      <trkpt lat="42.99184" lon="0.31625">
        <ele>1238.3</ele>
        <time>2026-07-08T09:03:14Z</time>
      </trkpt>
      <trkpt lat="42.99184" lon="0.31625">
        <ele>1238.3</ele>
        <time>2026-07-08T09:03:15Z</time>
      </trkpt>
      <trkpt lat="42.99183" lon="0.31625">
        <ele>1238.3</ele>
        <time>2026-07-08T09:03:15Z</time>
      </trkpt>
      <trkpt lat="42.99183" lon="0.31626">
        <ele>1238.3</ele>
        <time>2026-07-08T09:03:16Z</time>
      </trkpt>
      <trkpt lat="42.99182" lon="0.31626">
        <ele>1238.3</ele>
        <time>2026-07-08T09:03:17Z</time>
      </trkpt>
      <trkpt lat="42.99182" lon="0.31627">
        <ele>1238.3</ele>
        <time>2026-07-08T09:03:17Z</time>
      </trkpt>
      <trkpt lat="42.99182" lon="0.31628">
        <ele>1238.3</ele>
        <time>2026-07-08T09:03:18Z</time>
      </trkpt>
      <trkpt lat="42.99182" lon="0.31629">
        <ele>1238.3</ele>
        <time>2026-07-08T09:03:18Z</time>
      </trkpt>
      <trkpt lat="42.99182" lon="0.3163">
        <ele>1238.3</ele>
        <time>2026-07-08T09:03:19Z</time>
      </trkpt>
      <trkpt lat="42.99181" lon="0.31631">
        <ele>1239.3</ele>
        <time>2026-07-08T09:03:20Z</time>
      </trkpt>
      <trkpt lat="42.99181" lon="0.31631">
        <ele>1239.3</ele>
        <time>2026-07-08T09:03:20Z</time>
      </trkpt>
      <trkpt lat="42.99181" lon="0.31632">
        <ele>1239.3</ele>
        <time>2026-07-08T09:03:21Z</time>
      </trkpt>
      <trkpt lat="42.99181" lon="0.31633">
        <ele>1239.3</ele>
        <time>2026-07-08T09:03:21Z</time>
      </trkpt>
      <trkpt lat="42.9918" lon="0.31634">
        <ele>1239.3</ele>
        <time>2026-07-08T09:03:22Z</time>
      </trkpt>
      <trkpt lat="42.9918" lon="0.31634">
        <ele>1239.3</ele>
        <time>2026-07-08T09:03:22Z</time>
      </trkpt>
      <trkpt lat="42.99179" lon="0.31635">
        <ele>1239.3</ele>
        <time>2026-07-08T09:03:23Z</time>
      </trkpt>
      <trkpt lat="42.99179" lon="0.31636">
        <ele>1239.3</ele>
        <time>2026-07-08T09:03:24Z</time>
      </trkpt>
      <trkpt lat="42.99178" lon="0.31637">
        <ele>1239.3</ele>
        <time>2026-07-08T09:03:24Z</time>
      </trkpt>
      <trkpt lat="42.99178" lon="0.31638">
        <ele>1239.3</ele>
        <time>2026-07-08T09:03:25Z</time>
      </trkpt>
      <trkpt lat="42.99177" lon="0.31639">
        <ele>1239.3</ele>
        <time>2026-07-08T09:03:25Z</time>
      </trkpt>
      <trkpt lat="42.99177" lon="0.31639">
        <ele>1239.3</ele>
        <time>2026-07-08T09:03:26Z</time>
      </trkpt>
      <trkpt lat="42.99176" lon="0.3164">
        <ele>1239.3</ele>
        <time>2026-07-08T09:03:26Z</time>
      </trkpt>
      <trkpt lat="42.99175" lon="0.3164">
        <ele>1239.3</ele>
        <time>2026-07-08T09:03:27Z</time>
      </trkpt>
      <trkpt lat="42.99175" lon="0.31641">
        <ele>1238.3</ele>
        <time>2026-07-08T09:03:27Z</time>
      </trkpt>
      <trkpt lat="42.99174" lon="0.31641">
        <ele>1238.3</ele>
        <time>2026-07-08T09:03:28Z</time>
      </trkpt>
      <trkpt lat="42.99173" lon="0.31642">
        <ele>1239.3</ele>
        <time>2026-07-08T09:03:29Z</time>
      </trkpt>
      <trkpt lat="42.99173" lon="0.31644">
        <ele>1238.3</ele>
        <time>2026-07-08T09:03:30Z</time>
      </trkpt>
      <trkpt lat="42.99172" lon="0.31645">
        <ele>1239.3</ele>
        <time>2026-07-08T09:03:30Z</time>
      </trkpt>
      <trkpt lat="42.99172" lon="0.31645">
        <ele>1239.3</ele>
        <time>2026-07-08T09:03:31Z</time>
      </trkpt>
      <trkpt lat="42.99172" lon="0.31646">
        <ele>1238.3</ele>
        <time>2026-07-08T09:03:31Z</time>
      </trkpt>
      <trkpt lat="42.99172" lon="0.31647">
        <ele>1238.3</ele>
        <time>2026-07-08T09:03:32Z</time>
      </trkpt>
      <trkpt lat="42.99172" lon="0.31648">
        <ele>1238.3</ele>
        <time>2026-07-08T09:03:32Z</time>
      </trkpt>
      <trkpt lat="42.99172" lon="0.31649">
        <ele>1238.3</ele>
        <time>2026-07-08T09:03:33Z</time>
      </trkpt>
      <trkpt lat="42.99172" lon="0.3165">
        <ele>1238.3</ele>
        <time>2026-07-08T09:03:33Z</time>
      </trkpt>
      <trkpt lat="42.99172" lon="0.31651">
        <ele>1238.3</ele>
        <time>2026-07-08T09:03:34Z</time>
      </trkpt>
      <trkpt lat="42.99172" lon="0.31652">
        <ele>1238.3</ele>
        <time>2026-07-08T09:03:35Z</time>
      </trkpt>
      <trkpt lat="42.99171" lon="0.31653">
        <ele>1238.3</ele>
        <time>2026-07-08T09:03:35Z</time>
      </trkpt>
      <trkpt lat="42.99171" lon="0.31654">
        <ele>1238.3</ele>
        <time>2026-07-08T09:03:36Z</time>
      </trkpt>
      <trkpt lat="42.99171" lon="0.31655">
        <ele>1238.3</ele>
        <time>2026-07-08T09:03:36Z</time>
      </trkpt>
      <trkpt lat="42.99171" lon="0.31656">
        <ele>1238.3</ele>
        <time>2026-07-08T09:03:37Z</time>
      </trkpt>
      <trkpt lat="42.9917" lon="0.31657">
        <ele>1238.3</ele>
        <time>2026-07-08T09:03:38Z</time>
      </trkpt>
      <trkpt lat="42.9917" lon="0.31657">
        <ele>1237.3</ele>
        <time>2026-07-08T09:03:38Z</time>
      </trkpt>
      <trkpt lat="42.9917" lon="0.31658">
        <ele>1237.3</ele>
        <time>2026-07-08T09:03:39Z</time>
      </trkpt>
      <trkpt lat="42.9917" lon="0.31659">
        <ele>1237.3</ele>
        <time>2026-07-08T09:03:39Z</time>
      </trkpt>
      <trkpt lat="42.99169" lon="0.3166">
        <ele>1237.3</ele>
        <time>2026-07-08T09:03:40Z</time>
      </trkpt>
      <trkpt lat="42.99169" lon="0.31661">
        <ele>1237.3</ele>
        <time>2026-07-08T09:03:40Z</time>
      </trkpt>
      <trkpt lat="42.99169" lon="0.31662">
        <ele>1237.3</ele>
        <time>2026-07-08T09:03:41Z</time>
      </trkpt>
      <trkpt lat="42.99169" lon="0.31662">
        <ele>1237.3</ele>
        <time>2026-07-08T09:03:42Z</time>
      </trkpt>
      <trkpt lat="42.99168" lon="0.31663">
        <ele>1237.3</ele>
        <time>2026-07-08T09:03:42Z</time>
      </trkpt>
      <trkpt lat="42.99168" lon="0.31664">
        <ele>1237.3</ele>
        <time>2026-07-08T09:03:43Z</time>
      </trkpt>
      <trkpt lat="42.99167" lon="0.31666">
        <ele>1237.3</ele>
        <time>2026-07-08T09:03:44Z</time>
      </trkpt>
      <trkpt lat="42.99167" lon="0.31666">
        <ele>1237.3</ele>
        <time>2026-07-08T09:03:45Z</time>
      </trkpt>
      <trkpt lat="42.99167" lon="0.31667">
        <ele>1237.3</ele>
        <time>2026-07-08T09:03:45Z</time>
      </trkpt>
      <trkpt lat="42.99166" lon="0.31668">
        <ele>1237.3</ele>
        <time>2026-07-08T09:03:46Z</time>
      </trkpt>
      <trkpt lat="42.99166" lon="0.31669">
        <ele>1237.3</ele>
        <time>2026-07-08T09:03:46Z</time>
      </trkpt>
      <trkpt lat="42.99166" lon="0.31669">
        <ele>1237.3</ele>
        <time>2026-07-08T09:03:47Z</time>
      </trkpt>
      <trkpt lat="42.99165" lon="0.3167">
        <ele>1237.3</ele>
        <time>2026-07-08T09:03:47Z</time>
      </trkpt>
      <trkpt lat="42.99165" lon="0.31671">
        <ele>1237.3</ele>
        <time>2026-07-08T09:03:48Z</time>
      </trkpt>
      <trkpt lat="42.99165" lon="0.31672">
        <ele>1237.3</ele>
        <time>2026-07-08T09:03:49Z</time>
      </trkpt>
      <trkpt lat="42.99165" lon="0.31672">
        <ele>1238.3</ele>
        <time>2026-07-08T09:03:49Z</time>
      </trkpt>
      <trkpt lat="42.99165" lon="0.31673">
        <ele>1238.3</ele>
        <time>2026-07-08T09:03:50Z</time>
      </trkpt>
      <trkpt lat="42.99165" lon="0.31674">
        <ele>1238.3</ele>
        <time>2026-07-08T09:03:50Z</time>
      </trkpt>
      <trkpt lat="42.99165" lon="0.31675">
        <ele>1237.3</ele>
        <time>2026-07-08T09:03:51Z</time>
      </trkpt>
      <trkpt lat="42.99164" lon="0.31676">
        <ele>1237.3</ele>
        <time>2026-07-08T09:03:52Z</time>
      </trkpt>
      <trkpt lat="42.99164" lon="0.31677">
        <ele>1237.3</ele>
        <time>2026-07-08T09:03:53Z</time>
      </trkpt>
      <trkpt lat="42.99164" lon="0.31678">
        <ele>1237.3</ele>
        <time>2026-07-08T09:03:53Z</time>
      </trkpt>
      <trkpt lat="42.99164" lon="0.31679">
        <ele>1237.3</ele>
        <time>2026-07-08T09:03:54Z</time>
      </trkpt>
      <trkpt lat="42.99163" lon="0.31679">
        <ele>1236.3</ele>
        <time>2026-07-08T09:03:55Z</time>
      </trkpt>
      <trkpt lat="42.99163" lon="0.31679">
        <ele>1236.3</ele>
        <time>2026-07-08T09:03:55Z</time>
      </trkpt>
      <trkpt lat="42.99162" lon="0.3168">
        <ele>1236.3</ele>
        <time>2026-07-08T09:03:56Z</time>
      </trkpt>
      <trkpt lat="42.99162" lon="0.3168">
        <ele>1236.3</ele>
        <time>2026-07-08T09:03:56Z</time>
      </trkpt>
      <trkpt lat="42.99161" lon="0.31681">
        <ele>1235.3</ele>
        <time>2026-07-08T09:03:57Z</time>
      </trkpt>
      <trkpt lat="42.9916" lon="0.31681">
        <ele>1235.3</ele>
        <time>2026-07-08T09:03:58Z</time>
      </trkpt>
      <trkpt lat="42.99159" lon="0.31681">
        <ele>1236.3</ele>
        <time>2026-07-08T09:03:58Z</time>
      </trkpt>
      <trkpt lat="42.99159" lon="0.31682">
        <ele>1236.3</ele>
        <time>2026-07-08T09:03:59Z</time>
      </trkpt>
      <trkpt lat="42.99158" lon="0.31682">
        <ele>1236.3</ele>
        <time>2026-07-08T09:03:59Z</time>
      </trkpt>
      <trkpt lat="42.99158" lon="0.31683">
        <ele>1236.3</ele>
        <time>2026-07-08T09:04:00Z</time>
      </trkpt>
      <trkpt lat="42.99157" lon="0.31684">
        <ele>1236.3</ele>
        <time>2026-07-08T09:04:01Z</time>
      </trkpt>
      <trkpt lat="42.99157" lon="0.31684">
        <ele>1236.3</ele>
        <time>2026-07-08T09:04:01Z</time>
      </trkpt>
      <trkpt lat="42.99156" lon="0.31685">
        <ele>1236.3</ele>
        <time>2026-07-08T09:04:02Z</time>
      </trkpt>
      <trkpt lat="42.99156" lon="0.31686">
        <ele>1235.3</ele>
        <time>2026-07-08T09:04:02Z</time>
      </trkpt>
      <trkpt lat="42.99156" lon="0.31687">
        <ele>1235.3</ele>
        <time>2026-07-08T09:04:03Z</time>
      </trkpt>
      <trkpt lat="42.99155" lon="0.31688">
        <ele>1235.3</ele>
        <time>2026-07-08T09:04:04Z</time>
      </trkpt>
      <trkpt lat="42.99155" lon="0.31688">
        <ele>1235.3</ele>
        <time>2026-07-08T09:04:04Z</time>
      </trkpt>
      <trkpt lat="42.99155" lon="0.31689">
        <ele>1235.3</ele>
        <time>2026-07-08T09:04:05Z</time>
      </trkpt>
      <trkpt lat="42.99154" lon="0.31691">
        <ele>1236.3</ele>
        <time>2026-07-08T09:04:06Z</time>
      </trkpt>
      <trkpt lat="42.99153" lon="0.31692">
        <ele>1236.3</ele>
        <time>2026-07-08T09:04:07Z</time>
      </trkpt>
      <trkpt lat="42.99153" lon="0.31693">
        <ele>1235.3</ele>
        <time>2026-07-08T09:04:08Z</time>
      </trkpt>
      <trkpt lat="42.99152" lon="0.31694">
        <ele>1236.3</ele>
        <time>2026-07-08T09:04:08Z</time>
      </trkpt>
      <trkpt lat="42.99152" lon="0.31695">
        <ele>1236.3</ele>
        <time>2026-07-08T09:04:09Z</time>
      </trkpt>
      <trkpt lat="42.99152" lon="0.31695">
        <ele>1235.3</ele>
        <time>2026-07-08T09:04:09Z</time>
      </trkpt>
      <trkpt lat="42.99151" lon="0.31696">
        <ele>1235.3</ele>
        <time>2026-07-08T09:04:10Z</time>
      </trkpt>
      <trkpt lat="42.99151" lon="0.31697">
        <ele>1235.3</ele>
        <time>2026-07-08T09:04:11Z</time>
      </trkpt>
      <trkpt lat="42.9915" lon="0.31696">
        <ele>1236.3</ele>
        <time>2026-07-08T09:04:12Z</time>
      </trkpt>
      <trkpt lat="42.9915" lon="0.31696">
        <ele>1236.3</ele>
        <time>2026-07-08T09:04:13Z</time>
      </trkpt>
      <trkpt lat="42.9915" lon="0.31695">
        <ele>1236.3</ele>
        <time>2026-07-08T09:04:14Z</time>
      </trkpt>
      <trkpt lat="42.9915" lon="0.31695">
        <ele>1234.3</ele>
        <time>2026-07-08T09:04:15Z</time>
      </trkpt>
      <trkpt lat="42.9915" lon="0.31695">
        <ele>1234.3</ele>
        <time>2026-07-08T09:04:16Z</time>
      </trkpt>
      <trkpt lat="42.99151" lon="0.31695">
        <ele>1234.3</ele>
        <time>2026-07-08T09:04:17Z</time>
      </trkpt>
      <trkpt lat="42.99151" lon="0.31696">
        <ele>1233.3</ele>
        <time>2026-07-08T09:04:17Z</time>
      </trkpt>
      <trkpt lat="42.99151" lon="0.31696">
        <ele>1233.3</ele>
        <time>2026-07-08T09:04:18Z</time>
      </trkpt>
      <trkpt lat="42.99151" lon="0.31696">
        <ele>1233.3</ele>
        <time>2026-07-08T09:04:19Z</time>
      </trkpt>
      <trkpt lat="42.99152" lon="0.31696">
        <ele>1233.3</ele>
        <time>2026-07-08T09:04:19Z</time>
      </trkpt>
      <trkpt lat="42.99152" lon="0.31697">
        <ele>1233.3</ele>
        <time>2026-07-08T09:04:20Z</time>
      </trkpt>
      <trkpt lat="42.99152" lon="0.31698">
        <ele>1233.3</ele>
        <time>2026-07-08T09:04:20Z</time>
      </trkpt>
      <trkpt lat="42.99152" lon="0.31698">
        <ele>1233.3</ele>
        <time>2026-07-08T09:04:21Z</time>
      </trkpt>
      <trkpt lat="42.99153" lon="0.317">
        <ele>1232.3</ele>
        <time>2026-07-08T09:04:21Z</time>
      </trkpt>
      <trkpt lat="42.99154" lon="0.31702">
        <ele>1232.3</ele>
        <time>2026-07-08T09:04:22Z</time>
      </trkpt>
      <trkpt lat="42.99154" lon="0.31704">
        <ele>1232.3</ele>
        <time>2026-07-08T09:04:23Z</time>
      </trkpt>
      <trkpt lat="42.99155" lon="0.31706">
        <ele>1232.3</ele>
        <time>2026-07-08T09:04:24Z</time>
      </trkpt>
      <trkpt lat="42.99155" lon="0.31707">
        <ele>1232.3</ele>
        <time>2026-07-08T09:04:24Z</time>
      </trkpt>
      <trkpt lat="42.99155" lon="0.31708">
        <ele>1233.3</ele>
        <time>2026-07-08T09:04:25Z</time>
      </trkpt>
      <trkpt lat="42.99156" lon="0.31709">
        <ele>1232.3</ele>
        <time>2026-07-08T09:04:25Z</time>
      </trkpt>
      <trkpt lat="42.99156" lon="0.3171">
        <ele>1232.3</ele>
        <time>2026-07-08T09:04:26Z</time>
      </trkpt>
      <trkpt lat="42.99157" lon="0.31711">
        <ele>1232.3</ele>
        <time>2026-07-08T09:04:27Z</time>
      </trkpt>
      <trkpt lat="42.99158" lon="0.31712">
        <ele>1231.3</ele>
        <time>2026-07-08T09:04:27Z</time>
      </trkpt>
      <trkpt lat="42.99158" lon="0.31713">
        <ele>1231.3</ele>
        <time>2026-07-08T09:04:28Z</time>
      </trkpt>
      <trkpt lat="42.99159" lon="0.31714">
        <ele>1231.3</ele>
        <time>2026-07-08T09:04:28Z</time>
      </trkpt>
      <trkpt lat="42.99159" lon="0.31715">
        <ele>1231.3</ele>
        <time>2026-07-08T09:04:29Z</time>
      </trkpt>
      <trkpt lat="42.9916" lon="0.31715">
        <ele>1231.3</ele>
        <time>2026-07-08T09:04:29Z</time>
      </trkpt>
      <trkpt lat="42.9916" lon="0.31716">
        <ele>1231.3</ele>
        <time>2026-07-08T09:04:30Z</time>
      </trkpt>
      <trkpt lat="42.99161" lon="0.31717">
        <ele>1231.3</ele>
        <time>2026-07-08T09:04:30Z</time>
      </trkpt>
      <trkpt lat="42.99161" lon="0.31718">
        <ele>1231.3</ele>
        <time>2026-07-08T09:04:31Z</time>
      </trkpt>
      <trkpt lat="42.99161" lon="0.31719">
        <ele>1231.3</ele>
        <time>2026-07-08T09:04:32Z</time>
      </trkpt>
      <trkpt lat="42.99161" lon="0.31719">
        <ele>1230.3</ele>
        <time>2026-07-08T09:04:32Z</time>
      </trkpt>
      <trkpt lat="42.99162" lon="0.3172">
        <ele>1230.3</ele>
        <time>2026-07-08T09:04:33Z</time>
      </trkpt>
      <trkpt lat="42.99162" lon="0.31722">
        <ele>1231.3</ele>
        <time>2026-07-08T09:04:34Z</time>
      </trkpt>
      <trkpt lat="42.99163" lon="0.31723">
        <ele>1230.3</ele>
        <time>2026-07-08T09:04:34Z</time>
      </trkpt>
      <trkpt lat="42.99163" lon="0.31724">
        <ele>1230.3</ele>
        <time>2026-07-08T09:04:35Z</time>
      </trkpt>
      <trkpt lat="42.99163" lon="0.31725">
        <ele>1230.3</ele>
        <time>2026-07-08T09:04:35Z</time>
      </trkpt>
      <trkpt lat="42.99164" lon="0.31726">
        <ele>1230.3</ele>
        <time>2026-07-08T09:04:36Z</time>
      </trkpt>
      <trkpt lat="42.99164" lon="0.31727">
        <ele>1230.3</ele>
        <time>2026-07-08T09:04:37Z</time>
      </trkpt>
      <trkpt lat="42.99165" lon="0.31729">
        <ele>1230.3</ele>
        <time>2026-07-08T09:04:37Z</time>
      </trkpt>
      <trkpt lat="42.99165" lon="0.3173">
        <ele>1230.3</ele>
        <time>2026-07-08T09:04:38Z</time>
      </trkpt>
      <trkpt lat="42.99165" lon="0.3173">
        <ele>1230.3</ele>
        <time>2026-07-08T09:04:39Z</time>
      </trkpt>
      <trkpt lat="42.99165" lon="0.31731">
        <ele>1230.3</ele>
        <time>2026-07-08T09:04:39Z</time>
      </trkpt>
      <trkpt lat="42.99166" lon="0.31732">
        <ele>1230.3</ele>
        <time>2026-07-08T09:04:40Z</time>
      </trkpt>
      <trkpt lat="42.99166" lon="0.31733">
        <ele>1230.3</ele>
        <time>2026-07-08T09:04:40Z</time>
      </trkpt>
      <trkpt lat="42.99166" lon="0.31734">
        <ele>1230.3</ele>
        <time>2026-07-08T09:04:41Z</time>
      </trkpt>
      <trkpt lat="42.99167" lon="0.31736">
        <ele>1230.3</ele>
        <time>2026-07-08T09:04:42Z</time>
      </trkpt>
      <trkpt lat="42.99168" lon="0.31737">
        <ele>1230.3</ele>
        <time>2026-07-08T09:04:43Z</time>
      </trkpt>
      <trkpt lat="42.99168" lon="0.31738">
        <ele>1230.3</ele>
        <time>2026-07-08T09:04:43Z</time>
      </trkpt>
      <trkpt lat="42.99168" lon="0.31739">
        <ele>1230.3</ele>
        <time>2026-07-08T09:04:44Z</time>
      </trkpt>
      <trkpt lat="42.99168" lon="0.3174">
        <ele>1229.3</ele>
        <time>2026-07-08T09:04:45Z</time>
      </trkpt>
      <trkpt lat="42.99169" lon="0.31741">
        <ele>1229.3</ele>
        <time>2026-07-08T09:04:45Z</time>
      </trkpt>
      <trkpt lat="42.99169" lon="0.31742">
        <ele>1229.3</ele>
        <time>2026-07-08T09:04:46Z</time>
      </trkpt>
      <trkpt lat="42.99169" lon="0.31742">
        <ele>1229.3</ele>
        <time>2026-07-08T09:04:46Z</time>
      </trkpt>
      <trkpt lat="42.9917" lon="0.31743">
        <ele>1229.3</ele>
        <time>2026-07-08T09:04:47Z</time>
      </trkpt>
      <trkpt lat="42.9917" lon="0.31743">
        <ele>1229.3</ele>
        <time>2026-07-08T09:04:47Z</time>
      </trkpt>
      <trkpt lat="42.99171" lon="0.31744">
        <ele>1229.3</ele>
        <time>2026-07-08T09:04:48Z</time>
      </trkpt>
      <trkpt lat="42.99171" lon="0.31745">
        <ele>1230.3</ele>
        <time>2026-07-08T09:04:48Z</time>
      </trkpt>
      <trkpt lat="42.99172" lon="0.31746">
        <ele>1230.3</ele>
        <time>2026-07-08T09:04:49Z</time>
      </trkpt>
      <trkpt lat="42.99172" lon="0.31747">
        <ele>1230.3</ele>
        <time>2026-07-08T09:04:49Z</time>
      </trkpt>
      <trkpt lat="42.99172" lon="0.31747">
        <ele>1230.3</ele>
        <time>2026-07-08T09:04:50Z</time>
      </trkpt>
      <trkpt lat="42.99173" lon="0.31748">
        <ele>1230.3</ele>
        <time>2026-07-08T09:04:50Z</time>
      </trkpt>
      <trkpt lat="42.99173" lon="0.31749">
        <ele>1230.3</ele>
        <time>2026-07-08T09:04:51Z</time>
      </trkpt>
      <trkpt lat="42.99173" lon="0.3175">
        <ele>1230.3</ele>
        <time>2026-07-08T09:04:52Z</time>
      </trkpt>
      <trkpt lat="42.99173" lon="0.3175">
        <ele>1230.3</ele>
        <time>2026-07-08T09:04:52Z</time>
      </trkpt>
      <trkpt lat="42.99173" lon="0.31751">
        <ele>1230.3</ele>
        <time>2026-07-08T09:04:53Z</time>
      </trkpt>
      <trkpt lat="42.99173" lon="0.31752">
        <ele>1230.3</ele>
        <time>2026-07-08T09:04:53Z</time>
      </trkpt>
      <trkpt lat="42.99173" lon="0.31753">
        <ele>1230.3</ele>
        <time>2026-07-08T09:04:54Z</time>
      </trkpt>
      <trkpt lat="42.99173" lon="0.31754">
        <ele>1229.3</ele>
        <time>2026-07-08T09:04:54Z</time>
      </trkpt>
      <trkpt lat="42.99174" lon="0.31755">
        <ele>1229.3</ele>
        <time>2026-07-08T09:04:55Z</time>
      </trkpt>
      <trkpt lat="42.99174" lon="0.31755">
        <ele>1230.3</ele>
        <time>2026-07-08T09:04:55Z</time>
      </trkpt>
      <trkpt lat="42.99174" lon="0.31756">
        <ele>1230.3</ele>
        <time>2026-07-08T09:04:56Z</time>
      </trkpt>
      <trkpt lat="42.99174" lon="0.31757">
        <ele>1229.3</ele>
        <time>2026-07-08T09:04:56Z</time>
      </trkpt>
      <trkpt lat="42.99174" lon="0.31758">
        <ele>1229.3</ele>
        <time>2026-07-08T09:04:57Z</time>
      </trkpt>
      <trkpt lat="42.99174" lon="0.31759">
        <ele>1229.3</ele>
        <time>2026-07-08T09:04:58Z</time>
      </trkpt>
      <trkpt lat="42.99174" lon="0.3176">
        <ele>1229.3</ele>
        <time>2026-07-08T09:04:58Z</time>
      </trkpt>
      <trkpt lat="42.99174" lon="0.3176">
        <ele>1229.3</ele>
        <time>2026-07-08T09:04:59Z</time>
      </trkpt>
      <trkpt lat="42.99174" lon="0.31761">
        <ele>1228.3</ele>
        <time>2026-07-08T09:04:59Z</time>
      </trkpt>
      <trkpt lat="42.99175" lon="0.31761">
        <ele>1228.3</ele>
        <time>2026-07-08T09:05:00Z</time>
      </trkpt>
      <trkpt lat="42.99175" lon="0.31761">
        <ele>1228.3</ele>
        <time>2026-07-08T09:05:00Z</time>
      </trkpt>
      <trkpt lat="42.99176" lon="0.31762">
        <ele>1228.3</ele>
        <time>2026-07-08T09:05:01Z</time>
      </trkpt>
      <trkpt lat="42.99176" lon="0.31763">
        <ele>1228.3</ele>
        <time>2026-07-08T09:05:01Z</time>
      </trkpt>
      <trkpt lat="42.99176" lon="0.31763">
        <ele>1228.3</ele>
        <time>2026-07-08T09:05:02Z</time>
      </trkpt>
      <trkpt lat="42.99177" lon="0.31764">
        <ele>1228.3</ele>
        <time>2026-07-08T09:05:02Z</time>
      </trkpt>
      <trkpt lat="42.99178" lon="0.31764">
        <ele>1228.3</ele>
        <time>2026-07-08T09:05:03Z</time>
      </trkpt>
      <trkpt lat="42.99178" lon="0.31765">
        <ele>1228.3</ele>
        <time>2026-07-08T09:05:04Z</time>
      </trkpt>
      <trkpt lat="42.99178" lon="0.31765">
        <ele>1228.3</ele>
        <time>2026-07-08T09:05:04Z</time>
      </trkpt>
      <trkpt lat="42.99179" lon="0.31766">
        <ele>1228.3</ele>
        <time>2026-07-08T09:05:05Z</time>
      </trkpt>
      <trkpt lat="42.99179" lon="0.31767">
        <ele>1228.3</ele>
        <time>2026-07-08T09:05:05Z</time>
      </trkpt>
      <trkpt lat="42.9918" lon="0.31767">
        <ele>1228.3</ele>
        <time>2026-07-08T09:05:06Z</time>
      </trkpt>
      <trkpt lat="42.9918" lon="0.31768">
        <ele>1228.3</ele>
        <time>2026-07-08T09:05:06Z</time>
      </trkpt>
      <trkpt lat="42.9918" lon="0.31769">
        <ele>1228.3</ele>
        <time>2026-07-08T09:05:07Z</time>
      </trkpt>
      <trkpt lat="42.9918" lon="0.3177">
        <ele>1228.3</ele>
        <time>2026-07-08T09:05:07Z</time>
      </trkpt>
      <trkpt lat="42.99181" lon="0.31771">
        <ele>1228.3</ele>
        <time>2026-07-08T09:05:08Z</time>
      </trkpt>
      <trkpt lat="42.99181" lon="0.31772">
        <ele>1228.3</ele>
        <time>2026-07-08T09:05:08Z</time>
      </trkpt>
      <trkpt lat="42.99181" lon="0.31773">
        <ele>1228.3</ele>
        <time>2026-07-08T09:05:09Z</time>
      </trkpt>
      <trkpt lat="42.99181" lon="0.31774">
        <ele>1227.3</ele>
        <time>2026-07-08T09:05:09Z</time>
      </trkpt>
      <trkpt lat="42.99181" lon="0.31775">
        <ele>1227.3</ele>
        <time>2026-07-08T09:05:10Z</time>
      </trkpt>
      <trkpt lat="42.99181" lon="0.31775">
        <ele>1227.3</ele>
        <time>2026-07-08T09:05:11Z</time>
      </trkpt>
      <trkpt lat="42.99181" lon="0.31776">
        <ele>1227.3</ele>
        <time>2026-07-08T09:05:11Z</time>
      </trkpt>
      <trkpt lat="42.99182" lon="0.31777">
        <ele>1228.3</ele>
        <time>2026-07-08T09:05:12Z</time>
      </trkpt>
      <trkpt lat="42.99182" lon="0.31778">
        <ele>1228.3</ele>
        <time>2026-07-08T09:05:12Z</time>
      </trkpt>
      <trkpt lat="42.99182" lon="0.31779">
        <ele>1228.3</ele>
        <time>2026-07-08T09:05:13Z</time>
      </trkpt>
      <trkpt lat="42.99182" lon="0.31779">
        <ele>1228.3</ele>
        <time>2026-07-08T09:05:13Z</time>
      </trkpt>
      <trkpt lat="42.99183" lon="0.31781">
        <ele>1228.3</ele>
        <time>2026-07-08T09:05:14Z</time>
      </trkpt>
      <trkpt lat="42.99183" lon="0.31782">
        <ele>1228.3</ele>
        <time>2026-07-08T09:05:15Z</time>
      </trkpt>
      <trkpt lat="42.99184" lon="0.31783">
        <ele>1228.3</ele>
        <time>2026-07-08T09:05:15Z</time>
      </trkpt>
      <trkpt lat="42.99184" lon="0.31783">
        <ele>1228.3</ele>
        <time>2026-07-08T09:05:16Z</time>
      </trkpt>
      <trkpt lat="42.99184" lon="0.31784">
        <ele>1229.3</ele>
        <time>2026-07-08T09:05:16Z</time>
      </trkpt>
      <trkpt lat="42.99185" lon="0.31785">
        <ele>1229.3</ele>
        <time>2026-07-08T09:05:17Z</time>
      </trkpt>
      <trkpt lat="42.99186" lon="0.31786">
        <ele>1228.3</ele>
        <time>2026-07-08T09:05:18Z</time>
      </trkpt>
      <trkpt lat="42.99186" lon="0.31787">
        <ele>1228.3</ele>
        <time>2026-07-08T09:05:19Z</time>
      </trkpt>
      <trkpt lat="42.99186" lon="0.31788">
        <ele>1228.3</ele>
        <time>2026-07-08T09:05:19Z</time>
      </trkpt>
      <trkpt lat="42.99187" lon="0.31789">
        <ele>1228.3</ele>
        <time>2026-07-08T09:05:20Z</time>
      </trkpt>
      <trkpt lat="42.99187" lon="0.31789">
        <ele>1228.3</ele>
        <time>2026-07-08T09:05:20Z</time>
      </trkpt>
      <trkpt lat="42.99187" lon="0.3179">
        <ele>1227.3</ele>
        <time>2026-07-08T09:05:21Z</time>
      </trkpt>
      <trkpt lat="42.99188" lon="0.31792">
        <ele>1227.3</ele>
        <time>2026-07-08T09:05:22Z</time>
      </trkpt>
      <trkpt lat="42.99188" lon="0.31793">
        <ele>1227.3</ele>
        <time>2026-07-08T09:05:22Z</time>
      </trkpt>
      <trkpt lat="42.99189" lon="0.31793">
        <ele>1227.3</ele>
        <time>2026-07-08T09:05:23Z</time>
      </trkpt>
      <trkpt lat="42.99189" lon="0.31794">
        <ele>1226.3</ele>
        <time>2026-07-08T09:05:23Z</time>
      </trkpt>
      <trkpt lat="42.99189" lon="0.31795">
        <ele>1226.3</ele>
        <time>2026-07-08T09:05:24Z</time>
      </trkpt>
      <trkpt lat="42.9919" lon="0.31796">
        <ele>1226.3</ele>
        <time>2026-07-08T09:05:24Z</time>
      </trkpt>
      <trkpt lat="42.9919" lon="0.31797">
        <ele>1226.3</ele>
        <time>2026-07-08T09:05:25Z</time>
      </trkpt>
      <trkpt lat="42.9919" lon="0.31798">
        <ele>1226.3</ele>
        <time>2026-07-08T09:05:26Z</time>
      </trkpt>
      <trkpt lat="42.99191" lon="0.31799">
        <ele>1226.3</ele>
        <time>2026-07-08T09:05:26Z</time>
      </trkpt>
      <trkpt lat="42.99191" lon="0.318">
        <ele>1226.3</ele>
        <time>2026-07-08T09:05:27Z</time>
      </trkpt>
      <trkpt lat="42.99191" lon="0.318">
        <ele>1226.3</ele>
        <time>2026-07-08T09:05:27Z</time>
      </trkpt>
      <trkpt lat="42.99192" lon="0.31801">
        <ele>1226.3</ele>
        <time>2026-07-08T09:05:28Z</time>
      </trkpt>
      <trkpt lat="42.99192" lon="0.31802">
        <ele>1226.3</ele>
        <time>2026-07-08T09:05:28Z</time>
      </trkpt>
      <trkpt lat="42.99193" lon="0.31803">
        <ele>1226.3</ele>
        <time>2026-07-08T09:05:29Z</time>
      </trkpt>
      <trkpt lat="42.99193" lon="0.31804">
        <ele>1226.3</ele>
        <time>2026-07-08T09:05:29Z</time>
      </trkpt>
      <trkpt lat="42.99193" lon="0.31805">
        <ele>1226.3</ele>
        <time>2026-07-08T09:05:30Z</time>
      </trkpt>
      <trkpt lat="42.99194" lon="0.31806">
        <ele>1226.3</ele>
        <time>2026-07-08T09:05:30Z</time>
      </trkpt>
      <trkpt lat="42.99194" lon="0.31806">
        <ele>1226.3</ele>
        <time>2026-07-08T09:05:31Z</time>
      </trkpt>
      <trkpt lat="42.99194" lon="0.31807">
        <ele>1226.3</ele>
        <time>2026-07-08T09:05:32Z</time>
      </trkpt>
      <trkpt lat="42.99194" lon="0.31808">
        <ele>1225.3</ele>
        <time>2026-07-08T09:05:32Z</time>
      </trkpt>
      <trkpt lat="42.99195" lon="0.31809">
        <ele>1225.3</ele>
        <time>2026-07-08T09:05:33Z</time>
      </trkpt>
      <trkpt lat="42.99195" lon="0.3181">
        <ele>1225.3</ele>
        <time>2026-07-08T09:05:33Z</time>
      </trkpt>
      <trkpt lat="42.99195" lon="0.31811">
        <ele>1225.3</ele>
        <time>2026-07-08T09:05:34Z</time>
      </trkpt>
      <trkpt lat="42.99196" lon="0.31812">
        <ele>1226.3</ele>
        <time>2026-07-08T09:05:34Z</time>
      </trkpt>
      <trkpt lat="42.99196" lon="0.31813">
        <ele>1226.3</ele>
        <time>2026-07-08T09:05:35Z</time>
      </trkpt>
      <trkpt lat="42.99196" lon="0.31813">
        <ele>1226.3</ele>
        <time>2026-07-08T09:05:35Z</time>
      </trkpt>
      <trkpt lat="42.99196" lon="0.31814">
        <ele>1226.3</ele>
        <time>2026-07-08T09:05:36Z</time>
      </trkpt>
      <trkpt lat="42.99197" lon="0.31815">
        <ele>1226.3</ele>
        <time>2026-07-08T09:05:36Z</time>
      </trkpt>
      <trkpt lat="42.99197" lon="0.31816">
        <ele>1226.3</ele>
        <time>2026-07-08T09:05:37Z</time>
      </trkpt>
      <trkpt lat="42.99197" lon="0.31817">
        <ele>1226.3</ele>
        <time>2026-07-08T09:05:38Z</time>
      </trkpt>
      <trkpt lat="42.99197" lon="0.31818">
        <ele>1225.3</ele>
        <time>2026-07-08T09:05:38Z</time>
      </trkpt>
      <trkpt lat="42.99198" lon="0.31819">
        <ele>1225.3</ele>
        <time>2026-07-08T09:05:39Z</time>
      </trkpt>
      <trkpt lat="42.99198" lon="0.3182">
        <ele>1225.3</ele>
        <time>2026-07-08T09:05:39Z</time>
      </trkpt>
      <trkpt lat="42.99198" lon="0.31821">
        <ele>1225.3</ele>
        <time>2026-07-08T09:05:40Z</time>
      </trkpt>
      <trkpt lat="42.99199" lon="0.31821">
        <ele>1225.3</ele>
        <time>2026-07-08T09:05:40Z</time>
      </trkpt>
      <trkpt lat="42.99199" lon="0.31822">
        <ele>1225.3</ele>
        <time>2026-07-08T09:05:41Z</time>
      </trkpt>
      <trkpt lat="42.992" lon="0.31823">
        <ele>1226.3</ele>
        <time>2026-07-08T09:05:41Z</time>
      </trkpt>
      <trkpt lat="42.992" lon="0.31824">
        <ele>1226.3</ele>
        <time>2026-07-08T09:05:42Z</time>
      </trkpt>
      <trkpt lat="42.992" lon="0.31824">
        <ele>1226.3</ele>
        <time>2026-07-08T09:05:42Z</time>
      </trkpt>
      <trkpt lat="42.992" lon="0.31826">
        <ele>1226.3</ele>
        <time>2026-07-08T09:05:43Z</time>
      </trkpt>
      <trkpt lat="42.99201" lon="0.31826">
        <ele>1225.3</ele>
        <time>2026-07-08T09:05:43Z</time>
      </trkpt>
      <trkpt lat="42.99201" lon="0.31827">
        <ele>1225.3</ele>
        <time>2026-07-08T09:05:44Z</time>
      </trkpt>
      <trkpt lat="42.99201" lon="0.31828">
        <ele>1226.3</ele>
        <time>2026-07-08T09:05:45Z</time>
      </trkpt>
      <trkpt lat="42.99202" lon="0.31828">
        <ele>1226.3</ele>
        <time>2026-07-08T09:05:45Z</time>
      </trkpt>
      <trkpt lat="42.99202" lon="0.31829">
        <ele>1226.3</ele>
        <time>2026-07-08T09:05:46Z</time>
      </trkpt>
      <trkpt lat="42.99202" lon="0.31829">
        <ele>1226.3</ele>
        <time>2026-07-08T09:05:46Z</time>
      </trkpt>
      <trkpt lat="42.99203" lon="0.3183">
        <ele>1226.3</ele>
        <time>2026-07-08T09:05:47Z</time>
      </trkpt>
      <trkpt lat="42.99203" lon="0.31831">
        <ele>1226.3</ele>
        <time>2026-07-08T09:05:47Z</time>
      </trkpt>
      <trkpt lat="42.99203" lon="0.31832">
        <ele>1226.3</ele>
        <time>2026-07-08T09:05:48Z</time>
      </trkpt>
      <trkpt lat="42.99204" lon="0.31832">
        <ele>1226.3</ele>
        <time>2026-07-08T09:05:48Z</time>
      </trkpt>
      <trkpt lat="42.99204" lon="0.31833">
        <ele>1226.3</ele>
        <time>2026-07-08T09:05:49Z</time>
      </trkpt>
      <trkpt lat="42.99205" lon="0.31833">
        <ele>1226.3</ele>
        <time>2026-07-08T09:05:49Z</time>
      </trkpt>
      <trkpt lat="42.99205" lon="0.31834">
        <ele>1226.3</ele>
        <time>2026-07-08T09:05:50Z</time>
      </trkpt>
      <trkpt lat="42.99206" lon="0.31834">
        <ele>1225.3</ele>
        <time>2026-07-08T09:05:50Z</time>
      </trkpt>
      <trkpt lat="42.99207" lon="0.31834">
        <ele>1225.3</ele>
        <time>2026-07-08T09:05:51Z</time>
      </trkpt>
      <trkpt lat="42.99208" lon="0.31835">
        <ele>1225.3</ele>
        <time>2026-07-08T09:05:52Z</time>
      </trkpt>
      <trkpt lat="42.99208" lon="0.31835">
        <ele>1225.3</ele>
        <time>2026-07-08T09:05:52Z</time>
      </trkpt>
      <trkpt lat="42.99209" lon="0.31835">
        <ele>1225.3</ele>
        <time>2026-07-08T09:05:53Z</time>
      </trkpt>
      <trkpt lat="42.9921" lon="0.31835">
        <ele>1224.3</ele>
        <time>2026-07-08T09:05:53Z</time>
      </trkpt>
      <trkpt lat="42.99211" lon="0.31835">
        <ele>1224.3</ele>
        <time>2026-07-08T09:05:54Z</time>
      </trkpt>
      <trkpt lat="42.99212" lon="0.31835">
        <ele>1224.3</ele>
        <time>2026-07-08T09:05:54Z</time>
      </trkpt>
      <trkpt lat="42.99213" lon="0.31835">
        <ele>1224.3</ele>
        <time>2026-07-08T09:05:55Z</time>
      </trkpt>
      <trkpt lat="42.99213" lon="0.31835">
        <ele>1224.3</ele>
        <time>2026-07-08T09:05:55Z</time>
      </trkpt>
      <trkpt lat="42.99214" lon="0.31835">
        <ele>1224.3</ele>
        <time>2026-07-08T09:05:56Z</time>
      </trkpt>
      <trkpt lat="42.99215" lon="0.31834">
        <ele>1223.3</ele>
        <time>2026-07-08T09:05:56Z</time>
      </trkpt>
      <trkpt lat="42.99215" lon="0.31834">
        <ele>1223.3</ele>
        <time>2026-07-08T09:05:57Z</time>
      </trkpt>
      <trkpt lat="42.99216" lon="0.31833">
        <ele>1223.3</ele>
        <time>2026-07-08T09:05:57Z</time>
      </trkpt>
      <trkpt lat="42.99217" lon="0.31833">
        <ele>1223.3</ele>
        <time>2026-07-08T09:05:58Z</time>
      </trkpt>
      <trkpt lat="42.99217" lon="0.31833">
        <ele>1223.3</ele>
        <time>2026-07-08T09:05:58Z</time>
      </trkpt>
      <trkpt lat="42.99218" lon="0.31832">
        <ele>1223.3</ele>
        <time>2026-07-08T09:05:59Z</time>
      </trkpt>
      <trkpt lat="42.99219" lon="0.31832">
        <ele>1223.3</ele>
        <time>2026-07-08T09:06:00Z</time>
      </trkpt>
      <trkpt lat="42.99219" lon="0.31832">
        <ele>1223.3</ele>
        <time>2026-07-08T09:06:00Z</time>
      </trkpt>
      <trkpt lat="42.9922" lon="0.31831">
        <ele>1223.3</ele>
        <time>2026-07-08T09:06:01Z</time>
      </trkpt>
      <trkpt lat="42.9922" lon="0.31831">
        <ele>1223.3</ele>
        <time>2026-07-08T09:06:01Z</time>
      </trkpt>
      <trkpt lat="42.99221" lon="0.3183">
        <ele>1223.3</ele>
        <time>2026-07-08T09:06:02Z</time>
      </trkpt>
      <trkpt lat="42.99221" lon="0.3183">
        <ele>1223.3</ele>
        <time>2026-07-08T09:06:02Z</time>
      </trkpt>
      <trkpt lat="42.99222" lon="0.31829">
        <ele>1223.3</ele>
        <time>2026-07-08T09:06:03Z</time>
      </trkpt>
      <trkpt lat="42.99222" lon="0.31829">
        <ele>1222.3</ele>
        <time>2026-07-08T09:06:03Z</time>
      </trkpt>
      <trkpt lat="42.99223" lon="0.31828">
        <ele>1222.3</ele>
        <time>2026-07-08T09:06:04Z</time>
      </trkpt>
      <trkpt lat="42.99223" lon="0.31828">
        <ele>1222.3</ele>
        <time>2026-07-08T09:06:04Z</time>
      </trkpt>
      <trkpt lat="42.99224" lon="0.31827">
        <ele>1222.3</ele>
        <time>2026-07-08T09:06:05Z</time>
      </trkpt>
      <trkpt lat="42.99224" lon="0.31826">
        <ele>1223.3</ele>
        <time>2026-07-08T09:06:05Z</time>
      </trkpt>
      <trkpt lat="42.99225" lon="0.31826">
        <ele>1223.3</ele>
        <time>2026-07-08T09:06:06Z</time>
      </trkpt>
      <trkpt lat="42.99225" lon="0.31825">
        <ele>1222.3</ele>
        <time>2026-07-08T09:06:07Z</time>
      </trkpt>
      <trkpt lat="42.99225" lon="0.31824">
        <ele>1221.3</ele>
        <time>2026-07-08T09:06:07Z</time>
      </trkpt>
      <trkpt lat="42.99226" lon="0.31823">
        <ele>1221.3</ele>
        <time>2026-07-08T09:06:08Z</time>
      </trkpt>
      <trkpt lat="42.99226" lon="0.31822">
        <ele>1221.3</ele>
        <time>2026-07-08T09:06:08Z</time>
      </trkpt>
      <trkpt lat="42.99227" lon="0.31821">
        <ele>1221.3</ele>
        <time>2026-07-08T09:06:09Z</time>
      </trkpt>
      <trkpt lat="42.99228" lon="0.31821">
        <ele>1222.3</ele>
        <time>2026-07-08T09:06:09Z</time>
      </trkpt>
      <trkpt lat="42.99228" lon="0.3182">
        <ele>1222.3</ele>
        <time>2026-07-08T09:06:10Z</time>
      </trkpt>
      <trkpt lat="42.99228" lon="0.31819">
        <ele>1221.3</ele>
        <time>2026-07-08T09:06:10Z</time>
      </trkpt>
      <trkpt lat="42.99229" lon="0.31818">
        <ele>1221.3</ele>
        <time>2026-07-08T09:06:11Z</time>
      </trkpt>
      <trkpt lat="42.99229" lon="0.31817">
        <ele>1221.3</ele>
        <time>2026-07-08T09:06:11Z</time>
      </trkpt>
      <trkpt lat="42.9923" lon="0.31817">
        <ele>1221.3</ele>
        <time>2026-07-08T09:06:12Z</time>
      </trkpt>
      <trkpt lat="42.9923" lon="0.31816">
        <ele>1221.3</ele>
        <time>2026-07-08T09:06:12Z</time>
      </trkpt>
      <trkpt lat="42.99231" lon="0.31815">
        <ele>1221.3</ele>
        <time>2026-07-08T09:06:13Z</time>
      </trkpt>
      <trkpt lat="42.99232" lon="0.31815">
        <ele>1221.3</ele>
        <time>2026-07-08T09:06:14Z</time>
      </trkpt>
      <trkpt lat="42.99232" lon="0.31814">
        <ele>1221.3</ele>
        <time>2026-07-08T09:06:14Z</time>
      </trkpt>
      <trkpt lat="42.99233" lon="0.31814">
        <ele>1221.3</ele>
        <time>2026-07-08T09:06:15Z</time>
      </trkpt>
      <trkpt lat="42.99233" lon="0.31813">
        <ele>1221.3</ele>
        <time>2026-07-08T09:06:15Z</time>
      </trkpt>
      <trkpt lat="42.99234" lon="0.31813">
        <ele>1221.3</ele>
        <time>2026-07-08T09:06:16Z</time>
      </trkpt>
      <trkpt lat="42.99235" lon="0.31811">
        <ele>1221.3</ele>
        <time>2026-07-08T09:06:17Z</time>
      </trkpt>
      <trkpt lat="42.99236" lon="0.31811">
        <ele>1221.3</ele>
        <time>2026-07-08T09:06:17Z</time>
      </trkpt>
      <trkpt lat="42.99236" lon="0.3181">
        <ele>1221.3</ele>
        <time>2026-07-08T09:06:18Z</time>
      </trkpt>
      <trkpt lat="42.99237" lon="0.31809">
        <ele>1221.3</ele>
        <time>2026-07-08T09:06:18Z</time>
      </trkpt>
      <trkpt lat="42.99237" lon="0.31809">
        <ele>1221.3</ele>
        <time>2026-07-08T09:06:19Z</time>
      </trkpt>
      <trkpt lat="42.99238" lon="0.31808">
        <ele>1221.3</ele>
        <time>2026-07-08T09:06:19Z</time>
      </trkpt>
      <trkpt lat="42.99239" lon="0.31808">
        <ele>1220.3</ele>
        <time>2026-07-08T09:06:20Z</time>
      </trkpt>
      <trkpt lat="42.99239" lon="0.31807">
        <ele>1220.3</ele>
        <time>2026-07-08T09:06:21Z</time>
      </trkpt>
      <trkpt lat="42.9924" lon="0.31807">
        <ele>1220.3</ele>
        <time>2026-07-08T09:06:21Z</time>
      </trkpt>
      <trkpt lat="42.99241" lon="0.31806">
        <ele>1220.3</ele>
        <time>2026-07-08T09:06:22Z</time>
      </trkpt>
      <trkpt lat="42.99242" lon="0.31805">
        <ele>1219.3</ele>
        <time>2026-07-08T09:06:23Z</time>
      </trkpt>
      <trkpt lat="42.99242" lon="0.31804">
        <ele>1219.3</ele>
        <time>2026-07-08T09:06:23Z</time>
      </trkpt>
      <trkpt lat="42.99243" lon="0.31804">
        <ele>1219.3</ele>
        <time>2026-07-08T09:06:24Z</time>
      </trkpt>
      <trkpt lat="42.99243" lon="0.31803">
        <ele>1220.3</ele>
        <time>2026-07-08T09:06:24Z</time>
      </trkpt>
      <trkpt lat="42.99244" lon="0.31803">
        <ele>1220.3</ele>
        <time>2026-07-08T09:06:25Z</time>
      </trkpt>
      <trkpt lat="42.99244" lon="0.31803">
        <ele>1221.3</ele>
        <time>2026-07-08T09:06:25Z</time>
      </trkpt>
      <trkpt lat="42.99245" lon="0.31802">
        <ele>1221.3</ele>
        <time>2026-07-08T09:06:26Z</time>
      </trkpt>
      <trkpt lat="42.99246" lon="0.31802">
        <ele>1221.3</ele>
        <time>2026-07-08T09:06:27Z</time>
      </trkpt>
      <trkpt lat="42.99246" lon="0.31802">
        <ele>1221.3</ele>
        <time>2026-07-08T09:06:27Z</time>
      </trkpt>
      <trkpt lat="42.99247" lon="0.31802">
        <ele>1221.3</ele>
        <time>2026-07-08T09:06:28Z</time>
      </trkpt>
      <trkpt lat="42.99248" lon="0.31801">
        <ele>1221.3</ele>
        <time>2026-07-08T09:06:28Z</time>
      </trkpt>
      <trkpt lat="42.99248" lon="0.31801">
        <ele>1221.3</ele>
        <time>2026-07-08T09:06:29Z</time>
      </trkpt>
      <trkpt lat="42.99249" lon="0.31801">
        <ele>1221.3</ele>
        <time>2026-07-08T09:06:29Z</time>
      </trkpt>
      <trkpt lat="42.9925" lon="0.31801">
        <ele>1221.3</ele>
        <time>2026-07-08T09:06:30Z</time>
      </trkpt>
      <trkpt lat="42.9925" lon="0.318">
        <ele>1221.3</ele>
        <time>2026-07-08T09:06:30Z</time>
      </trkpt>
      <trkpt lat="42.99251" lon="0.318">
        <ele>1221.3</ele>
        <time>2026-07-08T09:06:31Z</time>
      </trkpt>
      <trkpt lat="42.99252" lon="0.31799">
        <ele>1222.3</ele>
        <time>2026-07-08T09:06:32Z</time>
      </trkpt>
      <trkpt lat="42.99252" lon="0.31799">
        <ele>1222.3</ele>
        <time>2026-07-08T09:06:32Z</time>
      </trkpt>
      <trkpt lat="42.99253" lon="0.31799">
        <ele>1222.3</ele>
        <time>2026-07-08T09:06:33Z</time>
      </trkpt>
      <trkpt lat="42.99253" lon="0.31798">
        <ele>1221.3</ele>
        <time>2026-07-08T09:06:33Z</time>
      </trkpt>
      <trkpt lat="42.99254" lon="0.31798">
        <ele>1221.3</ele>
        <time>2026-07-08T09:06:34Z</time>
      </trkpt>
      <trkpt lat="42.99255" lon="0.31798">
        <ele>1221.3</ele>
        <time>2026-07-08T09:06:34Z</time>
      </trkpt>
      <trkpt lat="42.99255" lon="0.31797">
        <ele>1221.3</ele>
        <time>2026-07-08T09:06:35Z</time>
      </trkpt>
      <trkpt lat="42.99256" lon="0.31797">
        <ele>1220.3</ele>
        <time>2026-07-08T09:06:35Z</time>
      </trkpt>
      <trkpt lat="42.99256" lon="0.31797">
        <ele>1220.3</ele>
        <time>2026-07-08T09:06:36Z</time>
      </trkpt>
      <trkpt lat="42.99257" lon="0.31796">
        <ele>1220.3</ele>
        <time>2026-07-08T09:06:36Z</time>
      </trkpt>
      <trkpt lat="42.99258" lon="0.31796">
        <ele>1220.3</ele>
        <time>2026-07-08T09:06:37Z</time>
      </trkpt>
      <trkpt lat="42.99258" lon="0.31795">
        <ele>1220.3</ele>
        <time>2026-07-08T09:06:38Z</time>
      </trkpt>
      <trkpt lat="42.99258" lon="0.31795">
        <ele>1220.3</ele>
        <time>2026-07-08T09:06:38Z</time>
      </trkpt>
      <trkpt lat="42.99259" lon="0.31794">
        <ele>1220.3</ele>
        <time>2026-07-08T09:06:39Z</time>
      </trkpt>
      <trkpt lat="42.9926" lon="0.31794">
        <ele>1221.3</ele>
        <time>2026-07-08T09:06:39Z</time>
      </trkpt>
      <trkpt lat="42.9926" lon="0.31794">
        <ele>1221.3</ele>
        <time>2026-07-08T09:06:40Z</time>
      </trkpt>
      <trkpt lat="42.99261" lon="0.31793">
        <ele>1220.3</ele>
        <time>2026-07-08T09:06:40Z</time>
      </trkpt>
      <trkpt lat="42.99261" lon="0.31793">
        <ele>1220.3</ele>
        <time>2026-07-08T09:06:41Z</time>
      </trkpt>
      <trkpt lat="42.99262" lon="0.31793">
        <ele>1220.3</ele>
        <time>2026-07-08T09:06:41Z</time>
      </trkpt>
      <trkpt lat="42.99263" lon="0.31792">
        <ele>1220.3</ele>
        <time>2026-07-08T09:06:42Z</time>
      </trkpt>
      <trkpt lat="42.99263" lon="0.31792">
        <ele>1220.3</ele>
        <time>2026-07-08T09:06:42Z</time>
      </trkpt>
      <trkpt lat="42.99264" lon="0.31792">
        <ele>1220.3</ele>
        <time>2026-07-08T09:06:43Z</time>
      </trkpt>
      <trkpt lat="42.99264" lon="0.31792">
        <ele>1220.3</ele>
        <time>2026-07-08T09:06:44Z</time>
      </trkpt>
      <trkpt lat="42.99265" lon="0.31792">
        <ele>1219.3</ele>
        <time>2026-07-08T09:06:44Z</time>
      </trkpt>
      <trkpt lat="42.99266" lon="0.31791">
        <ele>1219.3</ele>
        <time>2026-07-08T09:06:45Z</time>
      </trkpt>
      <trkpt lat="42.99266" lon="0.31791">
        <ele>1219.3</ele>
        <time>2026-07-08T09:06:45Z</time>
      </trkpt>
      <trkpt lat="42.99267" lon="0.31791">
        <ele>1219.3</ele>
        <time>2026-07-08T09:06:46Z</time>
      </trkpt>
      <trkpt lat="42.99268" lon="0.31791">
        <ele>1219.3</ele>
        <time>2026-07-08T09:06:46Z</time>
      </trkpt>
      <trkpt lat="42.99269" lon="0.3179">
        <ele>1219.3</ele>
        <time>2026-07-08T09:06:47Z</time>
      </trkpt>
      <trkpt lat="42.99269" lon="0.3179">
        <ele>1219.3</ele>
        <time>2026-07-08T09:06:48Z</time>
      </trkpt>
      <trkpt lat="42.99269" lon="0.3179">
        <ele>1219.3</ele>
        <time>2026-07-08T09:06:48Z</time>
      </trkpt>
      <trkpt lat="42.9927" lon="0.31789">
        <ele>1219.3</ele>
        <time>2026-07-08T09:06:49Z</time>
      </trkpt>
      <trkpt lat="42.9927" lon="0.31789">
        <ele>1219.3</ele>
        <time>2026-07-08T09:06:49Z</time>
      </trkpt>
      <trkpt lat="42.99271" lon="0.31789">
        <ele>1219.3</ele>
        <time>2026-07-08T09:06:50Z</time>
      </trkpt>
      <trkpt lat="42.99272" lon="0.31788">
        <ele>1220.3</ele>
        <time>2026-07-08T09:06:50Z</time>
      </trkpt>
      <trkpt lat="42.99272" lon="0.31788">
        <ele>1220.3</ele>
        <time>2026-07-08T09:06:51Z</time>
      </trkpt>
      <trkpt lat="42.99273" lon="0.31787">
        <ele>1219.3</ele>
        <time>2026-07-08T09:06:51Z</time>
      </trkpt>
      <trkpt lat="42.99273" lon="0.31787">
        <ele>1219.3</ele>
        <time>2026-07-08T09:06:52Z</time>
      </trkpt>
      <trkpt lat="42.99274" lon="0.31787">
        <ele>1219.3</ele>
        <time>2026-07-08T09:06:52Z</time>
      </trkpt>
      <trkpt lat="42.99275" lon="0.31786">
        <ele>1219.3</ele>
        <time>2026-07-08T09:06:53Z</time>
      </trkpt>
      <trkpt lat="42.99275" lon="0.31786">
        <ele>1219.3</ele>
        <time>2026-07-08T09:06:54Z</time>
      </trkpt>
      <trkpt lat="42.99276" lon="0.31786">
        <ele>1219.3</ele>
        <time>2026-07-08T09:06:54Z</time>
      </trkpt>
      <trkpt lat="42.99277" lon="0.31785">
        <ele>1219.3</ele>
        <time>2026-07-08T09:06:55Z</time>
      </trkpt>
      <trkpt lat="42.99277" lon="0.31785">
        <ele>1219.3</ele>
        <time>2026-07-08T09:06:55Z</time>
      </trkpt>
      <trkpt lat="42.99278" lon="0.31785">
        <ele>1219.3</ele>
        <time>2026-07-08T09:06:56Z</time>
      </trkpt>
      <trkpt lat="42.99278" lon="0.31785">
        <ele>1219.3</ele>
        <time>2026-07-08T09:06:56Z</time>
      </trkpt>
      <trkpt lat="42.99279" lon="0.31784">
        <ele>1219.3</ele>
        <time>2026-07-08T09:06:57Z</time>
      </trkpt>
      <trkpt lat="42.99279" lon="0.31784">
        <ele>1218.3</ele>
        <time>2026-07-08T09:06:57Z</time>
      </trkpt>
      <trkpt lat="42.9928" lon="0.31784">
        <ele>1218.3</ele>
        <time>2026-07-08T09:06:58Z</time>
      </trkpt>
      <trkpt lat="42.9928" lon="0.31784">
        <ele>1218.3</ele>
        <time>2026-07-08T09:06:58Z</time>
      </trkpt>
      <trkpt lat="42.99281" lon="0.31784">
        <ele>1218.3</ele>
        <time>2026-07-08T09:06:59Z</time>
      </trkpt>
      <trkpt lat="42.99282" lon="0.31784">
        <ele>1218.3</ele>
        <time>2026-07-08T09:07:00Z</time>
      </trkpt>
      <trkpt lat="42.99282" lon="0.31785">
        <ele>1218.3</ele>
        <time>2026-07-08T09:07:00Z</time>
      </trkpt>
      <trkpt lat="42.99283" lon="0.31785">
        <ele>1218.3</ele>
        <time>2026-07-08T09:07:01Z</time>
      </trkpt>
      <trkpt lat="42.99283" lon="0.31785">
        <ele>1218.3</ele>
        <time>2026-07-08T09:07:01Z</time>
      </trkpt>
      <trkpt lat="42.99284" lon="0.31784">
        <ele>1218.3</ele>
        <time>2026-07-08T09:07:02Z</time>
      </trkpt>
      <trkpt lat="42.99285" lon="0.31784">
        <ele>1217.3</ele>
        <time>2026-07-08T09:07:02Z</time>
      </trkpt>
      <trkpt lat="42.99285" lon="0.31784">
        <ele>1217.3</ele>
        <time>2026-07-08T09:07:03Z</time>
      </trkpt>
      <trkpt lat="42.99286" lon="0.31784">
        <ele>1217.3</ele>
        <time>2026-07-08T09:07:03Z</time>
      </trkpt>
      <trkpt lat="42.99287" lon="0.31784">
        <ele>1217.3</ele>
        <time>2026-07-08T09:07:04Z</time>
      </trkpt>
      <trkpt lat="42.99288" lon="0.31784">
        <ele>1217.3</ele>
        <time>2026-07-08T09:07:04Z</time>
      </trkpt>
      <trkpt lat="42.99288" lon="0.31784">
        <ele>1217.3</ele>
        <time>2026-07-08T09:07:05Z</time>
      </trkpt>
      <trkpt lat="42.99289" lon="0.31784">
        <ele>1215.3</ele>
        <time>2026-07-08T09:07:06Z</time>
      </trkpt>
      <trkpt lat="42.99289" lon="0.31784">
        <ele>1215.3</ele>
        <time>2026-07-08T09:07:06Z</time>
      </trkpt>
      <trkpt lat="42.9929" lon="0.31784">
        <ele>1215.3</ele>
        <time>2026-07-08T09:07:07Z</time>
      </trkpt>
      <trkpt lat="42.9929" lon="0.31784">
        <ele>1215.3</ele>
        <time>2026-07-08T09:07:07Z</time>
      </trkpt>
      <trkpt lat="42.99291" lon="0.31784">
        <ele>1215.3</ele>
        <time>2026-07-08T09:07:08Z</time>
      </trkpt>
      <trkpt lat="42.99291" lon="0.31784">
        <ele>1215.3</ele>
        <time>2026-07-08T09:07:08Z</time>
      </trkpt>
      <trkpt lat="42.99292" lon="0.31784">
        <ele>1215.3</ele>
        <time>2026-07-08T09:07:09Z</time>
      </trkpt>
      <trkpt lat="42.99292" lon="0.31784">
        <ele>1215.3</ele>
        <time>2026-07-08T09:07:09Z</time>
      </trkpt>
      <trkpt lat="42.99293" lon="0.31783">
        <ele>1215.3</ele>
        <time>2026-07-08T09:07:10Z</time>
      </trkpt>
      <trkpt lat="42.99293" lon="0.31783">
        <ele>1215.3</ele>
        <time>2026-07-08T09:07:10Z</time>
      </trkpt>
      <trkpt lat="42.99294" lon="0.31783">
        <ele>1215.3</ele>
        <time>2026-07-08T09:07:11Z</time>
      </trkpt>
      <trkpt lat="42.99294" lon="0.31783">
        <ele>1215.3</ele>
        <time>2026-07-08T09:07:12Z</time>
      </trkpt>
      <trkpt lat="42.99295" lon="0.31783">
        <ele>1215.3</ele>
        <time>2026-07-08T09:07:12Z</time>
      </trkpt>
      <trkpt lat="42.99296" lon="0.31783">
        <ele>1215.3</ele>
        <time>2026-07-08T09:07:13Z</time>
      </trkpt>
      <trkpt lat="42.99296" lon="0.31783">
        <ele>1215.3</ele>
        <time>2026-07-08T09:07:13Z</time>
      </trkpt>
      <trkpt lat="42.99297" lon="0.31784">
        <ele>1215.3</ele>
        <time>2026-07-08T09:07:14Z</time>
      </trkpt>
      <trkpt lat="42.99297" lon="0.31784">
        <ele>1215.3</ele>
        <time>2026-07-08T09:07:14Z</time>
      </trkpt>
      <trkpt lat="42.99298" lon="0.31784">
        <ele>1215.3</ele>
        <time>2026-07-08T09:07:15Z</time>
      </trkpt>
      <trkpt lat="42.99298" lon="0.31784">
        <ele>1215.3</ele>
        <time>2026-07-08T09:07:15Z</time>
      </trkpt>
      <trkpt lat="42.99299" lon="0.31784">
        <ele>1215.3</ele>
        <time>2026-07-08T09:07:16Z</time>
      </trkpt>
      <trkpt lat="42.993" lon="0.31784">
        <ele>1215.3</ele>
        <time>2026-07-08T09:07:16Z</time>
      </trkpt>
      <trkpt lat="42.993" lon="0.31784">
        <ele>1215.3</ele>
        <time>2026-07-08T09:07:17Z</time>
      </trkpt>
      <trkpt lat="42.99301" lon="0.31785">
        <ele>1214.3</ele>
        <time>2026-07-08T09:07:18Z</time>
      </trkpt>
      <trkpt lat="42.99301" lon="0.31785">
        <ele>1214.3</ele>
        <time>2026-07-08T09:07:18Z</time>
      </trkpt>
      <trkpt lat="42.99302" lon="0.31785">
        <ele>1214.3</ele>
        <time>2026-07-08T09:07:19Z</time>
      </trkpt>
      <trkpt lat="42.99303" lon="0.31785">
        <ele>1214.3</ele>
        <time>2026-07-08T09:07:19Z</time>
      </trkpt>
      <trkpt lat="42.99304" lon="0.31785">
        <ele>1214.3</ele>
        <time>2026-07-08T09:07:20Z</time>
      </trkpt>
      <trkpt lat="42.99304" lon="0.31785">
        <ele>1214.3</ele>
        <time>2026-07-08T09:07:20Z</time>
      </trkpt>
      <trkpt lat="42.99305" lon="0.31786">
        <ele>1214.3</ele>
        <time>2026-07-08T09:07:21Z</time>
      </trkpt>
      <trkpt lat="42.99306" lon="0.31786">
        <ele>1214.3</ele>
        <time>2026-07-08T09:07:21Z</time>
      </trkpt>
      <trkpt lat="42.99306" lon="0.31786">
        <ele>1214.3</ele>
        <time>2026-07-08T09:07:22Z</time>
      </trkpt>
      <trkpt lat="42.99307" lon="0.31786">
        <ele>1215.3</ele>
        <time>2026-07-08T09:07:22Z</time>
      </trkpt>
      <trkpt lat="42.99308" lon="0.31787">
        <ele>1215.3</ele>
        <time>2026-07-08T09:07:23Z</time>
      </trkpt>
      <trkpt lat="42.99308" lon="0.31787">
        <ele>1216.3</ele>
        <time>2026-07-08T09:07:23Z</time>
      </trkpt>
      <trkpt lat="42.99309" lon="0.31787">
        <ele>1216.3</ele>
        <time>2026-07-08T09:07:24Z</time>
      </trkpt>
      <trkpt lat="42.9931" lon="0.31788">
        <ele>1216.3</ele>
        <time>2026-07-08T09:07:25Z</time>
      </trkpt>
      <trkpt lat="42.99311" lon="0.31788">
        <ele>1216.3</ele>
        <time>2026-07-08T09:07:25Z</time>
      </trkpt>
      <trkpt lat="42.99312" lon="0.31788">
        <ele>1216.3</ele>
        <time>2026-07-08T09:07:26Z</time>
      </trkpt>
      <trkpt lat="42.99312" lon="0.31788">
        <ele>1216.3</ele>
        <time>2026-07-08T09:07:26Z</time>
      </trkpt>
      <trkpt lat="42.99313" lon="0.31789">
        <ele>1216.3</ele>
        <time>2026-07-08T09:07:27Z</time>
      </trkpt>
      <trkpt lat="42.99314" lon="0.31789">
        <ele>1216.3</ele>
        <time>2026-07-08T09:07:27Z</time>
      </trkpt>
      <trkpt lat="42.99315" lon="0.31789">
        <ele>1216.3</ele>
        <time>2026-07-08T09:07:28Z</time>
      </trkpt>
      <trkpt lat="42.99316" lon="0.3179">
        <ele>1216.3</ele>
        <time>2026-07-08T09:07:28Z</time>
      </trkpt>
      <trkpt lat="42.99316" lon="0.3179">
        <ele>1216.3</ele>
        <time>2026-07-08T09:07:29Z</time>
      </trkpt>
      <trkpt lat="42.99317" lon="0.3179">
        <ele>1216.3</ele>
        <time>2026-07-08T09:07:29Z</time>
      </trkpt>
      <trkpt lat="42.99318" lon="0.3179">
        <ele>1216.3</ele>
        <time>2026-07-08T09:07:30Z</time>
      </trkpt>
      <trkpt lat="42.99319" lon="0.31791">
        <ele>1216.3</ele>
        <time>2026-07-08T09:07:31Z</time>
      </trkpt>
      <trkpt lat="42.99319" lon="0.31791">
        <ele>1217.3</ele>
        <time>2026-07-08T09:07:31Z</time>
      </trkpt>
      <trkpt lat="42.99321" lon="0.31792">
        <ele>1217.3</ele>
        <time>2026-07-08T09:07:32Z</time>
      </trkpt>
      <trkpt lat="42.99322" lon="0.31792">
        <ele>1217.3</ele>
        <time>2026-07-08T09:07:33Z</time>
      </trkpt>
      <trkpt lat="42.99323" lon="0.31794">
        <ele>1217.3</ele>
        <time>2026-07-08T09:07:34Z</time>
      </trkpt>
      <trkpt lat="42.99324" lon="0.31794">
        <ele>1217.3</ele>
        <time>2026-07-08T09:07:34Z</time>
      </trkpt>
      <trkpt lat="42.99324" lon="0.31795">
        <ele>1217.3</ele>
        <time>2026-07-08T09:07:35Z</time>
      </trkpt>
      <trkpt lat="42.99325" lon="0.31796">
        <ele>1217.3</ele>
        <time>2026-07-08T09:07:35Z</time>
      </trkpt>
      <trkpt lat="42.99326" lon="0.31796">
        <ele>1217.3</ele>
        <time>2026-07-08T09:07:36Z</time>
      </trkpt>
      <trkpt lat="42.99327" lon="0.31797">
        <ele>1217.3</ele>
        <time>2026-07-08T09:07:37Z</time>
      </trkpt>
      <trkpt lat="42.99328" lon="0.31798">
        <ele>1217.3</ele>
        <time>2026-07-08T09:07:38Z</time>
      </trkpt>
      <trkpt lat="42.99329" lon="0.31798">
        <ele>1217.3</ele>
        <time>2026-07-08T09:07:39Z</time>
      </trkpt>
      <trkpt lat="42.99329" lon="0.31799">
        <ele>1216.3</ele>
        <time>2026-07-08T09:07:39Z</time>
      </trkpt>
      <trkpt lat="42.9933" lon="0.31799">
        <ele>1216.3</ele>
        <time>2026-07-08T09:07:40Z</time>
      </trkpt>
      <trkpt lat="42.9933" lon="0.31799">
        <ele>1216.3</ele>
        <time>2026-07-08T09:07:40Z</time>
      </trkpt>
      <trkpt lat="42.99331" lon="0.318">
        <ele>1216.3</ele>
        <time>2026-07-08T09:07:41Z</time>
      </trkpt>
      <trkpt lat="42.99332" lon="0.318">
        <ele>1216.3</ele>
        <time>2026-07-08T09:07:42Z</time>
      </trkpt>
      <trkpt lat="42.99333" lon="0.318">
        <ele>1216.3</ele>
        <time>2026-07-08T09:07:42Z</time>
      </trkpt>
      <trkpt lat="42.99334" lon="0.318">
        <ele>1216.3</ele>
        <time>2026-07-08T09:07:43Z</time>
      </trkpt>
      <trkpt lat="42.99334" lon="0.31801">
        <ele>1216.3</ele>
        <time>2026-07-08T09:07:43Z</time>
      </trkpt>
      <trkpt lat="42.99335" lon="0.31801">
        <ele>1216.3</ele>
        <time>2026-07-08T09:07:44Z</time>
      </trkpt>
      <trkpt lat="42.99336" lon="0.31801">
        <ele>1216.3</ele>
        <time>2026-07-08T09:07:44Z</time>
      </trkpt>
      <trkpt lat="42.99337" lon="0.31801">
        <ele>1216.3</ele>
        <time>2026-07-08T09:07:45Z</time>
      </trkpt>
      <trkpt lat="42.99338" lon="0.31801">
        <ele>1216.3</ele>
        <time>2026-07-08T09:07:46Z</time>
      </trkpt>
      <trkpt lat="42.99338" lon="0.31801">
        <ele>1216.3</ele>
        <time>2026-07-08T09:07:46Z</time>
      </trkpt>
      <trkpt lat="42.99339" lon="0.31801">
        <ele>1216.3</ele>
        <time>2026-07-08T09:07:47Z</time>
      </trkpt>
      <trkpt lat="42.9934" lon="0.318">
        <ele>1215.3</ele>
        <time>2026-07-08T09:07:47Z</time>
      </trkpt>
      <trkpt lat="42.99341" lon="0.318">
        <ele>1215.3</ele>
        <time>2026-07-08T09:07:48Z</time>
      </trkpt>
      <trkpt lat="42.99342" lon="0.318">
        <ele>1215.3</ele>
        <time>2026-07-08T09:07:49Z</time>
      </trkpt>
      <trkpt lat="42.99342" lon="0.318">
        <ele>1215.3</ele>
        <time>2026-07-08T09:07:49Z</time>
      </trkpt>
      <trkpt lat="42.99343" lon="0.318">
        <ele>1215.3</ele>
        <time>2026-07-08T09:07:50Z</time>
      </trkpt>
      <trkpt lat="42.99344" lon="0.318">
        <ele>1215.3</ele>
        <time>2026-07-08T09:07:50Z</time>
      </trkpt>
      <trkpt lat="42.99345" lon="0.318">
        <ele>1216.3</ele>
        <time>2026-07-08T09:07:51Z</time>
      </trkpt>
      <trkpt lat="42.99346" lon="0.318">
        <ele>1216.3</ele>
        <time>2026-07-08T09:07:52Z</time>
      </trkpt>
      <trkpt lat="42.99346" lon="0.318">
        <ele>1215.3</ele>
        <time>2026-07-08T09:07:52Z</time>
      </trkpt>
      <trkpt lat="42.99347" lon="0.318">
        <ele>1215.3</ele>
        <time>2026-07-08T09:07:53Z</time>
      </trkpt>
      <trkpt lat="42.99348" lon="0.318">
        <ele>1215.3</ele>
        <time>2026-07-08T09:07:53Z</time>
      </trkpt>
      <trkpt lat="42.99348" lon="0.318">
        <ele>1215.3</ele>
        <time>2026-07-08T09:07:54Z</time>
      </trkpt>
      <trkpt lat="42.99349" lon="0.31799">
        <ele>1215.3</ele>
        <time>2026-07-08T09:07:55Z</time>
      </trkpt>
      <trkpt lat="42.9935" lon="0.31799">
        <ele>1215.3</ele>
        <time>2026-07-08T09:07:56Z</time>
      </trkpt>
      <trkpt lat="42.99351" lon="0.31799">
        <ele>1215.3</ele>
        <time>2026-07-08T09:07:56Z</time>
      </trkpt>
      <trkpt lat="42.99351" lon="0.31799">
        <ele>1215.3</ele>
        <time>2026-07-08T09:07:57Z</time>
      </trkpt>
      <trkpt lat="42.99351" lon="0.31798">
        <ele>1214.3</ele>
        <time>2026-07-08T09:07:57Z</time>
      </trkpt>
      <trkpt lat="42.99352" lon="0.31798">
        <ele>1214.3</ele>
        <time>2026-07-08T09:07:58Z</time>
      </trkpt>
      <trkpt lat="42.99352" lon="0.31798">
        <ele>1214.3</ele>
        <time>2026-07-08T09:07:58Z</time>
      </trkpt>
      <trkpt lat="42.99353" lon="0.31798">
        <ele>1214.3</ele>
        <time>2026-07-08T09:07:59Z</time>
      </trkpt>
      <trkpt lat="42.99353" lon="0.31798">
        <ele>1214.3</ele>
        <time>2026-07-08T09:08:00Z</time>
      </trkpt>
      <trkpt lat="42.99355" lon="0.31799">
        <ele>1214.3</ele>
        <time>2026-07-08T09:08:01Z</time>
      </trkpt>
      <trkpt lat="42.99356" lon="0.31799">
        <ele>1214.3</ele>
        <time>2026-07-08T09:08:02Z</time>
      </trkpt>
      <trkpt lat="42.99357" lon="0.31799">
        <ele>1213.3</ele>
        <time>2026-07-08T09:08:03Z</time>
      </trkpt>
      <trkpt lat="42.99357" lon="0.31799">
        <ele>1213.3</ele>
        <time>2026-07-08T09:08:03Z</time>
      </trkpt>
      <trkpt lat="42.99358" lon="0.31799">
        <ele>1213.3</ele>
        <time>2026-07-08T09:08:04Z</time>
      </trkpt>
      <trkpt lat="42.99358" lon="0.31799">
        <ele>1213.3</ele>
        <time>2026-07-08T09:08:04Z</time>
      </trkpt>
      <trkpt lat="42.99359" lon="0.31799">
        <ele>1213.3</ele>
        <time>2026-07-08T09:08:05Z</time>
      </trkpt>
      <trkpt lat="42.99361" lon="0.31798">
        <ele>1213.3</ele>
        <time>2026-07-08T09:08:06Z</time>
      </trkpt>
      <trkpt lat="42.99362" lon="0.31798">
        <ele>1213.3</ele>
        <time>2026-07-08T09:08:07Z</time>
      </trkpt>
      <trkpt lat="42.99363" lon="0.31798">
        <ele>1213.3</ele>
        <time>2026-07-08T09:08:08Z</time>
      </trkpt>
      <trkpt lat="42.99364" lon="0.31798">
        <ele>1213.3</ele>
        <time>2026-07-08T09:08:09Z</time>
      </trkpt>
      <trkpt lat="42.99364" lon="0.31798">
        <ele>1212.3</ele>
        <time>2026-07-08T09:08:09Z</time>
      </trkpt>
      <trkpt lat="42.99365" lon="0.31798">
        <ele>1212.3</ele>
        <time>2026-07-08T09:08:10Z</time>
      </trkpt>
      <trkpt lat="42.99365" lon="0.31798">
        <ele>1212.3</ele>
        <time>2026-07-08T09:08:10Z</time>
      </trkpt>
      <trkpt lat="42.99366" lon="0.31798">
        <ele>1212.3</ele>
        <time>2026-07-08T09:08:11Z</time>
      </trkpt>
      <trkpt lat="42.99367" lon="0.31798">
        <ele>1213.3</ele>
        <time>2026-07-08T09:08:11Z</time>
      </trkpt>
      <trkpt lat="42.99367" lon="0.31798">
        <ele>1213.3</ele>
        <time>2026-07-08T09:08:12Z</time>
      </trkpt>
      <trkpt lat="42.99368" lon="0.31797">
        <ele>1213.3</ele>
        <time>2026-07-08T09:08:12Z</time>
      </trkpt>
      <trkpt lat="42.99369" lon="0.31797">
        <ele>1213.3</ele>
        <time>2026-07-08T09:08:13Z</time>
      </trkpt>
      <trkpt lat="42.9937" lon="0.31797">
        <ele>1213.3</ele>
        <time>2026-07-08T09:08:14Z</time>
      </trkpt>
      <trkpt lat="42.99371" lon="0.31797">
        <ele>1212.3</ele>
        <time>2026-07-08T09:08:14Z</time>
      </trkpt>
      <trkpt lat="42.99371" lon="0.31796">
        <ele>1212.3</ele>
        <time>2026-07-08T09:08:15Z</time>
      </trkpt>
      <trkpt lat="42.99372" lon="0.31796">
        <ele>1212.3</ele>
        <time>2026-07-08T09:08:16Z</time>
      </trkpt>
      <trkpt lat="42.99373" lon="0.31796">
        <ele>1212.3</ele>
        <time>2026-07-08T09:08:17Z</time>
      </trkpt>
      <trkpt lat="42.99374" lon="0.31795">
        <ele>1211.3</ele>
        <time>2026-07-08T09:08:18Z</time>
      </trkpt>
      <trkpt lat="42.99375" lon="0.31795">
        <ele>1211.3</ele>
        <time>2026-07-08T09:08:19Z</time>
      </trkpt>
      <trkpt lat="42.99376" lon="0.31795">
        <ele>1212.3</ele>
        <time>2026-07-08T09:08:19Z</time>
      </trkpt>
      <trkpt lat="42.99377" lon="0.31795">
        <ele>1212.3</ele>
        <time>2026-07-08T09:08:20Z</time>
      </trkpt>
      <trkpt lat="42.99378" lon="0.31795">
        <ele>1212.3</ele>
        <time>2026-07-08T09:08:21Z</time>
      </trkpt>
      <trkpt lat="42.99378" lon="0.31795">
        <ele>1212.3</ele>
        <time>2026-07-08T09:08:21Z</time>
      </trkpt>
      <trkpt lat="42.99379" lon="0.31795">
        <ele>1212.3</ele>
        <time>2026-07-08T09:08:22Z</time>
      </trkpt>
      <trkpt lat="42.99379" lon="0.31795">
        <ele>1212.3</ele>
        <time>2026-07-08T09:08:22Z</time>
      </trkpt>
      <trkpt lat="42.9938" lon="0.31794">
        <ele>1212.3</ele>
        <time>2026-07-08T09:08:23Z</time>
      </trkpt>
      <trkpt lat="42.99381" lon="0.31794">
        <ele>1212.3</ele>
        <time>2026-07-08T09:08:24Z</time>
      </trkpt>
      <trkpt lat="42.99381" lon="0.31794">
        <ele>1212.3</ele>
        <time>2026-07-08T09:08:24Z</time>
      </trkpt>
      <trkpt lat="42.99382" lon="0.31793">
        <ele>1212.3</ele>
        <time>2026-07-08T09:08:25Z</time>
      </trkpt>
      <trkpt lat="42.99382" lon="0.31793">
        <ele>1211.3</ele>
        <time>2026-07-08T09:08:25Z</time>
      </trkpt>
      <trkpt lat="42.99383" lon="0.31793">
        <ele>1211.3</ele>
        <time>2026-07-08T09:08:26Z</time>
      </trkpt>
      <trkpt lat="42.99384" lon="0.31793">
        <ele>1212.3</ele>
        <time>2026-07-08T09:08:26Z</time>
      </trkpt>
      <trkpt lat="42.99384" lon="0.31793">
        <ele>1211.3</ele>
        <time>2026-07-08T09:08:27Z</time>
      </trkpt>
      <trkpt lat="42.99385" lon="0.31793">
        <ele>1211.3</ele>
        <time>2026-07-08T09:08:28Z</time>
      </trkpt>
      <trkpt lat="42.99386" lon="0.31793">
        <ele>1211.3</ele>
        <time>2026-07-08T09:08:29Z</time>
      </trkpt>
      <trkpt lat="42.99387" lon="0.31793">
        <ele>1211.3</ele>
        <time>2026-07-08T09:08:29Z</time>
      </trkpt>
      <trkpt lat="42.99387" lon="0.31793">
        <ele>1211.3</ele>
        <time>2026-07-08T09:08:30Z</time>
      </trkpt>
      <trkpt lat="42.99388" lon="0.31793">
        <ele>1211.3</ele>
        <time>2026-07-08T09:08:30Z</time>
      </trkpt>
      <trkpt lat="42.99389" lon="0.31793">
        <ele>1211.3</ele>
        <time>2026-07-08T09:08:31Z</time>
      </trkpt>
      <trkpt lat="42.9939" lon="0.31793">
        <ele>1211.3</ele>
        <time>2026-07-08T09:08:32Z</time>
      </trkpt>
      <trkpt lat="42.99391" lon="0.31793">
        <ele>1211.3</ele>
        <time>2026-07-08T09:08:32Z</time>
      </trkpt>
      <trkpt lat="42.99392" lon="0.31793">
        <ele>1211.3</ele>
        <time>2026-07-08T09:08:33Z</time>
      </trkpt>
      <trkpt lat="42.99394" lon="0.31793">
        <ele>1211.3</ele>
        <time>2026-07-08T09:08:34Z</time>
      </trkpt>
      <trkpt lat="42.99395" lon="0.31794">
        <ele>1211.3</ele>
        <time>2026-07-08T09:08:35Z</time>
      </trkpt>
      <trkpt lat="42.99396" lon="0.31794">
        <ele>1211.3</ele>
        <time>2026-07-08T09:08:35Z</time>
      </trkpt>
      <trkpt lat="42.99396" lon="0.31794">
        <ele>1212.3</ele>
        <time>2026-07-08T09:08:36Z</time>
      </trkpt>
      <trkpt lat="42.99397" lon="0.31794">
        <ele>1212.3</ele>
        <time>2026-07-08T09:08:36Z</time>
      </trkpt>
      <trkpt lat="42.99398" lon="0.31795">
        <ele>1211.3</ele>
        <time>2026-07-08T09:08:37Z</time>
      </trkpt>
      <trkpt lat="42.99399" lon="0.31795">
        <ele>1211.3</ele>
        <time>2026-07-08T09:08:38Z</time>
      </trkpt>
      <trkpt lat="42.99399" lon="0.31795">
        <ele>1211.3</ele>
        <time>2026-07-08T09:08:38Z</time>
      </trkpt>
      <trkpt lat="42.994" lon="0.31796">
        <ele>1211.3</ele>
        <time>2026-07-08T09:08:39Z</time>
      </trkpt>
      <trkpt lat="42.99402" lon="0.31796">
        <ele>1211.3</ele>
        <time>2026-07-08T09:08:40Z</time>
      </trkpt>
      <trkpt lat="42.99403" lon="0.31797">
        <ele>1210.3</ele>
        <time>2026-07-08T09:08:41Z</time>
      </trkpt>
      <trkpt lat="42.99405" lon="0.31798">
        <ele>1210.4</ele>
        <time>2026-07-08T09:08:42Z</time>
      </trkpt>
      <trkpt lat="42.99406" lon="0.31799">
        <ele>1209.4</ele>
        <time>2026-07-08T09:08:43Z</time>
      </trkpt>
      <trkpt lat="42.99406" lon="0.31799">
        <ele>1209.4</ele>
        <time>2026-07-08T09:08:43Z</time>
      </trkpt>
      <trkpt lat="42.99407" lon="0.318">
        <ele>1209.4</ele>
        <time>2026-07-08T09:08:44Z</time>
      </trkpt>
      <trkpt lat="42.99408" lon="0.31801">
        <ele>1209.4</ele>
        <time>2026-07-08T09:08:44Z</time>
      </trkpt>
      <trkpt lat="42.99408" lon="0.31802">
        <ele>1209.4</ele>
        <time>2026-07-08T09:08:45Z</time>
      </trkpt>
      <trkpt lat="42.9941" lon="0.31803">
        <ele>1210.4</ele>
        <time>2026-07-08T09:08:46Z</time>
      </trkpt>
      <trkpt lat="42.99411" lon="0.31804">
        <ele>1210.4</ele>
        <time>2026-07-08T09:08:47Z</time>
      </trkpt>
      <trkpt lat="42.99412" lon="0.31805">
        <ele>1210.4</ele>
        <time>2026-07-08T09:08:48Z</time>
      </trkpt>
      <trkpt lat="42.99413" lon="0.31805">
        <ele>1210.4</ele>
        <time>2026-07-08T09:08:48Z</time>
      </trkpt>
      <trkpt lat="42.99414" lon="0.31806">
        <ele>1210.4</ele>
        <time>2026-07-08T09:08:49Z</time>
      </trkpt>
      <trkpt lat="42.99415" lon="0.31806">
        <ele>1210.4</ele>
        <time>2026-07-08T09:08:49Z</time>
      </trkpt>
      <trkpt lat="42.99416" lon="0.31807">
        <ele>1211.4</ele>
        <time>2026-07-08T09:08:50Z</time>
      </trkpt>
      <trkpt lat="42.99416" lon="0.31807">
        <ele>1211.4</ele>
        <time>2026-07-08T09:08:50Z</time>
      </trkpt>
      <trkpt lat="42.99417" lon="0.31807">
        <ele>1211.4</ele>
        <time>2026-07-08T09:08:51Z</time>
      </trkpt>
      <trkpt lat="42.99418" lon="0.31808">
        <ele>1211.4</ele>
        <time>2026-07-08T09:08:52Z</time>
      </trkpt>
      <trkpt lat="42.99419" lon="0.31808">
        <ele>1212.4</ele>
        <time>2026-07-08T09:08:52Z</time>
      </trkpt>
      <trkpt lat="42.99421" lon="0.31808">
        <ele>1212.4</ele>
        <time>2026-07-08T09:08:53Z</time>
      </trkpt>
      <trkpt lat="42.99422" lon="0.31809">
        <ele>1212.4</ele>
        <time>2026-07-08T09:08:54Z</time>
      </trkpt>
      <trkpt lat="42.99423" lon="0.31809">
        <ele>1212.4</ele>
        <time>2026-07-08T09:08:54Z</time>
      </trkpt>
      <trkpt lat="42.99423" lon="0.31809">
        <ele>1212.4</ele>
        <time>2026-07-08T09:08:55Z</time>
      </trkpt>
      <trkpt lat="42.99424" lon="0.31809">
        <ele>1212.4</ele>
        <time>2026-07-08T09:08:55Z</time>
      </trkpt>
      <trkpt lat="42.99425" lon="0.3181">
        <ele>1212.4</ele>
        <time>2026-07-08T09:08:56Z</time>
      </trkpt>
      <trkpt lat="42.99426" lon="0.3181">
        <ele>1212.4</ele>
        <time>2026-07-08T09:08:56Z</time>
      </trkpt>
      <trkpt lat="42.99426" lon="0.3181">
        <ele>1212.4</ele>
        <time>2026-07-08T09:08:57Z</time>
      </trkpt>
      <trkpt lat="42.99427" lon="0.31811">
        <ele>1212.4</ele>
        <time>2026-07-08T09:08:58Z</time>
      </trkpt>
      <trkpt lat="42.99429" lon="0.31811">
        <ele>1212.4</ele>
        <time>2026-07-08T09:08:59Z</time>
      </trkpt>
      <trkpt lat="42.99431" lon="0.31811">
        <ele>1211.4</ele>
        <time>2026-07-08T09:09:00Z</time>
      </trkpt>
      <trkpt lat="42.99433" lon="0.31811">
        <ele>1211.4</ele>
        <time>2026-07-08T09:09:01Z</time>
      </trkpt>
      <trkpt lat="42.99434" lon="0.31812">
        <ele>1211.4</ele>
        <time>2026-07-08T09:09:02Z</time>
      </trkpt>
      <trkpt lat="42.99435" lon="0.31812">
        <ele>1211.4</ele>
        <time>2026-07-08T09:09:02Z</time>
      </trkpt>
      <trkpt lat="42.99435" lon="0.31813">
        <ele>1211.4</ele>
        <time>2026-07-08T09:09:03Z</time>
      </trkpt>
      <trkpt lat="42.99436" lon="0.31813">
        <ele>1211.4</ele>
        <time>2026-07-08T09:09:04Z</time>
      </trkpt>
      <trkpt lat="42.99437" lon="0.31813">
        <ele>1211.4</ele>
        <time>2026-07-08T09:09:04Z</time>
      </trkpt>
      <trkpt lat="42.99438" lon="0.31813">
        <ele>1211.4</ele>
        <time>2026-07-08T09:09:05Z</time>
      </trkpt>
      <trkpt lat="42.99439" lon="0.31813">
        <ele>1211.4</ele>
        <time>2026-07-08T09:09:05Z</time>
      </trkpt>
      <trkpt lat="42.9944" lon="0.31814">
        <ele>1211.4</ele>
        <time>2026-07-08T09:09:06Z</time>
      </trkpt>
      <trkpt lat="42.9944" lon="0.31814">
        <ele>1210.4</ele>
        <time>2026-07-08T09:09:06Z</time>
      </trkpt>
      <trkpt lat="42.99441" lon="0.31815">
        <ele>1210.4</ele>
        <time>2026-07-08T09:09:07Z</time>
      </trkpt>
      <trkpt lat="42.99442" lon="0.31815">
        <ele>1210.4</ele>
        <time>2026-07-08T09:09:07Z</time>
      </trkpt>
      <trkpt lat="42.99442" lon="0.31816">
        <ele>1210.4</ele>
        <time>2026-07-08T09:09:08Z</time>
      </trkpt>
      <trkpt lat="42.99443" lon="0.31817">
        <ele>1210.4</ele>
        <time>2026-07-08T09:09:08Z</time>
      </trkpt>
      <trkpt lat="42.99444" lon="0.31817">
        <ele>1210.4</ele>
        <time>2026-07-08T09:09:09Z</time>
      </trkpt>
      <trkpt lat="42.99444" lon="0.31818">
        <ele>1210.4</ele>
        <time>2026-07-08T09:09:09Z</time>
      </trkpt>
      <trkpt lat="42.99445" lon="0.31819">
        <ele>1210.4</ele>
        <time>2026-07-08T09:09:10Z</time>
      </trkpt>
      <trkpt lat="42.99446" lon="0.31819">
        <ele>1210.4</ele>
        <time>2026-07-08T09:09:11Z</time>
      </trkpt>
      <trkpt lat="42.99447" lon="0.3182">
        <ele>1210.4</ele>
        <time>2026-07-08T09:09:12Z</time>
      </trkpt>
      <trkpt lat="42.99447" lon="0.31821">
        <ele>1210.4</ele>
        <time>2026-07-08T09:09:12Z</time>
      </trkpt>
      <trkpt lat="42.99448" lon="0.31822">
        <ele>1210.4</ele>
        <time>2026-07-08T09:09:13Z</time>
      </trkpt>
      <trkpt lat="42.99449" lon="0.31823">
        <ele>1210.4</ele>
        <time>2026-07-08T09:09:14Z</time>
      </trkpt>
      <trkpt lat="42.99449" lon="0.31823">
        <ele>1209.4</ele>
        <time>2026-07-08T09:09:14Z</time>
      </trkpt>
      <trkpt lat="42.9945" lon="0.31824">
        <ele>1209.4</ele>
        <time>2026-07-08T09:09:15Z</time>
      </trkpt>
      <trkpt lat="42.9945" lon="0.31825">
        <ele>1209.4</ele>
        <time>2026-07-08T09:09:15Z</time>
      </trkpt>
      <trkpt lat="42.9945" lon="0.31825">
        <ele>1209.4</ele>
        <time>2026-07-08T09:09:16Z</time>
      </trkpt>
      <trkpt lat="42.99451" lon="0.31826">
        <ele>1209.4</ele>
        <time>2026-07-08T09:09:16Z</time>
      </trkpt>
      <trkpt lat="42.99451" lon="0.31827">
        <ele>1209.4</ele>
        <time>2026-07-08T09:09:17Z</time>
      </trkpt>
      <trkpt lat="42.99451" lon="0.31827">
        <ele>1209.4</ele>
        <time>2026-07-08T09:09:17Z</time>
      </trkpt>
      <trkpt lat="42.99452" lon="0.31828">
        <ele>1209.4</ele>
        <time>2026-07-08T09:09:18Z</time>
      </trkpt>
      <trkpt lat="42.99452" lon="0.31829">
        <ele>1209.4</ele>
        <time>2026-07-08T09:09:19Z</time>
      </trkpt>
      <trkpt lat="42.99453" lon="0.3183">
        <ele>1209.4</ele>
        <time>2026-07-08T09:09:19Z</time>
      </trkpt>
      <trkpt lat="42.99453" lon="0.31831">
        <ele>1209.4</ele>
        <time>2026-07-08T09:09:20Z</time>
      </trkpt>
      <trkpt lat="42.99453" lon="0.31832">
        <ele>1209.4</ele>
        <time>2026-07-08T09:09:20Z</time>
      </trkpt>
      <trkpt lat="42.99454" lon="0.31833">
        <ele>1209.4</ele>
        <time>2026-07-08T09:09:21Z</time>
      </trkpt>
      <trkpt lat="42.99454" lon="0.31835">
        <ele>1209.4</ele>
        <time>2026-07-08T09:09:22Z</time>
      </trkpt>
      <trkpt lat="42.99455" lon="0.31837">
        <ele>1209.4</ele>
        <time>2026-07-08T09:09:23Z</time>
      </trkpt>
      <trkpt lat="42.99455" lon="0.31838">
        <ele>1209.4</ele>
        <time>2026-07-08T09:09:24Z</time>
      </trkpt>
      <trkpt lat="42.99455" lon="0.3184">
        <ele>1208.4</ele>
        <time>2026-07-08T09:09:25Z</time>
      </trkpt>
      <trkpt lat="42.99455" lon="0.31841">
        <ele>1208.4</ele>
        <time>2026-07-08T09:09:25Z</time>
      </trkpt>
      <trkpt lat="42.99455" lon="0.31842">
        <ele>1208.4</ele>
        <time>2026-07-08T09:09:26Z</time>
      </trkpt>
      <trkpt lat="42.99455" lon="0.31843">
        <ele>1208.4</ele>
        <time>2026-07-08T09:09:26Z</time>
      </trkpt>
      <trkpt lat="42.99456" lon="0.31844">
        <ele>1207.4</ele>
        <time>2026-07-08T09:09:27Z</time>
      </trkpt>
      <trkpt lat="42.99456" lon="0.31846">
        <ele>1207.4</ele>
        <time>2026-07-08T09:09:28Z</time>
      </trkpt>
      <trkpt lat="42.99457" lon="0.31848">
        <ele>1207.4</ele>
        <time>2026-07-08T09:09:29Z</time>
      </trkpt>
      <trkpt lat="42.99457" lon="0.31849">
        <ele>1207.4</ele>
        <time>2026-07-08T09:09:29Z</time>
      </trkpt>
      <trkpt lat="42.99457" lon="0.3185">
        <ele>1207.4</ele>
        <time>2026-07-08T09:09:30Z</time>
      </trkpt>
      <trkpt lat="42.99457" lon="0.31851">
        <ele>1206.4</ele>
        <time>2026-07-08T09:09:30Z</time>
      </trkpt>
      <trkpt lat="42.99457" lon="0.31852">
        <ele>1206.4</ele>
        <time>2026-07-08T09:09:31Z</time>
      </trkpt>
      <trkpt lat="42.99458" lon="0.31853">
        <ele>1206.4</ele>
        <time>2026-07-08T09:09:32Z</time>
      </trkpt>
      <trkpt lat="42.99458" lon="0.31853">
        <ele>1206.4</ele>
        <time>2026-07-08T09:09:32Z</time>
      </trkpt>
      <trkpt lat="42.99458" lon="0.31854">
        <ele>1206.4</ele>
        <time>2026-07-08T09:09:33Z</time>
      </trkpt>
      <trkpt lat="42.99458" lon="0.31855">
        <ele>1206.4</ele>
        <time>2026-07-08T09:09:33Z</time>
      </trkpt>
      <trkpt lat="42.99458" lon="0.31856">
        <ele>1206.4</ele>
        <time>2026-07-08T09:09:34Z</time>
      </trkpt>
      <trkpt lat="42.99459" lon="0.31858">
        <ele>1206.4</ele>
        <time>2026-07-08T09:09:35Z</time>
      </trkpt>
      <trkpt lat="42.99459" lon="0.31858">
        <ele>1206.4</ele>
        <time>2026-07-08T09:09:35Z</time>
      </trkpt>
      <trkpt lat="42.99459" lon="0.31859">
        <ele>1206.4</ele>
        <time>2026-07-08T09:09:36Z</time>
      </trkpt>
      <trkpt lat="42.99459" lon="0.3186">
        <ele>1206.4</ele>
        <time>2026-07-08T09:09:36Z</time>
      </trkpt>
      <trkpt lat="42.9946" lon="0.31861">
        <ele>1206.4</ele>
        <time>2026-07-08T09:09:37Z</time>
      </trkpt>
      <trkpt lat="42.9946" lon="0.31862">
        <ele>1206.4</ele>
        <time>2026-07-08T09:09:37Z</time>
      </trkpt>
      <trkpt lat="42.9946" lon="0.31863">
        <ele>1206.4</ele>
        <time>2026-07-08T09:09:38Z</time>
      </trkpt>
      <trkpt lat="42.9946" lon="0.31864">
        <ele>1206.4</ele>
        <time>2026-07-08T09:09:38Z</time>
      </trkpt>
      <trkpt lat="42.9946" lon="0.31865">
        <ele>1206.4</ele>
        <time>2026-07-08T09:09:39Z</time>
      </trkpt>
      <trkpt lat="42.99461" lon="0.31865">
        <ele>1206.4</ele>
        <time>2026-07-08T09:09:40Z</time>
      </trkpt>
      <trkpt lat="42.99461" lon="0.31866">
        <ele>1206.4</ele>
        <time>2026-07-08T09:09:40Z</time>
      </trkpt>
      <trkpt lat="42.99461" lon="0.31867">
        <ele>1206.4</ele>
        <time>2026-07-08T09:09:41Z</time>
      </trkpt>
      <trkpt lat="42.99462" lon="0.31868">
        <ele>1206.4</ele>
        <time>2026-07-08T09:09:42Z</time>
      </trkpt>
      <trkpt lat="42.99462" lon="0.31869">
        <ele>1206.4</ele>
        <time>2026-07-08T09:09:42Z</time>
      </trkpt>
      <trkpt lat="42.99462" lon="0.3187">
        <ele>1206.4</ele>
        <time>2026-07-08T09:09:43Z</time>
      </trkpt>
      <trkpt lat="42.99462" lon="0.3187">
        <ele>1206.4</ele>
        <time>2026-07-08T09:09:43Z</time>
      </trkpt>
      <trkpt lat="42.99462" lon="0.31871">
        <ele>1206.4</ele>
        <time>2026-07-08T09:09:44Z</time>
      </trkpt>
      <trkpt lat="42.99463" lon="0.31873">
        <ele>1206.4</ele>
        <time>2026-07-08T09:09:45Z</time>
      </trkpt>
      <trkpt lat="42.99464" lon="0.31874">
        <ele>1206.4</ele>
        <time>2026-07-08T09:09:46Z</time>
      </trkpt>
      <trkpt lat="42.99464" lon="0.31875">
        <ele>1206.4</ele>
        <time>2026-07-08T09:09:47Z</time>
      </trkpt>
      <trkpt lat="42.99465" lon="0.31876">
        <ele>1206.4</ele>
        <time>2026-07-08T09:09:47Z</time>
      </trkpt>
      <trkpt lat="42.99465" lon="0.31877">
        <ele>1206.4</ele>
        <time>2026-07-08T09:09:48Z</time>
      </trkpt>
      <trkpt lat="42.99465" lon="0.31879">
        <ele>1206.4</ele>
        <time>2026-07-08T09:09:49Z</time>
      </trkpt>
      <trkpt lat="42.99466" lon="0.31879">
        <ele>1205.4</ele>
        <time>2026-07-08T09:09:49Z</time>
      </trkpt>
      <trkpt lat="42.99466" lon="0.3188">
        <ele>1205.4</ele>
        <time>2026-07-08T09:09:50Z</time>
      </trkpt>
      <trkpt lat="42.99467" lon="0.3188">
        <ele>1205.4</ele>
        <time>2026-07-08T09:09:50Z</time>
      </trkpt>
      <trkpt lat="42.99467" lon="0.31882">
        <ele>1205.4</ele>
        <time>2026-07-08T09:09:51Z</time>
      </trkpt>
      <trkpt lat="42.99468" lon="0.31882">
        <ele>1205.4</ele>
        <time>2026-07-08T09:09:51Z</time>
      </trkpt>
      <trkpt lat="42.99469" lon="0.31883">
        <ele>1204.4</ele>
        <time>2026-07-08T09:09:52Z</time>
      </trkpt>
      <trkpt lat="42.99469" lon="0.31884">
        <ele>1204.4</ele>
        <time>2026-07-08T09:09:53Z</time>
      </trkpt>
      <trkpt lat="42.9947" lon="0.31886">
        <ele>1204.4</ele>
        <time>2026-07-08T09:09:54Z</time>
      </trkpt>
      <trkpt lat="42.99471" lon="0.31887">
        <ele>1205.4</ele>
        <time>2026-07-08T09:09:55Z</time>
      </trkpt>
      <trkpt lat="42.99472" lon="0.31889">
        <ele>1205.4</ele>
        <time>2026-07-08T09:09:56Z</time>
      </trkpt>
      <trkpt lat="42.99473" lon="0.31891">
        <ele>1205.4</ele>
        <time>2026-07-08T09:09:57Z</time>
      </trkpt>
      <trkpt lat="42.99474" lon="0.31892">
        <ele>1204.4</ele>
        <time>2026-07-08T09:09:58Z</time>
      </trkpt>
      <trkpt lat="42.99475" lon="0.31893">
        <ele>1204.4</ele>
        <time>2026-07-08T09:09:58Z</time>
      </trkpt>
      <trkpt lat="42.99475" lon="0.31893">
        <ele>1204.4</ele>
        <time>2026-07-08T09:09:59Z</time>
      </trkpt>
      <trkpt lat="42.99476" lon="0.31894">
        <ele>1204.4</ele>
        <time>2026-07-08T09:10:00Z</time>
      </trkpt>
      <trkpt lat="42.99476" lon="0.31895">
        <ele>1204.4</ele>
        <time>2026-07-08T09:10:00Z</time>
      </trkpt>
      <trkpt lat="42.99476" lon="0.31896">
        <ele>1204.4</ele>
        <time>2026-07-08T09:10:01Z</time>
      </trkpt>
      <trkpt lat="42.99477" lon="0.31896">
        <ele>1204.4</ele>
        <time>2026-07-08T09:10:01Z</time>
      </trkpt>
      <trkpt lat="42.99478" lon="0.31897">
        <ele>1204.4</ele>
        <time>2026-07-08T09:10:02Z</time>
      </trkpt>
      <trkpt lat="42.99478" lon="0.31898">
        <ele>1204.4</ele>
        <time>2026-07-08T09:10:03Z</time>
      </trkpt>
      <trkpt lat="42.99479" lon="0.31899">
        <ele>1204.4</ele>
        <time>2026-07-08T09:10:03Z</time>
      </trkpt>
      <trkpt lat="42.99479" lon="0.319">
        <ele>1204.4</ele>
        <time>2026-07-08T09:10:04Z</time>
      </trkpt>
      <trkpt lat="42.9948" lon="0.31901">
        <ele>1204.4</ele>
        <time>2026-07-08T09:10:05Z</time>
      </trkpt>
      <trkpt lat="42.99481" lon="0.31902">
        <ele>1203.4</ele>
        <time>2026-07-08T09:10:06Z</time>
      </trkpt>
      <trkpt lat="42.99482" lon="0.31903">
        <ele>1203.4</ele>
        <time>2026-07-08T09:10:07Z</time>
      </trkpt>
      <trkpt lat="42.99483" lon="0.31904">
        <ele>1203.4</ele>
        <time>2026-07-08T09:10:08Z</time>
      </trkpt>
      <trkpt lat="42.99484" lon="0.31906">
        <ele>1202.4</ele>
        <time>2026-07-08T09:10:09Z</time>
      </trkpt>
      <trkpt lat="42.99484" lon="0.31906">
        <ele>1202.4</ele>
        <time>2026-07-08T09:10:09Z</time>
      </trkpt>
      <trkpt lat="42.99484" lon="0.31907">
        <ele>1202.4</ele>
        <time>2026-07-08T09:10:10Z</time>
      </trkpt>
      <trkpt lat="42.99485" lon="0.31909">
        <ele>1201.4</ele>
        <time>2026-07-08T09:10:11Z</time>
      </trkpt>
      <trkpt lat="42.99486" lon="0.3191">
        <ele>1200.4</ele>
        <time>2026-07-08T09:10:12Z</time>
      </trkpt>
      <trkpt lat="42.99487" lon="0.31912">
        <ele>1200.4</ele>
        <time>2026-07-08T09:10:13Z</time>
      </trkpt>
      <trkpt lat="42.99487" lon="0.31913">
        <ele>1200.4</ele>
        <time>2026-07-08T09:10:14Z</time>
      </trkpt>
      <trkpt lat="42.99488" lon="0.31913">
        <ele>1200.4</ele>
        <time>2026-07-08T09:10:14Z</time>
      </trkpt>
      <trkpt lat="42.99488" lon="0.31914">
        <ele>1200.4</ele>
        <time>2026-07-08T09:10:15Z</time>
      </trkpt>
      <trkpt lat="42.99489" lon="0.31914">
        <ele>1200.4</ele>
        <time>2026-07-08T09:10:15Z</time>
      </trkpt>
      <trkpt lat="42.99489" lon="0.31915">
        <ele>1200.4</ele>
        <time>2026-07-08T09:10:16Z</time>
      </trkpt>
      <trkpt lat="42.9949" lon="0.31916">
        <ele>1200.4</ele>
        <time>2026-07-08T09:10:16Z</time>
      </trkpt>
      <trkpt lat="42.99491" lon="0.31916">
        <ele>1200.4</ele>
        <time>2026-07-08T09:10:17Z</time>
      </trkpt>
      <trkpt lat="42.99491" lon="0.31916">
        <ele>1199.4</ele>
        <time>2026-07-08T09:10:17Z</time>
      </trkpt>
      <trkpt lat="42.99492" lon="0.31917">
        <ele>1199.4</ele>
        <time>2026-07-08T09:10:18Z</time>
      </trkpt>
      <trkpt lat="42.99493" lon="0.31917">
        <ele>1199.4</ele>
        <time>2026-07-08T09:10:18Z</time>
      </trkpt>
      <trkpt lat="42.99493" lon="0.31918">
        <ele>1198.4</ele>
        <time>2026-07-08T09:10:19Z</time>
      </trkpt>
      <trkpt lat="42.99494" lon="0.31918">
        <ele>1198.4</ele>
        <time>2026-07-08T09:10:19Z</time>
      </trkpt>
      <trkpt lat="42.99494" lon="0.31918">
        <ele>1198.4</ele>
        <time>2026-07-08T09:10:20Z</time>
      </trkpt>
      <trkpt lat="42.99495" lon="0.31919">
        <ele>1198.4</ele>
        <time>2026-07-08T09:10:21Z</time>
      </trkpt>
      <trkpt lat="42.99496" lon="0.31919">
        <ele>1197.4</ele>
        <time>2026-07-08T09:10:22Z</time>
      </trkpt>
      <trkpt lat="42.99497" lon="0.31919">
        <ele>1197.4</ele>
        <time>2026-07-08T09:10:22Z</time>
      </trkpt>
      <trkpt lat="42.99497" lon="0.3192">
        <ele>1197.4</ele>
        <time>2026-07-08T09:10:23Z</time>
      </trkpt>
      <trkpt lat="42.99498" lon="0.3192">
        <ele>1196.4</ele>
        <time>2026-07-08T09:10:23Z</time>
      </trkpt>
      <trkpt lat="42.99498" lon="0.31921">
        <ele>1196.4</ele>
        <time>2026-07-08T09:10:24Z</time>
      </trkpt>
      <trkpt lat="42.99499" lon="0.31922">
        <ele>1196.4</ele>
        <time>2026-07-08T09:10:25Z</time>
      </trkpt>
      <trkpt lat="42.995" lon="0.31922">
        <ele>1196.4</ele>
        <time>2026-07-08T09:10:26Z</time>
      </trkpt>
      <trkpt lat="42.99501" lon="0.31923">
        <ele>1197.4</ele>
        <time>2026-07-08T09:10:26Z</time>
      </trkpt>
      <trkpt lat="42.99502" lon="0.31923">
        <ele>1197.4</ele>
        <time>2026-07-08T09:10:27Z</time>
      </trkpt>
      <trkpt lat="42.99502" lon="0.31924">
        <ele>1197.4</ele>
        <time>2026-07-08T09:10:28Z</time>
      </trkpt>
      <trkpt lat="42.99503" lon="0.31924">
        <ele>1196.4</ele>
        <time>2026-07-08T09:10:28Z</time>
      </trkpt>
      <trkpt lat="42.99503" lon="0.31924">
        <ele>1196.4</ele>
        <time>2026-07-08T09:10:29Z</time>
      </trkpt>
      <trkpt lat="42.99504" lon="0.31924">
        <ele>1196.4</ele>
        <time>2026-07-08T09:10:29Z</time>
      </trkpt>
      <trkpt lat="42.99504" lon="0.31924">
        <ele>1196.4</ele>
        <time>2026-07-08T09:10:30Z</time>
      </trkpt>
      <trkpt lat="42.99505" lon="0.31924">
        <ele>1196.4</ele>
        <time>2026-07-08T09:10:30Z</time>
      </trkpt>
      <trkpt lat="42.99505" lon="0.31925">
        <ele>1196.4</ele>
        <time>2026-07-08T09:10:31Z</time>
      </trkpt>
      <trkpt lat="42.99506" lon="0.31925">
        <ele>1196.4</ele>
        <time>2026-07-08T09:10:31Z</time>
      </trkpt>
      <trkpt lat="42.99507" lon="0.31925">
        <ele>1196.4</ele>
        <time>2026-07-08T09:10:32Z</time>
      </trkpt>
      <trkpt lat="42.99507" lon="0.31925">
        <ele>1196.4</ele>
        <time>2026-07-08T09:10:32Z</time>
      </trkpt>
      <trkpt lat="42.99508" lon="0.31925">
        <ele>1196.4</ele>
        <time>2026-07-08T09:10:33Z</time>
      </trkpt>
      <trkpt lat="42.99509" lon="0.31925">
        <ele>1195.4</ele>
        <time>2026-07-08T09:10:33Z</time>
      </trkpt>
      <trkpt lat="42.99509" lon="0.31925">
        <ele>1195.4</ele>
        <time>2026-07-08T09:10:34Z</time>
      </trkpt>
      <trkpt lat="42.9951" lon="0.31925">
        <ele>1196.4</ele>
        <time>2026-07-08T09:10:35Z</time>
      </trkpt>
      <trkpt lat="42.99511" lon="0.31925">
        <ele>1196.4</ele>
        <time>2026-07-08T09:10:35Z</time>
      </trkpt>
      <trkpt lat="42.99512" lon="0.31924">
        <ele>1196.4</ele>
        <time>2026-07-08T09:10:36Z</time>
      </trkpt>
      <trkpt lat="42.99512" lon="0.31924">
        <ele>1196.4</ele>
        <time>2026-07-08T09:10:36Z</time>
      </trkpt>
      <trkpt lat="42.99513" lon="0.31924">
        <ele>1196.4</ele>
        <time>2026-07-08T09:10:37Z</time>
      </trkpt>
      <trkpt lat="42.99513" lon="0.31924">
        <ele>1196.4</ele>
        <time>2026-07-08T09:10:37Z</time>
      </trkpt>
      <trkpt lat="42.99514" lon="0.31923">
        <ele>1196.4</ele>
        <time>2026-07-08T09:10:38Z</time>
      </trkpt>
      <trkpt lat="42.99515" lon="0.31923">
        <ele>1196.4</ele>
        <time>2026-07-08T09:10:38Z</time>
      </trkpt>
      <trkpt lat="42.99515" lon="0.31923">
        <ele>1195.4</ele>
        <time>2026-07-08T09:10:39Z</time>
      </trkpt>
      <trkpt lat="42.99517" lon="0.31923">
        <ele>1195.4</ele>
        <time>2026-07-08T09:10:40Z</time>
      </trkpt>
      <trkpt lat="42.99518" lon="0.31922">
        <ele>1195.4</ele>
        <time>2026-07-08T09:10:41Z</time>
      </trkpt>
      <trkpt lat="42.99518" lon="0.31922">
        <ele>1195.4</ele>
        <time>2026-07-08T09:10:41Z</time>
      </trkpt>
      <trkpt lat="42.99518" lon="0.31922">
        <ele>1194.4</ele>
        <time>2026-07-08T09:10:42Z</time>
      </trkpt>
      <trkpt lat="42.99519" lon="0.31921">
        <ele>1194.4</ele>
        <time>2026-07-08T09:10:43Z</time>
      </trkpt>
      <trkpt lat="42.9952" lon="0.31921">
        <ele>1194.4</ele>
        <time>2026-07-08T09:10:43Z</time>
      </trkpt>
      <trkpt lat="42.9952" lon="0.3192">
        <ele>1194.4</ele>
        <time>2026-07-08T09:10:44Z</time>
      </trkpt>
      <trkpt lat="42.99521" lon="0.3192">
        <ele>1194.4</ele>
        <time>2026-07-08T09:10:45Z</time>
      </trkpt>
      <trkpt lat="42.99522" lon="0.31919">
        <ele>1195.4</ele>
        <time>2026-07-08T09:10:45Z</time>
      </trkpt>
      <trkpt lat="42.99522" lon="0.31919">
        <ele>1195.4</ele>
        <time>2026-07-08T09:10:46Z</time>
      </trkpt>
      <trkpt lat="42.99523" lon="0.31918">
        <ele>1195.4</ele>
        <time>2026-07-08T09:10:47Z</time>
      </trkpt>
      <trkpt lat="42.99524" lon="0.31917">
        <ele>1194.4</ele>
        <time>2026-07-08T09:10:48Z</time>
      </trkpt>
      <trkpt lat="42.99525" lon="0.31917">
        <ele>1195.4</ele>
        <time>2026-07-08T09:10:49Z</time>
      </trkpt>
      <trkpt lat="42.99525" lon="0.31916">
        <ele>1195.4</ele>
        <time>2026-07-08T09:10:49Z</time>
      </trkpt>
      <trkpt lat="42.99526" lon="0.31916">
        <ele>1195.4</ele>
        <time>2026-07-08T09:10:50Z</time>
      </trkpt>
      <trkpt lat="42.99527" lon="0.31914">
        <ele>1194.4</ele>
        <time>2026-07-08T09:10:51Z</time>
      </trkpt>
      <trkpt lat="42.99528" lon="0.31913">
        <ele>1194.4</ele>
        <time>2026-07-08T09:10:52Z</time>
      </trkpt>
      <trkpt lat="42.99529" lon="0.31911">
        <ele>1194.4</ele>
        <time>2026-07-08T09:10:53Z</time>
      </trkpt>
      <trkpt lat="42.99529" lon="0.3191">
        <ele>1194.4</ele>
        <time>2026-07-08T09:10:54Z</time>
      </trkpt>
      <trkpt lat="42.9953" lon="0.31909">
        <ele>1194.4</ele>
        <time>2026-07-08T09:10:54Z</time>
      </trkpt>
      <trkpt lat="42.9953" lon="0.31908">
        <ele>1194.4</ele>
        <time>2026-07-08T09:10:55Z</time>
      </trkpt>
      <trkpt lat="42.99531" lon="0.31907">
        <ele>1194.4</ele>
        <time>2026-07-08T09:10:56Z</time>
      </trkpt>
      <trkpt lat="42.99531" lon="0.31906">
        <ele>1193.4</ele>
        <time>2026-07-08T09:10:57Z</time>
      </trkpt>
      <trkpt lat="42.99531" lon="0.31905">
        <ele>1194.4</ele>
        <time>2026-07-08T09:10:57Z</time>
      </trkpt>
      <trkpt lat="42.99532" lon="0.31905">
        <ele>1194.4</ele>
        <time>2026-07-08T09:10:58Z</time>
      </trkpt>
      <trkpt lat="42.99532" lon="0.31904">
        <ele>1193.4</ele>
        <time>2026-07-08T09:10:58Z</time>
      </trkpt>
      <trkpt lat="42.99533" lon="0.31903">
        <ele>1193.4</ele>
        <time>2026-07-08T09:10:59Z</time>
      </trkpt>
      <trkpt lat="42.99533" lon="0.31903">
        <ele>1193.4</ele>
        <time>2026-07-08T09:10:59Z</time>
      </trkpt>
      <trkpt lat="42.99533" lon="0.31902">
        <ele>1193.4</ele>
        <time>2026-07-08T09:11:00Z</time>
      </trkpt>
      <trkpt lat="42.99534" lon="0.31901">
        <ele>1192.4</ele>
        <time>2026-07-08T09:11:00Z</time>
      </trkpt>
      <trkpt lat="42.99534" lon="0.319">
        <ele>1192.4</ele>
        <time>2026-07-08T09:11:01Z</time>
      </trkpt>
      <trkpt lat="42.99535" lon="0.319">
        <ele>1193.4</ele>
        <time>2026-07-08T09:11:01Z</time>
      </trkpt>
      <trkpt lat="42.99535" lon="0.31899">
        <ele>1193.4</ele>
        <time>2026-07-08T09:11:02Z</time>
      </trkpt>
      <trkpt lat="42.99536" lon="0.31898">
        <ele>1192.4</ele>
        <time>2026-07-08T09:11:03Z</time>
      </trkpt>
      <trkpt lat="42.99537" lon="0.31897">
        <ele>1192.4</ele>
        <time>2026-07-08T09:11:04Z</time>
      </trkpt>
      <trkpt lat="42.99537" lon="0.31897">
        <ele>1191.4</ele>
        <time>2026-07-08T09:11:04Z</time>
      </trkpt>
      <trkpt lat="42.99538" lon="0.31896">
        <ele>1191.4</ele>
        <time>2026-07-08T09:11:05Z</time>
      </trkpt>
      <trkpt lat="42.99538" lon="0.31895">
        <ele>1191.4</ele>
        <time>2026-07-08T09:11:05Z</time>
      </trkpt>
      <trkpt lat="42.99539" lon="0.31894">
        <ele>1191.4</ele>
        <time>2026-07-08T09:11:06Z</time>
      </trkpt>
      <trkpt lat="42.99539" lon="0.31894">
        <ele>1191.4</ele>
        <time>2026-07-08T09:11:06Z</time>
      </trkpt>
      <trkpt lat="42.99539" lon="0.31893">
        <ele>1191.4</ele>
        <time>2026-07-08T09:11:07Z</time>
      </trkpt>
      <trkpt lat="42.9954" lon="0.31893">
        <ele>1191.4</ele>
        <time>2026-07-08T09:11:07Z</time>
      </trkpt>
      <trkpt lat="42.9954" lon="0.31892">
        <ele>1191.4</ele>
        <time>2026-07-08T09:11:08Z</time>
      </trkpt>
      <trkpt lat="42.99541" lon="0.31892">
        <ele>1190.4</ele>
        <time>2026-07-08T09:11:08Z</time>
      </trkpt>
      <trkpt lat="42.99541" lon="0.31891">
        <ele>1190.4</ele>
        <time>2026-07-08T09:11:09Z</time>
      </trkpt>
      <trkpt lat="42.99542" lon="0.3189">
        <ele>1191.4</ele>
        <time>2026-07-08T09:11:09Z</time>
      </trkpt>
      <trkpt lat="42.99542" lon="0.3189">
        <ele>1191.4</ele>
        <time>2026-07-08T09:11:10Z</time>
      </trkpt>
      <trkpt lat="42.99543" lon="0.31889">
        <ele>1191.4</ele>
        <time>2026-07-08T09:11:11Z</time>
      </trkpt>
      <trkpt lat="42.99543" lon="0.31889">
        <ele>1191.4</ele>
        <time>2026-07-08T09:11:11Z</time>
      </trkpt>
      <trkpt lat="42.99543" lon="0.31888">
        <ele>1191.4</ele>
        <time>2026-07-08T09:11:12Z</time>
      </trkpt>
      <trkpt lat="42.99544" lon="0.31887">
        <ele>1190.4</ele>
        <time>2026-07-08T09:11:12Z</time>
      </trkpt>
      <trkpt lat="42.99545" lon="0.31886">
        <ele>1190.4</ele>
        <time>2026-07-08T09:11:13Z</time>
      </trkpt>
      <trkpt lat="42.99545" lon="0.31885">
        <ele>1190.4</ele>
        <time>2026-07-08T09:11:14Z</time>
      </trkpt>
      <trkpt lat="42.99546" lon="0.31884">
        <ele>1190.4</ele>
        <time>2026-07-08T09:11:14Z</time>
      </trkpt>
      <trkpt lat="42.99546" lon="0.31884">
        <ele>1190.4</ele>
        <time>2026-07-08T09:11:15Z</time>
      </trkpt>
      <trkpt lat="42.99546" lon="0.31883">
        <ele>1190.4</ele>
        <time>2026-07-08T09:11:15Z</time>
      </trkpt>
      <trkpt lat="42.99547" lon="0.31882">
        <ele>1190.4</ele>
        <time>2026-07-08T09:11:16Z</time>
      </trkpt>
      <trkpt lat="42.99547" lon="0.31882">
        <ele>1190.4</ele>
        <time>2026-07-08T09:11:16Z</time>
      </trkpt>
      <trkpt lat="42.99548" lon="0.31881">
        <ele>1190.4</ele>
        <time>2026-07-08T09:11:17Z</time>
      </trkpt>
      <trkpt lat="42.99548" lon="0.3188">
        <ele>1190.4</ele>
        <time>2026-07-08T09:11:18Z</time>
      </trkpt>
      <trkpt lat="42.99548" lon="0.3188">
        <ele>1190.4</ele>
        <time>2026-07-08T09:11:18Z</time>
      </trkpt>
      <trkpt lat="42.99549" lon="0.31879">
        <ele>1190.4</ele>
        <time>2026-07-08T09:11:19Z</time>
      </trkpt>
      <trkpt lat="42.99549" lon="0.31878">
        <ele>1189.4</ele>
        <time>2026-07-08T09:11:19Z</time>
      </trkpt>
      <trkpt lat="42.99549" lon="0.31878">
        <ele>1189.4</ele>
        <time>2026-07-08T09:11:20Z</time>
      </trkpt>
      <trkpt lat="42.9955" lon="0.31877">
        <ele>1190.4</ele>
        <time>2026-07-08T09:11:20Z</time>
      </trkpt>
      <trkpt lat="42.9955" lon="0.31876">
        <ele>1190.4</ele>
        <time>2026-07-08T09:11:21Z</time>
      </trkpt>
      <trkpt lat="42.99551" lon="0.31875">
        <ele>1190.4</ele>
        <time>2026-07-08T09:11:22Z</time>
      </trkpt>
      <trkpt lat="42.99551" lon="0.31874">
        <ele>1190.4</ele>
        <time>2026-07-08T09:11:22Z</time>
      </trkpt>
      <trkpt lat="42.99551" lon="0.31873">
        <ele>1190.4</ele>
        <time>2026-07-08T09:11:23Z</time>
      </trkpt>
      <trkpt lat="42.99551" lon="0.31873">
        <ele>1190.4</ele>
        <time>2026-07-08T09:11:23Z</time>
      </trkpt>
      <trkpt lat="42.99552" lon="0.31872">
        <ele>1190.4</ele>
        <time>2026-07-08T09:11:24Z</time>
      </trkpt>
      <trkpt lat="42.99552" lon="0.31871">
        <ele>1190.4</ele>
        <time>2026-07-08T09:11:24Z</time>
      </trkpt>
      <trkpt lat="42.99552" lon="0.3187">
        <ele>1190.4</ele>
        <time>2026-07-08T09:11:25Z</time>
      </trkpt>
      <trkpt lat="42.99553" lon="0.3187">
        <ele>1190.4</ele>
        <time>2026-07-08T09:11:26Z</time>
      </trkpt>
      <trkpt lat="42.99554" lon="0.31868">
        <ele>1189.4</ele>
        <time>2026-07-08T09:11:27Z</time>
      </trkpt>
      <trkpt lat="42.99554" lon="0.31868">
        <ele>1188.4</ele>
        <time>2026-07-08T09:11:27Z</time>
      </trkpt>
      <trkpt lat="42.99555" lon="0.31867">
        <ele>1188.4</ele>
        <time>2026-07-08T09:11:28Z</time>
      </trkpt>
      <trkpt lat="42.99555" lon="0.31866">
        <ele>1187.4</ele>
        <time>2026-07-08T09:11:28Z</time>
      </trkpt>
      <trkpt lat="42.99555" lon="0.31865">
        <ele>1187.4</ele>
        <time>2026-07-08T09:11:29Z</time>
      </trkpt>
      <trkpt lat="42.99556" lon="0.31865">
        <ele>1187.4</ele>
        <time>2026-07-08T09:11:29Z</time>
      </trkpt>
      <trkpt lat="42.99556" lon="0.31864">
        <ele>1187.4</ele>
        <time>2026-07-08T09:11:30Z</time>
      </trkpt>
      <trkpt lat="42.99557" lon="0.31864">
        <ele>1187.4</ele>
        <time>2026-07-08T09:11:30Z</time>
      </trkpt>
      <trkpt lat="42.99557" lon="0.31863">
        <ele>1187.4</ele>
        <time>2026-07-08T09:11:31Z</time>
      </trkpt>
      <trkpt lat="42.99558" lon="0.31862">
        <ele>1187.4</ele>
        <time>2026-07-08T09:11:32Z</time>
      </trkpt>
      <trkpt lat="42.99559" lon="0.31861">
        <ele>1187.4</ele>
        <time>2026-07-08T09:11:32Z</time>
      </trkpt>
      <trkpt lat="42.99559" lon="0.3186">
        <ele>1187.4</ele>
        <time>2026-07-08T09:11:33Z</time>
      </trkpt>
      <trkpt lat="42.9956" lon="0.31859">
        <ele>1187.4</ele>
        <time>2026-07-08T09:11:33Z</time>
      </trkpt>
      <trkpt lat="42.9956" lon="0.31859">
        <ele>1186.4</ele>
        <time>2026-07-08T09:11:34Z</time>
      </trkpt>
      <trkpt lat="42.99561" lon="0.31858">
        <ele>1186.4</ele>
        <time>2026-07-08T09:11:35Z</time>
      </trkpt>
      <trkpt lat="42.99561" lon="0.31858">
        <ele>1186.4</ele>
        <time>2026-07-08T09:11:35Z</time>
      </trkpt>
      <trkpt lat="42.99561" lon="0.31857">
        <ele>1186.4</ele>
        <time>2026-07-08T09:11:36Z</time>
      </trkpt>
      <trkpt lat="42.99562" lon="0.31856">
        <ele>1186.4</ele>
        <time>2026-07-08T09:11:36Z</time>
      </trkpt>
      <trkpt lat="42.99562" lon="0.31855">
        <ele>1186.4</ele>
        <time>2026-07-08T09:11:37Z</time>
      </trkpt>
      <trkpt lat="42.99563" lon="0.31855">
        <ele>1186.4</ele>
        <time>2026-07-08T09:11:37Z</time>
      </trkpt>
      <trkpt lat="42.99564" lon="0.31854">
        <ele>1186.4</ele>
        <time>2026-07-08T09:11:38Z</time>
      </trkpt>
      <trkpt lat="42.99564" lon="0.31854">
        <ele>1186.4</ele>
        <time>2026-07-08T09:11:38Z</time>
      </trkpt>
      <trkpt lat="42.99565" lon="0.31853">
        <ele>1186.4</ele>
        <time>2026-07-08T09:11:39Z</time>
      </trkpt>
      <trkpt lat="42.99565" lon="0.31852">
        <ele>1185.4</ele>
        <time>2026-07-08T09:11:40Z</time>
      </trkpt>
      <trkpt lat="42.99565" lon="0.31851">
        <ele>1185.4</ele>
        <time>2026-07-08T09:11:40Z</time>
      </trkpt>
      <trkpt lat="42.99566" lon="0.31851">
        <ele>1184.4</ele>
        <time>2026-07-08T09:11:41Z</time>
      </trkpt>
      <trkpt lat="42.99566" lon="0.3185">
        <ele>1183.4</ele>
        <time>2026-07-08T09:11:41Z</time>
      </trkpt>
      <trkpt lat="42.99566" lon="0.31849">
        <ele>1183.4</ele>
        <time>2026-07-08T09:11:42Z</time>
      </trkpt>
      <trkpt lat="42.99567" lon="0.31849">
        <ele>1182.4</ele>
        <time>2026-07-08T09:11:42Z</time>
      </trkpt>
      <trkpt lat="42.99567" lon="0.31848">
        <ele>1182.4</ele>
        <time>2026-07-08T09:11:43Z</time>
      </trkpt>
      <trkpt lat="42.99568" lon="0.31847">
        <ele>1182.4</ele>
        <time>2026-07-08T09:11:44Z</time>
      </trkpt>
      <trkpt lat="42.99568" lon="0.31846">
        <ele>1182.4</ele>
        <time>2026-07-08T09:11:44Z</time>
      </trkpt>
      <trkpt lat="42.99569" lon="0.31845">
        <ele>1182.4</ele>
        <time>2026-07-08T09:11:45Z</time>
      </trkpt>
      <trkpt lat="42.99569" lon="0.31844">
        <ele>1183.4</ele>
        <time>2026-07-08T09:11:45Z</time>
      </trkpt>
      <trkpt lat="42.99569" lon="0.31844">
        <ele>1183.4</ele>
        <time>2026-07-08T09:11:46Z</time>
      </trkpt>
      <trkpt lat="42.99569" lon="0.31843">
        <ele>1182.4</ele>
        <time>2026-07-08T09:11:46Z</time>
      </trkpt>
      <trkpt lat="42.9957" lon="0.31842">
        <ele>1182.4</ele>
        <time>2026-07-08T09:11:47Z</time>
      </trkpt>
      <trkpt lat="42.9957" lon="0.31841">
        <ele>1183.4</ele>
        <time>2026-07-08T09:11:48Z</time>
      </trkpt>
      <trkpt lat="42.9957" lon="0.3184">
        <ele>1183.4</ele>
        <time>2026-07-08T09:11:48Z</time>
      </trkpt>
      <trkpt lat="42.9957" lon="0.31839">
        <ele>1183.4</ele>
        <time>2026-07-08T09:11:49Z</time>
      </trkpt>
      <trkpt lat="42.9957" lon="0.31838">
        <ele>1183.4</ele>
        <time>2026-07-08T09:11:49Z</time>
      </trkpt>
      <trkpt lat="42.9957" lon="0.31837">
        <ele>1183.4</ele>
        <time>2026-07-08T09:11:50Z</time>
      </trkpt>
      <trkpt lat="42.99571" lon="0.31836">
        <ele>1184.4</ele>
        <time>2026-07-08T09:11:50Z</time>
      </trkpt>
      <trkpt lat="42.99571" lon="0.31836">
        <ele>1184.4</ele>
        <time>2026-07-08T09:11:51Z</time>
      </trkpt>
      <trkpt lat="42.99571" lon="0.31835">
        <ele>1184.4</ele>
        <time>2026-07-08T09:11:51Z</time>
      </trkpt>
      <trkpt lat="42.99571" lon="0.31834">
        <ele>1184.4</ele>
        <time>2026-07-08T09:11:52Z</time>
      </trkpt>
      <trkpt lat="42.99571" lon="0.31833">
        <ele>1183.4</ele>
        <time>2026-07-08T09:11:52Z</time>
      </trkpt>
      <trkpt lat="42.99571" lon="0.31832">
        <ele>1183.4</ele>
        <time>2026-07-08T09:11:53Z</time>
      </trkpt>
      <trkpt lat="42.99571" lon="0.31831">
        <ele>1183.4</ele>
        <time>2026-07-08T09:11:54Z</time>
      </trkpt>
      <trkpt lat="42.99571" lon="0.3183">
        <ele>1183.4</ele>
        <time>2026-07-08T09:11:54Z</time>
      </trkpt>
      <trkpt lat="42.99571" lon="0.31829">
        <ele>1184.4</ele>
        <time>2026-07-08T09:11:55Z</time>
      </trkpt>
      <trkpt lat="42.99571" lon="0.31829">
        <ele>1184.4</ele>
        <time>2026-07-08T09:11:55Z</time>
      </trkpt>
      <trkpt lat="42.99571" lon="0.31828">
        <ele>1184.4</ele>
        <time>2026-07-08T09:11:56Z</time>
      </trkpt>
      <trkpt lat="42.99571" lon="0.31827">
        <ele>1184.4</ele>
        <time>2026-07-08T09:11:56Z</time>
      </trkpt>
      <trkpt lat="42.99572" lon="0.31826">
        <ele>1184.4</ele>
        <time>2026-07-08T09:11:57Z</time>
      </trkpt>
      <trkpt lat="42.99572" lon="0.31826">
        <ele>1183.4</ele>
        <time>2026-07-08T09:11:57Z</time>
      </trkpt>
      <trkpt lat="42.99572" lon="0.31825">
        <ele>1183.4</ele>
        <time>2026-07-08T09:11:58Z</time>
      </trkpt>
      <trkpt lat="42.99573" lon="0.31824">
        <ele>1184.4</ele>
        <time>2026-07-08T09:11:58Z</time>
      </trkpt>
      <trkpt lat="42.99573" lon="0.31823">
        <ele>1184.4</ele>
        <time>2026-07-08T09:11:59Z</time>
      </trkpt>
      <trkpt lat="42.99573" lon="0.31823">
        <ele>1184.4</ele>
        <time>2026-07-08T09:11:59Z</time>
      </trkpt>
      <trkpt lat="42.99574" lon="0.31822">
        <ele>1184.4</ele>
        <time>2026-07-08T09:12:00Z</time>
      </trkpt>
      <trkpt lat="42.99574" lon="0.31821">
        <ele>1184.4</ele>
        <time>2026-07-08T09:12:01Z</time>
      </trkpt>
      <trkpt lat="42.99574" lon="0.31821">
        <ele>1184.4</ele>
        <time>2026-07-08T09:12:01Z</time>
      </trkpt>
      <trkpt lat="42.99575" lon="0.3182">
        <ele>1184.4</ele>
        <time>2026-07-08T09:12:02Z</time>
      </trkpt>
      <trkpt lat="42.99575" lon="0.31819">
        <ele>1184.4</ele>
        <time>2026-07-08T09:12:02Z</time>
      </trkpt>
      <trkpt lat="42.99576" lon="0.31818">
        <ele>1184.4</ele>
        <time>2026-07-08T09:12:03Z</time>
      </trkpt>
      <trkpt lat="42.99576" lon="0.31818">
        <ele>1183.4</ele>
        <time>2026-07-08T09:12:03Z</time>
      </trkpt>
      <trkpt lat="42.99576" lon="0.31817">
        <ele>1183.4</ele>
        <time>2026-07-08T09:12:04Z</time>
      </trkpt>
      <trkpt lat="42.99577" lon="0.31817">
        <ele>1183.4</ele>
        <time>2026-07-08T09:12:04Z</time>
      </trkpt>
      <trkpt lat="42.99577" lon="0.31816">
        <ele>1183.4</ele>
        <time>2026-07-08T09:12:05Z</time>
      </trkpt>
      <trkpt lat="42.99577" lon="0.31815">
        <ele>1182.4</ele>
        <time>2026-07-08T09:12:06Z</time>
      </trkpt>
      <trkpt lat="42.99578" lon="0.31815">
        <ele>1182.4</ele>
        <time>2026-07-08T09:12:06Z</time>
      </trkpt>
      <trkpt lat="42.99578" lon="0.31814">
        <ele>1182.4</ele>
        <time>2026-07-08T09:12:07Z</time>
      </trkpt>
      <trkpt lat="42.99578" lon="0.31813">
        <ele>1182.4</ele>
        <time>2026-07-08T09:12:07Z</time>
      </trkpt>
      <trkpt lat="42.99579" lon="0.31812">
        <ele>1182.4</ele>
        <time>2026-07-08T09:12:08Z</time>
      </trkpt>
      <trkpt lat="42.99579" lon="0.31811">
        <ele>1182.4</ele>
        <time>2026-07-08T09:12:08Z</time>
      </trkpt>
      <trkpt lat="42.99579" lon="0.31811">
        <ele>1182.4</ele>
        <time>2026-07-08T09:12:09Z</time>
      </trkpt>
      <trkpt lat="42.9958" lon="0.3181">
        <ele>1183.4</ele>
        <time>2026-07-08T09:12:09Z</time>
      </trkpt>
      <trkpt lat="42.9958" lon="0.31809">
        <ele>1183.4</ele>
        <time>2026-07-08T09:12:10Z</time>
      </trkpt>
      <trkpt lat="42.99581" lon="0.31808">
        <ele>1182.4</ele>
        <time>2026-07-08T09:12:10Z</time>
      </trkpt>
      <trkpt lat="42.99581" lon="0.31808">
        <ele>1182.4</ele>
        <time>2026-07-08T09:12:11Z</time>
      </trkpt>
      <trkpt lat="42.99581" lon="0.31807">
        <ele>1182.4</ele>
        <time>2026-07-08T09:12:11Z</time>
      </trkpt>
      <trkpt lat="42.99582" lon="0.31806">
        <ele>1183.4</ele>
        <time>2026-07-08T09:12:12Z</time>
      </trkpt>
      <trkpt lat="42.99582" lon="0.31805">
        <ele>1183.4</ele>
        <time>2026-07-08T09:12:13Z</time>
      </trkpt>
      <trkpt lat="42.99582" lon="0.31804">
        <ele>1183.4</ele>
        <time>2026-07-08T09:12:13Z</time>
      </trkpt>
      <trkpt lat="42.99583" lon="0.31804">
        <ele>1183.4</ele>
        <time>2026-07-08T09:12:14Z</time>
      </trkpt>
      <trkpt lat="42.99583" lon="0.31803">
        <ele>1183.4</ele>
        <time>2026-07-08T09:12:14Z</time>
      </trkpt>
      <trkpt lat="42.99583" lon="0.31802">
        <ele>1183.4</ele>
        <time>2026-07-08T09:12:15Z</time>
      </trkpt>
      <trkpt lat="42.99584" lon="0.31801">
        <ele>1183.4</ele>
        <time>2026-07-08T09:12:15Z</time>
      </trkpt>
      <trkpt lat="42.99584" lon="0.318">
        <ele>1183.4</ele>
        <time>2026-07-08T09:12:16Z</time>
      </trkpt>
      <trkpt lat="42.99584" lon="0.318">
        <ele>1183.4</ele>
        <time>2026-07-08T09:12:16Z</time>
      </trkpt>
      <trkpt lat="42.99585" lon="0.31799">
        <ele>1183.4</ele>
        <time>2026-07-08T09:12:17Z</time>
      </trkpt>
      <trkpt lat="42.99585" lon="0.31799">
        <ele>1183.4</ele>
        <time>2026-07-08T09:12:17Z</time>
      </trkpt>
      <trkpt lat="42.99586" lon="0.31798">
        <ele>1183.4</ele>
        <time>2026-07-08T09:12:18Z</time>
      </trkpt>
      <trkpt lat="42.99586" lon="0.31797">
        <ele>1183.4</ele>
        <time>2026-07-08T09:12:19Z</time>
      </trkpt>
      <trkpt lat="42.99586" lon="0.31797">
        <ele>1182.4</ele>
        <time>2026-07-08T09:12:19Z</time>
      </trkpt>
      <trkpt lat="42.99587" lon="0.31796">
        <ele>1182.4</ele>
        <time>2026-07-08T09:12:20Z</time>
      </trkpt>
      <trkpt lat="42.99587" lon="0.31795">
        <ele>1183.4</ele>
        <time>2026-07-08T09:12:20Z</time>
      </trkpt>
      <trkpt lat="42.99588" lon="0.31794">
        <ele>1183.4</ele>
        <time>2026-07-08T09:12:21Z</time>
      </trkpt>
      <trkpt lat="42.99588" lon="0.31794">
        <ele>1183.4</ele>
        <time>2026-07-08T09:12:21Z</time>
      </trkpt>
      <trkpt lat="42.99589" lon="0.31793">
        <ele>1183.4</ele>
        <time>2026-07-08T09:12:22Z</time>
      </trkpt>
      <trkpt lat="42.99589" lon="0.31792">
        <ele>1182.4</ele>
        <time>2026-07-08T09:12:22Z</time>
      </trkpt>
      <trkpt lat="42.99589" lon="0.31792">
        <ele>1182.4</ele>
        <time>2026-07-08T09:12:23Z</time>
      </trkpt>
      <trkpt lat="42.9959" lon="0.31791">
        <ele>1182.4</ele>
        <time>2026-07-08T09:12:23Z</time>
      </trkpt>
      <trkpt lat="42.9959" lon="0.3179">
        <ele>1182.4</ele>
        <time>2026-07-08T09:12:24Z</time>
      </trkpt>
      <trkpt lat="42.99591" lon="0.3179">
        <ele>1182.4</ele>
        <time>2026-07-08T09:12:25Z</time>
      </trkpt>
      <trkpt lat="42.99591" lon="0.31789">
        <ele>1181.4</ele>
        <time>2026-07-08T09:12:25Z</time>
      </trkpt>
      <trkpt lat="42.99592" lon="0.31788">
        <ele>1181.4</ele>
        <time>2026-07-08T09:12:26Z</time>
      </trkpt>
      <trkpt lat="42.99592" lon="0.31787">
        <ele>1181.4</ele>
        <time>2026-07-08T09:12:26Z</time>
      </trkpt>
      <trkpt lat="42.99592" lon="0.31787">
        <ele>1181.4</ele>
        <time>2026-07-08T09:12:27Z</time>
      </trkpt>
      <trkpt lat="42.99593" lon="0.31786">
        <ele>1181.4</ele>
        <time>2026-07-08T09:12:27Z</time>
      </trkpt>
      <trkpt lat="42.99593" lon="0.31785">
        <ele>1181.4</ele>
        <time>2026-07-08T09:12:28Z</time>
      </trkpt>
      <trkpt lat="42.99593" lon="0.31784">
        <ele>1182.4</ele>
        <time>2026-07-08T09:12:28Z</time>
      </trkpt>
      <trkpt lat="42.99593" lon="0.31783">
        <ele>1182.4</ele>
        <time>2026-07-08T09:12:29Z</time>
      </trkpt>
      <trkpt lat="42.99594" lon="0.31782">
        <ele>1182.4</ele>
        <time>2026-07-08T09:12:29Z</time>
      </trkpt>
      <trkpt lat="42.99594" lon="0.31782">
        <ele>1182.4</ele>
        <time>2026-07-08T09:12:30Z</time>
      </trkpt>
      <trkpt lat="42.99595" lon="0.31781">
        <ele>1181.4</ele>
        <time>2026-07-08T09:12:30Z</time>
      </trkpt>
      <trkpt lat="42.99595" lon="0.3178">
        <ele>1181.4</ele>
        <time>2026-07-08T09:12:31Z</time>
      </trkpt>
      <trkpt lat="42.99595" lon="0.31779">
        <ele>1181.4</ele>
        <time>2026-07-08T09:12:32Z</time>
      </trkpt>
      <trkpt lat="42.99596" lon="0.31778">
        <ele>1181.4</ele>
        <time>2026-07-08T09:12:32Z</time>
      </trkpt>
      <trkpt lat="42.99596" lon="0.31778">
        <ele>1181.4</ele>
        <time>2026-07-08T09:12:33Z</time>
      </trkpt>
      <trkpt lat="42.99597" lon="0.31777">
        <ele>1181.4</ele>
        <time>2026-07-08T09:12:33Z</time>
      </trkpt>
      <trkpt lat="42.99597" lon="0.31776">
        <ele>1181.4</ele>
        <time>2026-07-08T09:12:34Z</time>
      </trkpt>
      <trkpt lat="42.99597" lon="0.31775">
        <ele>1182.4</ele>
        <time>2026-07-08T09:12:34Z</time>
      </trkpt>
      <trkpt lat="42.99598" lon="0.31775">
        <ele>1182.4</ele>
        <time>2026-07-08T09:12:35Z</time>
      </trkpt>
      <trkpt lat="42.99598" lon="0.31774">
        <ele>1182.4</ele>
        <time>2026-07-08T09:12:35Z</time>
      </trkpt>
      <trkpt lat="42.99599" lon="0.31773">
        <ele>1182.4</ele>
        <time>2026-07-08T09:12:36Z</time>
      </trkpt>
      <trkpt lat="42.99599" lon="0.31772">
        <ele>1181.4</ele>
        <time>2026-07-08T09:12:36Z</time>
      </trkpt>
      <trkpt lat="42.99599" lon="0.31772">
        <ele>1181.4</ele>
        <time>2026-07-08T09:12:37Z</time>
      </trkpt>
      <trkpt lat="42.99599" lon="0.31771">
        <ele>1181.4</ele>
        <time>2026-07-08T09:12:38Z</time>
      </trkpt>
      <trkpt lat="42.99599" lon="0.3177">
        <ele>1181.4</ele>
        <time>2026-07-08T09:12:38Z</time>
      </trkpt>
      <trkpt lat="42.996" lon="0.3177">
        <ele>1181.4</ele>
        <time>2026-07-08T09:12:39Z</time>
      </trkpt>
      <trkpt lat="42.996" lon="0.31769">
        <ele>1181.4</ele>
        <time>2026-07-08T09:12:39Z</time>
      </trkpt>
      <trkpt lat="42.996" lon="0.31768">
        <ele>1181.4</ele>
        <time>2026-07-08T09:12:40Z</time>
      </trkpt>
      <trkpt lat="42.996" lon="0.31767">
        <ele>1181.4</ele>
        <time>2026-07-08T09:12:40Z</time>
      </trkpt>
      <trkpt lat="42.996" lon="0.31766">
        <ele>1181.4</ele>
        <time>2026-07-08T09:12:41Z</time>
      </trkpt>
      <trkpt lat="42.996" lon="0.31766">
        <ele>1182.4</ele>
        <time>2026-07-08T09:12:41Z</time>
      </trkpt>
      <trkpt lat="42.99601" lon="0.31765">
        <ele>1182.4</ele>
        <time>2026-07-08T09:12:42Z</time>
      </trkpt>
      <trkpt lat="42.99601" lon="0.31764">
        <ele>1182.4</ele>
        <time>2026-07-08T09:12:43Z</time>
      </trkpt>
      <trkpt lat="42.99601" lon="0.31764">
        <ele>1182.4</ele>
        <time>2026-07-08T09:12:43Z</time>
      </trkpt>
      <trkpt lat="42.99601" lon="0.31763">
        <ele>1182.4</ele>
        <time>2026-07-08T09:12:44Z</time>
      </trkpt>
      <trkpt lat="42.99601" lon="0.31762">
        <ele>1182.4</ele>
        <time>2026-07-08T09:12:44Z</time>
      </trkpt>
      <trkpt lat="42.99602" lon="0.31762">
        <ele>1182.4</ele>
        <time>2026-07-08T09:12:45Z</time>
      </trkpt>
      <trkpt lat="42.99602" lon="0.31761">
        <ele>1182.4</ele>
        <time>2026-07-08T09:12:45Z</time>
      </trkpt>
      <trkpt lat="42.99603" lon="0.3176">
        <ele>1182.4</ele>
        <time>2026-07-08T09:12:46Z</time>
      </trkpt>
      <trkpt lat="42.99603" lon="0.3176">
        <ele>1182.4</ele>
        <time>2026-07-08T09:12:46Z</time>
      </trkpt>
      <trkpt lat="42.99604" lon="0.31759">
        <ele>1182.4</ele>
        <time>2026-07-08T09:12:47Z</time>
      </trkpt>
      <trkpt lat="42.99604" lon="0.31759">
        <ele>1182.4</ele>
        <time>2026-07-08T09:12:47Z</time>
      </trkpt>
      <trkpt lat="42.99604" lon="0.31758">
        <ele>1182.4</ele>
        <time>2026-07-08T09:12:48Z</time>
      </trkpt>
      <trkpt lat="42.99605" lon="0.31757">
        <ele>1181.4</ele>
        <time>2026-07-08T09:12:49Z</time>
      </trkpt>
      <trkpt lat="42.99605" lon="0.31757">
        <ele>1181.4</ele>
        <time>2026-07-08T09:12:49Z</time>
      </trkpt>
      <trkpt lat="42.99606" lon="0.31756">
        <ele>1181.4</ele>
        <time>2026-07-08T09:12:50Z</time>
      </trkpt>
      <trkpt lat="42.99606" lon="0.31756">
        <ele>1180.4</ele>
        <time>2026-07-08T09:12:50Z</time>
      </trkpt>
      <trkpt lat="42.99606" lon="0.31755">
        <ele>1180.4</ele>
        <time>2026-07-08T09:12:51Z</time>
      </trkpt>
      <trkpt lat="42.99607" lon="0.31754">
        <ele>1180.4</ele>
        <time>2026-07-08T09:12:51Z</time>
      </trkpt>
      <trkpt lat="42.99607" lon="0.31753">
        <ele>1180.4</ele>
        <time>2026-07-08T09:12:52Z</time>
      </trkpt>
      <trkpt lat="42.99607" lon="0.31753">
        <ele>1179.4</ele>
        <time>2026-07-08T09:12:52Z</time>
      </trkpt>
      <trkpt lat="42.99608" lon="0.31752">
        <ele>1179.4</ele>
        <time>2026-07-08T09:12:53Z</time>
      </trkpt>
      <trkpt lat="42.99608" lon="0.31751">
        <ele>1178.4</ele>
        <time>2026-07-08T09:12:53Z</time>
      </trkpt>
      <trkpt lat="42.99608" lon="0.3175">
        <ele>1178.4</ele>
        <time>2026-07-08T09:12:54Z</time>
      </trkpt>
      <trkpt lat="42.99608" lon="0.31749">
        <ele>1178.4</ele>
        <time>2026-07-08T09:12:54Z</time>
      </trkpt>
      <trkpt lat="42.99608" lon="0.31748">
        <ele>1178.4</ele>
        <time>2026-07-08T09:12:55Z</time>
      </trkpt>
      <trkpt lat="42.99608" lon="0.31747">
        <ele>1177.4</ele>
        <time>2026-07-08T09:12:56Z</time>
      </trkpt>
      <trkpt lat="42.99608" lon="0.31746">
        <ele>1177.4</ele>
        <time>2026-07-08T09:12:56Z</time>
      </trkpt>
      <trkpt lat="42.99609" lon="0.31746">
        <ele>1177.4</ele>
        <time>2026-07-08T09:12:57Z</time>
      </trkpt>
      <trkpt lat="42.99609" lon="0.31745">
        <ele>1177.4</ele>
        <time>2026-07-08T09:12:57Z</time>
      </trkpt>
      <trkpt lat="42.99609" lon="0.31744">
        <ele>1177.4</ele>
        <time>2026-07-08T09:12:58Z</time>
      </trkpt>
      <trkpt lat="42.9961" lon="0.31742">
        <ele>1176.4</ele>
        <time>2026-07-08T09:12:59Z</time>
      </trkpt>
      <trkpt lat="42.9961" lon="0.31741">
        <ele>1176.4</ele>
        <time>2026-07-08T09:12:59Z</time>
      </trkpt>
      <trkpt lat="42.9961" lon="0.3174">
        <ele>1176.4</ele>
        <time>2026-07-08T09:13:00Z</time>
      </trkpt>
      <trkpt lat="42.9961" lon="0.31739">
        <ele>1177.4</ele>
        <time>2026-07-08T09:13:00Z</time>
      </trkpt>
      <trkpt lat="42.99611" lon="0.31738">
        <ele>1177.4</ele>
        <time>2026-07-08T09:13:01Z</time>
      </trkpt>
      <trkpt lat="42.99611" lon="0.31737">
        <ele>1176.4</ele>
        <time>2026-07-08T09:13:02Z</time>
      </trkpt>
      <trkpt lat="42.99611" lon="0.31737">
        <ele>1176.4</ele>
        <time>2026-07-08T09:13:02Z</time>
      </trkpt>
      <trkpt lat="42.99612" lon="0.31736">
        <ele>1176.4</ele>
        <time>2026-07-08T09:13:03Z</time>
      </trkpt>
      <trkpt lat="42.99611" lon="0.31735">
        <ele>1177.4</ele>
        <time>2026-07-08T09:13:03Z</time>
      </trkpt>
      <trkpt lat="42.99612" lon="0.31734">
        <ele>1177.4</ele>
        <time>2026-07-08T09:13:04Z</time>
      </trkpt>
      <trkpt lat="42.99612" lon="0.31733">
        <ele>1177.4</ele>
        <time>2026-07-08T09:13:04Z</time>
      </trkpt>
      <trkpt lat="42.99612" lon="0.31732">
        <ele>1177.4</ele>
        <time>2026-07-08T09:13:05Z</time>
      </trkpt>
      <trkpt lat="42.99612" lon="0.31731">
        <ele>1177.4</ele>
        <time>2026-07-08T09:13:05Z</time>
      </trkpt>
      <trkpt lat="42.99613" lon="0.3173">
        <ele>1177.4</ele>
        <time>2026-07-08T09:13:06Z</time>
      </trkpt>
      <trkpt lat="42.99613" lon="0.31729">
        <ele>1177.4</ele>
        <time>2026-07-08T09:13:06Z</time>
      </trkpt>
      <trkpt lat="42.99613" lon="0.31728">
        <ele>1177.4</ele>
        <time>2026-07-08T09:13:07Z</time>
      </trkpt>
      <trkpt lat="42.99613" lon="0.31727">
        <ele>1178.4</ele>
        <time>2026-07-08T09:13:08Z</time>
      </trkpt>
      <trkpt lat="42.99613" lon="0.31726">
        <ele>1178.4</ele>
        <time>2026-07-08T09:13:08Z</time>
      </trkpt>
      <trkpt lat="42.99614" lon="0.31725">
        <ele>1178.4</ele>
        <time>2026-07-08T09:13:09Z</time>
      </trkpt>
      <trkpt lat="42.99614" lon="0.31724">
        <ele>1178.4</ele>
        <time>2026-07-08T09:13:09Z</time>
      </trkpt>
      <trkpt lat="42.99614" lon="0.31724">
        <ele>1178.4</ele>
        <time>2026-07-08T09:13:10Z</time>
      </trkpt>
      <trkpt lat="42.99615" lon="0.31723">
        <ele>1179.4</ele>
        <time>2026-07-08T09:13:10Z</time>
      </trkpt>
      <trkpt lat="42.99615" lon="0.31722">
        <ele>1179.4</ele>
        <time>2026-07-08T09:13:11Z</time>
      </trkpt>
      <trkpt lat="42.99615" lon="0.31721">
        <ele>1179.4</ele>
        <time>2026-07-08T09:13:11Z</time>
      </trkpt>
      <trkpt lat="42.99615" lon="0.3172">
        <ele>1179.4</ele>
        <time>2026-07-08T09:13:12Z</time>
      </trkpt>
      <trkpt lat="42.99616" lon="0.31719">
        <ele>1179.4</ele>
        <time>2026-07-08T09:13:12Z</time>
      </trkpt>
      <trkpt lat="42.99616" lon="0.31718">
        <ele>1179.4</ele>
        <time>2026-07-08T09:13:13Z</time>
      </trkpt>
      <trkpt lat="42.99616" lon="0.31717">
        <ele>1179.4</ele>
        <time>2026-07-08T09:13:13Z</time>
      </trkpt>
      <trkpt lat="42.99616" lon="0.31716">
        <ele>1180.4</ele>
        <time>2026-07-08T09:13:14Z</time>
      </trkpt>
      <trkpt lat="42.99616" lon="0.31715">
        <ele>1180.4</ele>
        <time>2026-07-08T09:13:15Z</time>
      </trkpt>
      <trkpt lat="42.99616" lon="0.31714">
        <ele>1180.4</ele>
        <time>2026-07-08T09:13:15Z</time>
      </trkpt>
      <trkpt lat="42.99617" lon="0.31713">
        <ele>1180.4</ele>
        <time>2026-07-08T09:13:16Z</time>
      </trkpt>
      <trkpt lat="42.99616" lon="0.31712">
        <ele>1180.4</ele>
        <time>2026-07-08T09:13:16Z</time>
      </trkpt>
      <trkpt lat="42.99617" lon="0.31711">
        <ele>1180.4</ele>
        <time>2026-07-08T09:13:17Z</time>
      </trkpt>
      <trkpt lat="42.99617" lon="0.3171">
        <ele>1180.4</ele>
        <time>2026-07-08T09:13:17Z</time>
      </trkpt>
      <trkpt lat="42.99617" lon="0.31709">
        <ele>1180.4</ele>
        <time>2026-07-08T09:13:18Z</time>
      </trkpt>
      <trkpt lat="42.99617" lon="0.31708">
        <ele>1181.4</ele>
        <time>2026-07-08T09:13:18Z</time>
      </trkpt>
      <trkpt lat="42.99617" lon="0.31707">
        <ele>1181.4</ele>
        <time>2026-07-08T09:13:19Z</time>
      </trkpt>
      <trkpt lat="42.99617" lon="0.31706">
        <ele>1181.4</ele>
        <time>2026-07-08T09:13:20Z</time>
      </trkpt>
      <trkpt lat="42.99617" lon="0.31705">
        <ele>1181.4</ele>
        <time>2026-07-08T09:13:20Z</time>
      </trkpt>
      <trkpt lat="42.99617" lon="0.31704">
        <ele>1180.4</ele>
        <time>2026-07-08T09:13:21Z</time>
      </trkpt>
      <trkpt lat="42.99618" lon="0.31703">
        <ele>1180.4</ele>
        <time>2026-07-08T09:13:21Z</time>
      </trkpt>
      <trkpt lat="42.99618" lon="0.31702">
        <ele>1180.4</ele>
        <time>2026-07-08T09:13:22Z</time>
      </trkpt>
      <trkpt lat="42.99618" lon="0.31701">
        <ele>1180.4</ele>
        <time>2026-07-08T09:13:22Z</time>
      </trkpt>
      <trkpt lat="42.99618" lon="0.317">
        <ele>1180.4</ele>
        <time>2026-07-08T09:13:23Z</time>
      </trkpt>
      <trkpt lat="42.99618" lon="0.31699">
        <ele>1180.4</ele>
        <time>2026-07-08T09:13:23Z</time>
      </trkpt>
      <trkpt lat="42.99619" lon="0.31698">
        <ele>1180.4</ele>
        <time>2026-07-08T09:13:24Z</time>
      </trkpt>
      <trkpt lat="42.99619" lon="0.31698">
        <ele>1180.4</ele>
        <time>2026-07-08T09:13:24Z</time>
      </trkpt>
      <trkpt lat="42.99619" lon="0.31697">
        <ele>1180.4</ele>
        <time>2026-07-08T09:13:25Z</time>
      </trkpt>
      <trkpt lat="42.9962" lon="0.31696">
        <ele>1181.4</ele>
        <time>2026-07-08T09:13:25Z</time>
      </trkpt>
      <trkpt lat="42.9962" lon="0.31695">
        <ele>1181.4</ele>
        <time>2026-07-08T09:13:26Z</time>
      </trkpt>
      <trkpt lat="42.9962" lon="0.31694">
        <ele>1181.4</ele>
        <time>2026-07-08T09:13:27Z</time>
      </trkpt>
      <trkpt lat="42.99621" lon="0.31694">
        <ele>1180.4</ele>
        <time>2026-07-08T09:13:27Z</time>
      </trkpt>
      <trkpt lat="42.99621" lon="0.31693">
        <ele>1180.4</ele>
        <time>2026-07-08T09:13:28Z</time>
      </trkpt>
      <trkpt lat="42.99621" lon="0.31692">
        <ele>1180.4</ele>
        <time>2026-07-08T09:13:28Z</time>
      </trkpt>
      <trkpt lat="42.99622" lon="0.31691">
        <ele>1180.4</ele>
        <time>2026-07-08T09:13:29Z</time>
      </trkpt>
      <trkpt lat="42.99622" lon="0.31691">
        <ele>1179.4</ele>
        <time>2026-07-08T09:13:29Z</time>
      </trkpt>
      <trkpt lat="42.99622" lon="0.3169">
        <ele>1179.4</ele>
        <time>2026-07-08T09:13:30Z</time>
      </trkpt>
      <trkpt lat="42.99623" lon="0.31689">
        <ele>1179.4</ele>
        <time>2026-07-08T09:13:30Z</time>
      </trkpt>
      <trkpt lat="42.99623" lon="0.31688">
        <ele>1179.4</ele>
        <time>2026-07-08T09:13:31Z</time>
      </trkpt>
      <trkpt lat="42.99623" lon="0.31686">
        <ele>1179.4</ele>
        <time>2026-07-08T09:13:32Z</time>
      </trkpt>
      <trkpt lat="42.99624" lon="0.31685">
        <ele>1179.4</ele>
        <time>2026-07-08T09:13:32Z</time>
      </trkpt>
      <trkpt lat="42.99624" lon="0.31684">
        <ele>1179.4</ele>
        <time>2026-07-08T09:13:33Z</time>
      </trkpt>
      <trkpt lat="42.99624" lon="0.31684">
        <ele>1178.4</ele>
        <time>2026-07-08T09:13:33Z</time>
      </trkpt>
      <trkpt lat="42.99625" lon="0.31683">
        <ele>1178.4</ele>
        <time>2026-07-08T09:13:34Z</time>
      </trkpt>
      <trkpt lat="42.99625" lon="0.31682">
        <ele>1178.4</ele>
        <time>2026-07-08T09:13:35Z</time>
      </trkpt>
      <trkpt lat="42.99626" lon="0.31681">
        <ele>1178.4</ele>
        <time>2026-07-08T09:13:35Z</time>
      </trkpt>
      <trkpt lat="42.99626" lon="0.3168">
        <ele>1178.4</ele>
        <time>2026-07-08T09:13:36Z</time>
      </trkpt>
      <trkpt lat="42.99627" lon="0.3168">
        <ele>1178.4</ele>
        <time>2026-07-08T09:13:36Z</time>
      </trkpt>
      <trkpt lat="42.99627" lon="0.31679">
        <ele>1178.4</ele>
        <time>2026-07-08T09:13:37Z</time>
      </trkpt>
      <trkpt lat="42.99627" lon="0.31678">
        <ele>1178.4</ele>
        <time>2026-07-08T09:13:37Z</time>
      </trkpt>
      <trkpt lat="42.99628" lon="0.31677">
        <ele>1178.4</ele>
        <time>2026-07-08T09:13:38Z</time>
      </trkpt>
      <trkpt lat="42.99628" lon="0.31676">
        <ele>1178.4</ele>
        <time>2026-07-08T09:13:38Z</time>
      </trkpt>
      <trkpt lat="42.99628" lon="0.31675">
        <ele>1178.4</ele>
        <time>2026-07-08T09:13:39Z</time>
      </trkpt>
      <trkpt lat="42.99629" lon="0.31675">
        <ele>1178.4</ele>
        <time>2026-07-08T09:13:39Z</time>
      </trkpt>
      <trkpt lat="42.99629" lon="0.31674">
        <ele>1178.4</ele>
        <time>2026-07-08T09:13:40Z</time>
      </trkpt>
      <trkpt lat="42.99629" lon="0.31673">
        <ele>1178.4</ele>
        <time>2026-07-08T09:13:41Z</time>
      </trkpt>
      <trkpt lat="42.9963" lon="0.31672">
        <ele>1179.4</ele>
        <time>2026-07-08T09:13:41Z</time>
      </trkpt>
      <trkpt lat="42.9963" lon="0.31671">
        <ele>1179.4</ele>
        <time>2026-07-08T09:13:42Z</time>
      </trkpt>
      <trkpt lat="42.9963" lon="0.3167">
        <ele>1178.4</ele>
        <time>2026-07-08T09:13:42Z</time>
      </trkpt>
      <trkpt lat="42.9963" lon="0.31669">
        <ele>1178.4</ele>
        <time>2026-07-08T09:13:43Z</time>
      </trkpt>
      <trkpt lat="42.9963" lon="0.31668">
        <ele>1178.4</ele>
        <time>2026-07-08T09:13:43Z</time>
      </trkpt>
      <trkpt lat="42.9963" lon="0.31667">
        <ele>1178.4</ele>
        <time>2026-07-08T09:13:44Z</time>
      </trkpt>
      <trkpt lat="42.9963" lon="0.31667">
        <ele>1177.4</ele>
        <time>2026-07-08T09:13:44Z</time>
      </trkpt>
      <trkpt lat="42.99631" lon="0.31666">
        <ele>1177.4</ele>
        <time>2026-07-08T09:13:45Z</time>
      </trkpt>
      <trkpt lat="42.99631" lon="0.31665">
        <ele>1177.4</ele>
        <time>2026-07-08T09:13:45Z</time>
      </trkpt>
      <trkpt lat="42.99631" lon="0.31664">
        <ele>1177.4</ele>
        <time>2026-07-08T09:13:46Z</time>
      </trkpt>
      <trkpt lat="42.99631" lon="0.31663">
        <ele>1177.4</ele>
        <time>2026-07-08T09:13:47Z</time>
      </trkpt>
      <trkpt lat="42.99631" lon="0.31662">
        <ele>1177.4</ele>
        <time>2026-07-08T09:13:47Z</time>
      </trkpt>
      <trkpt lat="42.99632" lon="0.31662">
        <ele>1177.4</ele>
        <time>2026-07-08T09:13:48Z</time>
      </trkpt>
      <trkpt lat="42.99632" lon="0.31661">
        <ele>1177.4</ele>
        <time>2026-07-08T09:13:48Z</time>
      </trkpt>
      <trkpt lat="42.99632" lon="0.31659">
        <ele>1177.4</ele>
        <time>2026-07-08T09:13:49Z</time>
      </trkpt>
      <trkpt lat="42.99631" lon="0.31658">
        <ele>1177.4</ele>
        <time>2026-07-08T09:13:50Z</time>
      </trkpt>
      <trkpt lat="42.99631" lon="0.31657">
        <ele>1177.4</ele>
        <time>2026-07-08T09:13:51Z</time>
      </trkpt>
      <trkpt lat="42.99631" lon="0.31655">
        <ele>1177.4</ele>
        <time>2026-07-08T09:13:52Z</time>
      </trkpt>
      <trkpt lat="42.99631" lon="0.31655">
        <ele>1178.4</ele>
        <time>2026-07-08T09:13:52Z</time>
      </trkpt>
      <trkpt lat="42.99631" lon="0.31654">
        <ele>1178.4</ele>
        <time>2026-07-08T09:13:53Z</time>
      </trkpt>
      <trkpt lat="42.99631" lon="0.31652">
        <ele>1178.4</ele>
        <time>2026-07-08T09:13:54Z</time>
      </trkpt>
      <trkpt lat="42.99631" lon="0.3165">
        <ele>1178.4</ele>
        <time>2026-07-08T09:13:55Z</time>
      </trkpt>
      <trkpt lat="42.99632" lon="0.31648">
        <ele>1180.4</ele>
        <time>2026-07-08T09:13:55Z</time>
      </trkpt>
      <trkpt lat="42.99632" lon="0.31647">
        <ele>1180.4</ele>
        <time>2026-07-08T09:13:56Z</time>
      </trkpt>
      <trkpt lat="42.99633" lon="0.31644">
        <ele>1182.4</ele>
        <time>2026-07-08T09:13:57Z</time>
      </trkpt>
      <trkpt lat="42.99633" lon="0.31642">
        <ele>1183.4</ele>
        <time>2026-07-08T09:13:57Z</time>
      </trkpt>
      <trkpt lat="42.99634" lon="0.31641">
        <ele>1183.4</ele>
        <time>2026-07-08T09:13:58Z</time>
      </trkpt>
      <trkpt lat="42.99634" lon="0.3164">
        <ele>1183.4</ele>
        <time>2026-07-08T09:13:59Z</time>
      </trkpt>
      <trkpt lat="42.99634" lon="0.31638">
        <ele>1182.4</ele>
        <time>2026-07-08T09:13:59Z</time>
      </trkpt>
      <trkpt lat="42.99634" lon="0.31637">
        <ele>1182.4</ele>
        <time>2026-07-08T09:14:00Z</time>
      </trkpt>
      <trkpt lat="42.99634" lon="0.31636">
        <ele>1182.4</ele>
        <time>2026-07-08T09:14:00Z</time>
      </trkpt>
      <trkpt lat="42.99635" lon="0.31634">
        <ele>1182.4</ele>
        <time>2026-07-08T09:14:01Z</time>
      </trkpt>
      <trkpt lat="42.99635" lon="0.31633">
        <ele>1183.4</ele>
        <time>2026-07-08T09:14:01Z</time>
      </trkpt>
      <trkpt lat="42.99635" lon="0.31632">
        <ele>1183.4</ele>
        <time>2026-07-08T09:14:02Z</time>
      </trkpt>
      <trkpt lat="42.99635" lon="0.3163">
        <ele>1182.4</ele>
        <time>2026-07-08T09:14:02Z</time>
      </trkpt>
      <trkpt lat="42.99635" lon="0.31629">
        <ele>1182.4</ele>
        <time>2026-07-08T09:14:03Z</time>
      </trkpt>
      <trkpt lat="42.99636" lon="0.31628">
        <ele>1183.4</ele>
        <time>2026-07-08T09:14:04Z</time>
      </trkpt>
      <trkpt lat="42.99636" lon="0.31627">
        <ele>1183.4</ele>
        <time>2026-07-08T09:14:04Z</time>
      </trkpt>
      <trkpt lat="42.99636" lon="0.31626">
        <ele>1183.4</ele>
        <time>2026-07-08T09:14:05Z</time>
      </trkpt>
      <trkpt lat="42.99636" lon="0.31624">
        <ele>1183.4</ele>
        <time>2026-07-08T09:14:05Z</time>
      </trkpt>
      <trkpt lat="42.99636" lon="0.31623">
        <ele>1183.4</ele>
        <time>2026-07-08T09:14:06Z</time>
      </trkpt>
      <trkpt lat="42.99636" lon="0.31622">
        <ele>1183.4</ele>
        <time>2026-07-08T09:14:06Z</time>
      </trkpt>
      <trkpt lat="42.99636" lon="0.31621">
        <ele>1184.4</ele>
        <time>2026-07-08T09:14:07Z</time>
      </trkpt>
      <trkpt lat="42.99636" lon="0.31619">
        <ele>1184.4</ele>
        <time>2026-07-08T09:14:08Z</time>
      </trkpt>
      <trkpt lat="42.99637" lon="0.31618">
        <ele>1184.4</ele>
        <time>2026-07-08T09:14:09Z</time>
      </trkpt>
      <trkpt lat="42.99637" lon="0.31617">
        <ele>1185.4</ele>
        <time>2026-07-08T09:14:09Z</time>
      </trkpt>
      <trkpt lat="42.99637" lon="0.31616">
        <ele>1185.4</ele>
        <time>2026-07-08T09:14:10Z</time>
      </trkpt>
      <trkpt lat="42.99637" lon="0.31615">
        <ele>1186.4</ele>
        <time>2026-07-08T09:14:10Z</time>
      </trkpt>
      <trkpt lat="42.99637" lon="0.31613">
        <ele>1186.4</ele>
        <time>2026-07-08T09:14:11Z</time>
      </trkpt>
      <trkpt lat="42.99638" lon="0.31611">
        <ele>1186.4</ele>
        <time>2026-07-08T09:14:12Z</time>
      </trkpt>
      <trkpt lat="42.99638" lon="0.31609">
        <ele>1187.4</ele>
        <time>2026-07-08T09:14:13Z</time>
      </trkpt>
      <trkpt lat="42.99638" lon="0.31608">
        <ele>1186.4</ele>
        <time>2026-07-08T09:14:13Z</time>
      </trkpt>
      <trkpt lat="42.99638" lon="0.31607">
        <ele>1186.4</ele>
        <time>2026-07-08T09:14:14Z</time>
      </trkpt>
      <trkpt lat="42.99639" lon="0.31606">
        <ele>1186.4</ele>
        <time>2026-07-08T09:14:15Z</time>
      </trkpt>
      <trkpt lat="42.99639" lon="0.31605">
        <ele>1186.4</ele>
        <time>2026-07-08T09:14:15Z</time>
      </trkpt>
      <trkpt lat="42.99639" lon="0.31604">
        <ele>1186.4</ele>
        <time>2026-07-08T09:14:16Z</time>
      </trkpt>
      <trkpt lat="42.99639" lon="0.31602">
        <ele>1186.4</ele>
        <time>2026-07-08T09:14:17Z</time>
      </trkpt>
      <trkpt lat="42.99639" lon="0.31601">
        <ele>1185.4</ele>
        <time>2026-07-08T09:14:17Z</time>
      </trkpt>
      <trkpt lat="42.99639" lon="0.316">
        <ele>1185.4</ele>
        <time>2026-07-08T09:14:18Z</time>
      </trkpt>
      <trkpt lat="42.99639" lon="0.31598">
        <ele>1185.4</ele>
        <time>2026-07-08T09:14:19Z</time>
      </trkpt>
      <trkpt lat="42.99639" lon="0.31596">
        <ele>1185.4</ele>
        <time>2026-07-08T09:14:20Z</time>
      </trkpt>
      <trkpt lat="42.99639" lon="0.31595">
        <ele>1185.4</ele>
        <time>2026-07-08T09:14:21Z</time>
      </trkpt>
      <trkpt lat="42.9964" lon="0.31594">
        <ele>1185.4</ele>
        <time>2026-07-08T09:14:21Z</time>
      </trkpt>
      <trkpt lat="42.9964" lon="0.31593">
        <ele>1185.4</ele>
        <time>2026-07-08T09:14:22Z</time>
      </trkpt>
      <trkpt lat="42.9964" lon="0.31593">
        <ele>1185.4</ele>
        <time>2026-07-08T09:14:22Z</time>
      </trkpt>
      <trkpt lat="42.9964" lon="0.31592">
        <ele>1185.4</ele>
        <time>2026-07-08T09:14:23Z</time>
      </trkpt>
      <trkpt lat="42.99641" lon="0.31591">
        <ele>1185.4</ele>
        <time>2026-07-08T09:14:23Z</time>
      </trkpt>
      <trkpt lat="42.99641" lon="0.3159">
        <ele>1185.4</ele>
        <time>2026-07-08T09:14:24Z</time>
      </trkpt>
      <trkpt lat="42.99641" lon="0.31589">
        <ele>1185.4</ele>
        <time>2026-07-08T09:14:24Z</time>
      </trkpt>
      <trkpt lat="42.99641" lon="0.31588">
        <ele>1185.4</ele>
        <time>2026-07-08T09:14:25Z</time>
      </trkpt>
      <trkpt lat="42.99641" lon="0.31586">
        <ele>1185.4</ele>
        <time>2026-07-08T09:14:26Z</time>
      </trkpt>
      <trkpt lat="42.99642" lon="0.31585">
        <ele>1185.4</ele>
        <time>2026-07-08T09:14:27Z</time>
      </trkpt>
      <trkpt lat="42.99642" lon="0.31584">
        <ele>1186.4</ele>
        <time>2026-07-08T09:14:27Z</time>
      </trkpt>
      <trkpt lat="42.99642" lon="0.31583">
        <ele>1186.4</ele>
        <time>2026-07-08T09:14:28Z</time>
      </trkpt>
      <trkpt lat="42.99642" lon="0.31582">
        <ele>1186.4</ele>
        <time>2026-07-08T09:14:28Z</time>
      </trkpt>
      <trkpt lat="42.99642" lon="0.31581">
        <ele>1186.4</ele>
        <time>2026-07-08T09:14:29Z</time>
      </trkpt>
      <trkpt lat="42.99642" lon="0.3158">
        <ele>1186.4</ele>
        <time>2026-07-08T09:14:29Z</time>
      </trkpt>
      <trkpt lat="42.99643" lon="0.31579">
        <ele>1186.4</ele>
        <time>2026-07-08T09:14:30Z</time>
      </trkpt>
      <trkpt lat="42.99643" lon="0.31577">
        <ele>1186.4</ele>
        <time>2026-07-08T09:14:31Z</time>
      </trkpt>
      <trkpt lat="42.99643" lon="0.31576">
        <ele>1186.4</ele>
        <time>2026-07-08T09:14:31Z</time>
      </trkpt>
      <trkpt lat="42.99643" lon="0.31575">
        <ele>1186.4</ele>
        <time>2026-07-08T09:14:32Z</time>
      </trkpt>
      <trkpt lat="42.99644" lon="0.31574">
        <ele>1186.4</ele>
        <time>2026-07-08T09:14:33Z</time>
      </trkpt>
      <trkpt lat="42.99644" lon="0.31573">
        <ele>1186.4</ele>
        <time>2026-07-08T09:14:33Z</time>
      </trkpt>
      <trkpt lat="42.99644" lon="0.31572">
        <ele>1186.4</ele>
        <time>2026-07-08T09:14:34Z</time>
      </trkpt>
      <trkpt lat="42.99644" lon="0.31571">
        <ele>1186.4</ele>
        <time>2026-07-08T09:14:34Z</time>
      </trkpt>
      <trkpt lat="42.99644" lon="0.3157">
        <ele>1186.4</ele>
        <time>2026-07-08T09:14:35Z</time>
      </trkpt>
      <trkpt lat="42.99644" lon="0.3157">
        <ele>1186.4</ele>
        <time>2026-07-08T09:14:35Z</time>
      </trkpt>
      <trkpt lat="42.99644" lon="0.31569">
        <ele>1186.4</ele>
        <time>2026-07-08T09:14:36Z</time>
      </trkpt>
      <trkpt lat="42.99644" lon="0.31568">
        <ele>1186.4</ele>
        <time>2026-07-08T09:14:36Z</time>
      </trkpt>
      <trkpt lat="42.99644" lon="0.31567">
        <ele>1186.4</ele>
        <time>2026-07-08T09:14:37Z</time>
      </trkpt>
      <trkpt lat="42.99644" lon="0.31565">
        <ele>1186.4</ele>
        <time>2026-07-08T09:14:38Z</time>
      </trkpt>
      <trkpt lat="42.99645" lon="0.31564">
        <ele>1185.4</ele>
        <time>2026-07-08T09:14:38Z</time>
      </trkpt>
      <trkpt lat="42.99645" lon="0.31563">
        <ele>1185.4</ele>
        <time>2026-07-08T09:14:39Z</time>
      </trkpt>
      <trkpt lat="42.99645" lon="0.31562">
        <ele>1185.4</ele>
        <time>2026-07-08T09:14:40Z</time>
      </trkpt>
      <trkpt lat="42.99645" lon="0.31561">
        <ele>1185.4</ele>
        <time>2026-07-08T09:14:40Z</time>
      </trkpt>
      <trkpt lat="42.99645" lon="0.3156">
        <ele>1185.4</ele>
        <time>2026-07-08T09:14:41Z</time>
      </trkpt>
      <trkpt lat="42.99645" lon="0.31559">
        <ele>1185.4</ele>
        <time>2026-07-08T09:14:42Z</time>
      </trkpt>
      <trkpt lat="42.99646" lon="0.31558">
        <ele>1185.4</ele>
        <time>2026-07-08T09:14:42Z</time>
      </trkpt>
      <trkpt lat="42.99646" lon="0.31557">
        <ele>1185.4</ele>
        <time>2026-07-08T09:14:43Z</time>
      </trkpt>
      <trkpt lat="42.99646" lon="0.31556">
        <ele>1185.4</ele>
        <time>2026-07-08T09:14:44Z</time>
      </trkpt>
      <trkpt lat="42.99646" lon="0.31556">
        <ele>1185.4</ele>
        <time>2026-07-08T09:14:44Z</time>
      </trkpt>
      <trkpt lat="42.99646" lon="0.31555">
        <ele>1185.4</ele>
        <time>2026-07-08T09:14:45Z</time>
      </trkpt>
      <trkpt lat="42.99647" lon="0.31554">
        <ele>1185.4</ele>
        <time>2026-07-08T09:14:45Z</time>
      </trkpt>
      <trkpt lat="42.99647" lon="0.31553">
        <ele>1185.4</ele>
        <time>2026-07-08T09:14:46Z</time>
      </trkpt>
      <trkpt lat="42.99647" lon="0.31552">
        <ele>1185.4</ele>
        <time>2026-07-08T09:14:46Z</time>
      </trkpt>
      <trkpt lat="42.99647" lon="0.31551">
        <ele>1185.4</ele>
        <time>2026-07-08T09:14:47Z</time>
      </trkpt>
      <trkpt lat="42.99648" lon="0.3155">
        <ele>1185.4</ele>
        <time>2026-07-08T09:14:47Z</time>
      </trkpt>
      <trkpt lat="42.99648" lon="0.3155">
        <ele>1185.4</ele>
        <time>2026-07-08T09:14:48Z</time>
      </trkpt>
      <trkpt lat="42.99648" lon="0.31549">
        <ele>1185.4</ele>
        <time>2026-07-08T09:14:48Z</time>
      </trkpt>
      <trkpt lat="42.99648" lon="0.31548">
        <ele>1185.4</ele>
        <time>2026-07-08T09:14:49Z</time>
      </trkpt>
      <trkpt lat="42.99648" lon="0.31546">
        <ele>1185.4</ele>
        <time>2026-07-08T09:14:50Z</time>
      </trkpt>
      <trkpt lat="42.99649" lon="0.31546">
        <ele>1185.4</ele>
        <time>2026-07-08T09:14:50Z</time>
      </trkpt>
      <trkpt lat="42.99649" lon="0.31545">
        <ele>1185.4</ele>
        <time>2026-07-08T09:14:51Z</time>
      </trkpt>
      <trkpt lat="42.99649" lon="0.31544">
        <ele>1185.4</ele>
        <time>2026-07-08T09:14:51Z</time>
      </trkpt>
      <trkpt lat="42.99649" lon="0.31543">
        <ele>1185.4</ele>
        <time>2026-07-08T09:14:52Z</time>
      </trkpt>
      <trkpt lat="42.99649" lon="0.31542">
        <ele>1185.4</ele>
        <time>2026-07-08T09:14:52Z</time>
      </trkpt>
      <trkpt lat="42.9965" lon="0.31541">
        <ele>1185.4</ele>
        <time>2026-07-08T09:14:53Z</time>
      </trkpt>
      <trkpt lat="42.9965" lon="0.3154">
        <ele>1186.4</ele>
        <time>2026-07-08T09:14:53Z</time>
      </trkpt>
      <trkpt lat="42.9965" lon="0.31539">
        <ele>1186.4</ele>
        <time>2026-07-08T09:14:54Z</time>
      </trkpt>
      <trkpt lat="42.99651" lon="0.31537">
        <ele>1186.4</ele>
        <time>2026-07-08T09:14:55Z</time>
      </trkpt>
      <trkpt lat="42.99651" lon="0.31536">
        <ele>1186.4</ele>
        <time>2026-07-08T09:14:56Z</time>
      </trkpt>
      <trkpt lat="42.99652" lon="0.31536">
        <ele>1186.4</ele>
        <time>2026-07-08T09:14:57Z</time>
      </trkpt>
      <trkpt lat="42.99653" lon="0.31536">
        <ele>1186.4</ele>
        <time>2026-07-08T09:14:57Z</time>
      </trkpt>
      <trkpt lat="42.99653" lon="0.31536">
        <ele>1186.4</ele>
        <time>2026-07-08T09:14:58Z</time>
      </trkpt>
      <trkpt lat="42.99654" lon="0.31536">
        <ele>1186.4</ele>
        <time>2026-07-08T09:14:58Z</time>
      </trkpt>
      <trkpt lat="42.99655" lon="0.31535">
        <ele>1186.4</ele>
        <time>2026-07-08T09:14:59Z</time>
      </trkpt>
      <trkpt lat="42.99655" lon="0.31535">
        <ele>1186.4</ele>
        <time>2026-07-08T09:14:59Z</time>
      </trkpt>
      <trkpt lat="42.99656" lon="0.31535">
        <ele>1186.4</ele>
        <time>2026-07-08T09:15:00Z</time>
      </trkpt>
      <trkpt lat="42.99656" lon="0.31534">
        <ele>1186.4</ele>
        <time>2026-07-08T09:15:00Z</time>
      </trkpt>
      <trkpt lat="42.99657" lon="0.31534">
        <ele>1186.4</ele>
        <time>2026-07-08T09:15:01Z</time>
      </trkpt>
      <trkpt lat="42.99657" lon="0.31533">
        <ele>1186.4</ele>
        <time>2026-07-08T09:15:01Z</time>
      </trkpt>
      <trkpt lat="42.99658" lon="0.31533">
        <ele>1186.4</ele>
        <time>2026-07-08T09:15:02Z</time>
      </trkpt>
      <trkpt lat="42.99658" lon="0.31532">
        <ele>1186.4</ele>
        <time>2026-07-08T09:15:02Z</time>
      </trkpt>
      <trkpt lat="42.99659" lon="0.31531">
        <ele>1186.4</ele>
        <time>2026-07-08T09:15:03Z</time>
      </trkpt>
      <trkpt lat="42.9966" lon="0.3153">
        <ele>1186.4</ele>
        <time>2026-07-08T09:15:04Z</time>
      </trkpt>
      <trkpt lat="42.99661" lon="0.31529">
        <ele>1186.4</ele>
        <time>2026-07-08T09:15:05Z</time>
      </trkpt>
      <trkpt lat="42.99661" lon="0.31528">
        <ele>1186.4</ele>
        <time>2026-07-08T09:15:05Z</time>
      </trkpt>
      <trkpt lat="42.99661" lon="0.31527">
        <ele>1185.4</ele>
        <time>2026-07-08T09:15:06Z</time>
      </trkpt>
      <trkpt lat="42.99661" lon="0.31526">
        <ele>1185.4</ele>
        <time>2026-07-08T09:15:06Z</time>
      </trkpt>
      <trkpt lat="42.99661" lon="0.31524">
        <ele>1185.4</ele>
        <time>2026-07-08T09:15:07Z</time>
      </trkpt>
      <trkpt lat="42.99661" lon="0.31523">
        <ele>1185.4</ele>
        <time>2026-07-08T09:15:08Z</time>
      </trkpt>
      <trkpt lat="42.99661" lon="0.31522">
        <ele>1185.4</ele>
        <time>2026-07-08T09:15:08Z</time>
      </trkpt>
      <trkpt lat="42.99662" lon="0.31521">
        <ele>1185.4</ele>
        <time>2026-07-08T09:15:09Z</time>
      </trkpt>
      <trkpt lat="42.99661" lon="0.3152">
        <ele>1185.4</ele>
        <time>2026-07-08T09:15:09Z</time>
      </trkpt>
      <trkpt lat="42.99662" lon="0.31519">
        <ele>1185.4</ele>
        <time>2026-07-08T09:15:10Z</time>
      </trkpt>
      <trkpt lat="42.99662" lon="0.31518">
        <ele>1184.4</ele>
        <time>2026-07-08T09:15:10Z</time>
      </trkpt>
      <trkpt lat="42.99662" lon="0.31517">
        <ele>1184.4</ele>
        <time>2026-07-08T09:15:11Z</time>
      </trkpt>
      <trkpt lat="42.99662" lon="0.31516">
        <ele>1184.4</ele>
        <time>2026-07-08T09:15:12Z</time>
      </trkpt>
      <trkpt lat="42.99663" lon="0.31516">
        <ele>1184.4</ele>
        <time>2026-07-08T09:15:12Z</time>
      </trkpt>
      <trkpt lat="42.99663" lon="0.31515">
        <ele>1184.4</ele>
        <time>2026-07-08T09:15:13Z</time>
      </trkpt>
      <trkpt lat="42.99663" lon="0.31514">
        <ele>1183.4</ele>
        <time>2026-07-08T09:15:13Z</time>
      </trkpt>
      <trkpt lat="42.99663" lon="0.31513">
        <ele>1183.4</ele>
        <time>2026-07-08T09:15:14Z</time>
      </trkpt>
      <trkpt lat="42.99664" lon="0.31513">
        <ele>1183.4</ele>
        <time>2026-07-08T09:15:14Z</time>
      </trkpt>
      <trkpt lat="42.99664" lon="0.31512">
        <ele>1183.4</ele>
        <time>2026-07-08T09:15:15Z</time>
      </trkpt>
      <trkpt lat="42.99664" lon="0.31511">
        <ele>1183.4</ele>
        <time>2026-07-08T09:15:15Z</time>
      </trkpt>
      <trkpt lat="42.99664" lon="0.3151">
        <ele>1183.4</ele>
        <time>2026-07-08T09:15:16Z</time>
      </trkpt>
      <trkpt lat="42.99664" lon="0.31509">
        <ele>1182.4</ele>
        <time>2026-07-08T09:15:16Z</time>
      </trkpt>
      <trkpt lat="42.99664" lon="0.31508">
        <ele>1182.4</ele>
        <time>2026-07-08T09:15:17Z</time>
      </trkpt>
      <trkpt lat="42.99664" lon="0.31507">
        <ele>1183.4</ele>
        <time>2026-07-08T09:15:17Z</time>
      </trkpt>
      <trkpt lat="42.99664" lon="0.31506">
        <ele>1183.4</ele>
        <time>2026-07-08T09:15:18Z</time>
      </trkpt>
      <trkpt lat="42.99664" lon="0.31505">
        <ele>1183.4</ele>
        <time>2026-07-08T09:15:19Z</time>
      </trkpt>
      <trkpt lat="42.99663" lon="0.31504">
        <ele>1182.4</ele>
        <time>2026-07-08T09:15:19Z</time>
      </trkpt>
      <trkpt lat="42.99663" lon="0.31503">
        <ele>1182.4</ele>
        <time>2026-07-08T09:15:20Z</time>
      </trkpt>
      <trkpt lat="42.99663" lon="0.31502">
        <ele>1182.4</ele>
        <time>2026-07-08T09:15:20Z</time>
      </trkpt>
      <trkpt lat="42.99663" lon="0.31501">
        <ele>1182.4</ele>
        <time>2026-07-08T09:15:21Z</time>
      </trkpt>
      <trkpt lat="42.99662" lon="0.315">
        <ele>1181.4</ele>
        <time>2026-07-08T09:15:21Z</time>
      </trkpt>
      <trkpt lat="42.99663" lon="0.31499">
        <ele>1181.4</ele>
        <time>2026-07-08T09:15:22Z</time>
      </trkpt>
      <trkpt lat="42.99662" lon="0.31498">
        <ele>1182.4</ele>
        <time>2026-07-08T09:15:22Z</time>
      </trkpt>
      <trkpt lat="42.99662" lon="0.31497">
        <ele>1182.4</ele>
        <time>2026-07-08T09:15:23Z</time>
      </trkpt>
      <trkpt lat="42.99662" lon="0.31496">
        <ele>1181.4</ele>
        <time>2026-07-08T09:15:23Z</time>
      </trkpt>
      <trkpt lat="42.99662" lon="0.31495">
        <ele>1181.4</ele>
        <time>2026-07-08T09:15:24Z</time>
      </trkpt>
      <trkpt lat="42.99662" lon="0.31495">
        <ele>1182.4</ele>
        <time>2026-07-08T09:15:24Z</time>
      </trkpt>
      <trkpt lat="42.99662" lon="0.31493">
        <ele>1182.4</ele>
        <time>2026-07-08T09:15:25Z</time>
      </trkpt>
      <trkpt lat="42.99662" lon="0.31493">
        <ele>1182.4</ele>
        <time>2026-07-08T09:15:25Z</time>
      </trkpt>
      <trkpt lat="42.99663" lon="0.31492">
        <ele>1182.4</ele>
        <time>2026-07-08T09:15:26Z</time>
      </trkpt>
      <trkpt lat="42.99663" lon="0.3149">
        <ele>1182.4</ele>
        <time>2026-07-08T09:15:27Z</time>
      </trkpt>
      <trkpt lat="42.99663" lon="0.31489">
        <ele>1181.4</ele>
        <time>2026-07-08T09:15:27Z</time>
      </trkpt>
      <trkpt lat="42.99663" lon="0.31488">
        <ele>1181.4</ele>
        <time>2026-07-08T09:15:28Z</time>
      </trkpt>
      <trkpt lat="42.99663" lon="0.31487">
        <ele>1182.4</ele>
        <time>2026-07-08T09:15:28Z</time>
      </trkpt>
      <trkpt lat="42.99663" lon="0.31486">
        <ele>1182.4</ele>
        <time>2026-07-08T09:15:29Z</time>
      </trkpt>
      <trkpt lat="42.99663" lon="0.31486">
        <ele>1181.4</ele>
        <time>2026-07-08T09:15:29Z</time>
      </trkpt>
      <trkpt lat="42.99663" lon="0.31485">
        <ele>1181.4</ele>
        <time>2026-07-08T09:15:30Z</time>
      </trkpt>
      <trkpt lat="42.99664" lon="0.31484">
        <ele>1181.4</ele>
        <time>2026-07-08T09:15:30Z</time>
      </trkpt>
      <trkpt lat="42.99664" lon="0.31483">
        <ele>1181.4</ele>
        <time>2026-07-08T09:15:31Z</time>
      </trkpt>
      <trkpt lat="42.99664" lon="0.31482">
        <ele>1181.4</ele>
        <time>2026-07-08T09:15:31Z</time>
      </trkpt>
      <trkpt lat="42.99664" lon="0.31481">
        <ele>1181.4</ele>
        <time>2026-07-08T09:15:32Z</time>
      </trkpt>
      <trkpt lat="42.99665" lon="0.3148">
        <ele>1181.4</ele>
        <time>2026-07-08T09:15:33Z</time>
      </trkpt>
      <trkpt lat="42.99665" lon="0.31479">
        <ele>1180.4</ele>
        <time>2026-07-08T09:15:33Z</time>
      </trkpt>
      <trkpt lat="42.99666" lon="0.31478">
        <ele>1180.4</ele>
        <time>2026-07-08T09:15:34Z</time>
      </trkpt>
      <trkpt lat="42.99666" lon="0.31478">
        <ele>1180.4</ele>
        <time>2026-07-08T09:15:34Z</time>
      </trkpt>
      <trkpt lat="42.99667" lon="0.31477">
        <ele>1180.4</ele>
        <time>2026-07-08T09:15:35Z</time>
      </trkpt>
      <trkpt lat="42.99667" lon="0.31476">
        <ele>1179.4</ele>
        <time>2026-07-08T09:15:35Z</time>
      </trkpt>
      <trkpt lat="42.99667" lon="0.31475">
        <ele>1179.4</ele>
        <time>2026-07-08T09:15:36Z</time>
      </trkpt>
      <trkpt lat="42.99668" lon="0.31474">
        <ele>1179.4</ele>
        <time>2026-07-08T09:15:36Z</time>
      </trkpt>
      <trkpt lat="42.99668" lon="0.31474">
        <ele>1179.4</ele>
        <time>2026-07-08T09:15:37Z</time>
      </trkpt>
      <trkpt lat="42.99668" lon="0.31473">
        <ele>1178.4</ele>
        <time>2026-07-08T09:15:37Z</time>
      </trkpt>
      <trkpt lat="42.99668" lon="0.31472">
        <ele>1178.4</ele>
        <time>2026-07-08T09:15:38Z</time>
      </trkpt>
      <trkpt lat="42.99669" lon="0.31471">
        <ele>1178.4</ele>
        <time>2026-07-08T09:15:38Z</time>
      </trkpt>
      <trkpt lat="42.99669" lon="0.3147">
        <ele>1178.4</ele>
        <time>2026-07-08T09:15:39Z</time>
      </trkpt>
      <trkpt lat="42.99669" lon="0.31469">
        <ele>1178.4</ele>
        <time>2026-07-08T09:15:39Z</time>
      </trkpt>
      <trkpt lat="42.9967" lon="0.31469">
        <ele>1178.4</ele>
        <time>2026-07-08T09:15:40Z</time>
      </trkpt>
      <trkpt lat="42.9967" lon="0.31468">
        <ele>1178.4</ele>
        <time>2026-07-08T09:15:41Z</time>
      </trkpt>
      <trkpt lat="42.9967" lon="0.31467">
        <ele>1177.4</ele>
        <time>2026-07-08T09:15:41Z</time>
      </trkpt>
      <trkpt lat="42.99671" lon="0.31466">
        <ele>1177.4</ele>
        <time>2026-07-08T09:15:42Z</time>
      </trkpt>
      <trkpt lat="42.99671" lon="0.31466">
        <ele>1177.4</ele>
        <time>2026-07-08T09:15:42Z</time>
      </trkpt>
      <trkpt lat="42.99672" lon="0.31465">
        <ele>1177.4</ele>
        <time>2026-07-08T09:15:43Z</time>
      </trkpt>
      <trkpt lat="42.99672" lon="0.31464">
        <ele>1177.4</ele>
        <time>2026-07-08T09:15:43Z</time>
      </trkpt>
      <trkpt lat="42.99672" lon="0.31463">
        <ele>1177.4</ele>
        <time>2026-07-08T09:15:44Z</time>
      </trkpt>
      <trkpt lat="42.99673" lon="0.31463">
        <ele>1177.4</ele>
        <time>2026-07-08T09:15:44Z</time>
      </trkpt>
      <trkpt lat="42.99673" lon="0.31462">
        <ele>1177.4</ele>
        <time>2026-07-08T09:15:45Z</time>
      </trkpt>
      <trkpt lat="42.99673" lon="0.31461">
        <ele>1178.4</ele>
        <time>2026-07-08T09:15:45Z</time>
      </trkpt>
      <trkpt lat="42.99674" lon="0.3146">
        <ele>1178.4</ele>
        <time>2026-07-08T09:15:46Z</time>
      </trkpt>
      <trkpt lat="42.99674" lon="0.3146">
        <ele>1178.4</ele>
        <time>2026-07-08T09:15:47Z</time>
      </trkpt>
      <trkpt lat="42.99674" lon="0.31459">
        <ele>1178.4</ele>
        <time>2026-07-08T09:15:47Z</time>
      </trkpt>
      <trkpt lat="42.99675" lon="0.31458">
        <ele>1177.4</ele>
        <time>2026-07-08T09:15:48Z</time>
      </trkpt>
      <trkpt lat="42.99675" lon="0.31457">
        <ele>1177.4</ele>
        <time>2026-07-08T09:15:48Z</time>
      </trkpt>
      <trkpt lat="42.99675" lon="0.31456">
        <ele>1177.4</ele>
        <time>2026-07-08T09:15:49Z</time>
      </trkpt>
      <trkpt lat="42.99676" lon="0.31456">
        <ele>1176.4</ele>
        <time>2026-07-08T09:15:49Z</time>
      </trkpt>
      <trkpt lat="42.99676" lon="0.31455">
        <ele>1176.4</ele>
        <time>2026-07-08T09:15:50Z</time>
      </trkpt>
      <trkpt lat="42.99676" lon="0.31454">
        <ele>1177.4</ele>
        <time>2026-07-08T09:15:50Z</time>
      </trkpt>
      <trkpt lat="42.99677" lon="0.31453">
        <ele>1177.4</ele>
        <time>2026-07-08T09:15:51Z</time>
      </trkpt>
      <trkpt lat="42.99677" lon="0.31453">
        <ele>1176.4</ele>
        <time>2026-07-08T09:15:51Z</time>
      </trkpt>
      <trkpt lat="42.99678" lon="0.31452">
        <ele>1176.4</ele>
        <time>2026-07-08T09:15:52Z</time>
      </trkpt>
      <trkpt lat="42.99678" lon="0.31451">
        <ele>1176.4</ele>
        <time>2026-07-08T09:15:52Z</time>
      </trkpt>
      <trkpt lat="42.99678" lon="0.3145">
        <ele>1176.4</ele>
        <time>2026-07-08T09:15:53Z</time>
      </trkpt>
      <trkpt lat="42.99678" lon="0.3145">
        <ele>1176.4</ele>
        <time>2026-07-08T09:15:54Z</time>
      </trkpt>
      <trkpt lat="42.99679" lon="0.31449">
        <ele>1176.4</ele>
        <time>2026-07-08T09:15:54Z</time>
      </trkpt>
      <trkpt lat="42.99679" lon="0.31448">
        <ele>1176.4</ele>
        <time>2026-07-08T09:15:55Z</time>
      </trkpt>
      <trkpt lat="42.99679" lon="0.31447">
        <ele>1176.4</ele>
        <time>2026-07-08T09:15:55Z</time>
      </trkpt>
      <trkpt lat="42.9968" lon="0.31446">
        <ele>1176.4</ele>
        <time>2026-07-08T09:15:56Z</time>
      </trkpt>
      <trkpt lat="42.9968" lon="0.31446">
        <ele>1176.4</ele>
        <time>2026-07-08T09:15:56Z</time>
      </trkpt>
      <trkpt lat="42.9968" lon="0.31445">
        <ele>1176.4</ele>
        <time>2026-07-08T09:15:57Z</time>
      </trkpt>
      <trkpt lat="42.99681" lon="0.31444">
        <ele>1175.4</ele>
        <time>2026-07-08T09:15:57Z</time>
      </trkpt>
      <trkpt lat="42.99681" lon="0.31443">
        <ele>1175.4</ele>
        <time>2026-07-08T09:15:58Z</time>
      </trkpt>
      <trkpt lat="42.99682" lon="0.31442">
        <ele>1176.4</ele>
        <time>2026-07-08T09:15:58Z</time>
      </trkpt>
      <trkpt lat="42.99682" lon="0.31442">
        <ele>1176.4</ele>
        <time>2026-07-08T09:15:59Z</time>
      </trkpt>
      <trkpt lat="42.99682" lon="0.31441">
        <ele>1176.4</ele>
        <time>2026-07-08T09:15:59Z</time>
      </trkpt>
      <trkpt lat="42.99682" lon="0.3144">
        <ele>1176.4</ele>
        <time>2026-07-08T09:16:00Z</time>
      </trkpt>
      <trkpt lat="42.99682" lon="0.31439">
        <ele>1176.4</ele>
        <time>2026-07-08T09:16:01Z</time>
      </trkpt>
      <trkpt lat="42.99683" lon="0.31438">
        <ele>1176.4</ele>
        <time>2026-07-08T09:16:01Z</time>
      </trkpt>
      <trkpt lat="42.99683" lon="0.31437">
        <ele>1176.4</ele>
        <time>2026-07-08T09:16:02Z</time>
      </trkpt>
      <trkpt lat="42.99683" lon="0.31436">
        <ele>1176.4</ele>
        <time>2026-07-08T09:16:02Z</time>
      </trkpt>
      <trkpt lat="42.99684" lon="0.31435">
        <ele>1176.4</ele>
        <time>2026-07-08T09:16:03Z</time>
      </trkpt>
      <trkpt lat="42.99684" lon="0.31435">
        <ele>1176.4</ele>
        <time>2026-07-08T09:16:03Z</time>
      </trkpt>
      <trkpt lat="42.99684" lon="0.31434">
        <ele>1176.4</ele>
        <time>2026-07-08T09:16:04Z</time>
      </trkpt>
      <trkpt lat="42.99684" lon="0.31433">
        <ele>1176.4</ele>
        <time>2026-07-08T09:16:04Z</time>
      </trkpt>
      <trkpt lat="42.99685" lon="0.31432">
        <ele>1176.4</ele>
        <time>2026-07-08T09:16:05Z</time>
      </trkpt>
      <trkpt lat="42.99685" lon="0.31431">
        <ele>1176.4</ele>
        <time>2026-07-08T09:16:06Z</time>
      </trkpt>
      <trkpt lat="42.99685" lon="0.3143">
        <ele>1176.4</ele>
        <time>2026-07-08T09:16:06Z</time>
      </trkpt>
      <trkpt lat="42.99685" lon="0.31429">
        <ele>1176.4</ele>
        <time>2026-07-08T09:16:07Z</time>
      </trkpt>
      <trkpt lat="42.99685" lon="0.31428">
        <ele>1175.4</ele>
        <time>2026-07-08T09:16:07Z</time>
      </trkpt>
      <trkpt lat="42.99685" lon="0.31427">
        <ele>1175.4</ele>
        <time>2026-07-08T09:16:08Z</time>
      </trkpt>
      <trkpt lat="42.99685" lon="0.31426">
        <ele>1175.4</ele>
        <time>2026-07-08T09:16:08Z</time>
      </trkpt>
      <trkpt lat="42.99685" lon="0.31425">
        <ele>1175.4</ele>
        <time>2026-07-08T09:16:09Z</time>
      </trkpt>
      <trkpt lat="42.99685" lon="0.31424">
        <ele>1175.4</ele>
        <time>2026-07-08T09:16:09Z</time>
      </trkpt>
      <trkpt lat="42.99685" lon="0.31423">
        <ele>1175.4</ele>
        <time>2026-07-08T09:16:10Z</time>
      </trkpt>
      <trkpt lat="42.99685" lon="0.31422">
        <ele>1175.4</ele>
        <time>2026-07-08T09:16:10Z</time>
      </trkpt>
      <trkpt lat="42.99685" lon="0.31421">
        <ele>1175.4</ele>
        <time>2026-07-08T09:16:11Z</time>
      </trkpt>
      <trkpt lat="42.99685" lon="0.3142">
        <ele>1174.4</ele>
        <time>2026-07-08T09:16:11Z</time>
      </trkpt>
      <trkpt lat="42.99685" lon="0.31419">
        <ele>1174.4</ele>
        <time>2026-07-08T09:16:12Z</time>
      </trkpt>
      <trkpt lat="42.99685" lon="0.31418">
        <ele>1174.4</ele>
        <time>2026-07-08T09:16:13Z</time>
      </trkpt>
      <trkpt lat="42.99685" lon="0.31417">
        <ele>1173.4</ele>
        <time>2026-07-08T09:16:13Z</time>
      </trkpt>
      <trkpt lat="42.99685" lon="0.31416">
        <ele>1173.4</ele>
        <time>2026-07-08T09:16:14Z</time>
      </trkpt>
      <trkpt lat="42.99685" lon="0.31415">
        <ele>1173.4</ele>
        <time>2026-07-08T09:16:14Z</time>
      </trkpt>
      <trkpt lat="42.99686" lon="0.31414">
        <ele>1173.4</ele>
        <time>2026-07-08T09:16:15Z</time>
      </trkpt>
      <trkpt lat="42.99686" lon="0.31413">
        <ele>1172.4</ele>
        <time>2026-07-08T09:16:15Z</time>
      </trkpt>
      <trkpt lat="42.99686" lon="0.31412">
        <ele>1172.4</ele>
        <time>2026-07-08T09:16:16Z</time>
      </trkpt>
      <trkpt lat="42.99686" lon="0.31411">
        <ele>1172.4</ele>
        <time>2026-07-08T09:16:16Z</time>
      </trkpt>
      <trkpt lat="42.99686" lon="0.3141">
        <ele>1172.4</ele>
        <time>2026-07-08T09:16:17Z</time>
      </trkpt>
      <trkpt lat="42.99686" lon="0.31409">
        <ele>1172.4</ele>
        <time>2026-07-08T09:16:17Z</time>
      </trkpt>
      <trkpt lat="42.99686" lon="0.31408">
        <ele>1172.4</ele>
        <time>2026-07-08T09:16:18Z</time>
      </trkpt>
      <trkpt lat="42.99687" lon="0.31407">
        <ele>1173.4</ele>
        <time>2026-07-08T09:16:19Z</time>
      </trkpt>
      <trkpt lat="42.99687" lon="0.31407">
        <ele>1173.4</ele>
        <time>2026-07-08T09:16:19Z</time>
      </trkpt>
      <trkpt lat="42.99687" lon="0.31405">
        <ele>1173.4</ele>
        <time>2026-07-08T09:16:20Z</time>
      </trkpt>
      <trkpt lat="42.99687" lon="0.31405">
        <ele>1173.4</ele>
        <time>2026-07-08T09:16:20Z</time>
      </trkpt>
      <trkpt lat="42.99687" lon="0.31404">
        <ele>1173.4</ele>
        <time>2026-07-08T09:16:21Z</time>
      </trkpt>
      <trkpt lat="42.99688" lon="0.31403">
        <ele>1173.4</ele>
        <time>2026-07-08T09:16:21Z</time>
      </trkpt>
      <trkpt lat="42.99688" lon="0.31402">
        <ele>1173.4</ele>
        <time>2026-07-08T09:16:22Z</time>
      </trkpt>
      <trkpt lat="42.99688" lon="0.31401">
        <ele>1172.4</ele>
        <time>2026-07-08T09:16:22Z</time>
      </trkpt>
      <trkpt lat="42.99688" lon="0.314">
        <ele>1172.4</ele>
        <time>2026-07-08T09:16:23Z</time>
      </trkpt>
      <trkpt lat="42.99689" lon="0.31399">
        <ele>1173.4</ele>
        <time>2026-07-08T09:16:23Z</time>
      </trkpt>
      <trkpt lat="42.99689" lon="0.31398">
        <ele>1173.4</ele>
        <time>2026-07-08T09:16:24Z</time>
      </trkpt>
      <trkpt lat="42.99689" lon="0.31398">
        <ele>1172.4</ele>
        <time>2026-07-08T09:16:24Z</time>
      </trkpt>
      <trkpt lat="42.99689" lon="0.31397">
        <ele>1172.4</ele>
        <time>2026-07-08T09:16:25Z</time>
      </trkpt>
      <trkpt lat="42.99689" lon="0.31396">
        <ele>1172.4</ele>
        <time>2026-07-08T09:16:26Z</time>
      </trkpt>
      <trkpt lat="42.9969" lon="0.31395">
        <ele>1172.4</ele>
        <time>2026-07-08T09:16:26Z</time>
      </trkpt>
      <trkpt lat="42.9969" lon="0.31394">
        <ele>1172.4</ele>
        <time>2026-07-08T09:16:27Z</time>
      </trkpt>
      <trkpt lat="42.9969" lon="0.31393">
        <ele>1171.4</ele>
        <time>2026-07-08T09:16:27Z</time>
      </trkpt>
      <trkpt lat="42.9969" lon="0.31392">
        <ele>1171.4</ele>
        <time>2026-07-08T09:16:28Z</time>
      </trkpt>
      <trkpt lat="42.9969" lon="0.31392">
        <ele>1171.4</ele>
        <time>2026-07-08T09:16:28Z</time>
      </trkpt>
      <trkpt lat="42.99691" lon="0.31391">
        <ele>1171.4</ele>
        <time>2026-07-08T09:16:29Z</time>
      </trkpt>
      <trkpt lat="42.99691" lon="0.3139">
        <ele>1172.4</ele>
        <time>2026-07-08T09:16:29Z</time>
      </trkpt>
      <trkpt lat="42.99691" lon="0.31389">
        <ele>1172.4</ele>
        <time>2026-07-08T09:16:30Z</time>
      </trkpt>
      <trkpt lat="42.99692" lon="0.31388">
        <ele>1172.4</ele>
        <time>2026-07-08T09:16:30Z</time>
      </trkpt>
      <trkpt lat="42.99692" lon="0.31387">
        <ele>1172.4</ele>
        <time>2026-07-08T09:16:31Z</time>
      </trkpt>
      <trkpt lat="42.99692" lon="0.31386">
        <ele>1171.4</ele>
        <time>2026-07-08T09:16:31Z</time>
      </trkpt>
      <trkpt lat="42.99692" lon="0.31385">
        <ele>1171.4</ele>
        <time>2026-07-08T09:16:32Z</time>
      </trkpt>
      <trkpt lat="42.99692" lon="0.31384">
        <ele>1171.4</ele>
        <time>2026-07-08T09:16:33Z</time>
      </trkpt>
      <trkpt lat="42.99693" lon="0.31383">
        <ele>1172.4</ele>
        <time>2026-07-08T09:16:33Z</time>
      </trkpt>
      <trkpt lat="42.99693" lon="0.31382">
        <ele>1172.4</ele>
        <time>2026-07-08T09:16:34Z</time>
      </trkpt>
      <trkpt lat="42.99693" lon="0.31381">
        <ele>1172.4</ele>
        <time>2026-07-08T09:16:34Z</time>
      </trkpt>
      <trkpt lat="42.99693" lon="0.3138">
        <ele>1172.4</ele>
        <time>2026-07-08T09:16:35Z</time>
      </trkpt>
      <trkpt lat="42.99693" lon="0.31379">
        <ele>1172.4</ele>
        <time>2026-07-08T09:16:35Z</time>
      </trkpt>
      <trkpt lat="42.99694" lon="0.31378">
        <ele>1172.4</ele>
        <time>2026-07-08T09:16:36Z</time>
      </trkpt>
      <trkpt lat="42.99694" lon="0.31377">
        <ele>1173.4</ele>
        <time>2026-07-08T09:16:36Z</time>
      </trkpt>
      <trkpt lat="42.99694" lon="0.31376">
        <ele>1173.4</ele>
        <time>2026-07-08T09:16:37Z</time>
      </trkpt>
      <trkpt lat="42.99694" lon="0.31376">
        <ele>1173.4</ele>
        <time>2026-07-08T09:16:37Z</time>
      </trkpt>
      <trkpt lat="42.99694" lon="0.31375">
        <ele>1173.4</ele>
        <time>2026-07-08T09:16:38Z</time>
      </trkpt>
      <trkpt lat="42.99695" lon="0.31374">
        <ele>1173.4</ele>
        <time>2026-07-08T09:16:38Z</time>
      </trkpt>
      <trkpt lat="42.99695" lon="0.31373">
        <ele>1173.4</ele>
        <time>2026-07-08T09:16:39Z</time>
      </trkpt>
      <trkpt lat="42.99695" lon="0.31372">
        <ele>1173.4</ele>
        <time>2026-07-08T09:16:40Z</time>
      </trkpt>
      <trkpt lat="42.99695" lon="0.31371">
        <ele>1173.4</ele>
        <time>2026-07-08T09:16:40Z</time>
      </trkpt>
      <trkpt lat="42.99696" lon="0.3137">
        <ele>1173.4</ele>
        <time>2026-07-08T09:16:41Z</time>
      </trkpt>
      <trkpt lat="42.99696" lon="0.31369">
        <ele>1173.4</ele>
        <time>2026-07-08T09:16:41Z</time>
      </trkpt>
      <trkpt lat="42.99696" lon="0.31369">
        <ele>1173.4</ele>
        <time>2026-07-08T09:16:42Z</time>
      </trkpt>
      <trkpt lat="42.99697" lon="0.31368">
        <ele>1173.4</ele>
        <time>2026-07-08T09:16:42Z</time>
      </trkpt>
      <trkpt lat="42.99697" lon="0.31367">
        <ele>1173.4</ele>
        <time>2026-07-08T09:16:43Z</time>
      </trkpt>
      <trkpt lat="42.99697" lon="0.31366">
        <ele>1173.4</ele>
        <time>2026-07-08T09:16:43Z</time>
      </trkpt>
      <trkpt lat="42.99698" lon="0.31365">
        <ele>1173.4</ele>
        <time>2026-07-08T09:16:44Z</time>
      </trkpt>
      <trkpt lat="42.99698" lon="0.31364">
        <ele>1174.4</ele>
        <time>2026-07-08T09:16:44Z</time>
      </trkpt>
      <trkpt lat="42.99698" lon="0.31363">
        <ele>1174.4</ele>
        <time>2026-07-08T09:16:45Z</time>
      </trkpt>
      <trkpt lat="42.99699" lon="0.31362">
        <ele>1174.4</ele>
        <time>2026-07-08T09:16:45Z</time>
      </trkpt>
      <trkpt lat="42.99699" lon="0.31362">
        <ele>1175.4</ele>
        <time>2026-07-08T09:16:46Z</time>
      </trkpt>
      <trkpt lat="42.99699" lon="0.31361">
        <ele>1175.4</ele>
        <time>2026-07-08T09:16:47Z</time>
      </trkpt>
      <trkpt lat="42.99699" lon="0.3136">
        <ele>1175.4</ele>
        <time>2026-07-08T09:16:47Z</time>
      </trkpt>
      <trkpt lat="42.997" lon="0.31359">
        <ele>1175.4</ele>
        <time>2026-07-08T09:16:48Z</time>
      </trkpt>
      <trkpt lat="42.997" lon="0.31358">
        <ele>1175.4</ele>
        <time>2026-07-08T09:16:48Z</time>
      </trkpt>
      <trkpt lat="42.997" lon="0.31357">
        <ele>1175.4</ele>
        <time>2026-07-08T09:16:49Z</time>
      </trkpt>
      <trkpt lat="42.99701" lon="0.31356">
        <ele>1175.4</ele>
        <time>2026-07-08T09:16:49Z</time>
      </trkpt>
      <trkpt lat="42.99701" lon="0.31356">
        <ele>1175.4</ele>
        <time>2026-07-08T09:16:50Z</time>
      </trkpt>
      <trkpt lat="42.99702" lon="0.31355">
        <ele>1175.4</ele>
        <time>2026-07-08T09:16:50Z</time>
      </trkpt>
      <trkpt lat="42.99702" lon="0.31354">
        <ele>1175.4</ele>
        <time>2026-07-08T09:16:51Z</time>
      </trkpt>
      <trkpt lat="42.99703" lon="0.31354">
        <ele>1175.4</ele>
        <time>2026-07-08T09:16:51Z</time>
      </trkpt>
      <trkpt lat="42.99703" lon="0.31353">
        <ele>1175.4</ele>
        <time>2026-07-08T09:16:52Z</time>
      </trkpt>
      <trkpt lat="42.99704" lon="0.31353">
        <ele>1175.4</ele>
        <time>2026-07-08T09:16:53Z</time>
      </trkpt>
      <trkpt lat="42.99704" lon="0.31352">
        <ele>1175.4</ele>
        <time>2026-07-08T09:16:53Z</time>
      </trkpt>
      <trkpt lat="42.99705" lon="0.31352">
        <ele>1175.4</ele>
        <time>2026-07-08T09:16:54Z</time>
      </trkpt>
      <trkpt lat="42.99705" lon="0.3135">
        <ele>1175.4</ele>
        <time>2026-07-08T09:16:55Z</time>
      </trkpt>
      <trkpt lat="42.99706" lon="0.31349">
        <ele>1174.4</ele>
        <time>2026-07-08T09:16:55Z</time>
      </trkpt>
      <trkpt lat="42.99706" lon="0.31349">
        <ele>1174.4</ele>
        <time>2026-07-08T09:16:56Z</time>
      </trkpt>
      <trkpt lat="42.99707" lon="0.31348">
        <ele>1174.4</ele>
        <time>2026-07-08T09:16:56Z</time>
      </trkpt>
      <trkpt lat="42.99708" lon="0.31348">
        <ele>1174.4</ele>
        <time>2026-07-08T09:16:57Z</time>
      </trkpt>
      <trkpt lat="42.99709" lon="0.31348">
        <ele>1174.4</ele>
        <time>2026-07-08T09:16:58Z</time>
      </trkpt>
      <trkpt lat="42.99709" lon="0.31348">
        <ele>1174.4</ele>
        <time>2026-07-08T09:16:58Z</time>
      </trkpt>
      <trkpt lat="42.9971" lon="0.31348">
        <ele>1174.4</ele>
        <time>2026-07-08T09:16:59Z</time>
      </trkpt>
      <trkpt lat="42.99711" lon="0.31347">
        <ele>1174.4</ele>
        <time>2026-07-08T09:16:59Z</time>
      </trkpt>
      <trkpt lat="42.99712" lon="0.31347">
        <ele>1174.4</ele>
        <time>2026-07-08T09:17:00Z</time>
      </trkpt>
      <trkpt lat="42.99712" lon="0.31347">
        <ele>1175.4</ele>
        <time>2026-07-08T09:17:00Z</time>
      </trkpt>
      <trkpt lat="42.99713" lon="0.31347">
        <ele>1175.4</ele>
        <time>2026-07-08T09:17:01Z</time>
      </trkpt>
      <trkpt lat="42.99714" lon="0.31347">
        <ele>1175.4</ele>
        <time>2026-07-08T09:17:02Z</time>
      </trkpt>
      <trkpt lat="42.99714" lon="0.31347">
        <ele>1175.4</ele>
        <time>2026-07-08T09:17:02Z</time>
      </trkpt>
      <trkpt lat="42.99715" lon="0.31347">
        <ele>1175.4</ele>
        <time>2026-07-08T09:17:03Z</time>
      </trkpt>
      <trkpt lat="42.99716" lon="0.31348">
        <ele>1174.4</ele>
        <time>2026-07-08T09:17:03Z</time>
      </trkpt>
      <trkpt lat="42.99716" lon="0.31348">
        <ele>1174.4</ele>
        <time>2026-07-08T09:17:04Z</time>
      </trkpt>
      <trkpt lat="42.99717" lon="0.31349">
        <ele>1173.4</ele>
        <time>2026-07-08T09:17:04Z</time>
      </trkpt>
      <trkpt lat="42.99718" lon="0.31349">
        <ele>1173.4</ele>
        <time>2026-07-08T09:17:05Z</time>
      </trkpt>
      <trkpt lat="42.99718" lon="0.3135">
        <ele>1173.4</ele>
        <time>2026-07-08T09:17:05Z</time>
      </trkpt>
      <trkpt lat="42.99719" lon="0.3135">
        <ele>1173.4</ele>
        <time>2026-07-08T09:17:06Z</time>
      </trkpt>
      <trkpt lat="42.9972" lon="0.31351">
        <ele>1173.4</ele>
        <time>2026-07-08T09:17:07Z</time>
      </trkpt>
      <trkpt lat="42.99721" lon="0.31352">
        <ele>1173.4</ele>
        <time>2026-07-08T09:17:08Z</time>
      </trkpt>
      <trkpt lat="42.99722" lon="0.31353">
        <ele>1173.4</ele>
        <time>2026-07-08T09:17:08Z</time>
      </trkpt>
      <trkpt lat="42.99722" lon="0.31353">
        <ele>1173.4</ele>
        <time>2026-07-08T09:17:09Z</time>
      </trkpt>
      <trkpt lat="42.99723" lon="0.31354">
        <ele>1173.4</ele>
        <time>2026-07-08T09:17:09Z</time>
      </trkpt>
      <trkpt lat="42.99724" lon="0.31354">
        <ele>1173.4</ele>
        <time>2026-07-08T09:17:10Z</time>
      </trkpt>
      <trkpt lat="42.99724" lon="0.31355">
        <ele>1173.4</ele>
        <time>2026-07-08T09:17:10Z</time>
      </trkpt>
      <trkpt lat="42.99725" lon="0.31355">
        <ele>1173.4</ele>
        <time>2026-07-08T09:17:11Z</time>
      </trkpt>
      <trkpt lat="42.99725" lon="0.31356">
        <ele>1173.4</ele>
        <time>2026-07-08T09:17:11Z</time>
      </trkpt>
      <trkpt lat="42.99726" lon="0.31356">
        <ele>1173.4</ele>
        <time>2026-07-08T09:17:12Z</time>
      </trkpt>
      <trkpt lat="42.99726" lon="0.31357">
        <ele>1173.4</ele>
        <time>2026-07-08T09:17:12Z</time>
      </trkpt>
      <trkpt lat="42.99727" lon="0.31358">
        <ele>1173.4</ele>
        <time>2026-07-08T09:17:13Z</time>
      </trkpt>
      <trkpt lat="42.99727" lon="0.31358">
        <ele>1172.4</ele>
        <time>2026-07-08T09:17:13Z</time>
      </trkpt>
      <trkpt lat="42.99728" lon="0.31359">
        <ele>1172.4</ele>
        <time>2026-07-08T09:17:14Z</time>
      </trkpt>
      <trkpt lat="42.99728" lon="0.31359">
        <ele>1172.4</ele>
        <time>2026-07-08T09:17:15Z</time>
      </trkpt>
      <trkpt lat="42.99728" lon="0.31359">
        <ele>1172.4</ele>
        <time>2026-07-08T09:17:15Z</time>
      </trkpt>
      <trkpt lat="42.99729" lon="0.31359">
        <ele>1172.4</ele>
        <time>2026-07-08T09:17:16Z</time>
      </trkpt>
      <trkpt lat="42.99729" lon="0.31359">
        <ele>1172.4</ele>
        <time>2026-07-08T09:17:16Z</time>
      </trkpt>
      <trkpt lat="42.9973" lon="0.3136">
        <ele>1172.4</ele>
        <time>2026-07-08T09:17:17Z</time>
      </trkpt>
      <trkpt lat="42.9973" lon="0.3136">
        <ele>1172.4</ele>
        <time>2026-07-08T09:17:17Z</time>
      </trkpt>
      <trkpt lat="42.99731" lon="0.31361">
        <ele>1172.4</ele>
        <time>2026-07-08T09:17:18Z</time>
      </trkpt>
      <trkpt lat="42.99732" lon="0.31361">
        <ele>1172.4</ele>
        <time>2026-07-08T09:17:18Z</time>
      </trkpt>
      <trkpt lat="42.99732" lon="0.31361">
        <ele>1172.4</ele>
        <time>2026-07-08T09:17:19Z</time>
      </trkpt>
      <trkpt lat="42.99733" lon="0.31361">
        <ele>1172.4</ele>
        <time>2026-07-08T09:17:19Z</time>
      </trkpt>
      <trkpt lat="42.99733" lon="0.31362">
        <ele>1172.4</ele>
        <time>2026-07-08T09:17:20Z</time>
      </trkpt>
      <trkpt lat="42.99734" lon="0.31362">
        <ele>1172.4</ele>
        <time>2026-07-08T09:17:20Z</time>
      </trkpt>
      <trkpt lat="42.99734" lon="0.31362">
        <ele>1172.4</ele>
        <time>2026-07-08T09:17:21Z</time>
      </trkpt>
      <trkpt lat="42.99735" lon="0.31362">
        <ele>1172.4</ele>
        <time>2026-07-08T09:17:22Z</time>
      </trkpt>
      <trkpt lat="42.99735" lon="0.31362">
        <ele>1171.4</ele>
        <time>2026-07-08T09:17:22Z</time>
      </trkpt>
      <trkpt lat="42.99736" lon="0.31363">
        <ele>1171.4</ele>
        <time>2026-07-08T09:17:23Z</time>
      </trkpt>
      <trkpt lat="42.99737" lon="0.31363">
        <ele>1171.4</ele>
        <time>2026-07-08T09:17:23Z</time>
      </trkpt>
      <trkpt lat="42.99737" lon="0.31363">
        <ele>1171.4</ele>
        <time>2026-07-08T09:17:24Z</time>
      </trkpt>
      <trkpt lat="42.99738" lon="0.31364">
        <ele>1171.4</ele>
        <time>2026-07-08T09:17:24Z</time>
      </trkpt>
      <trkpt lat="42.99738" lon="0.31364">
        <ele>1171.4</ele>
        <time>2026-07-08T09:17:25Z</time>
      </trkpt>
      <trkpt lat="42.99739" lon="0.31364">
        <ele>1171.4</ele>
        <time>2026-07-08T09:17:25Z</time>
      </trkpt>
      <trkpt lat="42.9974" lon="0.31365">
        <ele>1171.4</ele>
        <time>2026-07-08T09:17:26Z</time>
      </trkpt>
      <trkpt lat="42.9974" lon="0.31365">
        <ele>1171.4</ele>
        <time>2026-07-08T09:17:26Z</time>
      </trkpt>
      <trkpt lat="42.99741" lon="0.31365">
        <ele>1171.4</ele>
        <time>2026-07-08T09:17:27Z</time>
      </trkpt>
      <trkpt lat="42.99742" lon="0.31365">
        <ele>1171.4</ele>
        <time>2026-07-08T09:17:28Z</time>
      </trkpt>
      <trkpt lat="42.99742" lon="0.31366">
        <ele>1171.4</ele>
        <time>2026-07-08T09:17:28Z</time>
      </trkpt>
      <trkpt lat="42.99743" lon="0.31366">
        <ele>1171.4</ele>
        <time>2026-07-08T09:17:29Z</time>
      </trkpt>
      <trkpt lat="42.99743" lon="0.31366">
        <ele>1171.4</ele>
        <time>2026-07-08T09:17:29Z</time>
      </trkpt>
      <trkpt lat="42.99744" lon="0.31366">
        <ele>1171.4</ele>
        <time>2026-07-08T09:17:30Z</time>
      </trkpt>
      <trkpt lat="42.99745" lon="0.31366">
        <ele>1172.4</ele>
        <time>2026-07-08T09:17:30Z</time>
      </trkpt>
      <trkpt lat="42.99746" lon="0.31367">
        <ele>1172.4</ele>
        <time>2026-07-08T09:17:31Z</time>
      </trkpt>
      <trkpt lat="42.99746" lon="0.31367">
        <ele>1172.4</ele>
        <time>2026-07-08T09:17:31Z</time>
      </trkpt>
      <trkpt lat="42.99747" lon="0.31368">
        <ele>1172.4</ele>
        <time>2026-07-08T09:17:32Z</time>
      </trkpt>
      <trkpt lat="42.99748" lon="0.31368">
        <ele>1171.4</ele>
        <time>2026-07-08T09:17:32Z</time>
      </trkpt>
      <trkpt lat="42.99748" lon="0.31368">
        <ele>1171.4</ele>
        <time>2026-07-08T09:17:33Z</time>
      </trkpt>
      <trkpt lat="42.99749" lon="0.31368">
        <ele>1172.4</ele>
        <time>2026-07-08T09:17:33Z</time>
      </trkpt>
      <trkpt lat="42.9975" lon="0.31369">
        <ele>1172.4</ele>
        <time>2026-07-08T09:17:34Z</time>
      </trkpt>
      <trkpt lat="42.99751" lon="0.31369">
        <ele>1171.4</ele>
        <time>2026-07-08T09:17:34Z</time>
      </trkpt>
      <trkpt lat="42.99751" lon="0.31369">
        <ele>1171.4</ele>
        <time>2026-07-08T09:17:35Z</time>
      </trkpt>
      <trkpt lat="42.99752" lon="0.3137">
        <ele>1171.4</ele>
        <time>2026-07-08T09:17:36Z</time>
      </trkpt>
      <trkpt lat="42.99753" lon="0.3137">
        <ele>1170.4</ele>
        <time>2026-07-08T09:17:36Z</time>
      </trkpt>
      <trkpt lat="42.99753" lon="0.31371">
        <ele>1170.4</ele>
        <time>2026-07-08T09:17:37Z</time>
      </trkpt>
      <trkpt lat="42.99754" lon="0.31371">
        <ele>1171.4</ele>
        <time>2026-07-08T09:17:37Z</time>
      </trkpt>
      <trkpt lat="42.99755" lon="0.31371">
        <ele>1171.4</ele>
        <time>2026-07-08T09:17:38Z</time>
      </trkpt>
      <trkpt lat="42.99755" lon="0.31372">
        <ele>1170.4</ele>
        <time>2026-07-08T09:17:38Z</time>
      </trkpt>
      <trkpt lat="42.99756" lon="0.31373">
        <ele>1170.4</ele>
        <time>2026-07-08T09:17:39Z</time>
      </trkpt>
      <trkpt lat="42.99756" lon="0.31373">
        <ele>1170.4</ele>
        <time>2026-07-08T09:17:39Z</time>
      </trkpt>
      <trkpt lat="42.99757" lon="0.31374">
        <ele>1170.4</ele>
        <time>2026-07-08T09:17:40Z</time>
      </trkpt>
      <trkpt lat="42.99757" lon="0.31374">
        <ele>1170.4</ele>
        <time>2026-07-08T09:17:40Z</time>
      </trkpt>
      <trkpt lat="42.99758" lon="0.31375">
        <ele>1170.4</ele>
        <time>2026-07-08T09:17:41Z</time>
      </trkpt>
      <trkpt lat="42.99758" lon="0.31375">
        <ele>1169.4</ele>
        <time>2026-07-08T09:17:42Z</time>
      </trkpt>
      <trkpt lat="42.99759" lon="0.31376">
        <ele>1170.4</ele>
        <time>2026-07-08T09:17:42Z</time>
      </trkpt>
      <trkpt lat="42.99759" lon="0.31377">
        <ele>1170.4</ele>
        <time>2026-07-08T09:17:43Z</time>
      </trkpt>
      <trkpt lat="42.9976" lon="0.31377">
        <ele>1170.4</ele>
        <time>2026-07-08T09:17:43Z</time>
      </trkpt>
      <trkpt lat="42.9976" lon="0.31378">
        <ele>1170.4</ele>
        <time>2026-07-08T09:17:44Z</time>
      </trkpt>
      <trkpt lat="42.99761" lon="0.31379">
        <ele>1170.4</ele>
        <time>2026-07-08T09:17:44Z</time>
      </trkpt>
      <trkpt lat="42.99761" lon="0.3138">
        <ele>1170.4</ele>
        <time>2026-07-08T09:17:45Z</time>
      </trkpt>
      <trkpt lat="42.99762" lon="0.3138">
        <ele>1170.4</ele>
        <time>2026-07-08T09:17:45Z</time>
      </trkpt>
      <trkpt lat="42.99762" lon="0.31381">
        <ele>1170.4</ele>
        <time>2026-07-08T09:17:46Z</time>
      </trkpt>
      <trkpt lat="42.99763" lon="0.31382">
        <ele>1169.4</ele>
        <time>2026-07-08T09:17:47Z</time>
      </trkpt>
      <trkpt lat="42.99763" lon="0.31382">
        <ele>1169.4</ele>
        <time>2026-07-08T09:17:47Z</time>
      </trkpt>
      <trkpt lat="42.99764" lon="0.31383">
        <ele>1169.4</ele>
        <time>2026-07-08T09:17:48Z</time>
      </trkpt>
      <trkpt lat="42.99764" lon="0.31384">
        <ele>1169.4</ele>
        <time>2026-07-08T09:17:48Z</time>
      </trkpt>
      <trkpt lat="42.99765" lon="0.31385">
        <ele>1169.4</ele>
        <time>2026-07-08T09:17:49Z</time>
      </trkpt>
      <trkpt lat="42.99766" lon="0.31386">
        <ele>1169.4</ele>
        <time>2026-07-08T09:17:49Z</time>
      </trkpt>
      <trkpt lat="42.99766" lon="0.31386">
        <ele>1169.4</ele>
        <time>2026-07-08T09:17:50Z</time>
      </trkpt>
      <trkpt lat="42.99766" lon="0.31387">
        <ele>1169.4</ele>
        <time>2026-07-08T09:17:50Z</time>
      </trkpt>
      <trkpt lat="42.99767" lon="0.31388">
        <ele>1169.4</ele>
        <time>2026-07-08T09:17:51Z</time>
      </trkpt>
      <trkpt lat="42.99767" lon="0.31389">
        <ele>1169.4</ele>
        <time>2026-07-08T09:17:51Z</time>
      </trkpt>
      <trkpt lat="42.99768" lon="0.31389">
        <ele>1169.4</ele>
        <time>2026-07-08T09:17:52Z</time>
      </trkpt>
      <trkpt lat="42.99768" lon="0.3139">
        <ele>1169.4</ele>
        <time>2026-07-08T09:17:53Z</time>
      </trkpt>
      <trkpt lat="42.99769" lon="0.31391">
        <ele>1168.4</ele>
        <time>2026-07-08T09:17:53Z</time>
      </trkpt>
      <trkpt lat="42.99769" lon="0.31392">
        <ele>1168.4</ele>
        <time>2026-07-08T09:17:54Z</time>
      </trkpt>
      <trkpt lat="42.9977" lon="0.31392">
        <ele>1168.4</ele>
        <time>2026-07-08T09:17:54Z</time>
      </trkpt>
      <trkpt lat="42.9977" lon="0.31393">
        <ele>1168.4</ele>
        <time>2026-07-08T09:17:55Z</time>
      </trkpt>
      <trkpt lat="42.99771" lon="0.31394">
        <ele>1169.4</ele>
        <time>2026-07-08T09:17:55Z</time>
      </trkpt>
      <trkpt lat="42.99771" lon="0.31394">
        <ele>1169.4</ele>
        <time>2026-07-08T09:17:56Z</time>
      </trkpt>
      <trkpt lat="42.99772" lon="0.31395">
        <ele>1168.4</ele>
        <time>2026-07-08T09:17:56Z</time>
      </trkpt>
      <trkpt lat="42.99773" lon="0.31395">
        <ele>1168.4</ele>
        <time>2026-07-08T09:17:57Z</time>
      </trkpt>
      <trkpt lat="42.99773" lon="0.31396">
        <ele>1169.4</ele>
        <time>2026-07-08T09:17:57Z</time>
      </trkpt>
      <trkpt lat="42.99774" lon="0.31396">
        <ele>1169.4</ele>
        <time>2026-07-08T09:17:58Z</time>
      </trkpt>
      <trkpt lat="42.99774" lon="0.31397">
        <ele>1169.4</ele>
        <time>2026-07-08T09:17:58Z</time>
      </trkpt>
      <trkpt lat="42.99775" lon="0.31398">
        <ele>1169.4</ele>
        <time>2026-07-08T09:17:59Z</time>
      </trkpt>
      <trkpt lat="42.99775" lon="0.31398">
        <ele>1168.4</ele>
        <time>2026-07-08T09:18:00Z</time>
      </trkpt>
      <trkpt lat="42.99776" lon="0.31399">
        <ele>1169.4</ele>
        <time>2026-07-08T09:18:00Z</time>
      </trkpt>
      <trkpt lat="42.99776" lon="0.31399">
        <ele>1169.4</ele>
        <time>2026-07-08T09:18:01Z</time>
      </trkpt>
      <trkpt lat="42.99777" lon="0.314">
        <ele>1168.4</ele>
        <time>2026-07-08T09:18:01Z</time>
      </trkpt>
      <trkpt lat="42.99778" lon="0.314">
        <ele>1168.4</ele>
        <time>2026-07-08T09:18:02Z</time>
      </trkpt>
      <trkpt lat="42.99778" lon="0.31401">
        <ele>1168.4</ele>
        <time>2026-07-08T09:18:02Z</time>
      </trkpt>
      <trkpt lat="42.99779" lon="0.31401">
        <ele>1168.4</ele>
        <time>2026-07-08T09:18:03Z</time>
      </trkpt>
      <trkpt lat="42.99779" lon="0.31402">
        <ele>1168.4</ele>
        <time>2026-07-08T09:18:03Z</time>
      </trkpt>
      <trkpt lat="42.9978" lon="0.31402">
        <ele>1168.4</ele>
        <time>2026-07-08T09:18:04Z</time>
      </trkpt>
      <trkpt lat="42.99781" lon="0.31403">
        <ele>1169.4</ele>
        <time>2026-07-08T09:18:04Z</time>
      </trkpt>
      <trkpt lat="42.99781" lon="0.31403">
        <ele>1168.4</ele>
        <time>2026-07-08T09:18:05Z</time>
      </trkpt>
      <trkpt lat="42.99782" lon="0.31404">
        <ele>1168.4</ele>
        <time>2026-07-08T09:18:06Z</time>
      </trkpt>
      <trkpt lat="42.99783" lon="0.31404">
        <ele>1167.4</ele>
        <time>2026-07-08T09:18:06Z</time>
      </trkpt>
      <trkpt lat="42.99783" lon="0.31404">
        <ele>1167.4</ele>
        <time>2026-07-08T09:18:07Z</time>
      </trkpt>
      <trkpt lat="42.99784" lon="0.31405">
        <ele>1167.4</ele>
        <time>2026-07-08T09:18:07Z</time>
      </trkpt>
      <trkpt lat="42.99785" lon="0.31405">
        <ele>1167.4</ele>
        <time>2026-07-08T09:18:08Z</time>
      </trkpt>
      <trkpt lat="42.99786" lon="0.31405">
        <ele>1168.4</ele>
        <time>2026-07-08T09:18:08Z</time>
      </trkpt>
      <trkpt lat="42.99786" lon="0.31405">
        <ele>1168.4</ele>
        <time>2026-07-08T09:18:09Z</time>
      </trkpt>
      <trkpt lat="42.99787" lon="0.31405">
        <ele>1167.4</ele>
        <time>2026-07-08T09:18:09Z</time>
      </trkpt>
      <trkpt lat="42.99788" lon="0.31405">
        <ele>1167.4</ele>
        <time>2026-07-08T09:18:10Z</time>
      </trkpt>
      <trkpt lat="42.99789" lon="0.31405">
        <ele>1167.4</ele>
        <time>2026-07-08T09:18:11Z</time>
      </trkpt>
      <trkpt lat="42.9979" lon="0.31405">
        <ele>1167.4</ele>
        <time>2026-07-08T09:18:11Z</time>
      </trkpt>
      <trkpt lat="42.99791" lon="0.31405">
        <ele>1167.4</ele>
        <time>2026-07-08T09:18:12Z</time>
      </trkpt>
      <trkpt lat="42.99791" lon="0.31404">
        <ele>1166.4</ele>
        <time>2026-07-08T09:18:12Z</time>
      </trkpt>
      <trkpt lat="42.99792" lon="0.31404">
        <ele>1166.4</ele>
        <time>2026-07-08T09:18:13Z</time>
      </trkpt>
      <trkpt lat="42.99793" lon="0.31403">
        <ele>1167.4</ele>
        <time>2026-07-08T09:18:13Z</time>
      </trkpt>
      <trkpt lat="42.99794" lon="0.31403">
        <ele>1167.4</ele>
        <time>2026-07-08T09:18:14Z</time>
      </trkpt>
      <trkpt lat="42.99795" lon="0.31402">
        <ele>1167.4</ele>
        <time>2026-07-08T09:18:14Z</time>
      </trkpt>
      <trkpt lat="42.99795" lon="0.31401">
        <ele>1167.4</ele>
        <time>2026-07-08T09:18:15Z</time>
      </trkpt>
      <trkpt lat="42.99796" lon="0.314">
        <ele>1167.4</ele>
        <time>2026-07-08T09:18:15Z</time>
      </trkpt>
      <trkpt lat="42.99797" lon="0.314">
        <ele>1167.4</ele>
        <time>2026-07-08T09:18:16Z</time>
      </trkpt>
      <trkpt lat="42.99797" lon="0.31399">
        <ele>1166.4</ele>
        <time>2026-07-08T09:18:17Z</time>
      </trkpt>
      <trkpt lat="42.99798" lon="0.31398">
        <ele>1167.4</ele>
        <time>2026-07-08T09:18:17Z</time>
      </trkpt>
      <trkpt lat="42.99799" lon="0.31397">
        <ele>1167.4</ele>
        <time>2026-07-08T09:18:18Z</time>
      </trkpt>
      <trkpt lat="42.99799" lon="0.31396">
        <ele>1168.4</ele>
        <time>2026-07-08T09:18:18Z</time>
      </trkpt>
      <trkpt lat="42.998" lon="0.31396">
        <ele>1168.4</ele>
        <time>2026-07-08T09:18:19Z</time>
      </trkpt>
      <trkpt lat="42.99801" lon="0.31395">
        <ele>1168.4</ele>
        <time>2026-07-08T09:18:19Z</time>
      </trkpt>
      <trkpt lat="42.99801" lon="0.31394">
        <ele>1168.4</ele>
        <time>2026-07-08T09:18:20Z</time>
      </trkpt>
      <trkpt lat="42.99802" lon="0.31394">
        <ele>1168.4</ele>
        <time>2026-07-08T09:18:20Z</time>
      </trkpt>
      <trkpt lat="42.99802" lon="0.31393">
        <ele>1168.4</ele>
        <time>2026-07-08T09:18:21Z</time>
      </trkpt>
      <trkpt lat="42.99803" lon="0.31392">
        <ele>1168.4</ele>
        <time>2026-07-08T09:18:21Z</time>
      </trkpt>
      <trkpt lat="42.99803" lon="0.31391">
        <ele>1168.4</ele>
        <time>2026-07-08T09:18:22Z</time>
      </trkpt>
      <trkpt lat="42.99804" lon="0.31391">
        <ele>1168.4</ele>
        <time>2026-07-08T09:18:22Z</time>
      </trkpt>
      <trkpt lat="42.99804" lon="0.3139">
        <ele>1168.4</ele>
        <time>2026-07-08T09:18:23Z</time>
      </trkpt>
      <trkpt lat="42.99805" lon="0.31389">
        <ele>1168.4</ele>
        <time>2026-07-08T09:18:24Z</time>
      </trkpt>
      <trkpt lat="42.99805" lon="0.31388">
        <ele>1167.4</ele>
        <time>2026-07-08T09:18:24Z</time>
      </trkpt>
      <trkpt lat="42.99806" lon="0.31387">
        <ele>1167.4</ele>
        <time>2026-07-08T09:18:25Z</time>
      </trkpt>
      <trkpt lat="42.99806" lon="0.31386">
        <ele>1167.4</ele>
        <time>2026-07-08T09:18:25Z</time>
      </trkpt>
      <trkpt lat="42.99807" lon="0.31386">
        <ele>1167.4</ele>
        <time>2026-07-08T09:18:26Z</time>
      </trkpt>
      <trkpt lat="42.99807" lon="0.31385">
        <ele>1167.4</ele>
        <time>2026-07-08T09:18:26Z</time>
      </trkpt>
      <trkpt lat="42.99807" lon="0.31384">
        <ele>1167.4</ele>
        <time>2026-07-08T09:18:27Z</time>
      </trkpt>
      <trkpt lat="42.99808" lon="0.31383">
        <ele>1167.4</ele>
        <time>2026-07-08T09:18:27Z</time>
      </trkpt>
      <trkpt lat="42.99808" lon="0.31383">
        <ele>1167.4</ele>
        <time>2026-07-08T09:18:28Z</time>
      </trkpt>
      <trkpt lat="42.99808" lon="0.31382">
        <ele>1167.4</ele>
        <time>2026-07-08T09:18:28Z</time>
      </trkpt>
      <trkpt lat="42.99809" lon="0.31381">
        <ele>1167.4</ele>
        <time>2026-07-08T09:18:29Z</time>
      </trkpt>
      <trkpt lat="42.99809" lon="0.3138">
        <ele>1167.4</ele>
        <time>2026-07-08T09:18:29Z</time>
      </trkpt>
      <trkpt lat="42.99809" lon="0.3138">
        <ele>1167.4</ele>
        <time>2026-07-08T09:18:30Z</time>
      </trkpt>
      <trkpt lat="42.9981" lon="0.31379">
        <ele>1167.4</ele>
        <time>2026-07-08T09:18:31Z</time>
      </trkpt>
      <trkpt lat="42.9981" lon="0.31378">
        <ele>1168.4</ele>
        <time>2026-07-08T09:18:31Z</time>
      </trkpt>
      <trkpt lat="42.99811" lon="0.31378">
        <ele>1168.4</ele>
        <time>2026-07-08T09:18:32Z</time>
      </trkpt>
      <trkpt lat="42.99811" lon="0.31377">
        <ele>1168.4</ele>
        <time>2026-07-08T09:18:32Z</time>
      </trkpt>
      <trkpt lat="42.99812" lon="0.31377">
        <ele>1168.4</ele>
        <time>2026-07-08T09:18:33Z</time>
      </trkpt>
      <trkpt lat="42.99812" lon="0.31376">
        <ele>1168.4</ele>
        <time>2026-07-08T09:18:33Z</time>
      </trkpt>
      <trkpt lat="42.99813" lon="0.31375">
        <ele>1168.4</ele>
        <time>2026-07-08T09:18:34Z</time>
      </trkpt>
      <trkpt lat="42.99813" lon="0.31375">
        <ele>1168.4</ele>
        <time>2026-07-08T09:18:34Z</time>
      </trkpt>
      <trkpt lat="42.99814" lon="0.31374">
        <ele>1168.4</ele>
        <time>2026-07-08T09:18:35Z</time>
      </trkpt>
      <trkpt lat="42.99814" lon="0.31374">
        <ele>1168.4</ele>
        <time>2026-07-08T09:18:35Z</time>
      </trkpt>
      <trkpt lat="42.99815" lon="0.31374">
        <ele>1168.4</ele>
        <time>2026-07-08T09:18:36Z</time>
      </trkpt>
      <trkpt lat="42.99816" lon="0.31373">
        <ele>1168.4</ele>
        <time>2026-07-08T09:18:37Z</time>
      </trkpt>
      <trkpt lat="42.99816" lon="0.31373">
        <ele>1168.4</ele>
        <time>2026-07-08T09:18:37Z</time>
      </trkpt>
      <trkpt lat="42.99817" lon="0.31373">
        <ele>1168.4</ele>
        <time>2026-07-08T09:18:38Z</time>
      </trkpt>
      <trkpt lat="42.99818" lon="0.31373">
        <ele>1168.4</ele>
        <time>2026-07-08T09:18:38Z</time>
      </trkpt>
      <trkpt lat="42.99818" lon="0.31372">
        <ele>1168.4</ele>
        <time>2026-07-08T09:18:39Z</time>
      </trkpt>
      <trkpt lat="42.99819" lon="0.31372">
        <ele>1168.4</ele>
        <time>2026-07-08T09:18:39Z</time>
      </trkpt>
      <trkpt lat="42.9982" lon="0.31371">
        <ele>1168.4</ele>
        <time>2026-07-08T09:18:40Z</time>
      </trkpt>
      <trkpt lat="42.9982" lon="0.31371">
        <ele>1168.4</ele>
        <time>2026-07-08T09:18:40Z</time>
      </trkpt>
      <trkpt lat="42.99821" lon="0.31371">
        <ele>1168.4</ele>
        <time>2026-07-08T09:18:41Z</time>
      </trkpt>
      <trkpt lat="42.99822" lon="0.3137">
        <ele>1168.4</ele>
        <time>2026-07-08T09:18:41Z</time>
      </trkpt>
      <trkpt lat="42.99822" lon="0.3137">
        <ele>1168.4</ele>
        <time>2026-07-08T09:18:42Z</time>
      </trkpt>
      <trkpt lat="42.99823" lon="0.3137">
        <ele>1168.4</ele>
        <time>2026-07-08T09:18:43Z</time>
      </trkpt>
      <trkpt lat="42.99824" lon="0.31369">
        <ele>1168.4</ele>
        <time>2026-07-08T09:18:44Z</time>
      </trkpt>
      <trkpt lat="42.99826" lon="0.31368">
        <ele>1168.4</ele>
        <time>2026-07-08T09:18:45Z</time>
      </trkpt>
      <trkpt lat="42.99827" lon="0.31367">
        <ele>1168.4</ele>
        <time>2026-07-08T09:18:46Z</time>
      </trkpt>
      <trkpt lat="42.99828" lon="0.31367">
        <ele>1167.4</ele>
        <time>2026-07-08T09:18:46Z</time>
      </trkpt>
      <trkpt lat="42.99829" lon="0.31367">
        <ele>1167.4</ele>
        <time>2026-07-08T09:18:47Z</time>
      </trkpt>
      <trkpt lat="42.99829" lon="0.31367">
        <ele>1167.4</ele>
        <time>2026-07-08T09:18:47Z</time>
      </trkpt>
      <trkpt lat="42.9983" lon="0.31367">
        <ele>1167.4</ele>
        <time>2026-07-08T09:18:48Z</time>
      </trkpt>
      <trkpt lat="42.99831" lon="0.31367">
        <ele>1168.4</ele>
        <time>2026-07-08T09:18:48Z</time>
      </trkpt>
      <trkpt lat="42.99831" lon="0.31367">
        <ele>1168.4</ele>
        <time>2026-07-08T09:18:49Z</time>
      </trkpt>
      <trkpt lat="42.99833" lon="0.31367">
        <ele>1168.4</ele>
        <time>2026-07-08T09:18:50Z</time>
      </trkpt>
      <trkpt lat="42.99834" lon="0.31367">
        <ele>1168.4</ele>
        <time>2026-07-08T09:18:51Z</time>
      </trkpt>
      <trkpt lat="42.99835" lon="0.31368">
        <ele>1168.4</ele>
        <time>2026-07-08T09:18:52Z</time>
      </trkpt>
      <trkpt lat="42.99835" lon="0.31368">
        <ele>1169.4</ele>
        <time>2026-07-08T09:18:52Z</time>
      </trkpt>
      <trkpt lat="42.99836" lon="0.31368">
        <ele>1169.4</ele>
        <time>2026-07-08T09:18:53Z</time>
      </trkpt>
      <trkpt lat="42.99837" lon="0.31369">
        <ele>1169.4</ele>
        <time>2026-07-08T09:18:53Z</time>
      </trkpt>
      <trkpt lat="42.99837" lon="0.31369">
        <ele>1169.4</ele>
        <time>2026-07-08T09:18:54Z</time>
      </trkpt>
      <trkpt lat="42.99838" lon="0.31369">
        <ele>1168.4</ele>
        <time>2026-07-08T09:18:54Z</time>
      </trkpt>
      <trkpt lat="42.99838" lon="0.3137">
        <ele>1168.4</ele>
        <time>2026-07-08T09:18:55Z</time>
      </trkpt>
      <trkpt lat="42.99839" lon="0.3137">
        <ele>1168.4</ele>
        <time>2026-07-08T09:18:56Z</time>
      </trkpt>
      <trkpt lat="42.99839" lon="0.31371">
        <ele>1167.4</ele>
        <time>2026-07-08T09:18:56Z</time>
      </trkpt>
      <trkpt lat="42.9984" lon="0.31371">
        <ele>1167.4</ele>
        <time>2026-07-08T09:18:57Z</time>
      </trkpt>
      <trkpt lat="42.99841" lon="0.31372">
        <ele>1167.4</ele>
        <time>2026-07-08T09:18:58Z</time>
      </trkpt>
      <trkpt lat="42.99841" lon="0.31372">
        <ele>1167.4</ele>
        <time>2026-07-08T09:18:58Z</time>
      </trkpt>
      <trkpt lat="42.99842" lon="0.31373">
        <ele>1167.4</ele>
        <time>2026-07-08T09:18:59Z</time>
      </trkpt>
      <trkpt lat="42.99842" lon="0.31373">
        <ele>1168.4</ele>
        <time>2026-07-08T09:18:59Z</time>
      </trkpt>
      <trkpt lat="42.99843" lon="0.31374">
        <ele>1168.4</ele>
        <time>2026-07-08T09:19:00Z</time>
      </trkpt>
      <trkpt lat="42.99843" lon="0.31374">
        <ele>1168.4</ele>
        <time>2026-07-08T09:19:00Z</time>
      </trkpt>
      <trkpt lat="42.99844" lon="0.31375">
        <ele>1168.4</ele>
        <time>2026-07-08T09:19:01Z</time>
      </trkpt>
      <trkpt lat="42.99844" lon="0.31375">
        <ele>1167.4</ele>
        <time>2026-07-08T09:19:01Z</time>
      </trkpt>
      <trkpt lat="42.99845" lon="0.31376">
        <ele>1167.4</ele>
        <time>2026-07-08T09:19:02Z</time>
      </trkpt>
      <trkpt lat="42.99845" lon="0.31377">
        <ele>1167.4</ele>
        <time>2026-07-08T09:19:03Z</time>
      </trkpt>
      <trkpt lat="42.99845" lon="0.31377">
        <ele>1166.4</ele>
        <time>2026-07-08T09:19:03Z</time>
      </trkpt>
      <trkpt lat="42.99846" lon="0.31378">
        <ele>1166.4</ele>
        <time>2026-07-08T09:19:04Z</time>
      </trkpt>
      <trkpt lat="42.99847" lon="0.3138">
        <ele>1166.4</ele>
        <time>2026-07-08T09:19:05Z</time>
      </trkpt>
      <trkpt lat="42.99847" lon="0.3138">
        <ele>1166.4</ele>
        <time>2026-07-08T09:19:05Z</time>
      </trkpt>
      <trkpt lat="42.99847" lon="0.31381">
        <ele>1166.4</ele>
        <time>2026-07-08T09:19:06Z</time>
      </trkpt>
      <trkpt lat="42.99848" lon="0.31382">
        <ele>1166.4</ele>
        <time>2026-07-08T09:19:06Z</time>
      </trkpt>
      <trkpt lat="42.99848" lon="0.31382">
        <ele>1166.4</ele>
        <time>2026-07-08T09:19:07Z</time>
      </trkpt>
      <trkpt lat="42.99849" lon="0.31383">
        <ele>1166.4</ele>
        <time>2026-07-08T09:19:07Z</time>
      </trkpt>
      <trkpt lat="42.99849" lon="0.31384">
        <ele>1166.4</ele>
        <time>2026-07-08T09:19:08Z</time>
      </trkpt>
      <trkpt lat="42.9985" lon="0.31384">
        <ele>1166.4</ele>
        <time>2026-07-08T09:19:08Z</time>
      </trkpt>
      <trkpt lat="42.9985" lon="0.31385">
        <ele>1166.4</ele>
        <time>2026-07-08T09:19:09Z</time>
      </trkpt>
      <trkpt lat="42.99851" lon="0.31385">
        <ele>1166.4</ele>
        <time>2026-07-08T09:19:10Z</time>
      </trkpt>
      <trkpt lat="42.99851" lon="0.31386">
        <ele>1166.4</ele>
        <time>2026-07-08T09:19:10Z</time>
      </trkpt>
      <trkpt lat="42.99852" lon="0.31387">
        <ele>1166.4</ele>
        <time>2026-07-08T09:19:11Z</time>
      </trkpt>
      <trkpt lat="42.99853" lon="0.31387">
        <ele>1166.4</ele>
        <time>2026-07-08T09:19:11Z</time>
      </trkpt>
      <trkpt lat="42.99853" lon="0.31388">
        <ele>1166.4</ele>
        <time>2026-07-08T09:19:12Z</time>
      </trkpt>
      <trkpt lat="42.99854" lon="0.31389">
        <ele>1166.4</ele>
        <time>2026-07-08T09:19:12Z</time>
      </trkpt>
      <trkpt lat="42.99854" lon="0.31389">
        <ele>1166.4</ele>
        <time>2026-07-08T09:19:13Z</time>
      </trkpt>
      <trkpt lat="42.99855" lon="0.3139">
        <ele>1166.4</ele>
        <time>2026-07-08T09:19:14Z</time>
      </trkpt>
      <trkpt lat="42.99855" lon="0.31391">
        <ele>1165.4</ele>
        <time>2026-07-08T09:19:14Z</time>
      </trkpt>
      <trkpt lat="42.99856" lon="0.31392">
        <ele>1165.4</ele>
        <time>2026-07-08T09:19:15Z</time>
      </trkpt>
      <trkpt lat="42.99857" lon="0.31393">
        <ele>1166.4</ele>
        <time>2026-07-08T09:19:15Z</time>
      </trkpt>
      <trkpt lat="42.99858" lon="0.31393">
        <ele>1166.4</ele>
        <time>2026-07-08T09:19:16Z</time>
      </trkpt>
      <trkpt lat="42.99859" lon="0.31394">
        <ele>1166.4</ele>
        <time>2026-07-08T09:19:17Z</time>
      </trkpt>
      <trkpt lat="42.99859" lon="0.31394">
        <ele>1166.4</ele>
        <time>2026-07-08T09:19:17Z</time>
      </trkpt>
      <trkpt lat="42.9986" lon="0.31394">
        <ele>1166.4</ele>
        <time>2026-07-08T09:19:18Z</time>
      </trkpt>
      <trkpt lat="42.99861" lon="0.31395">
        <ele>1166.4</ele>
        <time>2026-07-08T09:19:18Z</time>
      </trkpt>
      <trkpt lat="42.99861" lon="0.31395">
        <ele>1166.4</ele>
        <time>2026-07-08T09:19:19Z</time>
      </trkpt>
      <trkpt lat="42.99862" lon="0.31396">
        <ele>1166.4</ele>
        <time>2026-07-08T09:19:19Z</time>
      </trkpt>
      <trkpt lat="42.99863" lon="0.31397">
        <ele>1166.4</ele>
        <time>2026-07-08T09:19:20Z</time>
      </trkpt>
      <trkpt lat="42.99863" lon="0.31397">
        <ele>1165.4</ele>
        <time>2026-07-08T09:19:20Z</time>
      </trkpt>
      <trkpt lat="42.99864" lon="0.31398">
        <ele>1165.4</ele>
        <time>2026-07-08T09:19:21Z</time>
      </trkpt>
      <trkpt lat="42.99864" lon="0.31399">
        <ele>1166.4</ele>
        <time>2026-07-08T09:19:21Z</time>
      </trkpt>
      <trkpt lat="42.99865" lon="0.314">
        <ele>1166.4</ele>
        <time>2026-07-08T09:19:22Z</time>
      </trkpt>
      <trkpt lat="42.99865" lon="0.314">
        <ele>1166.4</ele>
        <time>2026-07-08T09:19:22Z</time>
      </trkpt>
      <trkpt lat="42.99866" lon="0.31401">
        <ele>1166.4</ele>
        <time>2026-07-08T09:19:23Z</time>
      </trkpt>
      <trkpt lat="42.99866" lon="0.31402">
        <ele>1166.4</ele>
        <time>2026-07-08T09:19:23Z</time>
      </trkpt>
      <trkpt lat="42.99867" lon="0.31402">
        <ele>1166.4</ele>
        <time>2026-07-08T09:19:24Z</time>
      </trkpt>
      <trkpt lat="42.99867" lon="0.31403">
        <ele>1166.4</ele>
        <time>2026-07-08T09:19:25Z</time>
      </trkpt>
      <trkpt lat="42.99868" lon="0.31404">
        <ele>1165.4</ele>
        <time>2026-07-08T09:19:25Z</time>
      </trkpt>
      <trkpt lat="42.99868" lon="0.31405">
        <ele>1165.4</ele>
        <time>2026-07-08T09:19:26Z</time>
      </trkpt>
      <trkpt lat="42.99869" lon="0.31405">
        <ele>1165.4</ele>
        <time>2026-07-08T09:19:26Z</time>
      </trkpt>
      <trkpt lat="42.99869" lon="0.31406">
        <ele>1165.4</ele>
        <time>2026-07-08T09:19:27Z</time>
      </trkpt>
      <trkpt lat="42.9987" lon="0.31407">
        <ele>1166.4</ele>
        <time>2026-07-08T09:19:27Z</time>
      </trkpt>
      <trkpt lat="42.9987" lon="0.31408">
        <ele>1166.4</ele>
        <time>2026-07-08T09:19:28Z</time>
      </trkpt>
      <trkpt lat="42.9987" lon="0.31409">
        <ele>1166.4</ele>
        <time>2026-07-08T09:19:28Z</time>
      </trkpt>
      <trkpt lat="42.99871" lon="0.31409">
        <ele>1166.4</ele>
        <time>2026-07-08T09:19:29Z</time>
      </trkpt>
      <trkpt lat="42.99871" lon="0.3141">
        <ele>1166.4</ele>
        <time>2026-07-08T09:19:29Z</time>
      </trkpt>
      <trkpt lat="42.99872" lon="0.31411">
        <ele>1166.4</ele>
        <time>2026-07-08T09:19:30Z</time>
      </trkpt>
      <trkpt lat="42.99872" lon="0.31411">
        <ele>1168.4</ele>
        <time>2026-07-08T09:19:30Z</time>
      </trkpt>
      <trkpt lat="42.99873" lon="0.31412">
        <ele>1168.4</ele>
        <time>2026-07-08T09:19:31Z</time>
      </trkpt>
      <trkpt lat="42.99873" lon="0.31413">
        <ele>1167.4</ele>
        <time>2026-07-08T09:19:32Z</time>
      </trkpt>
      <trkpt lat="42.99874" lon="0.31413">
        <ele>1168.4</ele>
        <time>2026-07-08T09:19:32Z</time>
      </trkpt>
      <trkpt lat="42.99875" lon="0.31414">
        <ele>1168.4</ele>
        <time>2026-07-08T09:19:33Z</time>
      </trkpt>
      <trkpt lat="42.99875" lon="0.31414">
        <ele>1168.4</ele>
        <time>2026-07-08T09:19:33Z</time>
      </trkpt>
      <trkpt lat="42.99876" lon="0.31415">
        <ele>1168.4</ele>
        <time>2026-07-08T09:19:34Z</time>
      </trkpt>
      <trkpt lat="42.99877" lon="0.31415">
        <ele>1168.4</ele>
        <time>2026-07-08T09:19:34Z</time>
      </trkpt>
      <trkpt lat="42.99877" lon="0.31416">
        <ele>1168.4</ele>
        <time>2026-07-08T09:19:35Z</time>
      </trkpt>
      <trkpt lat="42.99878" lon="0.31416">
        <ele>1169.4</ele>
        <time>2026-07-08T09:19:35Z</time>
      </trkpt>
      <trkpt lat="42.99879" lon="0.31416">
        <ele>1169.4</ele>
        <time>2026-07-08T09:19:36Z</time>
      </trkpt>
      <trkpt lat="42.9988" lon="0.31416">
        <ele>1169.4</ele>
        <time>2026-07-08T09:19:36Z</time>
      </trkpt>
      <trkpt lat="42.9988" lon="0.31417">
        <ele>1169.4</ele>
        <time>2026-07-08T09:19:37Z</time>
      </trkpt>
      <trkpt lat="42.99881" lon="0.31417">
        <ele>1168.4</ele>
        <time>2026-07-08T09:19:37Z</time>
      </trkpt>
      <trkpt lat="42.99882" lon="0.31417">
        <ele>1168.4</ele>
        <time>2026-07-08T09:19:38Z</time>
      </trkpt>
      <trkpt lat="42.99883" lon="0.31418">
        <ele>1168.4</ele>
        <time>2026-07-08T09:19:38Z</time>
      </trkpt>
      <trkpt lat="42.99883" lon="0.31418">
        <ele>1168.4</ele>
        <time>2026-07-08T09:19:39Z</time>
      </trkpt>
      <trkpt lat="42.99884" lon="0.31418">
        <ele>1168.4</ele>
        <time>2026-07-08T09:19:39Z</time>
      </trkpt>
      <trkpt lat="42.99884" lon="0.31418">
        <ele>1168.4</ele>
        <time>2026-07-08T09:19:40Z</time>
      </trkpt>
      <trkpt lat="42.99885" lon="0.31418">
        <ele>1168.4</ele>
        <time>2026-07-08T09:19:41Z</time>
      </trkpt>
      <trkpt lat="42.99886" lon="0.31418">
        <ele>1167.4</ele>
        <time>2026-07-08T09:19:41Z</time>
      </trkpt>
      <trkpt lat="42.99887" lon="0.31419">
        <ele>1167.4</ele>
        <time>2026-07-08T09:19:42Z</time>
      </trkpt>
      <trkpt lat="42.99887" lon="0.31419">
        <ele>1167.4</ele>
        <time>2026-07-08T09:19:42Z</time>
      </trkpt>
      <trkpt lat="42.99888" lon="0.31419">
        <ele>1167.4</ele>
        <time>2026-07-08T09:19:43Z</time>
      </trkpt>
      <trkpt lat="42.99889" lon="0.31419">
        <ele>1167.4</ele>
        <time>2026-07-08T09:19:43Z</time>
      </trkpt>
      <trkpt lat="42.99889" lon="0.31419">
        <ele>1167.4</ele>
        <time>2026-07-08T09:19:44Z</time>
      </trkpt>
      <trkpt lat="42.9989" lon="0.31418">
        <ele>1167.4</ele>
        <time>2026-07-08T09:19:44Z</time>
      </trkpt>
      <trkpt lat="42.99891" lon="0.31418">
        <ele>1167.4</ele>
        <time>2026-07-08T09:19:45Z</time>
      </trkpt>
      <trkpt lat="42.99892" lon="0.31418">
        <ele>1167.4</ele>
        <time>2026-07-08T09:19:45Z</time>
      </trkpt>
      <trkpt lat="42.99892" lon="0.31418">
        <ele>1167.4</ele>
        <time>2026-07-08T09:19:46Z</time>
      </trkpt>
      <trkpt lat="42.99893" lon="0.31418">
        <ele>1167.4</ele>
        <time>2026-07-08T09:19:47Z</time>
      </trkpt>
      <trkpt lat="42.99894" lon="0.31417">
        <ele>1167.4</ele>
        <time>2026-07-08T09:19:47Z</time>
      </trkpt>
      <trkpt lat="42.99894" lon="0.31417">
        <ele>1167.4</ele>
        <time>2026-07-08T09:19:48Z</time>
      </trkpt>
      <trkpt lat="42.99895" lon="0.31417">
        <ele>1168.4</ele>
        <time>2026-07-08T09:19:48Z</time>
      </trkpt>
      <trkpt lat="42.99896" lon="0.31416">
        <ele>1168.4</ele>
        <time>2026-07-08T09:19:49Z</time>
      </trkpt>
      <trkpt lat="42.99896" lon="0.31416">
        <ele>1168.4</ele>
        <time>2026-07-08T09:19:49Z</time>
      </trkpt>
      <trkpt lat="42.99897" lon="0.31416">
        <ele>1168.4</ele>
        <time>2026-07-08T09:19:50Z</time>
      </trkpt>
      <trkpt lat="42.99898" lon="0.31415">
        <ele>1168.4</ele>
        <time>2026-07-08T09:19:51Z</time>
      </trkpt>
      <trkpt lat="42.99899" lon="0.31415">
        <ele>1168.4</ele>
        <time>2026-07-08T09:19:51Z</time>
      </trkpt>
      <trkpt lat="42.999" lon="0.31414">
        <ele>1168.4</ele>
        <time>2026-07-08T09:19:52Z</time>
      </trkpt>
      <trkpt lat="42.999" lon="0.31414">
        <ele>1169.4</ele>
        <time>2026-07-08T09:19:52Z</time>
      </trkpt>
      <trkpt lat="42.99901" lon="0.31413">
        <ele>1169.4</ele>
        <time>2026-07-08T09:19:53Z</time>
      </trkpt>
      <trkpt lat="42.99902" lon="0.31413">
        <ele>1169.4</ele>
        <time>2026-07-08T09:19:53Z</time>
      </trkpt>
      <trkpt lat="42.99903" lon="0.31413">
        <ele>1169.4</ele>
        <time>2026-07-08T09:19:54Z</time>
      </trkpt>
      <trkpt lat="42.99903" lon="0.31412">
        <ele>1169.4</ele>
        <time>2026-07-08T09:19:55Z</time>
      </trkpt>
      <trkpt lat="42.99904" lon="0.31411">
        <ele>1169.4</ele>
        <time>2026-07-08T09:19:55Z</time>
      </trkpt>
      <trkpt lat="42.99904" lon="0.31411">
        <ele>1169.4</ele>
        <time>2026-07-08T09:19:56Z</time>
      </trkpt>
      <trkpt lat="42.99905" lon="0.3141">
        <ele>1169.4</ele>
        <time>2026-07-08T09:19:56Z</time>
      </trkpt>
      <trkpt lat="42.99905" lon="0.3141">
        <ele>1169.4</ele>
        <time>2026-07-08T09:19:57Z</time>
      </trkpt>
      <trkpt lat="42.99906" lon="0.3141">
        <ele>1170.4</ele>
        <time>2026-07-08T09:19:57Z</time>
      </trkpt>
      <trkpt lat="42.99907" lon="0.31409">
        <ele>1170.4</ele>
        <time>2026-07-08T09:19:58Z</time>
      </trkpt>
      <trkpt lat="42.99907" lon="0.31409">
        <ele>1170.4</ele>
        <time>2026-07-08T09:19:58Z</time>
      </trkpt>
      <trkpt lat="42.99908" lon="0.31408">
        <ele>1170.4</ele>
        <time>2026-07-08T09:19:59Z</time>
      </trkpt>
      <trkpt lat="42.99908" lon="0.31408">
        <ele>1170.4</ele>
        <time>2026-07-08T09:19:59Z</time>
      </trkpt>
      <trkpt lat="42.99909" lon="0.31408">
        <ele>1170.4</ele>
        <time>2026-07-08T09:20:00Z</time>
      </trkpt>
      <trkpt lat="42.9991" lon="0.31407">
        <ele>1170.4</ele>
        <time>2026-07-08T09:20:00Z</time>
      </trkpt>
      <trkpt lat="42.9991" lon="0.31407">
        <ele>1170.4</ele>
        <time>2026-07-08T09:20:01Z</time>
      </trkpt>
      <trkpt lat="42.99911" lon="0.31407">
        <ele>1170.4</ele>
        <time>2026-07-08T09:20:01Z</time>
      </trkpt>
      <trkpt lat="42.99911" lon="0.31406">
        <ele>1170.4</ele>
        <time>2026-07-08T09:20:02Z</time>
      </trkpt>
      <trkpt lat="42.99912" lon="0.31406">
        <ele>1171.4</ele>
        <time>2026-07-08T09:20:03Z</time>
      </trkpt>
      <trkpt lat="42.99912" lon="0.31405">
        <ele>1171.4</ele>
        <time>2026-07-08T09:20:03Z</time>
      </trkpt>
      <trkpt lat="42.99913" lon="0.31405">
        <ele>1172.4</ele>
        <time>2026-07-08T09:20:04Z</time>
      </trkpt>
      <trkpt lat="42.99913" lon="0.31404">
        <ele>1172.4</ele>
        <time>2026-07-08T09:20:04Z</time>
      </trkpt>
      <trkpt lat="42.99914" lon="0.31403">
        <ele>1172.4</ele>
        <time>2026-07-08T09:20:05Z</time>
      </trkpt>
      <trkpt lat="42.99914" lon="0.31403">
        <ele>1171.4</ele>
        <time>2026-07-08T09:20:05Z</time>
      </trkpt>
      <trkpt lat="42.99915" lon="0.31402">
        <ele>1171.4</ele>
        <time>2026-07-08T09:20:06Z</time>
      </trkpt>
      <trkpt lat="42.99915" lon="0.31401">
        <ele>1172.4</ele>
        <time>2026-07-08T09:20:06Z</time>
      </trkpt>
      <trkpt lat="42.99916" lon="0.31401">
        <ele>1172.4</ele>
        <time>2026-07-08T09:20:07Z</time>
      </trkpt>
      <trkpt lat="42.99916" lon="0.314">
        <ele>1171.4</ele>
        <time>2026-07-08T09:20:07Z</time>
      </trkpt>
      <trkpt lat="42.99917" lon="0.31399">
        <ele>1171.4</ele>
        <time>2026-07-08T09:20:08Z</time>
      </trkpt>
      <trkpt lat="42.99917" lon="0.31399">
        <ele>1171.4</ele>
        <time>2026-07-08T09:20:08Z</time>
      </trkpt>
      <trkpt lat="42.99918" lon="0.31398">
        <ele>1171.4</ele>
        <time>2026-07-08T09:20:09Z</time>
      </trkpt>
      <trkpt lat="42.99918" lon="0.31397">
        <ele>1171.4</ele>
        <time>2026-07-08T09:20:09Z</time>
      </trkpt>
      <trkpt lat="42.99919" lon="0.31397">
        <ele>1171.4</ele>
        <time>2026-07-08T09:20:10Z</time>
      </trkpt>
      <trkpt lat="42.99919" lon="0.31396">
        <ele>1171.4</ele>
        <time>2026-07-08T09:20:10Z</time>
      </trkpt>
      <trkpt lat="42.99919" lon="0.31395">
        <ele>1171.4</ele>
        <time>2026-07-08T09:20:11Z</time>
      </trkpt>
      <trkpt lat="42.9992" lon="0.31394">
        <ele>1171.4</ele>
        <time>2026-07-08T09:20:12Z</time>
      </trkpt>
      <trkpt lat="42.9992" lon="0.31394">
        <ele>1171.4</ele>
        <time>2026-07-08T09:20:12Z</time>
      </trkpt>
      <trkpt lat="42.9992" lon="0.31393">
        <ele>1171.4</ele>
        <time>2026-07-08T09:20:13Z</time>
      </trkpt>
      <trkpt lat="42.99921" lon="0.31392">
        <ele>1171.4</ele>
        <time>2026-07-08T09:20:13Z</time>
      </trkpt>
      <trkpt lat="42.99921" lon="0.31392">
        <ele>1171.4</ele>
        <time>2026-07-08T09:20:14Z</time>
      </trkpt>
      <trkpt lat="42.99922" lon="0.31391">
        <ele>1171.4</ele>
        <time>2026-07-08T09:20:14Z</time>
      </trkpt>
      <trkpt lat="42.99922" lon="0.3139">
        <ele>1171.4</ele>
        <time>2026-07-08T09:20:15Z</time>
      </trkpt>
      <trkpt lat="42.99922" lon="0.31389">
        <ele>1170.4</ele>
        <time>2026-07-08T09:20:15Z</time>
      </trkpt>
      <trkpt lat="42.99923" lon="0.31389">
        <ele>1170.4</ele>
        <time>2026-07-08T09:20:16Z</time>
      </trkpt>
      <trkpt lat="42.99923" lon="0.31388">
        <ele>1170.4</ele>
        <time>2026-07-08T09:20:16Z</time>
      </trkpt>
      <trkpt lat="42.99924" lon="0.31387">
        <ele>1170.4</ele>
        <time>2026-07-08T09:20:17Z</time>
      </trkpt>
      <trkpt lat="42.99924" lon="0.31387">
        <ele>1170.4</ele>
        <time>2026-07-08T09:20:17Z</time>
      </trkpt>
      <trkpt lat="42.99925" lon="0.31386">
        <ele>1170.4</ele>
        <time>2026-07-08T09:20:18Z</time>
      </trkpt>
      <trkpt lat="42.99926" lon="0.31386">
        <ele>1170.4</ele>
        <time>2026-07-08T09:20:18Z</time>
      </trkpt>
      <trkpt lat="42.99926" lon="0.31385">
        <ele>1170.4</ele>
        <time>2026-07-08T09:20:19Z</time>
      </trkpt>
      <trkpt lat="42.99927" lon="0.31384">
        <ele>1170.4</ele>
        <time>2026-07-08T09:20:19Z</time>
      </trkpt>
      <trkpt lat="42.99927" lon="0.31384">
        <ele>1170.4</ele>
        <time>2026-07-08T09:20:20Z</time>
      </trkpt>
      <trkpt lat="42.99928" lon="0.31383">
        <ele>1170.4</ele>
        <time>2026-07-08T09:20:21Z</time>
      </trkpt>
      <trkpt lat="42.99928" lon="0.31383">
        <ele>1169.4</ele>
        <time>2026-07-08T09:20:21Z</time>
      </trkpt>
      <trkpt lat="42.99929" lon="0.31382">
        <ele>1169.4</ele>
        <time>2026-07-08T09:20:22Z</time>
      </trkpt>
      <trkpt lat="42.99929" lon="0.31382">
        <ele>1169.4</ele>
        <time>2026-07-08T09:20:22Z</time>
      </trkpt>
      <trkpt lat="42.9993" lon="0.31381">
        <ele>1169.4</ele>
        <time>2026-07-08T09:20:23Z</time>
      </trkpt>
      <trkpt lat="42.9993" lon="0.31381">
        <ele>1169.4</ele>
        <time>2026-07-08T09:20:23Z</time>
      </trkpt>
      <trkpt lat="42.99931" lon="0.3138">
        <ele>1169.4</ele>
        <time>2026-07-08T09:20:24Z</time>
      </trkpt>
      <trkpt lat="42.99931" lon="0.3138">
        <ele>1169.4</ele>
        <time>2026-07-08T09:20:24Z</time>
      </trkpt>
      <trkpt lat="42.99932" lon="0.3138">
        <ele>1169.4</ele>
        <time>2026-07-08T09:20:25Z</time>
      </trkpt>
      <trkpt lat="42.99932" lon="0.3138">
        <ele>1169.4</ele>
        <time>2026-07-08T09:20:25Z</time>
      </trkpt>
      <trkpt lat="42.99933" lon="0.31379">
        <ele>1169.4</ele>
        <time>2026-07-08T09:20:26Z</time>
      </trkpt>
      <trkpt lat="42.99934" lon="0.31379">
        <ele>1169.4</ele>
        <time>2026-07-08T09:20:26Z</time>
      </trkpt>
      <trkpt lat="42.99934" lon="0.31379">
        <ele>1169.4</ele>
        <time>2026-07-08T09:20:27Z</time>
      </trkpt>
      <trkpt lat="42.99935" lon="0.31379">
        <ele>1168.4</ele>
        <time>2026-07-08T09:20:27Z</time>
      </trkpt>
      <trkpt lat="42.99935" lon="0.31379">
        <ele>1168.4</ele>
        <time>2026-07-08T09:20:28Z</time>
      </trkpt>
      <trkpt lat="42.99936" lon="0.31379">
        <ele>1168.4</ele>
        <time>2026-07-08T09:20:29Z</time>
      </trkpt>
      <trkpt lat="42.99936" lon="0.31379">
        <ele>1168.4</ele>
        <time>2026-07-08T09:20:29Z</time>
      </trkpt>
      <trkpt lat="42.99936" lon="0.31379">
        <ele>1168.4</ele>
        <time>2026-07-08T09:20:30Z</time>
      </trkpt>
      <trkpt lat="42.99937" lon="0.31379">
        <ele>1168.4</ele>
        <time>2026-07-08T09:20:30Z</time>
      </trkpt>
      <trkpt lat="42.99937" lon="0.31379">
        <ele>1168.4</ele>
        <time>2026-07-08T09:20:31Z</time>
      </trkpt>
      <trkpt lat="42.99938" lon="0.31379">
        <ele>1167.4</ele>
        <time>2026-07-08T09:20:31Z</time>
      </trkpt>
      <trkpt lat="42.99939" lon="0.31379">
        <ele>1167.4</ele>
        <time>2026-07-08T09:20:32Z</time>
      </trkpt>
      <trkpt lat="42.99939" lon="0.31379">
        <ele>1167.4</ele>
        <time>2026-07-08T09:20:32Z</time>
      </trkpt>
      <trkpt lat="42.9994" lon="0.31379">
        <ele>1167.4</ele>
        <time>2026-07-08T09:20:33Z</time>
      </trkpt>
      <trkpt lat="42.99941" lon="0.31379">
        <ele>1167.4</ele>
        <time>2026-07-08T09:20:33Z</time>
      </trkpt>
      <trkpt lat="42.99941" lon="0.31379">
        <ele>1167.4</ele>
        <time>2026-07-08T09:20:34Z</time>
      </trkpt>
      <trkpt lat="42.99942" lon="0.31378">
        <ele>1166.4</ele>
        <time>2026-07-08T09:20:34Z</time>
      </trkpt>
      <trkpt lat="42.99943" lon="0.31378">
        <ele>1166.4</ele>
        <time>2026-07-08T09:20:35Z</time>
      </trkpt>
      <trkpt lat="42.99943" lon="0.31378">
        <ele>1166.4</ele>
        <time>2026-07-08T09:20:35Z</time>
      </trkpt>
      <trkpt lat="42.99944" lon="0.31378">
        <ele>1166.4</ele>
        <time>2026-07-08T09:20:36Z</time>
      </trkpt>
      <trkpt lat="42.99945" lon="0.31378">
        <ele>1166.4</ele>
        <time>2026-07-08T09:20:37Z</time>
      </trkpt>
      <trkpt lat="42.99945" lon="0.31378">
        <ele>1166.4</ele>
        <time>2026-07-08T09:20:37Z</time>
      </trkpt>
      <trkpt lat="42.99946" lon="0.31379">
        <ele>1166.4</ele>
        <time>2026-07-08T09:20:38Z</time>
      </trkpt>
      <trkpt lat="42.99947" lon="0.31379">
        <ele>1165.4</ele>
        <time>2026-07-08T09:20:38Z</time>
      </trkpt>
      <trkpt lat="42.99947" lon="0.31379">
        <ele>1165.4</ele>
        <time>2026-07-08T09:20:39Z</time>
      </trkpt>
      <trkpt lat="42.99948" lon="0.31379">
        <ele>1166.4</ele>
        <time>2026-07-08T09:20:39Z</time>
      </trkpt>
      <trkpt lat="42.99949" lon="0.3138">
        <ele>1166.4</ele>
        <time>2026-07-08T09:20:40Z</time>
      </trkpt>
      <trkpt lat="42.99949" lon="0.3138">
        <ele>1165.4</ele>
        <time>2026-07-08T09:20:40Z</time>
      </trkpt>
      <trkpt lat="42.9995" lon="0.3138">
        <ele>1165.4</ele>
        <time>2026-07-08T09:20:41Z</time>
      </trkpt>
      <trkpt lat="42.99951" lon="0.31381">
        <ele>1164.4</ele>
        <time>2026-07-08T09:20:41Z</time>
      </trkpt>
      <trkpt lat="42.99952" lon="0.31381">
        <ele>1164.4</ele>
        <time>2026-07-08T09:20:42Z</time>
      </trkpt>
      <trkpt lat="42.99952" lon="0.31381">
        <ele>1164.4</ele>
        <time>2026-07-08T09:20:42Z</time>
      </trkpt>
      <trkpt lat="42.99953" lon="0.31382">
        <ele>1164.4</ele>
        <time>2026-07-08T09:20:43Z</time>
      </trkpt>
      <trkpt lat="42.99954" lon="0.31382">
        <ele>1165.4</ele>
        <time>2026-07-08T09:20:43Z</time>
      </trkpt>
      <trkpt lat="42.99954" lon="0.31382">
        <ele>1165.4</ele>
        <time>2026-07-08T09:20:44Z</time>
      </trkpt>
      <trkpt lat="42.99955" lon="0.31382">
        <ele>1165.4</ele>
        <time>2026-07-08T09:20:45Z</time>
      </trkpt>
      <trkpt lat="42.99956" lon="0.31382">
        <ele>1164.4</ele>
        <time>2026-07-08T09:20:45Z</time>
      </trkpt>
      <trkpt lat="42.99957" lon="0.31382">
        <ele>1164.4</ele>
        <time>2026-07-08T09:20:46Z</time>
      </trkpt>
      <trkpt lat="42.99958" lon="0.31382">
        <ele>1163.4</ele>
        <time>2026-07-08T09:20:46Z</time>
      </trkpt>
      <trkpt lat="42.99959" lon="0.31382">
        <ele>1163.4</ele>
        <time>2026-07-08T09:20:47Z</time>
      </trkpt>
      <trkpt lat="42.9996" lon="0.31382">
        <ele>1163.4</ele>
        <time>2026-07-08T09:20:47Z</time>
      </trkpt>
      <trkpt lat="42.99961" lon="0.31382">
        <ele>1163.4</ele>
        <time>2026-07-08T09:20:48Z</time>
      </trkpt>
      <trkpt lat="42.99961" lon="0.31382">
        <ele>1163.4</ele>
        <time>2026-07-08T09:20:48Z</time>
      </trkpt>
      <trkpt lat="42.99962" lon="0.31382">
        <ele>1163.4</ele>
        <time>2026-07-08T09:20:49Z</time>
      </trkpt>
      <trkpt lat="42.99963" lon="0.31381">
        <ele>1163.4</ele>
        <time>2026-07-08T09:20:49Z</time>
      </trkpt>
      <trkpt lat="42.99964" lon="0.31381">
        <ele>1163.4</ele>
        <time>2026-07-08T09:20:50Z</time>
      </trkpt>
      <trkpt lat="42.99965" lon="0.31381">
        <ele>1162.4</ele>
        <time>2026-07-08T09:20:50Z</time>
      </trkpt>
      <trkpt lat="42.99966" lon="0.31381">
        <ele>1162.4</ele>
        <time>2026-07-08T09:20:51Z</time>
      </trkpt>
      <trkpt lat="42.99966" lon="0.31381">
        <ele>1162.4</ele>
        <time>2026-07-08T09:20:52Z</time>
      </trkpt>
      <trkpt lat="42.99967" lon="0.3138">
        <ele>1163.4</ele>
        <time>2026-07-08T09:20:52Z</time>
      </trkpt>
      <trkpt lat="42.99968" lon="0.3138">
        <ele>1163.4</ele>
        <time>2026-07-08T09:20:53Z</time>
      </trkpt>
      <trkpt lat="42.99969" lon="0.3138">
        <ele>1163.4</ele>
        <time>2026-07-08T09:20:53Z</time>
      </trkpt>
      <trkpt lat="42.9997" lon="0.31379">
        <ele>1163.4</ele>
        <time>2026-07-08T09:20:54Z</time>
      </trkpt>
      <trkpt lat="42.99971" lon="0.31379">
        <ele>1163.4</ele>
        <time>2026-07-08T09:20:54Z</time>
      </trkpt>
      <trkpt lat="42.99972" lon="0.31378">
        <ele>1163.4</ele>
        <time>2026-07-08T09:20:55Z</time>
      </trkpt>
      <trkpt lat="42.99973" lon="0.31378">
        <ele>1163.4</ele>
        <time>2026-07-08T09:20:55Z</time>
      </trkpt>
      <trkpt lat="42.99973" lon="0.31378">
        <ele>1163.4</ele>
        <time>2026-07-08T09:20:56Z</time>
      </trkpt>
      <trkpt lat="42.99974" lon="0.31377">
        <ele>1162.4</ele>
        <time>2026-07-08T09:20:56Z</time>
      </trkpt>
      <trkpt lat="42.99975" lon="0.31377">
        <ele>1162.4</ele>
        <time>2026-07-08T09:20:57Z</time>
      </trkpt>
      <trkpt lat="42.99976" lon="0.31376">
        <ele>1162.4</ele>
        <time>2026-07-08T09:20:57Z</time>
      </trkpt>
      <trkpt lat="42.99977" lon="0.31376">
        <ele>1162.4</ele>
        <time>2026-07-08T09:20:58Z</time>
      </trkpt>
      <trkpt lat="42.99978" lon="0.31376">
        <ele>1163.4</ele>
        <time>2026-07-08T09:20:59Z</time>
      </trkpt>
      <trkpt lat="42.99978" lon="0.31375">
        <ele>1162.4</ele>
        <time>2026-07-08T09:20:59Z</time>
      </trkpt>
      <trkpt lat="42.99979" lon="0.31375">
        <ele>1162.4</ele>
        <time>2026-07-08T09:21:00Z</time>
      </trkpt>
      <trkpt lat="42.9998" lon="0.31374">
        <ele>1162.4</ele>
        <time>2026-07-08T09:21:00Z</time>
      </trkpt>
      <trkpt lat="42.9998" lon="0.31374">
        <ele>1162.4</ele>
        <time>2026-07-08T09:21:01Z</time>
      </trkpt>
      <trkpt lat="42.99981" lon="0.31374">
        <ele>1163.4</ele>
        <time>2026-07-08T09:21:01Z</time>
      </trkpt>
      <trkpt lat="42.99982" lon="0.31373">
        <ele>1163.4</ele>
        <time>2026-07-08T09:21:02Z</time>
      </trkpt>
      <trkpt lat="42.99983" lon="0.31373">
        <ele>1163.4</ele>
        <time>2026-07-08T09:21:02Z</time>
      </trkpt>
      <trkpt lat="42.99983" lon="0.31372">
        <ele>1163.4</ele>
        <time>2026-07-08T09:21:03Z</time>
      </trkpt>
      <trkpt lat="42.99984" lon="0.31372">
        <ele>1163.4</ele>
        <time>2026-07-08T09:21:03Z</time>
      </trkpt>
      <trkpt lat="42.99985" lon="0.31372">
        <ele>1163.4</ele>
        <time>2026-07-08T09:21:04Z</time>
      </trkpt>
      <trkpt lat="42.99986" lon="0.31372">
        <ele>1163.4</ele>
        <time>2026-07-08T09:21:04Z</time>
      </trkpt>
      <trkpt lat="42.99986" lon="0.31371">
        <ele>1163.4</ele>
        <time>2026-07-08T09:21:05Z</time>
      </trkpt>
      <trkpt lat="42.99987" lon="0.31371">
        <ele>1163.4</ele>
        <time>2026-07-08T09:21:05Z</time>
      </trkpt>
      <trkpt lat="42.99988" lon="0.3137">
        <ele>1163.4</ele>
        <time>2026-07-08T09:21:06Z</time>
      </trkpt>
      <trkpt lat="42.99988" lon="0.3137">
        <ele>1163.4</ele>
        <time>2026-07-08T09:21:07Z</time>
      </trkpt>
      <trkpt lat="42.99989" lon="0.3137">
        <ele>1162.4</ele>
        <time>2026-07-08T09:21:07Z</time>
      </trkpt>
      <trkpt lat="42.99989" lon="0.3137">
        <ele>1162.4</ele>
        <time>2026-07-08T09:21:08Z</time>
      </trkpt>
      <trkpt lat="42.9999" lon="0.3137">
        <ele>1162.4</ele>
        <time>2026-07-08T09:21:08Z</time>
      </trkpt>
      <trkpt lat="42.99991" lon="0.31369">
        <ele>1162.4</ele>
        <time>2026-07-08T09:21:09Z</time>
      </trkpt>
      <trkpt lat="42.99991" lon="0.31369">
        <ele>1162.4</ele>
        <time>2026-07-08T09:21:09Z</time>
      </trkpt>
      <trkpt lat="42.99992" lon="0.31369">
        <ele>1162.4</ele>
        <time>2026-07-08T09:21:10Z</time>
      </trkpt>
      <trkpt lat="42.99992" lon="0.31369">
        <ele>1162.4</ele>
        <time>2026-07-08T09:21:10Z</time>
      </trkpt>
      <trkpt lat="42.99993" lon="0.31369">
        <ele>1162.4</ele>
        <time>2026-07-08T09:21:11Z</time>
      </trkpt>
      <trkpt lat="42.99993" lon="0.31368">
        <ele>1162.4</ele>
        <time>2026-07-08T09:21:11Z</time>
      </trkpt>
      <trkpt lat="42.99994" lon="0.31368">
        <ele>1162.4</ele>
        <time>2026-07-08T09:21:12Z</time>
      </trkpt>
      <trkpt lat="42.99994" lon="0.31368">
        <ele>1162.4</ele>
        <time>2026-07-08T09:21:12Z</time>
      </trkpt>
      <trkpt lat="42.99995" lon="0.31367">
        <ele>1162.4</ele>
        <time>2026-07-08T09:21:13Z</time>
      </trkpt>
      <trkpt lat="42.99996" lon="0.31367">
        <ele>1161.4</ele>
        <time>2026-07-08T09:21:14Z</time>
      </trkpt>
      <trkpt lat="42.99996" lon="0.31367">
        <ele>1161.4</ele>
        <time>2026-07-08T09:21:14Z</time>
      </trkpt>
      <trkpt lat="42.99997" lon="0.31367">
        <ele>1161.4</ele>
        <time>2026-07-08T09:21:15Z</time>
      </trkpt>
      <trkpt lat="42.99997" lon="0.31367">
        <ele>1160.4</ele>
        <time>2026-07-08T09:21:15Z</time>
      </trkpt>
      <trkpt lat="42.99998" lon="0.31367">
        <ele>1160.4</ele>
        <time>2026-07-08T09:21:16Z</time>
      </trkpt>
      <trkpt lat="42.99998" lon="0.31367">
        <ele>1159.4</ele>
        <time>2026-07-08T09:21:16Z</time>
      </trkpt>
      <trkpt lat="42.99999" lon="0.31367">
        <ele>1159.4</ele>
        <time>2026-07-08T09:21:17Z</time>
      </trkpt>
      <trkpt lat="42.99999" lon="0.31368">
        <ele>1159.4</ele>
        <time>2026-07-08T09:21:17Z</time>
      </trkpt>
      <trkpt lat="43" lon="0.31368">
        <ele>1159.4</ele>
        <time>2026-07-08T09:21:18Z</time>
      </trkpt>
      <trkpt lat="43.00001" lon="0.31368">
        <ele>1160.4</ele>
        <time>2026-07-08T09:21:18Z</time>
      </trkpt>
      <trkpt lat="43.00001" lon="0.31368">
        <ele>1160.4</ele>
        <time>2026-07-08T09:21:19Z</time>
      </trkpt>
      <trkpt lat="43.00002" lon="0.31368">
        <ele>1160.4</ele>
        <time>2026-07-08T09:21:19Z</time>
      </trkpt>
      <trkpt lat="43.00002" lon="0.31368">
        <ele>1160.4</ele>
        <time>2026-07-08T09:21:20Z</time>
      </trkpt>
      <trkpt lat="43.00003" lon="0.31367">
        <ele>1161.4</ele>
        <time>2026-07-08T09:21:20Z</time>
      </trkpt>
      <trkpt lat="43.00004" lon="0.31367">
        <ele>1161.4</ele>
        <time>2026-07-08T09:21:21Z</time>
      </trkpt>
      <trkpt lat="43.00004" lon="0.31367">
        <ele>1161.4</ele>
        <time>2026-07-08T09:21:22Z</time>
      </trkpt>
      <trkpt lat="43.00005" lon="0.31367">
        <ele>1161.4</ele>
        <time>2026-07-08T09:21:22Z</time>
      </trkpt>
      <trkpt lat="43.00005" lon="0.31367">
        <ele>1161.4</ele>
        <time>2026-07-08T09:21:23Z</time>
      </trkpt>
      <trkpt lat="43.00006" lon="0.31366">
        <ele>1161.4</ele>
        <time>2026-07-08T09:21:23Z</time>
      </trkpt>
      <trkpt lat="43.00006" lon="0.31366">
        <ele>1161.4</ele>
        <time>2026-07-08T09:21:24Z</time>
      </trkpt>
      <trkpt lat="43.00007" lon="0.31366">
        <ele>1161.4</ele>
        <time>2026-07-08T09:21:24Z</time>
      </trkpt>
      <trkpt lat="43.00008" lon="0.31365">
        <ele>1161.4</ele>
        <time>2026-07-08T09:21:25Z</time>
      </trkpt>
      <trkpt lat="43.00008" lon="0.31365">
        <ele>1161.4</ele>
        <time>2026-07-08T09:21:25Z</time>
      </trkpt>
      <trkpt lat="43.00009" lon="0.31365">
        <ele>1161.4</ele>
        <time>2026-07-08T09:21:26Z</time>
      </trkpt>
      <trkpt lat="43.00009" lon="0.31364">
        <ele>1160.4</ele>
        <time>2026-07-08T09:21:26Z</time>
      </trkpt>
      <trkpt lat="43.0001" lon="0.31364">
        <ele>1160.4</ele>
        <time>2026-07-08T09:21:27Z</time>
      </trkpt>
      <trkpt lat="43.0001" lon="0.31363">
        <ele>1160.4</ele>
        <time>2026-07-08T09:21:27Z</time>
      </trkpt>
      <trkpt lat="43.00011" lon="0.31363">
        <ele>1160.4</ele>
        <time>2026-07-08T09:21:28Z</time>
      </trkpt>
      <trkpt lat="43.00011" lon="0.31362">
        <ele>1160.4</ele>
        <time>2026-07-08T09:21:29Z</time>
      </trkpt>
      <trkpt lat="43.00012" lon="0.31362">
        <ele>1160.4</ele>
        <time>2026-07-08T09:21:29Z</time>
      </trkpt>
      <trkpt lat="43.00013" lon="0.31362">
        <ele>1160.4</ele>
        <time>2026-07-08T09:21:30Z</time>
      </trkpt>
      <trkpt lat="43.00013" lon="0.31361">
        <ele>1158.4</ele>
        <time>2026-07-08T09:21:30Z</time>
      </trkpt>
      <trkpt lat="43.00014" lon="0.31361">
        <ele>1158.4</ele>
        <time>2026-07-08T09:21:31Z</time>
      </trkpt>
      <trkpt lat="43.00014" lon="0.3136">
        <ele>1159.4</ele>
        <time>2026-07-08T09:21:31Z</time>
      </trkpt>
      <trkpt lat="43.00015" lon="0.3136">
        <ele>1159.4</ele>
        <time>2026-07-08T09:21:32Z</time>
      </trkpt>
      <trkpt lat="43.00016" lon="0.31359">
        <ele>1159.4</ele>
        <time>2026-07-08T09:21:32Z</time>
      </trkpt>
      <trkpt lat="43.00016" lon="0.31359">
        <ele>1159.4</ele>
        <time>2026-07-08T09:21:33Z</time>
      </trkpt>
      <trkpt lat="43.00017" lon="0.31358">
        <ele>1158.4</ele>
        <time>2026-07-08T09:21:33Z</time>
      </trkpt>
      <trkpt lat="43.00018" lon="0.31358">
        <ele>1158.4</ele>
        <time>2026-07-08T09:21:34Z</time>
      </trkpt>
      <trkpt lat="43.00018" lon="0.31358">
        <ele>1158.4</ele>
        <time>2026-07-08T09:21:34Z</time>
      </trkpt>
      <trkpt lat="43.00019" lon="0.31357">
        <ele>1158.4</ele>
        <time>2026-07-08T09:21:35Z</time>
      </trkpt>
      <trkpt lat="43.0002" lon="0.31357">
        <ele>1157.4</ele>
        <time>2026-07-08T09:21:35Z</time>
      </trkpt>
      <trkpt lat="43.0002" lon="0.31357">
        <ele>1157.4</ele>
        <time>2026-07-08T09:21:36Z</time>
      </trkpt>
      <trkpt lat="43.00021" lon="0.31356">
        <ele>1157.4</ele>
        <time>2026-07-08T09:21:37Z</time>
      </trkpt>
      <trkpt lat="43.00022" lon="0.31356">
        <ele>1157.4</ele>
        <time>2026-07-08T09:21:37Z</time>
      </trkpt>
      <trkpt lat="43.00023" lon="0.31356">
        <ele>1157.4</ele>
        <time>2026-07-08T09:21:38Z</time>
      </trkpt>
      <trkpt lat="43.00023" lon="0.31355">
        <ele>1157.4</ele>
        <time>2026-07-08T09:21:38Z</time>
      </trkpt>
      <trkpt lat="43.00024" lon="0.31355">
        <ele>1157.4</ele>
        <time>2026-07-08T09:21:39Z</time>
      </trkpt>
      <trkpt lat="43.00025" lon="0.31355">
        <ele>1158.4</ele>
        <time>2026-07-08T09:21:39Z</time>
      </trkpt>
      <trkpt lat="43.00025" lon="0.31354">
        <ele>1158.4</ele>
        <time>2026-07-08T09:21:40Z</time>
      </trkpt>
      <trkpt lat="43.00026" lon="0.31354">
        <ele>1159.4</ele>
        <time>2026-07-08T09:21:40Z</time>
      </trkpt>
      <trkpt lat="43.00027" lon="0.31354">
        <ele>1159.4</ele>
        <time>2026-07-08T09:21:41Z</time>
      </trkpt>
      <trkpt lat="43.00027" lon="0.31353">
        <ele>1160.4</ele>
        <time>2026-07-08T09:21:41Z</time>
      </trkpt>
      <trkpt lat="43.00028" lon="0.31353">
        <ele>1160.4</ele>
        <time>2026-07-08T09:21:42Z</time>
      </trkpt>
      <trkpt lat="43.00029" lon="0.31353">
        <ele>1160.4</ele>
        <time>2026-07-08T09:21:42Z</time>
      </trkpt>
      <trkpt lat="43.0003" lon="0.31352">
        <ele>1160.4</ele>
        <time>2026-07-08T09:21:43Z</time>
      </trkpt>
      <trkpt lat="43.0003" lon="0.31352">
        <ele>1160.4</ele>
        <time>2026-07-08T09:21:44Z</time>
      </trkpt>
      <trkpt lat="43.00031" lon="0.31352">
        <ele>1159.4</ele>
        <time>2026-07-08T09:21:44Z</time>
      </trkpt>
      <trkpt lat="43.00032" lon="0.31351">
        <ele>1160.4</ele>
        <time>2026-07-08T09:21:45Z</time>
      </trkpt>
      <trkpt lat="43.00033" lon="0.3135">
        <ele>1160.4</ele>
        <time>2026-07-08T09:21:46Z</time>
      </trkpt>
      <trkpt lat="43.00034" lon="0.3135">
        <ele>1160.4</ele>
        <time>2026-07-08T09:21:46Z</time>
      </trkpt>
      <trkpt lat="43.00034" lon="0.31349">
        <ele>1160.4</ele>
        <time>2026-07-08T09:21:47Z</time>
      </trkpt>
      <trkpt lat="43.00035" lon="0.31349">
        <ele>1160.4</ele>
        <time>2026-07-08T09:21:47Z</time>
      </trkpt>
      <trkpt lat="43.00036" lon="0.31349">
        <ele>1160.4</ele>
        <time>2026-07-08T09:21:48Z</time>
      </trkpt>
      <trkpt lat="43.00036" lon="0.31348">
        <ele>1159.4</ele>
        <time>2026-07-08T09:21:48Z</time>
      </trkpt>
      <trkpt lat="43.00037" lon="0.31348">
        <ele>1159.4</ele>
        <time>2026-07-08T09:21:49Z</time>
      </trkpt>
      <trkpt lat="43.00038" lon="0.31348">
        <ele>1159.4</ele>
        <time>2026-07-08T09:21:49Z</time>
      </trkpt>
      <trkpt lat="43.00039" lon="0.31347">
        <ele>1159.4</ele>
        <time>2026-07-08T09:21:50Z</time>
      </trkpt>
      <trkpt lat="43.0004" lon="0.31347">
        <ele>1159.4</ele>
        <time>2026-07-08T09:21:51Z</time>
      </trkpt>
      <trkpt lat="43.0004" lon="0.31347">
        <ele>1160.4</ele>
        <time>2026-07-08T09:21:51Z</time>
      </trkpt>
      <trkpt lat="43.00041" lon="0.31346">
        <ele>1160.4</ele>
        <time>2026-07-08T09:21:52Z</time>
      </trkpt>
      <trkpt lat="43.00042" lon="0.31346">
        <ele>1160.4</ele>
        <time>2026-07-08T09:21:52Z</time>
      </trkpt>
      <trkpt lat="43.00042" lon="0.31345">
        <ele>1160.4</ele>
        <time>2026-07-08T09:21:53Z</time>
      </trkpt>
      <trkpt lat="43.00043" lon="0.31345">
        <ele>1160.4</ele>
        <time>2026-07-08T09:21:53Z</time>
      </trkpt>
      <trkpt lat="43.00044" lon="0.31344">
        <ele>1160.4</ele>
        <time>2026-07-08T09:21:54Z</time>
      </trkpt>
      <trkpt lat="43.00045" lon="0.31343">
        <ele>1160.4</ele>
        <time>2026-07-08T09:21:55Z</time>
      </trkpt>
      <trkpt lat="43.00046" lon="0.31343">
        <ele>1160.4</ele>
        <time>2026-07-08T09:21:55Z</time>
      </trkpt>
      <trkpt lat="43.00046" lon="0.31342">
        <ele>1160.4</ele>
        <time>2026-07-08T09:21:56Z</time>
      </trkpt>
      <trkpt lat="43.00047" lon="0.31342">
        <ele>1161.4</ele>
        <time>2026-07-08T09:21:56Z</time>
      </trkpt>
      <trkpt lat="43.00048" lon="0.31341">
        <ele>1162.4</ele>
        <time>2026-07-08T09:21:57Z</time>
      </trkpt>
      <trkpt lat="43.00048" lon="0.31341">
        <ele>1162.4</ele>
        <time>2026-07-08T09:21:58Z</time>
      </trkpt>
      <trkpt lat="43.00049" lon="0.3134">
        <ele>1162.4</ele>
        <time>2026-07-08T09:21:58Z</time>
      </trkpt>
      <trkpt lat="43.0005" lon="0.3134">
        <ele>1162.4</ele>
        <time>2026-07-08T09:21:59Z</time>
      </trkpt>
      <trkpt lat="43.0005" lon="0.3134">
        <ele>1162.4</ele>
        <time>2026-07-08T09:21:59Z</time>
      </trkpt>
      <trkpt lat="43.00051" lon="0.31339">
        <ele>1162.4</ele>
        <time>2026-07-08T09:22:00Z</time>
      </trkpt>
      <trkpt lat="43.00052" lon="0.31339">
        <ele>1162.4</ele>
        <time>2026-07-08T09:22:01Z</time>
      </trkpt>
      <trkpt lat="43.00053" lon="0.31338">
        <ele>1162.4</ele>
        <time>2026-07-08T09:22:02Z</time>
      </trkpt>
      <trkpt lat="43.00054" lon="0.31338">
        <ele>1162.4</ele>
        <time>2026-07-08T09:22:02Z</time>
      </trkpt>
      <trkpt lat="43.00055" lon="0.31338">
        <ele>1162.4</ele>
        <time>2026-07-08T09:22:03Z</time>
      </trkpt>
      <trkpt lat="43.00055" lon="0.31338">
        <ele>1162.4</ele>
        <time>2026-07-08T09:22:03Z</time>
      </trkpt>
      <trkpt lat="43.00056" lon="0.31338">
        <ele>1162.4</ele>
        <time>2026-07-08T09:22:04Z</time>
      </trkpt>
      <trkpt lat="43.00057" lon="0.31337">
        <ele>1162.4</ele>
        <time>2026-07-08T09:22:04Z</time>
      </trkpt>
      <trkpt lat="43.00057" lon="0.31337">
        <ele>1162.4</ele>
        <time>2026-07-08T09:22:05Z</time>
      </trkpt>
      <trkpt lat="43.00058" lon="0.31337">
        <ele>1162.4</ele>
        <time>2026-07-08T09:22:06Z</time>
      </trkpt>
      <trkpt lat="43.00059" lon="0.31337">
        <ele>1162.4</ele>
        <time>2026-07-08T09:22:06Z</time>
      </trkpt>
      <trkpt lat="43.00059" lon="0.31337">
        <ele>1161.4</ele>
        <time>2026-07-08T09:22:07Z</time>
      </trkpt>
      <trkpt lat="43.0006" lon="0.31337">
        <ele>1161.4</ele>
        <time>2026-07-08T09:22:08Z</time>
      </trkpt>
      <trkpt lat="43.0006" lon="0.31337">
        <ele>1162.4</ele>
        <time>2026-07-08T09:22:08Z</time>
      </trkpt>
      <trkpt lat="43.00061" lon="0.31338">
        <ele>1162.4</ele>
        <time>2026-07-08T09:22:09Z</time>
      </trkpt>
      <trkpt lat="43.00061" lon="0.31339">
        <ele>1162.4</ele>
        <time>2026-07-08T09:22:10Z</time>
      </trkpt>
      <trkpt lat="43.00062" lon="0.31339">
        <ele>1162.4</ele>
        <time>2026-07-08T09:22:10Z</time>
      </trkpt>
      <trkpt lat="43.00062" lon="0.3134">
        <ele>1162.4</ele>
        <time>2026-07-08T09:22:11Z</time>
      </trkpt>
      <trkpt lat="43.00063" lon="0.3134">
        <ele>1162.4</ele>
        <time>2026-07-08T09:22:11Z</time>
      </trkpt>
      <trkpt lat="43.00063" lon="0.3134">
        <ele>1162.4</ele>
        <time>2026-07-08T09:22:12Z</time>
      </trkpt>
      <trkpt lat="43.00064" lon="0.3134">
        <ele>1162.4</ele>
        <time>2026-07-08T09:22:13Z</time>
      </trkpt>
      <trkpt lat="43.00064" lon="0.31339">
        <ele>1162.4</ele>
        <time>2026-07-08T09:22:13Z</time>
      </trkpt>
      <trkpt lat="43.00064" lon="0.31339">
        <ele>1163.4</ele>
        <time>2026-07-08T09:22:14Z</time>
      </trkpt>
      <trkpt lat="43.00065" lon="0.31339">
        <ele>1163.4</ele>
        <time>2026-07-08T09:22:15Z</time>
      </trkpt>
      <trkpt lat="43.00065" lon="0.3134">
        <ele>1164.4</ele>
        <time>2026-07-08T09:22:15Z</time>
      </trkpt>
      <trkpt lat="43.00066" lon="0.3134">
        <ele>1164.4</ele>
        <time>2026-07-08T09:22:16Z</time>
      </trkpt>
      <trkpt lat="43.00067" lon="0.3134">
        <ele>1165.4</ele>
        <time>2026-07-08T09:22:17Z</time>
      </trkpt>
      <trkpt lat="43.00068" lon="0.31341">
        <ele>1164.4</ele>
        <time>2026-07-08T09:22:17Z</time>
      </trkpt>
      <trkpt lat="43.00068" lon="0.31341">
        <ele>1164.4</ele>
        <time>2026-07-08T09:22:18Z</time>
      </trkpt>
      <trkpt lat="43.00069" lon="0.31341">
        <ele>1164.4</ele>
        <time>2026-07-08T09:22:19Z</time>
      </trkpt>
      <trkpt lat="43.00069" lon="0.31341">
        <ele>1164.4</ele>
        <time>2026-07-08T09:22:19Z</time>
      </trkpt>
      <trkpt lat="43.0007" lon="0.31341">
        <ele>1165.4</ele>
        <time>2026-07-08T09:22:20Z</time>
      </trkpt>
      <trkpt lat="43.00071" lon="0.31341">
        <ele>1165.4</ele>
        <time>2026-07-08T09:22:21Z</time>
      </trkpt>
      <trkpt lat="43.00071" lon="0.3134">
        <ele>1165.4</ele>
        <time>2026-07-08T09:22:22Z</time>
      </trkpt>
      <trkpt lat="43.00072" lon="0.3134">
        <ele>1165.4</ele>
        <time>2026-07-08T09:22:22Z</time>
      </trkpt>
      <trkpt lat="43.00072" lon="0.31339">
        <ele>1165.4</ele>
        <time>2026-07-08T09:22:23Z</time>
      </trkpt>
      <trkpt lat="43.00073" lon="0.31339">
        <ele>1165.4</ele>
        <time>2026-07-08T09:22:24Z</time>
      </trkpt>
      <trkpt lat="43.00073" lon="0.31339">
        <ele>1165.4</ele>
        <time>2026-07-08T09:22:24Z</time>
      </trkpt>
      <trkpt lat="43.00073" lon="0.31338">
        <ele>1165.4</ele>
        <time>2026-07-08T09:22:25Z</time>
      </trkpt>
      <trkpt lat="43.00074" lon="0.31338">
        <ele>1165.4</ele>
        <time>2026-07-08T09:22:26Z</time>
      </trkpt>
      <trkpt lat="43.00074" lon="0.31338">
        <ele>1165.4</ele>
        <time>2026-07-08T09:22:26Z</time>
      </trkpt>
      <trkpt lat="43.00075" lon="0.31338">
        <ele>1166.4</ele>
        <time>2026-07-08T09:22:27Z</time>
      </trkpt>
      <trkpt lat="43.00075" lon="0.31338">
        <ele>1166.4</ele>
        <time>2026-07-08T09:22:28Z</time>
      </trkpt>
      <trkpt lat="43.00076" lon="0.31337">
        <ele>1165.4</ele>
        <time>2026-07-08T09:22:29Z</time>
      </trkpt>
      <trkpt lat="43.00077" lon="0.31337">
        <ele>1165.4</ele>
        <time>2026-07-08T09:22:29Z</time>
      </trkpt>
      <trkpt lat="43.00077" lon="0.31337">
        <ele>1165.4</ele>
        <time>2026-07-08T09:22:30Z</time>
      </trkpt>
      <trkpt lat="43.00077" lon="0.31337">
        <ele>1165.4</ele>
        <time>2026-07-08T09:22:31Z</time>
      </trkpt>
      <trkpt lat="43.00078" lon="0.31337">
        <ele>1165.4</ele>
        <time>2026-07-08T09:22:32Z</time>
      </trkpt>
      <trkpt lat="43.00078" lon="0.31337">
        <ele>1165.4</ele>
        <time>2026-07-08T09:22:32Z</time>
      </trkpt>
      <trkpt lat="43.00078" lon="0.31337">
        <ele>1165.4</ele>
        <time>2026-07-08T09:22:33Z</time>
      </trkpt>
      <trkpt lat="43.00079" lon="0.31337">
        <ele>1165.4</ele>
        <time>2026-07-08T09:22:34Z</time>
      </trkpt>
      <trkpt lat="43.00079" lon="0.31337">
        <ele>1165.4</ele>
        <time>2026-07-08T09:22:35Z</time>
      </trkpt>
      <trkpt lat="43.00079" lon="0.31337">
        <ele>1166.4</ele>
        <time>2026-07-08T09:22:35Z</time>
      </trkpt>
      <trkpt lat="43.00078" lon="0.31337">
        <ele>1166.4</ele>
        <time>2026-07-08T09:22:36Z</time>
      </trkpt>
      <trkpt lat="43.00078" lon="0.31337">
        <ele>1166.4</ele>
        <time>2026-07-08T09:22:37Z</time>
      </trkpt>
      <trkpt lat="43.00077" lon="0.31337">
        <ele>1166.4</ele>
        <time>2026-07-08T09:22:38Z</time>
      </trkpt>
      <trkpt lat="43.00077" lon="0.31337">
        <ele>1166.4</ele>
        <time>2026-07-08T09:22:39Z</time>
      </trkpt>
      <trkpt lat="43.00077" lon="0.31337">
        <ele>1166.4</ele>
        <time>2026-07-08T09:22:40Z</time>
      </trkpt>
      <trkpt lat="43.00077" lon="0.31337">
        <ele>1166.4</ele>
        <time>2026-07-08T09:22:41Z</time>
      </trkpt>
      <trkpt lat="43.00077" lon="0.31337">
        <ele>1166.4</ele>
        <time>2026-07-08T09:22:42Z</time>
      </trkpt>
      <trkpt lat="43.00077" lon="0.31337">
        <ele>1166.4</ele>
        <time>2026-07-08T09:22:43Z</time>
      </trkpt>
      <trkpt lat="43.00077" lon="0.31337">
        <ele>1166.4</ele>
        <time>2026-07-08T09:22:44Z</time>
      </trkpt>
      <trkpt lat="43.00077" lon="0.31337">
        <ele>1166.4</ele>
        <time>2026-07-08T09:22:45Z</time>
      </trkpt>
      <trkpt lat="43.00077" lon="0.31337">
        <ele>1166.4</ele>
        <time>2026-07-08T09:22:46Z</time>
      </trkpt>
      <trkpt lat="43.00077" lon="0.31337">
        <ele>1166.4</ele>
        <time>2026-07-08T09:22:47Z</time>
      </trkpt>
      <trkpt lat="43.00077" lon="0.31337">
        <ele>1166.4</ele>
        <time>2026-07-08T09:22:48Z</time>
      </trkpt>
      <trkpt lat="43.00077" lon="0.31337">
        <ele>1166.4</ele>
        <time>2026-07-08T09:22:49Z</time>
      </trkpt>
      <trkpt lat="43.00077" lon="0.31337">
        <ele>1166.4</ele>
        <time>2026-07-08T09:22:50Z</time>
      </trkpt>
      <trkpt lat="43.00077" lon="0.31337">
        <ele>1166.4</ele>
        <time>2026-07-08T09:22:51Z</time>
      </trkpt>
      <trkpt lat="43.00077" lon="0.31337">
        <ele>1166.4</ele>
        <time>2026-07-08T09:22:52Z</time>
      </trkpt>
      <trkpt lat="43.00077" lon="0.31337">
        <ele>1166.4</ele>
        <time>2026-07-08T09:22:53Z</time>
      </trkpt>
      <trkpt lat="43.00077" lon="0.31337">
        <ele>1166.4</ele>
        <time>2026-07-08T09:22:54Z</time>
      </trkpt>
      <trkpt lat="43.00077" lon="0.31337">
        <ele>1166.4</ele>
        <time>2026-07-08T09:22:55Z</time>
      </trkpt>
      <trkpt lat="43.00077" lon="0.31337">
        <ele>1166.4</ele>
        <time>2026-07-08T09:22:56Z</time>
      </trkpt>
      <trkpt lat="43.00077" lon="0.31337">
        <ele>1166.4</ele>
        <time>2026-07-08T09:22:57Z</time>
      </trkpt>
      <trkpt lat="43.00077" lon="0.31337">
        <ele>1166.4</ele>
        <time>2026-07-08T09:22:58Z</time>
      </trkpt>
      <trkpt lat="43.00077" lon="0.31337">
        <ele>1166.4</ele>
        <time>2026-07-08T09:22:59Z</time>
      </trkpt>
      <trkpt lat="43.00077" lon="0.31337">
        <ele>1166.4</ele>
        <time>2026-07-08T09:23:00Z</time>
      </trkpt>
      <trkpt lat="43.00077" lon="0.31337">
        <ele>1166.4</ele>
        <time>2026-07-08T09:23:01Z</time>
      </trkpt>
      <trkpt lat="43.00077" lon="0.31337">
        <ele>1165.4</ele>
        <time>2026-07-08T09:23:02Z</time>
      </trkpt>
      <trkpt lat="43.00078" lon="0.31337">
        <ele>1165.4</ele>
        <time>2026-07-08T09:23:03Z</time>
      </trkpt>
      <trkpt lat="43.00079" lon="0.31338">
        <ele>1165.4</ele>
        <time>2026-07-08T09:23:04Z</time>
      </trkpt>
      <trkpt lat="43.00079" lon="0.31338">
        <ele>1165.4</ele>
        <time>2026-07-08T09:23:04Z</time>
      </trkpt>
      <trkpt lat="43.0008" lon="0.31338">
        <ele>1165.4</ele>
        <time>2026-07-08T09:23:05Z</time>
      </trkpt>
      <trkpt lat="43.0008" lon="0.31338">
        <ele>1165.4</ele>
        <time>2026-07-08T09:23:06Z</time>
      </trkpt>
      <trkpt lat="43.0008" lon="0.31338">
        <ele>1165.4</ele>
        <time>2026-07-08T09:23:06Z</time>
      </trkpt>
      <trkpt lat="43.0008" lon="0.31338">
        <ele>1165.4</ele>
        <time>2026-07-08T09:23:07Z</time>
      </trkpt>
      <trkpt lat="43.00081" lon="0.31339">
        <ele>1165.4</ele>
        <time>2026-07-08T09:23:07Z</time>
      </trkpt>
      <trkpt lat="43.00081" lon="0.31339">
        <ele>1165.4</ele>
        <time>2026-07-08T09:23:08Z</time>
      </trkpt>
      <trkpt lat="43.00081" lon="0.31339">
        <ele>1165.4</ele>
        <time>2026-07-08T09:23:09Z</time>
      </trkpt>
      <trkpt lat="43.00082" lon="0.31339">
        <ele>1165.4</ele>
        <time>2026-07-08T09:23:09Z</time>
      </trkpt>
      <trkpt lat="43.00082" lon="0.31339">
        <ele>1165.4</ele>
        <time>2026-07-08T09:23:10Z</time>
      </trkpt>
      <trkpt lat="43.00083" lon="0.3134">
        <ele>1165.4</ele>
        <time>2026-07-08T09:23:11Z</time>
      </trkpt>
      <trkpt lat="43.00083" lon="0.3134">
        <ele>1165.4</ele>
        <time>2026-07-08T09:23:11Z</time>
      </trkpt>
      <trkpt lat="43.00084" lon="0.3134">
        <ele>1165.4</ele>
        <time>2026-07-08T09:23:12Z</time>
      </trkpt>
      <trkpt lat="43.00085" lon="0.3134">
        <ele>1165.4</ele>
        <time>2026-07-08T09:23:12Z</time>
      </trkpt>
      <trkpt lat="43.00086" lon="0.3134">
        <ele>1165.4</ele>
        <time>2026-07-08T09:23:13Z</time>
      </trkpt>
      <trkpt lat="43.00087" lon="0.31341">
        <ele>1165.4</ele>
        <time>2026-07-08T09:23:14Z</time>
      </trkpt>
      <trkpt lat="43.00089" lon="0.31342">
        <ele>1165.4</ele>
        <time>2026-07-08T09:23:15Z</time>
      </trkpt>
      <trkpt lat="43.0009" lon="0.31342">
        <ele>1165.4</ele>
        <time>2026-07-08T09:23:15Z</time>
      </trkpt>
      <trkpt lat="43.0009" lon="0.31343">
        <ele>1165.4</ele>
        <time>2026-07-08T09:23:16Z</time>
      </trkpt>
      <trkpt lat="43.00091" lon="0.31343">
        <ele>1165.4</ele>
        <time>2026-07-08T09:23:17Z</time>
      </trkpt>
      <trkpt lat="43.00092" lon="0.31344">
        <ele>1166.4</ele>
        <time>2026-07-08T09:23:17Z</time>
      </trkpt>
      <trkpt lat="43.00092" lon="0.31345">
        <ele>1166.4</ele>
        <time>2026-07-08T09:23:18Z</time>
      </trkpt>
      <trkpt lat="43.00093" lon="0.31345">
        <ele>1165.4</ele>
        <time>2026-07-08T09:23:18Z</time>
      </trkpt>
      <trkpt lat="43.00093" lon="0.31346">
        <ele>1165.4</ele>
        <time>2026-07-08T09:23:19Z</time>
      </trkpt>
      <trkpt lat="43.00093" lon="0.31346">
        <ele>1165.4</ele>
        <time>2026-07-08T09:23:20Z</time>
      </trkpt>
      <trkpt lat="43.00094" lon="0.31347">
        <ele>1164.4</ele>
        <time>2026-07-08T09:23:21Z</time>
      </trkpt>
      <trkpt lat="43.00095" lon="0.31347">
        <ele>1163.4</ele>
        <time>2026-07-08T09:23:21Z</time>
      </trkpt>
      <trkpt lat="43.00096" lon="0.31348">
        <ele>1163.4</ele>
        <time>2026-07-08T09:23:22Z</time>
      </trkpt>
      <trkpt lat="43.00096" lon="0.31348">
        <ele>1164.4</ele>
        <time>2026-07-08T09:23:22Z</time>
      </trkpt>
      <trkpt lat="43.00097" lon="0.31348">
        <ele>1164.4</ele>
        <time>2026-07-08T09:23:23Z</time>
      </trkpt>
      <trkpt lat="43.00098" lon="0.31349">
        <ele>1164.4</ele>
        <time>2026-07-08T09:23:24Z</time>
      </trkpt>
      <trkpt lat="43.00098" lon="0.31349">
        <ele>1163.4</ele>
        <time>2026-07-08T09:23:24Z</time>
      </trkpt>
      <trkpt lat="43.00099" lon="0.3135">
        <ele>1163.4</ele>
        <time>2026-07-08T09:23:25Z</time>
      </trkpt>
      <trkpt lat="43.00099" lon="0.3135">
        <ele>1162.4</ele>
        <time>2026-07-08T09:23:25Z</time>
      </trkpt>
      <trkpt lat="43.001" lon="0.3135">
        <ele>1162.4</ele>
        <time>2026-07-08T09:23:26Z</time>
      </trkpt>
      <trkpt lat="43.001" lon="0.3135">
        <ele>1161.4</ele>
        <time>2026-07-08T09:23:26Z</time>
      </trkpt>
      <trkpt lat="43.00101" lon="0.31351">
        <ele>1161.4</ele>
        <time>2026-07-08T09:23:27Z</time>
      </trkpt>
      <trkpt lat="43.00102" lon="0.31351">
        <ele>1160.4</ele>
        <time>2026-07-08T09:23:28Z</time>
      </trkpt>
      <trkpt lat="43.00102" lon="0.31351">
        <ele>1160.4</ele>
        <time>2026-07-08T09:23:28Z</time>
      </trkpt>
      <trkpt lat="43.00103" lon="0.31351">
        <ele>1160.4</ele>
        <time>2026-07-08T09:23:29Z</time>
      </trkpt>
      <trkpt lat="43.00103" lon="0.31351">
        <ele>1161.4</ele>
        <time>2026-07-08T09:23:29Z</time>
      </trkpt>
      <trkpt lat="43.00104" lon="0.31352">
        <ele>1161.4</ele>
        <time>2026-07-08T09:23:30Z</time>
      </trkpt>
      <trkpt lat="43.00104" lon="0.31352">
        <ele>1160.4</ele>
        <time>2026-07-08T09:23:31Z</time>
      </trkpt>
      <trkpt lat="43.00104" lon="0.31353">
        <ele>1160.4</ele>
        <time>2026-07-08T09:23:31Z</time>
      </trkpt>
      <trkpt lat="43.00105" lon="0.31354">
        <ele>1160.4</ele>
        <time>2026-07-08T09:23:32Z</time>
      </trkpt>
      <trkpt lat="43.00105" lon="0.31354">
        <ele>1160.4</ele>
        <time>2026-07-08T09:23:32Z</time>
      </trkpt>
      <trkpt lat="43.00105" lon="0.31355">
        <ele>1160.4</ele>
        <time>2026-07-08T09:23:33Z</time>
      </trkpt>
      <trkpt lat="43.00106" lon="0.31355">
        <ele>1160.4</ele>
        <time>2026-07-08T09:23:33Z</time>
      </trkpt>
      <trkpt lat="43.00106" lon="0.31356">
        <ele>1160.4</ele>
        <time>2026-07-08T09:23:34Z</time>
      </trkpt>
      <trkpt lat="43.00107" lon="0.31356">
        <ele>1160.4</ele>
        <time>2026-07-08T09:23:34Z</time>
      </trkpt>
      <trkpt lat="43.00107" lon="0.31357">
        <ele>1159.4</ele>
        <time>2026-07-08T09:23:35Z</time>
      </trkpt>
      <trkpt lat="43.00107" lon="0.31358">
        <ele>1159.4</ele>
        <time>2026-07-08T09:23:36Z</time>
      </trkpt>
      <trkpt lat="43.00107" lon="0.31359">
        <ele>1159.4</ele>
        <time>2026-07-08T09:23:36Z</time>
      </trkpt>
      <trkpt lat="43.00107" lon="0.31359">
        <ele>1159.4</ele>
        <time>2026-07-08T09:23:37Z</time>
      </trkpt>
      <trkpt lat="43.00108" lon="0.3136">
        <ele>1159.4</ele>
        <time>2026-07-08T09:23:37Z</time>
      </trkpt>
      <trkpt lat="43.00108" lon="0.31361">
        <ele>1158.4</ele>
        <time>2026-07-08T09:23:38Z</time>
      </trkpt>
      <trkpt lat="43.00108" lon="0.31362">
        <ele>1158.4</ele>
        <time>2026-07-08T09:23:39Z</time>
      </trkpt>
      <trkpt lat="43.00108" lon="0.31363">
        <ele>1159.4</ele>
        <time>2026-07-08T09:23:40Z</time>
      </trkpt>
      <trkpt lat="43.00108" lon="0.31364">
        <ele>1159.4</ele>
        <time>2026-07-08T09:23:40Z</time>
      </trkpt>
      <trkpt lat="43.00108" lon="0.31364">
        <ele>1159.4</ele>
        <time>2026-07-08T09:23:41Z</time>
      </trkpt>
      <trkpt lat="43.00109" lon="0.31365">
        <ele>1160.4</ele>
        <time>2026-07-08T09:23:42Z</time>
      </trkpt>
      <trkpt lat="43.00109" lon="0.31367">
        <ele>1159.4</ele>
        <time>2026-07-08T09:23:43Z</time>
      </trkpt>
      <trkpt lat="43.00109" lon="0.31368">
        <ele>1159.4</ele>
        <time>2026-07-08T09:23:44Z</time>
      </trkpt>
      <trkpt lat="43.0011" lon="0.31369">
        <ele>1159.4</ele>
        <time>2026-07-08T09:23:45Z</time>
      </trkpt>
      <trkpt lat="43.00109" lon="0.3137">
        <ele>1159.4</ele>
        <time>2026-07-08T09:23:46Z</time>
      </trkpt>
      <trkpt lat="43.00109" lon="0.31371">
        <ele>1159.4</ele>
        <time>2026-07-08T09:23:46Z</time>
      </trkpt>
      <trkpt lat="43.00109" lon="0.31372">
        <ele>1159.4</ele>
        <time>2026-07-08T09:23:47Z</time>
      </trkpt>
      <trkpt lat="43.00109" lon="0.31373">
        <ele>1159.4</ele>
        <time>2026-07-08T09:23:48Z</time>
      </trkpt>
      <trkpt lat="43.00108" lon="0.31374">
        <ele>1160.4</ele>
        <time>2026-07-08T09:23:48Z</time>
      </trkpt>
      <trkpt lat="43.00108" lon="0.31375">
        <ele>1160.4</ele>
        <time>2026-07-08T09:23:49Z</time>
      </trkpt>
      <trkpt lat="43.00108" lon="0.31376">
        <ele>1160.4</ele>
        <time>2026-07-08T09:23:49Z</time>
      </trkpt>
      <trkpt lat="43.00108" lon="0.31377">
        <ele>1160.4</ele>
        <time>2026-07-08T09:23:50Z</time>
      </trkpt>
      <trkpt lat="43.00108" lon="0.31378">
        <ele>1160.4</ele>
        <time>2026-07-08T09:23:51Z</time>
      </trkpt>
      <trkpt lat="43.00108" lon="0.31378">
        <ele>1160.4</ele>
        <time>2026-07-08T09:23:51Z</time>
      </trkpt>
      <trkpt lat="43.00108" lon="0.3138">
        <ele>1160.4</ele>
        <time>2026-07-08T09:23:52Z</time>
      </trkpt>
      <trkpt lat="43.00108" lon="0.3138">
        <ele>1161.4</ele>
        <time>2026-07-08T09:23:52Z</time>
      </trkpt>
      <trkpt lat="43.00108" lon="0.31382">
        <ele>1161.4</ele>
        <time>2026-07-08T09:23:53Z</time>
      </trkpt>
      <trkpt lat="43.00108" lon="0.31383">
        <ele>1161.4</ele>
        <time>2026-07-08T09:23:53Z</time>
      </trkpt>
      <trkpt lat="43.00108" lon="0.31384">
        <ele>1162.4</ele>
        <time>2026-07-08T09:23:54Z</time>
      </trkpt>
      <trkpt lat="43.00108" lon="0.31385">
        <ele>1162.4</ele>
        <time>2026-07-08T09:23:55Z</time>
      </trkpt>
      <trkpt lat="43.00108" lon="0.31386">
        <ele>1162.4</ele>
        <time>2026-07-08T09:23:56Z</time>
      </trkpt>
      <trkpt lat="43.00108" lon="0.31387">
        <ele>1162.4</ele>
        <time>2026-07-08T09:23:56Z</time>
      </trkpt>
      <trkpt lat="43.00108" lon="0.31388">
        <ele>1162.4</ele>
        <time>2026-07-08T09:23:56Z</time>
      </trkpt>
      <trkpt lat="43.00108" lon="0.31389">
        <ele>1162.4</ele>
        <time>2026-07-08T09:23:57Z</time>
      </trkpt>
      <trkpt lat="43.00108" lon="0.3139">
        <ele>1162.4</ele>
        <time>2026-07-08T09:23:58Z</time>
      </trkpt>
      <trkpt lat="43.00108" lon="0.3139">
        <ele>1163.4</ele>
        <time>2026-07-08T09:23:58Z</time>
      </trkpt>
      <trkpt lat="43.00108" lon="0.31391">
        <ele>1163.4</ele>
        <time>2026-07-08T09:23:59Z</time>
      </trkpt>
      <trkpt lat="43.00108" lon="0.31392">
        <ele>1163.4</ele>
        <time>2026-07-08T09:23:59Z</time>
      </trkpt>
      <trkpt lat="43.00108" lon="0.31393">
        <ele>1163.4</ele>
        <time>2026-07-08T09:24:00Z</time>
      </trkpt>
      <trkpt lat="43.00108" lon="0.31393">
        <ele>1163.4</ele>
        <time>2026-07-08T09:24:01Z</time>
      </trkpt>
      <trkpt lat="43.00108" lon="0.31394">
        <ele>1162.4</ele>
        <time>2026-07-08T09:24:01Z</time>
      </trkpt>
      <trkpt lat="43.00108" lon="0.31395">
        <ele>1163.4</ele>
        <time>2026-07-08T09:24:02Z</time>
      </trkpt>
      <trkpt lat="43.00107" lon="0.31396">
        <ele>1163.4</ele>
        <time>2026-07-08T09:24:03Z</time>
      </trkpt>
      <trkpt lat="43.00107" lon="0.31397">
        <ele>1163.4</ele>
        <time>2026-07-08T09:24:03Z</time>
      </trkpt>
      <trkpt lat="43.00107" lon="0.31397">
        <ele>1163.4</ele>
        <time>2026-07-08T09:24:04Z</time>
      </trkpt>
      <trkpt lat="43.00107" lon="0.31398">
        <ele>1163.4</ele>
        <time>2026-07-08T09:24:04Z</time>
      </trkpt>
      <trkpt lat="43.00107" lon="0.31399">
        <ele>1163.4</ele>
        <time>2026-07-08T09:24:05Z</time>
      </trkpt>
      <trkpt lat="43.00106" lon="0.314">
        <ele>1163.4</ele>
        <time>2026-07-08T09:24:05Z</time>
      </trkpt>
      <trkpt lat="43.00106" lon="0.314">
        <ele>1164.4</ele>
        <time>2026-07-08T09:24:06Z</time>
      </trkpt>
      <trkpt lat="43.00106" lon="0.31402">
        <ele>1164.4</ele>
        <time>2026-07-08T09:24:07Z</time>
      </trkpt>
      <trkpt lat="43.00106" lon="0.31402">
        <ele>1164.4</ele>
        <time>2026-07-08T09:24:07Z</time>
      </trkpt>
      <trkpt lat="43.00106" lon="0.31404">
        <ele>1164.4</ele>
        <time>2026-07-08T09:24:08Z</time>
      </trkpt>
      <trkpt lat="43.00106" lon="0.31405">
        <ele>1164.4</ele>
        <time>2026-07-08T09:24:09Z</time>
      </trkpt>
      <trkpt lat="43.00106" lon="0.31407">
        <ele>1164.4</ele>
        <time>2026-07-08T09:24:10Z</time>
      </trkpt>
      <trkpt lat="43.00106" lon="0.31408">
        <ele>1164.4</ele>
        <time>2026-07-08T09:24:11Z</time>
      </trkpt>
      <trkpt lat="43.00106" lon="0.31409">
        <ele>1163.4</ele>
        <time>2026-07-08T09:24:11Z</time>
      </trkpt>
      <trkpt lat="43.00106" lon="0.3141">
        <ele>1163.4</ele>
        <time>2026-07-08T09:24:12Z</time>
      </trkpt>
      <trkpt lat="43.00106" lon="0.31411">
        <ele>1163.4</ele>
        <time>2026-07-08T09:24:12Z</time>
      </trkpt>
      <trkpt lat="43.00106" lon="0.31412">
        <ele>1163.4</ele>
        <time>2026-07-08T09:24:13Z</time>
      </trkpt>
      <trkpt lat="43.00106" lon="0.31413">
        <ele>1163.4</ele>
        <time>2026-07-08T09:24:14Z</time>
      </trkpt>
      <trkpt lat="43.00106" lon="0.31414">
        <ele>1163.4</ele>
        <time>2026-07-08T09:24:14Z</time>
      </trkpt>
      <trkpt lat="43.00106" lon="0.31414">
        <ele>1163.4</ele>
        <time>2026-07-08T09:24:15Z</time>
      </trkpt>
      <trkpt lat="43.00106" lon="0.31415">
        <ele>1163.4</ele>
        <time>2026-07-08T09:24:15Z</time>
      </trkpt>
      <trkpt lat="43.00106" lon="0.31416">
        <ele>1163.4</ele>
        <time>2026-07-08T09:24:16Z</time>
      </trkpt>
      <trkpt lat="43.00106" lon="0.31417">
        <ele>1163.4</ele>
        <time>2026-07-08T09:24:16Z</time>
      </trkpt>
      <trkpt lat="43.00106" lon="0.31418">
        <ele>1163.4</ele>
        <time>2026-07-08T09:24:17Z</time>
      </trkpt>
      <trkpt lat="43.00106" lon="0.31419">
        <ele>1163.4</ele>
        <time>2026-07-08T09:24:17Z</time>
      </trkpt>
      <trkpt lat="43.00106" lon="0.3142">
        <ele>1163.4</ele>
        <time>2026-07-08T09:24:18Z</time>
      </trkpt>
      <trkpt lat="43.00106" lon="0.31421">
        <ele>1163.4</ele>
        <time>2026-07-08T09:24:18Z</time>
      </trkpt>
      <trkpt lat="43.00107" lon="0.31423">
        <ele>1163.4</ele>
        <time>2026-07-08T09:24:19Z</time>
      </trkpt>
      <trkpt lat="43.00107" lon="0.31424">
        <ele>1163.4</ele>
        <time>2026-07-08T09:24:19Z</time>
      </trkpt>
      <trkpt lat="43.00108" lon="0.31425">
        <ele>1162.4</ele>
        <time>2026-07-08T09:24:20Z</time>
      </trkpt>
      <trkpt lat="43.00108" lon="0.31426">
        <ele>1162.4</ele>
        <time>2026-07-08T09:24:21Z</time>
      </trkpt>
      <trkpt lat="43.00109" lon="0.31427">
        <ele>1163.4</ele>
        <time>2026-07-08T09:24:21Z</time>
      </trkpt>
      <trkpt lat="43.00109" lon="0.31428">
        <ele>1163.4</ele>
        <time>2026-07-08T09:24:22Z</time>
      </trkpt>
      <trkpt lat="43.00109" lon="0.31429">
        <ele>1163.4</ele>
        <time>2026-07-08T09:24:22Z</time>
      </trkpt>
      <trkpt lat="43.00109" lon="0.31429">
        <ele>1162.4</ele>
        <time>2026-07-08T09:24:23Z</time>
      </trkpt>
      <trkpt lat="43.00109" lon="0.3143">
        <ele>1162.4</ele>
        <time>2026-07-08T09:24:24Z</time>
      </trkpt>
      <trkpt lat="43.00109" lon="0.31431">
        <ele>1163.4</ele>
        <time>2026-07-08T09:24:24Z</time>
      </trkpt>
      <trkpt lat="43.00109" lon="0.31432">
        <ele>1163.4</ele>
        <time>2026-07-08T09:24:25Z</time>
      </trkpt>
      <trkpt lat="43.00109" lon="0.31434">
        <ele>1163.4</ele>
        <time>2026-07-08T09:24:26Z</time>
      </trkpt>
      <trkpt lat="43.0011" lon="0.31435">
        <ele>1162.4</ele>
        <time>2026-07-08T09:24:26Z</time>
      </trkpt>
      <trkpt lat="43.0011" lon="0.31435">
        <ele>1162.4</ele>
        <time>2026-07-08T09:24:27Z</time>
      </trkpt>
      <trkpt lat="43.00111" lon="0.31437">
        <ele>1162.4</ele>
        <time>2026-07-08T09:24:28Z</time>
      </trkpt>
      <trkpt lat="43.00111" lon="0.31438">
        <ele>1162.4</ele>
        <time>2026-07-08T09:24:28Z</time>
      </trkpt>
      <trkpt lat="43.00111" lon="0.31439">
        <ele>1162.4</ele>
        <time>2026-07-08T09:24:29Z</time>
      </trkpt>
      <trkpt lat="43.00111" lon="0.31439">
        <ele>1162.4</ele>
        <time>2026-07-08T09:24:30Z</time>
      </trkpt>
      <trkpt lat="43.00111" lon="0.31441">
        <ele>1162.4</ele>
        <time>2026-07-08T09:24:31Z</time>
      </trkpt>
      <trkpt lat="43.00111" lon="0.31442">
        <ele>1162.4</ele>
        <time>2026-07-08T09:24:31Z</time>
      </trkpt>
      <trkpt lat="43.00111" lon="0.31443">
        <ele>1162.4</ele>
        <time>2026-07-08T09:24:32Z</time>
      </trkpt>
      <trkpt lat="43.00111" lon="0.31445">
        <ele>1162.4</ele>
        <time>2026-07-08T09:24:33Z</time>
      </trkpt>
      <trkpt lat="43.00111" lon="0.31446">
        <ele>1162.4</ele>
        <time>2026-07-08T09:24:33Z</time>
      </trkpt>
      <trkpt lat="43.00111" lon="0.31447">
        <ele>1162.4</ele>
        <time>2026-07-08T09:24:34Z</time>
      </trkpt>
      <trkpt lat="43.00111" lon="0.31448">
        <ele>1162.4</ele>
        <time>2026-07-08T09:24:34Z</time>
      </trkpt>
      <trkpt lat="43.00111" lon="0.31449">
        <ele>1162.4</ele>
        <time>2026-07-08T09:24:35Z</time>
      </trkpt>
      <trkpt lat="43.00112" lon="0.3145">
        <ele>1163.4</ele>
        <time>2026-07-08T09:24:35Z</time>
      </trkpt>
      <trkpt lat="43.00112" lon="0.31451">
        <ele>1163.4</ele>
        <time>2026-07-08T09:24:36Z</time>
      </trkpt>
      <trkpt lat="43.00112" lon="0.31452">
        <ele>1163.4</ele>
        <time>2026-07-08T09:24:37Z</time>
      </trkpt>
      <trkpt lat="43.00112" lon="0.31453">
        <ele>1163.4</ele>
        <time>2026-07-08T09:24:37Z</time>
      </trkpt>
      <trkpt lat="43.00112" lon="0.31454">
        <ele>1163.4</ele>
        <time>2026-07-08T09:24:38Z</time>
      </trkpt>
      <trkpt lat="43.00112" lon="0.31455">
        <ele>1163.4</ele>
        <time>2026-07-08T09:24:38Z</time>
      </trkpt>
      <trkpt lat="43.00112" lon="0.31456">
        <ele>1163.4</ele>
        <time>2026-07-08T09:24:39Z</time>
      </trkpt>
      <trkpt lat="43.00111" lon="0.31457">
        <ele>1163.4</ele>
        <time>2026-07-08T09:24:40Z</time>
      </trkpt>
      <trkpt lat="43.00111" lon="0.31459">
        <ele>1163.4</ele>
        <time>2026-07-08T09:24:41Z</time>
      </trkpt>
      <trkpt lat="43.00111" lon="0.3146">
        <ele>1164.4</ele>
        <time>2026-07-08T09:24:41Z</time>
      </trkpt>
      <trkpt lat="43.00111" lon="0.31461">
        <ele>1164.4</ele>
        <time>2026-07-08T09:24:42Z</time>
      </trkpt>
      <trkpt lat="43.00111" lon="0.31462">
        <ele>1164.4</ele>
        <time>2026-07-08T09:24:42Z</time>
      </trkpt>
      <trkpt lat="43.00111" lon="0.31463">
        <ele>1164.4</ele>
        <time>2026-07-08T09:24:43Z</time>
      </trkpt>
      <trkpt lat="43.00112" lon="0.31463">
        <ele>1163.4</ele>
        <time>2026-07-08T09:24:43Z</time>
      </trkpt>
      <trkpt lat="43.00112" lon="0.31464">
        <ele>1163.4</ele>
        <time>2026-07-08T09:24:44Z</time>
      </trkpt>
      <trkpt lat="43.00113" lon="0.31465">
        <ele>1163.4</ele>
        <time>2026-07-08T09:24:45Z</time>
      </trkpt>
      <trkpt lat="43.00113" lon="0.31466">
        <ele>1163.4</ele>
        <time>2026-07-08T09:24:45Z</time>
      </trkpt>
      <trkpt lat="43.00113" lon="0.31467">
        <ele>1163.4</ele>
        <time>2026-07-08T09:24:46Z</time>
      </trkpt>
      <trkpt lat="43.00114" lon="0.31468">
        <ele>1163.4</ele>
        <time>2026-07-08T09:24:46Z</time>
      </trkpt>
      <trkpt lat="43.00114" lon="0.31469">
        <ele>1163.4</ele>
        <time>2026-07-08T09:24:47Z</time>
      </trkpt>
      <trkpt lat="43.00113" lon="0.3147">
        <ele>1163.4</ele>
        <time>2026-07-08T09:24:47Z</time>
      </trkpt>
      <trkpt lat="43.00113" lon="0.31471">
        <ele>1163.4</ele>
        <time>2026-07-08T09:24:48Z</time>
      </trkpt>
      <trkpt lat="43.00113" lon="0.31472">
        <ele>1163.4</ele>
        <time>2026-07-08T09:24:49Z</time>
      </trkpt>
      <trkpt lat="43.00113" lon="0.31473">
        <ele>1163.4</ele>
        <time>2026-07-08T09:24:49Z</time>
      </trkpt>
      <trkpt lat="43.00113" lon="0.31474">
        <ele>1163.4</ele>
        <time>2026-07-08T09:24:50Z</time>
      </trkpt>
      <trkpt lat="43.00113" lon="0.31475">
        <ele>1163.4</ele>
        <time>2026-07-08T09:24:50Z</time>
      </trkpt>
      <trkpt lat="43.00113" lon="0.31476">
        <ele>1163.4</ele>
        <time>2026-07-08T09:24:51Z</time>
      </trkpt>
      <trkpt lat="43.00114" lon="0.31477">
        <ele>1163.4</ele>
        <time>2026-07-08T09:24:52Z</time>
      </trkpt>
      <trkpt lat="43.00114" lon="0.31478">
        <ele>1163.4</ele>
        <time>2026-07-08T09:24:53Z</time>
      </trkpt>
      <trkpt lat="43.00114" lon="0.31479">
        <ele>1163.4</ele>
        <time>2026-07-08T09:24:53Z</time>
      </trkpt>
      <trkpt lat="43.00114" lon="0.3148">
        <ele>1163.4</ele>
        <time>2026-07-08T09:24:54Z</time>
      </trkpt>
      <trkpt lat="43.00115" lon="0.3148">
        <ele>1163.4</ele>
        <time>2026-07-08T09:24:55Z</time>
      </trkpt>
      <trkpt lat="43.00115" lon="0.31481">
        <ele>1163.4</ele>
        <time>2026-07-08T09:24:55Z</time>
      </trkpt>
      <trkpt lat="43.00115" lon="0.31482">
        <ele>1163.4</ele>
        <time>2026-07-08T09:24:56Z</time>
      </trkpt>
      <trkpt lat="43.00116" lon="0.31482">
        <ele>1163.4</ele>
        <time>2026-07-08T09:24:57Z</time>
      </trkpt>
      <trkpt lat="43.00116" lon="0.31483">
        <ele>1163.4</ele>
        <time>2026-07-08T09:24:57Z</time>
      </trkpt>
      <trkpt lat="43.00116" lon="0.31483">
        <ele>1163.4</ele>
        <time>2026-07-08T09:24:58Z</time>
      </trkpt>
      <trkpt lat="43.00116" lon="0.31484">
        <ele>1163.4</ele>
        <time>2026-07-08T09:24:59Z</time>
      </trkpt>
      <trkpt lat="43.00117" lon="0.31485">
        <ele>1163.4</ele>
        <time>2026-07-08T09:25:00Z</time>
      </trkpt>
      <trkpt lat="43.00117" lon="0.31486">
        <ele>1163.4</ele>
        <time>2026-07-08T09:25:00Z</time>
      </trkpt>
      <trkpt lat="43.00117" lon="0.31486">
        <ele>1164.4</ele>
        <time>2026-07-08T09:25:01Z</time>
      </trkpt>
      <trkpt lat="43.00118" lon="0.31487">
        <ele>1164.4</ele>
        <time>2026-07-08T09:25:02Z</time>
      </trkpt>
      <trkpt lat="43.00118" lon="0.31488">
        <ele>1164.4</ele>
        <time>2026-07-08T09:25:02Z</time>
      </trkpt>
      <trkpt lat="43.00118" lon="0.31488">
        <ele>1163.4</ele>
        <time>2026-07-08T09:25:03Z</time>
      </trkpt>
      <trkpt lat="43.00119" lon="0.31489">
        <ele>1163.4</ele>
        <time>2026-07-08T09:25:04Z</time>
      </trkpt>
      <trkpt lat="43.00119" lon="0.31489">
        <ele>1163.4</ele>
        <time>2026-07-08T09:25:05Z</time>
      </trkpt>
      <trkpt lat="43.0012" lon="0.31489">
        <ele>1163.4</ele>
        <time>2026-07-08T09:25:05Z</time>
      </trkpt>
      <trkpt lat="43.0012" lon="0.3149">
        <ele>1162.4</ele>
        <time>2026-07-08T09:25:06Z</time>
      </trkpt>
      <trkpt lat="43.00121" lon="0.31491">
        <ele>1162.4</ele>
        <time>2026-07-08T09:25:07Z</time>
      </trkpt>
      <trkpt lat="43.00121" lon="0.31492">
        <ele>1162.4</ele>
        <time>2026-07-08T09:25:07Z</time>
      </trkpt>
      <trkpt lat="43.00121" lon="0.31492">
        <ele>1162.4</ele>
        <time>2026-07-08T09:25:08Z</time>
      </trkpt>
      <trkpt lat="43.00121" lon="0.31493">
        <ele>1162.4</ele>
        <time>2026-07-08T09:25:09Z</time>
      </trkpt>
      <trkpt lat="43.00122" lon="0.31494">
        <ele>1162.4</ele>
        <time>2026-07-08T09:25:09Z</time>
      </trkpt>
      <trkpt lat="43.00122" lon="0.31495">
        <ele>1162.4</ele>
        <time>2026-07-08T09:25:10Z</time>
      </trkpt>
      <trkpt lat="43.00122" lon="0.31496">
        <ele>1162.4</ele>
        <time>2026-07-08T09:25:11Z</time>
      </trkpt>
      <trkpt lat="43.00122" lon="0.31497">
        <ele>1162.4</ele>
        <time>2026-07-08T09:25:11Z</time>
      </trkpt>
      <trkpt lat="43.00122" lon="0.31498">
        <ele>1162.4</ele>
        <time>2026-07-08T09:25:12Z</time>
      </trkpt>
      <trkpt lat="43.00122" lon="0.31499">
        <ele>1162.4</ele>
        <time>2026-07-08T09:25:13Z</time>
      </trkpt>
      <trkpt lat="43.00121" lon="0.31499">
        <ele>1161.4</ele>
        <time>2026-07-08T09:25:13Z</time>
      </trkpt>
      <trkpt lat="43.00121" lon="0.31499">
        <ele>1161.4</ele>
        <time>2026-07-08T09:25:14Z</time>
      </trkpt>
      <trkpt lat="43.0012" lon="0.315">
        <ele>1161.4</ele>
        <time>2026-07-08T09:25:14Z</time>
      </trkpt>
      <trkpt lat="43.0012" lon="0.315">
        <ele>1161.4</ele>
        <time>2026-07-08T09:25:15Z</time>
      </trkpt>
      <trkpt lat="43.00119" lon="0.31501">
        <ele>1161.4</ele>
        <time>2026-07-08T09:25:15Z</time>
      </trkpt>
      <trkpt lat="43.00118" lon="0.31501">
        <ele>1162.4</ele>
        <time>2026-07-08T09:25:16Z</time>
      </trkpt>
      <trkpt lat="43.00118" lon="0.31502">
        <ele>1162.4</ele>
        <time>2026-07-08T09:25:17Z</time>
      </trkpt>
      <trkpt lat="43.00117" lon="0.31503">
        <ele>1162.4</ele>
        <time>2026-07-08T09:25:18Z</time>
      </trkpt>
      <trkpt lat="43.00117" lon="0.31504">
        <ele>1163.4</ele>
        <time>2026-07-08T09:25:18Z</time>
      </trkpt>
      <trkpt lat="43.00116" lon="0.31504">
        <ele>1163.4</ele>
        <time>2026-07-08T09:25:19Z</time>
      </trkpt>
      <trkpt lat="43.00116" lon="0.31505">
        <ele>1163.4</ele>
        <time>2026-07-08T09:25:19Z</time>
      </trkpt>
      <trkpt lat="43.00116" lon="0.31506">
        <ele>1162.4</ele>
        <time>2026-07-08T09:25:20Z</time>
      </trkpt>
      <trkpt lat="43.00116" lon="0.31507">
        <ele>1162.4</ele>
        <time>2026-07-08T09:25:21Z</time>
      </trkpt>
      <trkpt lat="43.00115" lon="0.31507">
        <ele>1162.4</ele>
        <time>2026-07-08T09:25:21Z</time>
      </trkpt>
      <trkpt lat="43.00115" lon="0.31508">
        <ele>1162.4</ele>
        <time>2026-07-08T09:25:22Z</time>
      </trkpt>
      <trkpt lat="43.00115" lon="0.31509">
        <ele>1162.4</ele>
        <time>2026-07-08T09:25:22Z</time>
      </trkpt>
      <trkpt lat="43.00115" lon="0.3151">
        <ele>1162.4</ele>
        <time>2026-07-08T09:25:23Z</time>
      </trkpt>
      <trkpt lat="43.00115" lon="0.31511">
        <ele>1162.4</ele>
        <time>2026-07-08T09:25:24Z</time>
      </trkpt>
      <trkpt lat="43.00115" lon="0.31512">
        <ele>1162.4</ele>
        <time>2026-07-08T09:25:24Z</time>
      </trkpt>
      <trkpt lat="43.00115" lon="0.31513">
        <ele>1162.4</ele>
        <time>2026-07-08T09:25:25Z</time>
      </trkpt>
      <trkpt lat="43.00115" lon="0.31513">
        <ele>1162.4</ele>
        <time>2026-07-08T09:25:26Z</time>
      </trkpt>
      <trkpt lat="43.00115" lon="0.31514">
        <ele>1162.4</ele>
        <time>2026-07-08T09:25:26Z</time>
      </trkpt>
      <trkpt lat="43.00115" lon="0.31514">
        <ele>1162.4</ele>
        <time>2026-07-08T09:25:27Z</time>
      </trkpt>
      <trkpt lat="43.00116" lon="0.31515">
        <ele>1162.4</ele>
        <time>2026-07-08T09:25:27Z</time>
      </trkpt>
      <trkpt lat="43.00115" lon="0.31515">
        <ele>1162.4</ele>
        <time>2026-07-08T09:25:28Z</time>
      </trkpt>
      <trkpt lat="43.00116" lon="0.31515">
        <ele>1162.4</ele>
        <time>2026-07-08T09:25:29Z</time>
      </trkpt>
      <trkpt lat="43.00116" lon="0.31516">
        <ele>1161.4</ele>
        <time>2026-07-08T09:25:29Z</time>
      </trkpt>
      <trkpt lat="43.00116" lon="0.31516">
        <ele>1161.4</ele>
        <time>2026-07-08T09:25:30Z</time>
      </trkpt>
      <trkpt lat="43.00115" lon="0.31517">
        <ele>1161.4</ele>
        <time>2026-07-08T09:25:31Z</time>
      </trkpt>
      <trkpt lat="43.00115" lon="0.31517">
        <ele>1161.4</ele>
        <time>2026-07-08T09:25:31Z</time>
      </trkpt>
      <trkpt lat="43.00115" lon="0.31518">
        <ele>1161.4</ele>
        <time>2026-07-08T09:25:32Z</time>
      </trkpt>
      <trkpt lat="43.00115" lon="0.31519">
        <ele>1161.4</ele>
        <time>2026-07-08T09:25:32Z</time>
      </trkpt>
      <trkpt lat="43.00115" lon="0.31519">
        <ele>1161.4</ele>
        <time>2026-07-08T09:25:33Z</time>
      </trkpt>
      <trkpt lat="43.00114" lon="0.3152">
        <ele>1161.4</ele>
        <time>2026-07-08T09:25:34Z</time>
      </trkpt>
      <trkpt lat="43.00114" lon="0.31522">
        <ele>1161.4</ele>
        <time>2026-07-08T09:25:35Z</time>
      </trkpt>
      <trkpt lat="43.00114" lon="0.31522">
        <ele>1161.4</ele>
        <time>2026-07-08T09:25:35Z</time>
      </trkpt>
      <trkpt lat="43.00114" lon="0.31523">
        <ele>1159.4</ele>
        <time>2026-07-08T09:25:36Z</time>
      </trkpt>
      <trkpt lat="43.00114" lon="0.31524">
        <ele>1159.4</ele>
        <time>2026-07-08T09:25:37Z</time>
      </trkpt>
      <trkpt lat="43.00114" lon="0.31525">
        <ele>1158.4</ele>
        <time>2026-07-08T09:25:38Z</time>
      </trkpt>
      <trkpt lat="43.00114" lon="0.31525">
        <ele>1158.4</ele>
        <time>2026-07-08T09:25:39Z</time>
      </trkpt>
      <trkpt lat="43.00114" lon="0.31527">
        <ele>1158.4</ele>
        <time>2026-07-08T09:25:40Z</time>
      </trkpt>
      <trkpt lat="43.00114" lon="0.31527">
        <ele>1158.4</ele>
        <time>2026-07-08T09:25:41Z</time>
      </trkpt>
      <trkpt lat="43.00115" lon="0.31528">
        <ele>1157.4</ele>
        <time>2026-07-08T09:25:41Z</time>
      </trkpt>
      <trkpt lat="43.00115" lon="0.31529">
        <ele>1158.4</ele>
        <time>2026-07-08T09:25:42Z</time>
      </trkpt>
      <trkpt lat="43.00114" lon="0.3153">
        <ele>1158.4</ele>
        <time>2026-07-08T09:25:43Z</time>
      </trkpt>
      <trkpt lat="43.00115" lon="0.3153">
        <ele>1157.4</ele>
        <time>2026-07-08T09:25:44Z</time>
      </trkpt>
      <trkpt lat="43.00115" lon="0.31531">
        <ele>1157.4</ele>
        <time>2026-07-08T09:25:44Z</time>
      </trkpt>
      <trkpt lat="43.00115" lon="0.31531">
        <ele>1157.4</ele>
        <time>2026-07-08T09:25:45Z</time>
      </trkpt>
      <trkpt lat="43.00115" lon="0.31532">
        <ele>1158.4</ele>
        <time>2026-07-08T09:25:45Z</time>
      </trkpt>
      <trkpt lat="43.00115" lon="0.31533">
        <ele>1157.4</ele>
        <time>2026-07-08T09:25:46Z</time>
      </trkpt>
      <trkpt lat="43.00115" lon="0.31533">
        <ele>1157.4</ele>
        <time>2026-07-08T09:25:47Z</time>
      </trkpt>
      <trkpt lat="43.00116" lon="0.31533">
        <ele>1157.4</ele>
        <time>2026-07-08T09:25:47Z</time>
      </trkpt>
      <trkpt lat="43.00115" lon="0.31534">
        <ele>1157.4</ele>
        <time>2026-07-08T09:25:48Z</time>
      </trkpt>
      <trkpt lat="43.00115" lon="0.31534">
        <ele>1157.4</ele>
        <time>2026-07-08T09:25:48Z</time>
      </trkpt>
      <trkpt lat="43.00115" lon="0.31535">
        <ele>1157.4</ele>
        <time>2026-07-08T09:25:49Z</time>
      </trkpt>
      <trkpt lat="43.00115" lon="0.31536">
        <ele>1156.4</ele>
        <time>2026-07-08T09:25:50Z</time>
      </trkpt>
      <trkpt lat="43.00115" lon="0.31536">
        <ele>1156.4</ele>
        <time>2026-07-08T09:25:50Z</time>
      </trkpt>
      <trkpt lat="43.00115" lon="0.31537">
        <ele>1156.4</ele>
        <time>2026-07-08T09:25:51Z</time>
      </trkpt>
      <trkpt lat="43.00115" lon="0.31537">
        <ele>1156.4</ele>
        <time>2026-07-08T09:25:51Z</time>
      </trkpt>
      <trkpt lat="43.00115" lon="0.31538">
        <ele>1156.4</ele>
        <time>2026-07-08T09:25:52Z</time>
      </trkpt>
      <trkpt lat="43.00115" lon="0.31539">
        <ele>1156.4</ele>
        <time>2026-07-08T09:25:53Z</time>
      </trkpt>
      <trkpt lat="43.00115" lon="0.3154">
        <ele>1156.4</ele>
        <time>2026-07-08T09:25:53Z</time>
      </trkpt>
      <trkpt lat="43.00114" lon="0.31541">
        <ele>1156.4</ele>
        <time>2026-07-08T09:25:54Z</time>
      </trkpt>
      <trkpt lat="43.00114" lon="0.31542">
        <ele>1156.4</ele>
        <time>2026-07-08T09:25:55Z</time>
      </trkpt>
      <trkpt lat="43.00114" lon="0.31542">
        <ele>1156.4</ele>
        <time>2026-07-08T09:25:56Z</time>
      </trkpt>
      <trkpt lat="43.00114" lon="0.31542">
        <ele>1156.4</ele>
        <time>2026-07-08T09:25:56Z</time>
      </trkpt>
      <trkpt lat="43.00114" lon="0.31543">
        <ele>1156.4</ele>
        <time>2026-07-08T09:25:57Z</time>
      </trkpt>
      <trkpt lat="43.00114" lon="0.31544">
        <ele>1155.4</ele>
        <time>2026-07-08T09:25:57Z</time>
      </trkpt>
      <trkpt lat="43.00113" lon="0.31545">
        <ele>1155.4</ele>
        <time>2026-07-08T09:25:58Z</time>
      </trkpt>
      <trkpt lat="43.00113" lon="0.31545">
        <ele>1155.4</ele>
        <time>2026-07-08T09:25:58Z</time>
      </trkpt>
      <trkpt lat="43.00113" lon="0.31546">
        <ele>1155.4</ele>
        <time>2026-07-08T09:25:59Z</time>
      </trkpt>
      <trkpt lat="43.00113" lon="0.31546">
        <ele>1155.4</ele>
        <time>2026-07-08T09:26:00Z</time>
      </trkpt>
      <trkpt lat="43.00113" lon="0.31547">
        <ele>1155.4</ele>
        <time>2026-07-08T09:26:00Z</time>
      </trkpt>
      <trkpt lat="43.00113" lon="0.31548">
        <ele>1155.4</ele>
        <time>2026-07-08T09:26:01Z</time>
      </trkpt>
      <trkpt lat="43.00114" lon="0.31549">
        <ele>1155.4</ele>
        <time>2026-07-08T09:26:01Z</time>
      </trkpt>
      <trkpt lat="43.00114" lon="0.3155">
        <ele>1155.4</ele>
        <time>2026-07-08T09:26:02Z</time>
      </trkpt>
      <trkpt lat="43.00114" lon="0.31551">
        <ele>1155.4</ele>
        <time>2026-07-08T09:26:03Z</time>
      </trkpt>
      <trkpt lat="43.00114" lon="0.31552">
        <ele>1155.4</ele>
        <time>2026-07-08T09:26:04Z</time>
      </trkpt>
      <trkpt lat="43.00114" lon="0.31554">
        <ele>1155.4</ele>
        <time>2026-07-08T09:26:05Z</time>
      </trkpt>
      <trkpt lat="43.00115" lon="0.31554">
        <ele>1155.4</ele>
        <time>2026-07-08T09:26:05Z</time>
      </trkpt>
      <trkpt lat="43.00115" lon="0.31555">
        <ele>1155.4</ele>
        <time>2026-07-08T09:26:06Z</time>
      </trkpt>
      <trkpt lat="43.00115" lon="0.31557">
        <ele>1155.4</ele>
        <time>2026-07-08T09:26:07Z</time>
      </trkpt>
      <trkpt lat="43.00116" lon="0.31559">
        <ele>1154.4</ele>
        <time>2026-07-08T09:26:08Z</time>
      </trkpt>
      <trkpt lat="43.00116" lon="0.3156">
        <ele>1154.4</ele>
        <time>2026-07-08T09:26:09Z</time>
      </trkpt>
      <trkpt lat="43.00117" lon="0.31561">
        <ele>1154.4</ele>
        <time>2026-07-08T09:26:09Z</time>
      </trkpt>
      <trkpt lat="43.00117" lon="0.31562">
        <ele>1154.4</ele>
        <time>2026-07-08T09:26:10Z</time>
      </trkpt>
      <trkpt lat="43.00118" lon="0.31563">
        <ele>1154.4</ele>
        <time>2026-07-08T09:26:10Z</time>
      </trkpt>
      <trkpt lat="43.00118" lon="0.31564">
        <ele>1154.4</ele>
        <time>2026-07-08T09:26:11Z</time>
      </trkpt>
      <trkpt lat="43.00119" lon="0.31565">
        <ele>1154.4</ele>
        <time>2026-07-08T09:26:12Z</time>
      </trkpt>
      <trkpt lat="43.00119" lon="0.31565">
        <ele>1153.4</ele>
        <time>2026-07-08T09:26:12Z</time>
      </trkpt>
      <trkpt lat="43.0012" lon="0.31566">
        <ele>1153.4</ele>
        <time>2026-07-08T09:26:13Z</time>
      </trkpt>
      <trkpt lat="43.0012" lon="0.31567">
        <ele>1153.4</ele>
        <time>2026-07-08T09:26:13Z</time>
      </trkpt>
      <trkpt lat="43.0012" lon="0.31568">
        <ele>1153.4</ele>
        <time>2026-07-08T09:26:14Z</time>
      </trkpt>
      <trkpt lat="43.0012" lon="0.31569">
        <ele>1153.4</ele>
        <time>2026-07-08T09:26:15Z</time>
      </trkpt>
      <trkpt lat="43.0012" lon="0.3157">
        <ele>1153.4</ele>
        <time>2026-07-08T09:26:15Z</time>
      </trkpt>
      <trkpt lat="43.0012" lon="0.31571">
        <ele>1153.4</ele>
        <time>2026-07-08T09:26:16Z</time>
      </trkpt>
      <trkpt lat="43.0012" lon="0.31572">
        <ele>1154.4</ele>
        <time>2026-07-08T09:26:17Z</time>
      </trkpt>
      <trkpt lat="43.0012" lon="0.31573">
        <ele>1154.4</ele>
        <time>2026-07-08T09:26:18Z</time>
      </trkpt>
      <trkpt lat="43.0012" lon="0.31574">
        <ele>1154.4</ele>
        <time>2026-07-08T09:26:18Z</time>
      </trkpt>
      <trkpt lat="43.00121" lon="0.31575">
        <ele>1154.4</ele>
        <time>2026-07-08T09:26:19Z</time>
      </trkpt>
      <trkpt lat="43.00121" lon="0.31576">
        <ele>1153.4</ele>
        <time>2026-07-08T09:26:19Z</time>
      </trkpt>
      <trkpt lat="43.00121" lon="0.31577">
        <ele>1153.4</ele>
        <time>2026-07-08T09:26:20Z</time>
      </trkpt>
      <trkpt lat="43.00121" lon="0.31577">
        <ele>1153.4</ele>
        <time>2026-07-08T09:26:21Z</time>
      </trkpt>
      <trkpt lat="43.00121" lon="0.31578">
        <ele>1153.4</ele>
        <time>2026-07-08T09:26:21Z</time>
      </trkpt>
      <trkpt lat="43.00121" lon="0.31579">
        <ele>1153.4</ele>
        <time>2026-07-08T09:26:22Z</time>
      </trkpt>
      <trkpt lat="43.00121" lon="0.31579">
        <ele>1153.4</ele>
        <time>2026-07-08T09:26:22Z</time>
      </trkpt>
      <trkpt lat="43.00121" lon="0.3158">
        <ele>1153.4</ele>
        <time>2026-07-08T09:26:23Z</time>
      </trkpt>
      <trkpt lat="43.00121" lon="0.31581">
        <ele>1152.4</ele>
        <time>2026-07-08T09:26:24Z</time>
      </trkpt>
      <trkpt lat="43.00121" lon="0.31582">
        <ele>1152.4</ele>
        <time>2026-07-08T09:26:24Z</time>
      </trkpt>
      <trkpt lat="43.00121" lon="0.31583">
        <ele>1152.4</ele>
        <time>2026-07-08T09:26:25Z</time>
      </trkpt>
      <trkpt lat="43.0012" lon="0.31583">
        <ele>1152.4</ele>
        <time>2026-07-08T09:26:25Z</time>
      </trkpt>
      <trkpt lat="43.0012" lon="0.31584">
        <ele>1152.4</ele>
        <time>2026-07-08T09:26:26Z</time>
      </trkpt>
      <trkpt lat="43.0012" lon="0.31585">
        <ele>1152.4</ele>
        <time>2026-07-08T09:26:27Z</time>
      </trkpt>
      <trkpt lat="43.00119" lon="0.31585">
        <ele>1152.4</ele>
        <time>2026-07-08T09:26:27Z</time>
      </trkpt>
      <trkpt lat="43.00119" lon="0.31586">
        <ele>1152.4</ele>
        <time>2026-07-08T09:26:28Z</time>
      </trkpt>
      <trkpt lat="43.00119" lon="0.31587">
        <ele>1153.4</ele>
        <time>2026-07-08T09:26:28Z</time>
      </trkpt>
      <trkpt lat="43.00119" lon="0.31587">
        <ele>1153.4</ele>
        <time>2026-07-08T09:26:29Z</time>
      </trkpt>
      <trkpt lat="43.00119" lon="0.31588">
        <ele>1153.4</ele>
        <time>2026-07-08T09:26:30Z</time>
      </trkpt>
      <trkpt lat="43.00118" lon="0.31589">
        <ele>1154.4</ele>
        <time>2026-07-08T09:26:30Z</time>
      </trkpt>
      <trkpt lat="43.00118" lon="0.31589">
        <ele>1154.4</ele>
        <time>2026-07-08T09:26:31Z</time>
      </trkpt>
      <trkpt lat="43.00118" lon="0.3159">
        <ele>1153.4</ele>
        <time>2026-07-08T09:26:31Z</time>
      </trkpt>
      <trkpt lat="43.00118" lon="0.31591">
        <ele>1153.4</ele>
        <time>2026-07-08T09:26:32Z</time>
      </trkpt>
      <trkpt lat="43.00117" lon="0.31592">
        <ele>1153.4</ele>
        <time>2026-07-08T09:26:33Z</time>
      </trkpt>
      <trkpt lat="43.00117" lon="0.31593">
        <ele>1153.4</ele>
        <time>2026-07-08T09:26:33Z</time>
      </trkpt>
      <trkpt lat="43.00117" lon="0.31593">
        <ele>1153.4</ele>
        <time>2026-07-08T09:26:34Z</time>
      </trkpt>
      <trkpt lat="43.00116" lon="0.31594">
        <ele>1152.4</ele>
        <time>2026-07-08T09:26:34Z</time>
      </trkpt>
      <trkpt lat="43.00116" lon="0.31595">
        <ele>1152.4</ele>
        <time>2026-07-08T09:26:35Z</time>
      </trkpt>
      <trkpt lat="43.00116" lon="0.31595">
        <ele>1153.4</ele>
        <time>2026-07-08T09:26:36Z</time>
      </trkpt>
      <trkpt lat="43.00115" lon="0.31596">
        <ele>1152.4</ele>
        <time>2026-07-08T09:26:36Z</time>
      </trkpt>
      <trkpt lat="43.00115" lon="0.31597">
        <ele>1152.4</ele>
        <time>2026-07-08T09:26:37Z</time>
      </trkpt>
      <trkpt lat="43.00114" lon="0.31598">
        <ele>1152.4</ele>
        <time>2026-07-08T09:26:37Z</time>
      </trkpt>
      <trkpt lat="43.00114" lon="0.31599">
        <ele>1152.4</ele>
        <time>2026-07-08T09:26:38Z</time>
      </trkpt>
      <trkpt lat="43.00114" lon="0.316">
        <ele>1152.4</ele>
        <time>2026-07-08T09:26:39Z</time>
      </trkpt>
      <trkpt lat="43.00114" lon="0.316">
        <ele>1153.4</ele>
        <time>2026-07-08T09:26:39Z</time>
      </trkpt>
      <trkpt lat="43.00113" lon="0.31601">
        <ele>1153.4</ele>
        <time>2026-07-08T09:26:40Z</time>
      </trkpt>
      <trkpt lat="43.00113" lon="0.31602">
        <ele>1152.4</ele>
        <time>2026-07-08T09:26:41Z</time>
      </trkpt>
      <trkpt lat="43.00113" lon="0.31603">
        <ele>1153.4</ele>
        <time>2026-07-08T09:26:41Z</time>
      </trkpt>
      <trkpt lat="43.00113" lon="0.31604">
        <ele>1153.4</ele>
        <time>2026-07-08T09:26:42Z</time>
      </trkpt>
      <trkpt lat="43.00113" lon="0.31604">
        <ele>1153.4</ele>
        <time>2026-07-08T09:26:42Z</time>
      </trkpt>
      <trkpt lat="43.00113" lon="0.31605">
        <ele>1152.4</ele>
        <time>2026-07-08T09:26:43Z</time>
      </trkpt>
      <trkpt lat="43.00113" lon="0.31606">
        <ele>1152.4</ele>
        <time>2026-07-08T09:26:44Z</time>
      </trkpt>
      <trkpt lat="43.00113" lon="0.31607">
        <ele>1152.4</ele>
        <time>2026-07-08T09:26:45Z</time>
      </trkpt>
      <trkpt lat="43.00113" lon="0.31608">
        <ele>1152.4</ele>
        <time>2026-07-08T09:26:45Z</time>
      </trkpt>
      <trkpt lat="43.00112" lon="0.31609">
        <ele>1152.4</ele>
        <time>2026-07-08T09:26:46Z</time>
      </trkpt>
      <trkpt lat="43.00112" lon="0.3161">
        <ele>1152.4</ele>
        <time>2026-07-08T09:26:47Z</time>
      </trkpt>
      <trkpt lat="43.00112" lon="0.3161">
        <ele>1152.4</ele>
        <time>2026-07-08T09:26:47Z</time>
      </trkpt>
      <trkpt lat="43.00112" lon="0.31611">
        <ele>1152.4</ele>
        <time>2026-07-08T09:26:48Z</time>
      </trkpt>
      <trkpt lat="43.00112" lon="0.31613">
        <ele>1152.4</ele>
        <time>2026-07-08T09:26:48Z</time>
      </trkpt>
      <trkpt lat="43.00112" lon="0.31614">
        <ele>1152.4</ele>
        <time>2026-07-08T09:26:49Z</time>
      </trkpt>
      <trkpt lat="43.00112" lon="0.31615">
        <ele>1153.4</ele>
        <time>2026-07-08T09:26:50Z</time>
      </trkpt>
      <trkpt lat="43.00112" lon="0.31616">
        <ele>1153.4</ele>
        <time>2026-07-08T09:26:50Z</time>
      </trkpt>
      <trkpt lat="43.00112" lon="0.31617">
        <ele>1153.4</ele>
        <time>2026-07-08T09:26:51Z</time>
      </trkpt>
      <trkpt lat="43.00112" lon="0.31618">
        <ele>1153.4</ele>
        <time>2026-07-08T09:26:51Z</time>
      </trkpt>
      <trkpt lat="43.00112" lon="0.31619">
        <ele>1153.4</ele>
        <time>2026-07-08T09:26:52Z</time>
      </trkpt>
      <trkpt lat="43.00112" lon="0.3162">
        <ele>1153.4</ele>
        <time>2026-07-08T09:26:53Z</time>
      </trkpt>
      <trkpt lat="43.00112" lon="0.3162">
        <ele>1153.4</ele>
        <time>2026-07-08T09:26:53Z</time>
      </trkpt>
      <trkpt lat="43.00112" lon="0.31622">
        <ele>1153.4</ele>
        <time>2026-07-08T09:26:54Z</time>
      </trkpt>
      <trkpt lat="43.00112" lon="0.31623">
        <ele>1153.4</ele>
        <time>2026-07-08T09:26:55Z</time>
      </trkpt>
      <trkpt lat="43.00112" lon="0.31623">
        <ele>1152.4</ele>
        <time>2026-07-08T09:26:55Z</time>
      </trkpt>
      <trkpt lat="43.00112" lon="0.31624">
        <ele>1152.4</ele>
        <time>2026-07-08T09:26:56Z</time>
      </trkpt>
      <trkpt lat="43.00112" lon="0.31625">
        <ele>1153.4</ele>
        <time>2026-07-08T09:26:56Z</time>
      </trkpt>
      <trkpt lat="43.00112" lon="0.31625">
        <ele>1153.4</ele>
        <time>2026-07-08T09:26:57Z</time>
      </trkpt>
      <trkpt lat="43.00112" lon="0.31626">
        <ele>1153.4</ele>
        <time>2026-07-08T09:26:58Z</time>
      </trkpt>
      <trkpt lat="43.00112" lon="0.31627">
        <ele>1153.4</ele>
        <time>2026-07-08T09:26:58Z</time>
      </trkpt>
      <trkpt lat="43.00112" lon="0.31628">
        <ele>1153.4</ele>
        <time>2026-07-08T09:26:59Z</time>
      </trkpt>
      <trkpt lat="43.00112" lon="0.31629">
        <ele>1153.4</ele>
        <time>2026-07-08T09:27:00Z</time>
      </trkpt>
      <trkpt lat="43.00112" lon="0.3163">
        <ele>1152.4</ele>
        <time>2026-07-08T09:27:00Z</time>
      </trkpt>
      <trkpt lat="43.00112" lon="0.31631">
        <ele>1152.4</ele>
        <time>2026-07-08T09:27:01Z</time>
      </trkpt>
      <trkpt lat="43.00112" lon="0.31632">
        <ele>1152.4</ele>
        <time>2026-07-08T09:27:02Z</time>
      </trkpt>
      <trkpt lat="43.00112" lon="0.31633">
        <ele>1152.4</ele>
        <time>2026-07-08T09:27:02Z</time>
      </trkpt>
      <trkpt lat="43.00112" lon="0.31633">
        <ele>1152.4</ele>
        <time>2026-07-08T09:27:03Z</time>
      </trkpt>
      <trkpt lat="43.00112" lon="0.31635">
        <ele>1152.4</ele>
        <time>2026-07-08T09:27:04Z</time>
      </trkpt>
      <trkpt lat="43.00112" lon="0.31635">
        <ele>1152.4</ele>
        <time>2026-07-08T09:27:04Z</time>
      </trkpt>
      <trkpt lat="43.00112" lon="0.31636">
        <ele>1153.4</ele>
        <time>2026-07-08T09:27:05Z</time>
      </trkpt>
      <trkpt lat="43.00112" lon="0.31637">
        <ele>1153.4</ele>
        <time>2026-07-08T09:27:06Z</time>
      </trkpt>
      <trkpt lat="43.00112" lon="0.31638">
        <ele>1153.4</ele>
        <time>2026-07-08T09:27:07Z</time>
      </trkpt>
      <trkpt lat="43.00112" lon="0.31639">
        <ele>1153.4</ele>
        <time>2026-07-08T09:27:07Z</time>
      </trkpt>
      <trkpt lat="43.00112" lon="0.3164">
        <ele>1153.4</ele>
        <time>2026-07-08T09:27:08Z</time>
      </trkpt>
      <trkpt lat="43.00112" lon="0.31641">
        <ele>1153.4</ele>
        <time>2026-07-08T09:27:09Z</time>
      </trkpt>
      <trkpt lat="43.00112" lon="0.31642">
        <ele>1153.4</ele>
        <time>2026-07-08T09:27:10Z</time>
      </trkpt>
      <trkpt lat="43.00112" lon="0.31642">
        <ele>1153.4</ele>
        <time>2026-07-08T09:27:10Z</time>
      </trkpt>
      <trkpt lat="43.00112" lon="0.31643">
        <ele>1153.4</ele>
        <time>2026-07-08T09:27:11Z</time>
      </trkpt>
      <trkpt lat="43.00112" lon="0.31644">
        <ele>1153.4</ele>
        <time>2026-07-08T09:27:12Z</time>
      </trkpt>
      <trkpt lat="43.00113" lon="0.31645">
        <ele>1153.4</ele>
        <time>2026-07-08T09:27:13Z</time>
      </trkpt>
      <trkpt lat="43.00113" lon="0.31645">
        <ele>1153.4</ele>
        <time>2026-07-08T09:27:13Z</time>
      </trkpt>
      <trkpt lat="43.00113" lon="0.31646">
        <ele>1153.4</ele>
        <time>2026-07-08T09:27:14Z</time>
      </trkpt>
      <trkpt lat="43.00113" lon="0.31647">
        <ele>1153.4</ele>
        <time>2026-07-08T09:27:15Z</time>
      </trkpt>
      <trkpt lat="43.00113" lon="0.31648">
        <ele>1153.4</ele>
        <time>2026-07-08T09:27:15Z</time>
      </trkpt>
      <trkpt lat="43.00113" lon="0.31649">
        <ele>1153.4</ele>
        <time>2026-07-08T09:27:16Z</time>
      </trkpt>
      <trkpt lat="43.00113" lon="0.3165">
        <ele>1153.4</ele>
        <time>2026-07-08T09:27:17Z</time>
      </trkpt>
      <trkpt lat="43.00113" lon="0.31651">
        <ele>1153.4</ele>
        <time>2026-07-08T09:27:17Z</time>
      </trkpt>
      <trkpt lat="43.00113" lon="0.31652">
        <ele>1153.4</ele>
        <time>2026-07-08T09:27:18Z</time>
      </trkpt>
      <trkpt lat="43.00113" lon="0.31653">
        <ele>1153.4</ele>
        <time>2026-07-08T09:27:19Z</time>
      </trkpt>
      <trkpt lat="43.00113" lon="0.31653">
        <ele>1153.4</ele>
        <time>2026-07-08T09:27:19Z</time>
      </trkpt>
      <trkpt lat="43.00113" lon="0.31654">
        <ele>1153.4</ele>
        <time>2026-07-08T09:27:20Z</time>
      </trkpt>
      <trkpt lat="43.00113" lon="0.31655">
        <ele>1154.4</ele>
        <time>2026-07-08T09:27:20Z</time>
      </trkpt>
      <trkpt lat="43.00114" lon="0.31655">
        <ele>1153.4</ele>
        <time>2026-07-08T09:27:21Z</time>
      </trkpt>
      <trkpt lat="43.00114" lon="0.31656">
        <ele>1153.4</ele>
        <time>2026-07-08T09:27:22Z</time>
      </trkpt>
      <trkpt lat="43.00114" lon="0.31657">
        <ele>1153.4</ele>
        <time>2026-07-08T09:27:22Z</time>
      </trkpt>
      <trkpt lat="43.00114" lon="0.31658">
        <ele>1153.4</ele>
        <time>2026-07-08T09:27:23Z</time>
      </trkpt>
      <trkpt lat="43.00114" lon="0.31659">
        <ele>1153.4</ele>
        <time>2026-07-08T09:27:24Z</time>
      </trkpt>
      <trkpt lat="43.00114" lon="0.3166">
        <ele>1153.4</ele>
        <time>2026-07-08T09:27:24Z</time>
      </trkpt>
      <trkpt lat="43.00114" lon="0.31661">
        <ele>1153.4</ele>
        <time>2026-07-08T09:27:25Z</time>
      </trkpt>
      <trkpt lat="43.00114" lon="0.31662">
        <ele>1153.4</ele>
        <time>2026-07-08T09:27:26Z</time>
      </trkpt>
      <trkpt lat="43.00114" lon="0.31663">
        <ele>1154.4</ele>
        <time>2026-07-08T09:27:26Z</time>
      </trkpt>
      <trkpt lat="43.00114" lon="0.31663">
        <ele>1154.4</ele>
        <time>2026-07-08T09:27:27Z</time>
      </trkpt>
      <trkpt lat="43.00114" lon="0.31664">
        <ele>1154.4</ele>
        <time>2026-07-08T09:27:28Z</time>
      </trkpt>
      <trkpt lat="43.00114" lon="0.31665">
        <ele>1154.4</ele>
        <time>2026-07-08T09:27:29Z</time>
      </trkpt>
      <trkpt lat="43.00114" lon="0.31667">
        <ele>1155.4</ele>
        <time>2026-07-08T09:27:30Z</time>
      </trkpt>
      <trkpt lat="43.00114" lon="0.31667">
        <ele>1155.4</ele>
        <time>2026-07-08T09:27:30Z</time>
      </trkpt>
      <trkpt lat="43.00114" lon="0.31668">
        <ele>1155.4</ele>
        <time>2026-07-08T09:27:31Z</time>
      </trkpt>
      <trkpt lat="43.00114" lon="0.31669">
        <ele>1154.4</ele>
        <time>2026-07-08T09:27:32Z</time>
      </trkpt>
      <trkpt lat="43.00114" lon="0.3167">
        <ele>1154.4</ele>
        <time>2026-07-08T09:27:32Z</time>
      </trkpt>
      <trkpt lat="43.00113" lon="0.31671">
        <ele>1154.4</ele>
        <time>2026-07-08T09:27:33Z</time>
      </trkpt>
      <trkpt lat="43.00113" lon="0.31672">
        <ele>1154.4</ele>
        <time>2026-07-08T09:27:34Z</time>
      </trkpt>
      <trkpt lat="43.00113" lon="0.31673">
        <ele>1155.4</ele>
        <time>2026-07-08T09:27:35Z</time>
      </trkpt>
      <trkpt lat="43.00113" lon="0.31673">
        <ele>1155.4</ele>
        <time>2026-07-08T09:27:36Z</time>
      </trkpt>
      <trkpt lat="43.00113" lon="0.31674">
        <ele>1155.4</ele>
        <time>2026-07-08T09:27:36Z</time>
      </trkpt>
      <trkpt lat="43.00112" lon="0.31674">
        <ele>1155.4</ele>
        <time>2026-07-08T09:27:37Z</time>
      </trkpt>
      <trkpt lat="43.00112" lon="0.31675">
        <ele>1155.4</ele>
        <time>2026-07-08T09:27:37Z</time>
      </trkpt>
      <trkpt lat="43.00112" lon="0.31676">
        <ele>1155.4</ele>
        <time>2026-07-08T09:27:38Z</time>
      </trkpt>
      <trkpt lat="43.00112" lon="0.31677">
        <ele>1155.4</ele>
        <time>2026-07-08T09:27:39Z</time>
      </trkpt>
      <trkpt lat="43.00112" lon="0.31678">
        <ele>1155.4</ele>
        <time>2026-07-08T09:27:39Z</time>
      </trkpt>
      <trkpt lat="43.00112" lon="0.31679">
        <ele>1155.4</ele>
        <time>2026-07-08T09:27:40Z</time>
      </trkpt>
      <trkpt lat="43.00112" lon="0.3168">
        <ele>1155.4</ele>
        <time>2026-07-08T09:27:41Z</time>
      </trkpt>
      <trkpt lat="43.00112" lon="0.31681">
        <ele>1156.4</ele>
        <time>2026-07-08T09:27:41Z</time>
      </trkpt>
      <trkpt lat="43.00112" lon="0.31682">
        <ele>1156.4</ele>
        <time>2026-07-08T09:27:42Z</time>
      </trkpt>
      <trkpt lat="43.00112" lon="0.31683">
        <ele>1156.4</ele>
        <time>2026-07-08T09:27:43Z</time>
      </trkpt>
      <trkpt lat="43.00111" lon="0.31684">
        <ele>1156.4</ele>
        <time>2026-07-08T09:27:43Z</time>
      </trkpt>
      <trkpt lat="43.00111" lon="0.31685">
        <ele>1156.4</ele>
        <time>2026-07-08T09:27:44Z</time>
      </trkpt>
      <trkpt lat="43.00112" lon="0.31686">
        <ele>1156.4</ele>
        <time>2026-07-08T09:27:45Z</time>
      </trkpt>
      <trkpt lat="43.00112" lon="0.31686">
        <ele>1157.4</ele>
        <time>2026-07-08T09:27:45Z</time>
      </trkpt>
      <trkpt lat="43.00112" lon="0.31687">
        <ele>1157.4</ele>
        <time>2026-07-08T09:27:46Z</time>
      </trkpt>
      <trkpt lat="43.00113" lon="0.31688">
        <ele>1157.4</ele>
        <time>2026-07-08T09:27:47Z</time>
      </trkpt>
      <trkpt lat="43.00113" lon="0.31689">
        <ele>1157.4</ele>
        <time>2026-07-08T09:27:48Z</time>
      </trkpt>
      <trkpt lat="43.00113" lon="0.3169">
        <ele>1157.4</ele>
        <time>2026-07-08T09:27:49Z</time>
      </trkpt>
      <trkpt lat="43.00113" lon="0.31691">
        <ele>1157.4</ele>
        <time>2026-07-08T09:27:50Z</time>
      </trkpt>
      <trkpt lat="43.00113" lon="0.31691">
        <ele>1157.4</ele>
        <time>2026-07-08T09:27:50Z</time>
      </trkpt>
      <trkpt lat="43.00113" lon="0.31692">
        <ele>1157.4</ele>
        <time>2026-07-08T09:27:51Z</time>
      </trkpt>
      <trkpt lat="43.00113" lon="0.31693">
        <ele>1158.4</ele>
        <time>2026-07-08T09:27:52Z</time>
      </trkpt>
      <trkpt lat="43.00113" lon="0.31694">
        <ele>1157.4</ele>
        <time>2026-07-08T09:27:52Z</time>
      </trkpt>
      <trkpt lat="43.00113" lon="0.31696">
        <ele>1157.4</ele>
        <time>2026-07-08T09:27:53Z</time>
      </trkpt>
      <trkpt lat="43.00113" lon="0.31697">
        <ele>1157.4</ele>
        <time>2026-07-08T09:27:54Z</time>
      </trkpt>
      <trkpt lat="43.00113" lon="0.31698">
        <ele>1157.4</ele>
        <time>2026-07-08T09:27:55Z</time>
      </trkpt>
      <trkpt lat="43.00113" lon="0.31699">
        <ele>1157.4</ele>
        <time>2026-07-08T09:27:55Z</time>
      </trkpt>
      <trkpt lat="43.00114" lon="0.317">
        <ele>1157.4</ele>
        <time>2026-07-08T09:27:56Z</time>
      </trkpt>
      <trkpt lat="43.00114" lon="0.31701">
        <ele>1157.4</ele>
        <time>2026-07-08T09:27:57Z</time>
      </trkpt>
      <trkpt lat="43.00114" lon="0.31702">
        <ele>1157.4</ele>
        <time>2026-07-08T09:27:58Z</time>
      </trkpt>
      <trkpt lat="43.00114" lon="0.31703">
        <ele>1157.4</ele>
        <time>2026-07-08T09:27:58Z</time>
      </trkpt>
      <trkpt lat="43.00114" lon="0.31704">
        <ele>1157.4</ele>
        <time>2026-07-08T09:27:59Z</time>
      </trkpt>
      <trkpt lat="43.00114" lon="0.31705">
        <ele>1157.4</ele>
        <time>2026-07-08T09:28:00Z</time>
      </trkpt>
      <trkpt lat="43.00114" lon="0.31706">
        <ele>1157.4</ele>
        <time>2026-07-08T09:28:00Z</time>
      </trkpt>
      <trkpt lat="43.00114" lon="0.31707">
        <ele>1157.4</ele>
        <time>2026-07-08T09:28:01Z</time>
      </trkpt>
      <trkpt lat="43.00114" lon="0.31708">
        <ele>1157.4</ele>
        <time>2026-07-08T09:28:02Z</time>
      </trkpt>
      <trkpt lat="43.00114" lon="0.31708">
        <ele>1158.4</ele>
        <time>2026-07-08T09:28:02Z</time>
      </trkpt>
      <trkpt lat="43.00114" lon="0.31709">
        <ele>1158.4</ele>
        <time>2026-07-08T09:28:03Z</time>
      </trkpt>
      <trkpt lat="43.00114" lon="0.3171">
        <ele>1158.4</ele>
        <time>2026-07-08T09:28:03Z</time>
      </trkpt>
      <trkpt lat="43.00114" lon="0.31711">
        <ele>1158.4</ele>
        <time>2026-07-08T09:28:04Z</time>
      </trkpt>
      <trkpt lat="43.00114" lon="0.31712">
        <ele>1158.4</ele>
        <time>2026-07-08T09:28:05Z</time>
      </trkpt>
      <trkpt lat="43.00114" lon="0.31713">
        <ele>1158.4</ele>
        <time>2026-07-08T09:28:05Z</time>
      </trkpt>
      <trkpt lat="43.00114" lon="0.31714">
        <ele>1158.4</ele>
        <time>2026-07-08T09:28:06Z</time>
      </trkpt>
      <trkpt lat="43.00114" lon="0.31715">
        <ele>1158.4</ele>
        <time>2026-07-08T09:28:07Z</time>
      </trkpt>
      <trkpt lat="43.00114" lon="0.31715">
        <ele>1158.4</ele>
        <time>2026-07-08T09:28:07Z</time>
      </trkpt>
      <trkpt lat="43.00114" lon="0.31716">
        <ele>1158.4</ele>
        <time>2026-07-08T09:28:08Z</time>
      </trkpt>
      <trkpt lat="43.00115" lon="0.31716">
        <ele>1158.4</ele>
        <time>2026-07-08T09:28:09Z</time>
      </trkpt>
      <trkpt lat="43.00115" lon="0.31717">
        <ele>1158.4</ele>
        <time>2026-07-08T09:28:09Z</time>
      </trkpt>
      <trkpt lat="43.00115" lon="0.31718">
        <ele>1158.4</ele>
        <time>2026-07-08T09:28:10Z</time>
      </trkpt>
      <trkpt lat="43.00115" lon="0.31719">
        <ele>1158.4</ele>
        <time>2026-07-08T09:28:11Z</time>
      </trkpt>
      <trkpt lat="43.00115" lon="0.31719">
        <ele>1158.4</ele>
        <time>2026-07-08T09:28:11Z</time>
      </trkpt>
      <trkpt lat="43.00115" lon="0.3172">
        <ele>1158.4</ele>
        <time>2026-07-08T09:28:12Z</time>
      </trkpt>
      <trkpt lat="43.00115" lon="0.3172">
        <ele>1158.4</ele>
        <time>2026-07-08T09:28:13Z</time>
      </trkpt>
      <trkpt lat="43.00115" lon="0.31721">
        <ele>1159.4</ele>
        <time>2026-07-08T09:28:13Z</time>
      </trkpt>
      <trkpt lat="43.00114" lon="0.31722">
        <ele>1159.4</ele>
        <time>2026-07-08T09:28:14Z</time>
      </trkpt>
      <trkpt lat="43.00114" lon="0.31722">
        <ele>1158.4</ele>
        <time>2026-07-08T09:28:15Z</time>
      </trkpt>
      <trkpt lat="43.00113" lon="0.31723">
        <ele>1159.4</ele>
        <time>2026-07-08T09:28:15Z</time>
      </trkpt>
      <trkpt lat="43.00113" lon="0.31723">
        <ele>1159.4</ele>
        <time>2026-07-08T09:28:16Z</time>
      </trkpt>
      <trkpt lat="43.00113" lon="0.31724">
        <ele>1159.4</ele>
        <time>2026-07-08T09:28:17Z</time>
      </trkpt>
      <trkpt lat="43.00113" lon="0.31724">
        <ele>1159.4</ele>
        <time>2026-07-08T09:28:17Z</time>
      </trkpt>
      <trkpt lat="43.00112" lon="0.31725">
        <ele>1159.4</ele>
        <time>2026-07-08T09:28:18Z</time>
      </trkpt>
      <trkpt lat="43.00112" lon="0.31726">
        <ele>1159.4</ele>
        <time>2026-07-08T09:28:18Z</time>
      </trkpt>
      <trkpt lat="43.00112" lon="0.31727">
        <ele>1159.4</ele>
        <time>2026-07-08T09:28:19Z</time>
      </trkpt>
      <trkpt lat="43.00111" lon="0.31728">
        <ele>1159.4</ele>
        <time>2026-07-08T09:28:20Z</time>
      </trkpt>
      <trkpt lat="43.00111" lon="0.31729">
        <ele>1159.4</ele>
        <time>2026-07-08T09:28:20Z</time>
      </trkpt>
      <trkpt lat="43.00111" lon="0.3173">
        <ele>1159.4</ele>
        <time>2026-07-08T09:28:21Z</time>
      </trkpt>
      <trkpt lat="43.00111" lon="0.31731">
        <ele>1159.4</ele>
        <time>2026-07-08T09:28:22Z</time>
      </trkpt>
      <trkpt lat="43.0011" lon="0.31732">
        <ele>1159.4</ele>
        <time>2026-07-08T09:28:22Z</time>
      </trkpt>
      <trkpt lat="43.0011" lon="0.31732">
        <ele>1159.4</ele>
        <time>2026-07-08T09:28:23Z</time>
      </trkpt>
      <trkpt lat="43.0011" lon="0.31733">
        <ele>1159.4</ele>
        <time>2026-07-08T09:28:24Z</time>
      </trkpt>
      <trkpt lat="43.0011" lon="0.31734">
        <ele>1159.4</ele>
        <time>2026-07-08T09:28:24Z</time>
      </trkpt>
      <trkpt lat="43.00109" lon="0.31735">
        <ele>1160.4</ele>
        <time>2026-07-08T09:28:25Z</time>
      </trkpt>
      <trkpt lat="43.00109" lon="0.31736">
        <ele>1160.4</ele>
        <time>2026-07-08T09:28:26Z</time>
      </trkpt>
      <trkpt lat="43.00109" lon="0.31736">
        <ele>1160.4</ele>
        <time>2026-07-08T09:28:26Z</time>
      </trkpt>
      <trkpt lat="43.00109" lon="0.31737">
        <ele>1160.4</ele>
        <time>2026-07-08T09:28:27Z</time>
      </trkpt>
      <trkpt lat="43.00108" lon="0.31737">
        <ele>1159.4</ele>
        <time>2026-07-08T09:28:28Z</time>
      </trkpt>
      <trkpt lat="43.00108" lon="0.31738">
        <ele>1159.4</ele>
        <time>2026-07-08T09:28:28Z</time>
      </trkpt>
      <trkpt lat="43.00108" lon="0.31738">
        <ele>1159.4</ele>
        <time>2026-07-08T09:28:29Z</time>
      </trkpt>
      <trkpt lat="43.00107" lon="0.31739">
        <ele>1159.4</ele>
        <time>2026-07-08T09:28:30Z</time>
      </trkpt>
      <trkpt lat="43.00107" lon="0.31739">
        <ele>1159.4</ele>
        <time>2026-07-08T09:28:30Z</time>
      </trkpt>
      <trkpt lat="43.00107" lon="0.3174">
        <ele>1159.4</ele>
        <time>2026-07-08T09:28:31Z</time>
      </trkpt>
      <trkpt lat="43.00107" lon="0.31741">
        <ele>1159.4</ele>
        <time>2026-07-08T09:28:32Z</time>
      </trkpt>
      <trkpt lat="43.00106" lon="0.31741">
        <ele>1159.4</ele>
        <time>2026-07-08T09:28:32Z</time>
      </trkpt>
      <trkpt lat="43.00106" lon="0.31742">
        <ele>1159.4</ele>
        <time>2026-07-08T09:28:33Z</time>
      </trkpt>
      <trkpt lat="43.00106" lon="0.31742">
        <ele>1159.4</ele>
        <time>2026-07-08T09:28:34Z</time>
      </trkpt>
      <trkpt lat="43.00105" lon="0.31743">
        <ele>1158.4</ele>
        <time>2026-07-08T09:28:34Z</time>
      </trkpt>
      <trkpt lat="43.00105" lon="0.31743">
        <ele>1158.4</ele>
        <time>2026-07-08T09:28:35Z</time>
      </trkpt>
      <trkpt lat="43.00105" lon="0.31744">
        <ele>1158.4</ele>
        <time>2026-07-08T09:28:36Z</time>
      </trkpt>
      <trkpt lat="43.00104" lon="0.31745">
        <ele>1158.4</ele>
        <time>2026-07-08T09:28:36Z</time>
      </trkpt>
      <trkpt lat="43.00104" lon="0.31745">
        <ele>1158.4</ele>
        <time>2026-07-08T09:28:37Z</time>
      </trkpt>
      <trkpt lat="43.00104" lon="0.31746">
        <ele>1158.4</ele>
        <time>2026-07-08T09:28:38Z</time>
      </trkpt>
      <trkpt lat="43.00104" lon="0.31747">
        <ele>1158.4</ele>
        <time>2026-07-08T09:28:38Z</time>
      </trkpt>
      <trkpt lat="43.00104" lon="0.31747">
        <ele>1158.4</ele>
        <time>2026-07-08T09:28:39Z</time>
      </trkpt>
      <trkpt lat="43.00104" lon="0.31748">
        <ele>1158.4</ele>
        <time>2026-07-08T09:28:40Z</time>
      </trkpt>
      <trkpt lat="43.00104" lon="0.31749">
        <ele>1158.4</ele>
        <time>2026-07-08T09:28:40Z</time>
      </trkpt>
      <trkpt lat="43.00105" lon="0.31749">
        <ele>1158.4</ele>
        <time>2026-07-08T09:28:41Z</time>
      </trkpt>
      <trkpt lat="43.00105" lon="0.3175">
        <ele>1158.4</ele>
        <time>2026-07-08T09:28:42Z</time>
      </trkpt>
      <trkpt lat="43.00105" lon="0.31751">
        <ele>1157.4</ele>
        <time>2026-07-08T09:28:42Z</time>
      </trkpt>
      <trkpt lat="43.00105" lon="0.31752">
        <ele>1158.4</ele>
        <time>2026-07-08T09:28:43Z</time>
      </trkpt>
      <trkpt lat="43.00105" lon="0.31753">
        <ele>1158.4</ele>
        <time>2026-07-08T09:28:44Z</time>
      </trkpt>
      <trkpt lat="43.00105" lon="0.31754">
        <ele>1157.4</ele>
        <time>2026-07-08T09:28:45Z</time>
      </trkpt>
      <trkpt lat="43.00105" lon="0.31754">
        <ele>1157.4</ele>
        <time>2026-07-08T09:28:45Z</time>
      </trkpt>
      <trkpt lat="43.00105" lon="0.31755">
        <ele>1157.4</ele>
        <time>2026-07-08T09:28:46Z</time>
      </trkpt>
      <trkpt lat="43.00105" lon="0.31756">
        <ele>1157.4</ele>
        <time>2026-07-08T09:28:47Z</time>
      </trkpt>
      <trkpt lat="43.00106" lon="0.31757">
        <ele>1157.4</ele>
        <time>2026-07-08T09:28:47Z</time>
      </trkpt>
      <trkpt lat="43.00105" lon="0.31758">
        <ele>1157.4</ele>
        <time>2026-07-08T09:28:48Z</time>
      </trkpt>
      <trkpt lat="43.00106" lon="0.31758">
        <ele>1157.4</ele>
        <time>2026-07-08T09:28:49Z</time>
      </trkpt>
      <trkpt lat="43.00106" lon="0.31759">
        <ele>1157.4</ele>
        <time>2026-07-08T09:28:49Z</time>
      </trkpt>
      <trkpt lat="43.00106" lon="0.3176">
        <ele>1157.4</ele>
        <time>2026-07-08T09:28:50Z</time>
      </trkpt>
      <trkpt lat="43.00106" lon="0.31761">
        <ele>1157.4</ele>
        <time>2026-07-08T09:28:51Z</time>
      </trkpt>
      <trkpt lat="43.00106" lon="0.31762">
        <ele>1157.4</ele>
        <time>2026-07-08T09:28:51Z</time>
      </trkpt>
      <trkpt lat="43.00105" lon="0.31763">
        <ele>1157.4</ele>
        <time>2026-07-08T09:28:52Z</time>
      </trkpt>
      <trkpt lat="43.00106" lon="0.31764">
        <ele>1157.4</ele>
        <time>2026-07-08T09:28:53Z</time>
      </trkpt>
      <trkpt lat="43.00106" lon="0.31764">
        <ele>1157.4</ele>
        <time>2026-07-08T09:28:53Z</time>
      </trkpt>
      <trkpt lat="43.00106" lon="0.31765">
        <ele>1157.4</ele>
        <time>2026-07-08T09:28:54Z</time>
      </trkpt>
      <trkpt lat="43.00106" lon="0.31766">
        <ele>1157.4</ele>
        <time>2026-07-08T09:28:55Z</time>
      </trkpt>
      <trkpt lat="43.00106" lon="0.31767">
        <ele>1158.4</ele>
        <time>2026-07-08T09:28:55Z</time>
      </trkpt>
      <trkpt lat="43.00106" lon="0.31768">
        <ele>1158.4</ele>
        <time>2026-07-08T09:28:56Z</time>
      </trkpt>
      <trkpt lat="43.00106" lon="0.31768">
        <ele>1158.4</ele>
        <time>2026-07-08T09:28:57Z</time>
      </trkpt>
      <trkpt lat="43.00106" lon="0.31769">
        <ele>1158.4</ele>
        <time>2026-07-08T09:28:57Z</time>
      </trkpt>
      <trkpt lat="43.00106" lon="0.3177">
        <ele>1158.4</ele>
        <time>2026-07-08T09:28:58Z</time>
      </trkpt>
      <trkpt lat="43.00106" lon="0.31771">
        <ele>1158.4</ele>
        <time>2026-07-08T09:28:59Z</time>
      </trkpt>
      <trkpt lat="43.00106" lon="0.31772">
        <ele>1158.4</ele>
        <time>2026-07-08T09:28:59Z</time>
      </trkpt>
      <trkpt lat="43.00106" lon="0.31772">
        <ele>1158.4</ele>
        <time>2026-07-08T09:29:00Z</time>
      </trkpt>
      <trkpt lat="43.00106" lon="0.31773">
        <ele>1158.4</ele>
        <time>2026-07-08T09:29:01Z</time>
      </trkpt>
      <trkpt lat="43.00106" lon="0.31774">
        <ele>1158.4</ele>
        <time>2026-07-08T09:29:01Z</time>
      </trkpt>
      <trkpt lat="43.00106" lon="0.31775">
        <ele>1158.4</ele>
        <time>2026-07-08T09:29:02Z</time>
      </trkpt>
      <trkpt lat="43.00106" lon="0.31776">
        <ele>1158.4</ele>
        <time>2026-07-08T09:29:03Z</time>
      </trkpt>
      <trkpt lat="43.00106" lon="0.31777">
        <ele>1157.4</ele>
        <time>2026-07-08T09:29:04Z</time>
      </trkpt>
      <trkpt lat="43.00107" lon="0.31778">
        <ele>1158.4</ele>
        <time>2026-07-08T09:29:04Z</time>
      </trkpt>
      <trkpt lat="43.00107" lon="0.31779">
        <ele>1158.4</ele>
        <time>2026-07-08T09:29:05Z</time>
      </trkpt>
      <trkpt lat="43.00107" lon="0.3178">
        <ele>1158.4</ele>
        <time>2026-07-08T09:29:06Z</time>
      </trkpt>
      <trkpt lat="43.00107" lon="0.31781">
        <ele>1158.4</ele>
        <time>2026-07-08T09:29:06Z</time>
      </trkpt>
      <trkpt lat="43.00107" lon="0.31781">
        <ele>1158.4</ele>
        <time>2026-07-08T09:29:07Z</time>
      </trkpt>
      <trkpt lat="43.00107" lon="0.31782">
        <ele>1158.4</ele>
        <time>2026-07-08T09:29:08Z</time>
      </trkpt>
      <trkpt lat="43.00107" lon="0.31783">
        <ele>1159.4</ele>
        <time>2026-07-08T09:29:08Z</time>
      </trkpt>
      <trkpt lat="43.00108" lon="0.31784">
        <ele>1159.4</ele>
        <time>2026-07-08T09:29:09Z</time>
      </trkpt>
      <trkpt lat="43.00108" lon="0.31785">
        <ele>1159.4</ele>
        <time>2026-07-08T09:29:10Z</time>
      </trkpt>
      <trkpt lat="43.00108" lon="0.31786">
        <ele>1160.4</ele>
        <time>2026-07-08T09:29:10Z</time>
      </trkpt>
      <trkpt lat="43.00108" lon="0.31787">
        <ele>1161.4</ele>
        <time>2026-07-08T09:29:11Z</time>
      </trkpt>
      <trkpt lat="43.00108" lon="0.31788">
        <ele>1161.4</ele>
        <time>2026-07-08T09:29:12Z</time>
      </trkpt>
      <trkpt lat="43.00108" lon="0.31789">
        <ele>1161.4</ele>
        <time>2026-07-08T09:29:12Z</time>
      </trkpt>
      <trkpt lat="43.00108" lon="0.31789">
        <ele>1161.4</ele>
        <time>2026-07-08T09:29:13Z</time>
      </trkpt>
      <trkpt lat="43.00108" lon="0.3179">
        <ele>1161.4</ele>
        <time>2026-07-08T09:29:14Z</time>
      </trkpt>
      <trkpt lat="43.00108" lon="0.31791">
        <ele>1161.4</ele>
        <time>2026-07-08T09:29:14Z</time>
      </trkpt>
      <trkpt lat="43.00108" lon="0.31792">
        <ele>1161.4</ele>
        <time>2026-07-08T09:29:15Z</time>
      </trkpt>
      <trkpt lat="43.00108" lon="0.31793">
        <ele>1160.4</ele>
        <time>2026-07-08T09:29:16Z</time>
      </trkpt>
      <trkpt lat="43.00108" lon="0.31794">
        <ele>1160.4</ele>
        <time>2026-07-08T09:29:16Z</time>
      </trkpt>
      <trkpt lat="43.00108" lon="0.31795">
        <ele>1160.4</ele>
        <time>2026-07-08T09:29:17Z</time>
      </trkpt>
      <trkpt lat="43.00108" lon="0.31796">
        <ele>1161.4</ele>
        <time>2026-07-08T09:29:18Z</time>
      </trkpt>
      <trkpt lat="43.00108" lon="0.31797">
        <ele>1162.4</ele>
        <time>2026-07-08T09:29:18Z</time>
      </trkpt>
      <trkpt lat="43.00108" lon="0.31798">
        <ele>1162.4</ele>
        <time>2026-07-08T09:29:19Z</time>
      </trkpt>
      <trkpt lat="43.00108" lon="0.31799">
        <ele>1162.4</ele>
        <time>2026-07-08T09:29:20Z</time>
      </trkpt>
      <trkpt lat="43.00108" lon="0.318">
        <ele>1162.4</ele>
        <time>2026-07-08T09:29:20Z</time>
      </trkpt>
      <trkpt lat="43.00108" lon="0.31801">
        <ele>1162.4</ele>
        <time>2026-07-08T09:29:21Z</time>
      </trkpt>
      <trkpt lat="43.00108" lon="0.31802">
        <ele>1162.4</ele>
        <time>2026-07-08T09:29:22Z</time>
      </trkpt>
      <trkpt lat="43.00108" lon="0.31803">
        <ele>1162.4</ele>
        <time>2026-07-08T09:29:23Z</time>
      </trkpt>
      <trkpt lat="43.00108" lon="0.31804">
        <ele>1161.4</ele>
        <time>2026-07-08T09:29:23Z</time>
      </trkpt>
      <trkpt lat="43.00108" lon="0.31805">
        <ele>1161.4</ele>
        <time>2026-07-08T09:29:24Z</time>
      </trkpt>
      <trkpt lat="43.00108" lon="0.31806">
        <ele>1162.4</ele>
        <time>2026-07-08T09:29:25Z</time>
      </trkpt>
      <trkpt lat="43.00108" lon="0.31807">
        <ele>1162.4</ele>
        <time>2026-07-08T09:29:25Z</time>
      </trkpt>
      <trkpt lat="43.00108" lon="0.31807">
        <ele>1162.4</ele>
        <time>2026-07-08T09:29:26Z</time>
      </trkpt>
      <trkpt lat="43.00108" lon="0.31808">
        <ele>1162.4</ele>
        <time>2026-07-08T09:29:27Z</time>
      </trkpt>
      <trkpt lat="43.00108" lon="0.31809">
        <ele>1163.4</ele>
        <time>2026-07-08T09:29:27Z</time>
      </trkpt>
      <trkpt lat="43.00108" lon="0.31809">
        <ele>1162.4</ele>
        <time>2026-07-08T09:29:28Z</time>
      </trkpt>
      <trkpt lat="43.00108" lon="0.3181">
        <ele>1162.4</ele>
        <time>2026-07-08T09:29:29Z</time>
      </trkpt>
      <trkpt lat="43.00108" lon="0.31811">
        <ele>1162.4</ele>
        <time>2026-07-08T09:29:30Z</time>
      </trkpt>
      <trkpt lat="43.00108" lon="0.31811">
        <ele>1162.4</ele>
        <time>2026-07-08T09:29:31Z</time>
      </trkpt>
      <trkpt lat="43.00108" lon="0.31812">
        <ele>1163.4</ele>
        <time>2026-07-08T09:29:31Z</time>
      </trkpt>
      <trkpt lat="43.00108" lon="0.31813">
        <ele>1163.4</ele>
        <time>2026-07-08T09:29:32Z</time>
      </trkpt>
      <trkpt lat="43.00108" lon="0.31814">
        <ele>1163.4</ele>
        <time>2026-07-08T09:29:32Z</time>
      </trkpt>
      <trkpt lat="43.00108" lon="0.31814">
        <ele>1163.4</ele>
        <time>2026-07-08T09:29:33Z</time>
      </trkpt>
      <trkpt lat="43.00108" lon="0.31815">
        <ele>1163.4</ele>
        <time>2026-07-08T09:29:34Z</time>
      </trkpt>
      <trkpt lat="43.00107" lon="0.31816">
        <ele>1163.4</ele>
        <time>2026-07-08T09:29:34Z</time>
      </trkpt>
      <trkpt lat="43.00107" lon="0.31817">
        <ele>1163.4</ele>
        <time>2026-07-08T09:29:35Z</time>
      </trkpt>
      <trkpt lat="43.00107" lon="0.31818">
        <ele>1164.4</ele>
        <time>2026-07-08T09:29:36Z</time>
      </trkpt>
      <trkpt lat="43.00106" lon="0.31819">
        <ele>1163.4</ele>
        <time>2026-07-08T09:29:36Z</time>
      </trkpt>
      <trkpt lat="43.00106" lon="0.3182">
        <ele>1163.4</ele>
        <time>2026-07-08T09:29:37Z</time>
      </trkpt>
      <trkpt lat="43.00106" lon="0.31821">
        <ele>1164.4</ele>
        <time>2026-07-08T09:29:38Z</time>
      </trkpt>
      <trkpt lat="43.00106" lon="0.31822">
        <ele>1165.4</ele>
        <time>2026-07-08T09:29:38Z</time>
      </trkpt>
      <trkpt lat="43.00106" lon="0.31823">
        <ele>1165.4</ele>
        <time>2026-07-08T09:29:39Z</time>
      </trkpt>
      <trkpt lat="43.00106" lon="0.31824">
        <ele>1166.4</ele>
        <time>2026-07-08T09:29:40Z</time>
      </trkpt>
      <trkpt lat="43.00106" lon="0.31825">
        <ele>1165.4</ele>
        <time>2026-07-08T09:29:40Z</time>
      </trkpt>
      <trkpt lat="43.00105" lon="0.31826">
        <ele>1165.4</ele>
        <time>2026-07-08T09:29:41Z</time>
      </trkpt>
      <trkpt lat="43.00106" lon="0.31827">
        <ele>1166.4</ele>
        <time>2026-07-08T09:29:42Z</time>
      </trkpt>
      <trkpt lat="43.00106" lon="0.31828">
        <ele>1166.4</ele>
        <time>2026-07-08T09:29:42Z</time>
      </trkpt>
      <trkpt lat="43.00106" lon="0.31829">
        <ele>1166.4</ele>
        <time>2026-07-08T09:29:43Z</time>
      </trkpt>
      <trkpt lat="43.00106" lon="0.3183">
        <ele>1166.4</ele>
        <time>2026-07-08T09:29:44Z</time>
      </trkpt>
      <trkpt lat="43.00106" lon="0.31831">
        <ele>1167.4</ele>
        <time>2026-07-08T09:29:44Z</time>
      </trkpt>
      <trkpt lat="43.00106" lon="0.31832">
        <ele>1167.4</ele>
        <time>2026-07-08T09:29:45Z</time>
      </trkpt>
      <trkpt lat="43.00106" lon="0.31834">
        <ele>1167.4</ele>
        <time>2026-07-08T09:29:45Z</time>
      </trkpt>
      <trkpt lat="43.00106" lon="0.31835">
        <ele>1167.4</ele>
        <time>2026-07-08T09:29:46Z</time>
      </trkpt>
      <trkpt lat="43.00106" lon="0.31836">
        <ele>1166.4</ele>
        <time>2026-07-08T09:29:46Z</time>
      </trkpt>
      <trkpt lat="43.00107" lon="0.31837">
        <ele>1167.4</ele>
        <time>2026-07-08T09:29:47Z</time>
      </trkpt>
      <trkpt lat="43.00107" lon="0.31838">
        <ele>1167.4</ele>
        <time>2026-07-08T09:29:48Z</time>
      </trkpt>
      <trkpt lat="43.00107" lon="0.31839">
        <ele>1167.4</ele>
        <time>2026-07-08T09:29:48Z</time>
      </trkpt>
      <trkpt lat="43.00107" lon="0.3184">
        <ele>1167.4</ele>
        <time>2026-07-08T09:29:49Z</time>
      </trkpt>
      <trkpt lat="43.00107" lon="0.31842">
        <ele>1168.4</ele>
        <time>2026-07-08T09:29:50Z</time>
      </trkpt>
      <trkpt lat="43.00107" lon="0.31843">
        <ele>1168.4</ele>
        <time>2026-07-08T09:29:50Z</time>
      </trkpt>
      <trkpt lat="43.00107" lon="0.31844">
        <ele>1168.4</ele>
        <time>2026-07-08T09:29:51Z</time>
      </trkpt>
      <trkpt lat="43.00107" lon="0.31845">
        <ele>1168.4</ele>
        <time>2026-07-08T09:29:51Z</time>
      </trkpt>
      <trkpt lat="43.00107" lon="0.31846">
        <ele>1168.4</ele>
        <time>2026-07-08T09:29:52Z</time>
      </trkpt>
      <trkpt lat="43.00107" lon="0.31847">
        <ele>1168.4</ele>
        <time>2026-07-08T09:29:53Z</time>
      </trkpt>
      <trkpt lat="43.00106" lon="0.31848">
        <ele>1168.4</ele>
        <time>2026-07-08T09:29:54Z</time>
      </trkpt>
      <trkpt lat="43.00106" lon="0.31849">
        <ele>1168.4</ele>
        <time>2026-07-08T09:29:54Z</time>
      </trkpt>
      <trkpt lat="43.00106" lon="0.3185">
        <ele>1168.4</ele>
        <time>2026-07-08T09:29:55Z</time>
      </trkpt>
      <trkpt lat="43.00106" lon="0.31851">
        <ele>1168.4</ele>
        <time>2026-07-08T09:29:55Z</time>
      </trkpt>
      <trkpt lat="43.00106" lon="0.31852">
        <ele>1168.4</ele>
        <time>2026-07-08T09:29:56Z</time>
      </trkpt>
      <trkpt lat="43.00106" lon="0.31854">
        <ele>1168.4</ele>
        <time>2026-07-08T09:29:57Z</time>
      </trkpt>
      <trkpt lat="43.00106" lon="0.31855">
        <ele>1168.4</ele>
        <time>2026-07-08T09:29:58Z</time>
      </trkpt>
      <trkpt lat="43.00106" lon="0.31855">
        <ele>1168.4</ele>
        <time>2026-07-08T09:29:58Z</time>
      </trkpt>
      <trkpt lat="43.00105" lon="0.31856">
        <ele>1168.4</ele>
        <time>2026-07-08T09:29:59Z</time>
      </trkpt>
      <trkpt lat="43.00105" lon="0.31857">
        <ele>1168.4</ele>
        <time>2026-07-08T09:30:00Z</time>
      </trkpt>
      <trkpt lat="43.00105" lon="0.31858">
        <ele>1169.4</ele>
        <time>2026-07-08T09:30:00Z</time>
      </trkpt>
      <trkpt lat="43.00105" lon="0.31859">
        <ele>1169.4</ele>
        <time>2026-07-08T09:30:01Z</time>
      </trkpt>
      <trkpt lat="43.00105" lon="0.31859">
        <ele>1168.4</ele>
        <time>2026-07-08T09:30:01Z</time>
      </trkpt>
      <trkpt lat="43.00105" lon="0.3186">
        <ele>1168.4</ele>
        <time>2026-07-08T09:30:02Z</time>
      </trkpt>
      <trkpt lat="43.00105" lon="0.31861">
        <ele>1168.4</ele>
        <time>2026-07-08T09:30:03Z</time>
      </trkpt>
      <trkpt lat="43.00105" lon="0.31861">
        <ele>1168.4</ele>
        <time>2026-07-08T09:30:03Z</time>
      </trkpt>
      <trkpt lat="43.00105" lon="0.31862">
        <ele>1169.4</ele>
        <time>2026-07-08T09:30:04Z</time>
      </trkpt>
      <trkpt lat="43.00106" lon="0.31863">
        <ele>1169.4</ele>
        <time>2026-07-08T09:30:05Z</time>
      </trkpt>
      <trkpt lat="43.00106" lon="0.31864">
        <ele>1169.4</ele>
        <time>2026-07-08T09:30:05Z</time>
      </trkpt>
      <trkpt lat="43.00106" lon="0.31864">
        <ele>1169.4</ele>
        <time>2026-07-08T09:30:06Z</time>
      </trkpt>
      <trkpt lat="43.00106" lon="0.31865">
        <ele>1169.4</ele>
        <time>2026-07-08T09:30:06Z</time>
      </trkpt>
      <trkpt lat="43.00106" lon="0.31866">
        <ele>1169.4</ele>
        <time>2026-07-08T09:30:07Z</time>
      </trkpt>
      <trkpt lat="43.00106" lon="0.31867">
        <ele>1168.4</ele>
        <time>2026-07-08T09:30:08Z</time>
      </trkpt>
      <trkpt lat="43.00106" lon="0.31867">
        <ele>1168.4</ele>
        <time>2026-07-08T09:30:08Z</time>
      </trkpt>
      <trkpt lat="43.00107" lon="0.31868">
        <ele>1168.4</ele>
        <time>2026-07-08T09:30:09Z</time>
      </trkpt>
      <trkpt lat="43.00107" lon="0.31869">
        <ele>1168.4</ele>
        <time>2026-07-08T09:30:09Z</time>
      </trkpt>
      <trkpt lat="43.00107" lon="0.31869">
        <ele>1168.4</ele>
        <time>2026-07-08T09:30:10Z</time>
      </trkpt>
      <trkpt lat="43.00108" lon="0.3187">
        <ele>1169.4</ele>
        <time>2026-07-08T09:30:10Z</time>
      </trkpt>
      <trkpt lat="43.00108" lon="0.31871">
        <ele>1169.4</ele>
        <time>2026-07-08T09:30:11Z</time>
      </trkpt>
      <trkpt lat="43.00108" lon="0.31872">
        <ele>1168.4</ele>
        <time>2026-07-08T09:30:12Z</time>
      </trkpt>
      <trkpt lat="43.00109" lon="0.31873">
        <ele>1168.4</ele>
        <time>2026-07-08T09:30:12Z</time>
      </trkpt>
      <trkpt lat="43.00109" lon="0.31874">
        <ele>1168.4</ele>
        <time>2026-07-08T09:30:13Z</time>
      </trkpt>
      <trkpt lat="43.00109" lon="0.31875">
        <ele>1168.4</ele>
        <time>2026-07-08T09:30:14Z</time>
      </trkpt>
      <trkpt lat="43.00109" lon="0.31876">
        <ele>1169.4</ele>
        <time>2026-07-08T09:30:15Z</time>
      </trkpt>
      <trkpt lat="43.00109" lon="0.31877">
        <ele>1168.4</ele>
        <time>2026-07-08T09:30:15Z</time>
      </trkpt>
      <trkpt lat="43.00109" lon="0.31878">
        <ele>1168.4</ele>
        <time>2026-07-08T09:30:16Z</time>
      </trkpt>
      <trkpt lat="43.00109" lon="0.31879">
        <ele>1168.4</ele>
        <time>2026-07-08T09:30:16Z</time>
      </trkpt>
      <trkpt lat="43.00109" lon="0.3188">
        <ele>1168.4</ele>
        <time>2026-07-08T09:30:17Z</time>
      </trkpt>
      <trkpt lat="43.00109" lon="0.31881">
        <ele>1168.4</ele>
        <time>2026-07-08T09:30:18Z</time>
      </trkpt>
      <trkpt lat="43.00109" lon="0.31882">
        <ele>1168.4</ele>
        <time>2026-07-08T09:30:18Z</time>
      </trkpt>
      <trkpt lat="43.00109" lon="0.31883">
        <ele>1168.4</ele>
        <time>2026-07-08T09:30:19Z</time>
      </trkpt>
      <trkpt lat="43.00109" lon="0.31884">
        <ele>1168.4</ele>
        <time>2026-07-08T09:30:19Z</time>
      </trkpt>
      <trkpt lat="43.00109" lon="0.31885">
        <ele>1168.4</ele>
        <time>2026-07-08T09:30:20Z</time>
      </trkpt>
      <trkpt lat="43.00109" lon="0.31886">
        <ele>1168.4</ele>
        <time>2026-07-08T09:30:21Z</time>
      </trkpt>
      <trkpt lat="43.00109" lon="0.31887">
        <ele>1167.4</ele>
        <time>2026-07-08T09:30:21Z</time>
      </trkpt>
      <trkpt lat="43.00109" lon="0.31888">
        <ele>1167.4</ele>
        <time>2026-07-08T09:30:22Z</time>
      </trkpt>
      <trkpt lat="43.00109" lon="0.31889">
        <ele>1167.4</ele>
        <time>2026-07-08T09:30:23Z</time>
      </trkpt>
      <trkpt lat="43.00109" lon="0.31889">
        <ele>1166.4</ele>
        <time>2026-07-08T09:30:23Z</time>
      </trkpt>
      <trkpt lat="43.00109" lon="0.3189">
        <ele>1166.4</ele>
        <time>2026-07-08T09:30:24Z</time>
      </trkpt>
      <trkpt lat="43.00109" lon="0.31891">
        <ele>1166.4</ele>
        <time>2026-07-08T09:30:24Z</time>
      </trkpt>
      <trkpt lat="43.00109" lon="0.31892">
        <ele>1166.4</ele>
        <time>2026-07-08T09:30:25Z</time>
      </trkpt>
      <trkpt lat="43.00109" lon="0.31893">
        <ele>1167.4</ele>
        <time>2026-07-08T09:30:26Z</time>
      </trkpt>
      <trkpt lat="43.00109" lon="0.31895">
        <ele>1166.4</ele>
        <time>2026-07-08T09:30:27Z</time>
      </trkpt>
      <trkpt lat="43.00109" lon="0.31896">
        <ele>1166.4</ele>
        <time>2026-07-08T09:30:28Z</time>
      </trkpt>
      <trkpt lat="43.00109" lon="0.31896">
        <ele>1166.4</ele>
        <time>2026-07-08T09:30:28Z</time>
      </trkpt>
      <trkpt lat="43.00109" lon="0.31897">
        <ele>1166.4</ele>
        <time>2026-07-08T09:30:29Z</time>
      </trkpt>
      <trkpt lat="43.00109" lon="0.31899">
        <ele>1167.4</ele>
        <time>2026-07-08T09:30:30Z</time>
      </trkpt>
      <trkpt lat="43.00109" lon="0.319">
        <ele>1167.4</ele>
        <time>2026-07-08T09:30:31Z</time>
      </trkpt>
      <trkpt lat="43.00109" lon="0.319">
        <ele>1166.4</ele>
        <time>2026-07-08T09:30:31Z</time>
      </trkpt>
      <trkpt lat="43.00109" lon="0.31901">
        <ele>1166.4</ele>
        <time>2026-07-08T09:30:32Z</time>
      </trkpt>
      <trkpt lat="43.00108" lon="0.31902">
        <ele>1166.4</ele>
        <time>2026-07-08T09:30:33Z</time>
      </trkpt>
      <trkpt lat="43.00108" lon="0.31902">
        <ele>1165.4</ele>
        <time>2026-07-08T09:30:33Z</time>
      </trkpt>
      <trkpt lat="43.00108" lon="0.31903">
        <ele>1165.4</ele>
        <time>2026-07-08T09:30:34Z</time>
      </trkpt>
      <trkpt lat="43.00109" lon="0.31904">
        <ele>1165.4</ele>
        <time>2026-07-08T09:30:34Z</time>
      </trkpt>
      <trkpt lat="43.00109" lon="0.31905">
        <ele>1165.4</ele>
        <time>2026-07-08T09:30:35Z</time>
      </trkpt>
      <trkpt lat="43.00109" lon="0.31906">
        <ele>1165.4</ele>
        <time>2026-07-08T09:30:36Z</time>
      </trkpt>
      <trkpt lat="43.00109" lon="0.31907">
        <ele>1165.4</ele>
        <time>2026-07-08T09:30:36Z</time>
      </trkpt>
      <trkpt lat="43.00109" lon="0.31908">
        <ele>1165.4</ele>
        <time>2026-07-08T09:30:37Z</time>
      </trkpt>
      <trkpt lat="43.00109" lon="0.31908">
        <ele>1165.4</ele>
        <time>2026-07-08T09:30:37Z</time>
      </trkpt>
      <trkpt lat="43.00109" lon="0.31909">
        <ele>1165.4</ele>
        <time>2026-07-08T09:30:38Z</time>
      </trkpt>
      <trkpt lat="43.00109" lon="0.3191">
        <ele>1165.4</ele>
        <time>2026-07-08T09:30:39Z</time>
      </trkpt>
      <trkpt lat="43.00109" lon="0.31911">
        <ele>1165.4</ele>
        <time>2026-07-08T09:30:39Z</time>
      </trkpt>
      <trkpt lat="43.00109" lon="0.31912">
        <ele>1165.4</ele>
        <time>2026-07-08T09:30:40Z</time>
      </trkpt>
      <trkpt lat="43.00109" lon="0.31913">
        <ele>1165.4</ele>
        <time>2026-07-08T09:30:41Z</time>
      </trkpt>
      <trkpt lat="43.00109" lon="0.31913">
        <ele>1166.4</ele>
        <time>2026-07-08T09:30:41Z</time>
      </trkpt>
      <trkpt lat="43.00109" lon="0.31914">
        <ele>1166.4</ele>
        <time>2026-07-08T09:30:42Z</time>
      </trkpt>
      <trkpt lat="43.00109" lon="0.31915">
        <ele>1166.4</ele>
        <time>2026-07-08T09:30:42Z</time>
      </trkpt>
      <trkpt lat="43.00108" lon="0.31916">
        <ele>1166.4</ele>
        <time>2026-07-08T09:30:43Z</time>
      </trkpt>
      <trkpt lat="43.00108" lon="0.31917">
        <ele>1166.4</ele>
        <time>2026-07-08T09:30:44Z</time>
      </trkpt>
      <trkpt lat="43.00109" lon="0.31918">
        <ele>1165.4</ele>
        <time>2026-07-08T09:30:44Z</time>
      </trkpt>
      <trkpt lat="43.00109" lon="0.31919">
        <ele>1165.4</ele>
        <time>2026-07-08T09:30:45Z</time>
      </trkpt>
      <trkpt lat="43.00109" lon="0.31919">
        <ele>1165.4</ele>
        <time>2026-07-08T09:30:45Z</time>
      </trkpt>
      <trkpt lat="43.00109" lon="0.3192">
        <ele>1165.4</ele>
        <time>2026-07-08T09:30:46Z</time>
      </trkpt>
      <trkpt lat="43.0011" lon="0.31921">
        <ele>1165.4</ele>
        <time>2026-07-08T09:30:47Z</time>
      </trkpt>
      <trkpt lat="43.0011" lon="0.31921">
        <ele>1165.4</ele>
        <time>2026-07-08T09:30:47Z</time>
      </trkpt>
      <trkpt lat="43.0011" lon="0.31922">
        <ele>1165.4</ele>
        <time>2026-07-08T09:30:48Z</time>
      </trkpt>
      <trkpt lat="43.0011" lon="0.31923">
        <ele>1166.4</ele>
        <time>2026-07-08T09:30:48Z</time>
      </trkpt>
      <trkpt lat="43.0011" lon="0.31924">
        <ele>1166.4</ele>
        <time>2026-07-08T09:30:49Z</time>
      </trkpt>
      <trkpt lat="43.00111" lon="0.31924">
        <ele>1165.4</ele>
        <time>2026-07-08T09:30:49Z</time>
      </trkpt>
      <trkpt lat="43.00111" lon="0.31925">
        <ele>1165.4</ele>
        <time>2026-07-08T09:30:50Z</time>
      </trkpt>
      <trkpt lat="43.00111" lon="0.31926">
        <ele>1165.4</ele>
        <time>2026-07-08T09:30:51Z</time>
      </trkpt>
      <trkpt lat="43.00111" lon="0.31926">
        <ele>1166.4</ele>
        <time>2026-07-08T09:30:51Z</time>
      </trkpt>
      <trkpt lat="43.00111" lon="0.31927">
        <ele>1166.4</ele>
        <time>2026-07-08T09:30:52Z</time>
      </trkpt>
      <trkpt lat="43.00112" lon="0.31928">
        <ele>1167.4</ele>
        <time>2026-07-08T09:30:52Z</time>
      </trkpt>
      <trkpt lat="43.00112" lon="0.31929">
        <ele>1167.4</ele>
        <time>2026-07-08T09:30:53Z</time>
      </trkpt>
      <trkpt lat="43.00112" lon="0.31929">
        <ele>1167.4</ele>
        <time>2026-07-08T09:30:54Z</time>
      </trkpt>
      <trkpt lat="43.00112" lon="0.3193">
        <ele>1167.4</ele>
        <time>2026-07-08T09:30:54Z</time>
      </trkpt>
      <trkpt lat="43.00112" lon="0.31931">
        <ele>1167.4</ele>
        <time>2026-07-08T09:30:55Z</time>
      </trkpt>
      <trkpt lat="43.00112" lon="0.31932">
        <ele>1167.4</ele>
        <time>2026-07-08T09:30:55Z</time>
      </trkpt>
      <trkpt lat="43.00112" lon="0.31932">
        <ele>1167.4</ele>
        <time>2026-07-08T09:30:56Z</time>
      </trkpt>
      <trkpt lat="43.00112" lon="0.31933">
        <ele>1167.4</ele>
        <time>2026-07-08T09:30:57Z</time>
      </trkpt>
      <trkpt lat="43.00112" lon="0.31934">
        <ele>1168.4</ele>
        <time>2026-07-08T09:30:57Z</time>
      </trkpt>
      <trkpt lat="43.00113" lon="0.31935">
        <ele>1168.4</ele>
        <time>2026-07-08T09:30:58Z</time>
      </trkpt>
      <trkpt lat="43.00113" lon="0.31935">
        <ele>1168.4</ele>
        <time>2026-07-08T09:30:58Z</time>
      </trkpt>
      <trkpt lat="43.00113" lon="0.31936">
        <ele>1168.4</ele>
        <time>2026-07-08T09:30:59Z</time>
      </trkpt>
      <trkpt lat="43.00113" lon="0.31937">
        <ele>1168.4</ele>
        <time>2026-07-08T09:31:00Z</time>
      </trkpt>
      <trkpt lat="43.00113" lon="0.31938">
        <ele>1168.4</ele>
        <time>2026-07-08T09:31:00Z</time>
      </trkpt>
      <trkpt lat="43.00113" lon="0.31939">
        <ele>1168.4</ele>
        <time>2026-07-08T09:31:01Z</time>
      </trkpt>
      <trkpt lat="43.00113" lon="0.31939">
        <ele>1168.4</ele>
        <time>2026-07-08T09:31:01Z</time>
      </trkpt>
      <trkpt lat="43.00113" lon="0.3194">
        <ele>1168.4</ele>
        <time>2026-07-08T09:31:02Z</time>
      </trkpt>
      <trkpt lat="43.00113" lon="0.31941">
        <ele>1168.4</ele>
        <time>2026-07-08T09:31:03Z</time>
      </trkpt>
      <trkpt lat="43.00113" lon="0.31942">
        <ele>1168.4</ele>
        <time>2026-07-08T09:31:03Z</time>
      </trkpt>
      <trkpt lat="43.00113" lon="0.31943">
        <ele>1168.4</ele>
        <time>2026-07-08T09:31:04Z</time>
      </trkpt>
      <trkpt lat="43.00113" lon="0.31944">
        <ele>1168.4</ele>
        <time>2026-07-08T09:31:04Z</time>
      </trkpt>
      <trkpt lat="43.00113" lon="0.31945">
        <ele>1168.4</ele>
        <time>2026-07-08T09:31:05Z</time>
      </trkpt>
      <trkpt lat="43.00113" lon="0.31945">
        <ele>1168.4</ele>
        <time>2026-07-08T09:31:06Z</time>
      </trkpt>
      <trkpt lat="43.00112" lon="0.31946">
        <ele>1168.4</ele>
        <time>2026-07-08T09:31:06Z</time>
      </trkpt>
      <trkpt lat="43.00112" lon="0.31947">
        <ele>1168.4</ele>
        <time>2026-07-08T09:31:07Z</time>
      </trkpt>
      <trkpt lat="43.00112" lon="0.31948">
        <ele>1168.4</ele>
        <time>2026-07-08T09:31:07Z</time>
      </trkpt>
      <trkpt lat="43.00112" lon="0.31948">
        <ele>1168.4</ele>
        <time>2026-07-08T09:31:08Z</time>
      </trkpt>
      <trkpt lat="43.00112" lon="0.31949">
        <ele>1168.4</ele>
        <time>2026-07-08T09:31:09Z</time>
      </trkpt>
      <trkpt lat="43.00111" lon="0.3195">
        <ele>1169.4</ele>
        <time>2026-07-08T09:31:09Z</time>
      </trkpt>
      <trkpt lat="43.00111" lon="0.31951">
        <ele>1169.4</ele>
        <time>2026-07-08T09:31:10Z</time>
      </trkpt>
      <trkpt lat="43.00111" lon="0.31952">
        <ele>1168.4</ele>
        <time>2026-07-08T09:31:11Z</time>
      </trkpt>
      <trkpt lat="43.00111" lon="0.31952">
        <ele>1168.4</ele>
        <time>2026-07-08T09:31:11Z</time>
      </trkpt>
      <trkpt lat="43.0011" lon="0.31954">
        <ele>1168.4</ele>
        <time>2026-07-08T09:31:12Z</time>
      </trkpt>
      <trkpt lat="43.0011" lon="0.31954">
        <ele>1168.4</ele>
        <time>2026-07-08T09:31:13Z</time>
      </trkpt>
      <trkpt lat="43.00109" lon="0.31955">
        <ele>1169.4</ele>
        <time>2026-07-08T09:31:13Z</time>
      </trkpt>
      <trkpt lat="43.00109" lon="0.31956">
        <ele>1169.4</ele>
        <time>2026-07-08T09:31:14Z</time>
      </trkpt>
      <trkpt lat="43.00109" lon="0.31956">
        <ele>1169.4</ele>
        <time>2026-07-08T09:31:14Z</time>
      </trkpt>
      <trkpt lat="43.00109" lon="0.31957">
        <ele>1169.4</ele>
        <time>2026-07-08T09:31:15Z</time>
      </trkpt>
      <trkpt lat="43.00109" lon="0.31958">
        <ele>1169.4</ele>
        <time>2026-07-08T09:31:16Z</time>
      </trkpt>
      <trkpt lat="43.00109" lon="0.31959">
        <ele>1169.4</ele>
        <time>2026-07-08T09:31:16Z</time>
      </trkpt>
      <trkpt lat="43.00109" lon="0.3196">
        <ele>1168.4</ele>
        <time>2026-07-08T09:31:17Z</time>
      </trkpt>
      <trkpt lat="43.00109" lon="0.31961">
        <ele>1168.4</ele>
        <time>2026-07-08T09:31:18Z</time>
      </trkpt>
      <trkpt lat="43.00109" lon="0.31962">
        <ele>1167.4</ele>
        <time>2026-07-08T09:31:19Z</time>
      </trkpt>
      <trkpt lat="43.00109" lon="0.31963">
        <ele>1167.4</ele>
        <time>2026-07-08T09:31:20Z</time>
      </trkpt>
      <trkpt lat="43.00109" lon="0.31964">
        <ele>1167.4</ele>
        <time>2026-07-08T09:31:20Z</time>
      </trkpt>
      <trkpt lat="43.00109" lon="0.31964">
        <ele>1167.4</ele>
        <time>2026-07-08T09:31:21Z</time>
      </trkpt>
      <trkpt lat="43.00109" lon="0.31965">
        <ele>1166.4</ele>
        <time>2026-07-08T09:31:22Z</time>
      </trkpt>
      <trkpt lat="43.0011" lon="0.31966">
        <ele>1166.4</ele>
        <time>2026-07-08T09:31:23Z</time>
      </trkpt>
      <trkpt lat="43.0011" lon="0.31966">
        <ele>1165.4</ele>
        <time>2026-07-08T09:31:23Z</time>
      </trkpt>
      <trkpt lat="43.0011" lon="0.31967">
        <ele>1165.4</ele>
        <time>2026-07-08T09:31:24Z</time>
      </trkpt>
      <trkpt lat="43.00111" lon="0.31968">
        <ele>1164.4</ele>
        <time>2026-07-08T09:31:25Z</time>
      </trkpt>
      <trkpt lat="43.00111" lon="0.31969">
        <ele>1164.4</ele>
        <time>2026-07-08T09:31:25Z</time>
      </trkpt>
      <trkpt lat="43.00111" lon="0.31969">
        <ele>1164.4</ele>
        <time>2026-07-08T09:31:26Z</time>
      </trkpt>
      <trkpt lat="43.00111" lon="0.31971">
        <ele>1166.4</ele>
        <time>2026-07-08T09:31:27Z</time>
      </trkpt>
      <trkpt lat="43.00111" lon="0.31972">
        <ele>1167.4</ele>
        <time>2026-07-08T09:31:28Z</time>
      </trkpt>
      <trkpt lat="43.00111" lon="0.31972">
        <ele>1167.4</ele>
        <time>2026-07-08T09:31:29Z</time>
      </trkpt>
      <trkpt lat="43.00111" lon="0.31972">
        <ele>1167.4</ele>
        <time>2026-07-08T09:31:30Z</time>
      </trkpt>
      <trkpt lat="43.00111" lon="0.31972">
        <ele>1167.4</ele>
        <time>2026-07-08T09:31:31Z</time>
      </trkpt>
      <trkpt lat="43.00111" lon="0.31971">
        <ele>1167.4</ele>
        <time>2026-07-08T09:31:32Z</time>
      </trkpt>
      <trkpt lat="43.00111" lon="0.31972">
        <ele>1170.4</ele>
        <time>2026-07-08T09:31:33Z</time>
      </trkpt>
      <trkpt lat="43.00111" lon="0.31972">
        <ele>1170.4</ele>
        <time>2026-07-08T09:31:34Z</time>
      </trkpt>
      <trkpt lat="43.00112" lon="0.31973">
        <ele>1170.4</ele>
        <time>2026-07-08T09:31:35Z</time>
      </trkpt>
      <trkpt lat="43.00112" lon="0.31973">
        <ele>1170.4</ele>
        <time>2026-07-08T09:31:35Z</time>
      </trkpt>
      <trkpt lat="43.00112" lon="0.31973">
        <ele>1170.4</ele>
        <time>2026-07-08T09:31:36Z</time>
      </trkpt>
      <trkpt lat="43.00112" lon="0.31973">
        <ele>1170.4</ele>
        <time>2026-07-08T09:31:37Z</time>
      </trkpt>
      <trkpt lat="43.00112" lon="0.31973">
        <ele>1170.4</ele>
        <time>2026-07-08T09:31:38Z</time>
      </trkpt>
      <trkpt lat="43.00112" lon="0.31974">
        <ele>1170.4</ele>
        <time>2026-07-08T09:31:39Z</time>
      </trkpt>
      <trkpt lat="43.00112" lon="0.31974">
        <ele>1170.4</ele>
        <time>2026-07-08T09:31:40Z</time>
      </trkpt>
      <trkpt lat="43.00112" lon="0.31974">
        <ele>1170.4</ele>
        <time>2026-07-08T09:31:41Z</time>
      </trkpt>
      <trkpt lat="43.00112" lon="0.31974">
        <ele>1170.4</ele>
        <time>2026-07-08T09:31:42Z</time>
      </trkpt>
      <trkpt lat="43.00112" lon="0.31974">
        <ele>1175.4</ele>
        <time>2026-07-08T09:31:43Z</time>
      </trkpt>
      <trkpt lat="43.00112" lon="0.31974">
        <ele>1175.4</ele>
        <time>2026-07-08T09:31:44Z</time>
      </trkpt>
      <trkpt lat="43.00113" lon="0.31975">
        <ele>1175.4</ele>
        <time>2026-07-08T09:31:44Z</time>
      </trkpt>
      <trkpt lat="43.00113" lon="0.31976">
        <ele>1176.4</ele>
        <time>2026-07-08T09:31:45Z</time>
      </trkpt>
      <trkpt lat="43.00112" lon="0.31976">
        <ele>1177.4</ele>
        <time>2026-07-08T09:31:46Z</time>
      </trkpt>
      <trkpt lat="43.00112" lon="0.31977">
        <ele>1177.4</ele>
        <time>2026-07-08T09:31:47Z</time>
      </trkpt>
      <trkpt lat="43.00112" lon="0.31979">
        <ele>1177.4</ele>
        <time>2026-07-08T09:31:48Z</time>
      </trkpt>
      <trkpt lat="43.00112" lon="0.3198">
        <ele>1177.4</ele>
        <time>2026-07-08T09:31:49Z</time>
      </trkpt>
      <trkpt lat="43.00112" lon="0.3198">
        <ele>1177.4</ele>
        <time>2026-07-08T09:31:50Z</time>
      </trkpt>
      <trkpt lat="43.00112" lon="0.31981">
        <ele>1177.4</ele>
        <time>2026-07-08T09:31:51Z</time>
      </trkpt>
      <trkpt lat="43.00112" lon="0.31981">
        <ele>1177.4</ele>
        <time>2026-07-08T09:31:52Z</time>
      </trkpt>
      <trkpt lat="43.00112" lon="0.31981">
        <ele>1177.4</ele>
        <time>2026-07-08T09:31:52Z</time>
      </trkpt>
      <trkpt lat="43.00112" lon="0.31982">
        <ele>1180.4</ele>
        <time>2026-07-08T09:31:53Z</time>
      </trkpt>
      <trkpt lat="43.00112" lon="0.31982">
        <ele>1180.4</ele>
        <time>2026-07-08T09:31:54Z</time>
      </trkpt>
      <trkpt lat="43.00112" lon="0.31984">
        <ele>1180.4</ele>
        <time>2026-07-08T09:31:54Z</time>
      </trkpt>
      <trkpt lat="43.00112" lon="0.31984">
        <ele>1180.4</ele>
        <time>2026-07-08T09:31:55Z</time>
      </trkpt>
      <trkpt lat="43.00111" lon="0.31986">
        <ele>1181.4</ele>
        <time>2026-07-08T09:31:55Z</time>
      </trkpt>
      <trkpt lat="43.0011" lon="0.31987">
        <ele>1181.4</ele>
        <time>2026-07-08T09:31:56Z</time>
      </trkpt>
      <trkpt lat="43.0011" lon="0.31988">
        <ele>1181.4</ele>
        <time>2026-07-08T09:31:56Z</time>
      </trkpt>
      <trkpt lat="43.0011" lon="0.31989">
        <ele>1182.4</ele>
        <time>2026-07-08T09:31:57Z</time>
      </trkpt>
      <trkpt lat="43.00109" lon="0.3199">
        <ele>1182.4</ele>
        <time>2026-07-08T09:31:58Z</time>
      </trkpt>
      <trkpt lat="43.00109" lon="0.31992">
        <ele>1183.4</ele>
        <time>2026-07-08T09:31:59Z</time>
      </trkpt>
      <trkpt lat="43.00109" lon="0.31994">
        <ele>1183.4</ele>
        <time>2026-07-08T09:32:00Z</time>
      </trkpt>
      <trkpt lat="43.00109" lon="0.31995">
        <ele>1184.4</ele>
        <time>2026-07-08T09:32:00Z</time>
      </trkpt>
      <trkpt lat="43.00109" lon="0.31996">
        <ele>1183.4</ele>
        <time>2026-07-08T09:32:01Z</time>
      </trkpt>
      <trkpt lat="43.00109" lon="0.31998">
        <ele>1183.4</ele>
        <time>2026-07-08T09:32:02Z</time>
      </trkpt>
      <trkpt lat="43.00109" lon="0.31999">
        <ele>1183.4</ele>
        <time>2026-07-08T09:32:03Z</time>
      </trkpt>
      <trkpt lat="43.00109" lon="0.32">
        <ele>1183.4</ele>
        <time>2026-07-08T09:32:03Z</time>
      </trkpt>
      <trkpt lat="43.00108" lon="0.32001">
        <ele>1183.4</ele>
        <time>2026-07-08T09:32:04Z</time>
      </trkpt>
      <trkpt lat="43.00108" lon="0.32002">
        <ele>1183.4</ele>
        <time>2026-07-08T09:32:04Z</time>
      </trkpt>
      <trkpt lat="43.00108" lon="0.32003">
        <ele>1183.4</ele>
        <time>2026-07-08T09:32:05Z</time>
      </trkpt>
      <trkpt lat="43.00108" lon="0.32003">
        <ele>1184.4</ele>
        <time>2026-07-08T09:32:06Z</time>
      </trkpt>
      <trkpt lat="43.00108" lon="0.32004">
        <ele>1184.4</ele>
        <time>2026-07-08T09:32:06Z</time>
      </trkpt>
      <trkpt lat="43.00107" lon="0.32005">
        <ele>1183.4</ele>
        <time>2026-07-08T09:32:07Z</time>
      </trkpt>
      <trkpt lat="43.00107" lon="0.32006">
        <ele>1184.4</ele>
        <time>2026-07-08T09:32:07Z</time>
      </trkpt>
      <trkpt lat="43.00107" lon="0.32007">
        <ele>1184.4</ele>
        <time>2026-07-08T09:32:08Z</time>
      </trkpt>
      <trkpt lat="43.00107" lon="0.32008">
        <ele>1184.4</ele>
        <time>2026-07-08T09:32:08Z</time>
      </trkpt>
      <trkpt lat="43.00107" lon="0.32009">
        <ele>1184.4</ele>
        <time>2026-07-08T09:32:09Z</time>
      </trkpt>
      <trkpt lat="43.00107" lon="0.3201">
        <ele>1184.4</ele>
        <time>2026-07-08T09:32:10Z</time>
      </trkpt>
      <trkpt lat="43.00107" lon="0.3201">
        <ele>1184.4</ele>
        <time>2026-07-08T09:32:10Z</time>
      </trkpt>
      <trkpt lat="43.00106" lon="0.32011">
        <ele>1184.4</ele>
        <time>2026-07-08T09:32:11Z</time>
      </trkpt>
      <trkpt lat="43.00106" lon="0.32012">
        <ele>1184.4</ele>
        <time>2026-07-08T09:32:12Z</time>
      </trkpt>
      <trkpt lat="43.00106" lon="0.32013">
        <ele>1185.4</ele>
        <time>2026-07-08T09:32:12Z</time>
      </trkpt>
      <trkpt lat="43.00106" lon="0.32014">
        <ele>1185.4</ele>
        <time>2026-07-08T09:32:13Z</time>
      </trkpt>
      <trkpt lat="43.00106" lon="0.32015">
        <ele>1185.4</ele>
        <time>2026-07-08T09:32:13Z</time>
      </trkpt>
      <trkpt lat="43.00106" lon="0.32015">
        <ele>1185.4</ele>
        <time>2026-07-08T09:32:14Z</time>
      </trkpt>
      <trkpt lat="43.00105" lon="0.32016">
        <ele>1185.4</ele>
        <time>2026-07-08T09:32:15Z</time>
      </trkpt>
      <trkpt lat="43.00105" lon="0.32018">
        <ele>1185.4</ele>
        <time>2026-07-08T09:32:16Z</time>
      </trkpt>
      <trkpt lat="43.00105" lon="0.32019">
        <ele>1186.4</ele>
        <time>2026-07-08T09:32:17Z</time>
      </trkpt>
      <trkpt lat="43.00105" lon="0.3202">
        <ele>1185.4</ele>
        <time>2026-07-08T09:32:17Z</time>
      </trkpt>
      <trkpt lat="43.00104" lon="0.32021">
        <ele>1185.4</ele>
        <time>2026-07-08T09:32:18Z</time>
      </trkpt>
      <trkpt lat="43.00104" lon="0.32023">
        <ele>1186.4</ele>
        <time>2026-07-08T09:32:18Z</time>
      </trkpt>
      <trkpt lat="43.00104" lon="0.32024">
        <ele>1186.4</ele>
        <time>2026-07-08T09:32:19Z</time>
      </trkpt>
      <trkpt lat="43.00104" lon="0.32025">
        <ele>1187.4</ele>
        <time>2026-07-08T09:32:19Z</time>
      </trkpt>
      <trkpt lat="43.00103" lon="0.32026">
        <ele>1186.4</ele>
        <time>2026-07-08T09:32:20Z</time>
      </trkpt>
      <trkpt lat="43.00103" lon="0.32027">
        <ele>1186.4</ele>
        <time>2026-07-08T09:32:20Z</time>
      </trkpt>
      <trkpt lat="43.00103" lon="0.32027">
        <ele>1186.4</ele>
        <time>2026-07-08T09:32:21Z</time>
      </trkpt>
      <trkpt lat="43.00103" lon="0.32028">
        <ele>1187.4</ele>
        <time>2026-07-08T09:32:22Z</time>
      </trkpt>
      <trkpt lat="43.00102" lon="0.32029">
        <ele>1187.4</ele>
        <time>2026-07-08T09:32:22Z</time>
      </trkpt>
      <trkpt lat="43.00102" lon="0.3203">
        <ele>1187.4</ele>
        <time>2026-07-08T09:32:23Z</time>
      </trkpt>
      <trkpt lat="43.00102" lon="0.32032">
        <ele>1187.4</ele>
        <time>2026-07-08T09:32:24Z</time>
      </trkpt>
      <trkpt lat="43.00102" lon="0.32033">
        <ele>1187.4</ele>
        <time>2026-07-08T09:32:25Z</time>
      </trkpt>
      <trkpt lat="43.00102" lon="0.32033">
        <ele>1187.4</ele>
        <time>2026-07-08T09:32:25Z</time>
      </trkpt>
      <trkpt lat="43.00101" lon="0.32034">
        <ele>1187.4</ele>
        <time>2026-07-08T09:32:26Z</time>
      </trkpt>
      <trkpt lat="43.00101" lon="0.32035">
        <ele>1187.4</ele>
        <time>2026-07-08T09:32:26Z</time>
      </trkpt>
      <trkpt lat="43.00101" lon="0.32036">
        <ele>1187.4</ele>
        <time>2026-07-08T09:32:27Z</time>
      </trkpt>
      <trkpt lat="43.00101" lon="0.32037">
        <ele>1187.4</ele>
        <time>2026-07-08T09:32:27Z</time>
      </trkpt>
      <trkpt lat="43.001" lon="0.32038">
        <ele>1187.4</ele>
        <time>2026-07-08T09:32:28Z</time>
      </trkpt>
      <trkpt lat="43.001" lon="0.32039">
        <ele>1187.4</ele>
        <time>2026-07-08T09:32:29Z</time>
      </trkpt>
      <trkpt lat="43.001" lon="0.3204">
        <ele>1187.4</ele>
        <time>2026-07-08T09:32:29Z</time>
      </trkpt>
      <trkpt lat="43.00099" lon="0.32041">
        <ele>1187.4</ele>
        <time>2026-07-08T09:32:30Z</time>
      </trkpt>
      <trkpt lat="43.00099" lon="0.32041">
        <ele>1187.4</ele>
        <time>2026-07-08T09:32:30Z</time>
      </trkpt>
      <trkpt lat="43.00099" lon="0.32042">
        <ele>1187.4</ele>
        <time>2026-07-08T09:32:31Z</time>
      </trkpt>
      <trkpt lat="43.00099" lon="0.32043">
        <ele>1188.4</ele>
        <time>2026-07-08T09:32:32Z</time>
      </trkpt>
      <trkpt lat="43.00098" lon="0.32044">
        <ele>1188.4</ele>
        <time>2026-07-08T09:32:33Z</time>
      </trkpt>
      <trkpt lat="43.00098" lon="0.32045">
        <ele>1188.4</ele>
        <time>2026-07-08T09:32:33Z</time>
      </trkpt>
      <trkpt lat="43.00098" lon="0.32046">
        <ele>1188.4</ele>
        <time>2026-07-08T09:32:34Z</time>
      </trkpt>
      <trkpt lat="43.00098" lon="0.32046">
        <ele>1188.4</ele>
        <time>2026-07-08T09:32:34Z</time>
      </trkpt>
      <trkpt lat="43.00098" lon="0.32047">
        <ele>1188.4</ele>
        <time>2026-07-08T09:32:35Z</time>
      </trkpt>
      <trkpt lat="43.00097" lon="0.32048">
        <ele>1187.4</ele>
        <time>2026-07-08T09:32:36Z</time>
      </trkpt>
      <trkpt lat="43.00097" lon="0.3205">
        <ele>1187.4</ele>
        <time>2026-07-08T09:32:37Z</time>
      </trkpt>
      <trkpt lat="43.00097" lon="0.32051">
        <ele>1187.4</ele>
        <time>2026-07-08T09:32:38Z</time>
      </trkpt>
      <trkpt lat="43.00097" lon="0.32051">
        <ele>1186.4</ele>
        <time>2026-07-08T09:32:38Z</time>
      </trkpt>
      <trkpt lat="43.00096" lon="0.32052">
        <ele>1186.4</ele>
        <time>2026-07-08T09:32:39Z</time>
      </trkpt>
      <trkpt lat="43.00096" lon="0.32052">
        <ele>1187.4</ele>
        <time>2026-07-08T09:32:39Z</time>
      </trkpt>
      <trkpt lat="43.00096" lon="0.32053">
        <ele>1187.4</ele>
        <time>2026-07-08T09:32:40Z</time>
      </trkpt>
      <trkpt lat="43.00096" lon="0.32054">
        <ele>1186.4</ele>
        <time>2026-07-08T09:32:41Z</time>
      </trkpt>
      <trkpt lat="43.00096" lon="0.32055">
        <ele>1186.4</ele>
        <time>2026-07-08T09:32:41Z</time>
      </trkpt>
      <trkpt lat="43.00096" lon="0.32056">
        <ele>1186.4</ele>
        <time>2026-07-08T09:32:42Z</time>
      </trkpt>
      <trkpt lat="43.00096" lon="0.32058">
        <ele>1186.4</ele>
        <time>2026-07-08T09:32:42Z</time>
      </trkpt>
      <trkpt lat="43.00096" lon="0.32059">
        <ele>1186.4</ele>
        <time>2026-07-08T09:32:43Z</time>
      </trkpt>
      <trkpt lat="43.00097" lon="0.32061">
        <ele>1186.4</ele>
        <time>2026-07-08T09:32:43Z</time>
      </trkpt>
      <trkpt lat="43.00097" lon="0.32063">
        <ele>1186.4</ele>
        <time>2026-07-08T09:32:44Z</time>
      </trkpt>
      <trkpt lat="43.00097" lon="0.32064">
        <ele>1186.4</ele>
        <time>2026-07-08T09:32:45Z</time>
      </trkpt>
      <trkpt lat="43.00096" lon="0.32066">
        <ele>1186.4</ele>
        <time>2026-07-08T09:32:46Z</time>
      </trkpt>
      <trkpt lat="43.00097" lon="0.32066">
        <ele>1186.4</ele>
        <time>2026-07-08T09:32:46Z</time>
      </trkpt>
      <trkpt lat="43.00097" lon="0.32068">
        <ele>1186.4</ele>
        <time>2026-07-08T09:32:47Z</time>
      </trkpt>
      <trkpt lat="43.00097" lon="0.32068">
        <ele>1185.4</ele>
        <time>2026-07-08T09:32:47Z</time>
      </trkpt>
      <trkpt lat="43.00097" lon="0.32069">
        <ele>1185.4</ele>
        <time>2026-07-08T09:32:48Z</time>
      </trkpt>
      <trkpt lat="43.00097" lon="0.3207">
        <ele>1185.4</ele>
        <time>2026-07-08T09:32:49Z</time>
      </trkpt>
      <trkpt lat="43.00097" lon="0.32071">
        <ele>1185.4</ele>
        <time>2026-07-08T09:32:49Z</time>
      </trkpt>
      <trkpt lat="43.00096" lon="0.32072">
        <ele>1185.4</ele>
        <time>2026-07-08T09:32:50Z</time>
      </trkpt>
      <trkpt lat="43.00096" lon="0.32072">
        <ele>1186.4</ele>
        <time>2026-07-08T09:32:50Z</time>
      </trkpt>
      <trkpt lat="43.00096" lon="0.32073">
        <ele>1185.4</ele>
        <time>2026-07-08T09:32:51Z</time>
      </trkpt>
      <trkpt lat="43.00096" lon="0.32074">
        <ele>1185.4</ele>
        <time>2026-07-08T09:32:52Z</time>
      </trkpt>
      <trkpt lat="43.00096" lon="0.32075">
        <ele>1185.4</ele>
        <time>2026-07-08T09:32:52Z</time>
      </trkpt>
      <trkpt lat="43.00096" lon="0.32076">
        <ele>1185.4</ele>
        <time>2026-07-08T09:32:53Z</time>
      </trkpt>
      <trkpt lat="43.00095" lon="0.32077">
        <ele>1185.4</ele>
        <time>2026-07-08T09:32:53Z</time>
      </trkpt>
      <trkpt lat="43.00095" lon="0.32078">
        <ele>1185.4</ele>
        <time>2026-07-08T09:32:54Z</time>
      </trkpt>
      <trkpt lat="43.00095" lon="0.32079">
        <ele>1185.4</ele>
        <time>2026-07-08T09:32:54Z</time>
      </trkpt>
      <trkpt lat="43.00095" lon="0.3208">
        <ele>1185.4</ele>
        <time>2026-07-08T09:32:55Z</time>
      </trkpt>
      <trkpt lat="43.00095" lon="0.32081">
        <ele>1185.4</ele>
        <time>2026-07-08T09:32:56Z</time>
      </trkpt>
      <trkpt lat="43.00094" lon="0.32081">
        <ele>1185.4</ele>
        <time>2026-07-08T09:32:56Z</time>
      </trkpt>
      <trkpt lat="43.00094" lon="0.32082">
        <ele>1185.4</ele>
        <time>2026-07-08T09:32:57Z</time>
      </trkpt>
      <trkpt lat="43.00094" lon="0.32083">
        <ele>1185.4</ele>
        <time>2026-07-08T09:32:57Z</time>
      </trkpt>
      <trkpt lat="43.00093" lon="0.32084">
        <ele>1185.4</ele>
        <time>2026-07-08T09:32:58Z</time>
      </trkpt>
      <trkpt lat="43.00093" lon="0.32084">
        <ele>1184.4</ele>
        <time>2026-07-08T09:32:58Z</time>
      </trkpt>
      <trkpt lat="43.00093" lon="0.32085">
        <ele>1184.4</ele>
        <time>2026-07-08T09:32:59Z</time>
      </trkpt>
      <trkpt lat="43.00092" lon="0.32086">
        <ele>1184.4</ele>
        <time>2026-07-08T09:33:00Z</time>
      </trkpt>
      <trkpt lat="43.00092" lon="0.32086">
        <ele>1184.4</ele>
        <time>2026-07-08T09:33:00Z</time>
      </trkpt>
      <trkpt lat="43.00091" lon="0.32087">
        <ele>1184.4</ele>
        <time>2026-07-08T09:33:01Z</time>
      </trkpt>
      <trkpt lat="43.00091" lon="0.32088">
        <ele>1183.4</ele>
        <time>2026-07-08T09:33:01Z</time>
      </trkpt>
      <trkpt lat="43.00091" lon="0.32089">
        <ele>1183.4</ele>
        <time>2026-07-08T09:33:02Z</time>
      </trkpt>
      <trkpt lat="43.0009" lon="0.32089">
        <ele>1183.4</ele>
        <time>2026-07-08T09:33:02Z</time>
      </trkpt>
      <trkpt lat="43.0009" lon="0.3209">
        <ele>1183.4</ele>
        <time>2026-07-08T09:33:03Z</time>
      </trkpt>
      <trkpt lat="43.0009" lon="0.32091">
        <ele>1183.4</ele>
        <time>2026-07-08T09:33:04Z</time>
      </trkpt>
      <trkpt lat="43.00089" lon="0.32092">
        <ele>1183.4</ele>
        <time>2026-07-08T09:33:04Z</time>
      </trkpt>
      <trkpt lat="43.00089" lon="0.32092">
        <ele>1183.4</ele>
        <time>2026-07-08T09:33:05Z</time>
      </trkpt>
      <trkpt lat="43.00088" lon="0.32093">
        <ele>1183.4</ele>
        <time>2026-07-08T09:33:05Z</time>
      </trkpt>
      <trkpt lat="43.00088" lon="0.32094">
        <ele>1183.4</ele>
        <time>2026-07-08T09:33:06Z</time>
      </trkpt>
      <trkpt lat="43.00088" lon="0.32095">
        <ele>1183.4</ele>
        <time>2026-07-08T09:33:07Z</time>
      </trkpt>
      <trkpt lat="43.00087" lon="0.32095">
        <ele>1183.4</ele>
        <time>2026-07-08T09:33:07Z</time>
      </trkpt>
      <trkpt lat="43.00087" lon="0.32096">
        <ele>1183.4</ele>
        <time>2026-07-08T09:33:08Z</time>
      </trkpt>
      <trkpt lat="43.00087" lon="0.32096">
        <ele>1182.4</ele>
        <time>2026-07-08T09:33:08Z</time>
      </trkpt>
      <trkpt lat="43.00086" lon="0.32097">
        <ele>1182.4</ele>
        <time>2026-07-08T09:33:09Z</time>
      </trkpt>
      <trkpt lat="43.00086" lon="0.32098">
        <ele>1182.4</ele>
        <time>2026-07-08T09:33:09Z</time>
      </trkpt>
      <trkpt lat="43.00086" lon="0.32098">
        <ele>1182.4</ele>
        <time>2026-07-08T09:33:10Z</time>
      </trkpt>
      <trkpt lat="43.00085" lon="0.32099">
        <ele>1182.4</ele>
        <time>2026-07-08T09:33:11Z</time>
      </trkpt>
      <trkpt lat="43.00085" lon="0.32099">
        <ele>1181.4</ele>
        <time>2026-07-08T09:33:11Z</time>
      </trkpt>
      <trkpt lat="43.00084" lon="0.321">
        <ele>1181.4</ele>
        <time>2026-07-08T09:33:12Z</time>
      </trkpt>
      <trkpt lat="43.00084" lon="0.32101">
        <ele>1181.4</ele>
        <time>2026-07-08T09:33:12Z</time>
      </trkpt>
      <trkpt lat="43.00083" lon="0.32102">
        <ele>1181.4</ele>
        <time>2026-07-08T09:33:13Z</time>
      </trkpt>
      <trkpt lat="43.00083" lon="0.32102">
        <ele>1181.4</ele>
        <time>2026-07-08T09:33:14Z</time>
      </trkpt>
      <trkpt lat="43.00083" lon="0.32103">
        <ele>1181.4</ele>
        <time>2026-07-08T09:33:14Z</time>
      </trkpt>
      <trkpt lat="43.00082" lon="0.32104">
        <ele>1181.4</ele>
        <time>2026-07-08T09:33:15Z</time>
      </trkpt>
      <trkpt lat="43.00082" lon="0.32104">
        <ele>1181.4</ele>
        <time>2026-07-08T09:33:15Z</time>
      </trkpt>
      <trkpt lat="43.00081" lon="0.32105">
        <ele>1181.4</ele>
        <time>2026-07-08T09:33:16Z</time>
      </trkpt>
      <trkpt lat="43.00081" lon="0.32106">
        <ele>1182.4</ele>
        <time>2026-07-08T09:33:17Z</time>
      </trkpt>
      <trkpt lat="43.0008" lon="0.32107">
        <ele>1181.4</ele>
        <time>2026-07-08T09:33:18Z</time>
      </trkpt>
      <trkpt lat="43.0008" lon="0.32108">
        <ele>1181.4</ele>
        <time>2026-07-08T09:33:18Z</time>
      </trkpt>
      <trkpt lat="43.0008" lon="0.32109">
        <ele>1181.4</ele>
        <time>2026-07-08T09:33:19Z</time>
      </trkpt>
      <trkpt lat="43.00079" lon="0.32109">
        <ele>1181.4</ele>
        <time>2026-07-08T09:33:19Z</time>
      </trkpt>
      <trkpt lat="43.00079" lon="0.3211">
        <ele>1181.4</ele>
        <time>2026-07-08T09:33:20Z</time>
      </trkpt>
      <trkpt lat="43.00078" lon="0.32111">
        <ele>1181.4</ele>
        <time>2026-07-08T09:33:20Z</time>
      </trkpt>
      <trkpt lat="43.00078" lon="0.32111">
        <ele>1181.4</ele>
        <time>2026-07-08T09:33:21Z</time>
      </trkpt>
      <trkpt lat="43.00078" lon="0.32112">
        <ele>1181.4</ele>
        <time>2026-07-08T09:33:22Z</time>
      </trkpt>
      <trkpt lat="43.00077" lon="0.32113">
        <ele>1181.4</ele>
        <time>2026-07-08T09:33:22Z</time>
      </trkpt>
      <trkpt lat="43.00077" lon="0.32114">
        <ele>1181.4</ele>
        <time>2026-07-08T09:33:23Z</time>
      </trkpt>
      <trkpt lat="43.00077" lon="0.32114">
        <ele>1180.4</ele>
        <time>2026-07-08T09:33:23Z</time>
      </trkpt>
      <trkpt lat="43.00076" lon="0.32115">
        <ele>1180.4</ele>
        <time>2026-07-08T09:33:24Z</time>
      </trkpt>
      <trkpt lat="43.00076" lon="0.32116">
        <ele>1180.4</ele>
        <time>2026-07-08T09:33:24Z</time>
      </trkpt>
      <trkpt lat="43.00076" lon="0.32117">
        <ele>1179.4</ele>
        <time>2026-07-08T09:33:25Z</time>
      </trkpt>
      <trkpt lat="43.00076" lon="0.32118">
        <ele>1179.4</ele>
        <time>2026-07-08T09:33:26Z</time>
      </trkpt>
      <trkpt lat="43.00076" lon="0.32118">
        <ele>1179.4</ele>
        <time>2026-07-08T09:33:26Z</time>
      </trkpt>
      <trkpt lat="43.00075" lon="0.32119">
        <ele>1179.4</ele>
        <time>2026-07-08T09:33:27Z</time>
      </trkpt>
      <trkpt lat="43.00075" lon="0.3212">
        <ele>1179.4</ele>
        <time>2026-07-08T09:33:27Z</time>
      </trkpt>
      <trkpt lat="43.00074" lon="0.32121">
        <ele>1179.4</ele>
        <time>2026-07-08T09:33:28Z</time>
      </trkpt>
      <trkpt lat="43.00074" lon="0.32122">
        <ele>1178.4</ele>
        <time>2026-07-08T09:33:29Z</time>
      </trkpt>
      <trkpt lat="43.00074" lon="0.32122">
        <ele>1178.4</ele>
        <time>2026-07-08T09:33:29Z</time>
      </trkpt>
      <trkpt lat="43.00074" lon="0.32123">
        <ele>1178.4</ele>
        <time>2026-07-08T09:33:30Z</time>
      </trkpt>
      <trkpt lat="43.00073" lon="0.32123">
        <ele>1178.4</ele>
        <time>2026-07-08T09:33:30Z</time>
      </trkpt>
      <trkpt lat="43.00073" lon="0.32124">
        <ele>1178.4</ele>
        <time>2026-07-08T09:33:31Z</time>
      </trkpt>
      <trkpt lat="43.00073" lon="0.32124">
        <ele>1178.4</ele>
        <time>2026-07-08T09:33:31Z</time>
      </trkpt>
      <trkpt lat="43.00073" lon="0.32125">
        <ele>1178.4</ele>
        <time>2026-07-08T09:33:32Z</time>
      </trkpt>
      <trkpt lat="43.00073" lon="0.32125">
        <ele>1178.4</ele>
        <time>2026-07-08T09:33:33Z</time>
      </trkpt>
      <trkpt lat="43.00072" lon="0.32126">
        <ele>1178.4</ele>
        <time>2026-07-08T09:33:33Z</time>
      </trkpt>
      <trkpt lat="43.00072" lon="0.32127">
        <ele>1178.4</ele>
        <time>2026-07-08T09:33:34Z</time>
      </trkpt>
      <trkpt lat="43.00072" lon="0.32128">
        <ele>1177.4</ele>
        <time>2026-07-08T09:33:34Z</time>
      </trkpt>
      <trkpt lat="43.00072" lon="0.32129">
        <ele>1177.4</ele>
        <time>2026-07-08T09:33:35Z</time>
      </trkpt>
      <trkpt lat="43.00071" lon="0.32131">
        <ele>1177.4</ele>
        <time>2026-07-08T09:33:36Z</time>
      </trkpt>
      <trkpt lat="43.00071" lon="0.32132">
        <ele>1177.4</ele>
        <time>2026-07-08T09:33:37Z</time>
      </trkpt>
      <trkpt lat="43.00071" lon="0.32132">
        <ele>1177.4</ele>
        <time>2026-07-08T09:33:37Z</time>
      </trkpt>
      <trkpt lat="43.0007" lon="0.32133">
        <ele>1177.4</ele>
        <time>2026-07-08T09:33:38Z</time>
      </trkpt>
      <trkpt lat="43.0007" lon="0.32134">
        <ele>1178.4</ele>
        <time>2026-07-08T09:33:38Z</time>
      </trkpt>
      <trkpt lat="43.0007" lon="0.32135">
        <ele>1178.4</ele>
        <time>2026-07-08T09:33:39Z</time>
      </trkpt>
      <trkpt lat="43.0007" lon="0.32135">
        <ele>1178.4</ele>
        <time>2026-07-08T09:33:39Z</time>
      </trkpt>
      <trkpt lat="43.0007" lon="0.32136">
        <ele>1178.4</ele>
        <time>2026-07-08T09:33:40Z</time>
      </trkpt>
      <trkpt lat="43.0007" lon="0.32137">
        <ele>1177.4</ele>
        <time>2026-07-08T09:33:41Z</time>
      </trkpt>
      <trkpt lat="43.0007" lon="0.32138">
        <ele>1177.4</ele>
        <time>2026-07-08T09:33:41Z</time>
      </trkpt>
      <trkpt lat="43.0007" lon="0.32138">
        <ele>1177.4</ele>
        <time>2026-07-08T09:33:42Z</time>
      </trkpt>
      <trkpt lat="43.0007" lon="0.32139">
        <ele>1177.4</ele>
        <time>2026-07-08T09:33:42Z</time>
      </trkpt>
      <trkpt lat="43.0007" lon="0.3214">
        <ele>1177.4</ele>
        <time>2026-07-08T09:33:43Z</time>
      </trkpt>
      <trkpt lat="43.0007" lon="0.32141">
        <ele>1177.4</ele>
        <time>2026-07-08T09:33:44Z</time>
      </trkpt>
      <trkpt lat="43.0007" lon="0.32142">
        <ele>1177.4</ele>
        <time>2026-07-08T09:33:44Z</time>
      </trkpt>
      <trkpt lat="43.0007" lon="0.32143">
        <ele>1177.4</ele>
        <time>2026-07-08T09:33:45Z</time>
      </trkpt>
      <trkpt lat="43.0007" lon="0.32143">
        <ele>1176.4</ele>
        <time>2026-07-08T09:33:45Z</time>
      </trkpt>
      <trkpt lat="43.00069" lon="0.32144">
        <ele>1176.4</ele>
        <time>2026-07-08T09:33:46Z</time>
      </trkpt>
      <trkpt lat="43.0007" lon="0.32144">
        <ele>1176.4</ele>
        <time>2026-07-08T09:33:46Z</time>
      </trkpt>
      <trkpt lat="43.0007" lon="0.32145">
        <ele>1175.4</ele>
        <time>2026-07-08T09:33:47Z</time>
      </trkpt>
      <trkpt lat="43.00069" lon="0.32146">
        <ele>1175.4</ele>
        <time>2026-07-08T09:33:48Z</time>
      </trkpt>
      <trkpt lat="43.00069" lon="0.32147">
        <ele>1174.4</ele>
        <time>2026-07-08T09:33:49Z</time>
      </trkpt>
      <trkpt lat="43.00069" lon="0.32148">
        <ele>1174.4</ele>
        <time>2026-07-08T09:33:49Z</time>
      </trkpt>
      <trkpt lat="43.00069" lon="0.32149">
        <ele>1174.4</ele>
        <time>2026-07-08T09:33:50Z</time>
      </trkpt>
      <trkpt lat="43.00069" lon="0.3215">
        <ele>1174.4</ele>
        <time>2026-07-08T09:33:50Z</time>
      </trkpt>
      <trkpt lat="43.00069" lon="0.32151">
        <ele>1174.4</ele>
        <time>2026-07-08T09:33:51Z</time>
      </trkpt>
      <trkpt lat="43.00069" lon="0.32152">
        <ele>1174.4</ele>
        <time>2026-07-08T09:33:51Z</time>
      </trkpt>
      <trkpt lat="43.00069" lon="0.32152">
        <ele>1173.4</ele>
        <time>2026-07-08T09:33:52Z</time>
      </trkpt>
      <trkpt lat="43.00069" lon="0.32153">
        <ele>1173.4</ele>
        <time>2026-07-08T09:33:53Z</time>
      </trkpt>
      <trkpt lat="43.00069" lon="0.32154">
        <ele>1173.4</ele>
        <time>2026-07-08T09:33:53Z</time>
      </trkpt>
      <trkpt lat="43.00069" lon="0.32155">
        <ele>1173.4</ele>
        <time>2026-07-08T09:33:54Z</time>
      </trkpt>
      <trkpt lat="43.00069" lon="0.32157">
        <ele>1173.4</ele>
        <time>2026-07-08T09:33:55Z</time>
      </trkpt>
      <trkpt lat="43.00068" lon="0.32158">
        <ele>1172.4</ele>
        <time>2026-07-08T09:33:55Z</time>
      </trkpt>
      <trkpt lat="43.00068" lon="0.32159">
        <ele>1172.4</ele>
        <time>2026-07-08T09:33:56Z</time>
      </trkpt>
      <trkpt lat="43.00068" lon="0.3216">
        <ele>1172.4</ele>
        <time>2026-07-08T09:33:57Z</time>
      </trkpt>
      <trkpt lat="43.00067" lon="0.32161">
        <ele>1172.4</ele>
        <time>2026-07-08T09:33:57Z</time>
      </trkpt>
      <trkpt lat="43.00067" lon="0.32161">
        <ele>1171.4</ele>
        <time>2026-07-08T09:33:58Z</time>
      </trkpt>
      <trkpt lat="43.00067" lon="0.32162">
        <ele>1171.4</ele>
        <time>2026-07-08T09:33:58Z</time>
      </trkpt>
      <trkpt lat="43.00067" lon="0.32163">
        <ele>1171.4</ele>
        <time>2026-07-08T09:33:59Z</time>
      </trkpt>
      <trkpt lat="43.00067" lon="0.32163">
        <ele>1170.4</ele>
        <time>2026-07-08T09:33:59Z</time>
      </trkpt>
      <trkpt lat="43.00066" lon="0.32164">
        <ele>1170.4</ele>
        <time>2026-07-08T09:34:00Z</time>
      </trkpt>
      <trkpt lat="43.00066" lon="0.32165">
        <ele>1170.4</ele>
        <time>2026-07-08T09:34:01Z</time>
      </trkpt>
      <trkpt lat="43.00066" lon="0.32165">
        <ele>1170.4</ele>
        <time>2026-07-08T09:34:01Z</time>
      </trkpt>
      <trkpt lat="43.00066" lon="0.32166">
        <ele>1170.4</ele>
        <time>2026-07-08T09:34:01Z</time>
      </trkpt>
      <trkpt lat="43.00066" lon="0.32167">
        <ele>1171.4</ele>
        <time>2026-07-08T09:34:02Z</time>
      </trkpt>
      <trkpt lat="43.00066" lon="0.32168">
        <ele>1171.4</ele>
        <time>2026-07-08T09:34:03Z</time>
      </trkpt>
      <trkpt lat="43.00066" lon="0.32169">
        <ele>1170.4</ele>
        <time>2026-07-08T09:34:03Z</time>
      </trkpt>
      <trkpt lat="43.00066" lon="0.3217">
        <ele>1170.4</ele>
        <time>2026-07-08T09:34:04Z</time>
      </trkpt>
      <trkpt lat="43.00065" lon="0.32171">
        <ele>1170.4</ele>
        <time>2026-07-08T09:34:04Z</time>
      </trkpt>
      <trkpt lat="43.00065" lon="0.32172">
        <ele>1170.4</ele>
        <time>2026-07-08T09:34:05Z</time>
      </trkpt>
      <trkpt lat="43.00065" lon="0.32173">
        <ele>1170.4</ele>
        <time>2026-07-08T09:34:06Z</time>
      </trkpt>
      <trkpt lat="43.00065" lon="0.32174">
        <ele>1170.4</ele>
        <time>2026-07-08T09:34:06Z</time>
      </trkpt>
      <trkpt lat="43.00065" lon="0.32174">
        <ele>1170.4</ele>
        <time>2026-07-08T09:34:06Z</time>
      </trkpt>
      <trkpt lat="43.00064" lon="0.32175">
        <ele>1170.4</ele>
        <time>2026-07-08T09:34:07Z</time>
      </trkpt>
      <trkpt lat="43.00064" lon="0.32176">
        <ele>1170.4</ele>
        <time>2026-07-08T09:34:08Z</time>
      </trkpt>
      <trkpt lat="43.00064" lon="0.32177">
        <ele>1170.4</ele>
        <time>2026-07-08T09:34:08Z</time>
      </trkpt>
      <trkpt lat="43.00064" lon="0.32178">
        <ele>1170.4</ele>
        <time>2026-07-08T09:34:09Z</time>
      </trkpt>
      <trkpt lat="43.00063" lon="0.32178">
        <ele>1170.4</ele>
        <time>2026-07-08T09:34:09Z</time>
      </trkpt>
      <trkpt lat="43.00063" lon="0.32179">
        <ele>1170.4</ele>
        <time>2026-07-08T09:34:10Z</time>
      </trkpt>
      <trkpt lat="43.00063" lon="0.3218">
        <ele>1170.4</ele>
        <time>2026-07-08T09:34:10Z</time>
      </trkpt>
      <trkpt lat="43.00062" lon="0.32181">
        <ele>1170.4</ele>
        <time>2026-07-08T09:34:11Z</time>
      </trkpt>
      <trkpt lat="43.00062" lon="0.32181">
        <ele>1170.4</ele>
        <time>2026-07-08T09:34:11Z</time>
      </trkpt>
      <trkpt lat="43.00062" lon="0.32182">
        <ele>1170.4</ele>
        <time>2026-07-08T09:34:12Z</time>
      </trkpt>
      <trkpt lat="43.00061" lon="0.32183">
        <ele>1169.4</ele>
        <time>2026-07-08T09:34:13Z</time>
      </trkpt>
      <trkpt lat="43.00061" lon="0.32184">
        <ele>1169.4</ele>
        <time>2026-07-08T09:34:13Z</time>
      </trkpt>
      <trkpt lat="43.00061" lon="0.32184">
        <ele>1169.4</ele>
        <time>2026-07-08T09:34:14Z</time>
      </trkpt>
      <trkpt lat="43.00061" lon="0.32185">
        <ele>1169.4</ele>
        <time>2026-07-08T09:34:14Z</time>
      </trkpt>
      <trkpt lat="43.00061" lon="0.32186">
        <ele>1169.4</ele>
        <time>2026-07-08T09:34:15Z</time>
      </trkpt>
      <trkpt lat="43.00061" lon="0.32187">
        <ele>1169.4</ele>
        <time>2026-07-08T09:34:15Z</time>
      </trkpt>
      <trkpt lat="43.00061" lon="0.32187">
        <ele>1169.4</ele>
        <time>2026-07-08T09:34:16Z</time>
      </trkpt>
      <trkpt lat="43.00061" lon="0.32188">
        <ele>1169.4</ele>
        <time>2026-07-08T09:34:17Z</time>
      </trkpt>
      <trkpt lat="43.0006" lon="0.32189">
        <ele>1168.4</ele>
        <time>2026-07-08T09:34:18Z</time>
      </trkpt>
      <trkpt lat="43.0006" lon="0.3219">
        <ele>1168.4</ele>
        <time>2026-07-08T09:34:18Z</time>
      </trkpt>
      <trkpt lat="43.0006" lon="0.32191">
        <ele>1168.4</ele>
        <time>2026-07-08T09:34:19Z</time>
      </trkpt>
      <trkpt lat="43.0006" lon="0.32191">
        <ele>1168.4</ele>
        <time>2026-07-08T09:34:19Z</time>
      </trkpt>
      <trkpt lat="43.00059" lon="0.32192">
        <ele>1168.4</ele>
        <time>2026-07-08T09:34:20Z</time>
      </trkpt>
      <trkpt lat="43.00059" lon="0.32193">
        <ele>1168.4</ele>
        <time>2026-07-08T09:34:20Z</time>
      </trkpt>
      <trkpt lat="43.00059" lon="0.32193">
        <ele>1168.4</ele>
        <time>2026-07-08T09:34:21Z</time>
      </trkpt>
      <trkpt lat="43.00059" lon="0.32194">
        <ele>1168.4</ele>
        <time>2026-07-08T09:34:22Z</time>
      </trkpt>
      <trkpt lat="43.00059" lon="0.32194">
        <ele>1168.4</ele>
        <time>2026-07-08T09:34:22Z</time>
      </trkpt>
      <trkpt lat="43.00058" lon="0.32195">
        <ele>1168.4</ele>
        <time>2026-07-08T09:34:23Z</time>
      </trkpt>
      <trkpt lat="43.00058" lon="0.32196">
        <ele>1167.4</ele>
        <time>2026-07-08T09:34:23Z</time>
      </trkpt>
      <trkpt lat="43.00058" lon="0.32197">
        <ele>1167.4</ele>
        <time>2026-07-08T09:34:24Z</time>
      </trkpt>
      <trkpt lat="43.00058" lon="0.32198">
        <ele>1167.4</ele>
        <time>2026-07-08T09:34:25Z</time>
      </trkpt>
      <trkpt lat="43.00058" lon="0.32199">
        <ele>1167.4</ele>
        <time>2026-07-08T09:34:26Z</time>
      </trkpt>
      <trkpt lat="43.00058" lon="0.32199">
        <ele>1167.4</ele>
        <time>2026-07-08T09:34:26Z</time>
      </trkpt>
      <trkpt lat="43.00058" lon="0.322">
        <ele>1167.4</ele>
        <time>2026-07-08T09:34:27Z</time>
      </trkpt>
      <trkpt lat="43.00058" lon="0.32201">
        <ele>1166.4</ele>
        <time>2026-07-08T09:34:27Z</time>
      </trkpt>
      <trkpt lat="43.00058" lon="0.32201">
        <ele>1166.4</ele>
        <time>2026-07-08T09:34:28Z</time>
      </trkpt>
      <trkpt lat="43.00058" lon="0.32202">
        <ele>1166.4</ele>
        <time>2026-07-08T09:34:29Z</time>
      </trkpt>
      <trkpt lat="43.00058" lon="0.32203">
        <ele>1166.4</ele>
        <time>2026-07-08T09:34:30Z</time>
      </trkpt>
      <trkpt lat="43.00058" lon="0.32204">
        <ele>1166.4</ele>
        <time>2026-07-08T09:34:30Z</time>
      </trkpt>
      <trkpt lat="43.00057" lon="0.32204">
        <ele>1166.4</ele>
        <time>2026-07-08T09:34:31Z</time>
      </trkpt>
      <trkpt lat="43.00057" lon="0.32205">
        <ele>1166.4</ele>
        <time>2026-07-08T09:34:31Z</time>
      </trkpt>
      <trkpt lat="43.00057" lon="0.32206">
        <ele>1166.4</ele>
        <time>2026-07-08T09:34:32Z</time>
      </trkpt>
      <trkpt lat="43.00057" lon="0.32206">
        <ele>1166.4</ele>
        <time>2026-07-08T09:34:32Z</time>
      </trkpt>
      <trkpt lat="43.00057" lon="0.32207">
        <ele>1166.4</ele>
        <time>2026-07-08T09:34:33Z</time>
      </trkpt>
      <trkpt lat="43.00057" lon="0.32208">
        <ele>1166.4</ele>
        <time>2026-07-08T09:34:34Z</time>
      </trkpt>
      <trkpt lat="43.00056" lon="0.32208">
        <ele>1166.4</ele>
        <time>2026-07-08T09:34:34Z</time>
      </trkpt>
      <trkpt lat="43.00056" lon="0.32209">
        <ele>1166.4</ele>
        <time>2026-07-08T09:34:35Z</time>
      </trkpt>
      <trkpt lat="43.00056" lon="0.3221">
        <ele>1165.4</ele>
        <time>2026-07-08T09:34:36Z</time>
      </trkpt>
      <trkpt lat="43.00056" lon="0.3221">
        <ele>1165.4</ele>
        <time>2026-07-08T09:34:36Z</time>
      </trkpt>
      <trkpt lat="43.00056" lon="0.32211">
        <ele>1165.4</ele>
        <time>2026-07-08T09:34:37Z</time>
      </trkpt>
      <trkpt lat="43.00055" lon="0.32213">
        <ele>1164.4</ele>
        <time>2026-07-08T09:34:38Z</time>
      </trkpt>
      <trkpt lat="43.00055" lon="0.32214">
        <ele>1164.4</ele>
        <time>2026-07-08T09:34:39Z</time>
      </trkpt>
      <trkpt lat="43.00055" lon="0.32215">
        <ele>1164.4</ele>
        <time>2026-07-08T09:34:39Z</time>
      </trkpt>
      <trkpt lat="43.00055" lon="0.32216">
        <ele>1164.4</ele>
        <time>2026-07-08T09:34:40Z</time>
      </trkpt>
      <trkpt lat="43.00055" lon="0.32216">
        <ele>1163.4</ele>
        <time>2026-07-08T09:34:40Z</time>
      </trkpt>
      <trkpt lat="43.00055" lon="0.32217">
        <ele>1163.4</ele>
        <time>2026-07-08T09:34:41Z</time>
      </trkpt>
      <trkpt lat="43.00055" lon="0.32219">
        <ele>1164.4</ele>
        <time>2026-07-08T09:34:42Z</time>
      </trkpt>
      <trkpt lat="43.00054" lon="0.3222">
        <ele>1163.4</ele>
        <time>2026-07-08T09:34:43Z</time>
      </trkpt>
      <trkpt lat="43.00053" lon="0.32221">
        <ele>1163.4</ele>
        <time>2026-07-08T09:34:44Z</time>
      </trkpt>
      <trkpt lat="43.00053" lon="0.32221">
        <ele>1163.4</ele>
        <time>2026-07-08T09:34:44Z</time>
      </trkpt>
      <trkpt lat="43.00053" lon="0.32222">
        <ele>1163.4</ele>
        <time>2026-07-08T09:34:45Z</time>
      </trkpt>
      <trkpt lat="43.00052" lon="0.32222">
        <ele>1163.4</ele>
        <time>2026-07-08T09:34:45Z</time>
      </trkpt>
      <trkpt lat="43.00052" lon="0.32223">
        <ele>1163.4</ele>
        <time>2026-07-08T09:34:46Z</time>
      </trkpt>
      <trkpt lat="43.00052" lon="0.32224">
        <ele>1162.4</ele>
        <time>2026-07-08T09:34:46Z</time>
      </trkpt>
      <trkpt lat="43.00051" lon="0.32224">
        <ele>1162.4</ele>
        <time>2026-07-08T09:34:47Z</time>
      </trkpt>
      <trkpt lat="43.00051" lon="0.32225">
        <ele>1162.4</ele>
        <time>2026-07-08T09:34:47Z</time>
      </trkpt>
      <trkpt lat="43.0005" lon="0.32226">
        <ele>1162.4</ele>
        <time>2026-07-08T09:34:48Z</time>
      </trkpt>
      <trkpt lat="43.00049" lon="0.32226">
        <ele>1162.4</ele>
        <time>2026-07-08T09:34:49Z</time>
      </trkpt>
      <trkpt lat="43.00048" lon="0.32227">
        <ele>1162.4</ele>
        <time>2026-07-08T09:34:49Z</time>
      </trkpt>
      <trkpt lat="43.00048" lon="0.32227">
        <ele>1162.4</ele>
        <time>2026-07-08T09:34:50Z</time>
      </trkpt>
      <trkpt lat="43.00047" lon="0.32228">
        <ele>1162.4</ele>
        <time>2026-07-08T09:34:51Z</time>
      </trkpt>
      <trkpt lat="43.00047" lon="0.32229">
        <ele>1163.4</ele>
        <time>2026-07-08T09:34:52Z</time>
      </trkpt>
      <trkpt lat="43.00047" lon="0.3223">
        <ele>1163.4</ele>
        <time>2026-07-08T09:34:52Z</time>
      </trkpt>
      <trkpt lat="43.00047" lon="0.32231">
        <ele>1163.4</ele>
        <time>2026-07-08T09:34:53Z</time>
      </trkpt>
      <trkpt lat="43.00046" lon="0.32232">
        <ele>1163.4</ele>
        <time>2026-07-08T09:34:53Z</time>
      </trkpt>
      <trkpt lat="43.00046" lon="0.32232">
        <ele>1163.4</ele>
        <time>2026-07-08T09:34:54Z</time>
      </trkpt>
      <trkpt lat="43.00046" lon="0.32233">
        <ele>1163.4</ele>
        <time>2026-07-08T09:34:54Z</time>
      </trkpt>
      <trkpt lat="43.00045" lon="0.32233">
        <ele>1163.4</ele>
        <time>2026-07-08T09:34:55Z</time>
      </trkpt>
      <trkpt lat="43.00045" lon="0.32233">
        <ele>1164.4</ele>
        <time>2026-07-08T09:34:55Z</time>
      </trkpt>
      <trkpt lat="43.00044" lon="0.32234">
        <ele>1164.4</ele>
        <time>2026-07-08T09:34:56Z</time>
      </trkpt>
      <trkpt lat="43.00043" lon="0.32235">
        <ele>1163.4</ele>
        <time>2026-07-08T09:34:57Z</time>
      </trkpt>
      <trkpt lat="43.00043" lon="0.32235">
        <ele>1163.4</ele>
        <time>2026-07-08T09:34:57Z</time>
      </trkpt>
      <trkpt lat="43.00042" lon="0.32236">
        <ele>1163.4</ele>
        <time>2026-07-08T09:34:58Z</time>
      </trkpt>
      <trkpt lat="43.00042" lon="0.32236">
        <ele>1163.4</ele>
        <time>2026-07-08T09:34:59Z</time>
      </trkpt>
      <trkpt lat="43.00041" lon="0.32237">
        <ele>1163.4</ele>
        <time>2026-07-08T09:34:59Z</time>
      </trkpt>
      <trkpt lat="43.00041" lon="0.32237">
        <ele>1163.4</ele>
        <time>2026-07-08T09:35:00Z</time>
      </trkpt>
      <trkpt lat="43.00041" lon="0.32238">
        <ele>1163.4</ele>
        <time>2026-07-08T09:35:00Z</time>
      </trkpt>
      <trkpt lat="43.0004" lon="0.32238">
        <ele>1163.4</ele>
        <time>2026-07-08T09:35:01Z</time>
      </trkpt>
      <trkpt lat="43.00039" lon="0.32239">
        <ele>1163.4</ele>
        <time>2026-07-08T09:35:01Z</time>
      </trkpt>
      <trkpt lat="43.00039" lon="0.32239">
        <ele>1163.4</ele>
        <time>2026-07-08T09:35:02Z</time>
      </trkpt>
      <trkpt lat="43.00038" lon="0.3224">
        <ele>1163.4</ele>
        <time>2026-07-08T09:35:03Z</time>
      </trkpt>
      <trkpt lat="43.00037" lon="0.32241">
        <ele>1162.4</ele>
        <time>2026-07-08T09:35:03Z</time>
      </trkpt>
      <trkpt lat="43.00037" lon="0.32242">
        <ele>1162.4</ele>
        <time>2026-07-08T09:35:04Z</time>
      </trkpt>
      <trkpt lat="43.00037" lon="0.32243">
        <ele>1162.4</ele>
        <time>2026-07-08T09:35:04Z</time>
      </trkpt>
      <trkpt lat="43.00036" lon="0.32243">
        <ele>1162.4</ele>
        <time>2026-07-08T09:35:05Z</time>
      </trkpt>
      <trkpt lat="43.00035" lon="0.32244">
        <ele>1162.4</ele>
        <time>2026-07-08T09:35:06Z</time>
      </trkpt>
      <trkpt lat="43.00035" lon="0.32245">
        <ele>1161.4</ele>
        <time>2026-07-08T09:35:06Z</time>
      </trkpt>
      <trkpt lat="43.00035" lon="0.32245">
        <ele>1161.4</ele>
        <time>2026-07-08T09:35:07Z</time>
      </trkpt>
      <trkpt lat="43.00034" lon="0.32247">
        <ele>1161.4</ele>
        <time>2026-07-08T09:35:08Z</time>
      </trkpt>
      <trkpt lat="43.00034" lon="0.32247">
        <ele>1160.4</ele>
        <time>2026-07-08T09:35:08Z</time>
      </trkpt>
      <trkpt lat="43.00033" lon="0.32248">
        <ele>1160.4</ele>
        <time>2026-07-08T09:35:09Z</time>
      </trkpt>
      <trkpt lat="43.00033" lon="0.32249">
        <ele>1160.4</ele>
        <time>2026-07-08T09:35:09Z</time>
      </trkpt>
      <trkpt lat="43.00032" lon="0.3225">
        <ele>1160.4</ele>
        <time>2026-07-08T09:35:10Z</time>
      </trkpt>
      <trkpt lat="43.00032" lon="0.3225">
        <ele>1160.4</ele>
        <time>2026-07-08T09:35:10Z</time>
      </trkpt>
      <trkpt lat="43.00032" lon="0.32251">
        <ele>1160.4</ele>
        <time>2026-07-08T09:35:11Z</time>
      </trkpt>
      <trkpt lat="43.00031" lon="0.32252">
        <ele>1160.4</ele>
        <time>2026-07-08T09:35:12Z</time>
      </trkpt>
      <trkpt lat="43.00031" lon="0.32253">
        <ele>1160.4</ele>
        <time>2026-07-08T09:35:13Z</time>
      </trkpt>
      <trkpt lat="43.0003" lon="0.32254">
        <ele>1160.4</ele>
        <time>2026-07-08T09:35:13Z</time>
      </trkpt>
      <trkpt lat="43.0003" lon="0.32255">
        <ele>1160.4</ele>
        <time>2026-07-08T09:35:14Z</time>
      </trkpt>
      <trkpt lat="43.0003" lon="0.32256">
        <ele>1160.4</ele>
        <time>2026-07-08T09:35:14Z</time>
      </trkpt>
      <trkpt lat="43.00029" lon="0.32257">
        <ele>1160.4</ele>
        <time>2026-07-08T09:35:15Z</time>
      </trkpt>
      <trkpt lat="43.00029" lon="0.32257">
        <ele>1160.4</ele>
        <time>2026-07-08T09:35:15Z</time>
      </trkpt>
      <trkpt lat="43.00029" lon="0.32258">
        <ele>1160.4</ele>
        <time>2026-07-08T09:35:16Z</time>
      </trkpt>
      <trkpt lat="43.00029" lon="0.32259">
        <ele>1160.4</ele>
        <time>2026-07-08T09:35:16Z</time>
      </trkpt>
      <trkpt lat="43.00028" lon="0.3226">
        <ele>1160.4</ele>
        <time>2026-07-08T09:35:17Z</time>
      </trkpt>
      <trkpt lat="43.00028" lon="0.32261">
        <ele>1159.4</ele>
        <time>2026-07-08T09:35:18Z</time>
      </trkpt>
      <trkpt lat="43.00028" lon="0.32262">
        <ele>1159.4</ele>
        <time>2026-07-08T09:35:18Z</time>
      </trkpt>
      <trkpt lat="43.00028" lon="0.32263">
        <ele>1159.4</ele>
        <time>2026-07-08T09:35:19Z</time>
      </trkpt>
      <trkpt lat="43.00028" lon="0.32265">
        <ele>1158.4</ele>
        <time>2026-07-08T09:35:20Z</time>
      </trkpt>
      <trkpt lat="43.00028" lon="0.32266">
        <ele>1158.4</ele>
        <time>2026-07-08T09:35:20Z</time>
      </trkpt>
      <trkpt lat="43.00027" lon="0.32267">
        <ele>1158.4</ele>
        <time>2026-07-08T09:35:21Z</time>
      </trkpt>
      <trkpt lat="43.00027" lon="0.32268">
        <ele>1159.4</ele>
        <time>2026-07-08T09:35:21Z</time>
      </trkpt>
      <trkpt lat="43.00026" lon="0.32269">
        <ele>1159.4</ele>
        <time>2026-07-08T09:35:22Z</time>
      </trkpt>
      <trkpt lat="43.00026" lon="0.3227">
        <ele>1159.4</ele>
        <time>2026-07-08T09:35:22Z</time>
      </trkpt>
      <trkpt lat="43.00026" lon="0.32271">
        <ele>1159.4</ele>
        <time>2026-07-08T09:35:23Z</time>
      </trkpt>
      <trkpt lat="43.00026" lon="0.32272">
        <ele>1158.4</ele>
        <time>2026-07-08T09:35:24Z</time>
      </trkpt>
      <trkpt lat="43.00026" lon="0.32273">
        <ele>1159.4</ele>
        <time>2026-07-08T09:35:24Z</time>
      </trkpt>
      <trkpt lat="43.00026" lon="0.32274">
        <ele>1159.4</ele>
        <time>2026-07-08T09:35:25Z</time>
      </trkpt>
      <trkpt lat="43.00026" lon="0.32275">
        <ele>1159.4</ele>
        <time>2026-07-08T09:35:25Z</time>
      </trkpt>
      <trkpt lat="43.00026" lon="0.32276">
        <ele>1159.4</ele>
        <time>2026-07-08T09:35:26Z</time>
      </trkpt>
      <trkpt lat="43.00026" lon="0.32277">
        <ele>1158.4</ele>
        <time>2026-07-08T09:35:26Z</time>
      </trkpt>
      <trkpt lat="43.00026" lon="0.32278">
        <ele>1158.4</ele>
        <time>2026-07-08T09:35:27Z</time>
      </trkpt>
      <trkpt lat="43.00026" lon="0.32278">
        <ele>1158.4</ele>
        <time>2026-07-08T09:35:27Z</time>
      </trkpt>
      <trkpt lat="43.00026" lon="0.32279">
        <ele>1158.4</ele>
        <time>2026-07-08T09:35:28Z</time>
      </trkpt>
      <trkpt lat="43.00026" lon="0.3228">
        <ele>1158.4</ele>
        <time>2026-07-08T09:35:28Z</time>
      </trkpt>
      <trkpt lat="43.00026" lon="0.32281">
        <ele>1158.4</ele>
        <time>2026-07-08T09:35:29Z</time>
      </trkpt>
      <trkpt lat="43.00026" lon="0.32282">
        <ele>1158.4</ele>
        <time>2026-07-08T09:35:29Z</time>
      </trkpt>
      <trkpt lat="43.00026" lon="0.32283">
        <ele>1158.4</ele>
        <time>2026-07-08T09:35:30Z</time>
      </trkpt>
      <trkpt lat="43.00026" lon="0.32284">
        <ele>1158.4</ele>
        <time>2026-07-08T09:35:30Z</time>
      </trkpt>
      <trkpt lat="43.00026" lon="0.32285">
        <ele>1158.4</ele>
        <time>2026-07-08T09:35:31Z</time>
      </trkpt>
      <trkpt lat="43.00026" lon="0.32286">
        <ele>1158.4</ele>
        <time>2026-07-08T09:35:32Z</time>
      </trkpt>
      <trkpt lat="43.00026" lon="0.32287">
        <ele>1158.4</ele>
        <time>2026-07-08T09:35:32Z</time>
      </trkpt>
      <trkpt lat="43.00026" lon="0.32288">
        <ele>1158.4</ele>
        <time>2026-07-08T09:35:33Z</time>
      </trkpt>
      <trkpt lat="43.00026" lon="0.3229">
        <ele>1157.4</ele>
        <time>2026-07-08T09:35:34Z</time>
      </trkpt>
      <trkpt lat="43.00027" lon="0.32291">
        <ele>1157.4</ele>
        <time>2026-07-08T09:35:35Z</time>
      </trkpt>
      <trkpt lat="43.00027" lon="0.32292">
        <ele>1157.4</ele>
        <time>2026-07-08T09:35:35Z</time>
      </trkpt>
      <trkpt lat="43.00027" lon="0.32293">
        <ele>1157.4</ele>
        <time>2026-07-08T09:35:36Z</time>
      </trkpt>
      <trkpt lat="43.00027" lon="0.32293">
        <ele>1158.4</ele>
        <time>2026-07-08T09:35:36Z</time>
      </trkpt>
      <trkpt lat="43.00027" lon="0.32294">
        <ele>1158.4</ele>
        <time>2026-07-08T09:35:37Z</time>
      </trkpt>
      <trkpt lat="43.00027" lon="0.32295">
        <ele>1157.4</ele>
        <time>2026-07-08T09:35:38Z</time>
      </trkpt>
      <trkpt lat="43.00027" lon="0.32295">
        <ele>1157.4</ele>
        <time>2026-07-08T09:35:38Z</time>
      </trkpt>
      <trkpt lat="43.00027" lon="0.32296">
        <ele>1157.4</ele>
        <time>2026-07-08T09:35:39Z</time>
      </trkpt>
      <trkpt lat="43.00027" lon="0.32296">
        <ele>1157.4</ele>
        <time>2026-07-08T09:35:39Z</time>
      </trkpt>
      <trkpt lat="43.00028" lon="0.32297">
        <ele>1157.4</ele>
        <time>2026-07-08T09:35:40Z</time>
      </trkpt>
      <trkpt lat="43.00028" lon="0.32298">
        <ele>1157.4</ele>
        <time>2026-07-08T09:35:40Z</time>
      </trkpt>
      <trkpt lat="43.00028" lon="0.32299">
        <ele>1157.4</ele>
        <time>2026-07-08T09:35:41Z</time>
      </trkpt>
      <trkpt lat="43.00028" lon="0.32299">
        <ele>1156.4</ele>
        <time>2026-07-08T09:35:41Z</time>
      </trkpt>
      <trkpt lat="43.00029" lon="0.323">
        <ele>1156.4</ele>
        <time>2026-07-08T09:35:42Z</time>
      </trkpt>
      <trkpt lat="43.00029" lon="0.32301">
        <ele>1156.4</ele>
        <time>2026-07-08T09:35:43Z</time>
      </trkpt>
      <trkpt lat="43.00029" lon="0.32301">
        <ele>1156.4</ele>
        <time>2026-07-08T09:35:43Z</time>
      </trkpt>
      <trkpt lat="43.0003" lon="0.32302">
        <ele>1156.4</ele>
        <time>2026-07-08T09:35:44Z</time>
      </trkpt>
      <trkpt lat="43.0003" lon="0.32303">
        <ele>1156.4</ele>
        <time>2026-07-08T09:35:44Z</time>
      </trkpt>
      <trkpt lat="43.0003" lon="0.32304">
        <ele>1156.4</ele>
        <time>2026-07-08T09:35:45Z</time>
      </trkpt>
      <trkpt lat="43.0003" lon="0.32304">
        <ele>1156.4</ele>
        <time>2026-07-08T09:35:45Z</time>
      </trkpt>
      <trkpt lat="43.0003" lon="0.32305">
        <ele>1156.4</ele>
        <time>2026-07-08T09:35:46Z</time>
      </trkpt>
      <trkpt lat="43.0003" lon="0.32306">
        <ele>1156.4</ele>
        <time>2026-07-08T09:35:46Z</time>
      </trkpt>
      <trkpt lat="43.0003" lon="0.32307">
        <ele>1156.4</ele>
        <time>2026-07-08T09:35:47Z</time>
      </trkpt>
      <trkpt lat="43.0003" lon="0.32308">
        <ele>1156.4</ele>
        <time>2026-07-08T09:35:47Z</time>
      </trkpt>
      <trkpt lat="43.0003" lon="0.32309">
        <ele>1156.4</ele>
        <time>2026-07-08T09:35:48Z</time>
      </trkpt>
      <trkpt lat="43.0003" lon="0.3231">
        <ele>1156.4</ele>
        <time>2026-07-08T09:35:48Z</time>
      </trkpt>
      <trkpt lat="43.0003" lon="0.32311">
        <ele>1156.4</ele>
        <time>2026-07-08T09:35:49Z</time>
      </trkpt>
      <trkpt lat="43.0003" lon="0.32312">
        <ele>1156.4</ele>
        <time>2026-07-08T09:35:50Z</time>
      </trkpt>
      <trkpt lat="43.0003" lon="0.32312">
        <ele>1156.4</ele>
        <time>2026-07-08T09:35:50Z</time>
      </trkpt>
      <trkpt lat="43.0003" lon="0.32313">
        <ele>1156.4</ele>
        <time>2026-07-08T09:35:51Z</time>
      </trkpt>
      <trkpt lat="43.0003" lon="0.32314">
        <ele>1155.4</ele>
        <time>2026-07-08T09:35:51Z</time>
      </trkpt>
      <trkpt lat="43.0003" lon="0.32315">
        <ele>1155.4</ele>
        <time>2026-07-08T09:35:52Z</time>
      </trkpt>
      <trkpt lat="43.00029" lon="0.32317">
        <ele>1155.4</ele>
        <time>2026-07-08T09:35:53Z</time>
      </trkpt>
      <trkpt lat="43.0003" lon="0.32317">
        <ele>1156.4</ele>
        <time>2026-07-08T09:35:54Z</time>
      </trkpt>
      <trkpt lat="43.0003" lon="0.32318">
        <ele>1156.4</ele>
        <time>2026-07-08T09:35:54Z</time>
      </trkpt>
      <trkpt lat="43.0003" lon="0.32319">
        <ele>1156.4</ele>
        <time>2026-07-08T09:35:55Z</time>
      </trkpt>
      <trkpt lat="43.0003" lon="0.3232">
        <ele>1156.4</ele>
        <time>2026-07-08T09:35:56Z</time>
      </trkpt>
      <trkpt lat="43.00029" lon="0.3232">
        <ele>1156.4</ele>
        <time>2026-07-08T09:35:56Z</time>
      </trkpt>
      <trkpt lat="43.00029" lon="0.32321">
        <ele>1156.4</ele>
        <time>2026-07-08T09:35:57Z</time>
      </trkpt>
      <trkpt lat="43.00029" lon="0.32322">
        <ele>1156.4</ele>
        <time>2026-07-08T09:35:57Z</time>
      </trkpt>
      <trkpt lat="43.00029" lon="0.32323">
        <ele>1156.4</ele>
        <time>2026-07-08T09:35:58Z</time>
      </trkpt>
      <trkpt lat="43.0003" lon="0.32324">
        <ele>1156.4</ele>
        <time>2026-07-08T09:35:59Z</time>
      </trkpt>
      <trkpt lat="43.0003" lon="0.32325">
        <ele>1155.4</ele>
        <time>2026-07-08T09:36:00Z</time>
      </trkpt>
      <trkpt lat="43.0003" lon="0.32326">
        <ele>1155.4</ele>
        <time>2026-07-08T09:36:00Z</time>
      </trkpt>
      <trkpt lat="43.0003" lon="0.32327">
        <ele>1155.4</ele>
        <time>2026-07-08T09:36:01Z</time>
      </trkpt>
      <trkpt lat="43.0003" lon="0.32328">
        <ele>1155.4</ele>
        <time>2026-07-08T09:36:01Z</time>
      </trkpt>
      <trkpt lat="43.0003" lon="0.32328">
        <ele>1155.4</ele>
        <time>2026-07-08T09:36:02Z</time>
      </trkpt>
      <trkpt lat="43.0003" lon="0.32329">
        <ele>1155.4</ele>
        <time>2026-07-08T09:36:02Z</time>
      </trkpt>
      <trkpt lat="43.0003" lon="0.3233">
        <ele>1155.4</ele>
        <time>2026-07-08T09:36:03Z</time>
      </trkpt>
      <trkpt lat="43.0003" lon="0.3233">
        <ele>1154.4</ele>
        <time>2026-07-08T09:36:04Z</time>
      </trkpt>
      <trkpt lat="43.0003" lon="0.3233">
        <ele>1154.4</ele>
        <time>2026-07-08T09:36:04Z</time>
      </trkpt>
      <trkpt lat="43.00031" lon="0.32331">
        <ele>1154.4</ele>
        <time>2026-07-08T09:36:05Z</time>
      </trkpt>
      <trkpt lat="43.0003" lon="0.32331">
        <ele>1155.4</ele>
        <time>2026-07-08T09:36:05Z</time>
      </trkpt>
      <trkpt lat="43.0003" lon="0.32332">
        <ele>1155.4</ele>
        <time>2026-07-08T09:36:06Z</time>
      </trkpt>
      <trkpt lat="43.0003" lon="0.32333">
        <ele>1155.4</ele>
        <time>2026-07-08T09:36:07Z</time>
      </trkpt>
      <trkpt lat="43.0003" lon="0.32334">
        <ele>1155.4</ele>
        <time>2026-07-08T09:36:08Z</time>
      </trkpt>
      <trkpt lat="43.0003" lon="0.32334">
        <ele>1155.4</ele>
        <time>2026-07-08T09:36:08Z</time>
      </trkpt>
      <trkpt lat="43.0003" lon="0.32334">
        <ele>1155.4</ele>
        <time>2026-07-08T09:36:09Z</time>
      </trkpt>
      <trkpt lat="43.0003" lon="0.32335">
        <ele>1154.4</ele>
        <time>2026-07-08T09:36:09Z</time>
      </trkpt>
      <trkpt lat="43.0003" lon="0.32336">
        <ele>1154.4</ele>
        <time>2026-07-08T09:36:10Z</time>
      </trkpt>
      <trkpt lat="43.00029" lon="0.32336">
        <ele>1154.4</ele>
        <time>2026-07-08T09:36:10Z</time>
      </trkpt>
      <trkpt lat="43.00029" lon="0.32337">
        <ele>1154.4</ele>
        <time>2026-07-08T09:36:11Z</time>
      </trkpt>
      <trkpt lat="43.0003" lon="0.32337">
        <ele>1153.4</ele>
        <time>2026-07-08T09:36:12Z</time>
      </trkpt>
      <trkpt lat="43.00031" lon="0.32338">
        <ele>1153.4</ele>
        <time>2026-07-08T09:36:13Z</time>
      </trkpt>
      <trkpt lat="43.00031" lon="0.32338">
        <ele>1153.4</ele>
        <time>2026-07-08T09:36:13Z</time>
      </trkpt>
      <trkpt lat="43.00031" lon="0.32339">
        <ele>1153.4</ele>
        <time>2026-07-08T09:36:14Z</time>
      </trkpt>
      <trkpt lat="43.00032" lon="0.32339">
        <ele>1153.4</ele>
        <time>2026-07-08T09:36:15Z</time>
      </trkpt>
      <trkpt lat="43.00032" lon="0.3234">
        <ele>1153.4</ele>
        <time>2026-07-08T09:36:16Z</time>
      </trkpt>
      <trkpt lat="43.00032" lon="0.32341">
        <ele>1153.4</ele>
        <time>2026-07-08T09:36:16Z</time>
      </trkpt>
      <trkpt lat="43.00032" lon="0.32341">
        <ele>1153.4</ele>
        <time>2026-07-08T09:36:17Z</time>
      </trkpt>
      <trkpt lat="43.00033" lon="0.32342">
        <ele>1153.4</ele>
        <time>2026-07-08T09:36:17Z</time>
      </trkpt>
      <trkpt lat="43.00033" lon="0.32343">
        <ele>1153.4</ele>
        <time>2026-07-08T09:36:18Z</time>
      </trkpt>
      <trkpt lat="43.00033" lon="0.32344">
        <ele>1152.4</ele>
        <time>2026-07-08T09:36:18Z</time>
      </trkpt>
      <trkpt lat="43.00033" lon="0.32345">
        <ele>1152.4</ele>
        <time>2026-07-08T09:36:19Z</time>
      </trkpt>
      <trkpt lat="43.00033" lon="0.32346">
        <ele>1152.4</ele>
        <time>2026-07-08T09:36:19Z</time>
      </trkpt>
      <trkpt lat="43.00033" lon="0.32346">
        <ele>1152.4</ele>
        <time>2026-07-08T09:36:20Z</time>
      </trkpt>
      <trkpt lat="43.00033" lon="0.32347">
        <ele>1152.4</ele>
        <time>2026-07-08T09:36:21Z</time>
      </trkpt>
      <trkpt lat="43.00033" lon="0.32348">
        <ele>1152.4</ele>
        <time>2026-07-08T09:36:21Z</time>
      </trkpt>
      <trkpt lat="43.00033" lon="0.32349">
        <ele>1152.4</ele>
        <time>2026-07-08T09:36:22Z</time>
      </trkpt>
      <trkpt lat="43.00033" lon="0.3235">
        <ele>1151.4</ele>
        <time>2026-07-08T09:36:22Z</time>
      </trkpt>
      <trkpt lat="43.00033" lon="0.32351">
        <ele>1151.4</ele>
        <time>2026-07-08T09:36:23Z</time>
      </trkpt>
      <trkpt lat="43.00033" lon="0.32352">
        <ele>1151.4</ele>
        <time>2026-07-08T09:36:23Z</time>
      </trkpt>
      <trkpt lat="43.00032" lon="0.32353">
        <ele>1151.4</ele>
        <time>2026-07-08T09:36:24Z</time>
      </trkpt>
      <trkpt lat="43.00032" lon="0.32353">
        <ele>1151.4</ele>
        <time>2026-07-08T09:36:24Z</time>
      </trkpt>
      <trkpt lat="43.00032" lon="0.32354">
        <ele>1151.4</ele>
        <time>2026-07-08T09:36:25Z</time>
      </trkpt>
      <trkpt lat="43.00032" lon="0.32355">
        <ele>1151.4</ele>
        <time>2026-07-08T09:36:26Z</time>
      </trkpt>
      <trkpt lat="43.00032" lon="0.32355">
        <ele>1150.4</ele>
        <time>2026-07-08T09:36:26Z</time>
      </trkpt>
      <trkpt lat="43.00032" lon="0.32356">
        <ele>1150.4</ele>
        <time>2026-07-08T09:36:27Z</time>
      </trkpt>
      <trkpt lat="43.00032" lon="0.32357">
        <ele>1150.4</ele>
        <time>2026-07-08T09:36:27Z</time>
      </trkpt>
      <trkpt lat="43.00032" lon="0.32357">
        <ele>1150.4</ele>
        <time>2026-07-08T09:36:28Z</time>
      </trkpt>
      <trkpt lat="43.00033" lon="0.32358">
        <ele>1150.4</ele>
        <time>2026-07-08T09:36:28Z</time>
      </trkpt>
      <trkpt lat="43.00033" lon="0.32358">
        <ele>1150.4</ele>
        <time>2026-07-08T09:36:29Z</time>
      </trkpt>
      <trkpt lat="43.00033" lon="0.3236">
        <ele>1150.4</ele>
        <time>2026-07-08T09:36:30Z</time>
      </trkpt>
      <trkpt lat="43.00033" lon="0.3236">
        <ele>1149.4</ele>
        <time>2026-07-08T09:36:30Z</time>
      </trkpt>
      <trkpt lat="43.00033" lon="0.32361">
        <ele>1148.4</ele>
        <time>2026-07-08T09:36:31Z</time>
      </trkpt>
      <trkpt lat="43.00033" lon="0.32363">
        <ele>1148.4</ele>
        <time>2026-07-08T09:36:32Z</time>
      </trkpt>
      <trkpt lat="43.00033" lon="0.32364">
        <ele>1148.4</ele>
        <time>2026-07-08T09:36:32Z</time>
      </trkpt>
      <trkpt lat="43.00033" lon="0.32365">
        <ele>1148.4</ele>
        <time>2026-07-08T09:36:33Z</time>
      </trkpt>
      <trkpt lat="43.00032" lon="0.32366">
        <ele>1148.4</ele>
        <time>2026-07-08T09:36:34Z</time>
      </trkpt>
      <trkpt lat="43.00032" lon="0.32367">
        <ele>1148.4</ele>
        <time>2026-07-08T09:36:34Z</time>
      </trkpt>
      <trkpt lat="43.00032" lon="0.32368">
        <ele>1148.4</ele>
        <time>2026-07-08T09:36:35Z</time>
      </trkpt>
      <trkpt lat="43.00032" lon="0.32369">
        <ele>1148.4</ele>
        <time>2026-07-08T09:36:35Z</time>
      </trkpt>
      <trkpt lat="43.00031" lon="0.3237">
        <ele>1147.4</ele>
        <time>2026-07-08T09:36:36Z</time>
      </trkpt>
      <trkpt lat="43.00031" lon="0.32371">
        <ele>1147.4</ele>
        <time>2026-07-08T09:36:37Z</time>
      </trkpt>
      <trkpt lat="43.0003" lon="0.32372">
        <ele>1147.4</ele>
        <time>2026-07-08T09:36:37Z</time>
      </trkpt>
      <trkpt lat="43.00029" lon="0.32373">
        <ele>1147.4</ele>
        <time>2026-07-08T09:36:38Z</time>
      </trkpt>
      <trkpt lat="43.00029" lon="0.32374">
        <ele>1147.4</ele>
        <time>2026-07-08T09:36:39Z</time>
      </trkpt>
      <trkpt lat="43.00029" lon="0.32375">
        <ele>1146.4</ele>
        <time>2026-07-08T09:36:39Z</time>
      </trkpt>
      <trkpt lat="43.00028" lon="0.32375">
        <ele>1146.4</ele>
        <time>2026-07-08T09:36:40Z</time>
      </trkpt>
      <trkpt lat="43.00028" lon="0.32376">
        <ele>1146.4</ele>
        <time>2026-07-08T09:36:40Z</time>
      </trkpt>
      <trkpt lat="43.00027" lon="0.32377">
        <ele>1146.4</ele>
        <time>2026-07-08T09:36:41Z</time>
      </trkpt>
      <trkpt lat="43.00027" lon="0.32378">
        <ele>1146.4</ele>
        <time>2026-07-08T09:36:41Z</time>
      </trkpt>
      <trkpt lat="43.00027" lon="0.32379">
        <ele>1146.4</ele>
        <time>2026-07-08T09:36:42Z</time>
      </trkpt>
      <trkpt lat="43.00026" lon="0.32379">
        <ele>1146.4</ele>
        <time>2026-07-08T09:36:42Z</time>
      </trkpt>
      <trkpt lat="43.00026" lon="0.3238">
        <ele>1146.4</ele>
        <time>2026-07-08T09:36:43Z</time>
      </trkpt>
      <trkpt lat="43.00025" lon="0.32382">
        <ele>1146.4</ele>
        <time>2026-07-08T09:36:44Z</time>
      </trkpt>
      <trkpt lat="43.00024" lon="0.32382">
        <ele>1145.4</ele>
        <time>2026-07-08T09:36:45Z</time>
      </trkpt>
      <trkpt lat="43.00024" lon="0.32383">
        <ele>1145.4</ele>
        <time>2026-07-08T09:36:46Z</time>
      </trkpt>
      <trkpt lat="43.00024" lon="0.32383">
        <ele>1145.4</ele>
        <time>2026-07-08T09:36:46Z</time>
      </trkpt>
      <trkpt lat="43.00024" lon="0.32384">
        <ele>1145.4</ele>
        <time>2026-07-08T09:36:47Z</time>
      </trkpt>
      <trkpt lat="43.00024" lon="0.32386">
        <ele>1145.4</ele>
        <time>2026-07-08T09:36:48Z</time>
      </trkpt>
      <trkpt lat="43.00024" lon="0.32386">
        <ele>1145.4</ele>
        <time>2026-07-08T09:36:48Z</time>
      </trkpt>
      <trkpt lat="43.00024" lon="0.32387">
        <ele>1145.4</ele>
        <time>2026-07-08T09:36:49Z</time>
      </trkpt>
      <trkpt lat="43.00024" lon="0.32388">
        <ele>1146.4</ele>
        <time>2026-07-08T09:36:50Z</time>
      </trkpt>
      <trkpt lat="43.00024" lon="0.32388">
        <ele>1146.4</ele>
        <time>2026-07-08T09:36:50Z</time>
      </trkpt>
      <trkpt lat="43.00024" lon="0.32389">
        <ele>1146.4</ele>
        <time>2026-07-08T09:36:51Z</time>
      </trkpt>
      <trkpt lat="43.00024" lon="0.3239">
        <ele>1145.4</ele>
        <time>2026-07-08T09:36:51Z</time>
      </trkpt>
      <trkpt lat="43.00024" lon="0.32391">
        <ele>1145.4</ele>
        <time>2026-07-08T09:36:52Z</time>
      </trkpt>
      <trkpt lat="43.00024" lon="0.32391">
        <ele>1145.4</ele>
        <time>2026-07-08T09:36:52Z</time>
      </trkpt>
      <trkpt lat="43.00024" lon="0.32392">
        <ele>1145.4</ele>
        <time>2026-07-08T09:36:53Z</time>
      </trkpt>
      <trkpt lat="43.00024" lon="0.32393">
        <ele>1144.4</ele>
        <time>2026-07-08T09:36:53Z</time>
      </trkpt>
      <trkpt lat="43.00023" lon="0.32393">
        <ele>1144.4</ele>
        <time>2026-07-08T09:36:54Z</time>
      </trkpt>
      <trkpt lat="43.00023" lon="0.32394">
        <ele>1144.4</ele>
        <time>2026-07-08T09:36:54Z</time>
      </trkpt>
      <trkpt lat="43.00023" lon="0.32395">
        <ele>1144.4</ele>
        <time>2026-07-08T09:36:55Z</time>
      </trkpt>
      <trkpt lat="43.00023" lon="0.32395">
        <ele>1143.4</ele>
        <time>2026-07-08T09:36:56Z</time>
      </trkpt>
      <trkpt lat="43.00023" lon="0.32396">
        <ele>1142.4</ele>
        <time>2026-07-08T09:36:56Z</time>
      </trkpt>
      <trkpt lat="43.00023" lon="0.32396">
        <ele>1142.4</ele>
        <time>2026-07-08T09:36:57Z</time>
      </trkpt>
      <trkpt lat="43.00023" lon="0.32397">
        <ele>1142.4</ele>
        <time>2026-07-08T09:36:57Z</time>
      </trkpt>
      <trkpt lat="43.00022" lon="0.32398">
        <ele>1142.4</ele>
        <time>2026-07-08T09:36:58Z</time>
      </trkpt>
      <trkpt lat="43.00022" lon="0.32398">
        <ele>1142.4</ele>
        <time>2026-07-08T09:36:58Z</time>
      </trkpt>
      <trkpt lat="43.00022" lon="0.32399">
        <ele>1142.4</ele>
        <time>2026-07-08T09:36:59Z</time>
      </trkpt>
      <trkpt lat="43.00021" lon="0.324">
        <ele>1141.4</ele>
        <time>2026-07-08T09:36:59Z</time>
      </trkpt>
      <trkpt lat="43.00021" lon="0.32401">
        <ele>1141.4</ele>
        <time>2026-07-08T09:37:00Z</time>
      </trkpt>
      <trkpt lat="43.00021" lon="0.32401">
        <ele>1141.4</ele>
        <time>2026-07-08T09:37:00Z</time>
      </trkpt>
      <trkpt lat="43.00021" lon="0.32402">
        <ele>1141.4</ele>
        <time>2026-07-08T09:37:01Z</time>
      </trkpt>
      <trkpt lat="43.0002" lon="0.32404">
        <ele>1141.4</ele>
        <time>2026-07-08T09:37:02Z</time>
      </trkpt>
      <trkpt lat="43.0002" lon="0.32405">
        <ele>1141.4</ele>
        <time>2026-07-08T09:37:03Z</time>
      </trkpt>
      <trkpt lat="43.0002" lon="0.32406">
        <ele>1140.4</ele>
        <time>2026-07-08T09:37:04Z</time>
      </trkpt>
      <trkpt lat="43.0002" lon="0.32407">
        <ele>1139.4</ele>
        <time>2026-07-08T09:37:04Z</time>
      </trkpt>
      <trkpt lat="43.0002" lon="0.32408">
        <ele>1139.4</ele>
        <time>2026-07-08T09:37:05Z</time>
      </trkpt>
      <trkpt lat="43.0002" lon="0.32409">
        <ele>1139.4</ele>
        <time>2026-07-08T09:37:05Z</time>
      </trkpt>
      <trkpt lat="43.0002" lon="0.3241">
        <ele>1139.4</ele>
        <time>2026-07-08T09:37:06Z</time>
      </trkpt>
      <trkpt lat="43.0002" lon="0.32411">
        <ele>1139.4</ele>
        <time>2026-07-08T09:37:07Z</time>
      </trkpt>
      <trkpt lat="43.0002" lon="0.32412">
        <ele>1139.4</ele>
        <time>2026-07-08T09:37:08Z</time>
      </trkpt>
      <trkpt lat="43.0002" lon="0.32413">
        <ele>1138.4</ele>
        <time>2026-07-08T09:37:08Z</time>
      </trkpt>
      <trkpt lat="43.00019" lon="0.32414">
        <ele>1138.4</ele>
        <time>2026-07-08T09:37:09Z</time>
      </trkpt>
      <trkpt lat="43.00019" lon="0.32415">
        <ele>1138.4</ele>
        <time>2026-07-08T09:37:09Z</time>
      </trkpt>
      <trkpt lat="43.00019" lon="0.32415">
        <ele>1138.4</ele>
        <time>2026-07-08T09:37:10Z</time>
      </trkpt>
      <trkpt lat="43.00019" lon="0.32416">
        <ele>1138.4</ele>
        <time>2026-07-08T09:37:10Z</time>
      </trkpt>
      <trkpt lat="43.00018" lon="0.32417">
        <ele>1138.4</ele>
        <time>2026-07-08T09:37:11Z</time>
      </trkpt>
      <trkpt lat="43.00018" lon="0.32417">
        <ele>1138.4</ele>
        <time>2026-07-08T09:37:11Z</time>
      </trkpt>
      <trkpt lat="43.00018" lon="0.32418">
        <ele>1138.4</ele>
        <time>2026-07-08T09:37:12Z</time>
      </trkpt>
      <trkpt lat="43.00017" lon="0.32419">
        <ele>1138.4</ele>
        <time>2026-07-08T09:37:13Z</time>
      </trkpt>
      <trkpt lat="43.00017" lon="0.3242">
        <ele>1138.4</ele>
        <time>2026-07-08T09:37:14Z</time>
      </trkpt>
      <trkpt lat="43.00017" lon="0.32421">
        <ele>1137.4</ele>
        <time>2026-07-08T09:37:14Z</time>
      </trkpt>
      <trkpt lat="43.00017" lon="0.32422">
        <ele>1137.4</ele>
        <time>2026-07-08T09:37:15Z</time>
      </trkpt>
      <trkpt lat="43.00017" lon="0.32423">
        <ele>1138.4</ele>
        <time>2026-07-08T09:37:15Z</time>
      </trkpt>
      <trkpt lat="43.00017" lon="0.32423">
        <ele>1138.4</ele>
        <time>2026-07-08T09:37:16Z</time>
      </trkpt>
      <trkpt lat="43.00017" lon="0.32425">
        <ele>1138.4</ele>
        <time>2026-07-08T09:37:17Z</time>
      </trkpt>
      <trkpt lat="43.00017" lon="0.32426">
        <ele>1137.4</ele>
        <time>2026-07-08T09:37:18Z</time>
      </trkpt>
      <trkpt lat="43.00016" lon="0.32427">
        <ele>1137.4</ele>
        <time>2026-07-08T09:37:19Z</time>
      </trkpt>
      <trkpt lat="43.00016" lon="0.32428">
        <ele>1136.4</ele>
        <time>2026-07-08T09:37:19Z</time>
      </trkpt>
      <trkpt lat="43.00016" lon="0.32429">
        <ele>1136.4</ele>
        <time>2026-07-08T09:37:20Z</time>
      </trkpt>
      <trkpt lat="43.00016" lon="0.3243">
        <ele>1136.4</ele>
        <time>2026-07-08T09:37:21Z</time>
      </trkpt>
      <trkpt lat="43.00015" lon="0.32431">
        <ele>1136.4</ele>
        <time>2026-07-08T09:37:21Z</time>
      </trkpt>
      <trkpt lat="43.00015" lon="0.32431">
        <ele>1136.4</ele>
        <time>2026-07-08T09:37:22Z</time>
      </trkpt>
      <trkpt lat="43.00015" lon="0.32432">
        <ele>1136.4</ele>
        <time>2026-07-08T09:37:23Z</time>
      </trkpt>
      <trkpt lat="43.00015" lon="0.32432">
        <ele>1135.4</ele>
        <time>2026-07-08T09:37:23Z</time>
      </trkpt>
      <trkpt lat="43.00015" lon="0.32433">
        <ele>1135.4</ele>
        <time>2026-07-08T09:37:24Z</time>
      </trkpt>
      <trkpt lat="43.00014" lon="0.32434">
        <ele>1136.4</ele>
        <time>2026-07-08T09:37:25Z</time>
      </trkpt>
      <trkpt lat="43.00014" lon="0.32435">
        <ele>1136.4</ele>
        <time>2026-07-08T09:37:26Z</time>
      </trkpt>
      <trkpt lat="43.00014" lon="0.32435">
        <ele>1136.4</ele>
        <time>2026-07-08T09:37:26Z</time>
      </trkpt>
      <trkpt lat="43.00014" lon="0.32436">
        <ele>1136.4</ele>
        <time>2026-07-08T09:37:27Z</time>
      </trkpt>
      <trkpt lat="43.00014" lon="0.32437">
        <ele>1136.4</ele>
        <time>2026-07-08T09:37:28Z</time>
      </trkpt>
      <trkpt lat="43.00014" lon="0.32437">
        <ele>1136.4</ele>
        <time>2026-07-08T09:37:28Z</time>
      </trkpt>
      <trkpt lat="43.00014" lon="0.32438">
        <ele>1136.4</ele>
        <time>2026-07-08T09:37:29Z</time>
      </trkpt>
      <trkpt lat="43.00015" lon="0.32438">
        <ele>1136.4</ele>
        <time>2026-07-08T09:37:29Z</time>
      </trkpt>
      <trkpt lat="43.00015" lon="0.32439">
        <ele>1136.4</ele>
        <time>2026-07-08T09:37:30Z</time>
      </trkpt>
      <trkpt lat="43.00016" lon="0.32439">
        <ele>1135.4</ele>
        <time>2026-07-08T09:37:30Z</time>
      </trkpt>
      <trkpt lat="43.00016" lon="0.3244">
        <ele>1135.4</ele>
        <time>2026-07-08T09:37:31Z</time>
      </trkpt>
      <trkpt lat="43.00017" lon="0.3244">
        <ele>1135.4</ele>
        <time>2026-07-08T09:37:32Z</time>
      </trkpt>
      <trkpt lat="43.00017" lon="0.32441">
        <ele>1135.4</ele>
        <time>2026-07-08T09:37:32Z</time>
      </trkpt>
      <trkpt lat="43.00018" lon="0.32442">
        <ele>1135.4</ele>
        <time>2026-07-08T09:37:33Z</time>
      </trkpt>
      <trkpt lat="43.00018" lon="0.32443">
        <ele>1135.4</ele>
        <time>2026-07-08T09:37:33Z</time>
      </trkpt>
      <trkpt lat="43.00018" lon="0.32444">
        <ele>1135.4</ele>
        <time>2026-07-08T09:37:34Z</time>
      </trkpt>
      <trkpt lat="43.00018" lon="0.32445">
        <ele>1135.4</ele>
        <time>2026-07-08T09:37:35Z</time>
      </trkpt>
      <trkpt lat="43.00019" lon="0.32446">
        <ele>1135.4</ele>
        <time>2026-07-08T09:37:36Z</time>
      </trkpt>
      <trkpt lat="43.00019" lon="0.32447">
        <ele>1135.4</ele>
        <time>2026-07-08T09:37:36Z</time>
      </trkpt>
      <trkpt lat="43.0002" lon="0.32448">
        <ele>1135.4</ele>
        <time>2026-07-08T09:37:37Z</time>
      </trkpt>
      <trkpt lat="43.00021" lon="0.32449">
        <ele>1135.4</ele>
        <time>2026-07-08T09:37:38Z</time>
      </trkpt>
      <trkpt lat="43.00022" lon="0.32449">
        <ele>1134.4</ele>
        <time>2026-07-08T09:37:38Z</time>
      </trkpt>
      <trkpt lat="43.00022" lon="0.3245">
        <ele>1134.4</ele>
        <time>2026-07-08T09:37:39Z</time>
      </trkpt>
      <trkpt lat="43.00023" lon="0.3245">
        <ele>1134.4</ele>
        <time>2026-07-08T09:37:39Z</time>
      </trkpt>
      <trkpt lat="43.00023" lon="0.32451">
        <ele>1133.4</ele>
        <time>2026-07-08T09:37:40Z</time>
      </trkpt>
      <trkpt lat="43.00024" lon="0.32451">
        <ele>1133.4</ele>
        <time>2026-07-08T09:37:41Z</time>
      </trkpt>
      <trkpt lat="43.00024" lon="0.32452">
        <ele>1133.4</ele>
        <time>2026-07-08T09:37:41Z</time>
      </trkpt>
      <trkpt lat="43.00024" lon="0.32453">
        <ele>1133.4</ele>
        <time>2026-07-08T09:37:42Z</time>
      </trkpt>
      <trkpt lat="43.00024" lon="0.32453">
        <ele>1133.4</ele>
        <time>2026-07-08T09:37:42Z</time>
      </trkpt>
      <trkpt lat="43.00024" lon="0.32454">
        <ele>1133.4</ele>
        <time>2026-07-08T09:37:43Z</time>
      </trkpt>
      <trkpt lat="43.00024" lon="0.32454">
        <ele>1133.4</ele>
        <time>2026-07-08T09:37:43Z</time>
      </trkpt>
      <trkpt lat="43.00025" lon="0.32455">
        <ele>1133.4</ele>
        <time>2026-07-08T09:37:44Z</time>
      </trkpt>
      <trkpt lat="43.00025" lon="0.32456">
        <ele>1133.4</ele>
        <time>2026-07-08T09:37:45Z</time>
      </trkpt>
      <trkpt lat="43.00025" lon="0.32457">
        <ele>1133.4</ele>
        <time>2026-07-08T09:37:45Z</time>
      </trkpt>
      <trkpt lat="43.00026" lon="0.32458">
        <ele>1133.4</ele>
        <time>2026-07-08T09:37:46Z</time>
      </trkpt>
      <trkpt lat="43.00026" lon="0.32459">
        <ele>1133.4</ele>
        <time>2026-07-08T09:37:47Z</time>
      </trkpt>
      <trkpt lat="43.00027" lon="0.32459">
        <ele>1133.4</ele>
        <time>2026-07-08T09:37:47Z</time>
      </trkpt>
      <trkpt lat="43.00027" lon="0.3246">
        <ele>1133.4</ele>
        <time>2026-07-08T09:37:48Z</time>
      </trkpt>
      <trkpt lat="43.00028" lon="0.3246">
        <ele>1133.4</ele>
        <time>2026-07-08T09:37:48Z</time>
      </trkpt>
      <trkpt lat="43.00028" lon="0.32461">
        <ele>1133.4</ele>
        <time>2026-07-08T09:37:49Z</time>
      </trkpt>
      <trkpt lat="43.00029" lon="0.32461">
        <ele>1133.4</ele>
        <time>2026-07-08T09:37:49Z</time>
      </trkpt>
      <trkpt lat="43.00029" lon="0.32462">
        <ele>1132.4</ele>
        <time>2026-07-08T09:37:50Z</time>
      </trkpt>
      <trkpt lat="43.00029" lon="0.32462">
        <ele>1132.4</ele>
        <time>2026-07-08T09:37:51Z</time>
      </trkpt>
      <trkpt lat="43.0003" lon="0.32463">
        <ele>1132.4</ele>
        <time>2026-07-08T09:37:51Z</time>
      </trkpt>
      <trkpt lat="43.00031" lon="0.32464">
        <ele>1132.4</ele>
        <time>2026-07-08T09:37:52Z</time>
      </trkpt>
      <trkpt lat="43.00031" lon="0.32465">
        <ele>1132.4</ele>
        <time>2026-07-08T09:37:53Z</time>
      </trkpt>
      <trkpt lat="43.00032" lon="0.32466">
        <ele>1131.4</ele>
        <time>2026-07-08T09:37:54Z</time>
      </trkpt>
      <trkpt lat="43.00033" lon="0.32466">
        <ele>1131.4</ele>
        <time>2026-07-08T09:37:54Z</time>
      </trkpt>
      <trkpt lat="43.00034" lon="0.32466">
        <ele>1131.4</ele>
        <time>2026-07-08T09:37:55Z</time>
      </trkpt>
      <trkpt lat="43.00034" lon="0.32467">
        <ele>1130.4</ele>
        <time>2026-07-08T09:37:55Z</time>
      </trkpt>
      <trkpt lat="43.00035" lon="0.32467">
        <ele>1130.4</ele>
        <time>2026-07-08T09:37:56Z</time>
      </trkpt>
      <trkpt lat="43.00036" lon="0.32467">
        <ele>1130.4</ele>
        <time>2026-07-08T09:37:57Z</time>
      </trkpt>
      <trkpt lat="43.00037" lon="0.32468">
        <ele>1129.4</ele>
        <time>2026-07-08T09:37:57Z</time>
      </trkpt>
      <trkpt lat="43.00037" lon="0.32469">
        <ele>1129.4</ele>
        <time>2026-07-08T09:37:58Z</time>
      </trkpt>
      <trkpt lat="43.00038" lon="0.32469">
        <ele>1129.4</ele>
        <time>2026-07-08T09:37:58Z</time>
      </trkpt>
      <trkpt lat="43.00039" lon="0.32469">
        <ele>1129.4</ele>
        <time>2026-07-08T09:37:59Z</time>
      </trkpt>
      <trkpt lat="43.00039" lon="0.3247">
        <ele>1129.4</ele>
        <time>2026-07-08T09:38:00Z</time>
      </trkpt>
      <trkpt lat="43.0004" lon="0.32471">
        <ele>1128.4</ele>
        <time>2026-07-08T09:38:01Z</time>
      </trkpt>
      <trkpt lat="43.00041" lon="0.32471">
        <ele>1128.4</ele>
        <time>2026-07-08T09:38:01Z</time>
      </trkpt>
      <trkpt lat="43.00042" lon="0.32471">
        <ele>1128.4</ele>
        <time>2026-07-08T09:38:02Z</time>
      </trkpt>
      <trkpt lat="43.00043" lon="0.32472">
        <ele>1128.4</ele>
        <time>2026-07-08T09:38:03Z</time>
      </trkpt>
      <trkpt lat="43.00044" lon="0.32472">
        <ele>1128.4</ele>
        <time>2026-07-08T09:38:04Z</time>
      </trkpt>
      <trkpt lat="43.00045" lon="0.32472">
        <ele>1128.4</ele>
        <time>2026-07-08T09:38:05Z</time>
      </trkpt>
      <trkpt lat="43.00045" lon="0.32472">
        <ele>1127.4</ele>
        <time>2026-07-08T09:38:05Z</time>
      </trkpt>
      <trkpt lat="43.00046" lon="0.32473">
        <ele>1127.4</ele>
        <time>2026-07-08T09:38:06Z</time>
      </trkpt>
      <trkpt lat="43.00047" lon="0.32473">
        <ele>1127.4</ele>
        <time>2026-07-08T09:38:06Z</time>
      </trkpt>
      <trkpt lat="43.00047" lon="0.32473">
        <ele>1127.4</ele>
        <time>2026-07-08T09:38:07Z</time>
      </trkpt>
      <trkpt lat="43.00048" lon="0.32474">
        <ele>1127.4</ele>
        <time>2026-07-08T09:38:07Z</time>
      </trkpt>
      <trkpt lat="43.00048" lon="0.32474">
        <ele>1127.4</ele>
        <time>2026-07-08T09:38:08Z</time>
      </trkpt>
      <trkpt lat="43.00049" lon="0.32475">
        <ele>1127.4</ele>
        <time>2026-07-08T09:38:09Z</time>
      </trkpt>
      <trkpt lat="43.0005" lon="0.32476">
        <ele>1126.4</ele>
        <time>2026-07-08T09:38:10Z</time>
      </trkpt>
      <trkpt lat="43.00051" lon="0.32476">
        <ele>1126.4</ele>
        <time>2026-07-08T09:38:10Z</time>
      </trkpt>
      <trkpt lat="43.00051" lon="0.32476">
        <ele>1126.4</ele>
        <time>2026-07-08T09:38:11Z</time>
      </trkpt>
      <trkpt lat="43.00052" lon="0.32477">
        <ele>1126.4</ele>
        <time>2026-07-08T09:38:12Z</time>
      </trkpt>
      <trkpt lat="43.00052" lon="0.32476">
        <ele>1126.4</ele>
        <time>2026-07-08T09:38:12Z</time>
      </trkpt>
      <trkpt lat="43.00053" lon="0.32476">
        <ele>1126.4</ele>
        <time>2026-07-08T09:38:13Z</time>
      </trkpt>
      <trkpt lat="43.00054" lon="0.32477">
        <ele>1126.4</ele>
        <time>2026-07-08T09:38:14Z</time>
      </trkpt>
      <trkpt lat="43.00054" lon="0.32477">
        <ele>1125.4</ele>
        <time>2026-07-08T09:38:14Z</time>
      </trkpt>
      <trkpt lat="43.00055" lon="0.32478">
        <ele>1125.4</ele>
        <time>2026-07-08T09:38:15Z</time>
      </trkpt>
      <trkpt lat="43.00055" lon="0.32478">
        <ele>1124.4</ele>
        <time>2026-07-08T09:38:15Z</time>
      </trkpt>
      <trkpt lat="43.00056" lon="0.32478">
        <ele>1124.4</ele>
        <time>2026-07-08T09:38:16Z</time>
      </trkpt>
      <trkpt lat="43.00056" lon="0.32479">
        <ele>1124.4</ele>
        <time>2026-07-08T09:38:16Z</time>
      </trkpt>
      <trkpt lat="43.00057" lon="0.3248">
        <ele>1124.4</ele>
        <time>2026-07-08T09:38:17Z</time>
      </trkpt>
      <trkpt lat="43.00057" lon="0.3248">
        <ele>1124.4</ele>
        <time>2026-07-08T09:38:17Z</time>
      </trkpt>
      <trkpt lat="43.00058" lon="0.32481">
        <ele>1124.4</ele>
        <time>2026-07-08T09:38:18Z</time>
      </trkpt>
      <trkpt lat="43.00058" lon="0.32481">
        <ele>1123.4</ele>
        <time>2026-07-08T09:38:19Z</time>
      </trkpt>
      <trkpt lat="43.00058" lon="0.32481">
        <ele>1123.4</ele>
        <time>2026-07-08T09:38:19Z</time>
      </trkpt>
      <trkpt lat="43.00059" lon="0.32482">
        <ele>1123.4</ele>
        <time>2026-07-08T09:38:20Z</time>
      </trkpt>
      <trkpt lat="43.0006" lon="0.32482">
        <ele>1124.4</ele>
        <time>2026-07-08T09:38:21Z</time>
      </trkpt>
      <trkpt lat="43.00061" lon="0.32482">
        <ele>1123.4</ele>
        <time>2026-07-08T09:38:21Z</time>
      </trkpt>
      <trkpt lat="43.00062" lon="0.32482">
        <ele>1123.4</ele>
        <time>2026-07-08T09:38:22Z</time>
      </trkpt>
      <trkpt lat="43.00062" lon="0.32482">
        <ele>1123.4</ele>
        <time>2026-07-08T09:38:22Z</time>
      </trkpt>
      <trkpt lat="43.00063" lon="0.32483">
        <ele>1123.4</ele>
        <time>2026-07-08T09:38:23Z</time>
      </trkpt>
      <trkpt lat="43.00063" lon="0.32483">
        <ele>1123.4</ele>
        <time>2026-07-08T09:38:23Z</time>
      </trkpt>
      <trkpt lat="43.00064" lon="0.32483">
        <ele>1123.4</ele>
        <time>2026-07-08T09:38:24Z</time>
      </trkpt>
      <trkpt lat="43.00064" lon="0.32484">
        <ele>1123.4</ele>
        <time>2026-07-08T09:38:25Z</time>
      </trkpt>
      <trkpt lat="43.00065" lon="0.32485">
        <ele>1123.4</ele>
        <time>2026-07-08T09:38:25Z</time>
      </trkpt>
      <trkpt lat="43.00065" lon="0.32485">
        <ele>1123.4</ele>
        <time>2026-07-08T09:38:26Z</time>
      </trkpt>
      <trkpt lat="43.00066" lon="0.32486">
        <ele>1122.4</ele>
        <time>2026-07-08T09:38:27Z</time>
      </trkpt>
      <trkpt lat="43.00066" lon="0.32487">
        <ele>1122.4</ele>
        <time>2026-07-08T09:38:27Z</time>
      </trkpt>
      <trkpt lat="43.00066" lon="0.32488">
        <ele>1121.4</ele>
        <time>2026-07-08T09:38:28Z</time>
      </trkpt>
      <trkpt lat="43.00066" lon="0.32489">
        <ele>1121.4</ele>
        <time>2026-07-08T09:38:28Z</time>
      </trkpt>
      <trkpt lat="43.00067" lon="0.32489">
        <ele>1121.4</ele>
        <time>2026-07-08T09:38:29Z</time>
      </trkpt>
      <trkpt lat="43.00067" lon="0.3249">
        <ele>1121.4</ele>
        <time>2026-07-08T09:38:29Z</time>
      </trkpt>
      <trkpt lat="43.00068" lon="0.32491">
        <ele>1121.4</ele>
        <time>2026-07-08T09:38:30Z</time>
      </trkpt>
      <trkpt lat="43.00068" lon="0.32492">
        <ele>1121.4</ele>
        <time>2026-07-08T09:38:31Z</time>
      </trkpt>
      <trkpt lat="43.00068" lon="0.32493">
        <ele>1120.4</ele>
        <time>2026-07-08T09:38:31Z</time>
      </trkpt>
      <trkpt lat="43.00068" lon="0.32494">
        <ele>1120.4</ele>
        <time>2026-07-08T09:38:32Z</time>
      </trkpt>
      <trkpt lat="43.00068" lon="0.32495">
        <ele>1120.4</ele>
        <time>2026-07-08T09:38:33Z</time>
      </trkpt>
      <trkpt lat="43.00067" lon="0.32496">
        <ele>1120.4</ele>
        <time>2026-07-08T09:38:33Z</time>
      </trkpt>
      <trkpt lat="43.00067" lon="0.32497">
        <ele>1120.4</ele>
        <time>2026-07-08T09:38:34Z</time>
      </trkpt>
      <trkpt lat="43.00067" lon="0.32499">
        <ele>1120.4</ele>
        <time>2026-07-08T09:38:35Z</time>
      </trkpt>
      <trkpt lat="43.00067" lon="0.325">
        <ele>1120.4</ele>
        <time>2026-07-08T09:38:36Z</time>
      </trkpt>
      <trkpt lat="43.00067" lon="0.32501">
        <ele>1120.4</ele>
        <time>2026-07-08T09:38:37Z</time>
      </trkpt>
      <trkpt lat="43.00067" lon="0.32502">
        <ele>1120.4</ele>
        <time>2026-07-08T09:38:38Z</time>
      </trkpt>
      <trkpt lat="43.00067" lon="0.32502">
        <ele>1120.4</ele>
        <time>2026-07-08T09:38:39Z</time>
      </trkpt>
      <trkpt lat="43.00068" lon="0.32502">
        <ele>1120.4</ele>
        <time>2026-07-08T09:38:40Z</time>
      </trkpt>
      <trkpt lat="43.00067" lon="0.32502">
        <ele>1120.4</ele>
        <time>2026-07-08T09:38:41Z</time>
      </trkpt>
      <trkpt lat="43.00067" lon="0.32501">
        <ele>1120.4</ele>
        <time>2026-07-08T09:38:42Z</time>
      </trkpt>
      <trkpt lat="43.00066" lon="0.32501">
        <ele>1120.4</ele>
        <time>2026-07-08T09:38:43Z</time>
      </trkpt>
      <trkpt lat="43.00066" lon="0.325">
        <ele>1119.4</ele>
        <time>2026-07-08T09:38:44Z</time>
      </trkpt>
      <trkpt lat="43.00066" lon="0.325">
        <ele>1119.4</ele>
        <time>2026-07-08T09:38:45Z</time>
      </trkpt>
      <trkpt lat="43.00065" lon="0.325">
        <ele>1119.4</ele>
        <time>2026-07-08T09:38:46Z</time>
      </trkpt>
      <trkpt lat="43.00065" lon="0.325">
        <ele>1120.4</ele>
        <time>2026-07-08T09:38:47Z</time>
      </trkpt>
      <trkpt lat="43.00065" lon="0.32501">
        <ele>1120.4</ele>
        <time>2026-07-08T09:38:48Z</time>
      </trkpt>
      <trkpt lat="43.00065" lon="0.32501">
        <ele>1120.4</ele>
        <time>2026-07-08T09:38:49Z</time>
      </trkpt>
      <trkpt lat="43.00065" lon="0.32501">
        <ele>1121.4</ele>
        <time>2026-07-08T09:38:50Z</time>
      </trkpt>
      <trkpt lat="43.00065" lon="0.32501">
        <ele>1121.4</ele>
        <time>2026-07-08T09:38:51Z</time>
      </trkpt>
      <trkpt lat="43.00065" lon="0.32501">
        <ele>1121.4</ele>
        <time>2026-07-08T09:38:52Z</time>
      </trkpt>
      <trkpt lat="43.00065" lon="0.32501">
        <ele>1121.4</ele>
        <time>2026-07-08T09:38:53Z</time>
      </trkpt>
      <trkpt lat="43.00064" lon="0.32501">
        <ele>1121.4</ele>
        <time>2026-07-08T09:38:54Z</time>
      </trkpt>
      <trkpt lat="43.00064" lon="0.32502">
        <ele>1122.4</ele>
        <time>2026-07-08T09:38:55Z</time>
      </trkpt>
      <trkpt lat="43.00064" lon="0.32502">
        <ele>1122.4</ele>
        <time>2026-07-08T09:38:56Z</time>
      </trkpt>
      <trkpt lat="43.00065" lon="0.32502">
        <ele>1122.4</ele>
        <time>2026-07-08T09:38:57Z</time>
      </trkpt>
      <trkpt lat="43.00065" lon="0.32502">
        <ele>1122.4</ele>
        <time>2026-07-08T09:38:58Z</time>
      </trkpt>
      <trkpt lat="43.00065" lon="0.32502">
        <ele>1122.4</ele>
        <time>2026-07-08T09:38:59Z</time>
      </trkpt>
      <trkpt lat="43.00065" lon="0.32502">
        <ele>1121.4</ele>
        <time>2026-07-08T09:39:00Z</time>
      </trkpt>
      <trkpt lat="43.00064" lon="0.32502">
        <ele>1121.4</ele>
        <time>2026-07-08T09:39:01Z</time>
      </trkpt>
      <trkpt lat="43.00064" lon="0.32503">
        <ele>1121.4</ele>
        <time>2026-07-08T09:39:02Z</time>
      </trkpt>
      <trkpt lat="43.00065" lon="0.32503">
        <ele>1120.4</ele>
        <time>2026-07-08T09:39:03Z</time>
      </trkpt>
      <trkpt lat="43.00065" lon="0.32503">
        <ele>1121.4</ele>
        <time>2026-07-08T09:39:04Z</time>
      </trkpt>
      <trkpt lat="43.00065" lon="0.32504">
        <ele>1121.4</ele>
        <time>2026-07-08T09:39:05Z</time>
      </trkpt>
      <trkpt lat="43.00066" lon="0.32504">
        <ele>1121.4</ele>
        <time>2026-07-08T09:39:06Z</time>
      </trkpt>
      <trkpt lat="43.00066" lon="0.32505">
        <ele>1121.4</ele>
        <time>2026-07-08T09:39:07Z</time>
      </trkpt>
      <trkpt lat="43.00066" lon="0.32505">
        <ele>1120.4</ele>
        <time>2026-07-08T09:39:08Z</time>
      </trkpt>
      <trkpt lat="43.00067" lon="0.32505">
        <ele>1120.4</ele>
        <time>2026-07-08T09:39:09Z</time>
      </trkpt>
      <trkpt lat="43.00067" lon="0.32506">
        <ele>1120.4</ele>
        <time>2026-07-08T09:39:10Z</time>
      </trkpt>
      <trkpt lat="43.00068" lon="0.32506">
        <ele>1120.4</ele>
        <time>2026-07-08T09:39:11Z</time>
      </trkpt>
      <trkpt lat="43.00068" lon="0.32506">
        <ele>1119.4</ele>
        <time>2026-07-08T09:39:12Z</time>
      </trkpt>
      <trkpt lat="43.00068" lon="0.32506">
        <ele>1119.4</ele>
        <time>2026-07-08T09:39:13Z</time>
      </trkpt>
      <trkpt lat="43.00068" lon="0.32506">
        <ele>1119.4</ele>
        <time>2026-07-08T09:39:14Z</time>
      </trkpt>
      <trkpt lat="43.00068" lon="0.32506">
        <ele>1119.4</ele>
        <time>2026-07-08T09:39:15Z</time>
      </trkpt>
      <trkpt lat="43.00068" lon="0.32507">
        <ele>1120.4</ele>
        <time>2026-07-08T09:39:16Z</time>
      </trkpt>
      <trkpt lat="43.00068" lon="0.32507">
        <ele>1120.4</ele>
        <time>2026-07-08T09:39:17Z</time>
      </trkpt>
      <trkpt lat="43.00068" lon="0.32507">
        <ele>1120.4</ele>
        <time>2026-07-08T09:39:18Z</time>
      </trkpt>
      <trkpt lat="43.00068" lon="0.32507">
        <ele>1120.4</ele>
        <time>2026-07-08T09:39:19Z</time>
      </trkpt>
      <trkpt lat="43.00067" lon="0.32507">
        <ele>1120.4</ele>
        <time>2026-07-08T09:39:20Z</time>
      </trkpt>
      <trkpt lat="43.00067" lon="0.32507">
        <ele>1120.4</ele>
        <time>2026-07-08T09:39:21Z</time>
      </trkpt>
      <trkpt lat="43.00066" lon="0.32506">
        <ele>1120.4</ele>
        <time>2026-07-08T09:39:22Z</time>
      </trkpt>
      <trkpt lat="43.00066" lon="0.32506">
        <ele>1120.4</ele>
        <time>2026-07-08T09:39:23Z</time>
      </trkpt>
      <trkpt lat="43.00066" lon="0.32507">
        <ele>1120.4</ele>
        <time>2026-07-08T09:39:24Z</time>
      </trkpt>
      <trkpt lat="43.00066" lon="0.32508">
        <ele>1124.4</ele>
        <time>2026-07-08T09:39:25Z</time>
      </trkpt>
      <trkpt lat="43.00065" lon="0.32508">
        <ele>1124.4</ele>
        <time>2026-07-08T09:39:26Z</time>
      </trkpt>
      <trkpt lat="43.00065" lon="0.32509">
        <ele>1124.4</ele>
        <time>2026-07-08T09:39:27Z</time>
      </trkpt>
      <trkpt lat="43.00064" lon="0.3251">
        <ele>1125.4</ele>
        <time>2026-07-08T09:39:28Z</time>
      </trkpt>
      <trkpt lat="43.00064" lon="0.3251">
        <ele>1125.4</ele>
        <time>2026-07-08T09:39:29Z</time>
      </trkpt>
      <trkpt lat="43.00063" lon="0.32511">
        <ele>1125.4</ele>
        <time>2026-07-08T09:39:30Z</time>
      </trkpt>
      <trkpt lat="43.00063" lon="0.32512">
        <ele>1125.4</ele>
        <time>2026-07-08T09:39:31Z</time>
      </trkpt>
      <trkpt lat="43.00062" lon="0.32512">
        <ele>1125.4</ele>
        <time>2026-07-08T09:39:32Z</time>
      </trkpt>
      <trkpt lat="43.00062" lon="0.32513">
        <ele>1125.4</ele>
        <time>2026-07-08T09:39:33Z</time>
      </trkpt>
      <trkpt lat="43.00061" lon="0.32513">
        <ele>1125.4</ele>
        <time>2026-07-08T09:39:34Z</time>
      </trkpt>
      <trkpt lat="43.00061" lon="0.32513">
        <ele>1125.4</ele>
        <time>2026-07-08T09:39:35Z</time>
      </trkpt>
      <trkpt lat="43.00061" lon="0.32513">
        <ele>1125.4</ele>
        <time>2026-07-08T09:39:36Z</time>
      </trkpt>
      <trkpt lat="43.00061" lon="0.32514">
        <ele>1126.4</ele>
        <time>2026-07-08T09:39:37Z</time>
      </trkpt>
      <trkpt lat="43.00061" lon="0.32514">
        <ele>1126.4</ele>
        <time>2026-07-08T09:39:38Z</time>
      </trkpt>
      <trkpt lat="43.00061" lon="0.32515">
        <ele>1126.4</ele>
        <time>2026-07-08T09:39:39Z</time>
      </trkpt>
      <trkpt lat="43.00061" lon="0.32515">
        <ele>1126.4</ele>
        <time>2026-07-08T09:39:40Z</time>
      </trkpt>
      <trkpt lat="43.00061" lon="0.32515">
        <ele>1127.4</ele>
        <time>2026-07-08T09:39:41Z</time>
      </trkpt>
      <trkpt lat="43.00061" lon="0.32516">
        <ele>1127.4</ele>
        <time>2026-07-08T09:39:42Z</time>
      </trkpt>
      <trkpt lat="43.00061" lon="0.32516">
        <ele>1126.4</ele>
        <time>2026-07-08T09:39:43Z</time>
      </trkpt>
      <trkpt lat="43.00061" lon="0.32515">
        <ele>1125.4</ele>
        <time>2026-07-08T09:39:44Z</time>
      </trkpt>
      <trkpt lat="43.00061" lon="0.32516">
        <ele>1124.4</ele>
        <time>2026-07-08T09:39:45Z</time>
      </trkpt>
      <trkpt lat="43.0006" lon="0.32516">
        <ele>1124.4</ele>
        <time>2026-07-08T09:39:46Z</time>
      </trkpt>
      <trkpt lat="43.0006" lon="0.32515">
        <ele>1123.4</ele>
        <time>2026-07-08T09:39:47Z</time>
      </trkpt>
      <trkpt lat="43.00059" lon="0.32515">
        <ele>1123.4</ele>
        <time>2026-07-08T09:39:48Z</time>
      </trkpt>
      <trkpt lat="43.00059" lon="0.32514">
        <ele>1123.4</ele>
        <time>2026-07-08T09:39:49Z</time>
      </trkpt>
      <trkpt lat="43.00058" lon="0.32513">
        <ele>1122.4</ele>
        <time>2026-07-08T09:39:50Z</time>
      </trkpt>
      <trkpt lat="43.00058" lon="0.32513">
        <ele>1122.4</ele>
        <time>2026-07-08T09:39:51Z</time>
      </trkpt>
      <trkpt lat="43.00057" lon="0.32512">
        <ele>1121.4</ele>
        <time>2026-07-08T09:39:52Z</time>
      </trkpt>
      <trkpt lat="43.00057" lon="0.32512">
        <ele>1121.4</ele>
        <time>2026-07-08T09:39:53Z</time>
      </trkpt>
      <trkpt lat="43.00056" lon="0.32511">
        <ele>1121.4</ele>
        <time>2026-07-08T09:39:54Z</time>
      </trkpt>
      <trkpt lat="43.00056" lon="0.32511">
        <ele>1121.4</ele>
        <time>2026-07-08T09:39:55Z</time>
      </trkpt>
      <trkpt lat="43.00055" lon="0.32511">
        <ele>1120.4</ele>
        <time>2026-07-08T09:39:56Z</time>
      </trkpt>
      <trkpt lat="43.00055" lon="0.3251">
        <ele>1120.4</ele>
        <time>2026-07-08T09:39:57Z</time>
      </trkpt>
      <trkpt lat="43.00055" lon="0.3251">
        <ele>1120.4</ele>
        <time>2026-07-08T09:39:58Z</time>
      </trkpt>
      <trkpt lat="43.00054" lon="0.32509">
        <ele>1121.4</ele>
        <time>2026-07-08T09:39:59Z</time>
      </trkpt>
      <trkpt lat="43.00054" lon="0.32509">
        <ele>1120.4</ele>
        <time>2026-07-08T09:40:00Z</time>
      </trkpt>
      <trkpt lat="43.00053" lon="0.32508">
        <ele>1120.4</ele>
        <time>2026-07-08T09:40:01Z</time>
      </trkpt>
      <trkpt lat="43.00053" lon="0.32508">
        <ele>1120.4</ele>
        <time>2026-07-08T09:40:02Z</time>
      </trkpt>
      <trkpt lat="43.00053" lon="0.32508">
        <ele>1120.4</ele>
        <time>2026-07-08T09:40:03Z</time>
      </trkpt>
      <trkpt lat="43.00053" lon="0.32508">
        <ele>1120.4</ele>
        <time>2026-07-08T09:40:04Z</time>
      </trkpt>
      <trkpt lat="43.00053" lon="0.32507">
        <ele>1120.4</ele>
        <time>2026-07-08T09:40:05Z</time>
      </trkpt>
      <trkpt lat="43.00052" lon="0.32507">
        <ele>1120.4</ele>
        <time>2026-07-08T09:40:06Z</time>
      </trkpt>
      <trkpt lat="43.00052" lon="0.32507">
        <ele>1121.4</ele>
        <time>2026-07-08T09:40:07Z</time>
      </trkpt>
      <trkpt lat="43.00054" lon="0.32509">
        <ele>1123.4</ele>
        <time>2026-07-08T09:40:08Z</time>
      </trkpt>
      <trkpt lat="43.00054" lon="0.3251">
        <ele>1123.4</ele>
        <time>2026-07-08T09:40:09Z</time>
      </trkpt>
      <trkpt lat="43.00056" lon="0.32511">
        <ele>1123.4</ele>
        <time>2026-07-08T09:40:10Z</time>
      </trkpt>
      <trkpt lat="43.00058" lon="0.32513">
        <ele>1123.4</ele>
        <time>2026-07-08T09:40:11Z</time>
      </trkpt>
      <trkpt lat="43.00058" lon="0.32513">
        <ele>1123.4</ele>
        <time>2026-07-08T09:40:12Z</time>
      </trkpt>
      <trkpt lat="43.00058" lon="0.32514">
        <ele>1123.4</ele>
        <time>2026-07-08T09:40:13Z</time>
      </trkpt>
      <trkpt lat="43.00059" lon="0.32514">
        <ele>1123.4</ele>
        <time>2026-07-08T09:40:14Z</time>
      </trkpt>
      <trkpt lat="43.00059" lon="0.32514">
        <ele>1123.4</ele>
        <time>2026-07-08T09:40:15Z</time>
      </trkpt>
      <trkpt lat="43.00059" lon="0.32514">
        <ele>1123.4</ele>
        <time>2026-07-08T09:40:16Z</time>
      </trkpt>
      <trkpt lat="43.00059" lon="0.32514">
        <ele>1123.4</ele>
        <time>2026-07-08T09:40:17Z</time>
      </trkpt>
      <trkpt lat="43.00059" lon="0.32514">
        <ele>1123.4</ele>
        <time>2026-07-08T09:40:18Z</time>
      </trkpt>
      <trkpt lat="43.00059" lon="0.32514">
        <ele>1123.4</ele>
        <time>2026-07-08T09:40:19Z</time>
      </trkpt>
      <trkpt lat="43.00059" lon="0.32514">
        <ele>1123.4</ele>
        <time>2026-07-08T09:40:20Z</time>
      </trkpt>
      <trkpt lat="43.00059" lon="0.32514">
        <ele>1123.4</ele>
        <time>2026-07-08T09:40:21Z</time>
      </trkpt>
      <trkpt lat="43.00059" lon="0.32514">
        <ele>1123.4</ele>
        <time>2026-07-08T09:40:22Z</time>
      </trkpt>
      <trkpt lat="43.00059" lon="0.32514">
        <ele>1123.4</ele>
        <time>2026-07-08T09:40:23Z</time>
      </trkpt>
      <trkpt lat="43.00059" lon="0.32514">
        <ele>1123.4</ele>
        <time>2026-07-08T09:40:24Z</time>
      </trkpt>
      <trkpt lat="43.00059" lon="0.32514">
        <ele>1123.4</ele>
        <time>2026-07-08T09:40:25Z</time>
      </trkpt>
      <trkpt lat="43.00059" lon="0.32514">
        <ele>1123.4</ele>
        <time>2026-07-08T09:40:26Z</time>
      </trkpt>
      <trkpt lat="43.00059" lon="0.32514">
        <ele>1123.4</ele>
        <time>2026-07-08T09:40:27Z</time>
      </trkpt>
      <trkpt lat="43.00059" lon="0.32514">
        <ele>1123.4</ele>
        <time>2026-07-08T09:40:28Z</time>
      </trkpt>
      <trkpt lat="43.00059" lon="0.32514">
        <ele>1123.4</ele>
        <time>2026-07-08T09:40:29Z</time>
      </trkpt>
      <trkpt lat="43.00059" lon="0.32514">
        <ele>1123.4</ele>
        <time>2026-07-08T09:40:30Z</time>
      </trkpt>
      <trkpt lat="43.00059" lon="0.32514">
        <ele>1123.4</ele>
        <time>2026-07-08T09:40:31Z</time>
      </trkpt>
      <trkpt lat="43.00059" lon="0.32514">
        <ele>1123.4</ele>
        <time>2026-07-08T09:40:32Z</time>
      </trkpt>
      <trkpt lat="43.00059" lon="0.32514">
        <ele>1123.4</ele>
        <time>2026-07-08T09:40:33Z</time>
      </trkpt>
      <trkpt lat="43.00059" lon="0.32514">
        <ele>1123.4</ele>
        <time>2026-07-08T09:40:34Z</time>
      </trkpt>
      <trkpt lat="43.00059" lon="0.32514">
        <ele>1123.4</ele>
        <time>2026-07-08T09:40:35Z</time>
      </trkpt>
      <trkpt lat="43.00059" lon="0.32514">
        <ele>1123.4</ele>
        <time>2026-07-08T09:40:36Z</time>
      </trkpt>
      <trkpt lat="43.00059" lon="0.32514">
        <ele>1123.4</ele>
        <time>2026-07-08T09:40:37Z</time>
      </trkpt>
      <trkpt lat="43.00059" lon="0.32514">
        <ele>1123.4</ele>
        <time>2026-07-08T09:40:38Z</time>
      </trkpt>
      <trkpt lat="43.00059" lon="0.32514">
        <ele>1123.4</ele>
        <time>2026-07-08T09:40:39Z</time>
      </trkpt>
      <trkpt lat="43.00059" lon="0.32514">
        <ele>1123.4</ele>
        <time>2026-07-08T09:40:40Z</time>
      </trkpt>
      <trkpt lat="43.00059" lon="0.32514">
        <ele>1123.4</ele>
        <time>2026-07-08T09:40:41Z</time>
      </trkpt>
      <trkpt lat="43.00059" lon="0.32513">
        <ele>1123.4</ele>
        <time>2026-07-08T09:40:42Z</time>
      </trkpt>
      <trkpt lat="43.00059" lon="0.32513">
        <ele>1123.4</ele>
        <time>2026-07-08T09:40:43Z</time>
      </trkpt>
      <trkpt lat="43.00059" lon="0.32513">
        <ele>1123.4</ele>
        <time>2026-07-08T09:40:44Z</time>
      </trkpt>
      <trkpt lat="43.00059" lon="0.32513">
        <ele>1123.4</ele>
        <time>2026-07-08T09:40:45Z</time>
      </trkpt>
      <trkpt lat="43.00059" lon="0.32513">
        <ele>1123.4</ele>
        <time>2026-07-08T09:40:46Z</time>
      </trkpt>
      <trkpt lat="43.00059" lon="0.32513">
        <ele>1123.4</ele>
        <time>2026-07-08T09:40:47Z</time>
      </trkpt>
      <trkpt lat="43.00059" lon="0.32513">
        <ele>1123.4</ele>
        <time>2026-07-08T09:40:48Z</time>
      </trkpt>
      <trkpt lat="43.00059" lon="0.32513">
        <ele>1123.4</ele>
        <time>2026-07-08T09:40:49Z</time>
      </trkpt>
      <trkpt lat="43.00059" lon="0.32513">
        <ele>1123.4</ele>
        <time>2026-07-08T09:40:50Z</time>
      </trkpt>
      <trkpt lat="43.00059" lon="0.32513">
        <ele>1123.4</ele>
        <time>2026-07-08T09:40:51Z</time>
      </trkpt>
      <trkpt lat="43.00059" lon="0.32513">
        <ele>1123.4</ele>
        <time>2026-07-08T09:40:52Z</time>
      </trkpt>
      <trkpt lat="43.00059" lon="0.32513">
        <ele>1123.4</ele>
        <time>2026-07-08T09:40:53Z</time>
      </trkpt>
      <trkpt lat="43.00059" lon="0.32513">
        <ele>1123.4</ele>
        <time>2026-07-08T09:40:54Z</time>
      </trkpt>
      <trkpt lat="43.00059" lon="0.32513">
        <ele>1123.4</ele>
        <time>2026-07-08T09:40:55Z</time>
      </trkpt>
      <trkpt lat="43.00059" lon="0.32513">
        <ele>1123.4</ele>
        <time>2026-07-08T09:40:56Z</time>
      </trkpt>
      <trkpt lat="43.00059" lon="0.32513">
        <ele>1123.4</ele>
        <time>2026-07-08T09:40:57Z</time>
      </trkpt>
      <trkpt lat="43.00059" lon="0.32513">
        <ele>1123.4</ele>
        <time>2026-07-08T09:40:58Z</time>
      </trkpt>
      <trkpt lat="43.00059" lon="0.32513">
        <ele>1123.4</ele>
        <time>2026-07-08T09:40:59Z</time>
      </trkpt>
      <trkpt lat="43.00059" lon="0.32513">
        <ele>1123.4</ele>
        <time>2026-07-08T09:41:00Z</time>
      </trkpt>
      <trkpt lat="43.00059" lon="0.32513">
        <ele>1123.4</ele>
        <time>2026-07-08T09:41:01Z</time>
      </trkpt>
      <trkpt lat="43.00059" lon="0.32513">
        <ele>1124.4</ele>
        <time>2026-07-08T09:41:02Z</time>
      </trkpt>
      <trkpt lat="43.00059" lon="0.32513">
        <ele>1124.4</ele>
        <time>2026-07-08T09:41:03Z</time>
      </trkpt>
      <trkpt lat="43.00059" lon="0.32513">
        <ele>1125.4</ele>
        <time>2026-07-08T09:41:04Z</time>
      </trkpt>
      <trkpt lat="43.0006" lon="0.32513">
        <ele>1124.4</ele>
        <time>2026-07-08T09:41:05Z</time>
      </trkpt>
      <trkpt lat="43.0006" lon="0.32513">
        <ele>1124.4</ele>
        <time>2026-07-08T09:41:06Z</time>
      </trkpt>
      <trkpt lat="43.0006" lon="0.32512">
        <ele>1124.4</ele>
        <time>2026-07-08T09:41:07Z</time>
      </trkpt>
      <trkpt lat="43.0006" lon="0.32512">
        <ele>1123.4</ele>
        <time>2026-07-08T09:41:08Z</time>
      </trkpt>
      <trkpt lat="43.0006" lon="0.32512">
        <ele>1124.4</ele>
        <time>2026-07-08T09:41:09Z</time>
      </trkpt>
      <trkpt lat="43.0006" lon="0.32511">
        <ele>1124.4</ele>
        <time>2026-07-08T09:41:10Z</time>
      </trkpt>
      <trkpt lat="43.0006" lon="0.32511">
        <ele>1124.4</ele>
        <time>2026-07-08T09:41:11Z</time>
      </trkpt>
      <trkpt lat="43.00059" lon="0.32511">
        <ele>1124.4</ele>
        <time>2026-07-08T09:41:12Z</time>
      </trkpt>
      <trkpt lat="43.00059" lon="0.32511">
        <ele>1124.4</ele>
        <time>2026-07-08T09:41:13Z</time>
      </trkpt>
      <trkpt lat="43.0006" lon="0.32511">
        <ele>1124.4</ele>
        <time>2026-07-08T09:41:14Z</time>
      </trkpt>
      <trkpt lat="43.0006" lon="0.32511">
        <ele>1124.4</ele>
        <time>2026-07-08T09:41:15Z</time>
      </trkpt>
      <trkpt lat="43.0006" lon="0.32511">
        <ele>1124.4</ele>
        <time>2026-07-08T09:41:16Z</time>
      </trkpt>
      <trkpt lat="43.0006" lon="0.32511">
        <ele>1124.4</ele>
        <time>2026-07-08T09:41:17Z</time>
      </trkpt>
      <trkpt lat="43.0006" lon="0.3251">
        <ele>1123.4</ele>
        <time>2026-07-08T09:41:18Z</time>
      </trkpt>
      <trkpt lat="43.0006" lon="0.3251">
        <ele>1124.4</ele>
        <time>2026-07-08T09:41:19Z</time>
      </trkpt>
      <trkpt lat="43.0006" lon="0.3251">
        <ele>1124.4</ele>
        <time>2026-07-08T09:41:20Z</time>
      </trkpt>
      <trkpt lat="43.0006" lon="0.3251">
        <ele>1124.4</ele>
        <time>2026-07-08T09:41:21Z</time>
      </trkpt>
      <trkpt lat="43.0006" lon="0.3251">
        <ele>1124.4</ele>
        <time>2026-07-08T09:41:22Z</time>
      </trkpt>
      <trkpt lat="43.0006" lon="0.3251">
        <ele>1124.4</ele>
        <time>2026-07-08T09:41:23Z</time>
      </trkpt>
      <trkpt lat="43.0006" lon="0.3251">
        <ele>1124.4</ele>
        <time>2026-07-08T09:41:24Z</time>
      </trkpt>
      <trkpt lat="43.0006" lon="0.3251">
        <ele>1124.4</ele>
        <time>2026-07-08T09:41:25Z</time>
      </trkpt>
      <trkpt lat="43.0006" lon="0.3251">
        <ele>1124.4</ele>
        <time>2026-07-08T09:41:26Z</time>
      </trkpt>
      <trkpt lat="43.0006" lon="0.3251">
        <ele>1124.4</ele>
        <time>2026-07-08T09:41:27Z</time>
      </trkpt>
      <trkpt lat="43.0006" lon="0.3251">
        <ele>1124.4</ele>
        <time>2026-07-08T09:41:28Z</time>
      </trkpt>
      <trkpt lat="43.0006" lon="0.3251">
        <ele>1124.4</ele>
        <time>2026-07-08T09:41:29Z</time>
      </trkpt>
      <trkpt lat="43.0006" lon="0.3251">
        <ele>1124.4</ele>
        <time>2026-07-08T09:41:30Z</time>
      </trkpt>
      <trkpt lat="43.0006" lon="0.3251">
        <ele>1124.4</ele>
        <time>2026-07-08T09:41:31Z</time>
      </trkpt>
      <trkpt lat="43.0006" lon="0.3251">
        <ele>1124.4</ele>
        <time>2026-07-08T09:41:32Z</time>
      </trkpt>
      <trkpt lat="43.0006" lon="0.3251">
        <ele>1124.4</ele>
        <time>2026-07-08T09:41:33Z</time>
      </trkpt>
      <trkpt lat="43.0006" lon="0.3251">
        <ele>1124.4</ele>
        <time>2026-07-08T09:41:34Z</time>
      </trkpt>
      <trkpt lat="43.0006" lon="0.3251">
        <ele>1124.4</ele>
        <time>2026-07-08T09:41:35Z</time>
      </trkpt>
      <trkpt lat="43.0006" lon="0.3251">
        <ele>1124.4</ele>
        <time>2026-07-08T09:41:36Z</time>
      </trkpt>
      <trkpt lat="43.0006" lon="0.3251">
        <ele>1122.4</ele>
        <time>2026-07-08T09:41:37Z</time>
      </trkpt>
      <trkpt lat="43.00061" lon="0.3251">
        <ele>1122.4</ele>
        <time>2026-07-08T09:41:38Z</time>
      </trkpt>
      <trkpt lat="43.00061" lon="0.32509">
        <ele>1122.4</ele>
        <time>2026-07-08T09:41:39Z</time>
      </trkpt>
      <trkpt lat="43.00062" lon="0.32508">
        <ele>1122.4</ele>
        <time>2026-07-08T09:41:40Z</time>
      </trkpt>
      <trkpt lat="43.00062" lon="0.32507">
        <ele>1122.4</ele>
        <time>2026-07-08T09:41:41Z</time>
      </trkpt>
      <trkpt lat="43.00063" lon="0.32507">
        <ele>1122.4</ele>
        <time>2026-07-08T09:41:42Z</time>
      </trkpt>
      <trkpt lat="43.00063" lon="0.32506">
        <ele>1121.4</ele>
        <time>2026-07-08T09:41:43Z</time>
      </trkpt>
      <trkpt lat="43.00063" lon="0.32505">
        <ele>1121.4</ele>
        <time>2026-07-08T09:41:44Z</time>
      </trkpt>
      <trkpt lat="43.00062" lon="0.32504">
        <ele>1121.4</ele>
        <time>2026-07-08T09:41:45Z</time>
      </trkpt>
      <trkpt lat="43.00062" lon="0.32504">
        <ele>1121.4</ele>
        <time>2026-07-08T09:41:46Z</time>
      </trkpt>
      <trkpt lat="43.00062" lon="0.32503">
        <ele>1121.4</ele>
        <time>2026-07-08T09:41:47Z</time>
      </trkpt>
      <trkpt lat="43.00061" lon="0.32502">
        <ele>1121.4</ele>
        <time>2026-07-08T09:41:48Z</time>
      </trkpt>
      <trkpt lat="43.00061" lon="0.32501">
        <ele>1121.4</ele>
        <time>2026-07-08T09:41:49Z</time>
      </trkpt>
      <trkpt lat="43.00061" lon="0.325">
        <ele>1121.4</ele>
        <time>2026-07-08T09:41:50Z</time>
      </trkpt>
      <trkpt lat="43.00061" lon="0.32498">
        <ele>1121.4</ele>
        <time>2026-07-08T09:41:51Z</time>
      </trkpt>
      <trkpt lat="43.00061" lon="0.32497">
        <ele>1121.4</ele>
        <time>2026-07-08T09:41:52Z</time>
      </trkpt>
      <trkpt lat="43.00061" lon="0.32497">
        <ele>1121.4</ele>
        <time>2026-07-08T09:41:53Z</time>
      </trkpt>
      <trkpt lat="43.00061" lon="0.32496">
        <ele>1121.4</ele>
        <time>2026-07-08T09:41:54Z</time>
      </trkpt>
      <trkpt lat="43.00061" lon="0.32496">
        <ele>1121.4</ele>
        <time>2026-07-08T09:41:55Z</time>
      </trkpt>
      <trkpt lat="43.00061" lon="0.32496">
        <ele>1121.4</ele>
        <time>2026-07-08T09:41:56Z</time>
      </trkpt>
      <trkpt lat="43.00061" lon="0.32496">
        <ele>1120.4</ele>
        <time>2026-07-08T09:41:57Z</time>
      </trkpt>
      <trkpt lat="43.00062" lon="0.32496">
        <ele>1119.4</ele>
        <time>2026-07-08T09:41:58Z</time>
      </trkpt>
      <trkpt lat="43.00062" lon="0.32495">
        <ele>1118.4</ele>
        <time>2026-07-08T09:41:59Z</time>
      </trkpt>
      <trkpt lat="43.0007" lon="0.325">
        <ele>1118.4</ele>
        <time>2026-07-08T09:42:09Z</time>
      </trkpt>
      <trkpt lat="43.0007" lon="0.325">
        <ele>1118.4</ele>
        <time>2026-07-08T09:42:10Z</time>
      </trkpt>
      <trkpt lat="43.0007" lon="0.32501">
        <ele>1118.4</ele>
        <time>2026-07-08T09:42:10Z</time>
      </trkpt>
      <trkpt lat="43.0007" lon="0.32501">
        <ele>1119.4</ele>
        <time>2026-07-08T09:42:11Z</time>
      </trkpt>
      <trkpt lat="43.0007" lon="0.32501">
        <ele>1118.4</ele>
        <time>2026-07-08T09:42:12Z</time>
      </trkpt>
      <trkpt lat="43.00069" lon="0.32501">
        <ele>1117.4</ele>
        <time>2026-07-08T09:42:13Z</time>
      </trkpt>
      <trkpt lat="43.00069" lon="0.32501">
        <ele>1117.4</ele>
        <time>2026-07-08T09:42:14Z</time>
      </trkpt>
      <trkpt lat="43.00068" lon="0.32502">
        <ele>1118.4</ele>
        <time>2026-07-08T09:42:15Z</time>
      </trkpt>
      <trkpt lat="43.00068" lon="0.32502">
        <ele>1118.4</ele>
        <time>2026-07-08T09:42:16Z</time>
      </trkpt>
      <trkpt lat="43.00068" lon="0.32502">
        <ele>1118.4</ele>
        <time>2026-07-08T09:42:17Z</time>
      </trkpt>
      <trkpt lat="43.00068" lon="0.32502">
        <ele>1118.4</ele>
        <time>2026-07-08T09:42:18Z</time>
      </trkpt>
      <trkpt lat="43.00067" lon="0.32502">
        <ele>1118.4</ele>
        <time>2026-07-08T09:42:19Z</time>
      </trkpt>
      <trkpt lat="43.00067" lon="0.32502">
        <ele>1120.4</ele>
        <time>2026-07-08T09:42:20Z</time>
      </trkpt>
      <trkpt lat="43.00067" lon="0.32503">
        <ele>1120.4</ele>
        <time>2026-07-08T09:42:21Z</time>
      </trkpt>
      <trkpt lat="43.00067" lon="0.32503">
        <ele>1120.4</ele>
        <time>2026-07-08T09:42:21Z</time>
      </trkpt>
      <trkpt lat="43.00067" lon="0.32503">
        <ele>1120.4</ele>
        <time>2026-07-08T09:42:22Z</time>
      </trkpt>
      <trkpt lat="43.00066" lon="0.32503">
        <ele>1120.4</ele>
        <time>2026-07-08T09:42:23Z</time>
      </trkpt>
      <trkpt lat="43.00066" lon="0.32503">
        <ele>1120.4</ele>
        <time>2026-07-08T09:42:23Z</time>
      </trkpt>
      <trkpt lat="43.00066" lon="0.32502">
        <ele>1119.4</ele>
        <time>2026-07-08T09:42:24Z</time>
      </trkpt>
      <trkpt lat="43.00066" lon="0.32502">
        <ele>1119.4</ele>
        <time>2026-07-08T09:42:25Z</time>
      </trkpt>
      <trkpt lat="43.00066" lon="0.32502">
        <ele>1120.4</ele>
        <time>2026-07-08T09:42:26Z</time>
      </trkpt>
      <trkpt lat="43.00066" lon="0.32502">
        <ele>1120.4</ele>
        <time>2026-07-08T09:42:27Z</time>
      </trkpt>
      <trkpt lat="43.00066" lon="0.32503">
        <ele>1121.4</ele>
        <time>2026-07-08T09:42:28Z</time>
      </trkpt>
      <trkpt lat="43.00066" lon="0.32503">
        <ele>1121.4</ele>
        <time>2026-07-08T09:42:29Z</time>
      </trkpt>
      <trkpt lat="43.00066" lon="0.32503">
        <ele>1121.4</ele>
        <time>2026-07-08T09:42:30Z</time>
      </trkpt>
      <trkpt lat="43.00066" lon="0.32503">
        <ele>1121.4</ele>
        <time>2026-07-08T09:42:31Z</time>
      </trkpt>
      <trkpt lat="43.00065" lon="0.32503">
        <ele>1121.4</ele>
        <time>2026-07-08T09:42:32Z</time>
      </trkpt>
      <trkpt lat="43.00065" lon="0.32503">
        <ele>1120.4</ele>
        <time>2026-07-08T09:42:33Z</time>
      </trkpt>
      <trkpt lat="43.00065" lon="0.32503">
        <ele>1120.4</ele>
        <time>2026-07-08T09:42:34Z</time>
      </trkpt>
      <trkpt lat="43.00065" lon="0.32503">
        <ele>1120.4</ele>
        <time>2026-07-08T09:42:35Z</time>
      </trkpt>
      <trkpt lat="43.00064" lon="0.32503">
        <ele>1119.4</ele>
        <time>2026-07-08T09:42:36Z</time>
      </trkpt>
      <trkpt lat="43.00064" lon="0.32503">
        <ele>1119.4</ele>
        <time>2026-07-08T09:42:37Z</time>
      </trkpt>
      <trkpt lat="43.00064" lon="0.32503">
        <ele>1119.4</ele>
        <time>2026-07-08T09:42:37Z</time>
      </trkpt>
      <trkpt lat="43.00064" lon="0.32503">
        <ele>1119.4</ele>
        <time>2026-07-08T09:42:38Z</time>
      </trkpt>
      <trkpt lat="43.00064" lon="0.32503">
        <ele>1119.4</ele>
        <time>2026-07-08T09:42:38Z</time>
      </trkpt>
      <trkpt lat="43.00064" lon="0.32503">
        <ele>1119.4</ele>
        <time>2026-07-08T09:42:39Z</time>
      </trkpt>
      <trkpt lat="43.00064" lon="0.32503">
        <ele>1119.4</ele>
        <time>2026-07-08T09:42:40Z</time>
      </trkpt>
      <trkpt lat="43.00064" lon="0.32503">
        <ele>1120.4</ele>
        <time>2026-07-08T09:42:40Z</time>
      </trkpt>
      <trkpt lat="43.00064" lon="0.32503">
        <ele>1120.4</ele>
        <time>2026-07-08T09:42:41Z</time>
      </trkpt>
      <trkpt lat="43.00064" lon="0.32503">
        <ele>1120.4</ele>
        <time>2026-07-08T09:42:41Z</time>
      </trkpt>
      <trkpt lat="43.00064" lon="0.32503">
        <ele>1120.4</ele>
        <time>2026-07-08T09:42:42Z</time>
      </trkpt>
      <trkpt lat="43.00064" lon="0.32503">
        <ele>1118.4</ele>
        <time>2026-07-08T09:42:43Z</time>
      </trkpt>
      <trkpt lat="43.00064" lon="0.32504">
        <ele>1118.4</ele>
        <time>2026-07-08T09:42:43Z</time>
      </trkpt>
      <trkpt lat="43.00064" lon="0.32504">
        <ele>1118.4</ele>
        <time>2026-07-08T09:42:44Z</time>
      </trkpt>
      <trkpt lat="43.00065" lon="0.32505">
        <ele>1118.4</ele>
        <time>2026-07-08T09:42:45Z</time>
      </trkpt>
      <trkpt lat="43.00066" lon="0.32505">
        <ele>1119.4</ele>
        <time>2026-07-08T09:42:45Z</time>
      </trkpt>
      <trkpt lat="43.00066" lon="0.32506">
        <ele>1119.4</ele>
        <time>2026-07-08T09:42:46Z</time>
      </trkpt>
      <trkpt lat="43.00067" lon="0.32507">
        <ele>1119.4</ele>
        <time>2026-07-08T09:42:46Z</time>
      </trkpt>
      <trkpt lat="43.00067" lon="0.32508">
        <ele>1119.4</ele>
        <time>2026-07-08T09:42:47Z</time>
      </trkpt>
      <trkpt lat="43.00068" lon="0.32509">
        <ele>1119.4</ele>
        <time>2026-07-08T09:42:47Z</time>
      </trkpt>
      <trkpt lat="43.00068" lon="0.3251">
        <ele>1120.4</ele>
        <time>2026-07-08T09:42:48Z</time>
      </trkpt>
      <trkpt lat="43.00068" lon="0.32511">
        <ele>1120.4</ele>
        <time>2026-07-08T09:42:49Z</time>
      </trkpt>
      <trkpt lat="43.00068" lon="0.32512">
        <ele>1120.4</ele>
        <time>2026-07-08T09:42:49Z</time>
      </trkpt>
      <trkpt lat="43.00069" lon="0.32513">
        <ele>1120.4</ele>
        <time>2026-07-08T09:42:50Z</time>
      </trkpt>
      <trkpt lat="43.00069" lon="0.32514">
        <ele>1120.4</ele>
        <time>2026-07-08T09:42:51Z</time>
      </trkpt>
      <trkpt lat="43.0007" lon="0.32514">
        <ele>1120.4</ele>
        <time>2026-07-08T09:42:51Z</time>
      </trkpt>
      <trkpt lat="43.0007" lon="0.32514">
        <ele>1120.4</ele>
        <time>2026-07-08T09:42:52Z</time>
      </trkpt>
      <trkpt lat="43.0007" lon="0.32515">
        <ele>1120.4</ele>
        <time>2026-07-08T09:42:53Z</time>
      </trkpt>
      <trkpt lat="43.00071" lon="0.32515">
        <ele>1120.4</ele>
        <time>2026-07-08T09:42:53Z</time>
      </trkpt>
      <trkpt lat="43.00071" lon="0.32516">
        <ele>1120.4</ele>
        <time>2026-07-08T09:42:54Z</time>
      </trkpt>
      <trkpt lat="43.00071" lon="0.32516">
        <ele>1119.4</ele>
        <time>2026-07-08T09:42:54Z</time>
      </trkpt>
      <trkpt lat="43.00072" lon="0.32516">
        <ele>1118.4</ele>
        <time>2026-07-08T09:42:55Z</time>
      </trkpt>
      <trkpt lat="43.00072" lon="0.32517">
        <ele>1118.4</ele>
        <time>2026-07-08T09:42:56Z</time>
      </trkpt>
      <trkpt lat="43.00072" lon="0.32517">
        <ele>1118.4</ele>
        <time>2026-07-08T09:42:57Z</time>
      </trkpt>
      <trkpt lat="43.00072" lon="0.32517">
        <ele>1118.4</ele>
        <time>2026-07-08T09:42:57Z</time>
      </trkpt>
      <trkpt lat="43.00073" lon="0.32518">
        <ele>1118.4</ele>
        <time>2026-07-08T09:42:58Z</time>
      </trkpt>
      <trkpt lat="43.00073" lon="0.32519">
        <ele>1119.4</ele>
        <time>2026-07-08T09:42:59Z</time>
      </trkpt>
      <trkpt lat="43.00073" lon="0.32519">
        <ele>1118.4</ele>
        <time>2026-07-08T09:42:59Z</time>
      </trkpt>
      <trkpt lat="43.00073" lon="0.3252">
        <ele>1118.4</ele>
        <time>2026-07-08T09:43:00Z</time>
      </trkpt>
      <trkpt lat="43.00073" lon="0.32521">
        <ele>1118.4</ele>
        <time>2026-07-08T09:43:01Z</time>
      </trkpt>
      <trkpt lat="43.00073" lon="0.32522">
        <ele>1117.4</ele>
        <time>2026-07-08T09:43:01Z</time>
      </trkpt>
      <trkpt lat="43.00073" lon="0.32523">
        <ele>1117.4</ele>
        <time>2026-07-08T09:43:02Z</time>
      </trkpt>
      <trkpt lat="43.00074" lon="0.32523">
        <ele>1116.4</ele>
        <time>2026-07-08T09:43:03Z</time>
      </trkpt>
      <trkpt lat="43.00074" lon="0.32524">
        <ele>1116.4</ele>
        <time>2026-07-08T09:43:03Z</time>
      </trkpt>
      <trkpt lat="43.00074" lon="0.32525">
        <ele>1116.4</ele>
        <time>2026-07-08T09:43:04Z</time>
      </trkpt>
      <trkpt lat="43.00074" lon="0.32526">
        <ele>1116.4</ele>
        <time>2026-07-08T09:43:04Z</time>
      </trkpt>
      <trkpt lat="43.00075" lon="0.32526">
        <ele>1116.4</ele>
        <time>2026-07-08T09:43:05Z</time>
      </trkpt>
      <trkpt lat="43.00075" lon="0.32527">
        <ele>1115.4</ele>
        <time>2026-07-08T09:43:05Z</time>
      </trkpt>
      <trkpt lat="43.00075" lon="0.32528">
        <ele>1115.4</ele>
        <time>2026-07-08T09:43:06Z</time>
      </trkpt>
      <trkpt lat="43.00075" lon="0.32528">
        <ele>1115.4</ele>
        <time>2026-07-08T09:43:06Z</time>
      </trkpt>
      <trkpt lat="43.00075" lon="0.32529">
        <ele>1115.4</ele>
        <time>2026-07-08T09:43:07Z</time>
      </trkpt>
      <trkpt lat="43.00075" lon="0.3253">
        <ele>1115.4</ele>
        <time>2026-07-08T09:43:08Z</time>
      </trkpt>
      <trkpt lat="43.00076" lon="0.3253">
        <ele>1115.4</ele>
        <time>2026-07-08T09:43:08Z</time>
      </trkpt>
      <trkpt lat="43.00076" lon="0.32531">
        <ele>1114.4</ele>
        <time>2026-07-08T09:43:09Z</time>
      </trkpt>
      <trkpt lat="43.00077" lon="0.32532">
        <ele>1114.4</ele>
        <time>2026-07-08T09:43:10Z</time>
      </trkpt>
      <trkpt lat="43.00077" lon="0.32532">
        <ele>1114.4</ele>
        <time>2026-07-08T09:43:11Z</time>
      </trkpt>
      <trkpt lat="43.00078" lon="0.32533">
        <ele>1114.4</ele>
        <time>2026-07-08T09:43:11Z</time>
      </trkpt>
      <trkpt lat="43.00078" lon="0.32534">
        <ele>1114.4</ele>
        <time>2026-07-08T09:43:12Z</time>
      </trkpt>
      <trkpt lat="43.00079" lon="0.32534">
        <ele>1114.4</ele>
        <time>2026-07-08T09:43:13Z</time>
      </trkpt>
      <trkpt lat="43.00079" lon="0.32535">
        <ele>1114.4</ele>
        <time>2026-07-08T09:43:13Z</time>
      </trkpt>
      <trkpt lat="43.0008" lon="0.32536">
        <ele>1114.4</ele>
        <time>2026-07-08T09:43:14Z</time>
      </trkpt>
      <trkpt lat="43.0008" lon="0.32537">
        <ele>1114.4</ele>
        <time>2026-07-08T09:43:15Z</time>
      </trkpt>
      <trkpt lat="43.00081" lon="0.32537">
        <ele>1114.4</ele>
        <time>2026-07-08T09:43:15Z</time>
      </trkpt>
      <trkpt lat="43.00081" lon="0.32537">
        <ele>1114.4</ele>
        <time>2026-07-08T09:43:16Z</time>
      </trkpt>
      <trkpt lat="43.00082" lon="0.32538">
        <ele>1114.4</ele>
        <time>2026-07-08T09:43:17Z</time>
      </trkpt>
      <trkpt lat="43.00083" lon="0.32538">
        <ele>1114.4</ele>
        <time>2026-07-08T09:43:18Z</time>
      </trkpt>
      <trkpt lat="43.00083" lon="0.32539">
        <ele>1113.4</ele>
        <time>2026-07-08T09:43:19Z</time>
      </trkpt>
      <trkpt lat="43.00084" lon="0.3254">
        <ele>1114.4</ele>
        <time>2026-07-08T09:43:19Z</time>
      </trkpt>
      <trkpt lat="43.00085" lon="0.3254">
        <ele>1114.4</ele>
        <time>2026-07-08T09:43:20Z</time>
      </trkpt>
      <trkpt lat="43.00085" lon="0.3254">
        <ele>1114.4</ele>
        <time>2026-07-08T09:43:20Z</time>
      </trkpt>
      <trkpt lat="43.00086" lon="0.3254">
        <ele>1114.4</ele>
        <time>2026-07-08T09:43:21Z</time>
      </trkpt>
      <trkpt lat="43.00086" lon="0.3254">
        <ele>1114.4</ele>
        <time>2026-07-08T09:43:21Z</time>
      </trkpt>
      <trkpt lat="43.00087" lon="0.3254">
        <ele>1114.4</ele>
        <time>2026-07-08T09:43:22Z</time>
      </trkpt>
      <trkpt lat="43.00088" lon="0.3254">
        <ele>1114.4</ele>
        <time>2026-07-08T09:43:23Z</time>
      </trkpt>
      <trkpt lat="43.00088" lon="0.32541">
        <ele>1114.4</ele>
        <time>2026-07-08T09:43:23Z</time>
      </trkpt>
      <trkpt lat="43.00089" lon="0.32542">
        <ele>1113.4</ele>
        <time>2026-07-08T09:43:24Z</time>
      </trkpt>
      <trkpt lat="43.0009" lon="0.32543">
        <ele>1113.4</ele>
        <time>2026-07-08T09:43:25Z</time>
      </trkpt>
      <trkpt lat="43.0009" lon="0.32543">
        <ele>1113.4</ele>
        <time>2026-07-08T09:43:26Z</time>
      </trkpt>
      <trkpt lat="43.0009" lon="0.32543">
        <ele>1112.4</ele>
        <time>2026-07-08T09:43:26Z</time>
      </trkpt>
      <trkpt lat="43.00091" lon="0.32543">
        <ele>1112.4</ele>
        <time>2026-07-08T09:43:27Z</time>
      </trkpt>
      <trkpt lat="43.00091" lon="0.32544">
        <ele>1112.4</ele>
        <time>2026-07-08T09:43:27Z</time>
      </trkpt>
      <trkpt lat="43.00092" lon="0.32544">
        <ele>1112.4</ele>
        <time>2026-07-08T09:43:28Z</time>
      </trkpt>
      <trkpt lat="43.00092" lon="0.32545">
        <ele>1112.4</ele>
        <time>2026-07-08T09:43:28Z</time>
      </trkpt>
      <trkpt lat="43.00093" lon="0.32545">
        <ele>1112.4</ele>
        <time>2026-07-08T09:43:29Z</time>
      </trkpt>
      <trkpt lat="43.00093" lon="0.32545">
        <ele>1111.4</ele>
        <time>2026-07-08T09:43:29Z</time>
      </trkpt>
      <trkpt lat="43.00094" lon="0.32545">
        <ele>1111.4</ele>
        <time>2026-07-08T09:43:30Z</time>
      </trkpt>
      <trkpt lat="43.00094" lon="0.32545">
        <ele>1111.4</ele>
        <time>2026-07-08T09:43:30Z</time>
      </trkpt>
      <trkpt lat="43.00095" lon="0.32545">
        <ele>1111.4</ele>
        <time>2026-07-08T09:43:31Z</time>
      </trkpt>
      <trkpt lat="43.00095" lon="0.32546">
        <ele>1111.4</ele>
        <time>2026-07-08T09:43:32Z</time>
      </trkpt>
      <trkpt lat="43.00095" lon="0.32547">
        <ele>1111.4</ele>
        <time>2026-07-08T09:43:33Z</time>
      </trkpt>
      <trkpt lat="43.00095" lon="0.32547">
        <ele>1111.4</ele>
        <time>2026-07-08T09:43:33Z</time>
      </trkpt>
      <trkpt lat="43.00096" lon="0.32548">
        <ele>1111.4</ele>
        <time>2026-07-08T09:43:34Z</time>
      </trkpt>
      <trkpt lat="43.00096" lon="0.32548">
        <ele>1110.4</ele>
        <time>2026-07-08T09:43:34Z</time>
      </trkpt>
      <trkpt lat="43.00096" lon="0.32549">
        <ele>1110.4</ele>
        <time>2026-07-08T09:43:35Z</time>
      </trkpt>
      <trkpt lat="43.00096" lon="0.3255">
        <ele>1110.4</ele>
        <time>2026-07-08T09:43:36Z</time>
      </trkpt>
      <trkpt lat="43.00096" lon="0.3255">
        <ele>1109.4</ele>
        <time>2026-07-08T09:43:36Z</time>
      </trkpt>
      <trkpt lat="43.00096" lon="0.32551">
        <ele>1109.4</ele>
        <time>2026-07-08T09:43:37Z</time>
      </trkpt>
      <trkpt lat="43.00096" lon="0.32551">
        <ele>1109.4</ele>
        <time>2026-07-08T09:43:37Z</time>
      </trkpt>
      <trkpt lat="43.00096" lon="0.32552">
        <ele>1109.4</ele>
        <time>2026-07-08T09:43:38Z</time>
      </trkpt>
      <trkpt lat="43.00097" lon="0.32552">
        <ele>1110.4</ele>
        <time>2026-07-08T09:43:39Z</time>
      </trkpt>
      <trkpt lat="43.00096" lon="0.32553">
        <ele>1109.4</ele>
        <time>2026-07-08T09:43:39Z</time>
      </trkpt>
      <trkpt lat="43.00097" lon="0.32553">
        <ele>1109.4</ele>
        <time>2026-07-08T09:43:40Z</time>
      </trkpt>
      <trkpt lat="43.00097" lon="0.32554">
        <ele>1108.4</ele>
        <time>2026-07-08T09:43:40Z</time>
      </trkpt>
      <trkpt lat="43.00097" lon="0.32555">
        <ele>1108.4</ele>
        <time>2026-07-08T09:43:41Z</time>
      </trkpt>
      <trkpt lat="43.00097" lon="0.32556">
        <ele>1107.4</ele>
        <time>2026-07-08T09:43:41Z</time>
      </trkpt>
      <trkpt lat="43.00097" lon="0.32556">
        <ele>1107.4</ele>
        <time>2026-07-08T09:43:42Z</time>
      </trkpt>
      <trkpt lat="43.00097" lon="0.32557">
        <ele>1107.4</ele>
        <time>2026-07-08T09:43:43Z</time>
      </trkpt>
      <trkpt lat="43.00097" lon="0.32558">
        <ele>1107.4</ele>
        <time>2026-07-08T09:43:43Z</time>
      </trkpt>
      <trkpt lat="43.00098" lon="0.32559">
        <ele>1107.4</ele>
        <time>2026-07-08T09:43:44Z</time>
      </trkpt>
      <trkpt lat="43.00098" lon="0.3256">
        <ele>1107.4</ele>
        <time>2026-07-08T09:43:44Z</time>
      </trkpt>
      <trkpt lat="43.00098" lon="0.32561">
        <ele>1107.4</ele>
        <time>2026-07-08T09:43:45Z</time>
      </trkpt>
      <trkpt lat="43.00098" lon="0.32561">
        <ele>1106.4</ele>
        <time>2026-07-08T09:43:46Z</time>
      </trkpt>
      <trkpt lat="43.00099" lon="0.32562">
        <ele>1106.4</ele>
        <time>2026-07-08T09:43:46Z</time>
      </trkpt>
      <trkpt lat="43.00099" lon="0.32563">
        <ele>1106.4</ele>
        <time>2026-07-08T09:43:47Z</time>
      </trkpt>
      <trkpt lat="43.001" lon="0.32564">
        <ele>1106.4</ele>
        <time>2026-07-08T09:43:48Z</time>
      </trkpt>
      <trkpt lat="43.001" lon="0.32564">
        <ele>1106.4</ele>
        <time>2026-07-08T09:43:48Z</time>
      </trkpt>
      <trkpt lat="43.001" lon="0.32565">
        <ele>1106.4</ele>
        <time>2026-07-08T09:43:49Z</time>
      </trkpt>
      <trkpt lat="43.00101" lon="0.32566">
        <ele>1105.4</ele>
        <time>2026-07-08T09:43:50Z</time>
      </trkpt>
      <trkpt lat="43.00101" lon="0.32566">
        <ele>1105.4</ele>
        <time>2026-07-08T09:43:50Z</time>
      </trkpt>
      <trkpt lat="43.00102" lon="0.32567">
        <ele>1105.4</ele>
        <time>2026-07-08T09:43:51Z</time>
      </trkpt>
      <trkpt lat="43.00102" lon="0.32567">
        <ele>1104.4</ele>
        <time>2026-07-08T09:43:52Z</time>
      </trkpt>
      <trkpt lat="43.00102" lon="0.32568">
        <ele>1103.4</ele>
        <time>2026-07-08T09:43:52Z</time>
      </trkpt>
      <trkpt lat="43.00102" lon="0.32568">
        <ele>1103.4</ele>
        <time>2026-07-08T09:43:53Z</time>
      </trkpt>
      <trkpt lat="43.00102" lon="0.32569">
        <ele>1103.4</ele>
        <time>2026-07-08T09:43:53Z</time>
      </trkpt>
      <trkpt lat="43.00103" lon="0.3257">
        <ele>1103.4</ele>
        <time>2026-07-08T09:43:54Z</time>
      </trkpt>
      <trkpt lat="43.00103" lon="0.32571">
        <ele>1103.4</ele>
        <time>2026-07-08T09:43:55Z</time>
      </trkpt>
      <trkpt lat="43.00103" lon="0.32571">
        <ele>1104.4</ele>
        <time>2026-07-08T09:43:55Z</time>
      </trkpt>
      <trkpt lat="43.00104" lon="0.32572">
        <ele>1104.4</ele>
        <time>2026-07-08T09:43:56Z</time>
      </trkpt>
      <trkpt lat="43.00104" lon="0.32572">
        <ele>1104.4</ele>
        <time>2026-07-08T09:43:56Z</time>
      </trkpt>
      <trkpt lat="43.00105" lon="0.32573">
        <ele>1104.4</ele>
        <time>2026-07-08T09:43:57Z</time>
      </trkpt>
      <trkpt lat="43.00105" lon="0.32574">
        <ele>1103.4</ele>
        <time>2026-07-08T09:43:58Z</time>
      </trkpt>
      <trkpt lat="43.00105" lon="0.32574">
        <ele>1103.4</ele>
        <time>2026-07-08T09:43:58Z</time>
      </trkpt>
      <trkpt lat="43.00105" lon="0.32575">
        <ele>1103.4</ele>
        <time>2026-07-08T09:43:59Z</time>
      </trkpt>
      <trkpt lat="43.00106" lon="0.32575">
        <ele>1102.4</ele>
        <time>2026-07-08T09:43:59Z</time>
      </trkpt>
      <trkpt lat="43.00106" lon="0.32576">
        <ele>1102.4</ele>
        <time>2026-07-08T09:44:00Z</time>
      </trkpt>
      <trkpt lat="43.00106" lon="0.32576">
        <ele>1103.4</ele>
        <time>2026-07-08T09:44:00Z</time>
      </trkpt>
      <trkpt lat="43.00107" lon="0.32577">
        <ele>1103.4</ele>
        <time>2026-07-08T09:44:01Z</time>
      </trkpt>
      <trkpt lat="43.00107" lon="0.32577">
        <ele>1104.4</ele>
        <time>2026-07-08T09:44:01Z</time>
      </trkpt>
      <trkpt lat="43.00107" lon="0.32577">
        <ele>1103.4</ele>
        <time>2026-07-08T09:44:02Z</time>
      </trkpt>
      <trkpt lat="43.00108" lon="0.32578">
        <ele>1103.4</ele>
        <time>2026-07-08T09:44:03Z</time>
      </trkpt>
      <trkpt lat="43.00108" lon="0.32579">
        <ele>1103.4</ele>
        <time>2026-07-08T09:44:04Z</time>
      </trkpt>
      <trkpt lat="43.00109" lon="0.32579">
        <ele>1103.4</ele>
        <time>2026-07-08T09:44:05Z</time>
      </trkpt>
      <trkpt lat="43.00109" lon="0.32579">
        <ele>1103.4</ele>
        <time>2026-07-08T09:44:05Z</time>
      </trkpt>
      <trkpt lat="43.0011" lon="0.32579">
        <ele>1103.4</ele>
        <time>2026-07-08T09:44:06Z</time>
      </trkpt>
      <trkpt lat="43.00111" lon="0.32579">
        <ele>1103.4</ele>
        <time>2026-07-08T09:44:06Z</time>
      </trkpt>
      <trkpt lat="43.00111" lon="0.32579">
        <ele>1102.4</ele>
        <time>2026-07-08T09:44:07Z</time>
      </trkpt>
      <trkpt lat="43.00112" lon="0.3258">
        <ele>1102.4</ele>
        <time>2026-07-08T09:44:08Z</time>
      </trkpt>
      <trkpt lat="43.00113" lon="0.3258">
        <ele>1101.4</ele>
        <time>2026-07-08T09:44:08Z</time>
      </trkpt>
      <trkpt lat="43.00113" lon="0.32581">
        <ele>1101.4</ele>
        <time>2026-07-08T09:44:09Z</time>
      </trkpt>
      <trkpt lat="43.00114" lon="0.32581">
        <ele>1101.4</ele>
        <time>2026-07-08T09:44:09Z</time>
      </trkpt>
      <trkpt lat="43.00114" lon="0.32582">
        <ele>1101.4</ele>
        <time>2026-07-08T09:44:10Z</time>
      </trkpt>
      <trkpt lat="43.00114" lon="0.32582">
        <ele>1101.4</ele>
        <time>2026-07-08T09:44:11Z</time>
      </trkpt>
      <trkpt lat="43.00115" lon="0.32583">
        <ele>1101.4</ele>
        <time>2026-07-08T09:44:11Z</time>
      </trkpt>
      <trkpt lat="43.00115" lon="0.32584">
        <ele>1100.4</ele>
        <time>2026-07-08T09:44:12Z</time>
      </trkpt>
      <trkpt lat="43.00115" lon="0.32585">
        <ele>1100.4</ele>
        <time>2026-07-08T09:44:13Z</time>
      </trkpt>
      <trkpt lat="43.00116" lon="0.32585">
        <ele>1100.4</ele>
        <time>2026-07-08T09:44:13Z</time>
      </trkpt>
      <trkpt lat="43.00116" lon="0.32586">
        <ele>1100.4</ele>
        <time>2026-07-08T09:44:14Z</time>
      </trkpt>
      <trkpt lat="43.00116" lon="0.32587">
        <ele>1100.4</ele>
        <time>2026-07-08T09:44:15Z</time>
      </trkpt>
      <trkpt lat="43.00116" lon="0.32587">
        <ele>1100.4</ele>
        <time>2026-07-08T09:44:15Z</time>
      </trkpt>
      <trkpt lat="43.00117" lon="0.32588">
        <ele>1100.4</ele>
        <time>2026-07-08T09:44:16Z</time>
      </trkpt>
      <trkpt lat="43.00117" lon="0.32589">
        <ele>1099.4</ele>
        <time>2026-07-08T09:44:16Z</time>
      </trkpt>
      <trkpt lat="43.00117" lon="0.3259">
        <ele>1099.4</ele>
        <time>2026-07-08T09:44:17Z</time>
      </trkpt>
      <trkpt lat="43.00118" lon="0.3259">
        <ele>1099.4</ele>
        <time>2026-07-08T09:44:18Z</time>
      </trkpt>
      <trkpt lat="43.00119" lon="0.32591">
        <ele>1098.4</ele>
        <time>2026-07-08T09:44:18Z</time>
      </trkpt>
      <trkpt lat="43.0012" lon="0.32591">
        <ele>1098.4</ele>
        <time>2026-07-08T09:44:19Z</time>
      </trkpt>
      <trkpt lat="43.00121" lon="0.32591">
        <ele>1099.4</ele>
        <time>2026-07-08T09:44:20Z</time>
      </trkpt>
      <trkpt lat="43.00122" lon="0.32592">
        <ele>1098.4</ele>
        <time>2026-07-08T09:44:21Z</time>
      </trkpt>
      <trkpt lat="43.00122" lon="0.32593">
        <ele>1098.4</ele>
        <time>2026-07-08T09:44:22Z</time>
      </trkpt>
      <trkpt lat="43.00123" lon="0.32593">
        <ele>1099.4</ele>
        <time>2026-07-08T09:44:22Z</time>
      </trkpt>
      <trkpt lat="43.00123" lon="0.32593">
        <ele>1099.4</ele>
        <time>2026-07-08T09:44:23Z</time>
      </trkpt>
      <trkpt lat="43.00124" lon="0.32594">
        <ele>1099.4</ele>
        <time>2026-07-08T09:44:24Z</time>
      </trkpt>
      <trkpt lat="43.00125" lon="0.32593">
        <ele>1100.4</ele>
        <time>2026-07-08T09:44:25Z</time>
      </trkpt>
      <trkpt lat="43.00126" lon="0.32593">
        <ele>1100.4</ele>
        <time>2026-07-08T09:44:25Z</time>
      </trkpt>
      <trkpt lat="43.00126" lon="0.32594">
        <ele>1099.4</ele>
        <time>2026-07-08T09:44:26Z</time>
      </trkpt>
      <trkpt lat="43.00126" lon="0.32594">
        <ele>1099.4</ele>
        <time>2026-07-08T09:44:27Z</time>
      </trkpt>
      <trkpt lat="43.00126" lon="0.32595">
        <ele>1099.4</ele>
        <time>2026-07-08T09:44:27Z</time>
      </trkpt>
      <trkpt lat="43.00126" lon="0.32597">
        <ele>1099.4</ele>
        <time>2026-07-08T09:44:28Z</time>
      </trkpt>
      <trkpt lat="43.00126" lon="0.32598">
        <ele>1099.4</ele>
        <time>2026-07-08T09:44:29Z</time>
      </trkpt>
      <trkpt lat="43.00126" lon="0.32599">
        <ele>1099.4</ele>
        <time>2026-07-08T09:44:29Z</time>
      </trkpt>
      <trkpt lat="43.00126" lon="0.326">
        <ele>1099.4</ele>
        <time>2026-07-08T09:44:30Z</time>
      </trkpt>
      <trkpt lat="43.00126" lon="0.32601">
        <ele>1098.4</ele>
        <time>2026-07-08T09:44:31Z</time>
      </trkpt>
      <trkpt lat="43.00126" lon="0.32601">
        <ele>1098.4</ele>
        <time>2026-07-08T09:44:31Z</time>
      </trkpt>
      <trkpt lat="43.00127" lon="0.32602">
        <ele>1098.4</ele>
        <time>2026-07-08T09:44:32Z</time>
      </trkpt>
      <trkpt lat="43.00127" lon="0.32603">
        <ele>1099.4</ele>
        <time>2026-07-08T09:44:32Z</time>
      </trkpt>
      <trkpt lat="43.00127" lon="0.32604">
        <ele>1099.4</ele>
        <time>2026-07-08T09:44:33Z</time>
      </trkpt>
      <trkpt lat="43.00128" lon="0.32604">
        <ele>1099.4</ele>
        <time>2026-07-08T09:44:34Z</time>
      </trkpt>
      <trkpt lat="43.00128" lon="0.32605">
        <ele>1098.4</ele>
        <time>2026-07-08T09:44:34Z</time>
      </trkpt>
      <trkpt lat="43.00129" lon="0.32606">
        <ele>1098.4</ele>
        <time>2026-07-08T09:44:35Z</time>
      </trkpt>
      <trkpt lat="43.00129" lon="0.32606">
        <ele>1098.4</ele>
        <time>2026-07-08T09:44:36Z</time>
      </trkpt>
      <trkpt lat="43.0013" lon="0.32607">
        <ele>1098.4</ele>
        <time>2026-07-08T09:44:36Z</time>
      </trkpt>
      <trkpt lat="43.0013" lon="0.32607">
        <ele>1098.4</ele>
        <time>2026-07-08T09:44:37Z</time>
      </trkpt>
      <trkpt lat="43.00131" lon="0.32607">
        <ele>1097.4</ele>
        <time>2026-07-08T09:44:38Z</time>
      </trkpt>
      <trkpt lat="43.00131" lon="0.32608">
        <ele>1097.4</ele>
        <time>2026-07-08T09:44:38Z</time>
      </trkpt>
      <trkpt lat="43.00132" lon="0.32608">
        <ele>1097.4</ele>
        <time>2026-07-08T09:44:39Z</time>
      </trkpt>
      <trkpt lat="43.00132" lon="0.32608">
        <ele>1096.4</ele>
        <time>2026-07-08T09:44:39Z</time>
      </trkpt>
      <trkpt lat="43.00133" lon="0.32609">
        <ele>1096.4</ele>
        <time>2026-07-08T09:44:40Z</time>
      </trkpt>
      <trkpt lat="43.00133" lon="0.32609">
        <ele>1096.4</ele>
        <time>2026-07-08T09:44:41Z</time>
      </trkpt>
      <trkpt lat="43.00134" lon="0.3261">
        <ele>1096.4</ele>
        <time>2026-07-08T09:44:41Z</time>
      </trkpt>
      <trkpt lat="43.00134" lon="0.32611">
        <ele>1096.4</ele>
        <time>2026-07-08T09:44:42Z</time>
      </trkpt>
      <trkpt lat="43.00135" lon="0.32612">
        <ele>1096.4</ele>
        <time>2026-07-08T09:44:43Z</time>
      </trkpt>
      <trkpt lat="43.00135" lon="0.32612">
        <ele>1097.4</ele>
        <time>2026-07-08T09:44:43Z</time>
      </trkpt>
      <trkpt lat="43.00136" lon="0.32612">
        <ele>1097.4</ele>
        <time>2026-07-08T09:44:44Z</time>
      </trkpt>
      <trkpt lat="43.00136" lon="0.32611">
        <ele>1097.4</ele>
        <time>2026-07-08T09:44:45Z</time>
      </trkpt>
      <trkpt lat="43.00137" lon="0.3261">
        <ele>1097.4</ele>
        <time>2026-07-08T09:44:46Z</time>
      </trkpt>
      <trkpt lat="43.00137" lon="0.32609">
        <ele>1098.4</ele>
        <time>2026-07-08T09:44:47Z</time>
      </trkpt>
      <trkpt lat="43.00137" lon="0.32609">
        <ele>1098.4</ele>
        <time>2026-07-08T09:44:47Z</time>
      </trkpt>
      <trkpt lat="43.00137" lon="0.32609">
        <ele>1098.4</ele>
        <time>2026-07-08T09:44:48Z</time>
      </trkpt>
      <trkpt lat="43.00138" lon="0.32609">
        <ele>1098.4</ele>
        <time>2026-07-08T09:44:48Z</time>
      </trkpt>
      <trkpt lat="43.00138" lon="0.32609">
        <ele>1098.4</ele>
        <time>2026-07-08T09:44:49Z</time>
      </trkpt>
      <trkpt lat="43.00138" lon="0.32609">
        <ele>1098.4</ele>
        <time>2026-07-08T09:44:49Z</time>
      </trkpt>
      <trkpt lat="43.00139" lon="0.3261">
        <ele>1098.4</ele>
        <time>2026-07-08T09:44:50Z</time>
      </trkpt>
      <trkpt lat="43.00139" lon="0.3261">
        <ele>1098.4</ele>
        <time>2026-07-08T09:44:50Z</time>
      </trkpt>
      <trkpt lat="43.00139" lon="0.32611">
        <ele>1098.4</ele>
        <time>2026-07-08T09:44:51Z</time>
      </trkpt>
      <trkpt lat="43.00139" lon="0.32612">
        <ele>1098.4</ele>
        <time>2026-07-08T09:44:52Z</time>
      </trkpt>
      <trkpt lat="43.0014" lon="0.32613">
        <ele>1098.4</ele>
        <time>2026-07-08T09:44:53Z</time>
      </trkpt>
      <trkpt lat="43.0014" lon="0.32614">
        <ele>1098.4</ele>
        <time>2026-07-08T09:44:53Z</time>
      </trkpt>
      <trkpt lat="43.00141" lon="0.32614">
        <ele>1098.4</ele>
        <time>2026-07-08T09:44:54Z</time>
      </trkpt>
      <trkpt lat="43.0014" lon="0.32615">
        <ele>1098.4</ele>
        <time>2026-07-08T09:44:55Z</time>
      </trkpt>
      <trkpt lat="43.0014" lon="0.32615">
        <ele>1098.4</ele>
        <time>2026-07-08T09:44:55Z</time>
      </trkpt>
      <trkpt lat="43.00141" lon="0.32616">
        <ele>1098.4</ele>
        <time>2026-07-08T09:44:56Z</time>
      </trkpt>
      <trkpt lat="43.00141" lon="0.32616">
        <ele>1099.4</ele>
        <time>2026-07-08T09:44:56Z</time>
      </trkpt>
      <trkpt lat="43.00141" lon="0.32617">
        <ele>1099.4</ele>
        <time>2026-07-08T09:44:57Z</time>
      </trkpt>
      <trkpt lat="43.00142" lon="0.32617">
        <ele>1099.4</ele>
        <time>2026-07-08T09:44:58Z</time>
      </trkpt>
      <trkpt lat="43.00142" lon="0.32617">
        <ele>1099.4</ele>
        <time>2026-07-08T09:44:58Z</time>
      </trkpt>
      <trkpt lat="43.00143" lon="0.32618">
        <ele>1099.4</ele>
        <time>2026-07-08T09:44:59Z</time>
      </trkpt>
      <trkpt lat="43.00144" lon="0.32618">
        <ele>1099.4</ele>
        <time>2026-07-08T09:44:59Z</time>
      </trkpt>
      <trkpt lat="43.00144" lon="0.32619">
        <ele>1099.4</ele>
        <time>2026-07-08T09:45:00Z</time>
      </trkpt>
      <trkpt lat="43.00145" lon="0.32619">
        <ele>1099.4</ele>
        <time>2026-07-08T09:45:01Z</time>
      </trkpt>
      <trkpt lat="43.00145" lon="0.32619">
        <ele>1099.4</ele>
        <time>2026-07-08T09:45:01Z</time>
      </trkpt>
      <trkpt lat="43.00146" lon="0.32619">
        <ele>1099.4</ele>
        <time>2026-07-08T09:45:02Z</time>
      </trkpt>
      <trkpt lat="43.00147" lon="0.3262">
        <ele>1099.4</ele>
        <time>2026-07-08T09:45:02Z</time>
      </trkpt>
      <trkpt lat="43.00147" lon="0.3262">
        <ele>1099.4</ele>
        <time>2026-07-08T09:45:03Z</time>
      </trkpt>
      <trkpt lat="43.00148" lon="0.3262">
        <ele>1100.4</ele>
        <time>2026-07-08T09:45:04Z</time>
      </trkpt>
      <trkpt lat="43.00148" lon="0.3262">
        <ele>1100.4</ele>
        <time>2026-07-08T09:45:04Z</time>
      </trkpt>
      <trkpt lat="43.00149" lon="0.3262">
        <ele>1100.4</ele>
        <time>2026-07-08T09:45:05Z</time>
      </trkpt>
      <trkpt lat="43.0015" lon="0.3262">
        <ele>1100.4</ele>
        <time>2026-07-08T09:45:05Z</time>
      </trkpt>
      <trkpt lat="43.0015" lon="0.32619">
        <ele>1100.4</ele>
        <time>2026-07-08T09:45:06Z</time>
      </trkpt>
      <trkpt lat="43.00151" lon="0.32619">
        <ele>1100.4</ele>
        <time>2026-07-08T09:45:07Z</time>
      </trkpt>
      <trkpt lat="43.00152" lon="0.32619">
        <ele>1100.4</ele>
        <time>2026-07-08T09:45:07Z</time>
      </trkpt>
      <trkpt lat="43.00152" lon="0.32618">
        <ele>1099.4</ele>
        <time>2026-07-08T09:45:08Z</time>
      </trkpt>
      <trkpt lat="43.00153" lon="0.32618">
        <ele>1099.4</ele>
        <time>2026-07-08T09:45:09Z</time>
      </trkpt>
      <trkpt lat="43.00153" lon="0.32618">
        <ele>1100.4</ele>
        <time>2026-07-08T09:45:09Z</time>
      </trkpt>
      <trkpt lat="43.00154" lon="0.32618">
        <ele>1100.4</ele>
        <time>2026-07-08T09:45:10Z</time>
      </trkpt>
      <trkpt lat="43.00154" lon="0.32618">
        <ele>1099.4</ele>
        <time>2026-07-08T09:45:10Z</time>
      </trkpt>
      <trkpt lat="43.00155" lon="0.32618">
        <ele>1099.4</ele>
        <time>2026-07-08T09:45:11Z</time>
      </trkpt>
      <trkpt lat="43.00155" lon="0.32617">
        <ele>1100.4</ele>
        <time>2026-07-08T09:45:11Z</time>
      </trkpt>
      <trkpt lat="43.00155" lon="0.32617">
        <ele>1100.4</ele>
        <time>2026-07-08T09:45:12Z</time>
      </trkpt>
      <trkpt lat="43.00155" lon="0.32617">
        <ele>1100.4</ele>
        <time>2026-07-08T09:45:13Z</time>
      </trkpt>
      <trkpt lat="43.00155" lon="0.32617">
        <ele>1100.4</ele>
        <time>2026-07-08T09:45:13Z</time>
      </trkpt>
      <trkpt lat="43.00156" lon="0.32617">
        <ele>1100.4</ele>
        <time>2026-07-08T09:45:14Z</time>
      </trkpt>
      <trkpt lat="43.00156" lon="0.32618">
        <ele>1100.4</ele>
        <time>2026-07-08T09:45:14Z</time>
      </trkpt>
      <trkpt lat="43.00157" lon="0.32618">
        <ele>1100.4</ele>
        <time>2026-07-08T09:45:15Z</time>
      </trkpt>
      <trkpt lat="43.00157" lon="0.32618">
        <ele>1100.4</ele>
        <time>2026-07-08T09:45:16Z</time>
      </trkpt>
      <trkpt lat="43.00157" lon="0.32618">
        <ele>1100.4</ele>
        <time>2026-07-08T09:45:16Z</time>
      </trkpt>
      <trkpt lat="43.00158" lon="0.32619">
        <ele>1099.4</ele>
        <time>2026-07-08T09:45:17Z</time>
      </trkpt>
      <trkpt lat="43.00158" lon="0.32619">
        <ele>1098.4</ele>
        <time>2026-07-08T09:45:17Z</time>
      </trkpt>
      <trkpt lat="43.00158" lon="0.32619">
        <ele>1098.4</ele>
        <time>2026-07-08T09:45:18Z</time>
      </trkpt>
      <trkpt lat="43.00159" lon="0.3262">
        <ele>1098.4</ele>
        <time>2026-07-08T09:45:18Z</time>
      </trkpt>
      <trkpt lat="43.00159" lon="0.3262">
        <ele>1098.4</ele>
        <time>2026-07-08T09:45:19Z</time>
      </trkpt>
      <trkpt lat="43.00159" lon="0.3262">
        <ele>1097.4</ele>
        <time>2026-07-08T09:45:20Z</time>
      </trkpt>
      <trkpt lat="43.00159" lon="0.32621">
        <ele>1098.4</ele>
        <time>2026-07-08T09:45:20Z</time>
      </trkpt>
      <trkpt lat="43.0016" lon="0.32622">
        <ele>1098.4</ele>
        <time>2026-07-08T09:45:21Z</time>
      </trkpt>
      <trkpt lat="43.0016" lon="0.32623">
        <ele>1097.4</ele>
        <time>2026-07-08T09:45:21Z</time>
      </trkpt>
      <trkpt lat="43.0016" lon="0.32623">
        <ele>1097.4</ele>
        <time>2026-07-08T09:45:22Z</time>
      </trkpt>
      <trkpt lat="43.00161" lon="0.32624">
        <ele>1098.4</ele>
        <time>2026-07-08T09:45:22Z</time>
      </trkpt>
      <trkpt lat="43.00161" lon="0.32624">
        <ele>1098.4</ele>
        <time>2026-07-08T09:45:23Z</time>
      </trkpt>
      <trkpt lat="43.00161" lon="0.32625">
        <ele>1098.4</ele>
        <time>2026-07-08T09:45:24Z</time>
      </trkpt>
      <trkpt lat="43.00161" lon="0.32626">
        <ele>1098.4</ele>
        <time>2026-07-08T09:45:25Z</time>
      </trkpt>
      <trkpt lat="43.00161" lon="0.32626">
        <ele>1098.4</ele>
        <time>2026-07-08T09:45:25Z</time>
      </trkpt>
      <trkpt lat="43.00162" lon="0.32626">
        <ele>1098.4</ele>
        <time>2026-07-08T09:45:26Z</time>
      </trkpt>
      <trkpt lat="43.00162" lon="0.32627">
        <ele>1097.4</ele>
        <time>2026-07-08T09:45:26Z</time>
      </trkpt>
      <trkpt lat="43.00162" lon="0.32627">
        <ele>1097.4</ele>
        <time>2026-07-08T09:45:27Z</time>
      </trkpt>
      <trkpt lat="43.00163" lon="0.32627">
        <ele>1096.4</ele>
        <time>2026-07-08T09:45:27Z</time>
      </trkpt>
      <trkpt lat="43.00163" lon="0.32627">
        <ele>1096.4</ele>
        <time>2026-07-08T09:45:28Z</time>
      </trkpt>
      <trkpt lat="43.00164" lon="0.32627">
        <ele>1095.4</ele>
        <time>2026-07-08T09:45:28Z</time>
      </trkpt>
      <trkpt lat="43.00164" lon="0.32628">
        <ele>1095.4</ele>
        <time>2026-07-08T09:45:29Z</time>
      </trkpt>
      <trkpt lat="43.00164" lon="0.32628">
        <ele>1095.4</ele>
        <time>2026-07-08T09:45:30Z</time>
      </trkpt>
      <trkpt lat="43.00165" lon="0.32628">
        <ele>1096.4</ele>
        <time>2026-07-08T09:45:30Z</time>
      </trkpt>
      <trkpt lat="43.00165" lon="0.32629">
        <ele>1096.4</ele>
        <time>2026-07-08T09:45:31Z</time>
      </trkpt>
      <trkpt lat="43.00165" lon="0.32629">
        <ele>1096.4</ele>
        <time>2026-07-08T09:45:31Z</time>
      </trkpt>
      <trkpt lat="43.00166" lon="0.3263">
        <ele>1096.4</ele>
        <time>2026-07-08T09:45:32Z</time>
      </trkpt>
      <trkpt lat="43.00166" lon="0.3263">
        <ele>1096.4</ele>
        <time>2026-07-08T09:45:32Z</time>
      </trkpt>
      <trkpt lat="43.00166" lon="0.32631">
        <ele>1096.4</ele>
        <time>2026-07-08T09:45:33Z</time>
      </trkpt>
      <trkpt lat="43.00167" lon="0.32631">
        <ele>1096.4</ele>
        <time>2026-07-08T09:45:34Z</time>
      </trkpt>
      <trkpt lat="43.00167" lon="0.32631">
        <ele>1095.4</ele>
        <time>2026-07-08T09:45:34Z</time>
      </trkpt>
      <trkpt lat="43.00168" lon="0.32631">
        <ele>1095.4</ele>
        <time>2026-07-08T09:45:35Z</time>
      </trkpt>
      <trkpt lat="43.00168" lon="0.32631">
        <ele>1095.4</ele>
        <time>2026-07-08T09:45:35Z</time>
      </trkpt>
      <trkpt lat="43.00169" lon="0.3263">
        <ele>1095.4</ele>
        <time>2026-07-08T09:45:36Z</time>
      </trkpt>
      <trkpt lat="43.0017" lon="0.3263">
        <ele>1096.4</ele>
        <time>2026-07-08T09:45:37Z</time>
      </trkpt>
      <trkpt lat="43.0017" lon="0.3263">
        <ele>1096.4</ele>
        <time>2026-07-08T09:45:37Z</time>
      </trkpt>
      <trkpt lat="43.0017" lon="0.32631">
        <ele>1096.4</ele>
        <time>2026-07-08T09:45:38Z</time>
      </trkpt>
      <trkpt lat="43.00171" lon="0.32631">
        <ele>1095.4</ele>
        <time>2026-07-08T09:45:38Z</time>
      </trkpt>
      <trkpt lat="43.00171" lon="0.32631">
        <ele>1094.4</ele>
        <time>2026-07-08T09:45:39Z</time>
      </trkpt>
      <trkpt lat="43.00171" lon="0.32631">
        <ele>1094.4</ele>
        <time>2026-07-08T09:45:40Z</time>
      </trkpt>
      <trkpt lat="43.00172" lon="0.32631">
        <ele>1095.4</ele>
        <time>2026-07-08T09:45:40Z</time>
      </trkpt>
      <trkpt lat="43.00172" lon="0.32632">
        <ele>1095.4</ele>
        <time>2026-07-08T09:45:41Z</time>
      </trkpt>
      <trkpt lat="43.00173" lon="0.32632">
        <ele>1095.4</ele>
        <time>2026-07-08T09:45:42Z</time>
      </trkpt>
      <trkpt lat="43.00173" lon="0.32632">
        <ele>1094.4</ele>
        <time>2026-07-08T09:45:43Z</time>
      </trkpt>
      <trkpt lat="43.00175" lon="0.32632">
        <ele>1094.4</ele>
        <time>2026-07-08T09:45:44Z</time>
      </trkpt>
      <trkpt lat="43.00175" lon="0.32632">
        <ele>1094.4</ele>
        <time>2026-07-08T09:45:44Z</time>
      </trkpt>
      <trkpt lat="43.00176" lon="0.32633">
        <ele>1094.4</ele>
        <time>2026-07-08T09:45:45Z</time>
      </trkpt>
      <trkpt lat="43.00177" lon="0.32633">
        <ele>1094.4</ele>
        <time>2026-07-08T09:45:45Z</time>
      </trkpt>
      <trkpt lat="43.00177" lon="0.32634">
        <ele>1093.4</ele>
        <time>2026-07-08T09:45:46Z</time>
      </trkpt>
      <trkpt lat="43.00178" lon="0.32634">
        <ele>1093.4</ele>
        <time>2026-07-08T09:45:47Z</time>
      </trkpt>
      <trkpt lat="43.00179" lon="0.32634">
        <ele>1094.4</ele>
        <time>2026-07-08T09:45:47Z</time>
      </trkpt>
      <trkpt lat="43.00179" lon="0.32634">
        <ele>1094.4</ele>
        <time>2026-07-08T09:45:48Z</time>
      </trkpt>
      <trkpt lat="43.0018" lon="0.32633">
        <ele>1095.4</ele>
        <time>2026-07-08T09:45:49Z</time>
      </trkpt>
      <trkpt lat="43.0018" lon="0.32632">
        <ele>1095.4</ele>
        <time>2026-07-08T09:45:49Z</time>
      </trkpt>
      <trkpt lat="43.0018" lon="0.32631">
        <ele>1095.4</ele>
        <time>2026-07-08T09:45:50Z</time>
      </trkpt>
      <trkpt lat="43.00181" lon="0.3263">
        <ele>1094.4</ele>
        <time>2026-07-08T09:45:50Z</time>
      </trkpt>
      <trkpt lat="43.00182" lon="0.3263">
        <ele>1094.4</ele>
        <time>2026-07-08T09:45:51Z</time>
      </trkpt>
      <trkpt lat="43.00182" lon="0.3263">
        <ele>1094.4</ele>
        <time>2026-07-08T09:45:51Z</time>
      </trkpt>
      <trkpt lat="43.00182" lon="0.3263">
        <ele>1094.4</ele>
        <time>2026-07-08T09:45:52Z</time>
      </trkpt>
      <trkpt lat="43.00183" lon="0.3263">
        <ele>1094.4</ele>
        <time>2026-07-08T09:45:52Z</time>
      </trkpt>
      <trkpt lat="43.00183" lon="0.3263">
        <ele>1095.4</ele>
        <time>2026-07-08T09:45:53Z</time>
      </trkpt>
      <trkpt lat="43.00184" lon="0.3263">
        <ele>1095.4</ele>
        <time>2026-07-08T09:45:54Z</time>
      </trkpt>
      <trkpt lat="43.00184" lon="0.3263">
        <ele>1095.4</ele>
        <time>2026-07-08T09:45:54Z</time>
      </trkpt>
      <trkpt lat="43.00185" lon="0.32631">
        <ele>1095.4</ele>
        <time>2026-07-08T09:45:55Z</time>
      </trkpt>
      <trkpt lat="43.00185" lon="0.32631">
        <ele>1095.4</ele>
        <time>2026-07-08T09:45:56Z</time>
      </trkpt>
      <trkpt lat="43.00186" lon="0.3263">
        <ele>1096.4</ele>
        <time>2026-07-08T09:45:56Z</time>
      </trkpt>
      <trkpt lat="43.00187" lon="0.3263">
        <ele>1096.4</ele>
        <time>2026-07-08T09:45:57Z</time>
      </trkpt>
      <trkpt lat="43.00187" lon="0.3263">
        <ele>1096.4</ele>
        <time>2026-07-08T09:45:57Z</time>
      </trkpt>
      <trkpt lat="43.00188" lon="0.32629">
        <ele>1095.4</ele>
        <time>2026-07-08T09:45:58Z</time>
      </trkpt>
      <trkpt lat="43.00189" lon="0.32628">
        <ele>1095.4</ele>
        <time>2026-07-08T09:45:59Z</time>
      </trkpt>
      <trkpt lat="43.00189" lon="0.32627">
        <ele>1095.4</ele>
        <time>2026-07-08T09:45:59Z</time>
      </trkpt>
      <trkpt lat="43.00189" lon="0.32627">
        <ele>1095.4</ele>
        <time>2026-07-08T09:46:00Z</time>
      </trkpt>
      <trkpt lat="43.00189" lon="0.32626">
        <ele>1095.4</ele>
        <time>2026-07-08T09:46:01Z</time>
      </trkpt>
      <trkpt lat="43.00189" lon="0.32625">
        <ele>1095.4</ele>
        <time>2026-07-08T09:46:01Z</time>
      </trkpt>
      <trkpt lat="43.00189" lon="0.32623">
        <ele>1095.4</ele>
        <time>2026-07-08T09:46:02Z</time>
      </trkpt>
      <trkpt lat="43.00189" lon="0.32621">
        <ele>1094.4</ele>
        <time>2026-07-08T09:46:03Z</time>
      </trkpt>
      <trkpt lat="43.00188" lon="0.3262">
        <ele>1094.4</ele>
        <time>2026-07-08T09:46:03Z</time>
      </trkpt>
      <trkpt lat="43.00188" lon="0.32619">
        <ele>1094.4</ele>
        <time>2026-07-08T09:46:04Z</time>
      </trkpt>
      <trkpt lat="43.00188" lon="0.32618">
        <ele>1093.4</ele>
        <time>2026-07-08T09:46:04Z</time>
      </trkpt>
      <trkpt lat="43.00187" lon="0.32617">
        <ele>1093.4</ele>
        <time>2026-07-08T09:46:05Z</time>
      </trkpt>
      <trkpt lat="43.00187" lon="0.32616">
        <ele>1093.4</ele>
        <time>2026-07-08T09:46:05Z</time>
      </trkpt>
      <trkpt lat="43.00186" lon="0.32615">
        <ele>1093.4</ele>
        <time>2026-07-08T09:46:06Z</time>
      </trkpt>
      <trkpt lat="43.00186" lon="0.32615">
        <ele>1093.4</ele>
        <time>2026-07-08T09:46:06Z</time>
      </trkpt>
      <trkpt lat="43.00186" lon="0.32614">
        <ele>1093.4</ele>
        <time>2026-07-08T09:46:07Z</time>
      </trkpt>
      <trkpt lat="43.00185" lon="0.32613">
        <ele>1093.4</ele>
        <time>2026-07-08T09:46:08Z</time>
      </trkpt>
      <trkpt lat="43.00184" lon="0.32612">
        <ele>1093.4</ele>
        <time>2026-07-08T09:46:08Z</time>
      </trkpt>
      <trkpt lat="43.00184" lon="0.32612">
        <ele>1093.4</ele>
        <time>2026-07-08T09:46:09Z</time>
      </trkpt>
      <trkpt lat="43.00183" lon="0.32611">
        <ele>1093.4</ele>
        <time>2026-07-08T09:46:09Z</time>
      </trkpt>
      <trkpt lat="43.00183" lon="0.32611">
        <ele>1093.4</ele>
        <time>2026-07-08T09:46:10Z</time>
      </trkpt>
      <trkpt lat="43.00182" lon="0.3261">
        <ele>1093.4</ele>
        <time>2026-07-08T09:46:10Z</time>
      </trkpt>
      <trkpt lat="43.00182" lon="0.3261">
        <ele>1093.4</ele>
        <time>2026-07-08T09:46:11Z</time>
      </trkpt>
      <trkpt lat="43.00181" lon="0.32609">
        <ele>1093.4</ele>
        <time>2026-07-08T09:46:12Z</time>
      </trkpt>
      <trkpt lat="43.00181" lon="0.32608">
        <ele>1093.4</ele>
        <time>2026-07-08T09:46:12Z</time>
      </trkpt>
      <trkpt lat="43.00181" lon="0.32607">
        <ele>1093.4</ele>
        <time>2026-07-08T09:46:13Z</time>
      </trkpt>
      <trkpt lat="43.00181" lon="0.32607">
        <ele>1091.4</ele>
        <time>2026-07-08T09:46:13Z</time>
      </trkpt>
      <trkpt lat="43.00181" lon="0.32606">
        <ele>1091.4</ele>
        <time>2026-07-08T09:46:14Z</time>
      </trkpt>
      <trkpt lat="43.00181" lon="0.32606">
        <ele>1091.4</ele>
        <time>2026-07-08T09:46:14Z</time>
      </trkpt>
      <trkpt lat="43.00181" lon="0.32605">
        <ele>1091.4</ele>
        <time>2026-07-08T09:46:15Z</time>
      </trkpt>
      <trkpt lat="43.0018" lon="0.32605">
        <ele>1090.4</ele>
        <time>2026-07-08T09:46:15Z</time>
      </trkpt>
      <trkpt lat="43.0018" lon="0.32604">
        <ele>1090.4</ele>
        <time>2026-07-08T09:46:16Z</time>
      </trkpt>
      <trkpt lat="43.0018" lon="0.32604">
        <ele>1090.4</ele>
        <time>2026-07-08T09:46:17Z</time>
      </trkpt>
      <trkpt lat="43.0018" lon="0.32604">
        <ele>1090.4</ele>
        <time>2026-07-08T09:46:17Z</time>
      </trkpt>
      <trkpt lat="43.00179" lon="0.32603">
        <ele>1090.4</ele>
        <time>2026-07-08T09:46:18Z</time>
      </trkpt>
      <trkpt lat="43.00178" lon="0.32602">
        <ele>1089.4</ele>
        <time>2026-07-08T09:46:19Z</time>
      </trkpt>
      <trkpt lat="43.00178" lon="0.32601">
        <ele>1088.4</ele>
        <time>2026-07-08T09:46:19Z</time>
      </trkpt>
      <trkpt lat="43.00177" lon="0.32601">
        <ele>1088.4</ele>
        <time>2026-07-08T09:46:20Z</time>
      </trkpt>
      <trkpt lat="43.00177" lon="0.326">
        <ele>1088.4</ele>
        <time>2026-07-08T09:46:20Z</time>
      </trkpt>
      <trkpt lat="43.00177" lon="0.326">
        <ele>1088.4</ele>
        <time>2026-07-08T09:46:21Z</time>
      </trkpt>
      <trkpt lat="43.00176" lon="0.32599">
        <ele>1088.4</ele>
        <time>2026-07-08T09:46:22Z</time>
      </trkpt>
      <trkpt lat="43.00175" lon="0.32599">
        <ele>1088.4</ele>
        <time>2026-07-08T09:46:23Z</time>
      </trkpt>
      <trkpt lat="43.00175" lon="0.32599">
        <ele>1087.4</ele>
        <time>2026-07-08T09:46:24Z</time>
      </trkpt>
      <trkpt lat="43.00175" lon="0.32599">
        <ele>1086.4</ele>
        <time>2026-07-08T09:46:24Z</time>
      </trkpt>
      <trkpt lat="43.00175" lon="0.32599">
        <ele>1086.4</ele>
        <time>2026-07-08T09:46:25Z</time>
      </trkpt>
      <trkpt lat="43.00175" lon="0.32598">
        <ele>1086.4</ele>
        <time>2026-07-08T09:46:25Z</time>
      </trkpt>
      <trkpt lat="43.00175" lon="0.32598">
        <ele>1086.4</ele>
        <time>2026-07-08T09:46:26Z</time>
      </trkpt>
      <trkpt lat="43.00175" lon="0.32597">
        <ele>1086.4</ele>
        <time>2026-07-08T09:46:27Z</time>
      </trkpt>
      <trkpt lat="43.00175" lon="0.32597">
        <ele>1085.4</ele>
        <time>2026-07-08T09:46:27Z</time>
      </trkpt>
      <trkpt lat="43.00175" lon="0.32596">
        <ele>1085.4</ele>
        <time>2026-07-08T09:46:28Z</time>
      </trkpt>
      <trkpt lat="43.00175" lon="0.32595">
        <ele>1085.4</ele>
        <time>2026-07-08T09:46:28Z</time>
      </trkpt>
      <trkpt lat="43.00175" lon="0.32595">
        <ele>1085.4</ele>
        <time>2026-07-08T09:46:29Z</time>
      </trkpt>
      <trkpt lat="43.00175" lon="0.32593">
        <ele>1085.4</ele>
        <time>2026-07-08T09:46:30Z</time>
      </trkpt>
      <trkpt lat="43.00176" lon="0.32593">
        <ele>1084.4</ele>
        <time>2026-07-08T09:46:30Z</time>
      </trkpt>
      <trkpt lat="43.00176" lon="0.32592">
        <ele>1084.4</ele>
        <time>2026-07-08T09:46:31Z</time>
      </trkpt>
      <trkpt lat="43.00176" lon="0.32591">
        <ele>1084.4</ele>
        <time>2026-07-08T09:46:32Z</time>
      </trkpt>
      <trkpt lat="43.00176" lon="0.3259">
        <ele>1084.4</ele>
        <time>2026-07-08T09:46:32Z</time>
      </trkpt>
      <trkpt lat="43.00176" lon="0.32589">
        <ele>1084.4</ele>
        <time>2026-07-08T09:46:33Z</time>
      </trkpt>
      <trkpt lat="43.00176" lon="0.32588">
        <ele>1083.4</ele>
        <time>2026-07-08T09:46:33Z</time>
      </trkpt>
      <trkpt lat="43.00175" lon="0.32587">
        <ele>1083.4</ele>
        <time>2026-07-08T09:46:34Z</time>
      </trkpt>
      <trkpt lat="43.00175" lon="0.32587">
        <ele>1083.4</ele>
        <time>2026-07-08T09:46:34Z</time>
      </trkpt>
      <trkpt lat="43.00175" lon="0.32586">
        <ele>1084.4</ele>
        <time>2026-07-08T09:46:35Z</time>
      </trkpt>
      <trkpt lat="43.00175" lon="0.32585">
        <ele>1084.4</ele>
        <time>2026-07-08T09:46:36Z</time>
      </trkpt>
      <trkpt lat="43.00175" lon="0.32584">
        <ele>1083.4</ele>
        <time>2026-07-08T09:46:36Z</time>
      </trkpt>
      <trkpt lat="43.00175" lon="0.32584">
        <ele>1083.4</ele>
        <time>2026-07-08T09:46:37Z</time>
      </trkpt>
      <trkpt lat="43.00175" lon="0.32582">
        <ele>1083.4</ele>
        <time>2026-07-08T09:46:38Z</time>
      </trkpt>
      <trkpt lat="43.00175" lon="0.32582">
        <ele>1082.4</ele>
        <time>2026-07-08T09:46:38Z</time>
      </trkpt>
      <trkpt lat="43.00175" lon="0.32582">
        <ele>1082.4</ele>
        <time>2026-07-08T09:46:39Z</time>
      </trkpt>
      <trkpt lat="43.00175" lon="0.32583">
        <ele>1082.4</ele>
        <time>2026-07-08T09:46:39Z</time>
      </trkpt>
      <trkpt lat="43.00175" lon="0.32583">
        <ele>1082.4</ele>
        <time>2026-07-08T09:46:40Z</time>
      </trkpt>
      <trkpt lat="43.00175" lon="0.32583">
        <ele>1082.4</ele>
        <time>2026-07-08T09:46:40Z</time>
      </trkpt>
      <trkpt lat="43.00175" lon="0.32583">
        <ele>1082.4</ele>
        <time>2026-07-08T09:46:41Z</time>
      </trkpt>
      <trkpt lat="43.00175" lon="0.32582">
        <ele>1081.4</ele>
        <time>2026-07-08T09:46:41Z</time>
      </trkpt>
      <trkpt lat="43.00175" lon="0.32581">
        <ele>1081.4</ele>
        <time>2026-07-08T09:46:42Z</time>
      </trkpt>
      <trkpt lat="43.00175" lon="0.32581">
        <ele>1080.4</ele>
        <time>2026-07-08T09:46:43Z</time>
      </trkpt>
      <trkpt lat="43.00175" lon="0.32581">
        <ele>1080.4</ele>
        <time>2026-07-08T09:46:44Z</time>
      </trkpt>
      <trkpt lat="43.00175" lon="0.32581">
        <ele>1080.4</ele>
        <time>2026-07-08T09:46:44Z</time>
      </trkpt>
      <trkpt lat="43.00176" lon="0.3258">
        <ele>1080.4</ele>
        <time>2026-07-08T09:46:45Z</time>
      </trkpt>
      <trkpt lat="43.00176" lon="0.3258">
        <ele>1080.4</ele>
        <time>2026-07-08T09:46:45Z</time>
      </trkpt>
      <trkpt lat="43.00176" lon="0.32579">
        <ele>1080.4</ele>
        <time>2026-07-08T09:46:46Z</time>
      </trkpt>
      <trkpt lat="43.00177" lon="0.32578">
        <ele>1080.4</ele>
        <time>2026-07-08T09:46:47Z</time>
      </trkpt>
      <trkpt lat="43.00177" lon="0.32578">
        <ele>1079.4</ele>
        <time>2026-07-08T09:46:47Z</time>
      </trkpt>
      <trkpt lat="43.00177" lon="0.32577">
        <ele>1079.4</ele>
        <time>2026-07-08T09:46:48Z</time>
      </trkpt>
      <trkpt lat="43.00177" lon="0.32576">
        <ele>1079.4</ele>
        <time>2026-07-08T09:46:48Z</time>
      </trkpt>
      <trkpt lat="43.00177" lon="0.32575">
        <ele>1079.4</ele>
        <time>2026-07-08T09:46:49Z</time>
      </trkpt>
      <trkpt lat="43.00178" lon="0.32575">
        <ele>1080.4</ele>
        <time>2026-07-08T09:46:49Z</time>
      </trkpt>
      <trkpt lat="43.00178" lon="0.32574">
        <ele>1080.4</ele>
        <time>2026-07-08T09:46:50Z</time>
      </trkpt>
      <trkpt lat="43.00178" lon="0.32574">
        <ele>1080.4</ele>
        <time>2026-07-08T09:46:50Z</time>
      </trkpt>
      <trkpt lat="43.00179" lon="0.32573">
        <ele>1080.4</ele>
        <time>2026-07-08T09:46:51Z</time>
      </trkpt>
      <trkpt lat="43.00179" lon="0.32573">
        <ele>1079.4</ele>
        <time>2026-07-08T09:46:51Z</time>
      </trkpt>
      <trkpt lat="43.0018" lon="0.32572">
        <ele>1079.4</ele>
        <time>2026-07-08T09:46:52Z</time>
      </trkpt>
      <trkpt lat="43.0018" lon="0.32571">
        <ele>1079.4</ele>
        <time>2026-07-08T09:46:53Z</time>
      </trkpt>
      <trkpt lat="43.00181" lon="0.3257">
        <ele>1079.4</ele>
        <time>2026-07-08T09:46:54Z</time>
      </trkpt>
      <trkpt lat="43.00182" lon="0.32569">
        <ele>1079.4</ele>
        <time>2026-07-08T09:46:55Z</time>
      </trkpt>
      <trkpt lat="43.00182" lon="0.32568">
        <ele>1078.4</ele>
        <time>2026-07-08T09:46:55Z</time>
      </trkpt>
      <trkpt lat="43.00183" lon="0.32567">
        <ele>1077.4</ele>
        <time>2026-07-08T09:46:56Z</time>
      </trkpt>
      <trkpt lat="43.00183" lon="0.32566">
        <ele>1077.4</ele>
        <time>2026-07-08T09:46:57Z</time>
      </trkpt>
      <trkpt lat="43.00183" lon="0.32566">
        <ele>1077.4</ele>
        <time>2026-07-08T09:46:57Z</time>
      </trkpt>
      <trkpt lat="43.00183" lon="0.32565">
        <ele>1077.4</ele>
        <time>2026-07-08T09:46:58Z</time>
      </trkpt>
      <trkpt lat="43.00183" lon="0.32564">
        <ele>1077.4</ele>
        <time>2026-07-08T09:46:58Z</time>
      </trkpt>
      <trkpt lat="43.00183" lon="0.32563">
        <ele>1077.4</ele>
        <time>2026-07-08T09:46:59Z</time>
      </trkpt>
      <trkpt lat="43.00183" lon="0.32562">
        <ele>1076.4</ele>
        <time>2026-07-08T09:46:59Z</time>
      </trkpt>
      <trkpt lat="43.00183" lon="0.32561">
        <ele>1076.4</ele>
        <time>2026-07-08T09:47:00Z</time>
      </trkpt>
      <trkpt lat="43.00183" lon="0.3256">
        <ele>1076.4</ele>
        <time>2026-07-08T09:47:01Z</time>
      </trkpt>
      <trkpt lat="43.00183" lon="0.32559">
        <ele>1076.4</ele>
        <time>2026-07-08T09:47:01Z</time>
      </trkpt>
      <trkpt lat="43.00184" lon="0.32558">
        <ele>1076.4</ele>
        <time>2026-07-08T09:47:02Z</time>
      </trkpt>
      <trkpt lat="43.00184" lon="0.32557">
        <ele>1075.4</ele>
        <time>2026-07-08T09:47:03Z</time>
      </trkpt>
      <trkpt lat="43.00184" lon="0.32557">
        <ele>1074.4</ele>
        <time>2026-07-08T09:47:03Z</time>
      </trkpt>
      <trkpt lat="43.00184" lon="0.32556">
        <ele>1074.4</ele>
        <time>2026-07-08T09:47:04Z</time>
      </trkpt>
      <trkpt lat="43.00184" lon="0.32554">
        <ele>1074.4</ele>
        <time>2026-07-08T09:47:05Z</time>
      </trkpt>
      <trkpt lat="43.00184" lon="0.32553">
        <ele>1074.4</ele>
        <time>2026-07-08T09:47:06Z</time>
      </trkpt>
      <trkpt lat="43.00183" lon="0.32552">
        <ele>1073.4</ele>
        <time>2026-07-08T09:47:07Z</time>
      </trkpt>
      <trkpt lat="43.00183" lon="0.32551">
        <ele>1073.4</ele>
        <time>2026-07-08T09:47:08Z</time>
      </trkpt>
      <trkpt lat="43.00183" lon="0.3255">
        <ele>1073.4</ele>
        <time>2026-07-08T09:47:09Z</time>
      </trkpt>
      <trkpt lat="43.00183" lon="0.32549">
        <ele>1073.4</ele>
        <time>2026-07-08T09:47:09Z</time>
      </trkpt>
      <trkpt lat="43.00183" lon="0.32548">
        <ele>1073.4</ele>
        <time>2026-07-08T09:47:09Z</time>
      </trkpt>
      <trkpt lat="43.00183" lon="0.32548">
        <ele>1073.4</ele>
        <time>2026-07-08T09:47:10Z</time>
      </trkpt>
      <trkpt lat="43.00183" lon="0.32546">
        <ele>1072.4</ele>
        <time>2026-07-08T09:47:11Z</time>
      </trkpt>
      <trkpt lat="43.00183" lon="0.32546">
        <ele>1072.4</ele>
        <time>2026-07-08T09:47:11Z</time>
      </trkpt>
      <trkpt lat="43.00183" lon="0.32545">
        <ele>1073.4</ele>
        <time>2026-07-08T09:47:12Z</time>
      </trkpt>
      <trkpt lat="43.00183" lon="0.32544">
        <ele>1073.4</ele>
        <time>2026-07-08T09:47:13Z</time>
      </trkpt>
      <trkpt lat="43.00183" lon="0.32544">
        <ele>1073.4</ele>
        <time>2026-07-08T09:47:13Z</time>
      </trkpt>
      <trkpt lat="43.00183" lon="0.32543">
        <ele>1074.4</ele>
        <time>2026-07-08T09:47:14Z</time>
      </trkpt>
      <trkpt lat="43.00184" lon="0.32542">
        <ele>1074.4</ele>
        <time>2026-07-08T09:47:15Z</time>
      </trkpt>
      <trkpt lat="43.00184" lon="0.32541">
        <ele>1074.4</ele>
        <time>2026-07-08T09:47:15Z</time>
      </trkpt>
      <trkpt lat="43.00185" lon="0.3254">
        <ele>1074.4</ele>
        <time>2026-07-08T09:47:16Z</time>
      </trkpt>
      <trkpt lat="43.00186" lon="0.3254">
        <ele>1074.4</ele>
        <time>2026-07-08T09:47:17Z</time>
      </trkpt>
      <trkpt lat="43.00187" lon="0.32541">
        <ele>1074.4</ele>
        <time>2026-07-08T09:47:18Z</time>
      </trkpt>
      <trkpt lat="43.00187" lon="0.32542">
        <ele>1074.4</ele>
        <time>2026-07-08T09:47:18Z</time>
      </trkpt>
      <trkpt lat="43.00187" lon="0.32543">
        <ele>1074.4</ele>
        <time>2026-07-08T09:47:19Z</time>
      </trkpt>
      <trkpt lat="43.00187" lon="0.32545">
        <ele>1074.4</ele>
        <time>2026-07-08T09:47:20Z</time>
      </trkpt>
      <trkpt lat="43.00188" lon="0.32546">
        <ele>1074.4</ele>
        <time>2026-07-08T09:47:21Z</time>
      </trkpt>
      <trkpt lat="43.00189" lon="0.32547">
        <ele>1074.4</ele>
        <time>2026-07-08T09:47:22Z</time>
      </trkpt>
      <trkpt lat="43.0019" lon="0.32548">
        <ele>1073.4</ele>
        <time>2026-07-08T09:47:23Z</time>
      </trkpt>
      <trkpt lat="43.0019" lon="0.32549">
        <ele>1073.4</ele>
        <time>2026-07-08T09:47:23Z</time>
      </trkpt>
      <trkpt lat="43.00191" lon="0.3255">
        <ele>1073.4</ele>
        <time>2026-07-08T09:47:24Z</time>
      </trkpt>
      <trkpt lat="43.00191" lon="0.3255">
        <ele>1074.4</ele>
        <time>2026-07-08T09:47:24Z</time>
      </trkpt>
      <trkpt lat="43.00191" lon="0.32551">
        <ele>1074.4</ele>
        <time>2026-07-08T09:47:25Z</time>
      </trkpt>
      <trkpt lat="43.00192" lon="0.32553">
        <ele>1074.4</ele>
        <time>2026-07-08T09:47:26Z</time>
      </trkpt>
      <trkpt lat="43.00192" lon="0.32553">
        <ele>1074.4</ele>
        <time>2026-07-08T09:47:26Z</time>
      </trkpt>
      <trkpt lat="43.00193" lon="0.32554">
        <ele>1074.4</ele>
        <time>2026-07-08T09:47:27Z</time>
      </trkpt>
      <trkpt lat="43.00194" lon="0.32555">
        <ele>1073.4</ele>
        <time>2026-07-08T09:47:28Z</time>
      </trkpt>
      <trkpt lat="43.00194" lon="0.32556">
        <ele>1073.4</ele>
        <time>2026-07-08T09:47:29Z</time>
      </trkpt>
      <trkpt lat="43.00195" lon="0.32556">
        <ele>1073.4</ele>
        <time>2026-07-08T09:47:29Z</time>
      </trkpt>
      <trkpt lat="43.00195" lon="0.32557">
        <ele>1072.4</ele>
        <time>2026-07-08T09:47:30Z</time>
      </trkpt>
      <trkpt lat="43.00196" lon="0.32557">
        <ele>1072.4</ele>
        <time>2026-07-08T09:47:31Z</time>
      </trkpt>
      <trkpt lat="43.00196" lon="0.32557">
        <ele>1073.4</ele>
        <time>2026-07-08T09:47:31Z</time>
      </trkpt>
      <trkpt lat="43.00196" lon="0.32557">
        <ele>1073.4</ele>
        <time>2026-07-08T09:47:32Z</time>
      </trkpt>
      <trkpt lat="43.00197" lon="0.32558">
        <ele>1072.4</ele>
        <time>2026-07-08T09:47:32Z</time>
      </trkpt>
      <trkpt lat="43.00197" lon="0.32558">
        <ele>1072.4</ele>
        <time>2026-07-08T09:47:33Z</time>
      </trkpt>
      <trkpt lat="43.00198" lon="0.32559">
        <ele>1072.4</ele>
        <time>2026-07-08T09:47:33Z</time>
      </trkpt>
      <trkpt lat="43.00198" lon="0.32559">
        <ele>1072.4</ele>
        <time>2026-07-08T09:47:34Z</time>
      </trkpt>
      <trkpt lat="43.00199" lon="0.32559">
        <ele>1072.4</ele>
        <time>2026-07-08T09:47:35Z</time>
      </trkpt>
      <trkpt lat="43.00199" lon="0.32559">
        <ele>1072.4</ele>
        <time>2026-07-08T09:47:35Z</time>
      </trkpt>
      <trkpt lat="43.002" lon="0.3256">
        <ele>1072.4</ele>
        <time>2026-07-08T09:47:36Z</time>
      </trkpt>
      <trkpt lat="43.002" lon="0.3256">
        <ele>1072.4</ele>
        <time>2026-07-08T09:47:36Z</time>
      </trkpt>
      <trkpt lat="43.00201" lon="0.3256">
        <ele>1072.4</ele>
        <time>2026-07-08T09:47:37Z</time>
      </trkpt>
      <trkpt lat="43.00201" lon="0.32561">
        <ele>1072.4</ele>
        <time>2026-07-08T09:47:37Z</time>
      </trkpt>
      <trkpt lat="43.00201" lon="0.32561">
        <ele>1072.4</ele>
        <time>2026-07-08T09:47:38Z</time>
      </trkpt>
      <trkpt lat="43.00202" lon="0.3256">
        <ele>1072.4</ele>
        <time>2026-07-08T09:47:38Z</time>
      </trkpt>
      <trkpt lat="43.00202" lon="0.3256">
        <ele>1072.4</ele>
        <time>2026-07-08T09:47:39Z</time>
      </trkpt>
      <trkpt lat="43.00203" lon="0.32559">
        <ele>1072.4</ele>
        <time>2026-07-08T09:47:40Z</time>
      </trkpt>
      <trkpt lat="43.00204" lon="0.32559">
        <ele>1072.4</ele>
        <time>2026-07-08T09:47:40Z</time>
      </trkpt>
      <trkpt lat="43.00204" lon="0.32559">
        <ele>1072.4</ele>
        <time>2026-07-08T09:47:41Z</time>
      </trkpt>
      <trkpt lat="43.00205" lon="0.32559">
        <ele>1072.4</ele>
        <time>2026-07-08T09:47:42Z</time>
      </trkpt>
      <trkpt lat="43.00206" lon="0.32559">
        <ele>1072.4</ele>
        <time>2026-07-08T09:47:42Z</time>
      </trkpt>
      <trkpt lat="43.00207" lon="0.32558">
        <ele>1071.4</ele>
        <time>2026-07-08T09:47:43Z</time>
      </trkpt>
      <trkpt lat="43.00207" lon="0.32557">
        <ele>1071.4</ele>
        <time>2026-07-08T09:47:44Z</time>
      </trkpt>
      <trkpt lat="43.00207" lon="0.32555">
        <ele>1071.4</ele>
        <time>2026-07-08T09:47:44Z</time>
      </trkpt>
      <trkpt lat="43.00207" lon="0.32555">
        <ele>1071.4</ele>
        <time>2026-07-08T09:47:45Z</time>
      </trkpt>
      <trkpt lat="43.00207" lon="0.32553">
        <ele>1071.4</ele>
        <time>2026-07-08T09:47:45Z</time>
      </trkpt>
      <trkpt lat="43.00208" lon="0.32553">
        <ele>1071.4</ele>
        <time>2026-07-08T09:47:46Z</time>
      </trkpt>
      <trkpt lat="43.00208" lon="0.32551">
        <ele>1070.4</ele>
        <time>2026-07-08T09:47:46Z</time>
      </trkpt>
      <trkpt lat="43.00208" lon="0.32551">
        <ele>1070.4</ele>
        <time>2026-07-08T09:47:47Z</time>
      </trkpt>
      <trkpt lat="43.00208" lon="0.3255">
        <ele>1070.4</ele>
        <time>2026-07-08T09:47:47Z</time>
      </trkpt>
      <trkpt lat="43.00209" lon="0.32548">
        <ele>1070.4</ele>
        <time>2026-07-08T09:47:49Z</time>
      </trkpt>
      <trkpt lat="43.0021" lon="0.32547">
        <ele>1070.4</ele>
        <time>2026-07-08T09:47:50Z</time>
      </trkpt>
      <trkpt lat="43.00209" lon="0.32545">
        <ele>1068.4</ele>
        <time>2026-07-08T09:47:50Z</time>
      </trkpt>
      <trkpt lat="43.00209" lon="0.32544">
        <ele>1068.4</ele>
        <time>2026-07-08T09:47:51Z</time>
      </trkpt>
      <trkpt lat="43.00209" lon="0.32543">
        <ele>1067.4</ele>
        <time>2026-07-08T09:47:51Z</time>
      </trkpt>
      <trkpt lat="43.00209" lon="0.32542">
        <ele>1067.4</ele>
        <time>2026-07-08T09:47:52Z</time>
      </trkpt>
      <trkpt lat="43.00208" lon="0.32541">
        <ele>1066.4</ele>
        <time>2026-07-08T09:47:53Z</time>
      </trkpt>
      <trkpt lat="43.00208" lon="0.3254">
        <ele>1066.4</ele>
        <time>2026-07-08T09:47:53Z</time>
      </trkpt>
      <trkpt lat="43.00209" lon="0.32539">
        <ele>1066.4</ele>
        <time>2026-07-08T09:47:54Z</time>
      </trkpt>
      <trkpt lat="43.00209" lon="0.32538">
        <ele>1066.4</ele>
        <time>2026-07-08T09:47:55Z</time>
      </trkpt>
      <trkpt lat="43.00208" lon="0.32537">
        <ele>1066.4</ele>
        <time>2026-07-08T09:47:56Z</time>
      </trkpt>
      <trkpt lat="43.00208" lon="0.32536">
        <ele>1066.4</ele>
        <time>2026-07-08T09:47:57Z</time>
      </trkpt>
      <trkpt lat="43.00208" lon="0.32536">
        <ele>1066.4</ele>
        <time>2026-07-08T09:47:57Z</time>
      </trkpt>
      <trkpt lat="43.00209" lon="0.32536">
        <ele>1066.4</ele>
        <time>2026-07-08T09:47:58Z</time>
      </trkpt>
      <trkpt lat="43.00209" lon="0.32536">
        <ele>1066.4</ele>
        <time>2026-07-08T09:47:58Z</time>
      </trkpt>
      <trkpt lat="43.00209" lon="0.32535">
        <ele>1066.4</ele>
        <time>2026-07-08T09:47:59Z</time>
      </trkpt>
      <trkpt lat="43.00209" lon="0.32535">
        <ele>1066.4</ele>
        <time>2026-07-08T09:48:00Z</time>
      </trkpt>
      <trkpt lat="43.00209" lon="0.32534">
        <ele>1066.4</ele>
        <time>2026-07-08T09:48:00Z</time>
      </trkpt>
      <trkpt lat="43.00209" lon="0.32533">
        <ele>1066.4</ele>
        <time>2026-07-08T09:48:01Z</time>
      </trkpt>
      <trkpt lat="43.0021" lon="0.32532">
        <ele>1065.4</ele>
        <time>2026-07-08T09:48:02Z</time>
      </trkpt>
      <trkpt lat="43.00209" lon="0.32532">
        <ele>1064.4</ele>
        <time>2026-07-08T09:48:03Z</time>
      </trkpt>
      <trkpt lat="43.00209" lon="0.32532">
        <ele>1064.4</ele>
        <time>2026-07-08T09:48:03Z</time>
      </trkpt>
      <trkpt lat="43.0021" lon="0.32531">
        <ele>1064.4</ele>
        <time>2026-07-08T09:48:04Z</time>
      </trkpt>
      <trkpt lat="43.0021" lon="0.32531">
        <ele>1064.4</ele>
        <time>2026-07-08T09:48:04Z</time>
      </trkpt>
      <trkpt lat="43.0021" lon="0.3253">
        <ele>1064.4</ele>
        <time>2026-07-08T09:48:05Z</time>
      </trkpt>
      <trkpt lat="43.0021" lon="0.3253">
        <ele>1064.4</ele>
        <time>2026-07-08T09:48:06Z</time>
      </trkpt>
      <trkpt lat="43.0021" lon="0.3253">
        <ele>1064.4</ele>
        <time>2026-07-08T09:48:06Z</time>
      </trkpt>
      <trkpt lat="43.00211" lon="0.32529">
        <ele>1064.4</ele>
        <time>2026-07-08T09:48:07Z</time>
      </trkpt>
      <trkpt lat="43.00211" lon="0.32529">
        <ele>1064.4</ele>
        <time>2026-07-08T09:48:08Z</time>
      </trkpt>
      <trkpt lat="43.0021" lon="0.32528">
        <ele>1063.4</ele>
        <time>2026-07-08T09:48:09Z</time>
      </trkpt>
      <trkpt lat="43.0021" lon="0.32527">
        <ele>1063.4</ele>
        <time>2026-07-08T09:48:10Z</time>
      </trkpt>
      <trkpt lat="43.0021" lon="0.32527">
        <ele>1063.4</ele>
        <time>2026-07-08T09:48:10Z</time>
      </trkpt>
      <trkpt lat="43.0021" lon="0.32526">
        <ele>1063.4</ele>
        <time>2026-07-08T09:48:11Z</time>
      </trkpt>
      <trkpt lat="43.0021" lon="0.32526">
        <ele>1063.4</ele>
        <time>2026-07-08T09:48:12Z</time>
      </trkpt>
      <trkpt lat="43.0021" lon="0.32525">
        <ele>1062.4</ele>
        <time>2026-07-08T09:48:12Z</time>
      </trkpt>
      <trkpt lat="43.00209" lon="0.32525">
        <ele>1062.4</ele>
        <time>2026-07-08T09:48:13Z</time>
      </trkpt>
      <trkpt lat="43.00209" lon="0.32524">
        <ele>1063.4</ele>
        <time>2026-07-08T09:48:14Z</time>
      </trkpt>
      <trkpt lat="43.00209" lon="0.32523">
        <ele>1063.4</ele>
        <time>2026-07-08T09:48:15Z</time>
      </trkpt>
      <trkpt lat="43.0021" lon="0.32522">
        <ele>1062.4</ele>
        <time>2026-07-08T09:48:15Z</time>
      </trkpt>
      <trkpt lat="43.0021" lon="0.32522">
        <ele>1062.4</ele>
        <time>2026-07-08T09:48:16Z</time>
      </trkpt>
      <trkpt lat="43.0021" lon="0.32521">
        <ele>1062.4</ele>
        <time>2026-07-08T09:48:17Z</time>
      </trkpt>
      <trkpt lat="43.00211" lon="0.32521">
        <ele>1062.4</ele>
        <time>2026-07-08T09:48:17Z</time>
      </trkpt>
      <trkpt lat="43.00211" lon="0.3252">
        <ele>1062.4</ele>
        <time>2026-07-08T09:48:18Z</time>
      </trkpt>
      <trkpt lat="43.0021" lon="0.32519">
        <ele>1062.4</ele>
        <time>2026-07-08T09:48:18Z</time>
      </trkpt>
      <trkpt lat="43.0021" lon="0.32519">
        <ele>1060.4</ele>
        <time>2026-07-08T09:48:19Z</time>
      </trkpt>
      <trkpt lat="43.00209" lon="0.32519">
        <ele>1060.4</ele>
        <time>2026-07-08T09:48:20Z</time>
      </trkpt>
      <trkpt lat="43.00209" lon="0.3252">
        <ele>1060.4</ele>
        <time>2026-07-08T09:48:20Z</time>
      </trkpt>
      <trkpt lat="43.00209" lon="0.32521">
        <ele>1060.4</ele>
        <time>2026-07-08T09:48:21Z</time>
      </trkpt>
      <trkpt lat="43.00209" lon="0.32522">
        <ele>1059.4</ele>
        <time>2026-07-08T09:48:21Z</time>
      </trkpt>
      <trkpt lat="43.00209" lon="0.32522">
        <ele>1059.4</ele>
        <time>2026-07-08T09:48:22Z</time>
      </trkpt>
      <trkpt lat="43.00209" lon="0.32523">
        <ele>1059.4</ele>
        <time>2026-07-08T09:48:23Z</time>
      </trkpt>
      <trkpt lat="43.00209" lon="0.32524">
        <ele>1058.4</ele>
        <time>2026-07-08T09:48:23Z</time>
      </trkpt>
      <trkpt lat="43.00209" lon="0.32525">
        <ele>1058.4</ele>
        <time>2026-07-08T09:48:24Z</time>
      </trkpt>
      <trkpt lat="43.00209" lon="0.32526">
        <ele>1059.4</ele>
        <time>2026-07-08T09:48:24Z</time>
      </trkpt>
      <trkpt lat="43.0021" lon="0.32526">
        <ele>1059.4</ele>
        <time>2026-07-08T09:48:25Z</time>
      </trkpt>
      <trkpt lat="43.0021" lon="0.32528">
        <ele>1058.4</ele>
        <time>2026-07-08T09:48:25Z</time>
      </trkpt>
      <trkpt lat="43.00211" lon="0.32529">
        <ele>1058.4</ele>
        <time>2026-07-08T09:48:26Z</time>
      </trkpt>
      <trkpt lat="43.00211" lon="0.3253">
        <ele>1058.4</ele>
        <time>2026-07-08T09:48:27Z</time>
      </trkpt>
      <trkpt lat="43.00211" lon="0.32531">
        <ele>1056.4</ele>
        <time>2026-07-08T09:48:28Z</time>
      </trkpt>
      <trkpt lat="43.00212" lon="0.32532">
        <ele>1056.4</ele>
        <time>2026-07-08T09:48:29Z</time>
      </trkpt>
      <trkpt lat="43.00212" lon="0.32532">
        <ele>1056.4</ele>
        <time>2026-07-08T09:48:29Z</time>
      </trkpt>
      <trkpt lat="43.00212" lon="0.32533">
        <ele>1056.4</ele>
        <time>2026-07-08T09:48:30Z</time>
      </trkpt>
      <trkpt lat="43.00213" lon="0.32533">
        <ele>1056.4</ele>
        <time>2026-07-08T09:48:31Z</time>
      </trkpt>
      <trkpt lat="43.00213" lon="0.32533">
        <ele>1056.4</ele>
        <time>2026-07-08T09:48:31Z</time>
      </trkpt>
      <trkpt lat="43.00214" lon="0.32533">
        <ele>1056.4</ele>
        <time>2026-07-08T09:48:32Z</time>
      </trkpt>
      <trkpt lat="43.00215" lon="0.32533">
        <ele>1056.4</ele>
        <time>2026-07-08T09:48:33Z</time>
      </trkpt>
      <trkpt lat="43.00217" lon="0.32531">
        <ele>1055.4</ele>
        <time>2026-07-08T09:48:34Z</time>
      </trkpt>
      <trkpt lat="43.00218" lon="0.3253">
        <ele>1055.4</ele>
        <time>2026-07-08T09:48:34Z</time>
      </trkpt>
      <trkpt lat="43.0022" lon="0.32529">
        <ele>1055.4</ele>
        <time>2026-07-08T09:48:35Z</time>
      </trkpt>
      <trkpt lat="43.0022" lon="0.32529">
        <ele>1055.4</ele>
        <time>2026-07-08T09:48:35Z</time>
      </trkpt>
      <trkpt lat="43.00221" lon="0.32529">
        <ele>1055.4</ele>
        <time>2026-07-08T09:48:36Z</time>
      </trkpt>
      <trkpt lat="43.00222" lon="0.32528">
        <ele>1054.4</ele>
        <time>2026-07-08T09:48:36Z</time>
      </trkpt>
      <trkpt lat="43.00222" lon="0.32529">
        <ele>1054.4</ele>
        <time>2026-07-08T09:48:37Z</time>
      </trkpt>
      <trkpt lat="43.00223" lon="0.32529">
        <ele>1053.4</ele>
        <time>2026-07-08T09:48:37Z</time>
      </trkpt>
      <trkpt lat="43.00224" lon="0.32529">
        <ele>1053.4</ele>
        <time>2026-07-08T09:48:38Z</time>
      </trkpt>
      <trkpt lat="43.00224" lon="0.32529">
        <ele>1053.4</ele>
        <time>2026-07-08T09:48:38Z</time>
      </trkpt>
      <trkpt lat="43.00225" lon="0.32529">
        <ele>1053.4</ele>
        <time>2026-07-08T09:48:39Z</time>
      </trkpt>
      <trkpt lat="43.00225" lon="0.32528">
        <ele>1052.4</ele>
        <time>2026-07-08T09:48:39Z</time>
      </trkpt>
      <trkpt lat="43.00226" lon="0.32528">
        <ele>1052.4</ele>
        <time>2026-07-08T09:48:40Z</time>
      </trkpt>
      <trkpt lat="43.00227" lon="0.32528">
        <ele>1052.4</ele>
        <time>2026-07-08T09:48:41Z</time>
      </trkpt>
      <trkpt lat="43.00227" lon="0.32527">
        <ele>1051.4</ele>
        <time>2026-07-08T09:48:41Z</time>
      </trkpt>
      <trkpt lat="43.00227" lon="0.32527">
        <ele>1051.4</ele>
        <time>2026-07-08T09:48:42Z</time>
      </trkpt>
      <trkpt lat="43.00228" lon="0.32526">
        <ele>1051.4</ele>
        <time>2026-07-08T09:48:42Z</time>
      </trkpt>
      <trkpt lat="43.00228" lon="0.32526">
        <ele>1051.4</ele>
        <time>2026-07-08T09:48:43Z</time>
      </trkpt>
      <trkpt lat="43.0023" lon="0.32527">
        <ele>1051.4</ele>
        <time>2026-07-08T09:48:44Z</time>
      </trkpt>
      <trkpt lat="43.00229" lon="0.32525">
        <ele>1050.4</ele>
        <time>2026-07-08T09:48:44Z</time>
      </trkpt>
      <trkpt lat="43.0023" lon="0.32525">
        <ele>1050.4</ele>
        <time>2026-07-08T09:48:45Z</time>
      </trkpt>
      <trkpt lat="43.00229" lon="0.32522">
        <ele>1049.4</ele>
        <time>2026-07-08T09:48:45Z</time>
      </trkpt>
      <trkpt lat="43.00229" lon="0.3252">
        <ele>1049.4</ele>
        <time>2026-07-08T09:48:46Z</time>
      </trkpt>
      <trkpt lat="43.00229" lon="0.32517">
        <ele>1048.4</ele>
        <time>2026-07-08T09:48:47Z</time>
      </trkpt>
      <trkpt lat="43.00226" lon="0.3251">
        <ele>1048.4</ele>
        <time>2026-07-08T09:48:47Z</time>
      </trkpt>
      <trkpt lat="43.00225" lon="0.32507">
        <ele>1048.4</ele>
        <time>2026-07-08T09:48:48Z</time>
      </trkpt>
      <trkpt lat="43.00224" lon="0.32504">
        <ele>1048.4</ele>
        <time>2026-07-08T09:48:49Z</time>
      </trkpt>
      <trkpt lat="43.00224" lon="0.32503">
        <ele>1048.4</ele>
        <time>2026-07-08T09:48:49Z</time>
      </trkpt>
      <trkpt lat="43.00223" lon="0.325">
        <ele>1048.4</ele>
        <time>2026-07-08T09:48:50Z</time>
      </trkpt>
      <trkpt lat="43.00221" lon="0.32496">
        <ele>1047.4</ele>
        <time>2026-07-08T09:48:50Z</time>
      </trkpt>
      <trkpt lat="43.00221" lon="0.32494">
        <ele>1047.4</ele>
        <time>2026-07-08T09:48:51Z</time>
      </trkpt>
      <trkpt lat="43.00219" lon="0.32492">
        <ele>1046.4</ele>
        <time>2026-07-08T09:48:51Z</time>
      </trkpt>
      <trkpt lat="43.00219" lon="0.32491">
        <ele>1046.4</ele>
        <time>2026-07-08T09:48:52Z</time>
      </trkpt>
      <trkpt lat="43.00219" lon="0.3249">
        <ele>1046.4</ele>
        <time>2026-07-08T09:48:52Z</time>
      </trkpt>
      <trkpt lat="43.00219" lon="0.3249">
        <ele>1045.4</ele>
        <time>2026-07-08T09:48:53Z</time>
      </trkpt>
      <trkpt lat="43.00219" lon="0.32489">
        <ele>1045.4</ele>
        <time>2026-07-08T09:48:54Z</time>
      </trkpt>
      <trkpt lat="43.0022" lon="0.32489">
        <ele>1044.4</ele>
        <time>2026-07-08T09:48:54Z</time>
      </trkpt>
      <trkpt lat="43.00221" lon="0.32488">
        <ele>1044.4</ele>
        <time>2026-07-08T09:48:55Z</time>
      </trkpt>
      <trkpt lat="43.00221" lon="0.32487">
        <ele>1044.4</ele>
        <time>2026-07-08T09:48:55Z</time>
      </trkpt>
      <trkpt lat="43.00222" lon="0.32487">
        <ele>1044.4</ele>
        <time>2026-07-08T09:48:56Z</time>
      </trkpt>
      <trkpt lat="43.00223" lon="0.32486">
        <ele>1044.4</ele>
        <time>2026-07-08T09:48:57Z</time>
      </trkpt>
      <trkpt lat="43.00223" lon="0.32487">
        <ele>1043.4</ele>
        <time>2026-07-08T09:48:57Z</time>
      </trkpt>
      <trkpt lat="43.00224" lon="0.32486">
        <ele>1043.4</ele>
        <time>2026-07-08T09:48:58Z</time>
      </trkpt>
      <trkpt lat="43.00224" lon="0.32486">
        <ele>1043.4</ele>
        <time>2026-07-08T09:48:58Z</time>
      </trkpt>
      <trkpt lat="43.00225" lon="0.32486">
        <ele>1042.4</ele>
        <time>2026-07-08T09:48:59Z</time>
      </trkpt>
      <trkpt lat="43.00225" lon="0.32486">
        <ele>1042.4</ele>
        <time>2026-07-08T09:49:00Z</time>
      </trkpt>
      <trkpt lat="43.00225" lon="0.32485">
        <ele>1042.4</ele>
        <time>2026-07-08T09:49:01Z</time>
      </trkpt>
      <trkpt lat="43.00226" lon="0.32484">
        <ele>1042.4</ele>
        <time>2026-07-08T09:49:02Z</time>
      </trkpt>
      <trkpt lat="43.00226" lon="0.32484">
        <ele>1041.4</ele>
        <time>2026-07-08T09:49:02Z</time>
      </trkpt>
      <trkpt lat="43.00226" lon="0.32483">
        <ele>1041.4</ele>
        <time>2026-07-08T09:49:03Z</time>
      </trkpt>
      <trkpt lat="43.00226" lon="0.32483">
        <ele>1041.4</ele>
        <time>2026-07-08T09:49:03Z</time>
      </trkpt>
      <trkpt lat="43.00226" lon="0.32482">
        <ele>1041.4</ele>
        <time>2026-07-08T09:49:04Z</time>
      </trkpt>
      <trkpt lat="43.00226" lon="0.32482">
        <ele>1040.4</ele>
        <time>2026-07-08T09:49:04Z</time>
      </trkpt>
      <trkpt lat="43.00226" lon="0.32481">
        <ele>1040.4</ele>
        <time>2026-07-08T09:49:05Z</time>
      </trkpt>
      <trkpt lat="43.00226" lon="0.32481">
        <ele>1040.4</ele>
        <time>2026-07-08T09:49:05Z</time>
      </trkpt>
      <trkpt lat="43.00227" lon="0.32481">
        <ele>1039.4</ele>
        <time>2026-07-08T09:49:06Z</time>
      </trkpt>
      <trkpt lat="43.00228" lon="0.3248">
        <ele>1039.4</ele>
        <time>2026-07-08T09:49:07Z</time>
      </trkpt>
      <trkpt lat="43.00228" lon="0.3248">
        <ele>1039.4</ele>
        <time>2026-07-08T09:49:07Z</time>
      </trkpt>
      <trkpt lat="43.00228" lon="0.3248">
        <ele>1039.4</ele>
        <time>2026-07-08T09:49:08Z</time>
      </trkpt>
      <trkpt lat="43.00229" lon="0.32479">
        <ele>1039.4</ele>
        <time>2026-07-08T09:49:08Z</time>
      </trkpt>
      <trkpt lat="43.00229" lon="0.32478">
        <ele>1039.4</ele>
        <time>2026-07-08T09:49:09Z</time>
      </trkpt>
      <trkpt lat="43.00229" lon="0.32478">
        <ele>1039.4</ele>
        <time>2026-07-08T09:49:10Z</time>
      </trkpt>
      <trkpt lat="43.00229" lon="0.32478">
        <ele>1039.4</ele>
        <time>2026-07-08T09:49:10Z</time>
      </trkpt>
      <trkpt lat="43.0023" lon="0.32477">
        <ele>1039.4</ele>
        <time>2026-07-08T09:49:11Z</time>
      </trkpt>
      <trkpt lat="43.0023" lon="0.32476">
        <ele>1039.4</ele>
        <time>2026-07-08T09:49:11Z</time>
      </trkpt>
      <trkpt lat="43.0023" lon="0.32475">
        <ele>1039.4</ele>
        <time>2026-07-08T09:49:12Z</time>
      </trkpt>
      <trkpt lat="43.0023" lon="0.32473">
        <ele>1039.4</ele>
        <time>2026-07-08T09:49:13Z</time>
      </trkpt>
      <trkpt lat="43.0023" lon="0.32473">
        <ele>1038.4</ele>
        <time>2026-07-08T09:49:13Z</time>
      </trkpt>
      <trkpt lat="43.0023" lon="0.32473">
        <ele>1038.4</ele>
        <time>2026-07-08T09:49:14Z</time>
      </trkpt>
      <trkpt lat="43.00231" lon="0.32472">
        <ele>1038.4</ele>
        <time>2026-07-08T09:49:15Z</time>
      </trkpt>
      <trkpt lat="43.00231" lon="0.32473">
        <ele>1037.4</ele>
        <time>2026-07-08T09:49:15Z</time>
      </trkpt>
      <trkpt lat="43.00232" lon="0.32473">
        <ele>1037.4</ele>
        <time>2026-07-08T09:49:16Z</time>
      </trkpt>
      <trkpt lat="43.00232" lon="0.32472">
        <ele>1037.4</ele>
        <time>2026-07-08T09:49:17Z</time>
      </trkpt>
      <trkpt lat="43.00233" lon="0.32472">
        <ele>1037.4</ele>
        <time>2026-07-08T09:49:17Z</time>
      </trkpt>
      <trkpt lat="43.00233" lon="0.32472">
        <ele>1037.4</ele>
        <time>2026-07-08T09:49:18Z</time>
      </trkpt>
      <trkpt lat="43.00234" lon="0.32472">
        <ele>1036.4</ele>
        <time>2026-07-08T09:49:19Z</time>
      </trkpt>
      <trkpt lat="43.00234" lon="0.32472">
        <ele>1036.4</ele>
        <time>2026-07-08T09:49:19Z</time>
      </trkpt>
      <trkpt lat="43.00235" lon="0.32472">
        <ele>1036.4</ele>
        <time>2026-07-08T09:49:20Z</time>
      </trkpt>
      <trkpt lat="43.00236" lon="0.32472">
        <ele>1035.4</ele>
        <time>2026-07-08T09:49:20Z</time>
      </trkpt>
      <trkpt lat="43.00236" lon="0.32471">
        <ele>1035.4</ele>
        <time>2026-07-08T09:49:21Z</time>
      </trkpt>
      <trkpt lat="43.00238" lon="0.32471">
        <ele>1035.4</ele>
        <time>2026-07-08T09:49:22Z</time>
      </trkpt>
      <trkpt lat="43.00238" lon="0.32471">
        <ele>1035.4</ele>
        <time>2026-07-08T09:49:22Z</time>
      </trkpt>
      <trkpt lat="43.00239" lon="0.32471">
        <ele>1035.4</ele>
        <time>2026-07-08T09:49:23Z</time>
      </trkpt>
      <trkpt lat="43.0024" lon="0.32471">
        <ele>1035.4</ele>
        <time>2026-07-08T09:49:24Z</time>
      </trkpt>
      <trkpt lat="43.0024" lon="0.32472">
        <ele>1035.4</ele>
        <time>2026-07-08T09:49:24Z</time>
      </trkpt>
      <trkpt lat="43.00241" lon="0.32472">
        <ele>1035.4</ele>
        <time>2026-07-08T09:49:25Z</time>
      </trkpt>
      <trkpt lat="43.00241" lon="0.32472">
        <ele>1034.4</ele>
        <time>2026-07-08T09:49:25Z</time>
      </trkpt>
      <trkpt lat="43.00242" lon="0.32472">
        <ele>1034.4</ele>
        <time>2026-07-08T09:49:26Z</time>
      </trkpt>
      <trkpt lat="43.00242" lon="0.32472">
        <ele>1035.4</ele>
        <time>2026-07-08T09:49:26Z</time>
      </trkpt>
      <trkpt lat="43.00243" lon="0.32472">
        <ele>1034.4</ele>
        <time>2026-07-08T09:49:27Z</time>
      </trkpt>
      <trkpt lat="43.00244" lon="0.32471">
        <ele>1034.4</ele>
        <time>2026-07-08T09:49:28Z</time>
      </trkpt>
      <trkpt lat="43.00244" lon="0.32471">
        <ele>1034.4</ele>
        <time>2026-07-08T09:49:28Z</time>
      </trkpt>
      <trkpt lat="43.00245" lon="0.32471">
        <ele>1034.4</ele>
        <time>2026-07-08T09:49:29Z</time>
      </trkpt>
      <trkpt lat="43.00245" lon="0.32471">
        <ele>1034.4</ele>
        <time>2026-07-08T09:49:29Z</time>
      </trkpt>
      <trkpt lat="43.00246" lon="0.32471">
        <ele>1034.4</ele>
        <time>2026-07-08T09:49:30Z</time>
      </trkpt>
      <trkpt lat="43.00246" lon="0.32471">
        <ele>1034.4</ele>
        <time>2026-07-08T09:49:30Z</time>
      </trkpt>
      <trkpt lat="43.00247" lon="0.3247">
        <ele>1034.4</ele>
        <time>2026-07-08T09:49:31Z</time>
      </trkpt>
      <trkpt lat="43.00247" lon="0.3247">
        <ele>1034.4</ele>
        <time>2026-07-08T09:49:31Z</time>
      </trkpt>
      <trkpt lat="43.00248" lon="0.32469">
        <ele>1034.4</ele>
        <time>2026-07-08T09:49:32Z</time>
      </trkpt>
      <trkpt lat="43.00249" lon="0.32468">
        <ele>1034.4</ele>
        <time>2026-07-08T09:49:33Z</time>
      </trkpt>
      <trkpt lat="43.00249" lon="0.32467">
        <ele>1034.4</ele>
        <time>2026-07-08T09:49:33Z</time>
      </trkpt>
      <trkpt lat="43.0025" lon="0.32467">
        <ele>1034.4</ele>
        <time>2026-07-08T09:49:34Z</time>
      </trkpt>
      <trkpt lat="43.0025" lon="0.32466">
        <ele>1034.4</ele>
        <time>2026-07-08T09:49:34Z</time>
      </trkpt>
      <trkpt lat="43.00251" lon="0.32465">
        <ele>1034.4</ele>
        <time>2026-07-08T09:49:35Z</time>
      </trkpt>
      <trkpt lat="43.00251" lon="0.32464">
        <ele>1034.4</ele>
        <time>2026-07-08T09:49:35Z</time>
      </trkpt>
      <trkpt lat="43.00251" lon="0.32464">
        <ele>1034.4</ele>
        <time>2026-07-08T09:49:36Z</time>
      </trkpt>
      <trkpt lat="43.00252" lon="0.32463">
        <ele>1034.4</ele>
        <time>2026-07-08T09:49:37Z</time>
      </trkpt>
      <trkpt lat="43.00252" lon="0.32462">
        <ele>1034.4</ele>
        <time>2026-07-08T09:49:37Z</time>
      </trkpt>
      <trkpt lat="43.00253" lon="0.32461">
        <ele>1033.4</ele>
        <time>2026-07-08T09:49:38Z</time>
      </trkpt>
      <trkpt lat="43.00254" lon="0.3246">
        <ele>1033.4</ele>
        <time>2026-07-08T09:49:39Z</time>
      </trkpt>
      <trkpt lat="43.00254" lon="0.32459">
        <ele>1033.4</ele>
        <time>2026-07-08T09:49:39Z</time>
      </trkpt>
      <trkpt lat="43.00255" lon="0.32458">
        <ele>1033.4</ele>
        <time>2026-07-08T09:49:40Z</time>
      </trkpt>
      <trkpt lat="43.00255" lon="0.32458">
        <ele>1032.4</ele>
        <time>2026-07-08T09:49:40Z</time>
      </trkpt>
      <trkpt lat="43.00255" lon="0.32457">
        <ele>1033.4</ele>
        <time>2026-07-08T09:49:41Z</time>
      </trkpt>
      <trkpt lat="43.00256" lon="0.32456">
        <ele>1033.4</ele>
        <time>2026-07-08T09:49:42Z</time>
      </trkpt>
      <trkpt lat="43.00257" lon="0.32454">
        <ele>1032.4</ele>
        <time>2026-07-08T09:49:43Z</time>
      </trkpt>
      <trkpt lat="43.00257" lon="0.32452">
        <ele>1032.4</ele>
        <time>2026-07-08T09:49:44Z</time>
      </trkpt>
      <trkpt lat="43.00257" lon="0.32449">
        <ele>1032.4</ele>
        <time>2026-07-08T09:49:45Z</time>
      </trkpt>
      <trkpt lat="43.00257" lon="0.32448">
        <ele>1031.4</ele>
        <time>2026-07-08T09:49:45Z</time>
      </trkpt>
      <trkpt lat="43.00257" lon="0.32447">
        <ele>1031.4</ele>
        <time>2026-07-08T09:49:46Z</time>
      </trkpt>
      <trkpt lat="43.00257" lon="0.32446">
        <ele>1031.4</ele>
        <time>2026-07-08T09:49:46Z</time>
      </trkpt>
      <trkpt lat="43.00257" lon="0.32445">
        <ele>1031.4</ele>
        <time>2026-07-08T09:49:47Z</time>
      </trkpt>
      <trkpt lat="43.00257" lon="0.32443">
        <ele>1030.4</ele>
        <time>2026-07-08T09:49:48Z</time>
      </trkpt>
      <trkpt lat="43.00257" lon="0.32442">
        <ele>1030.4</ele>
        <time>2026-07-08T09:49:49Z</time>
      </trkpt>
      <trkpt lat="43.00257" lon="0.32441">
        <ele>1031.4</ele>
        <time>2026-07-08T09:49:49Z</time>
      </trkpt>
      <trkpt lat="43.00257" lon="0.3244">
        <ele>1031.4</ele>
        <time>2026-07-08T09:49:50Z</time>
      </trkpt>
      <trkpt lat="43.00257" lon="0.32438">
        <ele>1030.4</ele>
        <time>2026-07-08T09:49:50Z</time>
      </trkpt>
      <trkpt lat="43.00257" lon="0.32437">
        <ele>1030.4</ele>
        <time>2026-07-08T09:49:51Z</time>
      </trkpt>
      <trkpt lat="43.00257" lon="0.32435">
        <ele>1030.4</ele>
        <time>2026-07-08T09:49:52Z</time>
      </trkpt>
      <trkpt lat="43.00257" lon="0.32434">
        <ele>1030.4</ele>
        <time>2026-07-08T09:49:52Z</time>
      </trkpt>
      <trkpt lat="43.00257" lon="0.32433">
        <ele>1030.4</ele>
        <time>2026-07-08T09:49:53Z</time>
      </trkpt>
      <trkpt lat="43.00256" lon="0.32432">
        <ele>1030.4</ele>
        <time>2026-07-08T09:49:54Z</time>
      </trkpt>
      <trkpt lat="43.00256" lon="0.32431">
        <ele>1030.4</ele>
        <time>2026-07-08T09:49:54Z</time>
      </trkpt>
      <trkpt lat="43.00256" lon="0.3243">
        <ele>1030.4</ele>
        <time>2026-07-08T09:49:55Z</time>
      </trkpt>
      <trkpt lat="43.00256" lon="0.32428">
        <ele>1031.4</ele>
        <time>2026-07-08T09:49:56Z</time>
      </trkpt>
      <trkpt lat="43.00256" lon="0.32426">
        <ele>1030.4</ele>
        <time>2026-07-08T09:49:57Z</time>
      </trkpt>
      <trkpt lat="43.00255" lon="0.32425">
        <ele>1031.4</ele>
        <time>2026-07-08T09:49:57Z</time>
      </trkpt>
      <trkpt lat="43.00255" lon="0.32424">
        <ele>1031.4</ele>
        <time>2026-07-08T09:49:58Z</time>
      </trkpt>
      <trkpt lat="43.00255" lon="0.32422">
        <ele>1030.4</ele>
        <time>2026-07-08T09:49:59Z</time>
      </trkpt>
      <trkpt lat="43.00254" lon="0.32421">
        <ele>1029.4</ele>
        <time>2026-07-08T09:50:00Z</time>
      </trkpt>
      <trkpt lat="43.00254" lon="0.3242">
        <ele>1028.4</ele>
        <time>2026-07-08T09:50:00Z</time>
      </trkpt>
      <trkpt lat="43.00254" lon="0.32419">
        <ele>1028.4</ele>
        <time>2026-07-08T09:50:01Z</time>
      </trkpt>
      <trkpt lat="43.00254" lon="0.32417">
        <ele>1028.4</ele>
        <time>2026-07-08T09:50:02Z</time>
      </trkpt>
      <trkpt lat="43.00254" lon="0.32417">
        <ele>1028.4</ele>
        <time>2026-07-08T09:50:02Z</time>
      </trkpt>
      <trkpt lat="43.00254" lon="0.32416">
        <ele>1028.4</ele>
        <time>2026-07-08T09:50:03Z</time>
      </trkpt>
      <trkpt lat="43.00254" lon="0.32414">
        <ele>1028.4</ele>
        <time>2026-07-08T09:50:04Z</time>
      </trkpt>
      <trkpt lat="43.00254" lon="0.32414">
        <ele>1028.4</ele>
        <time>2026-07-08T09:50:05Z</time>
      </trkpt>
      <trkpt lat="43.00254" lon="0.32413">
        <ele>1027.4</ele>
        <time>2026-07-08T09:50:05Z</time>
      </trkpt>
      <trkpt lat="43.00254" lon="0.32412">
        <ele>1027.4</ele>
        <time>2026-07-08T09:50:06Z</time>
      </trkpt>
      <trkpt lat="43.00254" lon="0.32412">
        <ele>1027.4</ele>
        <time>2026-07-08T09:50:06Z</time>
      </trkpt>
      <trkpt lat="43.00254" lon="0.32411">
        <ele>1027.4</ele>
        <time>2026-07-08T09:50:07Z</time>
      </trkpt>
      <trkpt lat="43.00255" lon="0.3241">
        <ele>1027.4</ele>
        <time>2026-07-08T09:50:07Z</time>
      </trkpt>
      <trkpt lat="43.00255" lon="0.32409">
        <ele>1027.4</ele>
        <time>2026-07-08T09:50:08Z</time>
      </trkpt>
      <trkpt lat="43.00256" lon="0.32409">
        <ele>1027.4</ele>
        <time>2026-07-08T09:50:08Z</time>
      </trkpt>
      <trkpt lat="43.00256" lon="0.32408">
        <ele>1027.4</ele>
        <time>2026-07-08T09:50:09Z</time>
      </trkpt>
      <trkpt lat="43.00256" lon="0.32407">
        <ele>1027.4</ele>
        <time>2026-07-08T09:50:09Z</time>
      </trkpt>
      <trkpt lat="43.00257" lon="0.32407">
        <ele>1027.4</ele>
        <time>2026-07-08T09:50:10Z</time>
      </trkpt>
      <trkpt lat="43.00258" lon="0.32406">
        <ele>1026.4</ele>
        <time>2026-07-08T09:50:10Z</time>
      </trkpt>
      <trkpt lat="43.00258" lon="0.32405">
        <ele>1026.4</ele>
        <time>2026-07-08T09:50:11Z</time>
      </trkpt>
      <trkpt lat="43.00258" lon="0.32405">
        <ele>1026.4</ele>
        <time>2026-07-08T09:50:12Z</time>
      </trkpt>
      <trkpt lat="43.00259" lon="0.32404">
        <ele>1025.4</ele>
        <time>2026-07-08T09:50:12Z</time>
      </trkpt>
      <trkpt lat="43.00259" lon="0.32403">
        <ele>1025.4</ele>
        <time>2026-07-08T09:50:13Z</time>
      </trkpt>
      <trkpt lat="43.00259" lon="0.32402">
        <ele>1025.4</ele>
        <time>2026-07-08T09:50:13Z</time>
      </trkpt>
      <trkpt lat="43.0026" lon="0.32401">
        <ele>1025.4</ele>
        <time>2026-07-08T09:50:14Z</time>
      </trkpt>
      <trkpt lat="43.0026" lon="0.324">
        <ele>1025.4</ele>
        <time>2026-07-08T09:50:15Z</time>
      </trkpt>
      <trkpt lat="43.00261" lon="0.32399">
        <ele>1025.4</ele>
        <time>2026-07-08T09:50:15Z</time>
      </trkpt>
      <trkpt lat="43.00261" lon="0.32398">
        <ele>1024.4</ele>
        <time>2026-07-08T09:50:16Z</time>
      </trkpt>
      <trkpt lat="43.00261" lon="0.32397">
        <ele>1024.4</ele>
        <time>2026-07-08T09:50:16Z</time>
      </trkpt>
      <trkpt lat="43.00261" lon="0.32396">
        <ele>1024.4</ele>
        <time>2026-07-08T09:50:17Z</time>
      </trkpt>
      <trkpt lat="43.00261" lon="0.32395">
        <ele>1024.4</ele>
        <time>2026-07-08T09:50:18Z</time>
      </trkpt>
      <trkpt lat="43.00261" lon="0.32394">
        <ele>1024.4</ele>
        <time>2026-07-08T09:50:18Z</time>
      </trkpt>
      <trkpt lat="43.00262" lon="0.32394">
        <ele>1024.4</ele>
        <time>2026-07-08T09:50:19Z</time>
      </trkpt>
      <trkpt lat="43.00262" lon="0.32393">
        <ele>1023.4</ele>
        <time>2026-07-08T09:50:20Z</time>
      </trkpt>
      <trkpt lat="43.00262" lon="0.32392">
        <ele>1023.4</ele>
        <time>2026-07-08T09:50:20Z</time>
      </trkpt>
      <trkpt lat="43.00262" lon="0.32391">
        <ele>1023.4</ele>
        <time>2026-07-08T09:50:21Z</time>
      </trkpt>
      <trkpt lat="43.00263" lon="0.3239">
        <ele>1022.4</ele>
        <time>2026-07-08T09:50:22Z</time>
      </trkpt>
      <trkpt lat="43.00263" lon="0.32389">
        <ele>1022.4</ele>
        <time>2026-07-08T09:50:23Z</time>
      </trkpt>
      <trkpt lat="43.00263" lon="0.32388">
        <ele>1021.4</ele>
        <time>2026-07-08T09:50:24Z</time>
      </trkpt>
      <trkpt lat="43.00263" lon="0.32387">
        <ele>1021.4</ele>
        <time>2026-07-08T09:50:25Z</time>
      </trkpt>
      <trkpt lat="43.00264" lon="0.32386">
        <ele>1021.4</ele>
        <time>2026-07-08T09:50:25Z</time>
      </trkpt>
      <trkpt lat="43.00264" lon="0.32386">
        <ele>1021.4</ele>
        <time>2026-07-08T09:50:26Z</time>
      </trkpt>
      <trkpt lat="43.00265" lon="0.32385">
        <ele>1021.4</ele>
        <time>2026-07-08T09:50:26Z</time>
      </trkpt>
      <trkpt lat="43.00265" lon="0.32385">
        <ele>1021.4</ele>
        <time>2026-07-08T09:50:27Z</time>
      </trkpt>
      <trkpt lat="43.00266" lon="0.32384">
        <ele>1020.4</ele>
        <time>2026-07-08T09:50:27Z</time>
      </trkpt>
      <trkpt lat="43.00266" lon="0.32383">
        <ele>1020.4</ele>
        <time>2026-07-08T09:50:28Z</time>
      </trkpt>
      <trkpt lat="43.00266" lon="0.32382">
        <ele>1020.4</ele>
        <time>2026-07-08T09:50:29Z</time>
      </trkpt>
      <trkpt lat="43.00266" lon="0.32382">
        <ele>1020.4</ele>
        <time>2026-07-08T09:50:29Z</time>
      </trkpt>
      <trkpt lat="43.00266" lon="0.32381">
        <ele>1020.4</ele>
        <time>2026-07-08T09:50:30Z</time>
      </trkpt>
      <trkpt lat="43.00266" lon="0.3238">
        <ele>1020.4</ele>
        <time>2026-07-08T09:50:31Z</time>
      </trkpt>
      <trkpt lat="43.00266" lon="0.32379">
        <ele>1020.4</ele>
        <time>2026-07-08T09:50:31Z</time>
      </trkpt>
      <trkpt lat="43.00266" lon="0.32378">
        <ele>1020.4</ele>
        <time>2026-07-08T09:50:32Z</time>
      </trkpt>
      <trkpt lat="43.00267" lon="0.32377">
        <ele>1020.4</ele>
        <time>2026-07-08T09:50:32Z</time>
      </trkpt>
      <trkpt lat="43.00267" lon="0.32377">
        <ele>1020.4</ele>
        <time>2026-07-08T09:50:33Z</time>
      </trkpt>
      <trkpt lat="43.00268" lon="0.32376">
        <ele>1020.4</ele>
        <time>2026-07-08T09:50:34Z</time>
      </trkpt>
      <trkpt lat="43.00269" lon="0.32376">
        <ele>1019.4</ele>
        <time>2026-07-08T09:50:35Z</time>
      </trkpt>
      <trkpt lat="43.0027" lon="0.32376">
        <ele>1019.4</ele>
        <time>2026-07-08T09:50:36Z</time>
      </trkpt>
      <trkpt lat="43.00271" lon="0.32375">
        <ele>1019.4</ele>
        <time>2026-07-08T09:50:36Z</time>
      </trkpt>
      <trkpt lat="43.00271" lon="0.32374">
        <ele>1019.4</ele>
        <time>2026-07-08T09:50:37Z</time>
      </trkpt>
      <trkpt lat="43.00272" lon="0.32373">
        <ele>1018.4</ele>
        <time>2026-07-08T09:50:38Z</time>
      </trkpt>
      <trkpt lat="43.00272" lon="0.32372">
        <ele>1018.4</ele>
        <time>2026-07-08T09:50:38Z</time>
      </trkpt>
      <trkpt lat="43.00273" lon="0.32372">
        <ele>1018.4</ele>
        <time>2026-07-08T09:50:39Z</time>
      </trkpt>
      <trkpt lat="43.00273" lon="0.32371">
        <ele>1018.4</ele>
        <time>2026-07-08T09:50:40Z</time>
      </trkpt>
      <trkpt lat="43.00274" lon="0.3237">
        <ele>1017.4</ele>
        <time>2026-07-08T09:50:40Z</time>
      </trkpt>
      <trkpt lat="43.00274" lon="0.3237">
        <ele>1017.4</ele>
        <time>2026-07-08T09:50:40Z</time>
      </trkpt>
      <trkpt lat="43.00275" lon="0.32369">
        <ele>1017.4</ele>
        <time>2026-07-08T09:50:41Z</time>
      </trkpt>
      <trkpt lat="43.00275" lon="0.32369">
        <ele>1017.4</ele>
        <time>2026-07-08T09:50:42Z</time>
      </trkpt>
      <trkpt lat="43.00276" lon="0.32368">
        <ele>1017.4</ele>
        <time>2026-07-08T09:50:42Z</time>
      </trkpt>
      <trkpt lat="43.00277" lon="0.32367">
        <ele>1016.4</ele>
        <time>2026-07-08T09:50:43Z</time>
      </trkpt>
      <trkpt lat="43.00278" lon="0.32367">
        <ele>1016.4</ele>
        <time>2026-07-08T09:50:44Z</time>
      </trkpt>
      <trkpt lat="43.00278" lon="0.32366">
        <ele>1016.4</ele>
        <time>2026-07-08T09:50:44Z</time>
      </trkpt>
      <trkpt lat="43.00279" lon="0.32365">
        <ele>1016.4</ele>
        <time>2026-07-08T09:50:45Z</time>
      </trkpt>
      <trkpt lat="43.00279" lon="0.32365">
        <ele>1016.4</ele>
        <time>2026-07-08T09:50:46Z</time>
      </trkpt>
      <trkpt lat="43.0028" lon="0.32364">
        <ele>1016.4</ele>
        <time>2026-07-08T09:50:46Z</time>
      </trkpt>
      <trkpt lat="43.0028" lon="0.32363">
        <ele>1016.4</ele>
        <time>2026-07-08T09:50:47Z</time>
      </trkpt>
      <trkpt lat="43.0028" lon="0.32362">
        <ele>1016.4</ele>
        <time>2026-07-08T09:50:47Z</time>
      </trkpt>
      <trkpt lat="43.00281" lon="0.32361">
        <ele>1016.4</ele>
        <time>2026-07-08T09:50:48Z</time>
      </trkpt>
      <trkpt lat="43.00281" lon="0.32361">
        <ele>1016.4</ele>
        <time>2026-07-08T09:50:48Z</time>
      </trkpt>
      <trkpt lat="43.00281" lon="0.3236">
        <ele>1016.4</ele>
        <time>2026-07-08T09:50:49Z</time>
      </trkpt>
      <trkpt lat="43.00281" lon="0.32359">
        <ele>1016.4</ele>
        <time>2026-07-08T09:50:49Z</time>
      </trkpt>
      <trkpt lat="43.00281" lon="0.32359">
        <ele>1016.4</ele>
        <time>2026-07-08T09:50:50Z</time>
      </trkpt>
      <trkpt lat="43.00281" lon="0.32358">
        <ele>1016.4</ele>
        <time>2026-07-08T09:50:50Z</time>
      </trkpt>
      <trkpt lat="43.00282" lon="0.32357">
        <ele>1016.4</ele>
        <time>2026-07-08T09:50:51Z</time>
      </trkpt>
      <trkpt lat="43.00282" lon="0.32356">
        <ele>1016.4</ele>
        <time>2026-07-08T09:50:51Z</time>
      </trkpt>
      <trkpt lat="43.00282" lon="0.32356">
        <ele>1016.4</ele>
        <time>2026-07-08T09:50:52Z</time>
      </trkpt>
      <trkpt lat="43.00283" lon="0.32355">
        <ele>1016.4</ele>
        <time>2026-07-08T09:50:52Z</time>
      </trkpt>
      <trkpt lat="43.00283" lon="0.32355">
        <ele>1016.4</ele>
        <time>2026-07-08T09:50:53Z</time>
      </trkpt>
      <trkpt lat="43.00283" lon="0.32355">
        <ele>1016.4</ele>
        <time>2026-07-08T09:50:53Z</time>
      </trkpt>
      <trkpt lat="43.00284" lon="0.32354">
        <ele>1015.4</ele>
        <time>2026-07-08T09:50:54Z</time>
      </trkpt>
      <trkpt lat="43.00284" lon="0.32353">
        <ele>1015.4</ele>
        <time>2026-07-08T09:50:55Z</time>
      </trkpt>
      <trkpt lat="43.00285" lon="0.32353">
        <ele>1015.4</ele>
        <time>2026-07-08T09:50:55Z</time>
      </trkpt>
      <trkpt lat="43.00285" lon="0.32352">
        <ele>1015.4</ele>
        <time>2026-07-08T09:50:56Z</time>
      </trkpt>
      <trkpt lat="43.00285" lon="0.32352">
        <ele>1016.4</ele>
        <time>2026-07-08T09:50:56Z</time>
      </trkpt>
      <trkpt lat="43.00285" lon="0.32351">
        <ele>1016.4</ele>
        <time>2026-07-08T09:50:57Z</time>
      </trkpt>
      <trkpt lat="43.00286" lon="0.3235">
        <ele>1016.4</ele>
        <time>2026-07-08T09:50:58Z</time>
      </trkpt>
      <trkpt lat="43.00286" lon="0.32349">
        <ele>1015.4</ele>
        <time>2026-07-08T09:50:58Z</time>
      </trkpt>
      <trkpt lat="43.00286" lon="0.32348">
        <ele>1015.4</ele>
        <time>2026-07-08T09:50:59Z</time>
      </trkpt>
      <trkpt lat="43.00286" lon="0.32348">
        <ele>1015.4</ele>
        <time>2026-07-08T09:50:59Z</time>
      </trkpt>
      <trkpt lat="43.00286" lon="0.32347">
        <ele>1015.4</ele>
        <time>2026-07-08T09:51:00Z</time>
      </trkpt>
      <trkpt lat="43.00287" lon="0.32346">
        <ele>1015.4</ele>
        <time>2026-07-08T09:51:00Z</time>
      </trkpt>
      <trkpt lat="43.00287" lon="0.32345">
        <ele>1015.4</ele>
        <time>2026-07-08T09:51:01Z</time>
      </trkpt>
      <trkpt lat="43.00288" lon="0.32345">
        <ele>1015.4</ele>
        <time>2026-07-08T09:51:01Z</time>
      </trkpt>
      <trkpt lat="43.00288" lon="0.32344">
        <ele>1015.4</ele>
        <time>2026-07-08T09:51:02Z</time>
      </trkpt>
      <trkpt lat="43.00288" lon="0.32344">
        <ele>1015.4</ele>
        <time>2026-07-08T09:51:03Z</time>
      </trkpt>
      <trkpt lat="43.00288" lon="0.32343">
        <ele>1015.4</ele>
        <time>2026-07-08T09:51:03Z</time>
      </trkpt>
      <trkpt lat="43.00288" lon="0.32343">
        <ele>1015.4</ele>
        <time>2026-07-08T09:51:04Z</time>
      </trkpt>
      <trkpt lat="43.00289" lon="0.32342">
        <ele>1015.4</ele>
        <time>2026-07-08T09:51:05Z</time>
      </trkpt>
      <trkpt lat="43.00289" lon="0.32342">
        <ele>1015.4</ele>
        <time>2026-07-08T09:51:05Z</time>
      </trkpt>
      <trkpt lat="43.00289" lon="0.32341">
        <ele>1015.4</ele>
        <time>2026-07-08T09:51:06Z</time>
      </trkpt>
      <trkpt lat="43.00289" lon="0.32341">
        <ele>1015.4</ele>
        <time>2026-07-08T09:51:06Z</time>
      </trkpt>
      <trkpt lat="43.0029" lon="0.3234">
        <ele>1015.4</ele>
        <time>2026-07-08T09:51:07Z</time>
      </trkpt>
      <trkpt lat="43.0029" lon="0.32339">
        <ele>1015.4</ele>
        <time>2026-07-08T09:51:07Z</time>
      </trkpt>
      <trkpt lat="43.00291" lon="0.32338">
        <ele>1014.4</ele>
        <time>2026-07-08T09:51:08Z</time>
      </trkpt>
      <trkpt lat="43.00291" lon="0.32338">
        <ele>1014.4</ele>
        <time>2026-07-08T09:51:09Z</time>
      </trkpt>
      <trkpt lat="43.00291" lon="0.32337">
        <ele>1013.4</ele>
        <time>2026-07-08T09:51:09Z</time>
      </trkpt>
      <trkpt lat="43.00291" lon="0.32336">
        <ele>1013.4</ele>
        <time>2026-07-08T09:51:10Z</time>
      </trkpt>
      <trkpt lat="43.0029" lon="0.32335">
        <ele>1013.4</ele>
        <time>2026-07-08T09:51:10Z</time>
      </trkpt>
      <trkpt lat="43.00291" lon="0.32334">
        <ele>1013.4</ele>
        <time>2026-07-08T09:51:11Z</time>
      </trkpt>
      <trkpt lat="43.0029" lon="0.32334">
        <ele>1012.4</ele>
        <time>2026-07-08T09:51:11Z</time>
      </trkpt>
      <trkpt lat="43.0029" lon="0.32333">
        <ele>1012.4</ele>
        <time>2026-07-08T09:51:12Z</time>
      </trkpt>
      <trkpt lat="43.00289" lon="0.32332">
        <ele>1012.4</ele>
        <time>2026-07-08T09:51:12Z</time>
      </trkpt>
      <trkpt lat="43.00289" lon="0.32331">
        <ele>1012.4</ele>
        <time>2026-07-08T09:51:13Z</time>
      </trkpt>
      <trkpt lat="43.00289" lon="0.3233">
        <ele>1012.4</ele>
        <time>2026-07-08T09:51:13Z</time>
      </trkpt>
      <trkpt lat="43.00289" lon="0.32329">
        <ele>1012.4</ele>
        <time>2026-07-08T09:51:14Z</time>
      </trkpt>
      <trkpt lat="43.00288" lon="0.32328">
        <ele>1012.4</ele>
        <time>2026-07-08T09:51:15Z</time>
      </trkpt>
      <trkpt lat="43.00288" lon="0.32328">
        <ele>1012.4</ele>
        <time>2026-07-08T09:51:15Z</time>
      </trkpt>
      <trkpt lat="43.00288" lon="0.32327">
        <ele>1012.4</ele>
        <time>2026-07-08T09:51:16Z</time>
      </trkpt>
      <trkpt lat="43.00288" lon="0.32326">
        <ele>1011.4</ele>
        <time>2026-07-08T09:51:17Z</time>
      </trkpt>
      <trkpt lat="43.00288" lon="0.32325">
        <ele>1011.4</ele>
        <time>2026-07-08T09:51:17Z</time>
      </trkpt>
      <trkpt lat="43.00288" lon="0.32324">
        <ele>1011.4</ele>
        <time>2026-07-08T09:51:18Z</time>
      </trkpt>
      <trkpt lat="43.00288" lon="0.32324">
        <ele>1011.4</ele>
        <time>2026-07-08T09:51:18Z</time>
      </trkpt>
      <trkpt lat="43.00288" lon="0.32323">
        <ele>1011.4</ele>
        <time>2026-07-08T09:51:19Z</time>
      </trkpt>
      <trkpt lat="43.00288" lon="0.32322">
        <ele>1010.4</ele>
        <time>2026-07-08T09:51:20Z</time>
      </trkpt>
      <trkpt lat="43.00289" lon="0.32321">
        <ele>1010.4</ele>
        <time>2026-07-08T09:51:21Z</time>
      </trkpt>
      <trkpt lat="43.00289" lon="0.3232">
        <ele>1010.4</ele>
        <time>2026-07-08T09:51:21Z</time>
      </trkpt>
      <trkpt lat="43.0029" lon="0.3232">
        <ele>1009.4</ele>
        <time>2026-07-08T09:51:22Z</time>
      </trkpt>
      <trkpt lat="43.0029" lon="0.32319">
        <ele>1009.4</ele>
        <time>2026-07-08T09:51:23Z</time>
      </trkpt>
      <trkpt lat="43.0029" lon="0.32318">
        <ele>1009.4</ele>
        <time>2026-07-08T09:51:23Z</time>
      </trkpt>
      <trkpt lat="43.0029" lon="0.32318">
        <ele>1009.4</ele>
        <time>2026-07-08T09:51:24Z</time>
      </trkpt>
      <trkpt lat="43.0029" lon="0.32316">
        <ele>1009.4</ele>
        <time>2026-07-08T09:51:24Z</time>
      </trkpt>
      <trkpt lat="43.00291" lon="0.32315">
        <ele>1009.4</ele>
        <time>2026-07-08T09:51:25Z</time>
      </trkpt>
      <trkpt lat="43.00291" lon="0.32315">
        <ele>1008.4</ele>
        <time>2026-07-08T09:51:26Z</time>
      </trkpt>
      <trkpt lat="43.00291" lon="0.32315">
        <ele>1008.4</ele>
        <time>2026-07-08T09:51:26Z</time>
      </trkpt>
      <trkpt lat="43.00292" lon="0.32314">
        <ele>1007.4</ele>
        <time>2026-07-08T09:51:27Z</time>
      </trkpt>
      <trkpt lat="43.00292" lon="0.32314">
        <ele>1007.4</ele>
        <time>2026-07-08T09:51:27Z</time>
      </trkpt>
      <trkpt lat="43.00292" lon="0.32313">
        <ele>1007.4</ele>
        <time>2026-07-08T09:51:28Z</time>
      </trkpt>
      <trkpt lat="43.00293" lon="0.32312">
        <ele>1007.4</ele>
        <time>2026-07-08T09:51:28Z</time>
      </trkpt>
      <trkpt lat="43.00293" lon="0.32312">
        <ele>1007.4</ele>
        <time>2026-07-08T09:51:29Z</time>
      </trkpt>
      <trkpt lat="43.00294" lon="0.32312">
        <ele>1007.4</ele>
        <time>2026-07-08T09:51:29Z</time>
      </trkpt>
      <trkpt lat="43.00294" lon="0.32312">
        <ele>1007.4</ele>
        <time>2026-07-08T09:51:30Z</time>
      </trkpt>
      <trkpt lat="43.00294" lon="0.32312">
        <ele>1007.4</ele>
        <time>2026-07-08T09:51:31Z</time>
      </trkpt>
      <trkpt lat="43.00295" lon="0.32312">
        <ele>1006.4</ele>
        <time>2026-07-08T09:51:31Z</time>
      </trkpt>
      <trkpt lat="43.00295" lon="0.32312">
        <ele>1006.4</ele>
        <time>2026-07-08T09:51:32Z</time>
      </trkpt>
      <trkpt lat="43.00295" lon="0.32311">
        <ele>1006.4</ele>
        <time>2026-07-08T09:51:33Z</time>
      </trkpt>
      <trkpt lat="43.00296" lon="0.32311">
        <ele>1006.4</ele>
        <time>2026-07-08T09:51:33Z</time>
      </trkpt>
      <trkpt lat="43.00296" lon="0.3231">
        <ele>1006.4</ele>
        <time>2026-07-08T09:51:34Z</time>
      </trkpt>
      <trkpt lat="43.00297" lon="0.32311">
        <ele>1006.4</ele>
        <time>2026-07-08T09:51:34Z</time>
      </trkpt>
      <trkpt lat="43.00297" lon="0.3231">
        <ele>1006.4</ele>
        <time>2026-07-08T09:51:35Z</time>
      </trkpt>
      <trkpt lat="43.00298" lon="0.3231">
        <ele>1006.4</ele>
        <time>2026-07-08T09:51:36Z</time>
      </trkpt>
      <trkpt lat="43.00298" lon="0.3231">
        <ele>1006.4</ele>
        <time>2026-07-08T09:51:36Z</time>
      </trkpt>
      <trkpt lat="43.00298" lon="0.32309">
        <ele>1004.4</ele>
        <time>2026-07-08T09:51:37Z</time>
      </trkpt>
      <trkpt lat="43.00299" lon="0.3231">
        <ele>1004.4</ele>
        <time>2026-07-08T09:51:37Z</time>
      </trkpt>
      <trkpt lat="43.003" lon="0.32309">
        <ele>1004.4</ele>
        <time>2026-07-08T09:51:38Z</time>
      </trkpt>
      <trkpt lat="43.00301" lon="0.32309">
        <ele>1005.4</ele>
        <time>2026-07-08T09:51:39Z</time>
      </trkpt>
      <trkpt lat="43.00301" lon="0.32309">
        <ele>1005.4</ele>
        <time>2026-07-08T09:51:39Z</time>
      </trkpt>
      <trkpt lat="43.00302" lon="0.32308">
        <ele>1005.4</ele>
        <time>2026-07-08T09:51:40Z</time>
      </trkpt>
      <trkpt lat="43.00302" lon="0.32309">
        <ele>1005.4</ele>
        <time>2026-07-08T09:51:40Z</time>
      </trkpt>
      <trkpt lat="43.00302" lon="0.32308">
        <ele>1005.4</ele>
        <time>2026-07-08T09:51:41Z</time>
      </trkpt>
      <trkpt lat="43.00303" lon="0.32307">
        <ele>1004.4</ele>
        <time>2026-07-08T09:51:42Z</time>
      </trkpt>
      <trkpt lat="43.00304" lon="0.32307">
        <ele>1004.4</ele>
        <time>2026-07-08T09:51:43Z</time>
      </trkpt>
      <trkpt lat="43.00304" lon="0.32306">
        <ele>1004.4</ele>
        <time>2026-07-08T09:51:43Z</time>
      </trkpt>
      <trkpt lat="43.00305" lon="0.32305">
        <ele>1004.4</ele>
        <time>2026-07-08T09:51:44Z</time>
      </trkpt>
      <trkpt lat="43.00305" lon="0.32305">
        <ele>1004.4</ele>
        <time>2026-07-08T09:51:44Z</time>
      </trkpt>
      <trkpt lat="43.00305" lon="0.32304">
        <ele>1004.4</ele>
        <time>2026-07-08T09:51:45Z</time>
      </trkpt>
      <trkpt lat="43.00305" lon="0.32303">
        <ele>1003.4</ele>
        <time>2026-07-08T09:51:45Z</time>
      </trkpt>
      <trkpt lat="43.00306" lon="0.32303">
        <ele>1003.4</ele>
        <time>2026-07-08T09:51:46Z</time>
      </trkpt>
      <trkpt lat="43.00306" lon="0.32302">
        <ele>1003.4</ele>
        <time>2026-07-08T09:51:46Z</time>
      </trkpt>
      <trkpt lat="43.00306" lon="0.32301">
        <ele>1003.4</ele>
        <time>2026-07-08T09:51:47Z</time>
      </trkpt>
      <trkpt lat="43.00307" lon="0.32301">
        <ele>1002.4</ele>
        <time>2026-07-08T09:51:48Z</time>
      </trkpt>
      <trkpt lat="43.00308" lon="0.323">
        <ele>1002.4</ele>
        <time>2026-07-08T09:51:48Z</time>
      </trkpt>
      <trkpt lat="43.00308" lon="0.323">
        <ele>1001.4</ele>
        <time>2026-07-08T09:51:49Z</time>
      </trkpt>
      <trkpt lat="43.0031" lon="0.32299">
        <ele>1001.4</ele>
        <time>2026-07-08T09:51:50Z</time>
      </trkpt>
      <trkpt lat="43.0031" lon="0.32299">
        <ele>1001.4</ele>
        <time>2026-07-08T09:51:51Z</time>
      </trkpt>
      <trkpt lat="43.00311" lon="0.32298">
        <ele>1001.4</ele>
        <time>2026-07-08T09:51:51Z</time>
      </trkpt>
      <trkpt lat="43.00311" lon="0.32298">
        <ele>1001.4</ele>
        <time>2026-07-08T09:51:52Z</time>
      </trkpt>
      <trkpt lat="43.00312" lon="0.32298">
        <ele>1001.4</ele>
        <time>2026-07-08T09:51:52Z</time>
      </trkpt>
      <trkpt lat="43.00313" lon="0.32297">
        <ele>1001.4</ele>
        <time>2026-07-08T09:51:53Z</time>
      </trkpt>
      <trkpt lat="43.00314" lon="0.32296">
        <ele>1000.4</ele>
        <time>2026-07-08T09:51:54Z</time>
      </trkpt>
      <trkpt lat="43.00314" lon="0.32296">
        <ele>1000.4</ele>
        <time>2026-07-08T09:51:54Z</time>
      </trkpt>
      <trkpt lat="43.00315" lon="0.32295">
        <ele>1000.4</ele>
        <time>2026-07-08T09:51:55Z</time>
      </trkpt>
      <trkpt lat="43.00316" lon="0.32294">
        <ele>1000.4</ele>
        <time>2026-07-08T09:51:56Z</time>
      </trkpt>
      <trkpt lat="43.00317" lon="0.32293">
        <ele>1000.4</ele>
        <time>2026-07-08T09:51:57Z</time>
      </trkpt>
      <trkpt lat="43.00317" lon="0.32292">
        <ele>1000.4</ele>
        <time>2026-07-08T09:51:58Z</time>
      </trkpt>
      <trkpt lat="43.00318" lon="0.32292">
        <ele>1000.4</ele>
        <time>2026-07-08T09:51:58Z</time>
      </trkpt>
      <trkpt lat="43.00318" lon="0.32291">
        <ele>1000.4</ele>
        <time>2026-07-08T09:51:59Z</time>
      </trkpt>
      <trkpt lat="43.00319" lon="0.3229">
        <ele>1000.4</ele>
        <time>2026-07-08T09:51:59Z</time>
      </trkpt>
      <trkpt lat="43.00319" lon="0.32289">
        <ele>1000.4</ele>
        <time>2026-07-08T09:52:00Z</time>
      </trkpt>
      <trkpt lat="43.0032" lon="0.32289">
        <ele>999.4</ele>
        <time>2026-07-08T09:52:00Z</time>
      </trkpt>
      <trkpt lat="43.0032" lon="0.32288">
        <ele>999.4</ele>
        <time>2026-07-08T09:52:01Z</time>
      </trkpt>
      <trkpt lat="43.0032" lon="0.32287">
        <ele>999.4</ele>
        <time>2026-07-08T09:52:01Z</time>
      </trkpt>
      <trkpt lat="43.00321" lon="0.32287">
        <ele>999.4</ele>
        <time>2026-07-08T09:52:02Z</time>
      </trkpt>
      <trkpt lat="43.00321" lon="0.32286">
        <ele>999.4</ele>
        <time>2026-07-08T09:52:03Z</time>
      </trkpt>
      <trkpt lat="43.00321" lon="0.32285">
        <ele>999.4</ele>
        <time>2026-07-08T09:52:03Z</time>
      </trkpt>
      <trkpt lat="43.00322" lon="0.32285">
        <ele>999.4</ele>
        <time>2026-07-08T09:52:04Z</time>
      </trkpt>
      <trkpt lat="43.00322" lon="0.32285">
        <ele>999.4</ele>
        <time>2026-07-08T09:52:04Z</time>
      </trkpt>
      <trkpt lat="43.00323" lon="0.32284">
        <ele>999.4</ele>
        <time>2026-07-08T09:52:05Z</time>
      </trkpt>
      <trkpt lat="43.00324" lon="0.32284">
        <ele>999.4</ele>
        <time>2026-07-08T09:52:06Z</time>
      </trkpt>
      <trkpt lat="43.00324" lon="0.32283">
        <ele>999.4</ele>
        <time>2026-07-08T09:52:06Z</time>
      </trkpt>
      <trkpt lat="43.00324" lon="0.32282">
        <ele>999.4</ele>
        <time>2026-07-08T09:52:07Z</time>
      </trkpt>
      <trkpt lat="43.00324" lon="0.3228">
        <ele>999.4</ele>
        <time>2026-07-08T09:52:08Z</time>
      </trkpt>
      <trkpt lat="43.00324" lon="0.32279">
        <ele>999.4</ele>
        <time>2026-07-08T09:52:09Z</time>
      </trkpt>
      <trkpt lat="43.00324" lon="0.32278">
        <ele>999.4</ele>
        <time>2026-07-08T09:52:10Z</time>
      </trkpt>
      <trkpt lat="43.00325" lon="0.32278">
        <ele>999.4</ele>
        <time>2026-07-08T09:52:11Z</time>
      </trkpt>
      <trkpt lat="43.00326" lon="0.32278">
        <ele>999.4</ele>
        <time>2026-07-08T09:52:12Z</time>
      </trkpt>
      <trkpt lat="43.00326" lon="0.32278">
        <ele>999.4</ele>
        <time>2026-07-08T09:52:12Z</time>
      </trkpt>
      <trkpt lat="43.00327" lon="0.32278">
        <ele>999.4</ele>
        <time>2026-07-08T09:52:13Z</time>
      </trkpt>
      <trkpt lat="43.00327" lon="0.32277">
        <ele>999.4</ele>
        <time>2026-07-08T09:52:14Z</time>
      </trkpt>
      <trkpt lat="43.00327" lon="0.32277">
        <ele>999.4</ele>
        <time>2026-07-08T09:52:14Z</time>
      </trkpt>
      <trkpt lat="43.00327" lon="0.32276">
        <ele>999.4</ele>
        <time>2026-07-08T09:52:15Z</time>
      </trkpt>
      <trkpt lat="43.00328" lon="0.32276">
        <ele>1000.4</ele>
        <time>2026-07-08T09:52:16Z</time>
      </trkpt>
      <trkpt lat="43.00328" lon="0.32275">
        <ele>1000.4</ele>
        <time>2026-07-08T09:52:16Z</time>
      </trkpt>
      <trkpt lat="43.00328" lon="0.32275">
        <ele>1000.4</ele>
        <time>2026-07-08T09:52:17Z</time>
      </trkpt>
      <trkpt lat="43.00329" lon="0.32275">
        <ele>1000.4</ele>
        <time>2026-07-08T09:52:18Z</time>
      </trkpt>
      <trkpt lat="43.00329" lon="0.32275">
        <ele>1000.4</ele>
        <time>2026-07-08T09:52:18Z</time>
      </trkpt>
      <trkpt lat="43.0033" lon="0.32274">
        <ele>1000.4</ele>
        <time>2026-07-08T09:52:19Z</time>
      </trkpt>
      <trkpt lat="43.00331" lon="0.32274">
        <ele>1000.4</ele>
        <time>2026-07-08T09:52:20Z</time>
      </trkpt>
      <trkpt lat="43.00331" lon="0.32274">
        <ele>1000.4</ele>
        <time>2026-07-08T09:52:21Z</time>
      </trkpt>
      <trkpt lat="43.00332" lon="0.32273">
        <ele>1001.4</ele>
        <time>2026-07-08T09:52:21Z</time>
      </trkpt>
      <trkpt lat="43.00332" lon="0.32272">
        <ele>1001.4</ele>
        <time>2026-07-08T09:52:22Z</time>
      </trkpt>
      <trkpt lat="43.00332" lon="0.32272">
        <ele>1001.4</ele>
        <time>2026-07-08T09:52:23Z</time>
      </trkpt>
      <trkpt lat="43.00332" lon="0.32271">
        <ele>1002.4</ele>
        <time>2026-07-08T09:52:23Z</time>
      </trkpt>
      <trkpt lat="43.00332" lon="0.32271">
        <ele>1002.4</ele>
        <time>2026-07-08T09:52:24Z</time>
      </trkpt>
      <trkpt lat="43.00333" lon="0.3227">
        <ele>1002.4</ele>
        <time>2026-07-08T09:52:25Z</time>
      </trkpt>
      <trkpt lat="43.00333" lon="0.32269">
        <ele>1001.4</ele>
        <time>2026-07-08T09:52:26Z</time>
      </trkpt>
      <trkpt lat="43.00333" lon="0.32268">
        <ele>1001.4</ele>
        <time>2026-07-08T09:52:26Z</time>
      </trkpt>
      <trkpt lat="43.00333" lon="0.32268">
        <ele>1002.4</ele>
        <time>2026-07-08T09:52:27Z</time>
      </trkpt>
      <trkpt lat="43.00333" lon="0.32267">
        <ele>1002.4</ele>
        <time>2026-07-08T09:52:28Z</time>
      </trkpt>
      <trkpt lat="43.00334" lon="0.32266">
        <ele>1002.4</ele>
        <time>2026-07-08T09:52:28Z</time>
      </trkpt>
      <trkpt lat="43.00334" lon="0.32266">
        <ele>1002.4</ele>
        <time>2026-07-08T09:52:29Z</time>
      </trkpt>
      <trkpt lat="43.00335" lon="0.32265">
        <ele>1002.4</ele>
        <time>2026-07-08T09:52:29Z</time>
      </trkpt>
      <trkpt lat="43.00335" lon="0.32265">
        <ele>1002.4</ele>
        <time>2026-07-08T09:52:30Z</time>
      </trkpt>
      <trkpt lat="43.00335" lon="0.32263">
        <ele>1002.4</ele>
        <time>2026-07-08T09:52:30Z</time>
      </trkpt>
      <trkpt lat="43.00335" lon="0.32263">
        <ele>1002.4</ele>
        <time>2026-07-08T09:52:31Z</time>
      </trkpt>
      <trkpt lat="43.00335" lon="0.32261">
        <ele>1001.4</ele>
        <time>2026-07-08T09:52:32Z</time>
      </trkpt>
      <trkpt lat="43.00335" lon="0.3226">
        <ele>1001.4</ele>
        <time>2026-07-08T09:52:32Z</time>
      </trkpt>
      <trkpt lat="43.00335" lon="0.32259">
        <ele>1001.4</ele>
        <time>2026-07-08T09:52:33Z</time>
      </trkpt>
      <trkpt lat="43.00335" lon="0.32258">
        <ele>1002.4</ele>
        <time>2026-07-08T09:52:33Z</time>
      </trkpt>
      <trkpt lat="43.00336" lon="0.32258">
        <ele>1002.4</ele>
        <time>2026-07-08T09:52:34Z</time>
      </trkpt>
      <trkpt lat="43.00336" lon="0.32257">
        <ele>1001.4</ele>
        <time>2026-07-08T09:52:34Z</time>
      </trkpt>
      <trkpt lat="43.00336" lon="0.32255">
        <ele>1001.4</ele>
        <time>2026-07-08T09:52:35Z</time>
      </trkpt>
      <trkpt lat="43.00336" lon="0.32254">
        <ele>1001.4</ele>
        <time>2026-07-08T09:52:36Z</time>
      </trkpt>
      <trkpt lat="43.00335" lon="0.32253">
        <ele>1002.4</ele>
        <time>2026-07-08T09:52:36Z</time>
      </trkpt>
      <trkpt lat="43.00335" lon="0.32252">
        <ele>1002.4</ele>
        <time>2026-07-08T09:52:37Z</time>
      </trkpt>
      <trkpt lat="43.00335" lon="0.32251">
        <ele>1001.4</ele>
        <time>2026-07-08T09:52:37Z</time>
      </trkpt>
      <trkpt lat="43.00335" lon="0.3225">
        <ele>1001.4</ele>
        <time>2026-07-08T09:52:38Z</time>
      </trkpt>
      <trkpt lat="43.00335" lon="0.32249">
        <ele>1001.4</ele>
        <time>2026-07-08T09:52:39Z</time>
      </trkpt>
      <trkpt lat="43.00335" lon="0.32249">
        <ele>1000.4</ele>
        <time>2026-07-08T09:52:39Z</time>
      </trkpt>
      <trkpt lat="43.00335" lon="0.32248">
        <ele>1000.4</ele>
        <time>2026-07-08T09:52:40Z</time>
      </trkpt>
      <trkpt lat="43.00335" lon="0.32247">
        <ele>1000.4</ele>
        <time>2026-07-08T09:52:40Z</time>
      </trkpt>
      <trkpt lat="43.00336" lon="0.32247">
        <ele>999.4</ele>
        <time>2026-07-08T09:52:41Z</time>
      </trkpt>
      <trkpt lat="43.00336" lon="0.32246">
        <ele>999.4</ele>
        <time>2026-07-08T09:52:42Z</time>
      </trkpt>
      <trkpt lat="43.00336" lon="0.32245">
        <ele>999.4</ele>
        <time>2026-07-08T09:52:42Z</time>
      </trkpt>
      <trkpt lat="43.00336" lon="0.32244">
        <ele>999.4</ele>
        <time>2026-07-08T09:52:43Z</time>
      </trkpt>
      <trkpt lat="43.00336" lon="0.32243">
        <ele>999.4</ele>
        <time>2026-07-08T09:52:44Z</time>
      </trkpt>
      <trkpt lat="43.00337" lon="0.32242">
        <ele>999.4</ele>
        <time>2026-07-08T09:52:44Z</time>
      </trkpt>
      <trkpt lat="43.00337" lon="0.32241">
        <ele>999.4</ele>
        <time>2026-07-08T09:52:45Z</time>
      </trkpt>
      <trkpt lat="43.00337" lon="0.32241">
        <ele>999.4</ele>
        <time>2026-07-08T09:52:45Z</time>
      </trkpt>
      <trkpt lat="43.00337" lon="0.3224">
        <ele>999.4</ele>
        <time>2026-07-08T09:52:46Z</time>
      </trkpt>
      <trkpt lat="43.00337" lon="0.32239">
        <ele>999.4</ele>
        <time>2026-07-08T09:52:46Z</time>
      </trkpt>
      <trkpt lat="43.00337" lon="0.32238">
        <ele>999.4</ele>
        <time>2026-07-08T09:52:47Z</time>
      </trkpt>
      <trkpt lat="43.00337" lon="0.32238">
        <ele>998.4</ele>
        <time>2026-07-08T09:52:48Z</time>
      </trkpt>
      <trkpt lat="43.00337" lon="0.32237">
        <ele>998.4</ele>
        <time>2026-07-08T09:52:48Z</time>
      </trkpt>
      <trkpt lat="43.00338" lon="0.32236">
        <ele>998.4</ele>
        <time>2026-07-08T09:52:49Z</time>
      </trkpt>
      <trkpt lat="43.00338" lon="0.32236">
        <ele>997.4</ele>
        <time>2026-07-08T09:52:49Z</time>
      </trkpt>
      <trkpt lat="43.00338" lon="0.32235">
        <ele>997.4</ele>
        <time>2026-07-08T09:52:50Z</time>
      </trkpt>
      <trkpt lat="43.00339" lon="0.32234">
        <ele>996.4</ele>
        <time>2026-07-08T09:52:51Z</time>
      </trkpt>
      <trkpt lat="43.00339" lon="0.32233">
        <ele>996.4</ele>
        <time>2026-07-08T09:52:51Z</time>
      </trkpt>
      <trkpt lat="43.00339" lon="0.32233">
        <ele>995.4</ele>
        <time>2026-07-08T09:52:52Z</time>
      </trkpt>
      <trkpt lat="43.0034" lon="0.32232">
        <ele>995.4</ele>
        <time>2026-07-08T09:52:52Z</time>
      </trkpt>
      <trkpt lat="43.0034" lon="0.32231">
        <ele>995.4</ele>
        <time>2026-07-08T09:52:53Z</time>
      </trkpt>
      <trkpt lat="43.0034" lon="0.3223">
        <ele>995.4</ele>
        <time>2026-07-08T09:52:54Z</time>
      </trkpt>
      <trkpt lat="43.00341" lon="0.32229">
        <ele>995.4</ele>
        <time>2026-07-08T09:52:54Z</time>
      </trkpt>
      <trkpt lat="43.00341" lon="0.32229">
        <ele>995.4</ele>
        <time>2026-07-08T09:52:55Z</time>
      </trkpt>
      <trkpt lat="43.00341" lon="0.32228">
        <ele>994.4</ele>
        <time>2026-07-08T09:52:56Z</time>
      </trkpt>
      <trkpt lat="43.00342" lon="0.32227">
        <ele>994.4</ele>
        <time>2026-07-08T09:52:56Z</time>
      </trkpt>
      <trkpt lat="43.00342" lon="0.32227">
        <ele>994.4</ele>
        <time>2026-07-08T09:52:57Z</time>
      </trkpt>
      <trkpt lat="43.00342" lon="0.32226">
        <ele>995.4</ele>
        <time>2026-07-08T09:52:57Z</time>
      </trkpt>
      <trkpt lat="43.00342" lon="0.32226">
        <ele>995.4</ele>
        <time>2026-07-08T09:52:58Z</time>
      </trkpt>
      <trkpt lat="43.00343" lon="0.32225">
        <ele>995.4</ele>
        <time>2026-07-08T09:52:58Z</time>
      </trkpt>
      <trkpt lat="43.00343" lon="0.32225">
        <ele>995.4</ele>
        <time>2026-07-08T09:52:59Z</time>
      </trkpt>
      <trkpt lat="43.00343" lon="0.32224">
        <ele>995.4</ele>
        <time>2026-07-08T09:53:00Z</time>
      </trkpt>
      <trkpt lat="43.00344" lon="0.32224">
        <ele>995.4</ele>
        <time>2026-07-08T09:53:00Z</time>
      </trkpt>
      <trkpt lat="43.00344" lon="0.32223">
        <ele>995.4</ele>
        <time>2026-07-08T09:53:01Z</time>
      </trkpt>
      <trkpt lat="43.00344" lon="0.32222">
        <ele>995.4</ele>
        <time>2026-07-08T09:53:01Z</time>
      </trkpt>
      <trkpt lat="43.00345" lon="0.32221">
        <ele>995.4</ele>
        <time>2026-07-08T09:53:02Z</time>
      </trkpt>
      <trkpt lat="43.00345" lon="0.3222">
        <ele>995.4</ele>
        <time>2026-07-08T09:53:03Z</time>
      </trkpt>
      <trkpt lat="43.00346" lon="0.32219">
        <ele>994.4</ele>
        <time>2026-07-08T09:53:03Z</time>
      </trkpt>
      <trkpt lat="43.00346" lon="0.32218">
        <ele>994.4</ele>
        <time>2026-07-08T09:53:04Z</time>
      </trkpt>
      <trkpt lat="43.00346" lon="0.32218">
        <ele>994.4</ele>
        <time>2026-07-08T09:53:05Z</time>
      </trkpt>
      <trkpt lat="43.00347" lon="0.32217">
        <ele>994.4</ele>
        <time>2026-07-08T09:53:05Z</time>
      </trkpt>
      <trkpt lat="43.00347" lon="0.32216">
        <ele>994.4</ele>
        <time>2026-07-08T09:53:06Z</time>
      </trkpt>
      <trkpt lat="43.00348" lon="0.32216">
        <ele>994.4</ele>
        <time>2026-07-08T09:53:06Z</time>
      </trkpt>
      <trkpt lat="43.00348" lon="0.32215">
        <ele>994.4</ele>
        <time>2026-07-08T09:53:07Z</time>
      </trkpt>
      <trkpt lat="43.00349" lon="0.32215">
        <ele>994.4</ele>
        <time>2026-07-08T09:53:08Z</time>
      </trkpt>
      <trkpt lat="43.00349" lon="0.32215">
        <ele>994.4</ele>
        <time>2026-07-08T09:53:08Z</time>
      </trkpt>
      <trkpt lat="43.0035" lon="0.32214">
        <ele>994.4</ele>
        <time>2026-07-08T09:53:09Z</time>
      </trkpt>
      <trkpt lat="43.0035" lon="0.32214">
        <ele>994.4</ele>
        <time>2026-07-08T09:53:10Z</time>
      </trkpt>
      <trkpt lat="43.00351" lon="0.32212">
        <ele>994.4</ele>
        <time>2026-07-08T09:53:11Z</time>
      </trkpt>
      <trkpt lat="43.0035" lon="0.32212">
        <ele>994.4</ele>
        <time>2026-07-08T09:53:11Z</time>
      </trkpt>
      <trkpt lat="43.00351" lon="0.3221">
        <ele>994.4</ele>
        <time>2026-07-08T09:53:12Z</time>
      </trkpt>
      <trkpt lat="43.00351" lon="0.3221">
        <ele>994.4</ele>
        <time>2026-07-08T09:53:12Z</time>
      </trkpt>
      <trkpt lat="43.00351" lon="0.3221">
        <ele>994.4</ele>
        <time>2026-07-08T09:53:13Z</time>
      </trkpt>
      <trkpt lat="43.00352" lon="0.3221">
        <ele>995.4</ele>
        <time>2026-07-08T09:53:14Z</time>
      </trkpt>
      <trkpt lat="43.00352" lon="0.3221">
        <ele>996.4</ele>
        <time>2026-07-08T09:53:15Z</time>
      </trkpt>
      <trkpt lat="43.00352" lon="0.32209">
        <ele>996.4</ele>
        <time>2026-07-08T09:53:15Z</time>
      </trkpt>
      <trkpt lat="43.00352" lon="0.32208">
        <ele>996.4</ele>
        <time>2026-07-08T09:53:16Z</time>
      </trkpt>
      <trkpt lat="43.00352" lon="0.32208">
        <ele>997.4</ele>
        <time>2026-07-08T09:53:17Z</time>
      </trkpt>
      <trkpt lat="43.00352" lon="0.32209">
        <ele>997.4</ele>
        <time>2026-07-08T09:53:18Z</time>
      </trkpt>
      <trkpt lat="43.00353" lon="0.3221">
        <ele>996.4</ele>
        <time>2026-07-08T09:53:19Z</time>
      </trkpt>
      <trkpt lat="43.00352" lon="0.32211">
        <ele>997.4</ele>
        <time>2026-07-08T09:53:19Z</time>
      </trkpt>
      <trkpt lat="43.00352" lon="0.32211">
        <ele>997.4</ele>
        <time>2026-07-08T09:53:20Z</time>
      </trkpt>
      <trkpt lat="43.00352" lon="0.32211">
        <ele>997.4</ele>
        <time>2026-07-08T09:53:21Z</time>
      </trkpt>
      <trkpt lat="43.00352" lon="0.32211">
        <ele>997.4</ele>
        <time>2026-07-08T09:53:22Z</time>
      </trkpt>
      <trkpt lat="43.00351" lon="0.32211">
        <ele>997.4</ele>
        <time>2026-07-08T09:53:22Z</time>
      </trkpt>
      <trkpt lat="43.00351" lon="0.32211">
        <ele>997.4</ele>
        <time>2026-07-08T09:53:23Z</time>
      </trkpt>
      <trkpt lat="43.00352" lon="0.32211">
        <ele>997.4</ele>
        <time>2026-07-08T09:53:24Z</time>
      </trkpt>
      <trkpt lat="43.00353" lon="0.32211">
        <ele>997.4</ele>
        <time>2026-07-08T09:53:24Z</time>
      </trkpt>
      <trkpt lat="43.00353" lon="0.3221">
        <ele>997.4</ele>
        <time>2026-07-08T09:53:25Z</time>
      </trkpt>
      <trkpt lat="43.00354" lon="0.3221">
        <ele>997.4</ele>
        <time>2026-07-08T09:53:25Z</time>
      </trkpt>
      <trkpt lat="43.00355" lon="0.32209">
        <ele>997.4</ele>
        <time>2026-07-08T09:53:26Z</time>
      </trkpt>
      <trkpt lat="43.00356" lon="0.32208">
        <ele>997.4</ele>
        <time>2026-07-08T09:53:27Z</time>
      </trkpt>
      <trkpt lat="43.00358" lon="0.32207">
        <ele>996.4</ele>
        <time>2026-07-08T09:53:28Z</time>
      </trkpt>
      <trkpt lat="43.00359" lon="0.32208">
        <ele>996.4</ele>
        <time>2026-07-08T09:53:29Z</time>
      </trkpt>
      <trkpt lat="43.00359" lon="0.32208">
        <ele>996.4</ele>
        <time>2026-07-08T09:53:29Z</time>
      </trkpt>
      <trkpt lat="43.0036" lon="0.32208">
        <ele>996.4</ele>
        <time>2026-07-08T09:53:30Z</time>
      </trkpt>
      <trkpt lat="43.00361" lon="0.32209">
        <ele>996.4</ele>
        <time>2026-07-08T09:53:31Z</time>
      </trkpt>
      <trkpt lat="43.00361" lon="0.32209">
        <ele>997.4</ele>
        <time>2026-07-08T09:53:31Z</time>
      </trkpt>
      <trkpt lat="43.00362" lon="0.32209">
        <ele>996.4</ele>
        <time>2026-07-08T09:53:32Z</time>
      </trkpt>
      <trkpt lat="43.00363" lon="0.32209">
        <ele>996.4</ele>
        <time>2026-07-08T09:53:33Z</time>
      </trkpt>
      <trkpt lat="43.00363" lon="0.32209">
        <ele>996.4</ele>
        <time>2026-07-08T09:53:34Z</time>
      </trkpt>
      <trkpt lat="43.00364" lon="0.32209">
        <ele>996.4</ele>
        <time>2026-07-08T09:53:34Z</time>
      </trkpt>
      <trkpt lat="43.00364" lon="0.32209">
        <ele>996.4</ele>
        <time>2026-07-08T09:53:35Z</time>
      </trkpt>
      <trkpt lat="43.00365" lon="0.32209">
        <ele>995.4</ele>
        <time>2026-07-08T09:53:35Z</time>
      </trkpt>
      <trkpt lat="43.00365" lon="0.32209">
        <ele>995.4</ele>
        <time>2026-07-08T09:53:36Z</time>
      </trkpt>
      <trkpt lat="43.00366" lon="0.32209">
        <ele>995.4</ele>
        <time>2026-07-08T09:53:37Z</time>
      </trkpt>
      <trkpt lat="43.00367" lon="0.32208">
        <ele>995.4</ele>
        <time>2026-07-08T09:53:37Z</time>
      </trkpt>
      <trkpt lat="43.00367" lon="0.32208">
        <ele>995.4</ele>
        <time>2026-07-08T09:53:38Z</time>
      </trkpt>
      <trkpt lat="43.00368" lon="0.32208">
        <ele>994.4</ele>
        <time>2026-07-08T09:53:39Z</time>
      </trkpt>
      <trkpt lat="43.00368" lon="0.32208">
        <ele>994.4</ele>
        <time>2026-07-08T09:53:39Z</time>
      </trkpt>
      <trkpt lat="43.00368" lon="0.32208">
        <ele>994.4</ele>
        <time>2026-07-08T09:53:40Z</time>
      </trkpt>
      <trkpt lat="43.00369" lon="0.32208">
        <ele>994.4</ele>
        <time>2026-07-08T09:53:41Z</time>
      </trkpt>
      <trkpt lat="43.00369" lon="0.32208">
        <ele>994.4</ele>
        <time>2026-07-08T09:53:42Z</time>
      </trkpt>
      <trkpt lat="43.00369" lon="0.32208">
        <ele>994.4</ele>
        <time>2026-07-08T09:53:42Z</time>
      </trkpt>
      <trkpt lat="43.0037" lon="0.32208">
        <ele>994.4</ele>
        <time>2026-07-08T09:53:43Z</time>
      </trkpt>
      <trkpt lat="43.0037" lon="0.32208">
        <ele>994.4</ele>
        <time>2026-07-08T09:53:43Z</time>
      </trkpt>
      <trkpt lat="43.0037" lon="0.32208">
        <ele>994.4</ele>
        <time>2026-07-08T09:53:44Z</time>
      </trkpt>
      <trkpt lat="43.00371" lon="0.32207">
        <ele>994.4</ele>
        <time>2026-07-08T09:53:44Z</time>
      </trkpt>
      <trkpt lat="43.00371" lon="0.32207">
        <ele>994.4</ele>
        <time>2026-07-08T09:53:45Z</time>
      </trkpt>
      <trkpt lat="43.00372" lon="0.32206">
        <ele>994.4</ele>
        <time>2026-07-08T09:53:45Z</time>
      </trkpt>
      <trkpt lat="43.00372" lon="0.32206">
        <ele>994.4</ele>
        <time>2026-07-08T09:53:46Z</time>
      </trkpt>
      <trkpt lat="43.00373" lon="0.32205">
        <ele>994.4</ele>
        <time>2026-07-08T09:53:47Z</time>
      </trkpt>
      <trkpt lat="43.00373" lon="0.32205">
        <ele>994.4</ele>
        <time>2026-07-08T09:53:47Z</time>
      </trkpt>
      <trkpt lat="43.00374" lon="0.32205">
        <ele>994.4</ele>
        <time>2026-07-08T09:53:48Z</time>
      </trkpt>
      <trkpt lat="43.00374" lon="0.32204">
        <ele>994.4</ele>
        <time>2026-07-08T09:53:48Z</time>
      </trkpt>
      <trkpt lat="43.00375" lon="0.32204">
        <ele>994.4</ele>
        <time>2026-07-08T09:53:49Z</time>
      </trkpt>
      <trkpt lat="43.00375" lon="0.32204">
        <ele>994.4</ele>
        <time>2026-07-08T09:53:49Z</time>
      </trkpt>
      <trkpt lat="43.00375" lon="0.32204">
        <ele>994.4</ele>
        <time>2026-07-08T09:53:50Z</time>
      </trkpt>
      <trkpt lat="43.00376" lon="0.32204">
        <ele>994.4</ele>
        <time>2026-07-08T09:53:51Z</time>
      </trkpt>
      <trkpt lat="43.00376" lon="0.32205">
        <ele>993.4</ele>
        <time>2026-07-08T09:53:51Z</time>
      </trkpt>
      <trkpt lat="43.00377" lon="0.32205">
        <ele>993.4</ele>
        <time>2026-07-08T09:53:52Z</time>
      </trkpt>
      <trkpt lat="43.00378" lon="0.32205">
        <ele>993.4</ele>
        <time>2026-07-08T09:53:53Z</time>
      </trkpt>
      <trkpt lat="43.00379" lon="0.32204">
        <ele>992.4</ele>
        <time>2026-07-08T09:53:54Z</time>
      </trkpt>
      <trkpt lat="43.00379" lon="0.32204">
        <ele>992.4</ele>
        <time>2026-07-08T09:53:54Z</time>
      </trkpt>
      <trkpt lat="43.0038" lon="0.32204">
        <ele>992.4</ele>
        <time>2026-07-08T09:53:55Z</time>
      </trkpt>
      <trkpt lat="43.0038" lon="0.32203">
        <ele>992.4</ele>
        <time>2026-07-08T09:53:55Z</time>
      </trkpt>
      <trkpt lat="43.00381" lon="0.32203">
        <ele>992.4</ele>
        <time>2026-07-08T09:53:56Z</time>
      </trkpt>
      <trkpt lat="43.00382" lon="0.32203">
        <ele>991.4</ele>
        <time>2026-07-08T09:53:57Z</time>
      </trkpt>
      <trkpt lat="43.00382" lon="0.32203">
        <ele>991.4</ele>
        <time>2026-07-08T09:53:57Z</time>
      </trkpt>
      <trkpt lat="43.00383" lon="0.32203">
        <ele>991.4</ele>
        <time>2026-07-08T09:53:58Z</time>
      </trkpt>
      <trkpt lat="43.00383" lon="0.32203">
        <ele>991.4</ele>
        <time>2026-07-08T09:53:58Z</time>
      </trkpt>
      <trkpt lat="43.00384" lon="0.32202">
        <ele>991.4</ele>
        <time>2026-07-08T09:53:59Z</time>
      </trkpt>
      <trkpt lat="43.00385" lon="0.32201">
        <ele>991.4</ele>
        <time>2026-07-08T09:54:00Z</time>
      </trkpt>
      <trkpt lat="43.00385" lon="0.32199">
        <ele>990.4</ele>
        <time>2026-07-08T09:54:00Z</time>
      </trkpt>
      <trkpt lat="43.00385" lon="0.32198">
        <ele>991.4</ele>
        <time>2026-07-08T09:54:01Z</time>
      </trkpt>
      <trkpt lat="43.00385" lon="0.32197">
        <ele>991.4</ele>
        <time>2026-07-08T09:54:02Z</time>
      </trkpt>
      <trkpt lat="43.00386" lon="0.32195">
        <ele>991.4</ele>
        <time>2026-07-08T09:54:03Z</time>
      </trkpt>
      <trkpt lat="43.00386" lon="0.32195">
        <ele>991.4</ele>
        <time>2026-07-08T09:54:04Z</time>
      </trkpt>
      <trkpt lat="43.00386" lon="0.32194">
        <ele>990.4</ele>
        <time>2026-07-08T09:54:04Z</time>
      </trkpt>
      <trkpt lat="43.00387" lon="0.32194">
        <ele>990.4</ele>
        <time>2026-07-08T09:54:05Z</time>
      </trkpt>
      <trkpt lat="43.00388" lon="0.32193">
        <ele>991.4</ele>
        <time>2026-07-08T09:54:06Z</time>
      </trkpt>
      <trkpt lat="43.00388" lon="0.32193">
        <ele>990.4</ele>
        <time>2026-07-08T09:54:07Z</time>
      </trkpt>
      <trkpt lat="43.00388" lon="0.32192">
        <ele>990.4</ele>
        <time>2026-07-08T09:54:07Z</time>
      </trkpt>
      <trkpt lat="43.00388" lon="0.32191">
        <ele>990.4</ele>
        <time>2026-07-08T09:54:08Z</time>
      </trkpt>
      <trkpt lat="43.00388" lon="0.3219">
        <ele>989.4</ele>
        <time>2026-07-08T09:54:08Z</time>
      </trkpt>
      <trkpt lat="43.00389" lon="0.3219">
        <ele>989.4</ele>
        <time>2026-07-08T09:54:09Z</time>
      </trkpt>
      <trkpt lat="43.0039" lon="0.3219">
        <ele>988.4</ele>
        <time>2026-07-08T09:54:09Z</time>
      </trkpt>
      <trkpt lat="43.0039" lon="0.32189">
        <ele>988.4</ele>
        <time>2026-07-08T09:54:10Z</time>
      </trkpt>
      <trkpt lat="43.00391" lon="0.32188">
        <ele>988.4</ele>
        <time>2026-07-08T09:54:11Z</time>
      </trkpt>
      <trkpt lat="43.00392" lon="0.32187">
        <ele>988.4</ele>
        <time>2026-07-08T09:54:12Z</time>
      </trkpt>
      <trkpt lat="43.00392" lon="0.32186">
        <ele>988.4</ele>
        <time>2026-07-08T09:54:12Z</time>
      </trkpt>
      <trkpt lat="43.00392" lon="0.32185">
        <ele>988.4</ele>
        <time>2026-07-08T09:54:13Z</time>
      </trkpt>
      <trkpt lat="43.00392" lon="0.32184">
        <ele>988.4</ele>
        <time>2026-07-08T09:54:14Z</time>
      </trkpt>
      <trkpt lat="43.00392" lon="0.32183">
        <ele>987.4</ele>
        <time>2026-07-08T09:54:14Z</time>
      </trkpt>
      <trkpt lat="43.00393" lon="0.32183">
        <ele>987.4</ele>
        <time>2026-07-08T09:54:15Z</time>
      </trkpt>
      <trkpt lat="43.00393" lon="0.32181">
        <ele>987.4</ele>
        <time>2026-07-08T09:54:16Z</time>
      </trkpt>
      <trkpt lat="43.00393" lon="0.3218">
        <ele>987.4</ele>
        <time>2026-07-08T09:54:16Z</time>
      </trkpt>
      <trkpt lat="43.00393" lon="0.32179">
        <ele>987.4</ele>
        <time>2026-07-08T09:54:17Z</time>
      </trkpt>
      <trkpt lat="43.00394" lon="0.32178">
        <ele>987.4</ele>
        <time>2026-07-08T09:54:18Z</time>
      </trkpt>
      <trkpt lat="43.00394" lon="0.32177">
        <ele>987.4</ele>
        <time>2026-07-08T09:54:19Z</time>
      </trkpt>
      <trkpt lat="43.00394" lon="0.32176">
        <ele>988.4</ele>
        <time>2026-07-08T09:54:19Z</time>
      </trkpt>
      <trkpt lat="43.00393" lon="0.32176">
        <ele>988.4</ele>
        <time>2026-07-08T09:54:20Z</time>
      </trkpt>
      <trkpt lat="43.00393" lon="0.32175">
        <ele>988.4</ele>
        <time>2026-07-08T09:54:20Z</time>
      </trkpt>
      <trkpt lat="43.00394" lon="0.32174">
        <ele>988.4</ele>
        <time>2026-07-08T09:54:21Z</time>
      </trkpt>
      <trkpt lat="43.00394" lon="0.32173">
        <ele>987.4</ele>
        <time>2026-07-08T09:54:22Z</time>
      </trkpt>
      <trkpt lat="43.00395" lon="0.32173">
        <ele>987.4</ele>
        <time>2026-07-08T09:54:23Z</time>
      </trkpt>
      <trkpt lat="43.00395" lon="0.32172">
        <ele>987.4</ele>
        <time>2026-07-08T09:54:23Z</time>
      </trkpt>
      <trkpt lat="43.00395" lon="0.32172">
        <ele>987.4</ele>
        <time>2026-07-08T09:54:24Z</time>
      </trkpt>
      <trkpt lat="43.00395" lon="0.32171">
        <ele>986.4</ele>
        <time>2026-07-08T09:54:24Z</time>
      </trkpt>
      <trkpt lat="43.00396" lon="0.3217">
        <ele>986.4</ele>
        <time>2026-07-08T09:54:25Z</time>
      </trkpt>
      <trkpt lat="43.00396" lon="0.3217">
        <ele>987.4</ele>
        <time>2026-07-08T09:54:26Z</time>
      </trkpt>
      <trkpt lat="43.00396" lon="0.3217">
        <ele>986.4</ele>
        <time>2026-07-08T09:54:26Z</time>
      </trkpt>
      <trkpt lat="43.00396" lon="0.32169">
        <ele>986.4</ele>
        <time>2026-07-08T09:54:27Z</time>
      </trkpt>
      <trkpt lat="43.00397" lon="0.32168">
        <ele>985.4</ele>
        <time>2026-07-08T09:54:28Z</time>
      </trkpt>
      <trkpt lat="43.00397" lon="0.32168">
        <ele>986.4</ele>
        <time>2026-07-08T09:54:28Z</time>
      </trkpt>
      <trkpt lat="43.00398" lon="0.32168">
        <ele>986.4</ele>
        <time>2026-07-08T09:54:29Z</time>
      </trkpt>
      <trkpt lat="43.00398" lon="0.32167">
        <ele>986.4</ele>
        <time>2026-07-08T09:54:30Z</time>
      </trkpt>
      <trkpt lat="43.00398" lon="0.32167">
        <ele>986.4</ele>
        <time>2026-07-08T09:54:30Z</time>
      </trkpt>
      <trkpt lat="43.00399" lon="0.32166">
        <ele>986.4</ele>
        <time>2026-07-08T09:54:31Z</time>
      </trkpt>
      <trkpt lat="43.004" lon="0.32166">
        <ele>986.4</ele>
        <time>2026-07-08T09:54:32Z</time>
      </trkpt>
      <trkpt lat="43.004" lon="0.32165">
        <ele>986.4</ele>
        <time>2026-07-08T09:54:32Z</time>
      </trkpt>
      <trkpt lat="43.004" lon="0.32165">
        <ele>985.4</ele>
        <time>2026-07-08T09:54:33Z</time>
      </trkpt>
      <trkpt lat="43.00401" lon="0.32164">
        <ele>985.4</ele>
        <time>2026-07-08T09:54:34Z</time>
      </trkpt>
      <trkpt lat="43.00401" lon="0.32164">
        <ele>984.4</ele>
        <time>2026-07-08T09:54:35Z</time>
      </trkpt>
      <trkpt lat="43.00402" lon="0.32164">
        <ele>984.4</ele>
        <time>2026-07-08T09:54:35Z</time>
      </trkpt>
      <trkpt lat="43.00402" lon="0.32164">
        <ele>984.4</ele>
        <time>2026-07-08T09:54:36Z</time>
      </trkpt>
      <trkpt lat="43.00402" lon="0.32163">
        <ele>984.4</ele>
        <time>2026-07-08T09:54:37Z</time>
      </trkpt>
      <trkpt lat="43.00403" lon="0.32163">
        <ele>984.4</ele>
        <time>2026-07-08T09:54:38Z</time>
      </trkpt>
      <trkpt lat="43.00402" lon="0.32163">
        <ele>983.4</ele>
        <time>2026-07-08T09:54:38Z</time>
      </trkpt>
      <trkpt lat="43.00403" lon="0.32162">
        <ele>983.4</ele>
        <time>2026-07-08T09:54:39Z</time>
      </trkpt>
      <trkpt lat="43.00403" lon="0.32162">
        <ele>983.4</ele>
        <time>2026-07-08T09:54:39Z</time>
      </trkpt>
      <trkpt lat="43.00403" lon="0.32162">
        <ele>983.4</ele>
        <time>2026-07-08T09:54:40Z</time>
      </trkpt>
      <trkpt lat="43.00404" lon="0.32161">
        <ele>983.4</ele>
        <time>2026-07-08T09:54:41Z</time>
      </trkpt>
      <trkpt lat="43.00404" lon="0.3216">
        <ele>983.4</ele>
        <time>2026-07-08T09:54:41Z</time>
      </trkpt>
      <trkpt lat="43.00404" lon="0.32159">
        <ele>983.4</ele>
        <time>2026-07-08T09:54:42Z</time>
      </trkpt>
      <trkpt lat="43.00405" lon="0.32159">
        <ele>983.4</ele>
        <time>2026-07-08T09:54:43Z</time>
      </trkpt>
      <trkpt lat="43.00405" lon="0.32158">
        <ele>983.4</ele>
        <time>2026-07-08T09:54:43Z</time>
      </trkpt>
      <trkpt lat="43.00405" lon="0.32157">
        <ele>982.4</ele>
        <time>2026-07-08T09:54:44Z</time>
      </trkpt>
      <trkpt lat="43.00405" lon="0.32156">
        <ele>982.4</ele>
        <time>2026-07-08T09:54:45Z</time>
      </trkpt>
      <trkpt lat="43.00406" lon="0.32155">
        <ele>982.4</ele>
        <time>2026-07-08T09:54:45Z</time>
      </trkpt>
      <trkpt lat="43.00406" lon="0.32154">
        <ele>982.4</ele>
        <time>2026-07-08T09:54:46Z</time>
      </trkpt>
      <trkpt lat="43.00406" lon="0.32154">
        <ele>982.4</ele>
        <time>2026-07-08T09:54:46Z</time>
      </trkpt>
      <trkpt lat="43.00407" lon="0.32153">
        <ele>982.4</ele>
        <time>2026-07-08T09:54:47Z</time>
      </trkpt>
      <trkpt lat="43.00407" lon="0.32153">
        <ele>982.4</ele>
        <time>2026-07-08T09:54:48Z</time>
      </trkpt>
      <trkpt lat="43.00408" lon="0.32152">
        <ele>982.4</ele>
        <time>2026-07-08T09:54:48Z</time>
      </trkpt>
      <trkpt lat="43.00409" lon="0.32152">
        <ele>982.4</ele>
        <time>2026-07-08T09:54:49Z</time>
      </trkpt>
      <trkpt lat="43.0041" lon="0.32152">
        <ele>982.4</ele>
        <time>2026-07-08T09:54:50Z</time>
      </trkpt>
      <trkpt lat="43.0041" lon="0.32152">
        <ele>981.4</ele>
        <time>2026-07-08T09:54:51Z</time>
      </trkpt>
      <trkpt lat="43.0041" lon="0.32151">
        <ele>981.4</ele>
        <time>2026-07-08T09:54:52Z</time>
      </trkpt>
      <trkpt lat="43.0041" lon="0.3215">
        <ele>980.4</ele>
        <time>2026-07-08T09:54:52Z</time>
      </trkpt>
      <trkpt lat="43.0041" lon="0.3215">
        <ele>980.4</ele>
        <time>2026-07-08T09:54:53Z</time>
      </trkpt>
      <trkpt lat="43.00409" lon="0.32149">
        <ele>980.4</ele>
        <time>2026-07-08T09:54:53Z</time>
      </trkpt>
      <trkpt lat="43.0041" lon="0.32149">
        <ele>980.4</ele>
        <time>2026-07-08T09:54:54Z</time>
      </trkpt>
      <trkpt lat="43.0041" lon="0.32148">
        <ele>979.4</ele>
        <time>2026-07-08T09:54:55Z</time>
      </trkpt>
      <trkpt lat="43.00409" lon="0.32148">
        <ele>979.4</ele>
        <time>2026-07-08T09:54:55Z</time>
      </trkpt>
      <trkpt lat="43.0041" lon="0.32147">
        <ele>979.4</ele>
        <time>2026-07-08T09:54:56Z</time>
      </trkpt>
      <trkpt lat="43.00409" lon="0.32146">
        <ele>979.4</ele>
        <time>2026-07-08T09:54:57Z</time>
      </trkpt>
      <trkpt lat="43.00409" lon="0.32146">
        <ele>979.4</ele>
        <time>2026-07-08T09:54:57Z</time>
      </trkpt>
      <trkpt lat="43.00409" lon="0.32146">
        <ele>979.4</ele>
        <time>2026-07-08T09:54:58Z</time>
      </trkpt>
      <trkpt lat="43.00409" lon="0.32145">
        <ele>978.4</ele>
        <time>2026-07-08T09:54:59Z</time>
      </trkpt>
      <trkpt lat="43.00409" lon="0.32144">
        <ele>978.4</ele>
        <time>2026-07-08T09:55:00Z</time>
      </trkpt>
      <trkpt lat="43.00409" lon="0.32144">
        <ele>978.4</ele>
        <time>2026-07-08T09:55:01Z</time>
      </trkpt>
      <trkpt lat="43.0041" lon="0.32144">
        <ele>978.4</ele>
        <time>2026-07-08T09:55:01Z</time>
      </trkpt>
      <trkpt lat="43.00411" lon="0.32143">
        <ele>978.4</ele>
        <time>2026-07-08T09:55:02Z</time>
      </trkpt>
      <trkpt lat="43.00412" lon="0.32142">
        <ele>978.4</ele>
        <time>2026-07-08T09:55:03Z</time>
      </trkpt>
      <trkpt lat="43.00413" lon="0.32142">
        <ele>977.4</ele>
        <time>2026-07-08T09:55:04Z</time>
      </trkpt>
      <trkpt lat="43.00413" lon="0.32142">
        <ele>977.4</ele>
        <time>2026-07-08T09:55:04Z</time>
      </trkpt>
      <trkpt lat="43.00414" lon="0.32142">
        <ele>977.4</ele>
        <time>2026-07-08T09:55:05Z</time>
      </trkpt>
      <trkpt lat="43.00415" lon="0.32142">
        <ele>977.4</ele>
        <time>2026-07-08T09:55:06Z</time>
      </trkpt>
      <trkpt lat="43.00415" lon="0.32143">
        <ele>977.4</ele>
        <time>2026-07-08T09:55:06Z</time>
      </trkpt>
      <trkpt lat="43.00416" lon="0.32143">
        <ele>977.4</ele>
        <time>2026-07-08T09:55:07Z</time>
      </trkpt>
      <trkpt lat="43.00416" lon="0.32142">
        <ele>977.4</ele>
        <time>2026-07-08T09:55:07Z</time>
      </trkpt>
      <trkpt lat="43.00416" lon="0.32142">
        <ele>977.4</ele>
        <time>2026-07-08T09:55:08Z</time>
      </trkpt>
      <trkpt lat="43.00417" lon="0.32141">
        <ele>977.4</ele>
        <time>2026-07-08T09:55:09Z</time>
      </trkpt>
      <trkpt lat="43.00417" lon="0.3214">
        <ele>976.4</ele>
        <time>2026-07-08T09:55:09Z</time>
      </trkpt>
      <trkpt lat="43.00417" lon="0.3214">
        <ele>976.4</ele>
        <time>2026-07-08T09:55:10Z</time>
      </trkpt>
      <trkpt lat="43.00418" lon="0.32139">
        <ele>976.4</ele>
        <time>2026-07-08T09:55:11Z</time>
      </trkpt>
      <trkpt lat="43.00418" lon="0.32139">
        <ele>976.4</ele>
        <time>2026-07-08T09:55:11Z</time>
      </trkpt>
      <trkpt lat="43.00418" lon="0.32138">
        <ele>975.4</ele>
        <time>2026-07-08T09:55:12Z</time>
      </trkpt>
      <trkpt lat="43.00418" lon="0.32138">
        <ele>975.4</ele>
        <time>2026-07-08T09:55:13Z</time>
      </trkpt>
      <trkpt lat="43.00418" lon="0.32137">
        <ele>974.4</ele>
        <time>2026-07-08T09:55:14Z</time>
      </trkpt>
      <trkpt lat="43.00418" lon="0.32136">
        <ele>974.4</ele>
        <time>2026-07-08T09:55:14Z</time>
      </trkpt>
      <trkpt lat="43.00419" lon="0.32135">
        <ele>974.4</ele>
        <time>2026-07-08T09:55:15Z</time>
      </trkpt>
      <trkpt lat="43.0042" lon="0.32134">
        <ele>974.4</ele>
        <time>2026-07-08T09:55:16Z</time>
      </trkpt>
      <trkpt lat="43.0042" lon="0.32133">
        <ele>974.4</ele>
        <time>2026-07-08T09:55:16Z</time>
      </trkpt>
      <trkpt lat="43.00421" lon="0.32132">
        <ele>974.4</ele>
        <time>2026-07-08T09:55:17Z</time>
      </trkpt>
      <trkpt lat="43.00421" lon="0.32131">
        <ele>974.4</ele>
        <time>2026-07-08T09:55:18Z</time>
      </trkpt>
      <trkpt lat="43.0042" lon="0.32131">
        <ele>974.4</ele>
        <time>2026-07-08T09:55:18Z</time>
      </trkpt>
      <trkpt lat="43.0042" lon="0.3213">
        <ele>973.4</ele>
        <time>2026-07-08T09:55:19Z</time>
      </trkpt>
      <trkpt lat="43.00421" lon="0.32129">
        <ele>973.4</ele>
        <time>2026-07-08T09:55:20Z</time>
      </trkpt>
      <trkpt lat="43.00421" lon="0.32128">
        <ele>972.4</ele>
        <time>2026-07-08T09:55:21Z</time>
      </trkpt>
      <trkpt lat="43.00421" lon="0.32127">
        <ele>972.4</ele>
        <time>2026-07-08T09:55:21Z</time>
      </trkpt>
      <trkpt lat="43.00421" lon="0.32126">
        <ele>972.4</ele>
        <time>2026-07-08T09:55:22Z</time>
      </trkpt>
      <trkpt lat="43.00421" lon="0.32126">
        <ele>972.4</ele>
        <time>2026-07-08T09:55:23Z</time>
      </trkpt>
      <trkpt lat="43.00422" lon="0.32125">
        <ele>972.4</ele>
        <time>2026-07-08T09:55:23Z</time>
      </trkpt>
      <trkpt lat="43.00422" lon="0.32124">
        <ele>971.4</ele>
        <time>2026-07-08T09:55:24Z</time>
      </trkpt>
      <trkpt lat="43.00423" lon="0.32124">
        <ele>972.4</ele>
        <time>2026-07-08T09:55:25Z</time>
      </trkpt>
      <trkpt lat="43.00423" lon="0.32123">
        <ele>972.4</ele>
        <time>2026-07-08T09:55:26Z</time>
      </trkpt>
      <trkpt lat="43.00424" lon="0.32123">
        <ele>972.4</ele>
        <time>2026-07-08T09:55:26Z</time>
      </trkpt>
      <trkpt lat="43.00424" lon="0.32122">
        <ele>972.4</ele>
        <time>2026-07-08T09:55:27Z</time>
      </trkpt>
      <trkpt lat="43.00424" lon="0.32121">
        <ele>972.4</ele>
        <time>2026-07-08T09:55:27Z</time>
      </trkpt>
      <trkpt lat="43.00425" lon="0.3212">
        <ele>972.4</ele>
        <time>2026-07-08T09:55:28Z</time>
      </trkpt>
      <trkpt lat="43.00425" lon="0.3212">
        <ele>972.4</ele>
        <time>2026-07-08T09:55:29Z</time>
      </trkpt>
      <trkpt lat="43.00425" lon="0.32119">
        <ele>972.4</ele>
        <time>2026-07-08T09:55:29Z</time>
      </trkpt>
      <trkpt lat="43.00426" lon="0.32119">
        <ele>972.4</ele>
        <time>2026-07-08T09:55:30Z</time>
      </trkpt>
      <trkpt lat="43.00426" lon="0.32119">
        <ele>971.4</ele>
        <time>2026-07-08T09:55:31Z</time>
      </trkpt>
      <trkpt lat="43.00427" lon="0.32119">
        <ele>971.4</ele>
        <time>2026-07-08T09:55:32Z</time>
      </trkpt>
      <trkpt lat="43.00427" lon="0.32119">
        <ele>971.4</ele>
        <time>2026-07-08T09:55:32Z</time>
      </trkpt>
      <trkpt lat="43.00428" lon="0.32118">
        <ele>971.4</ele>
        <time>2026-07-08T09:55:33Z</time>
      </trkpt>
      <trkpt lat="43.00428" lon="0.32118">
        <ele>971.4</ele>
        <time>2026-07-08T09:55:34Z</time>
      </trkpt>
      <trkpt lat="43.00428" lon="0.32118">
        <ele>971.4</ele>
        <time>2026-07-08T09:55:34Z</time>
      </trkpt>
      <trkpt lat="43.00428" lon="0.32117">
        <ele>970.4</ele>
        <time>2026-07-08T09:55:35Z</time>
      </trkpt>
      <trkpt lat="43.00428" lon="0.32116">
        <ele>970.4</ele>
        <time>2026-07-08T09:55:36Z</time>
      </trkpt>
      <trkpt lat="43.00428" lon="0.32116">
        <ele>970.4</ele>
        <time>2026-07-08T09:55:37Z</time>
      </trkpt>
      <trkpt lat="43.00429" lon="0.32116">
        <ele>970.4</ele>
        <time>2026-07-08T09:55:37Z</time>
      </trkpt>
      <trkpt lat="43.00429" lon="0.32116">
        <ele>970.4</ele>
        <time>2026-07-08T09:55:38Z</time>
      </trkpt>
      <trkpt lat="43.0043" lon="0.32116">
        <ele>970.4</ele>
        <time>2026-07-08T09:55:39Z</time>
      </trkpt>
      <trkpt lat="43.00431" lon="0.32116">
        <ele>970.4</ele>
        <time>2026-07-08T09:55:39Z</time>
      </trkpt>
      <trkpt lat="43.00431" lon="0.32115">
        <ele>970.4</ele>
        <time>2026-07-08T09:55:40Z</time>
      </trkpt>
      <trkpt lat="43.00432" lon="0.32115">
        <ele>970.4</ele>
        <time>2026-07-08T09:55:41Z</time>
      </trkpt>
      <trkpt lat="43.00433" lon="0.32115">
        <ele>970.4</ele>
        <time>2026-07-08T09:55:41Z</time>
      </trkpt>
      <trkpt lat="43.00434" lon="0.32115">
        <ele>969.4</ele>
        <time>2026-07-08T09:55:42Z</time>
      </trkpt>
      <trkpt lat="43.00434" lon="0.32114">
        <ele>969.4</ele>
        <time>2026-07-08T09:55:43Z</time>
      </trkpt>
      <trkpt lat="43.00435" lon="0.32114">
        <ele>969.4</ele>
        <time>2026-07-08T09:55:43Z</time>
      </trkpt>
      <trkpt lat="43.00435" lon="0.32113">
        <ele>969.4</ele>
        <time>2026-07-08T09:55:44Z</time>
      </trkpt>
      <trkpt lat="43.00436" lon="0.32113">
        <ele>969.4</ele>
        <time>2026-07-08T09:55:45Z</time>
      </trkpt>
      <trkpt lat="43.00437" lon="0.32112">
        <ele>969.4</ele>
        <time>2026-07-08T09:55:46Z</time>
      </trkpt>
      <trkpt lat="43.00437" lon="0.32112">
        <ele>969.4</ele>
        <time>2026-07-08T09:55:46Z</time>
      </trkpt>
      <trkpt lat="43.00438" lon="0.32112">
        <ele>969.4</ele>
        <time>2026-07-08T09:55:47Z</time>
      </trkpt>
      <trkpt lat="43.00438" lon="0.3211">
        <ele>968.4</ele>
        <time>2026-07-08T09:55:48Z</time>
      </trkpt>
      <trkpt lat="43.00439" lon="0.3211">
        <ele>968.4</ele>
        <time>2026-07-08T09:55:48Z</time>
      </trkpt>
      <trkpt lat="43.00439" lon="0.32108">
        <ele>968.4</ele>
        <time>2026-07-08T09:55:49Z</time>
      </trkpt>
      <trkpt lat="43.0044" lon="0.32107">
        <ele>968.4</ele>
        <time>2026-07-08T09:55:50Z</time>
      </trkpt>
      <trkpt lat="43.00441" lon="0.32106">
        <ele>967.4</ele>
        <time>2026-07-08T09:55:51Z</time>
      </trkpt>
      <trkpt lat="43.00441" lon="0.32106">
        <ele>967.4</ele>
        <time>2026-07-08T09:55:51Z</time>
      </trkpt>
      <trkpt lat="43.00442" lon="0.32105">
        <ele>967.4</ele>
        <time>2026-07-08T09:55:52Z</time>
      </trkpt>
      <trkpt lat="43.00442" lon="0.32104">
        <ele>966.4</ele>
        <time>2026-07-08T09:55:52Z</time>
      </trkpt>
      <trkpt lat="43.00442" lon="0.32103">
        <ele>966.4</ele>
        <time>2026-07-08T09:55:53Z</time>
      </trkpt>
      <trkpt lat="43.00443" lon="0.32103">
        <ele>966.4</ele>
        <time>2026-07-08T09:55:53Z</time>
      </trkpt>
      <trkpt lat="43.00443" lon="0.32103">
        <ele>965.4</ele>
        <time>2026-07-08T09:55:54Z</time>
      </trkpt>
      <trkpt lat="43.00444" lon="0.32103">
        <ele>965.4</ele>
        <time>2026-07-08T09:55:54Z</time>
      </trkpt>
      <trkpt lat="43.00444" lon="0.32102">
        <ele>965.4</ele>
        <time>2026-07-08T09:55:55Z</time>
      </trkpt>
      <trkpt lat="43.00445" lon="0.32102">
        <ele>965.4</ele>
        <time>2026-07-08T09:55:56Z</time>
      </trkpt>
      <trkpt lat="43.00446" lon="0.32102">
        <ele>965.4</ele>
        <time>2026-07-08T09:55:57Z</time>
      </trkpt>
      <trkpt lat="43.00447" lon="0.32102">
        <ele>965.4</ele>
        <time>2026-07-08T09:55:57Z</time>
      </trkpt>
      <trkpt lat="43.00447" lon="0.32102">
        <ele>965.4</ele>
        <time>2026-07-08T09:55:58Z</time>
      </trkpt>
      <trkpt lat="43.00448" lon="0.32102">
        <ele>965.4</ele>
        <time>2026-07-08T09:55:59Z</time>
      </trkpt>
      <trkpt lat="43.00448" lon="0.32101">
        <ele>965.4</ele>
        <time>2026-07-08T09:56:00Z</time>
      </trkpt>
      <trkpt lat="43.00449" lon="0.32101">
        <ele>965.4</ele>
        <time>2026-07-08T09:56:00Z</time>
      </trkpt>
      <trkpt lat="43.00449" lon="0.32101">
        <ele>964.4</ele>
        <time>2026-07-08T09:56:01Z</time>
      </trkpt>
      <trkpt lat="43.00449" lon="0.321">
        <ele>964.4</ele>
        <time>2026-07-08T09:56:02Z</time>
      </trkpt>
      <trkpt lat="43.00449" lon="0.32099">
        <ele>964.4</ele>
        <time>2026-07-08T09:56:03Z</time>
      </trkpt>
      <trkpt lat="43.00448" lon="0.32099">
        <ele>963.4</ele>
        <time>2026-07-08T09:56:03Z</time>
      </trkpt>
      <trkpt lat="43.00448" lon="0.32099">
        <ele>963.4</ele>
        <time>2026-07-08T09:56:04Z</time>
      </trkpt>
      <trkpt lat="43.00449" lon="0.32099">
        <ele>963.4</ele>
        <time>2026-07-08T09:56:05Z</time>
      </trkpt>
      <trkpt lat="43.00449" lon="0.32097">
        <ele>962.4</ele>
        <time>2026-07-08T09:56:06Z</time>
      </trkpt>
      <trkpt lat="43.0045" lon="0.32096">
        <ele>963.4</ele>
        <time>2026-07-08T09:56:07Z</time>
      </trkpt>
      <trkpt lat="43.0045" lon="0.32096">
        <ele>963.4</ele>
        <time>2026-07-08T09:56:07Z</time>
      </trkpt>
      <trkpt lat="43.0045" lon="0.32096">
        <ele>962.4</ele>
        <time>2026-07-08T09:56:08Z</time>
      </trkpt>
      <trkpt lat="43.00451" lon="0.32096">
        <ele>962.4</ele>
        <time>2026-07-08T09:56:09Z</time>
      </trkpt>
      <trkpt lat="43.00451" lon="0.32095">
        <ele>962.4</ele>
        <time>2026-07-08T09:56:09Z</time>
      </trkpt>
      <trkpt lat="43.00452" lon="0.32095">
        <ele>962.4</ele>
        <time>2026-07-08T09:56:10Z</time>
      </trkpt>
      <trkpt lat="43.00452" lon="0.32095">
        <ele>962.4</ele>
        <time>2026-07-08T09:56:11Z</time>
      </trkpt>
      <trkpt lat="43.00453" lon="0.32095">
        <ele>962.4</ele>
        <time>2026-07-08T09:56:11Z</time>
      </trkpt>
      <trkpt lat="43.00454" lon="0.32094">
        <ele>961.4</ele>
        <time>2026-07-08T09:56:12Z</time>
      </trkpt>
      <trkpt lat="43.00454" lon="0.32094">
        <ele>962.4</ele>
        <time>2026-07-08T09:56:13Z</time>
      </trkpt>
      <trkpt lat="43.00455" lon="0.32094">
        <ele>962.4</ele>
        <time>2026-07-08T09:56:14Z</time>
      </trkpt>
      <trkpt lat="43.00456" lon="0.32093">
        <ele>962.4</ele>
        <time>2026-07-08T09:56:15Z</time>
      </trkpt>
      <trkpt lat="43.00456" lon="0.32092">
        <ele>962.4</ele>
        <time>2026-07-08T09:56:16Z</time>
      </trkpt>
      <trkpt lat="43.00456" lon="0.32092">
        <ele>962.4</ele>
        <time>2026-07-08T09:56:16Z</time>
      </trkpt>
      <trkpt lat="43.00456" lon="0.32091">
        <ele>962.4</ele>
        <time>2026-07-08T09:56:17Z</time>
      </trkpt>
      <trkpt lat="43.00457" lon="0.32091">
        <ele>962.4</ele>
        <time>2026-07-08T09:56:18Z</time>
      </trkpt>
      <trkpt lat="43.00457" lon="0.32091">
        <ele>963.4</ele>
        <time>2026-07-08T09:56:18Z</time>
      </trkpt>
      <trkpt lat="43.00457" lon="0.32091">
        <ele>963.4</ele>
        <time>2026-07-08T09:56:19Z</time>
      </trkpt>
      <trkpt lat="43.00458" lon="0.32091">
        <ele>963.4</ele>
        <time>2026-07-08T09:56:20Z</time>
      </trkpt>
      <trkpt lat="43.00458" lon="0.3209">
        <ele>963.4</ele>
        <time>2026-07-08T09:56:21Z</time>
      </trkpt>
      <trkpt lat="43.00459" lon="0.3209">
        <ele>963.4</ele>
        <time>2026-07-08T09:56:21Z</time>
      </trkpt>
      <trkpt lat="43.00459" lon="0.32089">
        <ele>963.4</ele>
        <time>2026-07-08T09:56:22Z</time>
      </trkpt>
      <trkpt lat="43.0046" lon="0.32089">
        <ele>963.4</ele>
        <time>2026-07-08T09:56:22Z</time>
      </trkpt>
      <trkpt lat="43.0046" lon="0.32088">
        <ele>963.4</ele>
        <time>2026-07-08T09:56:23Z</time>
      </trkpt>
      <trkpt lat="43.00461" lon="0.32088">
        <ele>963.4</ele>
        <time>2026-07-08T09:56:24Z</time>
      </trkpt>
      <trkpt lat="43.00461" lon="0.32088">
        <ele>962.4</ele>
        <time>2026-07-08T09:56:24Z</time>
      </trkpt>
      <trkpt lat="43.00462" lon="0.32087">
        <ele>962.4</ele>
        <time>2026-07-08T09:56:25Z</time>
      </trkpt>
      <trkpt lat="43.00462" lon="0.32086">
        <ele>962.4</ele>
        <time>2026-07-08T09:56:26Z</time>
      </trkpt>
      <trkpt lat="43.00463" lon="0.32086">
        <ele>962.4</ele>
        <time>2026-07-08T09:56:26Z</time>
      </trkpt>
      <trkpt lat="43.00463" lon="0.32085">
        <ele>962.4</ele>
        <time>2026-07-08T09:56:27Z</time>
      </trkpt>
      <trkpt lat="43.00464" lon="0.32085">
        <ele>962.4</ele>
        <time>2026-07-08T09:56:28Z</time>
      </trkpt>
      <trkpt lat="43.00465" lon="0.32085">
        <ele>963.4</ele>
        <time>2026-07-08T09:56:29Z</time>
      </trkpt>
      <trkpt lat="43.00466" lon="0.32085">
        <ele>962.4</ele>
        <time>2026-07-08T09:56:29Z</time>
      </trkpt>
      <trkpt lat="43.00466" lon="0.32085">
        <ele>962.4</ele>
        <time>2026-07-08T09:56:30Z</time>
      </trkpt>
      <trkpt lat="43.00466" lon="0.32085">
        <ele>962.4</ele>
        <time>2026-07-08T09:56:31Z</time>
      </trkpt>
      <trkpt lat="43.00466" lon="0.32084">
        <ele>962.4</ele>
        <time>2026-07-08T09:56:31Z</time>
      </trkpt>
      <trkpt lat="43.00467" lon="0.32084">
        <ele>962.4</ele>
        <time>2026-07-08T09:56:32Z</time>
      </trkpt>
      <trkpt lat="43.00467" lon="0.32083">
        <ele>962.4</ele>
        <time>2026-07-08T09:56:33Z</time>
      </trkpt>
      <trkpt lat="43.00467" lon="0.32083">
        <ele>961.4</ele>
        <time>2026-07-08T09:56:33Z</time>
      </trkpt>
      <trkpt lat="43.00468" lon="0.32083">
        <ele>961.4</ele>
        <time>2026-07-08T09:56:34Z</time>
      </trkpt>
      <trkpt lat="43.00469" lon="0.32082">
        <ele>961.4</ele>
        <time>2026-07-08T09:56:35Z</time>
      </trkpt>
      <trkpt lat="43.00469" lon="0.32082">
        <ele>961.4</ele>
        <time>2026-07-08T09:56:36Z</time>
      </trkpt>
      <trkpt lat="43.0047" lon="0.32081">
        <ele>961.4</ele>
        <time>2026-07-08T09:56:37Z</time>
      </trkpt>
      <trkpt lat="43.00471" lon="0.32079">
        <ele>961.4</ele>
        <time>2026-07-08T09:56:38Z</time>
      </trkpt>
      <trkpt lat="43.00471" lon="0.32079">
        <ele>961.4</ele>
        <time>2026-07-08T09:56:39Z</time>
      </trkpt>
      <trkpt lat="43.00472" lon="0.32078">
        <ele>961.4</ele>
        <time>2026-07-08T09:56:39Z</time>
      </trkpt>
      <trkpt lat="43.00472" lon="0.32078">
        <ele>961.4</ele>
        <time>2026-07-08T09:56:40Z</time>
      </trkpt>
      <trkpt lat="43.00472" lon="0.32078">
        <ele>961.4</ele>
        <time>2026-07-08T09:56:40Z</time>
      </trkpt>
      <trkpt lat="43.00472" lon="0.32077">
        <ele>960.4</ele>
        <time>2026-07-08T09:56:41Z</time>
      </trkpt>
      <trkpt lat="43.00473" lon="0.32077">
        <ele>960.4</ele>
        <time>2026-07-08T09:56:42Z</time>
      </trkpt>
      <trkpt lat="43.00473" lon="0.32076">
        <ele>960.4</ele>
        <time>2026-07-08T09:56:43Z</time>
      </trkpt>
      <trkpt lat="43.00474" lon="0.32076">
        <ele>959.4</ele>
        <time>2026-07-08T09:56:43Z</time>
      </trkpt>
      <trkpt lat="43.00474" lon="0.32075">
        <ele>959.4</ele>
        <time>2026-07-08T09:56:44Z</time>
      </trkpt>
      <trkpt lat="43.00475" lon="0.32075">
        <ele>960.4</ele>
        <time>2026-07-08T09:56:44Z</time>
      </trkpt>
      <trkpt lat="43.00475" lon="0.32074">
        <ele>960.4</ele>
        <time>2026-07-08T09:56:45Z</time>
      </trkpt>
      <trkpt lat="43.00476" lon="0.32074">
        <ele>960.4</ele>
        <time>2026-07-08T09:56:46Z</time>
      </trkpt>
      <trkpt lat="43.00476" lon="0.32074">
        <ele>961.4</ele>
        <time>2026-07-08T09:56:46Z</time>
      </trkpt>
      <trkpt lat="43.00476" lon="0.32073">
        <ele>960.4</ele>
        <time>2026-07-08T09:56:47Z</time>
      </trkpt>
      <trkpt lat="43.00476" lon="0.32073">
        <ele>960.4</ele>
        <time>2026-07-08T09:56:48Z</time>
      </trkpt>
      <trkpt lat="43.00475" lon="0.32073">
        <ele>960.4</ele>
        <time>2026-07-08T09:56:49Z</time>
      </trkpt>
      <trkpt lat="43.00474" lon="0.32074">
        <ele>960.4</ele>
        <time>2026-07-08T09:56:50Z</time>
      </trkpt>
      <trkpt lat="43.00473" lon="0.32074">
        <ele>960.4</ele>
        <time>2026-07-08T09:56:51Z</time>
      </trkpt>
      <trkpt lat="43.00473" lon="0.32074">
        <ele>960.4</ele>
        <time>2026-07-08T09:56:52Z</time>
      </trkpt>
      <trkpt lat="43.00474" lon="0.32073">
        <ele>960.4</ele>
        <time>2026-07-08T09:56:53Z</time>
      </trkpt>
      <trkpt lat="43.00474" lon="0.32073">
        <ele>960.4</ele>
        <time>2026-07-08T09:56:53Z</time>
      </trkpt>
      <trkpt lat="43.00474" lon="0.32073">
        <ele>960.4</ele>
        <time>2026-07-08T09:56:54Z</time>
      </trkpt>
      <trkpt lat="43.00475" lon="0.32072">
        <ele>960.4</ele>
        <time>2026-07-08T09:56:55Z</time>
      </trkpt>
      <trkpt lat="43.00476" lon="0.32072">
        <ele>960.4</ele>
        <time>2026-07-08T09:56:55Z</time>
      </trkpt>
      <trkpt lat="43.00477" lon="0.3207">
        <ele>959.4</ele>
        <time>2026-07-08T09:56:56Z</time>
      </trkpt>
      <trkpt lat="43.00478" lon="0.32069">
        <ele>959.4</ele>
        <time>2026-07-08T09:56:57Z</time>
      </trkpt>
      <trkpt lat="43.00478" lon="0.32068">
        <ele>960.4</ele>
        <time>2026-07-08T09:56:57Z</time>
      </trkpt>
      <trkpt lat="43.00478" lon="0.32067">
        <ele>960.4</ele>
        <time>2026-07-08T09:56:58Z</time>
      </trkpt>
      <trkpt lat="43.00479" lon="0.32066">
        <ele>960.4</ele>
        <time>2026-07-08T09:56:59Z</time>
      </trkpt>
      <trkpt lat="43.0048" lon="0.32064">
        <ele>960.4</ele>
        <time>2026-07-08T09:57:00Z</time>
      </trkpt>
      <trkpt lat="43.0048" lon="0.32064">
        <ele>959.4</ele>
        <time>2026-07-08T09:57:00Z</time>
      </trkpt>
      <trkpt lat="43.0048" lon="0.32063">
        <ele>959.4</ele>
        <time>2026-07-08T09:57:01Z</time>
      </trkpt>
      <trkpt lat="43.00481" lon="0.32062">
        <ele>959.4</ele>
        <time>2026-07-08T09:57:01Z</time>
      </trkpt>
      <trkpt lat="43.00481" lon="0.32062">
        <ele>959.4</ele>
        <time>2026-07-08T09:57:02Z</time>
      </trkpt>
      <trkpt lat="43.00481" lon="0.32061">
        <ele>959.4</ele>
        <time>2026-07-08T09:57:03Z</time>
      </trkpt>
      <trkpt lat="43.00482" lon="0.32059">
        <ele>959.4</ele>
        <time>2026-07-08T09:57:04Z</time>
      </trkpt>
      <trkpt lat="43.00483" lon="0.32058">
        <ele>959.4</ele>
        <time>2026-07-08T09:57:05Z</time>
      </trkpt>
      <trkpt lat="43.00483" lon="0.32057">
        <ele>958.4</ele>
        <time>2026-07-08T09:57:05Z</time>
      </trkpt>
      <trkpt lat="43.00484" lon="0.32056">
        <ele>958.4</ele>
        <time>2026-07-08T09:57:06Z</time>
      </trkpt>
      <trkpt lat="43.00484" lon="0.32055">
        <ele>958.4</ele>
        <time>2026-07-08T09:57:07Z</time>
      </trkpt>
      <trkpt lat="43.00484" lon="0.32054">
        <ele>957.4</ele>
        <time>2026-07-08T09:57:07Z</time>
      </trkpt>
      <trkpt lat="43.00484" lon="0.32054">
        <ele>957.4</ele>
        <time>2026-07-08T09:57:08Z</time>
      </trkpt>
      <trkpt lat="43.00484" lon="0.32053">
        <ele>957.4</ele>
        <time>2026-07-08T09:57:08Z</time>
      </trkpt>
      <trkpt lat="43.00484" lon="0.32052">
        <ele>956.4</ele>
        <time>2026-07-08T09:57:09Z</time>
      </trkpt>
      <trkpt lat="43.00484" lon="0.32051">
        <ele>956.4</ele>
        <time>2026-07-08T09:57:10Z</time>
      </trkpt>
      <trkpt lat="43.00484" lon="0.3205">
        <ele>956.4</ele>
        <time>2026-07-08T09:57:10Z</time>
      </trkpt>
      <trkpt lat="43.00484" lon="0.32049">
        <ele>956.4</ele>
        <time>2026-07-08T09:57:11Z</time>
      </trkpt>
      <trkpt lat="43.00485" lon="0.32048">
        <ele>955.4</ele>
        <time>2026-07-08T09:57:12Z</time>
      </trkpt>
      <trkpt lat="43.00485" lon="0.32047">
        <ele>955.4</ele>
        <time>2026-07-08T09:57:13Z</time>
      </trkpt>
      <trkpt lat="43.00485" lon="0.32046">
        <ele>954.4</ele>
        <time>2026-07-08T09:57:14Z</time>
      </trkpt>
      <trkpt lat="43.00485" lon="0.32045">
        <ele>954.4</ele>
        <time>2026-07-08T09:57:14Z</time>
      </trkpt>
      <trkpt lat="43.00485" lon="0.32044">
        <ele>954.4</ele>
        <time>2026-07-08T09:57:15Z</time>
      </trkpt>
      <trkpt lat="43.00486" lon="0.32044">
        <ele>954.4</ele>
        <time>2026-07-08T09:57:16Z</time>
      </trkpt>
      <trkpt lat="43.00487" lon="0.32044">
        <ele>953.4</ele>
        <time>2026-07-08T09:57:16Z</time>
      </trkpt>
      <trkpt lat="43.00487" lon="0.32044">
        <ele>953.4</ele>
        <time>2026-07-08T09:57:17Z</time>
      </trkpt>
      <trkpt lat="43.00488" lon="0.32043">
        <ele>954.4</ele>
        <time>2026-07-08T09:57:17Z</time>
      </trkpt>
      <trkpt lat="43.00488" lon="0.32042">
        <ele>953.4</ele>
        <time>2026-07-08T09:57:18Z</time>
      </trkpt>
      <trkpt lat="43.00489" lon="0.32042">
        <ele>953.4</ele>
        <time>2026-07-08T09:57:19Z</time>
      </trkpt>
      <trkpt lat="43.00489" lon="0.32041">
        <ele>953.4</ele>
        <time>2026-07-08T09:57:19Z</time>
      </trkpt>
      <trkpt lat="43.0049" lon="0.3204">
        <ele>953.4</ele>
        <time>2026-07-08T09:57:20Z</time>
      </trkpt>
      <trkpt lat="43.0049" lon="0.3204">
        <ele>952.4</ele>
        <time>2026-07-08T09:57:20Z</time>
      </trkpt>
      <trkpt lat="43.0049" lon="0.32039">
        <ele>952.4</ele>
        <time>2026-07-08T09:57:21Z</time>
      </trkpt>
      <trkpt lat="43.00491" lon="0.32039">
        <ele>952.4</ele>
        <time>2026-07-08T09:57:21Z</time>
      </trkpt>
      <trkpt lat="43.00491" lon="0.32039">
        <ele>952.4</ele>
        <time>2026-07-08T09:57:22Z</time>
      </trkpt>
      <trkpt lat="43.00492" lon="0.32038">
        <ele>951.4</ele>
        <time>2026-07-08T09:57:23Z</time>
      </trkpt>
      <trkpt lat="43.00492" lon="0.32038">
        <ele>951.4</ele>
        <time>2026-07-08T09:57:23Z</time>
      </trkpt>
      <trkpt lat="43.00493" lon="0.32038">
        <ele>951.4</ele>
        <time>2026-07-08T09:57:24Z</time>
      </trkpt>
      <trkpt lat="43.00493" lon="0.32037">
        <ele>951.4</ele>
        <time>2026-07-08T09:57:24Z</time>
      </trkpt>
      <trkpt lat="43.00494" lon="0.32037">
        <ele>951.4</ele>
        <time>2026-07-08T09:57:25Z</time>
      </trkpt>
      <trkpt lat="43.00494" lon="0.32037">
        <ele>951.4</ele>
        <time>2026-07-08T09:57:25Z</time>
      </trkpt>
      <trkpt lat="43.00495" lon="0.32036">
        <ele>951.4</ele>
        <time>2026-07-08T09:57:26Z</time>
      </trkpt>
      <trkpt lat="43.00495" lon="0.32035">
        <ele>951.4</ele>
        <time>2026-07-08T09:57:27Z</time>
      </trkpt>
      <trkpt lat="43.00496" lon="0.32034">
        <ele>951.4</ele>
        <time>2026-07-08T09:57:27Z</time>
      </trkpt>
      <trkpt lat="43.00496" lon="0.32034">
        <ele>950.4</ele>
        <time>2026-07-08T09:57:28Z</time>
      </trkpt>
      <trkpt lat="43.00496" lon="0.32033">
        <ele>950.4</ele>
        <time>2026-07-08T09:57:29Z</time>
      </trkpt>
      <trkpt lat="43.00497" lon="0.32032">
        <ele>950.4</ele>
        <time>2026-07-08T09:57:29Z</time>
      </trkpt>
      <trkpt lat="43.00497" lon="0.32032">
        <ele>950.4</ele>
        <time>2026-07-08T09:57:30Z</time>
      </trkpt>
      <trkpt lat="43.00497" lon="0.32031">
        <ele>950.4</ele>
        <time>2026-07-08T09:57:31Z</time>
      </trkpt>
      <trkpt lat="43.00497" lon="0.32031">
        <ele>949.4</ele>
        <time>2026-07-08T09:57:31Z</time>
      </trkpt>
      <trkpt lat="43.00498" lon="0.32029">
        <ele>949.4</ele>
        <time>2026-07-08T09:57:32Z</time>
      </trkpt>
      <trkpt lat="43.00498" lon="0.32029">
        <ele>949.4</ele>
        <time>2026-07-08T09:57:33Z</time>
      </trkpt>
      <trkpt lat="43.00498" lon="0.32029">
        <ele>949.4</ele>
        <time>2026-07-08T09:57:33Z</time>
      </trkpt>
      <trkpt lat="43.00499" lon="0.32028">
        <ele>949.4</ele>
        <time>2026-07-08T09:57:34Z</time>
      </trkpt>
      <trkpt lat="43.00499" lon="0.32028">
        <ele>949.4</ele>
        <time>2026-07-08T09:57:34Z</time>
      </trkpt>
      <trkpt lat="43.00499" lon="0.32027">
        <ele>949.4</ele>
        <time>2026-07-08T09:57:35Z</time>
      </trkpt>
      <trkpt lat="43.005" lon="0.32027">
        <ele>949.4</ele>
        <time>2026-07-08T09:57:36Z</time>
      </trkpt>
      <trkpt lat="43.005" lon="0.32027">
        <ele>949.4</ele>
        <time>2026-07-08T09:57:36Z</time>
      </trkpt>
      <trkpt lat="43.00501" lon="0.32026">
        <ele>949.4</ele>
        <time>2026-07-08T09:57:37Z</time>
      </trkpt>
      <trkpt lat="43.00501" lon="0.32026">
        <ele>948.4</ele>
        <time>2026-07-08T09:57:37Z</time>
      </trkpt>
      <trkpt lat="43.00502" lon="0.32026">
        <ele>948.4</ele>
        <time>2026-07-08T09:57:38Z</time>
      </trkpt>
      <trkpt lat="43.00502" lon="0.32026">
        <ele>949.4</ele>
        <time>2026-07-08T09:57:38Z</time>
      </trkpt>
      <trkpt lat="43.00502" lon="0.32026">
        <ele>948.4</ele>
        <time>2026-07-08T09:57:39Z</time>
      </trkpt>
      <trkpt lat="43.00503" lon="0.32026">
        <ele>948.4</ele>
        <time>2026-07-08T09:57:40Z</time>
      </trkpt>
      <trkpt lat="43.00503" lon="0.32025">
        <ele>948.4</ele>
        <time>2026-07-08T09:57:41Z</time>
      </trkpt>
      <trkpt lat="43.00503" lon="0.32025">
        <ele>948.4</ele>
        <time>2026-07-08T09:57:42Z</time>
      </trkpt>
      <trkpt lat="43.00503" lon="0.32024">
        <ele>948.4</ele>
        <time>2026-07-08T09:57:43Z</time>
      </trkpt>
      <trkpt lat="43.00504" lon="0.32024">
        <ele>947.4</ele>
        <time>2026-07-08T09:57:43Z</time>
      </trkpt>
      <trkpt lat="43.00504" lon="0.32024">
        <ele>947.4</ele>
        <time>2026-07-08T09:57:44Z</time>
      </trkpt>
      <trkpt lat="43.00504" lon="0.32023">
        <ele>946.4</ele>
        <time>2026-07-08T09:57:44Z</time>
      </trkpt>
      <trkpt lat="43.00505" lon="0.32023">
        <ele>946.4</ele>
        <time>2026-07-08T09:57:45Z</time>
      </trkpt>
      <trkpt lat="43.00505" lon="0.32022">
        <ele>946.4</ele>
        <time>2026-07-08T09:57:46Z</time>
      </trkpt>
      <trkpt lat="43.00505" lon="0.32022">
        <ele>946.4</ele>
        <time>2026-07-08T09:57:46Z</time>
      </trkpt>
      <trkpt lat="43.00506" lon="0.32021">
        <ele>946.4</ele>
        <time>2026-07-08T09:57:47Z</time>
      </trkpt>
      <trkpt lat="43.00506" lon="0.32021">
        <ele>946.4</ele>
        <time>2026-07-08T09:57:47Z</time>
      </trkpt>
      <trkpt lat="43.00507" lon="0.3202">
        <ele>946.4</ele>
        <time>2026-07-08T09:57:48Z</time>
      </trkpt>
      <trkpt lat="43.00508" lon="0.3202">
        <ele>946.4</ele>
        <time>2026-07-08T09:57:49Z</time>
      </trkpt>
      <trkpt lat="43.00508" lon="0.32019">
        <ele>946.4</ele>
        <time>2026-07-08T09:57:50Z</time>
      </trkpt>
      <trkpt lat="43.00508" lon="0.32019">
        <ele>946.4</ele>
        <time>2026-07-08T09:57:50Z</time>
      </trkpt>
      <trkpt lat="43.00508" lon="0.32018">
        <ele>946.4</ele>
        <time>2026-07-08T09:57:51Z</time>
      </trkpt>
      <trkpt lat="43.00507" lon="0.32018">
        <ele>945.4</ele>
        <time>2026-07-08T09:57:51Z</time>
      </trkpt>
      <trkpt lat="43.00507" lon="0.32017">
        <ele>945.4</ele>
        <time>2026-07-08T09:57:52Z</time>
      </trkpt>
      <trkpt lat="43.00507" lon="0.32017">
        <ele>945.4</ele>
        <time>2026-07-08T09:57:53Z</time>
      </trkpt>
      <trkpt lat="43.00508" lon="0.32016">
        <ele>945.4</ele>
        <time>2026-07-08T09:57:53Z</time>
      </trkpt>
      <trkpt lat="43.00508" lon="0.32016">
        <ele>944.4</ele>
        <time>2026-07-08T09:57:54Z</time>
      </trkpt>
      <trkpt lat="43.00509" lon="0.32015">
        <ele>944.4</ele>
        <time>2026-07-08T09:57:55Z</time>
      </trkpt>
      <trkpt lat="43.00509" lon="0.32016">
        <ele>945.4</ele>
        <time>2026-07-08T09:57:56Z</time>
      </trkpt>
      <trkpt lat="43.0051" lon="0.32016">
        <ele>946.4</ele>
        <time>2026-07-08T09:57:56Z</time>
      </trkpt>
      <trkpt lat="43.0051" lon="0.32015">
        <ele>946.4</ele>
        <time>2026-07-08T09:57:57Z</time>
      </trkpt>
      <trkpt lat="43.00511" lon="0.32015">
        <ele>946.4</ele>
        <time>2026-07-08T09:57:58Z</time>
      </trkpt>
      <trkpt lat="43.00511" lon="0.32015">
        <ele>946.4</ele>
        <time>2026-07-08T09:57:58Z</time>
      </trkpt>
      <trkpt lat="43.00511" lon="0.32015">
        <ele>946.4</ele>
        <time>2026-07-08T09:57:59Z</time>
      </trkpt>
      <trkpt lat="43.00512" lon="0.32014">
        <ele>946.4</ele>
        <time>2026-07-08T09:58:00Z</time>
      </trkpt>
      <trkpt lat="43.00513" lon="0.32013">
        <ele>945.4</ele>
        <time>2026-07-08T09:58:01Z</time>
      </trkpt>
      <trkpt lat="43.00513" lon="0.32013">
        <ele>945.4</ele>
        <time>2026-07-08T09:58:01Z</time>
      </trkpt>
      <trkpt lat="43.00513" lon="0.32013">
        <ele>945.4</ele>
        <time>2026-07-08T09:58:02Z</time>
      </trkpt>
      <trkpt lat="43.00513" lon="0.32012">
        <ele>945.4</ele>
        <time>2026-07-08T09:58:02Z</time>
      </trkpt>
      <trkpt lat="43.00513" lon="0.32012">
        <ele>945.4</ele>
        <time>2026-07-08T09:58:03Z</time>
      </trkpt>
      <trkpt lat="43.00513" lon="0.32012">
        <ele>945.4</ele>
        <time>2026-07-08T09:58:04Z</time>
      </trkpt>
      <trkpt lat="43.00514" lon="0.32011">
        <ele>944.4</ele>
        <time>2026-07-08T09:58:05Z</time>
      </trkpt>
      <trkpt lat="43.00514" lon="0.3201">
        <ele>943.4</ele>
        <time>2026-07-08T09:58:06Z</time>
      </trkpt>
      <trkpt lat="43.00515" lon="0.3201">
        <ele>943.4</ele>
        <time>2026-07-08T09:58:07Z</time>
      </trkpt>
      <trkpt lat="43.00515" lon="0.3201">
        <ele>943.4</ele>
        <time>2026-07-08T09:58:07Z</time>
      </trkpt>
      <trkpt lat="43.00515" lon="0.3201">
        <ele>943.4</ele>
        <time>2026-07-08T09:58:08Z</time>
      </trkpt>
      <trkpt lat="43.00516" lon="0.3201">
        <ele>943.4</ele>
        <time>2026-07-08T09:58:09Z</time>
      </trkpt>
      <trkpt lat="43.00516" lon="0.3201">
        <ele>943.4</ele>
        <time>2026-07-08T09:58:09Z</time>
      </trkpt>
      <trkpt lat="43.00516" lon="0.32009">
        <ele>943.4</ele>
        <time>2026-07-08T09:58:10Z</time>
      </trkpt>
      <trkpt lat="43.00517" lon="0.32009">
        <ele>942.4</ele>
        <time>2026-07-08T09:58:10Z</time>
      </trkpt>
      <trkpt lat="43.00517" lon="0.32009">
        <ele>942.4</ele>
        <time>2026-07-08T09:58:11Z</time>
      </trkpt>
      <trkpt lat="43.00518" lon="0.32008">
        <ele>942.4</ele>
        <time>2026-07-08T09:58:11Z</time>
      </trkpt>
      <trkpt lat="43.00519" lon="0.32008">
        <ele>942.4</ele>
        <time>2026-07-08T09:58:12Z</time>
      </trkpt>
      <trkpt lat="43.0052" lon="0.32007">
        <ele>942.4</ele>
        <time>2026-07-08T09:58:13Z</time>
      </trkpt>
      <trkpt lat="43.00521" lon="0.32007">
        <ele>942.4</ele>
        <time>2026-07-08T09:58:13Z</time>
      </trkpt>
      <trkpt lat="43.00521" lon="0.32006">
        <ele>941.4</ele>
        <time>2026-07-08T09:58:14Z</time>
      </trkpt>
      <trkpt lat="43.00521" lon="0.32006">
        <ele>941.4</ele>
        <time>2026-07-08T09:58:15Z</time>
      </trkpt>
      <trkpt lat="43.00521" lon="0.32005">
        <ele>941.4</ele>
        <time>2026-07-08T09:58:15Z</time>
      </trkpt>
      <trkpt lat="43.00522" lon="0.32005">
        <ele>941.4</ele>
        <time>2026-07-08T09:58:16Z</time>
      </trkpt>
      <trkpt lat="43.00522" lon="0.32004">
        <ele>941.4</ele>
        <time>2026-07-08T09:58:16Z</time>
      </trkpt>
      <trkpt lat="43.00523" lon="0.32004">
        <ele>941.4</ele>
        <time>2026-07-08T09:58:17Z</time>
      </trkpt>
      <trkpt lat="43.00523" lon="0.32004">
        <ele>941.4</ele>
        <time>2026-07-08T09:58:17Z</time>
      </trkpt>
      <trkpt lat="43.00524" lon="0.32003">
        <ele>940.4</ele>
        <time>2026-07-08T09:58:18Z</time>
      </trkpt>
      <trkpt lat="43.00524" lon="0.32002">
        <ele>940.4</ele>
        <time>2026-07-08T09:58:19Z</time>
      </trkpt>
      <trkpt lat="43.00525" lon="0.32002">
        <ele>940.4</ele>
        <time>2026-07-08T09:58:20Z</time>
      </trkpt>
      <trkpt lat="43.00526" lon="0.32002">
        <ele>940.4</ele>
        <time>2026-07-08T09:58:20Z</time>
      </trkpt>
      <trkpt lat="43.00526" lon="0.32001">
        <ele>940.4</ele>
        <time>2026-07-08T09:58:21Z</time>
      </trkpt>
      <trkpt lat="43.00527" lon="0.32001">
        <ele>940.4</ele>
        <time>2026-07-08T09:58:22Z</time>
      </trkpt>
      <trkpt lat="43.00527" lon="0.32">
        <ele>939.4</ele>
        <time>2026-07-08T09:58:22Z</time>
      </trkpt>
      <trkpt lat="43.00527" lon="0.32">
        <ele>939.4</ele>
        <time>2026-07-08T09:58:23Z</time>
      </trkpt>
      <trkpt lat="43.00527" lon="0.32">
        <ele>939.4</ele>
        <time>2026-07-08T09:58:23Z</time>
      </trkpt>
      <trkpt lat="43.00527" lon="0.31999">
        <ele>939.4</ele>
        <time>2026-07-08T09:58:24Z</time>
      </trkpt>
      <trkpt lat="43.00527" lon="0.31999">
        <ele>939.4</ele>
        <time>2026-07-08T09:58:24Z</time>
      </trkpt>
      <trkpt lat="43.00528" lon="0.31999">
        <ele>939.4</ele>
        <time>2026-07-08T09:58:25Z</time>
      </trkpt>
      <trkpt lat="43.00528" lon="0.31998">
        <ele>939.4</ele>
        <time>2026-07-08T09:58:25Z</time>
      </trkpt>
      <trkpt lat="43.00528" lon="0.31998">
        <ele>939.4</ele>
        <time>2026-07-08T09:58:26Z</time>
      </trkpt>
      <trkpt lat="43.00529" lon="0.31997">
        <ele>938.4</ele>
        <time>2026-07-08T09:58:27Z</time>
      </trkpt>
      <trkpt lat="43.00529" lon="0.31997">
        <ele>938.4</ele>
        <time>2026-07-08T09:58:28Z</time>
      </trkpt>
      <trkpt lat="43.00529" lon="0.31996">
        <ele>938.4</ele>
        <time>2026-07-08T09:58:28Z</time>
      </trkpt>
      <trkpt lat="43.0053" lon="0.31995">
        <ele>938.4</ele>
        <time>2026-07-08T09:58:29Z</time>
      </trkpt>
      <trkpt lat="43.0053" lon="0.31994">
        <ele>938.4</ele>
        <time>2026-07-08T09:58:30Z</time>
      </trkpt>
      <trkpt lat="43.00529" lon="0.31993">
        <ele>937.4</ele>
        <time>2026-07-08T09:58:30Z</time>
      </trkpt>
      <trkpt lat="43.0053" lon="0.31993">
        <ele>937.4</ele>
        <time>2026-07-08T09:58:31Z</time>
      </trkpt>
      <trkpt lat="43.00529" lon="0.31992">
        <ele>937.4</ele>
        <time>2026-07-08T09:58:31Z</time>
      </trkpt>
      <trkpt lat="43.0053" lon="0.31992">
        <ele>937.4</ele>
        <time>2026-07-08T09:58:32Z</time>
      </trkpt>
      <trkpt lat="43.0053" lon="0.31992">
        <ele>937.4</ele>
        <time>2026-07-08T09:58:32Z</time>
      </trkpt>
      <trkpt lat="43.0053" lon="0.31991">
        <ele>937.4</ele>
        <time>2026-07-08T09:58:33Z</time>
      </trkpt>
      <trkpt lat="43.0053" lon="0.31991">
        <ele>937.4</ele>
        <time>2026-07-08T09:58:34Z</time>
      </trkpt>
      <trkpt lat="43.0053" lon="0.31991">
        <ele>938.4</ele>
        <time>2026-07-08T09:58:34Z</time>
      </trkpt>
      <trkpt lat="43.0053" lon="0.3199">
        <ele>938.4</ele>
        <time>2026-07-08T09:58:35Z</time>
      </trkpt>
      <trkpt lat="43.0053" lon="0.3199">
        <ele>938.4</ele>
        <time>2026-07-08T09:58:35Z</time>
      </trkpt>
      <trkpt lat="43.00531" lon="0.31989">
        <ele>938.4</ele>
        <time>2026-07-08T09:58:36Z</time>
      </trkpt>
      <trkpt lat="43.00531" lon="0.31988">
        <ele>938.4</ele>
        <time>2026-07-08T09:58:36Z</time>
      </trkpt>
      <trkpt lat="43.00531" lon="0.31987">
        <ele>938.4</ele>
        <time>2026-07-08T09:58:37Z</time>
      </trkpt>
      <trkpt lat="43.00531" lon="0.31987">
        <ele>939.4</ele>
        <time>2026-07-08T09:58:38Z</time>
      </trkpt>
      <trkpt lat="43.00532" lon="0.31986">
        <ele>939.4</ele>
        <time>2026-07-08T09:58:39Z</time>
      </trkpt>
      <trkpt lat="43.00533" lon="0.31985">
        <ele>939.4</ele>
        <time>2026-07-08T09:58:40Z</time>
      </trkpt>
      <trkpt lat="43.00534" lon="0.31984">
        <ele>939.4</ele>
        <time>2026-07-08T09:58:41Z</time>
      </trkpt>
      <trkpt lat="43.00534" lon="0.31984">
        <ele>938.4</ele>
        <time>2026-07-08T09:58:41Z</time>
      </trkpt>
      <trkpt lat="43.00534" lon="0.31983">
        <ele>938.4</ele>
        <time>2026-07-08T09:58:42Z</time>
      </trkpt>
      <trkpt lat="43.00534" lon="0.31983">
        <ele>938.4</ele>
        <time>2026-07-08T09:58:42Z</time>
      </trkpt>
      <trkpt lat="43.00535" lon="0.31982">
        <ele>938.4</ele>
        <time>2026-07-08T09:58:43Z</time>
      </trkpt>
      <trkpt lat="43.00535" lon="0.31981">
        <ele>937.4</ele>
        <time>2026-07-08T09:58:44Z</time>
      </trkpt>
      <trkpt lat="43.00536" lon="0.31981">
        <ele>936.4</ele>
        <time>2026-07-08T09:58:44Z</time>
      </trkpt>
      <trkpt lat="43.00536" lon="0.3198">
        <ele>936.4</ele>
        <time>2026-07-08T09:58:45Z</time>
      </trkpt>
      <trkpt lat="43.00537" lon="0.3198">
        <ele>936.4</ele>
        <time>2026-07-08T09:58:46Z</time>
      </trkpt>
      <trkpt lat="43.00538" lon="0.3198">
        <ele>936.4</ele>
        <time>2026-07-08T09:58:46Z</time>
      </trkpt>
      <trkpt lat="43.00538" lon="0.31979">
        <ele>936.4</ele>
        <time>2026-07-08T09:58:47Z</time>
      </trkpt>
      <trkpt lat="43.00538" lon="0.31979">
        <ele>935.4</ele>
        <time>2026-07-08T09:58:47Z</time>
      </trkpt>
      <trkpt lat="43.00539" lon="0.31978">
        <ele>935.4</ele>
        <time>2026-07-08T09:58:48Z</time>
      </trkpt>
      <trkpt lat="43.00539" lon="0.31977">
        <ele>935.4</ele>
        <time>2026-07-08T09:58:49Z</time>
      </trkpt>
      <trkpt lat="43.00539" lon="0.31976">
        <ele>934.4</ele>
        <time>2026-07-08T09:58:50Z</time>
      </trkpt>
      <trkpt lat="43.00539" lon="0.31976">
        <ele>934.4</ele>
        <time>2026-07-08T09:58:51Z</time>
      </trkpt>
      <trkpt lat="43.00539" lon="0.31975">
        <ele>934.4</ele>
        <time>2026-07-08T09:58:51Z</time>
      </trkpt>
      <trkpt lat="43.00539" lon="0.31975">
        <ele>934.4</ele>
        <time>2026-07-08T09:58:51Z</time>
      </trkpt>
      <trkpt lat="43.00539" lon="0.31974">
        <ele>934.4</ele>
        <time>2026-07-08T09:58:52Z</time>
      </trkpt>
      <trkpt lat="43.00539" lon="0.31973">
        <ele>934.4</ele>
        <time>2026-07-08T09:58:53Z</time>
      </trkpt>
      <trkpt lat="43.00539" lon="0.31973">
        <ele>934.4</ele>
        <time>2026-07-08T09:58:53Z</time>
      </trkpt>
      <trkpt lat="43.0054" lon="0.31972">
        <ele>934.4</ele>
        <time>2026-07-08T09:58:54Z</time>
      </trkpt>
      <trkpt lat="43.0054" lon="0.31972">
        <ele>933.4</ele>
        <time>2026-07-08T09:58:54Z</time>
      </trkpt>
      <trkpt lat="43.0054" lon="0.31972">
        <ele>933.4</ele>
        <time>2026-07-08T09:58:55Z</time>
      </trkpt>
      <trkpt lat="43.00541" lon="0.31971">
        <ele>933.4</ele>
        <time>2026-07-08T09:58:56Z</time>
      </trkpt>
      <trkpt lat="43.00541" lon="0.31971">
        <ele>933.4</ele>
        <time>2026-07-08T09:58:57Z</time>
      </trkpt>
      <trkpt lat="43.00542" lon="0.3197">
        <ele>933.4</ele>
        <time>2026-07-08T09:58:57Z</time>
      </trkpt>
      <trkpt lat="43.00542" lon="0.3197">
        <ele>932.4</ele>
        <time>2026-07-08T09:58:58Z</time>
      </trkpt>
      <trkpt lat="43.00543" lon="0.3197">
        <ele>933.4</ele>
        <time>2026-07-08T09:58:58Z</time>
      </trkpt>
      <trkpt lat="43.00543" lon="0.3197">
        <ele>933.4</ele>
        <time>2026-07-08T09:58:59Z</time>
      </trkpt>
      <trkpt lat="43.00543" lon="0.31969">
        <ele>932.4</ele>
        <time>2026-07-08T09:58:59Z</time>
      </trkpt>
      <trkpt lat="43.00544" lon="0.31969">
        <ele>932.4</ele>
        <time>2026-07-08T09:59:00Z</time>
      </trkpt>
      <trkpt lat="43.00544" lon="0.31969">
        <ele>932.4</ele>
        <time>2026-07-08T09:59:00Z</time>
      </trkpt>
      <trkpt lat="43.00545" lon="0.31968">
        <ele>932.4</ele>
        <time>2026-07-08T09:59:01Z</time>
      </trkpt>
      <trkpt lat="43.00546" lon="0.31968">
        <ele>932.4</ele>
        <time>2026-07-08T09:59:01Z</time>
      </trkpt>
      <trkpt lat="43.00546" lon="0.31968">
        <ele>932.4</ele>
        <time>2026-07-08T09:59:02Z</time>
      </trkpt>
      <trkpt lat="43.00547" lon="0.31969">
        <ele>932.4</ele>
        <time>2026-07-08T09:59:03Z</time>
      </trkpt>
      <trkpt lat="43.00548" lon="0.31969">
        <ele>933.4</ele>
        <time>2026-07-08T09:59:03Z</time>
      </trkpt>
      <trkpt lat="43.00548" lon="0.31969">
        <ele>933.4</ele>
        <time>2026-07-08T09:59:04Z</time>
      </trkpt>
      <trkpt lat="43.00549" lon="0.3197">
        <ele>933.4</ele>
        <time>2026-07-08T09:59:04Z</time>
      </trkpt>
      <trkpt lat="43.0055" lon="0.3197">
        <ele>933.4</ele>
        <time>2026-07-08T09:59:05Z</time>
      </trkpt>
      <trkpt lat="43.00551" lon="0.31969">
        <ele>933.4</ele>
        <time>2026-07-08T09:59:06Z</time>
      </trkpt>
      <trkpt lat="43.00551" lon="0.31969">
        <ele>933.4</ele>
        <time>2026-07-08T09:59:07Z</time>
      </trkpt>
      <trkpt lat="43.00551" lon="0.31968">
        <ele>932.4</ele>
        <time>2026-07-08T09:59:07Z</time>
      </trkpt>
      <trkpt lat="43.00552" lon="0.31968">
        <ele>932.4</ele>
        <time>2026-07-08T09:59:08Z</time>
      </trkpt>
      <trkpt lat="43.00553" lon="0.31967">
        <ele>932.4</ele>
        <time>2026-07-08T09:59:09Z</time>
      </trkpt>
      <trkpt lat="43.00553" lon="0.31967">
        <ele>932.4</ele>
        <time>2026-07-08T09:59:09Z</time>
      </trkpt>
      <trkpt lat="43.00554" lon="0.31967">
        <ele>931.4</ele>
        <time>2026-07-08T09:59:10Z</time>
      </trkpt>
      <trkpt lat="43.00554" lon="0.31966">
        <ele>931.4</ele>
        <time>2026-07-08T09:59:11Z</time>
      </trkpt>
      <trkpt lat="43.00555" lon="0.31966">
        <ele>932.4</ele>
        <time>2026-07-08T09:59:11Z</time>
      </trkpt>
      <trkpt lat="43.00555" lon="0.31966">
        <ele>932.4</ele>
        <time>2026-07-08T09:59:12Z</time>
      </trkpt>
      <trkpt lat="43.00556" lon="0.31966">
        <ele>932.4</ele>
        <time>2026-07-08T09:59:13Z</time>
      </trkpt>
      <trkpt lat="43.00556" lon="0.31966">
        <ele>931.4</ele>
        <time>2026-07-08T09:59:14Z</time>
      </trkpt>
      <trkpt lat="43.00557" lon="0.31966">
        <ele>931.4</ele>
        <time>2026-07-08T09:59:14Z</time>
      </trkpt>
      <trkpt lat="43.00557" lon="0.31966">
        <ele>931.4</ele>
        <time>2026-07-08T09:59:15Z</time>
      </trkpt>
      <trkpt lat="43.00557" lon="0.31965">
        <ele>931.4</ele>
        <time>2026-07-08T09:59:16Z</time>
      </trkpt>
      <trkpt lat="43.00557" lon="0.31964">
        <ele>931.4</ele>
        <time>2026-07-08T09:59:16Z</time>
      </trkpt>
      <trkpt lat="43.00557" lon="0.31964">
        <ele>931.4</ele>
        <time>2026-07-08T09:59:17Z</time>
      </trkpt>
      <trkpt lat="43.00558" lon="0.31964">
        <ele>931.4</ele>
        <time>2026-07-08T09:59:17Z</time>
      </trkpt>
      <trkpt lat="43.00558" lon="0.31963">
        <ele>930.4</ele>
        <time>2026-07-08T09:59:18Z</time>
      </trkpt>
      <trkpt lat="43.00559" lon="0.31962">
        <ele>930.4</ele>
        <time>2026-07-08T09:59:19Z</time>
      </trkpt>
      <trkpt lat="43.00559" lon="0.31961">
        <ele>930.4</ele>
        <time>2026-07-08T09:59:20Z</time>
      </trkpt>
      <trkpt lat="43.00559" lon="0.3196">
        <ele>929.4</ele>
        <time>2026-07-08T09:59:21Z</time>
      </trkpt>
      <trkpt lat="43.0056" lon="0.31959">
        <ele>929.4</ele>
        <time>2026-07-08T09:59:21Z</time>
      </trkpt>
      <trkpt lat="43.0056" lon="0.31959">
        <ele>928.4</ele>
        <time>2026-07-08T09:59:22Z</time>
      </trkpt>
      <trkpt lat="43.0056" lon="0.31959">
        <ele>928.4</ele>
        <time>2026-07-08T09:59:23Z</time>
      </trkpt>
      <trkpt lat="43.00561" lon="0.31958">
        <ele>928.4</ele>
        <time>2026-07-08T09:59:23Z</time>
      </trkpt>
      <trkpt lat="43.00561" lon="0.31958">
        <ele>928.4</ele>
        <time>2026-07-08T09:59:24Z</time>
      </trkpt>
      <trkpt lat="43.00562" lon="0.31958">
        <ele>927.4</ele>
        <time>2026-07-08T09:59:25Z</time>
      </trkpt>
      <trkpt lat="43.00562" lon="0.31958">
        <ele>927.4</ele>
        <time>2026-07-08T09:59:25Z</time>
      </trkpt>
      <trkpt lat="43.00563" lon="0.31957">
        <ele>927.4</ele>
        <time>2026-07-08T09:59:26Z</time>
      </trkpt>
      <trkpt lat="43.00563" lon="0.31956">
        <ele>926.4</ele>
        <time>2026-07-08T09:59:27Z</time>
      </trkpt>
      <trkpt lat="43.00564" lon="0.31956">
        <ele>926.4</ele>
        <time>2026-07-08T09:59:27Z</time>
      </trkpt>
      <trkpt lat="43.00564" lon="0.31955">
        <ele>926.4</ele>
        <time>2026-07-08T09:59:28Z</time>
      </trkpt>
      <trkpt lat="43.00565" lon="0.31955">
        <ele>926.4</ele>
        <time>2026-07-08T09:59:29Z</time>
      </trkpt>
      <trkpt lat="43.00566" lon="0.31954">
        <ele>926.4</ele>
        <time>2026-07-08T09:59:30Z</time>
      </trkpt>
      <trkpt lat="43.00566" lon="0.31954">
        <ele>926.4</ele>
        <time>2026-07-08T09:59:31Z</time>
      </trkpt>
      <trkpt lat="43.00567" lon="0.31954">
        <ele>926.4</ele>
        <time>2026-07-08T09:59:31Z</time>
      </trkpt>
      <trkpt lat="43.00568" lon="0.31954">
        <ele>926.4</ele>
        <time>2026-07-08T09:59:32Z</time>
      </trkpt>
      <trkpt lat="43.00568" lon="0.31954">
        <ele>924.4</ele>
        <time>2026-07-08T09:59:33Z</time>
      </trkpt>
      <trkpt lat="43.00568" lon="0.31954">
        <ele>924.4</ele>
        <time>2026-07-08T09:59:34Z</time>
      </trkpt>
      <trkpt lat="43.00568" lon="0.31953">
        <ele>924.4</ele>
        <time>2026-07-08T09:59:35Z</time>
      </trkpt>
      <trkpt lat="43.00568" lon="0.31953">
        <ele>924.4</ele>
        <time>2026-07-08T09:59:35Z</time>
      </trkpt>
      <trkpt lat="43.00569" lon="0.31952">
        <ele>925.4</ele>
        <time>2026-07-08T09:59:36Z</time>
      </trkpt>
      <trkpt lat="43.00569" lon="0.31951">
        <ele>925.4</ele>
        <time>2026-07-08T09:59:37Z</time>
      </trkpt>
      <trkpt lat="43.0057" lon="0.31951">
        <ele>925.4</ele>
        <time>2026-07-08T09:59:37Z</time>
      </trkpt>
      <trkpt lat="43.00571" lon="0.31951">
        <ele>925.4</ele>
        <time>2026-07-08T09:59:38Z</time>
      </trkpt>
      <trkpt lat="43.00571" lon="0.3195">
        <ele>925.4</ele>
        <time>2026-07-08T09:59:39Z</time>
      </trkpt>
      <trkpt lat="43.00572" lon="0.3195">
        <ele>925.4</ele>
        <time>2026-07-08T09:59:39Z</time>
      </trkpt>
      <trkpt lat="43.00572" lon="0.31949">
        <ele>925.4</ele>
        <time>2026-07-08T09:59:40Z</time>
      </trkpt>
      <trkpt lat="43.00573" lon="0.31949">
        <ele>924.4</ele>
        <time>2026-07-08T09:59:40Z</time>
      </trkpt>
      <trkpt lat="43.00573" lon="0.31948">
        <ele>924.4</ele>
        <time>2026-07-08T09:59:41Z</time>
      </trkpt>
      <trkpt lat="43.00574" lon="0.31948">
        <ele>924.4</ele>
        <time>2026-07-08T09:59:41Z</time>
      </trkpt>
      <trkpt lat="43.00574" lon="0.31947">
        <ele>924.4</ele>
        <time>2026-07-08T09:59:42Z</time>
      </trkpt>
      <trkpt lat="43.00575" lon="0.31946">
        <ele>924.4</ele>
        <time>2026-07-08T09:59:43Z</time>
      </trkpt>
      <trkpt lat="43.00575" lon="0.31946">
        <ele>924.4</ele>
        <time>2026-07-08T09:59:44Z</time>
      </trkpt>
      <trkpt lat="43.00576" lon="0.31946">
        <ele>924.4</ele>
        <time>2026-07-08T09:59:45Z</time>
      </trkpt>
      <trkpt lat="43.00577" lon="0.31945">
        <ele>924.4</ele>
        <time>2026-07-08T09:59:45Z</time>
      </trkpt>
      <trkpt lat="43.00577" lon="0.31945">
        <ele>924.4</ele>
        <time>2026-07-08T09:59:46Z</time>
      </trkpt>
      <trkpt lat="43.00578" lon="0.31944">
        <ele>924.4</ele>
        <time>2026-07-08T09:59:47Z</time>
      </trkpt>
      <trkpt lat="43.00579" lon="0.31944">
        <ele>924.4</ele>
        <time>2026-07-08T09:59:47Z</time>
      </trkpt>
      <trkpt lat="43.00579" lon="0.31943">
        <ele>924.4</ele>
        <time>2026-07-08T09:59:48Z</time>
      </trkpt>
      <trkpt lat="43.0058" lon="0.31942">
        <ele>924.4</ele>
        <time>2026-07-08T09:59:49Z</time>
      </trkpt>
      <trkpt lat="43.00581" lon="0.31941">
        <ele>925.4</ele>
        <time>2026-07-08T09:59:49Z</time>
      </trkpt>
      <trkpt lat="43.00582" lon="0.31941">
        <ele>925.4</ele>
        <time>2026-07-08T09:59:50Z</time>
      </trkpt>
      <trkpt lat="43.00583" lon="0.3194">
        <ele>925.4</ele>
        <time>2026-07-08T09:59:51Z</time>
      </trkpt>
      <trkpt lat="43.00584" lon="0.31939">
        <ele>924.4</ele>
        <time>2026-07-08T09:59:52Z</time>
      </trkpt>
      <trkpt lat="43.00585" lon="0.31938">
        <ele>924.4</ele>
        <time>2026-07-08T09:59:53Z</time>
      </trkpt>
      <trkpt lat="43.00585" lon="0.31938">
        <ele>924.4</ele>
        <time>2026-07-08T09:59:54Z</time>
      </trkpt>
      <trkpt lat="43.00585" lon="0.31937">
        <ele>924.4</ele>
        <time>2026-07-08T09:59:54Z</time>
      </trkpt>
      <trkpt lat="43.00586" lon="0.31937">
        <ele>924.4</ele>
        <time>2026-07-08T09:59:55Z</time>
      </trkpt>
      <trkpt lat="43.00586" lon="0.31936">
        <ele>924.4</ele>
        <time>2026-07-08T09:59:55Z</time>
      </trkpt>
      <trkpt lat="43.00586" lon="0.31936">
        <ele>924.4</ele>
        <time>2026-07-08T09:59:56Z</time>
      </trkpt>
      <trkpt lat="43.00587" lon="0.31935">
        <ele>925.4</ele>
        <time>2026-07-08T09:59:57Z</time>
      </trkpt>
      <trkpt lat="43.00588" lon="0.31934">
        <ele>924.4</ele>
        <time>2026-07-08T09:59:58Z</time>
      </trkpt>
      <trkpt lat="43.00588" lon="0.31934">
        <ele>925.4</ele>
        <time>2026-07-08T09:59:58Z</time>
      </trkpt>
      <trkpt lat="43.00588" lon="0.31933">
        <ele>925.4</ele>
        <time>2026-07-08T09:59:59Z</time>
      </trkpt>
      <trkpt lat="43.00589" lon="0.31933">
        <ele>925.4</ele>
        <time>2026-07-08T10:00:00Z</time>
      </trkpt>
      <trkpt lat="43.0059" lon="0.31932">
        <ele>925.4</ele>
        <time>2026-07-08T10:00:00Z</time>
      </trkpt>
      <trkpt lat="43.0059" lon="0.31932">
        <ele>925.4</ele>
        <time>2026-07-08T10:00:01Z</time>
      </trkpt>
      <trkpt lat="43.00591" lon="0.31931">
        <ele>925.4</ele>
        <time>2026-07-08T10:00:01Z</time>
      </trkpt>
      <trkpt lat="43.00591" lon="0.31931">
        <ele>925.4</ele>
        <time>2026-07-08T10:00:02Z</time>
      </trkpt>
      <trkpt lat="43.00592" lon="0.31931">
        <ele>925.4</ele>
        <time>2026-07-08T10:00:03Z</time>
      </trkpt>
      <trkpt lat="43.00592" lon="0.3193">
        <ele>925.4</ele>
        <time>2026-07-08T10:00:03Z</time>
      </trkpt>
      <trkpt lat="43.00593" lon="0.3193">
        <ele>925.4</ele>
        <time>2026-07-08T10:00:04Z</time>
      </trkpt>
      <trkpt lat="43.00594" lon="0.31929">
        <ele>925.4</ele>
        <time>2026-07-08T10:00:05Z</time>
      </trkpt>
      <trkpt lat="43.00594" lon="0.31929">
        <ele>924.4</ele>
        <time>2026-07-08T10:00:06Z</time>
      </trkpt>
      <trkpt lat="43.00595" lon="0.31929">
        <ele>924.4</ele>
        <time>2026-07-08T10:00:06Z</time>
      </trkpt>
      <trkpt lat="43.00596" lon="0.31929">
        <ele>924.4</ele>
        <time>2026-07-08T10:00:07Z</time>
      </trkpt>
      <trkpt lat="43.00596" lon="0.31929">
        <ele>923.4</ele>
        <time>2026-07-08T10:00:08Z</time>
      </trkpt>
      <trkpt lat="43.00596" lon="0.31929">
        <ele>923.4</ele>
        <time>2026-07-08T10:00:08Z</time>
      </trkpt>
      <trkpt lat="43.00597" lon="0.31929">
        <ele>923.4</ele>
        <time>2026-07-08T10:00:09Z</time>
      </trkpt>
      <trkpt lat="43.00597" lon="0.31929">
        <ele>923.4</ele>
        <time>2026-07-08T10:00:09Z</time>
      </trkpt>
      <trkpt lat="43.00597" lon="0.31929">
        <ele>924.4</ele>
        <time>2026-07-08T10:00:10Z</time>
      </trkpt>
      <trkpt lat="43.00598" lon="0.31928">
        <ele>924.4</ele>
        <time>2026-07-08T10:00:11Z</time>
      </trkpt>
      <trkpt lat="43.00598" lon="0.31928">
        <ele>923.4</ele>
        <time>2026-07-08T10:00:11Z</time>
      </trkpt>
      <trkpt lat="43.00599" lon="0.31928">
        <ele>923.4</ele>
        <time>2026-07-08T10:00:12Z</time>
      </trkpt>
      <trkpt lat="43.00599" lon="0.31927">
        <ele>923.4</ele>
        <time>2026-07-08T10:00:12Z</time>
      </trkpt>
      <trkpt lat="43.006" lon="0.31927">
        <ele>923.4</ele>
        <time>2026-07-08T10:00:13Z</time>
      </trkpt>
      <trkpt lat="43.006" lon="0.31926">
        <ele>923.4</ele>
        <time>2026-07-08T10:00:13Z</time>
      </trkpt>
      <trkpt lat="43.006" lon="0.31926">
        <ele>922.4</ele>
        <time>2026-07-08T10:00:14Z</time>
      </trkpt>
      <trkpt lat="43.00601" lon="0.31925">
        <ele>922.4</ele>
        <time>2026-07-08T10:00:15Z</time>
      </trkpt>
      <trkpt lat="43.00601" lon="0.31925">
        <ele>922.4</ele>
        <time>2026-07-08T10:00:15Z</time>
      </trkpt>
      <trkpt lat="43.00602" lon="0.31925">
        <ele>922.4</ele>
        <time>2026-07-08T10:00:16Z</time>
      </trkpt>
      <trkpt lat="43.00602" lon="0.31925">
        <ele>921.4</ele>
        <time>2026-07-08T10:00:16Z</time>
      </trkpt>
      <trkpt lat="43.00603" lon="0.31924">
        <ele>921.4</ele>
        <time>2026-07-08T10:00:17Z</time>
      </trkpt>
      <trkpt lat="43.00603" lon="0.31924">
        <ele>921.4</ele>
        <time>2026-07-08T10:00:17Z</time>
      </trkpt>
      <trkpt lat="43.00603" lon="0.31924">
        <ele>920.4</ele>
        <time>2026-07-08T10:00:18Z</time>
      </trkpt>
      <trkpt lat="43.00604" lon="0.31923">
        <ele>920.4</ele>
        <time>2026-07-08T10:00:19Z</time>
      </trkpt>
      <trkpt lat="43.00605" lon="0.31923">
        <ele>919.4</ele>
        <time>2026-07-08T10:00:19Z</time>
      </trkpt>
      <trkpt lat="43.00605" lon="0.31924">
        <ele>919.4</ele>
        <time>2026-07-08T10:00:20Z</time>
      </trkpt>
      <trkpt lat="43.00606" lon="0.31924">
        <ele>919.4</ele>
        <time>2026-07-08T10:00:20Z</time>
      </trkpt>
      <trkpt lat="43.00606" lon="0.31925">
        <ele>919.4</ele>
        <time>2026-07-08T10:00:21Z</time>
      </trkpt>
      <trkpt lat="43.00606" lon="0.31927">
        <ele>919.4</ele>
        <time>2026-07-08T10:00:22Z</time>
      </trkpt>
      <trkpt lat="43.00606" lon="0.31928">
        <ele>919.4</ele>
        <time>2026-07-08T10:00:22Z</time>
      </trkpt>
      <trkpt lat="43.00606" lon="0.31929">
        <ele>918.4</ele>
        <time>2026-07-08T10:00:23Z</time>
      </trkpt>
      <trkpt lat="43.00605" lon="0.3193">
        <ele>918.4</ele>
        <time>2026-07-08T10:00:23Z</time>
      </trkpt>
      <trkpt lat="43.00605" lon="0.3193">
        <ele>918.4</ele>
        <time>2026-07-08T10:00:24Z</time>
      </trkpt>
      <trkpt lat="43.00604" lon="0.31932">
        <ele>918.4</ele>
        <time>2026-07-08T10:00:25Z</time>
      </trkpt>
      <trkpt lat="43.00603" lon="0.31933">
        <ele>917.4</ele>
        <time>2026-07-08T10:00:26Z</time>
      </trkpt>
      <trkpt lat="43.00602" lon="0.31934">
        <ele>917.4</ele>
        <time>2026-07-08T10:00:27Z</time>
      </trkpt>
      <trkpt lat="43.00601" lon="0.31935">
        <ele>918.4</ele>
        <time>2026-07-08T10:00:28Z</time>
      </trkpt>
      <trkpt lat="43.00601" lon="0.31936">
        <ele>917.4</ele>
        <time>2026-07-08T10:00:28Z</time>
      </trkpt>
      <trkpt lat="43.006" lon="0.31937">
        <ele>918.4</ele>
        <time>2026-07-08T10:00:29Z</time>
      </trkpt>
      <trkpt lat="43.00599" lon="0.31938">
        <ele>918.4</ele>
        <time>2026-07-08T10:00:30Z</time>
      </trkpt>
      <trkpt lat="43.00599" lon="0.31938">
        <ele>917.4</ele>
        <time>2026-07-08T10:00:30Z</time>
      </trkpt>
      <trkpt lat="43.00598" lon="0.31939">
        <ele>917.4</ele>
        <time>2026-07-08T10:00:31Z</time>
      </trkpt>
      <trkpt lat="43.00598" lon="0.31941">
        <ele>917.4</ele>
        <time>2026-07-08T10:00:32Z</time>
      </trkpt>
      <trkpt lat="43.00597" lon="0.31941">
        <ele>917.4</ele>
        <time>2026-07-08T10:00:33Z</time>
      </trkpt>
      <trkpt lat="43.00597" lon="0.31942">
        <ele>916.4</ele>
        <time>2026-07-08T10:00:33Z</time>
      </trkpt>
      <trkpt lat="43.00597" lon="0.31943">
        <ele>916.4</ele>
        <time>2026-07-08T10:00:34Z</time>
      </trkpt>
      <trkpt lat="43.00597" lon="0.31943">
        <ele>916.4</ele>
        <time>2026-07-08T10:00:34Z</time>
      </trkpt>
      <trkpt lat="43.00596" lon="0.31944">
        <ele>916.4</ele>
        <time>2026-07-08T10:00:35Z</time>
      </trkpt>
      <trkpt lat="43.00596" lon="0.31945">
        <ele>917.4</ele>
        <time>2026-07-08T10:00:36Z</time>
      </trkpt>
      <trkpt lat="43.00596" lon="0.31945">
        <ele>916.4</ele>
        <time>2026-07-08T10:00:36Z</time>
      </trkpt>
      <trkpt lat="43.00595" lon="0.31946">
        <ele>916.4</ele>
        <time>2026-07-08T10:00:37Z</time>
      </trkpt>
      <trkpt lat="43.00595" lon="0.31946">
        <ele>915.4</ele>
        <time>2026-07-08T10:00:37Z</time>
      </trkpt>
      <trkpt lat="43.00595" lon="0.31947">
        <ele>915.4</ele>
        <time>2026-07-08T10:00:38Z</time>
      </trkpt>
      <trkpt lat="43.00594" lon="0.31948">
        <ele>915.4</ele>
        <time>2026-07-08T10:00:38Z</time>
      </trkpt>
      <trkpt lat="43.00594" lon="0.31949">
        <ele>915.4</ele>
        <time>2026-07-08T10:00:39Z</time>
      </trkpt>
      <trkpt lat="43.00593" lon="0.3195">
        <ele>915.4</ele>
        <time>2026-07-08T10:00:40Z</time>
      </trkpt>
      <trkpt lat="43.00593" lon="0.31951">
        <ele>915.4</ele>
        <time>2026-07-08T10:00:40Z</time>
      </trkpt>
      <trkpt lat="43.00594" lon="0.31952">
        <ele>915.4</ele>
        <time>2026-07-08T10:00:41Z</time>
      </trkpt>
      <trkpt lat="43.00594" lon="0.31953">
        <ele>915.4</ele>
        <time>2026-07-08T10:00:42Z</time>
      </trkpt>
      <trkpt lat="43.00594" lon="0.31953">
        <ele>915.4</ele>
        <time>2026-07-08T10:00:43Z</time>
      </trkpt>
      <trkpt lat="43.00593" lon="0.31953">
        <ele>916.4</ele>
        <time>2026-07-08T10:00:43Z</time>
      </trkpt>
      <trkpt lat="43.00593" lon="0.31953">
        <ele>916.4</ele>
        <time>2026-07-08T10:00:44Z</time>
      </trkpt>
      <trkpt lat="43.00593" lon="0.31954">
        <ele>916.4</ele>
        <time>2026-07-08T10:00:44Z</time>
      </trkpt>
      <trkpt lat="43.00593" lon="0.31954">
        <ele>916.4</ele>
        <time>2026-07-08T10:00:45Z</time>
      </trkpt>
      <trkpt lat="43.00592" lon="0.31955">
        <ele>916.4</ele>
        <time>2026-07-08T10:00:46Z</time>
      </trkpt>
      <trkpt lat="43.00592" lon="0.31956">
        <ele>916.4</ele>
        <time>2026-07-08T10:00:46Z</time>
      </trkpt>
      <trkpt lat="43.00592" lon="0.31956">
        <ele>917.4</ele>
        <time>2026-07-08T10:00:47Z</time>
      </trkpt>
      <trkpt lat="43.00592" lon="0.31957">
        <ele>917.4</ele>
        <time>2026-07-08T10:00:48Z</time>
      </trkpt>
      <trkpt lat="43.00592" lon="0.31958">
        <ele>917.4</ele>
        <time>2026-07-08T10:00:48Z</time>
      </trkpt>
      <trkpt lat="43.00592" lon="0.31959">
        <ele>917.4</ele>
        <time>2026-07-08T10:00:49Z</time>
      </trkpt>
      <trkpt lat="43.00592" lon="0.3196">
        <ele>918.4</ele>
        <time>2026-07-08T10:00:49Z</time>
      </trkpt>
      <trkpt lat="43.00592" lon="0.31961">
        <ele>918.4</ele>
        <time>2026-07-08T10:00:50Z</time>
      </trkpt>
      <trkpt lat="43.00592" lon="0.31961">
        <ele>918.4</ele>
        <time>2026-07-08T10:00:51Z</time>
      </trkpt>
      <trkpt lat="43.00591" lon="0.31962">
        <ele>917.4</ele>
        <time>2026-07-08T10:00:51Z</time>
      </trkpt>
      <trkpt lat="43.00591" lon="0.31963">
        <ele>917.4</ele>
        <time>2026-07-08T10:00:52Z</time>
      </trkpt>
      <trkpt lat="43.00591" lon="0.31964">
        <ele>918.4</ele>
        <time>2026-07-08T10:00:52Z</time>
      </trkpt>
      <trkpt lat="43.00591" lon="0.31964">
        <ele>918.4</ele>
        <time>2026-07-08T10:00:53Z</time>
      </trkpt>
      <trkpt lat="43.00591" lon="0.31966">
        <ele>918.4</ele>
        <time>2026-07-08T10:00:54Z</time>
      </trkpt>
      <trkpt lat="43.0059" lon="0.31968">
        <ele>918.4</ele>
        <time>2026-07-08T10:00:55Z</time>
      </trkpt>
      <trkpt lat="43.0059" lon="0.31969">
        <ele>918.4</ele>
        <time>2026-07-08T10:00:55Z</time>
      </trkpt>
      <trkpt lat="43.00589" lon="0.31969">
        <ele>918.4</ele>
        <time>2026-07-08T10:00:56Z</time>
      </trkpt>
      <trkpt lat="43.00588" lon="0.3197">
        <ele>918.4</ele>
        <time>2026-07-08T10:00:56Z</time>
      </trkpt>
      <trkpt lat="43.00588" lon="0.3197">
        <ele>918.4</ele>
        <time>2026-07-08T10:00:57Z</time>
      </trkpt>
      <trkpt lat="43.00587" lon="0.31972">
        <ele>918.4</ele>
        <time>2026-07-08T10:00:58Z</time>
      </trkpt>
      <trkpt lat="43.00587" lon="0.31973">
        <ele>918.4</ele>
        <time>2026-07-08T10:00:58Z</time>
      </trkpt>
      <trkpt lat="43.00587" lon="0.31974">
        <ele>918.4</ele>
        <time>2026-07-08T10:00:59Z</time>
      </trkpt>
      <trkpt lat="43.00586" lon="0.31975">
        <ele>917.4</ele>
        <time>2026-07-08T10:01:00Z</time>
      </trkpt>
      <trkpt lat="43.00586" lon="0.31976">
        <ele>917.4</ele>
        <time>2026-07-08T10:01:00Z</time>
      </trkpt>
      <trkpt lat="43.00586" lon="0.31976">
        <ele>917.4</ele>
        <time>2026-07-08T10:01:01Z</time>
      </trkpt>
      <trkpt lat="43.00585" lon="0.31977">
        <ele>917.4</ele>
        <time>2026-07-08T10:01:01Z</time>
      </trkpt>
      <trkpt lat="43.00585" lon="0.31978">
        <ele>917.4</ele>
        <time>2026-07-08T10:01:02Z</time>
      </trkpt>
      <trkpt lat="43.00584" lon="0.31979">
        <ele>918.4</ele>
        <time>2026-07-08T10:01:02Z</time>
      </trkpt>
      <trkpt lat="43.00584" lon="0.3198">
        <ele>918.4</ele>
        <time>2026-07-08T10:01:03Z</time>
      </trkpt>
      <trkpt lat="43.00583" lon="0.31981">
        <ele>918.4</ele>
        <time>2026-07-08T10:01:03Z</time>
      </trkpt>
      <trkpt lat="43.00583" lon="0.31982">
        <ele>918.4</ele>
        <time>2026-07-08T10:01:04Z</time>
      </trkpt>
      <trkpt lat="43.00583" lon="0.31983">
        <ele>918.4</ele>
        <time>2026-07-08T10:01:04Z</time>
      </trkpt>
      <trkpt lat="43.00582" lon="0.31984">
        <ele>918.4</ele>
        <time>2026-07-08T10:01:05Z</time>
      </trkpt>
      <trkpt lat="43.00582" lon="0.31985">
        <ele>918.4</ele>
        <time>2026-07-08T10:01:05Z</time>
      </trkpt>
      <trkpt lat="43.00582" lon="0.31986">
        <ele>918.4</ele>
        <time>2026-07-08T10:01:06Z</time>
      </trkpt>
      <trkpt lat="43.00582" lon="0.31987">
        <ele>918.4</ele>
        <time>2026-07-08T10:01:06Z</time>
      </trkpt>
      <trkpt lat="43.00581" lon="0.31987">
        <ele>917.4</ele>
        <time>2026-07-08T10:01:07Z</time>
      </trkpt>
      <trkpt lat="43.00581" lon="0.31988">
        <ele>917.4</ele>
        <time>2026-07-08T10:01:08Z</time>
      </trkpt>
      <trkpt lat="43.0058" lon="0.31989">
        <ele>917.4</ele>
        <time>2026-07-08T10:01:08Z</time>
      </trkpt>
      <trkpt lat="43.0058" lon="0.3199">
        <ele>917.4</ele>
        <time>2026-07-08T10:01:09Z</time>
      </trkpt>
      <trkpt lat="43.0058" lon="0.31992">
        <ele>917.4</ele>
        <time>2026-07-08T10:01:09Z</time>
      </trkpt>
      <trkpt lat="43.0058" lon="0.31993">
        <ele>917.4</ele>
        <time>2026-07-08T10:01:10Z</time>
      </trkpt>
      <trkpt lat="43.00579" lon="0.31994">
        <ele>917.4</ele>
        <time>2026-07-08T10:01:11Z</time>
      </trkpt>
      <trkpt lat="43.00579" lon="0.31995">
        <ele>917.4</ele>
        <time>2026-07-08T10:01:11Z</time>
      </trkpt>
      <trkpt lat="43.00579" lon="0.31996">
        <ele>916.4</ele>
        <time>2026-07-08T10:01:12Z</time>
      </trkpt>
      <trkpt lat="43.00578" lon="0.31997">
        <ele>916.4</ele>
        <time>2026-07-08T10:01:13Z</time>
      </trkpt>
      <trkpt lat="43.00577" lon="0.31998">
        <ele>916.4</ele>
        <time>2026-07-08T10:01:13Z</time>
      </trkpt>
      <trkpt lat="43.00577" lon="0.31998">
        <ele>916.4</ele>
        <time>2026-07-08T10:01:14Z</time>
      </trkpt>
      <trkpt lat="43.00576" lon="0.31999">
        <ele>917.4</ele>
        <time>2026-07-08T10:01:14Z</time>
      </trkpt>
      <trkpt lat="43.00576" lon="0.31999">
        <ele>917.4</ele>
        <time>2026-07-08T10:01:15Z</time>
      </trkpt>
      <trkpt lat="43.00575" lon="0.32">
        <ele>917.4</ele>
        <time>2026-07-08T10:01:15Z</time>
      </trkpt>
      <trkpt lat="43.00575" lon="0.32">
        <ele>917.4</ele>
        <time>2026-07-08T10:01:16Z</time>
      </trkpt>
      <trkpt lat="43.00574" lon="0.32001">
        <ele>917.4</ele>
        <time>2026-07-08T10:01:17Z</time>
      </trkpt>
      <trkpt lat="43.00573" lon="0.32003">
        <ele>916.4</ele>
        <time>2026-07-08T10:01:18Z</time>
      </trkpt>
      <trkpt lat="43.00573" lon="0.32004">
        <ele>916.4</ele>
        <time>2026-07-08T10:01:19Z</time>
      </trkpt>
      <trkpt lat="43.00573" lon="0.32005">
        <ele>916.4</ele>
        <time>2026-07-08T10:01:19Z</time>
      </trkpt>
      <trkpt lat="43.00572" lon="0.32006">
        <ele>916.4</ele>
        <time>2026-07-08T10:01:20Z</time>
      </trkpt>
      <trkpt lat="43.00572" lon="0.32007">
        <ele>915.4</ele>
        <time>2026-07-08T10:01:21Z</time>
      </trkpt>
      <trkpt lat="43.00571" lon="0.32009">
        <ele>916.4</ele>
        <time>2026-07-08T10:01:22Z</time>
      </trkpt>
      <trkpt lat="43.0057" lon="0.3201">
        <ele>916.4</ele>
        <time>2026-07-08T10:01:23Z</time>
      </trkpt>
      <trkpt lat="43.0057" lon="0.32012">
        <ele>915.4</ele>
        <time>2026-07-08T10:01:24Z</time>
      </trkpt>
      <trkpt lat="43.0057" lon="0.32013">
        <ele>915.4</ele>
        <time>2026-07-08T10:01:25Z</time>
      </trkpt>
      <trkpt lat="43.0057" lon="0.32013">
        <ele>914.4</ele>
        <time>2026-07-08T10:01:25Z</time>
      </trkpt>
      <trkpt lat="43.00569" lon="0.32014">
        <ele>914.4</ele>
        <time>2026-07-08T10:01:26Z</time>
      </trkpt>
      <trkpt lat="43.00569" lon="0.32016">
        <ele>915.4</ele>
        <time>2026-07-08T10:01:27Z</time>
      </trkpt>
      <trkpt lat="43.00569" lon="0.32017">
        <ele>915.4</ele>
        <time>2026-07-08T10:01:27Z</time>
      </trkpt>
      <trkpt lat="43.00569" lon="0.32017">
        <ele>915.4</ele>
        <time>2026-07-08T10:01:28Z</time>
      </trkpt>
      <trkpt lat="43.00569" lon="0.32018">
        <ele>915.4</ele>
        <time>2026-07-08T10:01:28Z</time>
      </trkpt>
      <trkpt lat="43.00569" lon="0.32019">
        <ele>914.4</ele>
        <time>2026-07-08T10:01:29Z</time>
      </trkpt>
      <trkpt lat="43.00569" lon="0.32021">
        <ele>914.4</ele>
        <time>2026-07-08T10:01:30Z</time>
      </trkpt>
      <trkpt lat="43.00569" lon="0.32022">
        <ele>915.4</ele>
        <time>2026-07-08T10:01:31Z</time>
      </trkpt>
      <trkpt lat="43.00569" lon="0.32023">
        <ele>915.4</ele>
        <time>2026-07-08T10:01:31Z</time>
      </trkpt>
      <trkpt lat="43.00569" lon="0.32024">
        <ele>915.4</ele>
        <time>2026-07-08T10:01:32Z</time>
      </trkpt>
      <trkpt lat="43.00569" lon="0.32024">
        <ele>915.4</ele>
        <time>2026-07-08T10:01:32Z</time>
      </trkpt>
      <trkpt lat="43.00569" lon="0.32025">
        <ele>915.4</ele>
        <time>2026-07-08T10:01:33Z</time>
      </trkpt>
      <trkpt lat="43.00568" lon="0.32027">
        <ele>915.4</ele>
        <time>2026-07-08T10:01:34Z</time>
      </trkpt>
      <trkpt lat="43.00568" lon="0.32028">
        <ele>915.4</ele>
        <time>2026-07-08T10:01:35Z</time>
      </trkpt>
      <trkpt lat="43.00568" lon="0.32029">
        <ele>915.4</ele>
        <time>2026-07-08T10:01:35Z</time>
      </trkpt>
      <trkpt lat="43.00568" lon="0.3203">
        <ele>915.4</ele>
        <time>2026-07-08T10:01:36Z</time>
      </trkpt>
      <trkpt lat="43.00567" lon="0.32031">
        <ele>915.4</ele>
        <time>2026-07-08T10:01:37Z</time>
      </trkpt>
      <trkpt lat="43.00567" lon="0.32033">
        <ele>914.4</ele>
        <time>2026-07-08T10:01:38Z</time>
      </trkpt>
      <trkpt lat="43.00567" lon="0.32033">
        <ele>914.4</ele>
        <time>2026-07-08T10:01:38Z</time>
      </trkpt>
      <trkpt lat="43.00567" lon="0.32034">
        <ele>914.4</ele>
        <time>2026-07-08T10:01:39Z</time>
      </trkpt>
      <trkpt lat="43.00567" lon="0.32035">
        <ele>914.4</ele>
        <time>2026-07-08T10:01:39Z</time>
      </trkpt>
      <trkpt lat="43.00567" lon="0.32036">
        <ele>913.4</ele>
        <time>2026-07-08T10:01:40Z</time>
      </trkpt>
      <trkpt lat="43.00567" lon="0.32037">
        <ele>913.4</ele>
        <time>2026-07-08T10:01:41Z</time>
      </trkpt>
      <trkpt lat="43.00567" lon="0.32038">
        <ele>913.4</ele>
        <time>2026-07-08T10:01:41Z</time>
      </trkpt>
      <trkpt lat="43.00567" lon="0.32039">
        <ele>913.4</ele>
        <time>2026-07-08T10:01:42Z</time>
      </trkpt>
      <trkpt lat="43.00567" lon="0.3204">
        <ele>913.4</ele>
        <time>2026-07-08T10:01:42Z</time>
      </trkpt>
      <trkpt lat="43.00567" lon="0.3204">
        <ele>913.4</ele>
        <time>2026-07-08T10:01:43Z</time>
      </trkpt>
      <trkpt lat="43.00567" lon="0.32041">
        <ele>913.4</ele>
        <time>2026-07-08T10:01:43Z</time>
      </trkpt>
      <trkpt lat="43.00567" lon="0.32042">
        <ele>912.4</ele>
        <time>2026-07-08T10:01:44Z</time>
      </trkpt>
      <trkpt lat="43.00567" lon="0.32043">
        <ele>912.4</ele>
        <time>2026-07-08T10:01:45Z</time>
      </trkpt>
      <trkpt lat="43.00567" lon="0.32044">
        <ele>912.4</ele>
        <time>2026-07-08T10:01:45Z</time>
      </trkpt>
      <trkpt lat="43.00567" lon="0.32045">
        <ele>912.4</ele>
        <time>2026-07-08T10:01:46Z</time>
      </trkpt>
      <trkpt lat="43.00567" lon="0.32046">
        <ele>912.4</ele>
        <time>2026-07-08T10:01:46Z</time>
      </trkpt>
      <trkpt lat="43.00567" lon="0.32046">
        <ele>912.4</ele>
        <time>2026-07-08T10:01:47Z</time>
      </trkpt>
      <trkpt lat="43.00567" lon="0.32047">
        <ele>912.4</ele>
        <time>2026-07-08T10:01:48Z</time>
      </trkpt>
      <trkpt lat="43.00567" lon="0.32049">
        <ele>912.4</ele>
        <time>2026-07-08T10:01:49Z</time>
      </trkpt>
      <trkpt lat="43.00567" lon="0.32051">
        <ele>912.4</ele>
        <time>2026-07-08T10:01:50Z</time>
      </trkpt>
      <trkpt lat="43.00567" lon="0.32051">
        <ele>911.4</ele>
        <time>2026-07-08T10:01:50Z</time>
      </trkpt>
      <trkpt lat="43.00567" lon="0.32052">
        <ele>911.4</ele>
        <time>2026-07-08T10:01:51Z</time>
      </trkpt>
      <trkpt lat="43.00567" lon="0.32053">
        <ele>911.4</ele>
        <time>2026-07-08T10:01:51Z</time>
      </trkpt>
      <trkpt lat="43.00567" lon="0.32054">
        <ele>911.4</ele>
        <time>2026-07-08T10:01:52Z</time>
      </trkpt>
      <trkpt lat="43.00567" lon="0.32055">
        <ele>911.4</ele>
        <time>2026-07-08T10:01:53Z</time>
      </trkpt>
      <trkpt lat="43.00567" lon="0.32056">
        <ele>912.4</ele>
        <time>2026-07-08T10:01:53Z</time>
      </trkpt>
      <trkpt lat="43.00566" lon="0.32057">
        <ele>912.4</ele>
        <time>2026-07-08T10:01:54Z</time>
      </trkpt>
      <trkpt lat="43.00566" lon="0.32058">
        <ele>912.4</ele>
        <time>2026-07-08T10:01:54Z</time>
      </trkpt>
      <trkpt lat="43.00566" lon="0.32059">
        <ele>912.4</ele>
        <time>2026-07-08T10:01:55Z</time>
      </trkpt>
      <trkpt lat="43.00566" lon="0.3206">
        <ele>912.4</ele>
        <time>2026-07-08T10:01:56Z</time>
      </trkpt>
      <trkpt lat="43.00566" lon="0.32062">
        <ele>912.4</ele>
        <time>2026-07-08T10:01:57Z</time>
      </trkpt>
      <trkpt lat="43.00566" lon="0.32064">
        <ele>912.4</ele>
        <time>2026-07-08T10:01:58Z</time>
      </trkpt>
      <trkpt lat="43.00566" lon="0.32064">
        <ele>912.4</ele>
        <time>2026-07-08T10:01:58Z</time>
      </trkpt>
      <trkpt lat="43.00565" lon="0.32065">
        <ele>912.4</ele>
        <time>2026-07-08T10:01:59Z</time>
      </trkpt>
      <trkpt lat="43.00565" lon="0.32067">
        <ele>911.4</ele>
        <time>2026-07-08T10:02:00Z</time>
      </trkpt>
      <trkpt lat="43.00565" lon="0.32068">
        <ele>911.4</ele>
        <time>2026-07-08T10:02:00Z</time>
      </trkpt>
      <trkpt lat="43.00565" lon="0.32068">
        <ele>911.4</ele>
        <time>2026-07-08T10:02:01Z</time>
      </trkpt>
      <trkpt lat="43.00565" lon="0.32069">
        <ele>911.4</ele>
        <time>2026-07-08T10:02:01Z</time>
      </trkpt>
      <trkpt lat="43.00565" lon="0.3207">
        <ele>911.4</ele>
        <time>2026-07-08T10:02:02Z</time>
      </trkpt>
      <trkpt lat="43.00565" lon="0.32071">
        <ele>911.4</ele>
        <time>2026-07-08T10:02:03Z</time>
      </trkpt>
      <trkpt lat="43.00565" lon="0.32071">
        <ele>911.4</ele>
        <time>2026-07-08T10:02:03Z</time>
      </trkpt>
      <trkpt lat="43.00565" lon="0.32072">
        <ele>911.4</ele>
        <time>2026-07-08T10:02:04Z</time>
      </trkpt>
      <trkpt lat="43.00565" lon="0.32073">
        <ele>910.4</ele>
        <time>2026-07-08T10:02:04Z</time>
      </trkpt>
      <trkpt lat="43.00565" lon="0.32074">
        <ele>910.4</ele>
        <time>2026-07-08T10:02:05Z</time>
      </trkpt>
      <trkpt lat="43.00564" lon="0.32074">
        <ele>910.4</ele>
        <time>2026-07-08T10:02:05Z</time>
      </trkpt>
      <trkpt lat="43.00564" lon="0.32076">
        <ele>910.4</ele>
        <time>2026-07-08T10:02:06Z</time>
      </trkpt>
      <trkpt lat="43.00564" lon="0.32077">
        <ele>910.4</ele>
        <time>2026-07-08T10:02:07Z</time>
      </trkpt>
      <trkpt lat="43.00564" lon="0.32078">
        <ele>910.4</ele>
        <time>2026-07-08T10:02:07Z</time>
      </trkpt>
      <trkpt lat="43.00564" lon="0.32078">
        <ele>910.4</ele>
        <time>2026-07-08T10:02:08Z</time>
      </trkpt>
      <trkpt lat="43.00563" lon="0.32079">
        <ele>909.4</ele>
        <time>2026-07-08T10:02:08Z</time>
      </trkpt>
      <trkpt lat="43.00563" lon="0.3208">
        <ele>909.4</ele>
        <time>2026-07-08T10:02:09Z</time>
      </trkpt>
      <trkpt lat="43.00563" lon="0.32081">
        <ele>909.4</ele>
        <time>2026-07-08T10:02:09Z</time>
      </trkpt>
      <trkpt lat="43.00563" lon="0.32082">
        <ele>909.4</ele>
        <time>2026-07-08T10:02:10Z</time>
      </trkpt>
      <trkpt lat="43.00562" lon="0.32082">
        <ele>909.4</ele>
        <time>2026-07-08T10:02:10Z</time>
      </trkpt>
      <trkpt lat="43.00562" lon="0.32083">
        <ele>908.4</ele>
        <time>2026-07-08T10:02:11Z</time>
      </trkpt>
      <trkpt lat="43.00562" lon="0.32084">
        <ele>908.4</ele>
        <time>2026-07-08T10:02:12Z</time>
      </trkpt>
      <trkpt lat="43.00562" lon="0.32085">
        <ele>908.4</ele>
        <time>2026-07-08T10:02:12Z</time>
      </trkpt>
      <trkpt lat="43.00562" lon="0.32086">
        <ele>908.4</ele>
        <time>2026-07-08T10:02:13Z</time>
      </trkpt>
      <trkpt lat="43.00562" lon="0.32087">
        <ele>908.4</ele>
        <time>2026-07-08T10:02:14Z</time>
      </trkpt>
      <trkpt lat="43.00562" lon="0.32088">
        <ele>909.4</ele>
        <time>2026-07-08T10:02:14Z</time>
      </trkpt>
      <trkpt lat="43.00562" lon="0.32089">
        <ele>909.4</ele>
        <time>2026-07-08T10:02:15Z</time>
      </trkpt>
      <trkpt lat="43.00561" lon="0.3209">
        <ele>909.4</ele>
        <time>2026-07-08T10:02:15Z</time>
      </trkpt>
      <trkpt lat="43.00561" lon="0.32091">
        <ele>909.4</ele>
        <time>2026-07-08T10:02:16Z</time>
      </trkpt>
      <trkpt lat="43.00561" lon="0.32091">
        <ele>908.4</ele>
        <time>2026-07-08T10:02:17Z</time>
      </trkpt>
      <trkpt lat="43.00561" lon="0.32092">
        <ele>908.4</ele>
        <time>2026-07-08T10:02:17Z</time>
      </trkpt>
      <trkpt lat="43.00561" lon="0.32093">
        <ele>908.4</ele>
        <time>2026-07-08T10:02:18Z</time>
      </trkpt>
      <trkpt lat="43.0056" lon="0.32093">
        <ele>908.4</ele>
        <time>2026-07-08T10:02:18Z</time>
      </trkpt>
      <trkpt lat="43.0056" lon="0.32094">
        <ele>908.4</ele>
        <time>2026-07-08T10:02:19Z</time>
      </trkpt>
      <trkpt lat="43.0056" lon="0.32095">
        <ele>908.4</ele>
        <time>2026-07-08T10:02:20Z</time>
      </trkpt>
      <trkpt lat="43.00559" lon="0.32096">
        <ele>908.4</ele>
        <time>2026-07-08T10:02:21Z</time>
      </trkpt>
      <trkpt lat="43.00559" lon="0.32097">
        <ele>908.4</ele>
        <time>2026-07-08T10:02:22Z</time>
      </trkpt>
      <trkpt lat="43.00559" lon="0.32099">
        <ele>908.4</ele>
        <time>2026-07-08T10:02:23Z</time>
      </trkpt>
      <trkpt lat="43.00559" lon="0.32101">
        <ele>908.4</ele>
        <time>2026-07-08T10:02:24Z</time>
      </trkpt>
      <trkpt lat="43.00558" lon="0.32102">
        <ele>907.4</ele>
        <time>2026-07-08T10:02:25Z</time>
      </trkpt>
      <trkpt lat="43.00558" lon="0.32103">
        <ele>907.4</ele>
        <time>2026-07-08T10:02:26Z</time>
      </trkpt>
      <trkpt lat="43.00558" lon="0.32104">
        <ele>907.4</ele>
        <time>2026-07-08T10:02:27Z</time>
      </trkpt>
      <trkpt lat="43.00558" lon="0.32105">
        <ele>906.4</ele>
        <time>2026-07-08T10:02:27Z</time>
      </trkpt>
      <trkpt lat="43.00558" lon="0.32106">
        <ele>906.4</ele>
        <time>2026-07-08T10:02:28Z</time>
      </trkpt>
      <trkpt lat="43.00557" lon="0.32107">
        <ele>906.4</ele>
        <time>2026-07-08T10:02:28Z</time>
      </trkpt>
      <trkpt lat="43.00557" lon="0.32108">
        <ele>905.4</ele>
        <time>2026-07-08T10:02:29Z</time>
      </trkpt>
      <trkpt lat="43.00557" lon="0.32109">
        <ele>905.4</ele>
        <time>2026-07-08T10:02:30Z</time>
      </trkpt>
      <trkpt lat="43.00556" lon="0.3211">
        <ele>905.4</ele>
        <time>2026-07-08T10:02:30Z</time>
      </trkpt>
      <trkpt lat="43.00556" lon="0.32111">
        <ele>904.4</ele>
        <time>2026-07-08T10:02:31Z</time>
      </trkpt>
      <trkpt lat="43.00555" lon="0.32112">
        <ele>904.4</ele>
        <time>2026-07-08T10:02:32Z</time>
      </trkpt>
      <trkpt lat="43.00555" lon="0.32112">
        <ele>904.4</ele>
        <time>2026-07-08T10:02:32Z</time>
      </trkpt>
      <trkpt lat="43.00555" lon="0.32113">
        <ele>904.4</ele>
        <time>2026-07-08T10:02:33Z</time>
      </trkpt>
      <trkpt lat="43.00554" lon="0.32114">
        <ele>904.4</ele>
        <time>2026-07-08T10:02:34Z</time>
      </trkpt>
      <trkpt lat="43.00554" lon="0.32114">
        <ele>903.4</ele>
        <time>2026-07-08T10:02:34Z</time>
      </trkpt>
      <trkpt lat="43.00553" lon="0.32116">
        <ele>903.4</ele>
        <time>2026-07-08T10:02:35Z</time>
      </trkpt>
      <trkpt lat="43.00553" lon="0.32117">
        <ele>903.4</ele>
        <time>2026-07-08T10:02:35Z</time>
      </trkpt>
      <trkpt lat="43.00553" lon="0.32118">
        <ele>903.4</ele>
        <time>2026-07-08T10:02:36Z</time>
      </trkpt>
      <trkpt lat="43.00552" lon="0.32118">
        <ele>903.4</ele>
        <time>2026-07-08T10:02:37Z</time>
      </trkpt>
      <trkpt lat="43.00552" lon="0.3212">
        <ele>902.4</ele>
        <time>2026-07-08T10:02:38Z</time>
      </trkpt>
      <trkpt lat="43.00552" lon="0.3212">
        <ele>902.4</ele>
        <time>2026-07-08T10:02:38Z</time>
      </trkpt>
      <trkpt lat="43.00551" lon="0.32121">
        <ele>902.4</ele>
        <time>2026-07-08T10:02:39Z</time>
      </trkpt>
      <trkpt lat="43.00551" lon="0.32122">
        <ele>901.4</ele>
        <time>2026-07-08T10:02:39Z</time>
      </trkpt>
      <trkpt lat="43.00551" lon="0.32123">
        <ele>901.4</ele>
        <time>2026-07-08T10:02:40Z</time>
      </trkpt>
      <trkpt lat="43.00551" lon="0.32123">
        <ele>901.4</ele>
        <time>2026-07-08T10:02:40Z</time>
      </trkpt>
      <trkpt lat="43.0055" lon="0.32125">
        <ele>901.4</ele>
        <time>2026-07-08T10:02:41Z</time>
      </trkpt>
      <trkpt lat="43.0055" lon="0.32126">
        <ele>901.4</ele>
        <time>2026-07-08T10:02:42Z</time>
      </trkpt>
      <trkpt lat="43.0055" lon="0.32127">
        <ele>900.4</ele>
        <time>2026-07-08T10:02:42Z</time>
      </trkpt>
      <trkpt lat="43.0055" lon="0.32128">
        <ele>900.4</ele>
        <time>2026-07-08T10:02:43Z</time>
      </trkpt>
      <trkpt lat="43.00549" lon="0.32129">
        <ele>899.4</ele>
        <time>2026-07-08T10:02:44Z</time>
      </trkpt>
      <trkpt lat="43.00549" lon="0.3213">
        <ele>899.4</ele>
        <time>2026-07-08T10:02:44Z</time>
      </trkpt>
      <trkpt lat="43.00549" lon="0.32131">
        <ele>899.4</ele>
        <time>2026-07-08T10:02:45Z</time>
      </trkpt>
      <trkpt lat="43.00549" lon="0.32131">
        <ele>899.4</ele>
        <time>2026-07-08T10:02:45Z</time>
      </trkpt>
      <trkpt lat="43.00549" lon="0.32132">
        <ele>899.4</ele>
        <time>2026-07-08T10:02:46Z</time>
      </trkpt>
      <trkpt lat="43.00549" lon="0.32133">
        <ele>899.4</ele>
        <time>2026-07-08T10:02:46Z</time>
      </trkpt>
      <trkpt lat="43.00549" lon="0.32134">
        <ele>899.4</ele>
        <time>2026-07-08T10:02:47Z</time>
      </trkpt>
      <trkpt lat="43.00549" lon="0.32136">
        <ele>899.4</ele>
        <time>2026-07-08T10:02:48Z</time>
      </trkpt>
      <trkpt lat="43.00549" lon="0.32137">
        <ele>898.4</ele>
        <time>2026-07-08T10:02:49Z</time>
      </trkpt>
      <trkpt lat="43.00549" lon="0.32139">
        <ele>897.4</ele>
        <time>2026-07-08T10:02:50Z</time>
      </trkpt>
      <trkpt lat="43.00548" lon="0.3214">
        <ele>897.4</ele>
        <time>2026-07-08T10:02:50Z</time>
      </trkpt>
      <trkpt lat="43.00548" lon="0.32141">
        <ele>897.4</ele>
        <time>2026-07-08T10:02:51Z</time>
      </trkpt>
      <trkpt lat="43.00548" lon="0.32142">
        <ele>897.4</ele>
        <time>2026-07-08T10:02:51Z</time>
      </trkpt>
      <trkpt lat="43.00548" lon="0.32143">
        <ele>896.4</ele>
        <time>2026-07-08T10:02:52Z</time>
      </trkpt>
      <trkpt lat="43.00548" lon="0.32143">
        <ele>896.4</ele>
        <time>2026-07-08T10:02:53Z</time>
      </trkpt>
      <trkpt lat="43.00548" lon="0.32144">
        <ele>896.4</ele>
        <time>2026-07-08T10:02:53Z</time>
      </trkpt>
      <trkpt lat="43.00548" lon="0.32145">
        <ele>896.4</ele>
        <time>2026-07-08T10:02:54Z</time>
      </trkpt>
      <trkpt lat="43.00548" lon="0.32146">
        <ele>896.4</ele>
        <time>2026-07-08T10:02:54Z</time>
      </trkpt>
      <trkpt lat="43.00548" lon="0.32147">
        <ele>896.4</ele>
        <time>2026-07-08T10:02:55Z</time>
      </trkpt>
      <trkpt lat="43.00548" lon="0.32148">
        <ele>896.4</ele>
        <time>2026-07-08T10:02:55Z</time>
      </trkpt>
      <trkpt lat="43.00548" lon="0.32149">
        <ele>896.4</ele>
        <time>2026-07-08T10:02:56Z</time>
      </trkpt>
      <trkpt lat="43.00548" lon="0.32151">
        <ele>896.4</ele>
        <time>2026-07-08T10:02:57Z</time>
      </trkpt>
      <trkpt lat="43.00548" lon="0.32152">
        <ele>896.4</ele>
        <time>2026-07-08T10:02:57Z</time>
      </trkpt>
      <trkpt lat="43.00547" lon="0.32153">
        <ele>896.4</ele>
        <time>2026-07-08T10:02:58Z</time>
      </trkpt>
      <trkpt lat="43.00547" lon="0.32154">
        <ele>896.4</ele>
        <time>2026-07-08T10:02:58Z</time>
      </trkpt>
      <trkpt lat="43.00547" lon="0.32155">
        <ele>896.4</ele>
        <time>2026-07-08T10:02:59Z</time>
      </trkpt>
      <trkpt lat="43.00547" lon="0.32155">
        <ele>896.4</ele>
        <time>2026-07-08T10:02:59Z</time>
      </trkpt>
      <trkpt lat="43.00547" lon="0.32156">
        <ele>895.4</ele>
        <time>2026-07-08T10:03:00Z</time>
      </trkpt>
      <trkpt lat="43.00546" lon="0.32158">
        <ele>895.4</ele>
        <time>2026-07-08T10:03:01Z</time>
      </trkpt>
      <trkpt lat="43.00546" lon="0.32159">
        <ele>895.4</ele>
        <time>2026-07-08T10:03:02Z</time>
      </trkpt>
      <trkpt lat="43.00546" lon="0.32161">
        <ele>895.4</ele>
        <time>2026-07-08T10:03:03Z</time>
      </trkpt>
      <trkpt lat="43.00546" lon="0.32163">
        <ele>895.4</ele>
        <time>2026-07-08T10:03:04Z</time>
      </trkpt>
      <trkpt lat="43.00546" lon="0.32164">
        <ele>895.4</ele>
        <time>2026-07-08T10:03:04Z</time>
      </trkpt>
      <trkpt lat="43.00546" lon="0.32165">
        <ele>895.4</ele>
        <time>2026-07-08T10:03:05Z</time>
      </trkpt>
      <trkpt lat="43.00545" lon="0.32167">
        <ele>895.4</ele>
        <time>2026-07-08T10:03:06Z</time>
      </trkpt>
      <trkpt lat="43.00545" lon="0.32169">
        <ele>895.4</ele>
        <time>2026-07-08T10:03:07Z</time>
      </trkpt>
      <trkpt lat="43.00546" lon="0.32171">
        <ele>895.4</ele>
        <time>2026-07-08T10:03:08Z</time>
      </trkpt>
      <trkpt lat="43.00546" lon="0.32173">
        <ele>894.4</ele>
        <time>2026-07-08T10:03:09Z</time>
      </trkpt>
      <trkpt lat="43.00546" lon="0.32174">
        <ele>894.4</ele>
        <time>2026-07-08T10:03:09Z</time>
      </trkpt>
      <trkpt lat="43.00546" lon="0.32175">
        <ele>894.4</ele>
        <time>2026-07-08T10:03:10Z</time>
      </trkpt>
      <trkpt lat="43.00545" lon="0.32176">
        <ele>893.4</ele>
        <time>2026-07-08T10:03:10Z</time>
      </trkpt>
      <trkpt lat="43.00545" lon="0.32177">
        <ele>893.4</ele>
        <time>2026-07-08T10:03:11Z</time>
      </trkpt>
      <trkpt lat="43.00545" lon="0.32179">
        <ele>893.4</ele>
        <time>2026-07-08T10:03:12Z</time>
      </trkpt>
      <trkpt lat="43.00545" lon="0.32181">
        <ele>893.4</ele>
        <time>2026-07-08T10:03:13Z</time>
      </trkpt>
      <trkpt lat="43.00544" lon="0.32182">
        <ele>893.4</ele>
        <time>2026-07-08T10:03:13Z</time>
      </trkpt>
      <trkpt lat="43.00544" lon="0.32183">
        <ele>893.4</ele>
        <time>2026-07-08T10:03:14Z</time>
      </trkpt>
      <trkpt lat="43.00544" lon="0.32184">
        <ele>894.4</ele>
        <time>2026-07-08T10:03:14Z</time>
      </trkpt>
      <trkpt lat="43.00544" lon="0.32185">
        <ele>894.4</ele>
        <time>2026-07-08T10:03:15Z</time>
      </trkpt>
      <trkpt lat="43.00544" lon="0.32187">
        <ele>894.4</ele>
        <time>2026-07-08T10:03:16Z</time>
      </trkpt>
      <trkpt lat="43.00543" lon="0.32189">
        <ele>894.4</ele>
        <time>2026-07-08T10:03:17Z</time>
      </trkpt>
      <trkpt lat="43.00543" lon="0.32191">
        <ele>894.4</ele>
        <time>2026-07-08T10:03:18Z</time>
      </trkpt>
      <trkpt lat="43.00542" lon="0.32193">
        <ele>894.4</ele>
        <time>2026-07-08T10:03:19Z</time>
      </trkpt>
      <trkpt lat="43.00542" lon="0.32194">
        <ele>893.4</ele>
        <time>2026-07-08T10:03:19Z</time>
      </trkpt>
      <trkpt lat="43.00542" lon="0.32195">
        <ele>893.4</ele>
        <time>2026-07-08T10:03:20Z</time>
      </trkpt>
      <trkpt lat="43.00541" lon="0.32197">
        <ele>892.4</ele>
        <time>2026-07-08T10:03:21Z</time>
      </trkpt>
      <trkpt lat="43.00541" lon="0.32199">
        <ele>892.4</ele>
        <time>2026-07-08T10:03:22Z</time>
      </trkpt>
      <trkpt lat="43.00541" lon="0.322">
        <ele>892.4</ele>
        <time>2026-07-08T10:03:22Z</time>
      </trkpt>
      <trkpt lat="43.00541" lon="0.32201">
        <ele>892.4</ele>
        <time>2026-07-08T10:03:23Z</time>
      </trkpt>
      <trkpt lat="43.00541" lon="0.32203">
        <ele>893.4</ele>
        <time>2026-07-08T10:03:24Z</time>
      </trkpt>
      <trkpt lat="43.00541" lon="0.32205">
        <ele>892.4</ele>
        <time>2026-07-08T10:03:25Z</time>
      </trkpt>
      <trkpt lat="43.00541" lon="0.32206">
        <ele>892.4</ele>
        <time>2026-07-08T10:03:25Z</time>
      </trkpt>
      <trkpt lat="43.00541" lon="0.32207">
        <ele>892.4</ele>
        <time>2026-07-08T10:03:26Z</time>
      </trkpt>
      <trkpt lat="43.00541" lon="0.32208">
        <ele>892.4</ele>
        <time>2026-07-08T10:03:27Z</time>
      </trkpt>
      <trkpt lat="43.00541" lon="0.32208">
        <ele>892.4</ele>
        <time>2026-07-08T10:03:27Z</time>
      </trkpt>
      <trkpt lat="43.0054" lon="0.3221">
        <ele>892.4</ele>
        <time>2026-07-08T10:03:28Z</time>
      </trkpt>
      <trkpt lat="43.0054" lon="0.32211">
        <ele>892.4</ele>
        <time>2026-07-08T10:03:28Z</time>
      </trkpt>
      <trkpt lat="43.0054" lon="0.32212">
        <ele>892.4</ele>
        <time>2026-07-08T10:03:29Z</time>
      </trkpt>
      <trkpt lat="43.0054" lon="0.32214">
        <ele>892.4</ele>
        <time>2026-07-08T10:03:30Z</time>
      </trkpt>
      <trkpt lat="43.0054" lon="0.32215">
        <ele>892.4</ele>
        <time>2026-07-08T10:03:30Z</time>
      </trkpt>
      <trkpt lat="43.0054" lon="0.32216">
        <ele>892.4</ele>
        <time>2026-07-08T10:03:31Z</time>
      </trkpt>
      <trkpt lat="43.00539" lon="0.32217">
        <ele>892.4</ele>
        <time>2026-07-08T10:03:32Z</time>
      </trkpt>
      <trkpt lat="43.00539" lon="0.32218">
        <ele>891.4</ele>
        <time>2026-07-08T10:03:32Z</time>
      </trkpt>
      <trkpt lat="43.00539" lon="0.32219">
        <ele>891.4</ele>
        <time>2026-07-08T10:03:33Z</time>
      </trkpt>
      <trkpt lat="43.00539" lon="0.32221">
        <ele>891.4</ele>
        <time>2026-07-08T10:03:34Z</time>
      </trkpt>
      <trkpt lat="43.00539" lon="0.32222">
        <ele>890.4</ele>
        <time>2026-07-08T10:03:34Z</time>
      </trkpt>
      <trkpt lat="43.00539" lon="0.32223">
        <ele>890.4</ele>
        <time>2026-07-08T10:03:35Z</time>
      </trkpt>
      <trkpt lat="43.00539" lon="0.32224">
        <ele>890.4</ele>
        <time>2026-07-08T10:03:35Z</time>
      </trkpt>
      <trkpt lat="43.00538" lon="0.32225">
        <ele>890.4</ele>
        <time>2026-07-08T10:03:36Z</time>
      </trkpt>
      <trkpt lat="43.00538" lon="0.32227">
        <ele>890.4</ele>
        <time>2026-07-08T10:03:37Z</time>
      </trkpt>
      <trkpt lat="43.00538" lon="0.32228">
        <ele>891.4</ele>
        <time>2026-07-08T10:03:37Z</time>
      </trkpt>
      <trkpt lat="43.00538" lon="0.32229">
        <ele>891.4</ele>
        <time>2026-07-08T10:03:38Z</time>
      </trkpt>
      <trkpt lat="43.00538" lon="0.3223">
        <ele>891.4</ele>
        <time>2026-07-08T10:03:39Z</time>
      </trkpt>
      <trkpt lat="43.00538" lon="0.32232">
        <ele>890.4</ele>
        <time>2026-07-08T10:03:40Z</time>
      </trkpt>
      <trkpt lat="43.00538" lon="0.32233">
        <ele>890.4</ele>
        <time>2026-07-08T10:03:41Z</time>
      </trkpt>
      <trkpt lat="43.00537" lon="0.32235">
        <ele>890.4</ele>
        <time>2026-07-08T10:03:42Z</time>
      </trkpt>
      <trkpt lat="43.00537" lon="0.32237">
        <ele>890.4</ele>
        <time>2026-07-08T10:03:43Z</time>
      </trkpt>
      <trkpt lat="43.00537" lon="0.32238">
        <ele>891.4</ele>
        <time>2026-07-08T10:03:44Z</time>
      </trkpt>
      <trkpt lat="43.00537" lon="0.32239">
        <ele>891.4</ele>
        <time>2026-07-08T10:03:44Z</time>
      </trkpt>
      <trkpt lat="43.00537" lon="0.3224">
        <ele>891.4</ele>
        <time>2026-07-08T10:03:45Z</time>
      </trkpt>
      <trkpt lat="43.00537" lon="0.32242">
        <ele>891.4</ele>
        <time>2026-07-08T10:03:46Z</time>
      </trkpt>
      <trkpt lat="43.00537" lon="0.32243">
        <ele>891.4</ele>
        <time>2026-07-08T10:03:46Z</time>
      </trkpt>
      <trkpt lat="43.00537" lon="0.32244">
        <ele>891.4</ele>
        <time>2026-07-08T10:03:47Z</time>
      </trkpt>
      <trkpt lat="43.00536" lon="0.32245">
        <ele>891.4</ele>
        <time>2026-07-08T10:03:48Z</time>
      </trkpt>
      <trkpt lat="43.00536" lon="0.32247">
        <ele>891.4</ele>
        <time>2026-07-08T10:03:49Z</time>
      </trkpt>
      <trkpt lat="43.00536" lon="0.32249">
        <ele>890.4</ele>
        <time>2026-07-08T10:03:50Z</time>
      </trkpt>
      <trkpt lat="43.00536" lon="0.32251">
        <ele>890.4</ele>
        <time>2026-07-08T10:03:51Z</time>
      </trkpt>
      <trkpt lat="43.00535" lon="0.32253">
        <ele>891.4</ele>
        <time>2026-07-08T10:03:52Z</time>
      </trkpt>
      <trkpt lat="43.00535" lon="0.32254">
        <ele>891.4</ele>
        <time>2026-07-08T10:03:53Z</time>
      </trkpt>
      <trkpt lat="43.00535" lon="0.32256">
        <ele>891.4</ele>
        <time>2026-07-08T10:03:54Z</time>
      </trkpt>
      <trkpt lat="43.00534" lon="0.32256">
        <ele>891.4</ele>
        <time>2026-07-08T10:03:54Z</time>
      </trkpt>
      <trkpt lat="43.00534" lon="0.32257">
        <ele>891.4</ele>
        <time>2026-07-08T10:03:55Z</time>
      </trkpt>
      <trkpt lat="43.00534" lon="0.32258">
        <ele>891.4</ele>
        <time>2026-07-08T10:03:56Z</time>
      </trkpt>
      <trkpt lat="43.00535" lon="0.32259">
        <ele>891.4</ele>
        <time>2026-07-08T10:03:56Z</time>
      </trkpt>
      <trkpt lat="43.00535" lon="0.3226">
        <ele>891.4</ele>
        <time>2026-07-08T10:03:57Z</time>
      </trkpt>
      <trkpt lat="43.00535" lon="0.32261">
        <ele>892.4</ele>
        <time>2026-07-08T10:03:57Z</time>
      </trkpt>
      <trkpt lat="43.00535" lon="0.32262">
        <ele>892.4</ele>
        <time>2026-07-08T10:03:58Z</time>
      </trkpt>
      <trkpt lat="43.00534" lon="0.32264">
        <ele>892.4</ele>
        <time>2026-07-08T10:03:59Z</time>
      </trkpt>
      <trkpt lat="43.00534" lon="0.32265">
        <ele>892.4</ele>
        <time>2026-07-08T10:03:59Z</time>
      </trkpt>
      <trkpt lat="43.00533" lon="0.32266">
        <ele>892.4</ele>
        <time>2026-07-08T10:04:00Z</time>
      </trkpt>
      <trkpt lat="43.00533" lon="0.32268">
        <ele>892.4</ele>
        <time>2026-07-08T10:04:01Z</time>
      </trkpt>
      <trkpt lat="43.00533" lon="0.32269">
        <ele>892.4</ele>
        <time>2026-07-08T10:04:01Z</time>
      </trkpt>
      <trkpt lat="43.00532" lon="0.3227">
        <ele>892.4</ele>
        <time>2026-07-08T10:04:02Z</time>
      </trkpt>
      <trkpt lat="43.00532" lon="0.32272">
        <ele>892.4</ele>
        <time>2026-07-08T10:04:03Z</time>
      </trkpt>
      <trkpt lat="43.00531" lon="0.32273">
        <ele>891.4</ele>
        <time>2026-07-08T10:04:03Z</time>
      </trkpt>
      <trkpt lat="43.00531" lon="0.32274">
        <ele>891.4</ele>
        <time>2026-07-08T10:04:04Z</time>
      </trkpt>
      <trkpt lat="43.00531" lon="0.32275">
        <ele>891.4</ele>
        <time>2026-07-08T10:04:04Z</time>
      </trkpt>
      <trkpt lat="43.00531" lon="0.32276">
        <ele>891.4</ele>
        <time>2026-07-08T10:04:05Z</time>
      </trkpt>
      <trkpt lat="43.0053" lon="0.32277">
        <ele>890.4</ele>
        <time>2026-07-08T10:04:06Z</time>
      </trkpt>
      <trkpt lat="43.0053" lon="0.32277">
        <ele>890.4</ele>
        <time>2026-07-08T10:04:06Z</time>
      </trkpt>
      <trkpt lat="43.0053" lon="0.32278">
        <ele>890.4</ele>
        <time>2026-07-08T10:04:07Z</time>
      </trkpt>
      <trkpt lat="43.00529" lon="0.3228">
        <ele>890.4</ele>
        <time>2026-07-08T10:04:08Z</time>
      </trkpt>
      <trkpt lat="43.00529" lon="0.3228">
        <ele>889.4</ele>
        <time>2026-07-08T10:04:08Z</time>
      </trkpt>
      <trkpt lat="43.00528" lon="0.32281">
        <ele>889.4</ele>
        <time>2026-07-08T10:04:09Z</time>
      </trkpt>
      <trkpt lat="43.00528" lon="0.32281">
        <ele>889.4</ele>
        <time>2026-07-08T10:04:09Z</time>
      </trkpt>
      <trkpt lat="43.00527" lon="0.32282">
        <ele>889.4</ele>
        <time>2026-07-08T10:04:10Z</time>
      </trkpt>
      <trkpt lat="43.00527" lon="0.32283">
        <ele>889.4</ele>
        <time>2026-07-08T10:04:10Z</time>
      </trkpt>
      <trkpt lat="43.00527" lon="0.32284">
        <ele>889.4</ele>
        <time>2026-07-08T10:04:11Z</time>
      </trkpt>
      <trkpt lat="43.00526" lon="0.32285">
        <ele>889.4</ele>
        <time>2026-07-08T10:04:12Z</time>
      </trkpt>
      <trkpt lat="43.00525" lon="0.32287">
        <ele>888.4</ele>
        <time>2026-07-08T10:04:13Z</time>
      </trkpt>
      <trkpt lat="43.00525" lon="0.32289">
        <ele>888.4</ele>
        <time>2026-07-08T10:04:14Z</time>
      </trkpt>
      <trkpt lat="43.00525" lon="0.3229">
        <ele>888.4</ele>
        <time>2026-07-08T10:04:14Z</time>
      </trkpt>
      <trkpt lat="43.00525" lon="0.3229">
        <ele>888.4</ele>
        <time>2026-07-08T10:04:15Z</time>
      </trkpt>
      <trkpt lat="43.00525" lon="0.32292">
        <ele>888.4</ele>
        <time>2026-07-08T10:04:16Z</time>
      </trkpt>
      <trkpt lat="43.00525" lon="0.32293">
        <ele>887.4</ele>
        <time>2026-07-08T10:04:16Z</time>
      </trkpt>
      <trkpt lat="43.00524" lon="0.32294">
        <ele>887.4</ele>
        <time>2026-07-08T10:04:17Z</time>
      </trkpt>
      <trkpt lat="43.00525" lon="0.32296">
        <ele>887.4</ele>
        <time>2026-07-08T10:04:18Z</time>
      </trkpt>
      <trkpt lat="43.00525" lon="0.32298">
        <ele>887.4</ele>
        <time>2026-07-08T10:04:19Z</time>
      </trkpt>
      <trkpt lat="43.00525" lon="0.323">
        <ele>887.4</ele>
        <time>2026-07-08T10:04:20Z</time>
      </trkpt>
      <trkpt lat="43.00524" lon="0.32301">
        <ele>887.4</ele>
        <time>2026-07-08T10:04:21Z</time>
      </trkpt>
      <trkpt lat="43.00524" lon="0.32301">
        <ele>887.4</ele>
        <time>2026-07-08T10:04:21Z</time>
      </trkpt>
      <trkpt lat="43.00524" lon="0.32302">
        <ele>887.4</ele>
        <time>2026-07-08T10:04:21Z</time>
      </trkpt>
      <trkpt lat="43.00524" lon="0.32303">
        <ele>887.4</ele>
        <time>2026-07-08T10:04:22Z</time>
      </trkpt>
      <trkpt lat="43.00524" lon="0.32304">
        <ele>887.4</ele>
        <time>2026-07-08T10:04:23Z</time>
      </trkpt>
      <trkpt lat="43.00524" lon="0.32305">
        <ele>887.4</ele>
        <time>2026-07-08T10:04:23Z</time>
      </trkpt>
      <trkpt lat="43.00523" lon="0.32306">
        <ele>887.4</ele>
        <time>2026-07-08T10:04:24Z</time>
      </trkpt>
      <trkpt lat="43.00523" lon="0.32306">
        <ele>886.4</ele>
        <time>2026-07-08T10:04:24Z</time>
      </trkpt>
      <trkpt lat="43.00523" lon="0.32307">
        <ele>886.4</ele>
        <time>2026-07-08T10:04:25Z</time>
      </trkpt>
      <trkpt lat="43.00523" lon="0.32308">
        <ele>886.4</ele>
        <time>2026-07-08T10:04:25Z</time>
      </trkpt>
      <trkpt lat="43.00522" lon="0.32309">
        <ele>886.4</ele>
        <time>2026-07-08T10:04:26Z</time>
      </trkpt>
      <trkpt lat="43.00522" lon="0.32309">
        <ele>886.4</ele>
        <time>2026-07-08T10:04:26Z</time>
      </trkpt>
      <trkpt lat="43.00522" lon="0.3231">
        <ele>886.4</ele>
        <time>2026-07-08T10:04:27Z</time>
      </trkpt>
      <trkpt lat="43.00522" lon="0.32311">
        <ele>886.4</ele>
        <time>2026-07-08T10:04:27Z</time>
      </trkpt>
      <trkpt lat="43.00521" lon="0.32312">
        <ele>886.4</ele>
        <time>2026-07-08T10:04:28Z</time>
      </trkpt>
      <trkpt lat="43.00521" lon="0.32313">
        <ele>886.4</ele>
        <time>2026-07-08T10:04:28Z</time>
      </trkpt>
      <trkpt lat="43.00521" lon="0.32313">
        <ele>886.4</ele>
        <time>2026-07-08T10:04:29Z</time>
      </trkpt>
      <trkpt lat="43.00521" lon="0.32315">
        <ele>886.4</ele>
        <time>2026-07-08T10:04:30Z</time>
      </trkpt>
      <trkpt lat="43.00521" lon="0.32316">
        <ele>886.4</ele>
        <time>2026-07-08T10:04:30Z</time>
      </trkpt>
      <trkpt lat="43.00521" lon="0.32317">
        <ele>886.4</ele>
        <time>2026-07-08T10:04:31Z</time>
      </trkpt>
      <trkpt lat="43.0052" lon="0.32319">
        <ele>886.4</ele>
        <time>2026-07-08T10:04:32Z</time>
      </trkpt>
      <trkpt lat="43.0052" lon="0.3232">
        <ele>885.4</ele>
        <time>2026-07-08T10:04:33Z</time>
      </trkpt>
      <trkpt lat="43.0052" lon="0.32322">
        <ele>885.4</ele>
        <time>2026-07-08T10:04:34Z</time>
      </trkpt>
      <trkpt lat="43.0052" lon="0.32323">
        <ele>885.4</ele>
        <time>2026-07-08T10:04:35Z</time>
      </trkpt>
      <trkpt lat="43.0052" lon="0.32324">
        <ele>885.4</ele>
        <time>2026-07-08T10:04:35Z</time>
      </trkpt>
      <trkpt lat="43.0052" lon="0.32325">
        <ele>885.4</ele>
        <time>2026-07-08T10:04:36Z</time>
      </trkpt>
      <trkpt lat="43.0052" lon="0.32326">
        <ele>885.4</ele>
        <time>2026-07-08T10:04:36Z</time>
      </trkpt>
      <trkpt lat="43.00519" lon="0.32327">
        <ele>885.4</ele>
        <time>2026-07-08T10:04:37Z</time>
      </trkpt>
      <trkpt lat="43.00519" lon="0.3233">
        <ele>885.4</ele>
        <time>2026-07-08T10:04:38Z</time>
      </trkpt>
      <trkpt lat="43.00519" lon="0.3233">
        <ele>885.4</ele>
        <time>2026-07-08T10:04:38Z</time>
      </trkpt>
      <trkpt lat="43.00519" lon="0.32331">
        <ele>885.4</ele>
        <time>2026-07-08T10:04:39Z</time>
      </trkpt>
      <trkpt lat="43.00519" lon="0.32333">
        <ele>885.4</ele>
        <time>2026-07-08T10:04:40Z</time>
      </trkpt>
      <trkpt lat="43.00519" lon="0.32335">
        <ele>885.4</ele>
        <time>2026-07-08T10:04:41Z</time>
      </trkpt>
      <trkpt lat="43.00519" lon="0.32336">
        <ele>885.4</ele>
        <time>2026-07-08T10:04:41Z</time>
      </trkpt>
      <trkpt lat="43.00519" lon="0.32337">
        <ele>885.4</ele>
        <time>2026-07-08T10:04:42Z</time>
      </trkpt>
      <trkpt lat="43.00519" lon="0.32338">
        <ele>884.4</ele>
        <time>2026-07-08T10:04:43Z</time>
      </trkpt>
      <trkpt lat="43.00518" lon="0.32339">
        <ele>884.4</ele>
        <time>2026-07-08T10:04:43Z</time>
      </trkpt>
      <trkpt lat="43.00518" lon="0.3234">
        <ele>884.4</ele>
        <time>2026-07-08T10:04:44Z</time>
      </trkpt>
      <trkpt lat="43.00518" lon="0.3234">
        <ele>884.4</ele>
        <time>2026-07-08T10:04:44Z</time>
      </trkpt>
      <trkpt lat="43.00518" lon="0.32341">
        <ele>884.4</ele>
        <time>2026-07-08T10:04:45Z</time>
      </trkpt>
      <trkpt lat="43.00518" lon="0.32342">
        <ele>884.4</ele>
        <time>2026-07-08T10:04:46Z</time>
      </trkpt>
      <trkpt lat="43.00518" lon="0.32343">
        <ele>884.4</ele>
        <time>2026-07-08T10:04:46Z</time>
      </trkpt>
      <trkpt lat="43.00518" lon="0.32344">
        <ele>884.4</ele>
        <time>2026-07-08T10:04:47Z</time>
      </trkpt>
      <trkpt lat="43.00517" lon="0.32345">
        <ele>884.4</ele>
        <time>2026-07-08T10:04:48Z</time>
      </trkpt>
      <trkpt lat="43.00517" lon="0.32346">
        <ele>884.4</ele>
        <time>2026-07-08T10:04:48Z</time>
      </trkpt>
      <trkpt lat="43.00517" lon="0.32347">
        <ele>884.4</ele>
        <time>2026-07-08T10:04:49Z</time>
      </trkpt>
      <trkpt lat="43.00517" lon="0.32348">
        <ele>884.4</ele>
        <time>2026-07-08T10:04:49Z</time>
      </trkpt>
      <trkpt lat="43.00517" lon="0.32348">
        <ele>884.4</ele>
        <time>2026-07-08T10:04:50Z</time>
      </trkpt>
      <trkpt lat="43.00516" lon="0.3235">
        <ele>884.4</ele>
        <time>2026-07-08T10:04:51Z</time>
      </trkpt>
      <trkpt lat="43.00516" lon="0.32351">
        <ele>884.4</ele>
        <time>2026-07-08T10:04:51Z</time>
      </trkpt>
      <trkpt lat="43.00516" lon="0.32351">
        <ele>884.4</ele>
        <time>2026-07-08T10:04:52Z</time>
      </trkpt>
      <trkpt lat="43.00516" lon="0.32352">
        <ele>884.4</ele>
        <time>2026-07-08T10:04:52Z</time>
      </trkpt>
      <trkpt lat="43.00516" lon="0.32353">
        <ele>884.4</ele>
        <time>2026-07-08T10:04:53Z</time>
      </trkpt>
      <trkpt lat="43.00516" lon="0.32354">
        <ele>884.4</ele>
        <time>2026-07-08T10:04:54Z</time>
      </trkpt>
      <trkpt lat="43.00516" lon="0.32354">
        <ele>884.4</ele>
        <time>2026-07-08T10:04:54Z</time>
      </trkpt>
      <trkpt lat="43.00516" lon="0.32355">
        <ele>884.4</ele>
        <time>2026-07-08T10:04:55Z</time>
      </trkpt>
      <trkpt lat="43.00516" lon="0.32356">
        <ele>883.4</ele>
        <time>2026-07-08T10:04:55Z</time>
      </trkpt>
      <trkpt lat="43.00516" lon="0.32358">
        <ele>883.4</ele>
        <time>2026-07-08T10:04:56Z</time>
      </trkpt>
      <trkpt lat="43.00515" lon="0.32358">
        <ele>883.4</ele>
        <time>2026-07-08T10:04:57Z</time>
      </trkpt>
      <trkpt lat="43.00515" lon="0.32359">
        <ele>883.4</ele>
        <time>2026-07-08T10:04:57Z</time>
      </trkpt>
      <trkpt lat="43.00515" lon="0.3236">
        <ele>883.4</ele>
        <time>2026-07-08T10:04:58Z</time>
      </trkpt>
      <trkpt lat="43.00515" lon="0.3236">
        <ele>883.4</ele>
        <time>2026-07-08T10:04:58Z</time>
      </trkpt>
      <trkpt lat="43.00515" lon="0.32362">
        <ele>883.4</ele>
        <time>2026-07-08T10:04:59Z</time>
      </trkpt>
      <trkpt lat="43.00515" lon="0.32362">
        <ele>883.4</ele>
        <time>2026-07-08T10:04:59Z</time>
      </trkpt>
      <trkpt lat="43.00515" lon="0.32363">
        <ele>883.4</ele>
        <time>2026-07-08T10:05:00Z</time>
      </trkpt>
      <trkpt lat="43.00515" lon="0.32364">
        <ele>883.4</ele>
        <time>2026-07-08T10:05:00Z</time>
      </trkpt>
      <trkpt lat="43.00515" lon="0.32365">
        <ele>883.4</ele>
        <time>2026-07-08T10:05:01Z</time>
      </trkpt>
      <trkpt lat="43.00515" lon="0.32366">
        <ele>883.4</ele>
        <time>2026-07-08T10:05:01Z</time>
      </trkpt>
      <trkpt lat="43.00515" lon="0.32367">
        <ele>883.4</ele>
        <time>2026-07-08T10:05:02Z</time>
      </trkpt>
      <trkpt lat="43.00515" lon="0.32368">
        <ele>883.4</ele>
        <time>2026-07-08T10:05:02Z</time>
      </trkpt>
      <trkpt lat="43.00515" lon="0.32369">
        <ele>883.4</ele>
        <time>2026-07-08T10:05:03Z</time>
      </trkpt>
      <trkpt lat="43.00515" lon="0.32371">
        <ele>883.4</ele>
        <time>2026-07-08T10:05:04Z</time>
      </trkpt>
      <trkpt lat="43.00516" lon="0.32373">
        <ele>882.4</ele>
        <time>2026-07-08T10:05:05Z</time>
      </trkpt>
      <trkpt lat="43.00516" lon="0.32374">
        <ele>882.4</ele>
        <time>2026-07-08T10:05:05Z</time>
      </trkpt>
      <trkpt lat="43.00516" lon="0.32375">
        <ele>882.4</ele>
        <time>2026-07-08T10:05:06Z</time>
      </trkpt>
      <trkpt lat="43.00516" lon="0.32376">
        <ele>882.4</ele>
        <time>2026-07-08T10:05:07Z</time>
      </trkpt>
      <trkpt lat="43.00516" lon="0.32376">
        <ele>882.4</ele>
        <time>2026-07-08T10:05:07Z</time>
      </trkpt>
      <trkpt lat="43.00516" lon="0.32378">
        <ele>882.4</ele>
        <time>2026-07-08T10:05:08Z</time>
      </trkpt>
      <trkpt lat="43.00516" lon="0.3238">
        <ele>883.4</ele>
        <time>2026-07-08T10:05:09Z</time>
      </trkpt>
      <trkpt lat="43.00517" lon="0.32381">
        <ele>882.4</ele>
        <time>2026-07-08T10:05:09Z</time>
      </trkpt>
      <trkpt lat="43.00517" lon="0.32382">
        <ele>882.4</ele>
        <time>2026-07-08T10:05:10Z</time>
      </trkpt>
      <trkpt lat="43.00517" lon="0.32383">
        <ele>882.4</ele>
        <time>2026-07-08T10:05:10Z</time>
      </trkpt>
      <trkpt lat="43.00517" lon="0.32384">
        <ele>882.4</ele>
        <time>2026-07-08T10:05:11Z</time>
      </trkpt>
      <trkpt lat="43.00518" lon="0.32385">
        <ele>882.4</ele>
        <time>2026-07-08T10:05:12Z</time>
      </trkpt>
      <trkpt lat="43.00518" lon="0.32387">
        <ele>882.4</ele>
        <time>2026-07-08T10:05:13Z</time>
      </trkpt>
      <trkpt lat="43.00518" lon="0.32388">
        <ele>882.4</ele>
        <time>2026-07-08T10:05:13Z</time>
      </trkpt>
      <trkpt lat="43.00518" lon="0.32389">
        <ele>882.4</ele>
        <time>2026-07-08T10:05:14Z</time>
      </trkpt>
      <trkpt lat="43.00519" lon="0.3239">
        <ele>882.4</ele>
        <time>2026-07-08T10:05:14Z</time>
      </trkpt>
      <trkpt lat="43.00519" lon="0.32391">
        <ele>882.4</ele>
        <time>2026-07-08T10:05:15Z</time>
      </trkpt>
      <trkpt lat="43.00519" lon="0.32392">
        <ele>883.4</ele>
        <time>2026-07-08T10:05:15Z</time>
      </trkpt>
      <trkpt lat="43.00519" lon="0.32393">
        <ele>883.4</ele>
        <time>2026-07-08T10:05:16Z</time>
      </trkpt>
      <trkpt lat="43.00519" lon="0.32394">
        <ele>883.4</ele>
        <time>2026-07-08T10:05:16Z</time>
      </trkpt>
      <trkpt lat="43.00519" lon="0.32395">
        <ele>883.4</ele>
        <time>2026-07-08T10:05:17Z</time>
      </trkpt>
      <trkpt lat="43.0052" lon="0.32397">
        <ele>883.4</ele>
        <time>2026-07-08T10:05:18Z</time>
      </trkpt>
      <trkpt lat="43.0052" lon="0.32397">
        <ele>884.4</ele>
        <time>2026-07-08T10:05:19Z</time>
      </trkpt>
      <trkpt lat="43.0052" lon="0.32398">
        <ele>884.4</ele>
        <time>2026-07-08T10:05:19Z</time>
      </trkpt>
      <trkpt lat="43.0052" lon="0.32399">
        <ele>884.4</ele>
        <time>2026-07-08T10:05:20Z</time>
      </trkpt>
      <trkpt lat="43.0052" lon="0.324">
        <ele>884.4</ele>
        <time>2026-07-08T10:05:20Z</time>
      </trkpt>
      <trkpt lat="43.00521" lon="0.32402">
        <ele>884.4</ele>
        <time>2026-07-08T10:05:21Z</time>
      </trkpt>
      <trkpt lat="43.00521" lon="0.32403">
        <ele>884.4</ele>
        <time>2026-07-08T10:05:22Z</time>
      </trkpt>
      <trkpt lat="43.00521" lon="0.32404">
        <ele>884.4</ele>
        <time>2026-07-08T10:05:22Z</time>
      </trkpt>
      <trkpt lat="43.00521" lon="0.32405">
        <ele>884.4</ele>
        <time>2026-07-08T10:05:23Z</time>
      </trkpt>
      <trkpt lat="43.00521" lon="0.32406">
        <ele>884.4</ele>
        <time>2026-07-08T10:05:24Z</time>
      </trkpt>
      <trkpt lat="43.00521" lon="0.32408">
        <ele>884.4</ele>
        <time>2026-07-08T10:05:25Z</time>
      </trkpt>
      <trkpt lat="43.00521" lon="0.32409">
        <ele>883.4</ele>
        <time>2026-07-08T10:05:26Z</time>
      </trkpt>
      <trkpt lat="43.00522" lon="0.32411">
        <ele>883.4</ele>
        <time>2026-07-08T10:05:27Z</time>
      </trkpt>
      <trkpt lat="43.00522" lon="0.32411">
        <ele>883.4</ele>
        <time>2026-07-08T10:05:27Z</time>
      </trkpt>
      <trkpt lat="43.00522" lon="0.32412">
        <ele>883.4</ele>
        <time>2026-07-08T10:05:28Z</time>
      </trkpt>
      <trkpt lat="43.00522" lon="0.32414">
        <ele>883.4</ele>
        <time>2026-07-08T10:05:29Z</time>
      </trkpt>
      <trkpt lat="43.00522" lon="0.32416">
        <ele>883.4</ele>
        <time>2026-07-08T10:05:30Z</time>
      </trkpt>
      <trkpt lat="43.00523" lon="0.32417">
        <ele>882.4</ele>
        <time>2026-07-08T10:05:31Z</time>
      </trkpt>
      <trkpt lat="43.00523" lon="0.32419">
        <ele>882.4</ele>
        <time>2026-07-08T10:05:32Z</time>
      </trkpt>
      <trkpt lat="43.00523" lon="0.3242">
        <ele>882.4</ele>
        <time>2026-07-08T10:05:33Z</time>
      </trkpt>
      <trkpt lat="43.00524" lon="0.32422">
        <ele>881.4</ele>
        <time>2026-07-08T10:05:34Z</time>
      </trkpt>
      <trkpt lat="43.00524" lon="0.32423">
        <ele>881.4</ele>
        <time>2026-07-08T10:05:34Z</time>
      </trkpt>
      <trkpt lat="43.00524" lon="0.32424">
        <ele>880.4</ele>
        <time>2026-07-08T10:05:35Z</time>
      </trkpt>
      <trkpt lat="43.00524" lon="0.32424">
        <ele>880.4</ele>
        <time>2026-07-08T10:05:36Z</time>
      </trkpt>
      <trkpt lat="43.00525" lon="0.32425">
        <ele>880.4</ele>
        <time>2026-07-08T10:05:36Z</time>
      </trkpt>
      <trkpt lat="43.00525" lon="0.32426">
        <ele>880.4</ele>
        <time>2026-07-08T10:05:37Z</time>
      </trkpt>
      <trkpt lat="43.00526" lon="0.32426">
        <ele>880.4</ele>
        <time>2026-07-08T10:05:37Z</time>
      </trkpt>
      <trkpt lat="43.00526" lon="0.32427">
        <ele>880.4</ele>
        <time>2026-07-08T10:05:38Z</time>
      </trkpt>
      <trkpt lat="43.00527" lon="0.32428">
        <ele>880.4</ele>
        <time>2026-07-08T10:05:39Z</time>
      </trkpt>
      <trkpt lat="43.00527" lon="0.32428">
        <ele>880.4</ele>
        <time>2026-07-08T10:05:39Z</time>
      </trkpt>
      <trkpt lat="43.00528" lon="0.32428">
        <ele>880.4</ele>
        <time>2026-07-08T10:05:40Z</time>
      </trkpt>
      <trkpt lat="43.00529" lon="0.32429">
        <ele>880.4</ele>
        <time>2026-07-08T10:05:41Z</time>
      </trkpt>
      <trkpt lat="43.00529" lon="0.32429">
        <ele>879.4</ele>
        <time>2026-07-08T10:05:41Z</time>
      </trkpt>
      <trkpt lat="43.0053" lon="0.32429">
        <ele>879.4</ele>
        <time>2026-07-08T10:05:42Z</time>
      </trkpt>
      <trkpt lat="43.00531" lon="0.32428">
        <ele>879.4</ele>
        <time>2026-07-08T10:05:43Z</time>
      </trkpt>
      <trkpt lat="43.00531" lon="0.32427">
        <ele>879.4</ele>
        <time>2026-07-08T10:05:43Z</time>
      </trkpt>
      <trkpt lat="43.00532" lon="0.32427">
        <ele>879.4</ele>
        <time>2026-07-08T10:05:44Z</time>
      </trkpt>
      <trkpt lat="43.00533" lon="0.32426">
        <ele>879.4</ele>
        <time>2026-07-08T10:05:45Z</time>
      </trkpt>
      <trkpt lat="43.00533" lon="0.32425">
        <ele>879.4</ele>
        <time>2026-07-08T10:05:45Z</time>
      </trkpt>
      <trkpt lat="43.00533" lon="0.32424">
        <ele>879.4</ele>
        <time>2026-07-08T10:05:46Z</time>
      </trkpt>
      <trkpt lat="43.00533" lon="0.32424">
        <ele>878.4</ele>
        <time>2026-07-08T10:05:46Z</time>
      </trkpt>
      <trkpt lat="43.00534" lon="0.32423">
        <ele>877.4</ele>
        <time>2026-07-08T10:05:47Z</time>
      </trkpt>
      <trkpt lat="43.00535" lon="0.32423">
        <ele>877.4</ele>
        <time>2026-07-08T10:05:48Z</time>
      </trkpt>
      <trkpt lat="43.00535" lon="0.32423">
        <ele>877.4</ele>
        <time>2026-07-08T10:05:49Z</time>
      </trkpt>
      <trkpt lat="43.00536" lon="0.32423">
        <ele>876.4</ele>
        <time>2026-07-08T10:05:50Z</time>
      </trkpt>
      <trkpt lat="43.00536" lon="0.32422">
        <ele>876.4</ele>
        <time>2026-07-08T10:05:50Z</time>
      </trkpt>
      <trkpt lat="43.00537" lon="0.32422">
        <ele>876.4</ele>
        <time>2026-07-08T10:05:51Z</time>
      </trkpt>
      <trkpt lat="43.00538" lon="0.32422">
        <ele>876.4</ele>
        <time>2026-07-08T10:05:52Z</time>
      </trkpt>
      <trkpt lat="43.00539" lon="0.32422">
        <ele>876.4</ele>
        <time>2026-07-08T10:05:52Z</time>
      </trkpt>
      <trkpt lat="43.00539" lon="0.32422">
        <ele>876.4</ele>
        <time>2026-07-08T10:05:53Z</time>
      </trkpt>
      <trkpt lat="43.0054" lon="0.32422">
        <ele>876.4</ele>
        <time>2026-07-08T10:05:54Z</time>
      </trkpt>
      <trkpt lat="43.00541" lon="0.32422">
        <ele>876.4</ele>
        <time>2026-07-08T10:05:55Z</time>
      </trkpt>
      <trkpt lat="43.00541" lon="0.32422">
        <ele>875.4</ele>
        <time>2026-07-08T10:05:55Z</time>
      </trkpt>
      <trkpt lat="43.00542" lon="0.32422">
        <ele>875.4</ele>
        <time>2026-07-08T10:05:56Z</time>
      </trkpt>
      <trkpt lat="43.00543" lon="0.32422">
        <ele>876.4</ele>
        <time>2026-07-08T10:05:57Z</time>
      </trkpt>
      <trkpt lat="43.00543" lon="0.32422">
        <ele>876.4</ele>
        <time>2026-07-08T10:05:57Z</time>
      </trkpt>
      <trkpt lat="43.00544" lon="0.32421">
        <ele>876.4</ele>
        <time>2026-07-08T10:05:58Z</time>
      </trkpt>
      <trkpt lat="43.00544" lon="0.32421">
        <ele>876.4</ele>
        <time>2026-07-08T10:05:58Z</time>
      </trkpt>
      <trkpt lat="43.00545" lon="0.32421">
        <ele>876.4</ele>
        <time>2026-07-08T10:05:59Z</time>
      </trkpt>
      <trkpt lat="43.00546" lon="0.32421">
        <ele>875.4</ele>
        <time>2026-07-08T10:06:00Z</time>
      </trkpt>
      <trkpt lat="43.00547" lon="0.3242">
        <ele>875.4</ele>
        <time>2026-07-08T10:06:01Z</time>
      </trkpt>
      <trkpt lat="43.00547" lon="0.3242">
        <ele>874.4</ele>
        <time>2026-07-08T10:06:01Z</time>
      </trkpt>
      <trkpt lat="43.00548" lon="0.32419">
        <ele>874.4</ele>
        <time>2026-07-08T10:06:02Z</time>
      </trkpt>
      <trkpt lat="43.00548" lon="0.32419">
        <ele>874.4</ele>
        <time>2026-07-08T10:06:03Z</time>
      </trkpt>
      <trkpt lat="43.00549" lon="0.32419">
        <ele>873.4</ele>
        <time>2026-07-08T10:06:04Z</time>
      </trkpt>
      <trkpt lat="43.0055" lon="0.32419">
        <ele>873.4</ele>
        <time>2026-07-08T10:06:04Z</time>
      </trkpt>
      <trkpt lat="43.0055" lon="0.32419">
        <ele>874.4</ele>
        <time>2026-07-08T10:06:05Z</time>
      </trkpt>
      <trkpt lat="43.00551" lon="0.32418">
        <ele>874.4</ele>
        <time>2026-07-08T10:06:06Z</time>
      </trkpt>
      <trkpt lat="43.00551" lon="0.32418">
        <ele>874.4</ele>
        <time>2026-07-08T10:06:06Z</time>
      </trkpt>
      <trkpt lat="43.00552" lon="0.32418">
        <ele>874.4</ele>
        <time>2026-07-08T10:06:07Z</time>
      </trkpt>
      <trkpt lat="43.00552" lon="0.32418">
        <ele>874.4</ele>
        <time>2026-07-08T10:06:07Z</time>
      </trkpt>
      <trkpt lat="43.00553" lon="0.32418">
        <ele>874.4</ele>
        <time>2026-07-08T10:06:08Z</time>
      </trkpt>
      <trkpt lat="43.00553" lon="0.32419">
        <ele>873.4</ele>
        <time>2026-07-08T10:06:09Z</time>
      </trkpt>
      <trkpt lat="43.00554" lon="0.32419">
        <ele>873.4</ele>
        <time>2026-07-08T10:06:09Z</time>
      </trkpt>
      <trkpt lat="43.00554" lon="0.32418">
        <ele>873.4</ele>
        <time>2026-07-08T10:06:10Z</time>
      </trkpt>
      <trkpt lat="43.00554" lon="0.32418">
        <ele>873.4</ele>
        <time>2026-07-08T10:06:10Z</time>
      </trkpt>
      <trkpt lat="43.00555" lon="0.32418">
        <ele>873.4</ele>
        <time>2026-07-08T10:06:11Z</time>
      </trkpt>
      <trkpt lat="43.00555" lon="0.32418">
        <ele>872.4</ele>
        <time>2026-07-08T10:06:11Z</time>
      </trkpt>
      <trkpt lat="43.00556" lon="0.32418">
        <ele>872.4</ele>
        <time>2026-07-08T10:06:12Z</time>
      </trkpt>
      <trkpt lat="43.00556" lon="0.32418">
        <ele>872.4</ele>
        <time>2026-07-08T10:06:12Z</time>
      </trkpt>
      <trkpt lat="43.00557" lon="0.32418">
        <ele>872.4</ele>
        <time>2026-07-08T10:06:13Z</time>
      </trkpt>
      <trkpt lat="43.00558" lon="0.32418">
        <ele>872.4</ele>
        <time>2026-07-08T10:06:14Z</time>
      </trkpt>
      <trkpt lat="43.00558" lon="0.32418">
        <ele>872.4</ele>
        <time>2026-07-08T10:06:15Z</time>
      </trkpt>
      <trkpt lat="43.00558" lon="0.32419">
        <ele>871.4</ele>
        <time>2026-07-08T10:06:15Z</time>
      </trkpt>
      <trkpt lat="43.00559" lon="0.32419">
        <ele>871.4</ele>
        <time>2026-07-08T10:06:16Z</time>
      </trkpt>
      <trkpt lat="43.00559" lon="0.32419">
        <ele>870.4</ele>
        <time>2026-07-08T10:06:16Z</time>
      </trkpt>
      <trkpt lat="43.00559" lon="0.32419">
        <ele>869.4</ele>
        <time>2026-07-08T10:06:17Z</time>
      </trkpt>
      <trkpt lat="43.0056" lon="0.32419">
        <ele>869.4</ele>
        <time>2026-07-08T10:06:18Z</time>
      </trkpt>
      <trkpt lat="43.0056" lon="0.3242">
        <ele>868.4</ele>
        <time>2026-07-08T10:06:19Z</time>
      </trkpt>
      <trkpt lat="43.00561" lon="0.3242">
        <ele>868.4</ele>
        <time>2026-07-08T10:06:19Z</time>
      </trkpt>
      <trkpt lat="43.00561" lon="0.32421">
        <ele>868.4</ele>
        <time>2026-07-08T10:06:20Z</time>
      </trkpt>
      <trkpt lat="43.00561" lon="0.32423">
        <ele>868.4</ele>
        <time>2026-07-08T10:06:21Z</time>
      </trkpt>
      <trkpt lat="43.00562" lon="0.32424">
        <ele>868.4</ele>
        <time>2026-07-08T10:06:22Z</time>
      </trkpt>
      <trkpt lat="43.00563" lon="0.32425">
        <ele>868.4</ele>
        <time>2026-07-08T10:06:23Z</time>
      </trkpt>
      <trkpt lat="43.00563" lon="0.32425">
        <ele>867.4</ele>
        <time>2026-07-08T10:06:23Z</time>
      </trkpt>
      <trkpt lat="43.00564" lon="0.32426">
        <ele>867.4</ele>
        <time>2026-07-08T10:06:24Z</time>
      </trkpt>
      <trkpt lat="43.00564" lon="0.32426">
        <ele>867.4</ele>
        <time>2026-07-08T10:06:24Z</time>
      </trkpt>
      <trkpt lat="43.00565" lon="0.32426">
        <ele>868.4</ele>
        <time>2026-07-08T10:06:25Z</time>
      </trkpt>
      <trkpt lat="43.00565" lon="0.32427">
        <ele>868.4</ele>
        <time>2026-07-08T10:06:25Z</time>
      </trkpt>
      <trkpt lat="43.00565" lon="0.32427">
        <ele>867.4</ele>
        <time>2026-07-08T10:06:26Z</time>
      </trkpt>
      <trkpt lat="43.00566" lon="0.32427">
        <ele>867.4</ele>
        <time>2026-07-08T10:06:27Z</time>
      </trkpt>
      <trkpt lat="43.00567" lon="0.32427">
        <ele>868.4</ele>
        <time>2026-07-08T10:06:27Z</time>
      </trkpt>
      <trkpt lat="43.00567" lon="0.32427">
        <ele>868.4</ele>
        <time>2026-07-08T10:06:28Z</time>
      </trkpt>
      <trkpt lat="43.00568" lon="0.32427">
        <ele>867.4</ele>
        <time>2026-07-08T10:06:28Z</time>
      </trkpt>
      <trkpt lat="43.00568" lon="0.32428">
        <ele>867.4</ele>
        <time>2026-07-08T10:06:29Z</time>
      </trkpt>
      <trkpt lat="43.00569" lon="0.32427">
        <ele>867.4</ele>
        <time>2026-07-08T10:06:29Z</time>
      </trkpt>
      <trkpt lat="43.0057" lon="0.32427">
        <ele>867.4</ele>
        <time>2026-07-08T10:06:30Z</time>
      </trkpt>
      <trkpt lat="43.0057" lon="0.32427">
        <ele>867.4</ele>
        <time>2026-07-08T10:06:30Z</time>
      </trkpt>
      <trkpt lat="43.00571" lon="0.32427">
        <ele>867.4</ele>
        <time>2026-07-08T10:06:31Z</time>
      </trkpt>
      <trkpt lat="43.00571" lon="0.32427">
        <ele>867.4</ele>
        <time>2026-07-08T10:06:31Z</time>
      </trkpt>
      <trkpt lat="43.00572" lon="0.32427">
        <ele>867.4</ele>
        <time>2026-07-08T10:06:32Z</time>
      </trkpt>
      <trkpt lat="43.00572" lon="0.32426">
        <ele>866.4</ele>
        <time>2026-07-08T10:06:32Z</time>
      </trkpt>
      <trkpt lat="43.00573" lon="0.32426">
        <ele>866.4</ele>
        <time>2026-07-08T10:06:33Z</time>
      </trkpt>
      <trkpt lat="43.00573" lon="0.32426">
        <ele>866.4</ele>
        <time>2026-07-08T10:06:33Z</time>
      </trkpt>
      <trkpt lat="43.00574" lon="0.32426">
        <ele>865.4</ele>
        <time>2026-07-08T10:06:34Z</time>
      </trkpt>
      <trkpt lat="43.00575" lon="0.32426">
        <ele>865.4</ele>
        <time>2026-07-08T10:06:35Z</time>
      </trkpt>
      <trkpt lat="43.00575" lon="0.32426">
        <ele>865.4</ele>
        <time>2026-07-08T10:06:35Z</time>
      </trkpt>
      <trkpt lat="43.00576" lon="0.32427">
        <ele>865.4</ele>
        <time>2026-07-08T10:06:36Z</time>
      </trkpt>
      <trkpt lat="43.00577" lon="0.32427">
        <ele>865.4</ele>
        <time>2026-07-08T10:06:37Z</time>
      </trkpt>
      <trkpt lat="43.00578" lon="0.32428">
        <ele>864.4</ele>
        <time>2026-07-08T10:06:38Z</time>
      </trkpt>
      <trkpt lat="43.00578" lon="0.32428">
        <ele>864.4</ele>
        <time>2026-07-08T10:06:38Z</time>
      </trkpt>
      <trkpt lat="43.00579" lon="0.32429">
        <ele>864.4</ele>
        <time>2026-07-08T10:06:39Z</time>
      </trkpt>
      <trkpt lat="43.00579" lon="0.3243">
        <ele>864.4</ele>
        <time>2026-07-08T10:06:40Z</time>
      </trkpt>
      <trkpt lat="43.00579" lon="0.32431">
        <ele>864.4</ele>
        <time>2026-07-08T10:06:40Z</time>
      </trkpt>
      <trkpt lat="43.00579" lon="0.32431">
        <ele>864.4</ele>
        <time>2026-07-08T10:06:41Z</time>
      </trkpt>
      <trkpt lat="43.0058" lon="0.32432">
        <ele>864.4</ele>
        <time>2026-07-08T10:06:41Z</time>
      </trkpt>
      <trkpt lat="43.0058" lon="0.32433">
        <ele>864.4</ele>
        <time>2026-07-08T10:06:42Z</time>
      </trkpt>
      <trkpt lat="43.00581" lon="0.32434">
        <ele>864.4</ele>
        <time>2026-07-08T10:06:43Z</time>
      </trkpt>
      <trkpt lat="43.00582" lon="0.32434">
        <ele>863.4</ele>
        <time>2026-07-08T10:06:43Z</time>
      </trkpt>
      <trkpt lat="43.00582" lon="0.32435">
        <ele>863.4</ele>
        <time>2026-07-08T10:06:44Z</time>
      </trkpt>
      <trkpt lat="43.00583" lon="0.32436">
        <ele>863.4</ele>
        <time>2026-07-08T10:06:45Z</time>
      </trkpt>
      <trkpt lat="43.00583" lon="0.32436">
        <ele>864.4</ele>
        <time>2026-07-08T10:06:45Z</time>
      </trkpt>
      <trkpt lat="43.00584" lon="0.32437">
        <ele>864.4</ele>
        <time>2026-07-08T10:06:46Z</time>
      </trkpt>
      <trkpt lat="43.00584" lon="0.32437">
        <ele>864.4</ele>
        <time>2026-07-08T10:06:46Z</time>
      </trkpt>
      <trkpt lat="43.00585" lon="0.32437">
        <ele>864.4</ele>
        <time>2026-07-08T10:06:47Z</time>
      </trkpt>
      <trkpt lat="43.00585" lon="0.32438">
        <ele>863.4</ele>
        <time>2026-07-08T10:06:47Z</time>
      </trkpt>
      <trkpt lat="43.00586" lon="0.32438">
        <ele>863.4</ele>
        <time>2026-07-08T10:06:48Z</time>
      </trkpt>
      <trkpt lat="43.00586" lon="0.32438">
        <ele>863.4</ele>
        <time>2026-07-08T10:06:48Z</time>
      </trkpt>
      <trkpt lat="43.00586" lon="0.32439">
        <ele>863.4</ele>
        <time>2026-07-08T10:06:49Z</time>
      </trkpt>
      <trkpt lat="43.00587" lon="0.32439">
        <ele>862.4</ele>
        <time>2026-07-08T10:06:50Z</time>
      </trkpt>
      <trkpt lat="43.00587" lon="0.32438">
        <ele>862.4</ele>
        <time>2026-07-08T10:06:50Z</time>
      </trkpt>
      <trkpt lat="43.00588" lon="0.32438">
        <ele>862.4</ele>
        <time>2026-07-08T10:06:51Z</time>
      </trkpt>
      <trkpt lat="43.00588" lon="0.32438">
        <ele>862.4</ele>
        <time>2026-07-08T10:06:51Z</time>
      </trkpt>
      <trkpt lat="43.00589" lon="0.32437">
        <ele>862.4</ele>
        <time>2026-07-08T10:06:52Z</time>
      </trkpt>
      <trkpt lat="43.00589" lon="0.32436">
        <ele>861.4</ele>
        <time>2026-07-08T10:06:52Z</time>
      </trkpt>
      <trkpt lat="43.0059" lon="0.32436">
        <ele>861.4</ele>
        <time>2026-07-08T10:06:53Z</time>
      </trkpt>
      <trkpt lat="43.00591" lon="0.32435">
        <ele>861.4</ele>
        <time>2026-07-08T10:06:54Z</time>
      </trkpt>
      <trkpt lat="43.00591" lon="0.32435">
        <ele>861.4</ele>
        <time>2026-07-08T10:06:54Z</time>
      </trkpt>
      <trkpt lat="43.00592" lon="0.32436">
        <ele>861.4</ele>
        <time>2026-07-08T10:06:55Z</time>
      </trkpt>
      <trkpt lat="43.00592" lon="0.32436">
        <ele>860.4</ele>
        <time>2026-07-08T10:06:55Z</time>
      </trkpt>
      <trkpt lat="43.00592" lon="0.32437">
        <ele>860.4</ele>
        <time>2026-07-08T10:06:56Z</time>
      </trkpt>
      <trkpt lat="43.00593" lon="0.32437">
        <ele>860.4</ele>
        <time>2026-07-08T10:06:56Z</time>
      </trkpt>
      <trkpt lat="43.00593" lon="0.32438">
        <ele>860.4</ele>
        <time>2026-07-08T10:06:57Z</time>
      </trkpt>
      <trkpt lat="43.00593" lon="0.32438">
        <ele>859.4</ele>
        <time>2026-07-08T10:06:58Z</time>
      </trkpt>
      <trkpt lat="43.00594" lon="0.32439">
        <ele>859.4</ele>
        <time>2026-07-08T10:06:59Z</time>
      </trkpt>
      <trkpt lat="43.00595" lon="0.3244">
        <ele>859.4</ele>
        <time>2026-07-08T10:06:59Z</time>
      </trkpt>
      <trkpt lat="43.00595" lon="0.3244">
        <ele>859.4</ele>
        <time>2026-07-08T10:07:00Z</time>
      </trkpt>
      <trkpt lat="43.00596" lon="0.3244">
        <ele>859.4</ele>
        <time>2026-07-08T10:07:01Z</time>
      </trkpt>
      <trkpt lat="43.00597" lon="0.3244">
        <ele>859.4</ele>
        <time>2026-07-08T10:07:02Z</time>
      </trkpt>
      <trkpt lat="43.00597" lon="0.3244">
        <ele>859.4</ele>
        <time>2026-07-08T10:07:02Z</time>
      </trkpt>
      <trkpt lat="43.00597" lon="0.32441">
        <ele>859.4</ele>
        <time>2026-07-08T10:07:03Z</time>
      </trkpt>
      <trkpt lat="43.00598" lon="0.32441">
        <ele>859.4</ele>
        <time>2026-07-08T10:07:04Z</time>
      </trkpt>
      <trkpt lat="43.00598" lon="0.32441">
        <ele>858.4</ele>
        <time>2026-07-08T10:07:04Z</time>
      </trkpt>
      <trkpt lat="43.00599" lon="0.32442">
        <ele>858.4</ele>
        <time>2026-07-08T10:07:05Z</time>
      </trkpt>
      <trkpt lat="43.00599" lon="0.32442">
        <ele>858.4</ele>
        <time>2026-07-08T10:07:05Z</time>
      </trkpt>
      <trkpt lat="43.00599" lon="0.32442">
        <ele>858.4</ele>
        <time>2026-07-08T10:07:06Z</time>
      </trkpt>
      <trkpt lat="43.00599" lon="0.32443">
        <ele>858.4</ele>
        <time>2026-07-08T10:07:06Z</time>
      </trkpt>
      <trkpt lat="43.006" lon="0.32443">
        <ele>858.4</ele>
        <time>2026-07-08T10:07:07Z</time>
      </trkpt>
      <trkpt lat="43.006" lon="0.32443">
        <ele>857.4</ele>
        <time>2026-07-08T10:07:07Z</time>
      </trkpt>
      <trkpt lat="43.00601" lon="0.32443">
        <ele>857.4</ele>
        <time>2026-07-08T10:07:08Z</time>
      </trkpt>
      <trkpt lat="43.00601" lon="0.32443">
        <ele>857.4</ele>
        <time>2026-07-08T10:07:08Z</time>
      </trkpt>
      <trkpt lat="43.00602" lon="0.32443">
        <ele>858.4</ele>
        <time>2026-07-08T10:07:09Z</time>
      </trkpt>
      <trkpt lat="43.00603" lon="0.32443">
        <ele>858.4</ele>
        <time>2026-07-08T10:07:10Z</time>
      </trkpt>
      <trkpt lat="43.00603" lon="0.32443">
        <ele>857.4</ele>
        <time>2026-07-08T10:07:10Z</time>
      </trkpt>
      <trkpt lat="43.00604" lon="0.32443">
        <ele>857.4</ele>
        <time>2026-07-08T10:07:11Z</time>
      </trkpt>
      <trkpt lat="43.00605" lon="0.32443">
        <ele>857.4</ele>
        <time>2026-07-08T10:07:12Z</time>
      </trkpt>
      <trkpt lat="43.00605" lon="0.32443">
        <ele>857.4</ele>
        <time>2026-07-08T10:07:12Z</time>
      </trkpt>
      <trkpt lat="43.00606" lon="0.32443">
        <ele>857.4</ele>
        <time>2026-07-08T10:07:13Z</time>
      </trkpt>
      <trkpt lat="43.00606" lon="0.32443">
        <ele>856.4</ele>
        <time>2026-07-08T10:07:13Z</time>
      </trkpt>
      <trkpt lat="43.00606" lon="0.32444">
        <ele>856.4</ele>
        <time>2026-07-08T10:07:14Z</time>
      </trkpt>
      <trkpt lat="43.00606" lon="0.32444">
        <ele>856.4</ele>
        <time>2026-07-08T10:07:14Z</time>
      </trkpt>
      <trkpt lat="43.00607" lon="0.32444">
        <ele>856.4</ele>
        <time>2026-07-08T10:07:15Z</time>
      </trkpt>
      <trkpt lat="43.00607" lon="0.32444">
        <ele>856.4</ele>
        <time>2026-07-08T10:07:15Z</time>
      </trkpt>
      <trkpt lat="43.00608" lon="0.32445">
        <ele>856.4</ele>
        <time>2026-07-08T10:07:16Z</time>
      </trkpt>
      <trkpt lat="43.00608" lon="0.32445">
        <ele>856.4</ele>
        <time>2026-07-08T10:07:16Z</time>
      </trkpt>
      <trkpt lat="43.00608" lon="0.32445">
        <ele>856.4</ele>
        <time>2026-07-08T10:07:17Z</time>
      </trkpt>
      <trkpt lat="43.00609" lon="0.32445">
        <ele>855.4</ele>
        <time>2026-07-08T10:07:17Z</time>
      </trkpt>
      <trkpt lat="43.00609" lon="0.32445">
        <ele>855.4</ele>
        <time>2026-07-08T10:07:18Z</time>
      </trkpt>
      <trkpt lat="43.00609" lon="0.32446">
        <ele>855.4</ele>
        <time>2026-07-08T10:07:19Z</time>
      </trkpt>
      <trkpt lat="43.0061" lon="0.32446">
        <ele>855.4</ele>
        <time>2026-07-08T10:07:20Z</time>
      </trkpt>
      <trkpt lat="43.0061" lon="0.32446">
        <ele>855.4</ele>
        <time>2026-07-08T10:07:20Z</time>
      </trkpt>
      <trkpt lat="43.00611" lon="0.32447">
        <ele>855.4</ele>
        <time>2026-07-08T10:07:21Z</time>
      </trkpt>
      <trkpt lat="43.00611" lon="0.32447">
        <ele>855.4</ele>
        <time>2026-07-08T10:07:21Z</time>
      </trkpt>
      <trkpt lat="43.00612" lon="0.32447">
        <ele>855.4</ele>
        <time>2026-07-08T10:07:22Z</time>
      </trkpt>
      <trkpt lat="43.00612" lon="0.32447">
        <ele>854.4</ele>
        <time>2026-07-08T10:07:22Z</time>
      </trkpt>
      <trkpt lat="43.00613" lon="0.32447">
        <ele>854.4</ele>
        <time>2026-07-08T10:07:23Z</time>
      </trkpt>
      <trkpt lat="43.00613" lon="0.32447">
        <ele>854.4</ele>
        <time>2026-07-08T10:07:23Z</time>
      </trkpt>
      <trkpt lat="43.00613" lon="0.32447">
        <ele>854.4</ele>
        <time>2026-07-08T10:07:24Z</time>
      </trkpt>
      <trkpt lat="43.00614" lon="0.32448">
        <ele>854.4</ele>
        <time>2026-07-08T10:07:24Z</time>
      </trkpt>
      <trkpt lat="43.00614" lon="0.32448">
        <ele>853.4</ele>
        <time>2026-07-08T10:07:25Z</time>
      </trkpt>
      <trkpt lat="43.00614" lon="0.32449">
        <ele>853.4</ele>
        <time>2026-07-08T10:07:26Z</time>
      </trkpt>
      <trkpt lat="43.00614" lon="0.3245">
        <ele>852.4</ele>
        <time>2026-07-08T10:07:26Z</time>
      </trkpt>
      <trkpt lat="43.00615" lon="0.32451">
        <ele>852.4</ele>
        <time>2026-07-08T10:07:27Z</time>
      </trkpt>
      <trkpt lat="43.00615" lon="0.32451">
        <ele>852.4</ele>
        <time>2026-07-08T10:07:27Z</time>
      </trkpt>
      <trkpt lat="43.00615" lon="0.32452">
        <ele>852.4</ele>
        <time>2026-07-08T10:07:28Z</time>
      </trkpt>
      <trkpt lat="43.00615" lon="0.32453">
        <ele>852.4</ele>
        <time>2026-07-08T10:07:28Z</time>
      </trkpt>
      <trkpt lat="43.00615" lon="0.32453">
        <ele>852.4</ele>
        <time>2026-07-08T10:07:29Z</time>
      </trkpt>
      <trkpt lat="43.00615" lon="0.32454">
        <ele>851.4</ele>
        <time>2026-07-08T10:07:29Z</time>
      </trkpt>
      <trkpt lat="43.00615" lon="0.32455">
        <ele>851.4</ele>
        <time>2026-07-08T10:07:30Z</time>
      </trkpt>
      <trkpt lat="43.00615" lon="0.32456">
        <ele>850.4</ele>
        <time>2026-07-08T10:07:30Z</time>
      </trkpt>
      <trkpt lat="43.00616" lon="0.32456">
        <ele>850.4</ele>
        <time>2026-07-08T10:07:31Z</time>
      </trkpt>
      <trkpt lat="43.00616" lon="0.32458">
        <ele>850.4</ele>
        <time>2026-07-08T10:07:32Z</time>
      </trkpt>
      <trkpt lat="43.00616" lon="0.32458">
        <ele>850.4</ele>
        <time>2026-07-08T10:07:32Z</time>
      </trkpt>
      <trkpt lat="43.00616" lon="0.32459">
        <ele>850.4</ele>
        <time>2026-07-08T10:07:33Z</time>
      </trkpt>
      <trkpt lat="43.00616" lon="0.32459">
        <ele>850.4</ele>
        <time>2026-07-08T10:07:33Z</time>
      </trkpt>
      <trkpt lat="43.00616" lon="0.3246">
        <ele>849.4</ele>
        <time>2026-07-08T10:07:34Z</time>
      </trkpt>
      <trkpt lat="43.00616" lon="0.32461">
        <ele>849.4</ele>
        <time>2026-07-08T10:07:35Z</time>
      </trkpt>
      <trkpt lat="43.00616" lon="0.32462">
        <ele>849.4</ele>
        <time>2026-07-08T10:07:35Z</time>
      </trkpt>
      <trkpt lat="43.00616" lon="0.32462">
        <ele>849.4</ele>
        <time>2026-07-08T10:07:36Z</time>
      </trkpt>
      <trkpt lat="43.00616" lon="0.32463">
        <ele>849.4</ele>
        <time>2026-07-08T10:07:36Z</time>
      </trkpt>
      <trkpt lat="43.00616" lon="0.32464">
        <ele>849.4</ele>
        <time>2026-07-08T10:07:37Z</time>
      </trkpt>
      <trkpt lat="43.00616" lon="0.32465">
        <ele>849.4</ele>
        <time>2026-07-08T10:07:38Z</time>
      </trkpt>
      <trkpt lat="43.00616" lon="0.32466">
        <ele>850.4</ele>
        <time>2026-07-08T10:07:38Z</time>
      </trkpt>
      <trkpt lat="43.00616" lon="0.32467">
        <ele>850.4</ele>
        <time>2026-07-08T10:07:39Z</time>
      </trkpt>
      <trkpt lat="43.00617" lon="0.32468">
        <ele>850.4</ele>
        <time>2026-07-08T10:07:40Z</time>
      </trkpt>
      <trkpt lat="43.00617" lon="0.32469">
        <ele>850.4</ele>
        <time>2026-07-08T10:07:41Z</time>
      </trkpt>
      <trkpt lat="43.00617" lon="0.32469">
        <ele>850.4</ele>
        <time>2026-07-08T10:07:41Z</time>
      </trkpt>
      <trkpt lat="43.00617" lon="0.32471">
        <ele>850.4</ele>
        <time>2026-07-08T10:07:42Z</time>
      </trkpt>
      <trkpt lat="43.00617" lon="0.32472">
        <ele>850.4</ele>
        <time>2026-07-08T10:07:43Z</time>
      </trkpt>
      <trkpt lat="43.00618" lon="0.32473">
        <ele>850.4</ele>
        <time>2026-07-08T10:07:44Z</time>
      </trkpt>
      <trkpt lat="43.00618" lon="0.32474">
        <ele>850.4</ele>
        <time>2026-07-08T10:07:44Z</time>
      </trkpt>
      <trkpt lat="43.00618" lon="0.32475">
        <ele>850.4</ele>
        <time>2026-07-08T10:07:45Z</time>
      </trkpt>
      <trkpt lat="43.00619" lon="0.32475">
        <ele>850.4</ele>
        <time>2026-07-08T10:07:46Z</time>
      </trkpt>
      <trkpt lat="43.00619" lon="0.32476">
        <ele>849.4</ele>
        <time>2026-07-08T10:07:46Z</time>
      </trkpt>
      <trkpt lat="43.0062" lon="0.32476">
        <ele>849.4</ele>
        <time>2026-07-08T10:07:47Z</time>
      </trkpt>
      <trkpt lat="43.0062" lon="0.32477">
        <ele>850.4</ele>
        <time>2026-07-08T10:07:47Z</time>
      </trkpt>
      <trkpt lat="43.00621" lon="0.32478">
        <ele>850.4</ele>
        <time>2026-07-08T10:07:48Z</time>
      </trkpt>
      <trkpt lat="43.00621" lon="0.32478">
        <ele>849.4</ele>
        <time>2026-07-08T10:07:48Z</time>
      </trkpt>
      <trkpt lat="43.00622" lon="0.32479">
        <ele>849.4</ele>
        <time>2026-07-08T10:07:49Z</time>
      </trkpt>
      <trkpt lat="43.00623" lon="0.3248">
        <ele>849.4</ele>
        <time>2026-07-08T10:07:50Z</time>
      </trkpt>
      <trkpt lat="43.00624" lon="0.32481">
        <ele>849.4</ele>
        <time>2026-07-08T10:07:50Z</time>
      </trkpt>
      <trkpt lat="43.00624" lon="0.32481">
        <ele>849.4</ele>
        <time>2026-07-08T10:07:51Z</time>
      </trkpt>
      <trkpt lat="43.00625" lon="0.32482">
        <ele>849.4</ele>
        <time>2026-07-08T10:07:51Z</time>
      </trkpt>
      <trkpt lat="43.00626" lon="0.32482">
        <ele>848.4</ele>
        <time>2026-07-08T10:07:52Z</time>
      </trkpt>
      <trkpt lat="43.00626" lon="0.32483">
        <ele>848.4</ele>
        <time>2026-07-08T10:07:52Z</time>
      </trkpt>
      <trkpt lat="43.00627" lon="0.32484">
        <ele>848.4</ele>
        <time>2026-07-08T10:07:53Z</time>
      </trkpt>
      <trkpt lat="43.00628" lon="0.32484">
        <ele>848.4</ele>
        <time>2026-07-08T10:07:54Z</time>
      </trkpt>
      <trkpt lat="43.00628" lon="0.32484">
        <ele>848.4</ele>
        <time>2026-07-08T10:07:54Z</time>
      </trkpt>
      <trkpt lat="43.00629" lon="0.32485">
        <ele>848.4</ele>
        <time>2026-07-08T10:07:55Z</time>
      </trkpt>
      <trkpt lat="43.0063" lon="0.32486">
        <ele>847.4</ele>
        <time>2026-07-08T10:07:56Z</time>
      </trkpt>
      <trkpt lat="43.0063" lon="0.32486">
        <ele>847.4</ele>
        <time>2026-07-08T10:07:56Z</time>
      </trkpt>
      <trkpt lat="43.00631" lon="0.32486">
        <ele>847.4</ele>
        <time>2026-07-08T10:07:57Z</time>
      </trkpt>
      <trkpt lat="43.00632" lon="0.32486">
        <ele>847.4</ele>
        <time>2026-07-08T10:07:57Z</time>
      </trkpt>
      <trkpt lat="43.00632" lon="0.32487">
        <ele>846.4</ele>
        <time>2026-07-08T10:07:58Z</time>
      </trkpt>
      <trkpt lat="43.00633" lon="0.32487">
        <ele>846.4</ele>
        <time>2026-07-08T10:07:59Z</time>
      </trkpt>
      <trkpt lat="43.00634" lon="0.32488">
        <ele>846.4</ele>
        <time>2026-07-08T10:08:00Z</time>
      </trkpt>
      <trkpt lat="43.00634" lon="0.32489">
        <ele>846.4</ele>
        <time>2026-07-08T10:08:00Z</time>
      </trkpt>
      <trkpt lat="43.00634" lon="0.32489">
        <ele>846.4</ele>
        <time>2026-07-08T10:08:01Z</time>
      </trkpt>
      <trkpt lat="43.00635" lon="0.3249">
        <ele>846.4</ele>
        <time>2026-07-08T10:08:01Z</time>
      </trkpt>
      <trkpt lat="43.00635" lon="0.32491">
        <ele>846.4</ele>
        <time>2026-07-08T10:08:02Z</time>
      </trkpt>
      <trkpt lat="43.00635" lon="0.32492">
        <ele>846.4</ele>
        <time>2026-07-08T10:08:03Z</time>
      </trkpt>
      <trkpt lat="43.00635" lon="0.32493">
        <ele>845.4</ele>
        <time>2026-07-08T10:08:03Z</time>
      </trkpt>
      <trkpt lat="43.00635" lon="0.32494">
        <ele>845.4</ele>
        <time>2026-07-08T10:08:04Z</time>
      </trkpt>
      <trkpt lat="43.00635" lon="0.32495">
        <ele>845.4</ele>
        <time>2026-07-08T10:08:04Z</time>
      </trkpt>
      <trkpt lat="43.00635" lon="0.32496">
        <ele>845.4</ele>
        <time>2026-07-08T10:08:05Z</time>
      </trkpt>
      <trkpt lat="43.00635" lon="0.32497">
        <ele>845.4</ele>
        <time>2026-07-08T10:08:06Z</time>
      </trkpt>
      <trkpt lat="43.00635" lon="0.32497">
        <ele>844.4</ele>
        <time>2026-07-08T10:08:06Z</time>
      </trkpt>
      <trkpt lat="43.00635" lon="0.32498">
        <ele>845.4</ele>
        <time>2026-07-08T10:08:07Z</time>
      </trkpt>
      <trkpt lat="43.00635" lon="0.325">
        <ele>845.4</ele>
        <time>2026-07-08T10:08:08Z</time>
      </trkpt>
      <trkpt lat="43.00635" lon="0.325">
        <ele>844.4</ele>
        <time>2026-07-08T10:08:08Z</time>
      </trkpt>
      <trkpt lat="43.00635" lon="0.32501">
        <ele>844.4</ele>
        <time>2026-07-08T10:08:09Z</time>
      </trkpt>
      <trkpt lat="43.00635" lon="0.32502">
        <ele>844.4</ele>
        <time>2026-07-08T10:08:10Z</time>
      </trkpt>
      <trkpt lat="43.00635" lon="0.32503">
        <ele>844.4</ele>
        <time>2026-07-08T10:08:10Z</time>
      </trkpt>
      <trkpt lat="43.00635" lon="0.32504">
        <ele>844.4</ele>
        <time>2026-07-08T10:08:11Z</time>
      </trkpt>
      <trkpt lat="43.00635" lon="0.32504">
        <ele>843.4</ele>
        <time>2026-07-08T10:08:11Z</time>
      </trkpt>
      <trkpt lat="43.00635" lon="0.32505">
        <ele>843.4</ele>
        <time>2026-07-08T10:08:12Z</time>
      </trkpt>
      <trkpt lat="43.00635" lon="0.32506">
        <ele>843.4</ele>
        <time>2026-07-08T10:08:13Z</time>
      </trkpt>
      <trkpt lat="43.00634" lon="0.32507">
        <ele>842.4</ele>
        <time>2026-07-08T10:08:13Z</time>
      </trkpt>
      <trkpt lat="43.00634" lon="0.32508">
        <ele>842.4</ele>
        <time>2026-07-08T10:08:14Z</time>
      </trkpt>
      <trkpt lat="43.00634" lon="0.32508">
        <ele>842.4</ele>
        <time>2026-07-08T10:08:14Z</time>
      </trkpt>
      <trkpt lat="43.00634" lon="0.32509">
        <ele>842.4</ele>
        <time>2026-07-08T10:08:15Z</time>
      </trkpt>
      <trkpt lat="43.00634" lon="0.3251">
        <ele>842.4</ele>
        <time>2026-07-08T10:08:16Z</time>
      </trkpt>
      <trkpt lat="43.00634" lon="0.3251">
        <ele>842.4</ele>
        <time>2026-07-08T10:08:16Z</time>
      </trkpt>
      <trkpt lat="43.00634" lon="0.32511">
        <ele>842.4</ele>
        <time>2026-07-08T10:08:17Z</time>
      </trkpt>
      <trkpt lat="43.00635" lon="0.32511">
        <ele>842.4</ele>
        <time>2026-07-08T10:08:18Z</time>
      </trkpt>
      <trkpt lat="43.00635" lon="0.32511">
        <ele>841.4</ele>
        <time>2026-07-08T10:08:18Z</time>
      </trkpt>
      <trkpt lat="43.00635" lon="0.32511">
        <ele>841.4</ele>
        <time>2026-07-08T10:08:19Z</time>
      </trkpt>
      <trkpt lat="43.00636" lon="0.32511">
        <ele>841.4</ele>
        <time>2026-07-08T10:08:20Z</time>
      </trkpt>
      <trkpt lat="43.00635" lon="0.3251">
        <ele>841.4</ele>
        <time>2026-07-08T10:08:21Z</time>
      </trkpt>
      <trkpt lat="43.00635" lon="0.32509">
        <ele>841.4</ele>
        <time>2026-07-08T10:08:22Z</time>
      </trkpt>
      <trkpt lat="43.00635" lon="0.32508">
        <ele>841.4</ele>
        <time>2026-07-08T10:08:23Z</time>
      </trkpt>
      <trkpt lat="43.00635" lon="0.32508">
        <ele>841.4</ele>
        <time>2026-07-08T10:08:23Z</time>
      </trkpt>
      <trkpt lat="43.00635" lon="0.32508">
        <ele>840.4</ele>
        <time>2026-07-08T10:08:24Z</time>
      </trkpt>
      <trkpt lat="43.00634" lon="0.32508">
        <ele>840.4</ele>
        <time>2026-07-08T10:08:25Z</time>
      </trkpt>
      <trkpt lat="43.00634" lon="0.32508">
        <ele>841.4</ele>
        <time>2026-07-08T10:08:26Z</time>
      </trkpt>
      <trkpt lat="43.00635" lon="0.32508">
        <ele>840.4</ele>
        <time>2026-07-08T10:08:27Z</time>
      </trkpt>
      <trkpt lat="43.00635" lon="0.32508">
        <ele>840.4</ele>
        <time>2026-07-08T10:08:28Z</time>
      </trkpt>
      <trkpt lat="43.00635" lon="0.32508">
        <ele>840.4</ele>
        <time>2026-07-08T10:08:29Z</time>
      </trkpt>
      <trkpt lat="43.00635" lon="0.32508">
        <ele>840.4</ele>
        <time>2026-07-08T10:08:29Z</time>
      </trkpt>
      <trkpt lat="43.00635" lon="0.32508">
        <ele>839.4</ele>
        <time>2026-07-08T10:08:30Z</time>
      </trkpt>
      <trkpt lat="43.00635" lon="0.32508">
        <ele>840.4</ele>
        <time>2026-07-08T10:08:31Z</time>
      </trkpt>
      <trkpt lat="43.00635" lon="0.32508">
        <ele>840.4</ele>
        <time>2026-07-08T10:08:32Z</time>
      </trkpt>
      <trkpt lat="43.00635" lon="0.32508">
        <ele>840.4</ele>
        <time>2026-07-08T10:08:32Z</time>
      </trkpt>
      <trkpt lat="43.00635" lon="0.32508">
        <ele>840.4</ele>
        <time>2026-07-08T10:08:33Z</time>
      </trkpt>
      <trkpt lat="43.00635" lon="0.32508">
        <ele>840.4</ele>
        <time>2026-07-08T10:08:34Z</time>
      </trkpt>
      <trkpt lat="43.00635" lon="0.32508">
        <ele>839.4</ele>
        <time>2026-07-08T10:08:35Z</time>
      </trkpt>
      <trkpt lat="43.00635" lon="0.32508">
        <ele>839.4</ele>
        <time>2026-07-08T10:08:36Z</time>
      </trkpt>
      <trkpt lat="43.00635" lon="0.32508">
        <ele>839.4</ele>
        <time>2026-07-08T10:08:37Z</time>
      </trkpt>
      <trkpt lat="43.00635" lon="0.32508">
        <ele>839.4</ele>
        <time>2026-07-08T10:08:38Z</time>
      </trkpt>
      <trkpt lat="43.00635" lon="0.32508">
        <ele>838.4</ele>
        <time>2026-07-08T10:08:39Z</time>
      </trkpt>
      <trkpt lat="43.00635" lon="0.32507">
        <ele>839.4</ele>
        <time>2026-07-08T10:08:40Z</time>
      </trkpt>
      <trkpt lat="43.00635" lon="0.32507">
        <ele>840.4</ele>
        <time>2026-07-08T10:08:41Z</time>
      </trkpt>
      <trkpt lat="43.00635" lon="0.32507">
        <ele>839.4</ele>
        <time>2026-07-08T10:08:42Z</time>
      </trkpt>
      <trkpt lat="43.00635" lon="0.32507">
        <ele>839.4</ele>
        <time>2026-07-08T10:08:43Z</time>
      </trkpt>
      <trkpt lat="43.00635" lon="0.32507">
        <ele>839.4</ele>
        <time>2026-07-08T10:08:44Z</time>
      </trkpt>
      <trkpt lat="43.00635" lon="0.32507">
        <ele>839.4</ele>
        <time>2026-07-08T10:08:45Z</time>
      </trkpt>
      <trkpt lat="43.00635" lon="0.32507">
        <ele>839.4</ele>
        <time>2026-07-08T10:08:46Z</time>
      </trkpt>
      <trkpt lat="43.00635" lon="0.32507">
        <ele>839.4</ele>
        <time>2026-07-08T10:08:47Z</time>
      </trkpt>
      <trkpt lat="43.00635" lon="0.32507">
        <ele>839.4</ele>
        <time>2026-07-08T10:08:48Z</time>
      </trkpt>
      <trkpt lat="43.00635" lon="0.32506">
        <ele>839.4</ele>
        <time>2026-07-08T10:08:49Z</time>
      </trkpt>
      <trkpt lat="43.00635" lon="0.32506">
        <ele>839.4</ele>
        <time>2026-07-08T10:08:50Z</time>
      </trkpt>
      <trkpt lat="43.00635" lon="0.32506">
        <ele>839.4</ele>
        <time>2026-07-08T10:08:51Z</time>
      </trkpt>
      <trkpt lat="43.00635" lon="0.32506">
        <ele>839.4</ele>
        <time>2026-07-08T10:08:52Z</time>
      </trkpt>
      <trkpt lat="43.00635" lon="0.32506">
        <ele>839.4</ele>
        <time>2026-07-08T10:08:53Z</time>
      </trkpt>
      <trkpt lat="43.00635" lon="0.32506">
        <ele>839.4</ele>
        <time>2026-07-08T10:08:54Z</time>
      </trkpt>
      <trkpt lat="43.00635" lon="0.32506">
        <ele>839.4</ele>
        <time>2026-07-08T10:08:55Z</time>
      </trkpt>
      <trkpt lat="43.00635" lon="0.32506">
        <ele>839.4</ele>
        <time>2026-07-08T10:08:56Z</time>
      </trkpt>
      <trkpt lat="43.00635" lon="0.32506">
        <ele>839.4</ele>
        <time>2026-07-08T10:08:57Z</time>
      </trkpt>
      <trkpt lat="43.00635" lon="0.32506">
        <ele>839.4</ele>
        <time>2026-07-08T10:08:58Z</time>
      </trkpt>
      <trkpt lat="43.00635" lon="0.32506">
        <ele>839.4</ele>
        <time>2026-07-08T10:08:59Z</time>
      </trkpt>
      <trkpt lat="43.00635" lon="0.32506">
        <ele>839.4</ele>
        <time>2026-07-08T10:09:00Z</time>
      </trkpt>
      <trkpt lat="43.00635" lon="0.32506">
        <ele>839.4</ele>
        <time>2026-07-08T10:09:01Z</time>
      </trkpt>
      <trkpt lat="43.00635" lon="0.32506">
        <ele>839.4</ele>
        <time>2026-07-08T10:09:02Z</time>
      </trkpt>
      <trkpt lat="43.00635" lon="0.32506">
        <ele>838.4</ele>
        <time>2026-07-08T10:09:03Z</time>
      </trkpt>
      <trkpt lat="43.00635" lon="0.32505">
        <ele>838.4</ele>
        <time>2026-07-08T10:09:04Z</time>
      </trkpt>
      <trkpt lat="43.00635" lon="0.32505">
        <ele>838.4</ele>
        <time>2026-07-08T10:09:05Z</time>
      </trkpt>
      <trkpt lat="43.00635" lon="0.32505">
        <ele>838.4</ele>
        <time>2026-07-08T10:09:06Z</time>
      </trkpt>
      <trkpt lat="43.00635" lon="0.32505">
        <ele>838.4</ele>
        <time>2026-07-08T10:09:07Z</time>
      </trkpt>
      <trkpt lat="43.00634" lon="0.32505">
        <ele>837.4</ele>
        <time>2026-07-08T10:09:08Z</time>
      </trkpt>
      <trkpt lat="43.00634" lon="0.32505">
        <ele>837.4</ele>
        <time>2026-07-08T10:09:09Z</time>
      </trkpt>
      <trkpt lat="43.00634" lon="0.32505">
        <ele>837.4</ele>
        <time>2026-07-08T10:09:10Z</time>
      </trkpt>
      <trkpt lat="43.00634" lon="0.32505">
        <ele>837.4</ele>
        <time>2026-07-08T10:09:11Z</time>
      </trkpt>
      <trkpt lat="43.00634" lon="0.32506">
        <ele>837.4</ele>
        <time>2026-07-08T10:09:12Z</time>
      </trkpt>
      <trkpt lat="43.00633" lon="0.32506">
        <ele>838.4</ele>
        <time>2026-07-08T10:09:13Z</time>
      </trkpt>
      <trkpt lat="43.00633" lon="0.32506">
        <ele>837.4</ele>
        <time>2026-07-08T10:09:14Z</time>
      </trkpt>
      <trkpt lat="43.00633" lon="0.32506">
        <ele>837.4</ele>
        <time>2026-07-08T10:09:15Z</time>
      </trkpt>
      <trkpt lat="43.00633" lon="0.32506">
        <ele>837.4</ele>
        <time>2026-07-08T10:09:16Z</time>
      </trkpt>
      <trkpt lat="43.00633" lon="0.32507">
        <ele>837.4</ele>
        <time>2026-07-08T10:09:17Z</time>
      </trkpt>
      <trkpt lat="43.00633" lon="0.32507">
        <ele>838.4</ele>
        <time>2026-07-08T10:09:18Z</time>
      </trkpt>
      <trkpt lat="43.00632" lon="0.32507">
        <ele>838.4</ele>
        <time>2026-07-08T10:09:19Z</time>
      </trkpt>
      <trkpt lat="43.00632" lon="0.32508">
        <ele>839.4</ele>
        <time>2026-07-08T10:09:20Z</time>
      </trkpt>
      <trkpt lat="43.00632" lon="0.32508">
        <ele>839.4</ele>
        <time>2026-07-08T10:09:21Z</time>
      </trkpt>
      <trkpt lat="43.00632" lon="0.32509">
        <ele>839.4</ele>
        <time>2026-07-08T10:09:22Z</time>
      </trkpt>
      <trkpt lat="43.00632" lon="0.32509">
        <ele>839.4</ele>
        <time>2026-07-08T10:09:23Z</time>
      </trkpt>
      <trkpt lat="43.00632" lon="0.32509">
        <ele>839.4</ele>
        <time>2026-07-08T10:09:24Z</time>
      </trkpt>
      <trkpt lat="43.00632" lon="0.32509">
        <ele>839.4</ele>
        <time>2026-07-08T10:09:25Z</time>
      </trkpt>
      <trkpt lat="43.00631" lon="0.32509">
        <ele>839.4</ele>
        <time>2026-07-08T10:09:26Z</time>
      </trkpt>
      <trkpt lat="43.00631" lon="0.32509">
        <ele>839.4</ele>
        <time>2026-07-08T10:09:27Z</time>
      </trkpt>
      <trkpt lat="43.00631" lon="0.32509">
        <ele>839.4</ele>
        <time>2026-07-08T10:09:28Z</time>
      </trkpt>
      <trkpt lat="43.00631" lon="0.32509">
        <ele>839.4</ele>
        <time>2026-07-08T10:09:29Z</time>
      </trkpt>
      <trkpt lat="43.00631" lon="0.32509">
        <ele>839.4</ele>
        <time>2026-07-08T10:09:30Z</time>
      </trkpt>
      <trkpt lat="43.00631" lon="0.32509">
        <ele>839.4</ele>
        <time>2026-07-08T10:09:31Z</time>
      </trkpt>
      <trkpt lat="43.00631" lon="0.3251">
        <ele>840.4</ele>
        <time>2026-07-08T10:09:32Z</time>
      </trkpt>
      <trkpt lat="43.0063" lon="0.3251">
        <ele>839.4</ele>
        <time>2026-07-08T10:09:33Z</time>
      </trkpt>
      <trkpt lat="43.0063" lon="0.3251">
        <ele>839.4</ele>
        <time>2026-07-08T10:09:34Z</time>
      </trkpt>
      <trkpt lat="43.0063" lon="0.3251">
        <ele>839.4</ele>
        <time>2026-07-08T10:09:35Z</time>
      </trkpt>
      <trkpt lat="43.0063" lon="0.3251">
        <ele>839.4</ele>
        <time>2026-07-08T10:09:36Z</time>
      </trkpt>
      <trkpt lat="43.0063" lon="0.3251">
        <ele>840.4</ele>
        <time>2026-07-08T10:09:37Z</time>
      </trkpt>
      <trkpt lat="43.0063" lon="0.32511">
        <ele>840.4</ele>
        <time>2026-07-08T10:09:38Z</time>
      </trkpt>
      <trkpt lat="43.0063" lon="0.32511">
        <ele>840.4</ele>
        <time>2026-07-08T10:09:39Z</time>
      </trkpt>
      <trkpt lat="43.0063" lon="0.32511">
        <ele>840.4</ele>
        <time>2026-07-08T10:09:40Z</time>
      </trkpt>
      <trkpt lat="43.0063" lon="0.32511">
        <ele>841.4</ele>
        <time>2026-07-08T10:09:41Z</time>
      </trkpt>
      <trkpt lat="43.0063" lon="0.32511">
        <ele>842.4</ele>
        <time>2026-07-08T10:09:42Z</time>
      </trkpt>
      <trkpt lat="43.00629" lon="0.32512">
        <ele>842.4</ele>
        <time>2026-07-08T10:09:43Z</time>
      </trkpt>
      <trkpt lat="43.00629" lon="0.32512">
        <ele>842.4</ele>
        <time>2026-07-08T10:09:44Z</time>
      </trkpt>
      <trkpt lat="43.00629" lon="0.32512">
        <ele>842.4</ele>
        <time>2026-07-08T10:09:45Z</time>
      </trkpt>
      <trkpt lat="43.00629" lon="0.32512">
        <ele>842.4</ele>
        <time>2026-07-08T10:09:46Z</time>
      </trkpt>
      <trkpt lat="43.00629" lon="0.32512">
        <ele>842.4</ele>
        <time>2026-07-08T10:09:47Z</time>
      </trkpt>
      <trkpt lat="43.00629" lon="0.32512">
        <ele>842.4</ele>
        <time>2026-07-08T10:09:48Z</time>
      </trkpt>
      <trkpt lat="43.00629" lon="0.32512">
        <ele>842.4</ele>
        <time>2026-07-08T10:09:49Z</time>
      </trkpt>
      <trkpt lat="43.00629" lon="0.32512">
        <ele>842.4</ele>
        <time>2026-07-08T10:09:50Z</time>
      </trkpt>
      <trkpt lat="43.00629" lon="0.32512">
        <ele>842.4</ele>
        <time>2026-07-08T10:09:51Z</time>
      </trkpt>
      <trkpt lat="43.00629" lon="0.32512">
        <ele>842.4</ele>
        <time>2026-07-08T10:09:52Z</time>
      </trkpt>
      <trkpt lat="43.00629" lon="0.32512">
        <ele>842.4</ele>
        <time>2026-07-08T10:09:53Z</time>
      </trkpt>
      <trkpt lat="43.00629" lon="0.32512">
        <ele>842.4</ele>
        <time>2026-07-08T10:09:54Z</time>
      </trkpt>
      <trkpt lat="43.00628" lon="0.32512">
        <ele>840.4</ele>
        <time>2026-07-08T10:09:55Z</time>
      </trkpt>
      <trkpt lat="43.00628" lon="0.32513">
        <ele>841.4</ele>
        <time>2026-07-08T10:09:56Z</time>
      </trkpt>
      <trkpt lat="43.00628" lon="0.32513">
        <ele>841.4</ele>
        <time>2026-07-08T10:09:57Z</time>
      </trkpt>
      <trkpt lat="43.00627" lon="0.32513">
        <ele>841.4</ele>
        <time>2026-07-08T10:09:58Z</time>
      </trkpt>
      <trkpt lat="43.00627" lon="0.32513">
        <ele>841.4</ele>
        <time>2026-07-08T10:09:59Z</time>
      </trkpt>
      <trkpt lat="43.00627" lon="0.32513">
        <ele>839.4</ele>
        <time>2026-07-08T10:10:00Z</time>
      </trkpt>
      <trkpt lat="43.00627" lon="0.32513">
        <ele>839.4</ele>
        <time>2026-07-08T10:10:01Z</time>
      </trkpt>
      <trkpt lat="43.00626" lon="0.32513">
        <ele>839.4</ele>
        <time>2026-07-08T10:10:02Z</time>
      </trkpt>
      <trkpt lat="43.00627" lon="0.32512">
        <ele>840.4</ele>
        <time>2026-07-08T10:10:03Z</time>
      </trkpt>
      <trkpt lat="43.00628" lon="0.32512">
        <ele>841.4</ele>
        <time>2026-07-08T10:10:04Z</time>
      </trkpt>
      <trkpt lat="43.00629" lon="0.32512">
        <ele>841.4</ele>
        <time>2026-07-08T10:10:05Z</time>
      </trkpt>
      <trkpt lat="43.00629" lon="0.32512">
        <ele>841.4</ele>
        <time>2026-07-08T10:10:06Z</time>
      </trkpt>
      <trkpt lat="43.0063" lon="0.32512">
        <ele>841.4</ele>
        <time>2026-07-08T10:10:07Z</time>
      </trkpt>
      <trkpt lat="43.0063" lon="0.32512">
        <ele>841.4</ele>
        <time>2026-07-08T10:10:07Z</time>
      </trkpt>
      <trkpt lat="43.0063" lon="0.32512">
        <ele>841.4</ele>
        <time>2026-07-08T10:10:08Z</time>
      </trkpt>
      <trkpt lat="43.00631" lon="0.32512">
        <ele>841.4</ele>
        <time>2026-07-08T10:10:09Z</time>
      </trkpt>
      <trkpt lat="43.00631" lon="0.32512">
        <ele>841.4</ele>
        <time>2026-07-08T10:10:10Z</time>
      </trkpt>
      <trkpt lat="43.00631" lon="0.32512">
        <ele>841.4</ele>
        <time>2026-07-08T10:10:11Z</time>
      </trkpt>
      <trkpt lat="43.00631" lon="0.32512">
        <ele>841.4</ele>
        <time>2026-07-08T10:10:12Z</time>
      </trkpt>
      <trkpt lat="43.00631" lon="0.32511">
        <ele>841.4</ele>
        <time>2026-07-08T10:10:13Z</time>
      </trkpt>
      <trkpt lat="43.00631" lon="0.32511">
        <ele>841.4</ele>
        <time>2026-07-08T10:10:14Z</time>
      </trkpt>
      <trkpt lat="43.00631" lon="0.32511">
        <ele>841.4</ele>
        <time>2026-07-08T10:10:15Z</time>
      </trkpt>
      <trkpt lat="43.00632" lon="0.32511">
        <ele>841.4</ele>
        <time>2026-07-08T10:10:16Z</time>
      </trkpt>
      <trkpt lat="43.00632" lon="0.32511">
        <ele>841.4</ele>
        <time>2026-07-08T10:10:17Z</time>
      </trkpt>
      <trkpt lat="43.00632" lon="0.32511">
        <ele>841.4</ele>
        <time>2026-07-08T10:10:18Z</time>
      </trkpt>
      <trkpt lat="43.00632" lon="0.32511">
        <ele>841.4</ele>
        <time>2026-07-08T10:10:19Z</time>
      </trkpt>
      <trkpt lat="43.00632" lon="0.32511">
        <ele>841.4</ele>
        <time>2026-07-08T10:10:20Z</time>
      </trkpt>
      <trkpt lat="43.00632" lon="0.32511">
        <ele>841.4</ele>
        <time>2026-07-08T10:10:21Z</time>
      </trkpt>
      <trkpt lat="43.00632" lon="0.32511">
        <ele>841.4</ele>
        <time>2026-07-08T10:10:22Z</time>
      </trkpt>
      <trkpt lat="43.00632" lon="0.32511">
        <ele>841.4</ele>
        <time>2026-07-08T10:10:23Z</time>
      </trkpt>
      <trkpt lat="43.00632" lon="0.32511">
        <ele>841.4</ele>
        <time>2026-07-08T10:10:24Z</time>
      </trkpt>
      <trkpt lat="43.00632" lon="0.32511">
        <ele>841.4</ele>
        <time>2026-07-08T10:10:25Z</time>
      </trkpt>
      <trkpt lat="43.00632" lon="0.32511">
        <ele>841.4</ele>
        <time>2026-07-08T10:10:26Z</time>
      </trkpt>
      <trkpt lat="43.00632" lon="0.32511">
        <ele>841.4</ele>
        <time>2026-07-08T10:10:27Z</time>
      </trkpt>
      <trkpt lat="43.00632" lon="0.32511">
        <ele>841.4</ele>
        <time>2026-07-08T10:10:28Z</time>
      </trkpt>
      <trkpt lat="43.00632" lon="0.32511">
        <ele>841.4</ele>
        <time>2026-07-08T10:10:29Z</time>
      </trkpt>
      <trkpt lat="43.00632" lon="0.32511">
        <ele>841.4</ele>
        <time>2026-07-08T10:10:30Z</time>
      </trkpt>
      <trkpt lat="43.00631" lon="0.32511">
        <ele>841.4</ele>
        <time>2026-07-08T10:10:31Z</time>
      </trkpt>
      <trkpt lat="43.00631" lon="0.32511">
        <ele>841.4</ele>
        <time>2026-07-08T10:10:32Z</time>
      </trkpt>
      <trkpt lat="43.00631" lon="0.32511">
        <ele>841.4</ele>
        <time>2026-07-08T10:10:33Z</time>
      </trkpt>
      <trkpt lat="43.00631" lon="0.32511">
        <ele>841.4</ele>
        <time>2026-07-08T10:10:34Z</time>
      </trkpt>
      <trkpt lat="43.00631" lon="0.32511">
        <ele>841.4</ele>
        <time>2026-07-08T10:10:35Z</time>
      </trkpt>
      <trkpt lat="43.00631" lon="0.32511">
        <ele>841.4</ele>
        <time>2026-07-08T10:10:36Z</time>
      </trkpt>
      <trkpt lat="43.00631" lon="0.32511">
        <ele>841.4</ele>
        <time>2026-07-08T10:10:37Z</time>
      </trkpt>
      <trkpt lat="43.00631" lon="0.32511">
        <ele>841.4</ele>
        <time>2026-07-08T10:10:38Z</time>
      </trkpt>
      <trkpt lat="43.00631" lon="0.32511">
        <ele>841.4</ele>
        <time>2026-07-08T10:10:39Z</time>
      </trkpt>
      <trkpt lat="43.00631" lon="0.32511">
        <ele>841.4</ele>
        <time>2026-07-08T10:10:40Z</time>
      </trkpt>
      <trkpt lat="43.00631" lon="0.32511">
        <ele>841.4</ele>
        <time>2026-07-08T10:10:41Z</time>
      </trkpt>
      <trkpt lat="43.00631" lon="0.32511">
        <ele>841.4</ele>
        <time>2026-07-08T10:10:42Z</time>
      </trkpt>
      <trkpt lat="43.00631" lon="0.32511">
        <ele>841.4</ele>
        <time>2026-07-08T10:10:43Z</time>
      </trkpt>
      <trkpt lat="43.00631" lon="0.32511">
        <ele>841.4</ele>
        <time>2026-07-08T10:10:44Z</time>
      </trkpt>
      <trkpt lat="43.00631" lon="0.32511">
        <ele>841.4</ele>
        <time>2026-07-08T10:10:45Z</time>
      </trkpt>
      <trkpt lat="43.00631" lon="0.32511">
        <ele>841.4</ele>
        <time>2026-07-08T10:10:46Z</time>
      </trkpt>
      <trkpt lat="43.00631" lon="0.32511">
        <ele>841.4</ele>
        <time>2026-07-08T10:10:47Z</time>
      </trkpt>
      <trkpt lat="43.00631" lon="0.32511">
        <ele>841.4</ele>
        <time>2026-07-08T10:10:48Z</time>
      </trkpt>
      <trkpt lat="43.00631" lon="0.32511">
        <ele>841.4</ele>
        <time>2026-07-08T10:10:49Z</time>
      </trkpt>
      <trkpt lat="43.00631" lon="0.32511">
        <ele>841.4</ele>
        <time>2026-07-08T10:10:50Z</time>
      </trkpt>
      <trkpt lat="43.00631" lon="0.32511">
        <ele>841.4</ele>
        <time>2026-07-08T10:10:51Z</time>
      </trkpt>
      <trkpt lat="43.00631" lon="0.32511">
        <ele>841.4</ele>
        <time>2026-07-08T10:10:52Z</time>
      </trkpt>
      <trkpt lat="43.00631" lon="0.32511">
        <ele>841.4</ele>
        <time>2026-07-08T10:10:53Z</time>
      </trkpt>
      <trkpt lat="43.00631" lon="0.32511">
        <ele>841.4</ele>
        <time>2026-07-08T10:10:54Z</time>
      </trkpt>
      <trkpt lat="43.00631" lon="0.32511">
        <ele>841.4</ele>
        <time>2026-07-08T10:10:55Z</time>
      </trkpt>
      <trkpt lat="43.00631" lon="0.32511">
        <ele>841.4</ele>
        <time>2026-07-08T10:10:56Z</time>
      </trkpt>
      <trkpt lat="43.00631" lon="0.32511">
        <ele>841.4</ele>
        <time>2026-07-08T10:10:57Z</time>
      </trkpt>
      <trkpt lat="43.00631" lon="0.32511">
        <ele>841.4</ele>
        <time>2026-07-08T10:10:58Z</time>
      </trkpt>
      <trkpt lat="43.00631" lon="0.32511">
        <ele>841.4</ele>
        <time>2026-07-08T10:10:59Z</time>
      </trkpt>
      <trkpt lat="43.00631" lon="0.32511">
        <ele>841.4</ele>
        <time>2026-07-08T10:11:00Z</time>
      </trkpt>
      <trkpt lat="43.00631" lon="0.32511">
        <ele>841.4</ele>
        <time>2026-07-08T10:11:01Z</time>
      </trkpt>
      <trkpt lat="43.00631" lon="0.32511">
        <ele>841.4</ele>
        <time>2026-07-08T10:11:02Z</time>
      </trkpt>
      <trkpt lat="43.00631" lon="0.32511">
        <ele>841.4</ele>
        <time>2026-07-08T10:11:03Z</time>
      </trkpt>
      <trkpt lat="43.00631" lon="0.32511">
        <ele>841.4</ele>
        <time>2026-07-08T10:11:04Z</time>
      </trkpt>
      <trkpt lat="43.00631" lon="0.32511">
        <ele>841.4</ele>
        <time>2026-07-08T10:11:05Z</time>
      </trkpt>
      <trkpt lat="43.00631" lon="0.32511">
        <ele>841.4</ele>
        <time>2026-07-08T10:11:06Z</time>
      </trkpt>
      <trkpt lat="43.00631" lon="0.32511">
        <ele>841.4</ele>
        <time>2026-07-08T10:11:07Z</time>
      </trkpt>
      <trkpt lat="43.00631" lon="0.32511">
        <ele>841.4</ele>
        <time>2026-07-08T10:11:08Z</time>
      </trkpt>
      <trkpt lat="43.00631" lon="0.32511">
        <ele>841.4</ele>
        <time>2026-07-08T10:11:09Z</time>
      </trkpt>
      <trkpt lat="43.00631" lon="0.32511">
        <ele>841.4</ele>
        <time>2026-07-08T10:11:10Z</time>
      </trkpt>
      <trkpt lat="43.00631" lon="0.32511">
        <ele>841.4</ele>
        <time>2026-07-08T10:11:11Z</time>
      </trkpt>
      <trkpt lat="43.00631" lon="0.32511">
        <ele>841.4</ele>
        <time>2026-07-08T10:11:12Z</time>
      </trkpt>
      <trkpt lat="43.00631" lon="0.32511">
        <ele>841.4</ele>
        <time>2026-07-08T10:11:13Z</time>
      </trkpt>
      <trkpt lat="43.00631" lon="0.32511">
        <ele>841.4</ele>
        <time>2026-07-08T10:11:14Z</time>
      </trkpt>
      <trkpt lat="43.00631" lon="0.32511">
        <ele>841.4</ele>
        <time>2026-07-08T10:11:15Z</time>
      </trkpt>
      <trkpt lat="43.00631" lon="0.32511">
        <ele>841.4</ele>
        <time>2026-07-08T10:11:16Z</time>
      </trkpt>
      <trkpt lat="43.00631" lon="0.32511">
        <ele>841.4</ele>
        <time>2026-07-08T10:11:17Z</time>
      </trkpt>
      <trkpt lat="43.00631" lon="0.32511">
        <ele>841.4</ele>
        <time>2026-07-08T10:11:18Z</time>
      </trkpt>
      <trkpt lat="43.00631" lon="0.32511">
        <ele>841.4</ele>
        <time>2026-07-08T10:11:19Z</time>
      </trkpt>
      <trkpt lat="43.00631" lon="0.32511">
        <ele>841.4</ele>
        <time>2026-07-08T10:11:20Z</time>
      </trkpt>
      <trkpt lat="43.00631" lon="0.32511">
        <ele>841.4</ele>
        <time>2026-07-08T10:11:21Z</time>
      </trkpt>
      <trkpt lat="43.00631" lon="0.32511">
        <ele>842.4</ele>
        <time>2026-07-08T10:11:22Z</time>
      </trkpt>
      <trkpt lat="43.00631" lon="0.32511">
        <ele>842.4</ele>
        <time>2026-07-08T10:11:23Z</time>
      </trkpt>
      <trkpt lat="43.00631" lon="0.32511">
        <ele>844.4</ele>
        <time>2026-07-08T10:11:23Z</time>
      </trkpt>
      <trkpt lat="43.00631" lon="0.32512">
        <ele>845.4</ele>
        <time>2026-07-08T10:11:24Z</time>
      </trkpt>
      <trkpt lat="43.00631" lon="0.32512">
        <ele>845.4</ele>
        <time>2026-07-08T10:11:25Z</time>
      </trkpt>
      <trkpt lat="43.00631" lon="0.32511">
        <ele>845.4</ele>
        <time>2026-07-08T10:11:26Z</time>
      </trkpt>
      <trkpt lat="43.00631" lon="0.32511">
        <ele>845.4</ele>
        <time>2026-07-08T10:11:27Z</time>
      </trkpt>
      <trkpt lat="43.00631" lon="0.32511">
        <ele>845.4</ele>
        <time>2026-07-08T10:11:28Z</time>
      </trkpt>
      <trkpt lat="43.00631" lon="0.32511">
        <ele>845.4</ele>
        <time>2026-07-08T10:11:29Z</time>
      </trkpt>
      <trkpt lat="43.00632" lon="0.32511">
        <ele>845.4</ele>
        <time>2026-07-08T10:11:29Z</time>
      </trkpt>
      <trkpt lat="43.00632" lon="0.32511">
        <ele>845.4</ele>
        <time>2026-07-08T10:11:30Z</time>
      </trkpt>
      <trkpt lat="43.00632" lon="0.32511">
        <ele>845.4</ele>
        <time>2026-07-08T10:11:31Z</time>
      </trkpt>
      <trkpt lat="43.00632" lon="0.32512">
        <ele>843.4</ele>
        <time>2026-07-08T10:11:32Z</time>
      </trkpt>
      <trkpt lat="43.00632" lon="0.32512">
        <ele>842.4</ele>
        <time>2026-07-08T10:11:33Z</time>
      </trkpt>
      <trkpt lat="43.00632" lon="0.32512">
        <ele>841.4</ele>
        <time>2026-07-08T10:11:34Z</time>
      </trkpt>
      <trkpt lat="43.00632" lon="0.32512">
        <ele>841.4</ele>
        <time>2026-07-08T10:11:35Z</time>
      </trkpt>
      <trkpt lat="43.00633" lon="0.32511">
        <ele>841.4</ele>
        <time>2026-07-08T10:11:36Z</time>
      </trkpt>
      <trkpt lat="43.00633" lon="0.32511">
        <ele>841.4</ele>
        <time>2026-07-08T10:11:37Z</time>
      </trkpt>
      <trkpt lat="43.00633" lon="0.32512">
        <ele>841.4</ele>
        <time>2026-07-08T10:11:38Z</time>
      </trkpt>
      <trkpt lat="43.00633" lon="0.32512">
        <ele>841.4</ele>
        <time>2026-07-08T10:11:39Z</time>
      </trkpt>
      <trkpt lat="43.00633" lon="0.32511">
        <ele>841.4</ele>
        <time>2026-07-08T10:11:40Z</time>
      </trkpt>
      <trkpt lat="43.00634" lon="0.32512">
        <ele>841.4</ele>
        <time>2026-07-08T10:11:41Z</time>
      </trkpt>
      <trkpt lat="43.00634" lon="0.32512">
        <ele>843.4</ele>
        <time>2026-07-08T10:11:42Z</time>
      </trkpt>
      <trkpt lat="43.00634" lon="0.32512">
        <ele>843.4</ele>
        <time>2026-07-08T10:11:43Z</time>
      </trkpt>
      <trkpt lat="43.00634" lon="0.32512">
        <ele>844.4</ele>
        <time>2026-07-08T10:11:44Z</time>
      </trkpt>
      <trkpt lat="43.00634" lon="0.32511">
        <ele>844.4</ele>
        <time>2026-07-08T10:11:45Z</time>
      </trkpt>
      <trkpt lat="43.00634" lon="0.32511">
        <ele>843.4</ele>
        <time>2026-07-08T10:11:46Z</time>
      </trkpt>
      <trkpt lat="43.00634" lon="0.32511">
        <ele>843.4</ele>
        <time>2026-07-08T10:11:47Z</time>
      </trkpt>
      <trkpt lat="43.00634" lon="0.32511">
        <ele>842.4</ele>
        <time>2026-07-08T10:11:48Z</time>
      </trkpt>
      <trkpt lat="43.00634" lon="0.32511">
        <ele>842.4</ele>
        <time>2026-07-08T10:11:49Z</time>
      </trkpt>
      <trkpt lat="43.00634" lon="0.32511">
        <ele>842.4</ele>
        <time>2026-07-08T10:11:50Z</time>
      </trkpt>
      <trkpt lat="43.00635" lon="0.32511">
        <ele>842.4</ele>
        <time>2026-07-08T10:11:51Z</time>
      </trkpt>
      <trkpt lat="43.00635" lon="0.32511">
        <ele>842.4</ele>
        <time>2026-07-08T10:11:52Z</time>
      </trkpt>
      <trkpt lat="43.00635" lon="0.32511">
        <ele>843.4</ele>
        <time>2026-07-08T10:11:53Z</time>
      </trkpt>
      <trkpt lat="43.00635" lon="0.32511">
        <ele>843.4</ele>
        <time>2026-07-08T10:11:54Z</time>
      </trkpt>
      <trkpt lat="43.00635" lon="0.32511">
        <ele>843.4</ele>
        <time>2026-07-08T10:11:55Z</time>
      </trkpt>
      <trkpt lat="43.00636" lon="0.32511">
        <ele>844.4</ele>
        <time>2026-07-08T10:11:55Z</time>
      </trkpt>
      <trkpt lat="43.00636" lon="0.32511">
        <ele>844.4</ele>
        <time>2026-07-08T10:11:56Z</time>
      </trkpt>
      <trkpt lat="43.00636" lon="0.32511">
        <ele>845.4</ele>
        <time>2026-07-08T10:11:57Z</time>
      </trkpt>
      <trkpt lat="43.00637" lon="0.32511">
        <ele>845.4</ele>
        <time>2026-07-08T10:11:58Z</time>
      </trkpt>
      <trkpt lat="43.00637" lon="0.32511">
        <ele>846.4</ele>
        <time>2026-07-08T10:11:58Z</time>
      </trkpt>
      <trkpt lat="43.00637" lon="0.32512">
        <ele>846.4</ele>
        <time>2026-07-08T10:11:58Z</time>
      </trkpt>
      <trkpt lat="43.00638" lon="0.32512">
        <ele>846.4</ele>
        <time>2026-07-08T10:11:59Z</time>
      </trkpt>
      <trkpt lat="43.00638" lon="0.32512">
        <ele>846.4</ele>
        <time>2026-07-08T10:11:59Z</time>
      </trkpt>
      <trkpt lat="43.00638" lon="0.32512">
        <ele>847.4</ele>
        <time>2026-07-08T10:12:00Z</time>
      </trkpt>
      <trkpt lat="43.00639" lon="0.32512">
        <ele>847.4</ele>
        <time>2026-07-08T10:12:01Z</time>
      </trkpt>
      <trkpt lat="43.00639" lon="0.32512">
        <ele>847.4</ele>
        <time>2026-07-08T10:12:01Z</time>
      </trkpt>
      <trkpt lat="43.0064" lon="0.32512">
        <ele>847.4</ele>
        <time>2026-07-08T10:12:02Z</time>
      </trkpt>
      <trkpt lat="43.0064" lon="0.32511">
        <ele>847.4</ele>
        <time>2026-07-08T10:12:03Z</time>
      </trkpt>
      <trkpt lat="43.00641" lon="0.3251">
        <ele>848.4</ele>
        <time>2026-07-08T10:12:03Z</time>
      </trkpt>
      <trkpt lat="43.00642" lon="0.3251">
        <ele>847.4</ele>
        <time>2026-07-08T10:12:04Z</time>
      </trkpt>
      <trkpt lat="43.00642" lon="0.32509">
        <ele>847.4</ele>
        <time>2026-07-08T10:12:05Z</time>
      </trkpt>
      <trkpt lat="43.00643" lon="0.32509">
        <ele>847.4</ele>
        <time>2026-07-08T10:12:05Z</time>
      </trkpt>
      <trkpt lat="43.00644" lon="0.3251">
        <ele>847.4</ele>
        <time>2026-07-08T10:12:06Z</time>
      </trkpt>
      <trkpt lat="43.00645" lon="0.3251">
        <ele>847.4</ele>
        <time>2026-07-08T10:12:07Z</time>
      </trkpt>
      <trkpt lat="43.00648" lon="0.32511">
        <ele>847.4</ele>
        <time>2026-07-08T10:12:08Z</time>
      </trkpt>
      <trkpt lat="43.00649" lon="0.32512">
        <ele>847.4</ele>
        <time>2026-07-08T10:12:08Z</time>
      </trkpt>
      <trkpt lat="43.00651" lon="0.32512">
        <ele>847.4</ele>
        <time>2026-07-08T10:12:09Z</time>
      </trkpt>
      <trkpt lat="43.00652" lon="0.32513">
        <ele>847.4</ele>
        <time>2026-07-08T10:12:10Z</time>
      </trkpt>
      <trkpt lat="43.00654" lon="0.32513">
        <ele>847.4</ele>
        <time>2026-07-08T10:12:11Z</time>
      </trkpt>
      <trkpt lat="43.00655" lon="0.32514">
        <ele>846.4</ele>
        <time>2026-07-08T10:12:11Z</time>
      </trkpt>
      <trkpt lat="43.00656" lon="0.32514">
        <ele>846.4</ele>
        <time>2026-07-08T10:12:12Z</time>
      </trkpt>
      <trkpt lat="43.00657" lon="0.32514">
        <ele>846.4</ele>
        <time>2026-07-08T10:12:12Z</time>
      </trkpt>
      <trkpt lat="43.00658" lon="0.32515">
        <ele>846.4</ele>
        <time>2026-07-08T10:12:13Z</time>
      </trkpt>
      <trkpt lat="43.00659" lon="0.32515">
        <ele>846.4</ele>
        <time>2026-07-08T10:12:14Z</time>
      </trkpt>
      <trkpt lat="43.0066" lon="0.32515">
        <ele>846.4</ele>
        <time>2026-07-08T10:12:15Z</time>
      </trkpt>
      <trkpt lat="43.00661" lon="0.32515">
        <ele>846.4</ele>
        <time>2026-07-08T10:12:15Z</time>
      </trkpt>
      <trkpt lat="43.00662" lon="0.32516">
        <ele>846.4</ele>
        <time>2026-07-08T10:12:16Z</time>
      </trkpt>
      <trkpt lat="43.00663" lon="0.32516">
        <ele>846.4</ele>
        <time>2026-07-08T10:12:16Z</time>
      </trkpt>
      <trkpt lat="43.00664" lon="0.32516">
        <ele>846.4</ele>
        <time>2026-07-08T10:12:17Z</time>
      </trkpt>
      <trkpt lat="43.00665" lon="0.32516">
        <ele>846.4</ele>
        <time>2026-07-08T10:12:18Z</time>
      </trkpt>
      <trkpt lat="43.00666" lon="0.32516">
        <ele>845.4</ele>
        <time>2026-07-08T10:12:18Z</time>
      </trkpt>
      <trkpt lat="43.00667" lon="0.32516">
        <ele>845.4</ele>
        <time>2026-07-08T10:12:19Z</time>
      </trkpt>
      <trkpt lat="43.00668" lon="0.32516">
        <ele>845.4</ele>
        <time>2026-07-08T10:12:20Z</time>
      </trkpt>
      <trkpt lat="43.00668" lon="0.32516">
        <ele>844.4</ele>
        <time>2026-07-08T10:12:20Z</time>
      </trkpt>
      <trkpt lat="43.00669" lon="0.32517">
        <ele>844.4</ele>
        <time>2026-07-08T10:12:21Z</time>
      </trkpt>
      <trkpt lat="43.0067" lon="0.32516">
        <ele>844.4</ele>
        <time>2026-07-08T10:12:22Z</time>
      </trkpt>
      <trkpt lat="43.00671" lon="0.32516">
        <ele>844.4</ele>
        <time>2026-07-08T10:12:22Z</time>
      </trkpt>
      <trkpt lat="43.00672" lon="0.32516">
        <ele>844.4</ele>
        <time>2026-07-08T10:12:23Z</time>
      </trkpt>
      <trkpt lat="43.00674" lon="0.32516">
        <ele>844.4</ele>
        <time>2026-07-08T10:12:24Z</time>
      </trkpt>
      <trkpt lat="43.00675" lon="0.32517">
        <ele>843.4</ele>
        <time>2026-07-08T10:12:25Z</time>
      </trkpt>
      <trkpt lat="43.00676" lon="0.32517">
        <ele>843.4</ele>
        <time>2026-07-08T10:12:26Z</time>
      </trkpt>
      <trkpt lat="43.00678" lon="0.32517">
        <ele>843.4</ele>
        <time>2026-07-08T10:12:27Z</time>
      </trkpt>
      <trkpt lat="43.00679" lon="0.32517">
        <ele>842.4</ele>
        <time>2026-07-08T10:12:28Z</time>
      </trkpt>
      <trkpt lat="43.0068" lon="0.32518">
        <ele>842.4</ele>
        <time>2026-07-08T10:12:29Z</time>
      </trkpt>
      <trkpt lat="43.0068" lon="0.32518">
        <ele>842.4</ele>
        <time>2026-07-08T10:12:29Z</time>
      </trkpt>
      <trkpt lat="43.00681" lon="0.32518">
        <ele>842.4</ele>
        <time>2026-07-08T10:12:30Z</time>
      </trkpt>
      <trkpt lat="43.00682" lon="0.32518">
        <ele>841.4</ele>
        <time>2026-07-08T10:12:30Z</time>
      </trkpt>
      <trkpt lat="43.00683" lon="0.32519">
        <ele>841.4</ele>
        <time>2026-07-08T10:12:31Z</time>
      </trkpt>
      <trkpt lat="43.00684" lon="0.32519">
        <ele>841.4</ele>
        <time>2026-07-08T10:12:32Z</time>
      </trkpt>
      <trkpt lat="43.00684" lon="0.3252">
        <ele>841.4</ele>
        <time>2026-07-08T10:12:32Z</time>
      </trkpt>
      <trkpt lat="43.00684" lon="0.3252">
        <ele>841.4</ele>
        <time>2026-07-08T10:12:33Z</time>
      </trkpt>
      <trkpt lat="43.00685" lon="0.32521">
        <ele>841.4</ele>
        <time>2026-07-08T10:12:34Z</time>
      </trkpt>
      <trkpt lat="43.00685" lon="0.32521">
        <ele>841.4</ele>
        <time>2026-07-08T10:12:34Z</time>
      </trkpt>
      <trkpt lat="43.00685" lon="0.32522">
        <ele>841.4</ele>
        <time>2026-07-08T10:12:35Z</time>
      </trkpt>
      <trkpt lat="43.00686" lon="0.32522">
        <ele>841.4</ele>
        <time>2026-07-08T10:12:36Z</time>
      </trkpt>
      <trkpt lat="43.00686" lon="0.32522">
        <ele>841.4</ele>
        <time>2026-07-08T10:12:36Z</time>
      </trkpt>
      <trkpt lat="43.00686" lon="0.32522">
        <ele>841.4</ele>
        <time>2026-07-08T10:12:37Z</time>
      </trkpt>
      <trkpt lat="43.00687" lon="0.32522">
        <ele>841.4</ele>
        <time>2026-07-08T10:12:38Z</time>
      </trkpt>
      <trkpt lat="43.00687" lon="0.32522">
        <ele>840.4</ele>
        <time>2026-07-08T10:12:38Z</time>
      </trkpt>
      <trkpt lat="43.00688" lon="0.32522">
        <ele>840.4</ele>
        <time>2026-07-08T10:12:39Z</time>
      </trkpt>
      <trkpt lat="43.00688" lon="0.32522">
        <ele>840.4</ele>
        <time>2026-07-08T10:12:39Z</time>
      </trkpt>
      <trkpt lat="43.00689" lon="0.32522">
        <ele>840.4</ele>
        <time>2026-07-08T10:12:40Z</time>
      </trkpt>
      <trkpt lat="43.00689" lon="0.32522">
        <ele>840.4</ele>
        <time>2026-07-08T10:12:40Z</time>
      </trkpt>
      <trkpt lat="43.0069" lon="0.32522">
        <ele>840.4</ele>
        <time>2026-07-08T10:12:41Z</time>
      </trkpt>
      <trkpt lat="43.0069" lon="0.32522">
        <ele>839.4</ele>
        <time>2026-07-08T10:12:41Z</time>
      </trkpt>
      <trkpt lat="43.0069" lon="0.32523">
        <ele>839.4</ele>
        <time>2026-07-08T10:12:42Z</time>
      </trkpt>
      <trkpt lat="43.00691" lon="0.32523">
        <ele>839.4</ele>
        <time>2026-07-08T10:12:42Z</time>
      </trkpt>
      <trkpt lat="43.00691" lon="0.32523">
        <ele>839.4</ele>
        <time>2026-07-08T10:12:43Z</time>
      </trkpt>
      <trkpt lat="43.00692" lon="0.32523">
        <ele>839.4</ele>
        <time>2026-07-08T10:12:44Z</time>
      </trkpt>
      <trkpt lat="43.00692" lon="0.32524">
        <ele>839.4</ele>
        <time>2026-07-08T10:12:44Z</time>
      </trkpt>
      <trkpt lat="43.00693" lon="0.32524">
        <ele>839.4</ele>
        <time>2026-07-08T10:12:45Z</time>
      </trkpt>
      <trkpt lat="43.00694" lon="0.32525">
        <ele>839.4</ele>
        <time>2026-07-08T10:12:46Z</time>
      </trkpt>
      <trkpt lat="43.00694" lon="0.32526">
        <ele>838.4</ele>
        <time>2026-07-08T10:12:46Z</time>
      </trkpt>
      <trkpt lat="43.00694" lon="0.32526">
        <ele>838.4</ele>
        <time>2026-07-08T10:12:47Z</time>
      </trkpt>
      <trkpt lat="43.00695" lon="0.32526">
        <ele>838.4</ele>
        <time>2026-07-08T10:12:48Z</time>
      </trkpt>
      <trkpt lat="43.00696" lon="0.32526">
        <ele>838.4</ele>
        <time>2026-07-08T10:12:49Z</time>
      </trkpt>
      <trkpt lat="43.00696" lon="0.32526">
        <ele>837.4</ele>
        <time>2026-07-08T10:12:49Z</time>
      </trkpt>
      <trkpt lat="43.00697" lon="0.32526">
        <ele>837.4</ele>
        <time>2026-07-08T10:12:50Z</time>
      </trkpt>
      <trkpt lat="43.00697" lon="0.32527">
        <ele>837.4</ele>
        <time>2026-07-08T10:12:50Z</time>
      </trkpt>
      <trkpt lat="43.00697" lon="0.32527">
        <ele>837.4</ele>
        <time>2026-07-08T10:12:51Z</time>
      </trkpt>
      <trkpt lat="43.00698" lon="0.32527">
        <ele>837.4</ele>
        <time>2026-07-08T10:12:51Z</time>
      </trkpt>
      <trkpt lat="43.00698" lon="0.32528">
        <ele>837.4</ele>
        <time>2026-07-08T10:12:52Z</time>
      </trkpt>
      <trkpt lat="43.00698" lon="0.32528">
        <ele>837.4</ele>
        <time>2026-07-08T10:12:52Z</time>
      </trkpt>
      <trkpt lat="43.00699" lon="0.32528">
        <ele>837.4</ele>
        <time>2026-07-08T10:12:53Z</time>
      </trkpt>
      <trkpt lat="43.007" lon="0.32528">
        <ele>837.4</ele>
        <time>2026-07-08T10:12:54Z</time>
      </trkpt>
      <trkpt lat="43.007" lon="0.32527">
        <ele>837.4</ele>
        <time>2026-07-08T10:12:54Z</time>
      </trkpt>
      <trkpt lat="43.00701" lon="0.32526">
        <ele>837.4</ele>
        <time>2026-07-08T10:12:55Z</time>
      </trkpt>
      <trkpt lat="43.00702" lon="0.32525">
        <ele>837.4</ele>
        <time>2026-07-08T10:12:56Z</time>
      </trkpt>
      <trkpt lat="43.00702" lon="0.32524">
        <ele>837.4</ele>
        <time>2026-07-08T10:12:57Z</time>
      </trkpt>
      <trkpt lat="43.00702" lon="0.32524">
        <ele>837.4</ele>
        <time>2026-07-08T10:12:57Z</time>
      </trkpt>
      <trkpt lat="43.00703" lon="0.32523">
        <ele>837.4</ele>
        <time>2026-07-08T10:12:58Z</time>
      </trkpt>
      <trkpt lat="43.00704" lon="0.32522">
        <ele>836.4</ele>
        <time>2026-07-08T10:12:59Z</time>
      </trkpt>
      <trkpt lat="43.00704" lon="0.3252">
        <ele>836.4</ele>
        <time>2026-07-08T10:13:00Z</time>
      </trkpt>
      <trkpt lat="43.00705" lon="0.32519">
        <ele>835.4</ele>
        <time>2026-07-08T10:13:01Z</time>
      </trkpt>
      <trkpt lat="43.00705" lon="0.32517">
        <ele>835.4</ele>
        <time>2026-07-08T10:13:02Z</time>
      </trkpt>
      <trkpt lat="43.00705" lon="0.32516">
        <ele>836.4</ele>
        <time>2026-07-08T10:13:03Z</time>
      </trkpt>
      <trkpt lat="43.00706" lon="0.32515">
        <ele>835.4</ele>
        <time>2026-07-08T10:13:04Z</time>
      </trkpt>
      <trkpt lat="43.00706" lon="0.32514">
        <ele>836.4</ele>
        <time>2026-07-08T10:13:05Z</time>
      </trkpt>
      <trkpt lat="43.00706" lon="0.32513">
        <ele>835.4</ele>
        <time>2026-07-08T10:13:05Z</time>
      </trkpt>
      <trkpt lat="43.00706" lon="0.32512">
        <ele>835.4</ele>
        <time>2026-07-08T10:13:06Z</time>
      </trkpt>
      <trkpt lat="43.00706" lon="0.32511">
        <ele>835.4</ele>
        <time>2026-07-08T10:13:06Z</time>
      </trkpt>
      <trkpt lat="43.00706" lon="0.32511">
        <ele>836.4</ele>
        <time>2026-07-08T10:13:07Z</time>
      </trkpt>
      <trkpt lat="43.00707" lon="0.3251">
        <ele>836.4</ele>
        <time>2026-07-08T10:13:08Z</time>
      </trkpt>
      <trkpt lat="43.00707" lon="0.32509">
        <ele>835.4</ele>
        <time>2026-07-08T10:13:08Z</time>
      </trkpt>
      <trkpt lat="43.00708" lon="0.32509">
        <ele>835.4</ele>
        <time>2026-07-08T10:13:09Z</time>
      </trkpt>
      <trkpt lat="43.00708" lon="0.32509">
        <ele>835.4</ele>
        <time>2026-07-08T10:13:10Z</time>
      </trkpt>
      <trkpt lat="43.00709" lon="0.32508">
        <ele>835.4</ele>
        <time>2026-07-08T10:13:11Z</time>
      </trkpt>
      <trkpt lat="43.00709" lon="0.32509">
        <ele>835.4</ele>
        <time>2026-07-08T10:13:11Z</time>
      </trkpt>
      <trkpt lat="43.0071" lon="0.32508">
        <ele>835.4</ele>
        <time>2026-07-08T10:13:12Z</time>
      </trkpt>
      <trkpt lat="43.0071" lon="0.32508">
        <ele>834.4</ele>
        <time>2026-07-08T10:13:12Z</time>
      </trkpt>
      <trkpt lat="43.00711" lon="0.32508">
        <ele>834.4</ele>
        <time>2026-07-08T10:13:13Z</time>
      </trkpt>
      <trkpt lat="43.00712" lon="0.32508">
        <ele>834.4</ele>
        <time>2026-07-08T10:13:14Z</time>
      </trkpt>
      <trkpt lat="43.00713" lon="0.32508">
        <ele>834.4</ele>
        <time>2026-07-08T10:13:14Z</time>
      </trkpt>
      <trkpt lat="43.00713" lon="0.32508">
        <ele>834.4</ele>
        <time>2026-07-08T10:13:15Z</time>
      </trkpt>
      <trkpt lat="43.00714" lon="0.32508">
        <ele>834.4</ele>
        <time>2026-07-08T10:13:15Z</time>
      </trkpt>
      <trkpt lat="43.00715" lon="0.32508">
        <ele>834.4</ele>
        <time>2026-07-08T10:13:16Z</time>
      </trkpt>
      <trkpt lat="43.00716" lon="0.32509">
        <ele>834.4</ele>
        <time>2026-07-08T10:13:17Z</time>
      </trkpt>
      <trkpt lat="43.00716" lon="0.32509">
        <ele>834.4</ele>
        <time>2026-07-08T10:13:17Z</time>
      </trkpt>
      <trkpt lat="43.00717" lon="0.32509">
        <ele>834.4</ele>
        <time>2026-07-08T10:13:18Z</time>
      </trkpt>
      <trkpt lat="43.00717" lon="0.32509">
        <ele>833.4</ele>
        <time>2026-07-08T10:13:18Z</time>
      </trkpt>
      <trkpt lat="43.00718" lon="0.32509">
        <ele>833.4</ele>
        <time>2026-07-08T10:13:19Z</time>
      </trkpt>
      <trkpt lat="43.00719" lon="0.32509">
        <ele>833.4</ele>
        <time>2026-07-08T10:13:19Z</time>
      </trkpt>
      <trkpt lat="43.00719" lon="0.32509">
        <ele>833.4</ele>
        <time>2026-07-08T10:13:20Z</time>
      </trkpt>
      <trkpt lat="43.00721" lon="0.32509">
        <ele>833.4</ele>
        <time>2026-07-08T10:13:21Z</time>
      </trkpt>
      <trkpt lat="43.00721" lon="0.32509">
        <ele>832.4</ele>
        <time>2026-07-08T10:13:21Z</time>
      </trkpt>
      <trkpt lat="43.00722" lon="0.32509">
        <ele>832.4</ele>
        <time>2026-07-08T10:13:22Z</time>
      </trkpt>
      <trkpt lat="43.00723" lon="0.32508">
        <ele>832.4</ele>
        <time>2026-07-08T10:13:23Z</time>
      </trkpt>
      <trkpt lat="43.00723" lon="0.32508">
        <ele>831.4</ele>
        <time>2026-07-08T10:13:23Z</time>
      </trkpt>
      <trkpt lat="43.00724" lon="0.32508">
        <ele>831.4</ele>
        <time>2026-07-08T10:13:24Z</time>
      </trkpt>
      <trkpt lat="43.00725" lon="0.32508">
        <ele>831.4</ele>
        <time>2026-07-08T10:13:25Z</time>
      </trkpt>
      <trkpt lat="43.00725" lon="0.32508">
        <ele>831.4</ele>
        <time>2026-07-08T10:13:25Z</time>
      </trkpt>
      <trkpt lat="43.00726" lon="0.32508">
        <ele>831.4</ele>
        <time>2026-07-08T10:13:26Z</time>
      </trkpt>
      <trkpt lat="43.00727" lon="0.32508">
        <ele>830.4</ele>
        <time>2026-07-08T10:13:27Z</time>
      </trkpt>
      <trkpt lat="43.00728" lon="0.32508">
        <ele>830.4</ele>
        <time>2026-07-08T10:13:27Z</time>
      </trkpt>
      <trkpt lat="43.00729" lon="0.32508">
        <ele>830.4</ele>
        <time>2026-07-08T10:13:28Z</time>
      </trkpt>
      <trkpt lat="43.00729" lon="0.32509">
        <ele>830.4</ele>
        <time>2026-07-08T10:13:28Z</time>
      </trkpt>
      <trkpt lat="43.0073" lon="0.32509">
        <ele>830.4</ele>
        <time>2026-07-08T10:13:29Z</time>
      </trkpt>
      <trkpt lat="43.0073" lon="0.3251">
        <ele>830.4</ele>
        <time>2026-07-08T10:13:30Z</time>
      </trkpt>
      <trkpt lat="43.00731" lon="0.3251">
        <ele>829.4</ele>
        <time>2026-07-08T10:13:30Z</time>
      </trkpt>
      <trkpt lat="43.00732" lon="0.3251">
        <ele>829.4</ele>
        <time>2026-07-08T10:13:31Z</time>
      </trkpt>
      <trkpt lat="43.00732" lon="0.32511">
        <ele>829.4</ele>
        <time>2026-07-08T10:13:31Z</time>
      </trkpt>
      <trkpt lat="43.00733" lon="0.32511">
        <ele>829.4</ele>
        <time>2026-07-08T10:13:32Z</time>
      </trkpt>
      <trkpt lat="43.00733" lon="0.32511">
        <ele>829.4</ele>
        <time>2026-07-08T10:13:32Z</time>
      </trkpt>
      <trkpt lat="43.00734" lon="0.32511">
        <ele>829.4</ele>
        <time>2026-07-08T10:13:33Z</time>
      </trkpt>
      <trkpt lat="43.00735" lon="0.32511">
        <ele>829.4</ele>
        <time>2026-07-08T10:13:33Z</time>
      </trkpt>
      <trkpt lat="43.00735" lon="0.32512">
        <ele>829.4</ele>
        <time>2026-07-08T10:13:34Z</time>
      </trkpt>
      <trkpt lat="43.00736" lon="0.32512">
        <ele>829.4</ele>
        <time>2026-07-08T10:13:34Z</time>
      </trkpt>
      <trkpt lat="43.00737" lon="0.32512">
        <ele>829.4</ele>
        <time>2026-07-08T10:13:35Z</time>
      </trkpt>
      <trkpt lat="43.00737" lon="0.32513">
        <ele>828.4</ele>
        <time>2026-07-08T10:13:35Z</time>
      </trkpt>
      <trkpt lat="43.00738" lon="0.32513">
        <ele>828.4</ele>
        <time>2026-07-08T10:13:36Z</time>
      </trkpt>
      <trkpt lat="43.00739" lon="0.32514">
        <ele>828.4</ele>
        <time>2026-07-08T10:13:37Z</time>
      </trkpt>
      <trkpt lat="43.00739" lon="0.32515">
        <ele>827.4</ele>
        <time>2026-07-08T10:13:38Z</time>
      </trkpt>
      <trkpt lat="43.0074" lon="0.32515">
        <ele>827.4</ele>
        <time>2026-07-08T10:13:38Z</time>
      </trkpt>
      <trkpt lat="43.00741" lon="0.32516">
        <ele>827.4</ele>
        <time>2026-07-08T10:13:39Z</time>
      </trkpt>
      <trkpt lat="43.00741" lon="0.32517">
        <ele>827.4</ele>
        <time>2026-07-08T10:13:40Z</time>
      </trkpt>
      <trkpt lat="43.00742" lon="0.32517">
        <ele>828.4</ele>
        <time>2026-07-08T10:13:40Z</time>
      </trkpt>
      <trkpt lat="43.00742" lon="0.32517">
        <ele>828.4</ele>
        <time>2026-07-08T10:13:41Z</time>
      </trkpt>
      <trkpt lat="43.00742" lon="0.32517">
        <ele>827.4</ele>
        <time>2026-07-08T10:13:41Z</time>
      </trkpt>
      <trkpt lat="43.00743" lon="0.32516">
        <ele>827.4</ele>
        <time>2026-07-08T10:13:42Z</time>
      </trkpt>
      <trkpt lat="43.00744" lon="0.32516">
        <ele>828.4</ele>
        <time>2026-07-08T10:13:42Z</time>
      </trkpt>
      <trkpt lat="43.00744" lon="0.32515">
        <ele>828.4</ele>
        <time>2026-07-08T10:13:43Z</time>
      </trkpt>
      <trkpt lat="43.00745" lon="0.32515">
        <ele>827.4</ele>
        <time>2026-07-08T10:13:44Z</time>
      </trkpt>
      <trkpt lat="43.00746" lon="0.32514">
        <ele>826.4</ele>
        <time>2026-07-08T10:13:45Z</time>
      </trkpt>
      <trkpt lat="43.00747" lon="0.32513">
        <ele>827.4</ele>
        <time>2026-07-08T10:13:45Z</time>
      </trkpt>
      <trkpt lat="43.00747" lon="0.32512">
        <ele>827.4</ele>
        <time>2026-07-08T10:13:46Z</time>
      </trkpt>
      <trkpt lat="43.00748" lon="0.32512">
        <ele>827.4</ele>
        <time>2026-07-08T10:13:47Z</time>
      </trkpt>
      <trkpt lat="43.00748" lon="0.32511">
        <ele>827.4</ele>
        <time>2026-07-08T10:13:47Z</time>
      </trkpt>
      <trkpt lat="43.00749" lon="0.32511">
        <ele>827.4</ele>
        <time>2026-07-08T10:13:48Z</time>
      </trkpt>
      <trkpt lat="43.0075" lon="0.3251">
        <ele>827.4</ele>
        <time>2026-07-08T10:13:48Z</time>
      </trkpt>
      <trkpt lat="43.0075" lon="0.3251">
        <ele>827.4</ele>
        <time>2026-07-08T10:13:49Z</time>
      </trkpt>
      <trkpt lat="43.00751" lon="0.3251">
        <ele>827.4</ele>
        <time>2026-07-08T10:13:49Z</time>
      </trkpt>
      <trkpt lat="43.00752" lon="0.3251">
        <ele>827.4</ele>
        <time>2026-07-08T10:13:50Z</time>
      </trkpt>
      <trkpt lat="43.00753" lon="0.32511">
        <ele>826.4</ele>
        <time>2026-07-08T10:13:51Z</time>
      </trkpt>
      <trkpt lat="43.00754" lon="0.32511">
        <ele>826.4</ele>
        <time>2026-07-08T10:13:51Z</time>
      </trkpt>
      <trkpt lat="43.00754" lon="0.32511">
        <ele>826.4</ele>
        <time>2026-07-08T10:13:52Z</time>
      </trkpt>
      <trkpt lat="43.00756" lon="0.32512">
        <ele>825.4</ele>
        <time>2026-07-08T10:13:53Z</time>
      </trkpt>
      <trkpt lat="43.00757" lon="0.32512">
        <ele>825.4</ele>
        <time>2026-07-08T10:13:54Z</time>
      </trkpt>
      <trkpt lat="43.00757" lon="0.32513">
        <ele>824.4</ele>
        <time>2026-07-08T10:13:54Z</time>
      </trkpt>
      <trkpt lat="43.00758" lon="0.32513">
        <ele>824.4</ele>
        <time>2026-07-08T10:13:55Z</time>
      </trkpt>
      <trkpt lat="43.00759" lon="0.32514">
        <ele>823.4</ele>
        <time>2026-07-08T10:13:55Z</time>
      </trkpt>
      <trkpt lat="43.0076" lon="0.32514">
        <ele>823.4</ele>
        <time>2026-07-08T10:13:56Z</time>
      </trkpt>
      <trkpt lat="43.00761" lon="0.32515">
        <ele>823.4</ele>
        <time>2026-07-08T10:13:57Z</time>
      </trkpt>
      <trkpt lat="43.00761" lon="0.32516">
        <ele>823.4</ele>
        <time>2026-07-08T10:13:57Z</time>
      </trkpt>
      <trkpt lat="43.00762" lon="0.32517">
        <ele>823.4</ele>
        <time>2026-07-08T10:13:58Z</time>
      </trkpt>
      <trkpt lat="43.00762" lon="0.32518">
        <ele>822.4</ele>
        <time>2026-07-08T10:13:58Z</time>
      </trkpt>
      <trkpt lat="43.00762" lon="0.32518">
        <ele>822.4</ele>
        <time>2026-07-08T10:13:59Z</time>
      </trkpt>
      <trkpt lat="43.00763" lon="0.32519">
        <ele>821.4</ele>
        <time>2026-07-08T10:13:59Z</time>
      </trkpt>
      <trkpt lat="43.00763" lon="0.3252">
        <ele>821.4</ele>
        <time>2026-07-08T10:14:00Z</time>
      </trkpt>
      <trkpt lat="43.00764" lon="0.32521">
        <ele>821.4</ele>
        <time>2026-07-08T10:14:01Z</time>
      </trkpt>
      <trkpt lat="43.00764" lon="0.32521">
        <ele>821.4</ele>
        <time>2026-07-08T10:14:01Z</time>
      </trkpt>
      <trkpt lat="43.00765" lon="0.32522">
        <ele>821.4</ele>
        <time>2026-07-08T10:14:02Z</time>
      </trkpt>
      <trkpt lat="43.00766" lon="0.32523">
        <ele>821.4</ele>
        <time>2026-07-08T10:14:02Z</time>
      </trkpt>
      <trkpt lat="43.00766" lon="0.32524">
        <ele>820.4</ele>
        <time>2026-07-08T10:14:03Z</time>
      </trkpt>
      <trkpt lat="43.00767" lon="0.32524">
        <ele>820.4</ele>
        <time>2026-07-08T10:14:03Z</time>
      </trkpt>
      <trkpt lat="43.00767" lon="0.32525">
        <ele>821.4</ele>
        <time>2026-07-08T10:14:04Z</time>
      </trkpt>
      <trkpt lat="43.00768" lon="0.32526">
        <ele>821.4</ele>
        <time>2026-07-08T10:14:05Z</time>
      </trkpt>
      <trkpt lat="43.00769" lon="0.32527">
        <ele>821.4</ele>
        <time>2026-07-08T10:14:06Z</time>
      </trkpt>
      <trkpt lat="43.0077" lon="0.32527">
        <ele>821.4</ele>
        <time>2026-07-08T10:14:06Z</time>
      </trkpt>
      <trkpt lat="43.00771" lon="0.32527">
        <ele>821.4</ele>
        <time>2026-07-08T10:14:07Z</time>
      </trkpt>
      <trkpt lat="43.00771" lon="0.32528">
        <ele>821.4</ele>
        <time>2026-07-08T10:14:08Z</time>
      </trkpt>
      <trkpt lat="43.00772" lon="0.32528">
        <ele>820.4</ele>
        <time>2026-07-08T10:14:09Z</time>
      </trkpt>
      <trkpt lat="43.00773" lon="0.32528">
        <ele>820.4</ele>
        <time>2026-07-08T10:14:09Z</time>
      </trkpt>
      <trkpt lat="43.00774" lon="0.32528">
        <ele>820.4</ele>
        <time>2026-07-08T10:14:10Z</time>
      </trkpt>
      <trkpt lat="43.00775" lon="0.32528">
        <ele>821.4</ele>
        <time>2026-07-08T10:14:11Z</time>
      </trkpt>
      <trkpt lat="43.00776" lon="0.32529">
        <ele>820.4</ele>
        <time>2026-07-08T10:14:12Z</time>
      </trkpt>
      <trkpt lat="43.00776" lon="0.32529">
        <ele>820.4</ele>
        <time>2026-07-08T10:14:13Z</time>
      </trkpt>
      <trkpt lat="43.00777" lon="0.32529">
        <ele>819.4</ele>
        <time>2026-07-08T10:14:13Z</time>
      </trkpt>
      <trkpt lat="43.00777" lon="0.3253">
        <ele>819.4</ele>
        <time>2026-07-08T10:14:14Z</time>
      </trkpt>
      <trkpt lat="43.00778" lon="0.3253">
        <ele>820.4</ele>
        <time>2026-07-08T10:14:14Z</time>
      </trkpt>
      <trkpt lat="43.00779" lon="0.32531">
        <ele>820.4</ele>
        <time>2026-07-08T10:14:15Z</time>
      </trkpt>
      <trkpt lat="43.00779" lon="0.32532">
        <ele>820.4</ele>
        <time>2026-07-08T10:14:16Z</time>
      </trkpt>
      <trkpt lat="43.0078" lon="0.32532">
        <ele>819.4</ele>
        <time>2026-07-08T10:14:16Z</time>
      </trkpt>
      <trkpt lat="43.00781" lon="0.32532">
        <ele>819.4</ele>
        <time>2026-07-08T10:14:17Z</time>
      </trkpt>
      <trkpt lat="43.00781" lon="0.32532">
        <ele>820.4</ele>
        <time>2026-07-08T10:14:17Z</time>
      </trkpt>
      <trkpt lat="43.00782" lon="0.32533">
        <ele>820.4</ele>
        <time>2026-07-08T10:14:18Z</time>
      </trkpt>
      <trkpt lat="43.00782" lon="0.32533">
        <ele>820.4</ele>
        <time>2026-07-08T10:14:18Z</time>
      </trkpt>
      <trkpt lat="43.00783" lon="0.32533">
        <ele>820.4</ele>
        <time>2026-07-08T10:14:19Z</time>
      </trkpt>
      <trkpt lat="43.00784" lon="0.32532">
        <ele>820.4</ele>
        <time>2026-07-08T10:14:20Z</time>
      </trkpt>
      <trkpt lat="43.00784" lon="0.32532">
        <ele>820.4</ele>
        <time>2026-07-08T10:14:20Z</time>
      </trkpt>
      <trkpt lat="43.00785" lon="0.32532">
        <ele>820.4</ele>
        <time>2026-07-08T10:14:21Z</time>
      </trkpt>
      <trkpt lat="43.00786" lon="0.32533">
        <ele>820.4</ele>
        <time>2026-07-08T10:14:22Z</time>
      </trkpt>
      <trkpt lat="43.00787" lon="0.32533">
        <ele>820.4</ele>
        <time>2026-07-08T10:14:22Z</time>
      </trkpt>
      <trkpt lat="43.00788" lon="0.32534">
        <ele>820.4</ele>
        <time>2026-07-08T10:14:23Z</time>
      </trkpt>
      <trkpt lat="43.00789" lon="0.32534">
        <ele>820.4</ele>
        <time>2026-07-08T10:14:24Z</time>
      </trkpt>
      <trkpt lat="43.00789" lon="0.32534">
        <ele>820.4</ele>
        <time>2026-07-08T10:14:24Z</time>
      </trkpt>
      <trkpt lat="43.0079" lon="0.32534">
        <ele>820.4</ele>
        <time>2026-07-08T10:14:25Z</time>
      </trkpt>
      <trkpt lat="43.0079" lon="0.32535">
        <ele>820.4</ele>
        <time>2026-07-08T10:14:25Z</time>
      </trkpt>
      <trkpt lat="43.00791" lon="0.32535">
        <ele>820.4</ele>
        <time>2026-07-08T10:14:26Z</time>
      </trkpt>
      <trkpt lat="43.00792" lon="0.32535">
        <ele>819.4</ele>
        <time>2026-07-08T10:14:27Z</time>
      </trkpt>
      <trkpt lat="43.00793" lon="0.32536">
        <ele>819.4</ele>
        <time>2026-07-08T10:14:27Z</time>
      </trkpt>
      <trkpt lat="43.00794" lon="0.32536">
        <ele>819.4</ele>
        <time>2026-07-08T10:14:28Z</time>
      </trkpt>
      <trkpt lat="43.00794" lon="0.32536">
        <ele>819.4</ele>
        <time>2026-07-08T10:14:29Z</time>
      </trkpt>
      <trkpt lat="43.00795" lon="0.32536">
        <ele>819.4</ele>
        <time>2026-07-08T10:14:29Z</time>
      </trkpt>
      <trkpt lat="43.00796" lon="0.32536">
        <ele>819.4</ele>
        <time>2026-07-08T10:14:30Z</time>
      </trkpt>
      <trkpt lat="43.00796" lon="0.32536">
        <ele>819.4</ele>
        <time>2026-07-08T10:14:30Z</time>
      </trkpt>
      <trkpt lat="43.00797" lon="0.32537">
        <ele>819.4</ele>
        <time>2026-07-08T10:14:31Z</time>
      </trkpt>
      <trkpt lat="43.00798" lon="0.32536">
        <ele>818.4</ele>
        <time>2026-07-08T10:14:31Z</time>
      </trkpt>
      <trkpt lat="43.00798" lon="0.32537">
        <ele>818.4</ele>
        <time>2026-07-08T10:14:32Z</time>
      </trkpt>
      <trkpt lat="43.00799" lon="0.32537">
        <ele>818.4</ele>
        <time>2026-07-08T10:14:32Z</time>
      </trkpt>
      <trkpt lat="43.008" lon="0.32537">
        <ele>819.4</ele>
        <time>2026-07-08T10:14:33Z</time>
      </trkpt>
      <trkpt lat="43.00801" lon="0.32538">
        <ele>819.4</ele>
        <time>2026-07-08T10:14:34Z</time>
      </trkpt>
      <trkpt lat="43.00802" lon="0.32538">
        <ele>819.4</ele>
        <time>2026-07-08T10:14:35Z</time>
      </trkpt>
      <trkpt lat="43.00803" lon="0.32539">
        <ele>819.4</ele>
        <time>2026-07-08T10:14:35Z</time>
      </trkpt>
      <trkpt lat="43.00804" lon="0.32539">
        <ele>819.4</ele>
        <time>2026-07-08T10:14:36Z</time>
      </trkpt>
      <trkpt lat="43.00805" lon="0.32539">
        <ele>819.4</ele>
        <time>2026-07-08T10:14:37Z</time>
      </trkpt>
      <trkpt lat="43.00806" lon="0.3254">
        <ele>819.4</ele>
        <time>2026-07-08T10:14:38Z</time>
      </trkpt>
      <trkpt lat="43.00807" lon="0.3254">
        <ele>819.4</ele>
        <time>2026-07-08T10:14:38Z</time>
      </trkpt>
      <trkpt lat="43.00807" lon="0.32541">
        <ele>819.4</ele>
        <time>2026-07-08T10:14:39Z</time>
      </trkpt>
      <trkpt lat="43.00808" lon="0.32541">
        <ele>819.4</ele>
        <time>2026-07-08T10:14:39Z</time>
      </trkpt>
      <trkpt lat="43.00809" lon="0.32541">
        <ele>819.4</ele>
        <time>2026-07-08T10:14:40Z</time>
      </trkpt>
      <trkpt lat="43.0081" lon="0.32542">
        <ele>819.4</ele>
        <time>2026-07-08T10:14:41Z</time>
      </trkpt>
      <trkpt lat="43.00811" lon="0.32542">
        <ele>819.4</ele>
        <time>2026-07-08T10:14:42Z</time>
      </trkpt>
      <trkpt lat="43.00813" lon="0.32542">
        <ele>819.4</ele>
        <time>2026-07-08T10:14:43Z</time>
      </trkpt>
      <trkpt lat="43.00813" lon="0.32542">
        <ele>818.4</ele>
        <time>2026-07-08T10:14:43Z</time>
      </trkpt>
      <trkpt lat="43.00814" lon="0.32542">
        <ele>818.4</ele>
        <time>2026-07-08T10:14:44Z</time>
      </trkpt>
      <trkpt lat="43.00815" lon="0.32542">
        <ele>817.4</ele>
        <time>2026-07-08T10:14:44Z</time>
      </trkpt>
      <trkpt lat="43.00815" lon="0.32542">
        <ele>817.4</ele>
        <time>2026-07-08T10:14:45Z</time>
      </trkpt>
      <trkpt lat="43.00816" lon="0.32543">
        <ele>817.4</ele>
        <time>2026-07-08T10:14:46Z</time>
      </trkpt>
      <trkpt lat="43.00817" lon="0.32543">
        <ele>817.4</ele>
        <time>2026-07-08T10:14:46Z</time>
      </trkpt>
      <trkpt lat="43.00818" lon="0.32543">
        <ele>817.4</ele>
        <time>2026-07-08T10:14:47Z</time>
      </trkpt>
      <trkpt lat="43.00819" lon="0.32543">
        <ele>817.4</ele>
        <time>2026-07-08T10:14:48Z</time>
      </trkpt>
      <trkpt lat="43.0082" lon="0.32544">
        <ele>817.4</ele>
        <time>2026-07-08T10:14:48Z</time>
      </trkpt>
      <trkpt lat="43.00821" lon="0.32544">
        <ele>817.4</ele>
        <time>2026-07-08T10:14:49Z</time>
      </trkpt>
      <trkpt lat="43.00822" lon="0.32544">
        <ele>817.4</ele>
        <time>2026-07-08T10:14:49Z</time>
      </trkpt>
      <trkpt lat="43.00822" lon="0.32544">
        <ele>817.4</ele>
        <time>2026-07-08T10:14:50Z</time>
      </trkpt>
      <trkpt lat="43.00824" lon="0.32544">
        <ele>817.4</ele>
        <time>2026-07-08T10:14:51Z</time>
      </trkpt>
      <trkpt lat="43.00825" lon="0.32544">
        <ele>816.4</ele>
        <time>2026-07-08T10:14:52Z</time>
      </trkpt>
      <trkpt lat="43.00826" lon="0.32545">
        <ele>816.4</ele>
        <time>2026-07-08T10:14:53Z</time>
      </trkpt>
      <trkpt lat="43.00826" lon="0.32545">
        <ele>816.4</ele>
        <time>2026-07-08T10:14:53Z</time>
      </trkpt>
      <trkpt lat="43.00827" lon="0.32545">
        <ele>816.4</ele>
        <time>2026-07-08T10:14:54Z</time>
      </trkpt>
      <trkpt lat="43.00828" lon="0.32545">
        <ele>816.4</ele>
        <time>2026-07-08T10:14:54Z</time>
      </trkpt>
      <trkpt lat="43.00829" lon="0.32545">
        <ele>816.4</ele>
        <time>2026-07-08T10:14:55Z</time>
      </trkpt>
      <trkpt lat="43.00829" lon="0.32545">
        <ele>816.4</ele>
        <time>2026-07-08T10:14:56Z</time>
      </trkpt>
      <trkpt lat="43.0083" lon="0.32545">
        <ele>816.4</ele>
        <time>2026-07-08T10:14:56Z</time>
      </trkpt>
      <trkpt lat="43.00831" lon="0.32545">
        <ele>816.4</ele>
        <time>2026-07-08T10:14:57Z</time>
      </trkpt>
      <trkpt lat="43.00831" lon="0.32545">
        <ele>815.4</ele>
        <time>2026-07-08T10:14:57Z</time>
      </trkpt>
      <trkpt lat="43.00832" lon="0.32545">
        <ele>815.4</ele>
        <time>2026-07-08T10:14:58Z</time>
      </trkpt>
      <trkpt lat="43.00832" lon="0.32545">
        <ele>815.4</ele>
        <time>2026-07-08T10:14:58Z</time>
      </trkpt>
      <trkpt lat="43.00833" lon="0.32545">
        <ele>815.4</ele>
        <time>2026-07-08T10:14:59Z</time>
      </trkpt>
      <trkpt lat="43.00833" lon="0.32545">
        <ele>815.4</ele>
        <time>2026-07-08T10:14:59Z</time>
      </trkpt>
      <trkpt lat="43.00834" lon="0.32546">
        <ele>815.4</ele>
        <time>2026-07-08T10:15:00Z</time>
      </trkpt>
      <trkpt lat="43.00834" lon="0.32545">
        <ele>815.4</ele>
        <time>2026-07-08T10:15:00Z</time>
      </trkpt>
      <trkpt lat="43.00835" lon="0.32545">
        <ele>815.4</ele>
        <time>2026-07-08T10:15:01Z</time>
      </trkpt>
      <trkpt lat="43.00836" lon="0.32545">
        <ele>815.4</ele>
        <time>2026-07-08T10:15:02Z</time>
      </trkpt>
      <trkpt lat="43.00836" lon="0.32545">
        <ele>815.4</ele>
        <time>2026-07-08T10:15:02Z</time>
      </trkpt>
      <trkpt lat="43.00837" lon="0.32545">
        <ele>815.4</ele>
        <time>2026-07-08T10:15:03Z</time>
      </trkpt>
      <trkpt lat="43.00838" lon="0.32545">
        <ele>815.4</ele>
        <time>2026-07-08T10:15:04Z</time>
      </trkpt>
      <trkpt lat="43.00838" lon="0.32545">
        <ele>815.4</ele>
        <time>2026-07-08T10:15:04Z</time>
      </trkpt>
      <trkpt lat="43.00839" lon="0.32545">
        <ele>815.4</ele>
        <time>2026-07-08T10:15:05Z</time>
      </trkpt>
      <trkpt lat="43.0084" lon="0.32545">
        <ele>815.4</ele>
        <time>2026-07-08T10:15:05Z</time>
      </trkpt>
      <trkpt lat="43.0084" lon="0.32545">
        <ele>815.4</ele>
        <time>2026-07-08T10:15:06Z</time>
      </trkpt>
      <trkpt lat="43.00841" lon="0.32545">
        <ele>815.4</ele>
        <time>2026-07-08T10:15:06Z</time>
      </trkpt>
      <trkpt lat="43.00841" lon="0.32545">
        <ele>815.4</ele>
        <time>2026-07-08T10:15:07Z</time>
      </trkpt>
      <trkpt lat="43.00842" lon="0.32545">
        <ele>815.4</ele>
        <time>2026-07-08T10:15:07Z</time>
      </trkpt>
      <trkpt lat="43.00842" lon="0.32545">
        <ele>815.4</ele>
        <time>2026-07-08T10:15:08Z</time>
      </trkpt>
      <trkpt lat="43.00843" lon="0.32545">
        <ele>815.4</ele>
        <time>2026-07-08T10:15:08Z</time>
      </trkpt>
      <trkpt lat="43.00844" lon="0.32545">
        <ele>815.4</ele>
        <time>2026-07-08T10:15:09Z</time>
      </trkpt>
      <trkpt lat="43.00844" lon="0.32544">
        <ele>815.4</ele>
        <time>2026-07-08T10:15:09Z</time>
      </trkpt>
      <trkpt lat="43.00845" lon="0.32544">
        <ele>815.4</ele>
        <time>2026-07-08T10:15:10Z</time>
      </trkpt>
      <trkpt lat="43.00845" lon="0.32544">
        <ele>815.4</ele>
        <time>2026-07-08T10:15:10Z</time>
      </trkpt>
      <trkpt lat="43.00846" lon="0.32545">
        <ele>815.4</ele>
        <time>2026-07-08T10:15:11Z</time>
      </trkpt>
      <trkpt lat="43.00847" lon="0.32545">
        <ele>815.4</ele>
        <time>2026-07-08T10:15:12Z</time>
      </trkpt>
      <trkpt lat="43.00847" lon="0.32545">
        <ele>814.4</ele>
        <time>2026-07-08T10:15:12Z</time>
      </trkpt>
      <trkpt lat="43.00848" lon="0.32545">
        <ele>814.4</ele>
        <time>2026-07-08T10:15:13Z</time>
      </trkpt>
      <trkpt lat="43.00848" lon="0.32545">
        <ele>814.4</ele>
        <time>2026-07-08T10:15:13Z</time>
      </trkpt>
      <trkpt lat="43.00849" lon="0.32545">
        <ele>814.4</ele>
        <time>2026-07-08T10:15:14Z</time>
      </trkpt>
      <trkpt lat="43.0085" lon="0.32546">
        <ele>814.4</ele>
        <time>2026-07-08T10:15:15Z</time>
      </trkpt>
      <trkpt lat="43.00851" lon="0.32546">
        <ele>814.4</ele>
        <time>2026-07-08T10:15:15Z</time>
      </trkpt>
      <trkpt lat="43.00851" lon="0.32546">
        <ele>813.4</ele>
        <time>2026-07-08T10:15:16Z</time>
      </trkpt>
      <trkpt lat="43.00853" lon="0.32546">
        <ele>812.4</ele>
        <time>2026-07-08T10:15:17Z</time>
      </trkpt>
      <trkpt lat="43.00853" lon="0.32546">
        <ele>812.4</ele>
        <time>2026-07-08T10:15:17Z</time>
      </trkpt>
      <trkpt lat="43.00854" lon="0.32546">
        <ele>813.4</ele>
        <time>2026-07-08T10:15:18Z</time>
      </trkpt>
      <trkpt lat="43.00854" lon="0.32546">
        <ele>813.4</ele>
        <time>2026-07-08T10:15:18Z</time>
      </trkpt>
      <trkpt lat="43.00855" lon="0.32546">
        <ele>812.4</ele>
        <time>2026-07-08T10:15:19Z</time>
      </trkpt>
      <trkpt lat="43.00856" lon="0.32547">
        <ele>812.4</ele>
        <time>2026-07-08T10:15:20Z</time>
      </trkpt>
      <trkpt lat="43.00857" lon="0.32547">
        <ele>812.4</ele>
        <time>2026-07-08T10:15:20Z</time>
      </trkpt>
      <trkpt lat="43.00857" lon="0.32547">
        <ele>812.4</ele>
        <time>2026-07-08T10:15:21Z</time>
      </trkpt>
      <trkpt lat="43.00858" lon="0.32547">
        <ele>811.4</ele>
        <time>2026-07-08T10:15:21Z</time>
      </trkpt>
      <trkpt lat="43.00859" lon="0.32548">
        <ele>811.4</ele>
        <time>2026-07-08T10:15:22Z</time>
      </trkpt>
      <trkpt lat="43.00859" lon="0.32548">
        <ele>810.4</ele>
        <time>2026-07-08T10:15:22Z</time>
      </trkpt>
      <trkpt lat="43.0086" lon="0.32548">
        <ele>810.4</ele>
        <time>2026-07-08T10:15:23Z</time>
      </trkpt>
      <trkpt lat="43.00861" lon="0.32548">
        <ele>810.4</ele>
        <time>2026-07-08T10:15:23Z</time>
      </trkpt>
      <trkpt lat="43.00861" lon="0.32548">
        <ele>810.4</ele>
        <time>2026-07-08T10:15:24Z</time>
      </trkpt>
      <trkpt lat="43.00862" lon="0.32548">
        <ele>810.4</ele>
        <time>2026-07-08T10:15:24Z</time>
      </trkpt>
      <trkpt lat="43.00863" lon="0.32549">
        <ele>810.4</ele>
        <time>2026-07-08T10:15:25Z</time>
      </trkpt>
      <trkpt lat="43.00864" lon="0.32549">
        <ele>810.4</ele>
        <time>2026-07-08T10:15:26Z</time>
      </trkpt>
      <trkpt lat="43.00866" lon="0.32548">
        <ele>809.4</ele>
        <time>2026-07-08T10:15:27Z</time>
      </trkpt>
      <trkpt lat="43.00867" lon="0.32548">
        <ele>809.4</ele>
        <time>2026-07-08T10:15:28Z</time>
      </trkpt>
      <trkpt lat="43.00868" lon="0.32547">
        <ele>809.4</ele>
        <time>2026-07-08T10:15:29Z</time>
      </trkpt>
      <trkpt lat="43.00869" lon="0.32546">
        <ele>808.4</ele>
        <time>2026-07-08T10:15:29Z</time>
      </trkpt>
      <trkpt lat="43.0087" lon="0.32545">
        <ele>809.4</ele>
        <time>2026-07-08T10:15:30Z</time>
      </trkpt>
      <trkpt lat="43.00871" lon="0.32545">
        <ele>809.4</ele>
        <time>2026-07-08T10:15:31Z</time>
      </trkpt>
      <trkpt lat="43.00872" lon="0.32544">
        <ele>809.4</ele>
        <time>2026-07-08T10:15:31Z</time>
      </trkpt>
      <trkpt lat="43.00872" lon="0.32543">
        <ele>809.4</ele>
        <time>2026-07-08T10:15:32Z</time>
      </trkpt>
      <trkpt lat="43.00873" lon="0.32543">
        <ele>809.4</ele>
        <time>2026-07-08T10:15:32Z</time>
      </trkpt>
      <trkpt lat="43.00874" lon="0.32543">
        <ele>809.4</ele>
        <time>2026-07-08T10:15:33Z</time>
      </trkpt>
      <trkpt lat="43.00874" lon="0.32542">
        <ele>808.4</ele>
        <time>2026-07-08T10:15:33Z</time>
      </trkpt>
      <trkpt lat="43.00875" lon="0.32542">
        <ele>808.4</ele>
        <time>2026-07-08T10:15:34Z</time>
      </trkpt>
      <trkpt lat="43.00875" lon="0.32541">
        <ele>808.4</ele>
        <time>2026-07-08T10:15:34Z</time>
      </trkpt>
      <trkpt lat="43.00876" lon="0.32541">
        <ele>808.4</ele>
        <time>2026-07-08T10:15:35Z</time>
      </trkpt>
      <trkpt lat="43.00877" lon="0.32541">
        <ele>808.4</ele>
        <time>2026-07-08T10:15:36Z</time>
      </trkpt>
      <trkpt lat="43.00877" lon="0.3254">
        <ele>808.4</ele>
        <time>2026-07-08T10:15:36Z</time>
      </trkpt>
      <trkpt lat="43.00878" lon="0.3254">
        <ele>808.4</ele>
        <time>2026-07-08T10:15:37Z</time>
      </trkpt>
      <trkpt lat="43.00879" lon="0.3254">
        <ele>808.4</ele>
        <time>2026-07-08T10:15:37Z</time>
      </trkpt>
      <trkpt lat="43.00879" lon="0.3254">
        <ele>808.4</ele>
        <time>2026-07-08T10:15:38Z</time>
      </trkpt>
      <trkpt lat="43.0088" lon="0.3254">
        <ele>808.4</ele>
        <time>2026-07-08T10:15:38Z</time>
      </trkpt>
      <trkpt lat="43.00881" lon="0.3254">
        <ele>808.4</ele>
        <time>2026-07-08T10:15:39Z</time>
      </trkpt>
      <trkpt lat="43.00882" lon="0.3254">
        <ele>807.4</ele>
        <time>2026-07-08T10:15:39Z</time>
      </trkpt>
      <trkpt lat="43.00883" lon="0.3254">
        <ele>807.4</ele>
        <time>2026-07-08T10:15:40Z</time>
      </trkpt>
      <trkpt lat="43.00884" lon="0.3254">
        <ele>807.4</ele>
        <time>2026-07-08T10:15:40Z</time>
      </trkpt>
      <trkpt lat="43.00884" lon="0.3254">
        <ele>807.4</ele>
        <time>2026-07-08T10:15:41Z</time>
      </trkpt>
      <trkpt lat="43.00885" lon="0.3254">
        <ele>807.4</ele>
        <time>2026-07-08T10:15:42Z</time>
      </trkpt>
      <trkpt lat="43.00886" lon="0.3254">
        <ele>808.4</ele>
        <time>2026-07-08T10:15:42Z</time>
      </trkpt>
      <trkpt lat="43.00887" lon="0.3254">
        <ele>808.4</ele>
        <time>2026-07-08T10:15:43Z</time>
      </trkpt>
      <trkpt lat="43.00888" lon="0.3254">
        <ele>808.4</ele>
        <time>2026-07-08T10:15:43Z</time>
      </trkpt>
      <trkpt lat="43.00888" lon="0.3254">
        <ele>808.4</ele>
        <time>2026-07-08T10:15:44Z</time>
      </trkpt>
      <trkpt lat="43.00889" lon="0.3254">
        <ele>808.4</ele>
        <time>2026-07-08T10:15:44Z</time>
      </trkpt>
      <trkpt lat="43.0089" lon="0.3254">
        <ele>808.4</ele>
        <time>2026-07-08T10:15:45Z</time>
      </trkpt>
      <trkpt lat="43.00891" lon="0.3254">
        <ele>808.4</ele>
        <time>2026-07-08T10:15:46Z</time>
      </trkpt>
      <trkpt lat="43.00891" lon="0.3254">
        <ele>808.4</ele>
        <time>2026-07-08T10:15:46Z</time>
      </trkpt>
      <trkpt lat="43.00892" lon="0.3254">
        <ele>808.4</ele>
        <time>2026-07-08T10:15:47Z</time>
      </trkpt>
      <trkpt lat="43.00893" lon="0.32541">
        <ele>808.4</ele>
        <time>2026-07-08T10:15:47Z</time>
      </trkpt>
      <trkpt lat="43.00893" lon="0.32541">
        <ele>808.4</ele>
        <time>2026-07-08T10:15:48Z</time>
      </trkpt>
      <trkpt lat="43.00894" lon="0.32541">
        <ele>808.4</ele>
        <time>2026-07-08T10:15:48Z</time>
      </trkpt>
      <trkpt lat="43.00895" lon="0.32542">
        <ele>808.4</ele>
        <time>2026-07-08T10:15:49Z</time>
      </trkpt>
      <trkpt lat="43.00895" lon="0.32542">
        <ele>808.4</ele>
        <time>2026-07-08T10:15:49Z</time>
      </trkpt>
      <trkpt lat="43.00896" lon="0.32542">
        <ele>808.4</ele>
        <time>2026-07-08T10:15:50Z</time>
      </trkpt>
      <trkpt lat="43.00897" lon="0.32542">
        <ele>808.4</ele>
        <time>2026-07-08T10:15:50Z</time>
      </trkpt>
      <trkpt lat="43.00897" lon="0.32542">
        <ele>808.4</ele>
        <time>2026-07-08T10:15:51Z</time>
      </trkpt>
      <trkpt lat="43.00898" lon="0.32542">
        <ele>808.4</ele>
        <time>2026-07-08T10:15:51Z</time>
      </trkpt>
      <trkpt lat="43.00899" lon="0.32542">
        <ele>808.4</ele>
        <time>2026-07-08T10:15:52Z</time>
      </trkpt>
      <trkpt lat="43.009" lon="0.32542">
        <ele>808.4</ele>
        <time>2026-07-08T10:15:52Z</time>
      </trkpt>
      <trkpt lat="43.009" lon="0.32542">
        <ele>808.4</ele>
        <time>2026-07-08T10:15:53Z</time>
      </trkpt>
      <trkpt lat="43.00901" lon="0.32543">
        <ele>808.4</ele>
        <time>2026-07-08T10:15:54Z</time>
      </trkpt>
      <trkpt lat="43.00902" lon="0.32543">
        <ele>808.4</ele>
        <time>2026-07-08T10:15:54Z</time>
      </trkpt>
      <trkpt lat="43.00903" lon="0.32543">
        <ele>808.4</ele>
        <time>2026-07-08T10:15:55Z</time>
      </trkpt>
      <trkpt lat="43.00904" lon="0.32543">
        <ele>807.4</ele>
        <time>2026-07-08T10:15:55Z</time>
      </trkpt>
      <trkpt lat="43.00904" lon="0.32544">
        <ele>807.4</ele>
        <time>2026-07-08T10:15:56Z</time>
      </trkpt>
      <trkpt lat="43.00905" lon="0.32544">
        <ele>807.4</ele>
        <time>2026-07-08T10:15:56Z</time>
      </trkpt>
      <trkpt lat="43.00906" lon="0.32544">
        <ele>807.4</ele>
        <time>2026-07-08T10:15:57Z</time>
      </trkpt>
      <trkpt lat="43.00907" lon="0.32544">
        <ele>806.4</ele>
        <time>2026-07-08T10:15:57Z</time>
      </trkpt>
      <trkpt lat="43.00907" lon="0.32544">
        <ele>806.4</ele>
        <time>2026-07-08T10:15:58Z</time>
      </trkpt>
      <trkpt lat="43.00908" lon="0.32544">
        <ele>806.4</ele>
        <time>2026-07-08T10:15:58Z</time>
      </trkpt>
      <trkpt lat="43.00909" lon="0.32544">
        <ele>806.4</ele>
        <time>2026-07-08T10:15:59Z</time>
      </trkpt>
      <trkpt lat="43.00909" lon="0.32544">
        <ele>806.4</ele>
        <time>2026-07-08T10:15:59Z</time>
      </trkpt>
      <trkpt lat="43.0091" lon="0.32544">
        <ele>806.4</ele>
        <time>2026-07-08T10:16:00Z</time>
      </trkpt>
      <trkpt lat="43.00911" lon="0.32544">
        <ele>806.4</ele>
        <time>2026-07-08T10:16:00Z</time>
      </trkpt>
      <trkpt lat="43.00912" lon="0.32544">
        <ele>806.4</ele>
        <time>2026-07-08T10:16:01Z</time>
      </trkpt>
      <trkpt lat="43.00913" lon="0.32544">
        <ele>806.4</ele>
        <time>2026-07-08T10:16:02Z</time>
      </trkpt>
      <trkpt lat="43.00913" lon="0.32544">
        <ele>807.4</ele>
        <time>2026-07-08T10:16:02Z</time>
      </trkpt>
      <trkpt lat="43.00914" lon="0.32544">
        <ele>807.4</ele>
        <time>2026-07-08T10:16:03Z</time>
      </trkpt>
      <trkpt lat="43.00915" lon="0.32544">
        <ele>807.4</ele>
        <time>2026-07-08T10:16:03Z</time>
      </trkpt>
      <trkpt lat="43.00916" lon="0.32544">
        <ele>807.4</ele>
        <time>2026-07-08T10:16:04Z</time>
      </trkpt>
      <trkpt lat="43.00916" lon="0.32544">
        <ele>807.4</ele>
        <time>2026-07-08T10:16:04Z</time>
      </trkpt>
      <trkpt lat="43.00917" lon="0.32544">
        <ele>807.4</ele>
        <time>2026-07-08T10:16:05Z</time>
      </trkpt>
      <trkpt lat="43.00918" lon="0.32544">
        <ele>807.4</ele>
        <time>2026-07-08T10:16:05Z</time>
      </trkpt>
      <trkpt lat="43.00918" lon="0.32544">
        <ele>807.4</ele>
        <time>2026-07-08T10:16:06Z</time>
      </trkpt>
      <trkpt lat="43.00919" lon="0.32543">
        <ele>806.4</ele>
        <time>2026-07-08T10:16:06Z</time>
      </trkpt>
      <trkpt lat="43.0092" lon="0.32543">
        <ele>806.4</ele>
        <time>2026-07-08T10:16:07Z</time>
      </trkpt>
      <trkpt lat="43.00921" lon="0.32544">
        <ele>806.4</ele>
        <time>2026-07-08T10:16:08Z</time>
      </trkpt>
      <trkpt lat="43.00922" lon="0.32544">
        <ele>806.4</ele>
        <time>2026-07-08T10:16:08Z</time>
      </trkpt>
      <trkpt lat="43.00923" lon="0.32544">
        <ele>805.4</ele>
        <time>2026-07-08T10:16:09Z</time>
      </trkpt>
      <trkpt lat="43.00924" lon="0.32544">
        <ele>805.4</ele>
        <time>2026-07-08T10:16:10Z</time>
      </trkpt>
      <trkpt lat="43.00924" lon="0.32544">
        <ele>806.4</ele>
        <time>2026-07-08T10:16:10Z</time>
      </trkpt>
      <trkpt lat="43.00925" lon="0.32544">
        <ele>806.4</ele>
        <time>2026-07-08T10:16:11Z</time>
      </trkpt>
      <trkpt lat="43.00926" lon="0.32544">
        <ele>806.4</ele>
        <time>2026-07-08T10:16:11Z</time>
      </trkpt>
      <trkpt lat="43.00927" lon="0.32544">
        <ele>806.4</ele>
        <time>2026-07-08T10:16:12Z</time>
      </trkpt>
      <trkpt lat="43.00927" lon="0.32544">
        <ele>806.4</ele>
        <time>2026-07-08T10:16:12Z</time>
      </trkpt>
      <trkpt lat="43.00928" lon="0.32545">
        <ele>806.4</ele>
        <time>2026-07-08T10:16:13Z</time>
      </trkpt>
      <trkpt lat="43.00929" lon="0.32545">
        <ele>806.4</ele>
        <time>2026-07-08T10:16:13Z</time>
      </trkpt>
      <trkpt lat="43.00929" lon="0.32545">
        <ele>806.4</ele>
        <time>2026-07-08T10:16:14Z</time>
      </trkpt>
      <trkpt lat="43.0093" lon="0.32545">
        <ele>806.4</ele>
        <time>2026-07-08T10:16:14Z</time>
      </trkpt>
      <trkpt lat="43.00931" lon="0.32545">
        <ele>806.4</ele>
        <time>2026-07-08T10:16:15Z</time>
      </trkpt>
      <trkpt lat="43.00931" lon="0.32545">
        <ele>806.4</ele>
        <time>2026-07-08T10:16:16Z</time>
      </trkpt>
      <trkpt lat="43.00932" lon="0.32545">
        <ele>805.4</ele>
        <time>2026-07-08T10:16:16Z</time>
      </trkpt>
      <trkpt lat="43.00933" lon="0.32545">
        <ele>805.4</ele>
        <time>2026-07-08T10:16:17Z</time>
      </trkpt>
      <trkpt lat="43.00933" lon="0.32545">
        <ele>805.4</ele>
        <time>2026-07-08T10:16:17Z</time>
      </trkpt>
      <trkpt lat="43.00934" lon="0.32545">
        <ele>805.4</ele>
        <time>2026-07-08T10:16:18Z</time>
      </trkpt>
      <trkpt lat="43.00934" lon="0.32545">
        <ele>806.4</ele>
        <time>2026-07-08T10:16:18Z</time>
      </trkpt>
      <trkpt lat="43.00935" lon="0.32545">
        <ele>806.4</ele>
        <time>2026-07-08T10:16:19Z</time>
      </trkpt>
      <trkpt lat="43.00936" lon="0.32545">
        <ele>806.4</ele>
        <time>2026-07-08T10:16:19Z</time>
      </trkpt>
      <trkpt lat="43.00937" lon="0.32545">
        <ele>806.4</ele>
        <time>2026-07-08T10:16:20Z</time>
      </trkpt>
      <trkpt lat="43.00937" lon="0.32545">
        <ele>806.4</ele>
        <time>2026-07-08T10:16:20Z</time>
      </trkpt>
      <trkpt lat="43.00938" lon="0.32545">
        <ele>806.4</ele>
        <time>2026-07-08T10:16:21Z</time>
      </trkpt>
      <trkpt lat="43.00939" lon="0.32545">
        <ele>807.4</ele>
        <time>2026-07-08T10:16:22Z</time>
      </trkpt>
      <trkpt lat="43.0094" lon="0.32544">
        <ele>806.4</ele>
        <time>2026-07-08T10:16:22Z</time>
      </trkpt>
      <trkpt lat="43.0094" lon="0.32544">
        <ele>806.4</ele>
        <time>2026-07-08T10:16:23Z</time>
      </trkpt>
      <trkpt lat="43.00941" lon="0.32544">
        <ele>807.4</ele>
        <time>2026-07-08T10:16:23Z</time>
      </trkpt>
      <trkpt lat="43.00942" lon="0.32544">
        <ele>807.4</ele>
        <time>2026-07-08T10:16:24Z</time>
      </trkpt>
      <trkpt lat="43.00943" lon="0.32544">
        <ele>806.4</ele>
        <time>2026-07-08T10:16:24Z</time>
      </trkpt>
      <trkpt lat="43.00943" lon="0.32544">
        <ele>806.4</ele>
        <time>2026-07-08T10:16:25Z</time>
      </trkpt>
      <trkpt lat="43.00944" lon="0.32543">
        <ele>807.4</ele>
        <time>2026-07-08T10:16:25Z</time>
      </trkpt>
      <trkpt lat="43.00945" lon="0.32543">
        <ele>807.4</ele>
        <time>2026-07-08T10:16:26Z</time>
      </trkpt>
      <trkpt lat="43.00946" lon="0.32543">
        <ele>807.4</ele>
        <time>2026-07-08T10:16:26Z</time>
      </trkpt>
      <trkpt lat="43.00946" lon="0.32542">
        <ele>807.4</ele>
        <time>2026-07-08T10:16:27Z</time>
      </trkpt>
      <trkpt lat="43.00947" lon="0.32542">
        <ele>807.4</ele>
        <time>2026-07-08T10:16:27Z</time>
      </trkpt>
      <trkpt lat="43.00948" lon="0.32542">
        <ele>807.4</ele>
        <time>2026-07-08T10:16:28Z</time>
      </trkpt>
      <trkpt lat="43.00948" lon="0.32541">
        <ele>806.4</ele>
        <time>2026-07-08T10:16:28Z</time>
      </trkpt>
      <trkpt lat="43.00949" lon="0.32541">
        <ele>806.4</ele>
        <time>2026-07-08T10:16:29Z</time>
      </trkpt>
      <trkpt lat="43.0095" lon="0.3254">
        <ele>805.4</ele>
        <time>2026-07-08T10:16:30Z</time>
      </trkpt>
      <trkpt lat="43.00951" lon="0.3254">
        <ele>805.4</ele>
        <time>2026-07-08T10:16:30Z</time>
      </trkpt>
      <trkpt lat="43.00951" lon="0.32539">
        <ele>805.4</ele>
        <time>2026-07-08T10:16:31Z</time>
      </trkpt>
      <trkpt lat="43.00952" lon="0.32539">
        <ele>804.4</ele>
        <time>2026-07-08T10:16:31Z</time>
      </trkpt>
      <trkpt lat="43.00953" lon="0.32538">
        <ele>804.4</ele>
        <time>2026-07-08T10:16:32Z</time>
      </trkpt>
      <trkpt lat="43.00953" lon="0.32538">
        <ele>804.4</ele>
        <time>2026-07-08T10:16:32Z</time>
      </trkpt>
      <trkpt lat="43.00954" lon="0.32537">
        <ele>804.4</ele>
        <time>2026-07-08T10:16:33Z</time>
      </trkpt>
      <trkpt lat="43.00955" lon="0.32537">
        <ele>804.4</ele>
        <time>2026-07-08T10:16:33Z</time>
      </trkpt>
      <trkpt lat="43.00956" lon="0.32536">
        <ele>804.4</ele>
        <time>2026-07-08T10:16:34Z</time>
      </trkpt>
      <trkpt lat="43.00956" lon="0.32536">
        <ele>805.4</ele>
        <time>2026-07-08T10:16:34Z</time>
      </trkpt>
      <trkpt lat="43.00957" lon="0.32535">
        <ele>805.4</ele>
        <time>2026-07-08T10:16:35Z</time>
      </trkpt>
      <trkpt lat="43.00958" lon="0.32534">
        <ele>804.4</ele>
        <time>2026-07-08T10:16:35Z</time>
      </trkpt>
      <trkpt lat="43.00958" lon="0.32534">
        <ele>804.4</ele>
        <time>2026-07-08T10:16:36Z</time>
      </trkpt>
      <trkpt lat="43.00959" lon="0.32533">
        <ele>804.4</ele>
        <time>2026-07-08T10:16:36Z</time>
      </trkpt>
      <trkpt lat="43.00959" lon="0.32533">
        <ele>804.4</ele>
        <time>2026-07-08T10:16:37Z</time>
      </trkpt>
      <trkpt lat="43.0096" lon="0.32532">
        <ele>804.4</ele>
        <time>2026-07-08T10:16:37Z</time>
      </trkpt>
      <trkpt lat="43.00961" lon="0.32531">
        <ele>804.4</ele>
        <time>2026-07-08T10:16:38Z</time>
      </trkpt>
      <trkpt lat="43.00961" lon="0.3253">
        <ele>804.4</ele>
        <time>2026-07-08T10:16:38Z</time>
      </trkpt>
      <trkpt lat="43.00962" lon="0.3253">
        <ele>804.4</ele>
        <time>2026-07-08T10:16:39Z</time>
      </trkpt>
      <trkpt lat="43.00962" lon="0.32529">
        <ele>804.4</ele>
        <time>2026-07-08T10:16:39Z</time>
      </trkpt>
      <trkpt lat="43.00963" lon="0.32528">
        <ele>804.4</ele>
        <time>2026-07-08T10:16:40Z</time>
      </trkpt>
      <trkpt lat="43.00963" lon="0.32527">
        <ele>804.4</ele>
        <time>2026-07-08T10:16:41Z</time>
      </trkpt>
      <trkpt lat="43.00964" lon="0.32527">
        <ele>804.4</ele>
        <time>2026-07-08T10:16:41Z</time>
      </trkpt>
      <trkpt lat="43.00965" lon="0.32526">
        <ele>804.4</ele>
        <time>2026-07-08T10:16:42Z</time>
      </trkpt>
      <trkpt lat="43.00965" lon="0.32526">
        <ele>804.4</ele>
        <time>2026-07-08T10:16:42Z</time>
      </trkpt>
      <trkpt lat="43.00966" lon="0.32525">
        <ele>804.4</ele>
        <time>2026-07-08T10:16:43Z</time>
      </trkpt>
      <trkpt lat="43.00968" lon="0.32525">
        <ele>804.4</ele>
        <time>2026-07-08T10:16:44Z</time>
      </trkpt>
      <trkpt lat="43.00968" lon="0.32525">
        <ele>804.4</ele>
        <time>2026-07-08T10:16:44Z</time>
      </trkpt>
      <trkpt lat="43.00969" lon="0.32524">
        <ele>804.4</ele>
        <time>2026-07-08T10:16:45Z</time>
      </trkpt>
      <trkpt lat="43.0097" lon="0.32524">
        <ele>804.4</ele>
        <time>2026-07-08T10:16:45Z</time>
      </trkpt>
      <trkpt lat="43.00971" lon="0.32524">
        <ele>804.4</ele>
        <time>2026-07-08T10:16:46Z</time>
      </trkpt>
      <trkpt lat="43.00971" lon="0.32524">
        <ele>804.4</ele>
        <time>2026-07-08T10:16:47Z</time>
      </trkpt>
      <trkpt lat="43.00973" lon="0.32523">
        <ele>804.4</ele>
        <time>2026-07-08T10:16:47Z</time>
      </trkpt>
      <trkpt lat="43.00973" lon="0.32523">
        <ele>804.4</ele>
        <time>2026-07-08T10:16:48Z</time>
      </trkpt>
      <trkpt lat="43.00974" lon="0.32523">
        <ele>804.4</ele>
        <time>2026-07-08T10:16:49Z</time>
      </trkpt>
      <trkpt lat="43.00974" lon="0.32523">
        <ele>804.4</ele>
        <time>2026-07-08T10:16:49Z</time>
      </trkpt>
      <trkpt lat="43.00975" lon="0.32523">
        <ele>804.4</ele>
        <time>2026-07-08T10:16:50Z</time>
      </trkpt>
      <trkpt lat="43.00976" lon="0.32522">
        <ele>804.4</ele>
        <time>2026-07-08T10:16:50Z</time>
      </trkpt>
      <trkpt lat="43.00977" lon="0.32522">
        <ele>804.4</ele>
        <time>2026-07-08T10:16:51Z</time>
      </trkpt>
      <trkpt lat="43.00978" lon="0.32521">
        <ele>803.4</ele>
        <time>2026-07-08T10:16:52Z</time>
      </trkpt>
      <trkpt lat="43.00979" lon="0.3252">
        <ele>803.4</ele>
        <time>2026-07-08T10:16:53Z</time>
      </trkpt>
      <trkpt lat="43.0098" lon="0.3252">
        <ele>804.4</ele>
        <time>2026-07-08T10:16:53Z</time>
      </trkpt>
      <trkpt lat="43.0098" lon="0.3252">
        <ele>804.4</ele>
        <time>2026-07-08T10:16:54Z</time>
      </trkpt>
      <trkpt lat="43.00981" lon="0.32519">
        <ele>804.4</ele>
        <time>2026-07-08T10:16:54Z</time>
      </trkpt>
      <trkpt lat="43.00982" lon="0.32519">
        <ele>804.4</ele>
        <time>2026-07-08T10:16:55Z</time>
      </trkpt>
      <trkpt lat="43.00982" lon="0.32518">
        <ele>803.4</ele>
        <time>2026-07-08T10:16:55Z</time>
      </trkpt>
      <trkpt lat="43.00983" lon="0.32518">
        <ele>803.4</ele>
        <time>2026-07-08T10:16:56Z</time>
      </trkpt>
      <trkpt lat="43.00983" lon="0.32517">
        <ele>803.4</ele>
        <time>2026-07-08T10:16:57Z</time>
      </trkpt>
      <trkpt lat="43.00984" lon="0.32517">
        <ele>802.4</ele>
        <time>2026-07-08T10:16:57Z</time>
      </trkpt>
      <trkpt lat="43.00985" lon="0.32517">
        <ele>802.4</ele>
        <time>2026-07-08T10:16:58Z</time>
      </trkpt>
      <trkpt lat="43.00986" lon="0.32516">
        <ele>802.4</ele>
        <time>2026-07-08T10:16:59Z</time>
      </trkpt>
      <trkpt lat="43.00987" lon="0.32516">
        <ele>802.4</ele>
        <time>2026-07-08T10:16:59Z</time>
      </trkpt>
      <trkpt lat="43.00987" lon="0.32515">
        <ele>802.4</ele>
        <time>2026-07-08T10:17:00Z</time>
      </trkpt>
      <trkpt lat="43.00989" lon="0.32514">
        <ele>802.4</ele>
        <time>2026-07-08T10:17:01Z</time>
      </trkpt>
      <trkpt lat="43.00989" lon="0.32514">
        <ele>802.4</ele>
        <time>2026-07-08T10:17:01Z</time>
      </trkpt>
      <trkpt lat="43.0099" lon="0.32514">
        <ele>802.4</ele>
        <time>2026-07-08T10:17:02Z</time>
      </trkpt>
      <trkpt lat="43.0099" lon="0.32514">
        <ele>803.4</ele>
        <time>2026-07-08T10:17:02Z</time>
      </trkpt>
      <trkpt lat="43.00991" lon="0.32513">
        <ele>803.4</ele>
        <time>2026-07-08T10:17:03Z</time>
      </trkpt>
      <trkpt lat="43.00991" lon="0.32513">
        <ele>803.4</ele>
        <time>2026-07-08T10:17:04Z</time>
      </trkpt>
      <trkpt lat="43.00992" lon="0.32513">
        <ele>802.4</ele>
        <time>2026-07-08T10:17:04Z</time>
      </trkpt>
      <trkpt lat="43.00992" lon="0.32513">
        <ele>802.4</ele>
        <time>2026-07-08T10:17:05Z</time>
      </trkpt>
      <trkpt lat="43.00993" lon="0.32512">
        <ele>802.4</ele>
        <time>2026-07-08T10:17:05Z</time>
      </trkpt>
      <trkpt lat="43.00993" lon="0.32512">
        <ele>802.4</ele>
        <time>2026-07-08T10:17:06Z</time>
      </trkpt>
      <trkpt lat="43.00994" lon="0.32511">
        <ele>801.4</ele>
        <time>2026-07-08T10:17:06Z</time>
      </trkpt>
      <trkpt lat="43.00994" lon="0.32511">
        <ele>801.4</ele>
        <time>2026-07-08T10:17:07Z</time>
      </trkpt>
      <trkpt lat="43.00995" lon="0.3251">
        <ele>801.4</ele>
        <time>2026-07-08T10:17:07Z</time>
      </trkpt>
      <trkpt lat="43.00995" lon="0.3251">
        <ele>801.4</ele>
        <time>2026-07-08T10:17:08Z</time>
      </trkpt>
      <trkpt lat="43.00995" lon="0.32509">
        <ele>801.4</ele>
        <time>2026-07-08T10:17:08Z</time>
      </trkpt>
      <trkpt lat="43.00996" lon="0.32508">
        <ele>800.4</ele>
        <time>2026-07-08T10:17:09Z</time>
      </trkpt>
      <trkpt lat="43.00996" lon="0.32508">
        <ele>800.4</ele>
        <time>2026-07-08T10:17:10Z</time>
      </trkpt>
      <trkpt lat="43.00997" lon="0.32507">
        <ele>800.4</ele>
        <time>2026-07-08T10:17:11Z</time>
      </trkpt>
      <trkpt lat="43.00998" lon="0.32506">
        <ele>801.4</ele>
        <time>2026-07-08T10:17:12Z</time>
      </trkpt>
      <trkpt lat="43.00999" lon="0.32505">
        <ele>800.4</ele>
        <time>2026-07-08T10:17:13Z</time>
      </trkpt>
      <trkpt lat="43.01" lon="0.32504">
        <ele>800.4</ele>
        <time>2026-07-08T10:17:14Z</time>
      </trkpt>
      <trkpt lat="43.01" lon="0.32504">
        <ele>799.4</ele>
        <time>2026-07-08T10:17:15Z</time>
      </trkpt>
      <trkpt lat="43.01001" lon="0.32503">
        <ele>799.4</ele>
        <time>2026-07-08T10:17:16Z</time>
      </trkpt>
      <trkpt lat="43.01001" lon="0.32503">
        <ele>799.4</ele>
        <time>2026-07-08T10:17:16Z</time>
      </trkpt>
      <trkpt lat="43.01002" lon="0.32502">
        <ele>799.4</ele>
        <time>2026-07-08T10:17:16Z</time>
      </trkpt>
      <trkpt lat="43.01002" lon="0.32502">
        <ele>798.4</ele>
        <time>2026-07-08T10:17:17Z</time>
      </trkpt>
      <trkpt lat="43.01003" lon="0.32501">
        <ele>798.4</ele>
        <time>2026-07-08T10:17:18Z</time>
      </trkpt>
      <trkpt lat="43.01004" lon="0.32501">
        <ele>798.4</ele>
        <time>2026-07-08T10:17:18Z</time>
      </trkpt>
      <trkpt lat="43.01004" lon="0.325">
        <ele>798.4</ele>
        <time>2026-07-08T10:17:19Z</time>
      </trkpt>
      <trkpt lat="43.01005" lon="0.325">
        <ele>798.4</ele>
        <time>2026-07-08T10:17:20Z</time>
      </trkpt>
      <trkpt lat="43.01006" lon="0.325">
        <ele>798.4</ele>
        <time>2026-07-08T10:17:20Z</time>
      </trkpt>
      <trkpt lat="43.01007" lon="0.32499">
        <ele>798.4</ele>
        <time>2026-07-08T10:17:21Z</time>
      </trkpt>
      <trkpt lat="43.01007" lon="0.32499">
        <ele>797.4</ele>
        <time>2026-07-08T10:17:22Z</time>
      </trkpt>
      <trkpt lat="43.01008" lon="0.32498">
        <ele>797.4</ele>
        <time>2026-07-08T10:17:22Z</time>
      </trkpt>
      <trkpt lat="43.01009" lon="0.32497">
        <ele>797.4</ele>
        <time>2026-07-08T10:17:23Z</time>
      </trkpt>
      <trkpt lat="43.01009" lon="0.32497">
        <ele>797.4</ele>
        <time>2026-07-08T10:17:23Z</time>
      </trkpt>
      <trkpt lat="43.01009" lon="0.32496">
        <ele>797.4</ele>
        <time>2026-07-08T10:17:24Z</time>
      </trkpt>
      <trkpt lat="43.0101" lon="0.32496">
        <ele>796.4</ele>
        <time>2026-07-08T10:17:24Z</time>
      </trkpt>
      <trkpt lat="43.0101" lon="0.32495">
        <ele>796.4</ele>
        <time>2026-07-08T10:17:25Z</time>
      </trkpt>
      <trkpt lat="43.0101" lon="0.32494">
        <ele>797.4</ele>
        <time>2026-07-08T10:17:25Z</time>
      </trkpt>
      <trkpt lat="43.01011" lon="0.32494">
        <ele>797.4</ele>
        <time>2026-07-08T10:17:26Z</time>
      </trkpt>
      <trkpt lat="43.01011" lon="0.32493">
        <ele>796.4</ele>
        <time>2026-07-08T10:17:26Z</time>
      </trkpt>
      <trkpt lat="43.01011" lon="0.32492">
        <ele>796.4</ele>
        <time>2026-07-08T10:17:27Z</time>
      </trkpt>
      <trkpt lat="43.01011" lon="0.32492">
        <ele>796.4</ele>
        <time>2026-07-08T10:17:27Z</time>
      </trkpt>
      <trkpt lat="43.01012" lon="0.32491">
        <ele>796.4</ele>
        <time>2026-07-08T10:17:28Z</time>
      </trkpt>
      <trkpt lat="43.01012" lon="0.3249">
        <ele>795.4</ele>
        <time>2026-07-08T10:17:28Z</time>
      </trkpt>
      <trkpt lat="43.01013" lon="0.3249">
        <ele>795.4</ele>
        <time>2026-07-08T10:17:29Z</time>
      </trkpt>
      <trkpt lat="43.01013" lon="0.32488">
        <ele>795.4</ele>
        <time>2026-07-08T10:17:30Z</time>
      </trkpt>
      <trkpt lat="43.01014" lon="0.32487">
        <ele>793.4</ele>
        <time>2026-07-08T10:17:31Z</time>
      </trkpt>
      <trkpt lat="43.01014" lon="0.32485">
        <ele>793.4</ele>
        <time>2026-07-08T10:17:32Z</time>
      </trkpt>
      <trkpt lat="43.01014" lon="0.32483">
        <ele>792.4</ele>
        <time>2026-07-08T10:17:32Z</time>
      </trkpt>
      <trkpt lat="43.01014" lon="0.32482">
        <ele>792.4</ele>
        <time>2026-07-08T10:17:33Z</time>
      </trkpt>
      <trkpt lat="43.01014" lon="0.32481">
        <ele>792.4</ele>
        <time>2026-07-08T10:17:34Z</time>
      </trkpt>
      <trkpt lat="43.01014" lon="0.3248">
        <ele>792.4</ele>
        <time>2026-07-08T10:17:34Z</time>
      </trkpt>
      <trkpt lat="43.01014" lon="0.32479">
        <ele>792.4</ele>
        <time>2026-07-08T10:17:35Z</time>
      </trkpt>
      <trkpt lat="43.01014" lon="0.32478">
        <ele>792.4</ele>
        <time>2026-07-08T10:17:35Z</time>
      </trkpt>
      <trkpt lat="43.01014" lon="0.32476">
        <ele>791.4</ele>
        <time>2026-07-08T10:17:36Z</time>
      </trkpt>
      <trkpt lat="43.01015" lon="0.32475">
        <ele>791.4</ele>
        <time>2026-07-08T10:17:37Z</time>
      </trkpt>
      <trkpt lat="43.01015" lon="0.32474">
        <ele>791.4</ele>
        <time>2026-07-08T10:17:37Z</time>
      </trkpt>
      <trkpt lat="43.01015" lon="0.32473">
        <ele>791.4</ele>
        <time>2026-07-08T10:17:38Z</time>
      </trkpt>
      <trkpt lat="43.01016" lon="0.32472">
        <ele>791.4</ele>
        <time>2026-07-08T10:17:38Z</time>
      </trkpt>
      <trkpt lat="43.01016" lon="0.32471">
        <ele>791.4</ele>
        <time>2026-07-08T10:17:39Z</time>
      </trkpt>
      <trkpt lat="43.01016" lon="0.32469">
        <ele>790.4</ele>
        <time>2026-07-08T10:17:40Z</time>
      </trkpt>
      <trkpt lat="43.01017" lon="0.32468">
        <ele>790.4</ele>
        <time>2026-07-08T10:17:41Z</time>
      </trkpt>
      <trkpt lat="43.01018" lon="0.32466">
        <ele>791.4</ele>
        <time>2026-07-08T10:17:42Z</time>
      </trkpt>
      <trkpt lat="43.01018" lon="0.32465">
        <ele>790.4</ele>
        <time>2026-07-08T10:17:43Z</time>
      </trkpt>
      <trkpt lat="43.01019" lon="0.32464">
        <ele>790.4</ele>
        <time>2026-07-08T10:17:43Z</time>
      </trkpt>
      <trkpt lat="43.01019" lon="0.32463">
        <ele>790.4</ele>
        <time>2026-07-08T10:17:44Z</time>
      </trkpt>
      <trkpt lat="43.0102" lon="0.32462">
        <ele>790.4</ele>
        <time>2026-07-08T10:17:44Z</time>
      </trkpt>
      <trkpt lat="43.0102" lon="0.32461">
        <ele>790.4</ele>
        <time>2026-07-08T10:17:45Z</time>
      </trkpt>
      <trkpt lat="43.01021" lon="0.3246">
        <ele>790.4</ele>
        <time>2026-07-08T10:17:46Z</time>
      </trkpt>
      <trkpt lat="43.01022" lon="0.3246">
        <ele>791.4</ele>
        <time>2026-07-08T10:17:46Z</time>
      </trkpt>
      <trkpt lat="43.01022" lon="0.32459">
        <ele>791.4</ele>
        <time>2026-07-08T10:17:46Z</time>
      </trkpt>
      <trkpt lat="43.01023" lon="0.32458">
        <ele>791.4</ele>
        <time>2026-07-08T10:17:47Z</time>
      </trkpt>
      <trkpt lat="43.01024" lon="0.32457">
        <ele>791.4</ele>
        <time>2026-07-08T10:17:48Z</time>
      </trkpt>
      <trkpt lat="43.01024" lon="0.32456">
        <ele>791.4</ele>
        <time>2026-07-08T10:17:48Z</time>
      </trkpt>
      <trkpt lat="43.01025" lon="0.32455">
        <ele>791.4</ele>
        <time>2026-07-08T10:17:49Z</time>
      </trkpt>
      <trkpt lat="43.01026" lon="0.32454">
        <ele>791.4</ele>
        <time>2026-07-08T10:17:50Z</time>
      </trkpt>
      <trkpt lat="43.01027" lon="0.32453">
        <ele>791.4</ele>
        <time>2026-07-08T10:17:50Z</time>
      </trkpt>
      <trkpt lat="43.01028" lon="0.32452">
        <ele>791.4</ele>
        <time>2026-07-08T10:17:51Z</time>
      </trkpt>
      <trkpt lat="43.01029" lon="0.32451">
        <ele>791.4</ele>
        <time>2026-07-08T10:17:52Z</time>
      </trkpt>
      <trkpt lat="43.0103" lon="0.3245">
        <ele>791.4</ele>
        <time>2026-07-08T10:17:53Z</time>
      </trkpt>
      <trkpt lat="43.01031" lon="0.32448">
        <ele>790.4</ele>
        <time>2026-07-08T10:17:54Z</time>
      </trkpt>
      <trkpt lat="43.01032" lon="0.32447">
        <ele>790.4</ele>
        <time>2026-07-08T10:17:55Z</time>
      </trkpt>
      <trkpt lat="43.01033" lon="0.32446">
        <ele>790.4</ele>
        <time>2026-07-08T10:17:56Z</time>
      </trkpt>
      <trkpt lat="43.01035" lon="0.32445">
        <ele>790.4</ele>
        <time>2026-07-08T10:17:57Z</time>
      </trkpt>
      <trkpt lat="43.01035" lon="0.32444">
        <ele>790.4</ele>
        <time>2026-07-08T10:17:57Z</time>
      </trkpt>
      <trkpt lat="43.01036" lon="0.32444">
        <ele>790.4</ele>
        <time>2026-07-08T10:17:57Z</time>
      </trkpt>
      <trkpt lat="43.01036" lon="0.32443">
        <ele>790.4</ele>
        <time>2026-07-08T10:17:58Z</time>
      </trkpt>
      <trkpt lat="43.01037" lon="0.32442">
        <ele>790.4</ele>
        <time>2026-07-08T10:17:59Z</time>
      </trkpt>
      <trkpt lat="43.01038" lon="0.32441">
        <ele>790.4</ele>
        <time>2026-07-08T10:17:59Z</time>
      </trkpt>
      <trkpt lat="43.01039" lon="0.3244">
        <ele>791.4</ele>
        <time>2026-07-08T10:18:00Z</time>
      </trkpt>
      <trkpt lat="43.01039" lon="0.3244">
        <ele>791.4</ele>
        <time>2026-07-08T10:18:01Z</time>
      </trkpt>
      <trkpt lat="43.0104" lon="0.32439">
        <ele>790.4</ele>
        <time>2026-07-08T10:18:01Z</time>
      </trkpt>
      <trkpt lat="43.01041" lon="0.32438">
        <ele>790.4</ele>
        <time>2026-07-08T10:18:02Z</time>
      </trkpt>
      <trkpt lat="43.01042" lon="0.32437">
        <ele>790.4</ele>
        <time>2026-07-08T10:18:02Z</time>
      </trkpt>
      <trkpt lat="43.01043" lon="0.32437">
        <ele>790.4</ele>
        <time>2026-07-08T10:18:03Z</time>
      </trkpt>
      <trkpt lat="43.01044" lon="0.32435">
        <ele>790.4</ele>
        <time>2026-07-08T10:18:04Z</time>
      </trkpt>
      <trkpt lat="43.01044" lon="0.32434">
        <ele>790.4</ele>
        <time>2026-07-08T10:18:05Z</time>
      </trkpt>
      <trkpt lat="43.01045" lon="0.32433">
        <ele>790.4</ele>
        <time>2026-07-08T10:18:06Z</time>
      </trkpt>
      <trkpt lat="43.01046" lon="0.32432">
        <ele>790.4</ele>
        <time>2026-07-08T10:18:06Z</time>
      </trkpt>
      <trkpt lat="43.01046" lon="0.32432">
        <ele>790.4</ele>
        <time>2026-07-08T10:18:07Z</time>
      </trkpt>
      <trkpt lat="43.01047" lon="0.32431">
        <ele>789.4</ele>
        <time>2026-07-08T10:18:07Z</time>
      </trkpt>
      <trkpt lat="43.01048" lon="0.3243">
        <ele>789.4</ele>
        <time>2026-07-08T10:18:08Z</time>
      </trkpt>
      <trkpt lat="43.01048" lon="0.32429">
        <ele>789.4</ele>
        <time>2026-07-08T10:18:08Z</time>
      </trkpt>
      <trkpt lat="43.01049" lon="0.32429">
        <ele>789.4</ele>
        <time>2026-07-08T10:18:09Z</time>
      </trkpt>
      <trkpt lat="43.0105" lon="0.32429">
        <ele>789.4</ele>
        <time>2026-07-08T10:18:10Z</time>
      </trkpt>
      <trkpt lat="43.01051" lon="0.32428">
        <ele>789.4</ele>
        <time>2026-07-08T10:18:10Z</time>
      </trkpt>
      <trkpt lat="43.01051" lon="0.32428">
        <ele>789.4</ele>
        <time>2026-07-08T10:18:11Z</time>
      </trkpt>
      <trkpt lat="43.01052" lon="0.32427">
        <ele>790.4</ele>
        <time>2026-07-08T10:18:11Z</time>
      </trkpt>
      <trkpt lat="43.01053" lon="0.32427">
        <ele>790.4</ele>
        <time>2026-07-08T10:18:12Z</time>
      </trkpt>
      <trkpt lat="43.01054" lon="0.32427">
        <ele>789.4</ele>
        <time>2026-07-08T10:18:12Z</time>
      </trkpt>
      <trkpt lat="43.01054" lon="0.32426">
        <ele>789.4</ele>
        <time>2026-07-08T10:18:13Z</time>
      </trkpt>
      <trkpt lat="43.01055" lon="0.32426">
        <ele>790.4</ele>
        <time>2026-07-08T10:18:13Z</time>
      </trkpt>
      <trkpt lat="43.01056" lon="0.32426">
        <ele>790.4</ele>
        <time>2026-07-08T10:18:14Z</time>
      </trkpt>
      <trkpt lat="43.01056" lon="0.32426">
        <ele>790.4</ele>
        <time>2026-07-08T10:18:14Z</time>
      </trkpt>
      <trkpt lat="43.01057" lon="0.32425">
        <ele>790.4</ele>
        <time>2026-07-08T10:18:15Z</time>
      </trkpt>
      <trkpt lat="43.01057" lon="0.32425">
        <ele>790.4</ele>
        <time>2026-07-08T10:18:15Z</time>
      </trkpt>
      <trkpt lat="43.01058" lon="0.32425">
        <ele>790.4</ele>
        <time>2026-07-08T10:18:16Z</time>
      </trkpt>
      <trkpt lat="43.01059" lon="0.32424">
        <ele>790.4</ele>
        <time>2026-07-08T10:18:16Z</time>
      </trkpt>
      <trkpt lat="43.0106" lon="0.32424">
        <ele>790.4</ele>
        <time>2026-07-08T10:18:17Z</time>
      </trkpt>
      <trkpt lat="43.01061" lon="0.32423">
        <ele>790.4</ele>
        <time>2026-07-08T10:18:18Z</time>
      </trkpt>
      <trkpt lat="43.01061" lon="0.32423">
        <ele>790.4</ele>
        <time>2026-07-08T10:18:18Z</time>
      </trkpt>
      <trkpt lat="43.01062" lon="0.32423">
        <ele>790.4</ele>
        <time>2026-07-08T10:18:19Z</time>
      </trkpt>
      <trkpt lat="43.01063" lon="0.32422">
        <ele>790.4</ele>
        <time>2026-07-08T10:18:20Z</time>
      </trkpt>
      <trkpt lat="43.01064" lon="0.32422">
        <ele>789.4</ele>
        <time>2026-07-08T10:18:20Z</time>
      </trkpt>
      <trkpt lat="43.01064" lon="0.32422">
        <ele>789.4</ele>
        <time>2026-07-08T10:18:21Z</time>
      </trkpt>
      <trkpt lat="43.01065" lon="0.32421">
        <ele>789.4</ele>
        <time>2026-07-08T10:18:21Z</time>
      </trkpt>
      <trkpt lat="43.01066" lon="0.32421">
        <ele>789.4</ele>
        <time>2026-07-08T10:18:22Z</time>
      </trkpt>
      <trkpt lat="43.01067" lon="0.3242">
        <ele>789.4</ele>
        <time>2026-07-08T10:18:22Z</time>
      </trkpt>
      <trkpt lat="43.01068" lon="0.3242">
        <ele>789.4</ele>
        <time>2026-07-08T10:18:23Z</time>
      </trkpt>
      <trkpt lat="43.01068" lon="0.32419">
        <ele>789.4</ele>
        <time>2026-07-08T10:18:23Z</time>
      </trkpt>
      <trkpt lat="43.01069" lon="0.32419">
        <ele>789.4</ele>
        <time>2026-07-08T10:18:24Z</time>
      </trkpt>
      <trkpt lat="43.01069" lon="0.32418">
        <ele>788.4</ele>
        <time>2026-07-08T10:18:24Z</time>
      </trkpt>
      <trkpt lat="43.0107" lon="0.32418">
        <ele>788.4</ele>
        <time>2026-07-08T10:18:25Z</time>
      </trkpt>
      <trkpt lat="43.01071" lon="0.32417">
        <ele>788.4</ele>
        <time>2026-07-08T10:18:25Z</time>
      </trkpt>
      <trkpt lat="43.01071" lon="0.32416">
        <ele>788.4</ele>
        <time>2026-07-08T10:18:26Z</time>
      </trkpt>
      <trkpt lat="43.01072" lon="0.32415">
        <ele>788.4</ele>
        <time>2026-07-08T10:18:27Z</time>
      </trkpt>
      <trkpt lat="43.01073" lon="0.32414">
        <ele>788.4</ele>
        <time>2026-07-08T10:18:27Z</time>
      </trkpt>
      <trkpt lat="43.01073" lon="0.32413">
        <ele>788.4</ele>
        <time>2026-07-08T10:18:28Z</time>
      </trkpt>
      <trkpt lat="43.01074" lon="0.32413">
        <ele>788.4</ele>
        <time>2026-07-08T10:18:28Z</time>
      </trkpt>
      <trkpt lat="43.01075" lon="0.32412">
        <ele>788.4</ele>
        <time>2026-07-08T10:18:29Z</time>
      </trkpt>
      <trkpt lat="43.01075" lon="0.32411">
        <ele>788.4</ele>
        <time>2026-07-08T10:18:30Z</time>
      </trkpt>
      <trkpt lat="43.01076" lon="0.3241">
        <ele>788.4</ele>
        <time>2026-07-08T10:18:30Z</time>
      </trkpt>
      <trkpt lat="43.01077" lon="0.3241">
        <ele>787.4</ele>
        <time>2026-07-08T10:18:30Z</time>
      </trkpt>
      <trkpt lat="43.01077" lon="0.32409">
        <ele>787.4</ele>
        <time>2026-07-08T10:18:31Z</time>
      </trkpt>
      <trkpt lat="43.01078" lon="0.32409">
        <ele>787.4</ele>
        <time>2026-07-08T10:18:31Z</time>
      </trkpt>
      <trkpt lat="43.01078" lon="0.32408">
        <ele>787.4</ele>
        <time>2026-07-08T10:18:32Z</time>
      </trkpt>
      <trkpt lat="43.01079" lon="0.32408">
        <ele>787.4</ele>
        <time>2026-07-08T10:18:32Z</time>
      </trkpt>
      <trkpt lat="43.01079" lon="0.32407">
        <ele>787.4</ele>
        <time>2026-07-08T10:18:33Z</time>
      </trkpt>
      <trkpt lat="43.0108" lon="0.32406">
        <ele>787.4</ele>
        <time>2026-07-08T10:18:33Z</time>
      </trkpt>
      <trkpt lat="43.0108" lon="0.32406">
        <ele>787.4</ele>
        <time>2026-07-08T10:18:34Z</time>
      </trkpt>
      <trkpt lat="43.01081" lon="0.32405">
        <ele>787.4</ele>
        <time>2026-07-08T10:18:34Z</time>
      </trkpt>
      <trkpt lat="43.01081" lon="0.32404">
        <ele>787.4</ele>
        <time>2026-07-08T10:18:35Z</time>
      </trkpt>
      <trkpt lat="43.01082" lon="0.32403">
        <ele>787.4</ele>
        <time>2026-07-08T10:18:36Z</time>
      </trkpt>
      <trkpt lat="43.01083" lon="0.32402">
        <ele>787.4</ele>
        <time>2026-07-08T10:18:37Z</time>
      </trkpt>
      <trkpt lat="43.01084" lon="0.324">
        <ele>786.4</ele>
        <time>2026-07-08T10:18:38Z</time>
      </trkpt>
      <trkpt lat="43.01084" lon="0.324">
        <ele>785.4</ele>
        <time>2026-07-08T10:18:38Z</time>
      </trkpt>
      <trkpt lat="43.01085" lon="0.32399">
        <ele>785.4</ele>
        <time>2026-07-08T10:18:39Z</time>
      </trkpt>
      <trkpt lat="43.01085" lon="0.32398">
        <ele>785.4</ele>
        <time>2026-07-08T10:18:39Z</time>
      </trkpt>
      <trkpt lat="43.01086" lon="0.32398">
        <ele>785.4</ele>
        <time>2026-07-08T10:18:39Z</time>
      </trkpt>
      <trkpt lat="43.01086" lon="0.32397">
        <ele>785.4</ele>
        <time>2026-07-08T10:18:40Z</time>
      </trkpt>
      <trkpt lat="43.01087" lon="0.32397">
        <ele>785.4</ele>
        <time>2026-07-08T10:18:40Z</time>
      </trkpt>
      <trkpt lat="43.01087" lon="0.32396">
        <ele>785.4</ele>
        <time>2026-07-08T10:18:41Z</time>
      </trkpt>
      <trkpt lat="43.01088" lon="0.32396">
        <ele>784.4</ele>
        <time>2026-07-08T10:18:41Z</time>
      </trkpt>
      <trkpt lat="43.01089" lon="0.32395">
        <ele>784.4</ele>
        <time>2026-07-08T10:18:42Z</time>
      </trkpt>
      <trkpt lat="43.0109" lon="0.32394">
        <ele>784.4</ele>
        <time>2026-07-08T10:18:43Z</time>
      </trkpt>
      <trkpt lat="43.0109" lon="0.32393">
        <ele>784.4</ele>
        <time>2026-07-08T10:18:43Z</time>
      </trkpt>
      <trkpt lat="43.01091" lon="0.32393">
        <ele>784.4</ele>
        <time>2026-07-08T10:18:44Z</time>
      </trkpt>
      <trkpt lat="43.01092" lon="0.32392">
        <ele>784.4</ele>
        <time>2026-07-08T10:18:44Z</time>
      </trkpt>
      <trkpt lat="43.01093" lon="0.32391">
        <ele>784.4</ele>
        <time>2026-07-08T10:18:45Z</time>
      </trkpt>
      <trkpt lat="43.01094" lon="0.3239">
        <ele>784.4</ele>
        <time>2026-07-08T10:18:46Z</time>
      </trkpt>
      <trkpt lat="43.01095" lon="0.32389">
        <ele>783.4</ele>
        <time>2026-07-08T10:18:46Z</time>
      </trkpt>
      <trkpt lat="43.01096" lon="0.32388">
        <ele>783.4</ele>
        <time>2026-07-08T10:18:47Z</time>
      </trkpt>
      <trkpt lat="43.01097" lon="0.32387">
        <ele>783.4</ele>
        <time>2026-07-08T10:18:47Z</time>
      </trkpt>
      <trkpt lat="43.01097" lon="0.32387">
        <ele>783.4</ele>
        <time>2026-07-08T10:18:48Z</time>
      </trkpt>
      <trkpt lat="43.01098" lon="0.32386">
        <ele>783.4</ele>
        <time>2026-07-08T10:18:48Z</time>
      </trkpt>
      <trkpt lat="43.01098" lon="0.32385">
        <ele>783.4</ele>
        <time>2026-07-08T10:18:49Z</time>
      </trkpt>
      <trkpt lat="43.01099" lon="0.32385">
        <ele>784.4</ele>
        <time>2026-07-08T10:18:49Z</time>
      </trkpt>
      <trkpt lat="43.011" lon="0.32384">
        <ele>783.4</ele>
        <time>2026-07-08T10:18:50Z</time>
      </trkpt>
      <trkpt lat="43.01101" lon="0.32382">
        <ele>783.4</ele>
        <time>2026-07-08T10:18:51Z</time>
      </trkpt>
      <trkpt lat="43.01102" lon="0.32381">
        <ele>784.4</ele>
        <time>2026-07-08T10:18:52Z</time>
      </trkpt>
      <trkpt lat="43.01103" lon="0.3238">
        <ele>784.4</ele>
        <time>2026-07-08T10:18:53Z</time>
      </trkpt>
      <trkpt lat="43.01103" lon="0.32379">
        <ele>784.4</ele>
        <time>2026-07-08T10:18:53Z</time>
      </trkpt>
      <trkpt lat="43.01104" lon="0.32378">
        <ele>784.4</ele>
        <time>2026-07-08T10:18:54Z</time>
      </trkpt>
      <trkpt lat="43.01104" lon="0.32376">
        <ele>783.4</ele>
        <time>2026-07-08T10:18:55Z</time>
      </trkpt>
      <trkpt lat="43.01105" lon="0.32375">
        <ele>783.4</ele>
        <time>2026-07-08T10:18:55Z</time>
      </trkpt>
      <trkpt lat="43.01105" lon="0.32374">
        <ele>783.4</ele>
        <time>2026-07-08T10:18:56Z</time>
      </trkpt>
      <trkpt lat="43.01106" lon="0.32373">
        <ele>783.4</ele>
        <time>2026-07-08T10:18:57Z</time>
      </trkpt>
      <trkpt lat="43.01106" lon="0.32372">
        <ele>782.4</ele>
        <time>2026-07-08T10:18:57Z</time>
      </trkpt>
      <trkpt lat="43.01106" lon="0.32371">
        <ele>782.4</ele>
        <time>2026-07-08T10:18:58Z</time>
      </trkpt>
      <trkpt lat="43.01107" lon="0.32369">
        <ele>782.4</ele>
        <time>2026-07-08T10:18:59Z</time>
      </trkpt>
      <trkpt lat="43.01108" lon="0.32368">
        <ele>782.4</ele>
        <time>2026-07-08T10:18:59Z</time>
      </trkpt>
      <trkpt lat="43.01108" lon="0.32367">
        <ele>782.4</ele>
        <time>2026-07-08T10:19:00Z</time>
      </trkpt>
      <trkpt lat="43.01109" lon="0.32366">
        <ele>782.4</ele>
        <time>2026-07-08T10:19:00Z</time>
      </trkpt>
      <trkpt lat="43.01109" lon="0.32365">
        <ele>782.4</ele>
        <time>2026-07-08T10:19:01Z</time>
      </trkpt>
      <trkpt lat="43.01109" lon="0.32364">
        <ele>782.4</ele>
        <time>2026-07-08T10:19:01Z</time>
      </trkpt>
      <trkpt lat="43.0111" lon="0.32364">
        <ele>782.4</ele>
        <time>2026-07-08T10:19:02Z</time>
      </trkpt>
      <trkpt lat="43.0111" lon="0.32362">
        <ele>782.4</ele>
        <time>2026-07-08T10:19:03Z</time>
      </trkpt>
      <trkpt lat="43.01111" lon="0.32361">
        <ele>781.4</ele>
        <time>2026-07-08T10:19:03Z</time>
      </trkpt>
      <trkpt lat="43.01111" lon="0.3236">
        <ele>781.4</ele>
        <time>2026-07-08T10:19:04Z</time>
      </trkpt>
      <trkpt lat="43.01111" lon="0.32359">
        <ele>781.4</ele>
        <time>2026-07-08T10:19:04Z</time>
      </trkpt>
      <trkpt lat="43.01112" lon="0.32359">
        <ele>781.4</ele>
        <time>2026-07-08T10:19:05Z</time>
      </trkpt>
      <trkpt lat="43.01112" lon="0.32358">
        <ele>781.4</ele>
        <time>2026-07-08T10:19:05Z</time>
      </trkpt>
      <trkpt lat="43.01113" lon="0.32357">
        <ele>781.4</ele>
        <time>2026-07-08T10:19:06Z</time>
      </trkpt>
      <trkpt lat="43.01113" lon="0.32356">
        <ele>781.4</ele>
        <time>2026-07-08T10:19:06Z</time>
      </trkpt>
      <trkpt lat="43.01114" lon="0.32355">
        <ele>781.4</ele>
        <time>2026-07-08T10:19:07Z</time>
      </trkpt>
      <trkpt lat="43.01114" lon="0.32355">
        <ele>781.4</ele>
        <time>2026-07-08T10:19:07Z</time>
      </trkpt>
      <trkpt lat="43.01114" lon="0.32354">
        <ele>781.4</ele>
        <time>2026-07-08T10:19:08Z</time>
      </trkpt>
      <trkpt lat="43.01115" lon="0.32353">
        <ele>781.4</ele>
        <time>2026-07-08T10:19:08Z</time>
      </trkpt>
      <trkpt lat="43.01115" lon="0.32352">
        <ele>781.4</ele>
        <time>2026-07-08T10:19:09Z</time>
      </trkpt>
      <trkpt lat="43.01116" lon="0.32352">
        <ele>782.4</ele>
        <time>2026-07-08T10:19:09Z</time>
      </trkpt>
      <trkpt lat="43.01117" lon="0.32351">
        <ele>782.4</ele>
        <time>2026-07-08T10:19:10Z</time>
      </trkpt>
      <trkpt lat="43.01117" lon="0.3235">
        <ele>782.4</ele>
        <time>2026-07-08T10:19:10Z</time>
      </trkpt>
      <trkpt lat="43.01118" lon="0.3235">
        <ele>782.4</ele>
        <time>2026-07-08T10:19:11Z</time>
      </trkpt>
      <trkpt lat="43.01118" lon="0.32349">
        <ele>781.4</ele>
        <time>2026-07-08T10:19:11Z</time>
      </trkpt>
      <trkpt lat="43.01119" lon="0.32348">
        <ele>781.4</ele>
        <time>2026-07-08T10:19:12Z</time>
      </trkpt>
      <trkpt lat="43.0112" lon="0.32348">
        <ele>781.4</ele>
        <time>2026-07-08T10:19:12Z</time>
      </trkpt>
      <trkpt lat="43.0112" lon="0.32347">
        <ele>781.4</ele>
        <time>2026-07-08T10:19:13Z</time>
      </trkpt>
      <trkpt lat="43.01121" lon="0.32346">
        <ele>781.4</ele>
        <time>2026-07-08T10:19:13Z</time>
      </trkpt>
      <trkpt lat="43.01122" lon="0.32346">
        <ele>781.4</ele>
        <time>2026-07-08T10:19:14Z</time>
      </trkpt>
      <trkpt lat="43.01123" lon="0.32345">
        <ele>782.4</ele>
        <time>2026-07-08T10:19:14Z</time>
      </trkpt>
      <trkpt lat="43.01123" lon="0.32344">
        <ele>781.4</ele>
        <time>2026-07-08T10:19:15Z</time>
      </trkpt>
      <trkpt lat="43.01124" lon="0.32343">
        <ele>781.4</ele>
        <time>2026-07-08T10:19:16Z</time>
      </trkpt>
      <trkpt lat="43.01125" lon="0.32342">
        <ele>781.4</ele>
        <time>2026-07-08T10:19:16Z</time>
      </trkpt>
      <trkpt lat="43.01126" lon="0.3234">
        <ele>781.4</ele>
        <time>2026-07-08T10:19:17Z</time>
      </trkpt>
      <trkpt lat="43.01127" lon="0.32339">
        <ele>781.4</ele>
        <time>2026-07-08T10:19:18Z</time>
      </trkpt>
      <trkpt lat="43.01127" lon="0.32337">
        <ele>781.4</ele>
        <time>2026-07-08T10:19:19Z</time>
      </trkpt>
      <trkpt lat="43.01128" lon="0.32336">
        <ele>781.4</ele>
        <time>2026-07-08T10:19:20Z</time>
      </trkpt>
      <trkpt lat="43.01129" lon="0.32334">
        <ele>781.4</ele>
        <time>2026-07-08T10:19:21Z</time>
      </trkpt>
      <trkpt lat="43.0113" lon="0.32332">
        <ele>781.4</ele>
        <time>2026-07-08T10:19:21Z</time>
      </trkpt>
      <trkpt lat="43.0113" lon="0.32331">
        <ele>780.4</ele>
        <time>2026-07-08T10:19:22Z</time>
      </trkpt>
      <trkpt lat="43.01131" lon="0.3233">
        <ele>780.4</ele>
        <time>2026-07-08T10:19:23Z</time>
      </trkpt>
      <trkpt lat="43.01131" lon="0.32329">
        <ele>780.4</ele>
        <time>2026-07-08T10:19:23Z</time>
      </trkpt>
      <trkpt lat="43.01131" lon="0.32327">
        <ele>779.4</ele>
        <time>2026-07-08T10:19:24Z</time>
      </trkpt>
      <trkpt lat="43.01132" lon="0.32326">
        <ele>779.4</ele>
        <time>2026-07-08T10:19:25Z</time>
      </trkpt>
      <trkpt lat="43.01132" lon="0.32325">
        <ele>780.4</ele>
        <time>2026-07-08T10:19:25Z</time>
      </trkpt>
      <trkpt lat="43.01133" lon="0.32324">
        <ele>780.4</ele>
        <time>2026-07-08T10:19:26Z</time>
      </trkpt>
      <trkpt lat="43.01133" lon="0.32322">
        <ele>780.4</ele>
        <time>2026-07-08T10:19:27Z</time>
      </trkpt>
      <trkpt lat="43.01133" lon="0.3232">
        <ele>779.4</ele>
        <time>2026-07-08T10:19:28Z</time>
      </trkpt>
      <trkpt lat="43.01134" lon="0.32318">
        <ele>779.4</ele>
        <time>2026-07-08T10:19:29Z</time>
      </trkpt>
      <trkpt lat="43.01134" lon="0.32317">
        <ele>778.4</ele>
        <time>2026-07-08T10:19:29Z</time>
      </trkpt>
      <trkpt lat="43.01134" lon="0.32316">
        <ele>778.4</ele>
        <time>2026-07-08T10:19:30Z</time>
      </trkpt>
      <trkpt lat="43.01134" lon="0.32314">
        <ele>778.4</ele>
        <time>2026-07-08T10:19:31Z</time>
      </trkpt>
      <trkpt lat="43.01135" lon="0.32313">
        <ele>778.4</ele>
        <time>2026-07-08T10:19:31Z</time>
      </trkpt>
      <trkpt lat="43.01135" lon="0.32312">
        <ele>778.4</ele>
        <time>2026-07-08T10:19:32Z</time>
      </trkpt>
      <trkpt lat="43.01135" lon="0.3231">
        <ele>778.4</ele>
        <time>2026-07-08T10:19:33Z</time>
      </trkpt>
      <trkpt lat="43.01136" lon="0.32309">
        <ele>779.4</ele>
        <time>2026-07-08T10:19:33Z</time>
      </trkpt>
      <trkpt lat="43.01136" lon="0.32308">
        <ele>779.4</ele>
        <time>2026-07-08T10:19:34Z</time>
      </trkpt>
      <trkpt lat="43.01137" lon="0.32307">
        <ele>779.4</ele>
        <time>2026-07-08T10:19:35Z</time>
      </trkpt>
      <trkpt lat="43.01137" lon="0.32306">
        <ele>778.4</ele>
        <time>2026-07-08T10:19:35Z</time>
      </trkpt>
      <trkpt lat="43.01137" lon="0.32305">
        <ele>778.4</ele>
        <time>2026-07-08T10:19:35Z</time>
      </trkpt>
      <trkpt lat="43.01137" lon="0.32304">
        <ele>778.4</ele>
        <time>2026-07-08T10:19:36Z</time>
      </trkpt>
      <trkpt lat="43.01138" lon="0.32302">
        <ele>778.4</ele>
        <time>2026-07-08T10:19:37Z</time>
      </trkpt>
      <trkpt lat="43.01138" lon="0.32302">
        <ele>779.4</ele>
        <time>2026-07-08T10:19:37Z</time>
      </trkpt>
      <trkpt lat="43.01138" lon="0.323">
        <ele>779.4</ele>
        <time>2026-07-08T10:19:38Z</time>
      </trkpt>
      <trkpt lat="43.01139" lon="0.32299">
        <ele>778.4</ele>
        <time>2026-07-08T10:19:39Z</time>
      </trkpt>
      <trkpt lat="43.01139" lon="0.32297">
        <ele>779.4</ele>
        <time>2026-07-08T10:19:40Z</time>
      </trkpt>
      <trkpt lat="43.0114" lon="0.32295">
        <ele>778.4</ele>
        <time>2026-07-08T10:19:41Z</time>
      </trkpt>
      <trkpt lat="43.01141" lon="0.32294">
        <ele>778.4</ele>
        <time>2026-07-08T10:19:42Z</time>
      </trkpt>
      <trkpt lat="43.01141" lon="0.32292">
        <ele>778.4</ele>
        <time>2026-07-08T10:19:43Z</time>
      </trkpt>
      <trkpt lat="43.01142" lon="0.32291">
        <ele>778.4</ele>
        <time>2026-07-08T10:19:43Z</time>
      </trkpt>
      <trkpt lat="43.01143" lon="0.3229">
        <ele>778.4</ele>
        <time>2026-07-08T10:19:44Z</time>
      </trkpt>
      <trkpt lat="43.01143" lon="0.32289">
        <ele>777.4</ele>
        <time>2026-07-08T10:19:44Z</time>
      </trkpt>
      <trkpt lat="43.01144" lon="0.32288">
        <ele>777.4</ele>
        <time>2026-07-08T10:19:45Z</time>
      </trkpt>
      <trkpt lat="43.01144" lon="0.32287">
        <ele>777.4</ele>
        <time>2026-07-08T10:19:46Z</time>
      </trkpt>
      <trkpt lat="43.01145" lon="0.32286">
        <ele>777.4</ele>
        <time>2026-07-08T10:19:46Z</time>
      </trkpt>
      <trkpt lat="43.01145" lon="0.32284">
        <ele>776.4</ele>
        <time>2026-07-08T10:19:47Z</time>
      </trkpt>
      <trkpt lat="43.01146" lon="0.32283">
        <ele>776.4</ele>
        <time>2026-07-08T10:19:48Z</time>
      </trkpt>
      <trkpt lat="43.01146" lon="0.32281">
        <ele>776.4</ele>
        <time>2026-07-08T10:19:49Z</time>
      </trkpt>
      <trkpt lat="43.01147" lon="0.3228">
        <ele>775.4</ele>
        <time>2026-07-08T10:19:49Z</time>
      </trkpt>
      <trkpt lat="43.01147" lon="0.32279">
        <ele>775.4</ele>
        <time>2026-07-08T10:19:50Z</time>
      </trkpt>
      <trkpt lat="43.01148" lon="0.32277">
        <ele>775.4</ele>
        <time>2026-07-08T10:19:51Z</time>
      </trkpt>
      <trkpt lat="43.01148" lon="0.32276">
        <ele>775.4</ele>
        <time>2026-07-08T10:19:52Z</time>
      </trkpt>
      <trkpt lat="43.01149" lon="0.32274">
        <ele>775.4</ele>
        <time>2026-07-08T10:19:53Z</time>
      </trkpt>
      <trkpt lat="43.01149" lon="0.32273">
        <ele>775.4</ele>
        <time>2026-07-08T10:19:54Z</time>
      </trkpt>
      <trkpt lat="43.01149" lon="0.32271">
        <ele>775.4</ele>
        <time>2026-07-08T10:19:55Z</time>
      </trkpt>
      <trkpt lat="43.0115" lon="0.3227">
        <ele>774.4</ele>
        <time>2026-07-08T10:19:55Z</time>
      </trkpt>
      <trkpt lat="43.0115" lon="0.32269">
        <ele>774.4</ele>
        <time>2026-07-08T10:19:56Z</time>
      </trkpt>
      <trkpt lat="43.0115" lon="0.32267">
        <ele>774.4</ele>
        <time>2026-07-08T10:19:57Z</time>
      </trkpt>
      <trkpt lat="43.01151" lon="0.32266">
        <ele>774.4</ele>
        <time>2026-07-08T10:19:57Z</time>
      </trkpt>
      <trkpt lat="43.01151" lon="0.32265">
        <ele>774.4</ele>
        <time>2026-07-08T10:19:58Z</time>
      </trkpt>
      <trkpt lat="43.01151" lon="0.32264">
        <ele>774.4</ele>
        <time>2026-07-08T10:19:59Z</time>
      </trkpt>
      <trkpt lat="43.01151" lon="0.32263">
        <ele>774.4</ele>
        <time>2026-07-08T10:19:59Z</time>
      </trkpt>
      <trkpt lat="43.01151" lon="0.32262">
        <ele>774.4</ele>
        <time>2026-07-08T10:20:00Z</time>
      </trkpt>
      <trkpt lat="43.01151" lon="0.32261">
        <ele>774.4</ele>
        <time>2026-07-08T10:20:00Z</time>
      </trkpt>
      <trkpt lat="43.01152" lon="0.32259">
        <ele>774.4</ele>
        <time>2026-07-08T10:20:01Z</time>
      </trkpt>
      <trkpt lat="43.01152" lon="0.32257">
        <ele>774.4</ele>
        <time>2026-07-08T10:20:02Z</time>
      </trkpt>
      <trkpt lat="43.01152" lon="0.32255">
        <ele>773.4</ele>
        <time>2026-07-08T10:20:03Z</time>
      </trkpt>
      <trkpt lat="43.01152" lon="0.32254">
        <ele>773.4</ele>
        <time>2026-07-08T10:20:04Z</time>
      </trkpt>
      <trkpt lat="43.01152" lon="0.32252">
        <ele>773.4</ele>
        <time>2026-07-08T10:20:05Z</time>
      </trkpt>
      <trkpt lat="43.01152" lon="0.3225">
        <ele>773.4</ele>
        <time>2026-07-08T10:20:06Z</time>
      </trkpt>
      <trkpt lat="43.01152" lon="0.32248">
        <ele>772.4</ele>
        <time>2026-07-08T10:20:07Z</time>
      </trkpt>
      <trkpt lat="43.01153" lon="0.32246">
        <ele>772.4</ele>
        <time>2026-07-08T10:20:08Z</time>
      </trkpt>
      <trkpt lat="43.01153" lon="0.32244">
        <ele>772.4</ele>
        <time>2026-07-08T10:20:09Z</time>
      </trkpt>
      <trkpt lat="43.01153" lon="0.32243">
        <ele>772.4</ele>
        <time>2026-07-08T10:20:10Z</time>
      </trkpt>
      <trkpt lat="43.01153" lon="0.32241">
        <ele>772.4</ele>
        <time>2026-07-08T10:20:10Z</time>
      </trkpt>
      <trkpt lat="43.01153" lon="0.3224">
        <ele>772.4</ele>
        <time>2026-07-08T10:20:11Z</time>
      </trkpt>
      <trkpt lat="43.01153" lon="0.32239">
        <ele>772.4</ele>
        <time>2026-07-08T10:20:12Z</time>
      </trkpt>
      <trkpt lat="43.01153" lon="0.32238">
        <ele>772.4</ele>
        <time>2026-07-08T10:20:12Z</time>
      </trkpt>
      <trkpt lat="43.01153" lon="0.32236">
        <ele>771.4</ele>
        <time>2026-07-08T10:20:13Z</time>
      </trkpt>
      <trkpt lat="43.01153" lon="0.32235">
        <ele>771.4</ele>
        <time>2026-07-08T10:20:14Z</time>
      </trkpt>
      <trkpt lat="43.01152" lon="0.32234">
        <ele>771.4</ele>
        <time>2026-07-08T10:20:14Z</time>
      </trkpt>
      <trkpt lat="43.01152" lon="0.32232">
        <ele>771.4</ele>
        <time>2026-07-08T10:20:15Z</time>
      </trkpt>
      <trkpt lat="43.01152" lon="0.32231">
        <ele>771.4</ele>
        <time>2026-07-08T10:20:16Z</time>
      </trkpt>
      <trkpt lat="43.01152" lon="0.32229">
        <ele>771.4</ele>
        <time>2026-07-08T10:20:17Z</time>
      </trkpt>
      <trkpt lat="43.01152" lon="0.32228">
        <ele>771.4</ele>
        <time>2026-07-08T10:20:18Z</time>
      </trkpt>
      <trkpt lat="43.01152" lon="0.32226">
        <ele>770.4</ele>
        <time>2026-07-08T10:20:19Z</time>
      </trkpt>
      <trkpt lat="43.01152" lon="0.32225">
        <ele>770.4</ele>
        <time>2026-07-08T10:20:20Z</time>
      </trkpt>
      <trkpt lat="43.01153" lon="0.32223">
        <ele>770.4</ele>
        <time>2026-07-08T10:20:21Z</time>
      </trkpt>
      <trkpt lat="43.01154" lon="0.32221">
        <ele>770.4</ele>
        <time>2026-07-08T10:20:21Z</time>
      </trkpt>
      <trkpt lat="43.01154" lon="0.3222">
        <ele>769.4</ele>
        <time>2026-07-08T10:20:22Z</time>
      </trkpt>
      <trkpt lat="43.01155" lon="0.32219">
        <ele>769.4</ele>
        <time>2026-07-08T10:20:23Z</time>
      </trkpt>
      <trkpt lat="43.01156" lon="0.32218">
        <ele>769.4</ele>
        <time>2026-07-08T10:20:23Z</time>
      </trkpt>
      <trkpt lat="43.01157" lon="0.32217">
        <ele>769.4</ele>
        <time>2026-07-08T10:20:24Z</time>
      </trkpt>
      <trkpt lat="43.01157" lon="0.32216">
        <ele>769.4</ele>
        <time>2026-07-08T10:20:25Z</time>
      </trkpt>
      <trkpt lat="43.01158" lon="0.32215">
        <ele>769.4</ele>
        <time>2026-07-08T10:20:25Z</time>
      </trkpt>
      <trkpt lat="43.01159" lon="0.32214">
        <ele>768.4</ele>
        <time>2026-07-08T10:20:26Z</time>
      </trkpt>
      <trkpt lat="43.0116" lon="0.32212">
        <ele>768.4</ele>
        <time>2026-07-08T10:20:27Z</time>
      </trkpt>
      <trkpt lat="43.01161" lon="0.32211">
        <ele>768.4</ele>
        <time>2026-07-08T10:20:28Z</time>
      </trkpt>
      <trkpt lat="43.01162" lon="0.3221">
        <ele>768.4</ele>
        <time>2026-07-08T10:20:29Z</time>
      </trkpt>
      <trkpt lat="43.01163" lon="0.32209">
        <ele>767.4</ele>
        <time>2026-07-08T10:20:30Z</time>
      </trkpt>
      <trkpt lat="43.01164" lon="0.32207">
        <ele>766.4</ele>
        <time>2026-07-08T10:20:31Z</time>
      </trkpt>
      <trkpt lat="43.01165" lon="0.32206">
        <ele>766.4</ele>
        <time>2026-07-08T10:20:31Z</time>
      </trkpt>
      <trkpt lat="43.01165" lon="0.32205">
        <ele>767.4</ele>
        <time>2026-07-08T10:20:32Z</time>
      </trkpt>
      <trkpt lat="43.01166" lon="0.32203">
        <ele>767.4</ele>
        <time>2026-07-08T10:20:33Z</time>
      </trkpt>
      <trkpt lat="43.01166" lon="0.32203">
        <ele>766.4</ele>
        <time>2026-07-08T10:20:33Z</time>
      </trkpt>
      <trkpt lat="43.01167" lon="0.32201">
        <ele>766.4</ele>
        <time>2026-07-08T10:20:34Z</time>
      </trkpt>
      <trkpt lat="43.01167" lon="0.322">
        <ele>766.4</ele>
        <time>2026-07-08T10:20:35Z</time>
      </trkpt>
      <trkpt lat="43.01168" lon="0.322">
        <ele>766.4</ele>
        <time>2026-07-08T10:20:35Z</time>
      </trkpt>
      <trkpt lat="43.01168" lon="0.32199">
        <ele>766.4</ele>
        <time>2026-07-08T10:20:36Z</time>
      </trkpt>
      <trkpt lat="43.01169" lon="0.32198">
        <ele>766.4</ele>
        <time>2026-07-08T10:20:36Z</time>
      </trkpt>
      <trkpt lat="43.01169" lon="0.32196">
        <ele>766.4</ele>
        <time>2026-07-08T10:20:37Z</time>
      </trkpt>
      <trkpt lat="43.01169" lon="0.32194">
        <ele>766.4</ele>
        <time>2026-07-08T10:20:38Z</time>
      </trkpt>
      <trkpt lat="43.0117" lon="0.32192">
        <ele>766.4</ele>
        <time>2026-07-08T10:20:39Z</time>
      </trkpt>
      <trkpt lat="43.0117" lon="0.3219">
        <ele>766.4</ele>
        <time>2026-07-08T10:20:40Z</time>
      </trkpt>
      <trkpt lat="43.0117" lon="0.32187">
        <ele>766.4</ele>
        <time>2026-07-08T10:20:41Z</time>
      </trkpt>
      <trkpt lat="43.0117" lon="0.32186">
        <ele>766.4</ele>
        <time>2026-07-08T10:20:42Z</time>
      </trkpt>
      <trkpt lat="43.0117" lon="0.32184">
        <ele>766.4</ele>
        <time>2026-07-08T10:20:42Z</time>
      </trkpt>
      <trkpt lat="43.0117" lon="0.32183">
        <ele>766.4</ele>
        <time>2026-07-08T10:20:43Z</time>
      </trkpt>
      <trkpt lat="43.0117" lon="0.32182">
        <ele>766.4</ele>
        <time>2026-07-08T10:20:43Z</time>
      </trkpt>
      <trkpt lat="43.0117" lon="0.32181">
        <ele>766.4</ele>
        <time>2026-07-08T10:20:44Z</time>
      </trkpt>
      <trkpt lat="43.0117" lon="0.32179">
        <ele>765.4</ele>
        <time>2026-07-08T10:20:44Z</time>
      </trkpt>
      <trkpt lat="43.0117" lon="0.32178">
        <ele>764.4</ele>
        <time>2026-07-08T10:20:45Z</time>
      </trkpt>
      <trkpt lat="43.0117" lon="0.32177">
        <ele>764.4</ele>
        <time>2026-07-08T10:20:46Z</time>
      </trkpt>
      <trkpt lat="43.0117" lon="0.32175">
        <ele>764.4</ele>
        <time>2026-07-08T10:20:46Z</time>
      </trkpt>
      <trkpt lat="43.0117" lon="0.32174">
        <ele>764.4</ele>
        <time>2026-07-08T10:20:47Z</time>
      </trkpt>
      <trkpt lat="43.0117" lon="0.32173">
        <ele>764.4</ele>
        <time>2026-07-08T10:20:47Z</time>
      </trkpt>
      <trkpt lat="43.0117" lon="0.32172">
        <ele>765.4</ele>
        <time>2026-07-08T10:20:48Z</time>
      </trkpt>
      <trkpt lat="43.0117" lon="0.32169">
        <ele>765.4</ele>
        <time>2026-07-08T10:20:49Z</time>
      </trkpt>
      <trkpt lat="43.0117" lon="0.32168">
        <ele>765.4</ele>
        <time>2026-07-08T10:20:50Z</time>
      </trkpt>
      <trkpt lat="43.0117" lon="0.32167">
        <ele>764.4</ele>
        <time>2026-07-08T10:20:50Z</time>
      </trkpt>
      <trkpt lat="43.0117" lon="0.32166">
        <ele>764.4</ele>
        <time>2026-07-08T10:20:51Z</time>
      </trkpt>
      <trkpt lat="43.0117" lon="0.32164">
        <ele>765.4</ele>
        <time>2026-07-08T10:20:52Z</time>
      </trkpt>
      <trkpt lat="43.0117" lon="0.32163">
        <ele>764.4</ele>
        <time>2026-07-08T10:20:52Z</time>
      </trkpt>
      <trkpt lat="43.0117" lon="0.32162">
        <ele>764.4</ele>
        <time>2026-07-08T10:20:53Z</time>
      </trkpt>
      <trkpt lat="43.0117" lon="0.3216">
        <ele>765.4</ele>
        <time>2026-07-08T10:20:54Z</time>
      </trkpt>
      <trkpt lat="43.01171" lon="0.32158">
        <ele>764.4</ele>
        <time>2026-07-08T10:20:55Z</time>
      </trkpt>
      <trkpt lat="43.01171" lon="0.32157">
        <ele>765.4</ele>
        <time>2026-07-08T10:20:55Z</time>
      </trkpt>
      <trkpt lat="43.01171" lon="0.32156">
        <ele>765.4</ele>
        <time>2026-07-08T10:20:56Z</time>
      </trkpt>
      <trkpt lat="43.01171" lon="0.32155">
        <ele>765.4</ele>
        <time>2026-07-08T10:20:56Z</time>
      </trkpt>
      <trkpt lat="43.0117" lon="0.32154">
        <ele>765.4</ele>
        <time>2026-07-08T10:20:57Z</time>
      </trkpt>
      <trkpt lat="43.0117" lon="0.32152">
        <ele>765.4</ele>
        <time>2026-07-08T10:20:58Z</time>
      </trkpt>
      <trkpt lat="43.0117" lon="0.32151">
        <ele>765.4</ele>
        <time>2026-07-08T10:20:58Z</time>
      </trkpt>
      <trkpt lat="43.0117" lon="0.3215">
        <ele>764.4</ele>
        <time>2026-07-08T10:20:59Z</time>
      </trkpt>
      <trkpt lat="43.0117" lon="0.32149">
        <ele>764.4</ele>
        <time>2026-07-08T10:21:00Z</time>
      </trkpt>
      <trkpt lat="43.0117" lon="0.32148">
        <ele>764.4</ele>
        <time>2026-07-08T10:21:00Z</time>
      </trkpt>
      <trkpt lat="43.0117" lon="0.32147">
        <ele>764.4</ele>
        <time>2026-07-08T10:21:01Z</time>
      </trkpt>
      <trkpt lat="43.01169" lon="0.32146">
        <ele>763.4</ele>
        <time>2026-07-08T10:21:01Z</time>
      </trkpt>
      <trkpt lat="43.01169" lon="0.32144">
        <ele>763.4</ele>
        <time>2026-07-08T10:21:02Z</time>
      </trkpt>
      <trkpt lat="43.01169" lon="0.32143">
        <ele>763.4</ele>
        <time>2026-07-08T10:21:03Z</time>
      </trkpt>
      <trkpt lat="43.01169" lon="0.32142">
        <ele>764.4</ele>
        <time>2026-07-08T10:21:03Z</time>
      </trkpt>
      <trkpt lat="43.01169" lon="0.32141">
        <ele>764.4</ele>
        <time>2026-07-08T10:21:04Z</time>
      </trkpt>
      <trkpt lat="43.01168" lon="0.32139">
        <ele>763.4</ele>
        <time>2026-07-08T10:21:05Z</time>
      </trkpt>
      <trkpt lat="43.01168" lon="0.32137">
        <ele>763.4</ele>
        <time>2026-07-08T10:21:06Z</time>
      </trkpt>
      <trkpt lat="43.01168" lon="0.32136">
        <ele>763.4</ele>
        <time>2026-07-08T10:21:06Z</time>
      </trkpt>
      <trkpt lat="43.01168" lon="0.32135">
        <ele>763.4</ele>
        <time>2026-07-08T10:21:06Z</time>
      </trkpt>
      <trkpt lat="43.01168" lon="0.32134">
        <ele>763.4</ele>
        <time>2026-07-08T10:21:07Z</time>
      </trkpt>
      <trkpt lat="43.01169" lon="0.32132">
        <ele>763.4</ele>
        <time>2026-07-08T10:21:08Z</time>
      </trkpt>
      <trkpt lat="43.0117" lon="0.3213">
        <ele>763.4</ele>
        <time>2026-07-08T10:21:09Z</time>
      </trkpt>
      <trkpt lat="43.0117" lon="0.32129">
        <ele>762.4</ele>
        <time>2026-07-08T10:21:09Z</time>
      </trkpt>
      <trkpt lat="43.0117" lon="0.32128">
        <ele>762.4</ele>
        <time>2026-07-08T10:21:10Z</time>
      </trkpt>
      <trkpt lat="43.01172" lon="0.32126">
        <ele>762.4</ele>
        <time>2026-07-08T10:21:11Z</time>
      </trkpt>
      <trkpt lat="43.01172" lon="0.32125">
        <ele>762.4</ele>
        <time>2026-07-08T10:21:12Z</time>
      </trkpt>
      <trkpt lat="43.01173" lon="0.32124">
        <ele>761.4</ele>
        <time>2026-07-08T10:21:13Z</time>
      </trkpt>
      <trkpt lat="43.01173" lon="0.32123">
        <ele>762.4</ele>
        <time>2026-07-08T10:21:13Z</time>
      </trkpt>
      <trkpt lat="43.01173" lon="0.32123">
        <ele>762.4</ele>
        <time>2026-07-08T10:21:14Z</time>
      </trkpt>
      <trkpt lat="43.01174" lon="0.32122">
        <ele>762.4</ele>
        <time>2026-07-08T10:21:14Z</time>
      </trkpt>
      <trkpt lat="43.01174" lon="0.32122">
        <ele>761.4</ele>
        <time>2026-07-08T10:21:15Z</time>
      </trkpt>
      <trkpt lat="43.01175" lon="0.32121">
        <ele>761.4</ele>
        <time>2026-07-08T10:21:16Z</time>
      </trkpt>
      <trkpt lat="43.01176" lon="0.3212">
        <ele>761.4</ele>
        <time>2026-07-08T10:21:17Z</time>
      </trkpt>
      <trkpt lat="43.01177" lon="0.32119">
        <ele>761.4</ele>
        <time>2026-07-08T10:21:17Z</time>
      </trkpt>
      <trkpt lat="43.01177" lon="0.32119">
        <ele>761.4</ele>
        <time>2026-07-08T10:21:18Z</time>
      </trkpt>
      <trkpt lat="43.01179" lon="0.32118">
        <ele>761.4</ele>
        <time>2026-07-08T10:21:19Z</time>
      </trkpt>
      <trkpt lat="43.01179" lon="0.32118">
        <ele>762.4</ele>
        <time>2026-07-08T10:21:19Z</time>
      </trkpt>
      <trkpt lat="43.0118" lon="0.32117">
        <ele>762.4</ele>
        <time>2026-07-08T10:21:20Z</time>
      </trkpt>
      <trkpt lat="43.0118" lon="0.32117">
        <ele>762.4</ele>
        <time>2026-07-08T10:21:20Z</time>
      </trkpt>
      <trkpt lat="43.01181" lon="0.32116">
        <ele>762.4</ele>
        <time>2026-07-08T10:21:21Z</time>
      </trkpt>
      <trkpt lat="43.01182" lon="0.32116">
        <ele>761.4</ele>
        <time>2026-07-08T10:21:21Z</time>
      </trkpt>
      <trkpt lat="43.01182" lon="0.32116">
        <ele>761.4</ele>
        <time>2026-07-08T10:21:22Z</time>
      </trkpt>
      <trkpt lat="43.01183" lon="0.32116">
        <ele>761.4</ele>
        <time>2026-07-08T10:21:22Z</time>
      </trkpt>
      <trkpt lat="43.01183" lon="0.32115">
        <ele>761.4</ele>
        <time>2026-07-08T10:21:23Z</time>
      </trkpt>
      <trkpt lat="43.01184" lon="0.32115">
        <ele>762.4</ele>
        <time>2026-07-08T10:21:23Z</time>
      </trkpt>
      <trkpt lat="43.01184" lon="0.32115">
        <ele>762.4</ele>
        <time>2026-07-08T10:21:24Z</time>
      </trkpt>
      <trkpt lat="43.01185" lon="0.32115">
        <ele>762.4</ele>
        <time>2026-07-08T10:21:24Z</time>
      </trkpt>
      <trkpt lat="43.01185" lon="0.32115">
        <ele>762.4</ele>
        <time>2026-07-08T10:21:25Z</time>
      </trkpt>
      <trkpt lat="43.01185" lon="0.32115">
        <ele>762.4</ele>
        <time>2026-07-08T10:21:25Z</time>
      </trkpt>
      <trkpt lat="43.01186" lon="0.32115">
        <ele>762.4</ele>
        <time>2026-07-08T10:21:26Z</time>
      </trkpt>
      <trkpt lat="43.01186" lon="0.32115">
        <ele>762.4</ele>
        <time>2026-07-08T10:21:26Z</time>
      </trkpt>
      <trkpt lat="43.01187" lon="0.32115">
        <ele>762.4</ele>
        <time>2026-07-08T10:21:27Z</time>
      </trkpt>
      <trkpt lat="43.01187" lon="0.32115">
        <ele>762.4</ele>
        <time>2026-07-08T10:21:27Z</time>
      </trkpt>
      <trkpt lat="43.01188" lon="0.32114">
        <ele>762.4</ele>
        <time>2026-07-08T10:21:28Z</time>
      </trkpt>
      <trkpt lat="43.01188" lon="0.32114">
        <ele>763.4</ele>
        <time>2026-07-08T10:21:28Z</time>
      </trkpt>
      <trkpt lat="43.01189" lon="0.32114">
        <ele>763.4</ele>
        <time>2026-07-08T10:21:29Z</time>
      </trkpt>
      <trkpt lat="43.01189" lon="0.32114">
        <ele>763.4</ele>
        <time>2026-07-08T10:21:29Z</time>
      </trkpt>
      <trkpt lat="43.01189" lon="0.32113">
        <ele>763.4</ele>
        <time>2026-07-08T10:21:30Z</time>
      </trkpt>
      <trkpt lat="43.0119" lon="0.32113">
        <ele>762.4</ele>
        <time>2026-07-08T10:21:30Z</time>
      </trkpt>
      <trkpt lat="43.0119" lon="0.32113">
        <ele>762.4</ele>
        <time>2026-07-08T10:21:31Z</time>
      </trkpt>
      <trkpt lat="43.01191" lon="0.32113">
        <ele>763.4</ele>
        <time>2026-07-08T10:21:31Z</time>
      </trkpt>
      <trkpt lat="43.01191" lon="0.32113">
        <ele>763.4</ele>
        <time>2026-07-08T10:21:32Z</time>
      </trkpt>
      <trkpt lat="43.01192" lon="0.32112">
        <ele>763.4</ele>
        <time>2026-07-08T10:21:32Z</time>
      </trkpt>
      <trkpt lat="43.01193" lon="0.32112">
        <ele>763.4</ele>
        <time>2026-07-08T10:21:33Z</time>
      </trkpt>
      <trkpt lat="43.01193" lon="0.32111">
        <ele>763.4</ele>
        <time>2026-07-08T10:21:34Z</time>
      </trkpt>
      <trkpt lat="43.01194" lon="0.32111">
        <ele>763.4</ele>
        <time>2026-07-08T10:21:34Z</time>
      </trkpt>
      <trkpt lat="43.01195" lon="0.3211">
        <ele>763.4</ele>
        <time>2026-07-08T10:21:35Z</time>
      </trkpt>
      <trkpt lat="43.01195" lon="0.32109">
        <ele>764.4</ele>
        <time>2026-07-08T10:21:35Z</time>
      </trkpt>
      <trkpt lat="43.01195" lon="0.32109">
        <ele>764.4</ele>
        <time>2026-07-08T10:21:36Z</time>
      </trkpt>
      <trkpt lat="43.01196" lon="0.32108">
        <ele>764.4</ele>
        <time>2026-07-08T10:21:36Z</time>
      </trkpt>
      <trkpt lat="43.01196" lon="0.32107">
        <ele>764.4</ele>
        <time>2026-07-08T10:21:37Z</time>
      </trkpt>
      <trkpt lat="43.01197" lon="0.32106">
        <ele>764.4</ele>
        <time>2026-07-08T10:21:38Z</time>
      </trkpt>
      <trkpt lat="43.01197" lon="0.32105">
        <ele>763.4</ele>
        <time>2026-07-08T10:21:38Z</time>
      </trkpt>
      <trkpt lat="43.01198" lon="0.32104">
        <ele>763.4</ele>
        <time>2026-07-08T10:21:39Z</time>
      </trkpt>
      <trkpt lat="43.01198" lon="0.32104">
        <ele>764.4</ele>
        <time>2026-07-08T10:21:39Z</time>
      </trkpt>
      <trkpt lat="43.01199" lon="0.32104">
        <ele>764.4</ele>
        <time>2026-07-08T10:21:40Z</time>
      </trkpt>
      <trkpt lat="43.012" lon="0.32104">
        <ele>763.4</ele>
        <time>2026-07-08T10:21:40Z</time>
      </trkpt>
      <trkpt lat="43.012" lon="0.32104">
        <ele>763.4</ele>
        <time>2026-07-08T10:21:41Z</time>
      </trkpt>
      <trkpt lat="43.01201" lon="0.32105">
        <ele>763.4</ele>
        <time>2026-07-08T10:21:41Z</time>
      </trkpt>
      <trkpt lat="43.01202" lon="0.32105">
        <ele>763.4</ele>
        <time>2026-07-08T10:21:42Z</time>
      </trkpt>
      <trkpt lat="43.01202" lon="0.32105">
        <ele>763.4</ele>
        <time>2026-07-08T10:21:42Z</time>
      </trkpt>
      <trkpt lat="43.01203" lon="0.32105">
        <ele>763.4</ele>
        <time>2026-07-08T10:21:43Z</time>
      </trkpt>
      <trkpt lat="43.01203" lon="0.32106">
        <ele>763.4</ele>
        <time>2026-07-08T10:21:43Z</time>
      </trkpt>
      <trkpt lat="43.01204" lon="0.32106">
        <ele>763.4</ele>
        <time>2026-07-08T10:21:44Z</time>
      </trkpt>
      <trkpt lat="43.01205" lon="0.32106">
        <ele>763.4</ele>
        <time>2026-07-08T10:21:45Z</time>
      </trkpt>
      <trkpt lat="43.01205" lon="0.32107">
        <ele>763.4</ele>
        <time>2026-07-08T10:21:45Z</time>
      </trkpt>
      <trkpt lat="43.01206" lon="0.32107">
        <ele>763.4</ele>
        <time>2026-07-08T10:21:46Z</time>
      </trkpt>
      <trkpt lat="43.01206" lon="0.32107">
        <ele>763.4</ele>
        <time>2026-07-08T10:21:46Z</time>
      </trkpt>
      <trkpt lat="43.01207" lon="0.32107">
        <ele>763.4</ele>
        <time>2026-07-08T10:21:47Z</time>
      </trkpt>
      <trkpt lat="43.01207" lon="0.32107">
        <ele>763.4</ele>
        <time>2026-07-08T10:21:47Z</time>
      </trkpt>
      <trkpt lat="43.01208" lon="0.32108">
        <ele>763.4</ele>
        <time>2026-07-08T10:21:48Z</time>
      </trkpt>
      <trkpt lat="43.01209" lon="0.32108">
        <ele>763.4</ele>
        <time>2026-07-08T10:21:48Z</time>
      </trkpt>
      <trkpt lat="43.01209" lon="0.32108">
        <ele>763.4</ele>
        <time>2026-07-08T10:21:49Z</time>
      </trkpt>
      <trkpt lat="43.0121" lon="0.32109">
        <ele>764.4</ele>
        <time>2026-07-08T10:21:49Z</time>
      </trkpt>
      <trkpt lat="43.0121" lon="0.32109">
        <ele>764.4</ele>
        <time>2026-07-08T10:21:50Z</time>
      </trkpt>
      <trkpt lat="43.01211" lon="0.3211">
        <ele>764.4</ele>
        <time>2026-07-08T10:21:50Z</time>
      </trkpt>
      <trkpt lat="43.01212" lon="0.3211">
        <ele>764.4</ele>
        <time>2026-07-08T10:21:51Z</time>
      </trkpt>
      <trkpt lat="43.01212" lon="0.3211">
        <ele>764.4</ele>
        <time>2026-07-08T10:21:51Z</time>
      </trkpt>
      <trkpt lat="43.01213" lon="0.3211">
        <ele>764.4</ele>
        <time>2026-07-08T10:21:52Z</time>
      </trkpt>
      <trkpt lat="43.01213" lon="0.32111">
        <ele>763.4</ele>
        <time>2026-07-08T10:21:52Z</time>
      </trkpt>
      <trkpt lat="43.01214" lon="0.32111">
        <ele>763.4</ele>
        <time>2026-07-08T10:21:53Z</time>
      </trkpt>
      <trkpt lat="43.01214" lon="0.32111">
        <ele>763.4</ele>
        <time>2026-07-08T10:21:53Z</time>
      </trkpt>
      <trkpt lat="43.01215" lon="0.32112">
        <ele>763.4</ele>
        <time>2026-07-08T10:21:54Z</time>
      </trkpt>
      <trkpt lat="43.01215" lon="0.32112">
        <ele>763.4</ele>
        <time>2026-07-08T10:21:54Z</time>
      </trkpt>
      <trkpt lat="43.01216" lon="0.32113">
        <ele>763.4</ele>
        <time>2026-07-08T10:21:55Z</time>
      </trkpt>
      <trkpt lat="43.01216" lon="0.32113">
        <ele>764.4</ele>
        <time>2026-07-08T10:21:55Z</time>
      </trkpt>
      <trkpt lat="43.01217" lon="0.32113">
        <ele>764.4</ele>
        <time>2026-07-08T10:21:56Z</time>
      </trkpt>
      <trkpt lat="43.01217" lon="0.32113">
        <ele>763.4</ele>
        <time>2026-07-08T10:21:57Z</time>
      </trkpt>
      <trkpt lat="43.01218" lon="0.32113">
        <ele>763.4</ele>
        <time>2026-07-08T10:21:57Z</time>
      </trkpt>
      <trkpt lat="43.01218" lon="0.32114">
        <ele>763.4</ele>
        <time>2026-07-08T10:21:58Z</time>
      </trkpt>
      <trkpt lat="43.01219" lon="0.32114">
        <ele>763.4</ele>
        <time>2026-07-08T10:21:58Z</time>
      </trkpt>
      <trkpt lat="43.0122" lon="0.32114">
        <ele>763.4</ele>
        <time>2026-07-08T10:21:59Z</time>
      </trkpt>
      <trkpt lat="43.0122" lon="0.32114">
        <ele>764.4</ele>
        <time>2026-07-08T10:21:59Z</time>
      </trkpt>
      <trkpt lat="43.01221" lon="0.32114">
        <ele>764.4</ele>
        <time>2026-07-08T10:22:00Z</time>
      </trkpt>
      <trkpt lat="43.01222" lon="0.32114">
        <ele>764.4</ele>
        <time>2026-07-08T10:22:00Z</time>
      </trkpt>
      <trkpt lat="43.01222" lon="0.32115">
        <ele>764.4</ele>
        <time>2026-07-08T10:22:01Z</time>
      </trkpt>
      <trkpt lat="43.01223" lon="0.32115">
        <ele>764.4</ele>
        <time>2026-07-08T10:22:01Z</time>
      </trkpt>
      <trkpt lat="43.01224" lon="0.32115">
        <ele>764.4</ele>
        <time>2026-07-08T10:22:02Z</time>
      </trkpt>
      <trkpt lat="43.01224" lon="0.32115">
        <ele>764.4</ele>
        <time>2026-07-08T10:22:02Z</time>
      </trkpt>
      <trkpt lat="43.01225" lon="0.32115">
        <ele>764.4</ele>
        <time>2026-07-08T10:22:03Z</time>
      </trkpt>
      <trkpt lat="43.01225" lon="0.32115">
        <ele>763.4</ele>
        <time>2026-07-08T10:22:03Z</time>
      </trkpt>
      <trkpt lat="43.01226" lon="0.32115">
        <ele>763.4</ele>
        <time>2026-07-08T10:22:04Z</time>
      </trkpt>
      <trkpt lat="43.01227" lon="0.32115">
        <ele>764.4</ele>
        <time>2026-07-08T10:22:04Z</time>
      </trkpt>
      <trkpt lat="43.01227" lon="0.32115">
        <ele>764.4</ele>
        <time>2026-07-08T10:22:05Z</time>
      </trkpt>
      <trkpt lat="43.01228" lon="0.32115">
        <ele>763.4</ele>
        <time>2026-07-08T10:22:05Z</time>
      </trkpt>
      <trkpt lat="43.01229" lon="0.32115">
        <ele>763.4</ele>
        <time>2026-07-08T10:22:06Z</time>
      </trkpt>
      <trkpt lat="43.01229" lon="0.32115">
        <ele>763.4</ele>
        <time>2026-07-08T10:22:06Z</time>
      </trkpt>
      <trkpt lat="43.0123" lon="0.32115">
        <ele>763.4</ele>
        <time>2026-07-08T10:22:07Z</time>
      </trkpt>
      <trkpt lat="43.0123" lon="0.32114">
        <ele>763.4</ele>
        <time>2026-07-08T10:22:07Z</time>
      </trkpt>
      <trkpt lat="43.01231" lon="0.32114">
        <ele>763.4</ele>
        <time>2026-07-08T10:22:08Z</time>
      </trkpt>
      <trkpt lat="43.01232" lon="0.32114">
        <ele>763.4</ele>
        <time>2026-07-08T10:22:08Z</time>
      </trkpt>
      <trkpt lat="43.01232" lon="0.32114">
        <ele>763.4</ele>
        <time>2026-07-08T10:22:09Z</time>
      </trkpt>
      <trkpt lat="43.01233" lon="0.32114">
        <ele>763.4</ele>
        <time>2026-07-08T10:22:09Z</time>
      </trkpt>
      <trkpt lat="43.01233" lon="0.32113">
        <ele>763.4</ele>
        <time>2026-07-08T10:22:10Z</time>
      </trkpt>
      <trkpt lat="43.01234" lon="0.32113">
        <ele>763.4</ele>
        <time>2026-07-08T10:22:10Z</time>
      </trkpt>
      <trkpt lat="43.01235" lon="0.32112">
        <ele>762.4</ele>
        <time>2026-07-08T10:22:11Z</time>
      </trkpt>
      <trkpt lat="43.01236" lon="0.32112">
        <ele>762.4</ele>
        <time>2026-07-08T10:22:12Z</time>
      </trkpt>
      <trkpt lat="43.01236" lon="0.32112">
        <ele>762.4</ele>
        <time>2026-07-08T10:22:12Z</time>
      </trkpt>
      <trkpt lat="43.01237" lon="0.32111">
        <ele>762.4</ele>
        <time>2026-07-08T10:22:12Z</time>
      </trkpt>
      <trkpt lat="43.01237" lon="0.32111">
        <ele>762.4</ele>
        <time>2026-07-08T10:22:13Z</time>
      </trkpt>
      <trkpt lat="43.01238" lon="0.32111">
        <ele>762.4</ele>
        <time>2026-07-08T10:22:13Z</time>
      </trkpt>
      <trkpt lat="43.01238" lon="0.32111">
        <ele>761.4</ele>
        <time>2026-07-08T10:22:14Z</time>
      </trkpt>
      <trkpt lat="43.01239" lon="0.32111">
        <ele>761.4</ele>
        <time>2026-07-08T10:22:15Z</time>
      </trkpt>
      <trkpt lat="43.0124" lon="0.32111">
        <ele>761.4</ele>
        <time>2026-07-08T10:22:16Z</time>
      </trkpt>
      <trkpt lat="43.01242" lon="0.32111">
        <ele>760.4</ele>
        <time>2026-07-08T10:22:17Z</time>
      </trkpt>
      <trkpt lat="43.01242" lon="0.3211">
        <ele>760.4</ele>
        <time>2026-07-08T10:22:17Z</time>
      </trkpt>
      <trkpt lat="43.01243" lon="0.3211">
        <ele>760.4</ele>
        <time>2026-07-08T10:22:17Z</time>
      </trkpt>
      <trkpt lat="43.01243" lon="0.3211">
        <ele>760.4</ele>
        <time>2026-07-08T10:22:18Z</time>
      </trkpt>
      <trkpt lat="43.01244" lon="0.3211">
        <ele>760.4</ele>
        <time>2026-07-08T10:22:19Z</time>
      </trkpt>
      <trkpt lat="43.01244" lon="0.3211">
        <ele>760.4</ele>
        <time>2026-07-08T10:22:19Z</time>
      </trkpt>
      <trkpt lat="43.01245" lon="0.3211">
        <ele>760.4</ele>
        <time>2026-07-08T10:22:20Z</time>
      </trkpt>
      <trkpt lat="43.01246" lon="0.3211">
        <ele>760.4</ele>
        <time>2026-07-08T10:22:21Z</time>
      </trkpt>
      <trkpt lat="43.01247" lon="0.3211">
        <ele>759.4</ele>
        <time>2026-07-08T10:22:21Z</time>
      </trkpt>
      <trkpt lat="43.01248" lon="0.3211">
        <ele>759.4</ele>
        <time>2026-07-08T10:22:22Z</time>
      </trkpt>
      <trkpt lat="43.01249" lon="0.3211">
        <ele>759.4</ele>
        <time>2026-07-08T10:22:23Z</time>
      </trkpt>
      <trkpt lat="43.0125" lon="0.3211">
        <ele>758.4</ele>
        <time>2026-07-08T10:22:24Z</time>
      </trkpt>
      <trkpt lat="43.01251" lon="0.32111">
        <ele>758.4</ele>
        <time>2026-07-08T10:22:25Z</time>
      </trkpt>
      <trkpt lat="43.01251" lon="0.32111">
        <ele>757.4</ele>
        <time>2026-07-08T10:22:25Z</time>
      </trkpt>
      <trkpt lat="43.01252" lon="0.32111">
        <ele>757.4</ele>
        <time>2026-07-08T10:22:26Z</time>
      </trkpt>
      <trkpt lat="43.01253" lon="0.32112">
        <ele>757.4</ele>
        <time>2026-07-08T10:22:27Z</time>
      </trkpt>
      <trkpt lat="43.01253" lon="0.32112">
        <ele>757.4</ele>
        <time>2026-07-08T10:22:27Z</time>
      </trkpt>
      <trkpt lat="43.01254" lon="0.32112">
        <ele>756.4</ele>
        <time>2026-07-08T10:22:28Z</time>
      </trkpt>
      <trkpt lat="43.01254" lon="0.32112">
        <ele>756.4</ele>
        <time>2026-07-08T10:22:28Z</time>
      </trkpt>
      <trkpt lat="43.01255" lon="0.32113">
        <ele>755.4</ele>
        <time>2026-07-08T10:22:28Z</time>
      </trkpt>
      <trkpt lat="43.01255" lon="0.32113">
        <ele>755.4</ele>
        <time>2026-07-08T10:22:29Z</time>
      </trkpt>
      <trkpt lat="43.01256" lon="0.32114">
        <ele>755.4</ele>
        <time>2026-07-08T10:22:30Z</time>
      </trkpt>
      <trkpt lat="43.01257" lon="0.32115">
        <ele>754.4</ele>
        <time>2026-07-08T10:22:30Z</time>
      </trkpt>
      <trkpt lat="43.01258" lon="0.32116">
        <ele>754.4</ele>
        <time>2026-07-08T10:22:31Z</time>
      </trkpt>
      <trkpt lat="43.01258" lon="0.32117">
        <ele>754.4</ele>
        <time>2026-07-08T10:22:32Z</time>
      </trkpt>
      <trkpt lat="43.01259" lon="0.32118">
        <ele>754.4</ele>
        <time>2026-07-08T10:22:32Z</time>
      </trkpt>
      <trkpt lat="43.0126" lon="0.32119">
        <ele>754.4</ele>
        <time>2026-07-08T10:22:33Z</time>
      </trkpt>
      <trkpt lat="43.0126" lon="0.3212">
        <ele>753.4</ele>
        <time>2026-07-08T10:22:34Z</time>
      </trkpt>
      <trkpt lat="43.0126" lon="0.32121">
        <ele>753.4</ele>
        <time>2026-07-08T10:22:34Z</time>
      </trkpt>
      <trkpt lat="43.01261" lon="0.32121">
        <ele>753.4</ele>
        <time>2026-07-08T10:22:34Z</time>
      </trkpt>
      <trkpt lat="43.01261" lon="0.32122">
        <ele>753.4</ele>
        <time>2026-07-08T10:22:35Z</time>
      </trkpt>
      <trkpt lat="43.01261" lon="0.32123">
        <ele>753.4</ele>
        <time>2026-07-08T10:22:35Z</time>
      </trkpt>
      <trkpt lat="43.01262" lon="0.32123">
        <ele>753.4</ele>
        <time>2026-07-08T10:22:36Z</time>
      </trkpt>
      <trkpt lat="43.01263" lon="0.32125">
        <ele>753.4</ele>
        <time>2026-07-08T10:22:37Z</time>
      </trkpt>
      <trkpt lat="43.01263" lon="0.32126">
        <ele>753.4</ele>
        <time>2026-07-08T10:22:38Z</time>
      </trkpt>
      <trkpt lat="43.01264" lon="0.32126">
        <ele>752.4</ele>
        <time>2026-07-08T10:22:38Z</time>
      </trkpt>
      <trkpt lat="43.01265" lon="0.32128">
        <ele>752.4</ele>
        <time>2026-07-08T10:22:39Z</time>
      </trkpt>
      <trkpt lat="43.01265" lon="0.32128">
        <ele>752.4</ele>
        <time>2026-07-08T10:22:39Z</time>
      </trkpt>
      <trkpt lat="43.01265" lon="0.32129">
        <ele>752.4</ele>
        <time>2026-07-08T10:22:40Z</time>
      </trkpt>
      <trkpt lat="43.01266" lon="0.3213">
        <ele>752.4</ele>
        <time>2026-07-08T10:22:41Z</time>
      </trkpt>
      <trkpt lat="43.01267" lon="0.32131">
        <ele>752.4</ele>
        <time>2026-07-08T10:22:41Z</time>
      </trkpt>
      <trkpt lat="43.01267" lon="0.32131">
        <ele>752.4</ele>
        <time>2026-07-08T10:22:42Z</time>
      </trkpt>
      <trkpt lat="43.01267" lon="0.32132">
        <ele>752.4</ele>
        <time>2026-07-08T10:22:42Z</time>
      </trkpt>
      <trkpt lat="43.01268" lon="0.32133">
        <ele>752.4</ele>
        <time>2026-07-08T10:22:43Z</time>
      </trkpt>
      <trkpt lat="43.01268" lon="0.32134">
        <ele>752.4</ele>
        <time>2026-07-08T10:22:44Z</time>
      </trkpt>
      <trkpt lat="43.01269" lon="0.32134">
        <ele>751.4</ele>
        <time>2026-07-08T10:22:44Z</time>
      </trkpt>
      <trkpt lat="43.01269" lon="0.32135">
        <ele>751.4</ele>
        <time>2026-07-08T10:22:45Z</time>
      </trkpt>
      <trkpt lat="43.01269" lon="0.32135">
        <ele>751.4</ele>
        <time>2026-07-08T10:22:45Z</time>
      </trkpt>
      <trkpt lat="43.01269" lon="0.32136">
        <ele>751.4</ele>
        <time>2026-07-08T10:22:46Z</time>
      </trkpt>
      <trkpt lat="43.0127" lon="0.32137">
        <ele>751.4</ele>
        <time>2026-07-08T10:22:46Z</time>
      </trkpt>
      <trkpt lat="43.0127" lon="0.32137">
        <ele>750.4</ele>
        <time>2026-07-08T10:22:47Z</time>
      </trkpt>
      <trkpt lat="43.0127" lon="0.32138">
        <ele>750.4</ele>
        <time>2026-07-08T10:22:48Z</time>
      </trkpt>
      <trkpt lat="43.0127" lon="0.32139">
        <ele>749.4</ele>
        <time>2026-07-08T10:22:48Z</time>
      </trkpt>
      <trkpt lat="43.01271" lon="0.3214">
        <ele>749.4</ele>
        <time>2026-07-08T10:22:49Z</time>
      </trkpt>
      <trkpt lat="43.01271" lon="0.32141">
        <ele>749.4</ele>
        <time>2026-07-08T10:22:49Z</time>
      </trkpt>
      <trkpt lat="43.01272" lon="0.32142">
        <ele>749.4</ele>
        <time>2026-07-08T10:22:50Z</time>
      </trkpt>
      <trkpt lat="43.01272" lon="0.32143">
        <ele>749.4</ele>
        <time>2026-07-08T10:22:51Z</time>
      </trkpt>
      <trkpt lat="43.01273" lon="0.32145">
        <ele>749.4</ele>
        <time>2026-07-08T10:22:52Z</time>
      </trkpt>
      <trkpt lat="43.01274" lon="0.32146">
        <ele>749.4</ele>
        <time>2026-07-08T10:22:53Z</time>
      </trkpt>
      <trkpt lat="43.01274" lon="0.32147">
        <ele>749.4</ele>
        <time>2026-07-08T10:22:53Z</time>
      </trkpt>
      <trkpt lat="43.01275" lon="0.32148">
        <ele>749.4</ele>
        <time>2026-07-08T10:22:54Z</time>
      </trkpt>
      <trkpt lat="43.01275" lon="0.32149">
        <ele>749.4</ele>
        <time>2026-07-08T10:22:55Z</time>
      </trkpt>
      <trkpt lat="43.01277" lon="0.3215">
        <ele>748.4</ele>
        <time>2026-07-08T10:22:56Z</time>
      </trkpt>
      <trkpt lat="43.01278" lon="0.32151">
        <ele>748.4</ele>
        <time>2026-07-08T10:22:57Z</time>
      </trkpt>
      <trkpt lat="43.01278" lon="0.32151">
        <ele>748.4</ele>
        <time>2026-07-08T10:22:57Z</time>
      </trkpt>
      <trkpt lat="43.01279" lon="0.32152">
        <ele>748.4</ele>
        <time>2026-07-08T10:22:58Z</time>
      </trkpt>
      <trkpt lat="43.0128" lon="0.32153">
        <ele>748.4</ele>
        <time>2026-07-08T10:22:59Z</time>
      </trkpt>
      <trkpt lat="43.01281" lon="0.32153">
        <ele>748.4</ele>
        <time>2026-07-08T10:22:59Z</time>
      </trkpt>
      <trkpt lat="43.01282" lon="0.32153">
        <ele>748.4</ele>
        <time>2026-07-08T10:22:59Z</time>
      </trkpt>
      <trkpt lat="43.01282" lon="0.32154">
        <ele>747.4</ele>
        <time>2026-07-08T10:23:00Z</time>
      </trkpt>
      <trkpt lat="43.01284" lon="0.32155">
        <ele>747.4</ele>
        <time>2026-07-08T10:23:01Z</time>
      </trkpt>
      <trkpt lat="43.01285" lon="0.32155">
        <ele>747.4</ele>
        <time>2026-07-08T10:23:01Z</time>
      </trkpt>
      <trkpt lat="43.01285" lon="0.32155">
        <ele>747.4</ele>
        <time>2026-07-08T10:23:02Z</time>
      </trkpt>
      <trkpt lat="43.01286" lon="0.32155">
        <ele>747.4</ele>
        <time>2026-07-08T10:23:03Z</time>
      </trkpt>
      <trkpt lat="43.01287" lon="0.32155">
        <ele>746.4</ele>
        <time>2026-07-08T10:23:03Z</time>
      </trkpt>
      <trkpt lat="43.01288" lon="0.32155">
        <ele>746.4</ele>
        <time>2026-07-08T10:23:04Z</time>
      </trkpt>
      <trkpt lat="43.01289" lon="0.32156">
        <ele>746.4</ele>
        <time>2026-07-08T10:23:05Z</time>
      </trkpt>
      <trkpt lat="43.0129" lon="0.32156">
        <ele>746.4</ele>
        <time>2026-07-08T10:23:05Z</time>
      </trkpt>
      <trkpt lat="43.01291" lon="0.32156">
        <ele>745.4</ele>
        <time>2026-07-08T10:23:06Z</time>
      </trkpt>
      <trkpt lat="43.01292" lon="0.32156">
        <ele>745.4</ele>
        <time>2026-07-08T10:23:06Z</time>
      </trkpt>
      <trkpt lat="43.01293" lon="0.32156">
        <ele>745.4</ele>
        <time>2026-07-08T10:23:07Z</time>
      </trkpt>
      <trkpt lat="43.01294" lon="0.32156">
        <ele>744.4</ele>
        <time>2026-07-08T10:23:08Z</time>
      </trkpt>
      <trkpt lat="43.01295" lon="0.32156">
        <ele>743.4</ele>
        <time>2026-07-08T10:23:09Z</time>
      </trkpt>
      <trkpt lat="43.01296" lon="0.32156">
        <ele>742.4</ele>
        <time>2026-07-08T10:23:10Z</time>
      </trkpt>
      <trkpt lat="43.01298" lon="0.32157">
        <ele>741.4</ele>
        <time>2026-07-08T10:23:11Z</time>
      </trkpt>
      <trkpt lat="43.01299" lon="0.32157">
        <ele>741.4</ele>
        <time>2026-07-08T10:23:11Z</time>
      </trkpt>
      <trkpt lat="43.013" lon="0.32157">
        <ele>741.4</ele>
        <time>2026-07-08T10:23:12Z</time>
      </trkpt>
      <trkpt lat="43.013" lon="0.32157">
        <ele>741.4</ele>
        <time>2026-07-08T10:23:12Z</time>
      </trkpt>
      <trkpt lat="43.01301" lon="0.32157">
        <ele>741.4</ele>
        <time>2026-07-08T10:23:13Z</time>
      </trkpt>
      <trkpt lat="43.01302" lon="0.32157">
        <ele>741.4</ele>
        <time>2026-07-08T10:23:14Z</time>
      </trkpt>
      <trkpt lat="43.01303" lon="0.32157">
        <ele>740.4</ele>
        <time>2026-07-08T10:23:14Z</time>
      </trkpt>
      <trkpt lat="43.01304" lon="0.32158">
        <ele>740.4</ele>
        <time>2026-07-08T10:23:15Z</time>
      </trkpt>
      <trkpt lat="43.01304" lon="0.32158">
        <ele>740.4</ele>
        <time>2026-07-08T10:23:16Z</time>
      </trkpt>
      <trkpt lat="43.01306" lon="0.32158">
        <ele>740.4</ele>
        <time>2026-07-08T10:23:16Z</time>
      </trkpt>
      <trkpt lat="43.01306" lon="0.32158">
        <ele>740.4</ele>
        <time>2026-07-08T10:23:17Z</time>
      </trkpt>
      <trkpt lat="43.01308" lon="0.32159">
        <ele>740.4</ele>
        <time>2026-07-08T10:23:18Z</time>
      </trkpt>
      <trkpt lat="43.01308" lon="0.32159">
        <ele>739.4</ele>
        <time>2026-07-08T10:23:18Z</time>
      </trkpt>
      <trkpt lat="43.01309" lon="0.32159">
        <ele>739.4</ele>
        <time>2026-07-08T10:23:19Z</time>
      </trkpt>
      <trkpt lat="43.0131" lon="0.32159">
        <ele>738.4</ele>
        <time>2026-07-08T10:23:20Z</time>
      </trkpt>
      <trkpt lat="43.01311" lon="0.32159">
        <ele>738.4</ele>
        <time>2026-07-08T10:23:21Z</time>
      </trkpt>
      <trkpt lat="43.01312" lon="0.32159">
        <ele>738.4</ele>
        <time>2026-07-08T10:23:22Z</time>
      </trkpt>
      <trkpt lat="43.01313" lon="0.32159">
        <ele>737.4</ele>
        <time>2026-07-08T10:23:22Z</time>
      </trkpt>
      <trkpt lat="43.01314" lon="0.32159">
        <ele>737.4</ele>
        <time>2026-07-08T10:23:23Z</time>
      </trkpt>
      <trkpt lat="43.01314" lon="0.32159">
        <ele>737.4</ele>
        <time>2026-07-08T10:23:24Z</time>
      </trkpt>
      <trkpt lat="43.01315" lon="0.32158">
        <ele>736.4</ele>
        <time>2026-07-08T10:23:24Z</time>
      </trkpt>
      <trkpt lat="43.01316" lon="0.32158">
        <ele>736.4</ele>
        <time>2026-07-08T10:23:25Z</time>
      </trkpt>
      <trkpt lat="43.01317" lon="0.32158">
        <ele>736.4</ele>
        <time>2026-07-08T10:23:25Z</time>
      </trkpt>
      <trkpt lat="43.01318" lon="0.32158">
        <ele>736.4</ele>
        <time>2026-07-08T10:23:26Z</time>
      </trkpt>
      <trkpt lat="43.01318" lon="0.32158">
        <ele>736.4</ele>
        <time>2026-07-08T10:23:26Z</time>
      </trkpt>
      <trkpt lat="43.01319" lon="0.32158">
        <ele>736.4</ele>
        <time>2026-07-08T10:23:27Z</time>
      </trkpt>
      <trkpt lat="43.01319" lon="0.32157">
        <ele>736.4</ele>
        <time>2026-07-08T10:23:27Z</time>
      </trkpt>
      <trkpt lat="43.0132" lon="0.32157">
        <ele>736.4</ele>
        <time>2026-07-08T10:23:28Z</time>
      </trkpt>
      <trkpt lat="43.01321" lon="0.32157">
        <ele>736.4</ele>
        <time>2026-07-08T10:23:29Z</time>
      </trkpt>
      <trkpt lat="43.01322" lon="0.32156">
        <ele>735.4</ele>
        <time>2026-07-08T10:23:29Z</time>
      </trkpt>
      <trkpt lat="43.01323" lon="0.32156">
        <ele>735.4</ele>
        <time>2026-07-08T10:23:30Z</time>
      </trkpt>
      <trkpt lat="43.01324" lon="0.32156">
        <ele>735.4</ele>
        <time>2026-07-08T10:23:31Z</time>
      </trkpt>
      <trkpt lat="43.01324" lon="0.32155">
        <ele>735.4</ele>
        <time>2026-07-08T10:23:31Z</time>
      </trkpt>
      <trkpt lat="43.01325" lon="0.32155">
        <ele>734.4</ele>
        <time>2026-07-08T10:23:32Z</time>
      </trkpt>
      <trkpt lat="43.01326" lon="0.32155">
        <ele>734.4</ele>
        <time>2026-07-08T10:23:33Z</time>
      </trkpt>
      <trkpt lat="43.01327" lon="0.32154">
        <ele>734.4</ele>
        <time>2026-07-08T10:23:33Z</time>
      </trkpt>
      <trkpt lat="43.01328" lon="0.32154">
        <ele>733.4</ele>
        <time>2026-07-08T10:23:34Z</time>
      </trkpt>
      <trkpt lat="43.01328" lon="0.32154">
        <ele>733.4</ele>
        <time>2026-07-08T10:23:34Z</time>
      </trkpt>
      <trkpt lat="43.01329" lon="0.32154">
        <ele>733.4</ele>
        <time>2026-07-08T10:23:35Z</time>
      </trkpt>
      <trkpt lat="43.0133" lon="0.32154">
        <ele>733.4</ele>
        <time>2026-07-08T10:23:35Z</time>
      </trkpt>
      <trkpt lat="43.0133" lon="0.32154">
        <ele>733.4</ele>
        <time>2026-07-08T10:23:36Z</time>
      </trkpt>
      <trkpt lat="43.01331" lon="0.32153">
        <ele>733.4</ele>
        <time>2026-07-08T10:23:37Z</time>
      </trkpt>
      <trkpt lat="43.01332" lon="0.32153">
        <ele>733.4</ele>
        <time>2026-07-08T10:23:38Z</time>
      </trkpt>
      <trkpt lat="43.01333" lon="0.32153">
        <ele>733.4</ele>
        <time>2026-07-08T10:23:39Z</time>
      </trkpt>
      <trkpt lat="43.01334" lon="0.32153">
        <ele>732.4</ele>
        <time>2026-07-08T10:23:39Z</time>
      </trkpt>
      <trkpt lat="43.01335" lon="0.32153">
        <ele>732.4</ele>
        <time>2026-07-08T10:23:40Z</time>
      </trkpt>
      <trkpt lat="43.01335" lon="0.32153">
        <ele>732.4</ele>
        <time>2026-07-08T10:23:40Z</time>
      </trkpt>
      <trkpt lat="43.01335" lon="0.32153">
        <ele>732.4</ele>
        <time>2026-07-08T10:23:41Z</time>
      </trkpt>
      <trkpt lat="43.01337" lon="0.32153">
        <ele>733.4</ele>
        <time>2026-07-08T10:23:42Z</time>
      </trkpt>
      <trkpt lat="43.01338" lon="0.32153">
        <ele>733.4</ele>
        <time>2026-07-08T10:23:42Z</time>
      </trkpt>
      <trkpt lat="43.01338" lon="0.32153">
        <ele>733.4</ele>
        <time>2026-07-08T10:23:43Z</time>
      </trkpt>
      <trkpt lat="43.0134" lon="0.32153">
        <ele>733.4</ele>
        <time>2026-07-08T10:23:44Z</time>
      </trkpt>
      <trkpt lat="43.01341" lon="0.32153">
        <ele>732.4</ele>
        <time>2026-07-08T10:23:44Z</time>
      </trkpt>
      <trkpt lat="43.01341" lon="0.32153">
        <ele>732.4</ele>
        <time>2026-07-08T10:23:45Z</time>
      </trkpt>
      <trkpt lat="43.01343" lon="0.32153">
        <ele>732.4</ele>
        <time>2026-07-08T10:23:46Z</time>
      </trkpt>
      <trkpt lat="43.01343" lon="0.32154">
        <ele>732.4</ele>
        <time>2026-07-08T10:23:46Z</time>
      </trkpt>
      <trkpt lat="43.01344" lon="0.32154">
        <ele>732.4</ele>
        <time>2026-07-08T10:23:47Z</time>
      </trkpt>
      <trkpt lat="43.01345" lon="0.32154">
        <ele>732.4</ele>
        <time>2026-07-08T10:23:47Z</time>
      </trkpt>
      <trkpt lat="43.01346" lon="0.32154">
        <ele>732.4</ele>
        <time>2026-07-08T10:23:48Z</time>
      </trkpt>
      <trkpt lat="43.01347" lon="0.32154">
        <ele>732.4</ele>
        <time>2026-07-08T10:23:49Z</time>
      </trkpt>
      <trkpt lat="43.01348" lon="0.32154">
        <ele>731.4</ele>
        <time>2026-07-08T10:23:49Z</time>
      </trkpt>
      <trkpt lat="43.01349" lon="0.32155">
        <ele>731.4</ele>
        <time>2026-07-08T10:23:50Z</time>
      </trkpt>
      <trkpt lat="43.0135" lon="0.32155">
        <ele>731.4</ele>
        <time>2026-07-08T10:23:51Z</time>
      </trkpt>
      <trkpt lat="43.0135" lon="0.32155">
        <ele>731.4</ele>
        <time>2026-07-08T10:23:51Z</time>
      </trkpt>
      <trkpt lat="43.01351" lon="0.32155">
        <ele>731.4</ele>
        <time>2026-07-08T10:23:52Z</time>
      </trkpt>
      <trkpt lat="43.01352" lon="0.32155">
        <ele>731.4</ele>
        <time>2026-07-08T10:23:52Z</time>
      </trkpt>
      <trkpt lat="43.01353" lon="0.32155">
        <ele>731.4</ele>
        <time>2026-07-08T10:23:53Z</time>
      </trkpt>
      <trkpt lat="43.01353" lon="0.32155">
        <ele>731.4</ele>
        <time>2026-07-08T10:23:53Z</time>
      </trkpt>
      <trkpt lat="43.01355" lon="0.32154">
        <ele>731.4</ele>
        <time>2026-07-08T10:23:54Z</time>
      </trkpt>
      <trkpt lat="43.01355" lon="0.32154">
        <ele>731.4</ele>
        <time>2026-07-08T10:23:54Z</time>
      </trkpt>
      <trkpt lat="43.01356" lon="0.32154">
        <ele>731.4</ele>
        <time>2026-07-08T10:23:55Z</time>
      </trkpt>
      <trkpt lat="43.01357" lon="0.32154">
        <ele>731.4</ele>
        <time>2026-07-08T10:23:55Z</time>
      </trkpt>
      <trkpt lat="43.01358" lon="0.32154">
        <ele>731.4</ele>
        <time>2026-07-08T10:23:56Z</time>
      </trkpt>
      <trkpt lat="43.01358" lon="0.32154">
        <ele>731.4</ele>
        <time>2026-07-08T10:23:56Z</time>
      </trkpt>
      <trkpt lat="43.01359" lon="0.32154">
        <ele>731.4</ele>
        <time>2026-07-08T10:23:57Z</time>
      </trkpt>
      <trkpt lat="43.0136" lon="0.32153">
        <ele>730.4</ele>
        <time>2026-07-08T10:23:57Z</time>
      </trkpt>
      <trkpt lat="43.0136" lon="0.32153">
        <ele>730.4</ele>
        <time>2026-07-08T10:23:58Z</time>
      </trkpt>
      <trkpt lat="43.01361" lon="0.32153">
        <ele>730.4</ele>
        <time>2026-07-08T10:23:58Z</time>
      </trkpt>
      <trkpt lat="43.01362" lon="0.32153">
        <ele>730.4</ele>
        <time>2026-07-08T10:23:59Z</time>
      </trkpt>
      <trkpt lat="43.01363" lon="0.32152">
        <ele>729.4</ele>
        <time>2026-07-08T10:24:00Z</time>
      </trkpt>
      <trkpt lat="43.01364" lon="0.32152">
        <ele>730.4</ele>
        <time>2026-07-08T10:24:00Z</time>
      </trkpt>
      <trkpt lat="43.01364" lon="0.32152">
        <ele>730.4</ele>
        <time>2026-07-08T10:24:01Z</time>
      </trkpt>
      <trkpt lat="43.01366" lon="0.32151">
        <ele>729.4</ele>
        <time>2026-07-08T10:24:02Z</time>
      </trkpt>
      <trkpt lat="43.01366" lon="0.32151">
        <ele>729.4</ele>
        <time>2026-07-08T10:24:02Z</time>
      </trkpt>
      <trkpt lat="43.01367" lon="0.3215">
        <ele>729.4</ele>
        <time>2026-07-08T10:24:03Z</time>
      </trkpt>
      <trkpt lat="43.01368" lon="0.3215">
        <ele>729.4</ele>
        <time>2026-07-08T10:24:04Z</time>
      </trkpt>
      <trkpt lat="43.01369" lon="0.3215">
        <ele>729.4</ele>
        <time>2026-07-08T10:24:04Z</time>
      </trkpt>
      <trkpt lat="43.0137" lon="0.32149">
        <ele>729.4</ele>
        <time>2026-07-08T10:24:05Z</time>
      </trkpt>
      <trkpt lat="43.0137" lon="0.32149">
        <ele>729.4</ele>
        <time>2026-07-08T10:24:05Z</time>
      </trkpt>
      <trkpt lat="43.01371" lon="0.32149">
        <ele>729.4</ele>
        <time>2026-07-08T10:24:06Z</time>
      </trkpt>
      <trkpt lat="43.01372" lon="0.32148">
        <ele>729.4</ele>
        <time>2026-07-08T10:24:06Z</time>
      </trkpt>
      <trkpt lat="43.01373" lon="0.32148">
        <ele>729.4</ele>
        <time>2026-07-08T10:24:07Z</time>
      </trkpt>
      <trkpt lat="43.01374" lon="0.32148">
        <ele>729.4</ele>
        <time>2026-07-08T10:24:08Z</time>
      </trkpt>
      <trkpt lat="43.01375" lon="0.32147">
        <ele>728.4</ele>
        <time>2026-07-08T10:24:08Z</time>
      </trkpt>
      <trkpt lat="43.01376" lon="0.32147">
        <ele>728.4</ele>
        <time>2026-07-08T10:24:09Z</time>
      </trkpt>
      <trkpt lat="43.01376" lon="0.32147">
        <ele>728.4</ele>
        <time>2026-07-08T10:24:09Z</time>
      </trkpt>
      <trkpt lat="43.01377" lon="0.32147">
        <ele>728.4</ele>
        <time>2026-07-08T10:24:10Z</time>
      </trkpt>
      <trkpt lat="43.01378" lon="0.32147">
        <ele>727.4</ele>
        <time>2026-07-08T10:24:11Z</time>
      </trkpt>
      <trkpt lat="43.01379" lon="0.32146">
        <ele>727.4</ele>
        <time>2026-07-08T10:24:11Z</time>
      </trkpt>
      <trkpt lat="43.0138" lon="0.32146">
        <ele>727.4</ele>
        <time>2026-07-08T10:24:12Z</time>
      </trkpt>
      <trkpt lat="43.01381" lon="0.32146">
        <ele>728.4</ele>
        <time>2026-07-08T10:24:13Z</time>
      </trkpt>
      <trkpt lat="43.01381" lon="0.32146">
        <ele>727.4</ele>
        <time>2026-07-08T10:24:13Z</time>
      </trkpt>
      <trkpt lat="43.01382" lon="0.32145">
        <ele>727.4</ele>
        <time>2026-07-08T10:24:14Z</time>
      </trkpt>
      <trkpt lat="43.01383" lon="0.32145">
        <ele>727.4</ele>
        <time>2026-07-08T10:24:14Z</time>
      </trkpt>
      <trkpt lat="43.01383" lon="0.32145">
        <ele>727.4</ele>
        <time>2026-07-08T10:24:15Z</time>
      </trkpt>
      <trkpt lat="43.01384" lon="0.32145">
        <ele>727.4</ele>
        <time>2026-07-08T10:24:15Z</time>
      </trkpt>
      <trkpt lat="43.01384" lon="0.32145">
        <ele>727.4</ele>
        <time>2026-07-08T10:24:16Z</time>
      </trkpt>
      <trkpt lat="43.01385" lon="0.32145">
        <ele>726.4</ele>
        <time>2026-07-08T10:24:16Z</time>
      </trkpt>
      <trkpt lat="43.01385" lon="0.32144">
        <ele>726.4</ele>
        <time>2026-07-08T10:24:17Z</time>
      </trkpt>
      <trkpt lat="43.01386" lon="0.32144">
        <ele>726.4</ele>
        <time>2026-07-08T10:24:17Z</time>
      </trkpt>
      <trkpt lat="43.01387" lon="0.32144">
        <ele>726.4</ele>
        <time>2026-07-08T10:24:18Z</time>
      </trkpt>
      <trkpt lat="43.01387" lon="0.32144">
        <ele>726.4</ele>
        <time>2026-07-08T10:24:18Z</time>
      </trkpt>
      <trkpt lat="43.01388" lon="0.32144">
        <ele>726.4</ele>
        <time>2026-07-08T10:24:19Z</time>
      </trkpt>
      <trkpt lat="43.01388" lon="0.32143">
        <ele>726.4</ele>
        <time>2026-07-08T10:24:19Z</time>
      </trkpt>
      <trkpt lat="43.01389" lon="0.32143">
        <ele>726.4</ele>
        <time>2026-07-08T10:24:20Z</time>
      </trkpt>
      <trkpt lat="43.01389" lon="0.32143">
        <ele>726.4</ele>
        <time>2026-07-08T10:24:20Z</time>
      </trkpt>
      <trkpt lat="43.0139" lon="0.32142">
        <ele>726.4</ele>
        <time>2026-07-08T10:24:21Z</time>
      </trkpt>
      <trkpt lat="43.01391" lon="0.32142">
        <ele>725.4</ele>
        <time>2026-07-08T10:24:21Z</time>
      </trkpt>
      <trkpt lat="43.01391" lon="0.32142">
        <ele>725.4</ele>
        <time>2026-07-08T10:24:22Z</time>
      </trkpt>
      <trkpt lat="43.01392" lon="0.32141">
        <ele>725.4</ele>
        <time>2026-07-08T10:24:22Z</time>
      </trkpt>
      <trkpt lat="43.01393" lon="0.32141">
        <ele>725.4</ele>
        <time>2026-07-08T10:24:23Z</time>
      </trkpt>
      <trkpt lat="43.01393" lon="0.32141">
        <ele>725.4</ele>
        <time>2026-07-08T10:24:23Z</time>
      </trkpt>
      <trkpt lat="43.01394" lon="0.3214">
        <ele>725.4</ele>
        <time>2026-07-08T10:24:24Z</time>
      </trkpt>
      <trkpt lat="43.01394" lon="0.3214">
        <ele>725.4</ele>
        <time>2026-07-08T10:24:24Z</time>
      </trkpt>
      <trkpt lat="43.01395" lon="0.3214">
        <ele>725.4</ele>
        <time>2026-07-08T10:24:25Z</time>
      </trkpt>
      <trkpt lat="43.01396" lon="0.3214">
        <ele>726.4</ele>
        <time>2026-07-08T10:24:25Z</time>
      </trkpt>
      <trkpt lat="43.01396" lon="0.32139">
        <ele>726.4</ele>
        <time>2026-07-08T10:24:26Z</time>
      </trkpt>
      <trkpt lat="43.01397" lon="0.32139">
        <ele>726.4</ele>
        <time>2026-07-08T10:24:26Z</time>
      </trkpt>
      <trkpt lat="43.01398" lon="0.32139">
        <ele>726.4</ele>
        <time>2026-07-08T10:24:27Z</time>
      </trkpt>
      <trkpt lat="43.01399" lon="0.32139">
        <ele>726.4</ele>
        <time>2026-07-08T10:24:27Z</time>
      </trkpt>
      <trkpt lat="43.01399" lon="0.32139">
        <ele>726.4</ele>
        <time>2026-07-08T10:24:28Z</time>
      </trkpt>
      <trkpt lat="43.014" lon="0.32139">
        <ele>727.4</ele>
        <time>2026-07-08T10:24:28Z</time>
      </trkpt>
      <trkpt lat="43.01401" lon="0.32138">
        <ele>727.4</ele>
        <time>2026-07-08T10:24:29Z</time>
      </trkpt>
      <trkpt lat="43.01402" lon="0.32139">
        <ele>727.4</ele>
        <time>2026-07-08T10:24:29Z</time>
      </trkpt>
      <trkpt lat="43.01402" lon="0.32138">
        <ele>727.4</ele>
        <time>2026-07-08T10:24:30Z</time>
      </trkpt>
      <trkpt lat="43.01403" lon="0.32138">
        <ele>727.4</ele>
        <time>2026-07-08T10:24:30Z</time>
      </trkpt>
      <trkpt lat="43.01404" lon="0.32138">
        <ele>727.4</ele>
        <time>2026-07-08T10:24:31Z</time>
      </trkpt>
      <trkpt lat="43.01405" lon="0.32138">
        <ele>727.4</ele>
        <time>2026-07-08T10:24:31Z</time>
      </trkpt>
      <trkpt lat="43.01405" lon="0.32138">
        <ele>727.4</ele>
        <time>2026-07-08T10:24:32Z</time>
      </trkpt>
      <trkpt lat="43.01406" lon="0.32138">
        <ele>727.4</ele>
        <time>2026-07-08T10:24:32Z</time>
      </trkpt>
      <trkpt lat="43.01407" lon="0.32138">
        <ele>727.4</ele>
        <time>2026-07-08T10:24:33Z</time>
      </trkpt>
      <trkpt lat="43.01408" lon="0.32138">
        <ele>727.4</ele>
        <time>2026-07-08T10:24:33Z</time>
      </trkpt>
      <trkpt lat="43.01408" lon="0.32138">
        <ele>727.4</ele>
        <time>2026-07-08T10:24:34Z</time>
      </trkpt>
      <trkpt lat="43.01409" lon="0.32138">
        <ele>728.4</ele>
        <time>2026-07-08T10:24:34Z</time>
      </trkpt>
      <trkpt lat="43.0141" lon="0.32137">
        <ele>728.4</ele>
        <time>2026-07-08T10:24:35Z</time>
      </trkpt>
      <trkpt lat="43.0141" lon="0.32137">
        <ele>727.4</ele>
        <time>2026-07-08T10:24:35Z</time>
      </trkpt>
      <trkpt lat="43.01411" lon="0.32137">
        <ele>727.4</ele>
        <time>2026-07-08T10:24:36Z</time>
      </trkpt>
      <trkpt lat="43.01412" lon="0.32136">
        <ele>728.4</ele>
        <time>2026-07-08T10:24:36Z</time>
      </trkpt>
      <trkpt lat="43.01412" lon="0.32136">
        <ele>728.4</ele>
        <time>2026-07-08T10:24:37Z</time>
      </trkpt>
      <trkpt lat="43.01413" lon="0.32135">
        <ele>727.4</ele>
        <time>2026-07-08T10:24:37Z</time>
      </trkpt>
      <trkpt lat="43.01414" lon="0.32135">
        <ele>727.4</ele>
        <time>2026-07-08T10:24:38Z</time>
      </trkpt>
      <trkpt lat="43.01415" lon="0.32134">
        <ele>727.4</ele>
        <time>2026-07-08T10:24:38Z</time>
      </trkpt>
      <trkpt lat="43.01415" lon="0.32134">
        <ele>727.4</ele>
        <time>2026-07-08T10:24:39Z</time>
      </trkpt>
      <trkpt lat="43.01416" lon="0.32133">
        <ele>727.4</ele>
        <time>2026-07-08T10:24:39Z</time>
      </trkpt>
      <trkpt lat="43.01417" lon="0.32133">
        <ele>727.4</ele>
        <time>2026-07-08T10:24:40Z</time>
      </trkpt>
      <trkpt lat="43.01417" lon="0.32132">
        <ele>727.4</ele>
        <time>2026-07-08T10:24:40Z</time>
      </trkpt>
      <trkpt lat="43.01418" lon="0.32131">
        <ele>727.4</ele>
        <time>2026-07-08T10:24:41Z</time>
      </trkpt>
      <trkpt lat="43.01419" lon="0.32131">
        <ele>727.4</ele>
        <time>2026-07-08T10:24:41Z</time>
      </trkpt>
      <trkpt lat="43.01419" lon="0.3213">
        <ele>727.4</ele>
        <time>2026-07-08T10:24:42Z</time>
      </trkpt>
      <trkpt lat="43.0142" lon="0.3213">
        <ele>727.4</ele>
        <time>2026-07-08T10:24:42Z</time>
      </trkpt>
      <trkpt lat="43.01421" lon="0.32129">
        <ele>727.4</ele>
        <time>2026-07-08T10:24:43Z</time>
      </trkpt>
      <trkpt lat="43.01422" lon="0.32128">
        <ele>727.4</ele>
        <time>2026-07-08T10:24:43Z</time>
      </trkpt>
      <trkpt lat="43.01423" lon="0.32127">
        <ele>727.4</ele>
        <time>2026-07-08T10:24:44Z</time>
      </trkpt>
      <trkpt lat="43.01424" lon="0.32126">
        <ele>727.4</ele>
        <time>2026-07-08T10:24:44Z</time>
      </trkpt>
      <trkpt lat="43.01424" lon="0.32125">
        <ele>727.4</ele>
        <time>2026-07-08T10:24:45Z</time>
      </trkpt>
      <trkpt lat="43.01425" lon="0.32125">
        <ele>726.4</ele>
        <time>2026-07-08T10:24:45Z</time>
      </trkpt>
      <trkpt lat="43.01425" lon="0.32124">
        <ele>726.4</ele>
        <time>2026-07-08T10:24:46Z</time>
      </trkpt>
      <trkpt lat="43.01427" lon="0.32122">
        <ele>726.4</ele>
        <time>2026-07-08T10:24:47Z</time>
      </trkpt>
      <trkpt lat="43.01427" lon="0.32122">
        <ele>725.4</ele>
        <time>2026-07-08T10:24:47Z</time>
      </trkpt>
      <trkpt lat="43.01428" lon="0.32121">
        <ele>725.4</ele>
        <time>2026-07-08T10:24:48Z</time>
      </trkpt>
      <trkpt lat="43.01429" lon="0.32121">
        <ele>725.4</ele>
        <time>2026-07-08T10:24:48Z</time>
      </trkpt>
      <trkpt lat="43.01429" lon="0.3212">
        <ele>725.4</ele>
        <time>2026-07-08T10:24:49Z</time>
      </trkpt>
      <trkpt lat="43.0143" lon="0.3212">
        <ele>724.4</ele>
        <time>2026-07-08T10:24:49Z</time>
      </trkpt>
      <trkpt lat="43.0143" lon="0.32119">
        <ele>724.4</ele>
        <time>2026-07-08T10:24:50Z</time>
      </trkpt>
      <trkpt lat="43.01431" lon="0.32119">
        <ele>724.4</ele>
        <time>2026-07-08T10:24:50Z</time>
      </trkpt>
      <trkpt lat="43.01431" lon="0.32118">
        <ele>724.4</ele>
        <time>2026-07-08T10:24:51Z</time>
      </trkpt>
      <trkpt lat="43.01432" lon="0.32117">
        <ele>724.4</ele>
        <time>2026-07-08T10:24:51Z</time>
      </trkpt>
      <trkpt lat="43.01433" lon="0.32117">
        <ele>724.4</ele>
        <time>2026-07-08T10:24:52Z</time>
      </trkpt>
      <trkpt lat="43.01433" lon="0.32116">
        <ele>724.4</ele>
        <time>2026-07-08T10:24:52Z</time>
      </trkpt>
      <trkpt lat="43.01434" lon="0.32116">
        <ele>724.4</ele>
        <time>2026-07-08T10:24:53Z</time>
      </trkpt>
      <trkpt lat="43.01434" lon="0.32115">
        <ele>725.4</ele>
        <time>2026-07-08T10:24:53Z</time>
      </trkpt>
      <trkpt lat="43.01435" lon="0.32114">
        <ele>725.4</ele>
        <time>2026-07-08T10:24:54Z</time>
      </trkpt>
      <trkpt lat="43.01436" lon="0.32114">
        <ele>725.4</ele>
        <time>2026-07-08T10:24:54Z</time>
      </trkpt>
      <trkpt lat="43.01436" lon="0.32113">
        <ele>725.4</ele>
        <time>2026-07-08T10:24:55Z</time>
      </trkpt>
      <trkpt lat="43.01437" lon="0.32113">
        <ele>725.4</ele>
        <time>2026-07-08T10:24:55Z</time>
      </trkpt>
      <trkpt lat="43.01437" lon="0.32112">
        <ele>725.4</ele>
        <time>2026-07-08T10:24:56Z</time>
      </trkpt>
      <trkpt lat="43.01438" lon="0.32111">
        <ele>726.4</ele>
        <time>2026-07-08T10:24:56Z</time>
      </trkpt>
      <trkpt lat="43.01438" lon="0.32111">
        <ele>726.4</ele>
        <time>2026-07-08T10:24:57Z</time>
      </trkpt>
      <trkpt lat="43.01439" lon="0.3211">
        <ele>726.4</ele>
        <time>2026-07-08T10:24:57Z</time>
      </trkpt>
      <trkpt lat="43.0144" lon="0.32109">
        <ele>726.4</ele>
        <time>2026-07-08T10:24:57Z</time>
      </trkpt>
      <trkpt lat="43.0144" lon="0.32109">
        <ele>726.4</ele>
        <time>2026-07-08T10:24:58Z</time>
      </trkpt>
      <trkpt lat="43.01441" lon="0.32108">
        <ele>726.4</ele>
        <time>2026-07-08T10:24:58Z</time>
      </trkpt>
      <trkpt lat="43.01442" lon="0.32107">
        <ele>726.4</ele>
        <time>2026-07-08T10:24:59Z</time>
      </trkpt>
      <trkpt lat="43.01442" lon="0.32107">
        <ele>726.4</ele>
        <time>2026-07-08T10:24:59Z</time>
      </trkpt>
      <trkpt lat="43.01443" lon="0.32106">
        <ele>726.4</ele>
        <time>2026-07-08T10:25:00Z</time>
      </trkpt>
      <trkpt lat="43.01444" lon="0.32106">
        <ele>727.4</ele>
        <time>2026-07-08T10:25:00Z</time>
      </trkpt>
      <trkpt lat="43.01445" lon="0.32105">
        <ele>728.4</ele>
        <time>2026-07-08T10:25:01Z</time>
      </trkpt>
      <trkpt lat="43.01446" lon="0.32104">
        <ele>728.4</ele>
        <time>2026-07-08T10:25:02Z</time>
      </trkpt>
      <trkpt lat="43.01446" lon="0.32103">
        <ele>728.4</ele>
        <time>2026-07-08T10:25:02Z</time>
      </trkpt>
      <trkpt lat="43.01447" lon="0.32103">
        <ele>728.4</ele>
        <time>2026-07-08T10:25:03Z</time>
      </trkpt>
      <trkpt lat="43.01448" lon="0.32102">
        <ele>728.4</ele>
        <time>2026-07-08T10:25:03Z</time>
      </trkpt>
      <trkpt lat="43.01448" lon="0.32101">
        <ele>728.4</ele>
        <time>2026-07-08T10:25:04Z</time>
      </trkpt>
      <trkpt lat="43.01449" lon="0.321">
        <ele>728.4</ele>
        <time>2026-07-08T10:25:04Z</time>
      </trkpt>
      <trkpt lat="43.0145" lon="0.321">
        <ele>728.4</ele>
        <time>2026-07-08T10:25:05Z</time>
      </trkpt>
      <trkpt lat="43.0145" lon="0.32099">
        <ele>728.4</ele>
        <time>2026-07-08T10:25:05Z</time>
      </trkpt>
      <trkpt lat="43.01451" lon="0.32098">
        <ele>728.4</ele>
        <time>2026-07-08T10:25:06Z</time>
      </trkpt>
      <trkpt lat="43.01451" lon="0.32097">
        <ele>728.4</ele>
        <time>2026-07-08T10:25:06Z</time>
      </trkpt>
      <trkpt lat="43.01452" lon="0.32097">
        <ele>728.4</ele>
        <time>2026-07-08T10:25:07Z</time>
      </trkpt>
      <trkpt lat="43.01453" lon="0.32096">
        <ele>728.4</ele>
        <time>2026-07-08T10:25:07Z</time>
      </trkpt>
      <trkpt lat="43.01453" lon="0.32095">
        <ele>728.4</ele>
        <time>2026-07-08T10:25:08Z</time>
      </trkpt>
      <trkpt lat="43.01454" lon="0.32094">
        <ele>728.4</ele>
        <time>2026-07-08T10:25:08Z</time>
      </trkpt>
      <trkpt lat="43.01455" lon="0.32094">
        <ele>728.4</ele>
        <time>2026-07-08T10:25:09Z</time>
      </trkpt>
      <trkpt lat="43.01455" lon="0.32093">
        <ele>728.4</ele>
        <time>2026-07-08T10:25:09Z</time>
      </trkpt>
      <trkpt lat="43.01456" lon="0.32092">
        <ele>728.4</ele>
        <time>2026-07-08T10:25:10Z</time>
      </trkpt>
      <trkpt lat="43.01457" lon="0.32092">
        <ele>727.4</ele>
        <time>2026-07-08T10:25:10Z</time>
      </trkpt>
      <trkpt lat="43.01458" lon="0.32091">
        <ele>727.4</ele>
        <time>2026-07-08T10:25:11Z</time>
      </trkpt>
      <trkpt lat="43.01458" lon="0.3209">
        <ele>727.4</ele>
        <time>2026-07-08T10:25:11Z</time>
      </trkpt>
      <trkpt lat="43.01459" lon="0.32089">
        <ele>727.4</ele>
        <time>2026-07-08T10:25:12Z</time>
      </trkpt>
      <trkpt lat="43.0146" lon="0.32088">
        <ele>727.4</ele>
        <time>2026-07-08T10:25:13Z</time>
      </trkpt>
      <trkpt lat="43.01461" lon="0.32087">
        <ele>726.4</ele>
        <time>2026-07-08T10:25:13Z</time>
      </trkpt>
      <trkpt lat="43.01462" lon="0.32086">
        <ele>726.4</ele>
        <time>2026-07-08T10:25:14Z</time>
      </trkpt>
      <trkpt lat="43.01462" lon="0.32085">
        <ele>725.4</ele>
        <time>2026-07-08T10:25:14Z</time>
      </trkpt>
      <trkpt lat="43.01463" lon="0.32084">
        <ele>725.4</ele>
        <time>2026-07-08T10:25:15Z</time>
      </trkpt>
      <trkpt lat="43.01464" lon="0.32082">
        <ele>725.4</ele>
        <time>2026-07-08T10:25:16Z</time>
      </trkpt>
      <trkpt lat="43.01464" lon="0.32081">
        <ele>725.4</ele>
        <time>2026-07-08T10:25:16Z</time>
      </trkpt>
      <trkpt lat="43.01464" lon="0.3208">
        <ele>725.4</ele>
        <time>2026-07-08T10:25:17Z</time>
      </trkpt>
      <trkpt lat="43.01465" lon="0.32078">
        <ele>724.4</ele>
        <time>2026-07-08T10:25:18Z</time>
      </trkpt>
      <trkpt lat="43.01465" lon="0.32077">
        <ele>724.4</ele>
        <time>2026-07-08T10:25:18Z</time>
      </trkpt>
      <trkpt lat="43.01466" lon="0.32076">
        <ele>724.4</ele>
        <time>2026-07-08T10:25:19Z</time>
      </trkpt>
      <trkpt lat="43.01466" lon="0.32074">
        <ele>723.4</ele>
        <time>2026-07-08T10:25:20Z</time>
      </trkpt>
      <trkpt lat="43.01466" lon="0.32072">
        <ele>723.4</ele>
        <time>2026-07-08T10:25:20Z</time>
      </trkpt>
      <trkpt lat="43.01467" lon="0.32071">
        <ele>723.4</ele>
        <time>2026-07-08T10:25:21Z</time>
      </trkpt>
      <trkpt lat="43.01467" lon="0.3207">
        <ele>723.4</ele>
        <time>2026-07-08T10:25:21Z</time>
      </trkpt>
      <trkpt lat="43.01467" lon="0.32069">
        <ele>722.4</ele>
        <time>2026-07-08T10:25:22Z</time>
      </trkpt>
      <trkpt lat="43.01467" lon="0.32067">
        <ele>722.4</ele>
        <time>2026-07-08T10:25:23Z</time>
      </trkpt>
      <trkpt lat="43.01468" lon="0.32066">
        <ele>723.4</ele>
        <time>2026-07-08T10:25:23Z</time>
      </trkpt>
      <trkpt lat="43.01468" lon="0.32065">
        <ele>723.4</ele>
        <time>2026-07-08T10:25:24Z</time>
      </trkpt>
      <trkpt lat="43.01468" lon="0.32063">
        <ele>723.4</ele>
        <time>2026-07-08T10:25:25Z</time>
      </trkpt>
      <trkpt lat="43.01469" lon="0.32062">
        <ele>723.4</ele>
        <time>2026-07-08T10:25:25Z</time>
      </trkpt>
      <trkpt lat="43.01469" lon="0.32061">
        <ele>723.4</ele>
        <time>2026-07-08T10:25:26Z</time>
      </trkpt>
      <trkpt lat="43.01469" lon="0.32059">
        <ele>723.4</ele>
        <time>2026-07-08T10:25:27Z</time>
      </trkpt>
      <trkpt lat="43.0147" lon="0.32057">
        <ele>722.4</ele>
        <time>2026-07-08T10:25:28Z</time>
      </trkpt>
      <trkpt lat="43.0147" lon="0.32056">
        <ele>722.4</ele>
        <time>2026-07-08T10:25:29Z</time>
      </trkpt>
      <trkpt lat="43.01471" lon="0.32054">
        <ele>721.4</ele>
        <time>2026-07-08T10:25:30Z</time>
      </trkpt>
      <trkpt lat="43.01471" lon="0.32052">
        <ele>721.4</ele>
        <time>2026-07-08T10:25:31Z</time>
      </trkpt>
      <trkpt lat="43.01471" lon="0.32051">
        <ele>720.4</ele>
        <time>2026-07-08T10:25:31Z</time>
      </trkpt>
      <trkpt lat="43.01471" lon="0.32049">
        <ele>720.4</ele>
        <time>2026-07-08T10:25:32Z</time>
      </trkpt>
      <trkpt lat="43.01471" lon="0.32048">
        <ele>720.4</ele>
        <time>2026-07-08T10:25:32Z</time>
      </trkpt>
      <trkpt lat="43.01471" lon="0.32047">
        <ele>720.4</ele>
        <time>2026-07-08T10:25:33Z</time>
      </trkpt>
      <trkpt lat="43.01471" lon="0.32046">
        <ele>720.4</ele>
        <time>2026-07-08T10:25:34Z</time>
      </trkpt>
      <trkpt lat="43.01472" lon="0.32045">
        <ele>720.4</ele>
        <time>2026-07-08T10:25:34Z</time>
      </trkpt>
      <trkpt lat="43.01472" lon="0.32043">
        <ele>720.4</ele>
        <time>2026-07-08T10:25:35Z</time>
      </trkpt>
      <trkpt lat="43.01473" lon="0.32041">
        <ele>720.4</ele>
        <time>2026-07-08T10:25:36Z</time>
      </trkpt>
      <trkpt lat="43.01473" lon="0.32039">
        <ele>720.4</ele>
        <time>2026-07-08T10:25:37Z</time>
      </trkpt>
      <trkpt lat="43.01474" lon="0.32038">
        <ele>720.4</ele>
        <time>2026-07-08T10:25:38Z</time>
      </trkpt>
      <trkpt lat="43.01474" lon="0.32036">
        <ele>719.4</ele>
        <time>2026-07-08T10:25:39Z</time>
      </trkpt>
      <trkpt lat="43.01474" lon="0.32035">
        <ele>719.4</ele>
        <time>2026-07-08T10:25:39Z</time>
      </trkpt>
      <trkpt lat="43.01475" lon="0.32034">
        <ele>719.4</ele>
        <time>2026-07-08T10:25:40Z</time>
      </trkpt>
      <trkpt lat="43.01475" lon="0.32033">
        <ele>719.4</ele>
        <time>2026-07-08T10:25:41Z</time>
      </trkpt>
      <trkpt lat="43.01475" lon="0.32032">
        <ele>719.4</ele>
        <time>2026-07-08T10:25:41Z</time>
      </trkpt>
      <trkpt lat="43.01476" lon="0.32031">
        <ele>719.4</ele>
        <time>2026-07-08T10:25:42Z</time>
      </trkpt>
      <trkpt lat="43.01476" lon="0.3203">
        <ele>719.4</ele>
        <time>2026-07-08T10:25:43Z</time>
      </trkpt>
      <trkpt lat="43.01476" lon="0.32029">
        <ele>718.4</ele>
        <time>2026-07-08T10:25:43Z</time>
      </trkpt>
      <trkpt lat="43.01477" lon="0.32027">
        <ele>718.4</ele>
        <time>2026-07-08T10:25:44Z</time>
      </trkpt>
      <trkpt lat="43.01477" lon="0.32027">
        <ele>719.4</ele>
        <time>2026-07-08T10:25:44Z</time>
      </trkpt>
      <trkpt lat="43.01477" lon="0.32026">
        <ele>719.4</ele>
        <time>2026-07-08T10:25:45Z</time>
      </trkpt>
      <trkpt lat="43.01478" lon="0.32024">
        <ele>718.4</ele>
        <time>2026-07-08T10:25:46Z</time>
      </trkpt>
      <trkpt lat="43.01478" lon="0.32023">
        <ele>717.4</ele>
        <time>2026-07-08T10:25:47Z</time>
      </trkpt>
      <trkpt lat="43.01478" lon="0.32021">
        <ele>717.4</ele>
        <time>2026-07-08T10:25:48Z</time>
      </trkpt>
      <trkpt lat="43.01479" lon="0.32019">
        <ele>717.4</ele>
        <time>2026-07-08T10:25:49Z</time>
      </trkpt>
      <trkpt lat="43.01479" lon="0.32018">
        <ele>718.4</ele>
        <time>2026-07-08T10:25:49Z</time>
      </trkpt>
      <trkpt lat="43.01479" lon="0.32017">
        <ele>718.4</ele>
        <time>2026-07-08T10:25:50Z</time>
      </trkpt>
      <trkpt lat="43.01479" lon="0.32015">
        <ele>718.4</ele>
        <time>2026-07-08T10:25:51Z</time>
      </trkpt>
      <trkpt lat="43.01479" lon="0.32015">
        <ele>718.4</ele>
        <time>2026-07-08T10:25:51Z</time>
      </trkpt>
      <trkpt lat="43.0148" lon="0.32013">
        <ele>718.4</ele>
        <time>2026-07-08T10:25:52Z</time>
      </trkpt>
      <trkpt lat="43.0148" lon="0.32011">
        <ele>718.4</ele>
        <time>2026-07-08T10:25:53Z</time>
      </trkpt>
      <trkpt lat="43.0148" lon="0.32009">
        <ele>718.4</ele>
        <time>2026-07-08T10:25:54Z</time>
      </trkpt>
      <trkpt lat="43.01481" lon="0.32008">
        <ele>718.4</ele>
        <time>2026-07-08T10:25:54Z</time>
      </trkpt>
      <trkpt lat="43.01481" lon="0.32006">
        <ele>717.4</ele>
        <time>2026-07-08T10:25:55Z</time>
      </trkpt>
      <trkpt lat="43.01481" lon="0.32005">
        <ele>717.4</ele>
        <time>2026-07-08T10:25:56Z</time>
      </trkpt>
      <trkpt lat="43.01481" lon="0.32003">
        <ele>718.4</ele>
        <time>2026-07-08T10:25:56Z</time>
      </trkpt>
      <trkpt lat="43.01481" lon="0.32002">
        <ele>718.4</ele>
        <time>2026-07-08T10:25:57Z</time>
      </trkpt>
      <trkpt lat="43.01481" lon="0.32">
        <ele>718.4</ele>
        <time>2026-07-08T10:25:58Z</time>
      </trkpt>
      <trkpt lat="43.01481" lon="0.31999">
        <ele>718.4</ele>
        <time>2026-07-08T10:25:58Z</time>
      </trkpt>
      <trkpt lat="43.01481" lon="0.31998">
        <ele>718.4</ele>
        <time>2026-07-08T10:25:59Z</time>
      </trkpt>
      <trkpt lat="43.01481" lon="0.31996">
        <ele>718.4</ele>
        <time>2026-07-08T10:26:00Z</time>
      </trkpt>
      <trkpt lat="43.01481" lon="0.31995">
        <ele>718.4</ele>
        <time>2026-07-08T10:26:00Z</time>
      </trkpt>
      <trkpt lat="43.01481" lon="0.31993">
        <ele>718.4</ele>
        <time>2026-07-08T10:26:01Z</time>
      </trkpt>
      <trkpt lat="43.0148" lon="0.31991">
        <ele>718.4</ele>
        <time>2026-07-08T10:26:02Z</time>
      </trkpt>
      <trkpt lat="43.0148" lon="0.31989">
        <ele>718.4</ele>
        <time>2026-07-08T10:26:03Z</time>
      </trkpt>
      <trkpt lat="43.01479" lon="0.31988">
        <ele>719.4</ele>
        <time>2026-07-08T10:26:04Z</time>
      </trkpt>
      <trkpt lat="43.01478" lon="0.31986">
        <ele>719.4</ele>
        <time>2026-07-08T10:26:05Z</time>
      </trkpt>
      <trkpt lat="43.01478" lon="0.31984">
        <ele>719.4</ele>
        <time>2026-07-08T10:26:05Z</time>
      </trkpt>
      <trkpt lat="43.01478" lon="0.31983">
        <ele>718.4</ele>
        <time>2026-07-08T10:26:06Z</time>
      </trkpt>
      <trkpt lat="43.01477" lon="0.31981">
        <ele>718.4</ele>
        <time>2026-07-08T10:26:07Z</time>
      </trkpt>
      <trkpt lat="43.01477" lon="0.3198">
        <ele>719.4</ele>
        <time>2026-07-08T10:26:07Z</time>
      </trkpt>
      <trkpt lat="43.01476" lon="0.31978">
        <ele>719.4</ele>
        <time>2026-07-08T10:26:08Z</time>
      </trkpt>
      <trkpt lat="43.01476" lon="0.31977">
        <ele>719.4</ele>
        <time>2026-07-08T10:26:09Z</time>
      </trkpt>
      <trkpt lat="43.01476" lon="0.31976">
        <ele>719.4</ele>
        <time>2026-07-08T10:26:09Z</time>
      </trkpt>
      <trkpt lat="43.01476" lon="0.31974">
        <ele>718.4</ele>
        <time>2026-07-08T10:26:10Z</time>
      </trkpt>
      <trkpt lat="43.01475" lon="0.31972">
        <ele>718.4</ele>
        <time>2026-07-08T10:26:11Z</time>
      </trkpt>
      <trkpt lat="43.01475" lon="0.31971">
        <ele>718.4</ele>
        <time>2026-07-08T10:26:12Z</time>
      </trkpt>
      <trkpt lat="43.01475" lon="0.31969">
        <ele>718.4</ele>
        <time>2026-07-08T10:26:13Z</time>
      </trkpt>
      <trkpt lat="43.01475" lon="0.31967">
        <ele>718.4</ele>
        <time>2026-07-08T10:26:14Z</time>
      </trkpt>
      <trkpt lat="43.01474" lon="0.31966">
        <ele>718.4</ele>
        <time>2026-07-08T10:26:14Z</time>
      </trkpt>
      <trkpt lat="43.01474" lon="0.31965">
        <ele>718.4</ele>
        <time>2026-07-08T10:26:15Z</time>
      </trkpt>
      <trkpt lat="43.01474" lon="0.31964">
        <ele>718.4</ele>
        <time>2026-07-08T10:26:15Z</time>
      </trkpt>
      <trkpt lat="43.01474" lon="0.31963">
        <ele>718.4</ele>
        <time>2026-07-08T10:26:15Z</time>
      </trkpt>
      <trkpt lat="43.01474" lon="0.31962">
        <ele>718.4</ele>
        <time>2026-07-08T10:26:16Z</time>
      </trkpt>
      <trkpt lat="43.01474" lon="0.31961">
        <ele>718.4</ele>
        <time>2026-07-08T10:26:17Z</time>
      </trkpt>
      <trkpt lat="43.01474" lon="0.3196">
        <ele>718.4</ele>
        <time>2026-07-08T10:26:17Z</time>
      </trkpt>
      <trkpt lat="43.01474" lon="0.31959">
        <ele>718.4</ele>
        <time>2026-07-08T10:26:18Z</time>
      </trkpt>
      <trkpt lat="43.01474" lon="0.31958">
        <ele>719.4</ele>
        <time>2026-07-08T10:26:18Z</time>
      </trkpt>
      <trkpt lat="43.01474" lon="0.31956">
        <ele>719.4</ele>
        <time>2026-07-08T10:26:19Z</time>
      </trkpt>
      <trkpt lat="43.01474" lon="0.31954">
        <ele>719.4</ele>
        <time>2026-07-08T10:26:20Z</time>
      </trkpt>
      <trkpt lat="43.01473" lon="0.31952">
        <ele>719.4</ele>
        <time>2026-07-08T10:26:21Z</time>
      </trkpt>
      <trkpt lat="43.01473" lon="0.3195">
        <ele>719.4</ele>
        <time>2026-07-08T10:26:22Z</time>
      </trkpt>
      <trkpt lat="43.01473" lon="0.31948">
        <ele>718.4</ele>
        <time>2026-07-08T10:26:23Z</time>
      </trkpt>
      <trkpt lat="43.01473" lon="0.31946">
        <ele>718.4</ele>
        <time>2026-07-08T10:26:24Z</time>
      </trkpt>
      <trkpt lat="43.01473" lon="0.31945">
        <ele>718.4</ele>
        <time>2026-07-08T10:26:24Z</time>
      </trkpt>
      <trkpt lat="43.01473" lon="0.31944">
        <ele>718.4</ele>
        <time>2026-07-08T10:26:25Z</time>
      </trkpt>
      <trkpt lat="43.01473" lon="0.31943">
        <ele>717.4</ele>
        <time>2026-07-08T10:26:25Z</time>
      </trkpt>
      <trkpt lat="43.01473" lon="0.31941">
        <ele>717.4</ele>
        <time>2026-07-08T10:26:26Z</time>
      </trkpt>
      <trkpt lat="43.01473" lon="0.3194">
        <ele>717.4</ele>
        <time>2026-07-08T10:26:27Z</time>
      </trkpt>
      <trkpt lat="43.01472" lon="0.31939">
        <ele>718.4</ele>
        <time>2026-07-08T10:26:27Z</time>
      </trkpt>
      <trkpt lat="43.01472" lon="0.31937">
        <ele>717.4</ele>
        <time>2026-07-08T10:26:28Z</time>
      </trkpt>
      <trkpt lat="43.01472" lon="0.31936">
        <ele>717.4</ele>
        <time>2026-07-08T10:26:29Z</time>
      </trkpt>
      <trkpt lat="43.01472" lon="0.31935">
        <ele>717.4</ele>
        <time>2026-07-08T10:26:29Z</time>
      </trkpt>
      <trkpt lat="43.01472" lon="0.31934">
        <ele>716.4</ele>
        <time>2026-07-08T10:26:30Z</time>
      </trkpt>
      <trkpt lat="43.01472" lon="0.31932">
        <ele>717.4</ele>
        <time>2026-07-08T10:26:31Z</time>
      </trkpt>
      <trkpt lat="43.01472" lon="0.31931">
        <ele>716.4</ele>
        <time>2026-07-08T10:26:32Z</time>
      </trkpt>
      <trkpt lat="43.01472" lon="0.3193">
        <ele>716.4</ele>
        <time>2026-07-08T10:26:33Z</time>
      </trkpt>
      <trkpt lat="43.01471" lon="0.31929">
        <ele>716.4</ele>
        <time>2026-07-08T10:26:33Z</time>
      </trkpt>
      <trkpt lat="43.01471" lon="0.31928">
        <ele>716.4</ele>
        <time>2026-07-08T10:26:34Z</time>
      </trkpt>
      <trkpt lat="43.01471" lon="0.31926">
        <ele>716.4</ele>
        <time>2026-07-08T10:26:35Z</time>
      </trkpt>
      <trkpt lat="43.01471" lon="0.31925">
        <ele>716.4</ele>
        <time>2026-07-08T10:26:35Z</time>
      </trkpt>
      <trkpt lat="43.01471" lon="0.31924">
        <ele>716.4</ele>
        <time>2026-07-08T10:26:36Z</time>
      </trkpt>
      <trkpt lat="43.01471" lon="0.31923">
        <ele>715.4</ele>
        <time>2026-07-08T10:26:36Z</time>
      </trkpt>
      <trkpt lat="43.01471" lon="0.31922">
        <ele>715.4</ele>
        <time>2026-07-08T10:26:37Z</time>
      </trkpt>
      <trkpt lat="43.01471" lon="0.31921">
        <ele>715.4</ele>
        <time>2026-07-08T10:26:38Z</time>
      </trkpt>
      <trkpt lat="43.01471" lon="0.3192">
        <ele>714.4</ele>
        <time>2026-07-08T10:26:38Z</time>
      </trkpt>
      <trkpt lat="43.01471" lon="0.31919">
        <ele>714.4</ele>
        <time>2026-07-08T10:26:39Z</time>
      </trkpt>
      <trkpt lat="43.01471" lon="0.31918">
        <ele>714.4</ele>
        <time>2026-07-08T10:26:39Z</time>
      </trkpt>
      <trkpt lat="43.01471" lon="0.31917">
        <ele>714.4</ele>
        <time>2026-07-08T10:26:40Z</time>
      </trkpt>
      <trkpt lat="43.01471" lon="0.31916">
        <ele>714.4</ele>
        <time>2026-07-08T10:26:40Z</time>
      </trkpt>
      <trkpt lat="43.01471" lon="0.31915">
        <ele>714.4</ele>
        <time>2026-07-08T10:26:41Z</time>
      </trkpt>
      <trkpt lat="43.0147" lon="0.31914">
        <ele>714.4</ele>
        <time>2026-07-08T10:26:41Z</time>
      </trkpt>
      <trkpt lat="43.0147" lon="0.31913">
        <ele>714.4</ele>
        <time>2026-07-08T10:26:42Z</time>
      </trkpt>
      <trkpt lat="43.0147" lon="0.31912">
        <ele>714.4</ele>
        <time>2026-07-08T10:26:43Z</time>
      </trkpt>
      <trkpt lat="43.0147" lon="0.31911">
        <ele>713.4</ele>
        <time>2026-07-08T10:26:43Z</time>
      </trkpt>
      <trkpt lat="43.01471" lon="0.31909">
        <ele>713.4</ele>
        <time>2026-07-08T10:26:44Z</time>
      </trkpt>
      <trkpt lat="43.01471" lon="0.31908">
        <ele>713.4</ele>
        <time>2026-07-08T10:26:45Z</time>
      </trkpt>
      <trkpt lat="43.01471" lon="0.31907">
        <ele>713.4</ele>
        <time>2026-07-08T10:26:45Z</time>
      </trkpt>
      <trkpt lat="43.01471" lon="0.31906">
        <ele>713.4</ele>
        <time>2026-07-08T10:26:46Z</time>
      </trkpt>
      <trkpt lat="43.01471" lon="0.31905">
        <ele>713.4</ele>
        <time>2026-07-08T10:26:46Z</time>
      </trkpt>
      <trkpt lat="43.01471" lon="0.31904">
        <ele>713.4</ele>
        <time>2026-07-08T10:26:47Z</time>
      </trkpt>
      <trkpt lat="43.01471" lon="0.31903">
        <ele>713.4</ele>
        <time>2026-07-08T10:26:47Z</time>
      </trkpt>
      <trkpt lat="43.01471" lon="0.31902">
        <ele>713.4</ele>
        <time>2026-07-08T10:26:48Z</time>
      </trkpt>
      <trkpt lat="43.01472" lon="0.319">
        <ele>714.4</ele>
        <time>2026-07-08T10:26:49Z</time>
      </trkpt>
      <trkpt lat="43.01472" lon="0.31899">
        <ele>714.4</ele>
        <time>2026-07-08T10:26:49Z</time>
      </trkpt>
      <trkpt lat="43.01472" lon="0.31898">
        <ele>714.4</ele>
        <time>2026-07-08T10:26:50Z</time>
      </trkpt>
      <trkpt lat="43.01472" lon="0.31898">
        <ele>713.4</ele>
        <time>2026-07-08T10:26:50Z</time>
      </trkpt>
      <trkpt lat="43.01472" lon="0.31897">
        <ele>713.4</ele>
        <time>2026-07-08T10:26:51Z</time>
      </trkpt>
      <trkpt lat="43.01472" lon="0.31896">
        <ele>713.4</ele>
        <time>2026-07-08T10:26:51Z</time>
      </trkpt>
      <trkpt lat="43.01472" lon="0.31895">
        <ele>713.4</ele>
        <time>2026-07-08T10:26:52Z</time>
      </trkpt>
      <trkpt lat="43.01472" lon="0.31893">
        <ele>713.4</ele>
        <time>2026-07-08T10:26:53Z</time>
      </trkpt>
      <trkpt lat="43.01472" lon="0.31891">
        <ele>713.4</ele>
        <time>2026-07-08T10:26:53Z</time>
      </trkpt>
      <trkpt lat="43.01472" lon="0.3189">
        <ele>713.4</ele>
        <time>2026-07-08T10:26:54Z</time>
      </trkpt>
      <trkpt lat="43.01472" lon="0.31889">
        <ele>712.4</ele>
        <time>2026-07-08T10:26:54Z</time>
      </trkpt>
      <trkpt lat="43.01472" lon="0.31889">
        <ele>712.4</ele>
        <time>2026-07-08T10:26:55Z</time>
      </trkpt>
      <trkpt lat="43.01472" lon="0.31888">
        <ele>712.4</ele>
        <time>2026-07-08T10:26:55Z</time>
      </trkpt>
      <trkpt lat="43.01472" lon="0.31887">
        <ele>712.4</ele>
        <time>2026-07-08T10:26:56Z</time>
      </trkpt>
      <trkpt lat="43.01472" lon="0.31886">
        <ele>712.4</ele>
        <time>2026-07-08T10:26:56Z</time>
      </trkpt>
      <trkpt lat="43.01472" lon="0.31885">
        <ele>711.4</ele>
        <time>2026-07-08T10:26:57Z</time>
      </trkpt>
      <trkpt lat="43.01472" lon="0.31883">
        <ele>711.4</ele>
        <time>2026-07-08T10:26:58Z</time>
      </trkpt>
      <trkpt lat="43.01473" lon="0.31882">
        <ele>711.4</ele>
        <time>2026-07-08T10:26:59Z</time>
      </trkpt>
      <trkpt lat="43.01473" lon="0.31881">
        <ele>711.4</ele>
        <time>2026-07-08T10:26:59Z</time>
      </trkpt>
      <trkpt lat="43.01473" lon="0.3188">
        <ele>711.4</ele>
        <time>2026-07-08T10:27:00Z</time>
      </trkpt>
      <trkpt lat="43.01474" lon="0.3188">
        <ele>711.4</ele>
        <time>2026-07-08T10:27:00Z</time>
      </trkpt>
      <trkpt lat="43.01474" lon="0.31879">
        <ele>711.4</ele>
        <time>2026-07-08T10:27:01Z</time>
      </trkpt>
      <trkpt lat="43.01474" lon="0.31879">
        <ele>710.4</ele>
        <time>2026-07-08T10:27:01Z</time>
      </trkpt>
      <trkpt lat="43.01475" lon="0.31878">
        <ele>710.4</ele>
        <time>2026-07-08T10:27:02Z</time>
      </trkpt>
      <trkpt lat="43.01475" lon="0.31877">
        <ele>710.4</ele>
        <time>2026-07-08T10:27:02Z</time>
      </trkpt>
      <trkpt lat="43.01476" lon="0.31877">
        <ele>710.4</ele>
        <time>2026-07-08T10:27:03Z</time>
      </trkpt>
      <trkpt lat="43.01476" lon="0.31876">
        <ele>710.4</ele>
        <time>2026-07-08T10:27:03Z</time>
      </trkpt>
      <trkpt lat="43.01477" lon="0.31876">
        <ele>710.4</ele>
        <time>2026-07-08T10:27:04Z</time>
      </trkpt>
      <trkpt lat="43.01478" lon="0.31875">
        <ele>710.4</ele>
        <time>2026-07-08T10:27:04Z</time>
      </trkpt>
      <trkpt lat="43.01478" lon="0.31874">
        <ele>710.4</ele>
        <time>2026-07-08T10:27:05Z</time>
      </trkpt>
      <trkpt lat="43.01479" lon="0.31874">
        <ele>711.4</ele>
        <time>2026-07-08T10:27:05Z</time>
      </trkpt>
      <trkpt lat="43.0148" lon="0.31873">
        <ele>711.4</ele>
        <time>2026-07-08T10:27:06Z</time>
      </trkpt>
      <trkpt lat="43.0148" lon="0.31872">
        <ele>711.4</ele>
        <time>2026-07-08T10:27:07Z</time>
      </trkpt>
      <trkpt lat="43.01481" lon="0.31872">
        <ele>711.4</ele>
        <time>2026-07-08T10:27:07Z</time>
      </trkpt>
      <trkpt lat="43.01482" lon="0.31871">
        <ele>711.4</ele>
        <time>2026-07-08T10:27:08Z</time>
      </trkpt>
      <trkpt lat="43.01482" lon="0.3187">
        <ele>711.4</ele>
        <time>2026-07-08T10:27:08Z</time>
      </trkpt>
      <trkpt lat="43.01483" lon="0.3187">
        <ele>711.4</ele>
        <time>2026-07-08T10:27:09Z</time>
      </trkpt>
      <trkpt lat="43.01483" lon="0.31869">
        <ele>712.4</ele>
        <time>2026-07-08T10:27:09Z</time>
      </trkpt>
      <trkpt lat="43.01483" lon="0.31869">
        <ele>712.4</ele>
        <time>2026-07-08T10:27:10Z</time>
      </trkpt>
      <trkpt lat="43.01483" lon="0.31868">
        <ele>712.4</ele>
        <time>2026-07-08T10:27:10Z</time>
      </trkpt>
      <trkpt lat="43.01484" lon="0.31868">
        <ele>712.4</ele>
        <time>2026-07-08T10:27:11Z</time>
      </trkpt>
      <trkpt lat="43.01484" lon="0.31867">
        <ele>712.4</ele>
        <time>2026-07-08T10:27:11Z</time>
      </trkpt>
      <trkpt lat="43.01485" lon="0.31867">
        <ele>712.4</ele>
        <time>2026-07-08T10:27:12Z</time>
      </trkpt>
      <trkpt lat="43.01485" lon="0.31866">
        <ele>712.4</ele>
        <time>2026-07-08T10:27:12Z</time>
      </trkpt>
      <trkpt lat="43.01486" lon="0.31866">
        <ele>712.4</ele>
        <time>2026-07-08T10:27:13Z</time>
      </trkpt>
      <trkpt lat="43.01487" lon="0.31865">
        <ele>712.4</ele>
        <time>2026-07-08T10:27:13Z</time>
      </trkpt>
      <trkpt lat="43.01487" lon="0.31864">
        <ele>712.4</ele>
        <time>2026-07-08T10:27:14Z</time>
      </trkpt>
      <trkpt lat="43.01488" lon="0.31863">
        <ele>712.4</ele>
        <time>2026-07-08T10:27:15Z</time>
      </trkpt>
      <trkpt lat="43.01488" lon="0.31863">
        <ele>712.4</ele>
        <time>2026-07-08T10:27:15Z</time>
      </trkpt>
      <trkpt lat="43.01489" lon="0.31862">
        <ele>712.4</ele>
        <time>2026-07-08T10:27:16Z</time>
      </trkpt>
      <trkpt lat="43.0149" lon="0.31862">
        <ele>712.4</ele>
        <time>2026-07-08T10:27:17Z</time>
      </trkpt>
      <trkpt lat="43.01491" lon="0.31862">
        <ele>712.4</ele>
        <time>2026-07-08T10:27:17Z</time>
      </trkpt>
      <trkpt lat="43.01491" lon="0.31862">
        <ele>712.4</ele>
        <time>2026-07-08T10:27:18Z</time>
      </trkpt>
      <trkpt lat="43.01492" lon="0.31862">
        <ele>712.4</ele>
        <time>2026-07-08T10:27:18Z</time>
      </trkpt>
      <trkpt lat="43.01492" lon="0.31862">
        <ele>712.4</ele>
        <time>2026-07-08T10:27:19Z</time>
      </trkpt>
      <trkpt lat="43.01493" lon="0.31862">
        <ele>712.4</ele>
        <time>2026-07-08T10:27:19Z</time>
      </trkpt>
      <trkpt lat="43.01494" lon="0.31862">
        <ele>712.4</ele>
        <time>2026-07-08T10:27:20Z</time>
      </trkpt>
      <trkpt lat="43.01495" lon="0.31862">
        <ele>712.4</ele>
        <time>2026-07-08T10:27:21Z</time>
      </trkpt>
      <trkpt lat="43.01495" lon="0.31862">
        <ele>712.4</ele>
        <time>2026-07-08T10:27:21Z</time>
      </trkpt>
      <trkpt lat="43.01496" lon="0.31862">
        <ele>712.4</ele>
        <time>2026-07-08T10:27:22Z</time>
      </trkpt>
      <trkpt lat="43.01497" lon="0.31863">
        <ele>712.4</ele>
        <time>2026-07-08T10:27:23Z</time>
      </trkpt>
      <trkpt lat="43.01498" lon="0.31864">
        <ele>712.4</ele>
        <time>2026-07-08T10:27:23Z</time>
      </trkpt>
      <trkpt lat="43.01499" lon="0.31864">
        <ele>712.4</ele>
        <time>2026-07-08T10:27:24Z</time>
      </trkpt>
      <trkpt lat="43.015" lon="0.31865">
        <ele>712.4</ele>
        <time>2026-07-08T10:27:25Z</time>
      </trkpt>
      <trkpt lat="43.01501" lon="0.31867">
        <ele>712.4</ele>
        <time>2026-07-08T10:27:26Z</time>
      </trkpt>
      <trkpt lat="43.01502" lon="0.31868">
        <ele>713.4</ele>
        <time>2026-07-08T10:27:27Z</time>
      </trkpt>
      <trkpt lat="43.01502" lon="0.31869">
        <ele>712.4</ele>
        <time>2026-07-08T10:27:27Z</time>
      </trkpt>
      <trkpt lat="43.01503" lon="0.3187">
        <ele>712.4</ele>
        <time>2026-07-08T10:27:28Z</time>
      </trkpt>
      <trkpt lat="43.01503" lon="0.31871">
        <ele>712.4</ele>
        <time>2026-07-08T10:27:28Z</time>
      </trkpt>
      <trkpt lat="43.01504" lon="0.31872">
        <ele>712.4</ele>
        <time>2026-07-08T10:27:29Z</time>
      </trkpt>
      <trkpt lat="43.01504" lon="0.31875">
        <ele>712.4</ele>
        <time>2026-07-08T10:27:30Z</time>
      </trkpt>
      <trkpt lat="43.01505" lon="0.31876">
        <ele>712.4</ele>
        <time>2026-07-08T10:27:31Z</time>
      </trkpt>
      <trkpt lat="43.01505" lon="0.31877">
        <ele>712.4</ele>
        <time>2026-07-08T10:27:31Z</time>
      </trkpt>
      <trkpt lat="43.01505" lon="0.31878">
        <ele>712.4</ele>
        <time>2026-07-08T10:27:32Z</time>
      </trkpt>
      <trkpt lat="43.01505" lon="0.31879">
        <ele>712.4</ele>
        <time>2026-07-08T10:27:32Z</time>
      </trkpt>
      <trkpt lat="43.01505" lon="0.3188">
        <ele>712.4</ele>
        <time>2026-07-08T10:27:33Z</time>
      </trkpt>
      <trkpt lat="43.01505" lon="0.31882">
        <ele>711.4</ele>
        <time>2026-07-08T10:27:33Z</time>
      </trkpt>
      <trkpt lat="43.01505" lon="0.31883">
        <ele>711.4</ele>
        <time>2026-07-08T10:27:34Z</time>
      </trkpt>
      <trkpt lat="43.01506" lon="0.31884">
        <ele>711.4</ele>
        <time>2026-07-08T10:27:35Z</time>
      </trkpt>
      <trkpt lat="43.01506" lon="0.31886">
        <ele>711.4</ele>
        <time>2026-07-08T10:27:36Z</time>
      </trkpt>
      <trkpt lat="43.01506" lon="0.31887">
        <ele>711.4</ele>
        <time>2026-07-08T10:27:36Z</time>
      </trkpt>
      <trkpt lat="43.01507" lon="0.31889">
        <ele>711.4</ele>
        <time>2026-07-08T10:27:37Z</time>
      </trkpt>
      <trkpt lat="43.01507" lon="0.3189">
        <ele>710.4</ele>
        <time>2026-07-08T10:27:38Z</time>
      </trkpt>
      <trkpt lat="43.01508" lon="0.31892">
        <ele>710.4</ele>
        <time>2026-07-08T10:27:39Z</time>
      </trkpt>
      <trkpt lat="43.01508" lon="0.31894">
        <ele>711.4</ele>
        <time>2026-07-08T10:27:40Z</time>
      </trkpt>
      <trkpt lat="43.01509" lon="0.31896">
        <ele>711.4</ele>
        <time>2026-07-08T10:27:41Z</time>
      </trkpt>
      <trkpt lat="43.01509" lon="0.31898">
        <ele>711.4</ele>
        <time>2026-07-08T10:27:41Z</time>
      </trkpt>
      <trkpt lat="43.01509" lon="0.319">
        <ele>711.4</ele>
        <time>2026-07-08T10:27:42Z</time>
      </trkpt>
      <trkpt lat="43.01509" lon="0.31901">
        <ele>711.4</ele>
        <time>2026-07-08T10:27:43Z</time>
      </trkpt>
      <trkpt lat="43.01509" lon="0.31903">
        <ele>711.4</ele>
        <time>2026-07-08T10:27:43Z</time>
      </trkpt>
      <trkpt lat="43.0151" lon="0.31905">
        <ele>711.4</ele>
        <time>2026-07-08T10:27:44Z</time>
      </trkpt>
      <trkpt lat="43.0151" lon="0.31907">
        <ele>711.4</ele>
        <time>2026-07-08T10:27:45Z</time>
      </trkpt>
      <trkpt lat="43.0151" lon="0.31907">
        <ele>710.4</ele>
        <time>2026-07-08T10:27:45Z</time>
      </trkpt>
      <trkpt lat="43.0151" lon="0.31909">
        <ele>710.4</ele>
        <time>2026-07-08T10:27:46Z</time>
      </trkpt>
      <trkpt lat="43.0151" lon="0.3191">
        <ele>709.4</ele>
        <time>2026-07-08T10:27:47Z</time>
      </trkpt>
      <trkpt lat="43.0151" lon="0.31911">
        <ele>709.4</ele>
        <time>2026-07-08T10:27:47Z</time>
      </trkpt>
      <trkpt lat="43.01511" lon="0.31913">
        <ele>709.4</ele>
        <time>2026-07-08T10:27:48Z</time>
      </trkpt>
      <trkpt lat="43.01511" lon="0.31915">
        <ele>709.4</ele>
        <time>2026-07-08T10:27:49Z</time>
      </trkpt>
      <trkpt lat="43.01511" lon="0.31916">
        <ele>710.4</ele>
        <time>2026-07-08T10:27:49Z</time>
      </trkpt>
      <trkpt lat="43.01511" lon="0.31917">
        <ele>709.4</ele>
        <time>2026-07-08T10:27:50Z</time>
      </trkpt>
      <trkpt lat="43.01512" lon="0.31919">
        <ele>709.4</ele>
        <time>2026-07-08T10:27:50Z</time>
      </trkpt>
      <trkpt lat="43.01512" lon="0.3192">
        <ele>709.4</ele>
        <time>2026-07-08T10:27:51Z</time>
      </trkpt>
      <trkpt lat="43.01512" lon="0.31921">
        <ele>709.4</ele>
        <time>2026-07-08T10:27:52Z</time>
      </trkpt>
      <trkpt lat="43.01512" lon="0.31923">
        <ele>709.4</ele>
        <time>2026-07-08T10:27:53Z</time>
      </trkpt>
      <trkpt lat="43.01513" lon="0.31924">
        <ele>709.4</ele>
        <time>2026-07-08T10:27:54Z</time>
      </trkpt>
      <trkpt lat="43.01513" lon="0.31926">
        <ele>710.4</ele>
        <time>2026-07-08T10:27:55Z</time>
      </trkpt>
      <trkpt lat="43.01514" lon="0.31927">
        <ele>710.4</ele>
        <time>2026-07-08T10:27:55Z</time>
      </trkpt>
      <trkpt lat="43.01514" lon="0.31928">
        <ele>710.4</ele>
        <time>2026-07-08T10:27:56Z</time>
      </trkpt>
      <trkpt lat="43.01514" lon="0.31929">
        <ele>710.4</ele>
        <time>2026-07-08T10:27:56Z</time>
      </trkpt>
      <trkpt lat="43.01515" lon="0.31931">
        <ele>710.4</ele>
        <time>2026-07-08T10:27:57Z</time>
      </trkpt>
      <trkpt lat="43.01515" lon="0.31931">
        <ele>710.4</ele>
        <time>2026-07-08T10:27:57Z</time>
      </trkpt>
      <trkpt lat="43.01515" lon="0.31932">
        <ele>710.4</ele>
        <time>2026-07-08T10:27:58Z</time>
      </trkpt>
      <trkpt lat="43.01515" lon="0.31933">
        <ele>710.4</ele>
        <time>2026-07-08T10:27:58Z</time>
      </trkpt>
      <trkpt lat="43.01516" lon="0.31934">
        <ele>710.4</ele>
        <time>2026-07-08T10:27:59Z</time>
      </trkpt>
      <trkpt lat="43.01516" lon="0.31936">
        <ele>711.4</ele>
        <time>2026-07-08T10:28:00Z</time>
      </trkpt>
      <trkpt lat="43.01517" lon="0.31937">
        <ele>710.4</ele>
        <time>2026-07-08T10:28:00Z</time>
      </trkpt>
      <trkpt lat="43.01517" lon="0.31938">
        <ele>710.4</ele>
        <time>2026-07-08T10:28:01Z</time>
      </trkpt>
      <trkpt lat="43.01518" lon="0.31938">
        <ele>709.4</ele>
        <time>2026-07-08T10:28:01Z</time>
      </trkpt>
      <trkpt lat="43.01518" lon="0.31939">
        <ele>709.4</ele>
        <time>2026-07-08T10:28:02Z</time>
      </trkpt>
      <trkpt lat="43.01519" lon="0.3194">
        <ele>709.4</ele>
        <time>2026-07-08T10:28:02Z</time>
      </trkpt>
      <trkpt lat="43.01519" lon="0.31941">
        <ele>709.4</ele>
        <time>2026-07-08T10:28:03Z</time>
      </trkpt>
      <trkpt lat="43.0152" lon="0.31942">
        <ele>710.4</ele>
        <time>2026-07-08T10:28:03Z</time>
      </trkpt>
      <trkpt lat="43.0152" lon="0.31943">
        <ele>710.4</ele>
        <time>2026-07-08T10:28:04Z</time>
      </trkpt>
      <trkpt lat="43.01521" lon="0.31943">
        <ele>709.4</ele>
        <time>2026-07-08T10:28:04Z</time>
      </trkpt>
      <trkpt lat="43.01521" lon="0.31944">
        <ele>709.4</ele>
        <time>2026-07-08T10:28:05Z</time>
      </trkpt>
      <trkpt lat="43.01522" lon="0.31945">
        <ele>709.4</ele>
        <time>2026-07-08T10:28:05Z</time>
      </trkpt>
      <trkpt lat="43.01522" lon="0.31946">
        <ele>709.4</ele>
        <time>2026-07-08T10:28:06Z</time>
      </trkpt>
      <trkpt lat="43.01522" lon="0.31946">
        <ele>708.4</ele>
        <time>2026-07-08T10:28:06Z</time>
      </trkpt>
      <trkpt lat="43.01523" lon="0.31947">
        <ele>708.4</ele>
        <time>2026-07-08T10:28:07Z</time>
      </trkpt>
      <trkpt lat="43.01524" lon="0.31947">
        <ele>708.4</ele>
        <time>2026-07-08T10:28:07Z</time>
      </trkpt>
      <trkpt lat="43.01524" lon="0.31948">
        <ele>708.4</ele>
        <time>2026-07-08T10:28:08Z</time>
      </trkpt>
      <trkpt lat="43.01525" lon="0.31948">
        <ele>708.4</ele>
        <time>2026-07-08T10:28:08Z</time>
      </trkpt>
      <trkpt lat="43.01525" lon="0.31949">
        <ele>708.4</ele>
        <time>2026-07-08T10:28:09Z</time>
      </trkpt>
      <trkpt lat="43.01526" lon="0.3195">
        <ele>708.4</ele>
        <time>2026-07-08T10:28:09Z</time>
      </trkpt>
      <trkpt lat="43.01526" lon="0.3195">
        <ele>708.4</ele>
        <time>2026-07-08T10:28:10Z</time>
      </trkpt>
      <trkpt lat="43.01527" lon="0.31951">
        <ele>708.4</ele>
        <time>2026-07-08T10:28:10Z</time>
      </trkpt>
      <trkpt lat="43.01527" lon="0.31951">
        <ele>708.4</ele>
        <time>2026-07-08T10:28:11Z</time>
      </trkpt>
      <trkpt lat="43.01528" lon="0.31952">
        <ele>708.4</ele>
        <time>2026-07-08T10:28:11Z</time>
      </trkpt>
      <trkpt lat="43.01528" lon="0.31952">
        <ele>708.4</ele>
        <time>2026-07-08T10:28:12Z</time>
      </trkpt>
      <trkpt lat="43.01529" lon="0.31953">
        <ele>708.4</ele>
        <time>2026-07-08T10:28:12Z</time>
      </trkpt>
      <trkpt lat="43.01529" lon="0.31954">
        <ele>708.4</ele>
        <time>2026-07-08T10:28:13Z</time>
      </trkpt>
      <trkpt lat="43.01529" lon="0.31954">
        <ele>707.4</ele>
        <time>2026-07-08T10:28:13Z</time>
      </trkpt>
      <trkpt lat="43.0153" lon="0.31955">
        <ele>707.4</ele>
        <time>2026-07-08T10:28:14Z</time>
      </trkpt>
      <trkpt lat="43.0153" lon="0.31955">
        <ele>708.4</ele>
        <time>2026-07-08T10:28:14Z</time>
      </trkpt>
      <trkpt lat="43.01531" lon="0.31956">
        <ele>708.4</ele>
        <time>2026-07-08T10:28:15Z</time>
      </trkpt>
      <trkpt lat="43.01531" lon="0.31956">
        <ele>708.4</ele>
        <time>2026-07-08T10:28:15Z</time>
      </trkpt>
      <trkpt lat="43.01532" lon="0.31957">
        <ele>708.4</ele>
        <time>2026-07-08T10:28:16Z</time>
      </trkpt>
      <trkpt lat="43.01532" lon="0.31958">
        <ele>708.4</ele>
        <time>2026-07-08T10:28:16Z</time>
      </trkpt>
      <trkpt lat="43.01533" lon="0.31958">
        <ele>708.4</ele>
        <time>2026-07-08T10:28:17Z</time>
      </trkpt>
      <trkpt lat="43.01534" lon="0.31959">
        <ele>707.4</ele>
        <time>2026-07-08T10:28:17Z</time>
      </trkpt>
      <trkpt lat="43.01534" lon="0.31959">
        <ele>707.4</ele>
        <time>2026-07-08T10:28:18Z</time>
      </trkpt>
      <trkpt lat="43.01535" lon="0.3196">
        <ele>708.4</ele>
        <time>2026-07-08T10:28:18Z</time>
      </trkpt>
      <trkpt lat="43.01535" lon="0.31961">
        <ele>708.4</ele>
        <time>2026-07-08T10:28:19Z</time>
      </trkpt>
      <trkpt lat="43.01536" lon="0.31961">
        <ele>708.4</ele>
        <time>2026-07-08T10:28:19Z</time>
      </trkpt>
      <trkpt lat="43.01536" lon="0.31962">
        <ele>708.4</ele>
        <time>2026-07-08T10:28:20Z</time>
      </trkpt>
      <trkpt lat="43.01537" lon="0.31963">
        <ele>707.4</ele>
        <time>2026-07-08T10:28:20Z</time>
      </trkpt>
      <trkpt lat="43.01537" lon="0.31963">
        <ele>707.4</ele>
        <time>2026-07-08T10:28:21Z</time>
      </trkpt>
      <trkpt lat="43.01538" lon="0.31964">
        <ele>707.4</ele>
        <time>2026-07-08T10:28:21Z</time>
      </trkpt>
      <trkpt lat="43.01539" lon="0.31965">
        <ele>707.4</ele>
        <time>2026-07-08T10:28:22Z</time>
      </trkpt>
      <trkpt lat="43.01539" lon="0.31965">
        <ele>707.4</ele>
        <time>2026-07-08T10:28:22Z</time>
      </trkpt>
      <trkpt lat="43.0154" lon="0.31966">
        <ele>707.4</ele>
        <time>2026-07-08T10:28:23Z</time>
      </trkpt>
      <trkpt lat="43.0154" lon="0.31966">
        <ele>706.4</ele>
        <time>2026-07-08T10:28:24Z</time>
      </trkpt>
      <trkpt lat="43.0154" lon="0.31967">
        <ele>706.4</ele>
        <time>2026-07-08T10:28:24Z</time>
      </trkpt>
      <trkpt lat="43.01541" lon="0.31967">
        <ele>706.4</ele>
        <time>2026-07-08T10:28:25Z</time>
      </trkpt>
      <trkpt lat="43.01541" lon="0.31968">
        <ele>706.4</ele>
        <time>2026-07-08T10:28:25Z</time>
      </trkpt>
      <trkpt lat="43.01542" lon="0.31969">
        <ele>706.4</ele>
        <time>2026-07-08T10:28:26Z</time>
      </trkpt>
      <trkpt lat="43.01542" lon="0.31969">
        <ele>707.4</ele>
        <time>2026-07-08T10:28:26Z</time>
      </trkpt>
      <trkpt lat="43.01543" lon="0.3197">
        <ele>707.4</ele>
        <time>2026-07-08T10:28:27Z</time>
      </trkpt>
      <trkpt lat="43.01543" lon="0.31971">
        <ele>707.4</ele>
        <time>2026-07-08T10:28:27Z</time>
      </trkpt>
      <trkpt lat="43.01544" lon="0.31972">
        <ele>707.4</ele>
        <time>2026-07-08T10:28:28Z</time>
      </trkpt>
      <trkpt lat="43.01544" lon="0.31972">
        <ele>707.4</ele>
        <time>2026-07-08T10:28:28Z</time>
      </trkpt>
      <trkpt lat="43.01545" lon="0.31973">
        <ele>707.4</ele>
        <time>2026-07-08T10:28:29Z</time>
      </trkpt>
      <trkpt lat="43.01546" lon="0.31974">
        <ele>707.4</ele>
        <time>2026-07-08T10:28:29Z</time>
      </trkpt>
      <trkpt lat="43.01547" lon="0.31975">
        <ele>707.4</ele>
        <time>2026-07-08T10:28:30Z</time>
      </trkpt>
      <trkpt lat="43.01547" lon="0.31976">
        <ele>707.4</ele>
        <time>2026-07-08T10:28:31Z</time>
      </trkpt>
      <trkpt lat="43.01549" lon="0.31977">
        <ele>706.4</ele>
        <time>2026-07-08T10:28:32Z</time>
      </trkpt>
      <trkpt lat="43.01549" lon="0.31978">
        <ele>706.4</ele>
        <time>2026-07-08T10:28:32Z</time>
      </trkpt>
      <trkpt lat="43.0155" lon="0.31979">
        <ele>707.4</ele>
        <time>2026-07-08T10:28:33Z</time>
      </trkpt>
      <trkpt lat="43.01551" lon="0.31981">
        <ele>707.4</ele>
        <time>2026-07-08T10:28:34Z</time>
      </trkpt>
      <trkpt lat="43.01553" lon="0.31982">
        <ele>706.4</ele>
        <time>2026-07-08T10:28:35Z</time>
      </trkpt>
      <trkpt lat="43.01554" lon="0.31984">
        <ele>706.4</ele>
        <time>2026-07-08T10:28:36Z</time>
      </trkpt>
      <trkpt lat="43.01555" lon="0.31984">
        <ele>705.4</ele>
        <time>2026-07-08T10:28:36Z</time>
      </trkpt>
      <trkpt lat="43.01556" lon="0.31986">
        <ele>705.4</ele>
        <time>2026-07-08T10:28:37Z</time>
      </trkpt>
      <trkpt lat="43.01556" lon="0.31986">
        <ele>706.4</ele>
        <time>2026-07-08T10:28:37Z</time>
      </trkpt>
      <trkpt lat="43.01557" lon="0.31987">
        <ele>706.4</ele>
        <time>2026-07-08T10:28:38Z</time>
      </trkpt>
      <trkpt lat="43.01557" lon="0.31987">
        <ele>706.4</ele>
        <time>2026-07-08T10:28:38Z</time>
      </trkpt>
      <trkpt lat="43.01558" lon="0.31988">
        <ele>705.4</ele>
        <time>2026-07-08T10:28:39Z</time>
      </trkpt>
      <trkpt lat="43.01559" lon="0.31989">
        <ele>705.4</ele>
        <time>2026-07-08T10:28:40Z</time>
      </trkpt>
      <trkpt lat="43.0156" lon="0.31991">
        <ele>705.4</ele>
        <time>2026-07-08T10:28:41Z</time>
      </trkpt>
      <trkpt lat="43.01561" lon="0.31992">
        <ele>704.4</ele>
        <time>2026-07-08T10:28:41Z</time>
      </trkpt>
      <trkpt lat="43.01561" lon="0.31993">
        <ele>704.4</ele>
        <time>2026-07-08T10:28:42Z</time>
      </trkpt>
      <trkpt lat="43.01562" lon="0.31993">
        <ele>703.4</ele>
        <time>2026-07-08T10:28:42Z</time>
      </trkpt>
      <trkpt lat="43.01562" lon="0.31994">
        <ele>703.4</ele>
        <time>2026-07-08T10:28:43Z</time>
      </trkpt>
      <trkpt lat="43.01562" lon="0.31994">
        <ele>703.4</ele>
        <time>2026-07-08T10:28:43Z</time>
      </trkpt>
      <trkpt lat="43.01563" lon="0.31995">
        <ele>703.4</ele>
        <time>2026-07-08T10:28:44Z</time>
      </trkpt>
      <trkpt lat="43.01563" lon="0.31996">
        <ele>703.4</ele>
        <time>2026-07-08T10:28:44Z</time>
      </trkpt>
      <trkpt lat="43.01564" lon="0.31996">
        <ele>702.4</ele>
        <time>2026-07-08T10:28:45Z</time>
      </trkpt>
      <trkpt lat="43.01564" lon="0.31997">
        <ele>702.4</ele>
        <time>2026-07-08T10:28:46Z</time>
      </trkpt>
      <trkpt lat="43.01565" lon="0.31997">
        <ele>702.4</ele>
        <time>2026-07-08T10:28:46Z</time>
      </trkpt>
      <trkpt lat="43.01565" lon="0.31998">
        <ele>702.4</ele>
        <time>2026-07-08T10:28:47Z</time>
      </trkpt>
      <trkpt lat="43.01566" lon="0.31999">
        <ele>702.4</ele>
        <time>2026-07-08T10:28:47Z</time>
      </trkpt>
      <trkpt lat="43.01566" lon="0.31999">
        <ele>702.4</ele>
        <time>2026-07-08T10:28:47Z</time>
      </trkpt>
      <trkpt lat="43.01567" lon="0.32">
        <ele>702.4</ele>
        <time>2026-07-08T10:28:48Z</time>
      </trkpt>
      <trkpt lat="43.01567" lon="0.32">
        <ele>702.4</ele>
        <time>2026-07-08T10:28:48Z</time>
      </trkpt>
      <trkpt lat="43.01568" lon="0.32001">
        <ele>702.4</ele>
        <time>2026-07-08T10:28:49Z</time>
      </trkpt>
      <trkpt lat="43.01568" lon="0.32002">
        <ele>703.4</ele>
        <time>2026-07-08T10:28:50Z</time>
      </trkpt>
      <trkpt lat="43.01569" lon="0.32002">
        <ele>703.4</ele>
        <time>2026-07-08T10:28:50Z</time>
      </trkpt>
      <trkpt lat="43.0157" lon="0.32003">
        <ele>703.4</ele>
        <time>2026-07-08T10:28:51Z</time>
      </trkpt>
      <trkpt lat="43.01571" lon="0.32003">
        <ele>702.4</ele>
        <time>2026-07-08T10:28:52Z</time>
      </trkpt>
      <trkpt lat="43.01571" lon="0.32004">
        <ele>702.4</ele>
        <time>2026-07-08T10:28:52Z</time>
      </trkpt>
      <trkpt lat="43.01572" lon="0.32004">
        <ele>702.4</ele>
        <time>2026-07-08T10:28:53Z</time>
      </trkpt>
      <trkpt lat="43.01572" lon="0.32004">
        <ele>702.4</ele>
        <time>2026-07-08T10:28:53Z</time>
      </trkpt>
      <trkpt lat="43.01573" lon="0.32005">
        <ele>702.4</ele>
        <time>2026-07-08T10:28:54Z</time>
      </trkpt>
      <trkpt lat="43.01574" lon="0.32006">
        <ele>702.4</ele>
        <time>2026-07-08T10:28:54Z</time>
      </trkpt>
      <trkpt lat="43.01574" lon="0.32007">
        <ele>701.4</ele>
        <time>2026-07-08T10:28:55Z</time>
      </trkpt>
      <trkpt lat="43.01575" lon="0.32007">
        <ele>701.4</ele>
        <time>2026-07-08T10:28:56Z</time>
      </trkpt>
      <trkpt lat="43.01575" lon="0.32008">
        <ele>702.4</ele>
        <time>2026-07-08T10:28:56Z</time>
      </trkpt>
      <trkpt lat="43.01576" lon="0.32009">
        <ele>702.4</ele>
        <time>2026-07-08T10:28:57Z</time>
      </trkpt>
      <trkpt lat="43.01577" lon="0.32011">
        <ele>701.4</ele>
        <time>2026-07-08T10:28:57Z</time>
      </trkpt>
      <trkpt lat="43.01577" lon="0.32012">
        <ele>701.4</ele>
        <time>2026-07-08T10:28:58Z</time>
      </trkpt>
      <trkpt lat="43.01578" lon="0.32013">
        <ele>701.4</ele>
        <time>2026-07-08T10:28:58Z</time>
      </trkpt>
      <trkpt lat="43.01578" lon="0.32013">
        <ele>701.4</ele>
        <time>2026-07-08T10:28:59Z</time>
      </trkpt>
      <trkpt lat="43.01578" lon="0.32014">
        <ele>700.4</ele>
        <time>2026-07-08T10:28:59Z</time>
      </trkpt>
      <trkpt lat="43.01579" lon="0.32015">
        <ele>700.4</ele>
        <time>2026-07-08T10:29:00Z</time>
      </trkpt>
      <trkpt lat="43.01579" lon="0.32016">
        <ele>700.4</ele>
        <time>2026-07-08T10:29:00Z</time>
      </trkpt>
      <trkpt lat="43.0158" lon="0.32017">
        <ele>700.4</ele>
        <time>2026-07-08T10:29:01Z</time>
      </trkpt>
      <trkpt lat="43.01581" lon="0.32018">
        <ele>700.4</ele>
        <time>2026-07-08T10:29:02Z</time>
      </trkpt>
      <trkpt lat="43.01581" lon="0.32018">
        <ele>700.4</ele>
        <time>2026-07-08T10:29:02Z</time>
      </trkpt>
      <trkpt lat="43.01581" lon="0.32019">
        <ele>700.4</ele>
        <time>2026-07-08T10:29:03Z</time>
      </trkpt>
      <trkpt lat="43.01582" lon="0.32019">
        <ele>701.4</ele>
        <time>2026-07-08T10:29:03Z</time>
      </trkpt>
      <trkpt lat="43.01583" lon="0.3202">
        <ele>701.4</ele>
        <time>2026-07-08T10:29:04Z</time>
      </trkpt>
      <trkpt lat="43.01583" lon="0.32021">
        <ele>700.4</ele>
        <time>2026-07-08T10:29:04Z</time>
      </trkpt>
      <trkpt lat="43.01584" lon="0.32021">
        <ele>700.4</ele>
        <time>2026-07-08T10:29:05Z</time>
      </trkpt>
      <trkpt lat="43.01585" lon="0.32022">
        <ele>700.4</ele>
        <time>2026-07-08T10:29:06Z</time>
      </trkpt>
      <trkpt lat="43.01586" lon="0.32023">
        <ele>700.4</ele>
        <time>2026-07-08T10:29:07Z</time>
      </trkpt>
      <trkpt lat="43.01587" lon="0.32024">
        <ele>699.4</ele>
        <time>2026-07-08T10:29:08Z</time>
      </trkpt>
      <trkpt lat="43.01588" lon="0.32025">
        <ele>699.4</ele>
        <time>2026-07-08T10:29:09Z</time>
      </trkpt>
      <trkpt lat="43.0159" lon="0.32026">
        <ele>698.4</ele>
        <time>2026-07-08T10:29:09Z</time>
      </trkpt>
      <trkpt lat="43.0159" lon="0.32026">
        <ele>698.4</ele>
        <time>2026-07-08T10:29:10Z</time>
      </trkpt>
      <trkpt lat="43.01592" lon="0.32027">
        <ele>698.4</ele>
        <time>2026-07-08T10:29:11Z</time>
      </trkpt>
      <trkpt lat="43.01592" lon="0.32027">
        <ele>698.4</ele>
        <time>2026-07-08T10:29:11Z</time>
      </trkpt>
      <trkpt lat="43.01593" lon="0.32027">
        <ele>698.4</ele>
        <time>2026-07-08T10:29:12Z</time>
      </trkpt>
      <trkpt lat="43.01594" lon="0.32028">
        <ele>698.4</ele>
        <time>2026-07-08T10:29:13Z</time>
      </trkpt>
      <trkpt lat="43.01595" lon="0.32028">
        <ele>697.4</ele>
        <time>2026-07-08T10:29:13Z</time>
      </trkpt>
      <trkpt lat="43.01596" lon="0.32028">
        <ele>697.4</ele>
        <time>2026-07-08T10:29:13Z</time>
      </trkpt>
      <trkpt lat="43.01596" lon="0.32028">
        <ele>697.4</ele>
        <time>2026-07-08T10:29:14Z</time>
      </trkpt>
      <trkpt lat="43.01597" lon="0.32029">
        <ele>697.4</ele>
        <time>2026-07-08T10:29:15Z</time>
      </trkpt>
      <trkpt lat="43.01599" lon="0.32029">
        <ele>698.4</ele>
        <time>2026-07-08T10:29:16Z</time>
      </trkpt>
      <trkpt lat="43.016" lon="0.3203">
        <ele>698.4</ele>
        <time>2026-07-08T10:29:17Z</time>
      </trkpt>
      <trkpt lat="43.01601" lon="0.3203">
        <ele>698.4</ele>
        <time>2026-07-08T10:29:18Z</time>
      </trkpt>
      <trkpt lat="43.01602" lon="0.3203">
        <ele>697.4</ele>
        <time>2026-07-08T10:29:19Z</time>
      </trkpt>
      <trkpt lat="43.01603" lon="0.3203">
        <ele>697.4</ele>
        <time>2026-07-08T10:29:20Z</time>
      </trkpt>
      <trkpt lat="43.01604" lon="0.3203">
        <ele>697.4</ele>
        <time>2026-07-08T10:29:20Z</time>
      </trkpt>
      <trkpt lat="43.01605" lon="0.3203">
        <ele>698.4</ele>
        <time>2026-07-08T10:29:21Z</time>
      </trkpt>
      <trkpt lat="43.01606" lon="0.3203">
        <ele>698.4</ele>
        <time>2026-07-08T10:29:21Z</time>
      </trkpt>
      <trkpt lat="43.01606" lon="0.32031">
        <ele>698.4</ele>
        <time>2026-07-08T10:29:22Z</time>
      </trkpt>
      <trkpt lat="43.01607" lon="0.32031">
        <ele>698.4</ele>
        <time>2026-07-08T10:29:23Z</time>
      </trkpt>
      <trkpt lat="43.01608" lon="0.32031">
        <ele>697.4</ele>
        <time>2026-07-08T10:29:23Z</time>
      </trkpt>
      <trkpt lat="43.01608" lon="0.32031">
        <ele>697.4</ele>
        <time>2026-07-08T10:29:24Z</time>
      </trkpt>
      <trkpt lat="43.01609" lon="0.32031">
        <ele>697.4</ele>
        <time>2026-07-08T10:29:25Z</time>
      </trkpt>
      <trkpt lat="43.01609" lon="0.32032">
        <ele>696.4</ele>
        <time>2026-07-08T10:29:25Z</time>
      </trkpt>
      <trkpt lat="43.0161" lon="0.32032">
        <ele>696.4</ele>
        <time>2026-07-08T10:29:26Z</time>
      </trkpt>
      <trkpt lat="43.01611" lon="0.32032">
        <ele>696.4</ele>
        <time>2026-07-08T10:29:27Z</time>
      </trkpt>
      <trkpt lat="43.01612" lon="0.32033">
        <ele>696.4</ele>
        <time>2026-07-08T10:29:28Z</time>
      </trkpt>
      <trkpt lat="43.01613" lon="0.32033">
        <ele>695.4</ele>
        <time>2026-07-08T10:29:28Z</time>
      </trkpt>
      <trkpt lat="43.01614" lon="0.32034">
        <ele>695.4</ele>
        <time>2026-07-08T10:29:29Z</time>
      </trkpt>
      <trkpt lat="43.01615" lon="0.32034">
        <ele>695.4</ele>
        <time>2026-07-08T10:29:30Z</time>
      </trkpt>
      <trkpt lat="43.01617" lon="0.32034">
        <ele>695.4</ele>
        <time>2026-07-08T10:29:31Z</time>
      </trkpt>
      <trkpt lat="43.01617" lon="0.32034">
        <ele>695.4</ele>
        <time>2026-07-08T10:29:32Z</time>
      </trkpt>
      <trkpt lat="43.01618" lon="0.32034">
        <ele>695.4</ele>
        <time>2026-07-08T10:29:32Z</time>
      </trkpt>
      <trkpt lat="43.01618" lon="0.32035">
        <ele>695.4</ele>
        <time>2026-07-08T10:29:33Z</time>
      </trkpt>
      <trkpt lat="43.01619" lon="0.32034">
        <ele>695.4</ele>
        <time>2026-07-08T10:29:34Z</time>
      </trkpt>
      <trkpt lat="43.01618" lon="0.32034">
        <ele>694.4</ele>
        <time>2026-07-08T10:29:34Z</time>
      </trkpt>
      <trkpt lat="43.01619" lon="0.32034">
        <ele>694.4</ele>
        <time>2026-07-08T10:29:35Z</time>
      </trkpt>
      <trkpt lat="43.01619" lon="0.32033">
        <ele>694.4</ele>
        <time>2026-07-08T10:29:35Z</time>
      </trkpt>
      <trkpt lat="43.0162" lon="0.32033">
        <ele>694.4</ele>
        <time>2026-07-08T10:29:36Z</time>
      </trkpt>
      <trkpt lat="43.0162" lon="0.32033">
        <ele>693.4</ele>
        <time>2026-07-08T10:29:36Z</time>
      </trkpt>
      <trkpt lat="43.01621" lon="0.32033">
        <ele>693.4</ele>
        <time>2026-07-08T10:29:37Z</time>
      </trkpt>
      <trkpt lat="43.01622" lon="0.32033">
        <ele>693.4</ele>
        <time>2026-07-08T10:29:38Z</time>
      </trkpt>
      <trkpt lat="43.01622" lon="0.32033">
        <ele>692.4</ele>
        <time>2026-07-08T10:29:38Z</time>
      </trkpt>
      <trkpt lat="43.01623" lon="0.32033">
        <ele>691.4</ele>
        <time>2026-07-08T10:29:39Z</time>
      </trkpt>
      <trkpt lat="43.01624" lon="0.32034">
        <ele>691.4</ele>
        <time>2026-07-08T10:29:39Z</time>
      </trkpt>
      <trkpt lat="43.01625" lon="0.32034">
        <ele>691.4</ele>
        <time>2026-07-08T10:29:40Z</time>
      </trkpt>
      <trkpt lat="43.01626" lon="0.32034">
        <ele>691.4</ele>
        <time>2026-07-08T10:29:41Z</time>
      </trkpt>
      <trkpt lat="43.01627" lon="0.32035">
        <ele>691.4</ele>
        <time>2026-07-08T10:29:42Z</time>
      </trkpt>
      <trkpt lat="43.01627" lon="0.32035">
        <ele>690.4</ele>
        <time>2026-07-08T10:29:42Z</time>
      </trkpt>
      <trkpt lat="43.01628" lon="0.32036">
        <ele>690.4</ele>
        <time>2026-07-08T10:29:43Z</time>
      </trkpt>
      <trkpt lat="43.01628" lon="0.32036">
        <ele>690.4</ele>
        <time>2026-07-08T10:29:43Z</time>
      </trkpt>
      <trkpt lat="43.01629" lon="0.32036">
        <ele>690.4</ele>
        <time>2026-07-08T10:29:44Z</time>
      </trkpt>
      <trkpt lat="43.0163" lon="0.32036">
        <ele>689.4</ele>
        <time>2026-07-08T10:29:45Z</time>
      </trkpt>
      <trkpt lat="43.01631" lon="0.32036">
        <ele>689.4</ele>
        <time>2026-07-08T10:29:46Z</time>
      </trkpt>
      <trkpt lat="43.01632" lon="0.32036">
        <ele>689.4</ele>
        <time>2026-07-08T10:29:46Z</time>
      </trkpt>
      <trkpt lat="43.01633" lon="0.32037">
        <ele>689.4</ele>
        <time>2026-07-08T10:29:47Z</time>
      </trkpt>
      <trkpt lat="43.01634" lon="0.32037">
        <ele>689.4</ele>
        <time>2026-07-08T10:29:48Z</time>
      </trkpt>
      <trkpt lat="43.01635" lon="0.32037">
        <ele>689.4</ele>
        <time>2026-07-08T10:29:48Z</time>
      </trkpt>
      <trkpt lat="43.01636" lon="0.32037">
        <ele>689.4</ele>
        <time>2026-07-08T10:29:49Z</time>
      </trkpt>
      <trkpt lat="43.01636" lon="0.32037">
        <ele>689.4</ele>
        <time>2026-07-08T10:29:50Z</time>
      </trkpt>
      <trkpt lat="43.01637" lon="0.32037">
        <ele>689.4</ele>
        <time>2026-07-08T10:29:50Z</time>
      </trkpt>
      <trkpt lat="43.01637" lon="0.32037">
        <ele>689.4</ele>
        <time>2026-07-08T10:29:51Z</time>
      </trkpt>
      <trkpt lat="43.01637" lon="0.32037">
        <ele>689.4</ele>
        <time>2026-07-08T10:29:51Z</time>
      </trkpt>
      <trkpt lat="43.01638" lon="0.32037">
        <ele>689.4</ele>
        <time>2026-07-08T10:29:52Z</time>
      </trkpt>
      <trkpt lat="43.01638" lon="0.32036">
        <ele>688.4</ele>
        <time>2026-07-08T10:29:52Z</time>
      </trkpt>
      <trkpt lat="43.01639" lon="0.32036">
        <ele>688.4</ele>
        <time>2026-07-08T10:29:53Z</time>
      </trkpt>
      <trkpt lat="43.0164" lon="0.32036">
        <ele>688.4</ele>
        <time>2026-07-08T10:29:54Z</time>
      </trkpt>
      <trkpt lat="43.01641" lon="0.32036">
        <ele>688.4</ele>
        <time>2026-07-08T10:29:54Z</time>
      </trkpt>
      <trkpt lat="43.01641" lon="0.32036">
        <ele>687.4</ele>
        <time>2026-07-08T10:29:54Z</time>
      </trkpt>
      <trkpt lat="43.01642" lon="0.32036">
        <ele>687.4</ele>
        <time>2026-07-08T10:29:55Z</time>
      </trkpt>
      <trkpt lat="43.01642" lon="0.32035">
        <ele>687.4</ele>
        <time>2026-07-08T10:29:55Z</time>
      </trkpt>
      <trkpt lat="43.01642" lon="0.32034">
        <ele>687.4</ele>
        <time>2026-07-08T10:29:56Z</time>
      </trkpt>
      <trkpt lat="43.01643" lon="0.32034">
        <ele>687.4</ele>
        <time>2026-07-08T10:29:57Z</time>
      </trkpt>
      <trkpt lat="43.01643" lon="0.32034">
        <ele>686.4</ele>
        <time>2026-07-08T10:29:57Z</time>
      </trkpt>
      <trkpt lat="43.01643" lon="0.32034">
        <ele>685.4</ele>
        <time>2026-07-08T10:29:58Z</time>
      </trkpt>
      <trkpt lat="43.01644" lon="0.32034">
        <ele>685.4</ele>
        <time>2026-07-08T10:29:59Z</time>
      </trkpt>
      <trkpt lat="43.01645" lon="0.32034">
        <ele>685.4</ele>
        <time>2026-07-08T10:29:59Z</time>
      </trkpt>
      <trkpt lat="43.01645" lon="0.32034">
        <ele>685.4</ele>
        <time>2026-07-08T10:30:00Z</time>
      </trkpt>
      <trkpt lat="43.01646" lon="0.32034">
        <ele>684.4</ele>
        <time>2026-07-08T10:30:01Z</time>
      </trkpt>
      <trkpt lat="43.01647" lon="0.32034">
        <ele>684.4</ele>
        <time>2026-07-08T10:30:01Z</time>
      </trkpt>
      <trkpt lat="43.01647" lon="0.32034">
        <ele>684.4</ele>
        <time>2026-07-08T10:30:02Z</time>
      </trkpt>
      <trkpt lat="43.01648" lon="0.32033">
        <ele>684.4</ele>
        <time>2026-07-08T10:30:03Z</time>
      </trkpt>
      <trkpt lat="43.01649" lon="0.32033">
        <ele>684.4</ele>
        <time>2026-07-08T10:30:03Z</time>
      </trkpt>
      <trkpt lat="43.01649" lon="0.32033">
        <ele>684.4</ele>
        <time>2026-07-08T10:30:03Z</time>
      </trkpt>
      <trkpt lat="43.0165" lon="0.32032">
        <ele>683.4</ele>
        <time>2026-07-08T10:30:04Z</time>
      </trkpt>
      <trkpt lat="43.01651" lon="0.32032">
        <ele>683.4</ele>
        <time>2026-07-08T10:30:04Z</time>
      </trkpt>
      <trkpt lat="43.01651" lon="0.32032">
        <ele>683.4</ele>
        <time>2026-07-08T10:30:05Z</time>
      </trkpt>
      <trkpt lat="43.01652" lon="0.32032">
        <ele>683.4</ele>
        <time>2026-07-08T10:30:05Z</time>
      </trkpt>
      <trkpt lat="43.01653" lon="0.32032">
        <ele>682.4</ele>
        <time>2026-07-08T10:30:06Z</time>
      </trkpt>
      <trkpt lat="43.01653" lon="0.32031">
        <ele>682.4</ele>
        <time>2026-07-08T10:30:07Z</time>
      </trkpt>
      <trkpt lat="43.01654" lon="0.32031">
        <ele>682.4</ele>
        <time>2026-07-08T10:30:07Z</time>
      </trkpt>
      <trkpt lat="43.01654" lon="0.3203">
        <ele>682.4</ele>
        <time>2026-07-08T10:30:08Z</time>
      </trkpt>
      <trkpt lat="43.01655" lon="0.3203">
        <ele>682.4</ele>
        <time>2026-07-08T10:30:08Z</time>
      </trkpt>
      <trkpt lat="43.01656" lon="0.32029">
        <ele>682.4</ele>
        <time>2026-07-08T10:30:09Z</time>
      </trkpt>
      <trkpt lat="43.01657" lon="0.32029">
        <ele>681.4</ele>
        <time>2026-07-08T10:30:10Z</time>
      </trkpt>
      <trkpt lat="43.01657" lon="0.32028">
        <ele>681.4</ele>
        <time>2026-07-08T10:30:10Z</time>
      </trkpt>
      <trkpt lat="43.01658" lon="0.32028">
        <ele>681.4</ele>
        <time>2026-07-08T10:30:11Z</time>
      </trkpt>
      <trkpt lat="43.01659" lon="0.32027">
        <ele>681.4</ele>
        <time>2026-07-08T10:30:12Z</time>
      </trkpt>
      <trkpt lat="43.01659" lon="0.32027">
        <ele>680.4</ele>
        <time>2026-07-08T10:30:12Z</time>
      </trkpt>
      <trkpt lat="43.0166" lon="0.32026">
        <ele>680.4</ele>
        <time>2026-07-08T10:30:13Z</time>
      </trkpt>
      <trkpt lat="43.01662" lon="0.32026">
        <ele>680.4</ele>
        <time>2026-07-08T10:30:14Z</time>
      </trkpt>
      <trkpt lat="43.01663" lon="0.32025">
        <ele>680.4</ele>
        <time>2026-07-08T10:30:15Z</time>
      </trkpt>
      <trkpt lat="43.01665" lon="0.32025">
        <ele>680.4</ele>
        <time>2026-07-08T10:30:16Z</time>
      </trkpt>
      <trkpt lat="43.01666" lon="0.32024">
        <ele>678.4</ele>
        <time>2026-07-08T10:30:17Z</time>
      </trkpt>
      <trkpt lat="43.01666" lon="0.32023">
        <ele>677.4</ele>
        <time>2026-07-08T10:30:18Z</time>
      </trkpt>
      <trkpt lat="43.01667" lon="0.32022">
        <ele>677.4</ele>
        <time>2026-07-08T10:30:19Z</time>
      </trkpt>
      <trkpt lat="43.01668" lon="0.32021">
        <ele>677.4</ele>
        <time>2026-07-08T10:30:20Z</time>
      </trkpt>
      <trkpt lat="43.01668" lon="0.32021">
        <ele>676.4</ele>
        <time>2026-07-08T10:30:20Z</time>
      </trkpt>
      <trkpt lat="43.01669" lon="0.32021">
        <ele>676.4</ele>
        <time>2026-07-08T10:30:21Z</time>
      </trkpt>
      <trkpt lat="43.0167" lon="0.32021">
        <ele>676.4</ele>
        <time>2026-07-08T10:30:22Z</time>
      </trkpt>
      <trkpt lat="43.0167" lon="0.32021">
        <ele>675.4</ele>
        <time>2026-07-08T10:30:22Z</time>
      </trkpt>
      <trkpt lat="43.01671" lon="0.32021">
        <ele>675.4</ele>
        <time>2026-07-08T10:30:23Z</time>
      </trkpt>
      <trkpt lat="43.01671" lon="0.3202">
        <ele>674.4</ele>
        <time>2026-07-08T10:30:23Z</time>
      </trkpt>
      <trkpt lat="43.01672" lon="0.3202">
        <ele>674.4</ele>
        <time>2026-07-08T10:30:24Z</time>
      </trkpt>
      <trkpt lat="43.01673" lon="0.3202">
        <ele>674.4</ele>
        <time>2026-07-08T10:30:25Z</time>
      </trkpt>
      <trkpt lat="43.01673" lon="0.3202">
        <ele>674.4</ele>
        <time>2026-07-08T10:30:25Z</time>
      </trkpt>
      <trkpt lat="43.01674" lon="0.3202">
        <ele>674.4</ele>
        <time>2026-07-08T10:30:25Z</time>
      </trkpt>
      <trkpt lat="43.01674" lon="0.32019">
        <ele>674.4</ele>
        <time>2026-07-08T10:30:26Z</time>
      </trkpt>
      <trkpt lat="43.01674" lon="0.32019">
        <ele>673.4</ele>
        <time>2026-07-08T10:30:26Z</time>
      </trkpt>
      <trkpt lat="43.01675" lon="0.32019">
        <ele>673.4</ele>
        <time>2026-07-08T10:30:27Z</time>
      </trkpt>
      <trkpt lat="43.01676" lon="0.32018">
        <ele>673.4</ele>
        <time>2026-07-08T10:30:28Z</time>
      </trkpt>
      <trkpt lat="43.01676" lon="0.32018">
        <ele>673.4</ele>
        <time>2026-07-08T10:30:28Z</time>
      </trkpt>
      <trkpt lat="43.01677" lon="0.32018">
        <ele>673.4</ele>
        <time>2026-07-08T10:30:29Z</time>
      </trkpt>
      <trkpt lat="43.01678" lon="0.32018">
        <ele>673.4</ele>
        <time>2026-07-08T10:30:30Z</time>
      </trkpt>
      <trkpt lat="43.01679" lon="0.32018">
        <ele>673.4</ele>
        <time>2026-07-08T10:30:31Z</time>
      </trkpt>
      <trkpt lat="43.0168" lon="0.32017">
        <ele>673.4</ele>
        <time>2026-07-08T10:30:31Z</time>
      </trkpt>
      <trkpt lat="43.01681" lon="0.32017">
        <ele>673.4</ele>
        <time>2026-07-08T10:30:32Z</time>
      </trkpt>
      <trkpt lat="43.01682" lon="0.32017">
        <ele>671.4</ele>
        <time>2026-07-08T10:30:32Z</time>
      </trkpt>
      <trkpt lat="43.01683" lon="0.32017">
        <ele>671.4</ele>
        <time>2026-07-08T10:30:33Z</time>
      </trkpt>
      <trkpt lat="43.01684" lon="0.32017">
        <ele>671.4</ele>
        <time>2026-07-08T10:30:33Z</time>
      </trkpt>
      <trkpt lat="43.01684" lon="0.32017">
        <ele>670.4</ele>
        <time>2026-07-08T10:30:34Z</time>
      </trkpt>
      <trkpt lat="43.01685" lon="0.32017">
        <ele>670.4</ele>
        <time>2026-07-08T10:30:35Z</time>
      </trkpt>
      <trkpt lat="43.01686" lon="0.32017">
        <ele>670.4</ele>
        <time>2026-07-08T10:30:35Z</time>
      </trkpt>
      <trkpt lat="43.01687" lon="0.32017">
        <ele>670.4</ele>
        <time>2026-07-08T10:30:36Z</time>
      </trkpt>
      <trkpt lat="43.01687" lon="0.32017">
        <ele>670.4</ele>
        <time>2026-07-08T10:30:37Z</time>
      </trkpt>
      <trkpt lat="43.01688" lon="0.32016">
        <ele>670.4</ele>
        <time>2026-07-08T10:30:37Z</time>
      </trkpt>
      <trkpt lat="43.01688" lon="0.32015">
        <ele>670.4</ele>
        <time>2026-07-08T10:30:38Z</time>
      </trkpt>
      <trkpt lat="43.01689" lon="0.32015">
        <ele>670.4</ele>
        <time>2026-07-08T10:30:39Z</time>
      </trkpt>
      <trkpt lat="43.01689" lon="0.32013">
        <ele>669.4</ele>
        <time>2026-07-08T10:30:39Z</time>
      </trkpt>
      <trkpt lat="43.01689" lon="0.32012">
        <ele>668.4</ele>
        <time>2026-07-08T10:30:40Z</time>
      </trkpt>
      <trkpt lat="43.0169" lon="0.32011">
        <ele>668.4</ele>
        <time>2026-07-08T10:30:40Z</time>
      </trkpt>
      <trkpt lat="43.0169" lon="0.32011">
        <ele>668.4</ele>
        <time>2026-07-08T10:30:41Z</time>
      </trkpt>
      <trkpt lat="43.01691" lon="0.3201">
        <ele>668.4</ele>
        <time>2026-07-08T10:30:42Z</time>
      </trkpt>
      <trkpt lat="43.01692" lon="0.32009">
        <ele>667.4</ele>
        <time>2026-07-08T10:30:43Z</time>
      </trkpt>
      <trkpt lat="43.01692" lon="0.32008">
        <ele>666.4</ele>
        <time>2026-07-08T10:30:43Z</time>
      </trkpt>
      <trkpt lat="43.01693" lon="0.32007">
        <ele>666.4</ele>
        <time>2026-07-08T10:30:44Z</time>
      </trkpt>
      <trkpt lat="43.01694" lon="0.32007">
        <ele>665.4</ele>
        <time>2026-07-08T10:30:44Z</time>
      </trkpt>
      <trkpt lat="43.01694" lon="0.32007">
        <ele>665.4</ele>
        <time>2026-07-08T10:30:45Z</time>
      </trkpt>
      <trkpt lat="43.01696" lon="0.32006">
        <ele>665.4</ele>
        <time>2026-07-08T10:30:46Z</time>
      </trkpt>
      <trkpt lat="43.01697" lon="0.32006">
        <ele>665.4</ele>
        <time>2026-07-08T10:30:47Z</time>
      </trkpt>
      <trkpt lat="43.01697" lon="0.32006">
        <ele>664.4</ele>
        <time>2026-07-08T10:30:47Z</time>
      </trkpt>
      <trkpt lat="43.01698" lon="0.32006">
        <ele>664.4</ele>
        <time>2026-07-08T10:30:48Z</time>
      </trkpt>
      <trkpt lat="43.01699" lon="0.32005">
        <ele>664.4</ele>
        <time>2026-07-08T10:30:49Z</time>
      </trkpt>
      <trkpt lat="43.017" lon="0.32005">
        <ele>663.4</ele>
        <time>2026-07-08T10:30:49Z</time>
      </trkpt>
      <trkpt lat="43.01701" lon="0.32005">
        <ele>663.4</ele>
        <time>2026-07-08T10:30:50Z</time>
      </trkpt>
      <trkpt lat="43.01702" lon="0.32004">
        <ele>663.4</ele>
        <time>2026-07-08T10:30:51Z</time>
      </trkpt>
      <trkpt lat="43.01703" lon="0.32004">
        <ele>663.4</ele>
        <time>2026-07-08T10:30:51Z</time>
      </trkpt>
      <trkpt lat="43.01703" lon="0.32003">
        <ele>663.4</ele>
        <time>2026-07-08T10:30:52Z</time>
      </trkpt>
      <trkpt lat="43.01704" lon="0.32002">
        <ele>663.4</ele>
        <time>2026-07-08T10:30:53Z</time>
      </trkpt>
      <trkpt lat="43.01705" lon="0.32002">
        <ele>661.4</ele>
        <time>2026-07-08T10:30:53Z</time>
      </trkpt>
      <trkpt lat="43.01706" lon="0.32001">
        <ele>661.4</ele>
        <time>2026-07-08T10:30:54Z</time>
      </trkpt>
      <trkpt lat="43.01706" lon="0.32">
        <ele>661.4</ele>
        <time>2026-07-08T10:30:55Z</time>
      </trkpt>
      <trkpt lat="43.01707" lon="0.31999">
        <ele>660.4</ele>
        <time>2026-07-08T10:30:56Z</time>
      </trkpt>
      <trkpt lat="43.01708" lon="0.31999">
        <ele>659.4</ele>
        <time>2026-07-08T10:30:57Z</time>
      </trkpt>
      <trkpt lat="43.0171" lon="0.31998">
        <ele>660.4</ele>
        <time>2026-07-08T10:30:58Z</time>
      </trkpt>
      <trkpt lat="43.01711" lon="0.31998">
        <ele>659.4</ele>
        <time>2026-07-08T10:30:58Z</time>
      </trkpt>
      <trkpt lat="43.01711" lon="0.31997">
        <ele>659.4</ele>
        <time>2026-07-08T10:30:59Z</time>
      </trkpt>
      <trkpt lat="43.01712" lon="0.31997">
        <ele>659.4</ele>
        <time>2026-07-08T10:31:00Z</time>
      </trkpt>
      <trkpt lat="43.01713" lon="0.31997">
        <ele>659.4</ele>
        <time>2026-07-08T10:31:00Z</time>
      </trkpt>
      <trkpt lat="43.01714" lon="0.31996">
        <ele>658.4</ele>
        <time>2026-07-08T10:31:01Z</time>
      </trkpt>
      <trkpt lat="43.01715" lon="0.31996">
        <ele>658.4</ele>
        <time>2026-07-08T10:31:02Z</time>
      </trkpt>
      <trkpt lat="43.01716" lon="0.31995">
        <ele>658.4</ele>
        <time>2026-07-08T10:31:02Z</time>
      </trkpt>
      <trkpt lat="43.01717" lon="0.31994">
        <ele>658.4</ele>
        <time>2026-07-08T10:31:03Z</time>
      </trkpt>
      <trkpt lat="43.01717" lon="0.31994">
        <ele>658.4</ele>
        <time>2026-07-08T10:31:03Z</time>
      </trkpt>
      <trkpt lat="43.01718" lon="0.31993">
        <ele>658.4</ele>
        <time>2026-07-08T10:31:04Z</time>
      </trkpt>
      <trkpt lat="43.01719" lon="0.31992">
        <ele>659.4</ele>
        <time>2026-07-08T10:31:05Z</time>
      </trkpt>
      <trkpt lat="43.0172" lon="0.31992">
        <ele>660.4</ele>
        <time>2026-07-08T10:31:06Z</time>
      </trkpt>
      <trkpt lat="43.01721" lon="0.31991">
        <ele>659.4</ele>
        <time>2026-07-08T10:31:07Z</time>
      </trkpt>
      <trkpt lat="43.01722" lon="0.3199">
        <ele>660.4</ele>
        <time>2026-07-08T10:31:08Z</time>
      </trkpt>
      <trkpt lat="43.01722" lon="0.31989">
        <ele>660.4</ele>
        <time>2026-07-08T10:31:08Z</time>
      </trkpt>
      <trkpt lat="43.01723" lon="0.31989">
        <ele>659.4</ele>
        <time>2026-07-08T10:31:09Z</time>
      </trkpt>
      <trkpt lat="43.01724" lon="0.31988">
        <ele>659.4</ele>
        <time>2026-07-08T10:31:10Z</time>
      </trkpt>
      <trkpt lat="43.01725" lon="0.31987">
        <ele>659.4</ele>
        <time>2026-07-08T10:31:11Z</time>
      </trkpt>
      <trkpt lat="43.01726" lon="0.31987">
        <ele>659.4</ele>
        <time>2026-07-08T10:31:12Z</time>
      </trkpt>
      <trkpt lat="43.01727" lon="0.31986">
        <ele>660.4</ele>
        <time>2026-07-08T10:31:12Z</time>
      </trkpt>
      <trkpt lat="43.01727" lon="0.31986">
        <ele>660.4</ele>
        <time>2026-07-08T10:31:13Z</time>
      </trkpt>
      <trkpt lat="43.01729" lon="0.31985">
        <ele>659.4</ele>
        <time>2026-07-08T10:31:14Z</time>
      </trkpt>
      <trkpt lat="43.0173" lon="0.31984">
        <ele>660.4</ele>
        <time>2026-07-08T10:31:15Z</time>
      </trkpt>
      <trkpt lat="43.01731" lon="0.31984">
        <ele>660.4</ele>
        <time>2026-07-08T10:31:15Z</time>
      </trkpt>
      <trkpt lat="43.01732" lon="0.31983">
        <ele>660.4</ele>
        <time>2026-07-08T10:31:16Z</time>
      </trkpt>
      <trkpt lat="43.01733" lon="0.31982">
        <ele>661.4</ele>
        <time>2026-07-08T10:31:17Z</time>
      </trkpt>
      <trkpt lat="43.01734" lon="0.31982">
        <ele>661.4</ele>
        <time>2026-07-08T10:31:17Z</time>
      </trkpt>
      <trkpt lat="43.01735" lon="0.31981">
        <ele>661.4</ele>
        <time>2026-07-08T10:31:18Z</time>
      </trkpt>
      <trkpt lat="43.01736" lon="0.3198">
        <ele>661.4</ele>
        <time>2026-07-08T10:31:18Z</time>
      </trkpt>
      <trkpt lat="43.01736" lon="0.3198">
        <ele>661.4</ele>
        <time>2026-07-08T10:31:19Z</time>
      </trkpt>
      <trkpt lat="43.01737" lon="0.31979">
        <ele>661.4</ele>
        <time>2026-07-08T10:31:20Z</time>
      </trkpt>
      <trkpt lat="43.01738" lon="0.31978">
        <ele>660.4</ele>
        <time>2026-07-08T10:31:20Z</time>
      </trkpt>
      <trkpt lat="43.01739" lon="0.31977">
        <ele>659.4</ele>
        <time>2026-07-08T10:31:21Z</time>
      </trkpt>
      <trkpt lat="43.0174" lon="0.31976">
        <ele>659.4</ele>
        <time>2026-07-08T10:31:21Z</time>
      </trkpt>
      <trkpt lat="43.0174" lon="0.31976">
        <ele>659.4</ele>
        <time>2026-07-08T10:31:22Z</time>
      </trkpt>
      <trkpt lat="43.01741" lon="0.31974">
        <ele>658.4</ele>
        <time>2026-07-08T10:31:23Z</time>
      </trkpt>
      <trkpt lat="43.01743" lon="0.31973">
        <ele>658.4</ele>
        <time>2026-07-08T10:31:24Z</time>
      </trkpt>
      <trkpt lat="43.01744" lon="0.31971">
        <ele>658.4</ele>
        <time>2026-07-08T10:31:25Z</time>
      </trkpt>
      <trkpt lat="43.01745" lon="0.3197">
        <ele>658.4</ele>
        <time>2026-07-08T10:31:26Z</time>
      </trkpt>
      <trkpt lat="43.01746" lon="0.31969">
        <ele>659.4</ele>
        <time>2026-07-08T10:31:27Z</time>
      </trkpt>
      <trkpt lat="43.01747" lon="0.31967">
        <ele>658.4</ele>
        <time>2026-07-08T10:31:28Z</time>
      </trkpt>
      <trkpt lat="43.01747" lon="0.31966">
        <ele>658.4</ele>
        <time>2026-07-08T10:31:28Z</time>
      </trkpt>
      <trkpt lat="43.01748" lon="0.31965">
        <ele>658.4</ele>
        <time>2026-07-08T10:31:29Z</time>
      </trkpt>
      <trkpt lat="43.01749" lon="0.31964">
        <ele>658.4</ele>
        <time>2026-07-08T10:31:29Z</time>
      </trkpt>
      <trkpt lat="43.0175" lon="0.31963">
        <ele>658.4</ele>
        <time>2026-07-08T10:31:30Z</time>
      </trkpt>
      <trkpt lat="43.0175" lon="0.31963">
        <ele>658.4</ele>
        <time>2026-07-08T10:31:31Z</time>
      </trkpt>
      <trkpt lat="43.01751" lon="0.31961">
        <ele>657.4</ele>
        <time>2026-07-08T10:31:32Z</time>
      </trkpt>
      <trkpt lat="43.01752" lon="0.31961">
        <ele>657.4</ele>
        <time>2026-07-08T10:31:32Z</time>
      </trkpt>
      <trkpt lat="43.01753" lon="0.31959">
        <ele>658.4</ele>
        <time>2026-07-08T10:31:33Z</time>
      </trkpt>
      <trkpt lat="43.01754" lon="0.31958">
        <ele>658.4</ele>
        <time>2026-07-08T10:31:34Z</time>
      </trkpt>
      <trkpt lat="43.01756" lon="0.31956">
        <ele>658.4</ele>
        <time>2026-07-08T10:31:35Z</time>
      </trkpt>
      <trkpt lat="43.01757" lon="0.31955">
        <ele>658.4</ele>
        <time>2026-07-08T10:31:36Z</time>
      </trkpt>
      <trkpt lat="43.01758" lon="0.31953">
        <ele>658.4</ele>
        <time>2026-07-08T10:31:36Z</time>
      </trkpt>
      <trkpt lat="43.01759" lon="0.31952">
        <ele>658.4</ele>
        <time>2026-07-08T10:31:37Z</time>
      </trkpt>
      <trkpt lat="43.0176" lon="0.31951">
        <ele>658.4</ele>
        <time>2026-07-08T10:31:38Z</time>
      </trkpt>
      <trkpt lat="43.01761" lon="0.31951">
        <ele>658.4</ele>
        <time>2026-07-08T10:31:38Z</time>
      </trkpt>
      <trkpt lat="43.01762" lon="0.3195">
        <ele>658.4</ele>
        <time>2026-07-08T10:31:39Z</time>
      </trkpt>
      <trkpt lat="43.01762" lon="0.31949">
        <ele>658.4</ele>
        <time>2026-07-08T10:31:40Z</time>
      </trkpt>
      <trkpt lat="43.01763" lon="0.31948">
        <ele>658.4</ele>
        <time>2026-07-08T10:31:40Z</time>
      </trkpt>
      <trkpt lat="43.01764" lon="0.31947">
        <ele>658.4</ele>
        <time>2026-07-08T10:31:41Z</time>
      </trkpt>
      <trkpt lat="43.01764" lon="0.31946">
        <ele>658.4</ele>
        <time>2026-07-08T10:31:41Z</time>
      </trkpt>
      <trkpt lat="43.01765" lon="0.31945">
        <ele>658.4</ele>
        <time>2026-07-08T10:31:42Z</time>
      </trkpt>
      <trkpt lat="43.01766" lon="0.31943">
        <ele>658.4</ele>
        <time>2026-07-08T10:31:43Z</time>
      </trkpt>
      <trkpt lat="43.01767" lon="0.31942">
        <ele>657.4</ele>
        <time>2026-07-08T10:31:44Z</time>
      </trkpt>
      <trkpt lat="43.01768" lon="0.31941">
        <ele>657.4</ele>
        <time>2026-07-08T10:31:44Z</time>
      </trkpt>
      <trkpt lat="43.01769" lon="0.31941">
        <ele>657.4</ele>
        <time>2026-07-08T10:31:45Z</time>
      </trkpt>
      <trkpt lat="43.0177" lon="0.31939">
        <ele>658.4</ele>
        <time>2026-07-08T10:31:46Z</time>
      </trkpt>
      <trkpt lat="43.01771" lon="0.31938">
        <ele>658.4</ele>
        <time>2026-07-08T10:31:47Z</time>
      </trkpt>
      <trkpt lat="43.01772" lon="0.31937">
        <ele>658.4</ele>
        <time>2026-07-08T10:31:47Z</time>
      </trkpt>
      <trkpt lat="43.01772" lon="0.31936">
        <ele>658.4</ele>
        <time>2026-07-08T10:31:48Z</time>
      </trkpt>
      <trkpt lat="43.01773" lon="0.31936">
        <ele>659.4</ele>
        <time>2026-07-08T10:31:48Z</time>
      </trkpt>
      <trkpt lat="43.01774" lon="0.31935">
        <ele>659.4</ele>
        <time>2026-07-08T10:31:49Z</time>
      </trkpt>
      <trkpt lat="43.01774" lon="0.31935">
        <ele>659.4</ele>
        <time>2026-07-08T10:31:50Z</time>
      </trkpt>
      <trkpt lat="43.01775" lon="0.31934">
        <ele>658.4</ele>
        <time>2026-07-08T10:31:50Z</time>
      </trkpt>
      <trkpt lat="43.01776" lon="0.31934">
        <ele>659.4</ele>
        <time>2026-07-08T10:31:51Z</time>
      </trkpt>
      <trkpt lat="43.01776" lon="0.31933">
        <ele>659.4</ele>
        <time>2026-07-08T10:31:52Z</time>
      </trkpt>
      <trkpt lat="43.01777" lon="0.31933">
        <ele>659.4</ele>
        <time>2026-07-08T10:31:52Z</time>
      </trkpt>
      <trkpt lat="43.01778" lon="0.31932">
        <ele>659.4</ele>
        <time>2026-07-08T10:31:53Z</time>
      </trkpt>
      <trkpt lat="43.01779" lon="0.31932">
        <ele>659.4</ele>
        <time>2026-07-08T10:31:53Z</time>
      </trkpt>
      <trkpt lat="43.01779" lon="0.31931">
        <ele>659.4</ele>
        <time>2026-07-08T10:31:54Z</time>
      </trkpt>
      <trkpt lat="43.0178" lon="0.31931">
        <ele>659.4</ele>
        <time>2026-07-08T10:31:55Z</time>
      </trkpt>
      <trkpt lat="43.01782" lon="0.31931">
        <ele>659.4</ele>
        <time>2026-07-08T10:31:56Z</time>
      </trkpt>
      <trkpt lat="43.01783" lon="0.31931">
        <ele>659.4</ele>
        <time>2026-07-08T10:31:57Z</time>
      </trkpt>
      <trkpt lat="43.01784" lon="0.31931">
        <ele>659.4</ele>
        <time>2026-07-08T10:31:58Z</time>
      </trkpt>
      <trkpt lat="43.01784" lon="0.3193">
        <ele>658.4</ele>
        <time>2026-07-08T10:31:58Z</time>
      </trkpt>
      <trkpt lat="43.01786" lon="0.3193">
        <ele>658.4</ele>
        <time>2026-07-08T10:31:59Z</time>
      </trkpt>
      <trkpt lat="43.01786" lon="0.3193">
        <ele>658.4</ele>
        <time>2026-07-08T10:31:59Z</time>
      </trkpt>
      <trkpt lat="43.01787" lon="0.3193">
        <ele>657.4</ele>
        <time>2026-07-08T10:32:00Z</time>
      </trkpt>
      <trkpt lat="43.01788" lon="0.31931">
        <ele>657.4</ele>
        <time>2026-07-08T10:32:01Z</time>
      </trkpt>
      <trkpt lat="43.01789" lon="0.31931">
        <ele>657.4</ele>
        <time>2026-07-08T10:32:01Z</time>
      </trkpt>
      <trkpt lat="43.0179" lon="0.31931">
        <ele>657.4</ele>
        <time>2026-07-08T10:32:02Z</time>
      </trkpt>
      <trkpt lat="43.0179" lon="0.31931">
        <ele>657.4</ele>
        <time>2026-07-08T10:32:03Z</time>
      </trkpt>
      <trkpt lat="43.01791" lon="0.3193">
        <ele>657.4</ele>
        <time>2026-07-08T10:32:03Z</time>
      </trkpt>
      <trkpt lat="43.01792" lon="0.3193">
        <ele>657.4</ele>
        <time>2026-07-08T10:32:03Z</time>
      </trkpt>
      <trkpt lat="43.01793" lon="0.3193">
        <ele>657.4</ele>
        <time>2026-07-08T10:32:04Z</time>
      </trkpt>
      <trkpt lat="43.01794" lon="0.3193">
        <ele>657.4</ele>
        <time>2026-07-08T10:32:05Z</time>
      </trkpt>
      <trkpt lat="43.01796" lon="0.3193">
        <ele>657.4</ele>
        <time>2026-07-08T10:32:06Z</time>
      </trkpt>
      <trkpt lat="43.01797" lon="0.31929">
        <ele>657.4</ele>
        <time>2026-07-08T10:32:07Z</time>
      </trkpt>
      <trkpt lat="43.01798" lon="0.31929">
        <ele>657.4</ele>
        <time>2026-07-08T10:32:08Z</time>
      </trkpt>
      <trkpt lat="43.01799" lon="0.31929">
        <ele>657.4</ele>
        <time>2026-07-08T10:32:08Z</time>
      </trkpt>
      <trkpt lat="43.018" lon="0.31929">
        <ele>657.4</ele>
        <time>2026-07-08T10:32:09Z</time>
      </trkpt>
      <trkpt lat="43.01802" lon="0.31928">
        <ele>657.4</ele>
        <time>2026-07-08T10:32:10Z</time>
      </trkpt>
      <trkpt lat="43.01802" lon="0.31928">
        <ele>657.4</ele>
        <time>2026-07-08T10:32:10Z</time>
      </trkpt>
      <trkpt lat="43.01804" lon="0.31927">
        <ele>657.4</ele>
        <time>2026-07-08T10:32:11Z</time>
      </trkpt>
      <trkpt lat="43.01804" lon="0.31927">
        <ele>657.4</ele>
        <time>2026-07-08T10:32:12Z</time>
      </trkpt>
      <trkpt lat="43.01805" lon="0.31927">
        <ele>657.4</ele>
        <time>2026-07-08T10:32:12Z</time>
      </trkpt>
      <trkpt lat="43.01806" lon="0.31926">
        <ele>657.4</ele>
        <time>2026-07-08T10:32:13Z</time>
      </trkpt>
      <trkpt lat="43.01808" lon="0.31925">
        <ele>657.4</ele>
        <time>2026-07-08T10:32:14Z</time>
      </trkpt>
      <trkpt lat="43.01809" lon="0.31925">
        <ele>657.4</ele>
        <time>2026-07-08T10:32:15Z</time>
      </trkpt>
      <trkpt lat="43.0181" lon="0.31925">
        <ele>657.4</ele>
        <time>2026-07-08T10:32:15Z</time>
      </trkpt>
      <trkpt lat="43.01811" lon="0.31924">
        <ele>657.4</ele>
        <time>2026-07-08T10:32:16Z</time>
      </trkpt>
      <trkpt lat="43.01812" lon="0.31924">
        <ele>657.4</ele>
        <time>2026-07-08T10:32:17Z</time>
      </trkpt>
      <trkpt lat="43.01813" lon="0.31923">
        <ele>657.4</ele>
        <time>2026-07-08T10:32:17Z</time>
      </trkpt>
      <trkpt lat="43.01814" lon="0.31923">
        <ele>657.4</ele>
        <time>2026-07-08T10:32:18Z</time>
      </trkpt>
      <trkpt lat="43.01815" lon="0.31923">
        <ele>657.4</ele>
        <time>2026-07-08T10:32:19Z</time>
      </trkpt>
      <trkpt lat="43.01815" lon="0.31922">
        <ele>657.4</ele>
        <time>2026-07-08T10:32:19Z</time>
      </trkpt>
      <trkpt lat="43.01816" lon="0.31922">
        <ele>657.4</ele>
        <time>2026-07-08T10:32:20Z</time>
      </trkpt>
      <trkpt lat="43.01817" lon="0.31922">
        <ele>657.4</ele>
        <time>2026-07-08T10:32:21Z</time>
      </trkpt>
      <trkpt lat="43.01818" lon="0.31921">
        <ele>656.4</ele>
        <time>2026-07-08T10:32:21Z</time>
      </trkpt>
      <trkpt lat="43.01819" lon="0.31921">
        <ele>656.4</ele>
        <time>2026-07-08T10:32:22Z</time>
      </trkpt>
      <trkpt lat="43.0182" lon="0.31921">
        <ele>656.4</ele>
        <time>2026-07-08T10:32:23Z</time>
      </trkpt>
      <trkpt lat="43.01821" lon="0.3192">
        <ele>655.4</ele>
        <time>2026-07-08T10:32:24Z</time>
      </trkpt>
      <trkpt lat="43.01822" lon="0.3192">
        <ele>656.4</ele>
        <time>2026-07-08T10:32:24Z</time>
      </trkpt>
      <trkpt lat="43.01822" lon="0.31919">
        <ele>655.4</ele>
        <time>2026-07-08T10:32:25Z</time>
      </trkpt>
      <trkpt lat="43.01823" lon="0.31919">
        <ele>655.4</ele>
        <time>2026-07-08T10:32:26Z</time>
      </trkpt>
      <trkpt lat="43.01823" lon="0.31918">
        <ele>655.4</ele>
        <time>2026-07-08T10:32:26Z</time>
      </trkpt>
      <trkpt lat="43.01824" lon="0.31918">
        <ele>655.4</ele>
        <time>2026-07-08T10:32:27Z</time>
      </trkpt>
      <trkpt lat="43.01826" lon="0.31917">
        <ele>655.4</ele>
        <time>2026-07-08T10:32:28Z</time>
      </trkpt>
      <trkpt lat="43.01826" lon="0.31916">
        <ele>654.4</ele>
        <time>2026-07-08T10:32:29Z</time>
      </trkpt>
      <trkpt lat="43.01827" lon="0.31914">
        <ele>654.4</ele>
        <time>2026-07-08T10:32:30Z</time>
      </trkpt>
      <trkpt lat="43.01828" lon="0.31913">
        <ele>654.4</ele>
        <time>2026-07-08T10:32:31Z</time>
      </trkpt>
      <trkpt lat="43.01829" lon="0.31912">
        <ele>654.4</ele>
        <time>2026-07-08T10:32:31Z</time>
      </trkpt>
      <trkpt lat="43.01829" lon="0.31911">
        <ele>654.4</ele>
        <time>2026-07-08T10:32:32Z</time>
      </trkpt>
      <trkpt lat="43.0183" lon="0.31911">
        <ele>653.4</ele>
        <time>2026-07-08T10:32:33Z</time>
      </trkpt>
      <trkpt lat="43.01831" lon="0.3191">
        <ele>652.4</ele>
        <time>2026-07-08T10:32:34Z</time>
      </trkpt>
      <trkpt lat="43.01832" lon="0.31909">
        <ele>652.4</ele>
        <time>2026-07-08T10:32:34Z</time>
      </trkpt>
      <trkpt lat="43.01833" lon="0.31908">
        <ele>652.4</ele>
        <time>2026-07-08T10:32:35Z</time>
      </trkpt>
      <trkpt lat="43.01833" lon="0.31907">
        <ele>652.4</ele>
        <time>2026-07-08T10:32:36Z</time>
      </trkpt>
      <trkpt lat="43.01834" lon="0.31906">
        <ele>652.4</ele>
        <time>2026-07-08T10:32:37Z</time>
      </trkpt>
      <trkpt lat="43.01835" lon="0.31905">
        <ele>652.4</ele>
        <time>2026-07-08T10:32:38Z</time>
      </trkpt>
      <trkpt lat="43.01836" lon="0.31904">
        <ele>652.4</ele>
        <time>2026-07-08T10:32:39Z</time>
      </trkpt>
      <trkpt lat="43.01837" lon="0.31902">
        <ele>651.4</ele>
        <time>2026-07-08T10:32:39Z</time>
      </trkpt>
      <trkpt lat="43.01838" lon="0.31902">
        <ele>651.4</ele>
        <time>2026-07-08T10:32:40Z</time>
      </trkpt>
      <trkpt lat="43.01838" lon="0.31901">
        <ele>651.4</ele>
        <time>2026-07-08T10:32:41Z</time>
      </trkpt>
      <trkpt lat="43.01839" lon="0.319">
        <ele>652.4</ele>
        <time>2026-07-08T10:32:41Z</time>
      </trkpt>
      <trkpt lat="43.01839" lon="0.31899">
        <ele>652.4</ele>
        <time>2026-07-08T10:32:42Z</time>
      </trkpt>
      <trkpt lat="43.0184" lon="0.31898">
        <ele>651.4</ele>
        <time>2026-07-08T10:32:43Z</time>
      </trkpt>
      <trkpt lat="43.01841" lon="0.31897">
        <ele>651.4</ele>
        <time>2026-07-08T10:32:43Z</time>
      </trkpt>
      <trkpt lat="43.01842" lon="0.31896">
        <ele>651.4</ele>
        <time>2026-07-08T10:32:44Z</time>
      </trkpt>
      <trkpt lat="43.01842" lon="0.31894">
        <ele>651.4</ele>
        <time>2026-07-08T10:32:45Z</time>
      </trkpt>
      <trkpt lat="43.01843" lon="0.31893">
        <ele>651.4</ele>
        <time>2026-07-08T10:32:46Z</time>
      </trkpt>
      <trkpt lat="43.01844" lon="0.31891">
        <ele>651.4</ele>
        <time>2026-07-08T10:32:47Z</time>
      </trkpt>
      <trkpt lat="43.01844" lon="0.31889">
        <ele>651.4</ele>
        <time>2026-07-08T10:32:48Z</time>
      </trkpt>
      <trkpt lat="43.01844" lon="0.31889">
        <ele>650.4</ele>
        <time>2026-07-08T10:32:48Z</time>
      </trkpt>
      <trkpt lat="43.01845" lon="0.31887">
        <ele>650.4</ele>
        <time>2026-07-08T10:32:49Z</time>
      </trkpt>
      <trkpt lat="43.01845" lon="0.31886">
        <ele>650.4</ele>
        <time>2026-07-08T10:32:49Z</time>
      </trkpt>
      <trkpt lat="43.01846" lon="0.31885">
        <ele>650.4</ele>
        <time>2026-07-08T10:32:50Z</time>
      </trkpt>
      <trkpt lat="43.01846" lon="0.31884">
        <ele>650.4</ele>
        <time>2026-07-08T10:32:51Z</time>
      </trkpt>
      <trkpt lat="43.01846" lon="0.31882">
        <ele>650.4</ele>
        <time>2026-07-08T10:32:52Z</time>
      </trkpt>
      <trkpt lat="43.01847" lon="0.3188">
        <ele>650.4</ele>
        <time>2026-07-08T10:32:52Z</time>
      </trkpt>
      <trkpt lat="43.01847" lon="0.31879">
        <ele>650.4</ele>
        <time>2026-07-08T10:32:53Z</time>
      </trkpt>
      <trkpt lat="43.01847" lon="0.31879">
        <ele>650.4</ele>
        <time>2026-07-08T10:32:53Z</time>
      </trkpt>
      <trkpt lat="43.01847" lon="0.31877">
        <ele>650.4</ele>
        <time>2026-07-08T10:32:54Z</time>
      </trkpt>
      <trkpt lat="43.01847" lon="0.31877">
        <ele>650.4</ele>
        <time>2026-07-08T10:32:54Z</time>
      </trkpt>
      <trkpt lat="43.01847" lon="0.31876">
        <ele>650.4</ele>
        <time>2026-07-08T10:32:55Z</time>
      </trkpt>
      <trkpt lat="43.01847" lon="0.31875">
        <ele>649.4</ele>
        <time>2026-07-08T10:32:55Z</time>
      </trkpt>
      <trkpt lat="43.01848" lon="0.31874">
        <ele>649.4</ele>
        <time>2026-07-08T10:32:56Z</time>
      </trkpt>
      <trkpt lat="43.01848" lon="0.31873">
        <ele>650.4</ele>
        <time>2026-07-08T10:32:56Z</time>
      </trkpt>
      <trkpt lat="43.01848" lon="0.31872">
        <ele>650.4</ele>
        <time>2026-07-08T10:32:57Z</time>
      </trkpt>
      <trkpt lat="43.01848" lon="0.31871">
        <ele>650.4</ele>
        <time>2026-07-08T10:32:57Z</time>
      </trkpt>
      <trkpt lat="43.01848" lon="0.3187">
        <ele>650.4</ele>
        <time>2026-07-08T10:32:58Z</time>
      </trkpt>
      <trkpt lat="43.01849" lon="0.31869">
        <ele>650.4</ele>
        <time>2026-07-08T10:32:58Z</time>
      </trkpt>
      <trkpt lat="43.01849" lon="0.31868">
        <ele>650.4</ele>
        <time>2026-07-08T10:32:59Z</time>
      </trkpt>
      <trkpt lat="43.01849" lon="0.31868">
        <ele>650.4</ele>
        <time>2026-07-08T10:32:59Z</time>
      </trkpt>
      <trkpt lat="43.01849" lon="0.31867">
        <ele>650.4</ele>
        <time>2026-07-08T10:33:00Z</time>
      </trkpt>
      <trkpt lat="43.0185" lon="0.31866">
        <ele>650.4</ele>
        <time>2026-07-08T10:33:00Z</time>
      </trkpt>
      <trkpt lat="43.0185" lon="0.31865">
        <ele>650.4</ele>
        <time>2026-07-08T10:33:01Z</time>
      </trkpt>
      <trkpt lat="43.0185" lon="0.31864">
        <ele>650.4</ele>
        <time>2026-07-08T10:33:01Z</time>
      </trkpt>
      <trkpt lat="43.01851" lon="0.31863">
        <ele>650.4</ele>
        <time>2026-07-08T10:33:02Z</time>
      </trkpt>
      <trkpt lat="43.01851" lon="0.31862">
        <ele>651.4</ele>
        <time>2026-07-08T10:33:02Z</time>
      </trkpt>
      <trkpt lat="43.01851" lon="0.31862">
        <ele>652.4</ele>
        <time>2026-07-08T10:33:03Z</time>
      </trkpt>
      <trkpt lat="43.01852" lon="0.31861">
        <ele>652.4</ele>
        <time>2026-07-08T10:33:03Z</time>
      </trkpt>
      <trkpt lat="43.01852" lon="0.3186">
        <ele>652.4</ele>
        <time>2026-07-08T10:33:04Z</time>
      </trkpt>
      <trkpt lat="43.01852" lon="0.31859">
        <ele>652.4</ele>
        <time>2026-07-08T10:33:05Z</time>
      </trkpt>
      <trkpt lat="43.01853" lon="0.31859">
        <ele>652.4</ele>
        <time>2026-07-08T10:33:05Z</time>
      </trkpt>
      <trkpt lat="43.01854" lon="0.31859">
        <ele>652.4</ele>
        <time>2026-07-08T10:33:06Z</time>
      </trkpt>
      <trkpt lat="43.01854" lon="0.31858">
        <ele>651.4</ele>
        <time>2026-07-08T10:33:06Z</time>
      </trkpt>
      <trkpt lat="43.01855" lon="0.31858">
        <ele>651.4</ele>
        <time>2026-07-08T10:33:07Z</time>
      </trkpt>
      <trkpt lat="43.01856" lon="0.31857">
        <ele>651.4</ele>
        <time>2026-07-08T10:33:07Z</time>
      </trkpt>
      <trkpt lat="43.01856" lon="0.31857">
        <ele>651.4</ele>
        <time>2026-07-08T10:33:08Z</time>
      </trkpt>
      <trkpt lat="43.01857" lon="0.31856">
        <ele>651.4</ele>
        <time>2026-07-08T10:33:08Z</time>
      </trkpt>
      <trkpt lat="43.01858" lon="0.31855">
        <ele>651.4</ele>
        <time>2026-07-08T10:33:09Z</time>
      </trkpt>
      <trkpt lat="43.01859" lon="0.31855">
        <ele>651.4</ele>
        <time>2026-07-08T10:33:10Z</time>
      </trkpt>
      <trkpt lat="43.0186" lon="0.31855">
        <ele>651.4</ele>
        <time>2026-07-08T10:33:10Z</time>
      </trkpt>
      <trkpt lat="43.01861" lon="0.31854">
        <ele>651.4</ele>
        <time>2026-07-08T10:33:11Z</time>
      </trkpt>
      <trkpt lat="43.01862" lon="0.31854">
        <ele>651.4</ele>
        <time>2026-07-08T10:33:11Z</time>
      </trkpt>
      <trkpt lat="43.01863" lon="0.31854">
        <ele>651.4</ele>
        <time>2026-07-08T10:33:12Z</time>
      </trkpt>
      <trkpt lat="43.01864" lon="0.31854">
        <ele>652.4</ele>
        <time>2026-07-08T10:33:12Z</time>
      </trkpt>
      <trkpt lat="43.01865" lon="0.31854">
        <ele>652.4</ele>
        <time>2026-07-08T10:33:13Z</time>
      </trkpt>
      <trkpt lat="43.01866" lon="0.31854">
        <ele>652.4</ele>
        <time>2026-07-08T10:33:13Z</time>
      </trkpt>
      <trkpt lat="43.01867" lon="0.31854">
        <ele>652.4</ele>
        <time>2026-07-08T10:33:14Z</time>
      </trkpt>
      <trkpt lat="43.01868" lon="0.31855">
        <ele>651.4</ele>
        <time>2026-07-08T10:33:14Z</time>
      </trkpt>
      <trkpt lat="43.01869" lon="0.31855">
        <ele>651.4</ele>
        <time>2026-07-08T10:33:15Z</time>
      </trkpt>
      <trkpt lat="43.0187" lon="0.31855">
        <ele>651.4</ele>
        <time>2026-07-08T10:33:15Z</time>
      </trkpt>
      <trkpt lat="43.01871" lon="0.31855">
        <ele>651.4</ele>
        <time>2026-07-08T10:33:16Z</time>
      </trkpt>
      <trkpt lat="43.01871" lon="0.31856">
        <ele>651.4</ele>
        <time>2026-07-08T10:33:16Z</time>
      </trkpt>
      <trkpt lat="43.01872" lon="0.31856">
        <ele>651.4</ele>
        <time>2026-07-08T10:33:17Z</time>
      </trkpt>
      <trkpt lat="43.01873" lon="0.31856">
        <ele>650.4</ele>
        <time>2026-07-08T10:33:17Z</time>
      </trkpt>
      <trkpt lat="43.01873" lon="0.31857">
        <ele>650.4</ele>
        <time>2026-07-08T10:33:18Z</time>
      </trkpt>
      <trkpt lat="43.01874" lon="0.31857">
        <ele>650.4</ele>
        <time>2026-07-08T10:33:18Z</time>
      </trkpt>
      <trkpt lat="43.01874" lon="0.31857">
        <ele>650.4</ele>
        <time>2026-07-08T10:33:19Z</time>
      </trkpt>
      <trkpt lat="43.01875" lon="0.31857">
        <ele>650.4</ele>
        <time>2026-07-08T10:33:19Z</time>
      </trkpt>
      <trkpt lat="43.01875" lon="0.31857">
        <ele>650.4</ele>
        <time>2026-07-08T10:33:20Z</time>
      </trkpt>
      <trkpt lat="43.01876" lon="0.31857">
        <ele>651.4</ele>
        <time>2026-07-08T10:33:20Z</time>
      </trkpt>
      <trkpt lat="43.01876" lon="0.31858">
        <ele>651.4</ele>
        <time>2026-07-08T10:33:21Z</time>
      </trkpt>
      <trkpt lat="43.01877" lon="0.31857">
        <ele>650.4</ele>
        <time>2026-07-08T10:33:21Z</time>
      </trkpt>
      <trkpt lat="43.01877" lon="0.31857">
        <ele>650.4</ele>
        <time>2026-07-08T10:33:22Z</time>
      </trkpt>
      <trkpt lat="43.01878" lon="0.31857">
        <ele>650.4</ele>
        <time>2026-07-08T10:33:23Z</time>
      </trkpt>
      <trkpt lat="43.01878" lon="0.31857">
        <ele>650.4</ele>
        <time>2026-07-08T10:33:23Z</time>
      </trkpt>
      <trkpt lat="43.01879" lon="0.31858">
        <ele>650.4</ele>
        <time>2026-07-08T10:33:24Z</time>
      </trkpt>
      <trkpt lat="43.0188" lon="0.31857">
        <ele>650.4</ele>
        <time>2026-07-08T10:33:25Z</time>
      </trkpt>
      <trkpt lat="43.0188" lon="0.31856">
        <ele>650.4</ele>
        <time>2026-07-08T10:33:25Z</time>
      </trkpt>
      <trkpt lat="43.01881" lon="0.31856">
        <ele>650.4</ele>
        <time>2026-07-08T10:33:26Z</time>
      </trkpt>
      <trkpt lat="43.01881" lon="0.31856">
        <ele>650.4</ele>
        <time>2026-07-08T10:33:26Z</time>
      </trkpt>
      <trkpt lat="43.01882" lon="0.31855">
        <ele>650.4</ele>
        <time>2026-07-08T10:33:27Z</time>
      </trkpt>
      <trkpt lat="43.01883" lon="0.31855">
        <ele>650.4</ele>
        <time>2026-07-08T10:33:28Z</time>
      </trkpt>
      <trkpt lat="43.01884" lon="0.31854">
        <ele>649.4</ele>
        <time>2026-07-08T10:33:29Z</time>
      </trkpt>
      <trkpt lat="43.01885" lon="0.31853">
        <ele>649.4</ele>
        <time>2026-07-08T10:33:29Z</time>
      </trkpt>
      <trkpt lat="43.01886" lon="0.31852">
        <ele>649.4</ele>
        <time>2026-07-08T10:33:30Z</time>
      </trkpt>
      <trkpt lat="43.01887" lon="0.31851">
        <ele>648.4</ele>
        <time>2026-07-08T10:33:31Z</time>
      </trkpt>
      <trkpt lat="43.01888" lon="0.31851">
        <ele>648.4</ele>
        <time>2026-07-08T10:33:31Z</time>
      </trkpt>
      <trkpt lat="43.01889" lon="0.31851">
        <ele>648.4</ele>
        <time>2026-07-08T10:33:32Z</time>
      </trkpt>
      <trkpt lat="43.01889" lon="0.3185">
        <ele>647.4</ele>
        <time>2026-07-08T10:33:32Z</time>
      </trkpt>
      <trkpt lat="43.0189" lon="0.3185">
        <ele>647.4</ele>
        <time>2026-07-08T10:33:32Z</time>
      </trkpt>
      <trkpt lat="43.01891" lon="0.3185">
        <ele>647.4</ele>
        <time>2026-07-08T10:33:33Z</time>
      </trkpt>
      <trkpt lat="43.01892" lon="0.31849">
        <ele>647.4</ele>
        <time>2026-07-08T10:33:34Z</time>
      </trkpt>
      <trkpt lat="43.01894" lon="0.31848">
        <ele>648.4</ele>
        <time>2026-07-08T10:33:35Z</time>
      </trkpt>
      <trkpt lat="43.01895" lon="0.31847">
        <ele>647.4</ele>
        <time>2026-07-08T10:33:35Z</time>
      </trkpt>
      <trkpt lat="43.01895" lon="0.31846">
        <ele>647.4</ele>
        <time>2026-07-08T10:33:36Z</time>
      </trkpt>
      <trkpt lat="43.01896" lon="0.31845">
        <ele>648.4</ele>
        <time>2026-07-08T10:33:36Z</time>
      </trkpt>
      <trkpt lat="43.01897" lon="0.31844">
        <ele>647.4</ele>
        <time>2026-07-08T10:33:37Z</time>
      </trkpt>
      <trkpt lat="43.01898" lon="0.31844">
        <ele>647.4</ele>
        <time>2026-07-08T10:33:38Z</time>
      </trkpt>
      <trkpt lat="43.01899" lon="0.31843">
        <ele>648.4</ele>
        <time>2026-07-08T10:33:39Z</time>
      </trkpt>
      <trkpt lat="43.01899" lon="0.31842">
        <ele>648.4</ele>
        <time>2026-07-08T10:33:39Z</time>
      </trkpt>
      <trkpt lat="43.01901" lon="0.31842">
        <ele>648.4</ele>
        <time>2026-07-08T10:33:40Z</time>
      </trkpt>
      <trkpt lat="43.01901" lon="0.31841">
        <ele>648.4</ele>
        <time>2026-07-08T10:33:40Z</time>
      </trkpt>
      <trkpt lat="43.01902" lon="0.31841">
        <ele>648.4</ele>
        <time>2026-07-08T10:33:41Z</time>
      </trkpt>
      <trkpt lat="43.01903" lon="0.3184">
        <ele>648.4</ele>
        <time>2026-07-08T10:33:41Z</time>
      </trkpt>
      <trkpt lat="43.01903" lon="0.3184">
        <ele>648.4</ele>
        <time>2026-07-08T10:33:42Z</time>
      </trkpt>
      <trkpt lat="43.01904" lon="0.31839">
        <ele>648.4</ele>
        <time>2026-07-08T10:33:42Z</time>
      </trkpt>
      <trkpt lat="43.01904" lon="0.31839">
        <ele>648.4</ele>
        <time>2026-07-08T10:33:43Z</time>
      </trkpt>
      <trkpt lat="43.01905" lon="0.31838">
        <ele>648.4</ele>
        <time>2026-07-08T10:33:43Z</time>
      </trkpt>
      <trkpt lat="43.01906" lon="0.31838">
        <ele>648.4</ele>
        <time>2026-07-08T10:33:44Z</time>
      </trkpt>
      <trkpt lat="43.01906" lon="0.31837">
        <ele>648.4</ele>
        <time>2026-07-08T10:33:44Z</time>
      </trkpt>
      <trkpt lat="43.01907" lon="0.31837">
        <ele>648.4</ele>
        <time>2026-07-08T10:33:45Z</time>
      </trkpt>
      <trkpt lat="43.01908" lon="0.31836">
        <ele>648.4</ele>
        <time>2026-07-08T10:33:46Z</time>
      </trkpt>
      <trkpt lat="43.01909" lon="0.31836">
        <ele>647.4</ele>
        <time>2026-07-08T10:33:46Z</time>
      </trkpt>
      <trkpt lat="43.01909" lon="0.31836">
        <ele>647.4</ele>
        <time>2026-07-08T10:33:47Z</time>
      </trkpt>
      <trkpt lat="43.01911" lon="0.31835">
        <ele>647.4</ele>
        <time>2026-07-08T10:33:48Z</time>
      </trkpt>
      <trkpt lat="43.01912" lon="0.31835">
        <ele>646.4</ele>
        <time>2026-07-08T10:33:49Z</time>
      </trkpt>
      <trkpt lat="43.01912" lon="0.31834">
        <ele>646.4</ele>
        <time>2026-07-08T10:33:49Z</time>
      </trkpt>
      <trkpt lat="43.01913" lon="0.31834">
        <ele>646.4</ele>
        <time>2026-07-08T10:33:50Z</time>
      </trkpt>
      <trkpt lat="43.01914" lon="0.31834">
        <ele>646.4</ele>
        <time>2026-07-08T10:33:50Z</time>
      </trkpt>
      <trkpt lat="43.01915" lon="0.31833">
        <ele>646.4</ele>
        <time>2026-07-08T10:33:51Z</time>
      </trkpt>
      <trkpt lat="43.01915" lon="0.31834">
        <ele>645.4</ele>
        <time>2026-07-08T10:33:51Z</time>
      </trkpt>
      <trkpt lat="43.01916" lon="0.31834">
        <ele>645.4</ele>
        <time>2026-07-08T10:33:52Z</time>
      </trkpt>
      <trkpt lat="43.01916" lon="0.31834">
        <ele>645.4</ele>
        <time>2026-07-08T10:33:52Z</time>
      </trkpt>
      <trkpt lat="43.01917" lon="0.31833">
        <ele>645.4</ele>
        <time>2026-07-08T10:33:53Z</time>
      </trkpt>
      <trkpt lat="43.01917" lon="0.31834">
        <ele>645.4</ele>
        <time>2026-07-08T10:33:53Z</time>
      </trkpt>
      <trkpt lat="43.01918" lon="0.31833">
        <ele>645.4</ele>
        <time>2026-07-08T10:33:54Z</time>
      </trkpt>
      <trkpt lat="43.01918" lon="0.31833">
        <ele>645.4</ele>
        <time>2026-07-08T10:33:54Z</time>
      </trkpt>
      <trkpt lat="43.01919" lon="0.31833">
        <ele>645.4</ele>
        <time>2026-07-08T10:33:55Z</time>
      </trkpt>
      <trkpt lat="43.01919" lon="0.31833">
        <ele>645.4</ele>
        <time>2026-07-08T10:33:55Z</time>
      </trkpt>
      <trkpt lat="43.01919" lon="0.31833">
        <ele>645.4</ele>
        <time>2026-07-08T10:33:55Z</time>
      </trkpt>
      <trkpt lat="43.0192" lon="0.31833">
        <ele>645.4</ele>
        <time>2026-07-08T10:33:56Z</time>
      </trkpt>
      <trkpt lat="43.0192" lon="0.31832">
        <ele>645.4</ele>
        <time>2026-07-08T10:33:56Z</time>
      </trkpt>
      <trkpt lat="43.01921" lon="0.31832">
        <ele>644.4</ele>
        <time>2026-07-08T10:33:57Z</time>
      </trkpt>
      <trkpt lat="43.01922" lon="0.31832">
        <ele>644.4</ele>
        <time>2026-07-08T10:33:58Z</time>
      </trkpt>
      <trkpt lat="43.01922" lon="0.31831">
        <ele>644.4</ele>
        <time>2026-07-08T10:33:58Z</time>
      </trkpt>
      <trkpt lat="43.01922" lon="0.31831">
        <ele>643.4</ele>
        <time>2026-07-08T10:33:59Z</time>
      </trkpt>
      <trkpt lat="43.01923" lon="0.31831">
        <ele>643.4</ele>
        <time>2026-07-08T10:33:59Z</time>
      </trkpt>
      <trkpt lat="43.01923" lon="0.3183">
        <ele>643.4</ele>
        <time>2026-07-08T10:34:00Z</time>
      </trkpt>
      <trkpt lat="43.01924" lon="0.3183">
        <ele>643.4</ele>
        <time>2026-07-08T10:34:01Z</time>
      </trkpt>
      <trkpt lat="43.01924" lon="0.3183">
        <ele>642.4</ele>
        <time>2026-07-08T10:34:01Z</time>
      </trkpt>
      <trkpt lat="43.01925" lon="0.31829">
        <ele>642.4</ele>
        <time>2026-07-08T10:34:02Z</time>
      </trkpt>
      <trkpt lat="43.01926" lon="0.31829">
        <ele>642.4</ele>
        <time>2026-07-08T10:34:03Z</time>
      </trkpt>
      <trkpt lat="43.01927" lon="0.31829">
        <ele>642.4</ele>
        <time>2026-07-08T10:34:03Z</time>
      </trkpt>
      <trkpt lat="43.01927" lon="0.31828">
        <ele>642.4</ele>
        <time>2026-07-08T10:34:04Z</time>
      </trkpt>
      <trkpt lat="43.01928" lon="0.31828">
        <ele>642.4</ele>
        <time>2026-07-08T10:34:05Z</time>
      </trkpt>
      <trkpt lat="43.01929" lon="0.31828">
        <ele>642.4</ele>
        <time>2026-07-08T10:34:05Z</time>
      </trkpt>
      <trkpt lat="43.01929" lon="0.31828">
        <ele>642.4</ele>
        <time>2026-07-08T10:34:06Z</time>
      </trkpt>
      <trkpt lat="43.0193" lon="0.31828">
        <ele>642.4</ele>
        <time>2026-07-08T10:34:06Z</time>
      </trkpt>
      <trkpt lat="43.01931" lon="0.31828">
        <ele>642.4</ele>
        <time>2026-07-08T10:34:07Z</time>
      </trkpt>
      <trkpt lat="43.01932" lon="0.31828">
        <ele>642.4</ele>
        <time>2026-07-08T10:34:08Z</time>
      </trkpt>
      <trkpt lat="43.01932" lon="0.31827">
        <ele>642.4</ele>
        <time>2026-07-08T10:34:08Z</time>
      </trkpt>
      <trkpt lat="43.01933" lon="0.31827">
        <ele>642.4</ele>
        <time>2026-07-08T10:34:09Z</time>
      </trkpt>
      <trkpt lat="43.01934" lon="0.31827">
        <ele>641.4</ele>
        <time>2026-07-08T10:34:10Z</time>
      </trkpt>
      <trkpt lat="43.01935" lon="0.31827">
        <ele>640.4</ele>
        <time>2026-07-08T10:34:10Z</time>
      </trkpt>
      <trkpt lat="43.01935" lon="0.31827">
        <ele>640.4</ele>
        <time>2026-07-08T10:34:11Z</time>
      </trkpt>
      <trkpt lat="43.01936" lon="0.31827">
        <ele>640.4</ele>
        <time>2026-07-08T10:34:11Z</time>
      </trkpt>
      <trkpt lat="43.01936" lon="0.31827">
        <ele>640.4</ele>
        <time>2026-07-08T10:34:11Z</time>
      </trkpt>
      <trkpt lat="43.01937" lon="0.31826">
        <ele>640.4</ele>
        <time>2026-07-08T10:34:12Z</time>
      </trkpt>
      <trkpt lat="43.01937" lon="0.31826">
        <ele>640.4</ele>
        <time>2026-07-08T10:34:12Z</time>
      </trkpt>
      <trkpt lat="43.01938" lon="0.31826">
        <ele>640.4</ele>
        <time>2026-07-08T10:34:13Z</time>
      </trkpt>
      <trkpt lat="43.01939" lon="0.31826">
        <ele>639.4</ele>
        <time>2026-07-08T10:34:14Z</time>
      </trkpt>
      <trkpt lat="43.0194" lon="0.31826">
        <ele>640.4</ele>
        <time>2026-07-08T10:34:14Z</time>
      </trkpt>
      <trkpt lat="43.01941" lon="0.31826">
        <ele>640.4</ele>
        <time>2026-07-08T10:34:15Z</time>
      </trkpt>
      <trkpt lat="43.01941" lon="0.31827">
        <ele>640.4</ele>
        <time>2026-07-08T10:34:15Z</time>
      </trkpt>
      <trkpt lat="43.01942" lon="0.31827">
        <ele>640.4</ele>
        <time>2026-07-08T10:34:16Z</time>
      </trkpt>
      <trkpt lat="43.01943" lon="0.31827">
        <ele>639.4</ele>
        <time>2026-07-08T10:34:17Z</time>
      </trkpt>
      <trkpt lat="43.01944" lon="0.31828">
        <ele>638.4</ele>
        <time>2026-07-08T10:34:18Z</time>
      </trkpt>
      <trkpt lat="43.01945" lon="0.31828">
        <ele>638.4</ele>
        <time>2026-07-08T10:34:18Z</time>
      </trkpt>
      <trkpt lat="43.01946" lon="0.31829">
        <ele>638.4</ele>
        <time>2026-07-08T10:34:19Z</time>
      </trkpt>
      <trkpt lat="43.01947" lon="0.31829">
        <ele>638.4</ele>
        <time>2026-07-08T10:34:20Z</time>
      </trkpt>
      <trkpt lat="43.01947" lon="0.31829">
        <ele>638.4</ele>
        <time>2026-07-08T10:34:20Z</time>
      </trkpt>
      <trkpt lat="43.01948" lon="0.3183">
        <ele>638.4</ele>
        <time>2026-07-08T10:34:21Z</time>
      </trkpt>
      <trkpt lat="43.01949" lon="0.3183">
        <ele>637.4</ele>
        <time>2026-07-08T10:34:22Z</time>
      </trkpt>
      <trkpt lat="43.01949" lon="0.31831">
        <ele>637.4</ele>
        <time>2026-07-08T10:34:22Z</time>
      </trkpt>
      <trkpt lat="43.0195" lon="0.31831">
        <ele>637.4</ele>
        <time>2026-07-08T10:34:23Z</time>
      </trkpt>
      <trkpt lat="43.0195" lon="0.31831">
        <ele>637.4</ele>
        <time>2026-07-08T10:34:23Z</time>
      </trkpt>
      <trkpt lat="43.01951" lon="0.31832">
        <ele>637.4</ele>
        <time>2026-07-08T10:34:24Z</time>
      </trkpt>
      <trkpt lat="43.01951" lon="0.31832">
        <ele>637.4</ele>
        <time>2026-07-08T10:34:24Z</time>
      </trkpt>
      <trkpt lat="43.01952" lon="0.31832">
        <ele>637.4</ele>
        <time>2026-07-08T10:34:25Z</time>
      </trkpt>
      <trkpt lat="43.01952" lon="0.31833">
        <ele>636.4</ele>
        <time>2026-07-08T10:34:25Z</time>
      </trkpt>
      <trkpt lat="43.01953" lon="0.31833">
        <ele>636.4</ele>
        <time>2026-07-08T10:34:26Z</time>
      </trkpt>
      <trkpt lat="43.01953" lon="0.31834">
        <ele>635.4</ele>
        <time>2026-07-08T10:34:26Z</time>
      </trkpt>
      <trkpt lat="43.01954" lon="0.31834">
        <ele>635.4</ele>
        <time>2026-07-08T10:34:27Z</time>
      </trkpt>
      <trkpt lat="43.01955" lon="0.31835">
        <ele>635.4</ele>
        <time>2026-07-08T10:34:27Z</time>
      </trkpt>
      <trkpt lat="43.01956" lon="0.31835">
        <ele>635.4</ele>
        <time>2026-07-08T10:34:28Z</time>
      </trkpt>
      <trkpt lat="43.01956" lon="0.31836">
        <ele>634.4</ele>
        <time>2026-07-08T10:34:28Z</time>
      </trkpt>
      <trkpt lat="43.01957" lon="0.31836">
        <ele>634.4</ele>
        <time>2026-07-08T10:34:29Z</time>
      </trkpt>
      <trkpt lat="43.01957" lon="0.31836">
        <ele>634.4</ele>
        <time>2026-07-08T10:34:29Z</time>
      </trkpt>
      <trkpt lat="43.01958" lon="0.31836">
        <ele>634.4</ele>
        <time>2026-07-08T10:34:30Z</time>
      </trkpt>
      <trkpt lat="43.01958" lon="0.31836">
        <ele>633.4</ele>
        <time>2026-07-08T10:34:30Z</time>
      </trkpt>
      <trkpt lat="43.01959" lon="0.31836">
        <ele>633.4</ele>
        <time>2026-07-08T10:34:31Z</time>
      </trkpt>
      <trkpt lat="43.01959" lon="0.31836">
        <ele>634.4</ele>
        <time>2026-07-08T10:34:31Z</time>
      </trkpt>
      <trkpt lat="43.0196" lon="0.31836">
        <ele>634.4</ele>
        <time>2026-07-08T10:34:32Z</time>
      </trkpt>
      <trkpt lat="43.0196" lon="0.31836">
        <ele>634.4</ele>
        <time>2026-07-08T10:34:32Z</time>
      </trkpt>
      <trkpt lat="43.01961" lon="0.31836">
        <ele>634.4</ele>
        <time>2026-07-08T10:34:33Z</time>
      </trkpt>
      <trkpt lat="43.01961" lon="0.31835">
        <ele>633.4</ele>
        <time>2026-07-08T10:34:33Z</time>
      </trkpt>
      <trkpt lat="43.01962" lon="0.31835">
        <ele>633.4</ele>
        <time>2026-07-08T10:34:34Z</time>
      </trkpt>
      <trkpt lat="43.01962" lon="0.31835">
        <ele>632.4</ele>
        <time>2026-07-08T10:34:34Z</time>
      </trkpt>
      <trkpt lat="43.01963" lon="0.31835">
        <ele>632.4</ele>
        <time>2026-07-08T10:34:35Z</time>
      </trkpt>
      <trkpt lat="43.01963" lon="0.31835">
        <ele>632.4</ele>
        <time>2026-07-08T10:34:35Z</time>
      </trkpt>
      <trkpt lat="43.01964" lon="0.31835">
        <ele>632.4</ele>
        <time>2026-07-08T10:34:36Z</time>
      </trkpt>
      <trkpt lat="43.01965" lon="0.31834">
        <ele>632.4</ele>
        <time>2026-07-08T10:34:36Z</time>
      </trkpt>
      <trkpt lat="43.01965" lon="0.31834">
        <ele>631.4</ele>
        <time>2026-07-08T10:34:37Z</time>
      </trkpt>
      <trkpt lat="43.01966" lon="0.31834">
        <ele>631.4</ele>
        <time>2026-07-08T10:34:38Z</time>
      </trkpt>
      <trkpt lat="43.01967" lon="0.31833">
        <ele>632.4</ele>
        <time>2026-07-08T10:34:38Z</time>
      </trkpt>
      <trkpt lat="43.01967" lon="0.31833">
        <ele>632.4</ele>
        <time>2026-07-08T10:34:39Z</time>
      </trkpt>
      <trkpt lat="43.01968" lon="0.31833">
        <ele>632.4</ele>
        <time>2026-07-08T10:34:39Z</time>
      </trkpt>
      <trkpt lat="43.01969" lon="0.31832">
        <ele>632.4</ele>
        <time>2026-07-08T10:34:40Z</time>
      </trkpt>
      <trkpt lat="43.01969" lon="0.31832">
        <ele>632.4</ele>
        <time>2026-07-08T10:34:40Z</time>
      </trkpt>
      <trkpt lat="43.0197" lon="0.31832">
        <ele>632.4</ele>
        <time>2026-07-08T10:34:41Z</time>
      </trkpt>
      <trkpt lat="43.0197" lon="0.31831">
        <ele>631.4</ele>
        <time>2026-07-08T10:34:41Z</time>
      </trkpt>
      <trkpt lat="43.01971" lon="0.31831">
        <ele>631.4</ele>
        <time>2026-07-08T10:34:42Z</time>
      </trkpt>
      <trkpt lat="43.01971" lon="0.3183">
        <ele>631.4</ele>
        <time>2026-07-08T10:34:42Z</time>
      </trkpt>
      <trkpt lat="43.01972" lon="0.3183">
        <ele>631.4</ele>
        <time>2026-07-08T10:34:43Z</time>
      </trkpt>
      <trkpt lat="43.01972" lon="0.31829">
        <ele>631.4</ele>
        <time>2026-07-08T10:34:43Z</time>
      </trkpt>
      <trkpt lat="43.01973" lon="0.31829">
        <ele>631.4</ele>
        <time>2026-07-08T10:34:44Z</time>
      </trkpt>
      <trkpt lat="43.01973" lon="0.31828">
        <ele>631.4</ele>
        <time>2026-07-08T10:34:44Z</time>
      </trkpt>
      <trkpt lat="43.01974" lon="0.31828">
        <ele>631.4</ele>
        <time>2026-07-08T10:34:45Z</time>
      </trkpt>
      <trkpt lat="43.01974" lon="0.31827">
        <ele>631.4</ele>
        <time>2026-07-08T10:34:45Z</time>
      </trkpt>
      <trkpt lat="43.01975" lon="0.31827">
        <ele>631.4</ele>
        <time>2026-07-08T10:34:46Z</time>
      </trkpt>
      <trkpt lat="43.01975" lon="0.31827">
        <ele>630.4</ele>
        <time>2026-07-08T10:34:46Z</time>
      </trkpt>
      <trkpt lat="43.01976" lon="0.31826">
        <ele>630.4</ele>
        <time>2026-07-08T10:34:47Z</time>
      </trkpt>
      <trkpt lat="43.01976" lon="0.31826">
        <ele>631.4</ele>
        <time>2026-07-08T10:34:47Z</time>
      </trkpt>
      <trkpt lat="43.01977" lon="0.31825">
        <ele>631.4</ele>
        <time>2026-07-08T10:34:48Z</time>
      </trkpt>
      <trkpt lat="43.01978" lon="0.31824">
        <ele>631.4</ele>
        <time>2026-07-08T10:34:48Z</time>
      </trkpt>
      <trkpt lat="43.01978" lon="0.31824">
        <ele>631.4</ele>
        <time>2026-07-08T10:34:49Z</time>
      </trkpt>
      <trkpt lat="43.01979" lon="0.31823">
        <ele>631.4</ele>
        <time>2026-07-08T10:34:49Z</time>
      </trkpt>
      <trkpt lat="43.01979" lon="0.31823">
        <ele>631.4</ele>
        <time>2026-07-08T10:34:50Z</time>
      </trkpt>
      <trkpt lat="43.0198" lon="0.31823">
        <ele>631.4</ele>
        <time>2026-07-08T10:34:50Z</time>
      </trkpt>
      <trkpt lat="43.01981" lon="0.31822">
        <ele>631.4</ele>
        <time>2026-07-08T10:34:51Z</time>
      </trkpt>
      <trkpt lat="43.01981" lon="0.31822">
        <ele>630.4</ele>
        <time>2026-07-08T10:34:51Z</time>
      </trkpt>
      <trkpt lat="43.01982" lon="0.31822">
        <ele>630.4</ele>
        <time>2026-07-08T10:34:52Z</time>
      </trkpt>
      <trkpt lat="43.01983" lon="0.31822">
        <ele>630.4</ele>
        <time>2026-07-08T10:34:52Z</time>
      </trkpt>
      <trkpt lat="43.01983" lon="0.31822">
        <ele>630.4</ele>
        <time>2026-07-08T10:34:53Z</time>
      </trkpt>
      <trkpt lat="43.01984" lon="0.31822">
        <ele>630.4</ele>
        <time>2026-07-08T10:34:53Z</time>
      </trkpt>
      <trkpt lat="43.01985" lon="0.31822">
        <ele>630.4</ele>
        <time>2026-07-08T10:34:54Z</time>
      </trkpt>
      <trkpt lat="43.01986" lon="0.31823">
        <ele>629.4</ele>
        <time>2026-07-08T10:34:54Z</time>
      </trkpt>
      <trkpt lat="43.01986" lon="0.31824">
        <ele>629.4</ele>
        <time>2026-07-08T10:34:55Z</time>
      </trkpt>
      <trkpt lat="43.01987" lon="0.31824">
        <ele>628.4</ele>
        <time>2026-07-08T10:34:55Z</time>
      </trkpt>
      <trkpt lat="43.01987" lon="0.31825">
        <ele>628.4</ele>
        <time>2026-07-08T10:34:56Z</time>
      </trkpt>
      <trkpt lat="43.01988" lon="0.31825">
        <ele>628.4</ele>
        <time>2026-07-08T10:34:56Z</time>
      </trkpt>
      <trkpt lat="43.01989" lon="0.31826">
        <ele>628.4</ele>
        <time>2026-07-08T10:34:57Z</time>
      </trkpt>
      <trkpt lat="43.01989" lon="0.31827">
        <ele>626.4</ele>
        <time>2026-07-08T10:34:57Z</time>
      </trkpt>
      <trkpt lat="43.0199" lon="0.31827">
        <ele>626.4</ele>
        <time>2026-07-08T10:34:58Z</time>
      </trkpt>
      <trkpt lat="43.01991" lon="0.31828">
        <ele>626.4</ele>
        <time>2026-07-08T10:34:58Z</time>
      </trkpt>
      <trkpt lat="43.01991" lon="0.31828">
        <ele>626.4</ele>
        <time>2026-07-08T10:34:59Z</time>
      </trkpt>
      <trkpt lat="43.01992" lon="0.31829">
        <ele>625.4</ele>
        <time>2026-07-08T10:34:59Z</time>
      </trkpt>
      <trkpt lat="43.01992" lon="0.31829">
        <ele>625.4</ele>
        <time>2026-07-08T10:35:00Z</time>
      </trkpt>
      <trkpt lat="43.01993" lon="0.3183">
        <ele>625.4</ele>
        <time>2026-07-08T10:35:00Z</time>
      </trkpt>
      <trkpt lat="43.01993" lon="0.3183">
        <ele>625.4</ele>
        <time>2026-07-08T10:35:01Z</time>
      </trkpt>
      <trkpt lat="43.01994" lon="0.3183">
        <ele>624.4</ele>
        <time>2026-07-08T10:35:01Z</time>
      </trkpt>
      <trkpt lat="43.01995" lon="0.31831">
        <ele>624.4</ele>
        <time>2026-07-08T10:35:02Z</time>
      </trkpt>
      <trkpt lat="43.01995" lon="0.31831">
        <ele>625.4</ele>
        <time>2026-07-08T10:35:02Z</time>
      </trkpt>
      <trkpt lat="43.01996" lon="0.31832">
        <ele>625.4</ele>
        <time>2026-07-08T10:35:03Z</time>
      </trkpt>
      <trkpt lat="43.01996" lon="0.31832">
        <ele>624.4</ele>
        <time>2026-07-08T10:35:04Z</time>
      </trkpt>
      <trkpt lat="43.01997" lon="0.31832">
        <ele>624.4</ele>
        <time>2026-07-08T10:35:04Z</time>
      </trkpt>
      <trkpt lat="43.01998" lon="0.31832">
        <ele>624.4</ele>
        <time>2026-07-08T10:35:05Z</time>
      </trkpt>
      <trkpt lat="43.01998" lon="0.31832">
        <ele>624.4</ele>
        <time>2026-07-08T10:35:05Z</time>
      </trkpt>
      <trkpt lat="43.01999" lon="0.31833">
        <ele>624.4</ele>
        <time>2026-07-08T10:35:06Z</time>
      </trkpt>
      <trkpt lat="43.02" lon="0.31833">
        <ele>624.4</ele>
        <time>2026-07-08T10:35:06Z</time>
      </trkpt>
      <trkpt lat="43.02001" lon="0.31833">
        <ele>624.4</ele>
        <time>2026-07-08T10:35:07Z</time>
      </trkpt>
      <trkpt lat="43.02001" lon="0.31833">
        <ele>623.4</ele>
        <time>2026-07-08T10:35:07Z</time>
      </trkpt>
      <trkpt lat="43.02002" lon="0.31833">
        <ele>623.4</ele>
        <time>2026-07-08T10:35:08Z</time>
      </trkpt>
      <trkpt lat="43.02003" lon="0.31833">
        <ele>623.4</ele>
        <time>2026-07-08T10:35:08Z</time>
      </trkpt>
      <trkpt lat="43.02004" lon="0.31833">
        <ele>623.4</ele>
        <time>2026-07-08T10:35:09Z</time>
      </trkpt>
      <trkpt lat="43.02004" lon="0.31833">
        <ele>623.4</ele>
        <time>2026-07-08T10:35:09Z</time>
      </trkpt>
      <trkpt lat="43.02005" lon="0.31833">
        <ele>623.4</ele>
        <time>2026-07-08T10:35:10Z</time>
      </trkpt>
      <trkpt lat="43.02006" lon="0.31834">
        <ele>623.4</ele>
        <time>2026-07-08T10:35:10Z</time>
      </trkpt>
      <trkpt lat="43.02007" lon="0.31834">
        <ele>623.4</ele>
        <time>2026-07-08T10:35:11Z</time>
      </trkpt>
      <trkpt lat="43.02008" lon="0.31834">
        <ele>622.4</ele>
        <time>2026-07-08T10:35:11Z</time>
      </trkpt>
      <trkpt lat="43.02009" lon="0.31834">
        <ele>622.4</ele>
        <time>2026-07-08T10:35:12Z</time>
      </trkpt>
      <trkpt lat="43.0201" lon="0.31835">
        <ele>622.4</ele>
        <time>2026-07-08T10:35:13Z</time>
      </trkpt>
      <trkpt lat="43.0201" lon="0.31835">
        <ele>622.4</ele>
        <time>2026-07-08T10:35:13Z</time>
      </trkpt>
      <trkpt lat="43.02011" lon="0.31835">
        <ele>622.4</ele>
        <time>2026-07-08T10:35:14Z</time>
      </trkpt>
      <trkpt lat="43.02012" lon="0.31835">
        <ele>622.4</ele>
        <time>2026-07-08T10:35:14Z</time>
      </trkpt>
      <trkpt lat="43.02013" lon="0.31836">
        <ele>622.4</ele>
        <time>2026-07-08T10:35:15Z</time>
      </trkpt>
      <trkpt lat="43.02013" lon="0.31836">
        <ele>622.4</ele>
        <time>2026-07-08T10:35:15Z</time>
      </trkpt>
      <trkpt lat="43.02014" lon="0.31836">
        <ele>622.4</ele>
        <time>2026-07-08T10:35:16Z</time>
      </trkpt>
      <trkpt lat="43.02016" lon="0.31837">
        <ele>622.4</ele>
        <time>2026-07-08T10:35:17Z</time>
      </trkpt>
      <trkpt lat="43.02016" lon="0.31837">
        <ele>622.4</ele>
        <time>2026-07-08T10:35:17Z</time>
      </trkpt>
      <trkpt lat="43.02017" lon="0.31837">
        <ele>622.4</ele>
        <time>2026-07-08T10:35:18Z</time>
      </trkpt>
      <trkpt lat="43.02018" lon="0.31837">
        <ele>622.4</ele>
        <time>2026-07-08T10:35:18Z</time>
      </trkpt>
      <trkpt lat="43.02018" lon="0.31837">
        <ele>622.4</ele>
        <time>2026-07-08T10:35:19Z</time>
      </trkpt>
      <trkpt lat="43.02019" lon="0.31837">
        <ele>622.4</ele>
        <time>2026-07-08T10:35:19Z</time>
      </trkpt>
      <trkpt lat="43.0202" lon="0.31838">
        <ele>622.4</ele>
        <time>2026-07-08T10:35:20Z</time>
      </trkpt>
      <trkpt lat="43.02021" lon="0.31838">
        <ele>622.4</ele>
        <time>2026-07-08T10:35:20Z</time>
      </trkpt>
      <trkpt lat="43.02021" lon="0.31838">
        <ele>623.4</ele>
        <time>2026-07-08T10:35:21Z</time>
      </trkpt>
      <trkpt lat="43.02022" lon="0.31839">
        <ele>623.4</ele>
        <time>2026-07-08T10:35:22Z</time>
      </trkpt>
      <trkpt lat="43.02023" lon="0.31839">
        <ele>623.4</ele>
        <time>2026-07-08T10:35:22Z</time>
      </trkpt>
      <trkpt lat="43.02023" lon="0.3184">
        <ele>623.4</ele>
        <time>2026-07-08T10:35:23Z</time>
      </trkpt>
      <trkpt lat="43.02024" lon="0.3184">
        <ele>623.4</ele>
        <time>2026-07-08T10:35:23Z</time>
      </trkpt>
      <trkpt lat="43.02024" lon="0.31841">
        <ele>623.4</ele>
        <time>2026-07-08T10:35:24Z</time>
      </trkpt>
      <trkpt lat="43.02024" lon="0.31841">
        <ele>624.4</ele>
        <time>2026-07-08T10:35:24Z</time>
      </trkpt>
      <trkpt lat="43.02024" lon="0.31842">
        <ele>624.4</ele>
        <time>2026-07-08T10:35:25Z</time>
      </trkpt>
      <trkpt lat="43.02024" lon="0.31842">
        <ele>625.4</ele>
        <time>2026-07-08T10:35:25Z</time>
      </trkpt>
      <trkpt lat="43.02024" lon="0.31843">
        <ele>625.4</ele>
        <time>2026-07-08T10:35:26Z</time>
      </trkpt>
      <trkpt lat="43.02023" lon="0.31843">
        <ele>625.4</ele>
        <time>2026-07-08T10:35:26Z</time>
      </trkpt>
      <trkpt lat="43.02023" lon="0.31844">
        <ele>626.4</ele>
        <time>2026-07-08T10:35:27Z</time>
      </trkpt>
      <trkpt lat="43.02022" lon="0.31844">
        <ele>626.4</ele>
        <time>2026-07-08T10:35:28Z</time>
      </trkpt>
      <trkpt lat="43.02022" lon="0.31845">
        <ele>627.4</ele>
        <time>2026-07-08T10:35:29Z</time>
      </trkpt>
      <trkpt lat="43.02022" lon="0.31845">
        <ele>628.4</ele>
        <time>2026-07-08T10:35:29Z</time>
      </trkpt>
      <trkpt lat="43.02022" lon="0.31845">
        <ele>628.4</ele>
        <time>2026-07-08T10:35:30Z</time>
      </trkpt>
      <trkpt lat="43.02022" lon="0.31845">
        <ele>629.4</ele>
        <time>2026-07-08T10:35:30Z</time>
      </trkpt>
      <trkpt lat="43.02022" lon="0.31845">
        <ele>629.4</ele>
        <time>2026-07-08T10:35:31Z</time>
      </trkpt>
      <trkpt lat="43.02021" lon="0.31845">
        <ele>630.4</ele>
        <time>2026-07-08T10:35:31Z</time>
      </trkpt>
      <trkpt lat="43.02021" lon="0.31846">
        <ele>630.4</ele>
        <time>2026-07-08T10:35:32Z</time>
      </trkpt>
      <trkpt lat="43.02021" lon="0.31846">
        <ele>630.4</ele>
        <time>2026-07-08T10:35:32Z</time>
      </trkpt>
      <trkpt lat="43.02021" lon="0.31846">
        <ele>630.4</ele>
        <time>2026-07-08T10:35:33Z</time>
      </trkpt>
      <trkpt lat="43.0202" lon="0.31846">
        <ele>631.4</ele>
        <time>2026-07-08T10:35:33Z</time>
      </trkpt>
      <trkpt lat="43.02019" lon="0.31846">
        <ele>631.4</ele>
        <time>2026-07-08T10:35:34Z</time>
      </trkpt>
      <trkpt lat="43.0202" lon="0.31846">
        <ele>632.4</ele>
        <time>2026-07-08T10:35:34Z</time>
      </trkpt>
      <trkpt lat="43.0202" lon="0.31846">
        <ele>632.4</ele>
        <time>2026-07-08T10:35:35Z</time>
      </trkpt>
      <trkpt lat="43.0202" lon="0.31846">
        <ele>631.4</ele>
        <time>2026-07-08T10:35:35Z</time>
      </trkpt>
      <trkpt lat="43.0202" lon="0.31846">
        <ele>631.4</ele>
        <time>2026-07-08T10:35:36Z</time>
      </trkpt>
      <trkpt lat="43.0202" lon="0.31845">
        <ele>631.4</ele>
        <time>2026-07-08T10:35:36Z</time>
      </trkpt>
      <trkpt lat="43.0202" lon="0.31845">
        <ele>631.4</ele>
        <time>2026-07-08T10:35:37Z</time>
      </trkpt>
      <trkpt lat="43.02019" lon="0.31844">
        <ele>631.4</ele>
        <time>2026-07-08T10:35:37Z</time>
      </trkpt>
      <trkpt lat="43.02019" lon="0.31844">
        <ele>631.4</ele>
        <time>2026-07-08T10:35:38Z</time>
      </trkpt>
      <trkpt lat="43.02018" lon="0.31844">
        <ele>631.4</ele>
        <time>2026-07-08T10:35:38Z</time>
      </trkpt>
      <trkpt lat="43.02017" lon="0.31844">
        <ele>631.4</ele>
        <time>2026-07-08T10:35:39Z</time>
      </trkpt>
      <trkpt lat="43.02017" lon="0.31844">
        <ele>631.4</ele>
        <time>2026-07-08T10:35:39Z</time>
      </trkpt>
      <trkpt lat="43.02016" lon="0.31844">
        <ele>631.4</ele>
        <time>2026-07-08T10:35:40Z</time>
      </trkpt>
      <trkpt lat="43.02016" lon="0.31843">
        <ele>631.4</ele>
        <time>2026-07-08T10:35:40Z</time>
      </trkpt>
      <trkpt lat="43.02015" lon="0.31843">
        <ele>631.4</ele>
        <time>2026-07-08T10:35:41Z</time>
      </trkpt>
      <trkpt lat="43.02015" lon="0.31843">
        <ele>631.4</ele>
        <time>2026-07-08T10:35:41Z</time>
      </trkpt>
      <trkpt lat="43.02014" lon="0.31843">
        <ele>631.4</ele>
        <time>2026-07-08T10:35:42Z</time>
      </trkpt>
      <trkpt lat="43.02014" lon="0.31843">
        <ele>631.4</ele>
        <time>2026-07-08T10:35:42Z</time>
      </trkpt>
      <trkpt lat="43.02013" lon="0.31843">
        <ele>631.4</ele>
        <time>2026-07-08T10:35:43Z</time>
      </trkpt>
      <trkpt lat="43.02013" lon="0.31843">
        <ele>631.4</ele>
        <time>2026-07-08T10:35:43Z</time>
      </trkpt>
      <trkpt lat="43.02012" lon="0.31843">
        <ele>631.4</ele>
        <time>2026-07-08T10:35:44Z</time>
      </trkpt>
      <trkpt lat="43.02011" lon="0.31843">
        <ele>631.4</ele>
        <time>2026-07-08T10:35:45Z</time>
      </trkpt>
      <trkpt lat="43.02011" lon="0.31844">
        <ele>631.4</ele>
        <time>2026-07-08T10:35:45Z</time>
      </trkpt>
      <trkpt lat="43.0201" lon="0.31843">
        <ele>631.4</ele>
        <time>2026-07-08T10:35:46Z</time>
      </trkpt>
      <trkpt lat="43.0201" lon="0.31844">
        <ele>631.4</ele>
        <time>2026-07-08T10:35:46Z</time>
      </trkpt>
      <trkpt lat="43.02009" lon="0.31844">
        <ele>631.4</ele>
        <time>2026-07-08T10:35:47Z</time>
      </trkpt>
      <trkpt lat="43.02008" lon="0.31843">
        <ele>631.4</ele>
        <time>2026-07-08T10:35:47Z</time>
      </trkpt>
      <trkpt lat="43.02008" lon="0.31843">
        <ele>631.4</ele>
        <time>2026-07-08T10:35:48Z</time>
      </trkpt>
      <trkpt lat="43.02007" lon="0.31843">
        <ele>630.4</ele>
        <time>2026-07-08T10:35:48Z</time>
      </trkpt>
      <trkpt lat="43.02007" lon="0.31843">
        <ele>630.4</ele>
        <time>2026-07-08T10:35:49Z</time>
      </trkpt>
      <trkpt lat="43.02006" lon="0.31842">
        <ele>630.4</ele>
        <time>2026-07-08T10:35:49Z</time>
      </trkpt>
      <trkpt lat="43.02006" lon="0.31842">
        <ele>630.4</ele>
        <time>2026-07-08T10:35:50Z</time>
      </trkpt>
      <trkpt lat="43.02005" lon="0.31843">
        <ele>630.4</ele>
        <time>2026-07-08T10:35:50Z</time>
      </trkpt>
      <trkpt lat="43.02004" lon="0.31842">
        <ele>630.4</ele>
        <time>2026-07-08T10:35:50Z</time>
      </trkpt>
      <trkpt lat="43.02004" lon="0.31842">
        <ele>630.4</ele>
        <time>2026-07-08T10:35:51Z</time>
      </trkpt>
      <trkpt lat="43.02003" lon="0.31841">
        <ele>631.4</ele>
        <time>2026-07-08T10:35:51Z</time>
      </trkpt>
      <trkpt lat="43.02003" lon="0.31841">
        <ele>631.4</ele>
        <time>2026-07-08T10:35:52Z</time>
      </trkpt>
      <trkpt lat="43.02002" lon="0.31841">
        <ele>630.4</ele>
        <time>2026-07-08T10:35:53Z</time>
      </trkpt>
      <trkpt lat="43.02001" lon="0.31841">
        <ele>631.4</ele>
        <time>2026-07-08T10:35:53Z</time>
      </trkpt>
      <trkpt lat="43.02" lon="0.31841">
        <ele>631.4</ele>
        <time>2026-07-08T10:35:54Z</time>
      </trkpt>
      <trkpt lat="43.02" lon="0.31842">
        <ele>631.4</ele>
        <time>2026-07-08T10:35:54Z</time>
      </trkpt>
      <trkpt lat="43.01999" lon="0.31842">
        <ele>630.4</ele>
        <time>2026-07-08T10:35:55Z</time>
      </trkpt>
      <trkpt lat="43.01998" lon="0.31843">
        <ele>630.4</ele>
        <time>2026-07-08T10:35:56Z</time>
      </trkpt>
      <trkpt lat="43.01998" lon="0.31843">
        <ele>630.4</ele>
        <time>2026-07-08T10:35:56Z</time>
      </trkpt>
      <trkpt lat="43.01998" lon="0.31843">
        <ele>630.4</ele>
        <time>2026-07-08T10:35:57Z</time>
      </trkpt>
      <trkpt lat="43.01998" lon="0.31844">
        <ele>631.4</ele>
        <time>2026-07-08T10:35:57Z</time>
      </trkpt>
      <trkpt lat="43.01997" lon="0.31845">
        <ele>631.4</ele>
        <time>2026-07-08T10:35:58Z</time>
      </trkpt>
      <trkpt lat="43.01996" lon="0.31846">
        <ele>631.4</ele>
        <time>2026-07-08T10:35:59Z</time>
      </trkpt>
      <trkpt lat="43.01996" lon="0.31846">
        <ele>631.4</ele>
        <time>2026-07-08T10:35:59Z</time>
      </trkpt>
      <trkpt lat="43.01996" lon="0.31847">
        <ele>631.4</ele>
        <time>2026-07-08T10:36:00Z</time>
      </trkpt>
      <trkpt lat="43.01995" lon="0.31848">
        <ele>631.4</ele>
        <time>2026-07-08T10:36:00Z</time>
      </trkpt>
      <trkpt lat="43.01994" lon="0.31849">
        <ele>631.4</ele>
        <time>2026-07-08T10:36:01Z</time>
      </trkpt>
      <trkpt lat="43.01993" lon="0.3185">
        <ele>631.4</ele>
        <time>2026-07-08T10:36:01Z</time>
      </trkpt>
      <trkpt lat="43.01993" lon="0.3185">
        <ele>629.4</ele>
        <time>2026-07-08T10:36:02Z</time>
      </trkpt>
      <trkpt lat="43.01993" lon="0.3185">
        <ele>629.4</ele>
        <time>2026-07-08T10:36:02Z</time>
      </trkpt>
      <trkpt lat="43.01992" lon="0.31851">
        <ele>628.4</ele>
        <time>2026-07-08T10:36:03Z</time>
      </trkpt>
      <trkpt lat="43.01992" lon="0.31852">
        <ele>628.4</ele>
        <time>2026-07-08T10:36:04Z</time>
      </trkpt>
      <trkpt lat="43.01992" lon="0.31852">
        <ele>628.4</ele>
        <time>2026-07-08T10:36:05Z</time>
      </trkpt>
      <trkpt lat="43.01993" lon="0.31854">
        <ele>628.4</ele>
        <time>2026-07-08T10:36:05Z</time>
      </trkpt>
      <trkpt lat="43.01993" lon="0.31855">
        <ele>628.4</ele>
        <time>2026-07-08T10:36:06Z</time>
      </trkpt>
      <trkpt lat="43.01994" lon="0.31856">
        <ele>628.4</ele>
        <time>2026-07-08T10:36:06Z</time>
      </trkpt>
      <trkpt lat="43.01993" lon="0.31857">
        <ele>628.4</ele>
        <time>2026-07-08T10:36:07Z</time>
      </trkpt>
      <trkpt lat="43.01994" lon="0.31858">
        <ele>628.4</ele>
        <time>2026-07-08T10:36:07Z</time>
      </trkpt>
      <trkpt lat="43.01994" lon="0.31859">
        <ele>628.4</ele>
        <time>2026-07-08T10:36:08Z</time>
      </trkpt>
      <trkpt lat="43.01995" lon="0.31861">
        <ele>627.4</ele>
        <time>2026-07-08T10:36:09Z</time>
      </trkpt>
      <trkpt lat="43.01995" lon="0.31861">
        <ele>627.4</ele>
        <time>2026-07-08T10:36:09Z</time>
      </trkpt>
      <trkpt lat="43.01995" lon="0.31862">
        <ele>627.4</ele>
        <time>2026-07-08T10:36:10Z</time>
      </trkpt>
      <trkpt lat="43.01995" lon="0.31862">
        <ele>626.4</ele>
        <time>2026-07-08T10:36:10Z</time>
      </trkpt>
      <trkpt lat="43.01994" lon="0.31863">
        <ele>626.4</ele>
        <time>2026-07-08T10:36:11Z</time>
      </trkpt>
      <trkpt lat="43.01994" lon="0.31865">
        <ele>627.4</ele>
        <time>2026-07-08T10:36:12Z</time>
      </trkpt>
      <trkpt lat="43.01994" lon="0.31866">
        <ele>626.4</ele>
        <time>2026-07-08T10:36:13Z</time>
      </trkpt>
      <trkpt lat="43.01994" lon="0.31866">
        <ele>626.4</ele>
        <time>2026-07-08T10:36:13Z</time>
      </trkpt>
      <trkpt lat="43.01993" lon="0.31867">
        <ele>626.4</ele>
        <time>2026-07-08T10:36:14Z</time>
      </trkpt>
      <trkpt lat="43.01993" lon="0.31868">
        <ele>625.4</ele>
        <time>2026-07-08T10:36:15Z</time>
      </trkpt>
      <trkpt lat="43.01992" lon="0.3187">
        <ele>625.4</ele>
        <time>2026-07-08T10:36:16Z</time>
      </trkpt>
      <trkpt lat="43.01991" lon="0.31872">
        <ele>625.4</ele>
        <time>2026-07-08T10:36:17Z</time>
      </trkpt>
      <trkpt lat="43.01991" lon="0.31873">
        <ele>625.4</ele>
        <time>2026-07-08T10:36:17Z</time>
      </trkpt>
      <trkpt lat="43.0199" lon="0.31873">
        <ele>625.4</ele>
        <time>2026-07-08T10:36:18Z</time>
      </trkpt>
      <trkpt lat="43.0199" lon="0.31874">
        <ele>625.4</ele>
        <time>2026-07-08T10:36:18Z</time>
      </trkpt>
      <trkpt lat="43.0199" lon="0.31875">
        <ele>625.4</ele>
        <time>2026-07-08T10:36:19Z</time>
      </trkpt>
      <trkpt lat="43.01989" lon="0.31876">
        <ele>624.4</ele>
        <time>2026-07-08T10:36:20Z</time>
      </trkpt>
      <trkpt lat="43.01989" lon="0.31877">
        <ele>624.4</ele>
        <time>2026-07-08T10:36:20Z</time>
      </trkpt>
      <trkpt lat="43.01988" lon="0.31877">
        <ele>624.4</ele>
        <time>2026-07-08T10:36:21Z</time>
      </trkpt>
      <trkpt lat="43.01988" lon="0.31878">
        <ele>624.4</ele>
        <time>2026-07-08T10:36:21Z</time>
      </trkpt>
      <trkpt lat="43.01987" lon="0.31878">
        <ele>624.4</ele>
        <time>2026-07-08T10:36:22Z</time>
      </trkpt>
      <trkpt lat="43.01986" lon="0.31879">
        <ele>624.4</ele>
        <time>2026-07-08T10:36:23Z</time>
      </trkpt>
      <trkpt lat="43.01986" lon="0.3188">
        <ele>623.4</ele>
        <time>2026-07-08T10:36:23Z</time>
      </trkpt>
      <trkpt lat="43.01985" lon="0.3188">
        <ele>623.4</ele>
        <time>2026-07-08T10:36:24Z</time>
      </trkpt>
      <trkpt lat="43.01985" lon="0.31881">
        <ele>623.4</ele>
        <time>2026-07-08T10:36:24Z</time>
      </trkpt>
      <trkpt lat="43.01984" lon="0.31881">
        <ele>623.4</ele>
        <time>2026-07-08T10:36:25Z</time>
      </trkpt>
      <trkpt lat="43.01984" lon="0.31882">
        <ele>623.4</ele>
        <time>2026-07-08T10:36:26Z</time>
      </trkpt>
      <trkpt lat="43.01983" lon="0.31883">
        <ele>622.4</ele>
        <time>2026-07-08T10:36:26Z</time>
      </trkpt>
      <trkpt lat="43.01983" lon="0.31883">
        <ele>622.4</ele>
        <time>2026-07-08T10:36:27Z</time>
      </trkpt>
      <trkpt lat="43.01982" lon="0.31884">
        <ele>622.4</ele>
        <time>2026-07-08T10:36:27Z</time>
      </trkpt>
      <trkpt lat="43.01981" lon="0.31885">
        <ele>622.4</ele>
        <time>2026-07-08T10:36:28Z</time>
      </trkpt>
      <trkpt lat="43.01981" lon="0.31885">
        <ele>622.4</ele>
        <time>2026-07-08T10:36:28Z</time>
      </trkpt>
      <trkpt lat="43.0198" lon="0.31886">
        <ele>622.4</ele>
        <time>2026-07-08T10:36:29Z</time>
      </trkpt>
      <trkpt lat="43.0198" lon="0.31886">
        <ele>622.4</ele>
        <time>2026-07-08T10:36:30Z</time>
      </trkpt>
      <trkpt lat="43.01979" lon="0.31886">
        <ele>622.4</ele>
        <time>2026-07-08T10:36:30Z</time>
      </trkpt>
      <trkpt lat="43.01979" lon="0.31887">
        <ele>622.4</ele>
        <time>2026-07-08T10:36:31Z</time>
      </trkpt>
      <trkpt lat="43.01978" lon="0.31887">
        <ele>621.4</ele>
        <time>2026-07-08T10:36:31Z</time>
      </trkpt>
      <trkpt lat="43.01977" lon="0.31888">
        <ele>621.4</ele>
        <time>2026-07-08T10:36:32Z</time>
      </trkpt>
      <trkpt lat="43.01976" lon="0.31888">
        <ele>621.4</ele>
        <time>2026-07-08T10:36:33Z</time>
      </trkpt>
      <trkpt lat="43.01976" lon="0.31888">
        <ele>620.4</ele>
        <time>2026-07-08T10:36:33Z</time>
      </trkpt>
      <trkpt lat="43.01975" lon="0.31889">
        <ele>620.4</ele>
        <time>2026-07-08T10:36:34Z</time>
      </trkpt>
      <trkpt lat="43.01974" lon="0.31889">
        <ele>620.4</ele>
        <time>2026-07-08T10:36:34Z</time>
      </trkpt>
      <trkpt lat="43.01973" lon="0.31889">
        <ele>619.4</ele>
        <time>2026-07-08T10:36:35Z</time>
      </trkpt>
      <trkpt lat="43.01972" lon="0.3189">
        <ele>619.4</ele>
        <time>2026-07-08T10:36:36Z</time>
      </trkpt>
      <trkpt lat="43.01971" lon="0.31889">
        <ele>618.4</ele>
        <time>2026-07-08T10:36:36Z</time>
      </trkpt>
      <trkpt lat="43.01969" lon="0.31889">
        <ele>618.4</ele>
        <time>2026-07-08T10:36:37Z</time>
      </trkpt>
      <trkpt lat="43.01968" lon="0.31888">
        <ele>618.4</ele>
        <time>2026-07-08T10:36:38Z</time>
      </trkpt>
      <trkpt lat="43.01966" lon="0.31888">
        <ele>618.4</ele>
        <time>2026-07-08T10:36:39Z</time>
      </trkpt>
      <trkpt lat="43.01965" lon="0.31888">
        <ele>618.4</ele>
        <time>2026-07-08T10:36:40Z</time>
      </trkpt>
      <trkpt lat="43.01964" lon="0.31888">
        <ele>617.4</ele>
        <time>2026-07-08T10:36:40Z</time>
      </trkpt>
      <trkpt lat="43.01963" lon="0.31888">
        <ele>617.4</ele>
        <time>2026-07-08T10:36:41Z</time>
      </trkpt>
      <trkpt lat="43.01963" lon="0.31887">
        <ele>617.4</ele>
        <time>2026-07-08T10:36:41Z</time>
      </trkpt>
      <trkpt lat="43.01962" lon="0.31887">
        <ele>617.4</ele>
        <time>2026-07-08T10:36:42Z</time>
      </trkpt>
      <trkpt lat="43.01962" lon="0.31886">
        <ele>617.4</ele>
        <time>2026-07-08T10:36:42Z</time>
      </trkpt>
      <trkpt lat="43.01961" lon="0.31886">
        <ele>617.4</ele>
        <time>2026-07-08T10:36:43Z</time>
      </trkpt>
      <trkpt lat="43.0196" lon="0.31885">
        <ele>616.4</ele>
        <time>2026-07-08T10:36:44Z</time>
      </trkpt>
      <trkpt lat="43.01959" lon="0.31885">
        <ele>617.4</ele>
        <time>2026-07-08T10:36:44Z</time>
      </trkpt>
      <trkpt lat="43.01958" lon="0.31884">
        <ele>617.4</ele>
        <time>2026-07-08T10:36:45Z</time>
      </trkpt>
      <trkpt lat="43.01958" lon="0.31884">
        <ele>616.4</ele>
        <time>2026-07-08T10:36:45Z</time>
      </trkpt>
      <trkpt lat="43.01957" lon="0.31883">
        <ele>616.4</ele>
        <time>2026-07-08T10:36:46Z</time>
      </trkpt>
      <trkpt lat="43.01957" lon="0.31883">
        <ele>616.4</ele>
        <time>2026-07-08T10:36:46Z</time>
      </trkpt>
      <trkpt lat="43.01956" lon="0.31883">
        <ele>616.4</ele>
        <time>2026-07-08T10:36:47Z</time>
      </trkpt>
      <trkpt lat="43.01956" lon="0.31882">
        <ele>616.4</ele>
        <time>2026-07-08T10:36:47Z</time>
      </trkpt>
      <trkpt lat="43.01955" lon="0.31882">
        <ele>616.4</ele>
        <time>2026-07-08T10:36:48Z</time>
      </trkpt>
      <trkpt lat="43.01955" lon="0.31882">
        <ele>616.4</ele>
        <time>2026-07-08T10:36:48Z</time>
      </trkpt>
      <trkpt lat="43.01954" lon="0.31882">
        <ele>616.4</ele>
        <time>2026-07-08T10:36:49Z</time>
      </trkpt>
      <trkpt lat="43.01953" lon="0.31881">
        <ele>615.4</ele>
        <time>2026-07-08T10:36:50Z</time>
      </trkpt>
      <trkpt lat="43.01952" lon="0.31881">
        <ele>615.4</ele>
        <time>2026-07-08T10:36:51Z</time>
      </trkpt>
      <trkpt lat="43.01951" lon="0.31881">
        <ele>614.4</ele>
        <time>2026-07-08T10:36:52Z</time>
      </trkpt>
      <trkpt lat="43.0195" lon="0.31881">
        <ele>614.4</ele>
        <time>2026-07-08T10:36:53Z</time>
      </trkpt>
      <trkpt lat="43.0195" lon="0.31881">
        <ele>613.4</ele>
        <time>2026-07-08T10:36:53Z</time>
      </trkpt>
      <trkpt lat="43.01949" lon="0.31881">
        <ele>613.4</ele>
        <time>2026-07-08T10:36:54Z</time>
      </trkpt>
      <trkpt lat="43.01949" lon="0.31881">
        <ele>613.4</ele>
        <time>2026-07-08T10:36:54Z</time>
      </trkpt>
      <trkpt lat="43.01948" lon="0.31881">
        <ele>613.4</ele>
        <time>2026-07-08T10:36:55Z</time>
      </trkpt>
      <trkpt lat="43.01947" lon="0.31882">
        <ele>612.4</ele>
        <time>2026-07-08T10:36:55Z</time>
      </trkpt>
      <trkpt lat="43.01947" lon="0.31882">
        <ele>612.4</ele>
        <time>2026-07-08T10:36:56Z</time>
      </trkpt>
      <trkpt lat="43.01946" lon="0.31882">
        <ele>612.4</ele>
        <time>2026-07-08T10:36:56Z</time>
      </trkpt>
      <trkpt lat="43.01945" lon="0.31883">
        <ele>612.4</ele>
        <time>2026-07-08T10:36:57Z</time>
      </trkpt>
      <trkpt lat="43.01944" lon="0.31884">
        <ele>612.4</ele>
        <time>2026-07-08T10:36:58Z</time>
      </trkpt>
      <trkpt lat="43.01942" lon="0.31886">
        <ele>611.4</ele>
        <time>2026-07-08T10:36:58Z</time>
      </trkpt>
      <trkpt lat="43.01942" lon="0.31886">
        <ele>611.4</ele>
        <time>2026-07-08T10:36:59Z</time>
      </trkpt>
      <trkpt lat="43.01941" lon="0.31888">
        <ele>610.4</ele>
        <time>2026-07-08T10:37:00Z</time>
      </trkpt>
      <trkpt lat="43.01939" lon="0.3189">
        <ele>610.4</ele>
        <time>2026-07-08T10:37:01Z</time>
      </trkpt>
      <trkpt lat="43.01938" lon="0.31891">
        <ele>609.4</ele>
        <time>2026-07-08T10:37:01Z</time>
      </trkpt>
      <trkpt lat="43.01937" lon="0.31892">
        <ele>609.4</ele>
        <time>2026-07-08T10:37:02Z</time>
      </trkpt>
      <trkpt lat="43.01936" lon="0.31893">
        <ele>609.4</ele>
        <time>2026-07-08T10:37:02Z</time>
      </trkpt>
      <trkpt lat="43.01936" lon="0.31893">
        <ele>609.4</ele>
        <time>2026-07-08T10:37:03Z</time>
      </trkpt>
      <trkpt lat="43.01935" lon="0.31894">
        <ele>609.4</ele>
        <time>2026-07-08T10:37:03Z</time>
      </trkpt>
      <trkpt lat="43.01934" lon="0.31895">
        <ele>609.4</ele>
        <time>2026-07-08T10:37:04Z</time>
      </trkpt>
      <trkpt lat="43.01934" lon="0.31895">
        <ele>608.4</ele>
        <time>2026-07-08T10:37:04Z</time>
      </trkpt>
      <trkpt lat="43.01933" lon="0.31896">
        <ele>608.4</ele>
        <time>2026-07-08T10:37:05Z</time>
      </trkpt>
      <trkpt lat="43.01932" lon="0.31896">
        <ele>608.4</ele>
        <time>2026-07-08T10:37:06Z</time>
      </trkpt>
      <trkpt lat="43.01932" lon="0.31897">
        <ele>607.4</ele>
        <time>2026-07-08T10:37:06Z</time>
      </trkpt>
      <trkpt lat="43.01932" lon="0.31898">
        <ele>607.4</ele>
        <time>2026-07-08T10:37:07Z</time>
      </trkpt>
      <trkpt lat="43.01931" lon="0.31899">
        <ele>607.4</ele>
        <time>2026-07-08T10:37:08Z</time>
      </trkpt>
      <trkpt lat="43.01931" lon="0.31899">
        <ele>607.4</ele>
        <time>2026-07-08T10:37:08Z</time>
      </trkpt>
      <trkpt lat="43.0193" lon="0.319">
        <ele>606.4</ele>
        <time>2026-07-08T10:37:09Z</time>
      </trkpt>
      <trkpt lat="43.01929" lon="0.31901">
        <ele>606.4</ele>
        <time>2026-07-08T10:37:10Z</time>
      </trkpt>
      <trkpt lat="43.01929" lon="0.31902">
        <ele>606.4</ele>
        <time>2026-07-08T10:37:10Z</time>
      </trkpt>
      <trkpt lat="43.01928" lon="0.31903">
        <ele>606.4</ele>
        <time>2026-07-08T10:37:11Z</time>
      </trkpt>
      <trkpt lat="43.01927" lon="0.31904">
        <ele>606.4</ele>
        <time>2026-07-08T10:37:12Z</time>
      </trkpt>
      <trkpt lat="43.01927" lon="0.31906">
        <ele>606.4</ele>
        <time>2026-07-08T10:37:12Z</time>
      </trkpt>
      <trkpt lat="43.01926" lon="0.31907">
        <ele>606.4</ele>
        <time>2026-07-08T10:37:13Z</time>
      </trkpt>
      <trkpt lat="43.01925" lon="0.31909">
        <ele>606.4</ele>
        <time>2026-07-08T10:37:14Z</time>
      </trkpt>
      <trkpt lat="43.01925" lon="0.31911">
        <ele>606.4</ele>
        <time>2026-07-08T10:37:14Z</time>
      </trkpt>
      <trkpt lat="43.01925" lon="0.31913">
        <ele>606.4</ele>
        <time>2026-07-08T10:37:15Z</time>
      </trkpt>
      <trkpt lat="43.01925" lon="0.31914">
        <ele>607.4</ele>
        <time>2026-07-08T10:37:15Z</time>
      </trkpt>
      <trkpt lat="43.01925" lon="0.31916">
        <ele>607.4</ele>
        <time>2026-07-08T10:37:16Z</time>
      </trkpt>
      <trkpt lat="43.01925" lon="0.31917">
        <ele>607.4</ele>
        <time>2026-07-08T10:37:16Z</time>
      </trkpt>
      <trkpt lat="43.01925" lon="0.31919">
        <ele>606.4</ele>
        <time>2026-07-08T10:37:17Z</time>
      </trkpt>
      <trkpt lat="43.01925" lon="0.3192">
        <ele>607.4</ele>
        <time>2026-07-08T10:37:17Z</time>
      </trkpt>
      <trkpt lat="43.01925" lon="0.31921">
        <ele>607.4</ele>
        <time>2026-07-08T10:37:17Z</time>
      </trkpt>
      <trkpt lat="43.01925" lon="0.31922">
        <ele>607.4</ele>
        <time>2026-07-08T10:37:18Z</time>
      </trkpt>
      <trkpt lat="43.01925" lon="0.31924">
        <ele>607.4</ele>
        <time>2026-07-08T10:37:18Z</time>
      </trkpt>
      <trkpt lat="43.01925" lon="0.31925">
        <ele>607.4</ele>
        <time>2026-07-08T10:37:19Z</time>
      </trkpt>
      <trkpt lat="43.01925" lon="0.31927">
        <ele>606.4</ele>
        <time>2026-07-08T10:37:19Z</time>
      </trkpt>
      <trkpt lat="43.01925" lon="0.31928">
        <ele>606.4</ele>
        <time>2026-07-08T10:37:20Z</time>
      </trkpt>
      <trkpt lat="43.01925" lon="0.31929">
        <ele>606.4</ele>
        <time>2026-07-08T10:37:20Z</time>
      </trkpt>
      <trkpt lat="43.01925" lon="0.3193">
        <ele>606.4</ele>
        <time>2026-07-08T10:37:21Z</time>
      </trkpt>
      <trkpt lat="43.01925" lon="0.31932">
        <ele>606.4</ele>
        <time>2026-07-08T10:37:21Z</time>
      </trkpt>
      <trkpt lat="43.01924" lon="0.31933">
        <ele>606.4</ele>
        <time>2026-07-08T10:37:22Z</time>
      </trkpt>
      <trkpt lat="43.01924" lon="0.31934">
        <ele>606.4</ele>
        <time>2026-07-08T10:37:22Z</time>
      </trkpt>
      <trkpt lat="43.01924" lon="0.31935">
        <ele>606.4</ele>
        <time>2026-07-08T10:37:23Z</time>
      </trkpt>
      <trkpt lat="43.01924" lon="0.31936">
        <ele>606.4</ele>
        <time>2026-07-08T10:37:23Z</time>
      </trkpt>
      <trkpt lat="43.01923" lon="0.31937">
        <ele>606.4</ele>
        <time>2026-07-08T10:37:24Z</time>
      </trkpt>
      <trkpt lat="43.01922" lon="0.31938">
        <ele>606.4</ele>
        <time>2026-07-08T10:37:25Z</time>
      </trkpt>
      <trkpt lat="43.01922" lon="0.31938">
        <ele>606.4</ele>
        <time>2026-07-08T10:37:25Z</time>
      </trkpt>
      <trkpt lat="43.01921" lon="0.31939">
        <ele>606.4</ele>
        <time>2026-07-08T10:37:26Z</time>
      </trkpt>
      <trkpt lat="43.01921" lon="0.31939">
        <ele>606.4</ele>
        <time>2026-07-08T10:37:26Z</time>
      </trkpt>
      <trkpt lat="43.0192" lon="0.3194">
        <ele>606.4</ele>
        <time>2026-07-08T10:37:27Z</time>
      </trkpt>
      <trkpt lat="43.0192" lon="0.31941">
        <ele>606.4</ele>
        <time>2026-07-08T10:37:27Z</time>
      </trkpt>
      <trkpt lat="43.01919" lon="0.31941">
        <ele>606.4</ele>
        <time>2026-07-08T10:37:28Z</time>
      </trkpt>
      <trkpt lat="43.01919" lon="0.31942">
        <ele>606.4</ele>
        <time>2026-07-08T10:37:28Z</time>
      </trkpt>
      <trkpt lat="43.01918" lon="0.31943">
        <ele>606.4</ele>
        <time>2026-07-08T10:37:29Z</time>
      </trkpt>
      <trkpt lat="43.01918" lon="0.31944">
        <ele>606.4</ele>
        <time>2026-07-08T10:37:29Z</time>
      </trkpt>
      <trkpt lat="43.01917" lon="0.31944">
        <ele>606.4</ele>
        <time>2026-07-08T10:37:30Z</time>
      </trkpt>
      <trkpt lat="43.01917" lon="0.31945">
        <ele>606.4</ele>
        <time>2026-07-08T10:37:30Z</time>
      </trkpt>
      <trkpt lat="43.01916" lon="0.31946">
        <ele>606.4</ele>
        <time>2026-07-08T10:37:31Z</time>
      </trkpt>
      <trkpt lat="43.01915" lon="0.31946">
        <ele>605.4</ele>
        <time>2026-07-08T10:37:31Z</time>
      </trkpt>
      <trkpt lat="43.01915" lon="0.31947">
        <ele>605.4</ele>
        <time>2026-07-08T10:37:32Z</time>
      </trkpt>
      <trkpt lat="43.01914" lon="0.31948">
        <ele>606.4</ele>
        <time>2026-07-08T10:37:32Z</time>
      </trkpt>
      <trkpt lat="43.01914" lon="0.31949">
        <ele>606.4</ele>
        <time>2026-07-08T10:37:33Z</time>
      </trkpt>
      <trkpt lat="43.01913" lon="0.31949">
        <ele>605.4</ele>
        <time>2026-07-08T10:37:33Z</time>
      </trkpt>
      <trkpt lat="43.01913" lon="0.3195">
        <ele>605.4</ele>
        <time>2026-07-08T10:37:34Z</time>
      </trkpt>
      <trkpt lat="43.01912" lon="0.31951">
        <ele>605.4</ele>
        <time>2026-07-08T10:37:34Z</time>
      </trkpt>
      <trkpt lat="43.01912" lon="0.31952">
        <ele>605.4</ele>
        <time>2026-07-08T10:37:35Z</time>
      </trkpt>
      <trkpt lat="43.01911" lon="0.31953">
        <ele>605.4</ele>
        <time>2026-07-08T10:37:35Z</time>
      </trkpt>
      <trkpt lat="43.0191" lon="0.31954">
        <ele>605.4</ele>
        <time>2026-07-08T10:37:36Z</time>
      </trkpt>
      <trkpt lat="43.0191" lon="0.31954">
        <ele>604.4</ele>
        <time>2026-07-08T10:37:36Z</time>
      </trkpt>
      <trkpt lat="43.01909" lon="0.31955">
        <ele>604.4</ele>
        <time>2026-07-08T10:37:37Z</time>
      </trkpt>
      <trkpt lat="43.01909" lon="0.31956">
        <ele>604.4</ele>
        <time>2026-07-08T10:37:37Z</time>
      </trkpt>
      <trkpt lat="43.01908" lon="0.31957">
        <ele>604.4</ele>
        <time>2026-07-08T10:37:38Z</time>
      </trkpt>
      <trkpt lat="43.01908" lon="0.31958">
        <ele>604.4</ele>
        <time>2026-07-08T10:37:38Z</time>
      </trkpt>
      <trkpt lat="43.01907" lon="0.31959">
        <ele>604.4</ele>
        <time>2026-07-08T10:37:39Z</time>
      </trkpt>
      <trkpt lat="43.01907" lon="0.31959">
        <ele>604.4</ele>
        <time>2026-07-08T10:37:39Z</time>
      </trkpt>
      <trkpt lat="43.01906" lon="0.3196">
        <ele>604.4</ele>
        <time>2026-07-08T10:37:40Z</time>
      </trkpt>
      <trkpt lat="43.01906" lon="0.31961">
        <ele>604.4</ele>
        <time>2026-07-08T10:37:40Z</time>
      </trkpt>
      <trkpt lat="43.01906" lon="0.31962">
        <ele>604.4</ele>
        <time>2026-07-08T10:37:41Z</time>
      </trkpt>
      <trkpt lat="43.01905" lon="0.31963">
        <ele>604.4</ele>
        <time>2026-07-08T10:37:41Z</time>
      </trkpt>
      <trkpt lat="43.01905" lon="0.31964">
        <ele>604.4</ele>
        <time>2026-07-08T10:37:42Z</time>
      </trkpt>
      <trkpt lat="43.01904" lon="0.31966">
        <ele>604.4</ele>
        <time>2026-07-08T10:37:43Z</time>
      </trkpt>
      <trkpt lat="43.01903" lon="0.31966">
        <ele>604.4</ele>
        <time>2026-07-08T10:37:43Z</time>
      </trkpt>
      <trkpt lat="43.01903" lon="0.31968">
        <ele>604.4</ele>
        <time>2026-07-08T10:37:43Z</time>
      </trkpt>
      <trkpt lat="43.01902" lon="0.31968">
        <ele>604.4</ele>
        <time>2026-07-08T10:37:44Z</time>
      </trkpt>
      <trkpt lat="43.01902" lon="0.3197">
        <ele>605.4</ele>
        <time>2026-07-08T10:37:44Z</time>
      </trkpt>
      <trkpt lat="43.01901" lon="0.3197">
        <ele>605.4</ele>
        <time>2026-07-08T10:37:45Z</time>
      </trkpt>
      <trkpt lat="43.01901" lon="0.31972">
        <ele>604.4</ele>
        <time>2026-07-08T10:37:45Z</time>
      </trkpt>
      <trkpt lat="43.01901" lon="0.31973">
        <ele>604.4</ele>
        <time>2026-07-08T10:37:46Z</time>
      </trkpt>
      <trkpt lat="43.019" lon="0.31974">
        <ele>604.4</ele>
        <time>2026-07-08T10:37:47Z</time>
      </trkpt>
      <trkpt lat="43.01899" lon="0.31976">
        <ele>604.4</ele>
        <time>2026-07-08T10:37:47Z</time>
      </trkpt>
      <trkpt lat="43.01899" lon="0.31977">
        <ele>604.4</ele>
        <time>2026-07-08T10:37:48Z</time>
      </trkpt>
      <trkpt lat="43.01899" lon="0.31978">
        <ele>604.4</ele>
        <time>2026-07-08T10:37:48Z</time>
      </trkpt>
      <trkpt lat="43.01898" lon="0.31979">
        <ele>604.4</ele>
        <time>2026-07-08T10:37:49Z</time>
      </trkpt>
      <trkpt lat="43.01898" lon="0.3198">
        <ele>603.4</ele>
        <time>2026-07-08T10:37:49Z</time>
      </trkpt>
      <trkpt lat="43.01897" lon="0.31981">
        <ele>602.4</ele>
        <time>2026-07-08T10:37:50Z</time>
      </trkpt>
      <trkpt lat="43.01897" lon="0.31983">
        <ele>602.4</ele>
        <time>2026-07-08T10:37:51Z</time>
      </trkpt>
      <trkpt lat="43.01896" lon="0.31984">
        <ele>602.4</ele>
        <time>2026-07-08T10:37:51Z</time>
      </trkpt>
      <trkpt lat="43.01896" lon="0.31985">
        <ele>602.4</ele>
        <time>2026-07-08T10:37:52Z</time>
      </trkpt>
      <trkpt lat="43.01895" lon="0.31986">
        <ele>602.4</ele>
        <time>2026-07-08T10:37:52Z</time>
      </trkpt>
      <trkpt lat="43.01895" lon="0.31987">
        <ele>602.4</ele>
        <time>2026-07-08T10:37:53Z</time>
      </trkpt>
      <trkpt lat="43.01894" lon="0.31988">
        <ele>602.4</ele>
        <time>2026-07-08T10:37:53Z</time>
      </trkpt>
      <trkpt lat="43.01894" lon="0.31989">
        <ele>602.4</ele>
        <time>2026-07-08T10:37:54Z</time>
      </trkpt>
      <trkpt lat="43.01893" lon="0.3199">
        <ele>602.4</ele>
        <time>2026-07-08T10:37:54Z</time>
      </trkpt>
      <trkpt lat="43.01893" lon="0.31991">
        <ele>602.4</ele>
        <time>2026-07-08T10:37:55Z</time>
      </trkpt>
      <trkpt lat="43.01892" lon="0.31992">
        <ele>602.4</ele>
        <time>2026-07-08T10:37:55Z</time>
      </trkpt>
      <trkpt lat="43.01892" lon="0.31992">
        <ele>602.4</ele>
        <time>2026-07-08T10:37:56Z</time>
      </trkpt>
      <trkpt lat="43.01891" lon="0.31993">
        <ele>602.4</ele>
        <time>2026-07-08T10:37:56Z</time>
      </trkpt>
      <trkpt lat="43.01891" lon="0.31994">
        <ele>602.4</ele>
        <time>2026-07-08T10:37:57Z</time>
      </trkpt>
      <trkpt lat="43.0189" lon="0.31995">
        <ele>602.4</ele>
        <time>2026-07-08T10:37:57Z</time>
      </trkpt>
      <trkpt lat="43.0189" lon="0.31996">
        <ele>602.4</ele>
        <time>2026-07-08T10:37:58Z</time>
      </trkpt>
      <trkpt lat="43.0189" lon="0.31997">
        <ele>602.4</ele>
        <time>2026-07-08T10:37:58Z</time>
      </trkpt>
      <trkpt lat="43.01889" lon="0.31998">
        <ele>602.4</ele>
        <time>2026-07-08T10:37:59Z</time>
      </trkpt>
      <trkpt lat="43.01889" lon="0.31999">
        <ele>602.4</ele>
        <time>2026-07-08T10:37:59Z</time>
      </trkpt>
      <trkpt lat="43.01888" lon="0.32">
        <ele>602.4</ele>
        <time>2026-07-08T10:38:00Z</time>
      </trkpt>
      <trkpt lat="43.01888" lon="0.32001">
        <ele>602.4</ele>
        <time>2026-07-08T10:38:00Z</time>
      </trkpt>
      <trkpt lat="43.01888" lon="0.32002">
        <ele>602.4</ele>
        <time>2026-07-08T10:38:01Z</time>
      </trkpt>
      <trkpt lat="43.01888" lon="0.32002">
        <ele>602.4</ele>
        <time>2026-07-08T10:38:01Z</time>
      </trkpt>
      <trkpt lat="43.01887" lon="0.32003">
        <ele>602.4</ele>
        <time>2026-07-08T10:38:02Z</time>
      </trkpt>
      <trkpt lat="43.01887" lon="0.32004">
        <ele>602.4</ele>
        <time>2026-07-08T10:38:02Z</time>
      </trkpt>
      <trkpt lat="43.01887" lon="0.32005">
        <ele>602.4</ele>
        <time>2026-07-08T10:38:03Z</time>
      </trkpt>
      <trkpt lat="43.01886" lon="0.32006">
        <ele>603.4</ele>
        <time>2026-07-08T10:38:03Z</time>
      </trkpt>
      <trkpt lat="43.01886" lon="0.32007">
        <ele>603.4</ele>
        <time>2026-07-08T10:38:04Z</time>
      </trkpt>
      <trkpt lat="43.01885" lon="0.32008">
        <ele>603.4</ele>
        <time>2026-07-08T10:38:04Z</time>
      </trkpt>
      <trkpt lat="43.01885" lon="0.32009">
        <ele>603.4</ele>
        <time>2026-07-08T10:38:05Z</time>
      </trkpt>
      <trkpt lat="43.01884" lon="0.3201">
        <ele>603.4</ele>
        <time>2026-07-08T10:38:06Z</time>
      </trkpt>
      <trkpt lat="43.01884" lon="0.32011">
        <ele>603.4</ele>
        <time>2026-07-08T10:38:06Z</time>
      </trkpt>
      <trkpt lat="43.01884" lon="0.32012">
        <ele>603.4</ele>
        <time>2026-07-08T10:38:07Z</time>
      </trkpt>
      <trkpt lat="43.01883" lon="0.32013">
        <ele>603.4</ele>
        <time>2026-07-08T10:38:07Z</time>
      </trkpt>
      <trkpt lat="43.01883" lon="0.32014">
        <ele>603.4</ele>
        <time>2026-07-08T10:38:08Z</time>
      </trkpt>
      <trkpt lat="43.01882" lon="0.32015">
        <ele>602.4</ele>
        <time>2026-07-08T10:38:08Z</time>
      </trkpt>
      <trkpt lat="43.01882" lon="0.32016">
        <ele>602.4</ele>
        <time>2026-07-08T10:38:09Z</time>
      </trkpt>
      <trkpt lat="43.01882" lon="0.32017">
        <ele>602.4</ele>
        <time>2026-07-08T10:38:09Z</time>
      </trkpt>
      <trkpt lat="43.01881" lon="0.32018">
        <ele>602.4</ele>
        <time>2026-07-08T10:38:10Z</time>
      </trkpt>
      <trkpt lat="43.01881" lon="0.32019">
        <ele>602.4</ele>
        <time>2026-07-08T10:38:10Z</time>
      </trkpt>
      <trkpt lat="43.0188" lon="0.3202">
        <ele>602.4</ele>
        <time>2026-07-08T10:38:11Z</time>
      </trkpt>
      <trkpt lat="43.0188" lon="0.32021">
        <ele>603.4</ele>
        <time>2026-07-08T10:38:11Z</time>
      </trkpt>
      <trkpt lat="43.0188" lon="0.32022">
        <ele>603.4</ele>
        <time>2026-07-08T10:38:12Z</time>
      </trkpt>
      <trkpt lat="43.01879" lon="0.32024">
        <ele>603.4</ele>
        <time>2026-07-08T10:38:12Z</time>
      </trkpt>
      <trkpt lat="43.01879" lon="0.32025">
        <ele>603.4</ele>
        <time>2026-07-08T10:38:13Z</time>
      </trkpt>
      <trkpt lat="43.01879" lon="0.32026">
        <ele>603.4</ele>
        <time>2026-07-08T10:38:13Z</time>
      </trkpt>
      <trkpt lat="43.01879" lon="0.32027">
        <ele>603.4</ele>
        <time>2026-07-08T10:38:14Z</time>
      </trkpt>
      <trkpt lat="43.01878" lon="0.32028">
        <ele>603.4</ele>
        <time>2026-07-08T10:38:14Z</time>
      </trkpt>
      <trkpt lat="43.01878" lon="0.32029">
        <ele>603.4</ele>
        <time>2026-07-08T10:38:15Z</time>
      </trkpt>
      <trkpt lat="43.01877" lon="0.3203">
        <ele>603.4</ele>
        <time>2026-07-08T10:38:15Z</time>
      </trkpt>
      <trkpt lat="43.01877" lon="0.32031">
        <ele>603.4</ele>
        <time>2026-07-08T10:38:16Z</time>
      </trkpt>
      <trkpt lat="43.01877" lon="0.32032">
        <ele>603.4</ele>
        <time>2026-07-08T10:38:16Z</time>
      </trkpt>
      <trkpt lat="43.01876" lon="0.32033">
        <ele>603.4</ele>
        <time>2026-07-08T10:38:17Z</time>
      </trkpt>
      <trkpt lat="43.01876" lon="0.32034">
        <ele>603.4</ele>
        <time>2026-07-08T10:38:17Z</time>
      </trkpt>
      <trkpt lat="43.01876" lon="0.32034">
        <ele>603.4</ele>
        <time>2026-07-08T10:38:18Z</time>
      </trkpt>
      <trkpt lat="43.01876" lon="0.32035">
        <ele>603.4</ele>
        <time>2026-07-08T10:38:18Z</time>
      </trkpt>
      <trkpt lat="43.01875" lon="0.32036">
        <ele>603.4</ele>
        <time>2026-07-08T10:38:19Z</time>
      </trkpt>
      <trkpt lat="43.01875" lon="0.32037">
        <ele>604.4</ele>
        <time>2026-07-08T10:38:19Z</time>
      </trkpt>
      <trkpt lat="43.01874" lon="0.32038">
        <ele>604.4</ele>
        <time>2026-07-08T10:38:20Z</time>
      </trkpt>
      <trkpt lat="43.01874" lon="0.32039">
        <ele>604.4</ele>
        <time>2026-07-08T10:38:20Z</time>
      </trkpt>
      <trkpt lat="43.01874" lon="0.32039">
        <ele>604.4</ele>
        <time>2026-07-08T10:38:21Z</time>
      </trkpt>
      <trkpt lat="43.01873" lon="0.3204">
        <ele>603.4</ele>
        <time>2026-07-08T10:38:21Z</time>
      </trkpt>
      <trkpt lat="43.01873" lon="0.32041">
        <ele>603.4</ele>
        <time>2026-07-08T10:38:22Z</time>
      </trkpt>
      <trkpt lat="43.01872" lon="0.32041">
        <ele>604.4</ele>
        <time>2026-07-08T10:38:22Z</time>
      </trkpt>
      <trkpt lat="43.01871" lon="0.32042">
        <ele>604.4</ele>
        <time>2026-07-08T10:38:23Z</time>
      </trkpt>
      <trkpt lat="43.01871" lon="0.32043">
        <ele>604.4</ele>
        <time>2026-07-08T10:38:23Z</time>
      </trkpt>
      <trkpt lat="43.0187" lon="0.32044">
        <ele>604.4</ele>
        <time>2026-07-08T10:38:24Z</time>
      </trkpt>
      <trkpt lat="43.0187" lon="0.32044">
        <ele>604.4</ele>
        <time>2026-07-08T10:38:24Z</time>
      </trkpt>
      <trkpt lat="43.01869" lon="0.32045">
        <ele>604.4</ele>
        <time>2026-07-08T10:38:25Z</time>
      </trkpt>
      <trkpt lat="43.01868" lon="0.32045">
        <ele>604.4</ele>
        <time>2026-07-08T10:38:25Z</time>
      </trkpt>
      <trkpt lat="43.01868" lon="0.32046">
        <ele>604.4</ele>
        <time>2026-07-08T10:38:26Z</time>
      </trkpt>
      <trkpt lat="43.01867" lon="0.32047">
        <ele>604.4</ele>
        <time>2026-07-08T10:38:26Z</time>
      </trkpt>
      <trkpt lat="43.01866" lon="0.32047">
        <ele>604.4</ele>
        <time>2026-07-08T10:38:27Z</time>
      </trkpt>
      <trkpt lat="43.01866" lon="0.32048">
        <ele>605.4</ele>
        <time>2026-07-08T10:38:27Z</time>
      </trkpt>
      <trkpt lat="43.01865" lon="0.32049">
        <ele>605.4</ele>
        <time>2026-07-08T10:38:28Z</time>
      </trkpt>
      <trkpt lat="43.01865" lon="0.32049">
        <ele>605.4</ele>
        <time>2026-07-08T10:38:28Z</time>
      </trkpt>
      <trkpt lat="43.01864" lon="0.3205">
        <ele>605.4</ele>
        <time>2026-07-08T10:38:29Z</time>
      </trkpt>
      <trkpt lat="43.01864" lon="0.3205">
        <ele>605.4</ele>
        <time>2026-07-08T10:38:29Z</time>
      </trkpt>
      <trkpt lat="43.01863" lon="0.32051">
        <ele>605.4</ele>
        <time>2026-07-08T10:38:30Z</time>
      </trkpt>
      <trkpt lat="43.01862" lon="0.32052">
        <ele>605.4</ele>
        <time>2026-07-08T10:38:30Z</time>
      </trkpt>
      <trkpt lat="43.01862" lon="0.32052">
        <ele>605.4</ele>
        <time>2026-07-08T10:38:31Z</time>
      </trkpt>
      <trkpt lat="43.01861" lon="0.32053">
        <ele>605.4</ele>
        <time>2026-07-08T10:38:31Z</time>
      </trkpt>
      <trkpt lat="43.01861" lon="0.32054">
        <ele>605.4</ele>
        <time>2026-07-08T10:38:32Z</time>
      </trkpt>
      <trkpt lat="43.0186" lon="0.32055">
        <ele>606.4</ele>
        <time>2026-07-08T10:38:32Z</time>
      </trkpt>
      <trkpt lat="43.0186" lon="0.32055">
        <ele>606.4</ele>
        <time>2026-07-08T10:38:33Z</time>
      </trkpt>
      <trkpt lat="43.01859" lon="0.32056">
        <ele>606.4</ele>
        <time>2026-07-08T10:38:33Z</time>
      </trkpt>
      <trkpt lat="43.01859" lon="0.32057">
        <ele>606.4</ele>
        <time>2026-07-08T10:38:34Z</time>
      </trkpt>
      <trkpt lat="43.01858" lon="0.32058">
        <ele>606.4</ele>
        <time>2026-07-08T10:38:34Z</time>
      </trkpt>
      <trkpt lat="43.01858" lon="0.32058">
        <ele>606.4</ele>
        <time>2026-07-08T10:38:35Z</time>
      </trkpt>
      <trkpt lat="43.01857" lon="0.32059">
        <ele>605.4</ele>
        <time>2026-07-08T10:38:35Z</time>
      </trkpt>
      <trkpt lat="43.01857" lon="0.3206">
        <ele>605.4</ele>
        <time>2026-07-08T10:38:36Z</time>
      </trkpt>
      <trkpt lat="43.01856" lon="0.3206">
        <ele>606.4</ele>
        <time>2026-07-08T10:38:36Z</time>
      </trkpt>
      <trkpt lat="43.01855" lon="0.32061">
        <ele>606.4</ele>
        <time>2026-07-08T10:38:37Z</time>
      </trkpt>
      <trkpt lat="43.01855" lon="0.32061">
        <ele>606.4</ele>
        <time>2026-07-08T10:38:37Z</time>
      </trkpt>
      <trkpt lat="43.01854" lon="0.32062">
        <ele>606.4</ele>
        <time>2026-07-08T10:38:38Z</time>
      </trkpt>
      <trkpt lat="43.01854" lon="0.32063">
        <ele>606.4</ele>
        <time>2026-07-08T10:38:39Z</time>
      </trkpt>
      <trkpt lat="43.01854" lon="0.32063">
        <ele>606.4</ele>
        <time>2026-07-08T10:38:39Z</time>
      </trkpt>
      <trkpt lat="43.01853" lon="0.32064">
        <ele>606.4</ele>
        <time>2026-07-08T10:38:40Z</time>
      </trkpt>
      <trkpt lat="43.01852" lon="0.32064">
        <ele>606.4</ele>
        <time>2026-07-08T10:38:40Z</time>
      </trkpt>
      <trkpt lat="43.01852" lon="0.32065">
        <ele>606.4</ele>
        <time>2026-07-08T10:38:41Z</time>
      </trkpt>
      <trkpt lat="43.01851" lon="0.32065">
        <ele>606.4</ele>
        <time>2026-07-08T10:38:41Z</time>
      </trkpt>
      <trkpt lat="43.0185" lon="0.32066">
        <ele>606.4</ele>
        <time>2026-07-08T10:38:42Z</time>
      </trkpt>
      <trkpt lat="43.0185" lon="0.32066">
        <ele>605.4</ele>
        <time>2026-07-08T10:38:42Z</time>
      </trkpt>
      <trkpt lat="43.01849" lon="0.32067">
        <ele>605.4</ele>
        <time>2026-07-08T10:38:43Z</time>
      </trkpt>
      <trkpt lat="43.01849" lon="0.32067">
        <ele>605.4</ele>
        <time>2026-07-08T10:38:43Z</time>
      </trkpt>
      <trkpt lat="43.01848" lon="0.32068">
        <ele>605.4</ele>
        <time>2026-07-08T10:38:44Z</time>
      </trkpt>
      <trkpt lat="43.01848" lon="0.32069">
        <ele>606.4</ele>
        <time>2026-07-08T10:38:44Z</time>
      </trkpt>
      <trkpt lat="43.01847" lon="0.32069">
        <ele>606.4</ele>
        <time>2026-07-08T10:38:45Z</time>
      </trkpt>
      <trkpt lat="43.01846" lon="0.3207">
        <ele>606.4</ele>
        <time>2026-07-08T10:38:45Z</time>
      </trkpt>
      <trkpt lat="43.01846" lon="0.3207">
        <ele>606.4</ele>
        <time>2026-07-08T10:38:46Z</time>
      </trkpt>
      <trkpt lat="43.01845" lon="0.32071">
        <ele>606.4</ele>
        <time>2026-07-08T10:38:46Z</time>
      </trkpt>
      <trkpt lat="43.01845" lon="0.32072">
        <ele>606.4</ele>
        <time>2026-07-08T10:38:47Z</time>
      </trkpt>
      <trkpt lat="43.01844" lon="0.32073">
        <ele>606.4</ele>
        <time>2026-07-08T10:38:47Z</time>
      </trkpt>
      <trkpt lat="43.01844" lon="0.32074">
        <ele>606.4</ele>
        <time>2026-07-08T10:38:48Z</time>
      </trkpt>
      <trkpt lat="43.01844" lon="0.32076">
        <ele>606.4</ele>
        <time>2026-07-08T10:38:49Z</time>
      </trkpt>
      <trkpt lat="43.01844" lon="0.32077">
        <ele>606.4</ele>
        <time>2026-07-08T10:38:49Z</time>
      </trkpt>
      <trkpt lat="43.01844" lon="0.32078">
        <ele>606.4</ele>
        <time>2026-07-08T10:38:50Z</time>
      </trkpt>
      <trkpt lat="43.01844" lon="0.32079">
        <ele>606.4</ele>
        <time>2026-07-08T10:38:51Z</time>
      </trkpt>
      <trkpt lat="43.01844" lon="0.3208">
        <ele>606.4</ele>
        <time>2026-07-08T10:38:51Z</time>
      </trkpt>
      <trkpt lat="43.01844" lon="0.32081">
        <ele>606.4</ele>
        <time>2026-07-08T10:38:52Z</time>
      </trkpt>
      <trkpt lat="43.01844" lon="0.32082">
        <ele>605.4</ele>
        <time>2026-07-08T10:38:53Z</time>
      </trkpt>
      <trkpt lat="43.01844" lon="0.32082">
        <ele>605.4</ele>
        <time>2026-07-08T10:38:53Z</time>
      </trkpt>
      <trkpt lat="43.01844" lon="0.32083">
        <ele>605.4</ele>
        <time>2026-07-08T10:38:54Z</time>
      </trkpt>
      <trkpt lat="43.01845" lon="0.32083">
        <ele>605.4</ele>
        <time>2026-07-08T10:38:54Z</time>
      </trkpt>
      <trkpt lat="43.01845" lon="0.32084">
        <ele>605.4</ele>
        <time>2026-07-08T10:38:55Z</time>
      </trkpt>
      <trkpt lat="43.01845" lon="0.32084">
        <ele>605.4</ele>
        <time>2026-07-08T10:38:56Z</time>
      </trkpt>
      <trkpt lat="43.01845" lon="0.32085">
        <ele>605.4</ele>
        <time>2026-07-08T10:38:57Z</time>
      </trkpt>
      <trkpt lat="43.01844" lon="0.32085">
        <ele>606.4</ele>
        <time>2026-07-08T10:38:58Z</time>
      </trkpt>
      <trkpt lat="43.01844" lon="0.32086">
        <ele>606.4</ele>
        <time>2026-07-08T10:38:59Z</time>
      </trkpt>
      <trkpt lat="43.01845" lon="0.32087">
        <ele>606.4</ele>
        <time>2026-07-08T10:39:00Z</time>
      </trkpt>
      <trkpt lat="43.01845" lon="0.32088">
        <ele>606.4</ele>
        <time>2026-07-08T10:39:01Z</time>
      </trkpt>
      <trkpt lat="43.01845" lon="0.32088">
        <ele>605.4</ele>
        <time>2026-07-08T10:39:01Z</time>
      </trkpt>
      <trkpt lat="43.01845" lon="0.32089">
        <ele>604.4</ele>
        <time>2026-07-08T10:39:02Z</time>
      </trkpt>
      <trkpt lat="43.01846" lon="0.32089">
        <ele>604.4</ele>
        <time>2026-07-08T10:39:03Z</time>
      </trkpt>
      <trkpt lat="43.01846" lon="0.32089">
        <ele>604.4</ele>
        <time>2026-07-08T10:39:04Z</time>
      </trkpt>
      <trkpt lat="43.01848" lon="0.3209">
        <ele>604.4</ele>
        <time>2026-07-08T10:39:04Z</time>
      </trkpt>
      <trkpt lat="43.01849" lon="0.32091">
        <ele>604.4</ele>
        <time>2026-07-08T10:39:05Z</time>
      </trkpt>
      <trkpt lat="43.0185" lon="0.3209">
        <ele>604.4</ele>
        <time>2026-07-08T10:39:06Z</time>
      </trkpt>
      <trkpt lat="43.01851" lon="0.3209">
        <ele>605.4</ele>
        <time>2026-07-08T10:39:06Z</time>
      </trkpt>
      <trkpt lat="43.01852" lon="0.3209">
        <ele>605.4</ele>
        <time>2026-07-08T10:39:07Z</time>
      </trkpt>
      <trkpt lat="43.01852" lon="0.32089">
        <ele>604.4</ele>
        <time>2026-07-08T10:39:07Z</time>
      </trkpt>
      <trkpt lat="43.01853" lon="0.32089">
        <ele>604.4</ele>
        <time>2026-07-08T10:39:08Z</time>
      </trkpt>
      <trkpt lat="43.01854" lon="0.32089">
        <ele>604.4</ele>
        <time>2026-07-08T10:39:08Z</time>
      </trkpt>
      <trkpt lat="43.01855" lon="0.32088">
        <ele>605.4</ele>
        <time>2026-07-08T10:39:09Z</time>
      </trkpt>
      <trkpt lat="43.01855" lon="0.32088">
        <ele>605.4</ele>
        <time>2026-07-08T10:39:10Z</time>
      </trkpt>
      <trkpt lat="43.01855" lon="0.32088">
        <ele>605.4</ele>
        <time>2026-07-08T10:39:10Z</time>
      </trkpt>
      <trkpt lat="43.01856" lon="0.32087">
        <ele>605.4</ele>
        <time>2026-07-08T10:39:11Z</time>
      </trkpt>
      <trkpt lat="43.01856" lon="0.32087">
        <ele>604.4</ele>
        <time>2026-07-08T10:39:11Z</time>
      </trkpt>
      <trkpt lat="43.01857" lon="0.32087">
        <ele>604.4</ele>
        <time>2026-07-08T10:39:12Z</time>
      </trkpt>
      <trkpt lat="43.01857" lon="0.32086">
        <ele>604.4</ele>
        <time>2026-07-08T10:39:12Z</time>
      </trkpt>
      <trkpt lat="43.01858" lon="0.32086">
        <ele>604.4</ele>
        <time>2026-07-08T10:39:13Z</time>
      </trkpt>
      <trkpt lat="43.01858" lon="0.32085">
        <ele>604.4</ele>
        <time>2026-07-08T10:39:13Z</time>
      </trkpt>
      <trkpt lat="43.01859" lon="0.32085">
        <ele>604.4</ele>
        <time>2026-07-08T10:39:14Z</time>
      </trkpt>
      <trkpt lat="43.0186" lon="0.32084">
        <ele>604.4</ele>
        <time>2026-07-08T10:39:14Z</time>
      </trkpt>
      <trkpt lat="43.0186" lon="0.32084">
        <ele>604.4</ele>
        <time>2026-07-08T10:39:15Z</time>
      </trkpt>
      <trkpt lat="43.01861" lon="0.32083">
        <ele>604.4</ele>
        <time>2026-07-08T10:39:15Z</time>
      </trkpt>
      <trkpt lat="43.01861" lon="0.32083">
        <ele>604.4</ele>
        <time>2026-07-08T10:39:15Z</time>
      </trkpt>
      <trkpt lat="43.01862" lon="0.32082">
        <ele>604.4</ele>
        <time>2026-07-08T10:39:16Z</time>
      </trkpt>
      <trkpt lat="43.01863" lon="0.32082">
        <ele>604.4</ele>
        <time>2026-07-08T10:39:16Z</time>
      </trkpt>
      <trkpt lat="43.01863" lon="0.32081">
        <ele>604.4</ele>
        <time>2026-07-08T10:39:17Z</time>
      </trkpt>
      <trkpt lat="43.01864" lon="0.32081">
        <ele>604.4</ele>
        <time>2026-07-08T10:39:17Z</time>
      </trkpt>
      <trkpt lat="43.01864" lon="0.3208">
        <ele>604.4</ele>
        <time>2026-07-08T10:39:18Z</time>
      </trkpt>
      <trkpt lat="43.01865" lon="0.3208">
        <ele>603.4</ele>
        <time>2026-07-08T10:39:18Z</time>
      </trkpt>
      <trkpt lat="43.01865" lon="0.32079">
        <ele>603.4</ele>
        <time>2026-07-08T10:39:19Z</time>
      </trkpt>
      <trkpt lat="43.01866" lon="0.32079">
        <ele>603.4</ele>
        <time>2026-07-08T10:39:19Z</time>
      </trkpt>
      <trkpt lat="43.01866" lon="0.32078">
        <ele>603.4</ele>
        <time>2026-07-08T10:39:20Z</time>
      </trkpt>
      <trkpt lat="43.01867" lon="0.32077">
        <ele>604.4</ele>
        <time>2026-07-08T10:39:20Z</time>
      </trkpt>
      <trkpt lat="43.01867" lon="0.32077">
        <ele>604.4</ele>
        <time>2026-07-08T10:39:21Z</time>
      </trkpt>
      <trkpt lat="43.01868" lon="0.32076">
        <ele>604.4</ele>
        <time>2026-07-08T10:39:21Z</time>
      </trkpt>
      <trkpt lat="43.01868" lon="0.32075">
        <ele>604.4</ele>
        <time>2026-07-08T10:39:22Z</time>
      </trkpt>
      <trkpt lat="43.01869" lon="0.32075">
        <ele>603.4</ele>
        <time>2026-07-08T10:39:22Z</time>
      </trkpt>
      <trkpt lat="43.01869" lon="0.32074">
        <ele>603.4</ele>
        <time>2026-07-08T10:39:23Z</time>
      </trkpt>
      <trkpt lat="43.0187" lon="0.32073">
        <ele>603.4</ele>
        <time>2026-07-08T10:39:23Z</time>
      </trkpt>
      <trkpt lat="43.0187" lon="0.32073">
        <ele>603.4</ele>
        <time>2026-07-08T10:39:24Z</time>
      </trkpt>
      <trkpt lat="43.0187" lon="0.32072">
        <ele>603.4</ele>
        <time>2026-07-08T10:39:24Z</time>
      </trkpt>
      <trkpt lat="43.01871" lon="0.32071">
        <ele>603.4</ele>
        <time>2026-07-08T10:39:25Z</time>
      </trkpt>
      <trkpt lat="43.01871" lon="0.3207">
        <ele>603.4</ele>
        <time>2026-07-08T10:39:25Z</time>
      </trkpt>
      <trkpt lat="43.01872" lon="0.3207">
        <ele>603.4</ele>
        <time>2026-07-08T10:39:26Z</time>
      </trkpt>
      <trkpt lat="43.01872" lon="0.32069">
        <ele>604.4</ele>
        <time>2026-07-08T10:39:26Z</time>
      </trkpt>
      <trkpt lat="43.01872" lon="0.32069">
        <ele>604.4</ele>
        <time>2026-07-08T10:39:27Z</time>
      </trkpt>
      <trkpt lat="43.01873" lon="0.32068">
        <ele>603.4</ele>
        <time>2026-07-08T10:39:27Z</time>
      </trkpt>
      <trkpt lat="43.01873" lon="0.32068">
        <ele>603.4</ele>
        <time>2026-07-08T10:39:28Z</time>
      </trkpt>
      <trkpt lat="43.01874" lon="0.32067">
        <ele>603.4</ele>
        <time>2026-07-08T10:39:28Z</time>
      </trkpt>
      <trkpt lat="43.01875" lon="0.32067">
        <ele>603.4</ele>
        <time>2026-07-08T10:39:29Z</time>
      </trkpt>
      <trkpt lat="43.01875" lon="0.32067">
        <ele>603.4</ele>
        <time>2026-07-08T10:39:29Z</time>
      </trkpt>
      <trkpt lat="43.01876" lon="0.32066">
        <ele>603.4</ele>
        <time>2026-07-08T10:39:30Z</time>
      </trkpt>
      <trkpt lat="43.01876" lon="0.32066">
        <ele>602.4</ele>
        <time>2026-07-08T10:39:30Z</time>
      </trkpt>
      <trkpt lat="43.01877" lon="0.32065">
        <ele>602.4</ele>
        <time>2026-07-08T10:39:31Z</time>
      </trkpt>
      <trkpt lat="43.01877" lon="0.32065">
        <ele>602.4</ele>
        <time>2026-07-08T10:39:31Z</time>
      </trkpt>
      <trkpt lat="43.01878" lon="0.32065">
        <ele>602.4</ele>
        <time>2026-07-08T10:39:32Z</time>
      </trkpt>
      <trkpt lat="43.01878" lon="0.32065">
        <ele>602.4</ele>
        <time>2026-07-08T10:39:32Z</time>
      </trkpt>
      <trkpt lat="43.01879" lon="0.32065">
        <ele>602.4</ele>
        <time>2026-07-08T10:39:33Z</time>
      </trkpt>
      <trkpt lat="43.0188" lon="0.32065">
        <ele>602.4</ele>
        <time>2026-07-08T10:39:34Z</time>
      </trkpt>
      <trkpt lat="43.0188" lon="0.32065">
        <ele>602.4</ele>
        <time>2026-07-08T10:39:34Z</time>
      </trkpt>
      <trkpt lat="43.01881" lon="0.32064">
        <ele>602.4</ele>
        <time>2026-07-08T10:39:35Z</time>
      </trkpt>
      <trkpt lat="43.01881" lon="0.32064">
        <ele>602.4</ele>
        <time>2026-07-08T10:39:35Z</time>
      </trkpt>
      <trkpt lat="43.01882" lon="0.32064">
        <ele>602.4</ele>
        <time>2026-07-08T10:39:36Z</time>
      </trkpt>
      <trkpt lat="43.01882" lon="0.32064">
        <ele>602.4</ele>
        <time>2026-07-08T10:39:36Z</time>
      </trkpt>
      <trkpt lat="43.01883" lon="0.32064">
        <ele>602.4</ele>
        <time>2026-07-08T10:39:37Z</time>
      </trkpt>
      <trkpt lat="43.01883" lon="0.32064">
        <ele>602.4</ele>
        <time>2026-07-08T10:39:37Z</time>
      </trkpt>
      <trkpt lat="43.01884" lon="0.32063">
        <ele>602.4</ele>
        <time>2026-07-08T10:39:38Z</time>
      </trkpt>
      <trkpt lat="43.01885" lon="0.32063">
        <ele>602.4</ele>
        <time>2026-07-08T10:39:39Z</time>
      </trkpt>
      <trkpt lat="43.01886" lon="0.32063">
        <ele>601.4</ele>
        <time>2026-07-08T10:39:39Z</time>
      </trkpt>
      <trkpt lat="43.01886" lon="0.32062">
        <ele>601.4</ele>
        <time>2026-07-08T10:39:40Z</time>
      </trkpt>
      <trkpt lat="43.01887" lon="0.32062">
        <ele>601.4</ele>
        <time>2026-07-08T10:39:40Z</time>
      </trkpt>
      <trkpt lat="43.01888" lon="0.32062">
        <ele>601.4</ele>
        <time>2026-07-08T10:39:41Z</time>
      </trkpt>
      <trkpt lat="43.01888" lon="0.32062">
        <ele>601.4</ele>
        <time>2026-07-08T10:39:41Z</time>
      </trkpt>
      <trkpt lat="43.01889" lon="0.32061">
        <ele>601.4</ele>
        <time>2026-07-08T10:39:42Z</time>
      </trkpt>
      <trkpt lat="43.01889" lon="0.32061">
        <ele>601.4</ele>
        <time>2026-07-08T10:39:42Z</time>
      </trkpt>
      <trkpt lat="43.0189" lon="0.3206">
        <ele>601.4</ele>
        <time>2026-07-08T10:39:43Z</time>
      </trkpt>
      <trkpt lat="43.0189" lon="0.3206">
        <ele>600.4</ele>
        <time>2026-07-08T10:39:43Z</time>
      </trkpt>
      <trkpt lat="43.01891" lon="0.32059">
        <ele>600.4</ele>
        <time>2026-07-08T10:39:44Z</time>
      </trkpt>
      <trkpt lat="43.01892" lon="0.32059">
        <ele>600.4</ele>
        <time>2026-07-08T10:39:44Z</time>
      </trkpt>
      <trkpt lat="43.01892" lon="0.32059">
        <ele>600.4</ele>
        <time>2026-07-08T10:39:45Z</time>
      </trkpt>
      <trkpt lat="43.01893" lon="0.32058">
        <ele>599.4</ele>
        <time>2026-07-08T10:39:45Z</time>
      </trkpt>
      <trkpt lat="43.01894" lon="0.32058">
        <ele>599.4</ele>
        <time>2026-07-08T10:39:46Z</time>
      </trkpt>
      <trkpt lat="43.01894" lon="0.32057">
        <ele>599.4</ele>
        <time>2026-07-08T10:39:46Z</time>
      </trkpt>
      <trkpt lat="43.01895" lon="0.32057">
        <ele>599.4</ele>
        <time>2026-07-08T10:39:47Z</time>
      </trkpt>
      <trkpt lat="43.01895" lon="0.32056">
        <ele>599.4</ele>
        <time>2026-07-08T10:39:47Z</time>
      </trkpt>
      <trkpt lat="43.01896" lon="0.32056">
        <ele>599.4</ele>
        <time>2026-07-08T10:39:48Z</time>
      </trkpt>
      <trkpt lat="43.01896" lon="0.32055">
        <ele>599.4</ele>
        <time>2026-07-08T10:39:48Z</time>
      </trkpt>
      <trkpt lat="43.01897" lon="0.32055">
        <ele>599.4</ele>
        <time>2026-07-08T10:39:49Z</time>
      </trkpt>
      <trkpt lat="43.01897" lon="0.32054">
        <ele>599.4</ele>
        <time>2026-07-08T10:39:49Z</time>
      </trkpt>
      <trkpt lat="43.01898" lon="0.32054">
        <ele>599.4</ele>
        <time>2026-07-08T10:39:50Z</time>
      </trkpt>
      <trkpt lat="43.01898" lon="0.32053">
        <ele>598.4</ele>
        <time>2026-07-08T10:39:50Z</time>
      </trkpt>
      <trkpt lat="43.01899" lon="0.32053">
        <ele>598.4</ele>
        <time>2026-07-08T10:39:51Z</time>
      </trkpt>
      <trkpt lat="43.019" lon="0.32053">
        <ele>598.4</ele>
        <time>2026-07-08T10:39:52Z</time>
      </trkpt>
      <trkpt lat="43.01901" lon="0.32052">
        <ele>598.4</ele>
        <time>2026-07-08T10:39:52Z</time>
      </trkpt>
      <trkpt lat="43.01901" lon="0.32052">
        <ele>598.4</ele>
        <time>2026-07-08T10:39:53Z</time>
      </trkpt>
      <trkpt lat="43.01902" lon="0.32052">
        <ele>597.4</ele>
        <time>2026-07-08T10:39:53Z</time>
      </trkpt>
      <trkpt lat="43.01903" lon="0.32051">
        <ele>597.4</ele>
        <time>2026-07-08T10:39:54Z</time>
      </trkpt>
      <trkpt lat="43.01904" lon="0.32051">
        <ele>597.4</ele>
        <time>2026-07-08T10:39:55Z</time>
      </trkpt>
      <trkpt lat="43.01904" lon="0.3205">
        <ele>597.4</ele>
        <time>2026-07-08T10:39:55Z</time>
      </trkpt>
      <trkpt lat="43.01905" lon="0.3205">
        <ele>597.4</ele>
        <time>2026-07-08T10:39:56Z</time>
      </trkpt>
      <trkpt lat="43.01905" lon="0.3205">
        <ele>596.4</ele>
        <time>2026-07-08T10:39:56Z</time>
      </trkpt>
      <trkpt lat="43.01906" lon="0.32049">
        <ele>596.4</ele>
        <time>2026-07-08T10:39:57Z</time>
      </trkpt>
      <trkpt lat="43.01907" lon="0.32049">
        <ele>596.4</ele>
        <time>2026-07-08T10:39:57Z</time>
      </trkpt>
      <trkpt lat="43.01907" lon="0.32048">
        <ele>596.4</ele>
        <time>2026-07-08T10:39:58Z</time>
      </trkpt>
      <trkpt lat="43.01908" lon="0.32048">
        <ele>596.4</ele>
        <time>2026-07-08T10:39:58Z</time>
      </trkpt>
      <trkpt lat="43.01909" lon="0.32048">
        <ele>596.4</ele>
        <time>2026-07-08T10:39:59Z</time>
      </trkpt>
      <trkpt lat="43.01909" lon="0.32047">
        <ele>596.4</ele>
        <time>2026-07-08T10:39:59Z</time>
      </trkpt>
      <trkpt lat="43.0191" lon="0.32047">
        <ele>596.4</ele>
        <time>2026-07-08T10:40:00Z</time>
      </trkpt>
      <trkpt lat="43.01911" lon="0.32046">
        <ele>596.4</ele>
        <time>2026-07-08T10:40:00Z</time>
      </trkpt>
      <trkpt lat="43.01912" lon="0.32046">
        <ele>596.4</ele>
        <time>2026-07-08T10:40:01Z</time>
      </trkpt>
      <trkpt lat="43.01912" lon="0.32046">
        <ele>596.4</ele>
        <time>2026-07-08T10:40:01Z</time>
      </trkpt>
      <trkpt lat="43.01913" lon="0.32045">
        <ele>596.4</ele>
        <time>2026-07-08T10:40:02Z</time>
      </trkpt>
      <trkpt lat="43.01914" lon="0.32045">
        <ele>596.4</ele>
        <time>2026-07-08T10:40:02Z</time>
      </trkpt>
      <trkpt lat="43.01915" lon="0.32044">
        <ele>596.4</ele>
        <time>2026-07-08T10:40:03Z</time>
      </trkpt>
      <trkpt lat="43.01915" lon="0.32044">
        <ele>596.4</ele>
        <time>2026-07-08T10:40:03Z</time>
      </trkpt>
      <trkpt lat="43.01916" lon="0.32043">
        <ele>596.4</ele>
        <time>2026-07-08T10:40:04Z</time>
      </trkpt>
      <trkpt lat="43.01917" lon="0.32043">
        <ele>596.4</ele>
        <time>2026-07-08T10:40:04Z</time>
      </trkpt>
      <trkpt lat="43.01918" lon="0.32043">
        <ele>596.4</ele>
        <time>2026-07-08T10:40:05Z</time>
      </trkpt>
      <trkpt lat="43.01919" lon="0.32042">
        <ele>596.4</ele>
        <time>2026-07-08T10:40:05Z</time>
      </trkpt>
      <trkpt lat="43.01919" lon="0.32042">
        <ele>596.4</ele>
        <time>2026-07-08T10:40:06Z</time>
      </trkpt>
      <trkpt lat="43.0192" lon="0.32041">
        <ele>596.4</ele>
        <time>2026-07-08T10:40:06Z</time>
      </trkpt>
      <trkpt lat="43.01921" lon="0.32041">
        <ele>596.4</ele>
        <time>2026-07-08T10:40:07Z</time>
      </trkpt>
      <trkpt lat="43.01922" lon="0.3204">
        <ele>596.4</ele>
        <time>2026-07-08T10:40:07Z</time>
      </trkpt>
      <trkpt lat="43.01922" lon="0.3204">
        <ele>596.4</ele>
        <time>2026-07-08T10:40:08Z</time>
      </trkpt>
      <trkpt lat="43.01923" lon="0.32039">
        <ele>596.4</ele>
        <time>2026-07-08T10:40:08Z</time>
      </trkpt>
      <trkpt lat="43.01924" lon="0.32039">
        <ele>596.4</ele>
        <time>2026-07-08T10:40:09Z</time>
      </trkpt>
      <trkpt lat="43.01924" lon="0.32038">
        <ele>596.4</ele>
        <time>2026-07-08T10:40:09Z</time>
      </trkpt>
      <trkpt lat="43.01925" lon="0.32038">
        <ele>596.4</ele>
        <time>2026-07-08T10:40:10Z</time>
      </trkpt>
      <trkpt lat="43.01926" lon="0.32038">
        <ele>596.4</ele>
        <time>2026-07-08T10:40:10Z</time>
      </trkpt>
      <trkpt lat="43.01927" lon="0.32037">
        <ele>596.4</ele>
        <time>2026-07-08T10:40:11Z</time>
      </trkpt>
      <trkpt lat="43.01927" lon="0.32037">
        <ele>596.4</ele>
        <time>2026-07-08T10:40:11Z</time>
      </trkpt>
      <trkpt lat="43.01928" lon="0.32037">
        <ele>596.4</ele>
        <time>2026-07-08T10:40:12Z</time>
      </trkpt>
      <trkpt lat="43.01929" lon="0.32036">
        <ele>596.4</ele>
        <time>2026-07-08T10:40:12Z</time>
      </trkpt>
      <trkpt lat="43.01929" lon="0.32036">
        <ele>596.4</ele>
        <time>2026-07-08T10:40:13Z</time>
      </trkpt>
      <trkpt lat="43.0193" lon="0.32036">
        <ele>596.4</ele>
        <time>2026-07-08T10:40:13Z</time>
      </trkpt>
      <trkpt lat="43.01931" lon="0.32036">
        <ele>596.4</ele>
        <time>2026-07-08T10:40:14Z</time>
      </trkpt>
      <trkpt lat="43.01931" lon="0.32036">
        <ele>595.4</ele>
        <time>2026-07-08T10:40:14Z</time>
      </trkpt>
      <trkpt lat="43.01932" lon="0.32035">
        <ele>595.4</ele>
        <time>2026-07-08T10:40:15Z</time>
      </trkpt>
      <trkpt lat="43.01933" lon="0.32035">
        <ele>595.4</ele>
        <time>2026-07-08T10:40:15Z</time>
      </trkpt>
      <trkpt lat="43.01933" lon="0.32035">
        <ele>595.4</ele>
        <time>2026-07-08T10:40:16Z</time>
      </trkpt>
      <trkpt lat="43.01934" lon="0.32035">
        <ele>595.4</ele>
        <time>2026-07-08T10:40:16Z</time>
      </trkpt>
      <trkpt lat="43.01935" lon="0.32035">
        <ele>595.4</ele>
        <time>2026-07-08T10:40:17Z</time>
      </trkpt>
      <trkpt lat="43.01935" lon="0.32034">
        <ele>595.4</ele>
        <time>2026-07-08T10:40:17Z</time>
      </trkpt>
      <trkpt lat="43.01936" lon="0.32034">
        <ele>595.4</ele>
        <time>2026-07-08T10:40:18Z</time>
      </trkpt>
      <trkpt lat="43.01937" lon="0.32034">
        <ele>595.4</ele>
        <time>2026-07-08T10:40:19Z</time>
      </trkpt>
      <trkpt lat="43.01938" lon="0.32033">
        <ele>595.4</ele>
        <time>2026-07-08T10:40:20Z</time>
      </trkpt>
      <trkpt lat="43.01939" lon="0.32033">
        <ele>595.4</ele>
        <time>2026-07-08T10:40:20Z</time>
      </trkpt>
      <trkpt lat="43.0194" lon="0.32033">
        <ele>595.4</ele>
        <time>2026-07-08T10:40:21Z</time>
      </trkpt>
      <trkpt lat="43.0194" lon="0.32033">
        <ele>595.4</ele>
        <time>2026-07-08T10:40:21Z</time>
      </trkpt>
      <trkpt lat="43.01941" lon="0.32033">
        <ele>595.4</ele>
        <time>2026-07-08T10:40:22Z</time>
      </trkpt>
      <trkpt lat="43.01942" lon="0.32033">
        <ele>594.4</ele>
        <time>2026-07-08T10:40:22Z</time>
      </trkpt>
      <trkpt lat="43.01943" lon="0.32033">
        <ele>594.4</ele>
        <time>2026-07-08T10:40:23Z</time>
      </trkpt>
      <trkpt lat="43.01943" lon="0.32033">
        <ele>593.4</ele>
        <time>2026-07-08T10:40:23Z</time>
      </trkpt>
      <trkpt lat="43.01944" lon="0.32033">
        <ele>593.4</ele>
        <time>2026-07-08T10:40:24Z</time>
      </trkpt>
      <trkpt lat="43.01945" lon="0.32033">
        <ele>593.4</ele>
        <time>2026-07-08T10:40:24Z</time>
      </trkpt>
      <trkpt lat="43.01945" lon="0.32033">
        <ele>593.4</ele>
        <time>2026-07-08T10:40:25Z</time>
      </trkpt>
      <trkpt lat="43.01946" lon="0.32032">
        <ele>592.4</ele>
        <time>2026-07-08T10:40:25Z</time>
      </trkpt>
      <trkpt lat="43.01947" lon="0.32032">
        <ele>593.4</ele>
        <time>2026-07-08T10:40:26Z</time>
      </trkpt>
      <trkpt lat="43.01948" lon="0.32032">
        <ele>593.4</ele>
        <time>2026-07-08T10:40:27Z</time>
      </trkpt>
      <trkpt lat="43.01949" lon="0.32032">
        <ele>593.4</ele>
        <time>2026-07-08T10:40:27Z</time>
      </trkpt>
      <trkpt lat="43.0195" lon="0.32032">
        <ele>593.4</ele>
        <time>2026-07-08T10:40:28Z</time>
      </trkpt>
      <trkpt lat="43.01951" lon="0.32032">
        <ele>593.4</ele>
        <time>2026-07-08T10:40:28Z</time>
      </trkpt>
      <trkpt lat="43.01951" lon="0.32033">
        <ele>593.4</ele>
        <time>2026-07-08T10:40:29Z</time>
      </trkpt>
      <trkpt lat="43.01952" lon="0.32033">
        <ele>593.4</ele>
        <time>2026-07-08T10:40:29Z</time>
      </trkpt>
      <trkpt lat="43.01953" lon="0.32033">
        <ele>593.4</ele>
        <time>2026-07-08T10:40:30Z</time>
      </trkpt>
      <trkpt lat="43.01955" lon="0.32033">
        <ele>593.4</ele>
        <time>2026-07-08T10:40:31Z</time>
      </trkpt>
      <trkpt lat="43.01955" lon="0.32033">
        <ele>593.4</ele>
        <time>2026-07-08T10:40:31Z</time>
      </trkpt>
      <trkpt lat="43.01956" lon="0.32033">
        <ele>593.4</ele>
        <time>2026-07-08T10:40:32Z</time>
      </trkpt>
      <trkpt lat="43.01957" lon="0.32034">
        <ele>593.4</ele>
        <time>2026-07-08T10:40:32Z</time>
      </trkpt>
      <trkpt lat="43.01958" lon="0.32034">
        <ele>593.4</ele>
        <time>2026-07-08T10:40:33Z</time>
      </trkpt>
      <trkpt lat="43.01959" lon="0.32034">
        <ele>593.4</ele>
        <time>2026-07-08T10:40:33Z</time>
      </trkpt>
      <trkpt lat="43.01959" lon="0.32034">
        <ele>593.4</ele>
        <time>2026-07-08T10:40:34Z</time>
      </trkpt>
      <trkpt lat="43.0196" lon="0.32034">
        <ele>593.4</ele>
        <time>2026-07-08T10:40:34Z</time>
      </trkpt>
      <trkpt lat="43.01961" lon="0.32034">
        <ele>593.4</ele>
        <time>2026-07-08T10:40:35Z</time>
      </trkpt>
      <trkpt lat="43.01962" lon="0.32034">
        <ele>593.4</ele>
        <time>2026-07-08T10:40:35Z</time>
      </trkpt>
      <trkpt lat="43.01963" lon="0.32034">
        <ele>593.4</ele>
        <time>2026-07-08T10:40:36Z</time>
      </trkpt>
      <trkpt lat="43.01965" lon="0.32035">
        <ele>593.4</ele>
        <time>2026-07-08T10:40:37Z</time>
      </trkpt>
      <trkpt lat="43.01966" lon="0.32035">
        <ele>592.4</ele>
        <time>2026-07-08T10:40:38Z</time>
      </trkpt>
      <trkpt lat="43.01967" lon="0.32035">
        <ele>592.4</ele>
        <time>2026-07-08T10:40:38Z</time>
      </trkpt>
      <trkpt lat="43.01968" lon="0.32035">
        <ele>592.4</ele>
        <time>2026-07-08T10:40:39Z</time>
      </trkpt>
      <trkpt lat="43.01969" lon="0.32035">
        <ele>592.4</ele>
        <time>2026-07-08T10:40:39Z</time>
      </trkpt>
      <trkpt lat="43.0197" lon="0.32035">
        <ele>592.4</ele>
        <time>2026-07-08T10:40:40Z</time>
      </trkpt>
      <trkpt lat="43.01971" lon="0.32035">
        <ele>592.4</ele>
        <time>2026-07-08T10:40:41Z</time>
      </trkpt>
      <trkpt lat="43.01972" lon="0.32036">
        <ele>592.4</ele>
        <time>2026-07-08T10:40:41Z</time>
      </trkpt>
      <trkpt lat="43.01973" lon="0.32036">
        <ele>592.4</ele>
        <time>2026-07-08T10:40:42Z</time>
      </trkpt>
      <trkpt lat="43.01974" lon="0.32036">
        <ele>592.4</ele>
        <time>2026-07-08T10:40:43Z</time>
      </trkpt>
      <trkpt lat="43.01975" lon="0.32037">
        <ele>592.4</ele>
        <time>2026-07-08T10:40:43Z</time>
      </trkpt>
      <trkpt lat="43.01975" lon="0.32037">
        <ele>592.4</ele>
        <time>2026-07-08T10:40:44Z</time>
      </trkpt>
      <trkpt lat="43.01976" lon="0.32038">
        <ele>592.4</ele>
        <time>2026-07-08T10:40:44Z</time>
      </trkpt>
      <trkpt lat="43.01977" lon="0.32038">
        <ele>592.4</ele>
        <time>2026-07-08T10:40:45Z</time>
      </trkpt>
      <trkpt lat="43.01978" lon="0.3204">
        <ele>593.4</ele>
        <time>2026-07-08T10:40:46Z</time>
      </trkpt>
      <trkpt lat="43.01979" lon="0.3204">
        <ele>593.4</ele>
        <time>2026-07-08T10:40:47Z</time>
      </trkpt>
      <trkpt lat="43.0198" lon="0.32041">
        <ele>593.4</ele>
        <time>2026-07-08T10:40:47Z</time>
      </trkpt>
      <trkpt lat="43.01981" lon="0.32042">
        <ele>593.4</ele>
        <time>2026-07-08T10:40:48Z</time>
      </trkpt>
      <trkpt lat="43.01981" lon="0.32042">
        <ele>593.4</ele>
        <time>2026-07-08T10:40:48Z</time>
      </trkpt>
      <trkpt lat="43.01982" lon="0.32042">
        <ele>592.4</ele>
        <time>2026-07-08T10:40:49Z</time>
      </trkpt>
      <trkpt lat="43.01983" lon="0.32043">
        <ele>593.4</ele>
        <time>2026-07-08T10:40:49Z</time>
      </trkpt>
      <trkpt lat="43.01983" lon="0.32043">
        <ele>593.4</ele>
        <time>2026-07-08T10:40:49Z</time>
      </trkpt>
      <trkpt lat="43.01984" lon="0.32044">
        <ele>593.4</ele>
        <time>2026-07-08T10:40:50Z</time>
      </trkpt>
      <trkpt lat="43.01985" lon="0.32044">
        <ele>592.4</ele>
        <time>2026-07-08T10:40:50Z</time>
      </trkpt>
      <trkpt lat="43.01985" lon="0.32045">
        <ele>592.4</ele>
        <time>2026-07-08T10:40:51Z</time>
      </trkpt>
      <trkpt lat="43.01986" lon="0.32046">
        <ele>593.4</ele>
        <time>2026-07-08T10:40:52Z</time>
      </trkpt>
      <trkpt lat="43.01987" lon="0.32046">
        <ele>593.4</ele>
        <time>2026-07-08T10:40:52Z</time>
      </trkpt>
      <trkpt lat="43.01987" lon="0.32047">
        <ele>593.4</ele>
        <time>2026-07-08T10:40:52Z</time>
      </trkpt>
      <trkpt lat="43.01988" lon="0.32047">
        <ele>593.4</ele>
        <time>2026-07-08T10:40:53Z</time>
      </trkpt>
      <trkpt lat="43.01989" lon="0.32048">
        <ele>593.4</ele>
        <time>2026-07-08T10:40:54Z</time>
      </trkpt>
      <trkpt lat="43.0199" lon="0.32048">
        <ele>593.4</ele>
        <time>2026-07-08T10:40:54Z</time>
      </trkpt>
      <trkpt lat="43.0199" lon="0.32049">
        <ele>593.4</ele>
        <time>2026-07-08T10:40:54Z</time>
      </trkpt>
      <trkpt lat="43.01991" lon="0.32049">
        <ele>592.4</ele>
        <time>2026-07-08T10:40:55Z</time>
      </trkpt>
      <trkpt lat="43.01992" lon="0.3205">
        <ele>592.4</ele>
        <time>2026-07-08T10:40:56Z</time>
      </trkpt>
      <trkpt lat="43.01993" lon="0.32051">
        <ele>592.4</ele>
        <time>2026-07-08T10:40:56Z</time>
      </trkpt>
      <trkpt lat="43.01994" lon="0.32051">
        <ele>592.4</ele>
        <time>2026-07-08T10:40:57Z</time>
      </trkpt>
      <trkpt lat="43.01995" lon="0.32051">
        <ele>592.4</ele>
        <time>2026-07-08T10:40:58Z</time>
      </trkpt>
      <trkpt lat="43.01995" lon="0.32051">
        <ele>591.4</ele>
        <time>2026-07-08T10:40:58Z</time>
      </trkpt>
      <trkpt lat="43.01996" lon="0.32052">
        <ele>591.4</ele>
        <time>2026-07-08T10:40:59Z</time>
      </trkpt>
      <trkpt lat="43.01997" lon="0.32052">
        <ele>591.4</ele>
        <time>2026-07-08T10:40:59Z</time>
      </trkpt>
      <trkpt lat="43.01997" lon="0.32052">
        <ele>591.4</ele>
        <time>2026-07-08T10:41:00Z</time>
      </trkpt>
      <trkpt lat="43.01998" lon="0.32052">
        <ele>591.4</ele>
        <time>2026-07-08T10:41:00Z</time>
      </trkpt>
      <trkpt lat="43.01999" lon="0.32052">
        <ele>591.4</ele>
        <time>2026-07-08T10:41:01Z</time>
      </trkpt>
      <trkpt lat="43.02" lon="0.32053">
        <ele>591.4</ele>
        <time>2026-07-08T10:41:02Z</time>
      </trkpt>
      <trkpt lat="43.02001" lon="0.32053">
        <ele>591.4</ele>
        <time>2026-07-08T10:41:02Z</time>
      </trkpt>
      <trkpt lat="43.02002" lon="0.32053">
        <ele>591.4</ele>
        <time>2026-07-08T10:41:03Z</time>
      </trkpt>
      <trkpt lat="43.02002" lon="0.32052">
        <ele>590.4</ele>
        <time>2026-07-08T10:41:03Z</time>
      </trkpt>
      <trkpt lat="43.02003" lon="0.32052">
        <ele>590.4</ele>
        <time>2026-07-08T10:41:04Z</time>
      </trkpt>
      <trkpt lat="43.02004" lon="0.32052">
        <ele>590.4</ele>
        <time>2026-07-08T10:41:04Z</time>
      </trkpt>
      <trkpt lat="43.02005" lon="0.32052">
        <ele>590.4</ele>
        <time>2026-07-08T10:41:05Z</time>
      </trkpt>
      <trkpt lat="43.02005" lon="0.32051">
        <ele>590.4</ele>
        <time>2026-07-08T10:41:05Z</time>
      </trkpt>
      <trkpt lat="43.02006" lon="0.32051">
        <ele>590.4</ele>
        <time>2026-07-08T10:41:06Z</time>
      </trkpt>
      <trkpt lat="43.02007" lon="0.32051">
        <ele>590.4</ele>
        <time>2026-07-08T10:41:06Z</time>
      </trkpt>
      <trkpt lat="43.02008" lon="0.3205">
        <ele>590.4</ele>
        <time>2026-07-08T10:41:07Z</time>
      </trkpt>
      <trkpt lat="43.02009" lon="0.3205">
        <ele>590.4</ele>
        <time>2026-07-08T10:41:07Z</time>
      </trkpt>
      <trkpt lat="43.02009" lon="0.3205">
        <ele>590.4</ele>
        <time>2026-07-08T10:41:08Z</time>
      </trkpt>
      <trkpt lat="43.0201" lon="0.3205">
        <ele>590.4</ele>
        <time>2026-07-08T10:41:08Z</time>
      </trkpt>
      <trkpt lat="43.02011" lon="0.32049">
        <ele>590.4</ele>
        <time>2026-07-08T10:41:09Z</time>
      </trkpt>
      <trkpt lat="43.02011" lon="0.32049">
        <ele>590.4</ele>
        <time>2026-07-08T10:41:09Z</time>
      </trkpt>
      <trkpt lat="43.02012" lon="0.32049">
        <ele>590.4</ele>
        <time>2026-07-08T10:41:10Z</time>
      </trkpt>
      <trkpt lat="43.02013" lon="0.32049">
        <ele>589.4</ele>
        <time>2026-07-08T10:41:10Z</time>
      </trkpt>
      <trkpt lat="43.02013" lon="0.32048">
        <ele>589.4</ele>
        <time>2026-07-08T10:41:11Z</time>
      </trkpt>
      <trkpt lat="43.02014" lon="0.32048">
        <ele>589.4</ele>
        <time>2026-07-08T10:41:11Z</time>
      </trkpt>
      <trkpt lat="43.02014" lon="0.32048">
        <ele>589.4</ele>
        <time>2026-07-08T10:41:12Z</time>
      </trkpt>
      <trkpt lat="43.02015" lon="0.32048">
        <ele>589.4</ele>
        <time>2026-07-08T10:41:12Z</time>
      </trkpt>
      <trkpt lat="43.02016" lon="0.32048">
        <ele>589.4</ele>
        <time>2026-07-08T10:41:13Z</time>
      </trkpt>
      <trkpt lat="43.02016" lon="0.32047">
        <ele>589.4</ele>
        <time>2026-07-08T10:41:13Z</time>
      </trkpt>
      <trkpt lat="43.02017" lon="0.32047">
        <ele>589.4</ele>
        <time>2026-07-08T10:41:14Z</time>
      </trkpt>
      <trkpt lat="43.02017" lon="0.32047">
        <ele>587.4</ele>
        <time>2026-07-08T10:41:14Z</time>
      </trkpt>
      <trkpt lat="43.02018" lon="0.32047">
        <ele>587.4</ele>
        <time>2026-07-08T10:41:15Z</time>
      </trkpt>
      <trkpt lat="43.02018" lon="0.32047">
        <ele>587.4</ele>
        <time>2026-07-08T10:41:15Z</time>
      </trkpt>
      <trkpt lat="43.02019" lon="0.32047">
        <ele>587.4</ele>
        <time>2026-07-08T10:41:16Z</time>
      </trkpt>
      <trkpt lat="43.02019" lon="0.32047">
        <ele>587.4</ele>
        <time>2026-07-08T10:41:16Z</time>
      </trkpt>
      <trkpt lat="43.0202" lon="0.32046">
        <ele>587.4</ele>
        <time>2026-07-08T10:41:17Z</time>
      </trkpt>
      <trkpt lat="43.0202" lon="0.32046">
        <ele>587.4</ele>
        <time>2026-07-08T10:41:17Z</time>
      </trkpt>
      <trkpt lat="43.02021" lon="0.32046">
        <ele>587.4</ele>
        <time>2026-07-08T10:41:18Z</time>
      </trkpt>
      <trkpt lat="43.02021" lon="0.32046">
        <ele>587.4</ele>
        <time>2026-07-08T10:41:18Z</time>
      </trkpt>
      <trkpt lat="43.02022" lon="0.32045">
        <ele>587.4</ele>
        <time>2026-07-08T10:41:19Z</time>
      </trkpt>
      <trkpt lat="43.02023" lon="0.32045">
        <ele>587.4</ele>
        <time>2026-07-08T10:41:20Z</time>
      </trkpt>
      <trkpt lat="43.02024" lon="0.32044">
        <ele>587.4</ele>
        <time>2026-07-08T10:41:20Z</time>
      </trkpt>
      <trkpt lat="43.02025" lon="0.32044">
        <ele>587.4</ele>
        <time>2026-07-08T10:41:21Z</time>
      </trkpt>
      <trkpt lat="43.02025" lon="0.32043">
        <ele>587.4</ele>
        <time>2026-07-08T10:41:21Z</time>
      </trkpt>
      <trkpt lat="43.02026" lon="0.32043">
        <ele>587.4</ele>
        <time>2026-07-08T10:41:22Z</time>
      </trkpt>
      <trkpt lat="43.02026" lon="0.32043">
        <ele>587.4</ele>
        <time>2026-07-08T10:41:22Z</time>
      </trkpt>
      <trkpt lat="43.02027" lon="0.32042">
        <ele>587.4</ele>
        <time>2026-07-08T10:41:23Z</time>
      </trkpt>
      <trkpt lat="43.02027" lon="0.32042">
        <ele>587.4</ele>
        <time>2026-07-08T10:41:23Z</time>
      </trkpt>
      <trkpt lat="43.02028" lon="0.32041">
        <ele>587.4</ele>
        <time>2026-07-08T10:41:24Z</time>
      </trkpt>
      <trkpt lat="43.02028" lon="0.32041">
        <ele>587.4</ele>
        <time>2026-07-08T10:41:24Z</time>
      </trkpt>
      <trkpt lat="43.02029" lon="0.3204">
        <ele>587.4</ele>
        <time>2026-07-08T10:41:25Z</time>
      </trkpt>
      <trkpt lat="43.02029" lon="0.32039">
        <ele>587.4</ele>
        <time>2026-07-08T10:41:25Z</time>
      </trkpt>
      <trkpt lat="43.0203" lon="0.32039">
        <ele>587.4</ele>
        <time>2026-07-08T10:41:26Z</time>
      </trkpt>
      <trkpt lat="43.0203" lon="0.32038">
        <ele>587.4</ele>
        <time>2026-07-08T10:41:26Z</time>
      </trkpt>
      <trkpt lat="43.02031" lon="0.32038">
        <ele>587.4</ele>
        <time>2026-07-08T10:41:27Z</time>
      </trkpt>
      <trkpt lat="43.02031" lon="0.32037">
        <ele>586.4</ele>
        <time>2026-07-08T10:41:27Z</time>
      </trkpt>
      <trkpt lat="43.02032" lon="0.32037">
        <ele>586.4</ele>
        <time>2026-07-08T10:41:28Z</time>
      </trkpt>
      <trkpt lat="43.02032" lon="0.32036">
        <ele>586.4</ele>
        <time>2026-07-08T10:41:28Z</time>
      </trkpt>
      <trkpt lat="43.02032" lon="0.32036">
        <ele>586.4</ele>
        <time>2026-07-08T10:41:29Z</time>
      </trkpt>
      <trkpt lat="43.02033" lon="0.32035">
        <ele>586.4</ele>
        <time>2026-07-08T10:41:29Z</time>
      </trkpt>
      <trkpt lat="43.02033" lon="0.32035">
        <ele>586.4</ele>
        <time>2026-07-08T10:41:30Z</time>
      </trkpt>
      <trkpt lat="43.02034" lon="0.32034">
        <ele>586.4</ele>
        <time>2026-07-08T10:41:30Z</time>
      </trkpt>
      <trkpt lat="43.02034" lon="0.32034">
        <ele>586.4</ele>
        <time>2026-07-08T10:41:31Z</time>
      </trkpt>
      <trkpt lat="43.02035" lon="0.32034">
        <ele>586.4</ele>
        <time>2026-07-08T10:41:31Z</time>
      </trkpt>
      <trkpt lat="43.02035" lon="0.32033">
        <ele>586.4</ele>
        <time>2026-07-08T10:41:32Z</time>
      </trkpt>
      <trkpt lat="43.02036" lon="0.32033">
        <ele>585.4</ele>
        <time>2026-07-08T10:41:32Z</time>
      </trkpt>
      <trkpt lat="43.02036" lon="0.32033">
        <ele>585.4</ele>
        <time>2026-07-08T10:41:33Z</time>
      </trkpt>
      <trkpt lat="43.02037" lon="0.32033">
        <ele>586.4</ele>
        <time>2026-07-08T10:41:33Z</time>
      </trkpt>
      <trkpt lat="43.02037" lon="0.32032">
        <ele>586.4</ele>
        <time>2026-07-08T10:41:34Z</time>
      </trkpt>
      <trkpt lat="43.02038" lon="0.32032">
        <ele>585.4</ele>
        <time>2026-07-08T10:41:34Z</time>
      </trkpt>
      <trkpt lat="43.02038" lon="0.32031">
        <ele>585.4</ele>
        <time>2026-07-08T10:41:35Z</time>
      </trkpt>
      <trkpt lat="43.02039" lon="0.32031">
        <ele>585.4</ele>
        <time>2026-07-08T10:41:35Z</time>
      </trkpt>
      <trkpt lat="43.0204" lon="0.3203">
        <ele>585.4</ele>
        <time>2026-07-08T10:41:36Z</time>
      </trkpt>
      <trkpt lat="43.0204" lon="0.3203">
        <ele>584.4</ele>
        <time>2026-07-08T10:41:36Z</time>
      </trkpt>
      <trkpt lat="43.02041" lon="0.3203">
        <ele>584.4</ele>
        <time>2026-07-08T10:41:37Z</time>
      </trkpt>
      <trkpt lat="43.02041" lon="0.32029">
        <ele>584.4</ele>
        <time>2026-07-08T10:41:37Z</time>
      </trkpt>
      <trkpt lat="43.02042" lon="0.32028">
        <ele>584.4</ele>
        <time>2026-07-08T10:41:38Z</time>
      </trkpt>
      <trkpt lat="43.02043" lon="0.32028">
        <ele>584.4</ele>
        <time>2026-07-08T10:41:38Z</time>
      </trkpt>
      <trkpt lat="43.02043" lon="0.32027">
        <ele>584.4</ele>
        <time>2026-07-08T10:41:39Z</time>
      </trkpt>
      <trkpt lat="43.02043" lon="0.32026">
        <ele>583.4</ele>
        <time>2026-07-08T10:41:39Z</time>
      </trkpt>
      <trkpt lat="43.02044" lon="0.32025">
        <ele>583.4</ele>
        <time>2026-07-08T10:41:40Z</time>
      </trkpt>
      <trkpt lat="43.02044" lon="0.32024">
        <ele>583.4</ele>
        <time>2026-07-08T10:41:40Z</time>
      </trkpt>
      <trkpt lat="43.02045" lon="0.32023">
        <ele>583.4</ele>
        <time>2026-07-08T10:41:41Z</time>
      </trkpt>
      <trkpt lat="43.02045" lon="0.32022">
        <ele>583.4</ele>
        <time>2026-07-08T10:41:41Z</time>
      </trkpt>
      <trkpt lat="43.02045" lon="0.32021">
        <ele>583.4</ele>
        <time>2026-07-08T10:41:42Z</time>
      </trkpt>
      <trkpt lat="43.02045" lon="0.3202">
        <ele>582.4</ele>
        <time>2026-07-08T10:41:42Z</time>
      </trkpt>
      <trkpt lat="43.02046" lon="0.32019">
        <ele>582.4</ele>
        <time>2026-07-08T10:41:43Z</time>
      </trkpt>
      <trkpt lat="43.02046" lon="0.32018">
        <ele>582.4</ele>
        <time>2026-07-08T10:41:43Z</time>
      </trkpt>
      <trkpt lat="43.02046" lon="0.32017">
        <ele>582.4</ele>
        <time>2026-07-08T10:41:44Z</time>
      </trkpt>
      <trkpt lat="43.02046" lon="0.32015">
        <ele>582.4</ele>
        <time>2026-07-08T10:41:44Z</time>
      </trkpt>
      <trkpt lat="43.02046" lon="0.32014">
        <ele>582.4</ele>
        <time>2026-07-08T10:41:45Z</time>
      </trkpt>
      <trkpt lat="43.02047" lon="0.32013">
        <ele>582.4</ele>
        <time>2026-07-08T10:41:45Z</time>
      </trkpt>
      <trkpt lat="43.02047" lon="0.32012">
        <ele>582.4</ele>
        <time>2026-07-08T10:41:46Z</time>
      </trkpt>
      <trkpt lat="43.02047" lon="0.32011">
        <ele>582.4</ele>
        <time>2026-07-08T10:41:46Z</time>
      </trkpt>
      <trkpt lat="43.02048" lon="0.3201">
        <ele>582.4</ele>
        <time>2026-07-08T10:41:47Z</time>
      </trkpt>
      <trkpt lat="43.02048" lon="0.32009">
        <ele>582.4</ele>
        <time>2026-07-08T10:41:47Z</time>
      </trkpt>
      <trkpt lat="43.02048" lon="0.32008">
        <ele>582.4</ele>
        <time>2026-07-08T10:41:48Z</time>
      </trkpt>
      <trkpt lat="43.02048" lon="0.32008">
        <ele>582.4</ele>
        <time>2026-07-08T10:41:48Z</time>
      </trkpt>
      <trkpt lat="43.02048" lon="0.32007">
        <ele>582.4</ele>
        <time>2026-07-08T10:41:49Z</time>
      </trkpt>
      <trkpt lat="43.02049" lon="0.32006">
        <ele>582.4</ele>
        <time>2026-07-08T10:41:49Z</time>
      </trkpt>
      <trkpt lat="43.02049" lon="0.32005">
        <ele>582.4</ele>
        <time>2026-07-08T10:41:50Z</time>
      </trkpt>
      <trkpt lat="43.02049" lon="0.32004">
        <ele>581.4</ele>
        <time>2026-07-08T10:41:51Z</time>
      </trkpt>
      <trkpt lat="43.02049" lon="0.32003">
        <ele>581.4</ele>
        <time>2026-07-08T10:41:51Z</time>
      </trkpt>
      <trkpt lat="43.0205" lon="0.32002">
        <ele>581.4</ele>
        <time>2026-07-08T10:41:52Z</time>
      </trkpt>
      <trkpt lat="43.0205" lon="0.32001">
        <ele>581.4</ele>
        <time>2026-07-08T10:41:52Z</time>
      </trkpt>
      <trkpt lat="43.0205" lon="0.31999">
        <ele>581.4</ele>
        <time>2026-07-08T10:41:53Z</time>
      </trkpt>
      <trkpt lat="43.02051" lon="0.31998">
        <ele>581.4</ele>
        <time>2026-07-08T10:41:54Z</time>
      </trkpt>
      <trkpt lat="43.02051" lon="0.31996">
        <ele>581.4</ele>
        <time>2026-07-08T10:41:54Z</time>
      </trkpt>
      <trkpt lat="43.02052" lon="0.31995">
        <ele>581.4</ele>
        <time>2026-07-08T10:41:55Z</time>
      </trkpt>
      <trkpt lat="43.02052" lon="0.31994">
        <ele>580.4</ele>
        <time>2026-07-08T10:41:56Z</time>
      </trkpt>
      <trkpt lat="43.02053" lon="0.31992">
        <ele>580.4</ele>
        <time>2026-07-08T10:41:57Z</time>
      </trkpt>
      <trkpt lat="43.02054" lon="0.31991">
        <ele>580.4</ele>
        <time>2026-07-08T10:41:57Z</time>
      </trkpt>
      <trkpt lat="43.02055" lon="0.3199">
        <ele>580.4</ele>
        <time>2026-07-08T10:41:58Z</time>
      </trkpt>
      <trkpt lat="43.02055" lon="0.31989">
        <ele>580.4</ele>
        <time>2026-07-08T10:41:59Z</time>
      </trkpt>
      <trkpt lat="43.02055" lon="0.31989">
        <ele>580.4</ele>
        <time>2026-07-08T10:41:59Z</time>
      </trkpt>
      <trkpt lat="43.02056" lon="0.31988">
        <ele>580.4</ele>
        <time>2026-07-08T10:42:00Z</time>
      </trkpt>
      <trkpt lat="43.02056" lon="0.31987">
        <ele>580.4</ele>
        <time>2026-07-08T10:42:01Z</time>
      </trkpt>
      <trkpt lat="43.02057" lon="0.31986">
        <ele>580.4</ele>
        <time>2026-07-08T10:42:02Z</time>
      </trkpt>
      <trkpt lat="43.02058" lon="0.31986">
        <ele>581.4</ele>
        <time>2026-07-08T10:42:03Z</time>
      </trkpt>
      <trkpt lat="43.02059" lon="0.31986">
        <ele>581.4</ele>
        <time>2026-07-08T10:42:03Z</time>
      </trkpt>
      <trkpt lat="43.02059" lon="0.31986">
        <ele>581.4</ele>
        <time>2026-07-08T10:42:04Z</time>
      </trkpt>
      <trkpt lat="43.0206" lon="0.31986">
        <ele>581.4</ele>
        <time>2026-07-08T10:42:05Z</time>
      </trkpt>
      <trkpt lat="43.0206" lon="0.31987">
        <ele>580.4</ele>
        <time>2026-07-08T10:42:05Z</time>
      </trkpt>
      <trkpt lat="43.02061" lon="0.31987">
        <ele>581.4</ele>
        <time>2026-07-08T10:42:06Z</time>
      </trkpt>
      <trkpt lat="43.02062" lon="0.31987">
        <ele>581.4</ele>
        <time>2026-07-08T10:42:07Z</time>
      </trkpt>
      <trkpt lat="43.02063" lon="0.31988">
        <ele>581.4</ele>
        <time>2026-07-08T10:42:07Z</time>
      </trkpt>
      <trkpt lat="43.02064" lon="0.31989">
        <ele>581.4</ele>
        <time>2026-07-08T10:42:08Z</time>
      </trkpt>
      <trkpt lat="43.02065" lon="0.3199">
        <ele>581.4</ele>
        <time>2026-07-08T10:42:09Z</time>
      </trkpt>
      <trkpt lat="43.02066" lon="0.31991">
        <ele>581.4</ele>
        <time>2026-07-08T10:42:10Z</time>
      </trkpt>
      <trkpt lat="43.02066" lon="0.31992">
        <ele>580.4</ele>
        <time>2026-07-08T10:42:10Z</time>
      </trkpt>
      <trkpt lat="43.02066" lon="0.31993">
        <ele>580.4</ele>
        <time>2026-07-08T10:42:11Z</time>
      </trkpt>
      <trkpt lat="43.02067" lon="0.31994">
        <ele>581.4</ele>
        <time>2026-07-08T10:42:11Z</time>
      </trkpt>
      <trkpt lat="43.02067" lon="0.31995">
        <ele>581.4</ele>
        <time>2026-07-08T10:42:12Z</time>
      </trkpt>
      <trkpt lat="43.02067" lon="0.31996">
        <ele>582.4</ele>
        <time>2026-07-08T10:42:12Z</time>
      </trkpt>
      <trkpt lat="43.02067" lon="0.31997">
        <ele>582.4</ele>
        <time>2026-07-08T10:42:13Z</time>
      </trkpt>
      <trkpt lat="43.02067" lon="0.31997">
        <ele>581.4</ele>
        <time>2026-07-08T10:42:13Z</time>
      </trkpt>
      <trkpt lat="43.02067" lon="0.31998">
        <ele>581.4</ele>
        <time>2026-07-08T10:42:14Z</time>
      </trkpt>
      <trkpt lat="43.02067" lon="0.31998">
        <ele>581.4</ele>
        <time>2026-07-08T10:42:14Z</time>
      </trkpt>
      <trkpt lat="43.02068" lon="0.31999">
        <ele>581.4</ele>
        <time>2026-07-08T10:42:15Z</time>
      </trkpt>
      <trkpt lat="43.02068" lon="0.32">
        <ele>581.4</ele>
        <time>2026-07-08T10:42:15Z</time>
      </trkpt>
      <trkpt lat="43.02068" lon="0.32001">
        <ele>581.4</ele>
        <time>2026-07-08T10:42:16Z</time>
      </trkpt>
      <trkpt lat="43.02068" lon="0.32001">
        <ele>581.4</ele>
        <time>2026-07-08T10:42:16Z</time>
      </trkpt>
      <trkpt lat="43.02069" lon="0.32002">
        <ele>581.4</ele>
        <time>2026-07-08T10:42:17Z</time>
      </trkpt>
      <trkpt lat="43.02069" lon="0.32003">
        <ele>582.4</ele>
        <time>2026-07-08T10:42:17Z</time>
      </trkpt>
      <trkpt lat="43.02069" lon="0.32004">
        <ele>582.4</ele>
        <time>2026-07-08T10:42:18Z</time>
      </trkpt>
      <trkpt lat="43.02069" lon="0.32004">
        <ele>582.4</ele>
        <time>2026-07-08T10:42:18Z</time>
      </trkpt>
      <trkpt lat="43.02069" lon="0.32004">
        <ele>582.4</ele>
        <time>2026-07-08T10:42:19Z</time>
      </trkpt>
      <trkpt lat="43.02069" lon="0.32005">
        <ele>582.4</ele>
        <time>2026-07-08T10:42:20Z</time>
      </trkpt>
      <trkpt lat="43.02069" lon="0.32006">
        <ele>582.4</ele>
        <time>2026-07-08T10:42:20Z</time>
      </trkpt>
      <trkpt lat="43.0207" lon="0.32007">
        <ele>582.4</ele>
        <time>2026-07-08T10:42:21Z</time>
      </trkpt>
      <trkpt lat="43.0207" lon="0.32007">
        <ele>582.4</ele>
        <time>2026-07-08T10:42:21Z</time>
      </trkpt>
      <trkpt lat="43.0207" lon="0.32007">
        <ele>582.4</ele>
        <time>2026-07-08T10:42:22Z</time>
      </trkpt>
      <trkpt lat="43.0207" lon="0.32008">
        <ele>582.4</ele>
        <time>2026-07-08T10:42:22Z</time>
      </trkpt>
      <trkpt lat="43.0207" lon="0.32009">
        <ele>582.4</ele>
        <time>2026-07-08T10:42:23Z</time>
      </trkpt>
      <trkpt lat="43.0207" lon="0.32009">
        <ele>582.4</ele>
        <time>2026-07-08T10:42:23Z</time>
      </trkpt>
      <trkpt lat="43.02071" lon="0.3201">
        <ele>582.4</ele>
        <time>2026-07-08T10:42:24Z</time>
      </trkpt>
      <trkpt lat="43.02071" lon="0.3201">
        <ele>582.4</ele>
        <time>2026-07-08T10:42:24Z</time>
      </trkpt>
      <trkpt lat="43.02071" lon="0.32011">
        <ele>582.4</ele>
        <time>2026-07-08T10:42:25Z</time>
      </trkpt>
      <trkpt lat="43.02071" lon="0.32012">
        <ele>582.4</ele>
        <time>2026-07-08T10:42:25Z</time>
      </trkpt>
      <trkpt lat="43.02071" lon="0.32013">
        <ele>582.4</ele>
        <time>2026-07-08T10:42:26Z</time>
      </trkpt>
      <trkpt lat="43.02071" lon="0.32014">
        <ele>581.4</ele>
        <time>2026-07-08T10:42:26Z</time>
      </trkpt>
      <trkpt lat="43.02072" lon="0.32015">
        <ele>581.4</ele>
        <time>2026-07-08T10:42:27Z</time>
      </trkpt>
      <trkpt lat="43.02072" lon="0.32015">
        <ele>581.4</ele>
        <time>2026-07-08T10:42:27Z</time>
      </trkpt>
      <trkpt lat="43.02072" lon="0.32016">
        <ele>581.4</ele>
        <time>2026-07-08T10:42:28Z</time>
      </trkpt>
      <trkpt lat="43.02072" lon="0.32017">
        <ele>582.4</ele>
        <time>2026-07-08T10:42:28Z</time>
      </trkpt>
      <trkpt lat="43.02072" lon="0.32018">
        <ele>582.4</ele>
        <time>2026-07-08T10:42:29Z</time>
      </trkpt>
      <trkpt lat="43.02072" lon="0.32019">
        <ele>582.4</ele>
        <time>2026-07-08T10:42:29Z</time>
      </trkpt>
      <trkpt lat="43.02073" lon="0.3202">
        <ele>582.4</ele>
        <time>2026-07-08T10:42:30Z</time>
      </trkpt>
      <trkpt lat="43.02073" lon="0.32021">
        <ele>582.4</ele>
        <time>2026-07-08T10:42:30Z</time>
      </trkpt>
      <trkpt lat="43.02073" lon="0.32022">
        <ele>582.4</ele>
        <time>2026-07-08T10:42:31Z</time>
      </trkpt>
      <trkpt lat="43.02073" lon="0.32023">
        <ele>583.4</ele>
        <time>2026-07-08T10:42:31Z</time>
      </trkpt>
      <trkpt lat="43.02073" lon="0.32024">
        <ele>583.4</ele>
        <time>2026-07-08T10:42:32Z</time>
      </trkpt>
      <trkpt lat="43.02073" lon="0.32024">
        <ele>584.4</ele>
        <time>2026-07-08T10:42:32Z</time>
      </trkpt>
      <trkpt lat="43.02073" lon="0.32025">
        <ele>584.4</ele>
        <time>2026-07-08T10:42:33Z</time>
      </trkpt>
      <trkpt lat="43.02073" lon="0.32026">
        <ele>584.4</ele>
        <time>2026-07-08T10:42:33Z</time>
      </trkpt>
      <trkpt lat="43.02073" lon="0.32028">
        <ele>584.4</ele>
        <time>2026-07-08T10:42:34Z</time>
      </trkpt>
      <trkpt lat="43.02073" lon="0.32029">
        <ele>584.4</ele>
        <time>2026-07-08T10:42:35Z</time>
      </trkpt>
      <trkpt lat="43.02074" lon="0.3203">
        <ele>583.4</ele>
        <time>2026-07-08T10:42:35Z</time>
      </trkpt>
      <trkpt lat="43.02074" lon="0.32031">
        <ele>583.4</ele>
        <time>2026-07-08T10:42:36Z</time>
      </trkpt>
      <trkpt lat="43.02074" lon="0.32032">
        <ele>583.4</ele>
        <time>2026-07-08T10:42:36Z</time>
      </trkpt>
      <trkpt lat="43.02074" lon="0.32033">
        <ele>583.4</ele>
        <time>2026-07-08T10:42:37Z</time>
      </trkpt>
      <trkpt lat="43.02075" lon="0.32034">
        <ele>583.4</ele>
        <time>2026-07-08T10:42:37Z</time>
      </trkpt>
      <trkpt lat="43.02076" lon="0.32035">
        <ele>583.4</ele>
        <time>2026-07-08T10:42:38Z</time>
      </trkpt>
      <trkpt lat="43.02076" lon="0.32035">
        <ele>583.4</ele>
        <time>2026-07-08T10:42:39Z</time>
      </trkpt>
      <trkpt lat="43.02077" lon="0.32036">
        <ele>583.4</ele>
        <time>2026-07-08T10:42:39Z</time>
      </trkpt>
      <trkpt lat="43.02077" lon="0.32037">
        <ele>583.4</ele>
        <time>2026-07-08T10:42:40Z</time>
      </trkpt>
      <trkpt lat="43.02078" lon="0.32038">
        <ele>582.4</ele>
        <time>2026-07-08T10:42:40Z</time>
      </trkpt>
      <trkpt lat="43.02079" lon="0.32039">
        <ele>582.4</ele>
        <time>2026-07-08T10:42:41Z</time>
      </trkpt>
      <trkpt lat="43.02079" lon="0.32039">
        <ele>582.4</ele>
        <time>2026-07-08T10:42:41Z</time>
      </trkpt>
      <trkpt lat="43.0208" lon="0.3204">
        <ele>582.4</ele>
        <time>2026-07-08T10:42:42Z</time>
      </trkpt>
      <trkpt lat="43.0208" lon="0.32041">
        <ele>582.4</ele>
        <time>2026-07-08T10:42:42Z</time>
      </trkpt>
      <trkpt lat="43.02081" lon="0.32042">
        <ele>582.4</ele>
        <time>2026-07-08T10:42:43Z</time>
      </trkpt>
      <trkpt lat="43.02081" lon="0.32043">
        <ele>582.4</ele>
        <time>2026-07-08T10:42:43Z</time>
      </trkpt>
      <trkpt lat="43.02082" lon="0.32044">
        <ele>582.4</ele>
        <time>2026-07-08T10:42:44Z</time>
      </trkpt>
      <trkpt lat="43.02082" lon="0.32045">
        <ele>581.4</ele>
        <time>2026-07-08T10:42:44Z</time>
      </trkpt>
      <trkpt lat="43.02082" lon="0.32046">
        <ele>581.4</ele>
        <time>2026-07-08T10:42:45Z</time>
      </trkpt>
      <trkpt lat="43.02083" lon="0.32047">
        <ele>582.4</ele>
        <time>2026-07-08T10:42:45Z</time>
      </trkpt>
      <trkpt lat="43.02083" lon="0.32048">
        <ele>582.4</ele>
        <time>2026-07-08T10:42:46Z</time>
      </trkpt>
      <trkpt lat="43.02083" lon="0.32049">
        <ele>582.4</ele>
        <time>2026-07-08T10:42:46Z</time>
      </trkpt>
      <trkpt lat="43.02084" lon="0.3205">
        <ele>582.4</ele>
        <time>2026-07-08T10:42:47Z</time>
      </trkpt>
      <trkpt lat="43.02084" lon="0.32052">
        <ele>582.4</ele>
        <time>2026-07-08T10:42:48Z</time>
      </trkpt>
      <trkpt lat="43.02085" lon="0.32053">
        <ele>582.4</ele>
        <time>2026-07-08T10:42:48Z</time>
      </trkpt>
      <trkpt lat="43.02085" lon="0.32054">
        <ele>582.4</ele>
        <time>2026-07-08T10:42:49Z</time>
      </trkpt>
      <trkpt lat="43.02085" lon="0.32056">
        <ele>582.4</ele>
        <time>2026-07-08T10:42:50Z</time>
      </trkpt>
      <trkpt lat="43.02086" lon="0.32057">
        <ele>582.4</ele>
        <time>2026-07-08T10:42:50Z</time>
      </trkpt>
      <trkpt lat="43.02086" lon="0.32058">
        <ele>582.4</ele>
        <time>2026-07-08T10:42:51Z</time>
      </trkpt>
      <trkpt lat="43.02087" lon="0.3206">
        <ele>581.4</ele>
        <time>2026-07-08T10:42:52Z</time>
      </trkpt>
      <trkpt lat="43.02087" lon="0.32061">
        <ele>581.4</ele>
        <time>2026-07-08T10:42:52Z</time>
      </trkpt>
      <trkpt lat="43.02087" lon="0.32062">
        <ele>581.4</ele>
        <time>2026-07-08T10:42:53Z</time>
      </trkpt>
      <trkpt lat="43.02088" lon="0.32063">
        <ele>581.4</ele>
        <time>2026-07-08T10:42:53Z</time>
      </trkpt>
      <trkpt lat="43.02088" lon="0.32064">
        <ele>581.4</ele>
        <time>2026-07-08T10:42:54Z</time>
      </trkpt>
      <trkpt lat="43.02088" lon="0.32065">
        <ele>581.4</ele>
        <time>2026-07-08T10:42:54Z</time>
      </trkpt>
      <trkpt lat="43.02088" lon="0.32066">
        <ele>581.4</ele>
        <time>2026-07-08T10:42:55Z</time>
      </trkpt>
      <trkpt lat="43.02089" lon="0.32068">
        <ele>581.4</ele>
        <time>2026-07-08T10:42:55Z</time>
      </trkpt>
      <trkpt lat="43.02089" lon="0.32069">
        <ele>580.4</ele>
        <time>2026-07-08T10:42:56Z</time>
      </trkpt>
      <trkpt lat="43.02089" lon="0.3207">
        <ele>580.4</ele>
        <time>2026-07-08T10:42:57Z</time>
      </trkpt>
      <trkpt lat="43.02089" lon="0.32071">
        <ele>580.4</ele>
        <time>2026-07-08T10:42:57Z</time>
      </trkpt>
      <trkpt lat="43.02089" lon="0.32073">
        <ele>580.4</ele>
        <time>2026-07-08T10:42:58Z</time>
      </trkpt>
      <trkpt lat="43.02089" lon="0.32074">
        <ele>580.4</ele>
        <time>2026-07-08T10:42:58Z</time>
      </trkpt>
      <trkpt lat="43.02089" lon="0.32075">
        <ele>580.4</ele>
        <time>2026-07-08T10:42:59Z</time>
      </trkpt>
      <trkpt lat="43.02089" lon="0.32076">
        <ele>579.4</ele>
        <time>2026-07-08T10:42:59Z</time>
      </trkpt>
      <trkpt lat="43.02089" lon="0.32077">
        <ele>579.4</ele>
        <time>2026-07-08T10:43:00Z</time>
      </trkpt>
      <trkpt lat="43.02088" lon="0.32077">
        <ele>579.4</ele>
        <time>2026-07-08T10:43:00Z</time>
      </trkpt>
      <trkpt lat="43.02088" lon="0.32078">
        <ele>579.4</ele>
        <time>2026-07-08T10:43:01Z</time>
      </trkpt>
      <trkpt lat="43.02088" lon="0.32079">
        <ele>578.4</ele>
        <time>2026-07-08T10:43:01Z</time>
      </trkpt>
      <trkpt lat="43.02088" lon="0.3208">
        <ele>578.4</ele>
        <time>2026-07-08T10:43:02Z</time>
      </trkpt>
      <trkpt lat="43.02088" lon="0.32081">
        <ele>577.4</ele>
        <time>2026-07-08T10:43:02Z</time>
      </trkpt>
      <trkpt lat="43.02087" lon="0.32082">
        <ele>577.4</ele>
        <time>2026-07-08T10:43:03Z</time>
      </trkpt>
      <trkpt lat="43.02087" lon="0.32083">
        <ele>577.4</ele>
        <time>2026-07-08T10:43:04Z</time>
      </trkpt>
      <trkpt lat="43.02087" lon="0.32084">
        <ele>575.4</ele>
        <time>2026-07-08T10:43:04Z</time>
      </trkpt>
      <trkpt lat="43.02086" lon="0.32085">
        <ele>575.4</ele>
        <time>2026-07-08T10:43:04Z</time>
      </trkpt>
      <trkpt lat="43.02086" lon="0.32086">
        <ele>575.4</ele>
        <time>2026-07-08T10:43:05Z</time>
      </trkpt>
      <trkpt lat="43.02086" lon="0.32087">
        <ele>575.4</ele>
        <time>2026-07-08T10:43:05Z</time>
      </trkpt>
      <trkpt lat="43.02086" lon="0.32087">
        <ele>575.4</ele>
        <time>2026-07-08T10:43:06Z</time>
      </trkpt>
      <trkpt lat="43.02085" lon="0.32088">
        <ele>575.4</ele>
        <time>2026-07-08T10:43:06Z</time>
      </trkpt>
      <trkpt lat="43.02085" lon="0.32089">
        <ele>575.4</ele>
        <time>2026-07-08T10:43:07Z</time>
      </trkpt>
      <trkpt lat="43.02084" lon="0.3209">
        <ele>575.4</ele>
        <time>2026-07-08T10:43:07Z</time>
      </trkpt>
      <trkpt lat="43.02084" lon="0.32091">
        <ele>575.4</ele>
        <time>2026-07-08T10:43:08Z</time>
      </trkpt>
      <trkpt lat="43.02084" lon="0.32091">
        <ele>575.4</ele>
        <time>2026-07-08T10:43:08Z</time>
      </trkpt>
      <trkpt lat="43.02083" lon="0.32092">
        <ele>575.4</ele>
        <time>2026-07-08T10:43:09Z</time>
      </trkpt>
      <trkpt lat="43.02083" lon="0.32093">
        <ele>574.4</ele>
        <time>2026-07-08T10:43:09Z</time>
      </trkpt>
      <trkpt lat="43.02082" lon="0.32093">
        <ele>574.4</ele>
        <time>2026-07-08T10:43:10Z</time>
      </trkpt>
      <trkpt lat="43.02082" lon="0.32094">
        <ele>573.4</ele>
        <time>2026-07-08T10:43:10Z</time>
      </trkpt>
      <trkpt lat="43.02081" lon="0.32095">
        <ele>573.4</ele>
        <time>2026-07-08T10:43:11Z</time>
      </trkpt>
      <trkpt lat="43.02081" lon="0.32095">
        <ele>573.4</ele>
        <time>2026-07-08T10:43:12Z</time>
      </trkpt>
      <trkpt lat="43.0208" lon="0.32096">
        <ele>573.4</ele>
        <time>2026-07-08T10:43:12Z</time>
      </trkpt>
      <trkpt lat="43.0208" lon="0.32096">
        <ele>573.4</ele>
        <time>2026-07-08T10:43:13Z</time>
      </trkpt>
      <trkpt lat="43.02079" lon="0.32097">
        <ele>573.4</ele>
        <time>2026-07-08T10:43:13Z</time>
      </trkpt>
      <trkpt lat="43.02078" lon="0.32097">
        <ele>573.4</ele>
        <time>2026-07-08T10:43:14Z</time>
      </trkpt>
      <trkpt lat="43.02078" lon="0.32098">
        <ele>572.4</ele>
        <time>2026-07-08T10:43:14Z</time>
      </trkpt>
      <trkpt lat="43.02077" lon="0.32098">
        <ele>572.4</ele>
        <time>2026-07-08T10:43:15Z</time>
      </trkpt>
      <trkpt lat="43.02076" lon="0.32098">
        <ele>572.4</ele>
        <time>2026-07-08T10:43:15Z</time>
      </trkpt>
      <trkpt lat="43.02076" lon="0.32099">
        <ele>572.4</ele>
        <time>2026-07-08T10:43:16Z</time>
      </trkpt>
      <trkpt lat="43.02075" lon="0.32099">
        <ele>572.4</ele>
        <time>2026-07-08T10:43:16Z</time>
      </trkpt>
      <trkpt lat="43.02075" lon="0.321">
        <ele>572.4</ele>
        <time>2026-07-08T10:43:17Z</time>
      </trkpt>
      <trkpt lat="43.02074" lon="0.32101">
        <ele>572.4</ele>
        <time>2026-07-08T10:43:17Z</time>
      </trkpt>
      <trkpt lat="43.02074" lon="0.32101">
        <ele>572.4</ele>
        <time>2026-07-08T10:43:18Z</time>
      </trkpt>
      <trkpt lat="43.02073" lon="0.32102">
        <ele>572.4</ele>
        <time>2026-07-08T10:43:18Z</time>
      </trkpt>
      <trkpt lat="43.02073" lon="0.32102">
        <ele>572.4</ele>
        <time>2026-07-08T10:43:19Z</time>
      </trkpt>
      <trkpt lat="43.02072" lon="0.32103">
        <ele>572.4</ele>
        <time>2026-07-08T10:43:19Z</time>
      </trkpt>
      <trkpt lat="43.02072" lon="0.32104">
        <ele>572.4</ele>
        <time>2026-07-08T10:43:20Z</time>
      </trkpt>
      <trkpt lat="43.02071" lon="0.32105">
        <ele>571.4</ele>
        <time>2026-07-08T10:43:21Z</time>
      </trkpt>
      <trkpt lat="43.02071" lon="0.32106">
        <ele>571.4</ele>
        <time>2026-07-08T10:43:21Z</time>
      </trkpt>
      <trkpt lat="43.0207" lon="0.32106">
        <ele>571.4</ele>
        <time>2026-07-08T10:43:22Z</time>
      </trkpt>
      <trkpt lat="43.0207" lon="0.32107">
        <ele>571.4</ele>
        <time>2026-07-08T10:43:22Z</time>
      </trkpt>
      <trkpt lat="43.02069" lon="0.32107">
        <ele>571.4</ele>
        <time>2026-07-08T10:43:23Z</time>
      </trkpt>
      <trkpt lat="43.02068" lon="0.32108">
        <ele>570.4</ele>
        <time>2026-07-08T10:43:24Z</time>
      </trkpt>
      <trkpt lat="43.02067" lon="0.32109">
        <ele>570.4</ele>
        <time>2026-07-08T10:43:25Z</time>
      </trkpt>
      <trkpt lat="43.02066" lon="0.3211">
        <ele>570.4</ele>
        <time>2026-07-08T10:43:25Z</time>
      </trkpt>
      <trkpt lat="43.02065" lon="0.3211">
        <ele>570.4</ele>
        <time>2026-07-08T10:43:26Z</time>
      </trkpt>
      <trkpt lat="43.02064" lon="0.32111">
        <ele>570.4</ele>
        <time>2026-07-08T10:43:27Z</time>
      </trkpt>
      <trkpt lat="43.02064" lon="0.32111">
        <ele>570.4</ele>
        <time>2026-07-08T10:43:27Z</time>
      </trkpt>
      <trkpt lat="43.02063" lon="0.32112">
        <ele>569.4</ele>
        <time>2026-07-08T10:43:28Z</time>
      </trkpt>
      <trkpt lat="43.02062" lon="0.32113">
        <ele>568.4</ele>
        <time>2026-07-08T10:43:28Z</time>
      </trkpt>
      <trkpt lat="43.02062" lon="0.32113">
        <ele>568.4</ele>
        <time>2026-07-08T10:43:29Z</time>
      </trkpt>
      <trkpt lat="43.02061" lon="0.32114">
        <ele>567.4</ele>
        <time>2026-07-08T10:43:30Z</time>
      </trkpt>
      <trkpt lat="43.0206" lon="0.32114">
        <ele>567.4</ele>
        <time>2026-07-08T10:43:31Z</time>
      </trkpt>
      <trkpt lat="43.02059" lon="0.32115">
        <ele>567.4</ele>
        <time>2026-07-08T10:43:31Z</time>
      </trkpt>
      <trkpt lat="43.02059" lon="0.32115">
        <ele>567.4</ele>
        <time>2026-07-08T10:43:31Z</time>
      </trkpt>
      <trkpt lat="43.02058" lon="0.32116">
        <ele>567.4</ele>
        <time>2026-07-08T10:43:32Z</time>
      </trkpt>
      <trkpt lat="43.02057" lon="0.32116">
        <ele>567.4</ele>
        <time>2026-07-08T10:43:33Z</time>
      </trkpt>
      <trkpt lat="43.02056" lon="0.32117">
        <ele>566.4</ele>
        <time>2026-07-08T10:43:33Z</time>
      </trkpt>
      <trkpt lat="43.02055" lon="0.32117">
        <ele>566.4</ele>
        <time>2026-07-08T10:43:34Z</time>
      </trkpt>
      <trkpt lat="43.02055" lon="0.32118">
        <ele>566.4</ele>
        <time>2026-07-08T10:43:34Z</time>
      </trkpt>
      <trkpt lat="43.02054" lon="0.32118">
        <ele>566.4</ele>
        <time>2026-07-08T10:43:35Z</time>
      </trkpt>
      <trkpt lat="43.02054" lon="0.32119">
        <ele>566.4</ele>
        <time>2026-07-08T10:43:35Z</time>
      </trkpt>
      <trkpt lat="43.02053" lon="0.32119">
        <ele>566.4</ele>
        <time>2026-07-08T10:43:36Z</time>
      </trkpt>
      <trkpt lat="43.02052" lon="0.3212">
        <ele>566.4</ele>
        <time>2026-07-08T10:43:36Z</time>
      </trkpt>
      <trkpt lat="43.02052" lon="0.32121">
        <ele>566.4</ele>
        <time>2026-07-08T10:43:37Z</time>
      </trkpt>
      <trkpt lat="43.02051" lon="0.32121">
        <ele>565.4</ele>
        <time>2026-07-08T10:43:37Z</time>
      </trkpt>
      <trkpt lat="43.0205" lon="0.32122">
        <ele>565.4</ele>
        <time>2026-07-08T10:43:38Z</time>
      </trkpt>
      <trkpt lat="43.0205" lon="0.32122">
        <ele>565.4</ele>
        <time>2026-07-08T10:43:38Z</time>
      </trkpt>
      <trkpt lat="43.02049" lon="0.32122">
        <ele>565.4</ele>
        <time>2026-07-08T10:43:39Z</time>
      </trkpt>
      <trkpt lat="43.02048" lon="0.32123">
        <ele>565.4</ele>
        <time>2026-07-08T10:43:39Z</time>
      </trkpt>
      <trkpt lat="43.02048" lon="0.32123">
        <ele>565.4</ele>
        <time>2026-07-08T10:43:40Z</time>
      </trkpt>
      <trkpt lat="43.02046" lon="0.32124">
        <ele>563.4</ele>
        <time>2026-07-08T10:43:41Z</time>
      </trkpt>
      <trkpt lat="43.02046" lon="0.32124">
        <ele>563.4</ele>
        <time>2026-07-08T10:43:41Z</time>
      </trkpt>
      <trkpt lat="43.02045" lon="0.32124">
        <ele>563.4</ele>
        <time>2026-07-08T10:43:42Z</time>
      </trkpt>
      <trkpt lat="43.02044" lon="0.32125">
        <ele>563.4</ele>
        <time>2026-07-08T10:43:42Z</time>
      </trkpt>
      <trkpt lat="43.02043" lon="0.32125">
        <ele>563.4</ele>
        <time>2026-07-08T10:43:43Z</time>
      </trkpt>
      <trkpt lat="43.02043" lon="0.32125">
        <ele>563.4</ele>
        <time>2026-07-08T10:43:43Z</time>
      </trkpt>
      <trkpt lat="43.02042" lon="0.32126">
        <ele>563.4</ele>
        <time>2026-07-08T10:43:44Z</time>
      </trkpt>
      <trkpt lat="43.02041" lon="0.32126">
        <ele>563.4</ele>
        <time>2026-07-08T10:43:44Z</time>
      </trkpt>
      <trkpt lat="43.02041" lon="0.32126">
        <ele>563.4</ele>
        <time>2026-07-08T10:43:45Z</time>
      </trkpt>
      <trkpt lat="43.0204" lon="0.32127">
        <ele>562.4</ele>
        <time>2026-07-08T10:43:45Z</time>
      </trkpt>
      <trkpt lat="43.02039" lon="0.32127">
        <ele>562.4</ele>
        <time>2026-07-08T10:43:46Z</time>
      </trkpt>
      <trkpt lat="43.02039" lon="0.32127">
        <ele>562.4</ele>
        <time>2026-07-08T10:43:46Z</time>
      </trkpt>
      <trkpt lat="43.02038" lon="0.32128">
        <ele>562.4</ele>
        <time>2026-07-08T10:43:47Z</time>
      </trkpt>
      <trkpt lat="43.02037" lon="0.32128">
        <ele>562.4</ele>
        <time>2026-07-08T10:43:47Z</time>
      </trkpt>
      <trkpt lat="43.02037" lon="0.32129">
        <ele>562.4</ele>
        <time>2026-07-08T10:43:48Z</time>
      </trkpt>
      <trkpt lat="43.02036" lon="0.32129">
        <ele>562.4</ele>
        <time>2026-07-08T10:43:48Z</time>
      </trkpt>
      <trkpt lat="43.02035" lon="0.32129">
        <ele>562.4</ele>
        <time>2026-07-08T10:43:49Z</time>
      </trkpt>
      <trkpt lat="43.02035" lon="0.32129">
        <ele>561.4</ele>
        <time>2026-07-08T10:43:49Z</time>
      </trkpt>
      <trkpt lat="43.02034" lon="0.32129">
        <ele>561.4</ele>
        <time>2026-07-08T10:43:50Z</time>
      </trkpt>
      <trkpt lat="43.02033" lon="0.3213">
        <ele>561.4</ele>
        <time>2026-07-08T10:43:50Z</time>
      </trkpt>
      <trkpt lat="43.02033" lon="0.3213">
        <ele>561.4</ele>
        <time>2026-07-08T10:43:51Z</time>
      </trkpt>
      <trkpt lat="43.02032" lon="0.3213">
        <ele>562.4</ele>
        <time>2026-07-08T10:43:51Z</time>
      </trkpt>
      <trkpt lat="43.02031" lon="0.3213">
        <ele>562.4</ele>
        <time>2026-07-08T10:43:52Z</time>
      </trkpt>
      <trkpt lat="43.0203" lon="0.3213">
        <ele>562.4</ele>
        <time>2026-07-08T10:43:52Z</time>
      </trkpt>
      <trkpt lat="43.0203" lon="0.3213">
        <ele>562.4</ele>
        <time>2026-07-08T10:43:53Z</time>
      </trkpt>
      <trkpt lat="43.02029" lon="0.3213">
        <ele>563.4</ele>
        <time>2026-07-08T10:43:53Z</time>
      </trkpt>
      <trkpt lat="43.02028" lon="0.3213">
        <ele>563.4</ele>
        <time>2026-07-08T10:43:54Z</time>
      </trkpt>
      <trkpt lat="43.02028" lon="0.3213">
        <ele>563.4</ele>
        <time>2026-07-08T10:43:54Z</time>
      </trkpt>
      <trkpt lat="43.02027" lon="0.3213">
        <ele>563.4</ele>
        <time>2026-07-08T10:43:55Z</time>
      </trkpt>
      <trkpt lat="43.02026" lon="0.3213">
        <ele>563.4</ele>
        <time>2026-07-08T10:43:56Z</time>
      </trkpt>
      <trkpt lat="43.02026" lon="0.3213">
        <ele>563.4</ele>
        <time>2026-07-08T10:43:56Z</time>
      </trkpt>
      <trkpt lat="43.02025" lon="0.3213">
        <ele>563.4</ele>
        <time>2026-07-08T10:43:57Z</time>
      </trkpt>
      <trkpt lat="43.02024" lon="0.3213">
        <ele>563.4</ele>
        <time>2026-07-08T10:43:57Z</time>
      </trkpt>
      <trkpt lat="43.02024" lon="0.3213">
        <ele>563.4</ele>
        <time>2026-07-08T10:43:58Z</time>
      </trkpt>
      <trkpt lat="43.02023" lon="0.3213">
        <ele>564.4</ele>
        <time>2026-07-08T10:43:58Z</time>
      </trkpt>
      <trkpt lat="43.02022" lon="0.3213">
        <ele>564.4</ele>
        <time>2026-07-08T10:43:59Z</time>
      </trkpt>
      <trkpt lat="43.02021" lon="0.3213">
        <ele>564.4</ele>
        <time>2026-07-08T10:43:59Z</time>
      </trkpt>
      <trkpt lat="43.02021" lon="0.3213">
        <ele>564.4</ele>
        <time>2026-07-08T10:44:00Z</time>
      </trkpt>
      <trkpt lat="43.0202" lon="0.3213">
        <ele>563.4</ele>
        <time>2026-07-08T10:44:00Z</time>
      </trkpt>
      <trkpt lat="43.02019" lon="0.3213">
        <ele>563.4</ele>
        <time>2026-07-08T10:44:01Z</time>
      </trkpt>
      <trkpt lat="43.02019" lon="0.3213">
        <ele>563.4</ele>
        <time>2026-07-08T10:44:01Z</time>
      </trkpt>
      <trkpt lat="43.02018" lon="0.3213">
        <ele>563.4</ele>
        <time>2026-07-08T10:44:02Z</time>
      </trkpt>
      <trkpt lat="43.02018" lon="0.3213">
        <ele>563.4</ele>
        <time>2026-07-08T10:44:02Z</time>
      </trkpt>
      <trkpt lat="43.02017" lon="0.3213">
        <ele>563.4</ele>
        <time>2026-07-08T10:44:03Z</time>
      </trkpt>
      <trkpt lat="43.02017" lon="0.3213">
        <ele>563.4</ele>
        <time>2026-07-08T10:44:03Z</time>
      </trkpt>
      <trkpt lat="43.02016" lon="0.3213">
        <ele>563.4</ele>
        <time>2026-07-08T10:44:04Z</time>
      </trkpt>
      <trkpt lat="43.02015" lon="0.3213">
        <ele>562.4</ele>
        <time>2026-07-08T10:44:04Z</time>
      </trkpt>
      <trkpt lat="43.02014" lon="0.3213">
        <ele>562.4</ele>
        <time>2026-07-08T10:44:05Z</time>
      </trkpt>
      <trkpt lat="43.02014" lon="0.3213">
        <ele>562.4</ele>
        <time>2026-07-08T10:44:05Z</time>
      </trkpt>
      <trkpt lat="43.02013" lon="0.32129">
        <ele>562.4</ele>
        <time>2026-07-08T10:44:06Z</time>
      </trkpt>
      <trkpt lat="43.02012" lon="0.32129">
        <ele>562.4</ele>
        <time>2026-07-08T10:44:06Z</time>
      </trkpt>
      <trkpt lat="43.02012" lon="0.32129">
        <ele>562.4</ele>
        <time>2026-07-08T10:44:07Z</time>
      </trkpt>
      <trkpt lat="43.02011" lon="0.32129">
        <ele>562.4</ele>
        <time>2026-07-08T10:44:08Z</time>
      </trkpt>
      <trkpt lat="43.0201" lon="0.3213">
        <ele>561.4</ele>
        <time>2026-07-08T10:44:08Z</time>
      </trkpt>
      <trkpt lat="43.02009" lon="0.3213">
        <ele>561.4</ele>
        <time>2026-07-08T10:44:09Z</time>
      </trkpt>
      <trkpt lat="43.02008" lon="0.3213">
        <ele>561.4</ele>
        <time>2026-07-08T10:44:10Z</time>
      </trkpt>
      <trkpt lat="43.02008" lon="0.32131">
        <ele>562.4</ele>
        <time>2026-07-08T10:44:10Z</time>
      </trkpt>
      <trkpt lat="43.02007" lon="0.32131">
        <ele>562.4</ele>
        <time>2026-07-08T10:44:11Z</time>
      </trkpt>
      <trkpt lat="43.02006" lon="0.32132">
        <ele>561.4</ele>
        <time>2026-07-08T10:44:11Z</time>
      </trkpt>
      <trkpt lat="43.02006" lon="0.32132">
        <ele>561.4</ele>
        <time>2026-07-08T10:44:12Z</time>
      </trkpt>
      <trkpt lat="43.02004" lon="0.32132">
        <ele>561.4</ele>
        <time>2026-07-08T10:44:13Z</time>
      </trkpt>
      <trkpt lat="43.02004" lon="0.32133">
        <ele>561.4</ele>
        <time>2026-07-08T10:44:13Z</time>
      </trkpt>
      <trkpt lat="43.02003" lon="0.32133">
        <ele>561.4</ele>
        <time>2026-07-08T10:44:14Z</time>
      </trkpt>
      <trkpt lat="43.02002" lon="0.32134">
        <ele>561.4</ele>
        <time>2026-07-08T10:44:15Z</time>
      </trkpt>
      <trkpt lat="43.02001" lon="0.32134">
        <ele>562.4</ele>
        <time>2026-07-08T10:44:15Z</time>
      </trkpt>
      <trkpt lat="43.02" lon="0.32134">
        <ele>562.4</ele>
        <time>2026-07-08T10:44:16Z</time>
      </trkpt>
      <trkpt lat="43.02" lon="0.32135">
        <ele>562.4</ele>
        <time>2026-07-08T10:44:16Z</time>
      </trkpt>
      <trkpt lat="43.01999" lon="0.32135">
        <ele>562.4</ele>
        <time>2026-07-08T10:44:17Z</time>
      </trkpt>
      <trkpt lat="43.01998" lon="0.32136">
        <ele>562.4</ele>
        <time>2026-07-08T10:44:17Z</time>
      </trkpt>
      <trkpt lat="43.01998" lon="0.32136">
        <ele>561.4</ele>
        <time>2026-07-08T10:44:18Z</time>
      </trkpt>
      <trkpt lat="43.01997" lon="0.32137">
        <ele>561.4</ele>
        <time>2026-07-08T10:44:19Z</time>
      </trkpt>
      <trkpt lat="43.01997" lon="0.32137">
        <ele>561.4</ele>
        <time>2026-07-08T10:44:19Z</time>
      </trkpt>
      <trkpt lat="43.01996" lon="0.32138">
        <ele>561.4</ele>
        <time>2026-07-08T10:44:20Z</time>
      </trkpt>
      <trkpt lat="43.01995" lon="0.32138">
        <ele>561.4</ele>
        <time>2026-07-08T10:44:20Z</time>
      </trkpt>
      <trkpt lat="43.01994" lon="0.32138">
        <ele>561.4</ele>
        <time>2026-07-08T10:44:21Z</time>
      </trkpt>
      <trkpt lat="43.01993" lon="0.32139">
        <ele>560.4</ele>
        <time>2026-07-08T10:44:22Z</time>
      </trkpt>
      <trkpt lat="43.01992" lon="0.32139">
        <ele>560.4</ele>
        <time>2026-07-08T10:44:22Z</time>
      </trkpt>
      <trkpt lat="43.01992" lon="0.3214">
        <ele>560.4</ele>
        <time>2026-07-08T10:44:23Z</time>
      </trkpt>
      <trkpt lat="43.01991" lon="0.3214">
        <ele>561.4</ele>
        <time>2026-07-08T10:44:23Z</time>
      </trkpt>
      <trkpt lat="43.0199" lon="0.3214">
        <ele>561.4</ele>
        <time>2026-07-08T10:44:24Z</time>
      </trkpt>
      <trkpt lat="43.01989" lon="0.3214">
        <ele>561.4</ele>
        <time>2026-07-08T10:44:25Z</time>
      </trkpt>
      <trkpt lat="43.01989" lon="0.3214">
        <ele>561.4</ele>
        <time>2026-07-08T10:44:25Z</time>
      </trkpt>
      <trkpt lat="43.01988" lon="0.3214">
        <ele>561.4</ele>
        <time>2026-07-08T10:44:26Z</time>
      </trkpt>
      <trkpt lat="43.01987" lon="0.3214">
        <ele>561.4</ele>
        <time>2026-07-08T10:44:26Z</time>
      </trkpt>
      <trkpt lat="43.01987" lon="0.3214">
        <ele>561.4</ele>
        <time>2026-07-08T10:44:27Z</time>
      </trkpt>
      <trkpt lat="43.01986" lon="0.3214">
        <ele>560.4</ele>
        <time>2026-07-08T10:44:27Z</time>
      </trkpt>
      <trkpt lat="43.01985" lon="0.3214">
        <ele>560.4</ele>
        <time>2026-07-08T10:44:28Z</time>
      </trkpt>
      <trkpt lat="43.01985" lon="0.3214">
        <ele>561.4</ele>
        <time>2026-07-08T10:44:28Z</time>
      </trkpt>
      <trkpt lat="43.01984" lon="0.3214">
        <ele>561.4</ele>
        <time>2026-07-08T10:44:29Z</time>
      </trkpt>
      <trkpt lat="43.01984" lon="0.3214">
        <ele>561.4</ele>
        <time>2026-07-08T10:44:29Z</time>
      </trkpt>
      <trkpt lat="43.01983" lon="0.3214">
        <ele>561.4</ele>
        <time>2026-07-08T10:44:30Z</time>
      </trkpt>
      <trkpt lat="43.01982" lon="0.3214">
        <ele>560.4</ele>
        <time>2026-07-08T10:44:30Z</time>
      </trkpt>
      <trkpt lat="43.01982" lon="0.3214">
        <ele>560.4</ele>
        <time>2026-07-08T10:44:31Z</time>
      </trkpt>
      <trkpt lat="43.01981" lon="0.32141">
        <ele>560.4</ele>
        <time>2026-07-08T10:44:32Z</time>
      </trkpt>
      <trkpt lat="43.0198" lon="0.32141">
        <ele>561.4</ele>
        <time>2026-07-08T10:44:32Z</time>
      </trkpt>
      <trkpt lat="43.0198" lon="0.32141">
        <ele>561.4</ele>
        <time>2026-07-08T10:44:33Z</time>
      </trkpt>
      <trkpt lat="43.01979" lon="0.32141">
        <ele>561.4</ele>
        <time>2026-07-08T10:44:33Z</time>
      </trkpt>
      <trkpt lat="43.01978" lon="0.32142">
        <ele>561.4</ele>
        <time>2026-07-08T10:44:34Z</time>
      </trkpt>
      <trkpt lat="43.01978" lon="0.32142">
        <ele>561.4</ele>
        <time>2026-07-08T10:44:34Z</time>
      </trkpt>
      <trkpt lat="43.01977" lon="0.32142">
        <ele>561.4</ele>
        <time>2026-07-08T10:44:35Z</time>
      </trkpt>
      <trkpt lat="43.01976" lon="0.32142">
        <ele>561.4</ele>
        <time>2026-07-08T10:44:35Z</time>
      </trkpt>
      <trkpt lat="43.01975" lon="0.32143">
        <ele>561.4</ele>
        <time>2026-07-08T10:44:36Z</time>
      </trkpt>
      <trkpt lat="43.01975" lon="0.32143">
        <ele>561.4</ele>
        <time>2026-07-08T10:44:36Z</time>
      </trkpt>
      <trkpt lat="43.01974" lon="0.32143">
        <ele>561.4</ele>
        <time>2026-07-08T10:44:37Z</time>
      </trkpt>
      <trkpt lat="43.01973" lon="0.32144">
        <ele>561.4</ele>
        <time>2026-07-08T10:44:37Z</time>
      </trkpt>
      <trkpt lat="43.01973" lon="0.32144">
        <ele>561.4</ele>
        <time>2026-07-08T10:44:38Z</time>
      </trkpt>
      <trkpt lat="43.01972" lon="0.32144">
        <ele>561.4</ele>
        <time>2026-07-08T10:44:38Z</time>
      </trkpt>
      <trkpt lat="43.01971" lon="0.32144">
        <ele>561.4</ele>
        <time>2026-07-08T10:44:39Z</time>
      </trkpt>
      <trkpt lat="43.0197" lon="0.32144">
        <ele>560.4</ele>
        <time>2026-07-08T10:44:39Z</time>
      </trkpt>
      <trkpt lat="43.0197" lon="0.32145">
        <ele>560.4</ele>
        <time>2026-07-08T10:44:40Z</time>
      </trkpt>
      <trkpt lat="43.01969" lon="0.32145">
        <ele>561.4</ele>
        <time>2026-07-08T10:44:40Z</time>
      </trkpt>
      <trkpt lat="43.01968" lon="0.32145">
        <ele>561.4</ele>
        <time>2026-07-08T10:44:41Z</time>
      </trkpt>
      <trkpt lat="43.01968" lon="0.32146">
        <ele>561.4</ele>
        <time>2026-07-08T10:44:42Z</time>
      </trkpt>
      <trkpt lat="43.01967" lon="0.32146">
        <ele>561.4</ele>
        <time>2026-07-08T10:44:42Z</time>
      </trkpt>
      <trkpt lat="43.01967" lon="0.32147">
        <ele>561.4</ele>
        <time>2026-07-08T10:44:43Z</time>
      </trkpt>
      <trkpt lat="43.01967" lon="0.32148">
        <ele>560.4</ele>
        <time>2026-07-08T10:44:43Z</time>
      </trkpt>
      <trkpt lat="43.01966" lon="0.32148">
        <ele>560.4</ele>
        <time>2026-07-08T10:44:44Z</time>
      </trkpt>
      <trkpt lat="43.01966" lon="0.32149">
        <ele>560.4</ele>
        <time>2026-07-08T10:44:44Z</time>
      </trkpt>
      <trkpt lat="43.01966" lon="0.3215">
        <ele>560.4</ele>
        <time>2026-07-08T10:44:45Z</time>
      </trkpt>
      <trkpt lat="43.01965" lon="0.32151">
        <ele>560.4</ele>
        <time>2026-07-08T10:44:45Z</time>
      </trkpt>
      <trkpt lat="43.01965" lon="0.32152">
        <ele>560.4</ele>
        <time>2026-07-08T10:44:46Z</time>
      </trkpt>
      <trkpt lat="43.01966" lon="0.32152">
        <ele>560.4</ele>
        <time>2026-07-08T10:44:47Z</time>
      </trkpt>
      <trkpt lat="43.01967" lon="0.32155">
        <ele>560.4</ele>
        <time>2026-07-08T10:44:48Z</time>
      </trkpt>
      <trkpt lat="43.01967" lon="0.32155">
        <ele>560.4</ele>
        <time>2026-07-08T10:44:49Z</time>
      </trkpt>
      <trkpt lat="43.01968" lon="0.32156">
        <ele>560.4</ele>
        <time>2026-07-08T10:44:49Z</time>
      </trkpt>
      <trkpt lat="43.01969" lon="0.32156">
        <ele>561.4</ele>
        <time>2026-07-08T10:44:50Z</time>
      </trkpt>
      <trkpt lat="43.01969" lon="0.32156">
        <ele>560.4</ele>
        <time>2026-07-08T10:44:50Z</time>
      </trkpt>
      <trkpt lat="43.0197" lon="0.32156">
        <ele>560.4</ele>
        <time>2026-07-08T10:44:51Z</time>
      </trkpt>
      <trkpt lat="43.01971" lon="0.32156">
        <ele>560.4</ele>
        <time>2026-07-08T10:44:51Z</time>
      </trkpt>
      <trkpt lat="43.01971" lon="0.32156">
        <ele>560.4</ele>
        <time>2026-07-08T10:44:52Z</time>
      </trkpt>
      <trkpt lat="43.01972" lon="0.32156">
        <ele>560.4</ele>
        <time>2026-07-08T10:44:52Z</time>
      </trkpt>
      <trkpt lat="43.01973" lon="0.32156">
        <ele>560.4</ele>
        <time>2026-07-08T10:44:53Z</time>
      </trkpt>
      <trkpt lat="43.01973" lon="0.32157">
        <ele>560.4</ele>
        <time>2026-07-08T10:44:53Z</time>
      </trkpt>
      <trkpt lat="43.01974" lon="0.32157">
        <ele>560.4</ele>
        <time>2026-07-08T10:44:54Z</time>
      </trkpt>
      <trkpt lat="43.01975" lon="0.32157">
        <ele>561.4</ele>
        <time>2026-07-08T10:44:54Z</time>
      </trkpt>
      <trkpt lat="43.01976" lon="0.32157">
        <ele>561.4</ele>
        <time>2026-07-08T10:44:55Z</time>
      </trkpt>
      <trkpt lat="43.01976" lon="0.32157">
        <ele>561.4</ele>
        <time>2026-07-08T10:44:55Z</time>
      </trkpt>
      <trkpt lat="43.01977" lon="0.32157">
        <ele>561.4</ele>
        <time>2026-07-08T10:44:56Z</time>
      </trkpt>
      <trkpt lat="43.01978" lon="0.32157">
        <ele>560.4</ele>
        <time>2026-07-08T10:44:56Z</time>
      </trkpt>
      <trkpt lat="43.01978" lon="0.32157">
        <ele>560.4</ele>
        <time>2026-07-08T10:44:57Z</time>
      </trkpt>
      <trkpt lat="43.01979" lon="0.32157">
        <ele>562.4</ele>
        <time>2026-07-08T10:44:57Z</time>
      </trkpt>
      <trkpt lat="43.0198" lon="0.32157">
        <ele>562.4</ele>
        <time>2026-07-08T10:44:58Z</time>
      </trkpt>
      <trkpt lat="43.01981" lon="0.32157">
        <ele>562.4</ele>
        <time>2026-07-08T10:44:58Z</time>
      </trkpt>
      <trkpt lat="43.01981" lon="0.32157">
        <ele>562.4</ele>
        <time>2026-07-08T10:44:59Z</time>
      </trkpt>
      <trkpt lat="43.01982" lon="0.32157">
        <ele>562.4</ele>
        <time>2026-07-08T10:44:59Z</time>
      </trkpt>
      <trkpt lat="43.01983" lon="0.32158">
        <ele>562.4</ele>
        <time>2026-07-08T10:45:00Z</time>
      </trkpt>
      <trkpt lat="43.01983" lon="0.32158">
        <ele>562.4</ele>
        <time>2026-07-08T10:45:00Z</time>
      </trkpt>
      <trkpt lat="43.01984" lon="0.32158">
        <ele>562.4</ele>
        <time>2026-07-08T10:45:01Z</time>
      </trkpt>
      <trkpt lat="43.01985" lon="0.32158">
        <ele>562.4</ele>
        <time>2026-07-08T10:45:01Z</time>
      </trkpt>
      <trkpt lat="43.01986" lon="0.32158">
        <ele>562.4</ele>
        <time>2026-07-08T10:45:02Z</time>
      </trkpt>
      <trkpt lat="43.01986" lon="0.32158">
        <ele>562.4</ele>
        <time>2026-07-08T10:45:02Z</time>
      </trkpt>
      <trkpt lat="43.01987" lon="0.32158">
        <ele>562.4</ele>
        <time>2026-07-08T10:45:03Z</time>
      </trkpt>
      <trkpt lat="43.01987" lon="0.32158">
        <ele>562.4</ele>
        <time>2026-07-08T10:45:04Z</time>
      </trkpt>
      <trkpt lat="43.01987" lon="0.32158">
        <ele>561.4</ele>
        <time>2026-07-08T10:45:04Z</time>
      </trkpt>
      <trkpt lat="43.01988" lon="0.32158">
        <ele>561.4</ele>
        <time>2026-07-08T10:45:05Z</time>
      </trkpt>
      <trkpt lat="43.01989" lon="0.32158">
        <ele>562.4</ele>
        <time>2026-07-08T10:45:05Z</time>
      </trkpt>
      <trkpt lat="43.01989" lon="0.32158">
        <ele>562.4</ele>
        <time>2026-07-08T10:45:06Z</time>
      </trkpt>
      <trkpt lat="43.0199" lon="0.32159">
        <ele>562.4</ele>
        <time>2026-07-08T10:45:06Z</time>
      </trkpt>
      <trkpt lat="43.0199" lon="0.32159">
        <ele>562.4</ele>
        <time>2026-07-08T10:45:07Z</time>
      </trkpt>
      <trkpt lat="43.01991" lon="0.32159">
        <ele>561.4</ele>
        <time>2026-07-08T10:45:07Z</time>
      </trkpt>
      <trkpt lat="43.01991" lon="0.32159">
        <ele>561.4</ele>
        <time>2026-07-08T10:45:08Z</time>
      </trkpt>
      <trkpt lat="43.01992" lon="0.3216">
        <ele>561.4</ele>
        <time>2026-07-08T10:45:08Z</time>
      </trkpt>
      <trkpt lat="43.01992" lon="0.3216">
        <ele>561.4</ele>
        <time>2026-07-08T10:45:09Z</time>
      </trkpt>
      <trkpt lat="43.01993" lon="0.3216">
        <ele>561.4</ele>
        <time>2026-07-08T10:45:09Z</time>
      </trkpt>
      <trkpt lat="43.01994" lon="0.3216">
        <ele>561.4</ele>
        <time>2026-07-08T10:45:10Z</time>
      </trkpt>
      <trkpt lat="43.01994" lon="0.3216">
        <ele>560.4</ele>
        <time>2026-07-08T10:45:10Z</time>
      </trkpt>
      <trkpt lat="43.01995" lon="0.32161">
        <ele>560.4</ele>
        <time>2026-07-08T10:45:11Z</time>
      </trkpt>
      <trkpt lat="43.01995" lon="0.32161">
        <ele>560.4</ele>
        <time>2026-07-08T10:45:11Z</time>
      </trkpt>
      <trkpt lat="43.01996" lon="0.32161">
        <ele>560.4</ele>
        <time>2026-07-08T10:45:12Z</time>
      </trkpt>
      <trkpt lat="43.01996" lon="0.32161">
        <ele>559.4</ele>
        <time>2026-07-08T10:45:12Z</time>
      </trkpt>
      <trkpt lat="43.01997" lon="0.32161">
        <ele>559.4</ele>
        <time>2026-07-08T10:45:13Z</time>
      </trkpt>
      <trkpt lat="43.01997" lon="0.32161">
        <ele>559.4</ele>
        <time>2026-07-08T10:45:13Z</time>
      </trkpt>
      <trkpt lat="43.01998" lon="0.32161">
        <ele>559.4</ele>
        <time>2026-07-08T10:45:14Z</time>
      </trkpt>
      <trkpt lat="43.01998" lon="0.32161">
        <ele>558.4</ele>
        <time>2026-07-08T10:45:14Z</time>
      </trkpt>
      <trkpt lat="43.01999" lon="0.32161">
        <ele>558.4</ele>
        <time>2026-07-08T10:45:15Z</time>
      </trkpt>
      <trkpt lat="43.01999" lon="0.32161">
        <ele>559.4</ele>
        <time>2026-07-08T10:45:15Z</time>
      </trkpt>
      <trkpt lat="43.02" lon="0.32161">
        <ele>559.4</ele>
        <time>2026-07-08T10:45:16Z</time>
      </trkpt>
      <trkpt lat="43.02001" lon="0.32161">
        <ele>560.4</ele>
        <time>2026-07-08T10:45:16Z</time>
      </trkpt>
      <trkpt lat="43.02001" lon="0.32161">
        <ele>560.4</ele>
        <time>2026-07-08T10:45:17Z</time>
      </trkpt>
      <trkpt lat="43.02002" lon="0.32161">
        <ele>560.4</ele>
        <time>2026-07-08T10:45:17Z</time>
      </trkpt>
      <trkpt lat="43.02002" lon="0.32161">
        <ele>560.4</ele>
        <time>2026-07-08T10:45:18Z</time>
      </trkpt>
      <trkpt lat="43.02003" lon="0.32161">
        <ele>560.4</ele>
        <time>2026-07-08T10:45:18Z</time>
      </trkpt>
      <trkpt lat="43.02004" lon="0.32161">
        <ele>560.4</ele>
        <time>2026-07-08T10:45:19Z</time>
      </trkpt>
      <trkpt lat="43.02004" lon="0.32161">
        <ele>559.4</ele>
        <time>2026-07-08T10:45:19Z</time>
      </trkpt>
      <trkpt lat="43.02005" lon="0.32161">
        <ele>559.4</ele>
        <time>2026-07-08T10:45:20Z</time>
      </trkpt>
      <trkpt lat="43.02005" lon="0.32161">
        <ele>559.4</ele>
        <time>2026-07-08T10:45:20Z</time>
      </trkpt>
      <trkpt lat="43.02006" lon="0.32162">
        <ele>559.4</ele>
        <time>2026-07-08T10:45:21Z</time>
      </trkpt>
      <trkpt lat="43.02006" lon="0.32162">
        <ele>559.4</ele>
        <time>2026-07-08T10:45:21Z</time>
      </trkpt>
      <trkpt lat="43.02007" lon="0.32162">
        <ele>559.4</ele>
        <time>2026-07-08T10:45:22Z</time>
      </trkpt>
      <trkpt lat="43.02008" lon="0.32162">
        <ele>559.4</ele>
        <time>2026-07-08T10:45:22Z</time>
      </trkpt>
      <trkpt lat="43.02008" lon="0.32163">
        <ele>559.4</ele>
        <time>2026-07-08T10:45:23Z</time>
      </trkpt>
      <trkpt lat="43.02009" lon="0.32163">
        <ele>559.4</ele>
        <time>2026-07-08T10:45:23Z</time>
      </trkpt>
      <trkpt lat="43.0201" lon="0.32163">
        <ele>559.4</ele>
        <time>2026-07-08T10:45:24Z</time>
      </trkpt>
      <trkpt lat="43.0201" lon="0.32163">
        <ele>559.4</ele>
        <time>2026-07-08T10:45:24Z</time>
      </trkpt>
      <trkpt lat="43.02011" lon="0.32163">
        <ele>559.4</ele>
        <time>2026-07-08T10:45:25Z</time>
      </trkpt>
      <trkpt lat="43.02012" lon="0.32163">
        <ele>559.4</ele>
        <time>2026-07-08T10:45:25Z</time>
      </trkpt>
      <trkpt lat="43.02012" lon="0.32164">
        <ele>559.4</ele>
        <time>2026-07-08T10:45:26Z</time>
      </trkpt>
      <trkpt lat="43.02013" lon="0.32163">
        <ele>558.4</ele>
        <time>2026-07-08T10:45:26Z</time>
      </trkpt>
      <trkpt lat="43.02014" lon="0.32164">
        <ele>558.4</ele>
        <time>2026-07-08T10:45:27Z</time>
      </trkpt>
      <trkpt lat="43.02015" lon="0.32164">
        <ele>558.4</ele>
        <time>2026-07-08T10:45:28Z</time>
      </trkpt>
      <trkpt lat="43.02016" lon="0.32164">
        <ele>558.4</ele>
        <time>2026-07-08T10:45:29Z</time>
      </trkpt>
      <trkpt lat="43.02016" lon="0.32164">
        <ele>558.4</ele>
        <time>2026-07-08T10:45:29Z</time>
      </trkpt>
      <trkpt lat="43.02017" lon="0.32164">
        <ele>557.4</ele>
        <time>2026-07-08T10:45:30Z</time>
      </trkpt>
      <trkpt lat="43.02018" lon="0.32164">
        <ele>557.4</ele>
        <time>2026-07-08T10:45:30Z</time>
      </trkpt>
      <trkpt lat="43.02019" lon="0.32164">
        <ele>557.4</ele>
        <time>2026-07-08T10:45:31Z</time>
      </trkpt>
      <trkpt lat="43.02019" lon="0.32164">
        <ele>557.4</ele>
        <time>2026-07-08T10:45:31Z</time>
      </trkpt>
      <trkpt lat="43.0202" lon="0.32164">
        <ele>557.4</ele>
        <time>2026-07-08T10:45:32Z</time>
      </trkpt>
      <trkpt lat="43.02021" lon="0.32164">
        <ele>556.4</ele>
        <time>2026-07-08T10:45:32Z</time>
      </trkpt>
      <trkpt lat="43.02021" lon="0.32164">
        <ele>556.4</ele>
        <time>2026-07-08T10:45:33Z</time>
      </trkpt>
      <trkpt lat="43.02022" lon="0.32164">
        <ele>557.4</ele>
        <time>2026-07-08T10:45:33Z</time>
      </trkpt>
      <trkpt lat="43.02023" lon="0.32164">
        <ele>557.4</ele>
        <time>2026-07-08T10:45:34Z</time>
      </trkpt>
      <trkpt lat="43.02024" lon="0.32164">
        <ele>557.4</ele>
        <time>2026-07-08T10:45:34Z</time>
      </trkpt>
      <trkpt lat="43.02024" lon="0.32164">
        <ele>557.4</ele>
        <time>2026-07-08T10:45:35Z</time>
      </trkpt>
      <trkpt lat="43.02025" lon="0.32164">
        <ele>557.4</ele>
        <time>2026-07-08T10:45:35Z</time>
      </trkpt>
      <trkpt lat="43.02026" lon="0.32164">
        <ele>557.4</ele>
        <time>2026-07-08T10:45:36Z</time>
      </trkpt>
      <trkpt lat="43.02026" lon="0.32163">
        <ele>556.4</ele>
        <time>2026-07-08T10:45:36Z</time>
      </trkpt>
      <trkpt lat="43.02027" lon="0.32163">
        <ele>556.4</ele>
        <time>2026-07-08T10:45:37Z</time>
      </trkpt>
      <trkpt lat="43.02027" lon="0.32163">
        <ele>556.4</ele>
        <time>2026-07-08T10:45:37Z</time>
      </trkpt>
      <trkpt lat="43.02028" lon="0.32163">
        <ele>556.4</ele>
        <time>2026-07-08T10:45:38Z</time>
      </trkpt>
      <trkpt lat="43.02029" lon="0.32163">
        <ele>556.4</ele>
        <time>2026-07-08T10:45:38Z</time>
      </trkpt>
      <trkpt lat="43.02029" lon="0.32163">
        <ele>556.4</ele>
        <time>2026-07-08T10:45:39Z</time>
      </trkpt>
      <trkpt lat="43.0203" lon="0.32163">
        <ele>556.4</ele>
        <time>2026-07-08T10:45:39Z</time>
      </trkpt>
      <trkpt lat="43.02031" lon="0.32163">
        <ele>556.4</ele>
        <time>2026-07-08T10:45:40Z</time>
      </trkpt>
      <trkpt lat="43.02031" lon="0.32163">
        <ele>557.4</ele>
        <time>2026-07-08T10:45:40Z</time>
      </trkpt>
      <trkpt lat="43.02032" lon="0.32163">
        <ele>557.4</ele>
        <time>2026-07-08T10:45:41Z</time>
      </trkpt>
      <trkpt lat="43.02033" lon="0.32163">
        <ele>557.4</ele>
        <time>2026-07-08T10:45:41Z</time>
      </trkpt>
      <trkpt lat="43.02033" lon="0.32163">
        <ele>557.4</ele>
        <time>2026-07-08T10:45:42Z</time>
      </trkpt>
      <trkpt lat="43.02034" lon="0.32164">
        <ele>556.4</ele>
        <time>2026-07-08T10:45:42Z</time>
      </trkpt>
      <trkpt lat="43.02034" lon="0.32164">
        <ele>556.4</ele>
        <time>2026-07-08T10:45:43Z</time>
      </trkpt>
      <trkpt lat="43.02035" lon="0.32164">
        <ele>556.4</ele>
        <time>2026-07-08T10:45:43Z</time>
      </trkpt>
      <trkpt lat="43.02036" lon="0.32164">
        <ele>556.4</ele>
        <time>2026-07-08T10:45:44Z</time>
      </trkpt>
      <trkpt lat="43.02036" lon="0.32164">
        <ele>555.4</ele>
        <time>2026-07-08T10:45:44Z</time>
      </trkpt>
      <trkpt lat="43.02037" lon="0.32164">
        <ele>555.4</ele>
        <time>2026-07-08T10:45:45Z</time>
      </trkpt>
      <trkpt lat="43.02038" lon="0.32164">
        <ele>556.4</ele>
        <time>2026-07-08T10:45:45Z</time>
      </trkpt>
      <trkpt lat="43.02039" lon="0.32164">
        <ele>556.4</ele>
        <time>2026-07-08T10:45:46Z</time>
      </trkpt>
      <trkpt lat="43.0204" lon="0.32165">
        <ele>555.4</ele>
        <time>2026-07-08T10:45:47Z</time>
      </trkpt>
      <trkpt lat="43.02041" lon="0.32165">
        <ele>555.4</ele>
        <time>2026-07-08T10:45:48Z</time>
      </trkpt>
      <trkpt lat="43.02042" lon="0.32165">
        <ele>555.4</ele>
        <time>2026-07-08T10:45:48Z</time>
      </trkpt>
      <trkpt lat="43.02043" lon="0.32165">
        <ele>555.4</ele>
        <time>2026-07-08T10:45:48Z</time>
      </trkpt>
      <trkpt lat="43.02043" lon="0.32165">
        <ele>555.4</ele>
        <time>2026-07-08T10:45:49Z</time>
      </trkpt>
      <trkpt lat="43.02044" lon="0.32166">
        <ele>555.4</ele>
        <time>2026-07-08T10:45:49Z</time>
      </trkpt>
      <trkpt lat="43.02045" lon="0.32166">
        <ele>555.4</ele>
        <time>2026-07-08T10:45:50Z</time>
      </trkpt>
      <trkpt lat="43.02046" lon="0.32166">
        <ele>556.4</ele>
        <time>2026-07-08T10:45:50Z</time>
      </trkpt>
      <trkpt lat="43.02046" lon="0.32166">
        <ele>556.4</ele>
        <time>2026-07-08T10:45:51Z</time>
      </trkpt>
      <trkpt lat="43.02047" lon="0.32166">
        <ele>557.4</ele>
        <time>2026-07-08T10:45:51Z</time>
      </trkpt>
      <trkpt lat="43.02048" lon="0.32166">
        <ele>557.4</ele>
        <time>2026-07-08T10:45:52Z</time>
      </trkpt>
      <trkpt lat="43.02049" lon="0.32166">
        <ele>556.4</ele>
        <time>2026-07-08T10:45:52Z</time>
      </trkpt>
      <trkpt lat="43.02049" lon="0.32166">
        <ele>556.4</ele>
        <time>2026-07-08T10:45:53Z</time>
      </trkpt>
      <trkpt lat="43.0205" lon="0.32165">
        <ele>556.4</ele>
        <time>2026-07-08T10:45:54Z</time>
      </trkpt>
      <trkpt lat="43.02051" lon="0.32165">
        <ele>555.4</ele>
        <time>2026-07-08T10:45:54Z</time>
      </trkpt>
      <trkpt lat="43.02052" lon="0.32165">
        <ele>555.4</ele>
        <time>2026-07-08T10:45:55Z</time>
      </trkpt>
      <trkpt lat="43.02053" lon="0.32165">
        <ele>555.4</ele>
        <time>2026-07-08T10:45:56Z</time>
      </trkpt>
      <trkpt lat="43.02054" lon="0.32165">
        <ele>555.4</ele>
        <time>2026-07-08T10:45:56Z</time>
      </trkpt>
      <trkpt lat="43.02055" lon="0.32164">
        <ele>555.4</ele>
        <time>2026-07-08T10:45:56Z</time>
      </trkpt>
      <trkpt lat="43.02055" lon="0.32164">
        <ele>555.4</ele>
        <time>2026-07-08T10:45:57Z</time>
      </trkpt>
      <trkpt lat="43.02056" lon="0.32164">
        <ele>555.4</ele>
        <time>2026-07-08T10:45:57Z</time>
      </trkpt>
      <trkpt lat="43.02057" lon="0.32164">
        <ele>555.4</ele>
        <time>2026-07-08T10:45:58Z</time>
      </trkpt>
      <trkpt lat="43.02058" lon="0.32163">
        <ele>555.4</ele>
        <time>2026-07-08T10:45:59Z</time>
      </trkpt>
      <trkpt lat="43.0206" lon="0.32163">
        <ele>556.4</ele>
        <time>2026-07-08T10:46:00Z</time>
      </trkpt>
      <trkpt lat="43.02061" lon="0.32163">
        <ele>556.4</ele>
        <time>2026-07-08T10:46:00Z</time>
      </trkpt>
      <trkpt lat="43.02061" lon="0.32163">
        <ele>556.4</ele>
        <time>2026-07-08T10:46:01Z</time>
      </trkpt>
      <trkpt lat="43.02062" lon="0.32163">
        <ele>556.4</ele>
        <time>2026-07-08T10:46:01Z</time>
      </trkpt>
      <trkpt lat="43.02063" lon="0.32163">
        <ele>556.4</ele>
        <time>2026-07-08T10:46:02Z</time>
      </trkpt>
      <trkpt lat="43.02063" lon="0.32162">
        <ele>555.4</ele>
        <time>2026-07-08T10:46:02Z</time>
      </trkpt>
      <trkpt lat="43.02064" lon="0.32162">
        <ele>555.4</ele>
        <time>2026-07-08T10:46:03Z</time>
      </trkpt>
      <trkpt lat="43.02065" lon="0.32162">
        <ele>555.4</ele>
        <time>2026-07-08T10:46:03Z</time>
      </trkpt>
      <trkpt lat="43.02065" lon="0.32162">
        <ele>555.4</ele>
        <time>2026-07-08T10:46:04Z</time>
      </trkpt>
      <trkpt lat="43.02066" lon="0.32162">
        <ele>555.4</ele>
        <time>2026-07-08T10:46:04Z</time>
      </trkpt>
      <trkpt lat="43.02067" lon="0.32161">
        <ele>555.4</ele>
        <time>2026-07-08T10:46:05Z</time>
      </trkpt>
      <trkpt lat="43.02069" lon="0.32161">
        <ele>555.4</ele>
        <time>2026-07-08T10:46:06Z</time>
      </trkpt>
      <trkpt lat="43.0207" lon="0.32161">
        <ele>554.4</ele>
        <time>2026-07-08T10:46:07Z</time>
      </trkpt>
      <trkpt lat="43.02072" lon="0.32161">
        <ele>554.4</ele>
        <time>2026-07-08T10:46:08Z</time>
      </trkpt>
      <trkpt lat="43.02073" lon="0.32161">
        <ele>554.4</ele>
        <time>2026-07-08T10:46:09Z</time>
      </trkpt>
      <trkpt lat="43.02073" lon="0.32161">
        <ele>553.4</ele>
        <time>2026-07-08T10:46:09Z</time>
      </trkpt>
      <trkpt lat="43.02074" lon="0.32161">
        <ele>553.4</ele>
        <time>2026-07-08T10:46:09Z</time>
      </trkpt>
      <trkpt lat="43.02075" lon="0.32161">
        <ele>553.4</ele>
        <time>2026-07-08T10:46:10Z</time>
      </trkpt>
      <trkpt lat="43.02076" lon="0.32161">
        <ele>552.4</ele>
        <time>2026-07-08T10:46:10Z</time>
      </trkpt>
      <trkpt lat="43.02076" lon="0.32161">
        <ele>552.4</ele>
        <time>2026-07-08T10:46:11Z</time>
      </trkpt>
      <trkpt lat="43.02077" lon="0.32161">
        <ele>552.4</ele>
        <time>2026-07-08T10:46:11Z</time>
      </trkpt>
      <trkpt lat="43.02078" lon="0.32161">
        <ele>552.4</ele>
        <time>2026-07-08T10:46:12Z</time>
      </trkpt>
      <trkpt lat="43.02078" lon="0.32161">
        <ele>552.4</ele>
        <time>2026-07-08T10:46:12Z</time>
      </trkpt>
      <trkpt lat="43.02079" lon="0.3216">
        <ele>552.4</ele>
        <time>2026-07-08T10:46:13Z</time>
      </trkpt>
      <trkpt lat="43.0208" lon="0.3216">
        <ele>551.4</ele>
        <time>2026-07-08T10:46:13Z</time>
      </trkpt>
      <trkpt lat="43.02081" lon="0.3216">
        <ele>551.4</ele>
        <time>2026-07-08T10:46:14Z</time>
      </trkpt>
      <trkpt lat="43.02082" lon="0.3216">
        <ele>551.4</ele>
        <time>2026-07-08T10:46:15Z</time>
      </trkpt>
      <trkpt lat="43.02083" lon="0.3216">
        <ele>551.4</ele>
        <time>2026-07-08T10:46:15Z</time>
      </trkpt>
      <trkpt lat="43.02083" lon="0.3216">
        <ele>551.4</ele>
        <time>2026-07-08T10:46:16Z</time>
      </trkpt>
      <trkpt lat="43.02084" lon="0.32159">
        <ele>551.4</ele>
        <time>2026-07-08T10:46:16Z</time>
      </trkpt>
      <trkpt lat="43.02085" lon="0.32159">
        <ele>551.4</ele>
        <time>2026-07-08T10:46:17Z</time>
      </trkpt>
      <trkpt lat="43.02085" lon="0.32159">
        <ele>550.4</ele>
        <time>2026-07-08T10:46:17Z</time>
      </trkpt>
      <trkpt lat="43.02086" lon="0.32159">
        <ele>550.4</ele>
        <time>2026-07-08T10:46:18Z</time>
      </trkpt>
      <trkpt lat="43.02086" lon="0.32159">
        <ele>549.4</ele>
        <time>2026-07-08T10:46:18Z</time>
      </trkpt>
      <trkpt lat="43.02087" lon="0.32158">
        <ele>549.4</ele>
        <time>2026-07-08T10:46:19Z</time>
      </trkpt>
      <trkpt lat="43.02088" lon="0.32158">
        <ele>549.4</ele>
        <time>2026-07-08T10:46:20Z</time>
      </trkpt>
      <trkpt lat="43.02089" lon="0.32158">
        <ele>550.4</ele>
        <time>2026-07-08T10:46:20Z</time>
      </trkpt>
      <trkpt lat="43.02089" lon="0.32157">
        <ele>550.4</ele>
        <time>2026-07-08T10:46:21Z</time>
      </trkpt>
      <trkpt lat="43.0209" lon="0.32157">
        <ele>549.4</ele>
        <time>2026-07-08T10:46:21Z</time>
      </trkpt>
      <trkpt lat="43.0209" lon="0.32157">
        <ele>549.4</ele>
        <time>2026-07-08T10:46:22Z</time>
      </trkpt>
      <trkpt lat="43.02091" lon="0.32156">
        <ele>549.4</ele>
        <time>2026-07-08T10:46:22Z</time>
      </trkpt>
      <trkpt lat="43.02092" lon="0.32156">
        <ele>549.4</ele>
        <time>2026-07-08T10:46:23Z</time>
      </trkpt>
      <trkpt lat="43.02092" lon="0.32156">
        <ele>549.4</ele>
        <time>2026-07-08T10:46:23Z</time>
      </trkpt>
      <trkpt lat="43.02093" lon="0.32155">
        <ele>549.4</ele>
        <time>2026-07-08T10:46:24Z</time>
      </trkpt>
      <trkpt lat="43.02093" lon="0.32155">
        <ele>550.4</ele>
        <time>2026-07-08T10:46:24Z</time>
      </trkpt>
      <trkpt lat="43.02094" lon="0.32154">
        <ele>550.4</ele>
        <time>2026-07-08T10:46:25Z</time>
      </trkpt>
      <trkpt lat="43.02095" lon="0.32153">
        <ele>550.4</ele>
        <time>2026-07-08T10:46:26Z</time>
      </trkpt>
      <trkpt lat="43.02095" lon="0.32153">
        <ele>550.4</ele>
        <time>2026-07-08T10:46:26Z</time>
      </trkpt>
      <trkpt lat="43.02096" lon="0.32153">
        <ele>550.4</ele>
        <time>2026-07-08T10:46:27Z</time>
      </trkpt>
      <trkpt lat="43.02096" lon="0.32152">
        <ele>549.4</ele>
        <time>2026-07-08T10:46:27Z</time>
      </trkpt>
      <trkpt lat="43.02097" lon="0.32152">
        <ele>549.4</ele>
        <time>2026-07-08T10:46:28Z</time>
      </trkpt>
      <trkpt lat="43.02098" lon="0.32152">
        <ele>549.4</ele>
        <time>2026-07-08T10:46:28Z</time>
      </trkpt>
      <trkpt lat="43.02098" lon="0.32151">
        <ele>549.4</ele>
        <time>2026-07-08T10:46:29Z</time>
      </trkpt>
      <trkpt lat="43.02099" lon="0.32151">
        <ele>548.4</ele>
        <time>2026-07-08T10:46:29Z</time>
      </trkpt>
      <trkpt lat="43.02099" lon="0.32151">
        <ele>548.4</ele>
        <time>2026-07-08T10:46:30Z</time>
      </trkpt>
      <trkpt lat="43.021" lon="0.3215">
        <ele>548.4</ele>
        <time>2026-07-08T10:46:30Z</time>
      </trkpt>
      <trkpt lat="43.021" lon="0.3215">
        <ele>548.4</ele>
        <time>2026-07-08T10:46:31Z</time>
      </trkpt>
      <trkpt lat="43.02101" lon="0.3215">
        <ele>548.4</ele>
        <time>2026-07-08T10:46:31Z</time>
      </trkpt>
      <trkpt lat="43.02102" lon="0.32149">
        <ele>548.4</ele>
        <time>2026-07-08T10:46:32Z</time>
      </trkpt>
      <trkpt lat="43.02102" lon="0.32149">
        <ele>548.4</ele>
        <time>2026-07-08T10:46:32Z</time>
      </trkpt>
      <trkpt lat="43.02103" lon="0.32149">
        <ele>548.4</ele>
        <time>2026-07-08T10:46:33Z</time>
      </trkpt>
      <trkpt lat="43.02103" lon="0.32148">
        <ele>548.4</ele>
        <time>2026-07-08T10:46:33Z</time>
      </trkpt>
      <trkpt lat="43.02104" lon="0.32148">
        <ele>548.4</ele>
        <time>2026-07-08T10:46:34Z</time>
      </trkpt>
      <trkpt lat="43.02104" lon="0.32147">
        <ele>547.4</ele>
        <time>2026-07-08T10:46:34Z</time>
      </trkpt>
      <trkpt lat="43.02105" lon="0.32147">
        <ele>547.4</ele>
        <time>2026-07-08T10:46:35Z</time>
      </trkpt>
      <trkpt lat="43.02106" lon="0.32146">
        <ele>547.4</ele>
        <time>2026-07-08T10:46:35Z</time>
      </trkpt>
      <trkpt lat="43.02107" lon="0.32145">
        <ele>548.4</ele>
        <time>2026-07-08T10:46:36Z</time>
      </trkpt>
      <trkpt lat="43.02108" lon="0.32145">
        <ele>548.4</ele>
        <time>2026-07-08T10:46:37Z</time>
      </trkpt>
      <trkpt lat="43.02108" lon="0.32144">
        <ele>549.4</ele>
        <time>2026-07-08T10:46:37Z</time>
      </trkpt>
      <trkpt lat="43.02109" lon="0.32144">
        <ele>549.4</ele>
        <time>2026-07-08T10:46:38Z</time>
      </trkpt>
      <trkpt lat="43.0211" lon="0.32144">
        <ele>548.4</ele>
        <time>2026-07-08T10:46:38Z</time>
      </trkpt>
      <trkpt lat="43.02111" lon="0.32143">
        <ele>548.4</ele>
        <time>2026-07-08T10:46:39Z</time>
      </trkpt>
      <trkpt lat="43.02111" lon="0.32143">
        <ele>548.4</ele>
        <time>2026-07-08T10:46:39Z</time>
      </trkpt>
      <trkpt lat="43.02112" lon="0.32143">
        <ele>548.4</ele>
        <time>2026-07-08T10:46:40Z</time>
      </trkpt>
      <trkpt lat="43.02113" lon="0.32142">
        <ele>548.4</ele>
        <time>2026-07-08T10:46:40Z</time>
      </trkpt>
      <trkpt lat="43.02114" lon="0.32142">
        <ele>547.4</ele>
        <time>2026-07-08T10:46:41Z</time>
      </trkpt>
      <trkpt lat="43.02115" lon="0.32141">
        <ele>547.4</ele>
        <time>2026-07-08T10:46:42Z</time>
      </trkpt>
      <trkpt lat="43.02116" lon="0.32141">
        <ele>547.4</ele>
        <time>2026-07-08T10:46:42Z</time>
      </trkpt>
      <trkpt lat="43.02116" lon="0.32141">
        <ele>547.4</ele>
        <time>2026-07-08T10:46:43Z</time>
      </trkpt>
      <trkpt lat="43.02117" lon="0.32141">
        <ele>547.4</ele>
        <time>2026-07-08T10:46:43Z</time>
      </trkpt>
      <trkpt lat="43.02118" lon="0.3214">
        <ele>547.4</ele>
        <time>2026-07-08T10:46:44Z</time>
      </trkpt>
      <trkpt lat="43.02118" lon="0.3214">
        <ele>547.4</ele>
        <time>2026-07-08T10:46:44Z</time>
      </trkpt>
      <trkpt lat="43.02119" lon="0.3214">
        <ele>547.4</ele>
        <time>2026-07-08T10:46:45Z</time>
      </trkpt>
      <trkpt lat="43.0212" lon="0.32139">
        <ele>547.4</ele>
        <time>2026-07-08T10:46:45Z</time>
      </trkpt>
      <trkpt lat="43.0212" lon="0.32139">
        <ele>547.4</ele>
        <time>2026-07-08T10:46:46Z</time>
      </trkpt>
      <trkpt lat="43.02121" lon="0.32139">
        <ele>547.4</ele>
        <time>2026-07-08T10:46:46Z</time>
      </trkpt>
      <trkpt lat="43.02122" lon="0.32139">
        <ele>547.4</ele>
        <time>2026-07-08T10:46:46Z</time>
      </trkpt>
      <trkpt lat="43.02123" lon="0.32139">
        <ele>547.4</ele>
        <time>2026-07-08T10:46:47Z</time>
      </trkpt>
      <trkpt lat="43.02124" lon="0.32138">
        <ele>547.4</ele>
        <time>2026-07-08T10:46:47Z</time>
      </trkpt>
      <trkpt lat="43.02124" lon="0.32138">
        <ele>547.4</ele>
        <time>2026-07-08T10:46:48Z</time>
      </trkpt>
      <trkpt lat="43.02126" lon="0.32138">
        <ele>547.4</ele>
        <time>2026-07-08T10:46:49Z</time>
      </trkpt>
      <trkpt lat="43.02127" lon="0.32137">
        <ele>548.4</ele>
        <time>2026-07-08T10:46:50Z</time>
      </trkpt>
      <trkpt lat="43.02128" lon="0.32137">
        <ele>548.4</ele>
        <time>2026-07-08T10:46:50Z</time>
      </trkpt>
      <trkpt lat="43.02129" lon="0.32136">
        <ele>548.4</ele>
        <time>2026-07-08T10:46:51Z</time>
      </trkpt>
      <trkpt lat="43.0213" lon="0.32136">
        <ele>547.4</ele>
        <time>2026-07-08T10:46:52Z</time>
      </trkpt>
      <trkpt lat="43.02131" lon="0.32136">
        <ele>547.4</ele>
        <time>2026-07-08T10:46:52Z</time>
      </trkpt>
      <trkpt lat="43.02132" lon="0.32136">
        <ele>547.4</ele>
        <time>2026-07-08T10:46:53Z</time>
      </trkpt>
      <trkpt lat="43.02133" lon="0.32136">
        <ele>547.4</ele>
        <time>2026-07-08T10:46:53Z</time>
      </trkpt>
      <trkpt lat="43.02134" lon="0.32135">
        <ele>546.4</ele>
        <time>2026-07-08T10:46:54Z</time>
      </trkpt>
      <trkpt lat="43.02135" lon="0.32135">
        <ele>546.4</ele>
        <time>2026-07-08T10:46:55Z</time>
      </trkpt>
      <trkpt lat="43.02136" lon="0.32134">
        <ele>546.4</ele>
        <time>2026-07-08T10:46:55Z</time>
      </trkpt>
      <trkpt lat="43.02136" lon="0.32134">
        <ele>546.4</ele>
        <time>2026-07-08T10:46:56Z</time>
      </trkpt>
      <trkpt lat="43.02137" lon="0.32134">
        <ele>546.4</ele>
        <time>2026-07-08T10:46:56Z</time>
      </trkpt>
      <trkpt lat="43.02138" lon="0.32133">
        <ele>546.4</ele>
        <time>2026-07-08T10:46:57Z</time>
      </trkpt>
      <trkpt lat="43.02139" lon="0.32133">
        <ele>546.4</ele>
        <time>2026-07-08T10:46:58Z</time>
      </trkpt>
      <trkpt lat="43.02139" lon="0.32133">
        <ele>546.4</ele>
        <time>2026-07-08T10:46:58Z</time>
      </trkpt>
      <trkpt lat="43.0214" lon="0.32132">
        <ele>546.4</ele>
        <time>2026-07-08T10:46:59Z</time>
      </trkpt>
      <trkpt lat="43.02141" lon="0.32132">
        <ele>545.4</ele>
        <time>2026-07-08T10:47:00Z</time>
      </trkpt>
      <trkpt lat="43.02142" lon="0.32131">
        <ele>545.4</ele>
        <time>2026-07-08T10:47:00Z</time>
      </trkpt>
      <trkpt lat="43.02142" lon="0.32131">
        <ele>545.4</ele>
        <time>2026-07-08T10:47:01Z</time>
      </trkpt>
      <trkpt lat="43.02143" lon="0.3213">
        <ele>545.4</ele>
        <time>2026-07-08T10:47:01Z</time>
      </trkpt>
      <trkpt lat="43.02144" lon="0.3213">
        <ele>545.4</ele>
        <time>2026-07-08T10:47:01Z</time>
      </trkpt>
      <trkpt lat="43.02144" lon="0.32129">
        <ele>545.4</ele>
        <time>2026-07-08T10:47:02Z</time>
      </trkpt>
      <trkpt lat="43.02145" lon="0.32129">
        <ele>544.4</ele>
        <time>2026-07-08T10:47:03Z</time>
      </trkpt>
      <trkpt lat="43.02146" lon="0.32128">
        <ele>544.4</ele>
        <time>2026-07-08T10:47:03Z</time>
      </trkpt>
      <trkpt lat="43.02146" lon="0.32127">
        <ele>544.4</ele>
        <time>2026-07-08T10:47:04Z</time>
      </trkpt>
      <trkpt lat="43.02147" lon="0.32127">
        <ele>544.4</ele>
        <time>2026-07-08T10:47:04Z</time>
      </trkpt>
      <trkpt lat="43.02147" lon="0.32126">
        <ele>544.4</ele>
        <time>2026-07-08T10:47:05Z</time>
      </trkpt>
      <trkpt lat="43.02148" lon="0.32125">
        <ele>545.4</ele>
        <time>2026-07-08T10:47:05Z</time>
      </trkpt>
      <trkpt lat="43.02149" lon="0.32125">
        <ele>545.4</ele>
        <time>2026-07-08T10:47:06Z</time>
      </trkpt>
      <trkpt lat="43.02149" lon="0.32124">
        <ele>545.4</ele>
        <time>2026-07-08T10:47:06Z</time>
      </trkpt>
      <trkpt lat="43.0215" lon="0.32124">
        <ele>545.4</ele>
        <time>2026-07-08T10:47:07Z</time>
      </trkpt>
      <trkpt lat="43.02151" lon="0.32123">
        <ele>545.4</ele>
        <time>2026-07-08T10:47:08Z</time>
      </trkpt>
      <trkpt lat="43.02152" lon="0.32122">
        <ele>544.4</ele>
        <time>2026-07-08T10:47:09Z</time>
      </trkpt>
      <trkpt lat="43.02153" lon="0.32122">
        <ele>544.4</ele>
        <time>2026-07-08T10:47:09Z</time>
      </trkpt>
      <trkpt lat="43.02153" lon="0.32121">
        <ele>544.4</ele>
        <time>2026-07-08T10:47:10Z</time>
      </trkpt>
      <trkpt lat="43.02154" lon="0.32121">
        <ele>543.4</ele>
        <time>2026-07-08T10:47:11Z</time>
      </trkpt>
      <trkpt lat="43.02155" lon="0.3212">
        <ele>543.4</ele>
        <time>2026-07-08T10:47:11Z</time>
      </trkpt>
      <trkpt lat="43.02156" lon="0.3212">
        <ele>543.4</ele>
        <time>2026-07-08T10:47:12Z</time>
      </trkpt>
      <trkpt lat="43.02156" lon="0.3212">
        <ele>543.4</ele>
        <time>2026-07-08T10:47:12Z</time>
      </trkpt>
      <trkpt lat="43.02157" lon="0.32119">
        <ele>542.4</ele>
        <time>2026-07-08T10:47:13Z</time>
      </trkpt>
      <trkpt lat="43.02158" lon="0.32118">
        <ele>542.4</ele>
        <time>2026-07-08T10:47:14Z</time>
      </trkpt>
      <trkpt lat="43.02159" lon="0.32118">
        <ele>542.4</ele>
        <time>2026-07-08T10:47:14Z</time>
      </trkpt>
      <trkpt lat="43.0216" lon="0.32117">
        <ele>542.4</ele>
        <time>2026-07-08T10:47:15Z</time>
      </trkpt>
      <trkpt lat="43.02161" lon="0.32117">
        <ele>542.4</ele>
        <time>2026-07-08T10:47:15Z</time>
      </trkpt>
      <trkpt lat="43.02161" lon="0.32116">
        <ele>542.4</ele>
        <time>2026-07-08T10:47:16Z</time>
      </trkpt>
      <trkpt lat="43.02162" lon="0.32116">
        <ele>542.4</ele>
        <time>2026-07-08T10:47:16Z</time>
      </trkpt>
      <trkpt lat="43.02162" lon="0.32115">
        <ele>542.4</ele>
        <time>2026-07-08T10:47:17Z</time>
      </trkpt>
      <trkpt lat="43.02164" lon="0.32114">
        <ele>542.4</ele>
        <time>2026-07-08T10:47:18Z</time>
      </trkpt>
      <trkpt lat="43.02164" lon="0.32113">
        <ele>541.4</ele>
        <time>2026-07-08T10:47:19Z</time>
      </trkpt>
      <trkpt lat="43.02165" lon="0.32112">
        <ele>540.4</ele>
        <time>2026-07-08T10:47:20Z</time>
      </trkpt>
      <trkpt lat="43.02165" lon="0.32111">
        <ele>540.4</ele>
        <time>2026-07-08T10:47:20Z</time>
      </trkpt>
      <trkpt lat="43.02166" lon="0.3211">
        <ele>540.4</ele>
        <time>2026-07-08T10:47:21Z</time>
      </trkpt>
      <trkpt lat="43.02166" lon="0.32108">
        <ele>540.4</ele>
        <time>2026-07-08T10:47:21Z</time>
      </trkpt>
      <trkpt lat="43.02167" lon="0.32108">
        <ele>540.4</ele>
        <time>2026-07-08T10:47:22Z</time>
      </trkpt>
      <trkpt lat="43.02167" lon="0.32107">
        <ele>540.4</ele>
        <time>2026-07-08T10:47:22Z</time>
      </trkpt>
      <trkpt lat="43.02167" lon="0.32105">
        <ele>540.4</ele>
        <time>2026-07-08T10:47:23Z</time>
      </trkpt>
      <trkpt lat="43.02168" lon="0.32104">
        <ele>540.4</ele>
        <time>2026-07-08T10:47:24Z</time>
      </trkpt>
      <trkpt lat="43.02168" lon="0.32103">
        <ele>541.4</ele>
        <time>2026-07-08T10:47:24Z</time>
      </trkpt>
      <trkpt lat="43.02169" lon="0.32102">
        <ele>541.4</ele>
        <time>2026-07-08T10:47:25Z</time>
      </trkpt>
      <trkpt lat="43.0217" lon="0.321">
        <ele>541.4</ele>
        <time>2026-07-08T10:47:26Z</time>
      </trkpt>
      <trkpt lat="43.0217" lon="0.321">
        <ele>541.4</ele>
        <time>2026-07-08T10:47:26Z</time>
      </trkpt>
      <trkpt lat="43.0217" lon="0.32098">
        <ele>541.4</ele>
        <time>2026-07-08T10:47:27Z</time>
      </trkpt>
      <trkpt lat="43.02171" lon="0.32097">
        <ele>541.4</ele>
        <time>2026-07-08T10:47:28Z</time>
      </trkpt>
      <trkpt lat="43.02171" lon="0.32096">
        <ele>541.4</ele>
        <time>2026-07-08T10:47:28Z</time>
      </trkpt>
      <trkpt lat="43.02171" lon="0.32095">
        <ele>541.4</ele>
        <time>2026-07-08T10:47:28Z</time>
      </trkpt>
      <trkpt lat="43.02171" lon="0.32095">
        <ele>540.4</ele>
        <time>2026-07-08T10:47:29Z</time>
      </trkpt>
      <trkpt lat="43.02171" lon="0.32093">
        <ele>540.4</ele>
        <time>2026-07-08T10:47:30Z</time>
      </trkpt>
      <trkpt lat="43.02172" lon="0.32092">
        <ele>540.4</ele>
        <time>2026-07-08T10:47:30Z</time>
      </trkpt>
      <trkpt lat="43.02172" lon="0.32091">
        <ele>540.4</ele>
        <time>2026-07-08T10:47:31Z</time>
      </trkpt>
      <trkpt lat="43.02172" lon="0.32091">
        <ele>540.4</ele>
        <time>2026-07-08T10:47:31Z</time>
      </trkpt>
      <trkpt lat="43.02172" lon="0.32089">
        <ele>540.4</ele>
        <time>2026-07-08T10:47:32Z</time>
      </trkpt>
      <trkpt lat="43.02172" lon="0.32088">
        <ele>540.4</ele>
        <time>2026-07-08T10:47:33Z</time>
      </trkpt>
      <trkpt lat="43.02172" lon="0.32087">
        <ele>539.4</ele>
        <time>2026-07-08T10:47:33Z</time>
      </trkpt>
      <trkpt lat="43.02172" lon="0.32086">
        <ele>539.4</ele>
        <time>2026-07-08T10:47:34Z</time>
      </trkpt>
      <trkpt lat="43.02173" lon="0.32085">
        <ele>539.4</ele>
        <time>2026-07-08T10:47:35Z</time>
      </trkpt>
      <trkpt lat="43.02173" lon="0.32084">
        <ele>539.4</ele>
        <time>2026-07-08T10:47:35Z</time>
      </trkpt>
      <trkpt lat="43.02174" lon="0.32083">
        <ele>539.4</ele>
        <time>2026-07-08T10:47:36Z</time>
      </trkpt>
      <trkpt lat="43.02174" lon="0.32083">
        <ele>538.4</ele>
        <time>2026-07-08T10:47:36Z</time>
      </trkpt>
      <trkpt lat="43.02174" lon="0.32082">
        <ele>538.4</ele>
        <time>2026-07-08T10:47:36Z</time>
      </trkpt>
      <trkpt lat="43.02174" lon="0.32081">
        <ele>538.4</ele>
        <time>2026-07-08T10:47:37Z</time>
      </trkpt>
      <trkpt lat="43.02175" lon="0.32079">
        <ele>538.4</ele>
        <time>2026-07-08T10:47:38Z</time>
      </trkpt>
      <trkpt lat="43.02175" lon="0.32078">
        <ele>538.4</ele>
        <time>2026-07-08T10:47:38Z</time>
      </trkpt>
      <trkpt lat="43.02176" lon="0.32077">
        <ele>538.4</ele>
        <time>2026-07-08T10:47:39Z</time>
      </trkpt>
      <trkpt lat="43.02176" lon="0.32076">
        <ele>538.4</ele>
        <time>2026-07-08T10:47:40Z</time>
      </trkpt>
      <trkpt lat="43.02177" lon="0.32075">
        <ele>538.4</ele>
        <time>2026-07-08T10:47:40Z</time>
      </trkpt>
      <trkpt lat="43.02177" lon="0.32074">
        <ele>538.4</ele>
        <time>2026-07-08T10:47:41Z</time>
      </trkpt>
      <trkpt lat="43.02177" lon="0.32074">
        <ele>538.4</ele>
        <time>2026-07-08T10:47:41Z</time>
      </trkpt>
      <trkpt lat="43.02178" lon="0.32073">
        <ele>538.4</ele>
        <time>2026-07-08T10:47:42Z</time>
      </trkpt>
      <trkpt lat="43.02178" lon="0.32072">
        <ele>538.4</ele>
        <time>2026-07-08T10:47:42Z</time>
      </trkpt>
      <trkpt lat="43.02178" lon="0.32071">
        <ele>538.4</ele>
        <time>2026-07-08T10:47:43Z</time>
      </trkpt>
      <trkpt lat="43.02179" lon="0.3207">
        <ele>539.4</ele>
        <time>2026-07-08T10:47:43Z</time>
      </trkpt>
      <trkpt lat="43.02179" lon="0.32069">
        <ele>539.4</ele>
        <time>2026-07-08T10:47:43Z</time>
      </trkpt>
      <trkpt lat="43.02179" lon="0.32069">
        <ele>539.4</ele>
        <time>2026-07-08T10:47:44Z</time>
      </trkpt>
      <trkpt lat="43.0218" lon="0.32068">
        <ele>539.4</ele>
        <time>2026-07-08T10:47:44Z</time>
      </trkpt>
      <trkpt lat="43.0218" lon="0.32067">
        <ele>539.4</ele>
        <time>2026-07-08T10:47:45Z</time>
      </trkpt>
      <trkpt lat="43.02181" lon="0.32065">
        <ele>539.4</ele>
        <time>2026-07-08T10:47:46Z</time>
      </trkpt>
      <trkpt lat="43.02182" lon="0.32064">
        <ele>539.4</ele>
        <time>2026-07-08T10:47:47Z</time>
      </trkpt>
      <trkpt lat="43.02183" lon="0.32063">
        <ele>539.4</ele>
        <time>2026-07-08T10:47:48Z</time>
      </trkpt>
      <trkpt lat="43.02184" lon="0.32062">
        <ele>539.4</ele>
        <time>2026-07-08T10:47:49Z</time>
      </trkpt>
      <trkpt lat="43.02185" lon="0.32062">
        <ele>539.4</ele>
        <time>2026-07-08T10:47:49Z</time>
      </trkpt>
      <trkpt lat="43.02185" lon="0.32061">
        <ele>539.4</ele>
        <time>2026-07-08T10:47:50Z</time>
      </trkpt>
      <trkpt lat="43.02186" lon="0.32061">
        <ele>539.4</ele>
        <time>2026-07-08T10:47:51Z</time>
      </trkpt>
      <trkpt lat="43.02187" lon="0.32061">
        <ele>539.4</ele>
        <time>2026-07-08T10:47:51Z</time>
      </trkpt>
      <trkpt lat="43.02187" lon="0.3206">
        <ele>539.4</ele>
        <time>2026-07-08T10:47:52Z</time>
      </trkpt>
      <trkpt lat="43.02188" lon="0.3206">
        <ele>538.4</ele>
        <time>2026-07-08T10:47:53Z</time>
      </trkpt>
      <trkpt lat="43.02189" lon="0.3206">
        <ele>538.4</ele>
        <time>2026-07-08T10:47:53Z</time>
      </trkpt>
      <trkpt lat="43.02189" lon="0.3206">
        <ele>538.4</ele>
        <time>2026-07-08T10:47:54Z</time>
      </trkpt>
      <trkpt lat="43.0219" lon="0.3206">
        <ele>538.4</ele>
        <time>2026-07-08T10:47:54Z</time>
      </trkpt>
      <trkpt lat="43.0219" lon="0.3206">
        <ele>538.4</ele>
        <time>2026-07-08T10:47:55Z</time>
      </trkpt>
      <trkpt lat="43.02191" lon="0.32059">
        <ele>538.4</ele>
        <time>2026-07-08T10:47:55Z</time>
      </trkpt>
      <trkpt lat="43.02191" lon="0.32059">
        <ele>538.4</ele>
        <time>2026-07-08T10:47:56Z</time>
      </trkpt>
      <trkpt lat="43.02192" lon="0.32059">
        <ele>537.4</ele>
        <time>2026-07-08T10:47:56Z</time>
      </trkpt>
      <trkpt lat="43.02192" lon="0.32059">
        <ele>537.4</ele>
        <time>2026-07-08T10:47:56Z</time>
      </trkpt>
      <trkpt lat="43.02193" lon="0.32059">
        <ele>537.4</ele>
        <time>2026-07-08T10:47:57Z</time>
      </trkpt>
      <trkpt lat="43.02193" lon="0.32059">
        <ele>537.4</ele>
        <time>2026-07-08T10:47:57Z</time>
      </trkpt>
      <trkpt lat="43.02194" lon="0.32059">
        <ele>537.4</ele>
        <time>2026-07-08T10:47:58Z</time>
      </trkpt>
      <trkpt lat="43.02194" lon="0.32058">
        <ele>536.4</ele>
        <time>2026-07-08T10:47:58Z</time>
      </trkpt>
      <trkpt lat="43.02194" lon="0.32058">
        <ele>536.4</ele>
        <time>2026-07-08T10:47:59Z</time>
      </trkpt>
      <trkpt lat="43.02195" lon="0.32058">
        <ele>536.4</ele>
        <time>2026-07-08T10:48:00Z</time>
      </trkpt>
      <trkpt lat="43.02195" lon="0.32057">
        <ele>535.4</ele>
        <time>2026-07-08T10:48:01Z</time>
      </trkpt>
      <trkpt lat="43.02196" lon="0.32056">
        <ele>535.4</ele>
        <time>2026-07-08T10:48:01Z</time>
      </trkpt>
      <trkpt lat="43.02197" lon="0.32055">
        <ele>535.4</ele>
        <time>2026-07-08T10:48:02Z</time>
      </trkpt>
      <trkpt lat="43.02197" lon="0.32055">
        <ele>535.4</ele>
        <time>2026-07-08T10:48:02Z</time>
      </trkpt>
      <trkpt lat="43.02198" lon="0.32055">
        <ele>535.4</ele>
        <time>2026-07-08T10:48:03Z</time>
      </trkpt>
      <trkpt lat="43.02198" lon="0.32054">
        <ele>535.4</ele>
        <time>2026-07-08T10:48:03Z</time>
      </trkpt>
      <trkpt lat="43.02199" lon="0.32054">
        <ele>534.4</ele>
        <time>2026-07-08T10:48:04Z</time>
      </trkpt>
      <trkpt lat="43.022" lon="0.32054">
        <ele>534.4</ele>
        <time>2026-07-08T10:48:05Z</time>
      </trkpt>
      <trkpt lat="43.02201" lon="0.32053">
        <ele>534.4</ele>
        <time>2026-07-08T10:48:06Z</time>
      </trkpt>
      <trkpt lat="43.02202" lon="0.32053">
        <ele>534.4</ele>
        <time>2026-07-08T10:48:07Z</time>
      </trkpt>
      <trkpt lat="43.02203" lon="0.32052">
        <ele>534.4</ele>
        <time>2026-07-08T10:48:08Z</time>
      </trkpt>
      <trkpt lat="43.02205" lon="0.32052">
        <ele>534.4</ele>
        <time>2026-07-08T10:48:08Z</time>
      </trkpt>
      <trkpt lat="43.02205" lon="0.32052">
        <ele>534.4</ele>
        <time>2026-07-08T10:48:09Z</time>
      </trkpt>
      <trkpt lat="43.02206" lon="0.32052">
        <ele>534.4</ele>
        <time>2026-07-08T10:48:09Z</time>
      </trkpt>
      <trkpt lat="43.02207" lon="0.32052">
        <ele>535.4</ele>
        <time>2026-07-08T10:48:10Z</time>
      </trkpt>
      <trkpt lat="43.02208" lon="0.32051">
        <ele>535.4</ele>
        <time>2026-07-08T10:48:11Z</time>
      </trkpt>
      <trkpt lat="43.02209" lon="0.32051">
        <ele>535.4</ele>
        <time>2026-07-08T10:48:11Z</time>
      </trkpt>
      <trkpt lat="43.0221" lon="0.3205">
        <ele>534.4</ele>
        <time>2026-07-08T10:48:12Z</time>
      </trkpt>
      <trkpt lat="43.0221" lon="0.3205">
        <ele>534.4</ele>
        <time>2026-07-08T10:48:13Z</time>
      </trkpt>
      <trkpt lat="43.02211" lon="0.3205">
        <ele>533.4</ele>
        <time>2026-07-08T10:48:13Z</time>
      </trkpt>
      <trkpt lat="43.02212" lon="0.3205">
        <ele>533.4</ele>
        <time>2026-07-08T10:48:14Z</time>
      </trkpt>
      <trkpt lat="43.02212" lon="0.3205">
        <ele>534.4</ele>
        <time>2026-07-08T10:48:14Z</time>
      </trkpt>
      <trkpt lat="43.02213" lon="0.3205">
        <ele>534.4</ele>
        <time>2026-07-08T10:48:14Z</time>
      </trkpt>
      <trkpt lat="43.02214" lon="0.3205">
        <ele>534.4</ele>
        <time>2026-07-08T10:48:15Z</time>
      </trkpt>
      <trkpt lat="43.02215" lon="0.32049">
        <ele>533.4</ele>
        <time>2026-07-08T10:48:16Z</time>
      </trkpt>
      <trkpt lat="43.02216" lon="0.32049">
        <ele>533.4</ele>
        <time>2026-07-08T10:48:16Z</time>
      </trkpt>
      <trkpt lat="43.02217" lon="0.32049">
        <ele>533.4</ele>
        <time>2026-07-08T10:48:17Z</time>
      </trkpt>
      <trkpt lat="43.02218" lon="0.32049">
        <ele>533.4</ele>
        <time>2026-07-08T10:48:17Z</time>
      </trkpt>
      <trkpt lat="43.02218" lon="0.3205">
        <ele>533.4</ele>
        <time>2026-07-08T10:48:18Z</time>
      </trkpt>
      <trkpt lat="43.02219" lon="0.3205">
        <ele>533.4</ele>
        <time>2026-07-08T10:48:18Z</time>
      </trkpt>
      <trkpt lat="43.0222" lon="0.3205">
        <ele>533.4</ele>
        <time>2026-07-08T10:48:19Z</time>
      </trkpt>
      <trkpt lat="43.02221" lon="0.3205">
        <ele>533.4</ele>
        <time>2026-07-08T10:48:19Z</time>
      </trkpt>
      <trkpt lat="43.02222" lon="0.3205">
        <ele>533.4</ele>
        <time>2026-07-08T10:48:20Z</time>
      </trkpt>
      <trkpt lat="43.02222" lon="0.3205">
        <ele>531.4</ele>
        <time>2026-07-08T10:48:20Z</time>
      </trkpt>
      <trkpt lat="43.02223" lon="0.3205">
        <ele>531.4</ele>
        <time>2026-07-08T10:48:21Z</time>
      </trkpt>
      <trkpt lat="43.02224" lon="0.32051">
        <ele>531.4</ele>
        <time>2026-07-08T10:48:21Z</time>
      </trkpt>
      <trkpt lat="43.02225" lon="0.32051">
        <ele>531.4</ele>
        <time>2026-07-08T10:48:22Z</time>
      </trkpt>
      <trkpt lat="43.02226" lon="0.32051">
        <ele>531.4</ele>
        <time>2026-07-08T10:48:23Z</time>
      </trkpt>
      <trkpt lat="43.02227" lon="0.32051">
        <ele>531.4</ele>
        <time>2026-07-08T10:48:23Z</time>
      </trkpt>
      <trkpt lat="43.02228" lon="0.32052">
        <ele>531.4</ele>
        <time>2026-07-08T10:48:24Z</time>
      </trkpt>
      <trkpt lat="43.02229" lon="0.32052">
        <ele>531.4</ele>
        <time>2026-07-08T10:48:25Z</time>
      </trkpt>
      <trkpt lat="43.02229" lon="0.32053">
        <ele>531.4</ele>
        <time>2026-07-08T10:48:25Z</time>
      </trkpt>
      <trkpt lat="43.0223" lon="0.32053">
        <ele>531.4</ele>
        <time>2026-07-08T10:48:26Z</time>
      </trkpt>
      <trkpt lat="43.0223" lon="0.32054">
        <ele>531.4</ele>
        <time>2026-07-08T10:48:26Z</time>
      </trkpt>
      <trkpt lat="43.02231" lon="0.32054">
        <ele>531.4</ele>
        <time>2026-07-08T10:48:27Z</time>
      </trkpt>
      <trkpt lat="43.02232" lon="0.32054">
        <ele>531.4</ele>
        <time>2026-07-08T10:48:27Z</time>
      </trkpt>
      <trkpt lat="43.02232" lon="0.32054">
        <ele>531.4</ele>
        <time>2026-07-08T10:48:27Z</time>
      </trkpt>
      <trkpt lat="43.02233" lon="0.32054">
        <ele>531.4</ele>
        <time>2026-07-08T10:48:28Z</time>
      </trkpt>
      <trkpt lat="43.02233" lon="0.32054">
        <ele>531.4</ele>
        <time>2026-07-08T10:48:28Z</time>
      </trkpt>
      <trkpt lat="43.02234" lon="0.32055">
        <ele>531.4</ele>
        <time>2026-07-08T10:48:29Z</time>
      </trkpt>
      <trkpt lat="43.02235" lon="0.32055">
        <ele>531.4</ele>
        <time>2026-07-08T10:48:30Z</time>
      </trkpt>
      <trkpt lat="43.02235" lon="0.32055">
        <ele>531.4</ele>
        <time>2026-07-08T10:48:30Z</time>
      </trkpt>
      <trkpt lat="43.02236" lon="0.32055">
        <ele>531.4</ele>
        <time>2026-07-08T10:48:31Z</time>
      </trkpt>
      <trkpt lat="43.02237" lon="0.32055">
        <ele>531.4</ele>
        <time>2026-07-08T10:48:31Z</time>
      </trkpt>
      <trkpt lat="43.02238" lon="0.32055">
        <ele>531.4</ele>
        <time>2026-07-08T10:48:32Z</time>
      </trkpt>
      <trkpt lat="43.02238" lon="0.32055">
        <ele>531.4</ele>
        <time>2026-07-08T10:48:32Z</time>
      </trkpt>
      <trkpt lat="43.02239" lon="0.32055">
        <ele>532.4</ele>
        <time>2026-07-08T10:48:33Z</time>
      </trkpt>
      <trkpt lat="43.0224" lon="0.32055">
        <ele>532.4</ele>
        <time>2026-07-08T10:48:34Z</time>
      </trkpt>
      <trkpt lat="43.02241" lon="0.32055">
        <ele>532.4</ele>
        <time>2026-07-08T10:48:34Z</time>
      </trkpt>
      <trkpt lat="43.02241" lon="0.32055">
        <ele>531.4</ele>
        <time>2026-07-08T10:48:35Z</time>
      </trkpt>
      <trkpt lat="43.02242" lon="0.32056">
        <ele>531.4</ele>
        <time>2026-07-08T10:48:36Z</time>
      </trkpt>
      <trkpt lat="43.02243" lon="0.32056">
        <ele>531.4</ele>
        <time>2026-07-08T10:48:36Z</time>
      </trkpt>
      <trkpt lat="43.02243" lon="0.32056">
        <ele>531.4</ele>
        <time>2026-07-08T10:48:37Z</time>
      </trkpt>
      <trkpt lat="43.02244" lon="0.32057">
        <ele>531.4</ele>
        <time>2026-07-08T10:48:37Z</time>
      </trkpt>
      <trkpt lat="43.02245" lon="0.32057">
        <ele>531.4</ele>
        <time>2026-07-08T10:48:38Z</time>
      </trkpt>
      <trkpt lat="43.02246" lon="0.32057">
        <ele>531.4</ele>
        <time>2026-07-08T10:48:39Z</time>
      </trkpt>
      <trkpt lat="43.02248" lon="0.32057">
        <ele>531.4</ele>
        <time>2026-07-08T10:48:40Z</time>
      </trkpt>
      <trkpt lat="43.02249" lon="0.32058">
        <ele>531.4</ele>
        <time>2026-07-08T10:48:41Z</time>
      </trkpt>
      <trkpt lat="43.0225" lon="0.32058">
        <ele>531.4</ele>
        <time>2026-07-08T10:48:41Z</time>
      </trkpt>
      <trkpt lat="43.02251" lon="0.32058">
        <ele>531.4</ele>
        <time>2026-07-08T10:48:42Z</time>
      </trkpt>
      <trkpt lat="43.02252" lon="0.32057">
        <ele>530.4</ele>
        <time>2026-07-08T10:48:43Z</time>
      </trkpt>
      <trkpt lat="43.02253" lon="0.32057">
        <ele>530.4</ele>
        <time>2026-07-08T10:48:44Z</time>
      </trkpt>
      <trkpt lat="43.02253" lon="0.32058">
        <ele>530.4</ele>
        <time>2026-07-08T10:48:45Z</time>
      </trkpt>
      <trkpt lat="43.02254" lon="0.32058">
        <ele>530.4</ele>
        <time>2026-07-08T10:48:45Z</time>
      </trkpt>
      <trkpt lat="43.02254" lon="0.32058">
        <ele>530.4</ele>
        <time>2026-07-08T10:48:46Z</time>
      </trkpt>
      <trkpt lat="43.02255" lon="0.32058">
        <ele>530.4</ele>
        <time>2026-07-08T10:48:47Z</time>
      </trkpt>
      <trkpt lat="43.02256" lon="0.32059">
        <ele>529.4</ele>
        <time>2026-07-08T10:48:48Z</time>
      </trkpt>
      <trkpt lat="43.02257" lon="0.32059">
        <ele>529.4</ele>
        <time>2026-07-08T10:48:49Z</time>
      </trkpt>
      <trkpt lat="43.02258" lon="0.32059">
        <ele>529.4</ele>
        <time>2026-07-08T10:48:50Z</time>
      </trkpt>
      <trkpt lat="43.02259" lon="0.3206">
        <ele>528.4</ele>
        <time>2026-07-08T10:48:50Z</time>
      </trkpt>
      <trkpt lat="43.02259" lon="0.3206">
        <ele>528.4</ele>
        <time>2026-07-08T10:48:51Z</time>
      </trkpt>
      <trkpt lat="43.02261" lon="0.3206">
        <ele>528.4</ele>
        <time>2026-07-08T10:48:52Z</time>
      </trkpt>
      <trkpt lat="43.02262" lon="0.32061">
        <ele>528.4</ele>
        <time>2026-07-08T10:48:53Z</time>
      </trkpt>
      <trkpt lat="43.02262" lon="0.32061">
        <ele>528.4</ele>
        <time>2026-07-08T10:48:53Z</time>
      </trkpt>
      <trkpt lat="43.02264" lon="0.32061">
        <ele>528.4</ele>
        <time>2026-07-08T10:48:54Z</time>
      </trkpt>
      <trkpt lat="43.02264" lon="0.32061">
        <ele>527.4</ele>
        <time>2026-07-08T10:48:54Z</time>
      </trkpt>
      <trkpt lat="43.02265" lon="0.32061">
        <ele>527.4</ele>
        <time>2026-07-08T10:48:55Z</time>
      </trkpt>
      <trkpt lat="43.02266" lon="0.32061">
        <ele>527.4</ele>
        <time>2026-07-08T10:48:56Z</time>
      </trkpt>
      <trkpt lat="43.02267" lon="0.32061">
        <ele>526.4</ele>
        <time>2026-07-08T10:48:56Z</time>
      </trkpt>
      <trkpt lat="43.02267" lon="0.32061">
        <ele>526.4</ele>
        <time>2026-07-08T10:48:57Z</time>
      </trkpt>
      <trkpt lat="43.02268" lon="0.32061">
        <ele>526.4</ele>
        <time>2026-07-08T10:48:58Z</time>
      </trkpt>
      <trkpt lat="43.0227" lon="0.32061">
        <ele>526.4</ele>
        <time>2026-07-08T10:48:59Z</time>
      </trkpt>
      <trkpt lat="43.0227" lon="0.32061">
        <ele>526.4</ele>
        <time>2026-07-08T10:48:59Z</time>
      </trkpt>
      <trkpt lat="43.02271" lon="0.3206">
        <ele>526.4</ele>
        <time>2026-07-08T10:49:00Z</time>
      </trkpt>
      <trkpt lat="43.02271" lon="0.3206">
        <ele>526.4</ele>
        <time>2026-07-08T10:49:00Z</time>
      </trkpt>
      <trkpt lat="43.02272" lon="0.3206">
        <ele>526.4</ele>
        <time>2026-07-08T10:49:00Z</time>
      </trkpt>
      <trkpt lat="43.02273" lon="0.3206">
        <ele>526.4</ele>
        <time>2026-07-08T10:49:01Z</time>
      </trkpt>
      <trkpt lat="43.02273" lon="0.3206">
        <ele>525.4</ele>
        <time>2026-07-08T10:49:01Z</time>
      </trkpt>
      <trkpt lat="43.02274" lon="0.3206">
        <ele>525.4</ele>
        <time>2026-07-08T10:49:02Z</time>
      </trkpt>
      <trkpt lat="43.02275" lon="0.3206">
        <ele>525.4</ele>
        <time>2026-07-08T10:49:03Z</time>
      </trkpt>
      <trkpt lat="43.02275" lon="0.3206">
        <ele>524.4</ele>
        <time>2026-07-08T10:49:03Z</time>
      </trkpt>
      <trkpt lat="43.02275" lon="0.3206">
        <ele>524.4</ele>
        <time>2026-07-08T10:49:04Z</time>
      </trkpt>
      <trkpt lat="43.02276" lon="0.3206">
        <ele>523.4</ele>
        <time>2026-07-08T10:49:04Z</time>
      </trkpt>
      <trkpt lat="43.02276" lon="0.3206">
        <ele>523.4</ele>
        <time>2026-07-08T10:49:05Z</time>
      </trkpt>
      <trkpt lat="43.02277" lon="0.3206">
        <ele>523.4</ele>
        <time>2026-07-08T10:49:06Z</time>
      </trkpt>
      <trkpt lat="43.02278" lon="0.3206">
        <ele>522.4</ele>
        <time>2026-07-08T10:49:06Z</time>
      </trkpt>
      <trkpt lat="43.02278" lon="0.3206">
        <ele>522.4</ele>
        <time>2026-07-08T10:49:07Z</time>
      </trkpt>
      <trkpt lat="43.02279" lon="0.3206">
        <ele>521.4</ele>
        <time>2026-07-08T10:49:07Z</time>
      </trkpt>
      <trkpt lat="43.0228" lon="0.32059">
        <ele>521.4</ele>
        <time>2026-07-08T10:49:08Z</time>
      </trkpt>
      <trkpt lat="43.0228" lon="0.32059">
        <ele>521.4</ele>
        <time>2026-07-08T10:49:08Z</time>
      </trkpt>
      <trkpt lat="43.02281" lon="0.32059">
        <ele>520.4</ele>
        <time>2026-07-08T10:49:09Z</time>
      </trkpt>
      <trkpt lat="43.02282" lon="0.32058">
        <ele>520.4</ele>
        <time>2026-07-08T10:49:10Z</time>
      </trkpt>
      <trkpt lat="43.02283" lon="0.32058">
        <ele>520.4</ele>
        <time>2026-07-08T10:49:10Z</time>
      </trkpt>
      <trkpt lat="43.02284" lon="0.32057">
        <ele>519.4</ele>
        <time>2026-07-08T10:49:11Z</time>
      </trkpt>
      <trkpt lat="43.02285" lon="0.32057">
        <ele>519.4</ele>
        <time>2026-07-08T10:49:12Z</time>
      </trkpt>
      <trkpt lat="43.02285" lon="0.32056">
        <ele>519.4</ele>
        <time>2026-07-08T10:49:12Z</time>
      </trkpt>
      <trkpt lat="43.02287" lon="0.32056">
        <ele>519.4</ele>
        <time>2026-07-08T10:49:13Z</time>
      </trkpt>
      <trkpt lat="43.02287" lon="0.32055">
        <ele>519.4</ele>
        <time>2026-07-08T10:49:13Z</time>
      </trkpt>
      <trkpt lat="43.02288" lon="0.32055">
        <ele>519.4</ele>
        <time>2026-07-08T10:49:14Z</time>
      </trkpt>
      <trkpt lat="43.02289" lon="0.32054">
        <ele>518.4</ele>
        <time>2026-07-08T10:49:15Z</time>
      </trkpt>
      <trkpt lat="43.0229" lon="0.32052">
        <ele>518.4</ele>
        <time>2026-07-08T10:49:16Z</time>
      </trkpt>
      <trkpt lat="43.02291" lon="0.32051">
        <ele>518.4</ele>
        <time>2026-07-08T10:49:17Z</time>
      </trkpt>
      <trkpt lat="43.02293" lon="0.3205">
        <ele>518.4</ele>
        <time>2026-07-08T10:49:17Z</time>
      </trkpt>
      <trkpt lat="43.02293" lon="0.3205">
        <ele>518.4</ele>
        <time>2026-07-08T10:49:18Z</time>
      </trkpt>
      <trkpt lat="43.02294" lon="0.32049">
        <ele>517.4</ele>
        <time>2026-07-08T10:49:18Z</time>
      </trkpt>
      <trkpt lat="43.02294" lon="0.32048">
        <ele>517.4</ele>
        <time>2026-07-08T10:49:19Z</time>
      </trkpt>
      <trkpt lat="43.02295" lon="0.32047">
        <ele>516.4</ele>
        <time>2026-07-08T10:49:19Z</time>
      </trkpt>
      <trkpt lat="43.02296" lon="0.32047">
        <ele>516.4</ele>
        <time>2026-07-08T10:49:20Z</time>
      </trkpt>
      <trkpt lat="43.02297" lon="0.32046">
        <ele>517.4</ele>
        <time>2026-07-08T10:49:20Z</time>
      </trkpt>
      <trkpt lat="43.02297" lon="0.32045">
        <ele>516.4</ele>
        <time>2026-07-08T10:49:21Z</time>
      </trkpt>
      <trkpt lat="43.02298" lon="0.32044">
        <ele>516.4</ele>
        <time>2026-07-08T10:49:22Z</time>
      </trkpt>
      <trkpt lat="43.02299" lon="0.32044">
        <ele>516.4</ele>
        <time>2026-07-08T10:49:22Z</time>
      </trkpt>
      <trkpt lat="43.023" lon="0.32043">
        <ele>516.4</ele>
        <time>2026-07-08T10:49:23Z</time>
      </trkpt>
      <trkpt lat="43.02301" lon="0.32042">
        <ele>516.4</ele>
        <time>2026-07-08T10:49:24Z</time>
      </trkpt>
      <trkpt lat="43.02302" lon="0.3204">
        <ele>516.4</ele>
        <time>2026-07-08T10:49:25Z</time>
      </trkpt>
      <trkpt lat="43.02303" lon="0.32039">
        <ele>516.4</ele>
        <time>2026-07-08T10:49:25Z</time>
      </trkpt>
      <trkpt lat="43.02304" lon="0.32039">
        <ele>516.4</ele>
        <time>2026-07-08T10:49:26Z</time>
      </trkpt>
      <trkpt lat="43.02305" lon="0.32038">
        <ele>516.4</ele>
        <time>2026-07-08T10:49:26Z</time>
      </trkpt>
      <trkpt lat="43.02305" lon="0.32037">
        <ele>516.4</ele>
        <time>2026-07-08T10:49:27Z</time>
      </trkpt>
      <trkpt lat="43.02306" lon="0.32037">
        <ele>515.4</ele>
        <time>2026-07-08T10:49:27Z</time>
      </trkpt>
      <trkpt lat="43.02307" lon="0.32036">
        <ele>515.4</ele>
        <time>2026-07-08T10:49:28Z</time>
      </trkpt>
      <trkpt lat="43.02308" lon="0.32035">
        <ele>515.4</ele>
        <time>2026-07-08T10:49:29Z</time>
      </trkpt>
      <trkpt lat="43.0231" lon="0.32034">
        <ele>515.4</ele>
        <time>2026-07-08T10:49:30Z</time>
      </trkpt>
      <trkpt lat="43.0231" lon="0.32033">
        <ele>515.4</ele>
        <time>2026-07-08T10:49:30Z</time>
      </trkpt>
      <trkpt lat="43.02311" lon="0.32033">
        <ele>515.4</ele>
        <time>2026-07-08T10:49:31Z</time>
      </trkpt>
      <trkpt lat="43.02312" lon="0.32032">
        <ele>514.4</ele>
        <time>2026-07-08T10:49:31Z</time>
      </trkpt>
      <trkpt lat="43.02312" lon="0.32032">
        <ele>514.4</ele>
        <time>2026-07-08T10:49:32Z</time>
      </trkpt>
      <trkpt lat="43.02313" lon="0.32031">
        <ele>514.4</ele>
        <time>2026-07-08T10:49:32Z</time>
      </trkpt>
      <trkpt lat="43.02314" lon="0.32031">
        <ele>514.4</ele>
        <time>2026-07-08T10:49:33Z</time>
      </trkpt>
      <trkpt lat="43.02315" lon="0.3203">
        <ele>514.4</ele>
        <time>2026-07-08T10:49:33Z</time>
      </trkpt>
      <trkpt lat="43.02315" lon="0.3203">
        <ele>514.4</ele>
        <time>2026-07-08T10:49:34Z</time>
      </trkpt>
      <trkpt lat="43.02316" lon="0.32029">
        <ele>515.4</ele>
        <time>2026-07-08T10:49:34Z</time>
      </trkpt>
      <trkpt lat="43.02317" lon="0.32029">
        <ele>515.4</ele>
        <time>2026-07-08T10:49:35Z</time>
      </trkpt>
      <trkpt lat="43.02318" lon="0.32028">
        <ele>514.4</ele>
        <time>2026-07-08T10:49:36Z</time>
      </trkpt>
      <trkpt lat="43.02319" lon="0.32027">
        <ele>514.4</ele>
        <time>2026-07-08T10:49:36Z</time>
      </trkpt>
      <trkpt lat="43.02319" lon="0.32027">
        <ele>514.4</ele>
        <time>2026-07-08T10:49:36Z</time>
      </trkpt>
      <trkpt lat="43.0232" lon="0.32027">
        <ele>514.4</ele>
        <time>2026-07-08T10:49:37Z</time>
      </trkpt>
      <trkpt lat="43.02321" lon="0.32027">
        <ele>514.4</ele>
        <time>2026-07-08T10:49:37Z</time>
      </trkpt>
      <trkpt lat="43.02322" lon="0.32026">
        <ele>514.4</ele>
        <time>2026-07-08T10:49:38Z</time>
      </trkpt>
      <trkpt lat="43.02323" lon="0.32026">
        <ele>514.4</ele>
        <time>2026-07-08T10:49:39Z</time>
      </trkpt>
      <trkpt lat="43.02324" lon="0.32026">
        <ele>514.4</ele>
        <time>2026-07-08T10:49:39Z</time>
      </trkpt>
      <trkpt lat="43.02325" lon="0.32026">
        <ele>514.4</ele>
        <time>2026-07-08T10:49:40Z</time>
      </trkpt>
      <trkpt lat="43.02325" lon="0.32026">
        <ele>514.4</ele>
        <time>2026-07-08T10:49:40Z</time>
      </trkpt>
      <trkpt lat="43.02326" lon="0.32026">
        <ele>514.4</ele>
        <time>2026-07-08T10:49:41Z</time>
      </trkpt>
      <trkpt lat="43.02328" lon="0.32025">
        <ele>513.4</ele>
        <time>2026-07-08T10:49:42Z</time>
      </trkpt>
      <trkpt lat="43.02329" lon="0.32025">
        <ele>513.4</ele>
        <time>2026-07-08T10:49:43Z</time>
      </trkpt>
      <trkpt lat="43.0233" lon="0.32026">
        <ele>513.4</ele>
        <time>2026-07-08T10:49:43Z</time>
      </trkpt>
      <trkpt lat="43.02331" lon="0.32025">
        <ele>513.4</ele>
        <time>2026-07-08T10:49:44Z</time>
      </trkpt>
      <trkpt lat="43.02331" lon="0.32026">
        <ele>512.4</ele>
        <time>2026-07-08T10:49:44Z</time>
      </trkpt>
      <trkpt lat="43.02332" lon="0.32026">
        <ele>512.4</ele>
        <time>2026-07-08T10:49:45Z</time>
      </trkpt>
      <trkpt lat="43.02333" lon="0.32026">
        <ele>512.4</ele>
        <time>2026-07-08T10:49:45Z</time>
      </trkpt>
      <trkpt lat="43.02333" lon="0.32026">
        <ele>512.4</ele>
        <time>2026-07-08T10:49:46Z</time>
      </trkpt>
      <trkpt lat="43.02334" lon="0.32026">
        <ele>512.4</ele>
        <time>2026-07-08T10:49:46Z</time>
      </trkpt>
      <trkpt lat="43.02335" lon="0.32026">
        <ele>512.4</ele>
        <time>2026-07-08T10:49:46Z</time>
      </trkpt>
      <trkpt lat="43.02336" lon="0.32026">
        <ele>512.4</ele>
        <time>2026-07-08T10:49:47Z</time>
      </trkpt>
      <trkpt lat="43.02336" lon="0.32025">
        <ele>511.4</ele>
        <time>2026-07-08T10:49:47Z</time>
      </trkpt>
      <trkpt lat="43.02337" lon="0.32025">
        <ele>511.4</ele>
        <time>2026-07-08T10:49:48Z</time>
      </trkpt>
      <trkpt lat="43.02339" lon="0.32025">
        <ele>512.4</ele>
        <time>2026-07-08T10:49:49Z</time>
      </trkpt>
      <trkpt lat="43.0234" lon="0.32025">
        <ele>511.4</ele>
        <time>2026-07-08T10:49:49Z</time>
      </trkpt>
      <trkpt lat="43.02341" lon="0.32025">
        <ele>511.4</ele>
        <time>2026-07-08T10:49:50Z</time>
      </trkpt>
      <trkpt lat="43.02342" lon="0.32025">
        <ele>511.4</ele>
        <time>2026-07-08T10:49:51Z</time>
      </trkpt>
      <trkpt lat="43.02343" lon="0.32024">
        <ele>510.4</ele>
        <time>2026-07-08T10:49:52Z</time>
      </trkpt>
      <trkpt lat="43.02345" lon="0.32023">
        <ele>510.4</ele>
        <time>2026-07-08T10:49:53Z</time>
      </trkpt>
      <trkpt lat="43.02346" lon="0.32022">
        <ele>510.4</ele>
        <time>2026-07-08T10:49:53Z</time>
      </trkpt>
      <trkpt lat="43.02347" lon="0.32021">
        <ele>510.4</ele>
        <time>2026-07-08T10:49:54Z</time>
      </trkpt>
      <trkpt lat="43.02349" lon="0.3202">
        <ele>509.4</ele>
        <time>2026-07-08T10:49:55Z</time>
      </trkpt>
      <trkpt lat="43.02349" lon="0.3202">
        <ele>509.4</ele>
        <time>2026-07-08T10:49:55Z</time>
      </trkpt>
      <trkpt lat="43.0235" lon="0.32019">
        <ele>509.4</ele>
        <time>2026-07-08T10:49:56Z</time>
      </trkpt>
      <trkpt lat="43.02351" lon="0.32019">
        <ele>509.4</ele>
        <time>2026-07-08T10:49:56Z</time>
      </trkpt>
      <trkpt lat="43.02352" lon="0.32018">
        <ele>510.4</ele>
        <time>2026-07-08T10:49:57Z</time>
      </trkpt>
      <trkpt lat="43.02353" lon="0.32017">
        <ele>510.4</ele>
        <time>2026-07-08T10:49:58Z</time>
      </trkpt>
      <trkpt lat="43.02354" lon="0.32017">
        <ele>509.4</ele>
        <time>2026-07-08T10:49:58Z</time>
      </trkpt>
      <trkpt lat="43.02355" lon="0.32017">
        <ele>510.4</ele>
        <time>2026-07-08T10:49:59Z</time>
      </trkpt>
      <trkpt lat="43.02356" lon="0.32016">
        <ele>510.4</ele>
        <time>2026-07-08T10:50:00Z</time>
      </trkpt>
      <trkpt lat="43.02358" lon="0.32016">
        <ele>509.4</ele>
        <time>2026-07-08T10:50:01Z</time>
      </trkpt>
      <trkpt lat="43.02359" lon="0.32015">
        <ele>509.4</ele>
        <time>2026-07-08T10:50:01Z</time>
      </trkpt>
      <trkpt lat="43.0236" lon="0.32015">
        <ele>510.4</ele>
        <time>2026-07-08T10:50:01Z</time>
      </trkpt>
      <trkpt lat="43.0236" lon="0.32015">
        <ele>510.4</ele>
        <time>2026-07-08T10:50:02Z</time>
      </trkpt>
      <trkpt lat="43.02361" lon="0.32014">
        <ele>509.4</ele>
        <time>2026-07-08T10:50:02Z</time>
      </trkpt>
      <trkpt lat="43.02362" lon="0.32014">
        <ele>509.4</ele>
        <time>2026-07-08T10:50:03Z</time>
      </trkpt>
      <trkpt lat="43.02363" lon="0.32014">
        <ele>509.4</ele>
        <time>2026-07-08T10:50:03Z</time>
      </trkpt>
      <trkpt lat="43.02364" lon="0.32013">
        <ele>509.4</ele>
        <time>2026-07-08T10:50:04Z</time>
      </trkpt>
      <trkpt lat="43.02366" lon="0.32012">
        <ele>509.4</ele>
        <time>2026-07-08T10:50:05Z</time>
      </trkpt>
      <trkpt lat="43.02366" lon="0.32012">
        <ele>509.4</ele>
        <time>2026-07-08T10:50:05Z</time>
      </trkpt>
      <trkpt lat="43.02367" lon="0.32012">
        <ele>509.4</ele>
        <time>2026-07-08T10:50:06Z</time>
      </trkpt>
      <trkpt lat="43.02368" lon="0.32011">
        <ele>508.4</ele>
        <time>2026-07-08T10:50:06Z</time>
      </trkpt>
      <trkpt lat="43.02369" lon="0.32011">
        <ele>509.4</ele>
        <time>2026-07-08T10:50:07Z</time>
      </trkpt>
      <trkpt lat="43.0237" lon="0.3201">
        <ele>509.4</ele>
        <time>2026-07-08T10:50:08Z</time>
      </trkpt>
      <trkpt lat="43.02371" lon="0.3201">
        <ele>509.4</ele>
        <time>2026-07-08T10:50:08Z</time>
      </trkpt>
      <trkpt lat="43.02372" lon="0.3201">
        <ele>509.4</ele>
        <time>2026-07-08T10:50:09Z</time>
      </trkpt>
      <trkpt lat="43.02372" lon="0.3201">
        <ele>509.4</ele>
        <time>2026-07-08T10:50:09Z</time>
      </trkpt>
      <trkpt lat="43.02373" lon="0.32009">
        <ele>509.4</ele>
        <time>2026-07-08T10:50:10Z</time>
      </trkpt>
      <trkpt lat="43.02374" lon="0.32009">
        <ele>509.4</ele>
        <time>2026-07-08T10:50:10Z</time>
      </trkpt>
      <trkpt lat="43.02375" lon="0.32009">
        <ele>509.4</ele>
        <time>2026-07-08T10:50:11Z</time>
      </trkpt>
      <trkpt lat="43.02375" lon="0.32009">
        <ele>509.4</ele>
        <time>2026-07-08T10:50:11Z</time>
      </trkpt>
      <trkpt lat="43.02376" lon="0.32009">
        <ele>509.4</ele>
        <time>2026-07-08T10:50:12Z</time>
      </trkpt>
      <trkpt lat="43.02377" lon="0.32009">
        <ele>509.4</ele>
        <time>2026-07-08T10:50:12Z</time>
      </trkpt>
      <trkpt lat="43.02378" lon="0.32008">
        <ele>509.4</ele>
        <time>2026-07-08T10:50:13Z</time>
      </trkpt>
      <trkpt lat="43.02378" lon="0.32008">
        <ele>509.4</ele>
        <time>2026-07-08T10:50:13Z</time>
      </trkpt>
      <trkpt lat="43.02379" lon="0.32008">
        <ele>509.4</ele>
        <time>2026-07-08T10:50:14Z</time>
      </trkpt>
      <trkpt lat="43.0238" lon="0.32008">
        <ele>509.4</ele>
        <time>2026-07-08T10:50:14Z</time>
      </trkpt>
      <trkpt lat="43.0238" lon="0.32007">
        <ele>509.4</ele>
        <time>2026-07-08T10:50:15Z</time>
      </trkpt>
      <trkpt lat="43.02381" lon="0.32007">
        <ele>509.4</ele>
        <time>2026-07-08T10:50:15Z</time>
      </trkpt>
      <trkpt lat="43.02382" lon="0.32007">
        <ele>509.4</ele>
        <time>2026-07-08T10:50:16Z</time>
      </trkpt>
      <trkpt lat="43.02382" lon="0.32007">
        <ele>509.4</ele>
        <time>2026-07-08T10:50:16Z</time>
      </trkpt>
      <trkpt lat="43.02383" lon="0.32007">
        <ele>509.4</ele>
        <time>2026-07-08T10:50:17Z</time>
      </trkpt>
      <trkpt lat="43.02383" lon="0.32007">
        <ele>508.4</ele>
        <time>2026-07-08T10:50:17Z</time>
      </trkpt>
      <trkpt lat="43.02384" lon="0.32006">
        <ele>508.4</ele>
        <time>2026-07-08T10:50:18Z</time>
      </trkpt>
      <trkpt lat="43.02385" lon="0.32006">
        <ele>507.4</ele>
        <time>2026-07-08T10:50:18Z</time>
      </trkpt>
      <trkpt lat="43.02385" lon="0.32006">
        <ele>507.4</ele>
        <time>2026-07-08T10:50:19Z</time>
      </trkpt>
      <trkpt lat="43.02386" lon="0.32006">
        <ele>507.4</ele>
        <time>2026-07-08T10:50:20Z</time>
      </trkpt>
      <trkpt lat="43.02386" lon="0.32006">
        <ele>508.4</ele>
        <time>2026-07-08T10:50:20Z</time>
      </trkpt>
      <trkpt lat="43.02387" lon="0.32005">
        <ele>508.4</ele>
        <time>2026-07-08T10:50:21Z</time>
      </trkpt>
      <trkpt lat="43.02388" lon="0.32005">
        <ele>508.4</ele>
        <time>2026-07-08T10:50:22Z</time>
      </trkpt>
      <trkpt lat="43.02389" lon="0.32005">
        <ele>508.4</ele>
        <time>2026-07-08T10:50:22Z</time>
      </trkpt>
      <trkpt lat="43.02389" lon="0.32004">
        <ele>508.4</ele>
        <time>2026-07-08T10:50:23Z</time>
      </trkpt>
      <trkpt lat="43.02391" lon="0.32004">
        <ele>507.4</ele>
        <time>2026-07-08T10:50:24Z</time>
      </trkpt>
      <trkpt lat="43.02391" lon="0.32003">
        <ele>507.4</ele>
        <time>2026-07-08T10:50:24Z</time>
      </trkpt>
      <trkpt lat="43.02391" lon="0.32003">
        <ele>507.4</ele>
        <time>2026-07-08T10:50:25Z</time>
      </trkpt>
      <trkpt lat="43.02392" lon="0.32002">
        <ele>506.4</ele>
        <time>2026-07-08T10:50:25Z</time>
      </trkpt>
      <trkpt lat="43.02393" lon="0.32002">
        <ele>506.4</ele>
        <time>2026-07-08T10:50:26Z</time>
      </trkpt>
      <trkpt lat="43.02393" lon="0.32002">
        <ele>507.4</ele>
        <time>2026-07-08T10:50:26Z</time>
      </trkpt>
      <trkpt lat="43.02394" lon="0.32001">
        <ele>507.4</ele>
        <time>2026-07-08T10:50:27Z</time>
      </trkpt>
      <trkpt lat="43.02395" lon="0.32001">
        <ele>507.4</ele>
        <time>2026-07-08T10:50:28Z</time>
      </trkpt>
      <trkpt lat="43.02395" lon="0.32001">
        <ele>507.4</ele>
        <time>2026-07-08T10:50:28Z</time>
      </trkpt>
      <trkpt lat="43.02396" lon="0.32">
        <ele>507.4</ele>
        <time>2026-07-08T10:50:29Z</time>
      </trkpt>
      <trkpt lat="43.02397" lon="0.32">
        <ele>507.4</ele>
        <time>2026-07-08T10:50:30Z</time>
      </trkpt>
      <trkpt lat="43.02398" lon="0.32">
        <ele>507.4</ele>
        <time>2026-07-08T10:50:30Z</time>
      </trkpt>
      <trkpt lat="43.02399" lon="0.32">
        <ele>507.4</ele>
        <time>2026-07-08T10:50:31Z</time>
      </trkpt>
      <trkpt lat="43.024" lon="0.31999">
        <ele>507.4</ele>
        <time>2026-07-08T10:50:31Z</time>
      </trkpt>
      <trkpt lat="43.024" lon="0.31999">
        <ele>507.4</ele>
        <time>2026-07-08T10:50:32Z</time>
      </trkpt>
      <trkpt lat="43.02401" lon="0.31999">
        <ele>507.4</ele>
        <time>2026-07-08T10:50:33Z</time>
      </trkpt>
      <trkpt lat="43.02401" lon="0.31998">
        <ele>507.4</ele>
        <time>2026-07-08T10:50:33Z</time>
      </trkpt>
      <trkpt lat="43.02402" lon="0.31998">
        <ele>507.4</ele>
        <time>2026-07-08T10:50:34Z</time>
      </trkpt>
      <trkpt lat="43.02402" lon="0.31998">
        <ele>507.4</ele>
        <time>2026-07-08T10:50:34Z</time>
      </trkpt>
      <trkpt lat="43.02403" lon="0.31997">
        <ele>507.4</ele>
        <time>2026-07-08T10:50:35Z</time>
      </trkpt>
      <trkpt lat="43.02403" lon="0.31997">
        <ele>507.4</ele>
        <time>2026-07-08T10:50:35Z</time>
      </trkpt>
      <trkpt lat="43.02404" lon="0.31997">
        <ele>507.4</ele>
        <time>2026-07-08T10:50:36Z</time>
      </trkpt>
      <trkpt lat="43.02405" lon="0.31996">
        <ele>506.4</ele>
        <time>2026-07-08T10:50:36Z</time>
      </trkpt>
      <trkpt lat="43.02405" lon="0.31996">
        <ele>506.4</ele>
        <time>2026-07-08T10:50:37Z</time>
      </trkpt>
      <trkpt lat="43.02406" lon="0.31995">
        <ele>505.4</ele>
        <time>2026-07-08T10:50:37Z</time>
      </trkpt>
      <trkpt lat="43.02406" lon="0.31995">
        <ele>505.4</ele>
        <time>2026-07-08T10:50:38Z</time>
      </trkpt>
      <trkpt lat="43.02407" lon="0.31994">
        <ele>505.4</ele>
        <time>2026-07-08T10:50:38Z</time>
      </trkpt>
      <trkpt lat="43.02408" lon="0.31994">
        <ele>505.4</ele>
        <time>2026-07-08T10:50:39Z</time>
      </trkpt>
      <trkpt lat="43.02408" lon="0.31993">
        <ele>505.4</ele>
        <time>2026-07-08T10:50:39Z</time>
      </trkpt>
      <trkpt lat="43.02409" lon="0.31993">
        <ele>505.4</ele>
        <time>2026-07-08T10:50:40Z</time>
      </trkpt>
      <trkpt lat="43.02409" lon="0.31993">
        <ele>505.4</ele>
        <time>2026-07-08T10:50:40Z</time>
      </trkpt>
      <trkpt lat="43.0241" lon="0.31992">
        <ele>505.4</ele>
        <time>2026-07-08T10:50:41Z</time>
      </trkpt>
      <trkpt lat="43.02411" lon="0.31991">
        <ele>504.4</ele>
        <time>2026-07-08T10:50:42Z</time>
      </trkpt>
      <trkpt lat="43.02411" lon="0.31991">
        <ele>504.4</ele>
        <time>2026-07-08T10:50:42Z</time>
      </trkpt>
      <trkpt lat="43.02412" lon="0.31991">
        <ele>504.4</ele>
        <time>2026-07-08T10:50:43Z</time>
      </trkpt>
      <trkpt lat="43.02413" lon="0.3199">
        <ele>503.4</ele>
        <time>2026-07-08T10:50:43Z</time>
      </trkpt>
      <trkpt lat="43.02414" lon="0.3199">
        <ele>503.4</ele>
        <time>2026-07-08T10:50:44Z</time>
      </trkpt>
      <trkpt lat="43.02415" lon="0.3199">
        <ele>503.4</ele>
        <time>2026-07-08T10:50:45Z</time>
      </trkpt>
      <trkpt lat="43.02415" lon="0.31989">
        <ele>503.4</ele>
        <time>2026-07-08T10:50:45Z</time>
      </trkpt>
      <trkpt lat="43.02416" lon="0.31989">
        <ele>503.4</ele>
        <time>2026-07-08T10:50:46Z</time>
      </trkpt>
      <trkpt lat="43.02416" lon="0.31989">
        <ele>503.4</ele>
        <time>2026-07-08T10:50:46Z</time>
      </trkpt>
      <trkpt lat="43.02417" lon="0.31988">
        <ele>503.4</ele>
        <time>2026-07-08T10:50:47Z</time>
      </trkpt>
      <trkpt lat="43.02418" lon="0.31988">
        <ele>502.4</ele>
        <time>2026-07-08T10:50:47Z</time>
      </trkpt>
      <trkpt lat="43.02418" lon="0.31987">
        <ele>502.4</ele>
        <time>2026-07-08T10:50:48Z</time>
      </trkpt>
      <trkpt lat="43.02419" lon="0.31986">
        <ele>502.4</ele>
        <time>2026-07-08T10:50:49Z</time>
      </trkpt>
      <trkpt lat="43.0242" lon="0.31985">
        <ele>502.4</ele>
        <time>2026-07-08T10:50:49Z</time>
      </trkpt>
      <trkpt lat="43.0242" lon="0.31985">
        <ele>502.4</ele>
        <time>2026-07-08T10:50:50Z</time>
      </trkpt>
      <trkpt lat="43.02421" lon="0.31984">
        <ele>502.4</ele>
        <time>2026-07-08T10:50:50Z</time>
      </trkpt>
      <trkpt lat="43.02422" lon="0.31984">
        <ele>502.4</ele>
        <time>2026-07-08T10:50:51Z</time>
      </trkpt>
      <trkpt lat="43.02422" lon="0.31983">
        <ele>502.4</ele>
        <time>2026-07-08T10:50:51Z</time>
      </trkpt>
      <trkpt lat="43.02422" lon="0.31982">
        <ele>502.4</ele>
        <time>2026-07-08T10:50:52Z</time>
      </trkpt>
      <trkpt lat="43.02423" lon="0.31982">
        <ele>501.4</ele>
        <time>2026-07-08T10:50:53Z</time>
      </trkpt>
      <trkpt lat="43.02423" lon="0.31981">
        <ele>501.4</ele>
        <time>2026-07-08T10:50:53Z</time>
      </trkpt>
      <trkpt lat="43.02423" lon="0.31981">
        <ele>501.4</ele>
        <time>2026-07-08T10:50:54Z</time>
      </trkpt>
      <trkpt lat="43.02424" lon="0.31981">
        <ele>501.4</ele>
        <time>2026-07-08T10:50:54Z</time>
      </trkpt>
      <trkpt lat="43.02424" lon="0.3198">
        <ele>501.4</ele>
        <time>2026-07-08T10:50:55Z</time>
      </trkpt>
      <trkpt lat="43.02425" lon="0.3198">
        <ele>501.4</ele>
        <time>2026-07-08T10:50:55Z</time>
      </trkpt>
      <trkpt lat="43.02425" lon="0.3198">
        <ele>501.4</ele>
        <time>2026-07-08T10:50:56Z</time>
      </trkpt>
      <trkpt lat="43.02426" lon="0.3198">
        <ele>501.4</ele>
        <time>2026-07-08T10:50:56Z</time>
      </trkpt>
      <trkpt lat="43.02427" lon="0.31979">
        <ele>501.4</ele>
        <time>2026-07-08T10:50:57Z</time>
      </trkpt>
      <trkpt lat="43.02427" lon="0.31979">
        <ele>500.4</ele>
        <time>2026-07-08T10:50:57Z</time>
      </trkpt>
      <trkpt lat="43.02428" lon="0.31979">
        <ele>500.4</ele>
        <time>2026-07-08T10:50:58Z</time>
      </trkpt>
      <trkpt lat="43.02429" lon="0.31978">
        <ele>499.4</ele>
        <time>2026-07-08T10:50:58Z</time>
      </trkpt>
      <trkpt lat="43.02429" lon="0.31978">
        <ele>499.4</ele>
        <time>2026-07-08T10:50:59Z</time>
      </trkpt>
      <trkpt lat="43.0243" lon="0.31978">
        <ele>500.4</ele>
        <time>2026-07-08T10:50:59Z</time>
      </trkpt>
      <trkpt lat="43.02431" lon="0.31977">
        <ele>500.4</ele>
        <time>2026-07-08T10:51:00Z</time>
      </trkpt>
      <trkpt lat="43.02432" lon="0.31977">
        <ele>500.4</ele>
        <time>2026-07-08T10:51:00Z</time>
      </trkpt>
      <trkpt lat="43.02432" lon="0.31976">
        <ele>500.4</ele>
        <time>2026-07-08T10:51:01Z</time>
      </trkpt>
      <trkpt lat="43.02433" lon="0.31976">
        <ele>500.4</ele>
        <time>2026-07-08T10:51:01Z</time>
      </trkpt>
      <trkpt lat="43.02433" lon="0.31976">
        <ele>500.4</ele>
        <time>2026-07-08T10:51:02Z</time>
      </trkpt>
      <trkpt lat="43.02434" lon="0.31975">
        <ele>499.4</ele>
        <time>2026-07-08T10:51:03Z</time>
      </trkpt>
      <trkpt lat="43.02435" lon="0.31975">
        <ele>499.4</ele>
        <time>2026-07-08T10:51:03Z</time>
      </trkpt>
      <trkpt lat="43.02435" lon="0.31974">
        <ele>499.4</ele>
        <time>2026-07-08T10:51:03Z</time>
      </trkpt>
      <trkpt lat="43.02436" lon="0.31974">
        <ele>499.4</ele>
        <time>2026-07-08T10:51:04Z</time>
      </trkpt>
      <trkpt lat="43.02437" lon="0.31974">
        <ele>499.4</ele>
        <time>2026-07-08T10:51:05Z</time>
      </trkpt>
      <trkpt lat="43.02437" lon="0.31973">
        <ele>498.4</ele>
        <time>2026-07-08T10:51:05Z</time>
      </trkpt>
      <trkpt lat="43.02438" lon="0.31972">
        <ele>498.4</ele>
        <time>2026-07-08T10:51:06Z</time>
      </trkpt>
      <trkpt lat="43.02439" lon="0.31972">
        <ele>498.4</ele>
        <time>2026-07-08T10:51:07Z</time>
      </trkpt>
      <trkpt lat="43.0244" lon="0.31971">
        <ele>498.4</ele>
        <time>2026-07-08T10:51:07Z</time>
      </trkpt>
      <trkpt lat="43.02441" lon="0.3197">
        <ele>498.4</ele>
        <time>2026-07-08T10:51:08Z</time>
      </trkpt>
      <trkpt lat="43.02441" lon="0.3197">
        <ele>498.4</ele>
        <time>2026-07-08T10:51:08Z</time>
      </trkpt>
      <trkpt lat="43.02442" lon="0.31969">
        <ele>498.4</ele>
        <time>2026-07-08T10:51:09Z</time>
      </trkpt>
      <trkpt lat="43.02443" lon="0.31968">
        <ele>498.4</ele>
        <time>2026-07-08T10:51:09Z</time>
      </trkpt>
      <trkpt lat="43.02443" lon="0.31968">
        <ele>498.4</ele>
        <time>2026-07-08T10:51:10Z</time>
      </trkpt>
      <trkpt lat="43.02444" lon="0.31967">
        <ele>498.4</ele>
        <time>2026-07-08T10:51:10Z</time>
      </trkpt>
      <trkpt lat="43.02445" lon="0.31966">
        <ele>498.4</ele>
        <time>2026-07-08T10:51:11Z</time>
      </trkpt>
      <trkpt lat="43.02445" lon="0.31965">
        <ele>498.4</ele>
        <time>2026-07-08T10:51:11Z</time>
      </trkpt>
      <trkpt lat="43.02446" lon="0.31965">
        <ele>498.4</ele>
        <time>2026-07-08T10:51:12Z</time>
      </trkpt>
      <trkpt lat="43.02447" lon="0.31964">
        <ele>499.4</ele>
        <time>2026-07-08T10:51:12Z</time>
      </trkpt>
      <trkpt lat="43.02447" lon="0.31963">
        <ele>499.4</ele>
        <time>2026-07-08T10:51:13Z</time>
      </trkpt>
      <trkpt lat="43.02448" lon="0.31963">
        <ele>499.4</ele>
        <time>2026-07-08T10:51:13Z</time>
      </trkpt>
      <trkpt lat="43.02449" lon="0.31962">
        <ele>499.4</ele>
        <time>2026-07-08T10:51:14Z</time>
      </trkpt>
      <trkpt lat="43.02449" lon="0.31961">
        <ele>500.4</ele>
        <time>2026-07-08T10:51:14Z</time>
      </trkpt>
      <trkpt lat="43.0245" lon="0.31961">
        <ele>500.4</ele>
        <time>2026-07-08T10:51:15Z</time>
      </trkpt>
      <trkpt lat="43.02451" lon="0.3196">
        <ele>500.4</ele>
        <time>2026-07-08T10:51:15Z</time>
      </trkpt>
      <trkpt lat="43.02452" lon="0.3196">
        <ele>500.4</ele>
        <time>2026-07-08T10:51:16Z</time>
      </trkpt>
      <trkpt lat="43.02453" lon="0.31959">
        <ele>500.4</ele>
        <time>2026-07-08T10:51:16Z</time>
      </trkpt>
      <trkpt lat="43.02453" lon="0.31959">
        <ele>500.4</ele>
        <time>2026-07-08T10:51:17Z</time>
      </trkpt>
      <trkpt lat="43.02454" lon="0.31958">
        <ele>500.4</ele>
        <time>2026-07-08T10:51:17Z</time>
      </trkpt>
      <trkpt lat="43.02455" lon="0.31958">
        <ele>500.4</ele>
        <time>2026-07-08T10:51:18Z</time>
      </trkpt>
      <trkpt lat="43.02455" lon="0.31957">
        <ele>500.4</ele>
        <time>2026-07-08T10:51:18Z</time>
      </trkpt>
      <trkpt lat="43.02456" lon="0.31957">
        <ele>500.4</ele>
        <time>2026-07-08T10:51:19Z</time>
      </trkpt>
      <trkpt lat="43.02457" lon="0.31956">
        <ele>500.4</ele>
        <time>2026-07-08T10:51:20Z</time>
      </trkpt>
      <trkpt lat="43.02457" lon="0.31956">
        <ele>499.4</ele>
        <time>2026-07-08T10:51:20Z</time>
      </trkpt>
      <trkpt lat="43.02458" lon="0.31956">
        <ele>499.4</ele>
        <time>2026-07-08T10:51:21Z</time>
      </trkpt>
      <trkpt lat="43.02459" lon="0.31955">
        <ele>499.4</ele>
        <time>2026-07-08T10:51:21Z</time>
      </trkpt>
      <trkpt lat="43.02459" lon="0.31955">
        <ele>499.4</ele>
        <time>2026-07-08T10:51:22Z</time>
      </trkpt>
      <trkpt lat="43.0246" lon="0.31955">
        <ele>498.4</ele>
        <time>2026-07-08T10:51:22Z</time>
      </trkpt>
      <trkpt lat="43.02461" lon="0.31954">
        <ele>498.4</ele>
        <time>2026-07-08T10:51:23Z</time>
      </trkpt>
      <trkpt lat="43.02462" lon="0.31953">
        <ele>499.4</ele>
        <time>2026-07-08T10:51:24Z</time>
      </trkpt>
      <trkpt lat="43.02463" lon="0.31953">
        <ele>498.4</ele>
        <time>2026-07-08T10:51:24Z</time>
      </trkpt>
      <trkpt lat="43.02464" lon="0.31952">
        <ele>499.4</ele>
        <time>2026-07-08T10:51:25Z</time>
      </trkpt>
      <trkpt lat="43.02465" lon="0.31952">
        <ele>499.4</ele>
        <time>2026-07-08T10:51:26Z</time>
      </trkpt>
      <trkpt lat="43.02465" lon="0.31951">
        <ele>499.4</ele>
        <time>2026-07-08T10:51:26Z</time>
      </trkpt>
      <trkpt lat="43.02466" lon="0.31951">
        <ele>498.4</ele>
        <time>2026-07-08T10:51:27Z</time>
      </trkpt>
      <trkpt lat="43.02467" lon="0.3195">
        <ele>498.4</ele>
        <time>2026-07-08T10:51:28Z</time>
      </trkpt>
      <trkpt lat="43.02468" lon="0.3195">
        <ele>498.4</ele>
        <time>2026-07-08T10:51:28Z</time>
      </trkpt>
      <trkpt lat="43.02468" lon="0.31949">
        <ele>498.4</ele>
        <time>2026-07-08T10:51:29Z</time>
      </trkpt>
      <trkpt lat="43.02469" lon="0.31949">
        <ele>498.4</ele>
        <time>2026-07-08T10:51:29Z</time>
      </trkpt>
      <trkpt lat="43.02469" lon="0.31948">
        <ele>498.4</ele>
        <time>2026-07-08T10:51:30Z</time>
      </trkpt>
      <trkpt lat="43.0247" lon="0.31947">
        <ele>499.4</ele>
        <time>2026-07-08T10:51:31Z</time>
      </trkpt>
      <trkpt lat="43.02471" lon="0.31947">
        <ele>499.4</ele>
        <time>2026-07-08T10:51:31Z</time>
      </trkpt>
      <trkpt lat="43.02472" lon="0.31946">
        <ele>499.4</ele>
        <time>2026-07-08T10:51:32Z</time>
      </trkpt>
      <trkpt lat="43.02472" lon="0.31946">
        <ele>499.4</ele>
        <time>2026-07-08T10:51:32Z</time>
      </trkpt>
      <trkpt lat="43.02473" lon="0.31945">
        <ele>499.4</ele>
        <time>2026-07-08T10:51:33Z</time>
      </trkpt>
      <trkpt lat="43.02473" lon="0.31945">
        <ele>499.4</ele>
        <time>2026-07-08T10:51:33Z</time>
      </trkpt>
      <trkpt lat="43.02474" lon="0.31944">
        <ele>499.4</ele>
        <time>2026-07-08T10:51:34Z</time>
      </trkpt>
      <trkpt lat="43.02474" lon="0.31943">
        <ele>498.4</ele>
        <time>2026-07-08T10:51:34Z</time>
      </trkpt>
      <trkpt lat="43.02475" lon="0.31943">
        <ele>498.4</ele>
        <time>2026-07-08T10:51:35Z</time>
      </trkpt>
      <trkpt lat="43.02476" lon="0.31942">
        <ele>498.4</ele>
        <time>2026-07-08T10:51:35Z</time>
      </trkpt>
      <trkpt lat="43.02476" lon="0.31942">
        <ele>498.4</ele>
        <time>2026-07-08T10:51:36Z</time>
      </trkpt>
      <trkpt lat="43.02477" lon="0.31941">
        <ele>498.4</ele>
        <time>2026-07-08T10:51:36Z</time>
      </trkpt>
      <trkpt lat="43.02477" lon="0.3194">
        <ele>498.4</ele>
        <time>2026-07-08T10:51:37Z</time>
      </trkpt>
      <trkpt lat="43.02478" lon="0.3194">
        <ele>498.4</ele>
        <time>2026-07-08T10:51:38Z</time>
      </trkpt>
      <trkpt lat="43.02479" lon="0.31939">
        <ele>498.4</ele>
        <time>2026-07-08T10:51:38Z</time>
      </trkpt>
      <trkpt lat="43.0248" lon="0.31939">
        <ele>498.4</ele>
        <time>2026-07-08T10:51:39Z</time>
      </trkpt>
      <trkpt lat="43.0248" lon="0.31938">
        <ele>497.4</ele>
        <time>2026-07-08T10:51:39Z</time>
      </trkpt>
      <trkpt lat="43.02481" lon="0.31937">
        <ele>497.4</ele>
        <time>2026-07-08T10:51:40Z</time>
      </trkpt>
      <trkpt lat="43.02482" lon="0.31937">
        <ele>497.4</ele>
        <time>2026-07-08T10:51:40Z</time>
      </trkpt>
      <trkpt lat="43.02482" lon="0.31936">
        <ele>497.4</ele>
        <time>2026-07-08T10:51:41Z</time>
      </trkpt>
      <trkpt lat="43.02483" lon="0.31936">
        <ele>497.4</ele>
        <time>2026-07-08T10:51:41Z</time>
      </trkpt>
      <trkpt lat="43.02483" lon="0.31935">
        <ele>497.4</ele>
        <time>2026-07-08T10:51:42Z</time>
      </trkpt>
      <trkpt lat="43.02484" lon="0.31935">
        <ele>498.4</ele>
        <time>2026-07-08T10:51:42Z</time>
      </trkpt>
      <trkpt lat="43.02485" lon="0.31934">
        <ele>498.4</ele>
        <time>2026-07-08T10:51:43Z</time>
      </trkpt>
      <trkpt lat="43.02485" lon="0.31934">
        <ele>498.4</ele>
        <time>2026-07-08T10:51:43Z</time>
      </trkpt>
      <trkpt lat="43.02486" lon="0.31933">
        <ele>498.4</ele>
        <time>2026-07-08T10:51:44Z</time>
      </trkpt>
      <trkpt lat="43.02486" lon="0.31933">
        <ele>498.4</ele>
        <time>2026-07-08T10:51:44Z</time>
      </trkpt>
      <trkpt lat="43.02487" lon="0.31932">
        <ele>498.4</ele>
        <time>2026-07-08T10:51:45Z</time>
      </trkpt>
      <trkpt lat="43.02488" lon="0.31931">
        <ele>498.4</ele>
        <time>2026-07-08T10:51:46Z</time>
      </trkpt>
      <trkpt lat="43.02489" lon="0.3193">
        <ele>498.4</ele>
        <time>2026-07-08T10:51:46Z</time>
      </trkpt>
      <trkpt lat="43.0249" lon="0.3193">
        <ele>498.4</ele>
        <time>2026-07-08T10:51:47Z</time>
      </trkpt>
      <trkpt lat="43.0249" lon="0.31929">
        <ele>498.4</ele>
        <time>2026-07-08T10:51:47Z</time>
      </trkpt>
      <trkpt lat="43.02491" lon="0.31929">
        <ele>498.4</ele>
        <time>2026-07-08T10:51:48Z</time>
      </trkpt>
      <trkpt lat="43.02491" lon="0.31928">
        <ele>498.4</ele>
        <time>2026-07-08T10:51:48Z</time>
      </trkpt>
      <trkpt lat="43.02492" lon="0.31928">
        <ele>498.4</ele>
        <time>2026-07-08T10:51:49Z</time>
      </trkpt>
      <trkpt lat="43.02493" lon="0.31927">
        <ele>498.4</ele>
        <time>2026-07-08T10:51:50Z</time>
      </trkpt>
      <trkpt lat="43.02494" lon="0.31927">
        <ele>497.4</ele>
        <time>2026-07-08T10:51:51Z</time>
      </trkpt>
      <trkpt lat="43.02494" lon="0.31926">
        <ele>498.4</ele>
        <time>2026-07-08T10:51:51Z</time>
      </trkpt>
      <trkpt lat="43.02495" lon="0.31926">
        <ele>498.4</ele>
        <time>2026-07-08T10:51:52Z</time>
      </trkpt>
      <trkpt lat="43.02495" lon="0.31925">
        <ele>498.4</ele>
        <time>2026-07-08T10:51:52Z</time>
      </trkpt>
      <trkpt lat="43.02496" lon="0.31925">
        <ele>498.4</ele>
        <time>2026-07-08T10:51:53Z</time>
      </trkpt>
      <trkpt lat="43.02497" lon="0.31925">
        <ele>498.4</ele>
        <time>2026-07-08T10:51:53Z</time>
      </trkpt>
      <trkpt lat="43.02497" lon="0.31924">
        <ele>498.4</ele>
        <time>2026-07-08T10:51:54Z</time>
      </trkpt>
      <trkpt lat="43.02498" lon="0.31924">
        <ele>498.4</ele>
        <time>2026-07-08T10:51:54Z</time>
      </trkpt>
      <trkpt lat="43.02499" lon="0.31923">
        <ele>497.4</ele>
        <time>2026-07-08T10:51:55Z</time>
      </trkpt>
      <trkpt lat="43.025" lon="0.31923">
        <ele>497.4</ele>
        <time>2026-07-08T10:51:56Z</time>
      </trkpt>
      <trkpt lat="43.025" lon="0.31923">
        <ele>497.4</ele>
        <time>2026-07-08T10:51:56Z</time>
      </trkpt>
      <trkpt lat="43.02501" lon="0.31922">
        <ele>497.4</ele>
        <time>2026-07-08T10:51:57Z</time>
      </trkpt>
      <trkpt lat="43.02501" lon="0.31922">
        <ele>497.4</ele>
        <time>2026-07-08T10:51:57Z</time>
      </trkpt>
      <trkpt lat="43.02502" lon="0.31921">
        <ele>497.4</ele>
        <time>2026-07-08T10:51:58Z</time>
      </trkpt>
      <trkpt lat="43.02503" lon="0.31921">
        <ele>497.4</ele>
        <time>2026-07-08T10:51:58Z</time>
      </trkpt>
      <trkpt lat="43.02503" lon="0.3192">
        <ele>497.4</ele>
        <time>2026-07-08T10:51:59Z</time>
      </trkpt>
      <trkpt lat="43.02503" lon="0.3192">
        <ele>496.4</ele>
        <time>2026-07-08T10:51:59Z</time>
      </trkpt>
      <trkpt lat="43.02504" lon="0.31919">
        <ele>496.4</ele>
        <time>2026-07-08T10:52:00Z</time>
      </trkpt>
      <trkpt lat="43.02504" lon="0.31919">
        <ele>496.4</ele>
        <time>2026-07-08T10:52:00Z</time>
      </trkpt>
      <trkpt lat="43.02505" lon="0.31919">
        <ele>496.4</ele>
        <time>2026-07-08T10:52:01Z</time>
      </trkpt>
      <trkpt lat="43.02505" lon="0.31918">
        <ele>495.4</ele>
        <time>2026-07-08T10:52:01Z</time>
      </trkpt>
      <trkpt lat="43.02506" lon="0.31918">
        <ele>495.4</ele>
        <time>2026-07-08T10:52:02Z</time>
      </trkpt>
      <trkpt lat="43.02506" lon="0.31918">
        <ele>495.4</ele>
        <time>2026-07-08T10:52:02Z</time>
      </trkpt>
      <trkpt lat="43.02506" lon="0.31918">
        <ele>495.4</ele>
        <time>2026-07-08T10:52:03Z</time>
      </trkpt>
      <trkpt lat="43.02507" lon="0.31917">
        <ele>495.4</ele>
        <time>2026-07-08T10:52:03Z</time>
      </trkpt>
      <trkpt lat="43.02507" lon="0.31917">
        <ele>495.4</ele>
        <time>2026-07-08T10:52:04Z</time>
      </trkpt>
      <trkpt lat="43.02508" lon="0.31917">
        <ele>495.4</ele>
        <time>2026-07-08T10:52:05Z</time>
      </trkpt>
      <trkpt lat="43.02509" lon="0.31917">
        <ele>495.4</ele>
        <time>2026-07-08T10:52:05Z</time>
      </trkpt>
      <trkpt lat="43.02509" lon="0.31917">
        <ele>495.4</ele>
        <time>2026-07-08T10:52:06Z</time>
      </trkpt>
      <trkpt lat="43.0251" lon="0.31916">
        <ele>495.4</ele>
        <time>2026-07-08T10:52:06Z</time>
      </trkpt>
      <trkpt lat="43.0251" lon="0.31916">
        <ele>495.4</ele>
        <time>2026-07-08T10:52:07Z</time>
      </trkpt>
      <trkpt lat="43.02511" lon="0.31916">
        <ele>494.4</ele>
        <time>2026-07-08T10:52:08Z</time>
      </trkpt>
      <trkpt lat="43.02511" lon="0.31916">
        <ele>494.4</ele>
        <time>2026-07-08T10:52:08Z</time>
      </trkpt>
      <trkpt lat="43.02511" lon="0.31915">
        <ele>494.4</ele>
        <time>2026-07-08T10:52:09Z</time>
      </trkpt>
      <trkpt lat="43.02512" lon="0.31915">
        <ele>493.4</ele>
        <time>2026-07-08T10:52:09Z</time>
      </trkpt>
      <trkpt lat="43.02513" lon="0.31915">
        <ele>493.4</ele>
        <time>2026-07-08T10:52:10Z</time>
      </trkpt>
      <trkpt lat="43.02513" lon="0.31914">
        <ele>493.4</ele>
        <time>2026-07-08T10:52:10Z</time>
      </trkpt>
      <trkpt lat="43.02514" lon="0.31914">
        <ele>493.4</ele>
        <time>2026-07-08T10:52:11Z</time>
      </trkpt>
      <trkpt lat="43.02514" lon="0.31913">
        <ele>492.4</ele>
        <time>2026-07-08T10:52:11Z</time>
      </trkpt>
      <trkpt lat="43.02515" lon="0.31913">
        <ele>492.4</ele>
        <time>2026-07-08T10:52:12Z</time>
      </trkpt>
      <trkpt lat="43.02515" lon="0.31912">
        <ele>493.4</ele>
        <time>2026-07-08T10:52:12Z</time>
      </trkpt>
      <trkpt lat="43.02515" lon="0.31912">
        <ele>493.4</ele>
        <time>2026-07-08T10:52:13Z</time>
      </trkpt>
      <trkpt lat="43.02516" lon="0.31911">
        <ele>492.4</ele>
        <time>2026-07-08T10:52:13Z</time>
      </trkpt>
      <trkpt lat="43.02516" lon="0.31911">
        <ele>492.4</ele>
        <time>2026-07-08T10:52:14Z</time>
      </trkpt>
      <trkpt lat="43.02517" lon="0.3191">
        <ele>492.4</ele>
        <time>2026-07-08T10:52:14Z</time>
      </trkpt>
      <trkpt lat="43.02518" lon="0.3191">
        <ele>492.4</ele>
        <time>2026-07-08T10:52:15Z</time>
      </trkpt>
      <trkpt lat="43.02518" lon="0.31909">
        <ele>491.4</ele>
        <time>2026-07-08T10:52:15Z</time>
      </trkpt>
      <trkpt lat="43.02519" lon="0.31908">
        <ele>491.4</ele>
        <time>2026-07-08T10:52:16Z</time>
      </trkpt>
      <trkpt lat="43.02519" lon="0.31908">
        <ele>491.4</ele>
        <time>2026-07-08T10:52:16Z</time>
      </trkpt>
      <trkpt lat="43.02519" lon="0.31907">
        <ele>491.4</ele>
        <time>2026-07-08T10:52:17Z</time>
      </trkpt>
      <trkpt lat="43.0252" lon="0.31906">
        <ele>490.4</ele>
        <time>2026-07-08T10:52:17Z</time>
      </trkpt>
      <trkpt lat="43.0252" lon="0.31906">
        <ele>490.4</ele>
        <time>2026-07-08T10:52:18Z</time>
      </trkpt>
      <trkpt lat="43.02521" lon="0.31905">
        <ele>490.4</ele>
        <time>2026-07-08T10:52:18Z</time>
      </trkpt>
      <trkpt lat="43.02521" lon="0.31905">
        <ele>490.4</ele>
        <time>2026-07-08T10:52:19Z</time>
      </trkpt>
      <trkpt lat="43.02521" lon="0.31904">
        <ele>490.4</ele>
        <time>2026-07-08T10:52:19Z</time>
      </trkpt>
      <trkpt lat="43.02522" lon="0.31904">
        <ele>490.4</ele>
        <time>2026-07-08T10:52:20Z</time>
      </trkpt>
      <trkpt lat="43.02523" lon="0.31903">
        <ele>490.4</ele>
        <time>2026-07-08T10:52:20Z</time>
      </trkpt>
      <trkpt lat="43.02523" lon="0.31903">
        <ele>490.4</ele>
        <time>2026-07-08T10:52:21Z</time>
      </trkpt>
      <trkpt lat="43.02524" lon="0.31902">
        <ele>490.4</ele>
        <time>2026-07-08T10:52:22Z</time>
      </trkpt>
      <trkpt lat="43.02525" lon="0.31902">
        <ele>489.4</ele>
        <time>2026-07-08T10:52:22Z</time>
      </trkpt>
      <trkpt lat="43.02525" lon="0.31902">
        <ele>489.4</ele>
        <time>2026-07-08T10:52:23Z</time>
      </trkpt>
      <trkpt lat="43.02526" lon="0.31901">
        <ele>489.4</ele>
        <time>2026-07-08T10:52:23Z</time>
      </trkpt>
      <trkpt lat="43.02527" lon="0.31901">
        <ele>489.4</ele>
        <time>2026-07-08T10:52:24Z</time>
      </trkpt>
      <trkpt lat="43.02528" lon="0.31901">
        <ele>489.4</ele>
        <time>2026-07-08T10:52:24Z</time>
      </trkpt>
      <trkpt lat="43.02528" lon="0.319">
        <ele>489.4</ele>
        <time>2026-07-08T10:52:25Z</time>
      </trkpt>
      <trkpt lat="43.02529" lon="0.319">
        <ele>490.4</ele>
        <time>2026-07-08T10:52:25Z</time>
      </trkpt>
      <trkpt lat="43.0253" lon="0.319">
        <ele>490.4</ele>
        <time>2026-07-08T10:52:26Z</time>
      </trkpt>
      <trkpt lat="43.0253" lon="0.31899">
        <ele>490.4</ele>
        <time>2026-07-08T10:52:26Z</time>
      </trkpt>
      <trkpt lat="43.02531" lon="0.31899">
        <ele>490.4</ele>
        <time>2026-07-08T10:52:27Z</time>
      </trkpt>
      <trkpt lat="43.02532" lon="0.31899">
        <ele>490.4</ele>
        <time>2026-07-08T10:52:27Z</time>
      </trkpt>
      <trkpt lat="43.02533" lon="0.31898">
        <ele>490.4</ele>
        <time>2026-07-08T10:52:28Z</time>
      </trkpt>
      <trkpt lat="43.02533" lon="0.31898">
        <ele>490.4</ele>
        <time>2026-07-08T10:52:28Z</time>
      </trkpt>
      <trkpt lat="43.02534" lon="0.31897">
        <ele>490.4</ele>
        <time>2026-07-08T10:52:29Z</time>
      </trkpt>
      <trkpt lat="43.02535" lon="0.31896">
        <ele>489.4</ele>
        <time>2026-07-08T10:52:29Z</time>
      </trkpt>
      <trkpt lat="43.02535" lon="0.31896">
        <ele>489.4</ele>
        <time>2026-07-08T10:52:30Z</time>
      </trkpt>
      <trkpt lat="43.02536" lon="0.31895">
        <ele>490.4</ele>
        <time>2026-07-08T10:52:30Z</time>
      </trkpt>
      <trkpt lat="43.02537" lon="0.31895">
        <ele>490.4</ele>
        <time>2026-07-08T10:52:31Z</time>
      </trkpt>
      <trkpt lat="43.02538" lon="0.31894">
        <ele>489.4</ele>
        <time>2026-07-08T10:52:31Z</time>
      </trkpt>
      <trkpt lat="43.02538" lon="0.31894">
        <ele>489.4</ele>
        <time>2026-07-08T10:52:32Z</time>
      </trkpt>
      <trkpt lat="43.02539" lon="0.31893">
        <ele>490.4</ele>
        <time>2026-07-08T10:52:32Z</time>
      </trkpt>
      <trkpt lat="43.0254" lon="0.31893">
        <ele>490.4</ele>
        <time>2026-07-08T10:52:33Z</time>
      </trkpt>
      <trkpt lat="43.0254" lon="0.31892">
        <ele>489.4</ele>
        <time>2026-07-08T10:52:33Z</time>
      </trkpt>
      <trkpt lat="43.02541" lon="0.31891">
        <ele>489.4</ele>
        <time>2026-07-08T10:52:34Z</time>
      </trkpt>
      <trkpt lat="43.02542" lon="0.31891">
        <ele>488.4</ele>
        <time>2026-07-08T10:52:35Z</time>
      </trkpt>
      <trkpt lat="43.02542" lon="0.3189">
        <ele>488.4</ele>
        <time>2026-07-08T10:52:35Z</time>
      </trkpt>
      <trkpt lat="43.02543" lon="0.31889">
        <ele>488.4</ele>
        <time>2026-07-08T10:52:36Z</time>
      </trkpt>
      <trkpt lat="43.02544" lon="0.31889">
        <ele>488.4</ele>
        <time>2026-07-08T10:52:36Z</time>
      </trkpt>
      <trkpt lat="43.02545" lon="0.31888">
        <ele>488.4</ele>
        <time>2026-07-08T10:52:37Z</time>
      </trkpt>
      <trkpt lat="43.02546" lon="0.31888">
        <ele>488.4</ele>
        <time>2026-07-08T10:52:37Z</time>
      </trkpt>
      <trkpt lat="43.02546" lon="0.31887">
        <ele>488.4</ele>
        <time>2026-07-08T10:52:38Z</time>
      </trkpt>
      <trkpt lat="43.02548" lon="0.31887">
        <ele>488.4</ele>
        <time>2026-07-08T10:52:38Z</time>
      </trkpt>
      <trkpt lat="43.02548" lon="0.31887">
        <ele>488.4</ele>
        <time>2026-07-08T10:52:39Z</time>
      </trkpt>
      <trkpt lat="43.02549" lon="0.31886">
        <ele>488.4</ele>
        <time>2026-07-08T10:52:39Z</time>
      </trkpt>
      <trkpt lat="43.0255" lon="0.31886">
        <ele>488.4</ele>
        <time>2026-07-08T10:52:40Z</time>
      </trkpt>
      <trkpt lat="43.02551" lon="0.31886">
        <ele>489.4</ele>
        <time>2026-07-08T10:52:40Z</time>
      </trkpt>
      <trkpt lat="43.02552" lon="0.31885">
        <ele>489.4</ele>
        <time>2026-07-08T10:52:41Z</time>
      </trkpt>
      <trkpt lat="43.02553" lon="0.31885">
        <ele>488.4</ele>
        <time>2026-07-08T10:52:41Z</time>
      </trkpt>
      <trkpt lat="43.02553" lon="0.31885">
        <ele>488.4</ele>
        <time>2026-07-08T10:52:42Z</time>
      </trkpt>
      <trkpt lat="43.02555" lon="0.31885">
        <ele>489.4</ele>
        <time>2026-07-08T10:52:42Z</time>
      </trkpt>
      <trkpt lat="43.02556" lon="0.31884">
        <ele>488.4</ele>
        <time>2026-07-08T10:52:43Z</time>
      </trkpt>
      <trkpt lat="43.02557" lon="0.31884">
        <ele>488.4</ele>
        <time>2026-07-08T10:52:44Z</time>
      </trkpt>
      <trkpt lat="43.02558" lon="0.31884">
        <ele>488.4</ele>
        <time>2026-07-08T10:52:44Z</time>
      </trkpt>
      <trkpt lat="43.02559" lon="0.31884">
        <ele>488.4</ele>
        <time>2026-07-08T10:52:45Z</time>
      </trkpt>
      <trkpt lat="43.0256" lon="0.31884">
        <ele>489.4</ele>
        <time>2026-07-08T10:52:45Z</time>
      </trkpt>
      <trkpt lat="43.02561" lon="0.31883">
        <ele>489.4</ele>
        <time>2026-07-08T10:52:46Z</time>
      </trkpt>
      <trkpt lat="43.02562" lon="0.31883">
        <ele>489.4</ele>
        <time>2026-07-08T10:52:47Z</time>
      </trkpt>
      <trkpt lat="43.02564" lon="0.31883">
        <ele>489.4</ele>
        <time>2026-07-08T10:52:48Z</time>
      </trkpt>
      <trkpt lat="43.02564" lon="0.31883">
        <ele>489.4</ele>
        <time>2026-07-08T10:52:48Z</time>
      </trkpt>
      <trkpt lat="43.02566" lon="0.31883">
        <ele>489.4</ele>
        <time>2026-07-08T10:52:49Z</time>
      </trkpt>
      <trkpt lat="43.02566" lon="0.31883">
        <ele>489.4</ele>
        <time>2026-07-08T10:52:49Z</time>
      </trkpt>
      <trkpt lat="43.02567" lon="0.31883">
        <ele>489.4</ele>
        <time>2026-07-08T10:52:50Z</time>
      </trkpt>
      <trkpt lat="43.02568" lon="0.31883">
        <ele>489.4</ele>
        <time>2026-07-08T10:52:50Z</time>
      </trkpt>
      <trkpt lat="43.02569" lon="0.31883">
        <ele>489.4</ele>
        <time>2026-07-08T10:52:51Z</time>
      </trkpt>
      <trkpt lat="43.0257" lon="0.31883">
        <ele>489.4</ele>
        <time>2026-07-08T10:52:51Z</time>
      </trkpt>
      <trkpt lat="43.02571" lon="0.31883">
        <ele>489.4</ele>
        <time>2026-07-08T10:52:52Z</time>
      </trkpt>
      <trkpt lat="43.02571" lon="0.31883">
        <ele>488.4</ele>
        <time>2026-07-08T10:52:52Z</time>
      </trkpt>
      <trkpt lat="43.02572" lon="0.31883">
        <ele>488.4</ele>
        <time>2026-07-08T10:52:53Z</time>
      </trkpt>
      <trkpt lat="43.02573" lon="0.31883">
        <ele>489.4</ele>
        <time>2026-07-08T10:52:53Z</time>
      </trkpt>
      <trkpt lat="43.02574" lon="0.31882">
        <ele>489.4</ele>
        <time>2026-07-08T10:52:54Z</time>
      </trkpt>
      <trkpt lat="43.02575" lon="0.31883">
        <ele>489.4</ele>
        <time>2026-07-08T10:52:54Z</time>
      </trkpt>
      <trkpt lat="43.02576" lon="0.31883">
        <ele>489.4</ele>
        <time>2026-07-08T10:52:55Z</time>
      </trkpt>
      <trkpt lat="43.02577" lon="0.31883">
        <ele>489.4</ele>
        <time>2026-07-08T10:52:56Z</time>
      </trkpt>
      <trkpt lat="43.02578" lon="0.31883">
        <ele>490.4</ele>
        <time>2026-07-08T10:52:56Z</time>
      </trkpt>
      <trkpt lat="43.02579" lon="0.31883">
        <ele>490.4</ele>
        <time>2026-07-08T10:52:57Z</time>
      </trkpt>
      <trkpt lat="43.02579" lon="0.31883">
        <ele>489.4</ele>
        <time>2026-07-08T10:52:57Z</time>
      </trkpt>
      <trkpt lat="43.0258" lon="0.31883">
        <ele>489.4</ele>
        <time>2026-07-08T10:52:58Z</time>
      </trkpt>
      <trkpt lat="43.02581" lon="0.31883">
        <ele>489.4</ele>
        <time>2026-07-08T10:52:58Z</time>
      </trkpt>
      <trkpt lat="43.02582" lon="0.31884">
        <ele>489.4</ele>
        <time>2026-07-08T10:52:59Z</time>
      </trkpt>
      <trkpt lat="43.02582" lon="0.31884">
        <ele>489.4</ele>
        <time>2026-07-08T10:52:59Z</time>
      </trkpt>
      <trkpt lat="43.02583" lon="0.31884">
        <ele>489.4</ele>
        <time>2026-07-08T10:53:00Z</time>
      </trkpt>
      <trkpt lat="43.02584" lon="0.31884">
        <ele>490.4</ele>
        <time>2026-07-08T10:53:01Z</time>
      </trkpt>
      <trkpt lat="43.02585" lon="0.31884">
        <ele>490.4</ele>
        <time>2026-07-08T10:53:01Z</time>
      </trkpt>
      <trkpt lat="43.02586" lon="0.31884">
        <ele>490.4</ele>
        <time>2026-07-08T10:53:02Z</time>
      </trkpt>
      <trkpt lat="43.02586" lon="0.31885">
        <ele>490.4</ele>
        <time>2026-07-08T10:53:02Z</time>
      </trkpt>
      <trkpt lat="43.02587" lon="0.31885">
        <ele>490.4</ele>
        <time>2026-07-08T10:53:03Z</time>
      </trkpt>
      <trkpt lat="43.02588" lon="0.31885">
        <ele>490.4</ele>
        <time>2026-07-08T10:53:04Z</time>
      </trkpt>
      <trkpt lat="43.02588" lon="0.31885">
        <ele>490.4</ele>
        <time>2026-07-08T10:53:04Z</time>
      </trkpt>
      <trkpt lat="43.02589" lon="0.31885">
        <ele>490.4</ele>
        <time>2026-07-08T10:53:05Z</time>
      </trkpt>
      <trkpt lat="43.0259" lon="0.31886">
        <ele>490.4</ele>
        <time>2026-07-08T10:53:05Z</time>
      </trkpt>
      <trkpt lat="43.0259" lon="0.31886">
        <ele>490.4</ele>
        <time>2026-07-08T10:53:06Z</time>
      </trkpt>
      <trkpt lat="43.02591" lon="0.31886">
        <ele>490.4</ele>
        <time>2026-07-08T10:53:06Z</time>
      </trkpt>
      <trkpt lat="43.02592" lon="0.31886">
        <ele>490.4</ele>
        <time>2026-07-08T10:53:07Z</time>
      </trkpt>
      <trkpt lat="43.02593" lon="0.31886">
        <ele>489.4</ele>
        <time>2026-07-08T10:53:08Z</time>
      </trkpt>
      <trkpt lat="43.02594" lon="0.31887">
        <ele>490.4</ele>
        <time>2026-07-08T10:53:08Z</time>
      </trkpt>
      <trkpt lat="43.02594" lon="0.31887">
        <ele>490.4</ele>
        <time>2026-07-08T10:53:09Z</time>
      </trkpt>
      <trkpt lat="43.02595" lon="0.31887">
        <ele>489.4</ele>
        <time>2026-07-08T10:53:09Z</time>
      </trkpt>
      <trkpt lat="43.02596" lon="0.31887">
        <ele>489.4</ele>
        <time>2026-07-08T10:53:10Z</time>
      </trkpt>
      <trkpt lat="43.02596" lon="0.31887">
        <ele>489.4</ele>
        <time>2026-07-08T10:53:10Z</time>
      </trkpt>
      <trkpt lat="43.02597" lon="0.31887">
        <ele>489.4</ele>
        <time>2026-07-08T10:53:11Z</time>
      </trkpt>
      <trkpt lat="43.02597" lon="0.31888">
        <ele>489.4</ele>
        <time>2026-07-08T10:53:11Z</time>
      </trkpt>
      <trkpt lat="43.02598" lon="0.31888">
        <ele>489.4</ele>
        <time>2026-07-08T10:53:12Z</time>
      </trkpt>
      <trkpt lat="43.02599" lon="0.31888">
        <ele>489.4</ele>
        <time>2026-07-08T10:53:12Z</time>
      </trkpt>
      <trkpt lat="43.026" lon="0.31888">
        <ele>489.4</ele>
        <time>2026-07-08T10:53:13Z</time>
      </trkpt>
      <trkpt lat="43.026" lon="0.31888">
        <ele>489.4</ele>
        <time>2026-07-08T10:53:13Z</time>
      </trkpt>
      <trkpt lat="43.02601" lon="0.31888">
        <ele>489.4</ele>
        <time>2026-07-08T10:53:14Z</time>
      </trkpt>
      <trkpt lat="43.02602" lon="0.31888">
        <ele>489.4</ele>
        <time>2026-07-08T10:53:14Z</time>
      </trkpt>
      <trkpt lat="43.02602" lon="0.31888">
        <ele>489.4</ele>
        <time>2026-07-08T10:53:15Z</time>
      </trkpt>
      <trkpt lat="43.02603" lon="0.31888">
        <ele>489.4</ele>
        <time>2026-07-08T10:53:15Z</time>
      </trkpt>
      <trkpt lat="43.02604" lon="0.31888">
        <ele>489.4</ele>
        <time>2026-07-08T10:53:16Z</time>
      </trkpt>
      <trkpt lat="43.02604" lon="0.31888">
        <ele>488.4</ele>
        <time>2026-07-08T10:53:17Z</time>
      </trkpt>
      <trkpt lat="43.02605" lon="0.31887">
        <ele>489.4</ele>
        <time>2026-07-08T10:53:17Z</time>
      </trkpt>
      <trkpt lat="43.02606" lon="0.31887">
        <ele>489.4</ele>
        <time>2026-07-08T10:53:18Z</time>
      </trkpt>
      <trkpt lat="43.02606" lon="0.31887">
        <ele>488.4</ele>
        <time>2026-07-08T10:53:18Z</time>
      </trkpt>
      <trkpt lat="43.02607" lon="0.31887">
        <ele>488.4</ele>
        <time>2026-07-08T10:53:19Z</time>
      </trkpt>
      <trkpt lat="43.02607" lon="0.31886">
        <ele>488.4</ele>
        <time>2026-07-08T10:53:19Z</time>
      </trkpt>
      <trkpt lat="43.02608" lon="0.31886">
        <ele>488.4</ele>
        <time>2026-07-08T10:53:20Z</time>
      </trkpt>
      <trkpt lat="43.02608" lon="0.31886">
        <ele>488.4</ele>
        <time>2026-07-08T10:53:20Z</time>
      </trkpt>
      <trkpt lat="43.02609" lon="0.31886">
        <ele>488.4</ele>
        <time>2026-07-08T10:53:21Z</time>
      </trkpt>
      <trkpt lat="43.0261" lon="0.31886">
        <ele>487.4</ele>
        <time>2026-07-08T10:53:21Z</time>
      </trkpt>
      <trkpt lat="43.02611" lon="0.31886">
        <ele>487.4</ele>
        <time>2026-07-08T10:53:22Z</time>
      </trkpt>
      <trkpt lat="43.02612" lon="0.31885">
        <ele>487.4</ele>
        <time>2026-07-08T10:53:23Z</time>
      </trkpt>
      <trkpt lat="43.02612" lon="0.31884">
        <ele>486.4</ele>
        <time>2026-07-08T10:53:23Z</time>
      </trkpt>
      <trkpt lat="43.02613" lon="0.31884">
        <ele>486.4</ele>
        <time>2026-07-08T10:53:24Z</time>
      </trkpt>
      <trkpt lat="43.02613" lon="0.31883">
        <ele>485.4</ele>
        <time>2026-07-08T10:53:24Z</time>
      </trkpt>
      <trkpt lat="43.02614" lon="0.31882">
        <ele>485.4</ele>
        <time>2026-07-08T10:53:25Z</time>
      </trkpt>
      <trkpt lat="43.02615" lon="0.31882">
        <ele>485.4</ele>
        <time>2026-07-08T10:53:25Z</time>
      </trkpt>
      <trkpt lat="43.02615" lon="0.31881">
        <ele>485.4</ele>
        <time>2026-07-08T10:53:26Z</time>
      </trkpt>
      <trkpt lat="43.02616" lon="0.3188">
        <ele>485.4</ele>
        <time>2026-07-08T10:53:26Z</time>
      </trkpt>
      <trkpt lat="43.02616" lon="0.3188">
        <ele>485.4</ele>
        <time>2026-07-08T10:53:27Z</time>
      </trkpt>
      <trkpt lat="43.02617" lon="0.31879">
        <ele>484.4</ele>
        <time>2026-07-08T10:53:28Z</time>
      </trkpt>
      <trkpt lat="43.02618" lon="0.31878">
        <ele>484.4</ele>
        <time>2026-07-08T10:53:28Z</time>
      </trkpt>
      <trkpt lat="43.02618" lon="0.31877">
        <ele>484.4</ele>
        <time>2026-07-08T10:53:29Z</time>
      </trkpt>
      <trkpt lat="43.02619" lon="0.31876">
        <ele>484.4</ele>
        <time>2026-07-08T10:53:29Z</time>
      </trkpt>
      <trkpt lat="43.02619" lon="0.31876">
        <ele>484.4</ele>
        <time>2026-07-08T10:53:30Z</time>
      </trkpt>
      <trkpt lat="43.0262" lon="0.31875">
        <ele>484.4</ele>
        <time>2026-07-08T10:53:30Z</time>
      </trkpt>
      <trkpt lat="43.02621" lon="0.31875">
        <ele>484.4</ele>
        <time>2026-07-08T10:53:31Z</time>
      </trkpt>
      <trkpt lat="43.02621" lon="0.31874">
        <ele>484.4</ele>
        <time>2026-07-08T10:53:31Z</time>
      </trkpt>
      <trkpt lat="43.02622" lon="0.31874">
        <ele>484.4</ele>
        <time>2026-07-08T10:53:32Z</time>
      </trkpt>
      <trkpt lat="43.02622" lon="0.31873">
        <ele>484.4</ele>
        <time>2026-07-08T10:53:32Z</time>
      </trkpt>
      <trkpt lat="43.02623" lon="0.31873">
        <ele>484.4</ele>
        <time>2026-07-08T10:53:33Z</time>
      </trkpt>
      <trkpt lat="43.02624" lon="0.31873">
        <ele>483.4</ele>
        <time>2026-07-08T10:53:33Z</time>
      </trkpt>
      <trkpt lat="43.02624" lon="0.31872">
        <ele>483.4</ele>
        <time>2026-07-08T10:53:34Z</time>
      </trkpt>
      <trkpt lat="43.02625" lon="0.31872">
        <ele>483.4</ele>
        <time>2026-07-08T10:53:34Z</time>
      </trkpt>
      <trkpt lat="43.02625" lon="0.31872">
        <ele>483.4</ele>
        <time>2026-07-08T10:53:35Z</time>
      </trkpt>
      <trkpt lat="43.02626" lon="0.31872">
        <ele>483.4</ele>
        <time>2026-07-08T10:53:35Z</time>
      </trkpt>
      <trkpt lat="43.02627" lon="0.31872">
        <ele>483.4</ele>
        <time>2026-07-08T10:53:36Z</time>
      </trkpt>
      <trkpt lat="43.02627" lon="0.31871">
        <ele>482.4</ele>
        <time>2026-07-08T10:53:36Z</time>
      </trkpt>
      <trkpt lat="43.02628" lon="0.31871">
        <ele>482.4</ele>
        <time>2026-07-08T10:53:37Z</time>
      </trkpt>
      <trkpt lat="43.02629" lon="0.31871">
        <ele>483.4</ele>
        <time>2026-07-08T10:53:37Z</time>
      </trkpt>
      <trkpt lat="43.02629" lon="0.3187">
        <ele>483.4</ele>
        <time>2026-07-08T10:53:38Z</time>
      </trkpt>
      <trkpt lat="43.0263" lon="0.3187">
        <ele>483.4</ele>
        <time>2026-07-08T10:53:39Z</time>
      </trkpt>
      <trkpt lat="43.02631" lon="0.31869">
        <ele>483.4</ele>
        <time>2026-07-08T10:53:39Z</time>
      </trkpt>
      <trkpt lat="43.02632" lon="0.31869">
        <ele>483.4</ele>
        <time>2026-07-08T10:53:40Z</time>
      </trkpt>
      <trkpt lat="43.02633" lon="0.31868">
        <ele>483.4</ele>
        <time>2026-07-08T10:53:41Z</time>
      </trkpt>
      <trkpt lat="43.02633" lon="0.31867">
        <ele>483.4</ele>
        <time>2026-07-08T10:53:41Z</time>
      </trkpt>
      <trkpt lat="43.02634" lon="0.31867">
        <ele>483.4</ele>
        <time>2026-07-08T10:53:42Z</time>
      </trkpt>
      <trkpt lat="43.02635" lon="0.31866">
        <ele>483.4</ele>
        <time>2026-07-08T10:53:42Z</time>
      </trkpt>
      <trkpt lat="43.02635" lon="0.31866">
        <ele>483.4</ele>
        <time>2026-07-08T10:53:43Z</time>
      </trkpt>
      <trkpt lat="43.02636" lon="0.31865">
        <ele>483.4</ele>
        <time>2026-07-08T10:53:43Z</time>
      </trkpt>
      <trkpt lat="43.02637" lon="0.31865">
        <ele>483.4</ele>
        <time>2026-07-08T10:53:44Z</time>
      </trkpt>
      <trkpt lat="43.02637" lon="0.31864">
        <ele>483.4</ele>
        <time>2026-07-08T10:53:44Z</time>
      </trkpt>
      <trkpt lat="43.02638" lon="0.31864">
        <ele>483.4</ele>
        <time>2026-07-08T10:53:45Z</time>
      </trkpt>
      <trkpt lat="43.02639" lon="0.31863">
        <ele>483.4</ele>
        <time>2026-07-08T10:53:45Z</time>
      </trkpt>
      <trkpt lat="43.02639" lon="0.31863">
        <ele>483.4</ele>
        <time>2026-07-08T10:53:46Z</time>
      </trkpt>
      <trkpt lat="43.0264" lon="0.31863">
        <ele>484.4</ele>
        <time>2026-07-08T10:53:46Z</time>
      </trkpt>
      <trkpt lat="43.02641" lon="0.31862">
        <ele>484.4</ele>
        <time>2026-07-08T10:53:47Z</time>
      </trkpt>
      <trkpt lat="43.02642" lon="0.31862">
        <ele>483.4</ele>
        <time>2026-07-08T10:53:47Z</time>
      </trkpt>
      <trkpt lat="43.02642" lon="0.31862">
        <ele>483.4</ele>
        <time>2026-07-08T10:53:48Z</time>
      </trkpt>
      <trkpt lat="43.02643" lon="0.31862">
        <ele>484.4</ele>
        <time>2026-07-08T10:53:48Z</time>
      </trkpt>
      <trkpt lat="43.02644" lon="0.31861">
        <ele>484.4</ele>
        <time>2026-07-08T10:53:49Z</time>
      </trkpt>
      <trkpt lat="43.02645" lon="0.31861">
        <ele>484.4</ele>
        <time>2026-07-08T10:53:50Z</time>
      </trkpt>
      <trkpt lat="43.02646" lon="0.3186">
        <ele>483.4</ele>
        <time>2026-07-08T10:53:50Z</time>
      </trkpt>
      <trkpt lat="43.02647" lon="0.3186">
        <ele>483.4</ele>
        <time>2026-07-08T10:53:51Z</time>
      </trkpt>
      <trkpt lat="43.02648" lon="0.31859">
        <ele>483.4</ele>
        <time>2026-07-08T10:53:52Z</time>
      </trkpt>
      <trkpt lat="43.02649" lon="0.31859">
        <ele>483.4</ele>
        <time>2026-07-08T10:53:53Z</time>
      </trkpt>
      <trkpt lat="43.0265" lon="0.31859">
        <ele>483.4</ele>
        <time>2026-07-08T10:53:53Z</time>
      </trkpt>
      <trkpt lat="43.0265" lon="0.31859">
        <ele>483.4</ele>
        <time>2026-07-08T10:53:54Z</time>
      </trkpt>
      <trkpt lat="43.02651" lon="0.31858">
        <ele>483.4</ele>
        <time>2026-07-08T10:53:54Z</time>
      </trkpt>
      <trkpt lat="43.02652" lon="0.31858">
        <ele>483.4</ele>
        <time>2026-07-08T10:53:55Z</time>
      </trkpt>
      <trkpt lat="43.02653" lon="0.31857">
        <ele>483.4</ele>
        <time>2026-07-08T10:53:56Z</time>
      </trkpt>
      <trkpt lat="43.02654" lon="0.31857">
        <ele>483.4</ele>
        <time>2026-07-08T10:53:56Z</time>
      </trkpt>
      <trkpt lat="43.02654" lon="0.31857">
        <ele>483.4</ele>
        <time>2026-07-08T10:53:57Z</time>
      </trkpt>
      <trkpt lat="43.02655" lon="0.31856">
        <ele>482.4</ele>
        <time>2026-07-08T10:53:57Z</time>
      </trkpt>
      <trkpt lat="43.02656" lon="0.31856">
        <ele>482.4</ele>
        <time>2026-07-08T10:53:58Z</time>
      </trkpt>
      <trkpt lat="43.02656" lon="0.31855">
        <ele>482.4</ele>
        <time>2026-07-08T10:53:58Z</time>
      </trkpt>
      <trkpt lat="43.02657" lon="0.31855">
        <ele>482.4</ele>
        <time>2026-07-08T10:53:59Z</time>
      </trkpt>
      <trkpt lat="43.02658" lon="0.31854">
        <ele>482.4</ele>
        <time>2026-07-08T10:53:59Z</time>
      </trkpt>
      <trkpt lat="43.02658" lon="0.31854">
        <ele>482.4</ele>
        <time>2026-07-08T10:54:00Z</time>
      </trkpt>
      <trkpt lat="43.02659" lon="0.31853">
        <ele>481.4</ele>
        <time>2026-07-08T10:54:00Z</time>
      </trkpt>
      <trkpt lat="43.02659" lon="0.31853">
        <ele>481.4</ele>
        <time>2026-07-08T10:54:01Z</time>
      </trkpt>
      <trkpt lat="43.0266" lon="0.31852">
        <ele>481.4</ele>
        <time>2026-07-08T10:54:01Z</time>
      </trkpt>
      <trkpt lat="43.02661" lon="0.31852">
        <ele>481.4</ele>
        <time>2026-07-08T10:54:02Z</time>
      </trkpt>
      <trkpt lat="43.02661" lon="0.31851">
        <ele>481.4</ele>
        <time>2026-07-08T10:54:02Z</time>
      </trkpt>
      <trkpt lat="43.02662" lon="0.31851">
        <ele>481.4</ele>
        <time>2026-07-08T10:54:03Z</time>
      </trkpt>
      <trkpt lat="43.02663" lon="0.3185">
        <ele>481.4</ele>
        <time>2026-07-08T10:54:04Z</time>
      </trkpt>
      <trkpt lat="43.02664" lon="0.31849">
        <ele>481.4</ele>
        <time>2026-07-08T10:54:04Z</time>
      </trkpt>
      <trkpt lat="43.02664" lon="0.31848">
        <ele>481.4</ele>
        <time>2026-07-08T10:54:05Z</time>
      </trkpt>
      <trkpt lat="43.02665" lon="0.31848">
        <ele>481.4</ele>
        <time>2026-07-08T10:54:06Z</time>
      </trkpt>
      <trkpt lat="43.02666" lon="0.31847">
        <ele>482.4</ele>
        <time>2026-07-08T10:54:06Z</time>
      </trkpt>
      <trkpt lat="43.02666" lon="0.31847">
        <ele>482.4</ele>
        <time>2026-07-08T10:54:07Z</time>
      </trkpt>
      <trkpt lat="43.02667" lon="0.31846">
        <ele>481.4</ele>
        <time>2026-07-08T10:54:07Z</time>
      </trkpt>
      <trkpt lat="43.02667" lon="0.31846">
        <ele>481.4</ele>
        <time>2026-07-08T10:54:07Z</time>
      </trkpt>
      <trkpt lat="43.02668" lon="0.31845">
        <ele>481.4</ele>
        <time>2026-07-08T10:54:08Z</time>
      </trkpt>
      <trkpt lat="43.02669" lon="0.31845">
        <ele>481.4</ele>
        <time>2026-07-08T10:54:09Z</time>
      </trkpt>
      <trkpt lat="43.0267" lon="0.31843">
        <ele>480.5</ele>
        <time>2026-07-08T10:54:10Z</time>
      </trkpt>
      <trkpt lat="43.0267" lon="0.31843">
        <ele>480.5</ele>
        <time>2026-07-08T10:54:11Z</time>
      </trkpt>
      <trkpt lat="43.02671" lon="0.31841">
        <ele>480.5</ele>
        <time>2026-07-08T10:54:12Z</time>
      </trkpt>
      <trkpt lat="43.02673" lon="0.31841">
        <ele>481.5</ele>
        <time>2026-07-08T10:54:13Z</time>
      </trkpt>
      <trkpt lat="43.02674" lon="0.3184">
        <ele>481.5</ele>
        <time>2026-07-08T10:54:14Z</time>
      </trkpt>
      <trkpt lat="43.02675" lon="0.31839">
        <ele>481.5</ele>
        <time>2026-07-08T10:54:15Z</time>
      </trkpt>
      <trkpt lat="43.02676" lon="0.31839">
        <ele>482.5</ele>
        <time>2026-07-08T10:54:15Z</time>
      </trkpt>
      <trkpt lat="43.02677" lon="0.31839">
        <ele>482.5</ele>
        <time>2026-07-08T10:54:16Z</time>
      </trkpt>
      <trkpt lat="43.02678" lon="0.31838">
        <ele>482.5</ele>
        <time>2026-07-08T10:54:17Z</time>
      </trkpt>
      <trkpt lat="43.02679" lon="0.31838">
        <ele>481.5</ele>
        <time>2026-07-08T10:54:17Z</time>
      </trkpt>
      <trkpt lat="43.0268" lon="0.31837">
        <ele>481.5</ele>
        <time>2026-07-08T10:54:18Z</time>
      </trkpt>
      <trkpt lat="43.02681" lon="0.31837">
        <ele>481.5</ele>
        <time>2026-07-08T10:54:18Z</time>
      </trkpt>
      <trkpt lat="43.02681" lon="0.31836">
        <ele>481.5</ele>
        <time>2026-07-08T10:54:19Z</time>
      </trkpt>
      <trkpt lat="43.02682" lon="0.31836">
        <ele>481.5</ele>
        <time>2026-07-08T10:54:19Z</time>
      </trkpt>
      <trkpt lat="43.02683" lon="0.31836">
        <ele>481.5</ele>
        <time>2026-07-08T10:54:20Z</time>
      </trkpt>
      <trkpt lat="43.02684" lon="0.31835">
        <ele>480.5</ele>
        <time>2026-07-08T10:54:21Z</time>
      </trkpt>
      <trkpt lat="43.02685" lon="0.31834">
        <ele>480.5</ele>
        <time>2026-07-08T10:54:22Z</time>
      </trkpt>
      <trkpt lat="43.02687" lon="0.31834">
        <ele>480.5</ele>
        <time>2026-07-08T10:54:23Z</time>
      </trkpt>
      <trkpt lat="43.02688" lon="0.31833">
        <ele>479.5</ele>
        <time>2026-07-08T10:54:23Z</time>
      </trkpt>
      <trkpt lat="43.02688" lon="0.31833">
        <ele>479.5</ele>
        <time>2026-07-08T10:54:24Z</time>
      </trkpt>
      <trkpt lat="43.02689" lon="0.31833">
        <ele>480.5</ele>
        <time>2026-07-08T10:54:24Z</time>
      </trkpt>
      <trkpt lat="43.0269" lon="0.31833">
        <ele>480.5</ele>
        <time>2026-07-08T10:54:25Z</time>
      </trkpt>
      <trkpt lat="43.0269" lon="0.31832">
        <ele>479.5</ele>
        <time>2026-07-08T10:54:25Z</time>
      </trkpt>
      <trkpt lat="43.02691" lon="0.31832">
        <ele>479.5</ele>
        <time>2026-07-08T10:54:26Z</time>
      </trkpt>
      <trkpt lat="43.02692" lon="0.31832">
        <ele>479.5</ele>
        <time>2026-07-08T10:54:26Z</time>
      </trkpt>
      <trkpt lat="43.02693" lon="0.31832">
        <ele>479.5</ele>
        <time>2026-07-08T10:54:27Z</time>
      </trkpt>
      <trkpt lat="43.02693" lon="0.31832">
        <ele>479.5</ele>
        <time>2026-07-08T10:54:27Z</time>
      </trkpt>
      <trkpt lat="43.02694" lon="0.31831">
        <ele>479.5</ele>
        <time>2026-07-08T10:54:28Z</time>
      </trkpt>
      <trkpt lat="43.02696" lon="0.31831">
        <ele>479.5</ele>
        <time>2026-07-08T10:54:29Z</time>
      </trkpt>
      <trkpt lat="43.02697" lon="0.31831">
        <ele>479.5</ele>
        <time>2026-07-08T10:54:29Z</time>
      </trkpt>
      <trkpt lat="43.02698" lon="0.3183">
        <ele>480.5</ele>
        <time>2026-07-08T10:54:30Z</time>
      </trkpt>
      <trkpt lat="43.02698" lon="0.3183">
        <ele>480.5</ele>
        <time>2026-07-08T10:54:30Z</time>
      </trkpt>
      <trkpt lat="43.02699" lon="0.3183">
        <ele>480.5</ele>
        <time>2026-07-08T10:54:31Z</time>
      </trkpt>
      <trkpt lat="43.027" lon="0.3183">
        <ele>479.5</ele>
        <time>2026-07-08T10:54:31Z</time>
      </trkpt>
      <trkpt lat="43.02701" lon="0.31829">
        <ele>479.5</ele>
        <time>2026-07-08T10:54:32Z</time>
      </trkpt>
      <trkpt lat="43.02702" lon="0.31829">
        <ele>479.5</ele>
        <time>2026-07-08T10:54:33Z</time>
      </trkpt>
      <trkpt lat="43.02702" lon="0.31829">
        <ele>479.5</ele>
        <time>2026-07-08T10:54:33Z</time>
      </trkpt>
      <trkpt lat="43.02703" lon="0.31829">
        <ele>479.5</ele>
        <time>2026-07-08T10:54:34Z</time>
      </trkpt>
      <trkpt lat="43.02704" lon="0.31829">
        <ele>479.5</ele>
        <time>2026-07-08T10:54:34Z</time>
      </trkpt>
      <trkpt lat="43.02705" lon="0.31828">
        <ele>479.5</ele>
        <time>2026-07-08T10:54:35Z</time>
      </trkpt>
      <trkpt lat="43.02706" lon="0.31828">
        <ele>479.5</ele>
        <time>2026-07-08T10:54:36Z</time>
      </trkpt>
      <trkpt lat="43.02707" lon="0.31828">
        <ele>479.5</ele>
        <time>2026-07-08T10:54:36Z</time>
      </trkpt>
      <trkpt lat="43.02708" lon="0.31828">
        <ele>478.5</ele>
        <time>2026-07-08T10:54:37Z</time>
      </trkpt>
      <trkpt lat="43.02709" lon="0.31828">
        <ele>478.5</ele>
        <time>2026-07-08T10:54:38Z</time>
      </trkpt>
      <trkpt lat="43.0271" lon="0.31828">
        <ele>478.5</ele>
        <time>2026-07-08T10:54:38Z</time>
      </trkpt>
      <trkpt lat="43.02711" lon="0.31828">
        <ele>479.5</ele>
        <time>2026-07-08T10:54:39Z</time>
      </trkpt>
      <trkpt lat="43.02712" lon="0.31828">
        <ele>479.5</ele>
        <time>2026-07-08T10:54:39Z</time>
      </trkpt>
      <trkpt lat="43.02713" lon="0.31828">
        <ele>478.5</ele>
        <time>2026-07-08T10:54:40Z</time>
      </trkpt>
      <trkpt lat="43.02714" lon="0.31828">
        <ele>478.5</ele>
        <time>2026-07-08T10:54:41Z</time>
      </trkpt>
      <trkpt lat="43.02715" lon="0.31828">
        <ele>479.5</ele>
        <time>2026-07-08T10:54:41Z</time>
      </trkpt>
      <trkpt lat="43.02715" lon="0.31828">
        <ele>479.5</ele>
        <time>2026-07-08T10:54:41Z</time>
      </trkpt>
      <trkpt lat="43.02716" lon="0.31828">
        <ele>479.5</ele>
        <time>2026-07-08T10:54:42Z</time>
      </trkpt>
      <trkpt lat="43.02717" lon="0.31828">
        <ele>479.5</ele>
        <time>2026-07-08T10:54:43Z</time>
      </trkpt>
      <trkpt lat="43.02718" lon="0.31828">
        <ele>479.5</ele>
        <time>2026-07-08T10:54:44Z</time>
      </trkpt>
      <trkpt lat="43.0272" lon="0.31828">
        <ele>478.5</ele>
        <time>2026-07-08T10:54:45Z</time>
      </trkpt>
      <trkpt lat="43.02721" lon="0.31828">
        <ele>478.5</ele>
        <time>2026-07-08T10:54:46Z</time>
      </trkpt>
      <trkpt lat="43.02722" lon="0.31828">
        <ele>477.5</ele>
        <time>2026-07-08T10:54:46Z</time>
      </trkpt>
      <trkpt lat="43.02723" lon="0.31828">
        <ele>477.5</ele>
        <time>2026-07-08T10:54:47Z</time>
      </trkpt>
      <trkpt lat="43.02724" lon="0.31828">
        <ele>477.5</ele>
        <time>2026-07-08T10:54:48Z</time>
      </trkpt>
      <trkpt lat="43.02726" lon="0.31828">
        <ele>476.5</ele>
        <time>2026-07-08T10:54:49Z</time>
      </trkpt>
      <trkpt lat="43.02727" lon="0.31828">
        <ele>475.5</ele>
        <time>2026-07-08T10:54:50Z</time>
      </trkpt>
      <trkpt lat="43.02728" lon="0.31828">
        <ele>475.5</ele>
        <time>2026-07-08T10:54:51Z</time>
      </trkpt>
      <trkpt lat="43.02729" lon="0.31828">
        <ele>475.5</ele>
        <time>2026-07-08T10:54:52Z</time>
      </trkpt>
      <trkpt lat="43.0273" lon="0.31828">
        <ele>475.5</ele>
        <time>2026-07-08T10:54:52Z</time>
      </trkpt>
      <trkpt lat="43.02731" lon="0.31828">
        <ele>475.5</ele>
        <time>2026-07-08T10:54:53Z</time>
      </trkpt>
      <trkpt lat="43.02732" lon="0.31828">
        <ele>476.5</ele>
        <time>2026-07-08T10:54:54Z</time>
      </trkpt>
      <trkpt lat="43.02732" lon="0.31828">
        <ele>475.5</ele>
        <time>2026-07-08T10:54:54Z</time>
      </trkpt>
      <trkpt lat="43.02733" lon="0.31828">
        <ele>475.5</ele>
        <time>2026-07-08T10:54:55Z</time>
      </trkpt>
      <trkpt lat="43.02734" lon="0.31827">
        <ele>475.5</ele>
        <time>2026-07-08T10:54:55Z</time>
      </trkpt>
      <trkpt lat="43.02735" lon="0.31827">
        <ele>475.5</ele>
        <time>2026-07-08T10:54:56Z</time>
      </trkpt>
      <trkpt lat="43.02735" lon="0.31827">
        <ele>476.5</ele>
        <time>2026-07-08T10:54:56Z</time>
      </trkpt>
      <trkpt lat="43.02736" lon="0.31828">
        <ele>476.5</ele>
        <time>2026-07-08T10:54:57Z</time>
      </trkpt>
      <trkpt lat="43.02737" lon="0.31828">
        <ele>476.5</ele>
        <time>2026-07-08T10:54:57Z</time>
      </trkpt>
      <trkpt lat="43.02738" lon="0.31828">
        <ele>476.5</ele>
        <time>2026-07-08T10:54:58Z</time>
      </trkpt>
      <trkpt lat="43.02739" lon="0.31828">
        <ele>476.5</ele>
        <time>2026-07-08T10:54:59Z</time>
      </trkpt>
      <trkpt lat="43.0274" lon="0.31829">
        <ele>475.5</ele>
        <time>2026-07-08T10:55:00Z</time>
      </trkpt>
      <trkpt lat="43.02741" lon="0.3183">
        <ele>475.5</ele>
        <time>2026-07-08T10:55:00Z</time>
      </trkpt>
      <trkpt lat="43.02742" lon="0.3183">
        <ele>475.5</ele>
        <time>2026-07-08T10:55:01Z</time>
      </trkpt>
      <trkpt lat="43.02743" lon="0.3183">
        <ele>475.5</ele>
        <time>2026-07-08T10:55:01Z</time>
      </trkpt>
      <trkpt lat="43.02743" lon="0.31831">
        <ele>475.5</ele>
        <time>2026-07-08T10:55:02Z</time>
      </trkpt>
      <trkpt lat="43.02744" lon="0.31831">
        <ele>474.5</ele>
        <time>2026-07-08T10:55:02Z</time>
      </trkpt>
      <trkpt lat="43.02745" lon="0.31832">
        <ele>474.5</ele>
        <time>2026-07-08T10:55:03Z</time>
      </trkpt>
      <trkpt lat="43.02745" lon="0.31832">
        <ele>474.5</ele>
        <time>2026-07-08T10:55:03Z</time>
      </trkpt>
      <trkpt lat="43.02746" lon="0.31833">
        <ele>474.5</ele>
        <time>2026-07-08T10:55:04Z</time>
      </trkpt>
      <trkpt lat="43.02747" lon="0.31833">
        <ele>473.5</ele>
        <time>2026-07-08T10:55:04Z</time>
      </trkpt>
      <trkpt lat="43.02747" lon="0.31834">
        <ele>473.5</ele>
        <time>2026-07-08T10:55:05Z</time>
      </trkpt>
      <trkpt lat="43.02748" lon="0.31834">
        <ele>472.5</ele>
        <time>2026-07-08T10:55:05Z</time>
      </trkpt>
      <trkpt lat="43.02749" lon="0.31835">
        <ele>472.5</ele>
        <time>2026-07-08T10:55:06Z</time>
      </trkpt>
      <trkpt lat="43.02749" lon="0.31835">
        <ele>472.5</ele>
        <time>2026-07-08T10:55:06Z</time>
      </trkpt>
      <trkpt lat="43.0275" lon="0.31835">
        <ele>472.5</ele>
        <time>2026-07-08T10:55:07Z</time>
      </trkpt>
      <trkpt lat="43.02751" lon="0.31836">
        <ele>472.5</ele>
        <time>2026-07-08T10:55:07Z</time>
      </trkpt>
      <trkpt lat="43.02751" lon="0.31836">
        <ele>472.5</ele>
        <time>2026-07-08T10:55:08Z</time>
      </trkpt>
      <trkpt lat="43.02752" lon="0.31837">
        <ele>473.5</ele>
        <time>2026-07-08T10:55:09Z</time>
      </trkpt>
      <trkpt lat="43.02753" lon="0.31837">
        <ele>474.5</ele>
        <time>2026-07-08T10:55:09Z</time>
      </trkpt>
      <trkpt lat="43.02754" lon="0.31838">
        <ele>474.5</ele>
        <time>2026-07-08T10:55:10Z</time>
      </trkpt>
      <trkpt lat="43.02754" lon="0.31838">
        <ele>474.5</ele>
        <time>2026-07-08T10:55:10Z</time>
      </trkpt>
      <trkpt lat="43.02755" lon="0.31839">
        <ele>474.5</ele>
        <time>2026-07-08T10:55:11Z</time>
      </trkpt>
      <trkpt lat="43.02756" lon="0.31839">
        <ele>474.5</ele>
        <time>2026-07-08T10:55:11Z</time>
      </trkpt>
      <trkpt lat="43.02756" lon="0.3184">
        <ele>474.5</ele>
        <time>2026-07-08T10:55:12Z</time>
      </trkpt>
      <trkpt lat="43.02757" lon="0.31841">
        <ele>474.5</ele>
        <time>2026-07-08T10:55:12Z</time>
      </trkpt>
      <trkpt lat="43.02758" lon="0.31841">
        <ele>474.5</ele>
        <time>2026-07-08T10:55:13Z</time>
      </trkpt>
      <trkpt lat="43.02758" lon="0.31842">
        <ele>474.5</ele>
        <time>2026-07-08T10:55:13Z</time>
      </trkpt>
      <trkpt lat="43.02759" lon="0.31842">
        <ele>474.5</ele>
        <time>2026-07-08T10:55:14Z</time>
      </trkpt>
      <trkpt lat="43.0276" lon="0.31843">
        <ele>474.5</ele>
        <time>2026-07-08T10:55:15Z</time>
      </trkpt>
      <trkpt lat="43.0276" lon="0.31844">
        <ele>474.5</ele>
        <time>2026-07-08T10:55:15Z</time>
      </trkpt>
      <trkpt lat="43.02761" lon="0.31845">
        <ele>474.5</ele>
        <time>2026-07-08T10:55:16Z</time>
      </trkpt>
      <trkpt lat="43.02761" lon="0.31846">
        <ele>473.5</ele>
        <time>2026-07-08T10:55:16Z</time>
      </trkpt>
      <trkpt lat="43.02762" lon="0.31847">
        <ele>473.5</ele>
        <time>2026-07-08T10:55:17Z</time>
      </trkpt>
      <trkpt lat="43.02762" lon="0.31848">
        <ele>472.5</ele>
        <time>2026-07-08T10:55:17Z</time>
      </trkpt>
      <trkpt lat="43.02763" lon="0.31849">
        <ele>472.5</ele>
        <time>2026-07-08T10:55:18Z</time>
      </trkpt>
      <trkpt lat="43.02763" lon="0.31849">
        <ele>472.5</ele>
        <time>2026-07-08T10:55:18Z</time>
      </trkpt>
      <trkpt lat="43.02764" lon="0.3185">
        <ele>472.5</ele>
        <time>2026-07-08T10:55:19Z</time>
      </trkpt>
      <trkpt lat="43.02764" lon="0.31851">
        <ele>472.5</ele>
        <time>2026-07-08T10:55:20Z</time>
      </trkpt>
      <trkpt lat="43.02765" lon="0.31852">
        <ele>472.5</ele>
        <time>2026-07-08T10:55:20Z</time>
      </trkpt>
      <trkpt lat="43.02765" lon="0.31853">
        <ele>472.5</ele>
        <time>2026-07-08T10:55:21Z</time>
      </trkpt>
      <trkpt lat="43.02766" lon="0.31853">
        <ele>471.5</ele>
        <time>2026-07-08T10:55:21Z</time>
      </trkpt>
      <trkpt lat="43.02767" lon="0.31854">
        <ele>471.5</ele>
        <time>2026-07-08T10:55:22Z</time>
      </trkpt>
      <trkpt lat="43.02767" lon="0.31855">
        <ele>471.5</ele>
        <time>2026-07-08T10:55:22Z</time>
      </trkpt>
      <trkpt lat="43.02768" lon="0.31856">
        <ele>471.5</ele>
        <time>2026-07-08T10:55:23Z</time>
      </trkpt>
      <trkpt lat="43.02768" lon="0.31857">
        <ele>471.5</ele>
        <time>2026-07-08T10:55:23Z</time>
      </trkpt>
      <trkpt lat="43.02769" lon="0.31858">
        <ele>471.5</ele>
        <time>2026-07-08T10:55:24Z</time>
      </trkpt>
      <trkpt lat="43.02769" lon="0.31858">
        <ele>471.5</ele>
        <time>2026-07-08T10:55:24Z</time>
      </trkpt>
      <trkpt lat="43.0277" lon="0.31859">
        <ele>471.5</ele>
        <time>2026-07-08T10:55:25Z</time>
      </trkpt>
      <trkpt lat="43.0277" lon="0.3186">
        <ele>471.5</ele>
        <time>2026-07-08T10:55:25Z</time>
      </trkpt>
      <trkpt lat="43.0277" lon="0.31861">
        <ele>471.5</ele>
        <time>2026-07-08T10:55:26Z</time>
      </trkpt>
      <trkpt lat="43.02771" lon="0.31862">
        <ele>471.5</ele>
        <time>2026-07-08T10:55:26Z</time>
      </trkpt>
      <trkpt lat="43.02771" lon="0.31862">
        <ele>471.5</ele>
        <time>2026-07-08T10:55:27Z</time>
      </trkpt>
      <trkpt lat="43.02772" lon="0.31863">
        <ele>471.5</ele>
        <time>2026-07-08T10:55:27Z</time>
      </trkpt>
      <trkpt lat="43.02772" lon="0.31864">
        <ele>471.5</ele>
        <time>2026-07-08T10:55:28Z</time>
      </trkpt>
      <trkpt lat="43.02773" lon="0.31864">
        <ele>471.5</ele>
        <time>2026-07-08T10:55:28Z</time>
      </trkpt>
      <trkpt lat="43.02774" lon="0.31865">
        <ele>471.5</ele>
        <time>2026-07-08T10:55:29Z</time>
      </trkpt>
      <trkpt lat="43.02774" lon="0.31866">
        <ele>470.5</ele>
        <time>2026-07-08T10:55:29Z</time>
      </trkpt>
      <trkpt lat="43.02775" lon="0.31866">
        <ele>470.5</ele>
        <time>2026-07-08T10:55:30Z</time>
      </trkpt>
      <trkpt lat="43.02775" lon="0.31867">
        <ele>470.5</ele>
        <time>2026-07-08T10:55:30Z</time>
      </trkpt>
      <trkpt lat="43.02776" lon="0.31868">
        <ele>470.5</ele>
        <time>2026-07-08T10:55:31Z</time>
      </trkpt>
      <trkpt lat="43.02777" lon="0.31869">
        <ele>470.5</ele>
        <time>2026-07-08T10:55:31Z</time>
      </trkpt>
      <trkpt lat="43.02777" lon="0.31869">
        <ele>470.5</ele>
        <time>2026-07-08T10:55:32Z</time>
      </trkpt>
      <trkpt lat="43.02778" lon="0.3187">
        <ele>470.5</ele>
        <time>2026-07-08T10:55:33Z</time>
      </trkpt>
      <trkpt lat="43.02778" lon="0.31871">
        <ele>470.5</ele>
        <time>2026-07-08T10:55:33Z</time>
      </trkpt>
      <trkpt lat="43.02779" lon="0.31872">
        <ele>469.5</ele>
        <time>2026-07-08T10:55:34Z</time>
      </trkpt>
      <trkpt lat="43.02779" lon="0.31872">
        <ele>470.5</ele>
        <time>2026-07-08T10:55:34Z</time>
      </trkpt>
      <trkpt lat="43.0278" lon="0.31873">
        <ele>470.5</ele>
        <time>2026-07-08T10:55:35Z</time>
      </trkpt>
      <trkpt lat="43.02781" lon="0.31874">
        <ele>470.5</ele>
        <time>2026-07-08T10:55:35Z</time>
      </trkpt>
      <trkpt lat="43.02781" lon="0.31875">
        <ele>470.5</ele>
        <time>2026-07-08T10:55:36Z</time>
      </trkpt>
      <trkpt lat="43.02782" lon="0.31875">
        <ele>470.5</ele>
        <time>2026-07-08T10:55:36Z</time>
      </trkpt>
      <trkpt lat="43.02783" lon="0.31876">
        <ele>470.5</ele>
        <time>2026-07-08T10:55:37Z</time>
      </trkpt>
      <trkpt lat="43.02783" lon="0.31876">
        <ele>471.5</ele>
        <time>2026-07-08T10:55:37Z</time>
      </trkpt>
      <trkpt lat="43.02784" lon="0.31877">
        <ele>471.5</ele>
        <time>2026-07-08T10:55:38Z</time>
      </trkpt>
      <trkpt lat="43.02784" lon="0.31877">
        <ele>471.5</ele>
        <time>2026-07-08T10:55:38Z</time>
      </trkpt>
      <trkpt lat="43.02785" lon="0.31878">
        <ele>471.5</ele>
        <time>2026-07-08T10:55:39Z</time>
      </trkpt>
      <trkpt lat="43.02786" lon="0.31879">
        <ele>471.5</ele>
        <time>2026-07-08T10:55:39Z</time>
      </trkpt>
      <trkpt lat="43.02786" lon="0.31879">
        <ele>471.5</ele>
        <time>2026-07-08T10:55:40Z</time>
      </trkpt>
      <trkpt lat="43.02787" lon="0.3188">
        <ele>471.5</ele>
        <time>2026-07-08T10:55:40Z</time>
      </trkpt>
      <trkpt lat="43.02787" lon="0.3188">
        <ele>471.5</ele>
        <time>2026-07-08T10:55:41Z</time>
      </trkpt>
      <trkpt lat="43.02788" lon="0.31881">
        <ele>471.5</ele>
        <time>2026-07-08T10:55:41Z</time>
      </trkpt>
      <trkpt lat="43.02788" lon="0.31882">
        <ele>471.5</ele>
        <time>2026-07-08T10:55:42Z</time>
      </trkpt>
      <trkpt lat="43.02789" lon="0.31882">
        <ele>471.5</ele>
        <time>2026-07-08T10:55:42Z</time>
      </trkpt>
      <trkpt lat="43.02789" lon="0.31883">
        <ele>471.5</ele>
        <time>2026-07-08T10:55:43Z</time>
      </trkpt>
      <trkpt lat="43.0279" lon="0.31883">
        <ele>471.5</ele>
        <time>2026-07-08T10:55:43Z</time>
      </trkpt>
      <trkpt lat="43.0279" lon="0.31884">
        <ele>471.5</ele>
        <time>2026-07-08T10:55:44Z</time>
      </trkpt>
      <trkpt lat="43.02791" lon="0.31885">
        <ele>471.5</ele>
        <time>2026-07-08T10:55:44Z</time>
      </trkpt>
      <trkpt lat="43.02791" lon="0.31885">
        <ele>471.5</ele>
        <time>2026-07-08T10:55:45Z</time>
      </trkpt>
      <trkpt lat="43.02792" lon="0.31886">
        <ele>471.5</ele>
        <time>2026-07-08T10:55:45Z</time>
      </trkpt>
      <trkpt lat="43.02792" lon="0.31886">
        <ele>470.5</ele>
        <time>2026-07-08T10:55:46Z</time>
      </trkpt>
      <trkpt lat="43.02793" lon="0.31887">
        <ele>470.5</ele>
        <time>2026-07-08T10:55:47Z</time>
      </trkpt>
      <trkpt lat="43.02793" lon="0.31887">
        <ele>470.5</ele>
        <time>2026-07-08T10:55:47Z</time>
      </trkpt>
      <trkpt lat="43.02794" lon="0.31888">
        <ele>470.5</ele>
        <time>2026-07-08T10:55:48Z</time>
      </trkpt>
      <trkpt lat="43.02794" lon="0.31889">
        <ele>470.5</ele>
        <time>2026-07-08T10:55:48Z</time>
      </trkpt>
      <trkpt lat="43.02795" lon="0.31889">
        <ele>470.5</ele>
        <time>2026-07-08T10:55:49Z</time>
      </trkpt>
      <trkpt lat="43.02795" lon="0.3189">
        <ele>469.5</ele>
        <time>2026-07-08T10:55:49Z</time>
      </trkpt>
      <trkpt lat="43.02795" lon="0.31891">
        <ele>469.5</ele>
        <time>2026-07-08T10:55:50Z</time>
      </trkpt>
      <trkpt lat="43.02795" lon="0.31891">
        <ele>469.5</ele>
        <time>2026-07-08T10:55:50Z</time>
      </trkpt>
      <trkpt lat="43.02796" lon="0.31892">
        <ele>469.5</ele>
        <time>2026-07-08T10:55:51Z</time>
      </trkpt>
      <trkpt lat="43.02797" lon="0.31892">
        <ele>469.5</ele>
        <time>2026-07-08T10:55:51Z</time>
      </trkpt>
      <trkpt lat="43.02797" lon="0.31893">
        <ele>469.5</ele>
        <time>2026-07-08T10:55:52Z</time>
      </trkpt>
      <trkpt lat="43.02798" lon="0.31893">
        <ele>469.5</ele>
        <time>2026-07-08T10:55:52Z</time>
      </trkpt>
      <trkpt lat="43.02798" lon="0.31893">
        <ele>469.5</ele>
        <time>2026-07-08T10:55:53Z</time>
      </trkpt>
      <trkpt lat="43.02799" lon="0.31893">
        <ele>469.5</ele>
        <time>2026-07-08T10:55:53Z</time>
      </trkpt>
      <trkpt lat="43.028" lon="0.31894">
        <ele>469.5</ele>
        <time>2026-07-08T10:55:54Z</time>
      </trkpt>
      <trkpt lat="43.028" lon="0.31894">
        <ele>469.5</ele>
        <time>2026-07-08T10:55:55Z</time>
      </trkpt>
      <trkpt lat="43.02801" lon="0.31895">
        <ele>469.5</ele>
        <time>2026-07-08T10:55:55Z</time>
      </trkpt>
      <trkpt lat="43.02802" lon="0.31895">
        <ele>469.5</ele>
        <time>2026-07-08T10:55:56Z</time>
      </trkpt>
      <trkpt lat="43.02802" lon="0.31895">
        <ele>469.5</ele>
        <time>2026-07-08T10:55:56Z</time>
      </trkpt>
      <trkpt lat="43.02803" lon="0.31896">
        <ele>469.5</ele>
        <time>2026-07-08T10:55:57Z</time>
      </trkpt>
      <trkpt lat="43.02804" lon="0.31896">
        <ele>469.5</ele>
        <time>2026-07-08T10:55:57Z</time>
      </trkpt>
      <trkpt lat="43.02804" lon="0.31897">
        <ele>469.5</ele>
        <time>2026-07-08T10:55:58Z</time>
      </trkpt>
      <trkpt lat="43.02805" lon="0.31897">
        <ele>469.5</ele>
        <time>2026-07-08T10:55:58Z</time>
      </trkpt>
      <trkpt lat="43.02806" lon="0.31898">
        <ele>469.5</ele>
        <time>2026-07-08T10:55:59Z</time>
      </trkpt>
      <trkpt lat="43.02806" lon="0.31898">
        <ele>469.5</ele>
        <time>2026-07-08T10:55:59Z</time>
      </trkpt>
      <trkpt lat="43.02807" lon="0.31898">
        <ele>469.5</ele>
        <time>2026-07-08T10:56:00Z</time>
      </trkpt>
      <trkpt lat="43.02807" lon="0.31899">
        <ele>469.5</ele>
        <time>2026-07-08T10:56:00Z</time>
      </trkpt>
      <trkpt lat="43.02808" lon="0.31899">
        <ele>469.5</ele>
        <time>2026-07-08T10:56:01Z</time>
      </trkpt>
      <trkpt lat="43.02809" lon="0.31899">
        <ele>469.5</ele>
        <time>2026-07-08T10:56:01Z</time>
      </trkpt>
      <trkpt lat="43.02809" lon="0.319">
        <ele>469.5</ele>
        <time>2026-07-08T10:56:02Z</time>
      </trkpt>
      <trkpt lat="43.0281" lon="0.319">
        <ele>470.5</ele>
        <time>2026-07-08T10:56:02Z</time>
      </trkpt>
      <trkpt lat="43.02811" lon="0.31901">
        <ele>470.5</ele>
        <time>2026-07-08T10:56:03Z</time>
      </trkpt>
      <trkpt lat="43.02811" lon="0.31902">
        <ele>470.5</ele>
        <time>2026-07-08T10:56:04Z</time>
      </trkpt>
      <trkpt lat="43.02812" lon="0.31902">
        <ele>470.5</ele>
        <time>2026-07-08T10:56:04Z</time>
      </trkpt>
      <trkpt lat="43.02812" lon="0.31903">
        <ele>470.5</ele>
        <time>2026-07-08T10:56:05Z</time>
      </trkpt>
      <trkpt lat="43.02813" lon="0.31903">
        <ele>470.5</ele>
        <time>2026-07-08T10:56:05Z</time>
      </trkpt>
      <trkpt lat="43.02814" lon="0.31904">
        <ele>470.5</ele>
        <time>2026-07-08T10:56:06Z</time>
      </trkpt>
      <trkpt lat="43.02814" lon="0.31904">
        <ele>470.5</ele>
        <time>2026-07-08T10:56:06Z</time>
      </trkpt>
      <trkpt lat="43.02815" lon="0.31905">
        <ele>470.5</ele>
        <time>2026-07-08T10:56:07Z</time>
      </trkpt>
      <trkpt lat="43.02816" lon="0.31905">
        <ele>470.5</ele>
        <time>2026-07-08T10:56:07Z</time>
      </trkpt>
      <trkpt lat="43.02817" lon="0.31906">
        <ele>470.5</ele>
        <time>2026-07-08T10:56:08Z</time>
      </trkpt>
      <trkpt lat="43.02817" lon="0.31906">
        <ele>470.5</ele>
        <time>2026-07-08T10:56:08Z</time>
      </trkpt>
      <trkpt lat="43.02818" lon="0.31907">
        <ele>470.5</ele>
        <time>2026-07-08T10:56:09Z</time>
      </trkpt>
      <trkpt lat="43.02819" lon="0.31907">
        <ele>470.5</ele>
        <time>2026-07-08T10:56:09Z</time>
      </trkpt>
      <trkpt lat="43.02819" lon="0.31908">
        <ele>470.5</ele>
        <time>2026-07-08T10:56:10Z</time>
      </trkpt>
      <trkpt lat="43.0282" lon="0.31908">
        <ele>470.5</ele>
        <time>2026-07-08T10:56:10Z</time>
      </trkpt>
      <trkpt lat="43.02821" lon="0.31909">
        <ele>470.5</ele>
        <time>2026-07-08T10:56:11Z</time>
      </trkpt>
      <trkpt lat="43.02821" lon="0.31909">
        <ele>470.5</ele>
        <time>2026-07-08T10:56:12Z</time>
      </trkpt>
      <trkpt lat="43.02822" lon="0.3191">
        <ele>470.5</ele>
        <time>2026-07-08T10:56:12Z</time>
      </trkpt>
      <trkpt lat="43.02822" lon="0.31911">
        <ele>470.5</ele>
        <time>2026-07-08T10:56:13Z</time>
      </trkpt>
      <trkpt lat="43.02823" lon="0.31911">
        <ele>470.5</ele>
        <time>2026-07-08T10:56:13Z</time>
      </trkpt>
      <trkpt lat="43.02824" lon="0.31912">
        <ele>470.5</ele>
        <time>2026-07-08T10:56:14Z</time>
      </trkpt>
      <trkpt lat="43.02825" lon="0.31912">
        <ele>470.5</ele>
        <time>2026-07-08T10:56:14Z</time>
      </trkpt>
      <trkpt lat="43.02825" lon="0.31913">
        <ele>470.5</ele>
        <time>2026-07-08T10:56:15Z</time>
      </trkpt>
      <trkpt lat="43.02826" lon="0.31913">
        <ele>469.5</ele>
        <time>2026-07-08T10:56:15Z</time>
      </trkpt>
      <trkpt lat="43.02827" lon="0.31914">
        <ele>469.5</ele>
        <time>2026-07-08T10:56:16Z</time>
      </trkpt>
      <trkpt lat="43.02827" lon="0.31914">
        <ele>469.5</ele>
        <time>2026-07-08T10:56:16Z</time>
      </trkpt>
      <trkpt lat="43.02828" lon="0.31915">
        <ele>469.5</ele>
        <time>2026-07-08T10:56:17Z</time>
      </trkpt>
      <trkpt lat="43.02829" lon="0.31916">
        <ele>469.5</ele>
        <time>2026-07-08T10:56:18Z</time>
      </trkpt>
      <trkpt lat="43.0283" lon="0.31916">
        <ele>469.5</ele>
        <time>2026-07-08T10:56:19Z</time>
      </trkpt>
      <trkpt lat="43.02831" lon="0.31916">
        <ele>469.5</ele>
        <time>2026-07-08T10:56:19Z</time>
      </trkpt>
      <trkpt lat="43.02832" lon="0.31917">
        <ele>469.5</ele>
        <time>2026-07-08T10:56:20Z</time>
      </trkpt>
      <trkpt lat="43.02833" lon="0.31917">
        <ele>469.5</ele>
        <time>2026-07-08T10:56:20Z</time>
      </trkpt>
      <trkpt lat="43.02833" lon="0.31918">
        <ele>469.5</ele>
        <time>2026-07-08T10:56:21Z</time>
      </trkpt>
      <trkpt lat="43.02834" lon="0.31918">
        <ele>470.5</ele>
        <time>2026-07-08T10:56:21Z</time>
      </trkpt>
      <trkpt lat="43.02835" lon="0.31919">
        <ele>470.5</ele>
        <time>2026-07-08T10:56:22Z</time>
      </trkpt>
      <trkpt lat="43.02835" lon="0.3192">
        <ele>469.5</ele>
        <time>2026-07-08T10:56:22Z</time>
      </trkpt>
      <trkpt lat="43.02836" lon="0.31921">
        <ele>469.5</ele>
        <time>2026-07-08T10:56:23Z</time>
      </trkpt>
      <trkpt lat="43.02836" lon="0.31922">
        <ele>470.5</ele>
        <time>2026-07-08T10:56:23Z</time>
      </trkpt>
      <trkpt lat="43.02837" lon="0.31922">
        <ele>470.5</ele>
        <time>2026-07-08T10:56:24Z</time>
      </trkpt>
      <trkpt lat="43.02838" lon="0.31923">
        <ele>470.5</ele>
        <time>2026-07-08T10:56:25Z</time>
      </trkpt>
      <trkpt lat="43.02838" lon="0.31923">
        <ele>470.5</ele>
        <time>2026-07-08T10:56:25Z</time>
      </trkpt>
      <trkpt lat="43.02839" lon="0.31924">
        <ele>470.5</ele>
        <time>2026-07-08T10:56:26Z</time>
      </trkpt>
      <trkpt lat="43.02839" lon="0.31924">
        <ele>470.5</ele>
        <time>2026-07-08T10:56:26Z</time>
      </trkpt>
      <trkpt lat="43.0284" lon="0.31925">
        <ele>470.5</ele>
        <time>2026-07-08T10:56:27Z</time>
      </trkpt>
      <trkpt lat="43.02841" lon="0.31925">
        <ele>470.5</ele>
        <time>2026-07-08T10:56:27Z</time>
      </trkpt>
      <trkpt lat="43.02841" lon="0.31926">
        <ele>470.5</ele>
        <time>2026-07-08T10:56:28Z</time>
      </trkpt>
      <trkpt lat="43.02842" lon="0.31926">
        <ele>470.5</ele>
        <time>2026-07-08T10:56:28Z</time>
      </trkpt>
      <trkpt lat="43.02843" lon="0.31927">
        <ele>470.5</ele>
        <time>2026-07-08T10:56:29Z</time>
      </trkpt>
      <trkpt lat="43.02843" lon="0.31927">
        <ele>470.5</ele>
        <time>2026-07-08T10:56:29Z</time>
      </trkpt>
      <trkpt lat="43.02844" lon="0.31927">
        <ele>470.5</ele>
        <time>2026-07-08T10:56:30Z</time>
      </trkpt>
      <trkpt lat="43.02844" lon="0.31928">
        <ele>469.5</ele>
        <time>2026-07-08T10:56:31Z</time>
      </trkpt>
      <trkpt lat="43.02845" lon="0.31928">
        <ele>470.5</ele>
        <time>2026-07-08T10:56:31Z</time>
      </trkpt>
      <trkpt lat="43.02846" lon="0.31929">
        <ele>470.5</ele>
        <time>2026-07-08T10:56:32Z</time>
      </trkpt>
      <trkpt lat="43.02846" lon="0.31929">
        <ele>470.5</ele>
        <time>2026-07-08T10:56:32Z</time>
      </trkpt>
      <trkpt lat="43.02847" lon="0.31929">
        <ele>470.5</ele>
        <time>2026-07-08T10:56:33Z</time>
      </trkpt>
      <trkpt lat="43.02847" lon="0.3193">
        <ele>470.5</ele>
        <time>2026-07-08T10:56:33Z</time>
      </trkpt>
      <trkpt lat="43.02848" lon="0.3193">
        <ele>470.5</ele>
        <time>2026-07-08T10:56:34Z</time>
      </trkpt>
      <trkpt lat="43.02848" lon="0.3193">
        <ele>469.5</ele>
        <time>2026-07-08T10:56:34Z</time>
      </trkpt>
      <trkpt lat="43.02849" lon="0.31931">
        <ele>469.5</ele>
        <time>2026-07-08T10:56:35Z</time>
      </trkpt>
      <trkpt lat="43.02849" lon="0.31931">
        <ele>469.5</ele>
        <time>2026-07-08T10:56:35Z</time>
      </trkpt>
      <trkpt lat="43.0285" lon="0.31931">
        <ele>469.5</ele>
        <time>2026-07-08T10:56:36Z</time>
      </trkpt>
      <trkpt lat="43.02851" lon="0.31931">
        <ele>469.5</ele>
        <time>2026-07-08T10:56:36Z</time>
      </trkpt>
      <trkpt lat="43.02851" lon="0.31932">
        <ele>469.5</ele>
        <time>2026-07-08T10:56:37Z</time>
      </trkpt>
      <trkpt lat="43.02852" lon="0.31932">
        <ele>469.5</ele>
        <time>2026-07-08T10:56:38Z</time>
      </trkpt>
      <trkpt lat="43.02852" lon="0.31932">
        <ele>469.5</ele>
        <time>2026-07-08T10:56:38Z</time>
      </trkpt>
      <trkpt lat="43.02853" lon="0.31932">
        <ele>469.5</ele>
        <time>2026-07-08T10:56:39Z</time>
      </trkpt>
      <trkpt lat="43.02854" lon="0.31932">
        <ele>469.5</ele>
        <time>2026-07-08T10:56:39Z</time>
      </trkpt>
      <trkpt lat="43.02854" lon="0.31932">
        <ele>469.5</ele>
        <time>2026-07-08T10:56:40Z</time>
      </trkpt>
      <trkpt lat="43.02855" lon="0.31933">
        <ele>469.5</ele>
        <time>2026-07-08T10:56:40Z</time>
      </trkpt>
      <trkpt lat="43.02856" lon="0.31933">
        <ele>469.5</ele>
        <time>2026-07-08T10:56:41Z</time>
      </trkpt>
      <trkpt lat="43.02856" lon="0.31933">
        <ele>469.5</ele>
        <time>2026-07-08T10:56:41Z</time>
      </trkpt>
      <trkpt lat="43.02857" lon="0.31933">
        <ele>469.5</ele>
        <time>2026-07-08T10:56:42Z</time>
      </trkpt>
      <trkpt lat="43.02858" lon="0.31934">
        <ele>470.5</ele>
        <time>2026-07-08T10:56:43Z</time>
      </trkpt>
      <trkpt lat="43.02859" lon="0.31934">
        <ele>470.5</ele>
        <time>2026-07-08T10:56:44Z</time>
      </trkpt>
      <trkpt lat="43.02859" lon="0.31934">
        <ele>470.5</ele>
        <time>2026-07-08T10:56:44Z</time>
      </trkpt>
      <trkpt lat="43.0286" lon="0.31935">
        <ele>470.5</ele>
        <time>2026-07-08T10:56:45Z</time>
      </trkpt>
      <trkpt lat="43.0286" lon="0.31935">
        <ele>470.5</ele>
        <time>2026-07-08T10:56:45Z</time>
      </trkpt>
      <trkpt lat="43.02861" lon="0.31936">
        <ele>470.5</ele>
        <time>2026-07-08T10:56:46Z</time>
      </trkpt>
      <trkpt lat="43.02861" lon="0.31936">
        <ele>470.5</ele>
        <time>2026-07-08T10:56:46Z</time>
      </trkpt>
      <trkpt lat="43.02862" lon="0.31936">
        <ele>470.5</ele>
        <time>2026-07-08T10:56:47Z</time>
      </trkpt>
      <trkpt lat="43.02863" lon="0.31936">
        <ele>470.5</ele>
        <time>2026-07-08T10:56:47Z</time>
      </trkpt>
      <trkpt lat="43.02863" lon="0.31937">
        <ele>470.5</ele>
        <time>2026-07-08T10:56:48Z</time>
      </trkpt>
      <trkpt lat="43.02864" lon="0.31937">
        <ele>470.5</ele>
        <time>2026-07-08T10:56:49Z</time>
      </trkpt>
      <trkpt lat="43.02864" lon="0.31936">
        <ele>470.5</ele>
        <time>2026-07-08T10:56:49Z</time>
      </trkpt>
      <trkpt lat="43.02865" lon="0.31937">
        <ele>470.5</ele>
        <time>2026-07-08T10:56:50Z</time>
      </trkpt>
      <trkpt lat="43.02866" lon="0.31937">
        <ele>470.5</ele>
        <time>2026-07-08T10:56:50Z</time>
      </trkpt>
      <trkpt lat="43.02866" lon="0.31937">
        <ele>470.5</ele>
        <time>2026-07-08T10:56:51Z</time>
      </trkpt>
      <trkpt lat="43.02867" lon="0.31937">
        <ele>470.5</ele>
        <time>2026-07-08T10:56:51Z</time>
      </trkpt>
      <trkpt lat="43.02868" lon="0.31938">
        <ele>470.5</ele>
        <time>2026-07-08T10:56:52Z</time>
      </trkpt>
      <trkpt lat="43.02868" lon="0.31938">
        <ele>470.5</ele>
        <time>2026-07-08T10:56:52Z</time>
      </trkpt>
      <trkpt lat="43.02869" lon="0.31938">
        <ele>470.5</ele>
        <time>2026-07-08T10:56:53Z</time>
      </trkpt>
      <trkpt lat="43.0287" lon="0.31938">
        <ele>470.5</ele>
        <time>2026-07-08T10:56:54Z</time>
      </trkpt>
      <trkpt lat="43.0287" lon="0.31938">
        <ele>470.5</ele>
        <time>2026-07-08T10:56:54Z</time>
      </trkpt>
      <trkpt lat="43.02871" lon="0.31938">
        <ele>470.5</ele>
        <time>2026-07-08T10:56:55Z</time>
      </trkpt>
      <trkpt lat="43.02872" lon="0.31938">
        <ele>470.5</ele>
        <time>2026-07-08T10:56:55Z</time>
      </trkpt>
      <trkpt lat="43.02873" lon="0.31938">
        <ele>470.5</ele>
        <time>2026-07-08T10:56:56Z</time>
      </trkpt>
      <trkpt lat="43.02873" lon="0.31938">
        <ele>471.5</ele>
        <time>2026-07-08T10:56:56Z</time>
      </trkpt>
      <trkpt lat="43.02874" lon="0.31938">
        <ele>471.5</ele>
        <time>2026-07-08T10:56:57Z</time>
      </trkpt>
      <trkpt lat="43.02875" lon="0.31938">
        <ele>471.5</ele>
        <time>2026-07-08T10:56:57Z</time>
      </trkpt>
      <trkpt lat="43.02875" lon="0.31939">
        <ele>471.5</ele>
        <time>2026-07-08T10:56:58Z</time>
      </trkpt>
      <trkpt lat="43.02876" lon="0.31938">
        <ele>472.5</ele>
        <time>2026-07-08T10:56:58Z</time>
      </trkpt>
      <trkpt lat="43.02877" lon="0.31939">
        <ele>472.5</ele>
        <time>2026-07-08T10:56:59Z</time>
      </trkpt>
      <trkpt lat="43.02877" lon="0.31939">
        <ele>472.5</ele>
        <time>2026-07-08T10:57:00Z</time>
      </trkpt>
      <trkpt lat="43.02878" lon="0.31939">
        <ele>472.5</ele>
        <time>2026-07-08T10:57:00Z</time>
      </trkpt>
      <trkpt lat="43.02879" lon="0.31939">
        <ele>472.5</ele>
        <time>2026-07-08T10:57:01Z</time>
      </trkpt>
      <trkpt lat="43.02879" lon="0.31938">
        <ele>472.5</ele>
        <time>2026-07-08T10:57:01Z</time>
      </trkpt>
      <trkpt lat="43.0288" lon="0.31939">
        <ele>472.5</ele>
        <time>2026-07-08T10:57:02Z</time>
      </trkpt>
      <trkpt lat="43.0288" lon="0.31938">
        <ele>472.5</ele>
        <time>2026-07-08T10:57:02Z</time>
      </trkpt>
      <trkpt lat="43.02881" lon="0.31939">
        <ele>472.5</ele>
        <time>2026-07-08T10:57:03Z</time>
      </trkpt>
      <trkpt lat="43.02882" lon="0.31938">
        <ele>471.5</ele>
        <time>2026-07-08T10:57:03Z</time>
      </trkpt>
      <trkpt lat="43.02882" lon="0.31939">
        <ele>471.5</ele>
        <time>2026-07-08T10:57:04Z</time>
      </trkpt>
      <trkpt lat="43.02883" lon="0.31939">
        <ele>471.5</ele>
        <time>2026-07-08T10:57:04Z</time>
      </trkpt>
      <trkpt lat="43.02883" lon="0.31939">
        <ele>471.5</ele>
        <time>2026-07-08T10:57:05Z</time>
      </trkpt>
      <trkpt lat="43.02884" lon="0.31939">
        <ele>471.5</ele>
        <time>2026-07-08T10:57:06Z</time>
      </trkpt>
      <trkpt lat="43.02885" lon="0.31939">
        <ele>471.5</ele>
        <time>2026-07-08T10:57:06Z</time>
      </trkpt>
      <trkpt lat="43.02885" lon="0.3194">
        <ele>471.5</ele>
        <time>2026-07-08T10:57:07Z</time>
      </trkpt>
      <trkpt lat="43.02886" lon="0.3194">
        <ele>471.5</ele>
        <time>2026-07-08T10:57:07Z</time>
      </trkpt>
      <trkpt lat="43.02887" lon="0.3194">
        <ele>471.5</ele>
        <time>2026-07-08T10:57:08Z</time>
      </trkpt>
      <trkpt lat="43.02887" lon="0.3194">
        <ele>471.5</ele>
        <time>2026-07-08T10:57:08Z</time>
      </trkpt>
      <trkpt lat="43.02888" lon="0.3194">
        <ele>471.5</ele>
        <time>2026-07-08T10:57:09Z</time>
      </trkpt>
      <trkpt lat="43.02889" lon="0.3194">
        <ele>471.5</ele>
        <time>2026-07-08T10:57:09Z</time>
      </trkpt>
      <trkpt lat="43.02889" lon="0.3194">
        <ele>471.5</ele>
        <time>2026-07-08T10:57:10Z</time>
      </trkpt>
      <trkpt lat="43.0289" lon="0.31941">
        <ele>470.5</ele>
        <time>2026-07-08T10:57:11Z</time>
      </trkpt>
      <trkpt lat="43.02891" lon="0.31941">
        <ele>470.5</ele>
        <time>2026-07-08T10:57:11Z</time>
      </trkpt>
      <trkpt lat="43.02891" lon="0.31941">
        <ele>470.5</ele>
        <time>2026-07-08T10:57:12Z</time>
      </trkpt>
      <trkpt lat="43.02892" lon="0.31941">
        <ele>471.5</ele>
        <time>2026-07-08T10:57:12Z</time>
      </trkpt>
      <trkpt lat="43.02893" lon="0.31941">
        <ele>471.5</ele>
        <time>2026-07-08T10:57:13Z</time>
      </trkpt>
      <trkpt lat="43.02894" lon="0.31941">
        <ele>471.5</ele>
        <time>2026-07-08T10:57:13Z</time>
      </trkpt>
      <trkpt lat="43.02894" lon="0.31941">
        <ele>471.5</ele>
        <time>2026-07-08T10:57:14Z</time>
      </trkpt>
      <trkpt lat="43.02896" lon="0.31941">
        <ele>471.5</ele>
        <time>2026-07-08T10:57:15Z</time>
      </trkpt>
      <trkpt lat="43.02897" lon="0.31942">
        <ele>471.5</ele>
        <time>2026-07-08T10:57:16Z</time>
      </trkpt>
      <trkpt lat="43.02898" lon="0.31942">
        <ele>471.5</ele>
        <time>2026-07-08T10:57:17Z</time>
      </trkpt>
      <trkpt lat="43.02898" lon="0.31943">
        <ele>471.5</ele>
        <time>2026-07-08T10:57:17Z</time>
      </trkpt>
      <trkpt lat="43.02899" lon="0.31943">
        <ele>471.5</ele>
        <time>2026-07-08T10:57:18Z</time>
      </trkpt>
      <trkpt lat="43.029" lon="0.31943">
        <ele>471.5</ele>
        <time>2026-07-08T10:57:18Z</time>
      </trkpt>
      <trkpt lat="43.029" lon="0.31944">
        <ele>471.5</ele>
        <time>2026-07-08T10:57:19Z</time>
      </trkpt>
      <trkpt lat="43.02901" lon="0.31944">
        <ele>471.5</ele>
        <time>2026-07-08T10:57:19Z</time>
      </trkpt>
      <trkpt lat="43.02901" lon="0.31944">
        <ele>471.5</ele>
        <time>2026-07-08T10:57:20Z</time>
      </trkpt>
      <trkpt lat="43.02902" lon="0.31945">
        <ele>471.5</ele>
        <time>2026-07-08T10:57:20Z</time>
      </trkpt>
      <trkpt lat="43.02903" lon="0.31945">
        <ele>471.5</ele>
        <time>2026-07-08T10:57:21Z</time>
      </trkpt>
      <trkpt lat="43.02903" lon="0.31945">
        <ele>472.5</ele>
        <time>2026-07-08T10:57:21Z</time>
      </trkpt>
      <trkpt lat="43.02904" lon="0.31945">
        <ele>472.5</ele>
        <time>2026-07-08T10:57:22Z</time>
      </trkpt>
      <trkpt lat="43.02905" lon="0.31945">
        <ele>471.5</ele>
        <time>2026-07-08T10:57:23Z</time>
      </trkpt>
      <trkpt lat="43.02905" lon="0.31946">
        <ele>471.5</ele>
        <time>2026-07-08T10:57:23Z</time>
      </trkpt>
      <trkpt lat="43.02906" lon="0.31946">
        <ele>471.5</ele>
        <time>2026-07-08T10:57:24Z</time>
      </trkpt>
      <trkpt lat="43.02907" lon="0.31946">
        <ele>472.5</ele>
        <time>2026-07-08T10:57:24Z</time>
      </trkpt>
      <trkpt lat="43.02907" lon="0.31946">
        <ele>472.5</ele>
        <time>2026-07-08T10:57:25Z</time>
      </trkpt>
      <trkpt lat="43.02908" lon="0.31946">
        <ele>471.5</ele>
        <time>2026-07-08T10:57:25Z</time>
      </trkpt>
      <trkpt lat="43.02909" lon="0.31946">
        <ele>471.5</ele>
        <time>2026-07-08T10:57:26Z</time>
      </trkpt>
      <trkpt lat="43.02909" lon="0.31945">
        <ele>472.5</ele>
        <time>2026-07-08T10:57:26Z</time>
      </trkpt>
      <trkpt lat="43.0291" lon="0.31945">
        <ele>472.5</ele>
        <time>2026-07-08T10:57:27Z</time>
      </trkpt>
      <trkpt lat="43.02911" lon="0.31945">
        <ele>472.5</ele>
        <time>2026-07-08T10:57:27Z</time>
      </trkpt>
      <trkpt lat="43.02911" lon="0.31945">
        <ele>472.5</ele>
        <time>2026-07-08T10:57:28Z</time>
      </trkpt>
      <trkpt lat="43.02912" lon="0.31945">
        <ele>472.5</ele>
        <time>2026-07-08T10:57:29Z</time>
      </trkpt>
      <trkpt lat="43.02913" lon="0.31945">
        <ele>472.5</ele>
        <time>2026-07-08T10:57:29Z</time>
      </trkpt>
      <trkpt lat="43.02913" lon="0.31945">
        <ele>472.5</ele>
        <time>2026-07-08T10:57:30Z</time>
      </trkpt>
      <trkpt lat="43.02914" lon="0.31944">
        <ele>471.5</ele>
        <time>2026-07-08T10:57:30Z</time>
      </trkpt>
      <trkpt lat="43.02915" lon="0.31944">
        <ele>471.5</ele>
        <time>2026-07-08T10:57:31Z</time>
      </trkpt>
      <trkpt lat="43.02916" lon="0.31944">
        <ele>472.5</ele>
        <time>2026-07-08T10:57:31Z</time>
      </trkpt>
      <trkpt lat="43.02916" lon="0.31944">
        <ele>472.5</ele>
        <time>2026-07-08T10:57:32Z</time>
      </trkpt>
      <trkpt lat="43.02917" lon="0.31944">
        <ele>473.5</ele>
        <time>2026-07-08T10:57:32Z</time>
      </trkpt>
      <trkpt lat="43.02918" lon="0.31944">
        <ele>473.5</ele>
        <time>2026-07-08T10:57:33Z</time>
      </trkpt>
      <trkpt lat="43.02919" lon="0.31944">
        <ele>472.5</ele>
        <time>2026-07-08T10:57:33Z</time>
      </trkpt>
      <trkpt lat="43.02919" lon="0.31944">
        <ele>472.5</ele>
        <time>2026-07-08T10:57:34Z</time>
      </trkpt>
      <trkpt lat="43.0292" lon="0.31944">
        <ele>473.5</ele>
        <time>2026-07-08T10:57:35Z</time>
      </trkpt>
      <trkpt lat="43.02921" lon="0.31944">
        <ele>473.5</ele>
        <time>2026-07-08T10:57:35Z</time>
      </trkpt>
      <trkpt lat="43.02921" lon="0.31944">
        <ele>473.5</ele>
        <time>2026-07-08T10:57:36Z</time>
      </trkpt>
      <trkpt lat="43.02922" lon="0.31944">
        <ele>473.5</ele>
        <time>2026-07-08T10:57:36Z</time>
      </trkpt>
      <trkpt lat="43.02923" lon="0.31944">
        <ele>473.5</ele>
        <time>2026-07-08T10:57:37Z</time>
      </trkpt>
      <trkpt lat="43.02923" lon="0.31944">
        <ele>473.5</ele>
        <time>2026-07-08T10:57:37Z</time>
      </trkpt>
      <trkpt lat="43.02924" lon="0.31944">
        <ele>473.5</ele>
        <time>2026-07-08T10:57:38Z</time>
      </trkpt>
      <trkpt lat="43.02925" lon="0.31944">
        <ele>473.5</ele>
        <time>2026-07-08T10:57:38Z</time>
      </trkpt>
      <trkpt lat="43.02925" lon="0.31944">
        <ele>473.5</ele>
        <time>2026-07-08T10:57:39Z</time>
      </trkpt>
      <trkpt lat="43.02926" lon="0.31944">
        <ele>474.5</ele>
        <time>2026-07-08T10:57:39Z</time>
      </trkpt>
      <trkpt lat="43.02926" lon="0.31944">
        <ele>473.5</ele>
        <time>2026-07-08T10:57:40Z</time>
      </trkpt>
      <trkpt lat="43.02927" lon="0.31944">
        <ele>473.5</ele>
        <time>2026-07-08T10:57:41Z</time>
      </trkpt>
      <trkpt lat="43.02928" lon="0.31944">
        <ele>473.5</ele>
        <time>2026-07-08T10:57:41Z</time>
      </trkpt>
      <trkpt lat="43.02929" lon="0.31944">
        <ele>473.5</ele>
        <time>2026-07-08T10:57:42Z</time>
      </trkpt>
      <trkpt lat="43.02929" lon="0.31944">
        <ele>474.5</ele>
        <time>2026-07-08T10:57:42Z</time>
      </trkpt>
      <trkpt lat="43.0293" lon="0.31944">
        <ele>474.5</ele>
        <time>2026-07-08T10:57:43Z</time>
      </trkpt>
      <trkpt lat="43.02931" lon="0.31944">
        <ele>473.5</ele>
        <time>2026-07-08T10:57:43Z</time>
      </trkpt>
      <trkpt lat="43.02932" lon="0.31944">
        <ele>473.5</ele>
        <time>2026-07-08T10:57:44Z</time>
      </trkpt>
      <trkpt lat="43.02932" lon="0.31944">
        <ele>473.5</ele>
        <time>2026-07-08T10:57:45Z</time>
      </trkpt>
      <trkpt lat="43.02933" lon="0.31944">
        <ele>473.5</ele>
        <time>2026-07-08T10:57:45Z</time>
      </trkpt>
      <trkpt lat="43.02933" lon="0.31944">
        <ele>473.5</ele>
        <time>2026-07-08T10:57:46Z</time>
      </trkpt>
      <trkpt lat="43.02934" lon="0.31944">
        <ele>473.5</ele>
        <time>2026-07-08T10:57:46Z</time>
      </trkpt>
      <trkpt lat="43.02934" lon="0.31944">
        <ele>473.5</ele>
        <time>2026-07-08T10:57:47Z</time>
      </trkpt>
      <trkpt lat="43.02935" lon="0.31945">
        <ele>473.5</ele>
        <time>2026-07-08T10:57:48Z</time>
      </trkpt>
      <trkpt lat="43.02937" lon="0.31945">
        <ele>473.5</ele>
        <time>2026-07-08T10:57:49Z</time>
      </trkpt>
      <trkpt lat="43.02938" lon="0.31946">
        <ele>474.5</ele>
        <time>2026-07-08T10:57:50Z</time>
      </trkpt>
      <trkpt lat="43.02939" lon="0.31946">
        <ele>474.5</ele>
        <time>2026-07-08T10:57:51Z</time>
      </trkpt>
      <trkpt lat="43.02941" lon="0.31946">
        <ele>474.5</ele>
        <time>2026-07-08T10:57:52Z</time>
      </trkpt>
      <trkpt lat="43.02942" lon="0.31947">
        <ele>474.5</ele>
        <time>2026-07-08T10:57:53Z</time>
      </trkpt>
      <trkpt lat="43.02943" lon="0.31949">
        <ele>474.5</ele>
        <time>2026-07-08T10:57:54Z</time>
      </trkpt>
      <trkpt lat="43.02944" lon="0.3195">
        <ele>474.5</ele>
        <time>2026-07-08T10:57:54Z</time>
      </trkpt>
      <trkpt lat="43.02945" lon="0.31951">
        <ele>474.5</ele>
        <time>2026-07-08T10:57:55Z</time>
      </trkpt>
      <trkpt lat="43.02946" lon="0.31952">
        <ele>475.5</ele>
        <time>2026-07-08T10:57:56Z</time>
      </trkpt>
      <trkpt lat="43.02947" lon="0.31953">
        <ele>475.5</ele>
        <time>2026-07-08T10:57:56Z</time>
      </trkpt>
      <trkpt lat="43.02947" lon="0.31953">
        <ele>475.5</ele>
        <time>2026-07-08T10:57:57Z</time>
      </trkpt>
      <trkpt lat="43.02949" lon="0.31955">
        <ele>475.5</ele>
        <time>2026-07-08T10:57:58Z</time>
      </trkpt>
      <trkpt lat="43.02949" lon="0.31955">
        <ele>475.5</ele>
        <time>2026-07-08T10:57:58Z</time>
      </trkpt>
      <trkpt lat="43.0295" lon="0.31956">
        <ele>474.5</ele>
        <time>2026-07-08T10:57:59Z</time>
      </trkpt>
      <trkpt lat="43.0295" lon="0.31957">
        <ele>474.5</ele>
        <time>2026-07-08T10:57:59Z</time>
      </trkpt>
      <trkpt lat="43.02951" lon="0.31958">
        <ele>474.5</ele>
        <time>2026-07-08T10:58:00Z</time>
      </trkpt>
      <trkpt lat="43.02952" lon="0.31958">
        <ele>474.5</ele>
        <time>2026-07-08T10:58:00Z</time>
      </trkpt>
      <trkpt lat="43.02952" lon="0.31959">
        <ele>474.5</ele>
        <time>2026-07-08T10:58:01Z</time>
      </trkpt>
      <trkpt lat="43.02953" lon="0.3196">
        <ele>474.5</ele>
        <time>2026-07-08T10:58:02Z</time>
      </trkpt>
      <trkpt lat="43.02954" lon="0.31961">
        <ele>474.5</ele>
        <time>2026-07-08T10:58:02Z</time>
      </trkpt>
      <trkpt lat="43.02955" lon="0.31962">
        <ele>474.5</ele>
        <time>2026-07-08T10:58:03Z</time>
      </trkpt>
      <trkpt lat="43.02956" lon="0.31963">
        <ele>474.5</ele>
        <time>2026-07-08T10:58:04Z</time>
      </trkpt>
      <trkpt lat="43.02957" lon="0.31964">
        <ele>475.5</ele>
        <time>2026-07-08T10:58:04Z</time>
      </trkpt>
      <trkpt lat="43.02957" lon="0.31964">
        <ele>475.5</ele>
        <time>2026-07-08T10:58:05Z</time>
      </trkpt>
      <trkpt lat="43.02958" lon="0.31965">
        <ele>474.5</ele>
        <time>2026-07-08T10:58:05Z</time>
      </trkpt>
      <trkpt lat="43.02959" lon="0.31966">
        <ele>474.5</ele>
        <time>2026-07-08T10:58:06Z</time>
      </trkpt>
      <trkpt lat="43.0296" lon="0.31966">
        <ele>474.5</ele>
        <time>2026-07-08T10:58:06Z</time>
      </trkpt>
      <trkpt lat="43.0296" lon="0.31967">
        <ele>474.5</ele>
        <time>2026-07-08T10:58:07Z</time>
      </trkpt>
      <trkpt lat="43.02962" lon="0.31968">
        <ele>474.5</ele>
        <time>2026-07-08T10:58:08Z</time>
      </trkpt>
      <trkpt lat="43.02963" lon="0.31969">
        <ele>475.5</ele>
        <time>2026-07-08T10:58:08Z</time>
      </trkpt>
      <trkpt lat="43.02963" lon="0.31969">
        <ele>475.5</ele>
        <time>2026-07-08T10:58:09Z</time>
      </trkpt>
      <trkpt lat="43.02964" lon="0.3197">
        <ele>475.5</ele>
        <time>2026-07-08T10:58:10Z</time>
      </trkpt>
      <trkpt lat="43.02965" lon="0.31971">
        <ele>474.5</ele>
        <time>2026-07-08T10:58:10Z</time>
      </trkpt>
      <trkpt lat="43.02966" lon="0.31972">
        <ele>474.5</ele>
        <time>2026-07-08T10:58:11Z</time>
      </trkpt>
      <trkpt lat="43.02967" lon="0.31972">
        <ele>474.5</ele>
        <time>2026-07-08T10:58:11Z</time>
      </trkpt>
      <trkpt lat="43.02967" lon="0.31973">
        <ele>474.5</ele>
        <time>2026-07-08T10:58:12Z</time>
      </trkpt>
      <trkpt lat="43.02968" lon="0.31973">
        <ele>474.5</ele>
        <time>2026-07-08T10:58:13Z</time>
      </trkpt>
      <trkpt lat="43.02968" lon="0.31974">
        <ele>474.5</ele>
        <time>2026-07-08T10:58:13Z</time>
      </trkpt>
      <trkpt lat="43.02969" lon="0.31974">
        <ele>474.5</ele>
        <time>2026-07-08T10:58:14Z</time>
      </trkpt>
      <trkpt lat="43.0297" lon="0.31975">
        <ele>474.5</ele>
        <time>2026-07-08T10:58:15Z</time>
      </trkpt>
      <trkpt lat="43.02971" lon="0.31976">
        <ele>474.5</ele>
        <time>2026-07-08T10:58:15Z</time>
      </trkpt>
      <trkpt lat="43.02972" lon="0.31977">
        <ele>474.5</ele>
        <time>2026-07-08T10:58:16Z</time>
      </trkpt>
      <trkpt lat="43.02973" lon="0.31978">
        <ele>474.5</ele>
        <time>2026-07-08T10:58:17Z</time>
      </trkpt>
      <trkpt lat="43.02973" lon="0.31978">
        <ele>474.5</ele>
        <time>2026-07-08T10:58:17Z</time>
      </trkpt>
      <trkpt lat="43.02974" lon="0.31979">
        <ele>474.5</ele>
        <time>2026-07-08T10:58:18Z</time>
      </trkpt>
      <trkpt lat="43.02975" lon="0.31979">
        <ele>474.5</ele>
        <time>2026-07-08T10:58:18Z</time>
      </trkpt>
      <trkpt lat="43.02976" lon="0.3198">
        <ele>474.5</ele>
        <time>2026-07-08T10:58:19Z</time>
      </trkpt>
      <trkpt lat="43.02977" lon="0.3198">
        <ele>474.5</ele>
        <time>2026-07-08T10:58:20Z</time>
      </trkpt>
      <trkpt lat="43.02978" lon="0.31981">
        <ele>474.5</ele>
        <time>2026-07-08T10:58:21Z</time>
      </trkpt>
      <trkpt lat="43.02979" lon="0.31982">
        <ele>474.5</ele>
        <time>2026-07-08T10:58:21Z</time>
      </trkpt>
      <trkpt lat="43.0298" lon="0.31982">
        <ele>474.5</ele>
        <time>2026-07-08T10:58:22Z</time>
      </trkpt>
      <trkpt lat="43.0298" lon="0.31983">
        <ele>474.5</ele>
        <time>2026-07-08T10:58:23Z</time>
      </trkpt>
      <trkpt lat="43.02981" lon="0.31983">
        <ele>475.5</ele>
        <time>2026-07-08T10:58:23Z</time>
      </trkpt>
      <trkpt lat="43.02982" lon="0.31984">
        <ele>475.5</ele>
        <time>2026-07-08T10:58:24Z</time>
      </trkpt>
      <trkpt lat="43.02982" lon="0.31984">
        <ele>475.5</ele>
        <time>2026-07-08T10:58:24Z</time>
      </trkpt>
      <trkpt lat="43.02983" lon="0.31985">
        <ele>475.5</ele>
        <time>2026-07-08T10:58:25Z</time>
      </trkpt>
      <trkpt lat="43.02984" lon="0.31986">
        <ele>475.5</ele>
        <time>2026-07-08T10:58:25Z</time>
      </trkpt>
      <trkpt lat="43.02984" lon="0.31987">
        <ele>475.5</ele>
        <time>2026-07-08T10:58:26Z</time>
      </trkpt>
      <trkpt lat="43.02985" lon="0.31988">
        <ele>475.5</ele>
        <time>2026-07-08T10:58:27Z</time>
      </trkpt>
      <trkpt lat="43.02986" lon="0.31989">
        <ele>474.5</ele>
        <time>2026-07-08T10:58:27Z</time>
      </trkpt>
      <trkpt lat="43.02987" lon="0.31989">
        <ele>474.5</ele>
        <time>2026-07-08T10:58:28Z</time>
      </trkpt>
      <trkpt lat="43.02988" lon="0.3199">
        <ele>474.5</ele>
        <time>2026-07-08T10:58:28Z</time>
      </trkpt>
      <trkpt lat="43.02988" lon="0.31991">
        <ele>474.5</ele>
        <time>2026-07-08T10:58:29Z</time>
      </trkpt>
      <trkpt lat="43.0299" lon="0.31992">
        <ele>474.5</ele>
        <time>2026-07-08T10:58:30Z</time>
      </trkpt>
      <trkpt lat="43.0299" lon="0.31992">
        <ele>474.5</ele>
        <time>2026-07-08T10:58:30Z</time>
      </trkpt>
      <trkpt lat="43.02991" lon="0.31993">
        <ele>474.5</ele>
        <time>2026-07-08T10:58:31Z</time>
      </trkpt>
      <trkpt lat="43.02992" lon="0.31993">
        <ele>473.5</ele>
        <time>2026-07-08T10:58:32Z</time>
      </trkpt>
      <trkpt lat="43.02992" lon="0.31994">
        <ele>473.5</ele>
        <time>2026-07-08T10:58:32Z</time>
      </trkpt>
      <trkpt lat="43.02994" lon="0.31995">
        <ele>473.5</ele>
        <time>2026-07-08T10:58:33Z</time>
      </trkpt>
      <trkpt lat="43.02995" lon="0.31996">
        <ele>473.5</ele>
        <time>2026-07-08T10:58:34Z</time>
      </trkpt>
      <trkpt lat="43.02995" lon="0.31996">
        <ele>473.5</ele>
        <time>2026-07-08T10:58:34Z</time>
      </trkpt>
      <trkpt lat="43.02996" lon="0.31997">
        <ele>473.5</ele>
        <time>2026-07-08T10:58:35Z</time>
      </trkpt>
      <trkpt lat="43.02996" lon="0.31998">
        <ele>473.5</ele>
        <time>2026-07-08T10:58:35Z</time>
      </trkpt>
      <trkpt lat="43.02997" lon="0.31998">
        <ele>473.5</ele>
        <time>2026-07-08T10:58:36Z</time>
      </trkpt>
      <trkpt lat="43.02997" lon="0.31999">
        <ele>473.5</ele>
        <time>2026-07-08T10:58:36Z</time>
      </trkpt>
      <trkpt lat="43.02998" lon="0.31999">
        <ele>473.5</ele>
        <time>2026-07-08T10:58:37Z</time>
      </trkpt>
      <trkpt lat="43.02998" lon="0.32">
        <ele>473.5</ele>
        <time>2026-07-08T10:58:37Z</time>
      </trkpt>
      <trkpt lat="43.02999" lon="0.32">
        <ele>473.5</ele>
        <time>2026-07-08T10:58:38Z</time>
      </trkpt>
      <trkpt lat="43.03" lon="0.32001">
        <ele>473.5</ele>
        <time>2026-07-08T10:58:38Z</time>
      </trkpt>
      <trkpt lat="43.03" lon="0.32001">
        <ele>473.5</ele>
        <time>2026-07-08T10:58:39Z</time>
      </trkpt>
      <trkpt lat="43.03001" lon="0.32002">
        <ele>472.5</ele>
        <time>2026-07-08T10:58:40Z</time>
      </trkpt>
      <trkpt lat="43.03002" lon="0.32003">
        <ele>472.5</ele>
        <time>2026-07-08T10:58:40Z</time>
      </trkpt>
      <trkpt lat="43.03003" lon="0.32003">
        <ele>472.5</ele>
        <time>2026-07-08T10:58:41Z</time>
      </trkpt>
      <trkpt lat="43.03003" lon="0.32004">
        <ele>472.5</ele>
        <time>2026-07-08T10:58:42Z</time>
      </trkpt>
      <trkpt lat="43.03004" lon="0.32004">
        <ele>472.5</ele>
        <time>2026-07-08T10:58:42Z</time>
      </trkpt>
      <trkpt lat="43.03004" lon="0.32005">
        <ele>472.5</ele>
        <time>2026-07-08T10:58:43Z</time>
      </trkpt>
      <trkpt lat="43.03005" lon="0.32005">
        <ele>472.5</ele>
        <time>2026-07-08T10:58:43Z</time>
      </trkpt>
      <trkpt lat="43.03006" lon="0.32006">
        <ele>472.5</ele>
        <time>2026-07-08T10:58:44Z</time>
      </trkpt>
      <trkpt lat="43.03007" lon="0.32007">
        <ele>472.5</ele>
        <time>2026-07-08T10:58:45Z</time>
      </trkpt>
      <trkpt lat="43.03007" lon="0.32007">
        <ele>472.5</ele>
        <time>2026-07-08T10:58:45Z</time>
      </trkpt>
      <trkpt lat="43.03008" lon="0.32008">
        <ele>472.5</ele>
        <time>2026-07-08T10:58:46Z</time>
      </trkpt>
      <trkpt lat="43.03009" lon="0.32008">
        <ele>472.5</ele>
        <time>2026-07-08T10:58:46Z</time>
      </trkpt>
      <trkpt lat="43.0301" lon="0.32009">
        <ele>472.5</ele>
        <time>2026-07-08T10:58:47Z</time>
      </trkpt>
      <trkpt lat="43.0301" lon="0.32009">
        <ele>472.5</ele>
        <time>2026-07-08T10:58:48Z</time>
      </trkpt>
      <trkpt lat="43.03011" lon="0.32009">
        <ele>472.5</ele>
        <time>2026-07-08T10:58:48Z</time>
      </trkpt>
      <trkpt lat="43.03012" lon="0.3201">
        <ele>472.5</ele>
        <time>2026-07-08T10:58:49Z</time>
      </trkpt>
      <trkpt lat="43.03013" lon="0.32011">
        <ele>472.5</ele>
        <time>2026-07-08T10:58:50Z</time>
      </trkpt>
      <trkpt lat="43.03013" lon="0.32011">
        <ele>472.5</ele>
        <time>2026-07-08T10:58:50Z</time>
      </trkpt>
      <trkpt lat="43.03014" lon="0.32011">
        <ele>472.5</ele>
        <time>2026-07-08T10:58:51Z</time>
      </trkpt>
      <trkpt lat="43.03015" lon="0.32012">
        <ele>471.5</ele>
        <time>2026-07-08T10:58:52Z</time>
      </trkpt>
      <trkpt lat="43.03016" lon="0.32012">
        <ele>471.5</ele>
        <time>2026-07-08T10:58:53Z</time>
      </trkpt>
      <trkpt lat="43.03017" lon="0.32013">
        <ele>471.5</ele>
        <time>2026-07-08T10:58:53Z</time>
      </trkpt>
      <trkpt lat="43.03018" lon="0.32013">
        <ele>471.5</ele>
        <time>2026-07-08T10:58:54Z</time>
      </trkpt>
      <trkpt lat="43.03019" lon="0.32014">
        <ele>471.5</ele>
        <time>2026-07-08T10:58:55Z</time>
      </trkpt>
      <trkpt lat="43.03019" lon="0.32014">
        <ele>470.5</ele>
        <time>2026-07-08T10:58:55Z</time>
      </trkpt>
      <trkpt lat="43.0302" lon="0.32014">
        <ele>471.5</ele>
        <time>2026-07-08T10:58:56Z</time>
      </trkpt>
      <trkpt lat="43.03021" lon="0.32014">
        <ele>471.5</ele>
        <time>2026-07-08T10:58:57Z</time>
      </trkpt>
      <trkpt lat="43.03022" lon="0.32015">
        <ele>471.5</ele>
        <time>2026-07-08T10:58:58Z</time>
      </trkpt>
      <trkpt lat="43.03022" lon="0.32015">
        <ele>471.5</ele>
        <time>2026-07-08T10:58:58Z</time>
      </trkpt>
      <trkpt lat="43.03023" lon="0.32015">
        <ele>471.5</ele>
        <time>2026-07-08T10:58:59Z</time>
      </trkpt>
      <trkpt lat="43.03024" lon="0.32016">
        <ele>471.5</ele>
        <time>2026-07-08T10:58:59Z</time>
      </trkpt>
      <trkpt lat="43.03024" lon="0.32016">
        <ele>471.5</ele>
        <time>2026-07-08T10:59:00Z</time>
      </trkpt>
      <trkpt lat="43.03025" lon="0.32017">
        <ele>471.5</ele>
        <time>2026-07-08T10:59:01Z</time>
      </trkpt>
      <trkpt lat="43.03025" lon="0.32017">
        <ele>471.5</ele>
        <time>2026-07-08T10:59:01Z</time>
      </trkpt>
      <trkpt lat="43.03026" lon="0.32018">
        <ele>471.5</ele>
        <time>2026-07-08T10:59:02Z</time>
      </trkpt>
      <trkpt lat="43.03027" lon="0.32018">
        <ele>471.5</ele>
        <time>2026-07-08T10:59:02Z</time>
      </trkpt>
      <trkpt lat="43.03028" lon="0.32018">
        <ele>471.5</ele>
        <time>2026-07-08T10:59:03Z</time>
      </trkpt>
      <trkpt lat="43.03029" lon="0.32019">
        <ele>471.5</ele>
        <time>2026-07-08T10:59:03Z</time>
      </trkpt>
      <trkpt lat="43.0303" lon="0.32019">
        <ele>470.5</ele>
        <time>2026-07-08T10:59:04Z</time>
      </trkpt>
      <trkpt lat="43.03031" lon="0.3202">
        <ele>470.5</ele>
        <time>2026-07-08T10:59:05Z</time>
      </trkpt>
      <trkpt lat="43.03031" lon="0.3202">
        <ele>470.5</ele>
        <time>2026-07-08T10:59:05Z</time>
      </trkpt>
      <trkpt lat="43.03032" lon="0.3202">
        <ele>470.5</ele>
        <time>2026-07-08T10:59:06Z</time>
      </trkpt>
      <trkpt lat="43.03033" lon="0.32021">
        <ele>470.5</ele>
        <time>2026-07-08T10:59:06Z</time>
      </trkpt>
      <trkpt lat="43.03033" lon="0.32022">
        <ele>470.5</ele>
        <time>2026-07-08T10:59:07Z</time>
      </trkpt>
      <trkpt lat="43.03034" lon="0.32022">
        <ele>470.5</ele>
        <time>2026-07-08T10:59:07Z</time>
      </trkpt>
      <trkpt lat="43.03034" lon="0.32023">
        <ele>470.5</ele>
        <time>2026-07-08T10:59:08Z</time>
      </trkpt>
      <trkpt lat="43.03035" lon="0.32024">
        <ele>470.5</ele>
        <time>2026-07-08T10:59:08Z</time>
      </trkpt>
      <trkpt lat="43.03035" lon="0.32025">
        <ele>470.5</ele>
        <time>2026-07-08T10:59:09Z</time>
      </trkpt>
      <trkpt lat="43.03037" lon="0.32026">
        <ele>470.5</ele>
        <time>2026-07-08T10:59:10Z</time>
      </trkpt>
      <trkpt lat="43.03037" lon="0.32026">
        <ele>470.5</ele>
        <time>2026-07-08T10:59:11Z</time>
      </trkpt>
      <trkpt lat="43.03038" lon="0.32027">
        <ele>470.5</ele>
        <time>2026-07-08T10:59:11Z</time>
      </trkpt>
      <trkpt lat="43.03039" lon="0.32027">
        <ele>470.5</ele>
        <time>2026-07-08T10:59:12Z</time>
      </trkpt>
      <trkpt lat="43.03039" lon="0.32027">
        <ele>470.5</ele>
        <time>2026-07-08T10:59:12Z</time>
      </trkpt>
      <trkpt lat="43.0304" lon="0.32028">
        <ele>470.5</ele>
        <time>2026-07-08T10:59:13Z</time>
      </trkpt>
      <trkpt lat="43.0304" lon="0.32028">
        <ele>470.5</ele>
        <time>2026-07-08T10:59:13Z</time>
      </trkpt>
      <trkpt lat="43.03041" lon="0.32029">
        <ele>470.5</ele>
        <time>2026-07-08T10:59:14Z</time>
      </trkpt>
      <trkpt lat="43.03042" lon="0.32029">
        <ele>470.5</ele>
        <time>2026-07-08T10:59:14Z</time>
      </trkpt>
      <trkpt lat="43.03042" lon="0.3203">
        <ele>470.5</ele>
        <time>2026-07-08T10:59:15Z</time>
      </trkpt>
      <trkpt lat="43.03043" lon="0.3203">
        <ele>469.5</ele>
        <time>2026-07-08T10:59:15Z</time>
      </trkpt>
      <trkpt lat="43.03043" lon="0.3203">
        <ele>469.5</ele>
        <time>2026-07-08T10:59:16Z</time>
      </trkpt>
      <trkpt lat="43.03044" lon="0.32031">
        <ele>469.5</ele>
        <time>2026-07-08T10:59:16Z</time>
      </trkpt>
      <trkpt lat="43.03045" lon="0.32031">
        <ele>469.5</ele>
        <time>2026-07-08T10:59:17Z</time>
      </trkpt>
      <trkpt lat="43.03045" lon="0.32031">
        <ele>470.5</ele>
        <time>2026-07-08T10:59:17Z</time>
      </trkpt>
      <trkpt lat="43.03046" lon="0.32032">
        <ele>470.5</ele>
        <time>2026-07-08T10:59:18Z</time>
      </trkpt>
      <trkpt lat="43.03046" lon="0.32032">
        <ele>469.5</ele>
        <time>2026-07-08T10:59:18Z</time>
      </trkpt>
      <trkpt lat="43.03047" lon="0.32032">
        <ele>469.5</ele>
        <time>2026-07-08T10:59:19Z</time>
      </trkpt>
      <trkpt lat="43.03047" lon="0.32032">
        <ele>470.5</ele>
        <time>2026-07-08T10:59:19Z</time>
      </trkpt>
      <trkpt lat="43.03048" lon="0.32033">
        <ele>470.5</ele>
        <time>2026-07-08T10:59:20Z</time>
      </trkpt>
      <trkpt lat="43.03048" lon="0.32033">
        <ele>470.5</ele>
        <time>2026-07-08T10:59:21Z</time>
      </trkpt>
      <trkpt lat="43.03049" lon="0.32033">
        <ele>471.5</ele>
        <time>2026-07-08T10:59:21Z</time>
      </trkpt>
      <trkpt lat="43.0305" lon="0.32033">
        <ele>471.5</ele>
        <time>2026-07-08T10:59:22Z</time>
      </trkpt>
      <trkpt lat="43.0305" lon="0.32033">
        <ele>470.5</ele>
        <time>2026-07-08T10:59:22Z</time>
      </trkpt>
      <trkpt lat="43.03051" lon="0.32033">
        <ele>470.5</ele>
        <time>2026-07-08T10:59:23Z</time>
      </trkpt>
      <trkpt lat="43.03052" lon="0.32033">
        <ele>470.5</ele>
        <time>2026-07-08T10:59:23Z</time>
      </trkpt>
      <trkpt lat="43.03052" lon="0.32034">
        <ele>470.5</ele>
        <time>2026-07-08T10:59:24Z</time>
      </trkpt>
      <trkpt lat="43.03053" lon="0.32034">
        <ele>470.5</ele>
        <time>2026-07-08T10:59:25Z</time>
      </trkpt>
      <trkpt lat="43.03054" lon="0.32034">
        <ele>470.5</ele>
        <time>2026-07-08T10:59:25Z</time>
      </trkpt>
      <trkpt lat="43.03055" lon="0.32034">
        <ele>470.5</ele>
        <time>2026-07-08T10:59:26Z</time>
      </trkpt>
      <trkpt lat="43.03055" lon="0.32034">
        <ele>469.5</ele>
        <time>2026-07-08T10:59:26Z</time>
      </trkpt>
      <trkpt lat="43.03056" lon="0.32035">
        <ele>469.5</ele>
        <time>2026-07-08T10:59:27Z</time>
      </trkpt>
      <trkpt lat="43.03056" lon="0.32035">
        <ele>469.5</ele>
        <time>2026-07-08T10:59:27Z</time>
      </trkpt>
      <trkpt lat="43.03057" lon="0.32035">
        <ele>469.5</ele>
        <time>2026-07-08T10:59:28Z</time>
      </trkpt>
      <trkpt lat="43.03057" lon="0.32035">
        <ele>469.5</ele>
        <time>2026-07-08T10:59:28Z</time>
      </trkpt>
      <trkpt lat="43.03058" lon="0.32036">
        <ele>469.5</ele>
        <time>2026-07-08T10:59:29Z</time>
      </trkpt>
      <trkpt lat="43.03058" lon="0.32036">
        <ele>469.5</ele>
        <time>2026-07-08T10:59:29Z</time>
      </trkpt>
      <trkpt lat="43.03059" lon="0.32037">
        <ele>469.5</ele>
        <time>2026-07-08T10:59:30Z</time>
      </trkpt>
      <trkpt lat="43.0306" lon="0.32037">
        <ele>469.5</ele>
        <time>2026-07-08T10:59:31Z</time>
      </trkpt>
      <trkpt lat="43.0306" lon="0.32037">
        <ele>468.5</ele>
        <time>2026-07-08T10:59:31Z</time>
      </trkpt>
      <trkpt lat="43.0306" lon="0.32038">
        <ele>468.5</ele>
        <time>2026-07-08T10:59:32Z</time>
      </trkpt>
      <trkpt lat="43.03061" lon="0.32038">
        <ele>467.5</ele>
        <time>2026-07-08T10:59:32Z</time>
      </trkpt>
      <trkpt lat="43.03061" lon="0.32038">
        <ele>467.5</ele>
        <time>2026-07-08T10:59:33Z</time>
      </trkpt>
      <trkpt lat="43.03062" lon="0.32039">
        <ele>467.5</ele>
        <time>2026-07-08T10:59:33Z</time>
      </trkpt>
      <trkpt lat="43.03062" lon="0.32039">
        <ele>467.5</ele>
        <time>2026-07-08T10:59:34Z</time>
      </trkpt>
      <trkpt lat="43.03063" lon="0.32039">
        <ele>467.5</ele>
        <time>2026-07-08T10:59:34Z</time>
      </trkpt>
      <trkpt lat="43.03064" lon="0.3204">
        <ele>467.5</ele>
        <time>2026-07-08T10:59:35Z</time>
      </trkpt>
      <trkpt lat="43.03064" lon="0.3204">
        <ele>467.5</ele>
        <time>2026-07-08T10:59:35Z</time>
      </trkpt>
      <trkpt lat="43.03065" lon="0.32041">
        <ele>467.5</ele>
        <time>2026-07-08T10:59:36Z</time>
      </trkpt>
      <trkpt lat="43.03065" lon="0.32041">
        <ele>466.5</ele>
        <time>2026-07-08T10:59:36Z</time>
      </trkpt>
      <trkpt lat="43.03066" lon="0.32041">
        <ele>466.5</ele>
        <time>2026-07-08T10:59:37Z</time>
      </trkpt>
      <trkpt lat="43.03066" lon="0.32041">
        <ele>467.5</ele>
        <time>2026-07-08T10:59:37Z</time>
      </trkpt>
      <trkpt lat="43.03067" lon="0.32042">
        <ele>467.5</ele>
        <time>2026-07-08T10:59:38Z</time>
      </trkpt>
      <trkpt lat="43.03067" lon="0.32042">
        <ele>467.5</ele>
        <time>2026-07-08T10:59:39Z</time>
      </trkpt>
      <trkpt lat="43.03068" lon="0.32043">
        <ele>467.5</ele>
        <time>2026-07-08T10:59:39Z</time>
      </trkpt>
      <trkpt lat="43.03068" lon="0.32043">
        <ele>467.5</ele>
        <time>2026-07-08T10:59:40Z</time>
      </trkpt>
      <trkpt lat="43.03069" lon="0.32043">
        <ele>467.5</ele>
        <time>2026-07-08T10:59:40Z</time>
      </trkpt>
      <trkpt lat="43.0307" lon="0.32044">
        <ele>467.5</ele>
        <time>2026-07-08T10:59:41Z</time>
      </trkpt>
      <trkpt lat="43.0307" lon="0.32044">
        <ele>467.5</ele>
        <time>2026-07-08T10:59:41Z</time>
      </trkpt>
      <trkpt lat="43.03071" lon="0.32045">
        <ele>467.5</ele>
        <time>2026-07-08T10:59:42Z</time>
      </trkpt>
      <trkpt lat="43.03071" lon="0.32046">
        <ele>467.5</ele>
        <time>2026-07-08T10:59:42Z</time>
      </trkpt>
      <trkpt lat="43.03072" lon="0.32046">
        <ele>467.5</ele>
        <time>2026-07-08T10:59:43Z</time>
      </trkpt>
      <trkpt lat="43.03072" lon="0.32047">
        <ele>467.5</ele>
        <time>2026-07-08T10:59:43Z</time>
      </trkpt>
      <trkpt lat="43.03073" lon="0.32047">
        <ele>467.5</ele>
        <time>2026-07-08T10:59:44Z</time>
      </trkpt>
      <trkpt lat="43.03073" lon="0.32048">
        <ele>466.5</ele>
        <time>2026-07-08T10:59:44Z</time>
      </trkpt>
      <trkpt lat="43.03074" lon="0.32049">
        <ele>466.5</ele>
        <time>2026-07-08T10:59:45Z</time>
      </trkpt>
      <trkpt lat="43.03074" lon="0.32049">
        <ele>467.5</ele>
        <time>2026-07-08T10:59:45Z</time>
      </trkpt>
      <trkpt lat="43.03075" lon="0.3205">
        <ele>467.5</ele>
        <time>2026-07-08T10:59:46Z</time>
      </trkpt>
      <trkpt lat="43.03076" lon="0.3205">
        <ele>466.5</ele>
        <time>2026-07-08T10:59:46Z</time>
      </trkpt>
      <trkpt lat="43.03076" lon="0.3205">
        <ele>466.5</ele>
        <time>2026-07-08T10:59:47Z</time>
      </trkpt>
      <trkpt lat="43.03077" lon="0.32051">
        <ele>466.5</ele>
        <time>2026-07-08T10:59:48Z</time>
      </trkpt>
      <trkpt lat="43.03077" lon="0.32051">
        <ele>466.5</ele>
        <time>2026-07-08T10:59:48Z</time>
      </trkpt>
      <trkpt lat="43.03078" lon="0.32051">
        <ele>466.5</ele>
        <time>2026-07-08T10:59:49Z</time>
      </trkpt>
      <trkpt lat="43.03078" lon="0.32052">
        <ele>466.5</ele>
        <time>2026-07-08T10:59:49Z</time>
      </trkpt>
      <trkpt lat="43.03079" lon="0.32052">
        <ele>466.5</ele>
        <time>2026-07-08T10:59:50Z</time>
      </trkpt>
      <trkpt lat="43.0308" lon="0.32052">
        <ele>466.5</ele>
        <time>2026-07-08T10:59:50Z</time>
      </trkpt>
      <trkpt lat="43.0308" lon="0.32053">
        <ele>466.5</ele>
        <time>2026-07-08T10:59:51Z</time>
      </trkpt>
      <trkpt lat="43.03081" lon="0.32053">
        <ele>465.5</ele>
        <time>2026-07-08T10:59:51Z</time>
      </trkpt>
      <trkpt lat="43.03081" lon="0.32054">
        <ele>465.5</ele>
        <time>2026-07-08T10:59:52Z</time>
      </trkpt>
      <trkpt lat="43.03082" lon="0.32054">
        <ele>464.5</ele>
        <time>2026-07-08T10:59:52Z</time>
      </trkpt>
      <trkpt lat="43.03083" lon="0.32055">
        <ele>464.5</ele>
        <time>2026-07-08T10:59:53Z</time>
      </trkpt>
      <trkpt lat="43.03083" lon="0.32055">
        <ele>464.5</ele>
        <time>2026-07-08T10:59:53Z</time>
      </trkpt>
      <trkpt lat="43.03084" lon="0.32055">
        <ele>464.5</ele>
        <time>2026-07-08T10:59:54Z</time>
      </trkpt>
      <trkpt lat="43.03084" lon="0.32056">
        <ele>464.5</ele>
        <time>2026-07-08T10:59:54Z</time>
      </trkpt>
      <trkpt lat="43.03085" lon="0.32056">
        <ele>464.5</ele>
        <time>2026-07-08T10:59:55Z</time>
      </trkpt>
      <trkpt lat="43.03086" lon="0.32056">
        <ele>464.5</ele>
        <time>2026-07-08T10:59:56Z</time>
      </trkpt>
      <trkpt lat="43.03086" lon="0.32056">
        <ele>464.5</ele>
        <time>2026-07-08T10:59:56Z</time>
      </trkpt>
      <trkpt lat="43.03087" lon="0.32056">
        <ele>464.5</ele>
        <time>2026-07-08T10:59:57Z</time>
      </trkpt>
      <trkpt lat="43.03087" lon="0.32057">
        <ele>463.5</ele>
        <time>2026-07-08T10:59:57Z</time>
      </trkpt>
      <trkpt lat="43.03088" lon="0.32057">
        <ele>463.5</ele>
        <time>2026-07-08T10:59:58Z</time>
      </trkpt>
      <trkpt lat="43.03089" lon="0.32057">
        <ele>463.5</ele>
        <time>2026-07-08T10:59:58Z</time>
      </trkpt>
      <trkpt lat="43.03089" lon="0.32058">
        <ele>463.5</ele>
        <time>2026-07-08T10:59:59Z</time>
      </trkpt>
      <trkpt lat="43.0309" lon="0.32058">
        <ele>464.5</ele>
        <time>2026-07-08T10:59:59Z</time>
      </trkpt>
      <trkpt lat="43.03091" lon="0.32058">
        <ele>464.5</ele>
        <time>2026-07-08T11:00:00Z</time>
      </trkpt>
      <trkpt lat="43.03092" lon="0.32058">
        <ele>463.5</ele>
        <time>2026-07-08T11:00:00Z</time>
      </trkpt>
      <trkpt lat="43.03092" lon="0.32059">
        <ele>463.5</ele>
        <time>2026-07-08T11:00:01Z</time>
      </trkpt>
      <trkpt lat="43.03093" lon="0.32059">
        <ele>463.5</ele>
        <time>2026-07-08T11:00:01Z</time>
      </trkpt>
      <trkpt lat="43.03094" lon="0.32059">
        <ele>463.5</ele>
        <time>2026-07-08T11:00:02Z</time>
      </trkpt>
      <trkpt lat="43.03094" lon="0.32059">
        <ele>463.5</ele>
        <time>2026-07-08T11:00:02Z</time>
      </trkpt>
      <trkpt lat="43.03095" lon="0.32059">
        <ele>463.5</ele>
        <time>2026-07-08T11:00:03Z</time>
      </trkpt>
      <trkpt lat="43.03095" lon="0.3206">
        <ele>463.5</ele>
        <time>2026-07-08T11:00:04Z</time>
      </trkpt>
      <trkpt lat="43.03096" lon="0.3206">
        <ele>463.5</ele>
        <time>2026-07-08T11:00:04Z</time>
      </trkpt>
      <trkpt lat="43.03097" lon="0.3206">
        <ele>463.5</ele>
        <time>2026-07-08T11:00:05Z</time>
      </trkpt>
      <trkpt lat="43.03097" lon="0.32061">
        <ele>463.5</ele>
        <time>2026-07-08T11:00:05Z</time>
      </trkpt>
      <trkpt lat="43.03098" lon="0.32061">
        <ele>463.5</ele>
        <time>2026-07-08T11:00:06Z</time>
      </trkpt>
      <trkpt lat="43.03098" lon="0.32061">
        <ele>463.5</ele>
        <time>2026-07-08T11:00:06Z</time>
      </trkpt>
      <trkpt lat="43.03099" lon="0.32061">
        <ele>463.5</ele>
        <time>2026-07-08T11:00:07Z</time>
      </trkpt>
      <trkpt lat="43.031" lon="0.32061">
        <ele>463.5</ele>
        <time>2026-07-08T11:00:07Z</time>
      </trkpt>
      <trkpt lat="43.031" lon="0.32061">
        <ele>463.5</ele>
        <time>2026-07-08T11:00:08Z</time>
      </trkpt>
      <trkpt lat="43.03101" lon="0.32061">
        <ele>462.5</ele>
        <time>2026-07-08T11:00:08Z</time>
      </trkpt>
      <trkpt lat="43.03102" lon="0.32061">
        <ele>462.5</ele>
        <time>2026-07-08T11:00:09Z</time>
      </trkpt>
      <trkpt lat="43.03102" lon="0.32061">
        <ele>462.5</ele>
        <time>2026-07-08T11:00:09Z</time>
      </trkpt>
      <trkpt lat="43.03103" lon="0.32061">
        <ele>462.5</ele>
        <time>2026-07-08T11:00:10Z</time>
      </trkpt>
      <trkpt lat="43.03104" lon="0.32061">
        <ele>463.5</ele>
        <time>2026-07-08T11:00:11Z</time>
      </trkpt>
      <trkpt lat="43.03104" lon="0.3206">
        <ele>462.5</ele>
        <time>2026-07-08T11:00:11Z</time>
      </trkpt>
      <trkpt lat="43.03105" lon="0.3206">
        <ele>462.5</ele>
        <time>2026-07-08T11:00:12Z</time>
      </trkpt>
      <trkpt lat="43.03106" lon="0.3206">
        <ele>463.5</ele>
        <time>2026-07-08T11:00:12Z</time>
      </trkpt>
      <trkpt lat="43.03106" lon="0.3206">
        <ele>463.5</ele>
        <time>2026-07-08T11:00:13Z</time>
      </trkpt>
      <trkpt lat="43.03107" lon="0.32061">
        <ele>463.5</ele>
        <time>2026-07-08T11:00:13Z</time>
      </trkpt>
      <trkpt lat="43.03108" lon="0.32061">
        <ele>463.5</ele>
        <time>2026-07-08T11:00:14Z</time>
      </trkpt>
      <trkpt lat="43.03109" lon="0.32061">
        <ele>463.5</ele>
        <time>2026-07-08T11:00:14Z</time>
      </trkpt>
      <trkpt lat="43.03109" lon="0.32061">
        <ele>463.5</ele>
        <time>2026-07-08T11:00:15Z</time>
      </trkpt>
      <trkpt lat="43.0311" lon="0.32061">
        <ele>463.5</ele>
        <time>2026-07-08T11:00:15Z</time>
      </trkpt>
      <trkpt lat="43.03111" lon="0.3206">
        <ele>463.5</ele>
        <time>2026-07-08T11:00:16Z</time>
      </trkpt>
      <trkpt lat="43.03112" lon="0.3206">
        <ele>463.5</ele>
        <time>2026-07-08T11:00:16Z</time>
      </trkpt>
      <trkpt lat="43.03112" lon="0.32059">
        <ele>463.5</ele>
        <time>2026-07-08T11:00:17Z</time>
      </trkpt>
      <trkpt lat="43.03113" lon="0.32059">
        <ele>463.5</ele>
        <time>2026-07-08T11:00:18Z</time>
      </trkpt>
      <trkpt lat="43.03114" lon="0.32058">
        <ele>463.5</ele>
        <time>2026-07-08T11:00:18Z</time>
      </trkpt>
      <trkpt lat="43.03115" lon="0.32058">
        <ele>463.5</ele>
        <time>2026-07-08T11:00:19Z</time>
      </trkpt>
      <trkpt lat="43.03115" lon="0.32058">
        <ele>463.5</ele>
        <time>2026-07-08T11:00:19Z</time>
      </trkpt>
      <trkpt lat="43.03116" lon="0.32058">
        <ele>463.5</ele>
        <time>2026-07-08T11:00:20Z</time>
      </trkpt>
      <trkpt lat="43.03117" lon="0.32058">
        <ele>463.5</ele>
        <time>2026-07-08T11:00:20Z</time>
      </trkpt>
      <trkpt lat="43.03117" lon="0.32058">
        <ele>463.5</ele>
        <time>2026-07-08T11:00:21Z</time>
      </trkpt>
      <trkpt lat="43.03118" lon="0.32058">
        <ele>463.5</ele>
        <time>2026-07-08T11:00:21Z</time>
      </trkpt>
      <trkpt lat="43.03119" lon="0.32057">
        <ele>463.5</ele>
        <time>2026-07-08T11:00:22Z</time>
      </trkpt>
      <trkpt lat="43.03121" lon="0.32057">
        <ele>463.5</ele>
        <time>2026-07-08T11:00:23Z</time>
      </trkpt>
      <trkpt lat="43.03122" lon="0.32057">
        <ele>463.5</ele>
        <time>2026-07-08T11:00:24Z</time>
      </trkpt>
      <trkpt lat="43.03123" lon="0.32056">
        <ele>463.5</ele>
        <time>2026-07-08T11:00:24Z</time>
      </trkpt>
      <trkpt lat="43.03123" lon="0.32056">
        <ele>463.5</ele>
        <time>2026-07-08T11:00:25Z</time>
      </trkpt>
      <trkpt lat="43.03124" lon="0.32056">
        <ele>463.5</ele>
        <time>2026-07-08T11:00:25Z</time>
      </trkpt>
      <trkpt lat="43.03125" lon="0.32056">
        <ele>462.5</ele>
        <time>2026-07-08T11:00:26Z</time>
      </trkpt>
      <trkpt lat="43.03125" lon="0.32055">
        <ele>462.5</ele>
        <time>2026-07-08T11:00:27Z</time>
      </trkpt>
      <trkpt lat="43.03126" lon="0.32055">
        <ele>462.5</ele>
        <time>2026-07-08T11:00:27Z</time>
      </trkpt>
      <trkpt lat="43.03127" lon="0.32055">
        <ele>462.5</ele>
        <time>2026-07-08T11:00:28Z</time>
      </trkpt>
      <trkpt lat="43.03127" lon="0.32054">
        <ele>463.5</ele>
        <time>2026-07-08T11:00:28Z</time>
      </trkpt>
      <trkpt lat="43.03128" lon="0.32054">
        <ele>463.5</ele>
        <time>2026-07-08T11:00:29Z</time>
      </trkpt>
      <trkpt lat="43.03129" lon="0.32054">
        <ele>463.5</ele>
        <time>2026-07-08T11:00:29Z</time>
      </trkpt>
      <trkpt lat="43.0313" lon="0.32054">
        <ele>463.5</ele>
        <time>2026-07-08T11:00:30Z</time>
      </trkpt>
      <trkpt lat="43.0313" lon="0.32054">
        <ele>463.5</ele>
        <time>2026-07-08T11:00:30Z</time>
      </trkpt>
      <trkpt lat="43.03131" lon="0.32054">
        <ele>463.5</ele>
        <time>2026-07-08T11:00:31Z</time>
      </trkpt>
      <trkpt lat="43.03132" lon="0.32054">
        <ele>463.5</ele>
        <time>2026-07-08T11:00:31Z</time>
      </trkpt>
      <trkpt lat="43.03133" lon="0.32054">
        <ele>463.5</ele>
        <time>2026-07-08T11:00:32Z</time>
      </trkpt>
      <trkpt lat="43.03133" lon="0.32054">
        <ele>463.5</ele>
        <time>2026-07-08T11:00:32Z</time>
      </trkpt>
      <trkpt lat="43.03134" lon="0.32054">
        <ele>463.5</ele>
        <time>2026-07-08T11:00:33Z</time>
      </trkpt>
      <trkpt lat="43.03135" lon="0.32054">
        <ele>463.5</ele>
        <time>2026-07-08T11:00:34Z</time>
      </trkpt>
      <trkpt lat="43.03135" lon="0.32054">
        <ele>463.5</ele>
        <time>2026-07-08T11:00:34Z</time>
      </trkpt>
      <trkpt lat="43.03136" lon="0.32054">
        <ele>463.5</ele>
        <time>2026-07-08T11:00:35Z</time>
      </trkpt>
      <trkpt lat="43.03137" lon="0.32054">
        <ele>463.5</ele>
        <time>2026-07-08T11:00:35Z</time>
      </trkpt>
      <trkpt lat="43.03138" lon="0.32054">
        <ele>463.5</ele>
        <time>2026-07-08T11:00:36Z</time>
      </trkpt>
      <trkpt lat="43.03138" lon="0.32054">
        <ele>463.5</ele>
        <time>2026-07-08T11:00:36Z</time>
      </trkpt>
      <trkpt lat="43.03139" lon="0.32054">
        <ele>463.5</ele>
        <time>2026-07-08T11:00:37Z</time>
      </trkpt>
      <trkpt lat="43.0314" lon="0.32054">
        <ele>463.5</ele>
        <time>2026-07-08T11:00:37Z</time>
      </trkpt>
      <trkpt lat="43.03141" lon="0.32054">
        <ele>463.5</ele>
        <time>2026-07-08T11:00:38Z</time>
      </trkpt>
      <trkpt lat="43.03142" lon="0.32054">
        <ele>463.5</ele>
        <time>2026-07-08T11:00:38Z</time>
      </trkpt>
      <trkpt lat="43.03142" lon="0.32054">
        <ele>463.5</ele>
        <time>2026-07-08T11:00:39Z</time>
      </trkpt>
      <trkpt lat="43.03143" lon="0.32054">
        <ele>463.5</ele>
        <time>2026-07-08T11:00:40Z</time>
      </trkpt>
      <trkpt lat="43.03144" lon="0.32054">
        <ele>463.5</ele>
        <time>2026-07-08T11:00:40Z</time>
      </trkpt>
      <trkpt lat="43.03145" lon="0.32054">
        <ele>463.5</ele>
        <time>2026-07-08T11:00:41Z</time>
      </trkpt>
      <trkpt lat="43.03145" lon="0.32054">
        <ele>463.5</ele>
        <time>2026-07-08T11:00:41Z</time>
      </trkpt>
      <trkpt lat="43.03146" lon="0.32054">
        <ele>463.5</ele>
        <time>2026-07-08T11:00:42Z</time>
      </trkpt>
      <trkpt lat="43.03147" lon="0.32054">
        <ele>463.5</ele>
        <time>2026-07-08T11:00:42Z</time>
      </trkpt>
      <trkpt lat="43.03148" lon="0.32055">
        <ele>463.5</ele>
        <time>2026-07-08T11:00:43Z</time>
      </trkpt>
      <trkpt lat="43.03148" lon="0.32055">
        <ele>463.5</ele>
        <time>2026-07-08T11:00:43Z</time>
      </trkpt>
      <trkpt lat="43.03149" lon="0.32055">
        <ele>463.5</ele>
        <time>2026-07-08T11:00:44Z</time>
      </trkpt>
      <trkpt lat="43.0315" lon="0.32055">
        <ele>463.5</ele>
        <time>2026-07-08T11:00:44Z</time>
      </trkpt>
      <trkpt lat="43.03151" lon="0.32055">
        <ele>463.5</ele>
        <time>2026-07-08T11:00:45Z</time>
      </trkpt>
      <trkpt lat="43.03151" lon="0.32055">
        <ele>463.5</ele>
        <time>2026-07-08T11:00:46Z</time>
      </trkpt>
      <trkpt lat="43.03152" lon="0.32055">
        <ele>463.5</ele>
        <time>2026-07-08T11:00:46Z</time>
      </trkpt>
      <trkpt lat="43.03153" lon="0.32055">
        <ele>463.5</ele>
        <time>2026-07-08T11:00:47Z</time>
      </trkpt>
      <trkpt lat="43.03154" lon="0.32055">
        <ele>463.5</ele>
        <time>2026-07-08T11:00:47Z</time>
      </trkpt>
      <trkpt lat="43.03154" lon="0.32056">
        <ele>463.5</ele>
        <time>2026-07-08T11:00:48Z</time>
      </trkpt>
      <trkpt lat="43.03155" lon="0.32056">
        <ele>463.5</ele>
        <time>2026-07-08T11:00:48Z</time>
      </trkpt>
      <trkpt lat="43.03156" lon="0.32056">
        <ele>464.5</ele>
        <time>2026-07-08T11:00:49Z</time>
      </trkpt>
      <trkpt lat="43.03157" lon="0.32056">
        <ele>464.5</ele>
        <time>2026-07-08T11:00:50Z</time>
      </trkpt>
      <trkpt lat="43.03158" lon="0.32056">
        <ele>464.5</ele>
        <time>2026-07-08T11:00:51Z</time>
      </trkpt>
      <trkpt lat="43.03159" lon="0.32057">
        <ele>464.5</ele>
        <time>2026-07-08T11:00:51Z</time>
      </trkpt>
      <trkpt lat="43.03159" lon="0.32057">
        <ele>464.5</ele>
        <time>2026-07-08T11:00:52Z</time>
      </trkpt>
      <trkpt lat="43.0316" lon="0.32058">
        <ele>463.5</ele>
        <time>2026-07-08T11:00:52Z</time>
      </trkpt>
      <trkpt lat="43.0316" lon="0.32059">
        <ele>463.5</ele>
        <time>2026-07-08T11:00:53Z</time>
      </trkpt>
      <trkpt lat="43.0316" lon="0.32059">
        <ele>463.5</ele>
        <time>2026-07-08T11:00:53Z</time>
      </trkpt>
      <trkpt lat="43.03161" lon="0.3206">
        <ele>463.5</ele>
        <time>2026-07-08T11:00:54Z</time>
      </trkpt>
      <trkpt lat="43.03161" lon="0.32061">
        <ele>464.5</ele>
        <time>2026-07-08T11:00:55Z</time>
      </trkpt>
      <trkpt lat="43.03161" lon="0.32062">
        <ele>464.5</ele>
        <time>2026-07-08T11:00:55Z</time>
      </trkpt>
      <trkpt lat="43.03162" lon="0.32063">
        <ele>464.5</ele>
        <time>2026-07-08T11:00:56Z</time>
      </trkpt>
      <trkpt lat="43.03162" lon="0.32064">
        <ele>464.5</ele>
        <time>2026-07-08T11:00:56Z</time>
      </trkpt>
      <trkpt lat="43.03162" lon="0.32065">
        <ele>464.5</ele>
        <time>2026-07-08T11:00:57Z</time>
      </trkpt>
      <trkpt lat="43.03162" lon="0.32065">
        <ele>464.5</ele>
        <time>2026-07-08T11:00:57Z</time>
      </trkpt>
      <trkpt lat="43.03162" lon="0.32066">
        <ele>464.5</ele>
        <time>2026-07-08T11:00:58Z</time>
      </trkpt>
      <trkpt lat="43.03163" lon="0.32067">
        <ele>465.5</ele>
        <time>2026-07-08T11:00:58Z</time>
      </trkpt>
      <trkpt lat="43.03163" lon="0.32068">
        <ele>465.5</ele>
        <time>2026-07-08T11:00:59Z</time>
      </trkpt>
      <trkpt lat="43.03163" lon="0.32068">
        <ele>465.5</ele>
        <time>2026-07-08T11:01:00Z</time>
      </trkpt>
      <trkpt lat="43.03164" lon="0.32069">
        <ele>465.5</ele>
        <time>2026-07-08T11:01:00Z</time>
      </trkpt>
      <trkpt lat="43.03164" lon="0.3207">
        <ele>465.5</ele>
        <time>2026-07-08T11:01:01Z</time>
      </trkpt>
      <trkpt lat="43.03164" lon="0.3207">
        <ele>465.5</ele>
        <time>2026-07-08T11:01:01Z</time>
      </trkpt>
      <trkpt lat="43.03165" lon="0.32071">
        <ele>465.5</ele>
        <time>2026-07-08T11:01:02Z</time>
      </trkpt>
      <trkpt lat="43.03165" lon="0.32072">
        <ele>465.5</ele>
        <time>2026-07-08T11:01:02Z</time>
      </trkpt>
      <trkpt lat="43.03165" lon="0.32072">
        <ele>465.5</ele>
        <time>2026-07-08T11:01:03Z</time>
      </trkpt>
      <trkpt lat="43.03165" lon="0.32073">
        <ele>465.5</ele>
        <time>2026-07-08T11:01:03Z</time>
      </trkpt>
      <trkpt lat="43.03166" lon="0.32073">
        <ele>465.5</ele>
        <time>2026-07-08T11:01:04Z</time>
      </trkpt>
      <trkpt lat="43.03166" lon="0.32074">
        <ele>465.5</ele>
        <time>2026-07-08T11:01:05Z</time>
      </trkpt>
      <trkpt lat="43.03166" lon="0.32075">
        <ele>465.5</ele>
        <time>2026-07-08T11:01:05Z</time>
      </trkpt>
      <trkpt lat="43.03167" lon="0.32076">
        <ele>465.5</ele>
        <time>2026-07-08T11:01:06Z</time>
      </trkpt>
      <trkpt lat="43.03167" lon="0.32077">
        <ele>466.5</ele>
        <time>2026-07-08T11:01:06Z</time>
      </trkpt>
      <trkpt lat="43.03167" lon="0.32078">
        <ele>466.5</ele>
        <time>2026-07-08T11:01:07Z</time>
      </trkpt>
      <trkpt lat="43.03168" lon="0.32079">
        <ele>465.5</ele>
        <time>2026-07-08T11:01:07Z</time>
      </trkpt>
      <trkpt lat="43.03168" lon="0.3208">
        <ele>465.5</ele>
        <time>2026-07-08T11:01:08Z</time>
      </trkpt>
      <trkpt lat="43.03168" lon="0.32081">
        <ele>465.5</ele>
        <time>2026-07-08T11:01:09Z</time>
      </trkpt>
      <trkpt lat="43.03168" lon="0.32082">
        <ele>465.5</ele>
        <time>2026-07-08T11:01:09Z</time>
      </trkpt>
      <trkpt lat="43.03168" lon="0.32083">
        <ele>465.5</ele>
        <time>2026-07-08T11:01:10Z</time>
      </trkpt>
      <trkpt lat="43.03168" lon="0.32083">
        <ele>465.5</ele>
        <time>2026-07-08T11:01:10Z</time>
      </trkpt>
      <trkpt lat="43.03169" lon="0.32084">
        <ele>465.5</ele>
        <time>2026-07-08T11:01:11Z</time>
      </trkpt>
      <trkpt lat="43.03169" lon="0.32085">
        <ele>465.5</ele>
        <time>2026-07-08T11:01:11Z</time>
      </trkpt>
      <trkpt lat="43.03169" lon="0.32086">
        <ele>465.5</ele>
        <time>2026-07-08T11:01:12Z</time>
      </trkpt>
      <trkpt lat="43.03169" lon="0.32087">
        <ele>465.5</ele>
        <time>2026-07-08T11:01:12Z</time>
      </trkpt>
      <trkpt lat="43.03169" lon="0.32088">
        <ele>465.5</ele>
        <time>2026-07-08T11:01:13Z</time>
      </trkpt>
      <trkpt lat="43.03169" lon="0.32088">
        <ele>465.5</ele>
        <time>2026-07-08T11:01:14Z</time>
      </trkpt>
      <trkpt lat="43.0317" lon="0.32089">
        <ele>464.5</ele>
        <time>2026-07-08T11:01:14Z</time>
      </trkpt>
      <trkpt lat="43.0317" lon="0.3209">
        <ele>464.5</ele>
        <time>2026-07-08T11:01:15Z</time>
      </trkpt>
      <trkpt lat="43.0317" lon="0.3209">
        <ele>465.5</ele>
        <time>2026-07-08T11:01:15Z</time>
      </trkpt>
      <trkpt lat="43.03171" lon="0.32091">
        <ele>465.5</ele>
        <time>2026-07-08T11:01:16Z</time>
      </trkpt>
      <trkpt lat="43.03171" lon="0.32092">
        <ele>465.5</ele>
        <time>2026-07-08T11:01:17Z</time>
      </trkpt>
      <trkpt lat="43.03171" lon="0.32093">
        <ele>464.5</ele>
        <time>2026-07-08T11:01:17Z</time>
      </trkpt>
      <trkpt lat="43.03171" lon="0.32094">
        <ele>464.5</ele>
        <time>2026-07-08T11:01:18Z</time>
      </trkpt>
      <trkpt lat="43.03171" lon="0.32095">
        <ele>464.5</ele>
        <time>2026-07-08T11:01:18Z</time>
      </trkpt>
      <trkpt lat="43.03172" lon="0.32096">
        <ele>464.5</ele>
        <time>2026-07-08T11:01:19Z</time>
      </trkpt>
      <trkpt lat="43.03172" lon="0.32096">
        <ele>464.5</ele>
        <time>2026-07-08T11:01:19Z</time>
      </trkpt>
      <trkpt lat="43.03172" lon="0.32097">
        <ele>464.5</ele>
        <time>2026-07-08T11:01:20Z</time>
      </trkpt>
      <trkpt lat="43.03172" lon="0.32098">
        <ele>464.5</ele>
        <time>2026-07-08T11:01:21Z</time>
      </trkpt>
      <trkpt lat="43.03172" lon="0.32099">
        <ele>464.5</ele>
        <time>2026-07-08T11:01:21Z</time>
      </trkpt>
      <trkpt lat="43.03173" lon="0.32099">
        <ele>464.5</ele>
        <time>2026-07-08T11:01:22Z</time>
      </trkpt>
      <trkpt lat="43.03173" lon="0.321">
        <ele>464.5</ele>
        <time>2026-07-08T11:01:22Z</time>
      </trkpt>
      <trkpt lat="43.03173" lon="0.32101">
        <ele>464.5</ele>
        <time>2026-07-08T11:01:23Z</time>
      </trkpt>
      <trkpt lat="43.03174" lon="0.32102">
        <ele>465.5</ele>
        <time>2026-07-08T11:01:23Z</time>
      </trkpt>
      <trkpt lat="43.03174" lon="0.32102">
        <ele>465.5</ele>
        <time>2026-07-08T11:01:24Z</time>
      </trkpt>
      <trkpt lat="43.03175" lon="0.32103">
        <ele>465.5</ele>
        <time>2026-07-08T11:01:25Z</time>
      </trkpt>
      <trkpt lat="43.03176" lon="0.32103">
        <ele>465.5</ele>
        <time>2026-07-08T11:01:25Z</time>
      </trkpt>
      <trkpt lat="43.03176" lon="0.32104">
        <ele>465.5</ele>
        <time>2026-07-08T11:01:26Z</time>
      </trkpt>
      <trkpt lat="43.03177" lon="0.32104">
        <ele>465.5</ele>
        <time>2026-07-08T11:01:26Z</time>
      </trkpt>
      <trkpt lat="43.03177" lon="0.32105">
        <ele>465.5</ele>
        <time>2026-07-08T11:01:27Z</time>
      </trkpt>
      <trkpt lat="43.03178" lon="0.32106">
        <ele>465.5</ele>
        <time>2026-07-08T11:01:27Z</time>
      </trkpt>
      <trkpt lat="43.03178" lon="0.32106">
        <ele>465.5</ele>
        <time>2026-07-08T11:01:28Z</time>
      </trkpt>
      <trkpt lat="43.03179" lon="0.32107">
        <ele>465.5</ele>
        <time>2026-07-08T11:01:29Z</time>
      </trkpt>
      <trkpt lat="43.03179" lon="0.32108">
        <ele>465.5</ele>
        <time>2026-07-08T11:01:29Z</time>
      </trkpt>
      <trkpt lat="43.0318" lon="0.32109">
        <ele>465.5</ele>
        <time>2026-07-08T11:01:30Z</time>
      </trkpt>
      <trkpt lat="43.0318" lon="0.32109">
        <ele>465.5</ele>
        <time>2026-07-08T11:01:31Z</time>
      </trkpt>
      <trkpt lat="43.03181" lon="0.3211">
        <ele>465.5</ele>
        <time>2026-07-08T11:01:31Z</time>
      </trkpt>
      <trkpt lat="43.03181" lon="0.32111">
        <ele>465.5</ele>
        <time>2026-07-08T11:01:32Z</time>
      </trkpt>
      <trkpt lat="43.03182" lon="0.32112">
        <ele>466.5</ele>
        <time>2026-07-08T11:01:32Z</time>
      </trkpt>
      <trkpt lat="43.03182" lon="0.32112">
        <ele>465.5</ele>
        <time>2026-07-08T11:01:33Z</time>
      </trkpt>
      <trkpt lat="43.03183" lon="0.32112">
        <ele>465.5</ele>
        <time>2026-07-08T11:01:34Z</time>
      </trkpt>
      <trkpt lat="43.03184" lon="0.32113">
        <ele>466.5</ele>
        <time>2026-07-08T11:01:35Z</time>
      </trkpt>
      <trkpt lat="43.03184" lon="0.32113">
        <ele>466.5</ele>
        <time>2026-07-08T11:01:36Z</time>
      </trkpt>
      <trkpt lat="43.03183" lon="0.32113">
        <ele>465.5</ele>
        <time>2026-07-08T11:01:36Z</time>
      </trkpt>
      <trkpt lat="43.03182" lon="0.32113">
        <ele>465.5</ele>
        <time>2026-07-08T11:01:37Z</time>
      </trkpt>
      <trkpt lat="43.03181" lon="0.32112">
        <ele>465.5</ele>
        <time>2026-07-08T11:01:38Z</time>
      </trkpt>
      <trkpt lat="43.03179" lon="0.3211">
        <ele>465.5</ele>
        <time>2026-07-08T11:01:39Z</time>
      </trkpt>
      <trkpt lat="43.03178" lon="0.32108">
        <ele>465.5</ele>
        <time>2026-07-08T11:01:40Z</time>
      </trkpt>
      <trkpt lat="43.03177" lon="0.32106">
        <ele>465.5</ele>
        <time>2026-07-08T11:01:41Z</time>
      </trkpt>
      <trkpt lat="43.03177" lon="0.32105">
        <ele>465.5</ele>
        <time>2026-07-08T11:01:42Z</time>
      </trkpt>
      <trkpt lat="43.03177" lon="0.32104">
        <ele>465.5</ele>
        <time>2026-07-08T11:01:42Z</time>
      </trkpt>
      <trkpt lat="43.03176" lon="0.32103">
        <ele>465.5</ele>
        <time>2026-07-08T11:01:43Z</time>
      </trkpt>
      <trkpt lat="43.03176" lon="0.32102">
        <ele>465.5</ele>
        <time>2026-07-08T11:01:43Z</time>
      </trkpt>
      <trkpt lat="43.03175" lon="0.32101">
        <ele>465.5</ele>
        <time>2026-07-08T11:01:44Z</time>
      </trkpt>
      <trkpt lat="43.03174" lon="0.321">
        <ele>465.5</ele>
        <time>2026-07-08T11:01:45Z</time>
      </trkpt>
      <trkpt lat="43.03174" lon="0.32098">
        <ele>466.5</ele>
        <time>2026-07-08T11:01:46Z</time>
      </trkpt>
      <trkpt lat="43.03173" lon="0.32098">
        <ele>466.5</ele>
        <time>2026-07-08T11:01:46Z</time>
      </trkpt>
      <trkpt lat="43.03173" lon="0.32097">
        <ele>466.5</ele>
        <time>2026-07-08T11:01:46Z</time>
      </trkpt>
      <trkpt lat="43.03173" lon="0.32096">
        <ele>466.5</ele>
        <time>2026-07-08T11:01:47Z</time>
      </trkpt>
      <trkpt lat="43.03172" lon="0.32095">
        <ele>466.5</ele>
        <time>2026-07-08T11:01:48Z</time>
      </trkpt>
      <trkpt lat="43.03171" lon="0.32093">
        <ele>467.5</ele>
        <time>2026-07-08T11:01:49Z</time>
      </trkpt>
      <trkpt lat="43.03171" lon="0.32092">
        <ele>467.5</ele>
        <time>2026-07-08T11:01:50Z</time>
      </trkpt>
      <trkpt lat="43.0317" lon="0.3209">
        <ele>467.5</ele>
        <time>2026-07-08T11:01:51Z</time>
      </trkpt>
      <trkpt lat="43.0317" lon="0.32089">
        <ele>467.5</ele>
        <time>2026-07-08T11:01:52Z</time>
      </trkpt>
      <trkpt lat="43.03169" lon="0.32088">
        <ele>467.5</ele>
        <time>2026-07-08T11:01:52Z</time>
      </trkpt>
      <trkpt lat="43.03169" lon="0.32087">
        <ele>466.5</ele>
        <time>2026-07-08T11:01:53Z</time>
      </trkpt>
      <trkpt lat="43.03169" lon="0.32086">
        <ele>466.5</ele>
        <time>2026-07-08T11:01:54Z</time>
      </trkpt>
      <trkpt lat="43.03169" lon="0.32084">
        <ele>466.5</ele>
        <time>2026-07-08T11:01:55Z</time>
      </trkpt>
      <trkpt lat="43.03169" lon="0.32083">
        <ele>466.5</ele>
        <time>2026-07-08T11:01:55Z</time>
      </trkpt>
      <trkpt lat="43.03169" lon="0.32082">
        <ele>466.5</ele>
        <time>2026-07-08T11:01:56Z</time>
      </trkpt>
      <trkpt lat="43.03169" lon="0.32081">
        <ele>466.5</ele>
        <time>2026-07-08T11:01:57Z</time>
      </trkpt>
      <trkpt lat="43.03169" lon="0.3208">
        <ele>465.5</ele>
        <time>2026-07-08T11:01:57Z</time>
      </trkpt>
      <trkpt lat="43.03169" lon="0.32079">
        <ele>465.5</ele>
        <time>2026-07-08T11:01:58Z</time>
      </trkpt>
      <trkpt lat="43.03169" lon="0.32077">
        <ele>465.5</ele>
        <time>2026-07-08T11:01:59Z</time>
      </trkpt>
      <trkpt lat="43.03169" lon="0.32076">
        <ele>465.5</ele>
        <time>2026-07-08T11:02:00Z</time>
      </trkpt>
      <trkpt lat="43.03169" lon="0.32074">
        <ele>465.5</ele>
        <time>2026-07-08T11:02:01Z</time>
      </trkpt>
      <trkpt lat="43.03169" lon="0.32073">
        <ele>464.5</ele>
        <time>2026-07-08T11:02:02Z</time>
      </trkpt>
      <trkpt lat="43.03169" lon="0.32071">
        <ele>465.5</ele>
        <time>2026-07-08T11:02:03Z</time>
      </trkpt>
      <trkpt lat="43.03169" lon="0.3207">
        <ele>465.5</ele>
        <time>2026-07-08T11:02:04Z</time>
      </trkpt>
      <trkpt lat="43.03168" lon="0.32069">
        <ele>465.5</ele>
        <time>2026-07-08T11:02:04Z</time>
      </trkpt>
      <trkpt lat="43.03168" lon="0.32068">
        <ele>465.5</ele>
        <time>2026-07-08T11:02:05Z</time>
      </trkpt>
      <trkpt lat="43.03168" lon="0.32066">
        <ele>465.5</ele>
        <time>2026-07-08T11:02:06Z</time>
      </trkpt>
      <trkpt lat="43.03168" lon="0.32064">
        <ele>465.5</ele>
        <time>2026-07-08T11:02:07Z</time>
      </trkpt>
      <trkpt lat="43.03168" lon="0.32063">
        <ele>465.5</ele>
        <time>2026-07-08T11:02:08Z</time>
      </trkpt>
      <trkpt lat="43.03168" lon="0.32062">
        <ele>465.5</ele>
        <time>2026-07-08T11:02:09Z</time>
      </trkpt>
      <trkpt lat="43.03168" lon="0.32061">
        <ele>466.5</ele>
        <time>2026-07-08T11:02:09Z</time>
      </trkpt>
      <trkpt lat="43.03168" lon="0.3206">
        <ele>466.5</ele>
        <time>2026-07-08T11:02:10Z</time>
      </trkpt>
      <trkpt lat="43.03169" lon="0.32059">
        <ele>466.5</ele>
        <time>2026-07-08T11:02:10Z</time>
      </trkpt>
      <trkpt lat="43.03169" lon="0.32058">
        <ele>466.5</ele>
        <time>2026-07-08T11:02:11Z</time>
      </trkpt>
      <trkpt lat="43.03169" lon="0.32058">
        <ele>465.5</ele>
        <time>2026-07-08T11:02:12Z</time>
      </trkpt>
      <trkpt lat="43.03169" lon="0.32057">
        <ele>465.5</ele>
        <time>2026-07-08T11:02:12Z</time>
      </trkpt>
      <trkpt lat="43.03169" lon="0.32056">
        <ele>465.5</ele>
        <time>2026-07-08T11:02:13Z</time>
      </trkpt>
      <trkpt lat="43.03169" lon="0.32055">
        <ele>465.5</ele>
        <time>2026-07-08T11:02:13Z</time>
      </trkpt>
      <trkpt lat="43.03169" lon="0.32054">
        <ele>465.5</ele>
        <time>2026-07-08T11:02:14Z</time>
      </trkpt>
      <trkpt lat="43.03169" lon="0.32053">
        <ele>465.5</ele>
        <time>2026-07-08T11:02:14Z</time>
      </trkpt>
      <trkpt lat="43.03169" lon="0.32052">
        <ele>465.5</ele>
        <time>2026-07-08T11:02:15Z</time>
      </trkpt>
      <trkpt lat="43.0317" lon="0.32052">
        <ele>465.5</ele>
        <time>2026-07-08T11:02:15Z</time>
      </trkpt>
      <trkpt lat="43.0317" lon="0.32051">
        <ele>465.5</ele>
        <time>2026-07-08T11:02:16Z</time>
      </trkpt>
      <trkpt lat="43.0317" lon="0.3205">
        <ele>464.5</ele>
        <time>2026-07-08T11:02:16Z</time>
      </trkpt>
      <trkpt lat="43.0317" lon="0.32049">
        <ele>464.5</ele>
        <time>2026-07-08T11:02:17Z</time>
      </trkpt>
      <trkpt lat="43.0317" lon="0.32049">
        <ele>464.5</ele>
        <time>2026-07-08T11:02:17Z</time>
      </trkpt>
      <trkpt lat="43.03171" lon="0.32048">
        <ele>464.5</ele>
        <time>2026-07-08T11:02:18Z</time>
      </trkpt>
      <trkpt lat="43.03171" lon="0.32047">
        <ele>465.5</ele>
        <time>2026-07-08T11:02:19Z</time>
      </trkpt>
      <trkpt lat="43.03171" lon="0.32046">
        <ele>464.5</ele>
        <time>2026-07-08T11:02:19Z</time>
      </trkpt>
      <trkpt lat="43.03171" lon="0.32045">
        <ele>464.5</ele>
        <time>2026-07-08T11:02:20Z</time>
      </trkpt>
      <trkpt lat="43.03171" lon="0.32044">
        <ele>464.5</ele>
        <time>2026-07-08T11:02:20Z</time>
      </trkpt>
      <trkpt lat="43.03171" lon="0.32043">
        <ele>464.5</ele>
        <time>2026-07-08T11:02:21Z</time>
      </trkpt>
      <trkpt lat="43.03171" lon="0.32043">
        <ele>464.5</ele>
        <time>2026-07-08T11:02:21Z</time>
      </trkpt>
      <trkpt lat="43.03171" lon="0.32042">
        <ele>464.5</ele>
        <time>2026-07-08T11:02:22Z</time>
      </trkpt>
      <trkpt lat="43.03171" lon="0.32041">
        <ele>463.5</ele>
        <time>2026-07-08T11:02:22Z</time>
      </trkpt>
      <trkpt lat="43.03171" lon="0.3204">
        <ele>463.5</ele>
        <time>2026-07-08T11:02:23Z</time>
      </trkpt>
      <trkpt lat="43.03171" lon="0.32039">
        <ele>464.5</ele>
        <time>2026-07-08T11:02:23Z</time>
      </trkpt>
      <trkpt lat="43.03171" lon="0.32038">
        <ele>464.5</ele>
        <time>2026-07-08T11:02:24Z</time>
      </trkpt>
      <trkpt lat="43.03172" lon="0.32037">
        <ele>464.5</ele>
        <time>2026-07-08T11:02:25Z</time>
      </trkpt>
      <trkpt lat="43.03172" lon="0.32036">
        <ele>464.5</ele>
        <time>2026-07-08T11:02:25Z</time>
      </trkpt>
      <trkpt lat="43.03172" lon="0.32035">
        <ele>464.5</ele>
        <time>2026-07-08T11:02:26Z</time>
      </trkpt>
      <trkpt lat="43.03172" lon="0.32035">
        <ele>464.5</ele>
        <time>2026-07-08T11:02:26Z</time>
      </trkpt>
      <trkpt lat="43.03172" lon="0.32034">
        <ele>464.5</ele>
        <time>2026-07-08T11:02:27Z</time>
      </trkpt>
      <trkpt lat="43.03172" lon="0.32033">
        <ele>464.5</ele>
        <time>2026-07-08T11:02:27Z</time>
      </trkpt>
      <trkpt lat="43.03172" lon="0.32032">
        <ele>464.5</ele>
        <time>2026-07-08T11:02:28Z</time>
      </trkpt>
      <trkpt lat="43.03171" lon="0.32031">
        <ele>464.5</ele>
        <time>2026-07-08T11:02:28Z</time>
      </trkpt>
      <trkpt lat="43.03171" lon="0.3203">
        <ele>464.5</ele>
        <time>2026-07-08T11:02:29Z</time>
      </trkpt>
      <trkpt lat="43.03171" lon="0.3203">
        <ele>464.5</ele>
        <time>2026-07-08T11:02:30Z</time>
      </trkpt>
      <trkpt lat="43.03171" lon="0.32029">
        <ele>464.5</ele>
        <time>2026-07-08T11:02:30Z</time>
      </trkpt>
      <trkpt lat="43.03171" lon="0.32028">
        <ele>464.5</ele>
        <time>2026-07-08T11:02:31Z</time>
      </trkpt>
      <trkpt lat="43.03171" lon="0.32027">
        <ele>463.5</ele>
        <time>2026-07-08T11:02:31Z</time>
      </trkpt>
      <trkpt lat="43.0317" lon="0.32026">
        <ele>463.5</ele>
        <time>2026-07-08T11:02:32Z</time>
      </trkpt>
      <trkpt lat="43.0317" lon="0.32026">
        <ele>464.5</ele>
        <time>2026-07-08T11:02:33Z</time>
      </trkpt>
      <trkpt lat="43.03169" lon="0.32025">
        <ele>464.5</ele>
        <time>2026-07-08T11:02:33Z</time>
      </trkpt>
      <trkpt lat="43.03169" lon="0.32024">
        <ele>464.5</ele>
        <time>2026-07-08T11:02:34Z</time>
      </trkpt>
      <trkpt lat="43.03169" lon="0.32023">
        <ele>463.5</ele>
        <time>2026-07-08T11:02:34Z</time>
      </trkpt>
      <trkpt lat="43.03169" lon="0.32023">
        <ele>463.5</ele>
        <time>2026-07-08T11:02:35Z</time>
      </trkpt>
      <trkpt lat="43.03169" lon="0.32021">
        <ele>463.5</ele>
        <time>2026-07-08T11:02:36Z</time>
      </trkpt>
      <trkpt lat="43.03169" lon="0.3202">
        <ele>464.5</ele>
        <time>2026-07-08T11:02:37Z</time>
      </trkpt>
      <trkpt lat="43.03169" lon="0.3202">
        <ele>464.5</ele>
        <time>2026-07-08T11:02:37Z</time>
      </trkpt>
      <trkpt lat="43.03169" lon="0.32019">
        <ele>464.5</ele>
        <time>2026-07-08T11:02:38Z</time>
      </trkpt>
      <trkpt lat="43.0317" lon="0.32018">
        <ele>463.5</ele>
        <time>2026-07-08T11:02:38Z</time>
      </trkpt>
      <trkpt lat="43.0317" lon="0.32017">
        <ele>463.5</ele>
        <time>2026-07-08T11:02:39Z</time>
      </trkpt>
      <trkpt lat="43.0317" lon="0.32017">
        <ele>463.5</ele>
        <time>2026-07-08T11:02:39Z</time>
      </trkpt>
      <trkpt lat="43.0317" lon="0.32016">
        <ele>463.5</ele>
        <time>2026-07-08T11:02:40Z</time>
      </trkpt>
      <trkpt lat="43.0317" lon="0.32015">
        <ele>463.5</ele>
        <time>2026-07-08T11:02:40Z</time>
      </trkpt>
      <trkpt lat="43.0317" lon="0.32014">
        <ele>463.5</ele>
        <time>2026-07-08T11:02:41Z</time>
      </trkpt>
      <trkpt lat="43.0317" lon="0.32013">
        <ele>463.5</ele>
        <time>2026-07-08T11:02:42Z</time>
      </trkpt>
      <trkpt lat="43.0317" lon="0.32012">
        <ele>463.5</ele>
        <time>2026-07-08T11:02:42Z</time>
      </trkpt>
      <trkpt lat="43.03171" lon="0.32011">
        <ele>463.5</ele>
        <time>2026-07-08T11:02:43Z</time>
      </trkpt>
      <trkpt lat="43.03171" lon="0.3201">
        <ele>463.5</ele>
        <time>2026-07-08T11:02:43Z</time>
      </trkpt>
      <trkpt lat="43.03171" lon="0.3201">
        <ele>463.5</ele>
        <time>2026-07-08T11:02:44Z</time>
      </trkpt>
      <trkpt lat="43.03171" lon="0.32009">
        <ele>462.5</ele>
        <time>2026-07-08T11:02:45Z</time>
      </trkpt>
      <trkpt lat="43.03172" lon="0.32008">
        <ele>463.5</ele>
        <time>2026-07-08T11:02:46Z</time>
      </trkpt>
      <trkpt lat="43.03172" lon="0.32007">
        <ele>463.5</ele>
        <time>2026-07-08T11:02:46Z</time>
      </trkpt>
      <trkpt lat="43.03172" lon="0.32006">
        <ele>463.5</ele>
        <time>2026-07-08T11:02:47Z</time>
      </trkpt>
      <trkpt lat="43.03172" lon="0.32005">
        <ele>463.5</ele>
        <time>2026-07-08T11:02:47Z</time>
      </trkpt>
      <trkpt lat="43.03172" lon="0.32004">
        <ele>463.5</ele>
        <time>2026-07-08T11:02:48Z</time>
      </trkpt>
      <trkpt lat="43.03172" lon="0.32003">
        <ele>463.5</ele>
        <time>2026-07-08T11:02:49Z</time>
      </trkpt>
      <trkpt lat="43.03172" lon="0.32002">
        <ele>463.5</ele>
        <time>2026-07-08T11:02:49Z</time>
      </trkpt>
      <trkpt lat="43.03172" lon="0.32001">
        <ele>463.5</ele>
        <time>2026-07-08T11:02:50Z</time>
      </trkpt>
      <trkpt lat="43.03172" lon="0.32">
        <ele>463.5</ele>
        <time>2026-07-08T11:02:50Z</time>
      </trkpt>
      <trkpt lat="43.03172" lon="0.32">
        <ele>463.5</ele>
        <time>2026-07-08T11:02:51Z</time>
      </trkpt>
      <trkpt lat="43.03172" lon="0.31998">
        <ele>463.5</ele>
        <time>2026-07-08T11:02:52Z</time>
      </trkpt>
      <trkpt lat="43.03172" lon="0.31996">
        <ele>463.5</ele>
        <time>2026-07-08T11:02:53Z</time>
      </trkpt>
      <trkpt lat="43.03171" lon="0.31996">
        <ele>464.5</ele>
        <time>2026-07-08T11:02:53Z</time>
      </trkpt>
      <trkpt lat="43.03171" lon="0.31995">
        <ele>464.5</ele>
        <time>2026-07-08T11:02:54Z</time>
      </trkpt>
      <trkpt lat="43.03171" lon="0.31994">
        <ele>463.5</ele>
        <time>2026-07-08T11:02:54Z</time>
      </trkpt>
      <trkpt lat="43.0317" lon="0.31993">
        <ele>463.5</ele>
        <time>2026-07-08T11:02:55Z</time>
      </trkpt>
      <trkpt lat="43.0317" lon="0.31992">
        <ele>464.5</ele>
        <time>2026-07-08T11:02:55Z</time>
      </trkpt>
      <trkpt lat="43.0317" lon="0.31992">
        <ele>464.5</ele>
        <time>2026-07-08T11:02:56Z</time>
      </trkpt>
      <trkpt lat="43.0317" lon="0.31991">
        <ele>464.5</ele>
        <time>2026-07-08T11:02:57Z</time>
      </trkpt>
      <trkpt lat="43.0317" lon="0.3199">
        <ele>464.5</ele>
        <time>2026-07-08T11:02:57Z</time>
      </trkpt>
      <trkpt lat="43.0317" lon="0.31989">
        <ele>463.5</ele>
        <time>2026-07-08T11:02:58Z</time>
      </trkpt>
      <trkpt lat="43.03171" lon="0.31988">
        <ele>463.5</ele>
        <time>2026-07-08T11:02:59Z</time>
      </trkpt>
      <trkpt lat="43.03171" lon="0.31987">
        <ele>464.5</ele>
        <time>2026-07-08T11:02:59Z</time>
      </trkpt>
      <trkpt lat="43.03171" lon="0.31986">
        <ele>464.5</ele>
        <time>2026-07-08T11:03:00Z</time>
      </trkpt>
      <trkpt lat="43.03172" lon="0.31986">
        <ele>464.5</ele>
        <time>2026-07-08T11:03:00Z</time>
      </trkpt>
      <trkpt lat="43.03172" lon="0.31985">
        <ele>464.5</ele>
        <time>2026-07-08T11:03:01Z</time>
      </trkpt>
      <trkpt lat="43.03172" lon="0.31984">
        <ele>464.5</ele>
        <time>2026-07-08T11:03:02Z</time>
      </trkpt>
      <trkpt lat="43.03172" lon="0.31983">
        <ele>464.5</ele>
        <time>2026-07-08T11:03:02Z</time>
      </trkpt>
      <trkpt lat="43.03173" lon="0.31983">
        <ele>464.5</ele>
        <time>2026-07-08T11:03:03Z</time>
      </trkpt>
      <trkpt lat="43.03173" lon="0.31982">
        <ele>464.5</ele>
        <time>2026-07-08T11:03:03Z</time>
      </trkpt>
      <trkpt lat="43.03173" lon="0.31981">
        <ele>464.5</ele>
        <time>2026-07-08T11:03:04Z</time>
      </trkpt>
      <trkpt lat="43.03173" lon="0.3198">
        <ele>464.5</ele>
        <time>2026-07-08T11:03:04Z</time>
      </trkpt>
      <trkpt lat="43.03172" lon="0.31979">
        <ele>465.5</ele>
        <time>2026-07-08T11:03:05Z</time>
      </trkpt>
      <trkpt lat="43.03172" lon="0.31978">
        <ele>465.5</ele>
        <time>2026-07-08T11:03:05Z</time>
      </trkpt>
      <trkpt lat="43.03172" lon="0.31977">
        <ele>465.5</ele>
        <time>2026-07-08T11:03:06Z</time>
      </trkpt>
      <trkpt lat="43.03172" lon="0.31976">
        <ele>465.5</ele>
        <time>2026-07-08T11:03:07Z</time>
      </trkpt>
      <trkpt lat="43.03172" lon="0.31975">
        <ele>464.5</ele>
        <time>2026-07-08T11:03:07Z</time>
      </trkpt>
      <trkpt lat="43.03172" lon="0.31974">
        <ele>464.5</ele>
        <time>2026-07-08T11:03:08Z</time>
      </trkpt>
      <trkpt lat="43.03171" lon="0.31973">
        <ele>464.5</ele>
        <time>2026-07-08T11:03:08Z</time>
      </trkpt>
      <trkpt lat="43.03171" lon="0.31972">
        <ele>464.5</ele>
        <time>2026-07-08T11:03:09Z</time>
      </trkpt>
      <trkpt lat="43.03171" lon="0.31971">
        <ele>464.5</ele>
        <time>2026-07-08T11:03:09Z</time>
      </trkpt>
      <trkpt lat="43.03171" lon="0.3197">
        <ele>464.5</ele>
        <time>2026-07-08T11:03:10Z</time>
      </trkpt>
      <trkpt lat="43.03171" lon="0.31969">
        <ele>463.5</ele>
        <time>2026-07-08T11:03:11Z</time>
      </trkpt>
      <trkpt lat="43.0317" lon="0.31969">
        <ele>463.5</ele>
        <time>2026-07-08T11:03:11Z</time>
      </trkpt>
      <trkpt lat="43.0317" lon="0.31968">
        <ele>463.5</ele>
        <time>2026-07-08T11:03:12Z</time>
      </trkpt>
      <trkpt lat="43.03169" lon="0.31967">
        <ele>463.5</ele>
        <time>2026-07-08T11:03:12Z</time>
      </trkpt>
      <trkpt lat="43.03169" lon="0.31966">
        <ele>463.5</ele>
        <time>2026-07-08T11:03:13Z</time>
      </trkpt>
      <trkpt lat="43.03168" lon="0.31965">
        <ele>464.5</ele>
        <time>2026-07-08T11:03:13Z</time>
      </trkpt>
      <trkpt lat="43.03168" lon="0.31964">
        <ele>464.5</ele>
        <time>2026-07-08T11:03:14Z</time>
      </trkpt>
      <trkpt lat="43.03168" lon="0.31963">
        <ele>464.5</ele>
        <time>2026-07-08T11:03:14Z</time>
      </trkpt>
      <trkpt lat="43.03168" lon="0.31963">
        <ele>465.5</ele>
        <time>2026-07-08T11:03:15Z</time>
      </trkpt>
      <trkpt lat="43.03167" lon="0.31962">
        <ele>465.5</ele>
        <time>2026-07-08T11:03:16Z</time>
      </trkpt>
      <trkpt lat="43.03167" lon="0.31961">
        <ele>465.5</ele>
        <time>2026-07-08T11:03:16Z</time>
      </trkpt>
      <trkpt lat="43.03167" lon="0.3196">
        <ele>465.5</ele>
        <time>2026-07-08T11:03:17Z</time>
      </trkpt>
      <trkpt lat="43.03167" lon="0.31959">
        <ele>465.5</ele>
        <time>2026-07-08T11:03:18Z</time>
      </trkpt>
      <trkpt lat="43.03167" lon="0.31958">
        <ele>465.5</ele>
        <time>2026-07-08T11:03:18Z</time>
      </trkpt>
      <trkpt lat="43.03167" lon="0.31957">
        <ele>465.5</ele>
        <time>2026-07-08T11:03:19Z</time>
      </trkpt>
      <trkpt lat="43.03167" lon="0.31956">
        <ele>465.5</ele>
        <time>2026-07-08T11:03:19Z</time>
      </trkpt>
      <trkpt lat="43.03167" lon="0.31955">
        <ele>465.5</ele>
        <time>2026-07-08T11:03:20Z</time>
      </trkpt>
      <trkpt lat="43.03167" lon="0.31954">
        <ele>465.5</ele>
        <time>2026-07-08T11:03:20Z</time>
      </trkpt>
      <trkpt lat="43.03167" lon="0.31954">
        <ele>465.5</ele>
        <time>2026-07-08T11:03:21Z</time>
      </trkpt>
      <trkpt lat="43.03167" lon="0.31952">
        <ele>465.5</ele>
        <time>2026-07-08T11:03:22Z</time>
      </trkpt>
      <trkpt lat="43.03167" lon="0.31951">
        <ele>465.5</ele>
        <time>2026-07-08T11:03:23Z</time>
      </trkpt>
      <trkpt lat="43.03167" lon="0.3195">
        <ele>464.5</ele>
        <time>2026-07-08T11:03:23Z</time>
      </trkpt>
      <trkpt lat="43.03167" lon="0.3195">
        <ele>464.5</ele>
        <time>2026-07-08T11:03:24Z</time>
      </trkpt>
      <trkpt lat="43.03167" lon="0.31948">
        <ele>464.5</ele>
        <time>2026-07-08T11:03:25Z</time>
      </trkpt>
      <trkpt lat="43.03167" lon="0.31947">
        <ele>464.5</ele>
        <time>2026-07-08T11:03:26Z</time>
      </trkpt>
      <trkpt lat="43.03168" lon="0.31947">
        <ele>464.5</ele>
        <time>2026-07-08T11:03:27Z</time>
      </trkpt>
      <trkpt lat="43.03168" lon="0.31946">
        <ele>464.5</ele>
        <time>2026-07-08T11:03:27Z</time>
      </trkpt>
      <trkpt lat="43.03168" lon="0.31946">
        <ele>464.5</ele>
        <time>2026-07-08T11:03:28Z</time>
      </trkpt>
      <trkpt lat="43.03168" lon="0.31945">
        <ele>464.5</ele>
        <time>2026-07-08T11:03:29Z</time>
      </trkpt>
      <trkpt lat="43.03168" lon="0.31945">
        <ele>464.5</ele>
        <time>2026-07-08T11:03:30Z</time>
      </trkpt>
      <trkpt lat="43.03167" lon="0.31944">
        <ele>463.5</ele>
        <time>2026-07-08T11:03:30Z</time>
      </trkpt>
      <trkpt lat="43.03167" lon="0.31944">
        <ele>464.5</ele>
        <time>2026-07-08T11:03:31Z</time>
      </trkpt>
      <trkpt lat="43.03166" lon="0.31943">
        <ele>464.5</ele>
        <time>2026-07-08T11:03:32Z</time>
      </trkpt>
      <trkpt lat="43.03166" lon="0.31944">
        <ele>464.5</ele>
        <time>2026-07-08T11:03:33Z</time>
      </trkpt>
      <trkpt lat="43.03166" lon="0.31944">
        <ele>465.5</ele>
        <time>2026-07-08T11:03:34Z</time>
      </trkpt>
      <trkpt lat="43.03166" lon="0.31944">
        <ele>465.5</ele>
        <time>2026-07-08T11:03:35Z</time>
      </trkpt>
      <trkpt lat="43.03166" lon="0.31945">
        <ele>465.5</ele>
        <time>2026-07-08T11:03:36Z</time>
      </trkpt>
      <trkpt lat="43.03166" lon="0.31945">
        <ele>465.5</ele>
        <time>2026-07-08T11:03:37Z</time>
      </trkpt>
      <trkpt lat="43.03166" lon="0.31945">
        <ele>465.5</ele>
        <time>2026-07-08T11:03:38Z</time>
      </trkpt>
      <trkpt lat="43.03166" lon="0.31945">
        <ele>465.5</ele>
        <time>2026-07-08T11:03:39Z</time>
      </trkpt>
      <trkpt lat="43.03166" lon="0.31945">
        <ele>465.5</ele>
        <time>2026-07-08T11:03:40Z</time>
      </trkpt>
      <trkpt lat="43.03166" lon="0.31945">
        <ele>465.5</ele>
        <time>2026-07-08T11:03:41Z</time>
      </trkpt>
      <trkpt lat="43.03166" lon="0.31945">
        <ele>465.5</ele>
        <time>2026-07-08T11:03:42Z</time>
      </trkpt>
      <trkpt lat="43.03166" lon="0.31945">
        <ele>465.5</ele>
        <time>2026-07-08T11:03:43Z</time>
      </trkpt>
      <trkpt lat="43.03166" lon="0.31945">
        <ele>465.5</ele>
        <time>2026-07-08T11:03:44Z</time>
      </trkpt>
      <trkpt lat="43.03166" lon="0.31945">
        <ele>465.5</ele>
        <time>2026-07-08T11:03:45Z</time>
      </trkpt>
      <trkpt lat="43.03166" lon="0.31945">
        <ele>465.5</ele>
        <time>2026-07-08T11:03:46Z</time>
      </trkpt>
      <trkpt lat="43.03166" lon="0.31945">
        <ele>465.5</ele>
        <time>2026-07-08T11:03:47Z</time>
      </trkpt>
      <trkpt lat="43.03166" lon="0.31945">
        <ele>465.5</ele>
        <time>2026-07-08T11:03:48Z</time>
      </trkpt>
      <trkpt lat="43.03166" lon="0.31945">
        <ele>465.5</ele>
        <time>2026-07-08T11:03:48Z</time>
      </trkpt>
      <trkpt lat="43.03166" lon="0.31944">
        <ele>464.5</ele>
        <time>2026-07-08T11:03:49Z</time>
      </trkpt>
      <trkpt lat="43.03166" lon="0.31944">
        <ele>464.5</ele>
        <time>2026-07-08T11:03:50Z</time>
      </trkpt>
      <trkpt lat="43.03166" lon="0.31944">
        <ele>464.5</ele>
        <time>2026-07-08T11:03:50Z</time>
      </trkpt>
      <trkpt lat="43.03166" lon="0.31944">
        <ele>464.5</ele>
        <time>2026-07-08T11:03:51Z</time>
      </trkpt>
      <trkpt lat="43.03166" lon="0.31944">
        <ele>464.5</ele>
        <time>2026-07-08T11:03:52Z</time>
      </trkpt>
      <trkpt lat="43.03166" lon="0.31944">
        <ele>464.5</ele>
        <time>2026-07-08T11:03:53Z</time>
      </trkpt>
      <trkpt lat="43.03166" lon="0.31943">
        <ele>464.5</ele>
        <time>2026-07-08T11:03:54Z</time>
      </trkpt>
      <trkpt lat="43.03165" lon="0.31943">
        <ele>464.5</ele>
        <time>2026-07-08T11:03:55Z</time>
      </trkpt>
      <trkpt lat="43.03165" lon="0.31943">
        <ele>464.5</ele>
        <time>2026-07-08T11:03:56Z</time>
      </trkpt>
      <trkpt lat="43.03165" lon="0.31943">
        <ele>464.5</ele>
        <time>2026-07-08T11:03:57Z</time>
      </trkpt>
      <trkpt lat="43.03165" lon="0.31943">
        <ele>464.5</ele>
        <time>2026-07-08T11:03:58Z</time>
      </trkpt>
      <trkpt lat="43.03165" lon="0.31943">
        <ele>464.5</ele>
        <time>2026-07-08T11:03:59Z</time>
      </trkpt>
      <trkpt lat="43.03165" lon="0.31943">
        <ele>464.5</ele>
        <time>2026-07-08T11:04:00Z</time>
      </trkpt>
      <trkpt lat="43.03165" lon="0.31943">
        <ele>464.5</ele>
        <time>2026-07-08T11:04:01Z</time>
      </trkpt>
      <trkpt lat="43.03165" lon="0.31943">
        <ele>464.5</ele>
        <time>2026-07-08T11:04:02Z</time>
      </trkpt>
      <trkpt lat="43.03165" lon="0.31943">
        <ele>464.5</ele>
        <time>2026-07-08T11:04:03Z</time>
      </trkpt>
      <trkpt lat="43.03165" lon="0.31943">
        <ele>464.5</ele>
        <time>2026-07-08T11:04:04Z</time>
      </trkpt>
      <trkpt lat="43.03165" lon="0.31943">
        <ele>464.5</ele>
        <time>2026-07-08T11:04:05Z</time>
      </trkpt>
      <trkpt lat="43.03165" lon="0.31943">
        <ele>464.5</ele>
        <time>2026-07-08T11:04:06Z</time>
      </trkpt>
      <trkpt lat="43.03165" lon="0.31943">
        <ele>463.5</ele>
        <time>2026-07-08T11:04:07Z</time>
      </trkpt>
      <trkpt lat="43.03165" lon="0.31944">
        <ele>464.5</ele>
        <time>2026-07-08T11:04:08Z</time>
      </trkpt>
      <trkpt lat="43.03165" lon="0.31943">
        <ele>464.5</ele>
        <time>2026-07-08T11:04:09Z</time>
      </trkpt>
      <trkpt lat="43.03165" lon="0.31943">
        <ele>464.5</ele>
        <time>2026-07-08T11:04:10Z</time>
      </trkpt>
      <trkpt lat="43.03165" lon="0.31943">
        <ele>464.5</ele>
        <time>2026-07-08T11:04:11Z</time>
      </trkpt>
      <trkpt lat="43.03165" lon="0.31943">
        <ele>465.5</ele>
        <time>2026-07-08T11:04:12Z</time>
      </trkpt>
      <trkpt lat="43.03165" lon="0.31943">
        <ele>465.5</ele>
        <time>2026-07-08T11:04:13Z</time>
      </trkpt>
      <trkpt lat="43.03165" lon="0.31943">
        <ele>465.5</ele>
        <time>2026-07-08T11:04:13Z</time>
      </trkpt>
      <trkpt lat="43.03165" lon="0.31943">
        <ele>465.5</ele>
        <time>2026-07-08T11:04:14Z</time>
      </trkpt>
      <trkpt lat="43.03164" lon="0.31943">
        <ele>465.5</ele>
        <time>2026-07-08T11:04:15Z</time>
      </trkpt>
      <trkpt lat="43.03164" lon="0.31943">
        <ele>464.5</ele>
        <time>2026-07-08T11:04:15Z</time>
      </trkpt>
      <trkpt lat="43.03164" lon="0.31943">
        <ele>464.5</ele>
        <time>2026-07-08T11:04:16Z</time>
      </trkpt>
      <trkpt lat="43.03164" lon="0.31942">
        <ele>464.5</ele>
        <time>2026-07-08T11:04:17Z</time>
      </trkpt>
      <trkpt lat="43.03164" lon="0.31942">
        <ele>464.5</ele>
        <time>2026-07-08T11:04:18Z</time>
      </trkpt>
      <trkpt lat="43.03164" lon="0.31941">
        <ele>464.5</ele>
        <time>2026-07-08T11:04:19Z</time>
      </trkpt>
      <trkpt lat="43.03164" lon="0.31941">
        <ele>465.5</ele>
        <time>2026-07-08T11:04:20Z</time>
      </trkpt>
      <trkpt lat="43.03164" lon="0.3194">
        <ele>465.5</ele>
        <time>2026-07-08T11:04:21Z</time>
      </trkpt>
      <trkpt lat="43.03164" lon="0.3194">
        <ele>465.5</ele>
        <time>2026-07-08T11:04:22Z</time>
      </trkpt>
      <trkpt lat="43.03164" lon="0.31939">
        <ele>465.5</ele>
        <time>2026-07-08T11:04:23Z</time>
      </trkpt>
      <trkpt lat="43.03164" lon="0.31938">
        <ele>465.5</ele>
        <time>2026-07-08T11:04:24Z</time>
      </trkpt>
      <trkpt lat="43.03164" lon="0.31938">
        <ele>465.5</ele>
        <time>2026-07-08T11:04:25Z</time>
      </trkpt>
    </trkseg>
  </trk>
</gpx>